<?xml version="1.0" encoding="UTF-8" standalone="no" ?>
<gpx xmlns="http://www.topografix.com/GPX/1/1" xmlns:xsi="http://www.w3.org/2001/XMLSchema-instance" xsi:schemaLocation="http://www.topografix.com/GPX/1/1 http://www.topografix.com/GPX/1/1/gpx.xsd" version="1.1" creator="VisuGPX - https://www.visugpx.com">
  <metadata>
    <name>Mont Ventoux</name>
    <desc><![CDATA[Mont Ventoux par le versant nord.

#enregistré #asptt-jeudi]]></desc>
  </metadata>
  <trk>
    <name><![CDATA[Trace 1778741809795]]></name>
    <trkseg>
      <trkpt lat="44.1852" lon="5.32407">
        <ele>646.3</ele>
        <time>2026-05-14T06:56:49.795Z</time>
      </trkpt>
      <trkpt lat="44.18519" lon="5.32408">
        <ele>646.9</ele>
        <time>2026-05-14T06:56:51.773Z</time>
      </trkpt>
      <trkpt lat="44.18515" lon="5.32407">
        <ele>648.5</ele>
        <time>2026-05-14T06:56:52.789Z</time>
      </trkpt>
      <trkpt lat="44.18508" lon="5.32397">
        <ele>658</ele>
        <time>2026-05-14T06:56:54.794Z</time>
      </trkpt>
      <trkpt lat="44.1851" lon="5.32404">
        <ele>641</ele>
        <time>2026-05-14T06:56:56.787Z</time>
      </trkpt>
      <trkpt lat="44.1851" lon="5.32404">
        <ele>640.8</ele>
        <time>2026-05-14T06:56:57.787Z</time>
      </trkpt>
      <trkpt lat="44.1851" lon="5.32406">
        <ele>643.1</ele>
        <time>2026-05-14T06:56:59.000Z</time>
      </trkpt>
      <trkpt lat="44.1851" lon="5.32408">
        <ele>642.4</ele>
        <time>2026-05-14T06:57:00.000Z</time>
      </trkpt>
      <trkpt lat="44.18509" lon="5.32409">
        <ele>642.3</ele>
        <time>2026-05-14T06:57:01.000Z</time>
      </trkpt>
      <trkpt lat="44.18509" lon="5.32411">
        <ele>641.6</ele>
        <time>2026-05-14T06:57:02.000Z</time>
      </trkpt>
      <trkpt lat="44.18508" lon="5.32412">
        <ele>641</ele>
        <time>2026-05-14T06:57:03.000Z</time>
      </trkpt>
      <trkpt lat="44.18507" lon="5.32413">
        <ele>640.4</ele>
        <time>2026-05-14T06:57:04.000Z</time>
      </trkpt>
      <trkpt lat="44.18506" lon="5.32414">
        <ele>641.9</ele>
        <time>2026-05-14T06:57:05.000Z</time>
      </trkpt>
      <trkpt lat="44.18505" lon="5.32414">
        <ele>642.3</ele>
        <time>2026-05-14T06:57:06.000Z</time>
      </trkpt>
      <trkpt lat="44.18505" lon="5.32414">
        <ele>642.3</ele>
        <time>2026-05-14T06:57:07.000Z</time>
      </trkpt>
      <trkpt lat="44.18505" lon="5.32414">
        <ele>642.8</ele>
        <time>2026-05-14T06:57:08.000Z</time>
      </trkpt>
      <trkpt lat="44.18505" lon="5.32413">
        <ele>644</ele>
        <time>2026-05-14T06:57:09.000Z</time>
      </trkpt>
      <trkpt lat="44.18505" lon="5.32414">
        <ele>644.2</ele>
        <time>2026-05-14T06:57:10.000Z</time>
      </trkpt>
      <trkpt lat="44.18504" lon="5.32416">
        <ele>643.3</ele>
        <time>2026-05-14T06:57:11.000Z</time>
      </trkpt>
      <trkpt lat="44.18504" lon="5.32418">
        <ele>641.2</ele>
        <time>2026-05-14T06:57:12.000Z</time>
      </trkpt>
      <trkpt lat="44.18503" lon="5.32419">
        <ele>640.1</ele>
        <time>2026-05-14T06:57:13.000Z</time>
      </trkpt>
      <trkpt lat="44.18503" lon="5.32421">
        <ele>638.5</ele>
        <time>2026-05-14T06:57:14.000Z</time>
      </trkpt>
      <trkpt lat="44.18503" lon="5.32422">
        <ele>636.9</ele>
        <time>2026-05-14T06:57:15.000Z</time>
      </trkpt>
      <trkpt lat="44.18503" lon="5.32424">
        <ele>637.6</ele>
        <time>2026-05-14T06:57:16.000Z</time>
      </trkpt>
      <trkpt lat="44.18502" lon="5.32424">
        <ele>636.3</ele>
        <time>2026-05-14T06:57:17.000Z</time>
      </trkpt>
      <trkpt lat="44.18502" lon="5.32427">
        <ele>636.2</ele>
        <time>2026-05-14T06:57:18.000Z</time>
      </trkpt>
      <trkpt lat="44.18502" lon="5.32428">
        <ele>635</ele>
        <time>2026-05-14T06:57:19.000Z</time>
      </trkpt>
      <trkpt lat="44.18502" lon="5.3243">
        <ele>634.5</ele>
        <time>2026-05-14T06:57:20.000Z</time>
      </trkpt>
      <trkpt lat="44.18502" lon="5.32431">
        <ele>633.9</ele>
        <time>2026-05-14T06:57:21.000Z</time>
      </trkpt>
      <trkpt lat="44.18502" lon="5.32433">
        <ele>632.5</ele>
        <time>2026-05-14T06:57:22.000Z</time>
      </trkpt>
      <trkpt lat="44.18502" lon="5.32435">
        <ele>631.4</ele>
        <time>2026-05-14T06:57:23.000Z</time>
      </trkpt>
      <trkpt lat="44.18502" lon="5.32434">
        <ele>631.5</ele>
        <time>2026-05-14T06:57:24.000Z</time>
      </trkpt>
      <trkpt lat="44.18501" lon="5.32435">
        <ele>630.4</ele>
        <time>2026-05-14T06:57:25.000Z</time>
      </trkpt>
      <trkpt lat="44.18501" lon="5.32436">
        <ele>629.8</ele>
        <time>2026-05-14T06:57:26.000Z</time>
      </trkpt>
      <trkpt lat="44.185" lon="5.32436">
        <ele>629.3</ele>
        <time>2026-05-14T06:57:27.000Z</time>
      </trkpt>
      <trkpt lat="44.18499" lon="5.32437">
        <ele>629.5</ele>
        <time>2026-05-14T06:57:28.000Z</time>
      </trkpt>
      <trkpt lat="44.18497" lon="5.32437">
        <ele>629.7</ele>
        <time>2026-05-14T06:57:29.000Z</time>
      </trkpt>
      <trkpt lat="44.18496" lon="5.32437">
        <ele>629.5</ele>
        <time>2026-05-14T06:57:30.000Z</time>
      </trkpt>
      <trkpt lat="44.18495" lon="5.32437">
        <ele>629.3</ele>
        <time>2026-05-14T06:57:31.000Z</time>
      </trkpt>
      <trkpt lat="44.18495" lon="5.32436">
        <ele>628.8</ele>
        <time>2026-05-14T06:57:32.000Z</time>
      </trkpt>
      <trkpt lat="44.18491" lon="5.32433">
        <ele>630.2</ele>
        <time>2026-05-14T06:57:33.000Z</time>
      </trkpt>
      <trkpt lat="44.18489" lon="5.32432">
        <ele>631.1</ele>
        <time>2026-05-14T06:57:34.000Z</time>
      </trkpt>
      <trkpt lat="44.18488" lon="5.32433">
        <ele>631.6</ele>
        <time>2026-05-14T06:57:35.000Z</time>
      </trkpt>
      <trkpt lat="44.18487" lon="5.32433">
        <ele>632</ele>
        <time>2026-05-14T06:57:36.000Z</time>
      </trkpt>
      <trkpt lat="44.18486" lon="5.32432">
        <ele>633.2</ele>
        <time>2026-05-14T06:57:37.000Z</time>
      </trkpt>
      <trkpt lat="44.18485" lon="5.32433">
        <ele>631.6</ele>
        <time>2026-05-14T06:57:38.000Z</time>
      </trkpt>
      <trkpt lat="44.18485" lon="5.32434">
        <ele>631.3</ele>
        <time>2026-05-14T06:57:39.000Z</time>
      </trkpt>
      <trkpt lat="44.18484" lon="5.32434">
        <ele>630.8</ele>
        <time>2026-05-14T06:57:40.000Z</time>
      </trkpt>
      <trkpt lat="44.18482" lon="5.32435">
        <ele>630.6</ele>
        <time>2026-05-14T06:57:41.000Z</time>
      </trkpt>
      <trkpt lat="44.18481" lon="5.32436">
        <ele>630.6</ele>
        <time>2026-05-14T06:57:42.000Z</time>
      </trkpt>
      <trkpt lat="44.1848" lon="5.32436">
        <ele>630.7</ele>
        <time>2026-05-14T06:57:43.000Z</time>
      </trkpt>
      <trkpt lat="44.18479" lon="5.32438">
        <ele>630.5</ele>
        <time>2026-05-14T06:57:44.000Z</time>
      </trkpt>
      <trkpt lat="44.18477" lon="5.32438">
        <ele>631.1</ele>
        <time>2026-05-14T06:57:45.000Z</time>
      </trkpt>
      <trkpt lat="44.18476" lon="5.32437">
        <ele>630.7</ele>
        <time>2026-05-14T06:57:46.000Z</time>
      </trkpt>
      <trkpt lat="44.18475" lon="5.32437">
        <ele>631</ele>
        <time>2026-05-14T06:57:47.000Z</time>
      </trkpt>
      <trkpt lat="44.18475" lon="5.32436">
        <ele>631.1</ele>
        <time>2026-05-14T06:57:48.000Z</time>
      </trkpt>
      <trkpt lat="44.18475" lon="5.32436">
        <ele>631.3</ele>
        <time>2026-05-14T06:57:49.000Z</time>
      </trkpt>
      <trkpt lat="44.18474" lon="5.32437">
        <ele>631.9</ele>
        <time>2026-05-14T06:57:50.000Z</time>
      </trkpt>
      <trkpt lat="44.18474" lon="5.32438">
        <ele>632.1</ele>
        <time>2026-05-14T06:57:51.000Z</time>
      </trkpt>
      <trkpt lat="44.18474" lon="5.32439">
        <ele>632.6</ele>
        <time>2026-05-14T06:57:52.000Z</time>
      </trkpt>
      <trkpt lat="44.18474" lon="5.32439">
        <ele>632.7</ele>
        <time>2026-05-14T06:57:53.000Z</time>
      </trkpt>
      <trkpt lat="44.18474" lon="5.32439">
        <ele>634.2</ele>
        <time>2026-05-14T06:57:54.000Z</time>
      </trkpt>
      <trkpt lat="44.18474" lon="5.32439">
        <ele>635.3</ele>
        <time>2026-05-14T06:57:55.000Z</time>
      </trkpt>
      <trkpt lat="44.18473" lon="5.32439">
        <ele>635.6</ele>
        <time>2026-05-14T06:57:56.000Z</time>
      </trkpt>
      <trkpt lat="44.18473" lon="5.32438">
        <ele>635.6</ele>
        <time>2026-05-14T06:57:57.000Z</time>
      </trkpt>
      <trkpt lat="44.18473" lon="5.32437">
        <ele>635.7</ele>
        <time>2026-05-14T06:57:58.000Z</time>
      </trkpt>
      <trkpt lat="44.18473" lon="5.32437">
        <ele>635.7</ele>
        <time>2026-05-14T06:57:59.000Z</time>
      </trkpt>
      <trkpt lat="44.18473" lon="5.32437">
        <ele>635.4</ele>
        <time>2026-05-14T06:58:00.000Z</time>
      </trkpt>
      <trkpt lat="44.18473" lon="5.32436">
        <ele>635.6</ele>
        <time>2026-05-14T06:58:01.000Z</time>
      </trkpt>
      <trkpt lat="44.18473" lon="5.32435">
        <ele>635.5</ele>
        <time>2026-05-14T06:58:02.000Z</time>
      </trkpt>
      <trkpt lat="44.18473" lon="5.32435">
        <ele>635.3</ele>
        <time>2026-05-14T06:58:03.000Z</time>
      </trkpt>
      <trkpt lat="44.18474" lon="5.32435">
        <ele>635.4</ele>
        <time>2026-05-14T06:58:04.000Z</time>
      </trkpt>
      <trkpt lat="44.18475" lon="5.32435">
        <ele>635.6</ele>
        <time>2026-05-14T06:58:05.000Z</time>
      </trkpt>
      <trkpt lat="44.18474" lon="5.32436">
        <ele>635.3</ele>
        <time>2026-05-14T06:58:06.000Z</time>
      </trkpt>
      <trkpt lat="44.18475" lon="5.32435">
        <ele>635.3</ele>
        <time>2026-05-14T06:58:07.000Z</time>
      </trkpt>
      <trkpt lat="44.18475" lon="5.32431">
        <ele>635.2</ele>
        <time>2026-05-14T06:58:08.000Z</time>
      </trkpt>
      <trkpt lat="44.18477" lon="5.3243">
        <ele>633.3</ele>
        <time>2026-05-14T06:58:09.000Z</time>
      </trkpt>
      <trkpt lat="44.18477" lon="5.32428">
        <ele>633.1</ele>
        <time>2026-05-14T06:58:10.000Z</time>
      </trkpt>
      <trkpt lat="44.18478" lon="5.32427">
        <ele>632.4</ele>
        <time>2026-05-14T06:58:11.000Z</time>
      </trkpt>
      <trkpt lat="44.18479" lon="5.32426">
        <ele>631.4</ele>
        <time>2026-05-14T06:58:12.000Z</time>
      </trkpt>
      <trkpt lat="44.18479" lon="5.32425">
        <ele>631.5</ele>
        <time>2026-05-14T06:58:13.000Z</time>
      </trkpt>
      <trkpt lat="44.1848" lon="5.32424">
        <ele>631.9</ele>
        <time>2026-05-14T06:58:14.000Z</time>
      </trkpt>
      <trkpt lat="44.18481" lon="5.32423">
        <ele>631.6</ele>
        <time>2026-05-14T06:58:15.000Z</time>
      </trkpt>
      <trkpt lat="44.18482" lon="5.32423">
        <ele>630.9</ele>
        <time>2026-05-14T06:58:16.000Z</time>
      </trkpt>
      <trkpt lat="44.18483" lon="5.32422">
        <ele>629.9</ele>
        <time>2026-05-14T06:58:17.000Z</time>
      </trkpt>
      <trkpt lat="44.18484" lon="5.32421">
        <ele>628.7</ele>
        <time>2026-05-14T06:58:18.000Z</time>
      </trkpt>
      <trkpt lat="44.18485" lon="5.3242">
        <ele>627.8</ele>
        <time>2026-05-14T06:58:19.000Z</time>
      </trkpt>
      <trkpt lat="44.18486" lon="5.3242">
        <ele>626.4</ele>
        <time>2026-05-14T06:58:20.000Z</time>
      </trkpt>
      <trkpt lat="44.18488" lon="5.3242">
        <ele>624.6</ele>
        <time>2026-05-14T06:58:21.000Z</time>
      </trkpt>
      <trkpt lat="44.18489" lon="5.32419">
        <ele>622.9</ele>
        <time>2026-05-14T06:58:22.000Z</time>
      </trkpt>
      <trkpt lat="44.18491" lon="5.32418">
        <ele>621.3</ele>
        <time>2026-05-14T06:58:23.000Z</time>
      </trkpt>
      <trkpt lat="44.18492" lon="5.32417">
        <ele>620.3</ele>
        <time>2026-05-14T06:58:24.000Z</time>
      </trkpt>
      <trkpt lat="44.18492" lon="5.32415">
        <ele>620.1</ele>
        <time>2026-05-14T06:58:25.000Z</time>
      </trkpt>
      <trkpt lat="44.18492" lon="5.32414">
        <ele>619.3</ele>
        <time>2026-05-14T06:58:26.000Z</time>
      </trkpt>
      <trkpt lat="44.18491" lon="5.32413">
        <ele>619</ele>
        <time>2026-05-14T06:58:27.000Z</time>
      </trkpt>
      <trkpt lat="44.18491" lon="5.32412">
        <ele>618</ele>
        <time>2026-05-14T06:58:28.000Z</time>
      </trkpt>
      <trkpt lat="44.1849" lon="5.32411">
        <ele>616.9</ele>
        <time>2026-05-14T06:58:29.000Z</time>
      </trkpt>
      <trkpt lat="44.18489" lon="5.32409">
        <ele>615.3</ele>
        <time>2026-05-14T06:58:30.000Z</time>
      </trkpt>
      <trkpt lat="44.18488" lon="5.32409">
        <ele>613.7</ele>
        <time>2026-05-14T06:58:31.000Z</time>
      </trkpt>
      <trkpt lat="44.18487" lon="5.32409">
        <ele>612</ele>
        <time>2026-05-14T06:58:32.000Z</time>
      </trkpt>
      <trkpt lat="44.18485" lon="5.32408">
        <ele>610.4</ele>
        <time>2026-05-14T06:58:33.000Z</time>
      </trkpt>
      <trkpt lat="44.18485" lon="5.32409">
        <ele>608.9</ele>
        <time>2026-05-14T06:58:34.000Z</time>
      </trkpt>
      <trkpt lat="44.18484" lon="5.3241">
        <ele>607.6</ele>
        <time>2026-05-14T06:58:35.000Z</time>
      </trkpt>
      <trkpt lat="44.18483" lon="5.32411">
        <ele>606.9</ele>
        <time>2026-05-14T06:58:36.000Z</time>
      </trkpt>
      <trkpt lat="44.18482" lon="5.32411">
        <ele>605.8</ele>
        <time>2026-05-14T06:58:37.000Z</time>
      </trkpt>
      <trkpt lat="44.18481" lon="5.3241">
        <ele>604.2</ele>
        <time>2026-05-14T06:58:38.000Z</time>
      </trkpt>
      <trkpt lat="44.1848" lon="5.3241">
        <ele>603.1</ele>
        <time>2026-05-14T06:58:39.000Z</time>
      </trkpt>
      <trkpt lat="44.18479" lon="5.3241">
        <ele>602</ele>
        <time>2026-05-14T06:58:40.000Z</time>
      </trkpt>
      <trkpt lat="44.18478" lon="5.3241">
        <ele>601.8</ele>
        <time>2026-05-14T06:58:41.000Z</time>
      </trkpt>
      <trkpt lat="44.18477" lon="5.3241">
        <ele>601.9</ele>
        <time>2026-05-14T06:58:42.000Z</time>
      </trkpt>
      <trkpt lat="44.18477" lon="5.3241">
        <ele>602.6</ele>
        <time>2026-05-14T06:58:43.000Z</time>
      </trkpt>
      <trkpt lat="44.18476" lon="5.32409">
        <ele>602.3</ele>
        <time>2026-05-14T06:58:44.000Z</time>
      </trkpt>
      <trkpt lat="44.18475" lon="5.32409">
        <ele>601.8</ele>
        <time>2026-05-14T06:58:45.000Z</time>
      </trkpt>
      <trkpt lat="44.18474" lon="5.32407">
        <ele>601.3</ele>
        <time>2026-05-14T06:58:46.000Z</time>
      </trkpt>
      <trkpt lat="44.18473" lon="5.32406">
        <ele>600.9</ele>
        <time>2026-05-14T06:58:47.000Z</time>
      </trkpt>
      <trkpt lat="44.18472" lon="5.32405">
        <ele>601</ele>
        <time>2026-05-14T06:58:48.000Z</time>
      </trkpt>
      <trkpt lat="44.1847" lon="5.32405">
        <ele>601.8</ele>
        <time>2026-05-14T06:58:49.000Z</time>
      </trkpt>
      <trkpt lat="44.18469" lon="5.32404">
        <ele>601.9</ele>
        <time>2026-05-14T06:58:50.000Z</time>
      </trkpt>
      <trkpt lat="44.18468" lon="5.32403">
        <ele>601.4</ele>
        <time>2026-05-14T06:58:51.000Z</time>
      </trkpt>
      <trkpt lat="44.18468" lon="5.32402">
        <ele>600.7</ele>
        <time>2026-05-14T06:58:52.000Z</time>
      </trkpt>
      <trkpt lat="44.18467" lon="5.32401">
        <ele>600.5</ele>
        <time>2026-05-14T06:58:53.000Z</time>
      </trkpt>
      <trkpt lat="44.18465" lon="5.32399">
        <ele>600.4</ele>
        <time>2026-05-14T06:58:54.000Z</time>
      </trkpt>
      <trkpt lat="44.18464" lon="5.32397">
        <ele>600.3</ele>
        <time>2026-05-14T06:58:55.000Z</time>
      </trkpt>
      <trkpt lat="44.18463" lon="5.32396">
        <ele>599.3</ele>
        <time>2026-05-14T06:58:56.000Z</time>
      </trkpt>
      <trkpt lat="44.18461" lon="5.32395">
        <ele>599.8</ele>
        <time>2026-05-14T06:58:57.000Z</time>
      </trkpt>
      <trkpt lat="44.18461" lon="5.32394">
        <ele>599.4</ele>
        <time>2026-05-14T06:58:58.000Z</time>
      </trkpt>
      <trkpt lat="44.18461" lon="5.32393">
        <ele>599</ele>
        <time>2026-05-14T06:58:59.000Z</time>
      </trkpt>
      <trkpt lat="44.18461" lon="5.32392">
        <ele>598.9</ele>
        <time>2026-05-14T06:59:00.000Z</time>
      </trkpt>
      <trkpt lat="44.1846" lon="5.32391">
        <ele>598.7</ele>
        <time>2026-05-14T06:59:01.000Z</time>
      </trkpt>
      <trkpt lat="44.18459" lon="5.32389">
        <ele>598.5</ele>
        <time>2026-05-14T06:59:02.000Z</time>
      </trkpt>
      <trkpt lat="44.18458" lon="5.32388">
        <ele>597.6</ele>
        <time>2026-05-14T06:59:03.000Z</time>
      </trkpt>
      <trkpt lat="44.18457" lon="5.32386">
        <ele>597.2</ele>
        <time>2026-05-14T06:59:04.000Z</time>
      </trkpt>
      <trkpt lat="44.18457" lon="5.32385">
        <ele>595.6</ele>
        <time>2026-05-14T06:59:05.000Z</time>
      </trkpt>
      <trkpt lat="44.18457" lon="5.32383">
        <ele>594</ele>
        <time>2026-05-14T06:59:06.000Z</time>
      </trkpt>
      <trkpt lat="44.18454" lon="5.32383">
        <ele>593.8</ele>
        <time>2026-05-14T06:59:07.000Z</time>
      </trkpt>
      <trkpt lat="44.18451" lon="5.32383">
        <ele>594.4</ele>
        <time>2026-05-14T06:59:08.000Z</time>
      </trkpt>
      <trkpt lat="44.1845" lon="5.3238">
        <ele>594.4</ele>
        <time>2026-05-14T06:59:09.000Z</time>
      </trkpt>
      <trkpt lat="44.18446" lon="5.32381">
        <ele>595.2</ele>
        <time>2026-05-14T06:59:10.000Z</time>
      </trkpt>
      <trkpt lat="44.18444" lon="5.3238">
        <ele>595.6</ele>
        <time>2026-05-14T06:59:11.000Z</time>
      </trkpt>
      <trkpt lat="44.18443" lon="5.3238">
        <ele>594.5</ele>
        <time>2026-05-14T06:59:12.000Z</time>
      </trkpt>
      <trkpt lat="44.18442" lon="5.32379">
        <ele>594</ele>
        <time>2026-05-14T06:59:13.000Z</time>
      </trkpt>
      <trkpt lat="44.18442" lon="5.32378">
        <ele>593.7</ele>
        <time>2026-05-14T06:59:14.000Z</time>
      </trkpt>
      <trkpt lat="44.18442" lon="5.32376">
        <ele>592.9</ele>
        <time>2026-05-14T06:59:15.000Z</time>
      </trkpt>
      <trkpt lat="44.18441" lon="5.32375">
        <ele>592.5</ele>
        <time>2026-05-14T06:59:16.000Z</time>
      </trkpt>
      <trkpt lat="44.1844" lon="5.32373">
        <ele>593.4</ele>
        <time>2026-05-14T06:59:17.000Z</time>
      </trkpt>
      <trkpt lat="44.18441" lon="5.32371">
        <ele>594.8</ele>
        <time>2026-05-14T06:59:18.000Z</time>
      </trkpt>
      <trkpt lat="44.18441" lon="5.32369">
        <ele>596.2</ele>
        <time>2026-05-14T06:59:19.000Z</time>
      </trkpt>
      <trkpt lat="44.1844" lon="5.32368">
        <ele>596.9</ele>
        <time>2026-05-14T06:59:20.000Z</time>
      </trkpt>
      <trkpt lat="44.18438" lon="5.32367">
        <ele>597.5</ele>
        <time>2026-05-14T06:59:21.000Z</time>
      </trkpt>
      <trkpt lat="44.18437" lon="5.32365">
        <ele>597.6</ele>
        <time>2026-05-14T06:59:22.000Z</time>
      </trkpt>
      <trkpt lat="44.18436" lon="5.32363">
        <ele>598.2</ele>
        <time>2026-05-14T06:59:23.000Z</time>
      </trkpt>
      <trkpt lat="44.18435" lon="5.32361">
        <ele>600.8</ele>
        <time>2026-05-14T06:59:24.000Z</time>
      </trkpt>
      <trkpt lat="44.18435" lon="5.3236">
        <ele>603.1</ele>
        <time>2026-05-14T06:59:25.000Z</time>
      </trkpt>
      <trkpt lat="44.18435" lon="5.32358">
        <ele>603.9</ele>
        <time>2026-05-14T06:59:26.000Z</time>
      </trkpt>
      <trkpt lat="44.18434" lon="5.32356">
        <ele>604.4</ele>
        <time>2026-05-14T06:59:27.000Z</time>
      </trkpt>
      <trkpt lat="44.18434" lon="5.32354">
        <ele>604.6</ele>
        <time>2026-05-14T06:59:28.000Z</time>
      </trkpt>
      <trkpt lat="44.18433" lon="5.32352">
        <ele>604.3</ele>
        <time>2026-05-14T06:59:29.000Z</time>
      </trkpt>
      <trkpt lat="44.18433" lon="5.3235">
        <ele>604.4</ele>
        <time>2026-05-14T06:59:30.000Z</time>
      </trkpt>
      <trkpt lat="44.18432" lon="5.32349">
        <ele>605.4</ele>
        <time>2026-05-14T06:59:31.000Z</time>
      </trkpt>
      <trkpt lat="44.18432" lon="5.32349">
        <ele>605.6</ele>
        <time>2026-05-14T06:59:32.000Z</time>
      </trkpt>
      <trkpt lat="44.18432" lon="5.32348">
        <ele>605.7</ele>
        <time>2026-05-14T06:59:33.000Z</time>
      </trkpt>
      <trkpt lat="44.18433" lon="5.32347">
        <ele>606.7</ele>
        <time>2026-05-14T06:59:34.000Z</time>
      </trkpt>
      <trkpt lat="44.18433" lon="5.32345">
        <ele>607.2</ele>
        <time>2026-05-14T06:59:35.000Z</time>
      </trkpt>
      <trkpt lat="44.18432" lon="5.32343">
        <ele>607.9</ele>
        <time>2026-05-14T06:59:36.000Z</time>
      </trkpt>
      <trkpt lat="44.18431" lon="5.32342">
        <ele>608.7</ele>
        <time>2026-05-14T06:59:37.000Z</time>
      </trkpt>
      <trkpt lat="44.1843" lon="5.32342">
        <ele>609</ele>
        <time>2026-05-14T06:59:38.000Z</time>
      </trkpt>
      <trkpt lat="44.1843" lon="5.3234">
        <ele>609.9</ele>
        <time>2026-05-14T06:59:39.000Z</time>
      </trkpt>
      <trkpt lat="44.1843" lon="5.32339">
        <ele>610.6</ele>
        <time>2026-05-14T06:59:40.000Z</time>
      </trkpt>
      <trkpt lat="44.1843" lon="5.32338">
        <ele>610.1</ele>
        <time>2026-05-14T06:59:41.000Z</time>
      </trkpt>
      <trkpt lat="44.1843" lon="5.32338">
        <ele>609.5</ele>
        <time>2026-05-14T06:59:42.000Z</time>
      </trkpt>
      <trkpt lat="44.18428" lon="5.32337">
        <ele>609.7</ele>
        <time>2026-05-14T06:59:43.000Z</time>
      </trkpt>
      <trkpt lat="44.18427" lon="5.32336">
        <ele>609.9</ele>
        <time>2026-05-14T06:59:44.000Z</time>
      </trkpt>
      <trkpt lat="44.18427" lon="5.32335">
        <ele>609.2</ele>
        <time>2026-05-14T06:59:45.000Z</time>
      </trkpt>
      <trkpt lat="44.18426" lon="5.32333">
        <ele>608.3</ele>
        <time>2026-05-14T06:59:46.000Z</time>
      </trkpt>
      <trkpt lat="44.18425" lon="5.32332">
        <ele>608.3</ele>
        <time>2026-05-14T06:59:47.000Z</time>
      </trkpt>
      <trkpt lat="44.18425" lon="5.3233">
        <ele>607.9</ele>
        <time>2026-05-14T06:59:48.000Z</time>
      </trkpt>
      <trkpt lat="44.18424" lon="5.32329">
        <ele>607.3</ele>
        <time>2026-05-14T06:59:49.000Z</time>
      </trkpt>
      <trkpt lat="44.18423" lon="5.32329">
        <ele>606.8</ele>
        <time>2026-05-14T06:59:50.000Z</time>
      </trkpt>
      <trkpt lat="44.18422" lon="5.32328">
        <ele>606.6</ele>
        <time>2026-05-14T06:59:51.000Z</time>
      </trkpt>
      <trkpt lat="44.18421" lon="5.32326">
        <ele>606.2</ele>
        <time>2026-05-14T06:59:52.000Z</time>
      </trkpt>
      <trkpt lat="44.1842" lon="5.32323">
        <ele>606.1</ele>
        <time>2026-05-14T06:59:53.000Z</time>
      </trkpt>
      <trkpt lat="44.18419" lon="5.32322">
        <ele>605.8</ele>
        <time>2026-05-14T06:59:54.000Z</time>
      </trkpt>
      <trkpt lat="44.18418" lon="5.32321">
        <ele>604.9</ele>
        <time>2026-05-14T06:59:55.000Z</time>
      </trkpt>
      <trkpt lat="44.18417" lon="5.32321">
        <ele>604.6</ele>
        <time>2026-05-14T06:59:56.000Z</time>
      </trkpt>
      <trkpt lat="44.18416" lon="5.32319">
        <ele>604.8</ele>
        <time>2026-05-14T06:59:57.000Z</time>
      </trkpt>
      <trkpt lat="44.18415" lon="5.32317">
        <ele>605</ele>
        <time>2026-05-14T06:59:58.000Z</time>
      </trkpt>
      <trkpt lat="44.18415" lon="5.32316">
        <ele>604.8</ele>
        <time>2026-05-14T06:59:59.000Z</time>
      </trkpt>
      <trkpt lat="44.18414" lon="5.32316">
        <ele>604.3</ele>
        <time>2026-05-14T07:00:00.000Z</time>
      </trkpt>
      <trkpt lat="44.18414" lon="5.32316">
        <ele>603.7</ele>
        <time>2026-05-14T07:00:01.000Z</time>
      </trkpt>
      <trkpt lat="44.18413" lon="5.32314">
        <ele>603.6</ele>
        <time>2026-05-14T07:00:02.000Z</time>
      </trkpt>
      <trkpt lat="44.18413" lon="5.32314">
        <ele>603.5</ele>
        <time>2026-05-14T07:00:03.000Z</time>
      </trkpt>
      <trkpt lat="44.18412" lon="5.32313">
        <ele>603.9</ele>
        <time>2026-05-14T07:00:04.000Z</time>
      </trkpt>
      <trkpt lat="44.18412" lon="5.32312">
        <ele>604.2</ele>
        <time>2026-05-14T07:00:05.000Z</time>
      </trkpt>
      <trkpt lat="44.18413" lon="5.3231">
        <ele>604.1</ele>
        <time>2026-05-14T07:00:06.000Z</time>
      </trkpt>
      <trkpt lat="44.18414" lon="5.32309">
        <ele>604</ele>
        <time>2026-05-14T07:00:07.000Z</time>
      </trkpt>
      <trkpt lat="44.18415" lon="5.32308">
        <ele>603.1</ele>
        <time>2026-05-14T07:00:08.000Z</time>
      </trkpt>
      <trkpt lat="44.18416" lon="5.32307">
        <ele>602.1</ele>
        <time>2026-05-14T07:00:09.000Z</time>
      </trkpt>
      <trkpt lat="44.18416" lon="5.32307">
        <ele>601.9</ele>
        <time>2026-05-14T07:00:10.000Z</time>
      </trkpt>
      <trkpt lat="44.18417" lon="5.32306">
        <ele>602</ele>
        <time>2026-05-14T07:00:11.000Z</time>
      </trkpt>
      <trkpt lat="44.18418" lon="5.32305">
        <ele>602.1</ele>
        <time>2026-05-14T07:00:12.000Z</time>
      </trkpt>
      <trkpt lat="44.18419" lon="5.32304">
        <ele>601.8</ele>
        <time>2026-05-14T07:00:13.000Z</time>
      </trkpt>
      <trkpt lat="44.1842" lon="5.32304">
        <ele>602</ele>
        <time>2026-05-14T07:00:14.000Z</time>
      </trkpt>
      <trkpt lat="44.18421" lon="5.32303">
        <ele>601.9</ele>
        <time>2026-05-14T07:00:15.000Z</time>
      </trkpt>
      <trkpt lat="44.18422" lon="5.32303">
        <ele>601.6</ele>
        <time>2026-05-14T07:00:16.000Z</time>
      </trkpt>
      <trkpt lat="44.18423" lon="5.32302">
        <ele>601</ele>
        <time>2026-05-14T07:00:17.000Z</time>
      </trkpt>
      <trkpt lat="44.18424" lon="5.32301">
        <ele>601</ele>
        <time>2026-05-14T07:00:18.000Z</time>
      </trkpt>
      <trkpt lat="44.18424" lon="5.32301">
        <ele>600.4</ele>
        <time>2026-05-14T07:00:19.000Z</time>
      </trkpt>
      <trkpt lat="44.18424" lon="5.32299">
        <ele>599.8</ele>
        <time>2026-05-14T07:00:20.000Z</time>
      </trkpt>
      <trkpt lat="44.18424" lon="5.32298">
        <ele>599.3</ele>
        <time>2026-05-14T07:00:21.000Z</time>
      </trkpt>
      <trkpt lat="44.18425" lon="5.32296">
        <ele>598.7</ele>
        <time>2026-05-14T07:00:22.000Z</time>
      </trkpt>
      <trkpt lat="44.18426" lon="5.32295">
        <ele>598.7</ele>
        <time>2026-05-14T07:00:23.000Z</time>
      </trkpt>
      <trkpt lat="44.18426" lon="5.32293">
        <ele>597.7</ele>
        <time>2026-05-14T07:00:24.000Z</time>
      </trkpt>
      <trkpt lat="44.18427" lon="5.32292">
        <ele>597</ele>
        <time>2026-05-14T07:00:25.000Z</time>
      </trkpt>
      <trkpt lat="44.18428" lon="5.32291">
        <ele>596.8</ele>
        <time>2026-05-14T07:00:26.000Z</time>
      </trkpt>
      <trkpt lat="44.18429" lon="5.32289">
        <ele>596.3</ele>
        <time>2026-05-14T07:00:27.000Z</time>
      </trkpt>
      <trkpt lat="44.1843" lon="5.32287">
        <ele>595.3</ele>
        <time>2026-05-14T07:00:28.000Z</time>
      </trkpt>
      <trkpt lat="44.18431" lon="5.32285">
        <ele>593.2</ele>
        <time>2026-05-14T07:00:29.000Z</time>
      </trkpt>
      <trkpt lat="44.18431" lon="5.32283">
        <ele>591.7</ele>
        <time>2026-05-14T07:00:30.000Z</time>
      </trkpt>
      <trkpt lat="44.18431" lon="5.32282">
        <ele>591.2</ele>
        <time>2026-05-14T07:00:31.000Z</time>
      </trkpt>
      <trkpt lat="44.18432" lon="5.3228">
        <ele>591.4</ele>
        <time>2026-05-14T07:00:32.000Z</time>
      </trkpt>
      <trkpt lat="44.18433" lon="5.32279">
        <ele>591</ele>
        <time>2026-05-14T07:00:33.000Z</time>
      </trkpt>
      <trkpt lat="44.18433" lon="5.32277">
        <ele>590.8</ele>
        <time>2026-05-14T07:00:34.000Z</time>
      </trkpt>
      <trkpt lat="44.18433" lon="5.32275">
        <ele>590.3</ele>
        <time>2026-05-14T07:00:35.000Z</time>
      </trkpt>
      <trkpt lat="44.18434" lon="5.32273">
        <ele>590.3</ele>
        <time>2026-05-14T07:00:36.000Z</time>
      </trkpt>
      <trkpt lat="44.18435" lon="5.32271">
        <ele>590.4</ele>
        <time>2026-05-14T07:00:37.000Z</time>
      </trkpt>
      <trkpt lat="44.18435" lon="5.3227">
        <ele>590.4</ele>
        <time>2026-05-14T07:00:38.000Z</time>
      </trkpt>
      <trkpt lat="44.18436" lon="5.32268">
        <ele>590.5</ele>
        <time>2026-05-14T07:00:39.000Z</time>
      </trkpt>
      <trkpt lat="44.18436" lon="5.32267">
        <ele>589.9</ele>
        <time>2026-05-14T07:00:40.000Z</time>
      </trkpt>
      <trkpt lat="44.18436" lon="5.32265">
        <ele>589.2</ele>
        <time>2026-05-14T07:00:41.000Z</time>
      </trkpt>
      <trkpt lat="44.18436" lon="5.32263">
        <ele>588.8</ele>
        <time>2026-05-14T07:00:42.000Z</time>
      </trkpt>
      <trkpt lat="44.18433" lon="5.32264">
        <ele>590.6</ele>
        <time>2026-05-14T07:00:43.000Z</time>
      </trkpt>
      <trkpt lat="44.18433" lon="5.32261">
        <ele>590.4</ele>
        <time>2026-05-14T07:00:44.000Z</time>
      </trkpt>
      <trkpt lat="44.18434" lon="5.3226">
        <ele>590.3</ele>
        <time>2026-05-14T07:00:45.000Z</time>
      </trkpt>
      <trkpt lat="44.18435" lon="5.32258">
        <ele>589.7</ele>
        <time>2026-05-14T07:00:46.000Z</time>
      </trkpt>
      <trkpt lat="44.18435" lon="5.32257">
        <ele>589</ele>
        <time>2026-05-14T07:00:47.000Z</time>
      </trkpt>
      <trkpt lat="44.18435" lon="5.32256">
        <ele>588.9</ele>
        <time>2026-05-14T07:00:48.000Z</time>
      </trkpt>
      <trkpt lat="44.18435" lon="5.32255">
        <ele>588.8</ele>
        <time>2026-05-14T07:00:49.000Z</time>
      </trkpt>
      <trkpt lat="44.18434" lon="5.32253">
        <ele>588.3</ele>
        <time>2026-05-14T07:00:50.000Z</time>
      </trkpt>
      <trkpt lat="44.18434" lon="5.32251">
        <ele>588.4</ele>
        <time>2026-05-14T07:00:51.000Z</time>
      </trkpt>
      <trkpt lat="44.18433" lon="5.32248">
        <ele>588.4</ele>
        <time>2026-05-14T07:00:52.000Z</time>
      </trkpt>
      <trkpt lat="44.18433" lon="5.32247">
        <ele>588.6</ele>
        <time>2026-05-14T07:00:53.000Z</time>
      </trkpt>
      <trkpt lat="44.18432" lon="5.32245">
        <ele>588</ele>
        <time>2026-05-14T07:00:54.000Z</time>
      </trkpt>
      <trkpt lat="44.18431" lon="5.32244">
        <ele>587.9</ele>
        <time>2026-05-14T07:00:55.000Z</time>
      </trkpt>
      <trkpt lat="44.18431" lon="5.32242">
        <ele>587.8</ele>
        <time>2026-05-14T07:00:56.000Z</time>
      </trkpt>
      <trkpt lat="44.1843" lon="5.3224">
        <ele>588</ele>
        <time>2026-05-14T07:00:57.000Z</time>
      </trkpt>
      <trkpt lat="44.18431" lon="5.32238">
        <ele>587.4</ele>
        <time>2026-05-14T07:00:58.000Z</time>
      </trkpt>
      <trkpt lat="44.18431" lon="5.32237">
        <ele>587.4</ele>
        <time>2026-05-14T07:00:59.000Z</time>
      </trkpt>
      <trkpt lat="44.18431" lon="5.32235">
        <ele>587.3</ele>
        <time>2026-05-14T07:01:00.000Z</time>
      </trkpt>
      <trkpt lat="44.18431" lon="5.32234">
        <ele>587.1</ele>
        <time>2026-05-14T07:01:01.000Z</time>
      </trkpt>
      <trkpt lat="44.18431" lon="5.32233">
        <ele>587.1</ele>
        <time>2026-05-14T07:01:02.000Z</time>
      </trkpt>
      <trkpt lat="44.18431" lon="5.32231">
        <ele>586.9</ele>
        <time>2026-05-14T07:01:03.000Z</time>
      </trkpt>
      <trkpt lat="44.18431" lon="5.32229">
        <ele>587.2</ele>
        <time>2026-05-14T07:01:04.000Z</time>
      </trkpt>
      <trkpt lat="44.18432" lon="5.32227">
        <ele>587.1</ele>
        <time>2026-05-14T07:01:05.000Z</time>
      </trkpt>
      <trkpt lat="44.18432" lon="5.32224">
        <ele>586.7</ele>
        <time>2026-05-14T07:01:06.000Z</time>
      </trkpt>
      <trkpt lat="44.18432" lon="5.32223">
        <ele>586.9</ele>
        <time>2026-05-14T07:01:07.000Z</time>
      </trkpt>
      <trkpt lat="44.18433" lon="5.32222">
        <ele>586.9</ele>
        <time>2026-05-14T07:01:08.000Z</time>
      </trkpt>
      <trkpt lat="44.18433" lon="5.32222">
        <ele>587.2</ele>
        <time>2026-05-14T07:01:09.000Z</time>
      </trkpt>
      <trkpt lat="44.18433" lon="5.3222">
        <ele>586.4</ele>
        <time>2026-05-14T07:01:10.000Z</time>
      </trkpt>
      <trkpt lat="44.18433" lon="5.32217">
        <ele>586.2</ele>
        <time>2026-05-14T07:01:11.000Z</time>
      </trkpt>
      <trkpt lat="44.18433" lon="5.32214">
        <ele>585.9</ele>
        <time>2026-05-14T07:01:12.000Z</time>
      </trkpt>
      <trkpt lat="44.18433" lon="5.32213">
        <ele>585.6</ele>
        <time>2026-05-14T07:01:13.000Z</time>
      </trkpt>
      <trkpt lat="44.18433" lon="5.32211">
        <ele>585.6</ele>
        <time>2026-05-14T07:01:14.000Z</time>
      </trkpt>
      <trkpt lat="44.18433" lon="5.32209">
        <ele>585.6</ele>
        <time>2026-05-14T07:01:15.000Z</time>
      </trkpt>
      <trkpt lat="44.18433" lon="5.32207">
        <ele>584.8</ele>
        <time>2026-05-14T07:01:16.000Z</time>
      </trkpt>
      <trkpt lat="44.18433" lon="5.32206">
        <ele>584.2</ele>
        <time>2026-05-14T07:01:17.000Z</time>
      </trkpt>
      <trkpt lat="44.18432" lon="5.32205">
        <ele>583.9</ele>
        <time>2026-05-14T07:01:18.000Z</time>
      </trkpt>
      <trkpt lat="44.18432" lon="5.32203">
        <ele>583.6</ele>
        <time>2026-05-14T07:01:19.000Z</time>
      </trkpt>
      <trkpt lat="44.18432" lon="5.32201">
        <ele>583.4</ele>
        <time>2026-05-14T07:01:20.000Z</time>
      </trkpt>
      <trkpt lat="44.18431" lon="5.32199">
        <ele>583.8</ele>
        <time>2026-05-14T07:01:21.000Z</time>
      </trkpt>
      <trkpt lat="44.1843" lon="5.32197">
        <ele>583.8</ele>
        <time>2026-05-14T07:01:22.000Z</time>
      </trkpt>
      <trkpt lat="44.1843" lon="5.32195">
        <ele>584</ele>
        <time>2026-05-14T07:01:23.000Z</time>
      </trkpt>
      <trkpt lat="44.18429" lon="5.32195">
        <ele>584.4</ele>
        <time>2026-05-14T07:01:24.000Z</time>
      </trkpt>
      <trkpt lat="44.18429" lon="5.32193">
        <ele>583.1</ele>
        <time>2026-05-14T07:01:25.000Z</time>
      </trkpt>
      <trkpt lat="44.18429" lon="5.32192">
        <ele>582.1</ele>
        <time>2026-05-14T07:01:26.000Z</time>
      </trkpt>
      <trkpt lat="44.18429" lon="5.3219">
        <ele>581.4</ele>
        <time>2026-05-14T07:01:27.000Z</time>
      </trkpt>
      <trkpt lat="44.18429" lon="5.32188">
        <ele>580.4</ele>
        <time>2026-05-14T07:01:28.000Z</time>
      </trkpt>
      <trkpt lat="44.18429" lon="5.32185">
        <ele>580</ele>
        <time>2026-05-14T07:01:29.000Z</time>
      </trkpt>
      <trkpt lat="44.18429" lon="5.32183">
        <ele>580.2</ele>
        <time>2026-05-14T07:01:30.000Z</time>
      </trkpt>
      <trkpt lat="44.18429" lon="5.32181">
        <ele>580.1</ele>
        <time>2026-05-14T07:01:31.000Z</time>
      </trkpt>
      <trkpt lat="44.18429" lon="5.3218">
        <ele>580.1</ele>
        <time>2026-05-14T07:01:32.000Z</time>
      </trkpt>
      <trkpt lat="44.18429" lon="5.32178">
        <ele>580.8</ele>
        <time>2026-05-14T07:01:33.000Z</time>
      </trkpt>
      <trkpt lat="44.18429" lon="5.32177">
        <ele>580.7</ele>
        <time>2026-05-14T07:01:34.000Z</time>
      </trkpt>
      <trkpt lat="44.18429" lon="5.32176">
        <ele>580.4</ele>
        <time>2026-05-14T07:01:35.000Z</time>
      </trkpt>
      <trkpt lat="44.18428" lon="5.32174">
        <ele>581.4</ele>
        <time>2026-05-14T07:01:36.000Z</time>
      </trkpt>
      <trkpt lat="44.18428" lon="5.32172">
        <ele>581.5</ele>
        <time>2026-05-14T07:01:37.000Z</time>
      </trkpt>
      <trkpt lat="44.18428" lon="5.32171">
        <ele>581</ele>
        <time>2026-05-14T07:01:38.000Z</time>
      </trkpt>
      <trkpt lat="44.18428" lon="5.32169">
        <ele>580.7</ele>
        <time>2026-05-14T07:01:39.000Z</time>
      </trkpt>
      <trkpt lat="44.18428" lon="5.32167">
        <ele>580.4</ele>
        <time>2026-05-14T07:01:40.000Z</time>
      </trkpt>
      <trkpt lat="44.18428" lon="5.32166">
        <ele>579.8</ele>
        <time>2026-05-14T07:01:41.000Z</time>
      </trkpt>
      <trkpt lat="44.18427" lon="5.32164">
        <ele>579.6</ele>
        <time>2026-05-14T07:01:42.000Z</time>
      </trkpt>
      <trkpt lat="44.18427" lon="5.32162">
        <ele>579.2</ele>
        <time>2026-05-14T07:01:43.000Z</time>
      </trkpt>
      <trkpt lat="44.18426" lon="5.3216">
        <ele>579</ele>
        <time>2026-05-14T07:01:44.000Z</time>
      </trkpt>
      <trkpt lat="44.18426" lon="5.32158">
        <ele>578.5</ele>
        <time>2026-05-14T07:01:45.000Z</time>
      </trkpt>
      <trkpt lat="44.18426" lon="5.32157">
        <ele>579</ele>
        <time>2026-05-14T07:01:46.000Z</time>
      </trkpt>
      <trkpt lat="44.18426" lon="5.32155">
        <ele>579.2</ele>
        <time>2026-05-14T07:01:47.000Z</time>
      </trkpt>
      <trkpt lat="44.18425" lon="5.32154">
        <ele>578.7</ele>
        <time>2026-05-14T07:01:48.000Z</time>
      </trkpt>
      <trkpt lat="44.18425" lon="5.32153">
        <ele>578</ele>
        <time>2026-05-14T07:01:49.000Z</time>
      </trkpt>
      <trkpt lat="44.18425" lon="5.32151">
        <ele>578.3</ele>
        <time>2026-05-14T07:01:50.000Z</time>
      </trkpt>
      <trkpt lat="44.18425" lon="5.3215">
        <ele>577.9</ele>
        <time>2026-05-14T07:01:51.000Z</time>
      </trkpt>
      <trkpt lat="44.18424" lon="5.32148">
        <ele>577.1</ele>
        <time>2026-05-14T07:01:52.000Z</time>
      </trkpt>
      <trkpt lat="44.18424" lon="5.32147">
        <ele>576.2</ele>
        <time>2026-05-14T07:01:53.000Z</time>
      </trkpt>
      <trkpt lat="44.18423" lon="5.32144">
        <ele>575.7</ele>
        <time>2026-05-14T07:01:54.000Z</time>
      </trkpt>
      <trkpt lat="44.18423" lon="5.32143">
        <ele>575.8</ele>
        <time>2026-05-14T07:01:55.000Z</time>
      </trkpt>
      <trkpt lat="44.18423" lon="5.32142">
        <ele>576</ele>
        <time>2026-05-14T07:01:56.000Z</time>
      </trkpt>
      <trkpt lat="44.18423" lon="5.32141">
        <ele>575.7</ele>
        <time>2026-05-14T07:01:57.000Z</time>
      </trkpt>
      <trkpt lat="44.18423" lon="5.32141">
        <ele>575.1</ele>
        <time>2026-05-14T07:01:58.000Z</time>
      </trkpt>
      <trkpt lat="44.18424" lon="5.32141">
        <ele>574.9</ele>
        <time>2026-05-14T07:01:59.000Z</time>
      </trkpt>
      <trkpt lat="44.18423" lon="5.32139">
        <ele>574.6</ele>
        <time>2026-05-14T07:02:00.000Z</time>
      </trkpt>
      <trkpt lat="44.18423" lon="5.32138">
        <ele>574.7</ele>
        <time>2026-05-14T07:02:01.000Z</time>
      </trkpt>
      <trkpt lat="44.18422" lon="5.32136">
        <ele>575.2</ele>
        <time>2026-05-14T07:02:02.000Z</time>
      </trkpt>
      <trkpt lat="44.18422" lon="5.32135">
        <ele>575.2</ele>
        <time>2026-05-14T07:02:03.000Z</time>
      </trkpt>
      <trkpt lat="44.18423" lon="5.32134">
        <ele>575.2</ele>
        <time>2026-05-14T07:02:04.000Z</time>
      </trkpt>
      <trkpt lat="44.18423" lon="5.32132">
        <ele>575.8</ele>
        <time>2026-05-14T07:02:05.000Z</time>
      </trkpt>
      <trkpt lat="44.18422" lon="5.3213">
        <ele>575.9</ele>
        <time>2026-05-14T07:02:06.000Z</time>
      </trkpt>
      <trkpt lat="44.18421" lon="5.32128">
        <ele>576.8</ele>
        <time>2026-05-14T07:02:07.000Z</time>
      </trkpt>
      <trkpt lat="44.1842" lon="5.32126">
        <ele>575.4</ele>
        <time>2026-05-14T07:02:08.000Z</time>
      </trkpt>
      <trkpt lat="44.1842" lon="5.32126">
        <ele>573.7</ele>
        <time>2026-05-14T07:02:09.000Z</time>
      </trkpt>
      <trkpt lat="44.1842" lon="5.32125">
        <ele>573.7</ele>
        <time>2026-05-14T07:02:10.000Z</time>
      </trkpt>
      <trkpt lat="44.18421" lon="5.32122">
        <ele>574.6</ele>
        <time>2026-05-14T07:02:11.000Z</time>
      </trkpt>
      <trkpt lat="44.1842" lon="5.32117">
        <ele>575.6</ele>
        <time>2026-05-14T07:02:12.999Z</time>
      </trkpt>
      <trkpt lat="44.1842" lon="5.32115">
        <ele>576.1</ele>
        <time>2026-05-14T07:02:13.999Z</time>
      </trkpt>
      <trkpt lat="44.18419" lon="5.32114">
        <ele>575.3</ele>
        <time>2026-05-14T07:02:14.999Z</time>
      </trkpt>
      <trkpt lat="44.18419" lon="5.32112">
        <ele>574.6</ele>
        <time>2026-05-14T07:02:15.999Z</time>
      </trkpt>
      <trkpt lat="44.18418" lon="5.32112">
        <ele>574.4</ele>
        <time>2026-05-14T07:02:16.999Z</time>
      </trkpt>
      <trkpt lat="44.18417" lon="5.3211">
        <ele>573.6</ele>
        <time>2026-05-14T07:02:17.999Z</time>
      </trkpt>
      <trkpt lat="44.18417" lon="5.32109">
        <ele>573.9</ele>
        <time>2026-05-14T07:02:18.999Z</time>
      </trkpt>
      <trkpt lat="44.18417" lon="5.32108">
        <ele>574.9</ele>
        <time>2026-05-14T07:02:19.999Z</time>
      </trkpt>
      <trkpt lat="44.18417" lon="5.32107">
        <ele>574.5</ele>
        <time>2026-05-14T07:02:20.999Z</time>
      </trkpt>
      <trkpt lat="44.18416" lon="5.32105">
        <ele>574</ele>
        <time>2026-05-14T07:02:21.999Z</time>
      </trkpt>
      <trkpt lat="44.18416" lon="5.32103">
        <ele>574.2</ele>
        <time>2026-05-14T07:02:22.999Z</time>
      </trkpt>
      <trkpt lat="44.18416" lon="5.321">
        <ele>575.7</ele>
        <time>2026-05-14T07:02:23.999Z</time>
      </trkpt>
      <trkpt lat="44.18415" lon="5.32098">
        <ele>576.9</ele>
        <time>2026-05-14T07:02:24.999Z</time>
      </trkpt>
      <trkpt lat="44.18415" lon="5.32095">
        <ele>577</ele>
        <time>2026-05-14T07:02:25.999Z</time>
      </trkpt>
      <trkpt lat="44.18415" lon="5.32092">
        <ele>578.2</ele>
        <time>2026-05-14T07:02:26.999Z</time>
      </trkpt>
      <trkpt lat="44.18415" lon="5.3209">
        <ele>580.1</ele>
        <time>2026-05-14T07:02:27.999Z</time>
      </trkpt>
      <trkpt lat="44.18415" lon="5.32089">
        <ele>581</ele>
        <time>2026-05-14T07:02:28.999Z</time>
      </trkpt>
      <trkpt lat="44.18415" lon="5.32087">
        <ele>581.4</ele>
        <time>2026-05-14T07:02:29.999Z</time>
      </trkpt>
      <trkpt lat="44.18415" lon="5.32086">
        <ele>581.3</ele>
        <time>2026-05-14T07:02:30.999Z</time>
      </trkpt>
      <trkpt lat="44.18415" lon="5.32084">
        <ele>580.8</ele>
        <time>2026-05-14T07:02:31.999Z</time>
      </trkpt>
      <trkpt lat="44.18416" lon="5.32083">
        <ele>581</ele>
        <time>2026-05-14T07:02:32.999Z</time>
      </trkpt>
      <trkpt lat="44.18416" lon="5.32081">
        <ele>580</ele>
        <time>2026-05-14T07:02:33.999Z</time>
      </trkpt>
      <trkpt lat="44.18416" lon="5.32078">
        <ele>579.3</ele>
        <time>2026-05-14T07:02:34.999Z</time>
      </trkpt>
      <trkpt lat="44.18416" lon="5.32077">
        <ele>578.9</ele>
        <time>2026-05-14T07:02:35.999Z</time>
      </trkpt>
      <trkpt lat="44.18416" lon="5.32075">
        <ele>577.6</ele>
        <time>2026-05-14T07:02:36.999Z</time>
      </trkpt>
      <trkpt lat="44.18417" lon="5.32072">
        <ele>577.5</ele>
        <time>2026-05-14T07:02:37.999Z</time>
      </trkpt>
      <trkpt lat="44.18417" lon="5.32068">
        <ele>577</ele>
        <time>2026-05-14T07:02:38.999Z</time>
      </trkpt>
      <trkpt lat="44.18417" lon="5.32064">
        <ele>577.1</ele>
        <time>2026-05-14T07:02:39.999Z</time>
      </trkpt>
      <trkpt lat="44.18417" lon="5.32064">
        <ele>577.8</ele>
        <time>2026-05-14T07:02:40.999Z</time>
      </trkpt>
      <trkpt lat="44.18417" lon="5.32064">
        <ele>578</ele>
        <time>2026-05-14T07:02:41.999Z</time>
      </trkpt>
      <trkpt lat="44.18416" lon="5.32064">
        <ele>578.4</ele>
        <time>2026-05-14T07:02:42.999Z</time>
      </trkpt>
      <trkpt lat="44.18416" lon="5.32063">
        <ele>578.7</ele>
        <time>2026-05-14T07:02:43.999Z</time>
      </trkpt>
      <trkpt lat="44.18416" lon="5.32062">
        <ele>578.8</ele>
        <time>2026-05-14T07:02:44.999Z</time>
      </trkpt>
      <trkpt lat="44.18417" lon="5.32061">
        <ele>578.9</ele>
        <time>2026-05-14T07:02:45.999Z</time>
      </trkpt>
      <trkpt lat="44.18417" lon="5.3206">
        <ele>578.6</ele>
        <time>2026-05-14T07:02:46.999Z</time>
      </trkpt>
      <trkpt lat="44.18417" lon="5.32059">
        <ele>578.8</ele>
        <time>2026-05-14T07:02:47.999Z</time>
      </trkpt>
      <trkpt lat="44.18417" lon="5.32057">
        <ele>578.5</ele>
        <time>2026-05-14T07:02:48.999Z</time>
      </trkpt>
      <trkpt lat="44.18417" lon="5.32054">
        <ele>578.6</ele>
        <time>2026-05-14T07:02:49.999Z</time>
      </trkpt>
      <trkpt lat="44.18416" lon="5.32052">
        <ele>578.9</ele>
        <time>2026-05-14T07:02:50.999Z</time>
      </trkpt>
      <trkpt lat="44.18417" lon="5.3205">
        <ele>578.2</ele>
        <time>2026-05-14T07:02:51.999Z</time>
      </trkpt>
      <trkpt lat="44.18417" lon="5.32049">
        <ele>578</ele>
        <time>2026-05-14T07:02:52.999Z</time>
      </trkpt>
      <trkpt lat="44.18417" lon="5.32047">
        <ele>579</ele>
        <time>2026-05-14T07:02:53.999Z</time>
      </trkpt>
      <trkpt lat="44.18416" lon="5.32044">
        <ele>580.1</ele>
        <time>2026-05-14T07:02:54.999Z</time>
      </trkpt>
      <trkpt lat="44.18417" lon="5.32042">
        <ele>579.9</ele>
        <time>2026-05-14T07:02:55.999Z</time>
      </trkpt>
      <trkpt lat="44.18417" lon="5.32039">
        <ele>581.2</ele>
        <time>2026-05-14T07:02:56.999Z</time>
      </trkpt>
      <trkpt lat="44.18416" lon="5.32036">
        <ele>582.2</ele>
        <time>2026-05-14T07:02:57.999Z</time>
      </trkpt>
      <trkpt lat="44.18416" lon="5.32034">
        <ele>582.1</ele>
        <time>2026-05-14T07:02:58.999Z</time>
      </trkpt>
      <trkpt lat="44.18416" lon="5.32033">
        <ele>582.6</ele>
        <time>2026-05-14T07:02:59.999Z</time>
      </trkpt>
      <trkpt lat="44.18415" lon="5.32032">
        <ele>582.9</ele>
        <time>2026-05-14T07:03:00.999Z</time>
      </trkpt>
      <trkpt lat="44.18414" lon="5.3203">
        <ele>582</ele>
        <time>2026-05-14T07:03:01.999Z</time>
      </trkpt>
      <trkpt lat="44.18414" lon="5.32029">
        <ele>582.3</ele>
        <time>2026-05-14T07:03:02.999Z</time>
      </trkpt>
      <trkpt lat="44.18413" lon="5.32027">
        <ele>581.9</ele>
        <time>2026-05-14T07:03:03.999Z</time>
      </trkpt>
      <trkpt lat="44.18412" lon="5.32026">
        <ele>581.7</ele>
        <time>2026-05-14T07:03:04.999Z</time>
      </trkpt>
      <trkpt lat="44.18412" lon="5.32024">
        <ele>581.3</ele>
        <time>2026-05-14T07:03:05.999Z</time>
      </trkpt>
      <trkpt lat="44.18411" lon="5.32023">
        <ele>581.3</ele>
        <time>2026-05-14T07:03:06.999Z</time>
      </trkpt>
      <trkpt lat="44.1841" lon="5.32022">
        <ele>581.6</ele>
        <time>2026-05-14T07:03:07.999Z</time>
      </trkpt>
      <trkpt lat="44.1841" lon="5.32021">
        <ele>582.1</ele>
        <time>2026-05-14T07:03:08.999Z</time>
      </trkpt>
      <trkpt lat="44.18409" lon="5.3202">
        <ele>582.5</ele>
        <time>2026-05-14T07:03:09.999Z</time>
      </trkpt>
      <trkpt lat="44.18408" lon="5.32019">
        <ele>583</ele>
        <time>2026-05-14T07:03:10.999Z</time>
      </trkpt>
      <trkpt lat="44.18408" lon="5.32017">
        <ele>584</ele>
        <time>2026-05-14T07:03:11.999Z</time>
      </trkpt>
      <trkpt lat="44.18408" lon="5.32016">
        <ele>583.7</ele>
        <time>2026-05-14T07:03:12.999Z</time>
      </trkpt>
      <trkpt lat="44.18407" lon="5.32014">
        <ele>583.8</ele>
        <time>2026-05-14T07:03:13.999Z</time>
      </trkpt>
      <trkpt lat="44.18405" lon="5.32013">
        <ele>584.6</ele>
        <time>2026-05-14T07:03:14.999Z</time>
      </trkpt>
      <trkpt lat="44.18404" lon="5.32011">
        <ele>584.8</ele>
        <time>2026-05-14T07:03:15.999Z</time>
      </trkpt>
      <trkpt lat="44.18404" lon="5.32009">
        <ele>586.5</ele>
        <time>2026-05-14T07:03:16.999Z</time>
      </trkpt>
      <trkpt lat="44.18404" lon="5.32007">
        <ele>587.8</ele>
        <time>2026-05-14T07:03:17.999Z</time>
      </trkpt>
      <trkpt lat="44.18403" lon="5.32006">
        <ele>587.3</ele>
        <time>2026-05-14T07:03:18.999Z</time>
      </trkpt>
      <trkpt lat="44.18404" lon="5.32004">
        <ele>587.1</ele>
        <time>2026-05-14T07:03:19.999Z</time>
      </trkpt>
      <trkpt lat="44.18403" lon="5.32003">
        <ele>586.3</ele>
        <time>2026-05-14T07:03:20.999Z</time>
      </trkpt>
      <trkpt lat="44.18403" lon="5.32001">
        <ele>585.7</ele>
        <time>2026-05-14T07:03:21.999Z</time>
      </trkpt>
      <trkpt lat="44.18403" lon="5.31999">
        <ele>585.4</ele>
        <time>2026-05-14T07:03:22.999Z</time>
      </trkpt>
      <trkpt lat="44.18403" lon="5.31997">
        <ele>585</ele>
        <time>2026-05-14T07:03:23.999Z</time>
      </trkpt>
      <trkpt lat="44.18402" lon="5.31995">
        <ele>585</ele>
        <time>2026-05-14T07:03:24.999Z</time>
      </trkpt>
      <trkpt lat="44.18402" lon="5.31994">
        <ele>584.6</ele>
        <time>2026-05-14T07:03:25.999Z</time>
      </trkpt>
      <trkpt lat="44.18402" lon="5.31994">
        <ele>584.8</ele>
        <time>2026-05-14T07:03:26.999Z</time>
      </trkpt>
      <trkpt lat="44.18401" lon="5.31993">
        <ele>584.9</ele>
        <time>2026-05-14T07:03:27.999Z</time>
      </trkpt>
      <trkpt lat="44.184" lon="5.3199">
        <ele>585.7</ele>
        <time>2026-05-14T07:03:28.999Z</time>
      </trkpt>
      <trkpt lat="44.184" lon="5.31987">
        <ele>586.6</ele>
        <time>2026-05-14T07:03:29.999Z</time>
      </trkpt>
      <trkpt lat="44.184" lon="5.31985">
        <ele>587.6</ele>
        <time>2026-05-14T07:03:30.999Z</time>
      </trkpt>
      <trkpt lat="44.18399" lon="5.31984">
        <ele>588.2</ele>
        <time>2026-05-14T07:03:31.999Z</time>
      </trkpt>
      <trkpt lat="44.18399" lon="5.31983">
        <ele>587.5</ele>
        <time>2026-05-14T07:03:32.999Z</time>
      </trkpt>
      <trkpt lat="44.18398" lon="5.31981">
        <ele>586.9</ele>
        <time>2026-05-14T07:03:33.999Z</time>
      </trkpt>
      <trkpt lat="44.18397" lon="5.3198">
        <ele>586.9</ele>
        <time>2026-05-14T07:03:34.999Z</time>
      </trkpt>
      <trkpt lat="44.18397" lon="5.31978">
        <ele>587.7</ele>
        <time>2026-05-14T07:03:35.999Z</time>
      </trkpt>
      <trkpt lat="44.18397" lon="5.31977">
        <ele>588.3</ele>
        <time>2026-05-14T07:03:36.999Z</time>
      </trkpt>
      <trkpt lat="44.18397" lon="5.31976">
        <ele>588.7</ele>
        <time>2026-05-14T07:03:37.999Z</time>
      </trkpt>
      <trkpt lat="44.18397" lon="5.31975">
        <ele>589.3</ele>
        <time>2026-05-14T07:03:38.999Z</time>
      </trkpt>
      <trkpt lat="44.18397" lon="5.31973">
        <ele>589.9</ele>
        <time>2026-05-14T07:03:39.999Z</time>
      </trkpt>
      <trkpt lat="44.18397" lon="5.31971">
        <ele>590.3</ele>
        <time>2026-05-14T07:03:40.999Z</time>
      </trkpt>
      <trkpt lat="44.18397" lon="5.31969">
        <ele>590.3</ele>
        <time>2026-05-14T07:03:41.999Z</time>
      </trkpt>
      <trkpt lat="44.18396" lon="5.31967">
        <ele>591</ele>
        <time>2026-05-14T07:03:42.999Z</time>
      </trkpt>
      <trkpt lat="44.18396" lon="5.31965">
        <ele>592</ele>
        <time>2026-05-14T07:03:43.999Z</time>
      </trkpt>
      <trkpt lat="44.18396" lon="5.31963">
        <ele>591.9</ele>
        <time>2026-05-14T07:03:44.999Z</time>
      </trkpt>
      <trkpt lat="44.18396" lon="5.31961">
        <ele>592.4</ele>
        <time>2026-05-14T07:03:45.999Z</time>
      </trkpt>
      <trkpt lat="44.18396" lon="5.31959">
        <ele>592.9</ele>
        <time>2026-05-14T07:03:46.999Z</time>
      </trkpt>
      <trkpt lat="44.18396" lon="5.31957">
        <ele>593.7</ele>
        <time>2026-05-14T07:03:47.999Z</time>
      </trkpt>
      <trkpt lat="44.18396" lon="5.31955">
        <ele>593.7</ele>
        <time>2026-05-14T07:03:48.999Z</time>
      </trkpt>
      <trkpt lat="44.18397" lon="5.31954">
        <ele>593.3</ele>
        <time>2026-05-14T07:03:49.999Z</time>
      </trkpt>
      <trkpt lat="44.18397" lon="5.31953">
        <ele>593.2</ele>
        <time>2026-05-14T07:03:50.999Z</time>
      </trkpt>
      <trkpt lat="44.18397" lon="5.31951">
        <ele>592.8</ele>
        <time>2026-05-14T07:03:51.999Z</time>
      </trkpt>
      <trkpt lat="44.18397" lon="5.31949">
        <ele>592.4</ele>
        <time>2026-05-14T07:03:52.999Z</time>
      </trkpt>
      <trkpt lat="44.18397" lon="5.31948">
        <ele>592.7</ele>
        <time>2026-05-14T07:03:53.999Z</time>
      </trkpt>
      <trkpt lat="44.18397" lon="5.31946">
        <ele>592.5</ele>
        <time>2026-05-14T07:03:54.999Z</time>
      </trkpt>
      <trkpt lat="44.18396" lon="5.31944">
        <ele>593</ele>
        <time>2026-05-14T07:03:55.999Z</time>
      </trkpt>
      <trkpt lat="44.18396" lon="5.31943">
        <ele>593.2</ele>
        <time>2026-05-14T07:03:56.999Z</time>
      </trkpt>
      <trkpt lat="44.18396" lon="5.31942">
        <ele>592.4</ele>
        <time>2026-05-14T07:03:57.999Z</time>
      </trkpt>
      <trkpt lat="44.18395" lon="5.3194">
        <ele>592.1</ele>
        <time>2026-05-14T07:03:58.999Z</time>
      </trkpt>
      <trkpt lat="44.18395" lon="5.31939">
        <ele>591.8</ele>
        <time>2026-05-14T07:03:59.999Z</time>
      </trkpt>
      <trkpt lat="44.18395" lon="5.31938">
        <ele>591.8</ele>
        <time>2026-05-14T07:04:00.999Z</time>
      </trkpt>
      <trkpt lat="44.18395" lon="5.31937">
        <ele>592.2</ele>
        <time>2026-05-14T07:04:01.999Z</time>
      </trkpt>
      <trkpt lat="44.18395" lon="5.31936">
        <ele>593</ele>
        <time>2026-05-14T07:04:02.999Z</time>
      </trkpt>
      <trkpt lat="44.18395" lon="5.31935">
        <ele>593.3</ele>
        <time>2026-05-14T07:04:03.999Z</time>
      </trkpt>
      <trkpt lat="44.18395" lon="5.31933">
        <ele>592.8</ele>
        <time>2026-05-14T07:04:04.999Z</time>
      </trkpt>
      <trkpt lat="44.18396" lon="5.31932">
        <ele>592</ele>
        <time>2026-05-14T07:04:05.999Z</time>
      </trkpt>
      <trkpt lat="44.18397" lon="5.3193">
        <ele>591.8</ele>
        <time>2026-05-14T07:04:06.999Z</time>
      </trkpt>
      <trkpt lat="44.18397" lon="5.31928">
        <ele>591.3</ele>
        <time>2026-05-14T07:04:07.999Z</time>
      </trkpt>
      <trkpt lat="44.18397" lon="5.31925">
        <ele>591.2</ele>
        <time>2026-05-14T07:04:08.999Z</time>
      </trkpt>
      <trkpt lat="44.18397" lon="5.31924">
        <ele>591</ele>
        <time>2026-05-14T07:04:09.999Z</time>
      </trkpt>
      <trkpt lat="44.18396" lon="5.31922">
        <ele>590.7</ele>
        <time>2026-05-14T07:04:10.999Z</time>
      </trkpt>
      <trkpt lat="44.18396" lon="5.31922">
        <ele>590.6</ele>
        <time>2026-05-14T07:04:11.999Z</time>
      </trkpt>
      <trkpt lat="44.18395" lon="5.3192">
        <ele>590.4</ele>
        <time>2026-05-14T07:04:12.999Z</time>
      </trkpt>
      <trkpt lat="44.18394" lon="5.31919">
        <ele>590.3</ele>
        <time>2026-05-14T07:04:13.999Z</time>
      </trkpt>
      <trkpt lat="44.18393" lon="5.31917">
        <ele>591.2</ele>
        <time>2026-05-14T07:04:14.999Z</time>
      </trkpt>
      <trkpt lat="44.18392" lon="5.31916">
        <ele>591.8</ele>
        <time>2026-05-14T07:04:15.999Z</time>
      </trkpt>
      <trkpt lat="44.18392" lon="5.31914">
        <ele>592.4</ele>
        <time>2026-05-14T07:04:16.999Z</time>
      </trkpt>
      <trkpt lat="44.18391" lon="5.31913">
        <ele>593</ele>
        <time>2026-05-14T07:04:17.999Z</time>
      </trkpt>
      <trkpt lat="44.18391" lon="5.31912">
        <ele>593.3</ele>
        <time>2026-05-14T07:04:18.999Z</time>
      </trkpt>
      <trkpt lat="44.1839" lon="5.31911">
        <ele>593.7</ele>
        <time>2026-05-14T07:04:19.999Z</time>
      </trkpt>
      <trkpt lat="44.18389" lon="5.3191">
        <ele>594.2</ele>
        <time>2026-05-14T07:04:20.999Z</time>
      </trkpt>
      <trkpt lat="44.18389" lon="5.31909">
        <ele>594.3</ele>
        <time>2026-05-14T07:04:21.999Z</time>
      </trkpt>
      <trkpt lat="44.18388" lon="5.31907">
        <ele>594</ele>
        <time>2026-05-14T07:04:22.999Z</time>
      </trkpt>
      <trkpt lat="44.18388" lon="5.31905">
        <ele>594.3</ele>
        <time>2026-05-14T07:04:23.999Z</time>
      </trkpt>
      <trkpt lat="44.18387" lon="5.31904">
        <ele>594.4</ele>
        <time>2026-05-14T07:04:24.999Z</time>
      </trkpt>
      <trkpt lat="44.18386" lon="5.31903">
        <ele>594.3</ele>
        <time>2026-05-14T07:04:25.999Z</time>
      </trkpt>
      <trkpt lat="44.18385" lon="5.31901">
        <ele>594.3</ele>
        <time>2026-05-14T07:04:26.999Z</time>
      </trkpt>
      <trkpt lat="44.18384" lon="5.319">
        <ele>594.9</ele>
        <time>2026-05-14T07:04:27.999Z</time>
      </trkpt>
      <trkpt lat="44.18384" lon="5.31899">
        <ele>595.4</ele>
        <time>2026-05-14T07:04:28.999Z</time>
      </trkpt>
      <trkpt lat="44.18383" lon="5.31898">
        <ele>595.4</ele>
        <time>2026-05-14T07:04:29.999Z</time>
      </trkpt>
      <trkpt lat="44.18382" lon="5.31897">
        <ele>595.1</ele>
        <time>2026-05-14T07:04:30.999Z</time>
      </trkpt>
      <trkpt lat="44.18382" lon="5.31895">
        <ele>594.8</ele>
        <time>2026-05-14T07:04:31.999Z</time>
      </trkpt>
      <trkpt lat="44.18382" lon="5.31893">
        <ele>595.3</ele>
        <time>2026-05-14T07:04:32.999Z</time>
      </trkpt>
      <trkpt lat="44.18382" lon="5.31891">
        <ele>595.8</ele>
        <time>2026-05-14T07:04:33.999Z</time>
      </trkpt>
      <trkpt lat="44.18382" lon="5.3189">
        <ele>595.4</ele>
        <time>2026-05-14T07:04:34.999Z</time>
      </trkpt>
      <trkpt lat="44.18382" lon="5.31888">
        <ele>595.2</ele>
        <time>2026-05-14T07:04:35.999Z</time>
      </trkpt>
      <trkpt lat="44.18382" lon="5.31887">
        <ele>595.4</ele>
        <time>2026-05-14T07:04:36.999Z</time>
      </trkpt>
      <trkpt lat="44.18381" lon="5.31885">
        <ele>595.4</ele>
        <time>2026-05-14T07:04:37.999Z</time>
      </trkpt>
      <trkpt lat="44.18381" lon="5.31883">
        <ele>594.9</ele>
        <time>2026-05-14T07:04:38.999Z</time>
      </trkpt>
      <trkpt lat="44.1838" lon="5.31882">
        <ele>594.9</ele>
        <time>2026-05-14T07:04:39.999Z</time>
      </trkpt>
      <trkpt lat="44.18379" lon="5.3188">
        <ele>595.3</ele>
        <time>2026-05-14T07:04:40.999Z</time>
      </trkpt>
      <trkpt lat="44.18378" lon="5.31879">
        <ele>595.3</ele>
        <time>2026-05-14T07:04:41.999Z</time>
      </trkpt>
      <trkpt lat="44.18378" lon="5.31878">
        <ele>595.6</ele>
        <time>2026-05-14T07:04:42.999Z</time>
      </trkpt>
      <trkpt lat="44.18377" lon="5.31876">
        <ele>595.5</ele>
        <time>2026-05-14T07:04:43.999Z</time>
      </trkpt>
      <trkpt lat="44.18376" lon="5.31874">
        <ele>595.9</ele>
        <time>2026-05-14T07:04:44.999Z</time>
      </trkpt>
      <trkpt lat="44.18375" lon="5.31873">
        <ele>596.3</ele>
        <time>2026-05-14T07:04:45.999Z</time>
      </trkpt>
      <trkpt lat="44.18374" lon="5.31872">
        <ele>596.8</ele>
        <time>2026-05-14T07:04:46.999Z</time>
      </trkpt>
      <trkpt lat="44.18373" lon="5.3187">
        <ele>597</ele>
        <time>2026-05-14T07:04:47.999Z</time>
      </trkpt>
      <trkpt lat="44.18373" lon="5.31869">
        <ele>597.5</ele>
        <time>2026-05-14T07:04:48.999Z</time>
      </trkpt>
      <trkpt lat="44.18372" lon="5.31867">
        <ele>597.8</ele>
        <time>2026-05-14T07:04:49.999Z</time>
      </trkpt>
      <trkpt lat="44.18371" lon="5.31866">
        <ele>598.4</ele>
        <time>2026-05-14T07:04:50.999Z</time>
      </trkpt>
      <trkpt lat="44.18371" lon="5.31864">
        <ele>599.2</ele>
        <time>2026-05-14T07:04:51.999Z</time>
      </trkpt>
      <trkpt lat="44.1837" lon="5.31863">
        <ele>598.3</ele>
        <time>2026-05-14T07:04:52.999Z</time>
      </trkpt>
      <trkpt lat="44.18369" lon="5.31861">
        <ele>597.8</ele>
        <time>2026-05-14T07:04:53.999Z</time>
      </trkpt>
      <trkpt lat="44.18369" lon="5.3186">
        <ele>597.6</ele>
        <time>2026-05-14T07:04:54.999Z</time>
      </trkpt>
      <trkpt lat="44.18368" lon="5.31859">
        <ele>597.4</ele>
        <time>2026-05-14T07:04:55.999Z</time>
      </trkpt>
      <trkpt lat="44.18367" lon="5.31857">
        <ele>597.3</ele>
        <time>2026-05-14T07:04:56.999Z</time>
      </trkpt>
      <trkpt lat="44.18366" lon="5.31855">
        <ele>598</ele>
        <time>2026-05-14T07:04:57.999Z</time>
      </trkpt>
      <trkpt lat="44.18366" lon="5.31854">
        <ele>599.3</ele>
        <time>2026-05-14T07:04:58.999Z</time>
      </trkpt>
      <trkpt lat="44.18365" lon="5.31854">
        <ele>600.4</ele>
        <time>2026-05-14T07:04:59.999Z</time>
      </trkpt>
      <trkpt lat="44.18365" lon="5.31853">
        <ele>600.3</ele>
        <time>2026-05-14T07:05:00.999Z</time>
      </trkpt>
      <trkpt lat="44.18364" lon="5.31852">
        <ele>600.3</ele>
        <time>2026-05-14T07:05:01.999Z</time>
      </trkpt>
      <trkpt lat="44.18363" lon="5.3185">
        <ele>600.5</ele>
        <time>2026-05-14T07:05:02.999Z</time>
      </trkpt>
      <trkpt lat="44.18363" lon="5.31847">
        <ele>600</ele>
        <time>2026-05-14T07:05:03.999Z</time>
      </trkpt>
      <trkpt lat="44.18362" lon="5.31846">
        <ele>599.3</ele>
        <time>2026-05-14T07:05:04.999Z</time>
      </trkpt>
      <trkpt lat="44.18361" lon="5.31845">
        <ele>599.6</ele>
        <time>2026-05-14T07:05:05.999Z</time>
      </trkpt>
      <trkpt lat="44.1836" lon="5.31845">
        <ele>599.2</ele>
        <time>2026-05-14T07:05:06.999Z</time>
      </trkpt>
      <trkpt lat="44.18359" lon="5.31845">
        <ele>598.9</ele>
        <time>2026-05-14T07:05:07.999Z</time>
      </trkpt>
      <trkpt lat="44.18358" lon="5.31844">
        <ele>599</ele>
        <time>2026-05-14T07:05:08.999Z</time>
      </trkpt>
      <trkpt lat="44.18357" lon="5.31844">
        <ele>598.4</ele>
        <time>2026-05-14T07:05:09.999Z</time>
      </trkpt>
      <trkpt lat="44.18356" lon="5.31842">
        <ele>598.5</ele>
        <time>2026-05-14T07:05:10.999Z</time>
      </trkpt>
      <trkpt lat="44.18354" lon="5.31841">
        <ele>598.2</ele>
        <time>2026-05-14T07:05:11.999Z</time>
      </trkpt>
      <trkpt lat="44.18352" lon="5.3184">
        <ele>598</ele>
        <time>2026-05-14T07:05:12.999Z</time>
      </trkpt>
      <trkpt lat="44.18351" lon="5.3184">
        <ele>597.9</ele>
        <time>2026-05-14T07:05:13.999Z</time>
      </trkpt>
      <trkpt lat="44.1835" lon="5.31839">
        <ele>597.5</ele>
        <time>2026-05-14T07:05:14.999Z</time>
      </trkpt>
      <trkpt lat="44.18349" lon="5.31839">
        <ele>598.1</ele>
        <time>2026-05-14T07:05:15.999Z</time>
      </trkpt>
      <trkpt lat="44.18347" lon="5.31839">
        <ele>598.3</ele>
        <time>2026-05-14T07:05:16.999Z</time>
      </trkpt>
      <trkpt lat="44.18345" lon="5.31838">
        <ele>597.9</ele>
        <time>2026-05-14T07:05:17.999Z</time>
      </trkpt>
      <trkpt lat="44.18343" lon="5.31839">
        <ele>598</ele>
        <time>2026-05-14T07:05:18.999Z</time>
      </trkpt>
      <trkpt lat="44.18342" lon="5.31838">
        <ele>597.8</ele>
        <time>2026-05-14T07:05:19.999Z</time>
      </trkpt>
      <trkpt lat="44.1834" lon="5.31838">
        <ele>597.3</ele>
        <time>2026-05-14T07:05:20.999Z</time>
      </trkpt>
      <trkpt lat="44.18339" lon="5.31839">
        <ele>596.8</ele>
        <time>2026-05-14T07:05:21.999Z</time>
      </trkpt>
      <trkpt lat="44.18339" lon="5.31839">
        <ele>596.6</ele>
        <time>2026-05-14T07:05:22.999Z</time>
      </trkpt>
      <trkpt lat="44.18338" lon="5.31839">
        <ele>596.2</ele>
        <time>2026-05-14T07:05:23.999Z</time>
      </trkpt>
      <trkpt lat="44.18337" lon="5.31839">
        <ele>596.8</ele>
        <time>2026-05-14T07:05:24.999Z</time>
      </trkpt>
      <trkpt lat="44.18336" lon="5.3184">
        <ele>596.6</ele>
        <time>2026-05-14T07:05:25.999Z</time>
      </trkpt>
      <trkpt lat="44.18334" lon="5.3184">
        <ele>596.3</ele>
        <time>2026-05-14T07:05:26.999Z</time>
      </trkpt>
      <trkpt lat="44.18333" lon="5.31841">
        <ele>596</ele>
        <time>2026-05-14T07:05:27.999Z</time>
      </trkpt>
      <trkpt lat="44.18331" lon="5.31841">
        <ele>595.3</ele>
        <time>2026-05-14T07:05:28.999Z</time>
      </trkpt>
      <trkpt lat="44.1833" lon="5.31841">
        <ele>594.4</ele>
        <time>2026-05-14T07:05:29.999Z</time>
      </trkpt>
      <trkpt lat="44.18328" lon="5.31842">
        <ele>593.7</ele>
        <time>2026-05-14T07:05:30.999Z</time>
      </trkpt>
      <trkpt lat="44.18327" lon="5.31842">
        <ele>592.8</ele>
        <time>2026-05-14T07:05:31.999Z</time>
      </trkpt>
      <trkpt lat="44.18325" lon="5.31843">
        <ele>592</ele>
        <time>2026-05-14T07:05:32.999Z</time>
      </trkpt>
      <trkpt lat="44.18324" lon="5.31843">
        <ele>591.3</ele>
        <time>2026-05-14T07:05:33.999Z</time>
      </trkpt>
      <trkpt lat="44.18323" lon="5.31844">
        <ele>591.1</ele>
        <time>2026-05-14T07:05:34.999Z</time>
      </trkpt>
      <trkpt lat="44.18321" lon="5.31844">
        <ele>590.8</ele>
        <time>2026-05-14T07:05:35.999Z</time>
      </trkpt>
      <trkpt lat="44.1832" lon="5.31844">
        <ele>591.1</ele>
        <time>2026-05-14T07:05:36.999Z</time>
      </trkpt>
      <trkpt lat="44.18319" lon="5.31844">
        <ele>590.8</ele>
        <time>2026-05-14T07:05:37.999Z</time>
      </trkpt>
      <trkpt lat="44.18318" lon="5.31844">
        <ele>590.1</ele>
        <time>2026-05-14T07:05:38.999Z</time>
      </trkpt>
      <trkpt lat="44.18316" lon="5.31845">
        <ele>589.6</ele>
        <time>2026-05-14T07:05:39.999Z</time>
      </trkpt>
      <trkpt lat="44.18315" lon="5.31845">
        <ele>589.2</ele>
        <time>2026-05-14T07:05:40.999Z</time>
      </trkpt>
      <trkpt lat="44.18315" lon="5.31846">
        <ele>588.9</ele>
        <time>2026-05-14T07:05:41.999Z</time>
      </trkpt>
      <trkpt lat="44.18314" lon="5.31846">
        <ele>588.9</ele>
        <time>2026-05-14T07:05:42.999Z</time>
      </trkpt>
      <trkpt lat="44.18312" lon="5.31846">
        <ele>588.4</ele>
        <time>2026-05-14T07:05:43.999Z</time>
      </trkpt>
      <trkpt lat="44.18311" lon="5.31846">
        <ele>587.4</ele>
        <time>2026-05-14T07:05:44.999Z</time>
      </trkpt>
      <trkpt lat="44.18311" lon="5.31847">
        <ele>586.7</ele>
        <time>2026-05-14T07:05:45.999Z</time>
      </trkpt>
      <trkpt lat="44.1831" lon="5.31847">
        <ele>586.8</ele>
        <time>2026-05-14T07:05:46.999Z</time>
      </trkpt>
      <trkpt lat="44.18309" lon="5.31847">
        <ele>586.4</ele>
        <time>2026-05-14T07:05:47.999Z</time>
      </trkpt>
      <trkpt lat="44.18307" lon="5.31847">
        <ele>587.4</ele>
        <time>2026-05-14T07:05:48.999Z</time>
      </trkpt>
      <trkpt lat="44.18305" lon="5.31846">
        <ele>586.8</ele>
        <time>2026-05-14T07:05:49.999Z</time>
      </trkpt>
      <trkpt lat="44.18304" lon="5.31846">
        <ele>586.3</ele>
        <time>2026-05-14T07:05:50.999Z</time>
      </trkpt>
      <trkpt lat="44.18303" lon="5.31846">
        <ele>585.5</ele>
        <time>2026-05-14T07:05:51.999Z</time>
      </trkpt>
      <trkpt lat="44.18302" lon="5.31846">
        <ele>584.7</ele>
        <time>2026-05-14T07:05:52.999Z</time>
      </trkpt>
      <trkpt lat="44.18301" lon="5.31847">
        <ele>584</ele>
        <time>2026-05-14T07:05:53.999Z</time>
      </trkpt>
      <trkpt lat="44.183" lon="5.31848">
        <ele>584.4</ele>
        <time>2026-05-14T07:05:54.999Z</time>
      </trkpt>
      <trkpt lat="44.18299" lon="5.31849">
        <ele>584.8</ele>
        <time>2026-05-14T07:05:55.999Z</time>
      </trkpt>
      <trkpt lat="44.18298" lon="5.3185">
        <ele>584.3</ele>
        <time>2026-05-14T07:05:56.999Z</time>
      </trkpt>
      <trkpt lat="44.18297" lon="5.31851">
        <ele>583.1</ele>
        <time>2026-05-14T07:05:57.999Z</time>
      </trkpt>
      <trkpt lat="44.18295" lon="5.31852">
        <ele>583</ele>
        <time>2026-05-14T07:05:58.999Z</time>
      </trkpt>
      <trkpt lat="44.18293" lon="5.31853">
        <ele>583.7</ele>
        <time>2026-05-14T07:05:59.999Z</time>
      </trkpt>
      <trkpt lat="44.18292" lon="5.31853">
        <ele>583.6</ele>
        <time>2026-05-14T07:06:00.999Z</time>
      </trkpt>
      <trkpt lat="44.18291" lon="5.31854">
        <ele>583.5</ele>
        <time>2026-05-14T07:06:01.999Z</time>
      </trkpt>
      <trkpt lat="44.18289" lon="5.31854">
        <ele>583.1</ele>
        <time>2026-05-14T07:06:02.999Z</time>
      </trkpt>
      <trkpt lat="44.18288" lon="5.31855">
        <ele>582.3</ele>
        <time>2026-05-14T07:06:03.999Z</time>
      </trkpt>
      <trkpt lat="44.18286" lon="5.31856">
        <ele>581.1</ele>
        <time>2026-05-14T07:06:04.999Z</time>
      </trkpt>
      <trkpt lat="44.18284" lon="5.31857">
        <ele>580.5</ele>
        <time>2026-05-14T07:06:05.999Z</time>
      </trkpt>
      <trkpt lat="44.18283" lon="5.31858">
        <ele>580.3</ele>
        <time>2026-05-14T07:06:06.999Z</time>
      </trkpt>
      <trkpt lat="44.18282" lon="5.31858">
        <ele>581.1</ele>
        <time>2026-05-14T07:06:07.999Z</time>
      </trkpt>
      <trkpt lat="44.18282" lon="5.31858">
        <ele>580.7</ele>
        <time>2026-05-14T07:06:08.999Z</time>
      </trkpt>
      <trkpt lat="44.18281" lon="5.31859">
        <ele>580.1</ele>
        <time>2026-05-14T07:06:09.999Z</time>
      </trkpt>
      <trkpt lat="44.18279" lon="5.31859">
        <ele>579.7</ele>
        <time>2026-05-14T07:06:10.999Z</time>
      </trkpt>
      <trkpt lat="44.18278" lon="5.3186">
        <ele>579.3</ele>
        <time>2026-05-14T07:06:11.999Z</time>
      </trkpt>
      <trkpt lat="44.18277" lon="5.3186">
        <ele>578.2</ele>
        <time>2026-05-14T07:06:12.999Z</time>
      </trkpt>
      <trkpt lat="44.18276" lon="5.31861">
        <ele>576.7</ele>
        <time>2026-05-14T07:06:13.999Z</time>
      </trkpt>
      <trkpt lat="44.18275" lon="5.31861">
        <ele>576.2</ele>
        <time>2026-05-14T07:06:14.999Z</time>
      </trkpt>
      <trkpt lat="44.18273" lon="5.31861">
        <ele>575.8</ele>
        <time>2026-05-14T07:06:15.999Z</time>
      </trkpt>
      <trkpt lat="44.18272" lon="5.31861">
        <ele>574.9</ele>
        <time>2026-05-14T07:06:16.999Z</time>
      </trkpt>
      <trkpt lat="44.18271" lon="5.31863">
        <ele>573.8</ele>
        <time>2026-05-14T07:06:17.999Z</time>
      </trkpt>
      <trkpt lat="44.1827" lon="5.31863">
        <ele>575</ele>
        <time>2026-05-14T07:06:18.999Z</time>
      </trkpt>
      <trkpt lat="44.18269" lon="5.31863">
        <ele>576.1</ele>
        <time>2026-05-14T07:06:19.999Z</time>
      </trkpt>
      <trkpt lat="44.18268" lon="5.31864">
        <ele>576.7</ele>
        <time>2026-05-14T07:06:20.999Z</time>
      </trkpt>
      <trkpt lat="44.18267" lon="5.31865">
        <ele>575.3</ele>
        <time>2026-05-14T07:06:21.999Z</time>
      </trkpt>
      <trkpt lat="44.18267" lon="5.31866">
        <ele>573.8</ele>
        <time>2026-05-14T07:06:22.999Z</time>
      </trkpt>
      <trkpt lat="44.18266" lon="5.31867">
        <ele>573.1</ele>
        <time>2026-05-14T07:06:23.999Z</time>
      </trkpt>
      <trkpt lat="44.18265" lon="5.31868">
        <ele>572.7</ele>
        <time>2026-05-14T07:06:24.999Z</time>
      </trkpt>
      <trkpt lat="44.18264" lon="5.31869">
        <ele>572</ele>
        <time>2026-05-14T07:06:25.999Z</time>
      </trkpt>
      <trkpt lat="44.18263" lon="5.3187">
        <ele>571.3</ele>
        <time>2026-05-14T07:06:26.999Z</time>
      </trkpt>
      <trkpt lat="44.18261" lon="5.31871">
        <ele>570.6</ele>
        <time>2026-05-14T07:06:27.999Z</time>
      </trkpt>
      <trkpt lat="44.1826" lon="5.31873">
        <ele>570.3</ele>
        <time>2026-05-14T07:06:28.999Z</time>
      </trkpt>
      <trkpt lat="44.18259" lon="5.31874">
        <ele>569.6</ele>
        <time>2026-05-14T07:06:29.999Z</time>
      </trkpt>
      <trkpt lat="44.18258" lon="5.31875">
        <ele>569</ele>
        <time>2026-05-14T07:06:30.999Z</time>
      </trkpt>
      <trkpt lat="44.18257" lon="5.31876">
        <ele>567.8</ele>
        <time>2026-05-14T07:06:31.999Z</time>
      </trkpt>
      <trkpt lat="44.18257" lon="5.31876">
        <ele>566.8</ele>
        <time>2026-05-14T07:06:32.999Z</time>
      </trkpt>
      <trkpt lat="44.18255" lon="5.31877">
        <ele>567.9</ele>
        <time>2026-05-14T07:06:33.999Z</time>
      </trkpt>
      <trkpt lat="44.18254" lon="5.31877">
        <ele>567.9</ele>
        <time>2026-05-14T07:06:34.999Z</time>
      </trkpt>
      <trkpt lat="44.18253" lon="5.31878">
        <ele>567.6</ele>
        <time>2026-05-14T07:06:35.999Z</time>
      </trkpt>
      <trkpt lat="44.18252" lon="5.31879">
        <ele>567.5</ele>
        <time>2026-05-14T07:06:36.999Z</time>
      </trkpt>
      <trkpt lat="44.18252" lon="5.31879">
        <ele>566.8</ele>
        <time>2026-05-14T07:06:37.999Z</time>
      </trkpt>
      <trkpt lat="44.18251" lon="5.31879">
        <ele>566.1</ele>
        <time>2026-05-14T07:06:38.999Z</time>
      </trkpt>
      <trkpt lat="44.1825" lon="5.3188">
        <ele>565.7</ele>
        <time>2026-05-14T07:06:39.999Z</time>
      </trkpt>
      <trkpt lat="44.18248" lon="5.31881">
        <ele>565.5</ele>
        <time>2026-05-14T07:06:40.999Z</time>
      </trkpt>
      <trkpt lat="44.18247" lon="5.31882">
        <ele>564.9</ele>
        <time>2026-05-14T07:06:41.999Z</time>
      </trkpt>
      <trkpt lat="44.18246" lon="5.31882">
        <ele>566.5</ele>
        <time>2026-05-14T07:06:42.999Z</time>
      </trkpt>
      <trkpt lat="44.18246" lon="5.31882">
        <ele>566.9</ele>
        <time>2026-05-14T07:06:43.999Z</time>
      </trkpt>
      <trkpt lat="44.18244" lon="5.31882">
        <ele>566.6</ele>
        <time>2026-05-14T07:06:44.999Z</time>
      </trkpt>
      <trkpt lat="44.18243" lon="5.31883">
        <ele>566.2</ele>
        <time>2026-05-14T07:06:45.999Z</time>
      </trkpt>
      <trkpt lat="44.18243" lon="5.31884">
        <ele>565.7</ele>
        <time>2026-05-14T07:06:46.999Z</time>
      </trkpt>
      <trkpt lat="44.18241" lon="5.31884">
        <ele>565.6</ele>
        <time>2026-05-14T07:06:47.999Z</time>
      </trkpt>
      <trkpt lat="44.1824" lon="5.31885">
        <ele>565.6</ele>
        <time>2026-05-14T07:06:48.999Z</time>
      </trkpt>
      <trkpt lat="44.1824" lon="5.31886">
        <ele>566</ele>
        <time>2026-05-14T07:06:49.999Z</time>
      </trkpt>
      <trkpt lat="44.18239" lon="5.31887">
        <ele>565.4</ele>
        <time>2026-05-14T07:06:50.999Z</time>
      </trkpt>
      <trkpt lat="44.18239" lon="5.31888">
        <ele>564.9</ele>
        <time>2026-05-14T07:06:51.999Z</time>
      </trkpt>
      <trkpt lat="44.18239" lon="5.31887">
        <ele>566.9</ele>
        <time>2026-05-14T07:06:52.999Z</time>
      </trkpt>
      <trkpt lat="44.18238" lon="5.31889">
        <ele>566.1</ele>
        <time>2026-05-14T07:06:53.999Z</time>
      </trkpt>
      <trkpt lat="44.18237" lon="5.31889">
        <ele>565.5</ele>
        <time>2026-05-14T07:06:54.999Z</time>
      </trkpt>
      <trkpt lat="44.18236" lon="5.3189">
        <ele>564.9</ele>
        <time>2026-05-14T07:06:55.999Z</time>
      </trkpt>
      <trkpt lat="44.18236" lon="5.31891">
        <ele>564.4</ele>
        <time>2026-05-14T07:06:56.999Z</time>
      </trkpt>
      <trkpt lat="44.18236" lon="5.31893">
        <ele>564.7</ele>
        <time>2026-05-14T07:06:57.999Z</time>
      </trkpt>
      <trkpt lat="44.18235" lon="5.31894">
        <ele>565.2</ele>
        <time>2026-05-14T07:06:58.999Z</time>
      </trkpt>
      <trkpt lat="44.18234" lon="5.31895">
        <ele>565.5</ele>
        <time>2026-05-14T07:06:59.999Z</time>
      </trkpt>
      <trkpt lat="44.18232" lon="5.31897">
        <ele>565</ele>
        <time>2026-05-14T07:07:00.999Z</time>
      </trkpt>
      <trkpt lat="44.18231" lon="5.31898">
        <ele>564.2</ele>
        <time>2026-05-14T07:07:01.999Z</time>
      </trkpt>
      <trkpt lat="44.1823" lon="5.31899">
        <ele>563.5</ele>
        <time>2026-05-14T07:07:02.999Z</time>
      </trkpt>
      <trkpt lat="44.18229" lon="5.31899">
        <ele>564.6</ele>
        <time>2026-05-14T07:07:03.999Z</time>
      </trkpt>
      <trkpt lat="44.18229" lon="5.31899">
        <ele>565.5</ele>
        <time>2026-05-14T07:07:04.999Z</time>
      </trkpt>
      <trkpt lat="44.18228" lon="5.319">
        <ele>566</ele>
        <time>2026-05-14T07:07:05.999Z</time>
      </trkpt>
      <trkpt lat="44.18227" lon="5.31901">
        <ele>566.6</ele>
        <time>2026-05-14T07:07:06.999Z</time>
      </trkpt>
      <trkpt lat="44.18227" lon="5.31903">
        <ele>567</ele>
        <time>2026-05-14T07:07:07.999Z</time>
      </trkpt>
      <trkpt lat="44.18226" lon="5.31904">
        <ele>566.7</ele>
        <time>2026-05-14T07:07:08.999Z</time>
      </trkpt>
      <trkpt lat="44.18225" lon="5.31905">
        <ele>566.2</ele>
        <time>2026-05-14T07:07:09.999Z</time>
      </trkpt>
      <trkpt lat="44.18224" lon="5.31907">
        <ele>566.6</ele>
        <time>2026-05-14T07:07:10.999Z</time>
      </trkpt>
      <trkpt lat="44.18224" lon="5.31909">
        <ele>567</ele>
        <time>2026-05-14T07:07:11.999Z</time>
      </trkpt>
      <trkpt lat="44.18223" lon="5.3191">
        <ele>567.2</ele>
        <time>2026-05-14T07:07:12.999Z</time>
      </trkpt>
      <trkpt lat="44.18223" lon="5.31911">
        <ele>566.9</ele>
        <time>2026-05-14T07:07:13.999Z</time>
      </trkpt>
      <trkpt lat="44.18222" lon="5.31912">
        <ele>567.2</ele>
        <time>2026-05-14T07:07:14.999Z</time>
      </trkpt>
      <trkpt lat="44.18221" lon="5.31914">
        <ele>567.2</ele>
        <time>2026-05-14T07:07:15.999Z</time>
      </trkpt>
      <trkpt lat="44.1822" lon="5.31915">
        <ele>567.3</ele>
        <time>2026-05-14T07:07:16.999Z</time>
      </trkpt>
      <trkpt lat="44.18218" lon="5.31916">
        <ele>567.3</ele>
        <time>2026-05-14T07:07:17.999Z</time>
      </trkpt>
      <trkpt lat="44.18218" lon="5.31917">
        <ele>567.6</ele>
        <time>2026-05-14T07:07:18.999Z</time>
      </trkpt>
      <trkpt lat="44.18218" lon="5.31919">
        <ele>566.9</ele>
        <time>2026-05-14T07:07:19.999Z</time>
      </trkpt>
      <trkpt lat="44.18218" lon="5.31921">
        <ele>566.5</ele>
        <time>2026-05-14T07:07:20.999Z</time>
      </trkpt>
      <trkpt lat="44.18216" lon="5.31922">
        <ele>566.7</ele>
        <time>2026-05-14T07:07:21.999Z</time>
      </trkpt>
      <trkpt lat="44.18216" lon="5.31924">
        <ele>566.6</ele>
        <time>2026-05-14T07:07:22.999Z</time>
      </trkpt>
      <trkpt lat="44.18216" lon="5.31925">
        <ele>567.8</ele>
        <time>2026-05-14T07:07:23.999Z</time>
      </trkpt>
      <trkpt lat="44.18215" lon="5.31926">
        <ele>568.5</ele>
        <time>2026-05-14T07:07:24.999Z</time>
      </trkpt>
      <trkpt lat="44.18215" lon="5.31927">
        <ele>568.4</ele>
        <time>2026-05-14T07:07:25.999Z</time>
      </trkpt>
      <trkpt lat="44.18215" lon="5.31927">
        <ele>568.5</ele>
        <time>2026-05-14T07:07:26.999Z</time>
      </trkpt>
      <trkpt lat="44.18214" lon="5.31928">
        <ele>568.9</ele>
        <time>2026-05-14T07:07:27.999Z</time>
      </trkpt>
      <trkpt lat="44.18213" lon="5.31929">
        <ele>569.5</ele>
        <time>2026-05-14T07:07:28.999Z</time>
      </trkpt>
      <trkpt lat="44.18213" lon="5.31929">
        <ele>569.6</ele>
        <time>2026-05-14T07:07:29.999Z</time>
      </trkpt>
      <trkpt lat="44.18212" lon="5.3193">
        <ele>569.6</ele>
        <time>2026-05-14T07:07:30.999Z</time>
      </trkpt>
      <trkpt lat="44.18212" lon="5.31932">
        <ele>570</ele>
        <time>2026-05-14T07:07:31.999Z</time>
      </trkpt>
      <trkpt lat="44.18211" lon="5.31933">
        <ele>570.7</ele>
        <time>2026-05-14T07:07:32.999Z</time>
      </trkpt>
      <trkpt lat="44.18211" lon="5.31935">
        <ele>571.2</ele>
        <time>2026-05-14T07:07:33.999Z</time>
      </trkpt>
      <trkpt lat="44.1821" lon="5.31936">
        <ele>571.5</ele>
        <time>2026-05-14T07:07:34.999Z</time>
      </trkpt>
      <trkpt lat="44.1821" lon="5.31937">
        <ele>572.3</ele>
        <time>2026-05-14T07:07:35.999Z</time>
      </trkpt>
      <trkpt lat="44.18209" lon="5.31938">
        <ele>572.7</ele>
        <time>2026-05-14T07:07:36.999Z</time>
      </trkpt>
      <trkpt lat="44.18208" lon="5.31939">
        <ele>572.7</ele>
        <time>2026-05-14T07:07:37.999Z</time>
      </trkpt>
      <trkpt lat="44.18206" lon="5.31941">
        <ele>573.3</ele>
        <time>2026-05-14T07:07:38.999Z</time>
      </trkpt>
      <trkpt lat="44.18205" lon="5.31942">
        <ele>573.6</ele>
        <time>2026-05-14T07:07:39.999Z</time>
      </trkpt>
      <trkpt lat="44.18205" lon="5.31943">
        <ele>573.8</ele>
        <time>2026-05-14T07:07:40.999Z</time>
      </trkpt>
      <trkpt lat="44.18204" lon="5.31945">
        <ele>574.1</ele>
        <time>2026-05-14T07:07:41.999Z</time>
      </trkpt>
      <trkpt lat="44.18203" lon="5.31946">
        <ele>574.2</ele>
        <time>2026-05-14T07:07:42.999Z</time>
      </trkpt>
      <trkpt lat="44.18201" lon="5.31947">
        <ele>574.2</ele>
        <time>2026-05-14T07:07:43.999Z</time>
      </trkpt>
      <trkpt lat="44.182" lon="5.31949">
        <ele>574.4</ele>
        <time>2026-05-14T07:07:44.999Z</time>
      </trkpt>
      <trkpt lat="44.18199" lon="5.3195">
        <ele>574.4</ele>
        <time>2026-05-14T07:07:45.999Z</time>
      </trkpt>
      <trkpt lat="44.18198" lon="5.31952">
        <ele>575</ele>
        <time>2026-05-14T07:07:46.999Z</time>
      </trkpt>
      <trkpt lat="44.18197" lon="5.31953">
        <ele>575.1</ele>
        <time>2026-05-14T07:07:47.999Z</time>
      </trkpt>
      <trkpt lat="44.18196" lon="5.31954">
        <ele>575.2</ele>
        <time>2026-05-14T07:07:48.999Z</time>
      </trkpt>
      <trkpt lat="44.18196" lon="5.31956">
        <ele>575.9</ele>
        <time>2026-05-14T07:07:49.999Z</time>
      </trkpt>
      <trkpt lat="44.18195" lon="5.31956">
        <ele>576.7</ele>
        <time>2026-05-14T07:07:50.999Z</time>
      </trkpt>
      <trkpt lat="44.18194" lon="5.31957">
        <ele>577.3</ele>
        <time>2026-05-14T07:07:51.999Z</time>
      </trkpt>
      <trkpt lat="44.18194" lon="5.31957">
        <ele>577.6</ele>
        <time>2026-05-14T07:07:52.999Z</time>
      </trkpt>
      <trkpt lat="44.18193" lon="5.31958">
        <ele>577.6</ele>
        <time>2026-05-14T07:07:53.999Z</time>
      </trkpt>
      <trkpt lat="44.18192" lon="5.31959">
        <ele>577.6</ele>
        <time>2026-05-14T07:07:54.999Z</time>
      </trkpt>
      <trkpt lat="44.18191" lon="5.3196">
        <ele>577.5</ele>
        <time>2026-05-14T07:07:55.999Z</time>
      </trkpt>
      <trkpt lat="44.18191" lon="5.31961">
        <ele>577</ele>
        <time>2026-05-14T07:07:56.999Z</time>
      </trkpt>
      <trkpt lat="44.18189" lon="5.31961">
        <ele>576.2</ele>
        <time>2026-05-14T07:07:57.999Z</time>
      </trkpt>
      <trkpt lat="44.18189" lon="5.31961">
        <ele>575.9</ele>
        <time>2026-05-14T07:07:58.999Z</time>
      </trkpt>
      <trkpt lat="44.18188" lon="5.31961">
        <ele>575.4</ele>
        <time>2026-05-14T07:07:59.999Z</time>
      </trkpt>
      <trkpt lat="44.18187" lon="5.3196">
        <ele>574.8</ele>
        <time>2026-05-14T07:08:00.999Z</time>
      </trkpt>
      <trkpt lat="44.18186" lon="5.31959">
        <ele>574.2</ele>
        <time>2026-05-14T07:08:01.999Z</time>
      </trkpt>
      <trkpt lat="44.18185" lon="5.31958">
        <ele>574.2</ele>
        <time>2026-05-14T07:08:02.999Z</time>
      </trkpt>
      <trkpt lat="44.18183" lon="5.31957">
        <ele>574.2</ele>
        <time>2026-05-14T07:08:03.999Z</time>
      </trkpt>
      <trkpt lat="44.18182" lon="5.31955">
        <ele>573.7</ele>
        <time>2026-05-14T07:08:04.999Z</time>
      </trkpt>
      <trkpt lat="44.18181" lon="5.31953">
        <ele>573.3</ele>
        <time>2026-05-14T07:08:05.999Z</time>
      </trkpt>
      <trkpt lat="44.18181" lon="5.31952">
        <ele>572.9</ele>
        <time>2026-05-14T07:08:06.999Z</time>
      </trkpt>
      <trkpt lat="44.18181" lon="5.3195">
        <ele>571.8</ele>
        <time>2026-05-14T07:08:07.999Z</time>
      </trkpt>
      <trkpt lat="44.1818" lon="5.31949">
        <ele>571.2</ele>
        <time>2026-05-14T07:08:08.999Z</time>
      </trkpt>
      <trkpt lat="44.1818" lon="5.31948">
        <ele>571.8</ele>
        <time>2026-05-14T07:08:09.999Z</time>
      </trkpt>
      <trkpt lat="44.1818" lon="5.31946">
        <ele>572.6</ele>
        <time>2026-05-14T07:08:10.999Z</time>
      </trkpt>
      <trkpt lat="44.1818" lon="5.31945">
        <ele>574.3</ele>
        <time>2026-05-14T07:08:11.999Z</time>
      </trkpt>
      <trkpt lat="44.18179" lon="5.31942">
        <ele>575.5</ele>
        <time>2026-05-14T07:08:12.999Z</time>
      </trkpt>
      <trkpt lat="44.18179" lon="5.31941">
        <ele>577.2</ele>
        <time>2026-05-14T07:08:13.999Z</time>
      </trkpt>
      <trkpt lat="44.18179" lon="5.31938">
        <ele>580.4</ele>
        <time>2026-05-14T07:08:14.999Z</time>
      </trkpt>
      <trkpt lat="44.18179" lon="5.31936">
        <ele>581</ele>
        <time>2026-05-14T07:08:15.999Z</time>
      </trkpt>
      <trkpt lat="44.18178" lon="5.31935">
        <ele>581.8</ele>
        <time>2026-05-14T07:08:16.999Z</time>
      </trkpt>
      <trkpt lat="44.18177" lon="5.31932">
        <ele>583.9</ele>
        <time>2026-05-14T07:08:17.999Z</time>
      </trkpt>
      <trkpt lat="44.18176" lon="5.3193">
        <ele>586.6</ele>
        <time>2026-05-14T07:08:18.999Z</time>
      </trkpt>
      <trkpt lat="44.18175" lon="5.31929">
        <ele>587.3</ele>
        <time>2026-05-14T07:08:19.999Z</time>
      </trkpt>
      <trkpt lat="44.18174" lon="5.31928">
        <ele>587.4</ele>
        <time>2026-05-14T07:08:20.999Z</time>
      </trkpt>
      <trkpt lat="44.18173" lon="5.31927">
        <ele>587.6</ele>
        <time>2026-05-14T07:08:21.999Z</time>
      </trkpt>
      <trkpt lat="44.18172" lon="5.31926">
        <ele>587.6</ele>
        <time>2026-05-14T07:08:22.999Z</time>
      </trkpt>
      <trkpt lat="44.18172" lon="5.31924">
        <ele>588.3</ele>
        <time>2026-05-14T07:08:23.999Z</time>
      </trkpt>
      <trkpt lat="44.18171" lon="5.31923">
        <ele>588.6</ele>
        <time>2026-05-14T07:08:24.999Z</time>
      </trkpt>
      <trkpt lat="44.1817" lon="5.31922">
        <ele>588.6</ele>
        <time>2026-05-14T07:08:25.999Z</time>
      </trkpt>
      <trkpt lat="44.18168" lon="5.31921">
        <ele>588.6</ele>
        <time>2026-05-14T07:08:26.999Z</time>
      </trkpt>
      <trkpt lat="44.18167" lon="5.31919">
        <ele>588.5</ele>
        <time>2026-05-14T07:08:27.999Z</time>
      </trkpt>
      <trkpt lat="44.18165" lon="5.31918">
        <ele>588.2</ele>
        <time>2026-05-14T07:08:28.999Z</time>
      </trkpt>
      <trkpt lat="44.18164" lon="5.31918">
        <ele>588.2</ele>
        <time>2026-05-14T07:08:29.999Z</time>
      </trkpt>
      <trkpt lat="44.18163" lon="5.31915">
        <ele>587.9</ele>
        <time>2026-05-14T07:08:30.999Z</time>
      </trkpt>
      <trkpt lat="44.18163" lon="5.31915">
        <ele>588.2</ele>
        <time>2026-05-14T07:08:31.999Z</time>
      </trkpt>
      <trkpt lat="44.18162" lon="5.31914">
        <ele>588.6</ele>
        <time>2026-05-14T07:08:32.999Z</time>
      </trkpt>
      <trkpt lat="44.18162" lon="5.31913">
        <ele>588.9</ele>
        <time>2026-05-14T07:08:33.999Z</time>
      </trkpt>
      <trkpt lat="44.18161" lon="5.31912">
        <ele>588.7</ele>
        <time>2026-05-14T07:08:34.999Z</time>
      </trkpt>
      <trkpt lat="44.18161" lon="5.31912">
        <ele>588.1</ele>
        <time>2026-05-14T07:08:35.999Z</time>
      </trkpt>
      <trkpt lat="44.1816" lon="5.31912">
        <ele>590.2</ele>
        <time>2026-05-14T07:08:36.999Z</time>
      </trkpt>
      <trkpt lat="44.18159" lon="5.31911">
        <ele>590.4</ele>
        <time>2026-05-14T07:08:37.999Z</time>
      </trkpt>
      <trkpt lat="44.18158" lon="5.31909">
        <ele>590.5</ele>
        <time>2026-05-14T07:08:38.999Z</time>
      </trkpt>
      <trkpt lat="44.18157" lon="5.31908">
        <ele>590.7</ele>
        <time>2026-05-14T07:08:39.999Z</time>
      </trkpt>
      <trkpt lat="44.18157" lon="5.31906">
        <ele>592.1</ele>
        <time>2026-05-14T07:08:40.999Z</time>
      </trkpt>
      <trkpt lat="44.18156" lon="5.31904">
        <ele>593.9</ele>
        <time>2026-05-14T07:08:41.999Z</time>
      </trkpt>
      <trkpt lat="44.18156" lon="5.31903">
        <ele>594.6</ele>
        <time>2026-05-14T07:08:42.999Z</time>
      </trkpt>
      <trkpt lat="44.18155" lon="5.31903">
        <ele>595.8</ele>
        <time>2026-05-14T07:08:43.999Z</time>
      </trkpt>
      <trkpt lat="44.18155" lon="5.31902">
        <ele>596.3</ele>
        <time>2026-05-14T07:08:44.999Z</time>
      </trkpt>
      <trkpt lat="44.18156" lon="5.319">
        <ele>596.4</ele>
        <time>2026-05-14T07:08:45.999Z</time>
      </trkpt>
      <trkpt lat="44.18156" lon="5.31898">
        <ele>596.6</ele>
        <time>2026-05-14T07:08:46.999Z</time>
      </trkpt>
      <trkpt lat="44.18156" lon="5.31896">
        <ele>597.7</ele>
        <time>2026-05-14T07:08:47.999Z</time>
      </trkpt>
      <trkpt lat="44.18157" lon="5.31895">
        <ele>599.5</ele>
        <time>2026-05-14T07:08:48.999Z</time>
      </trkpt>
      <trkpt lat="44.18158" lon="5.31893">
        <ele>599.8</ele>
        <time>2026-05-14T07:08:49.999Z</time>
      </trkpt>
      <trkpt lat="44.18159" lon="5.31892">
        <ele>600</ele>
        <time>2026-05-14T07:08:50.999Z</time>
      </trkpt>
      <trkpt lat="44.18161" lon="5.31891">
        <ele>600.5</ele>
        <time>2026-05-14T07:08:51.999Z</time>
      </trkpt>
      <trkpt lat="44.18162" lon="5.31891">
        <ele>601</ele>
        <time>2026-05-14T07:08:52.999Z</time>
      </trkpt>
      <trkpt lat="44.18163" lon="5.3189">
        <ele>601.2</ele>
        <time>2026-05-14T07:08:53.999Z</time>
      </trkpt>
      <trkpt lat="44.18163" lon="5.31889">
        <ele>602.7</ele>
        <time>2026-05-14T07:08:54.999Z</time>
      </trkpt>
      <trkpt lat="44.18165" lon="5.31888">
        <ele>602.9</ele>
        <time>2026-05-14T07:08:55.999Z</time>
      </trkpt>
      <trkpt lat="44.18166" lon="5.31886">
        <ele>603.2</ele>
        <time>2026-05-14T07:08:56.999Z</time>
      </trkpt>
      <trkpt lat="44.18167" lon="5.31884">
        <ele>603.4</ele>
        <time>2026-05-14T07:08:57.999Z</time>
      </trkpt>
      <trkpt lat="44.18167" lon="5.31883">
        <ele>603.6</ele>
        <time>2026-05-14T07:08:58.999Z</time>
      </trkpt>
      <trkpt lat="44.18168" lon="5.31882">
        <ele>603.1</ele>
        <time>2026-05-14T07:08:59.999Z</time>
      </trkpt>
      <trkpt lat="44.18169" lon="5.3188">
        <ele>602.6</ele>
        <time>2026-05-14T07:09:00.999Z</time>
      </trkpt>
      <trkpt lat="44.18171" lon="5.31878">
        <ele>602.1</ele>
        <time>2026-05-14T07:09:01.999Z</time>
      </trkpt>
      <trkpt lat="44.18172" lon="5.31876">
        <ele>601.7</ele>
        <time>2026-05-14T07:09:02.999Z</time>
      </trkpt>
      <trkpt lat="44.18173" lon="5.31875">
        <ele>601.4</ele>
        <time>2026-05-14T07:09:03.999Z</time>
      </trkpt>
      <trkpt lat="44.18174" lon="5.31873">
        <ele>601.1</ele>
        <time>2026-05-14T07:09:04.999Z</time>
      </trkpt>
      <trkpt lat="44.18175" lon="5.31872">
        <ele>601.3</ele>
        <time>2026-05-14T07:09:05.999Z</time>
      </trkpt>
      <trkpt lat="44.18176" lon="5.31871">
        <ele>601.4</ele>
        <time>2026-05-14T07:09:06.999Z</time>
      </trkpt>
      <trkpt lat="44.18178" lon="5.3187">
        <ele>601.8</ele>
        <time>2026-05-14T07:09:07.999Z</time>
      </trkpt>
      <trkpt lat="44.1818" lon="5.31869">
        <ele>602.4</ele>
        <time>2026-05-14T07:09:08.999Z</time>
      </trkpt>
      <trkpt lat="44.18181" lon="5.31868">
        <ele>603.2</ele>
        <time>2026-05-14T07:09:09.999Z</time>
      </trkpt>
      <trkpt lat="44.18182" lon="5.31867">
        <ele>603.7</ele>
        <time>2026-05-14T07:09:10.999Z</time>
      </trkpt>
      <trkpt lat="44.18183" lon="5.31867">
        <ele>603.7</ele>
        <time>2026-05-14T07:09:11.999Z</time>
      </trkpt>
      <trkpt lat="44.18183" lon="5.31866">
        <ele>604</ele>
        <time>2026-05-14T07:09:12.999Z</time>
      </trkpt>
      <trkpt lat="44.18183" lon="5.31864">
        <ele>603.8</ele>
        <time>2026-05-14T07:09:13.999Z</time>
      </trkpt>
      <trkpt lat="44.18184" lon="5.31863">
        <ele>603</ele>
        <time>2026-05-14T07:09:14.999Z</time>
      </trkpt>
      <trkpt lat="44.18185" lon="5.31861">
        <ele>603.1</ele>
        <time>2026-05-14T07:09:15.999Z</time>
      </trkpt>
      <trkpt lat="44.18186" lon="5.3186">
        <ele>603.5</ele>
        <time>2026-05-14T07:09:16.999Z</time>
      </trkpt>
      <trkpt lat="44.18186" lon="5.31859">
        <ele>604.1</ele>
        <time>2026-05-14T07:09:17.999Z</time>
      </trkpt>
      <trkpt lat="44.18186" lon="5.31857">
        <ele>605.6</ele>
        <time>2026-05-14T07:09:19.999Z</time>
      </trkpt>
      <trkpt lat="44.18186" lon="5.31856">
        <ele>605.2</ele>
        <time>2026-05-14T07:09:20.999Z</time>
      </trkpt>
      <trkpt lat="44.18186" lon="5.31854">
        <ele>604.2</ele>
        <time>2026-05-14T07:09:21.999Z</time>
      </trkpt>
      <trkpt lat="44.18186" lon="5.31853">
        <ele>605.3</ele>
        <time>2026-05-14T07:09:22.999Z</time>
      </trkpt>
      <trkpt lat="44.18186" lon="5.31851">
        <ele>605.2</ele>
        <time>2026-05-14T07:09:23.999Z</time>
      </trkpt>
      <trkpt lat="44.18186" lon="5.3185">
        <ele>604.6</ele>
        <time>2026-05-14T07:09:24.999Z</time>
      </trkpt>
      <trkpt lat="44.18187" lon="5.31849">
        <ele>604.1</ele>
        <time>2026-05-14T07:09:25.999Z</time>
      </trkpt>
      <trkpt lat="44.18187" lon="5.31847">
        <ele>603.4</ele>
        <time>2026-05-14T07:09:26.999Z</time>
      </trkpt>
      <trkpt lat="44.18187" lon="5.31845">
        <ele>603.2</ele>
        <time>2026-05-14T07:09:27.999Z</time>
      </trkpt>
      <trkpt lat="44.18187" lon="5.31844">
        <ele>603.3</ele>
        <time>2026-05-14T07:09:28.999Z</time>
      </trkpt>
      <trkpt lat="44.18188" lon="5.31843">
        <ele>602.3</ele>
        <time>2026-05-14T07:09:29.999Z</time>
      </trkpt>
      <trkpt lat="44.18188" lon="5.31841">
        <ele>601.2</ele>
        <time>2026-05-14T07:09:30.999Z</time>
      </trkpt>
      <trkpt lat="44.18189" lon="5.31839">
        <ele>600.4</ele>
        <time>2026-05-14T07:09:31.999Z</time>
      </trkpt>
      <trkpt lat="44.1819" lon="5.31836">
        <ele>599.6</ele>
        <time>2026-05-14T07:09:32.999Z</time>
      </trkpt>
      <trkpt lat="44.1819" lon="5.31834">
        <ele>598.7</ele>
        <time>2026-05-14T07:09:33.999Z</time>
      </trkpt>
      <trkpt lat="44.1819" lon="5.31832">
        <ele>597.7</ele>
        <time>2026-05-14T07:09:34.999Z</time>
      </trkpt>
      <trkpt lat="44.1819" lon="5.3183">
        <ele>596.1</ele>
        <time>2026-05-14T07:09:35.999Z</time>
      </trkpt>
      <trkpt lat="44.18191" lon="5.31828">
        <ele>595.4</ele>
        <time>2026-05-14T07:09:36.999Z</time>
      </trkpt>
      <trkpt lat="44.18191" lon="5.31827">
        <ele>595.1</ele>
        <time>2026-05-14T07:09:37.999Z</time>
      </trkpt>
      <trkpt lat="44.18192" lon="5.31825">
        <ele>594.3</ele>
        <time>2026-05-14T07:09:38.999Z</time>
      </trkpt>
      <trkpt lat="44.18192" lon="5.31823">
        <ele>594.2</ele>
        <time>2026-05-14T07:09:39.999Z</time>
      </trkpt>
      <trkpt lat="44.18193" lon="5.3182">
        <ele>593.7</ele>
        <time>2026-05-14T07:09:40.999Z</time>
      </trkpt>
      <trkpt lat="44.18194" lon="5.31819">
        <ele>593</ele>
        <time>2026-05-14T07:09:41.999Z</time>
      </trkpt>
      <trkpt lat="44.18195" lon="5.31817">
        <ele>592.1</ele>
        <time>2026-05-14T07:09:42.999Z</time>
      </trkpt>
      <trkpt lat="44.18195" lon="5.31815">
        <ele>592.1</ele>
        <time>2026-05-14T07:09:43.999Z</time>
      </trkpt>
      <trkpt lat="44.18195" lon="5.31814">
        <ele>592.5</ele>
        <time>2026-05-14T07:09:44.999Z</time>
      </trkpt>
      <trkpt lat="44.18195" lon="5.31813">
        <ele>592.6</ele>
        <time>2026-05-14T07:09:45.999Z</time>
      </trkpt>
      <trkpt lat="44.18195" lon="5.31811">
        <ele>592.8</ele>
        <time>2026-05-14T07:09:46.999Z</time>
      </trkpt>
      <trkpt lat="44.18195" lon="5.3181">
        <ele>593.3</ele>
        <time>2026-05-14T07:09:47.999Z</time>
      </trkpt>
      <trkpt lat="44.18196" lon="5.31809">
        <ele>593.3</ele>
        <time>2026-05-14T07:09:48.999Z</time>
      </trkpt>
      <trkpt lat="44.18196" lon="5.31807">
        <ele>593.7</ele>
        <time>2026-05-14T07:09:49.999Z</time>
      </trkpt>
      <trkpt lat="44.18196" lon="5.31806">
        <ele>594</ele>
        <time>2026-05-14T07:09:50.999Z</time>
      </trkpt>
      <trkpt lat="44.18197" lon="5.31805">
        <ele>594.3</ele>
        <time>2026-05-14T07:09:51.999Z</time>
      </trkpt>
      <trkpt lat="44.18197" lon="5.31805">
        <ele>594.9</ele>
        <time>2026-05-14T07:09:52.999Z</time>
      </trkpt>
      <trkpt lat="44.18198" lon="5.31803">
        <ele>594.8</ele>
        <time>2026-05-14T07:09:53.999Z</time>
      </trkpt>
      <trkpt lat="44.18198" lon="5.31803">
        <ele>595.2</ele>
        <time>2026-05-14T07:09:54.999Z</time>
      </trkpt>
      <trkpt lat="44.18199" lon="5.318">
        <ele>595.8</ele>
        <time>2026-05-14T07:09:55.999Z</time>
      </trkpt>
      <trkpt lat="44.18199" lon="5.31799">
        <ele>597.2</ele>
        <time>2026-05-14T07:09:56.999Z</time>
      </trkpt>
      <trkpt lat="44.182" lon="5.31799">
        <ele>597.7</ele>
        <time>2026-05-14T07:09:57.999Z</time>
      </trkpt>
      <trkpt lat="44.18202" lon="5.31797">
        <ele>598</ele>
        <time>2026-05-14T07:09:58.999Z</time>
      </trkpt>
      <trkpt lat="44.18203" lon="5.31796">
        <ele>598</ele>
        <time>2026-05-14T07:09:59.999Z</time>
      </trkpt>
      <trkpt lat="44.18204" lon="5.31794">
        <ele>598</ele>
        <time>2026-05-14T07:10:00.999Z</time>
      </trkpt>
      <trkpt lat="44.18205" lon="5.31793">
        <ele>597.9</ele>
        <time>2026-05-14T07:10:01.999Z</time>
      </trkpt>
      <trkpt lat="44.18206" lon="5.31793">
        <ele>598.6</ele>
        <time>2026-05-14T07:10:02.999Z</time>
      </trkpt>
      <trkpt lat="44.18206" lon="5.31791">
        <ele>598.7</ele>
        <time>2026-05-14T07:10:03.999Z</time>
      </trkpt>
      <trkpt lat="44.18207" lon="5.3179">
        <ele>598.5</ele>
        <time>2026-05-14T07:10:04.999Z</time>
      </trkpt>
      <trkpt lat="44.18207" lon="5.31788">
        <ele>597.5</ele>
        <time>2026-05-14T07:10:05.999Z</time>
      </trkpt>
      <trkpt lat="44.18208" lon="5.31787">
        <ele>597.4</ele>
        <time>2026-05-14T07:10:06.999Z</time>
      </trkpt>
      <trkpt lat="44.18208" lon="5.31785">
        <ele>597.6</ele>
        <time>2026-05-14T07:10:07.999Z</time>
      </trkpt>
      <trkpt lat="44.18209" lon="5.31784">
        <ele>597.2</ele>
        <time>2026-05-14T07:10:08.999Z</time>
      </trkpt>
      <trkpt lat="44.1821" lon="5.31782">
        <ele>596.7</ele>
        <time>2026-05-14T07:10:09.999Z</time>
      </trkpt>
      <trkpt lat="44.1821" lon="5.3178">
        <ele>597.3</ele>
        <time>2026-05-14T07:10:10.999Z</time>
      </trkpt>
      <trkpt lat="44.18211" lon="5.31778">
        <ele>595.3</ele>
        <time>2026-05-14T07:10:11.999Z</time>
      </trkpt>
      <trkpt lat="44.18211" lon="5.31776">
        <ele>595.4</ele>
        <time>2026-05-14T07:10:12.999Z</time>
      </trkpt>
      <trkpt lat="44.1821" lon="5.31773">
        <ele>597.6</ele>
        <time>2026-05-14T07:10:13.999Z</time>
      </trkpt>
      <trkpt lat="44.1821" lon="5.31771">
        <ele>599.6</ele>
        <time>2026-05-14T07:10:14.999Z</time>
      </trkpt>
      <trkpt lat="44.1821" lon="5.3177">
        <ele>602</ele>
        <time>2026-05-14T07:10:15.999Z</time>
      </trkpt>
      <trkpt lat="44.1821" lon="5.31769">
        <ele>604.1</ele>
        <time>2026-05-14T07:10:16.999Z</time>
      </trkpt>
      <trkpt lat="44.1821" lon="5.31767">
        <ele>605.3</ele>
        <time>2026-05-14T07:10:17.999Z</time>
      </trkpt>
      <trkpt lat="44.1821" lon="5.31766">
        <ele>606</ele>
        <time>2026-05-14T07:10:18.999Z</time>
      </trkpt>
      <trkpt lat="44.1821" lon="5.31766">
        <ele>605.6</ele>
        <time>2026-05-14T07:10:19.999Z</time>
      </trkpt>
      <trkpt lat="44.1821" lon="5.31765">
        <ele>606.1</ele>
        <time>2026-05-14T07:10:20.999Z</time>
      </trkpt>
      <trkpt lat="44.1821" lon="5.31765">
        <ele>606.7</ele>
        <time>2026-05-14T07:10:21.999Z</time>
      </trkpt>
      <trkpt lat="44.1821" lon="5.31764">
        <ele>607.2</ele>
        <time>2026-05-14T07:10:22.999Z</time>
      </trkpt>
      <trkpt lat="44.18209" lon="5.31763">
        <ele>608.1</ele>
        <time>2026-05-14T07:10:23.999Z</time>
      </trkpt>
      <trkpt lat="44.18209" lon="5.31762">
        <ele>608.4</ele>
        <time>2026-05-14T07:10:24.999Z</time>
      </trkpt>
      <trkpt lat="44.18208" lon="5.31761">
        <ele>608.7</ele>
        <time>2026-05-14T07:10:25.999Z</time>
      </trkpt>
      <trkpt lat="44.18207" lon="5.31759">
        <ele>608.1</ele>
        <time>2026-05-14T07:10:26.999Z</time>
      </trkpt>
      <trkpt lat="44.18207" lon="5.31758">
        <ele>607.5</ele>
        <time>2026-05-14T07:10:27.999Z</time>
      </trkpt>
      <trkpt lat="44.18207" lon="5.31756">
        <ele>606.8</ele>
        <time>2026-05-14T07:10:28.999Z</time>
      </trkpt>
      <trkpt lat="44.18207" lon="5.31754">
        <ele>606.4</ele>
        <time>2026-05-14T07:10:29.999Z</time>
      </trkpt>
      <trkpt lat="44.18207" lon="5.31752">
        <ele>605.9</ele>
        <time>2026-05-14T07:10:30.999Z</time>
      </trkpt>
      <trkpt lat="44.18207" lon="5.31749">
        <ele>604.9</ele>
        <time>2026-05-14T07:10:31.999Z</time>
      </trkpt>
      <trkpt lat="44.18206" lon="5.31748">
        <ele>604.3</ele>
        <time>2026-05-14T07:10:32.999Z</time>
      </trkpt>
      <trkpt lat="44.18206" lon="5.31745">
        <ele>605.3</ele>
        <time>2026-05-14T07:10:33.999Z</time>
      </trkpt>
      <trkpt lat="44.18205" lon="5.31743">
        <ele>604.9</ele>
        <time>2026-05-14T07:10:34.999Z</time>
      </trkpt>
      <trkpt lat="44.18204" lon="5.31742">
        <ele>605.5</ele>
        <time>2026-05-14T07:10:35.999Z</time>
      </trkpt>
      <trkpt lat="44.18204" lon="5.31741">
        <ele>606</ele>
        <time>2026-05-14T07:10:37.999Z</time>
      </trkpt>
      <trkpt lat="44.18203" lon="5.3174">
        <ele>606.3</ele>
        <time>2026-05-14T07:10:38.999Z</time>
      </trkpt>
      <trkpt lat="44.18202" lon="5.31739">
        <ele>606.7</ele>
        <time>2026-05-14T07:10:39.999Z</time>
      </trkpt>
      <trkpt lat="44.18202" lon="5.31738">
        <ele>607.4</ele>
        <time>2026-05-14T07:10:40.999Z</time>
      </trkpt>
      <trkpt lat="44.18201" lon="5.31736">
        <ele>608</ele>
        <time>2026-05-14T07:10:41.999Z</time>
      </trkpt>
      <trkpt lat="44.18201" lon="5.31735">
        <ele>608.5</ele>
        <time>2026-05-14T07:10:42.999Z</time>
      </trkpt>
      <trkpt lat="44.18201" lon="5.31733">
        <ele>608.8</ele>
        <time>2026-05-14T07:10:43.999Z</time>
      </trkpt>
      <trkpt lat="44.182" lon="5.31731">
        <ele>609.4</ele>
        <time>2026-05-14T07:10:44.999Z</time>
      </trkpt>
      <trkpt lat="44.182" lon="5.31729">
        <ele>609.5</ele>
        <time>2026-05-14T07:10:45.999Z</time>
      </trkpt>
      <trkpt lat="44.18199" lon="5.31727">
        <ele>610.8</ele>
        <time>2026-05-14T07:10:46.999Z</time>
      </trkpt>
      <trkpt lat="44.18197" lon="5.31725">
        <ele>611.6</ele>
        <time>2026-05-14T07:10:47.999Z</time>
      </trkpt>
      <trkpt lat="44.18197" lon="5.31724">
        <ele>611.8</ele>
        <time>2026-05-14T07:10:48.999Z</time>
      </trkpt>
      <trkpt lat="44.18196" lon="5.31722">
        <ele>612.2</ele>
        <time>2026-05-14T07:10:49.999Z</time>
      </trkpt>
      <trkpt lat="44.18195" lon="5.31721">
        <ele>612.6</ele>
        <time>2026-05-14T07:10:50.999Z</time>
      </trkpt>
      <trkpt lat="44.18194" lon="5.31719">
        <ele>612.8</ele>
        <time>2026-05-14T07:10:51.999Z</time>
      </trkpt>
      <trkpt lat="44.18193" lon="5.31719">
        <ele>612.9</ele>
        <time>2026-05-14T07:10:52.999Z</time>
      </trkpt>
      <trkpt lat="44.18193" lon="5.31718">
        <ele>613</ele>
        <time>2026-05-14T07:10:53.999Z</time>
      </trkpt>
      <trkpt lat="44.18192" lon="5.31718">
        <ele>613</ele>
        <time>2026-05-14T07:10:54.999Z</time>
      </trkpt>
      <trkpt lat="44.18192" lon="5.31717">
        <ele>613.4</ele>
        <time>2026-05-14T07:10:55.999Z</time>
      </trkpt>
      <trkpt lat="44.18192" lon="5.31717">
        <ele>613.2</ele>
        <time>2026-05-14T07:10:56.999Z</time>
      </trkpt>
      <trkpt lat="44.1819" lon="5.31715">
        <ele>613.3</ele>
        <time>2026-05-14T07:10:57.999Z</time>
      </trkpt>
      <trkpt lat="44.18189" lon="5.31714">
        <ele>612.9</ele>
        <time>2026-05-14T07:10:58.999Z</time>
      </trkpt>
      <trkpt lat="44.18187" lon="5.31713">
        <ele>612.6</ele>
        <time>2026-05-14T07:10:59.999Z</time>
      </trkpt>
      <trkpt lat="44.18186" lon="5.31712">
        <ele>612.8</ele>
        <time>2026-05-14T07:11:00.999Z</time>
      </trkpt>
      <trkpt lat="44.18185" lon="5.31712">
        <ele>613.7</ele>
        <time>2026-05-14T07:11:01.999Z</time>
      </trkpt>
      <trkpt lat="44.18184" lon="5.31711">
        <ele>613.5</ele>
        <time>2026-05-14T07:11:02.999Z</time>
      </trkpt>
      <trkpt lat="44.18183" lon="5.31709">
        <ele>613.3</ele>
        <time>2026-05-14T07:11:03.999Z</time>
      </trkpt>
      <trkpt lat="44.18182" lon="5.31708">
        <ele>613.2</ele>
        <time>2026-05-14T07:11:04.999Z</time>
      </trkpt>
      <trkpt lat="44.18181" lon="5.31707">
        <ele>613.2</ele>
        <time>2026-05-14T07:11:05.999Z</time>
      </trkpt>
      <trkpt lat="44.18179" lon="5.31706">
        <ele>613.3</ele>
        <time>2026-05-14T07:11:06.999Z</time>
      </trkpt>
      <trkpt lat="44.18178" lon="5.31706">
        <ele>613.4</ele>
        <time>2026-05-14T07:11:07.999Z</time>
      </trkpt>
      <trkpt lat="44.18178" lon="5.31704">
        <ele>612.9</ele>
        <time>2026-05-14T07:11:08.999Z</time>
      </trkpt>
      <trkpt lat="44.18177" lon="5.31703">
        <ele>612.7</ele>
        <time>2026-05-14T07:11:09.999Z</time>
      </trkpt>
      <trkpt lat="44.18175" lon="5.31702">
        <ele>612.4</ele>
        <time>2026-05-14T07:11:10.999Z</time>
      </trkpt>
      <trkpt lat="44.18174" lon="5.31701">
        <ele>612.2</ele>
        <time>2026-05-14T07:11:11.999Z</time>
      </trkpt>
      <trkpt lat="44.18173" lon="5.317">
        <ele>611.9</ele>
        <time>2026-05-14T07:11:12.999Z</time>
      </trkpt>
      <trkpt lat="44.18172" lon="5.31699">
        <ele>611.8</ele>
        <time>2026-05-14T07:11:13.999Z</time>
      </trkpt>
      <trkpt lat="44.18172" lon="5.31698">
        <ele>611.8</ele>
        <time>2026-05-14T07:11:14.999Z</time>
      </trkpt>
      <trkpt lat="44.18171" lon="5.31697">
        <ele>611.9</ele>
        <time>2026-05-14T07:11:15.999Z</time>
      </trkpt>
      <trkpt lat="44.1817" lon="5.31696">
        <ele>611.4</ele>
        <time>2026-05-14T07:11:16.999Z</time>
      </trkpt>
      <trkpt lat="44.18168" lon="5.31695">
        <ele>611.5</ele>
        <time>2026-05-14T07:11:17.999Z</time>
      </trkpt>
      <trkpt lat="44.18167" lon="5.31694">
        <ele>612.2</ele>
        <time>2026-05-14T07:11:18.999Z</time>
      </trkpt>
      <trkpt lat="44.18166" lon="5.31693">
        <ele>612.3</ele>
        <time>2026-05-14T07:11:19.999Z</time>
      </trkpt>
      <trkpt lat="44.18165" lon="5.31693">
        <ele>612.3</ele>
        <time>2026-05-14T07:11:20.999Z</time>
      </trkpt>
      <trkpt lat="44.18165" lon="5.31693">
        <ele>612.7</ele>
        <time>2026-05-14T07:11:21.999Z</time>
      </trkpt>
      <trkpt lat="44.18164" lon="5.31692">
        <ele>611.8</ele>
        <time>2026-05-14T07:11:22.999Z</time>
      </trkpt>
      <trkpt lat="44.18163" lon="5.31692">
        <ele>611.2</ele>
        <time>2026-05-14T07:11:23.999Z</time>
      </trkpt>
      <trkpt lat="44.18162" lon="5.31691">
        <ele>611.1</ele>
        <time>2026-05-14T07:11:24.999Z</time>
      </trkpt>
      <trkpt lat="44.18161" lon="5.31691">
        <ele>610.8</ele>
        <time>2026-05-14T07:11:25.999Z</time>
      </trkpt>
      <trkpt lat="44.1816" lon="5.3169">
        <ele>610.5</ele>
        <time>2026-05-14T07:11:26.999Z</time>
      </trkpt>
      <trkpt lat="44.18158" lon="5.3169">
        <ele>610.2</ele>
        <time>2026-05-14T07:11:27.999Z</time>
      </trkpt>
      <trkpt lat="44.18157" lon="5.31689">
        <ele>610.3</ele>
        <time>2026-05-14T07:11:28.999Z</time>
      </trkpt>
      <trkpt lat="44.18156" lon="5.31689">
        <ele>610</ele>
        <time>2026-05-14T07:11:29.999Z</time>
      </trkpt>
      <trkpt lat="44.18155" lon="5.31688">
        <ele>609.6</ele>
        <time>2026-05-14T07:11:30.999Z</time>
      </trkpt>
      <trkpt lat="44.18154" lon="5.31688">
        <ele>609.2</ele>
        <time>2026-05-14T07:11:31.999Z</time>
      </trkpt>
      <trkpt lat="44.18153" lon="5.31689">
        <ele>608</ele>
        <time>2026-05-14T07:11:32.999Z</time>
      </trkpt>
      <trkpt lat="44.18152" lon="5.31689">
        <ele>606.9</ele>
        <time>2026-05-14T07:11:33.999Z</time>
      </trkpt>
      <trkpt lat="44.18152" lon="5.31689">
        <ele>606.4</ele>
        <time>2026-05-14T07:11:34.999Z</time>
      </trkpt>
      <trkpt lat="44.18151" lon="5.31689">
        <ele>606</ele>
        <time>2026-05-14T07:11:35.999Z</time>
      </trkpt>
      <trkpt lat="44.1815" lon="5.31689">
        <ele>605.2</ele>
        <time>2026-05-14T07:11:36.999Z</time>
      </trkpt>
      <trkpt lat="44.18149" lon="5.31688">
        <ele>604.2</ele>
        <time>2026-05-14T07:11:37.999Z</time>
      </trkpt>
      <trkpt lat="44.18147" lon="5.31688">
        <ele>603.2</ele>
        <time>2026-05-14T07:11:38.999Z</time>
      </trkpt>
      <trkpt lat="44.18145" lon="5.31687">
        <ele>602.7</ele>
        <time>2026-05-14T07:11:39.999Z</time>
      </trkpt>
      <trkpt lat="44.18144" lon="5.31686">
        <ele>601.8</ele>
        <time>2026-05-14T07:11:40.999Z</time>
      </trkpt>
      <trkpt lat="44.18142" lon="5.31686">
        <ele>601.3</ele>
        <time>2026-05-14T07:11:41.999Z</time>
      </trkpt>
      <trkpt lat="44.18142" lon="5.31686">
        <ele>600.4</ele>
        <time>2026-05-14T07:11:42.999Z</time>
      </trkpt>
      <trkpt lat="44.18141" lon="5.31686">
        <ele>599.9</ele>
        <time>2026-05-14T07:11:43.999Z</time>
      </trkpt>
      <trkpt lat="44.18141" lon="5.31686">
        <ele>599.5</ele>
        <time>2026-05-14T07:11:44.999Z</time>
      </trkpt>
      <trkpt lat="44.18139" lon="5.31686">
        <ele>599.8</ele>
        <time>2026-05-14T07:11:45.999Z</time>
      </trkpt>
      <trkpt lat="44.18138" lon="5.31686">
        <ele>600.1</ele>
        <time>2026-05-14T07:11:46.999Z</time>
      </trkpt>
      <trkpt lat="44.18136" lon="5.31686">
        <ele>599.8</ele>
        <time>2026-05-14T07:11:47.999Z</time>
      </trkpt>
      <trkpt lat="44.18135" lon="5.31685">
        <ele>599.1</ele>
        <time>2026-05-14T07:11:48.999Z</time>
      </trkpt>
      <trkpt lat="44.18134" lon="5.31685">
        <ele>598.1</ele>
        <time>2026-05-14T07:11:49.999Z</time>
      </trkpt>
      <trkpt lat="44.18133" lon="5.31684">
        <ele>597.2</ele>
        <time>2026-05-14T07:11:50.999Z</time>
      </trkpt>
      <trkpt lat="44.18132" lon="5.31684">
        <ele>597.1</ele>
        <time>2026-05-14T07:11:51.999Z</time>
      </trkpt>
      <trkpt lat="44.18131" lon="5.31684">
        <ele>597.1</ele>
        <time>2026-05-14T07:11:52.999Z</time>
      </trkpt>
      <trkpt lat="44.1813" lon="5.31684">
        <ele>596.7</ele>
        <time>2026-05-14T07:11:53.999Z</time>
      </trkpt>
      <trkpt lat="44.18129" lon="5.31683">
        <ele>596.5</ele>
        <time>2026-05-14T07:11:54.999Z</time>
      </trkpt>
      <trkpt lat="44.18128" lon="5.31683">
        <ele>596</ele>
        <time>2026-05-14T07:11:55.999Z</time>
      </trkpt>
      <trkpt lat="44.18126" lon="5.31683">
        <ele>596</ele>
        <time>2026-05-14T07:11:56.999Z</time>
      </trkpt>
      <trkpt lat="44.18125" lon="5.31683">
        <ele>595.6</ele>
        <time>2026-05-14T07:11:57.999Z</time>
      </trkpt>
      <trkpt lat="44.18124" lon="5.31683">
        <ele>594.4</ele>
        <time>2026-05-14T07:11:58.999Z</time>
      </trkpt>
      <trkpt lat="44.18122" lon="5.31683">
        <ele>594.7</ele>
        <time>2026-05-14T07:11:59.999Z</time>
      </trkpt>
      <trkpt lat="44.18121" lon="5.31684">
        <ele>594.6</ele>
        <time>2026-05-14T07:12:00.999Z</time>
      </trkpt>
      <trkpt lat="44.18119" lon="5.31683">
        <ele>594.8</ele>
        <time>2026-05-14T07:12:01.999Z</time>
      </trkpt>
      <trkpt lat="44.18118" lon="5.31683">
        <ele>595.4</ele>
        <time>2026-05-14T07:12:02.999Z</time>
      </trkpt>
      <trkpt lat="44.18116" lon="5.31684">
        <ele>595.2</ele>
        <time>2026-05-14T07:12:03.999Z</time>
      </trkpt>
      <trkpt lat="44.18115" lon="5.31684">
        <ele>594.5</ele>
        <time>2026-05-14T07:12:04.999Z</time>
      </trkpt>
      <trkpt lat="44.18114" lon="5.31684">
        <ele>594</ele>
        <time>2026-05-14T07:12:05.999Z</time>
      </trkpt>
      <trkpt lat="44.18113" lon="5.31685">
        <ele>594.3</ele>
        <time>2026-05-14T07:12:06.999Z</time>
      </trkpt>
      <trkpt lat="44.18113" lon="5.31686">
        <ele>593.7</ele>
        <time>2026-05-14T07:12:07.999Z</time>
      </trkpt>
      <trkpt lat="44.18112" lon="5.31685">
        <ele>594</ele>
        <time>2026-05-14T07:12:08.999Z</time>
      </trkpt>
      <trkpt lat="44.18111" lon="5.31685">
        <ele>593.2</ele>
        <time>2026-05-14T07:12:09.999Z</time>
      </trkpt>
      <trkpt lat="44.1811" lon="5.31685">
        <ele>593.5</ele>
        <time>2026-05-14T07:12:10.999Z</time>
      </trkpt>
      <trkpt lat="44.1811" lon="5.31685">
        <ele>593</ele>
        <time>2026-05-14T07:12:11.999Z</time>
      </trkpt>
      <trkpt lat="44.18109" lon="5.31685">
        <ele>592.7</ele>
        <time>2026-05-14T07:12:12.999Z</time>
      </trkpt>
      <trkpt lat="44.18108" lon="5.31685">
        <ele>592.4</ele>
        <time>2026-05-14T07:12:13.999Z</time>
      </trkpt>
      <trkpt lat="44.18106" lon="5.31685">
        <ele>592.6</ele>
        <time>2026-05-14T07:12:14.999Z</time>
      </trkpt>
      <trkpt lat="44.18104" lon="5.31685">
        <ele>592.8</ele>
        <time>2026-05-14T07:12:15.999Z</time>
      </trkpt>
      <trkpt lat="44.18104" lon="5.31684">
        <ele>592.7</ele>
        <time>2026-05-14T07:12:16.999Z</time>
      </trkpt>
      <trkpt lat="44.18103" lon="5.31684">
        <ele>592.4</ele>
        <time>2026-05-14T07:12:17.999Z</time>
      </trkpt>
      <trkpt lat="44.18103" lon="5.31684">
        <ele>592</ele>
        <time>2026-05-14T07:12:18.999Z</time>
      </trkpt>
      <trkpt lat="44.18103" lon="5.31685">
        <ele>591.1</ele>
        <time>2026-05-14T07:12:19.999Z</time>
      </trkpt>
      <trkpt lat="44.18103" lon="5.31686">
        <ele>590.6</ele>
        <time>2026-05-14T07:12:20.999Z</time>
      </trkpt>
      <trkpt lat="44.18102" lon="5.31686">
        <ele>590.3</ele>
        <time>2026-05-14T07:12:21.999Z</time>
      </trkpt>
      <trkpt lat="44.18101" lon="5.31687">
        <ele>589.4</ele>
        <time>2026-05-14T07:12:22.999Z</time>
      </trkpt>
      <trkpt lat="44.18101" lon="5.31687">
        <ele>588.9</ele>
        <time>2026-05-14T07:12:23.999Z</time>
      </trkpt>
      <trkpt lat="44.18101" lon="5.31687">
        <ele>589.3</ele>
        <time>2026-05-14T07:12:24.999Z</time>
      </trkpt>
      <trkpt lat="44.18099" lon="5.31686">
        <ele>589.5</ele>
        <time>2026-05-14T07:12:25.999Z</time>
      </trkpt>
      <trkpt lat="44.18098" lon="5.31686">
        <ele>589.3</ele>
        <time>2026-05-14T07:12:26.999Z</time>
      </trkpt>
      <trkpt lat="44.18096" lon="5.31685">
        <ele>588.7</ele>
        <time>2026-05-14T07:12:27.999Z</time>
      </trkpt>
      <trkpt lat="44.18095" lon="5.31685">
        <ele>588.4</ele>
        <time>2026-05-14T07:12:28.999Z</time>
      </trkpt>
      <trkpt lat="44.18094" lon="5.31684">
        <ele>588.3</ele>
        <time>2026-05-14T07:12:29.999Z</time>
      </trkpt>
      <trkpt lat="44.18092" lon="5.31684">
        <ele>588.4</ele>
        <time>2026-05-14T07:12:30.999Z</time>
      </trkpt>
      <trkpt lat="44.18091" lon="5.31684">
        <ele>588.3</ele>
        <time>2026-05-14T07:12:31.999Z</time>
      </trkpt>
      <trkpt lat="44.18091" lon="5.31684">
        <ele>588.4</ele>
        <time>2026-05-14T07:12:32.999Z</time>
      </trkpt>
      <trkpt lat="44.18089" lon="5.31683">
        <ele>588.6</ele>
        <time>2026-05-14T07:12:33.999Z</time>
      </trkpt>
      <trkpt lat="44.18087" lon="5.31683">
        <ele>588.8</ele>
        <time>2026-05-14T07:12:34.999Z</time>
      </trkpt>
      <trkpt lat="44.18086" lon="5.31683">
        <ele>589.2</ele>
        <time>2026-05-14T07:12:35.999Z</time>
      </trkpt>
      <trkpt lat="44.18085" lon="5.31683">
        <ele>589.3</ele>
        <time>2026-05-14T07:12:36.999Z</time>
      </trkpt>
      <trkpt lat="44.18084" lon="5.31683">
        <ele>589.9</ele>
        <time>2026-05-14T07:12:37.999Z</time>
      </trkpt>
      <trkpt lat="44.18082" lon="5.31683">
        <ele>590.2</ele>
        <time>2026-05-14T07:12:38.999Z</time>
      </trkpt>
      <trkpt lat="44.18081" lon="5.31683">
        <ele>590.6</ele>
        <time>2026-05-14T07:12:39.999Z</time>
      </trkpt>
      <trkpt lat="44.18081" lon="5.31683">
        <ele>589.5</ele>
        <time>2026-05-14T07:12:40.999Z</time>
      </trkpt>
      <trkpt lat="44.1808" lon="5.31683">
        <ele>589.4</ele>
        <time>2026-05-14T07:12:41.999Z</time>
      </trkpt>
      <trkpt lat="44.18079" lon="5.31683">
        <ele>589</ele>
        <time>2026-05-14T07:12:42.999Z</time>
      </trkpt>
      <trkpt lat="44.18078" lon="5.31682">
        <ele>588.5</ele>
        <time>2026-05-14T07:12:43.999Z</time>
      </trkpt>
      <trkpt lat="44.18077" lon="5.31682">
        <ele>588.3</ele>
        <time>2026-05-14T07:12:44.999Z</time>
      </trkpt>
      <trkpt lat="44.18075" lon="5.31682">
        <ele>588</ele>
        <time>2026-05-14T07:12:45.999Z</time>
      </trkpt>
      <trkpt lat="44.18074" lon="5.31682">
        <ele>587.5</ele>
        <time>2026-05-14T07:12:46.999Z</time>
      </trkpt>
      <trkpt lat="44.18072" lon="5.31681">
        <ele>587.6</ele>
        <time>2026-05-14T07:12:47.999Z</time>
      </trkpt>
      <trkpt lat="44.18071" lon="5.3168">
        <ele>587.8</ele>
        <time>2026-05-14T07:12:48.999Z</time>
      </trkpt>
      <trkpt lat="44.18069" lon="5.31679">
        <ele>587.5</ele>
        <time>2026-05-14T07:12:49.999Z</time>
      </trkpt>
      <trkpt lat="44.18067" lon="5.31678">
        <ele>587.3</ele>
        <time>2026-05-14T07:12:50.999Z</time>
      </trkpt>
      <trkpt lat="44.18065" lon="5.31678">
        <ele>587.9</ele>
        <time>2026-05-14T07:12:51.999Z</time>
      </trkpt>
      <trkpt lat="44.18064" lon="5.31677">
        <ele>587.8</ele>
        <time>2026-05-14T07:12:52.999Z</time>
      </trkpt>
      <trkpt lat="44.18062" lon="5.31677">
        <ele>587.8</ele>
        <time>2026-05-14T07:12:53.999Z</time>
      </trkpt>
      <trkpt lat="44.18061" lon="5.31677">
        <ele>587.8</ele>
        <time>2026-05-14T07:12:54.999Z</time>
      </trkpt>
      <trkpt lat="44.1806" lon="5.31678">
        <ele>588.1</ele>
        <time>2026-05-14T07:12:55.999Z</time>
      </trkpt>
      <trkpt lat="44.18059" lon="5.31677">
        <ele>588.1</ele>
        <time>2026-05-14T07:12:56.999Z</time>
      </trkpt>
      <trkpt lat="44.18058" lon="5.31678">
        <ele>587.4</ele>
        <time>2026-05-14T07:12:57.999Z</time>
      </trkpt>
      <trkpt lat="44.18056" lon="5.31678">
        <ele>587.5</ele>
        <time>2026-05-14T07:12:58.999Z</time>
      </trkpt>
      <trkpt lat="44.18055" lon="5.31677">
        <ele>586.9</ele>
        <time>2026-05-14T07:12:59.999Z</time>
      </trkpt>
      <trkpt lat="44.18055" lon="5.31677">
        <ele>586.5</ele>
        <time>2026-05-14T07:13:00.999Z</time>
      </trkpt>
      <trkpt lat="44.18054" lon="5.31678">
        <ele>586.4</ele>
        <time>2026-05-14T07:13:01.999Z</time>
      </trkpt>
      <trkpt lat="44.18053" lon="5.31678">
        <ele>586.6</ele>
        <time>2026-05-14T07:13:02.999Z</time>
      </trkpt>
      <trkpt lat="44.18051" lon="5.31677">
        <ele>585.9</ele>
        <time>2026-05-14T07:13:03.999Z</time>
      </trkpt>
      <trkpt lat="44.18051" lon="5.31677">
        <ele>585.3</ele>
        <time>2026-05-14T07:13:04.999Z</time>
      </trkpt>
      <trkpt lat="44.18051" lon="5.31677">
        <ele>584.6</ele>
        <time>2026-05-14T07:13:05.999Z</time>
      </trkpt>
      <trkpt lat="44.18049" lon="5.31676">
        <ele>585.3</ele>
        <time>2026-05-14T07:13:06.999Z</time>
      </trkpt>
      <trkpt lat="44.18048" lon="5.31676">
        <ele>585.7</ele>
        <time>2026-05-14T07:13:07.999Z</time>
      </trkpt>
      <trkpt lat="44.18047" lon="5.31675">
        <ele>586.3</ele>
        <time>2026-05-14T07:13:08.999Z</time>
      </trkpt>
      <trkpt lat="44.18045" lon="5.31674">
        <ele>587.2</ele>
        <time>2026-05-14T07:13:09.999Z</time>
      </trkpt>
      <trkpt lat="44.18045" lon="5.31674">
        <ele>586.9</ele>
        <time>2026-05-14T07:13:10.999Z</time>
      </trkpt>
      <trkpt lat="44.18043" lon="5.31673">
        <ele>587.5</ele>
        <time>2026-05-14T07:13:11.999Z</time>
      </trkpt>
      <trkpt lat="44.18041" lon="5.31673">
        <ele>588.1</ele>
        <time>2026-05-14T07:13:12.999Z</time>
      </trkpt>
      <trkpt lat="44.1804" lon="5.31672">
        <ele>587.9</ele>
        <time>2026-05-14T07:13:13.999Z</time>
      </trkpt>
      <trkpt lat="44.1804" lon="5.31672">
        <ele>588</ele>
        <time>2026-05-14T07:13:14.999Z</time>
      </trkpt>
      <trkpt lat="44.18039" lon="5.31672">
        <ele>588.3</ele>
        <time>2026-05-14T07:13:15.999Z</time>
      </trkpt>
      <trkpt lat="44.18038" lon="5.31672">
        <ele>588.7</ele>
        <time>2026-05-14T07:13:16.999Z</time>
      </trkpt>
      <trkpt lat="44.18036" lon="5.31672">
        <ele>590</ele>
        <time>2026-05-14T07:13:17.999Z</time>
      </trkpt>
      <trkpt lat="44.18034" lon="5.31672">
        <ele>590.8</ele>
        <time>2026-05-14T07:13:18.999Z</time>
      </trkpt>
      <trkpt lat="44.18034" lon="5.31672">
        <ele>591.2</ele>
        <time>2026-05-14T07:13:19.999Z</time>
      </trkpt>
      <trkpt lat="44.18034" lon="5.31672">
        <ele>591.5</ele>
        <time>2026-05-14T07:13:20.999Z</time>
      </trkpt>
      <trkpt lat="44.18033" lon="5.31671">
        <ele>591.6</ele>
        <time>2026-05-14T07:13:21.999Z</time>
      </trkpt>
      <trkpt lat="44.18032" lon="5.31671">
        <ele>591.7</ele>
        <time>2026-05-14T07:13:22.999Z</time>
      </trkpt>
      <trkpt lat="44.18031" lon="5.31671">
        <ele>591.3</ele>
        <time>2026-05-14T07:13:23.999Z</time>
      </trkpt>
      <trkpt lat="44.18031" lon="5.31671">
        <ele>591.2</ele>
        <time>2026-05-14T07:13:24.999Z</time>
      </trkpt>
      <trkpt lat="44.1803" lon="5.3167">
        <ele>590.9</ele>
        <time>2026-05-14T07:13:25.999Z</time>
      </trkpt>
      <trkpt lat="44.1803" lon="5.3167">
        <ele>590.4</ele>
        <time>2026-05-14T07:13:26.999Z</time>
      </trkpt>
      <trkpt lat="44.18028" lon="5.31669">
        <ele>590.8</ele>
        <time>2026-05-14T07:13:27.999Z</time>
      </trkpt>
      <trkpt lat="44.18026" lon="5.31669">
        <ele>591</ele>
        <time>2026-05-14T07:13:28.999Z</time>
      </trkpt>
      <trkpt lat="44.18025" lon="5.31668">
        <ele>591.5</ele>
        <time>2026-05-14T07:13:29.999Z</time>
      </trkpt>
      <trkpt lat="44.18025" lon="5.31668">
        <ele>591.5</ele>
        <time>2026-05-14T07:13:30.999Z</time>
      </trkpt>
      <trkpt lat="44.18024" lon="5.31668">
        <ele>591.6</ele>
        <time>2026-05-14T07:13:31.999Z</time>
      </trkpt>
      <trkpt lat="44.18024" lon="5.31668">
        <ele>591.6</ele>
        <time>2026-05-14T07:13:32.999Z</time>
      </trkpt>
      <trkpt lat="44.18024" lon="5.31668">
        <ele>591.3</ele>
        <time>2026-05-14T07:13:33.999Z</time>
      </trkpt>
      <trkpt lat="44.18023" lon="5.31667">
        <ele>591.4</ele>
        <time>2026-05-14T07:13:34.999Z</time>
      </trkpt>
      <trkpt lat="44.18021" lon="5.31667">
        <ele>591</ele>
        <time>2026-05-14T07:13:35.999Z</time>
      </trkpt>
      <trkpt lat="44.1802" lon="5.31667">
        <ele>590.5</ele>
        <time>2026-05-14T07:13:36.999Z</time>
      </trkpt>
      <trkpt lat="44.18019" lon="5.31668">
        <ele>590.5</ele>
        <time>2026-05-14T07:13:37.999Z</time>
      </trkpt>
      <trkpt lat="44.18018" lon="5.31667">
        <ele>591</ele>
        <time>2026-05-14T07:13:38.999Z</time>
      </trkpt>
      <trkpt lat="44.18016" lon="5.31667">
        <ele>591.7</ele>
        <time>2026-05-14T07:13:39.999Z</time>
      </trkpt>
      <trkpt lat="44.18015" lon="5.31666">
        <ele>591.8</ele>
        <time>2026-05-14T07:13:40.999Z</time>
      </trkpt>
      <trkpt lat="44.18014" lon="5.31666">
        <ele>591.9</ele>
        <time>2026-05-14T07:13:41.999Z</time>
      </trkpt>
      <trkpt lat="44.18012" lon="5.31665">
        <ele>591.6</ele>
        <time>2026-05-14T07:13:42.999Z</time>
      </trkpt>
      <trkpt lat="44.1801" lon="5.31664">
        <ele>592.1</ele>
        <time>2026-05-14T07:13:43.999Z</time>
      </trkpt>
      <trkpt lat="44.18009" lon="5.31663">
        <ele>592.3</ele>
        <time>2026-05-14T07:13:44.999Z</time>
      </trkpt>
      <trkpt lat="44.18008" lon="5.31663">
        <ele>592.8</ele>
        <time>2026-05-14T07:13:45.999Z</time>
      </trkpt>
      <trkpt lat="44.18008" lon="5.31663">
        <ele>593</ele>
        <time>2026-05-14T07:13:46.999Z</time>
      </trkpt>
      <trkpt lat="44.18008" lon="5.31664">
        <ele>592.9</ele>
        <time>2026-05-14T07:13:47.999Z</time>
      </trkpt>
      <trkpt lat="44.18007" lon="5.31664">
        <ele>592.2</ele>
        <time>2026-05-14T07:13:48.999Z</time>
      </trkpt>
      <trkpt lat="44.18007" lon="5.31665">
        <ele>592</ele>
        <time>2026-05-14T07:13:49.999Z</time>
      </trkpt>
      <trkpt lat="44.18006" lon="5.31665">
        <ele>591.8</ele>
        <time>2026-05-14T07:13:50.999Z</time>
      </trkpt>
      <trkpt lat="44.18006" lon="5.31665">
        <ele>591.8</ele>
        <time>2026-05-14T07:13:51.999Z</time>
      </trkpt>
      <trkpt lat="44.18005" lon="5.31665">
        <ele>592.1</ele>
        <time>2026-05-14T07:13:52.999Z</time>
      </trkpt>
      <trkpt lat="44.18004" lon="5.31665">
        <ele>592.2</ele>
        <time>2026-05-14T07:13:53.999Z</time>
      </trkpt>
      <trkpt lat="44.18001" lon="5.31664">
        <ele>592.1</ele>
        <time>2026-05-14T07:13:54.999Z</time>
      </trkpt>
      <trkpt lat="44.17999" lon="5.31664">
        <ele>591.2</ele>
        <time>2026-05-14T07:13:55.999Z</time>
      </trkpt>
      <trkpt lat="44.17998" lon="5.31664">
        <ele>590.1</ele>
        <time>2026-05-14T07:13:56.999Z</time>
      </trkpt>
      <trkpt lat="44.17995" lon="5.31664">
        <ele>590.7</ele>
        <time>2026-05-14T07:13:57.999Z</time>
      </trkpt>
      <trkpt lat="44.17994" lon="5.31663">
        <ele>591.1</ele>
        <time>2026-05-14T07:13:58.999Z</time>
      </trkpt>
      <trkpt lat="44.17993" lon="5.31663">
        <ele>591.1</ele>
        <time>2026-05-14T07:13:59.999Z</time>
      </trkpt>
      <trkpt lat="44.17992" lon="5.31664">
        <ele>591.1</ele>
        <time>2026-05-14T07:14:00.999Z</time>
      </trkpt>
      <trkpt lat="44.17991" lon="5.31664">
        <ele>590.9</ele>
        <time>2026-05-14T07:14:01.999Z</time>
      </trkpt>
      <trkpt lat="44.1799" lon="5.31665">
        <ele>590.5</ele>
        <time>2026-05-14T07:14:02.999Z</time>
      </trkpt>
      <trkpt lat="44.17988" lon="5.31665">
        <ele>590.9</ele>
        <time>2026-05-14T07:14:03.999Z</time>
      </trkpt>
      <trkpt lat="44.17987" lon="5.31665">
        <ele>590.4</ele>
        <time>2026-05-14T07:14:04.999Z</time>
      </trkpt>
      <trkpt lat="44.17986" lon="5.31664">
        <ele>589.1</ele>
        <time>2026-05-14T07:14:05.999Z</time>
      </trkpt>
      <trkpt lat="44.17985" lon="5.31663">
        <ele>588</ele>
        <time>2026-05-14T07:14:06.999Z</time>
      </trkpt>
      <trkpt lat="44.17984" lon="5.31661">
        <ele>587.4</ele>
        <time>2026-05-14T07:14:07.999Z</time>
      </trkpt>
      <trkpt lat="44.17982" lon="5.3166">
        <ele>586.4</ele>
        <time>2026-05-14T07:14:08.999Z</time>
      </trkpt>
      <trkpt lat="44.17982" lon="5.31659">
        <ele>585.7</ele>
        <time>2026-05-14T07:14:09.999Z</time>
      </trkpt>
      <trkpt lat="44.17981" lon="5.31658">
        <ele>585.5</ele>
        <time>2026-05-14T07:14:10.999Z</time>
      </trkpt>
      <trkpt lat="44.1798" lon="5.31658">
        <ele>585.3</ele>
        <time>2026-05-14T07:14:11.999Z</time>
      </trkpt>
      <trkpt lat="44.17979" lon="5.31658">
        <ele>585.1</ele>
        <time>2026-05-14T07:14:12.999Z</time>
      </trkpt>
      <trkpt lat="44.17978" lon="5.31659">
        <ele>585.1</ele>
        <time>2026-05-14T07:14:13.999Z</time>
      </trkpt>
      <trkpt lat="44.17977" lon="5.31658">
        <ele>585.4</ele>
        <time>2026-05-14T07:14:14.999Z</time>
      </trkpt>
      <trkpt lat="44.17976" lon="5.31656">
        <ele>585.5</ele>
        <time>2026-05-14T07:14:15.999Z</time>
      </trkpt>
      <trkpt lat="44.17975" lon="5.31656">
        <ele>586.3</ele>
        <time>2026-05-14T07:14:16.999Z</time>
      </trkpt>
      <trkpt lat="44.17974" lon="5.31656">
        <ele>586.2</ele>
        <time>2026-05-14T07:14:17.999Z</time>
      </trkpt>
      <trkpt lat="44.17973" lon="5.31655">
        <ele>587.1</ele>
        <time>2026-05-14T07:14:18.999Z</time>
      </trkpt>
      <trkpt lat="44.17972" lon="5.31654">
        <ele>587.1</ele>
        <time>2026-05-14T07:14:19.999Z</time>
      </trkpt>
      <trkpt lat="44.17971" lon="5.31654">
        <ele>587.4</ele>
        <time>2026-05-14T07:14:20.999Z</time>
      </trkpt>
      <trkpt lat="44.1797" lon="5.31653">
        <ele>587.2</ele>
        <time>2026-05-14T07:14:21.999Z</time>
      </trkpt>
      <trkpt lat="44.17969" lon="5.31653">
        <ele>586.9</ele>
        <time>2026-05-14T07:14:22.999Z</time>
      </trkpt>
      <trkpt lat="44.17968" lon="5.31652">
        <ele>587.2</ele>
        <time>2026-05-14T07:14:23.999Z</time>
      </trkpt>
      <trkpt lat="44.17967" lon="5.31652">
        <ele>587.6</ele>
        <time>2026-05-14T07:14:24.999Z</time>
      </trkpt>
      <trkpt lat="44.17967" lon="5.31651">
        <ele>587.6</ele>
        <time>2026-05-14T07:14:25.999Z</time>
      </trkpt>
      <trkpt lat="44.17965" lon="5.31648">
        <ele>587.4</ele>
        <time>2026-05-14T07:14:26.999Z</time>
      </trkpt>
      <trkpt lat="44.17965" lon="5.31646">
        <ele>587.2</ele>
        <time>2026-05-14T07:14:27.999Z</time>
      </trkpt>
      <trkpt lat="44.17964" lon="5.31644">
        <ele>587.6</ele>
        <time>2026-05-14T07:14:28.999Z</time>
      </trkpt>
      <trkpt lat="44.17964" lon="5.31644">
        <ele>588.1</ele>
        <time>2026-05-14T07:14:29.999Z</time>
      </trkpt>
      <trkpt lat="44.17963" lon="5.31644">
        <ele>588.8</ele>
        <time>2026-05-14T07:14:30.999Z</time>
      </trkpt>
      <trkpt lat="44.17963" lon="5.31643">
        <ele>588.9</ele>
        <time>2026-05-14T07:14:31.999Z</time>
      </trkpt>
      <trkpt lat="44.17962" lon="5.31642">
        <ele>590.2</ele>
        <time>2026-05-14T07:14:32.999Z</time>
      </trkpt>
      <trkpt lat="44.17962" lon="5.31643">
        <ele>588.7</ele>
        <time>2026-05-14T07:14:33.999Z</time>
      </trkpt>
      <trkpt lat="44.17962" lon="5.31644">
        <ele>589.1</ele>
        <time>2026-05-14T07:14:34.999Z</time>
      </trkpt>
      <trkpt lat="44.17962" lon="5.31644">
        <ele>589.6</ele>
        <time>2026-05-14T07:14:35.999Z</time>
      </trkpt>
      <trkpt lat="44.17962" lon="5.31644">
        <ele>590.1</ele>
        <time>2026-05-14T07:14:36.999Z</time>
      </trkpt>
      <trkpt lat="44.17962" lon="5.31642">
        <ele>590</ele>
        <time>2026-05-14T07:14:37.999Z</time>
      </trkpt>
      <trkpt lat="44.17963" lon="5.31642">
        <ele>589</ele>
        <time>2026-05-14T07:14:38.999Z</time>
      </trkpt>
      <trkpt lat="44.17963" lon="5.31643">
        <ele>587.3</ele>
        <time>2026-05-14T07:14:39.999Z</time>
      </trkpt>
      <trkpt lat="44.17964" lon="5.31644">
        <ele>586.2</ele>
        <time>2026-05-14T07:14:40.999Z</time>
      </trkpt>
      <trkpt lat="44.17964" lon="5.31644">
        <ele>587</ele>
        <time>2026-05-14T07:14:41.999Z</time>
      </trkpt>
      <trkpt lat="44.17964" lon="5.31644">
        <ele>588.3</ele>
        <time>2026-05-14T07:14:42.999Z</time>
      </trkpt>
      <trkpt lat="44.17963" lon="5.31645">
        <ele>589.3</ele>
        <time>2026-05-14T07:14:43.999Z</time>
      </trkpt>
      <trkpt lat="44.17962" lon="5.31644">
        <ele>593.5</ele>
        <time>2026-05-14T07:14:44.999Z</time>
      </trkpt>
      <trkpt lat="44.17963" lon="5.31646">
        <ele>595.4</ele>
        <time>2026-05-14T07:14:45.999Z</time>
      </trkpt>
      <trkpt lat="44.17963" lon="5.31648">
        <ele>596.2</ele>
        <time>2026-05-14T07:14:46.999Z</time>
      </trkpt>
      <trkpt lat="44.17963" lon="5.31649">
        <ele>597.8</ele>
        <time>2026-05-14T07:14:47.999Z</time>
      </trkpt>
      <trkpt lat="44.17963" lon="5.3165">
        <ele>598.7</ele>
        <time>2026-05-14T07:14:48.999Z</time>
      </trkpt>
      <trkpt lat="44.17963" lon="5.3165">
        <ele>599.4</ele>
        <time>2026-05-14T07:14:49.999Z</time>
      </trkpt>
      <trkpt lat="44.17963" lon="5.31651">
        <ele>600.4</ele>
        <time>2026-05-14T07:14:50.999Z</time>
      </trkpt>
      <trkpt lat="44.17963" lon="5.31651">
        <ele>600.5</ele>
        <time>2026-05-14T07:14:51.999Z</time>
      </trkpt>
      <trkpt lat="44.17963" lon="5.31651">
        <ele>601</ele>
        <time>2026-05-14T07:14:52.999Z</time>
      </trkpt>
      <trkpt lat="44.17964" lon="5.31651">
        <ele>600.9</ele>
        <time>2026-05-14T07:14:53.999Z</time>
      </trkpt>
      <trkpt lat="44.17964" lon="5.3165">
        <ele>600.3</ele>
        <time>2026-05-14T07:14:54.999Z</time>
      </trkpt>
      <trkpt lat="44.17964" lon="5.3165">
        <ele>599.9</ele>
        <time>2026-05-14T07:14:55.999Z</time>
      </trkpt>
      <trkpt lat="44.17963" lon="5.3165">
        <ele>599.4</ele>
        <time>2026-05-14T07:14:56.999Z</time>
      </trkpt>
      <trkpt lat="44.17963" lon="5.3165">
        <ele>598.7</ele>
        <time>2026-05-14T07:14:57.999Z</time>
      </trkpt>
      <trkpt lat="44.17963" lon="5.3165">
        <ele>599.2</ele>
        <time>2026-05-14T07:14:58.999Z</time>
      </trkpt>
      <trkpt lat="44.17963" lon="5.3165">
        <ele>599.7</ele>
        <time>2026-05-14T07:14:59.999Z</time>
      </trkpt>
      <trkpt lat="44.17963" lon="5.3165">
        <ele>600.4</ele>
        <time>2026-05-14T07:15:00.999Z</time>
      </trkpt>
      <trkpt lat="44.17963" lon="5.3165">
        <ele>601.3</ele>
        <time>2026-05-14T07:15:01.999Z</time>
      </trkpt>
      <trkpt lat="44.17963" lon="5.3165">
        <ele>602.5</ele>
        <time>2026-05-14T07:15:02.999Z</time>
      </trkpt>
      <trkpt lat="44.17963" lon="5.3165">
        <ele>602.9</ele>
        <time>2026-05-14T07:15:03.999Z</time>
      </trkpt>
      <trkpt lat="44.17963" lon="5.3165">
        <ele>603.3</ele>
        <time>2026-05-14T07:15:04.999Z</time>
      </trkpt>
      <trkpt lat="44.17964" lon="5.3165">
        <ele>603.5</ele>
        <time>2026-05-14T07:15:05.999Z</time>
      </trkpt>
      <trkpt lat="44.17964" lon="5.3165">
        <ele>604</ele>
        <time>2026-05-14T07:15:06.999Z</time>
      </trkpt>
      <trkpt lat="44.17963" lon="5.3165">
        <ele>604.7</ele>
        <time>2026-05-14T07:15:07.999Z</time>
      </trkpt>
      <trkpt lat="44.17963" lon="5.3165">
        <ele>605.6</ele>
        <time>2026-05-14T07:15:08.999Z</time>
      </trkpt>
      <trkpt lat="44.17963" lon="5.3165">
        <ele>606.2</ele>
        <time>2026-05-14T07:15:09.999Z</time>
      </trkpt>
      <trkpt lat="44.17963" lon="5.3165">
        <ele>607.3</ele>
        <time>2026-05-14T07:15:10.999Z</time>
      </trkpt>
      <trkpt lat="44.17963" lon="5.3165">
        <ele>608</ele>
        <time>2026-05-14T07:15:11.999Z</time>
      </trkpt>
      <trkpt lat="44.17963" lon="5.3165">
        <ele>608.7</ele>
        <time>2026-05-14T07:15:12.999Z</time>
      </trkpt>
      <trkpt lat="44.17963" lon="5.3165">
        <ele>609.6</ele>
        <time>2026-05-14T07:15:13.999Z</time>
      </trkpt>
      <trkpt lat="44.17963" lon="5.3165">
        <ele>609.4</ele>
        <time>2026-05-14T07:15:14.999Z</time>
      </trkpt>
      <trkpt lat="44.17963" lon="5.3165">
        <ele>609.9</ele>
        <time>2026-05-14T07:15:15.999Z</time>
      </trkpt>
      <trkpt lat="44.17963" lon="5.3165">
        <ele>611.2</ele>
        <time>2026-05-14T07:15:16.999Z</time>
      </trkpt>
      <trkpt lat="44.17963" lon="5.3165">
        <ele>611.8</ele>
        <time>2026-05-14T07:15:17.999Z</time>
      </trkpt>
      <trkpt lat="44.17963" lon="5.3165">
        <ele>612.2</ele>
        <time>2026-05-14T07:15:18.999Z</time>
      </trkpt>
      <trkpt lat="44.17963" lon="5.3165">
        <ele>613</ele>
        <time>2026-05-14T07:15:19.999Z</time>
      </trkpt>
      <trkpt lat="44.17963" lon="5.3165">
        <ele>613</ele>
        <time>2026-05-14T07:15:20.999Z</time>
      </trkpt>
      <trkpt lat="44.17963" lon="5.3165">
        <ele>613.1</ele>
        <time>2026-05-14T07:15:21.999Z</time>
      </trkpt>
      <trkpt lat="44.17963" lon="5.3165">
        <ele>613.6</ele>
        <time>2026-05-14T07:15:22.999Z</time>
      </trkpt>
      <trkpt lat="44.17963" lon="5.3165">
        <ele>613.8</ele>
        <time>2026-05-14T07:15:23.999Z</time>
      </trkpt>
      <trkpt lat="44.17963" lon="5.3165">
        <ele>614.9</ele>
        <time>2026-05-14T07:15:24.999Z</time>
      </trkpt>
      <trkpt lat="44.17963" lon="5.3165">
        <ele>615.1</ele>
        <time>2026-05-14T07:15:25.999Z</time>
      </trkpt>
      <trkpt lat="44.17963" lon="5.3165">
        <ele>615.5</ele>
        <time>2026-05-14T07:15:26.999Z</time>
      </trkpt>
      <trkpt lat="44.17963" lon="5.3165">
        <ele>615.1</ele>
        <time>2026-05-14T07:15:27.999Z</time>
      </trkpt>
      <trkpt lat="44.17963" lon="5.3165">
        <ele>615.2</ele>
        <time>2026-05-14T07:15:28.999Z</time>
      </trkpt>
      <trkpt lat="44.17963" lon="5.3165">
        <ele>615.1</ele>
        <time>2026-05-14T07:15:29.999Z</time>
      </trkpt>
      <trkpt lat="44.17963" lon="5.3165">
        <ele>614.7</ele>
        <time>2026-05-14T07:15:30.999Z</time>
      </trkpt>
      <trkpt lat="44.17963" lon="5.3165">
        <ele>615.1</ele>
        <time>2026-05-14T07:15:31.999Z</time>
      </trkpt>
      <trkpt lat="44.17963" lon="5.3165">
        <ele>614.9</ele>
        <time>2026-05-14T07:15:32.999Z</time>
      </trkpt>
      <trkpt lat="44.17963" lon="5.3165">
        <ele>614.5</ele>
        <time>2026-05-14T07:15:33.999Z</time>
      </trkpt>
      <trkpt lat="44.17963" lon="5.3165">
        <ele>614.5</ele>
        <time>2026-05-14T07:15:34.999Z</time>
      </trkpt>
      <trkpt lat="44.17962" lon="5.31651">
        <ele>614.5</ele>
        <time>2026-05-14T07:15:35.999Z</time>
      </trkpt>
      <trkpt lat="44.17962" lon="5.31651">
        <ele>614.7</ele>
        <time>2026-05-14T07:15:36.999Z</time>
      </trkpt>
      <trkpt lat="44.17961" lon="5.31651">
        <ele>614.5</ele>
        <time>2026-05-14T07:15:37.999Z</time>
      </trkpt>
      <trkpt lat="44.17961" lon="5.31652">
        <ele>614.7</ele>
        <time>2026-05-14T07:15:38.999Z</time>
      </trkpt>
      <trkpt lat="44.17962" lon="5.31653">
        <ele>615.1</ele>
        <time>2026-05-14T07:15:39.999Z</time>
      </trkpt>
      <trkpt lat="44.17962" lon="5.31653">
        <ele>615.2</ele>
        <time>2026-05-14T07:15:40.999Z</time>
      </trkpt>
      <trkpt lat="44.17961" lon="5.31653">
        <ele>615.6</ele>
        <time>2026-05-14T07:15:41.999Z</time>
      </trkpt>
      <trkpt lat="44.17961" lon="5.31653">
        <ele>616</ele>
        <time>2026-05-14T07:15:42.999Z</time>
      </trkpt>
      <trkpt lat="44.17961" lon="5.31653">
        <ele>616.4</ele>
        <time>2026-05-14T07:15:43.999Z</time>
      </trkpt>
      <trkpt lat="44.17961" lon="5.31653">
        <ele>616.8</ele>
        <time>2026-05-14T07:15:44.999Z</time>
      </trkpt>
      <trkpt lat="44.17961" lon="5.31654">
        <ele>617.5</ele>
        <time>2026-05-14T07:15:45.999Z</time>
      </trkpt>
      <trkpt lat="44.17961" lon="5.31654">
        <ele>617.8</ele>
        <time>2026-05-14T07:15:46.999Z</time>
      </trkpt>
      <trkpt lat="44.17961" lon="5.31654">
        <ele>618.4</ele>
        <time>2026-05-14T07:15:47.999Z</time>
      </trkpt>
      <trkpt lat="44.17962" lon="5.31654">
        <ele>618.9</ele>
        <time>2026-05-14T07:15:48.999Z</time>
      </trkpt>
      <trkpt lat="44.17962" lon="5.31654">
        <ele>619.2</ele>
        <time>2026-05-14T07:15:49.999Z</time>
      </trkpt>
      <trkpt lat="44.17962" lon="5.31654">
        <ele>619.3</ele>
        <time>2026-05-14T07:15:50.999Z</time>
      </trkpt>
      <trkpt lat="44.17962" lon="5.31654">
        <ele>619.4</ele>
        <time>2026-05-14T07:15:51.999Z</time>
      </trkpt>
      <trkpt lat="44.17962" lon="5.31654">
        <ele>619.7</ele>
        <time>2026-05-14T07:15:52.999Z</time>
      </trkpt>
      <trkpt lat="44.17962" lon="5.31654">
        <ele>619.7</ele>
        <time>2026-05-14T07:15:53.999Z</time>
      </trkpt>
      <trkpt lat="44.17962" lon="5.31654">
        <ele>619.9</ele>
        <time>2026-05-14T07:15:54.999Z</time>
      </trkpt>
      <trkpt lat="44.17962" lon="5.31655">
        <ele>620.5</ele>
        <time>2026-05-14T07:15:55.999Z</time>
      </trkpt>
      <trkpt lat="44.17962" lon="5.31655">
        <ele>620.7</ele>
        <time>2026-05-14T07:15:56.999Z</time>
      </trkpt>
      <trkpt lat="44.17962" lon="5.31656">
        <ele>620.9</ele>
        <time>2026-05-14T07:15:57.999Z</time>
      </trkpt>
      <trkpt lat="44.17961" lon="5.31657">
        <ele>621.2</ele>
        <time>2026-05-14T07:15:58.999Z</time>
      </trkpt>
      <trkpt lat="44.17961" lon="5.31658">
        <ele>621.7</ele>
        <time>2026-05-14T07:15:59.999Z</time>
      </trkpt>
      <trkpt lat="44.1796" lon="5.31659">
        <ele>621.9</ele>
        <time>2026-05-14T07:16:00.999Z</time>
      </trkpt>
      <trkpt lat="44.1796" lon="5.31659">
        <ele>622</ele>
        <time>2026-05-14T07:16:01.999Z</time>
      </trkpt>
      <trkpt lat="44.1796" lon="5.31659">
        <ele>622.1</ele>
        <time>2026-05-14T07:16:02.999Z</time>
      </trkpt>
      <trkpt lat="44.1796" lon="5.31659">
        <ele>622.3</ele>
        <time>2026-05-14T07:16:03.999Z</time>
      </trkpt>
      <trkpt lat="44.1796" lon="5.31659">
        <ele>622.4</ele>
        <time>2026-05-14T07:16:04.999Z</time>
      </trkpt>
      <trkpt lat="44.1796" lon="5.31659">
        <ele>622.9</ele>
        <time>2026-05-14T07:16:05.999Z</time>
      </trkpt>
      <trkpt lat="44.17959" lon="5.3166">
        <ele>623.5</ele>
        <time>2026-05-14T07:16:07.999Z</time>
      </trkpt>
      <trkpt lat="44.17958" lon="5.3166">
        <ele>623.5</ele>
        <time>2026-05-14T07:16:08.999Z</time>
      </trkpt>
      <trkpt lat="44.17958" lon="5.3166">
        <ele>623.5</ele>
        <time>2026-05-14T07:16:09.999Z</time>
      </trkpt>
      <trkpt lat="44.17958" lon="5.3166">
        <ele>623.5</ele>
        <time>2026-05-14T07:16:10.999Z</time>
      </trkpt>
      <trkpt lat="44.17958" lon="5.31661">
        <ele>623.6</ele>
        <time>2026-05-14T07:16:11.999Z</time>
      </trkpt>
      <trkpt lat="44.17958" lon="5.31661">
        <ele>623.6</ele>
        <time>2026-05-14T07:16:12.999Z</time>
      </trkpt>
      <trkpt lat="44.17959" lon="5.31661">
        <ele>624.8</ele>
        <time>2026-05-14T07:16:13.999Z</time>
      </trkpt>
      <trkpt lat="44.17958" lon="5.31661">
        <ele>624.5</ele>
        <time>2026-05-14T07:16:14.999Z</time>
      </trkpt>
      <trkpt lat="44.17958" lon="5.31661">
        <ele>624.7</ele>
        <time>2026-05-14T07:16:15.999Z</time>
      </trkpt>
      <trkpt lat="44.17958" lon="5.31661">
        <ele>625.1</ele>
        <time>2026-05-14T07:16:16.999Z</time>
      </trkpt>
      <trkpt lat="44.17958" lon="5.31661">
        <ele>625.2</ele>
        <time>2026-05-14T07:16:17.999Z</time>
      </trkpt>
      <trkpt lat="44.17959" lon="5.31661">
        <ele>625.6</ele>
        <time>2026-05-14T07:16:18.999Z</time>
      </trkpt>
      <trkpt lat="44.17959" lon="5.31661">
        <ele>625.6</ele>
        <time>2026-05-14T07:16:19.999Z</time>
      </trkpt>
      <trkpt lat="44.17959" lon="5.3166">
        <ele>625.2</ele>
        <time>2026-05-14T07:16:20.999Z</time>
      </trkpt>
      <trkpt lat="44.17958" lon="5.31658">
        <ele>625.1</ele>
        <time>2026-05-14T07:16:21.999Z</time>
      </trkpt>
      <trkpt lat="44.17959" lon="5.31655">
        <ele>624.8</ele>
        <time>2026-05-14T07:16:22.999Z</time>
      </trkpt>
      <trkpt lat="44.17959" lon="5.31653">
        <ele>625.9</ele>
        <time>2026-05-14T07:16:23.999Z</time>
      </trkpt>
      <trkpt lat="44.17959" lon="5.31651">
        <ele>625.6</ele>
        <time>2026-05-14T07:16:24.999Z</time>
      </trkpt>
      <trkpt lat="44.17959" lon="5.31649">
        <ele>625.2</ele>
        <time>2026-05-14T07:16:25.999Z</time>
      </trkpt>
      <trkpt lat="44.17958" lon="5.31645">
        <ele>625.1</ele>
        <time>2026-05-14T07:16:26.999Z</time>
      </trkpt>
      <trkpt lat="44.17959" lon="5.31644">
        <ele>626.1</ele>
        <time>2026-05-14T07:16:27.999Z</time>
      </trkpt>
      <trkpt lat="44.17959" lon="5.31642">
        <ele>627</ele>
        <time>2026-05-14T07:16:28.999Z</time>
      </trkpt>
      <trkpt lat="44.17959" lon="5.3164">
        <ele>627.8</ele>
        <time>2026-05-14T07:16:29.999Z</time>
      </trkpt>
      <trkpt lat="44.17959" lon="5.31638">
        <ele>628.5</ele>
        <time>2026-05-14T07:16:30.999Z</time>
      </trkpt>
      <trkpt lat="44.17959" lon="5.31636">
        <ele>629.7</ele>
        <time>2026-05-14T07:16:31.999Z</time>
      </trkpt>
      <trkpt lat="44.1796" lon="5.31634">
        <ele>630.2</ele>
        <time>2026-05-14T07:16:32.999Z</time>
      </trkpt>
      <trkpt lat="44.1796" lon="5.31631">
        <ele>631.4</ele>
        <time>2026-05-14T07:16:33.999Z</time>
      </trkpt>
      <trkpt lat="44.1796" lon="5.31629">
        <ele>631.9</ele>
        <time>2026-05-14T07:16:34.999Z</time>
      </trkpt>
      <trkpt lat="44.1796" lon="5.31627">
        <ele>632</ele>
        <time>2026-05-14T07:16:35.999Z</time>
      </trkpt>
      <trkpt lat="44.1796" lon="5.31626">
        <ele>632.1</ele>
        <time>2026-05-14T07:16:36.999Z</time>
      </trkpt>
      <trkpt lat="44.17961" lon="5.31623">
        <ele>632.2</ele>
        <time>2026-05-14T07:16:37.999Z</time>
      </trkpt>
      <trkpt lat="44.17961" lon="5.31621">
        <ele>632.1</ele>
        <time>2026-05-14T07:16:38.999Z</time>
      </trkpt>
      <trkpt lat="44.17961" lon="5.31618">
        <ele>633</ele>
        <time>2026-05-14T07:16:39.999Z</time>
      </trkpt>
      <trkpt lat="44.17961" lon="5.31616">
        <ele>634.2</ele>
        <time>2026-05-14T07:16:40.999Z</time>
      </trkpt>
      <trkpt lat="44.17961" lon="5.31614">
        <ele>634.2</ele>
        <time>2026-05-14T07:16:41.999Z</time>
      </trkpt>
      <trkpt lat="44.17961" lon="5.31613">
        <ele>634.5</ele>
        <time>2026-05-14T07:16:42.999Z</time>
      </trkpt>
      <trkpt lat="44.17961" lon="5.31611">
        <ele>634.4</ele>
        <time>2026-05-14T07:16:43.999Z</time>
      </trkpt>
      <trkpt lat="44.17962" lon="5.3161">
        <ele>634.7</ele>
        <time>2026-05-14T07:16:44.999Z</time>
      </trkpt>
      <trkpt lat="44.17962" lon="5.31609">
        <ele>635.5</ele>
        <time>2026-05-14T07:16:45.999Z</time>
      </trkpt>
      <trkpt lat="44.17963" lon="5.31608">
        <ele>636.7</ele>
        <time>2026-05-14T07:16:46.999Z</time>
      </trkpt>
      <trkpt lat="44.17962" lon="5.31606">
        <ele>637.5</ele>
        <time>2026-05-14T07:16:47.999Z</time>
      </trkpt>
      <trkpt lat="44.17962" lon="5.31604">
        <ele>637.3</ele>
        <time>2026-05-14T07:16:48.999Z</time>
      </trkpt>
      <trkpt lat="44.17962" lon="5.31602">
        <ele>637.1</ele>
        <time>2026-05-14T07:16:49.999Z</time>
      </trkpt>
      <trkpt lat="44.17962" lon="5.316">
        <ele>637.1</ele>
        <time>2026-05-14T07:16:50.999Z</time>
      </trkpt>
      <trkpt lat="44.17963" lon="5.31598">
        <ele>637.5</ele>
        <time>2026-05-14T07:16:51.999Z</time>
      </trkpt>
      <trkpt lat="44.17963" lon="5.31596">
        <ele>638</ele>
        <time>2026-05-14T07:16:52.999Z</time>
      </trkpt>
      <trkpt lat="44.17963" lon="5.31594">
        <ele>638.3</ele>
        <time>2026-05-14T07:16:53.999Z</time>
      </trkpt>
      <trkpt lat="44.17963" lon="5.31592">
        <ele>638.3</ele>
        <time>2026-05-14T07:16:54.999Z</time>
      </trkpt>
      <trkpt lat="44.17963" lon="5.3159">
        <ele>637.9</ele>
        <time>2026-05-14T07:16:55.999Z</time>
      </trkpt>
      <trkpt lat="44.17963" lon="5.31588">
        <ele>638.2</ele>
        <time>2026-05-14T07:16:56.999Z</time>
      </trkpt>
      <trkpt lat="44.17963" lon="5.31586">
        <ele>638.4</ele>
        <time>2026-05-14T07:16:57.999Z</time>
      </trkpt>
      <trkpt lat="44.17964" lon="5.31584">
        <ele>638.1</ele>
        <time>2026-05-14T07:16:58.999Z</time>
      </trkpt>
      <trkpt lat="44.17964" lon="5.31583">
        <ele>638</ele>
        <time>2026-05-14T07:16:59.999Z</time>
      </trkpt>
      <trkpt lat="44.17964" lon="5.3158">
        <ele>638.3</ele>
        <time>2026-05-14T07:17:00.999Z</time>
      </trkpt>
      <trkpt lat="44.17964" lon="5.31578">
        <ele>637.9</ele>
        <time>2026-05-14T07:17:01.999Z</time>
      </trkpt>
      <trkpt lat="44.17965" lon="5.31576">
        <ele>637.3</ele>
        <time>2026-05-14T07:17:02.999Z</time>
      </trkpt>
      <trkpt lat="44.17965" lon="5.31575">
        <ele>637.6</ele>
        <time>2026-05-14T07:17:03.999Z</time>
      </trkpt>
      <trkpt lat="44.17966" lon="5.31574">
        <ele>636.9</ele>
        <time>2026-05-14T07:17:04.999Z</time>
      </trkpt>
      <trkpt lat="44.17966" lon="5.31572">
        <ele>637.2</ele>
        <time>2026-05-14T07:17:05.999Z</time>
      </trkpt>
      <trkpt lat="44.17967" lon="5.31571">
        <ele>637.7</ele>
        <time>2026-05-14T07:17:06.999Z</time>
      </trkpt>
      <trkpt lat="44.17967" lon="5.31569">
        <ele>637.4</ele>
        <time>2026-05-14T07:17:07.999Z</time>
      </trkpt>
      <trkpt lat="44.17967" lon="5.31569">
        <ele>638.4</ele>
        <time>2026-05-14T07:17:08.999Z</time>
      </trkpt>
      <trkpt lat="44.17967" lon="5.31567">
        <ele>638.8</ele>
        <time>2026-05-14T07:17:09.999Z</time>
      </trkpt>
      <trkpt lat="44.17967" lon="5.31566">
        <ele>638.7</ele>
        <time>2026-05-14T07:17:10.999Z</time>
      </trkpt>
      <trkpt lat="44.17967" lon="5.31563">
        <ele>638.7</ele>
        <time>2026-05-14T07:17:11.999Z</time>
      </trkpt>
      <trkpt lat="44.17967" lon="5.31561">
        <ele>639.2</ele>
        <time>2026-05-14T07:17:12.999Z</time>
      </trkpt>
      <trkpt lat="44.17968" lon="5.31559">
        <ele>639.7</ele>
        <time>2026-05-14T07:17:13.999Z</time>
      </trkpt>
      <trkpt lat="44.17968" lon="5.31556">
        <ele>640.9</ele>
        <time>2026-05-14T07:17:14.999Z</time>
      </trkpt>
      <trkpt lat="44.17968" lon="5.31554">
        <ele>640.9</ele>
        <time>2026-05-14T07:17:15.999Z</time>
      </trkpt>
      <trkpt lat="44.17968" lon="5.31552">
        <ele>640.6</ele>
        <time>2026-05-14T07:17:16.999Z</time>
      </trkpt>
      <trkpt lat="44.17968" lon="5.31551">
        <ele>641</ele>
        <time>2026-05-14T07:17:17.999Z</time>
      </trkpt>
      <trkpt lat="44.17968" lon="5.3155">
        <ele>641.6</ele>
        <time>2026-05-14T07:17:18.999Z</time>
      </trkpt>
      <trkpt lat="44.17969" lon="5.31549">
        <ele>642.1</ele>
        <time>2026-05-14T07:17:19.999Z</time>
      </trkpt>
      <trkpt lat="44.17969" lon="5.31548">
        <ele>642.3</ele>
        <time>2026-05-14T07:17:20.999Z</time>
      </trkpt>
      <trkpt lat="44.17969" lon="5.31546">
        <ele>642</ele>
        <time>2026-05-14T07:17:21.999Z</time>
      </trkpt>
      <trkpt lat="44.1797" lon="5.31543">
        <ele>641.3</ele>
        <time>2026-05-14T07:17:22.999Z</time>
      </trkpt>
      <trkpt lat="44.1797" lon="5.31541">
        <ele>641.2</ele>
        <time>2026-05-14T07:17:23.999Z</time>
      </trkpt>
      <trkpt lat="44.1797" lon="5.3154">
        <ele>642.9</ele>
        <time>2026-05-14T07:17:24.999Z</time>
      </trkpt>
      <trkpt lat="44.17971" lon="5.31539">
        <ele>644.4</ele>
        <time>2026-05-14T07:17:25.999Z</time>
      </trkpt>
      <trkpt lat="44.17971" lon="5.31538">
        <ele>646.3</ele>
        <time>2026-05-14T07:17:26.999Z</time>
      </trkpt>
      <trkpt lat="44.17972" lon="5.31537">
        <ele>647.7</ele>
        <time>2026-05-14T07:17:27.999Z</time>
      </trkpt>
      <trkpt lat="44.17973" lon="5.31535">
        <ele>646.8</ele>
        <time>2026-05-14T07:17:28.999Z</time>
      </trkpt>
      <trkpt lat="44.17973" lon="5.31534">
        <ele>646.4</ele>
        <time>2026-05-14T07:17:29.999Z</time>
      </trkpt>
      <trkpt lat="44.17974" lon="5.31533">
        <ele>646.2</ele>
        <time>2026-05-14T07:17:30.999Z</time>
      </trkpt>
      <trkpt lat="44.17975" lon="5.31532">
        <ele>646.7</ele>
        <time>2026-05-14T07:17:31.999Z</time>
      </trkpt>
      <trkpt lat="44.17975" lon="5.31532">
        <ele>647.3</ele>
        <time>2026-05-14T07:17:32.999Z</time>
      </trkpt>
      <trkpt lat="44.17976" lon="5.3153">
        <ele>647.4</ele>
        <time>2026-05-14T07:17:33.999Z</time>
      </trkpt>
      <trkpt lat="44.17976" lon="5.31529">
        <ele>647.4</ele>
        <time>2026-05-14T07:17:34.999Z</time>
      </trkpt>
      <trkpt lat="44.17976" lon="5.31527">
        <ele>647.2</ele>
        <time>2026-05-14T07:17:35.999Z</time>
      </trkpt>
      <trkpt lat="44.17977" lon="5.31526">
        <ele>646.8</ele>
        <time>2026-05-14T07:17:36.999Z</time>
      </trkpt>
      <trkpt lat="44.17977" lon="5.31524">
        <ele>646.6</ele>
        <time>2026-05-14T07:17:37.999Z</time>
      </trkpt>
      <trkpt lat="44.17978" lon="5.31522">
        <ele>646.2</ele>
        <time>2026-05-14T07:17:38.999Z</time>
      </trkpt>
      <trkpt lat="44.17979" lon="5.31522">
        <ele>647.5</ele>
        <time>2026-05-14T07:17:39.999Z</time>
      </trkpt>
      <trkpt lat="44.17981" lon="5.31521">
        <ele>649.1</ele>
        <time>2026-05-14T07:17:40.999Z</time>
      </trkpt>
      <trkpt lat="44.17983" lon="5.3152">
        <ele>649.1</ele>
        <time>2026-05-14T07:17:41.999Z</time>
      </trkpt>
      <trkpt lat="44.17985" lon="5.31519">
        <ele>649.2</ele>
        <time>2026-05-14T07:17:42.999Z</time>
      </trkpt>
      <trkpt lat="44.17988" lon="5.31518">
        <ele>649.1</ele>
        <time>2026-05-14T07:17:43.999Z</time>
      </trkpt>
      <trkpt lat="44.1799" lon="5.31517">
        <ele>649.8</ele>
        <time>2026-05-14T07:17:44.999Z</time>
      </trkpt>
      <trkpt lat="44.17991" lon="5.31516">
        <ele>650.4</ele>
        <time>2026-05-14T07:17:45.999Z</time>
      </trkpt>
      <trkpt lat="44.17992" lon="5.31515">
        <ele>650.1</ele>
        <time>2026-05-14T07:17:46.999Z</time>
      </trkpt>
      <trkpt lat="44.17993" lon="5.31513">
        <ele>649.7</ele>
        <time>2026-05-14T07:17:47.999Z</time>
      </trkpt>
      <trkpt lat="44.17994" lon="5.31512">
        <ele>649.4</ele>
        <time>2026-05-14T07:17:48.999Z</time>
      </trkpt>
      <trkpt lat="44.17995" lon="5.31511">
        <ele>649.2</ele>
        <time>2026-05-14T07:17:49.999Z</time>
      </trkpt>
      <trkpt lat="44.17996" lon="5.3151">
        <ele>649.8</ele>
        <time>2026-05-14T07:17:50.999Z</time>
      </trkpt>
      <trkpt lat="44.17998" lon="5.31508">
        <ele>649.9</ele>
        <time>2026-05-14T07:17:51.999Z</time>
      </trkpt>
      <trkpt lat="44.17999" lon="5.31507">
        <ele>649.9</ele>
        <time>2026-05-14T07:17:52.999Z</time>
      </trkpt>
      <trkpt lat="44.17999" lon="5.31505">
        <ele>649.9</ele>
        <time>2026-05-14T07:17:53.999Z</time>
      </trkpt>
      <trkpt lat="44.18" lon="5.31504">
        <ele>649.9</ele>
        <time>2026-05-14T07:17:54.999Z</time>
      </trkpt>
      <trkpt lat="44.18001" lon="5.31502">
        <ele>648.8</ele>
        <time>2026-05-14T07:17:55.999Z</time>
      </trkpt>
      <trkpt lat="44.18001" lon="5.31501">
        <ele>648.4</ele>
        <time>2026-05-14T07:17:56.999Z</time>
      </trkpt>
      <trkpt lat="44.18001" lon="5.31499">
        <ele>648.2</ele>
        <time>2026-05-14T07:17:57.999Z</time>
      </trkpt>
      <trkpt lat="44.18002" lon="5.31498">
        <ele>647.8</ele>
        <time>2026-05-14T07:17:58.999Z</time>
      </trkpt>
      <trkpt lat="44.18003" lon="5.31496">
        <ele>648.1</ele>
        <time>2026-05-14T07:17:59.999Z</time>
      </trkpt>
      <trkpt lat="44.18004" lon="5.31495">
        <ele>648.1</ele>
        <time>2026-05-14T07:18:00.999Z</time>
      </trkpt>
      <trkpt lat="44.18004" lon="5.31494">
        <ele>648.5</ele>
        <time>2026-05-14T07:18:01.999Z</time>
      </trkpt>
      <trkpt lat="44.18006" lon="5.31493">
        <ele>648.4</ele>
        <time>2026-05-14T07:18:02.999Z</time>
      </trkpt>
      <trkpt lat="44.18007" lon="5.31492">
        <ele>648.2</ele>
        <time>2026-05-14T07:18:03.999Z</time>
      </trkpt>
      <trkpt lat="44.18008" lon="5.31492">
        <ele>648.6</ele>
        <time>2026-05-14T07:18:04.999Z</time>
      </trkpt>
      <trkpt lat="44.18008" lon="5.31491">
        <ele>648.4</ele>
        <time>2026-05-14T07:18:05.999Z</time>
      </trkpt>
      <trkpt lat="44.18009" lon="5.3149">
        <ele>648.7</ele>
        <time>2026-05-14T07:18:06.999Z</time>
      </trkpt>
      <trkpt lat="44.1801" lon="5.31489">
        <ele>648.1</ele>
        <time>2026-05-14T07:18:07.999Z</time>
      </trkpt>
      <trkpt lat="44.18011" lon="5.31488">
        <ele>648.3</ele>
        <time>2026-05-14T07:18:08.999Z</time>
      </trkpt>
      <trkpt lat="44.18011" lon="5.31487">
        <ele>648.2</ele>
        <time>2026-05-14T07:18:09.999Z</time>
      </trkpt>
      <trkpt lat="44.18011" lon="5.31485">
        <ele>648.1</ele>
        <time>2026-05-14T07:18:10.999Z</time>
      </trkpt>
      <trkpt lat="44.18011" lon="5.31483">
        <ele>647.9</ele>
        <time>2026-05-14T07:18:11.999Z</time>
      </trkpt>
      <trkpt lat="44.18012" lon="5.31481">
        <ele>647.5</ele>
        <time>2026-05-14T07:18:12.999Z</time>
      </trkpt>
      <trkpt lat="44.18013" lon="5.31479">
        <ele>647.2</ele>
        <time>2026-05-14T07:18:13.999Z</time>
      </trkpt>
      <trkpt lat="44.18013" lon="5.31477">
        <ele>646.3</ele>
        <time>2026-05-14T07:18:14.999Z</time>
      </trkpt>
      <trkpt lat="44.18013" lon="5.31475">
        <ele>645.9</ele>
        <time>2026-05-14T07:18:15.999Z</time>
      </trkpt>
      <trkpt lat="44.18013" lon="5.31473">
        <ele>647.8</ele>
        <time>2026-05-14T07:18:16.999Z</time>
      </trkpt>
      <trkpt lat="44.18013" lon="5.31472">
        <ele>647.4</ele>
        <time>2026-05-14T07:18:17.999Z</time>
      </trkpt>
      <trkpt lat="44.18012" lon="5.3147">
        <ele>647.3</ele>
        <time>2026-05-14T07:18:18.999Z</time>
      </trkpt>
      <trkpt lat="44.18013" lon="5.31468">
        <ele>647.4</ele>
        <time>2026-05-14T07:18:19.999Z</time>
      </trkpt>
      <trkpt lat="44.18014" lon="5.31466">
        <ele>647</ele>
        <time>2026-05-14T07:18:20.999Z</time>
      </trkpt>
      <trkpt lat="44.18014" lon="5.31464">
        <ele>646.2</ele>
        <time>2026-05-14T07:18:21.999Z</time>
      </trkpt>
      <trkpt lat="44.18015" lon="5.31462">
        <ele>645.6</ele>
        <time>2026-05-14T07:18:22.999Z</time>
      </trkpt>
      <trkpt lat="44.18016" lon="5.31461">
        <ele>645.3</ele>
        <time>2026-05-14T07:18:23.999Z</time>
      </trkpt>
      <trkpt lat="44.18016" lon="5.3146">
        <ele>645.5</ele>
        <time>2026-05-14T07:18:24.999Z</time>
      </trkpt>
      <trkpt lat="44.18016" lon="5.31459">
        <ele>645.3</ele>
        <time>2026-05-14T07:18:25.999Z</time>
      </trkpt>
      <trkpt lat="44.18016" lon="5.31458">
        <ele>645.6</ele>
        <time>2026-05-14T07:18:26.999Z</time>
      </trkpt>
      <trkpt lat="44.18017" lon="5.31457">
        <ele>645.3</ele>
        <time>2026-05-14T07:18:27.999Z</time>
      </trkpt>
      <trkpt lat="44.18017" lon="5.31456">
        <ele>645.4</ele>
        <time>2026-05-14T07:18:28.999Z</time>
      </trkpt>
      <trkpt lat="44.18017" lon="5.31454">
        <ele>645.5</ele>
        <time>2026-05-14T07:18:29.999Z</time>
      </trkpt>
      <trkpt lat="44.18017" lon="5.31453">
        <ele>644.7</ele>
        <time>2026-05-14T07:18:30.999Z</time>
      </trkpt>
      <trkpt lat="44.18017" lon="5.31452">
        <ele>644.6</ele>
        <time>2026-05-14T07:18:31.999Z</time>
      </trkpt>
      <trkpt lat="44.18016" lon="5.31452">
        <ele>645.1</ele>
        <time>2026-05-14T07:18:32.999Z</time>
      </trkpt>
      <trkpt lat="44.18016" lon="5.31451">
        <ele>645.7</ele>
        <time>2026-05-14T07:18:33.999Z</time>
      </trkpt>
      <trkpt lat="44.18017" lon="5.3145">
        <ele>645.5</ele>
        <time>2026-05-14T07:18:34.999Z</time>
      </trkpt>
      <trkpt lat="44.18016" lon="5.31449">
        <ele>644.9</ele>
        <time>2026-05-14T07:18:35.999Z</time>
      </trkpt>
      <trkpt lat="44.18017" lon="5.31447">
        <ele>643.9</ele>
        <time>2026-05-14T07:18:36.999Z</time>
      </trkpt>
      <trkpt lat="44.18018" lon="5.31446">
        <ele>643.1</ele>
        <time>2026-05-14T07:18:37.999Z</time>
      </trkpt>
      <trkpt lat="44.18018" lon="5.31443">
        <ele>641.8</ele>
        <time>2026-05-14T07:18:38.999Z</time>
      </trkpt>
      <trkpt lat="44.18019" lon="5.31442">
        <ele>641.2</ele>
        <time>2026-05-14T07:18:39.999Z</time>
      </trkpt>
      <trkpt lat="44.1802" lon="5.3144">
        <ele>641.1</ele>
        <time>2026-05-14T07:18:40.999Z</time>
      </trkpt>
      <trkpt lat="44.1802" lon="5.31438">
        <ele>641.2</ele>
        <time>2026-05-14T07:18:41.999Z</time>
      </trkpt>
      <trkpt lat="44.1802" lon="5.31436">
        <ele>641.1</ele>
        <time>2026-05-14T07:18:42.999Z</time>
      </trkpt>
      <trkpt lat="44.18021" lon="5.31434">
        <ele>641.1</ele>
        <time>2026-05-14T07:18:43.999Z</time>
      </trkpt>
      <trkpt lat="44.18021" lon="5.31432">
        <ele>640.9</ele>
        <time>2026-05-14T07:18:44.999Z</time>
      </trkpt>
      <trkpt lat="44.18023" lon="5.31431">
        <ele>640.5</ele>
        <time>2026-05-14T07:18:45.999Z</time>
      </trkpt>
      <trkpt lat="44.18024" lon="5.3143">
        <ele>640.3</ele>
        <time>2026-05-14T07:18:46.999Z</time>
      </trkpt>
      <trkpt lat="44.18025" lon="5.31429">
        <ele>639.9</ele>
        <time>2026-05-14T07:18:47.999Z</time>
      </trkpt>
      <trkpt lat="44.18026" lon="5.31427">
        <ele>640</ele>
        <time>2026-05-14T07:18:48.999Z</time>
      </trkpt>
      <trkpt lat="44.18027" lon="5.31426">
        <ele>639.7</ele>
        <time>2026-05-14T07:18:49.999Z</time>
      </trkpt>
      <trkpt lat="44.18027" lon="5.31424">
        <ele>639.4</ele>
        <time>2026-05-14T07:18:50.999Z</time>
      </trkpt>
      <trkpt lat="44.18028" lon="5.31423">
        <ele>639</ele>
        <time>2026-05-14T07:18:52.000Z</time>
      </trkpt>
      <trkpt lat="44.1803" lon="5.31421">
        <ele>638.5</ele>
        <time>2026-05-14T07:18:53.000Z</time>
      </trkpt>
      <trkpt lat="44.18031" lon="5.3142">
        <ele>638.7</ele>
        <time>2026-05-14T07:18:54.000Z</time>
      </trkpt>
      <trkpt lat="44.18032" lon="5.31419">
        <ele>639.2</ele>
        <time>2026-05-14T07:18:55.000Z</time>
      </trkpt>
      <trkpt lat="44.18033" lon="5.31418">
        <ele>639.1</ele>
        <time>2026-05-14T07:18:56.000Z</time>
      </trkpt>
      <trkpt lat="44.18034" lon="5.31416">
        <ele>638.5</ele>
        <time>2026-05-14T07:18:58.000Z</time>
      </trkpt>
      <trkpt lat="44.18035" lon="5.31414">
        <ele>637.8</ele>
        <time>2026-05-14T07:18:59.000Z</time>
      </trkpt>
      <trkpt lat="44.18035" lon="5.31412">
        <ele>637.6</ele>
        <time>2026-05-14T07:19:00.000Z</time>
      </trkpt>
      <trkpt lat="44.18035" lon="5.3141">
        <ele>637.1</ele>
        <time>2026-05-14T07:19:01.000Z</time>
      </trkpt>
      <trkpt lat="44.18036" lon="5.31409">
        <ele>636.7</ele>
        <time>2026-05-14T07:19:02.000Z</time>
      </trkpt>
      <trkpt lat="44.18037" lon="5.31408">
        <ele>638.2</ele>
        <time>2026-05-14T07:19:03.000Z</time>
      </trkpt>
      <trkpt lat="44.18037" lon="5.31407">
        <ele>638.4</ele>
        <time>2026-05-14T07:19:04.000Z</time>
      </trkpt>
      <trkpt lat="44.18038" lon="5.31406">
        <ele>639.3</ele>
        <time>2026-05-14T07:19:05.000Z</time>
      </trkpt>
      <trkpt lat="44.18038" lon="5.31404">
        <ele>638.9</ele>
        <time>2026-05-14T07:19:06.000Z</time>
      </trkpt>
      <trkpt lat="44.18039" lon="5.31403">
        <ele>639</ele>
        <time>2026-05-14T07:19:07.000Z</time>
      </trkpt>
      <trkpt lat="44.18039" lon="5.314">
        <ele>639</ele>
        <time>2026-05-14T07:19:08.000Z</time>
      </trkpt>
      <trkpt lat="44.18039" lon="5.31399">
        <ele>639.5</ele>
        <time>2026-05-14T07:19:09.000Z</time>
      </trkpt>
      <trkpt lat="44.1804" lon="5.31397">
        <ele>640.6</ele>
        <time>2026-05-14T07:19:10.000Z</time>
      </trkpt>
      <trkpt lat="44.1804" lon="5.31396">
        <ele>640.4</ele>
        <time>2026-05-14T07:19:11.000Z</time>
      </trkpt>
      <trkpt lat="44.1804" lon="5.31395">
        <ele>640.5</ele>
        <time>2026-05-14T07:19:12.000Z</time>
      </trkpt>
      <trkpt lat="44.1804" lon="5.31394">
        <ele>641.1</ele>
        <time>2026-05-14T07:19:13.000Z</time>
      </trkpt>
      <trkpt lat="44.18041" lon="5.31392">
        <ele>640.8</ele>
        <time>2026-05-14T07:19:14.000Z</time>
      </trkpt>
      <trkpt lat="44.18041" lon="5.3139">
        <ele>640.5</ele>
        <time>2026-05-14T07:19:15.000Z</time>
      </trkpt>
      <trkpt lat="44.18042" lon="5.31388">
        <ele>640.3</ele>
        <time>2026-05-14T07:19:16.000Z</time>
      </trkpt>
      <trkpt lat="44.18042" lon="5.31386">
        <ele>639.7</ele>
        <time>2026-05-14T07:19:17.000Z</time>
      </trkpt>
      <trkpt lat="44.18041" lon="5.31385">
        <ele>639.9</ele>
        <time>2026-05-14T07:19:18.000Z</time>
      </trkpt>
      <trkpt lat="44.18041" lon="5.31383">
        <ele>640</ele>
        <time>2026-05-14T07:19:19.000Z</time>
      </trkpt>
      <trkpt lat="44.18042" lon="5.31382">
        <ele>639.4</ele>
        <time>2026-05-14T07:19:20.000Z</time>
      </trkpt>
      <trkpt lat="44.18042" lon="5.3138">
        <ele>639.6</ele>
        <time>2026-05-14T07:19:21.000Z</time>
      </trkpt>
      <trkpt lat="44.18042" lon="5.3138">
        <ele>639.3</ele>
        <time>2026-05-14T07:19:22.000Z</time>
      </trkpt>
      <trkpt lat="44.18042" lon="5.31378">
        <ele>639.7</ele>
        <time>2026-05-14T07:19:23.000Z</time>
      </trkpt>
      <trkpt lat="44.18041" lon="5.31377">
        <ele>641.1</ele>
        <time>2026-05-14T07:19:24.000Z</time>
      </trkpt>
      <trkpt lat="44.18041" lon="5.31375">
        <ele>641.8</ele>
        <time>2026-05-14T07:19:25.000Z</time>
      </trkpt>
      <trkpt lat="44.1804" lon="5.31373">
        <ele>642</ele>
        <time>2026-05-14T07:19:26.000Z</time>
      </trkpt>
      <trkpt lat="44.1804" lon="5.31372">
        <ele>643.9</ele>
        <time>2026-05-14T07:19:27.000Z</time>
      </trkpt>
      <trkpt lat="44.1804" lon="5.3137">
        <ele>644.9</ele>
        <time>2026-05-14T07:19:28.000Z</time>
      </trkpt>
      <trkpt lat="44.18039" lon="5.31368">
        <ele>646.3</ele>
        <time>2026-05-14T07:19:29.000Z</time>
      </trkpt>
      <trkpt lat="44.18039" lon="5.31367">
        <ele>647.6</ele>
        <time>2026-05-14T07:19:30.000Z</time>
      </trkpt>
      <trkpt lat="44.18039" lon="5.31366">
        <ele>648</ele>
        <time>2026-05-14T07:19:31.000Z</time>
      </trkpt>
      <trkpt lat="44.18038" lon="5.31365">
        <ele>648.3</ele>
        <time>2026-05-14T07:19:32.000Z</time>
      </trkpt>
      <trkpt lat="44.18038" lon="5.31364">
        <ele>648.6</ele>
        <time>2026-05-14T07:19:33.000Z</time>
      </trkpt>
      <trkpt lat="44.18038" lon="5.31363">
        <ele>648.9</ele>
        <time>2026-05-14T07:19:34.000Z</time>
      </trkpt>
      <trkpt lat="44.18037" lon="5.31361">
        <ele>648.7</ele>
        <time>2026-05-14T07:19:35.000Z</time>
      </trkpt>
      <trkpt lat="44.18037" lon="5.31359">
        <ele>648.9</ele>
        <time>2026-05-14T07:19:36.000Z</time>
      </trkpt>
      <trkpt lat="44.18037" lon="5.31358">
        <ele>649.1</ele>
        <time>2026-05-14T07:19:37.000Z</time>
      </trkpt>
      <trkpt lat="44.18037" lon="5.31356">
        <ele>649.9</ele>
        <time>2026-05-14T07:19:38.000Z</time>
      </trkpt>
      <trkpt lat="44.18037" lon="5.31354">
        <ele>651.5</ele>
        <time>2026-05-14T07:19:39.000Z</time>
      </trkpt>
      <trkpt lat="44.18037" lon="5.31352">
        <ele>652.5</ele>
        <time>2026-05-14T07:19:40.000Z</time>
      </trkpt>
      <trkpt lat="44.18037" lon="5.3135">
        <ele>652.7</ele>
        <time>2026-05-14T07:19:41.000Z</time>
      </trkpt>
      <trkpt lat="44.18038" lon="5.31349">
        <ele>653.2</ele>
        <time>2026-05-14T07:19:42.000Z</time>
      </trkpt>
      <trkpt lat="44.18038" lon="5.31347">
        <ele>652.8</ele>
        <time>2026-05-14T07:19:43.000Z</time>
      </trkpt>
      <trkpt lat="44.18039" lon="5.31345">
        <ele>651.6</ele>
        <time>2026-05-14T07:19:44.000Z</time>
      </trkpt>
      <trkpt lat="44.1804" lon="5.31343">
        <ele>651</ele>
        <time>2026-05-14T07:19:45.000Z</time>
      </trkpt>
      <trkpt lat="44.18039" lon="5.31341">
        <ele>651.4</ele>
        <time>2026-05-14T07:19:46.000Z</time>
      </trkpt>
      <trkpt lat="44.18039" lon="5.31339">
        <ele>651.2</ele>
        <time>2026-05-14T07:19:47.000Z</time>
      </trkpt>
      <trkpt lat="44.18039" lon="5.31336">
        <ele>653.7</ele>
        <time>2026-05-14T07:19:48.000Z</time>
      </trkpt>
      <trkpt lat="44.18039" lon="5.31334">
        <ele>653.4</ele>
        <time>2026-05-14T07:19:49.000Z</time>
      </trkpt>
      <trkpt lat="44.1804" lon="5.31333">
        <ele>653.4</ele>
        <time>2026-05-14T07:19:50.000Z</time>
      </trkpt>
      <trkpt lat="44.1804" lon="5.31331">
        <ele>652.9</ele>
        <time>2026-05-14T07:19:51.000Z</time>
      </trkpt>
      <trkpt lat="44.1804" lon="5.31329">
        <ele>652.3</ele>
        <time>2026-05-14T07:19:52.000Z</time>
      </trkpt>
      <trkpt lat="44.18041" lon="5.31327">
        <ele>651.9</ele>
        <time>2026-05-14T07:19:53.000Z</time>
      </trkpt>
      <trkpt lat="44.18041" lon="5.31326">
        <ele>651.4</ele>
        <time>2026-05-14T07:19:54.000Z</time>
      </trkpt>
      <trkpt lat="44.18041" lon="5.31325">
        <ele>651.3</ele>
        <time>2026-05-14T07:19:55.000Z</time>
      </trkpt>
      <trkpt lat="44.18041" lon="5.31324">
        <ele>651.7</ele>
        <time>2026-05-14T07:19:56.000Z</time>
      </trkpt>
      <trkpt lat="44.18041" lon="5.31324">
        <ele>652.4</ele>
        <time>2026-05-14T07:19:57.000Z</time>
      </trkpt>
      <trkpt lat="44.18041" lon="5.31323">
        <ele>653.2</ele>
        <time>2026-05-14T07:19:58.000Z</time>
      </trkpt>
      <trkpt lat="44.18041" lon="5.31322">
        <ele>653.2</ele>
        <time>2026-05-14T07:19:59.000Z</time>
      </trkpt>
      <trkpt lat="44.18042" lon="5.31321">
        <ele>654.4</ele>
        <time>2026-05-14T07:20:00.000Z</time>
      </trkpt>
      <trkpt lat="44.18042" lon="5.31319">
        <ele>654.3</ele>
        <time>2026-05-14T07:20:01.000Z</time>
      </trkpt>
      <trkpt lat="44.18041" lon="5.31317">
        <ele>655.3</ele>
        <time>2026-05-14T07:20:02.000Z</time>
      </trkpt>
      <trkpt lat="44.18041" lon="5.31315">
        <ele>655.8</ele>
        <time>2026-05-14T07:20:03.000Z</time>
      </trkpt>
      <trkpt lat="44.18041" lon="5.31313">
        <ele>656.2</ele>
        <time>2026-05-14T07:20:04.000Z</time>
      </trkpt>
      <trkpt lat="44.18041" lon="5.31311">
        <ele>656</ele>
        <time>2026-05-14T07:20:05.000Z</time>
      </trkpt>
      <trkpt lat="44.18041" lon="5.31309">
        <ele>655.5</ele>
        <time>2026-05-14T07:20:06.000Z</time>
      </trkpt>
      <trkpt lat="44.18041" lon="5.31307">
        <ele>655</ele>
        <time>2026-05-14T07:20:07.000Z</time>
      </trkpt>
      <trkpt lat="44.1804" lon="5.31305">
        <ele>654.5</ele>
        <time>2026-05-14T07:20:08.000Z</time>
      </trkpt>
      <trkpt lat="44.1804" lon="5.31303">
        <ele>654.8</ele>
        <time>2026-05-14T07:20:09.000Z</time>
      </trkpt>
      <trkpt lat="44.18039" lon="5.31301">
        <ele>655.4</ele>
        <time>2026-05-14T07:20:10.000Z</time>
      </trkpt>
      <trkpt lat="44.1804" lon="5.31299">
        <ele>655.8</ele>
        <time>2026-05-14T07:20:11.000Z</time>
      </trkpt>
      <trkpt lat="44.1804" lon="5.31297">
        <ele>657.7</ele>
        <time>2026-05-14T07:20:12.000Z</time>
      </trkpt>
      <trkpt lat="44.18041" lon="5.31296">
        <ele>659</ele>
        <time>2026-05-14T07:20:13.000Z</time>
      </trkpt>
      <trkpt lat="44.18042" lon="5.31294">
        <ele>660.6</ele>
        <time>2026-05-14T07:20:14.000Z</time>
      </trkpt>
      <trkpt lat="44.18042" lon="5.31292">
        <ele>661.4</ele>
        <time>2026-05-14T07:20:15.000Z</time>
      </trkpt>
      <trkpt lat="44.18041" lon="5.3129">
        <ele>662.5</ele>
        <time>2026-05-14T07:20:16.000Z</time>
      </trkpt>
      <trkpt lat="44.18041" lon="5.31288">
        <ele>662.8</ele>
        <time>2026-05-14T07:20:17.000Z</time>
      </trkpt>
      <trkpt lat="44.18042" lon="5.31287">
        <ele>663.9</ele>
        <time>2026-05-14T07:20:18.000Z</time>
      </trkpt>
      <trkpt lat="44.18042" lon="5.31285">
        <ele>663.3</ele>
        <time>2026-05-14T07:20:19.000Z</time>
      </trkpt>
      <trkpt lat="44.18043" lon="5.31282">
        <ele>663.5</ele>
        <time>2026-05-14T07:20:20.000Z</time>
      </trkpt>
      <trkpt lat="44.18043" lon="5.3128">
        <ele>663.3</ele>
        <time>2026-05-14T07:20:21.000Z</time>
      </trkpt>
      <trkpt lat="44.18043" lon="5.31278">
        <ele>662.4</ele>
        <time>2026-05-14T07:20:22.000Z</time>
      </trkpt>
      <trkpt lat="44.18043" lon="5.31276">
        <ele>663.3</ele>
        <time>2026-05-14T07:20:23.000Z</time>
      </trkpt>
      <trkpt lat="44.18043" lon="5.31273">
        <ele>663.2</ele>
        <time>2026-05-14T07:20:24.000Z</time>
      </trkpt>
      <trkpt lat="44.18043" lon="5.31272">
        <ele>663.4</ele>
        <time>2026-05-14T07:20:25.000Z</time>
      </trkpt>
      <trkpt lat="44.18043" lon="5.3127">
        <ele>664.5</ele>
        <time>2026-05-14T07:20:26.000Z</time>
      </trkpt>
      <trkpt lat="44.18044" lon="5.31269">
        <ele>665</ele>
        <time>2026-05-14T07:20:27.000Z</time>
      </trkpt>
      <trkpt lat="44.18044" lon="5.31268">
        <ele>665.4</ele>
        <time>2026-05-14T07:20:28.000Z</time>
      </trkpt>
      <trkpt lat="44.18044" lon="5.31267">
        <ele>665.4</ele>
        <time>2026-05-14T07:20:29.000Z</time>
      </trkpt>
      <trkpt lat="44.18044" lon="5.31267">
        <ele>666.1</ele>
        <time>2026-05-14T07:20:30.000Z</time>
      </trkpt>
      <trkpt lat="44.18045" lon="5.31266">
        <ele>666.1</ele>
        <time>2026-05-14T07:20:31.000Z</time>
      </trkpt>
      <trkpt lat="44.18045" lon="5.31264">
        <ele>666.2</ele>
        <time>2026-05-14T07:20:32.000Z</time>
      </trkpt>
      <trkpt lat="44.18045" lon="5.31262">
        <ele>665.9</ele>
        <time>2026-05-14T07:20:33.000Z</time>
      </trkpt>
      <trkpt lat="44.18046" lon="5.3126">
        <ele>665.2</ele>
        <time>2026-05-14T07:20:34.000Z</time>
      </trkpt>
      <trkpt lat="44.18046" lon="5.31259">
        <ele>664.8</ele>
        <time>2026-05-14T07:20:35.000Z</time>
      </trkpt>
      <trkpt lat="44.18046" lon="5.31258">
        <ele>664.5</ele>
        <time>2026-05-14T07:20:36.000Z</time>
      </trkpt>
      <trkpt lat="44.18046" lon="5.31256">
        <ele>664</ele>
        <time>2026-05-14T07:20:37.000Z</time>
      </trkpt>
      <trkpt lat="44.18046" lon="5.31254">
        <ele>664.7</ele>
        <time>2026-05-14T07:20:38.000Z</time>
      </trkpt>
      <trkpt lat="44.18047" lon="5.31253">
        <ele>665.4</ele>
        <time>2026-05-14T07:20:39.000Z</time>
      </trkpt>
      <trkpt lat="44.18047" lon="5.31252">
        <ele>666.5</ele>
        <time>2026-05-14T07:20:40.000Z</time>
      </trkpt>
      <trkpt lat="44.18047" lon="5.31251">
        <ele>668.1</ele>
        <time>2026-05-14T07:20:41.000Z</time>
      </trkpt>
      <trkpt lat="44.18047" lon="5.31249">
        <ele>668.1</ele>
        <time>2026-05-14T07:20:42.000Z</time>
      </trkpt>
      <trkpt lat="44.18048" lon="5.31247">
        <ele>668</ele>
        <time>2026-05-14T07:20:43.000Z</time>
      </trkpt>
      <trkpt lat="44.18047" lon="5.31246">
        <ele>668.6</ele>
        <time>2026-05-14T07:20:44.000Z</time>
      </trkpt>
      <trkpt lat="44.18047" lon="5.31245">
        <ele>669.3</ele>
        <time>2026-05-14T07:20:45.000Z</time>
      </trkpt>
      <trkpt lat="44.18047" lon="5.31245">
        <ele>670</ele>
        <time>2026-05-14T07:20:46.000Z</time>
      </trkpt>
      <trkpt lat="44.18047" lon="5.31244">
        <ele>670.2</ele>
        <time>2026-05-14T07:20:47.000Z</time>
      </trkpt>
      <trkpt lat="44.18047" lon="5.31243">
        <ele>670.1</ele>
        <time>2026-05-14T07:20:48.000Z</time>
      </trkpt>
      <trkpt lat="44.18046" lon="5.31241">
        <ele>669.9</ele>
        <time>2026-05-14T07:20:49.000Z</time>
      </trkpt>
      <trkpt lat="44.18046" lon="5.31239">
        <ele>669.3</ele>
        <time>2026-05-14T07:20:50.000Z</time>
      </trkpt>
      <trkpt lat="44.18047" lon="5.31237">
        <ele>668.3</ele>
        <time>2026-05-14T07:20:51.000Z</time>
      </trkpt>
      <trkpt lat="44.18046" lon="5.31234">
        <ele>667.9</ele>
        <time>2026-05-14T07:20:52.000Z</time>
      </trkpt>
      <trkpt lat="44.18046" lon="5.31233">
        <ele>667.6</ele>
        <time>2026-05-14T07:20:53.000Z</time>
      </trkpt>
      <trkpt lat="44.18046" lon="5.31232">
        <ele>667.7</ele>
        <time>2026-05-14T07:20:54.000Z</time>
      </trkpt>
      <trkpt lat="44.18047" lon="5.3123">
        <ele>667.4</ele>
        <time>2026-05-14T07:20:55.000Z</time>
      </trkpt>
      <trkpt lat="44.18046" lon="5.31228">
        <ele>666.9</ele>
        <time>2026-05-14T07:20:56.000Z</time>
      </trkpt>
      <trkpt lat="44.18046" lon="5.31225">
        <ele>666.6</ele>
        <time>2026-05-14T07:20:57.000Z</time>
      </trkpt>
      <trkpt lat="44.18046" lon="5.31224">
        <ele>666.3</ele>
        <time>2026-05-14T07:20:58.000Z</time>
      </trkpt>
      <trkpt lat="44.18046" lon="5.31223">
        <ele>665.8</ele>
        <time>2026-05-14T07:20:59.000Z</time>
      </trkpt>
      <trkpt lat="44.18046" lon="5.31222">
        <ele>666.3</ele>
        <time>2026-05-14T07:21:00.000Z</time>
      </trkpt>
      <trkpt lat="44.18046" lon="5.31221">
        <ele>665.8</ele>
        <time>2026-05-14T07:21:01.000Z</time>
      </trkpt>
      <trkpt lat="44.18046" lon="5.31219">
        <ele>665.4</ele>
        <time>2026-05-14T07:21:02.000Z</time>
      </trkpt>
      <trkpt lat="44.18046" lon="5.31217">
        <ele>666</ele>
        <time>2026-05-14T07:21:03.000Z</time>
      </trkpt>
      <trkpt lat="44.18046" lon="5.31215">
        <ele>666.5</ele>
        <time>2026-05-14T07:21:04.000Z</time>
      </trkpt>
      <trkpt lat="44.18046" lon="5.31213">
        <ele>666.5</ele>
        <time>2026-05-14T07:21:05.000Z</time>
      </trkpt>
      <trkpt lat="44.18046" lon="5.31213">
        <ele>667.3</ele>
        <time>2026-05-14T07:21:06.000Z</time>
      </trkpt>
      <trkpt lat="44.18046" lon="5.31211">
        <ele>667.3</ele>
        <time>2026-05-14T07:21:07.000Z</time>
      </trkpt>
      <trkpt lat="44.18046" lon="5.31209">
        <ele>667.6</ele>
        <time>2026-05-14T07:21:08.000Z</time>
      </trkpt>
      <trkpt lat="44.18046" lon="5.31208">
        <ele>668</ele>
        <time>2026-05-14T07:21:09.000Z</time>
      </trkpt>
      <trkpt lat="44.18046" lon="5.31206">
        <ele>668.3</ele>
        <time>2026-05-14T07:21:10.000Z</time>
      </trkpt>
      <trkpt lat="44.18046" lon="5.31205">
        <ele>668.5</ele>
        <time>2026-05-14T07:21:11.000Z</time>
      </trkpt>
      <trkpt lat="44.18046" lon="5.31204">
        <ele>668.6</ele>
        <time>2026-05-14T07:21:12.000Z</time>
      </trkpt>
      <trkpt lat="44.18046" lon="5.31202">
        <ele>668</ele>
        <time>2026-05-14T07:21:13.000Z</time>
      </trkpt>
      <trkpt lat="44.18046" lon="5.31199">
        <ele>667.4</ele>
        <time>2026-05-14T07:21:14.000Z</time>
      </trkpt>
      <trkpt lat="44.18046" lon="5.31197">
        <ele>667.1</ele>
        <time>2026-05-14T07:21:15.000Z</time>
      </trkpt>
      <trkpt lat="44.18047" lon="5.31195">
        <ele>667.5</ele>
        <time>2026-05-14T07:21:16.000Z</time>
      </trkpt>
      <trkpt lat="44.18048" lon="5.31195">
        <ele>668.2</ele>
        <time>2026-05-14T07:21:17.000Z</time>
      </trkpt>
      <trkpt lat="44.18048" lon="5.31195">
        <ele>668.7</ele>
        <time>2026-05-14T07:21:18.000Z</time>
      </trkpt>
      <trkpt lat="44.18049" lon="5.31194">
        <ele>668.4</ele>
        <time>2026-05-14T07:21:19.000Z</time>
      </trkpt>
      <trkpt lat="44.18051" lon="5.31194">
        <ele>668.1</ele>
        <time>2026-05-14T07:21:20.000Z</time>
      </trkpt>
      <trkpt lat="44.18052" lon="5.31192">
        <ele>668.2</ele>
        <time>2026-05-14T07:21:21.000Z</time>
      </trkpt>
      <trkpt lat="44.18052" lon="5.3119">
        <ele>667.9</ele>
        <time>2026-05-14T07:21:22.000Z</time>
      </trkpt>
      <trkpt lat="44.18052" lon="5.31188">
        <ele>666.6</ele>
        <time>2026-05-14T07:21:23.000Z</time>
      </trkpt>
      <trkpt lat="44.18053" lon="5.31187">
        <ele>665.9</ele>
        <time>2026-05-14T07:21:24.000Z</time>
      </trkpt>
      <trkpt lat="44.18052" lon="5.31187">
        <ele>666</ele>
        <time>2026-05-14T07:21:25.000Z</time>
      </trkpt>
      <trkpt lat="44.18052" lon="5.31187">
        <ele>665.8</ele>
        <time>2026-05-14T07:21:26.000Z</time>
      </trkpt>
      <trkpt lat="44.18053" lon="5.31186">
        <ele>665.8</ele>
        <time>2026-05-14T07:21:27.000Z</time>
      </trkpt>
      <trkpt lat="44.18053" lon="5.31185">
        <ele>665.8</ele>
        <time>2026-05-14T07:21:28.000Z</time>
      </trkpt>
      <trkpt lat="44.18054" lon="5.31185">
        <ele>665.8</ele>
        <time>2026-05-14T07:21:29.000Z</time>
      </trkpt>
      <trkpt lat="44.18055" lon="5.31184">
        <ele>665.8</ele>
        <time>2026-05-14T07:21:30.000Z</time>
      </trkpt>
      <trkpt lat="44.18055" lon="5.31183">
        <ele>665.7</ele>
        <time>2026-05-14T07:21:31.000Z</time>
      </trkpt>
      <trkpt lat="44.18056" lon="5.31181">
        <ele>665.4</ele>
        <time>2026-05-14T07:21:32.000Z</time>
      </trkpt>
      <trkpt lat="44.18057" lon="5.31179">
        <ele>664.8</ele>
        <time>2026-05-14T07:21:33.000Z</time>
      </trkpt>
      <trkpt lat="44.1806" lon="5.31177">
        <ele>664.7</ele>
        <time>2026-05-14T07:21:34.000Z</time>
      </trkpt>
      <trkpt lat="44.18062" lon="5.31175">
        <ele>664.5</ele>
        <time>2026-05-14T07:21:35.000Z</time>
      </trkpt>
      <trkpt lat="44.18063" lon="5.31173">
        <ele>663.6</ele>
        <time>2026-05-14T07:21:36.000Z</time>
      </trkpt>
      <trkpt lat="44.18063" lon="5.31171">
        <ele>664.2</ele>
        <time>2026-05-14T07:21:37.000Z</time>
      </trkpt>
      <trkpt lat="44.18063" lon="5.31169">
        <ele>664.6</ele>
        <time>2026-05-14T07:21:38.000Z</time>
      </trkpt>
      <trkpt lat="44.18064" lon="5.31167">
        <ele>664.6</ele>
        <time>2026-05-14T07:21:39.000Z</time>
      </trkpt>
      <trkpt lat="44.18064" lon="5.31166">
        <ele>664.8</ele>
        <time>2026-05-14T07:21:40.000Z</time>
      </trkpt>
      <trkpt lat="44.18064" lon="5.31165">
        <ele>665.3</ele>
        <time>2026-05-14T07:21:41.000Z</time>
      </trkpt>
      <trkpt lat="44.18065" lon="5.31165">
        <ele>665.3</ele>
        <time>2026-05-14T07:21:42.000Z</time>
      </trkpt>
      <trkpt lat="44.18065" lon="5.31164">
        <ele>665.7</ele>
        <time>2026-05-14T07:21:43.000Z</time>
      </trkpt>
      <trkpt lat="44.18065" lon="5.31163">
        <ele>666.7</ele>
        <time>2026-05-14T07:21:44.000Z</time>
      </trkpt>
      <trkpt lat="44.18068" lon="5.31162">
        <ele>667.2</ele>
        <time>2026-05-14T07:21:45.000Z</time>
      </trkpt>
      <trkpt lat="44.18068" lon="5.31161">
        <ele>667.5</ele>
        <time>2026-05-14T07:21:46.000Z</time>
      </trkpt>
      <trkpt lat="44.18068" lon="5.31161">
        <ele>667.5</ele>
        <time>2026-05-14T07:21:47.000Z</time>
      </trkpt>
      <trkpt lat="44.18068" lon="5.31161">
        <ele>667.8</ele>
        <time>2026-05-14T07:21:48.000Z</time>
      </trkpt>
      <trkpt lat="44.18068" lon="5.31162">
        <ele>667</ele>
        <time>2026-05-14T07:21:49.000Z</time>
      </trkpt>
      <trkpt lat="44.18069" lon="5.31161">
        <ele>667.8</ele>
        <time>2026-05-14T07:21:50.000Z</time>
      </trkpt>
      <trkpt lat="44.1807" lon="5.3116">
        <ele>668.6</ele>
        <time>2026-05-14T07:21:51.000Z</time>
      </trkpt>
      <trkpt lat="44.1807" lon="5.31159">
        <ele>668.5</ele>
        <time>2026-05-14T07:21:52.000Z</time>
      </trkpt>
      <trkpt lat="44.18071" lon="5.31158">
        <ele>668.7</ele>
        <time>2026-05-14T07:21:53.000Z</time>
      </trkpt>
      <trkpt lat="44.18072" lon="5.31158">
        <ele>669.5</ele>
        <time>2026-05-14T07:21:54.000Z</time>
      </trkpt>
      <trkpt lat="44.18073" lon="5.31157">
        <ele>670.6</ele>
        <time>2026-05-14T07:21:55.000Z</time>
      </trkpt>
      <trkpt lat="44.18074" lon="5.31155">
        <ele>671</ele>
        <time>2026-05-14T07:21:56.000Z</time>
      </trkpt>
      <trkpt lat="44.18074" lon="5.31153">
        <ele>670.9</ele>
        <time>2026-05-14T07:21:57.000Z</time>
      </trkpt>
      <trkpt lat="44.18074" lon="5.31151">
        <ele>671.5</ele>
        <time>2026-05-14T07:21:58.000Z</time>
      </trkpt>
      <trkpt lat="44.18074" lon="5.31149">
        <ele>672.1</ele>
        <time>2026-05-14T07:21:59.000Z</time>
      </trkpt>
      <trkpt lat="44.18074" lon="5.31147">
        <ele>672.9</ele>
        <time>2026-05-14T07:22:00.000Z</time>
      </trkpt>
      <trkpt lat="44.18074" lon="5.31146">
        <ele>673.2</ele>
        <time>2026-05-14T07:22:01.000Z</time>
      </trkpt>
      <trkpt lat="44.18075" lon="5.31145">
        <ele>673.6</ele>
        <time>2026-05-14T07:22:02.000Z</time>
      </trkpt>
      <trkpt lat="44.18076" lon="5.31144">
        <ele>673.4</ele>
        <time>2026-05-14T07:22:03.000Z</time>
      </trkpt>
      <trkpt lat="44.18076" lon="5.31143">
        <ele>673.5</ele>
        <time>2026-05-14T07:22:04.000Z</time>
      </trkpt>
      <trkpt lat="44.18076" lon="5.31143">
        <ele>674</ele>
        <time>2026-05-14T07:22:05.000Z</time>
      </trkpt>
      <trkpt lat="44.18076" lon="5.31143">
        <ele>674.2</ele>
        <time>2026-05-14T07:22:06.000Z</time>
      </trkpt>
      <trkpt lat="44.18076" lon="5.31141">
        <ele>673.8</ele>
        <time>2026-05-14T07:22:08.000Z</time>
      </trkpt>
      <trkpt lat="44.18077" lon="5.3114">
        <ele>674.4</ele>
        <time>2026-05-14T07:22:09.000Z</time>
      </trkpt>
      <trkpt lat="44.18077" lon="5.31139">
        <ele>674.8</ele>
        <time>2026-05-14T07:22:10.000Z</time>
      </trkpt>
      <trkpt lat="44.18078" lon="5.31138">
        <ele>674.9</ele>
        <time>2026-05-14T07:22:11.000Z</time>
      </trkpt>
      <trkpt lat="44.18078" lon="5.31137">
        <ele>674.8</ele>
        <time>2026-05-14T07:22:12.000Z</time>
      </trkpt>
      <trkpt lat="44.18079" lon="5.31134">
        <ele>675.4</ele>
        <time>2026-05-14T07:22:13.000Z</time>
      </trkpt>
      <trkpt lat="44.18081" lon="5.31132">
        <ele>675.4</ele>
        <time>2026-05-14T07:22:14.000Z</time>
      </trkpt>
      <trkpt lat="44.1808" lon="5.31131">
        <ele>680.3</ele>
        <time>2026-05-14T07:22:15.000Z</time>
      </trkpt>
      <trkpt lat="44.18081" lon="5.31132">
        <ele>683.2</ele>
        <time>2026-05-14T07:22:16.000Z</time>
      </trkpt>
      <trkpt lat="44.1808" lon="5.31133">
        <ele>686.6</ele>
        <time>2026-05-14T07:22:17.000Z</time>
      </trkpt>
      <trkpt lat="44.1808" lon="5.31133">
        <ele>690.3</ele>
        <time>2026-05-14T07:22:18.000Z</time>
      </trkpt>
      <trkpt lat="44.1808" lon="5.31133">
        <ele>694.8</ele>
        <time>2026-05-14T07:22:19.000Z</time>
      </trkpt>
      <trkpt lat="44.1808" lon="5.31132">
        <ele>697.1</ele>
        <time>2026-05-14T07:22:20.000Z</time>
      </trkpt>
      <trkpt lat="44.18081" lon="5.31132">
        <ele>699</ele>
        <time>2026-05-14T07:22:21.000Z</time>
      </trkpt>
      <trkpt lat="44.18081" lon="5.31131">
        <ele>700</ele>
        <time>2026-05-14T07:22:22.000Z</time>
      </trkpt>
      <trkpt lat="44.18082" lon="5.3113">
        <ele>699.7</ele>
        <time>2026-05-14T07:22:23.000Z</time>
      </trkpt>
      <trkpt lat="44.18083" lon="5.31129">
        <ele>700</ele>
        <time>2026-05-14T07:22:24.000Z</time>
      </trkpt>
      <trkpt lat="44.18083" lon="5.31128">
        <ele>701</ele>
        <time>2026-05-14T07:22:25.000Z</time>
      </trkpt>
      <trkpt lat="44.18083" lon="5.31127">
        <ele>701.6</ele>
        <time>2026-05-14T07:22:26.000Z</time>
      </trkpt>
      <trkpt lat="44.18085" lon="5.31126">
        <ele>702</ele>
        <time>2026-05-14T07:22:27.000Z</time>
      </trkpt>
      <trkpt lat="44.18086" lon="5.31125">
        <ele>702.7</ele>
        <time>2026-05-14T07:22:28.000Z</time>
      </trkpt>
      <trkpt lat="44.18087" lon="5.31124">
        <ele>703.6</ele>
        <time>2026-05-14T07:22:29.000Z</time>
      </trkpt>
      <trkpt lat="44.18088" lon="5.31123">
        <ele>704.6</ele>
        <time>2026-05-14T07:22:30.000Z</time>
      </trkpt>
      <trkpt lat="44.18089" lon="5.31122">
        <ele>705.2</ele>
        <time>2026-05-14T07:22:31.000Z</time>
      </trkpt>
      <trkpt lat="44.1809" lon="5.31121">
        <ele>705.8</ele>
        <time>2026-05-14T07:22:32.000Z</time>
      </trkpt>
      <trkpt lat="44.1809" lon="5.31121">
        <ele>706.3</ele>
        <time>2026-05-14T07:22:33.000Z</time>
      </trkpt>
      <trkpt lat="44.18091" lon="5.3112">
        <ele>706.4</ele>
        <time>2026-05-14T07:22:34.000Z</time>
      </trkpt>
      <trkpt lat="44.18092" lon="5.31119">
        <ele>706.3</ele>
        <time>2026-05-14T07:22:35.000Z</time>
      </trkpt>
      <trkpt lat="44.18092" lon="5.31118">
        <ele>706.4</ele>
        <time>2026-05-14T07:22:36.000Z</time>
      </trkpt>
      <trkpt lat="44.18094" lon="5.31116">
        <ele>706.9</ele>
        <time>2026-05-14T07:22:37.000Z</time>
      </trkpt>
      <trkpt lat="44.18095" lon="5.31115">
        <ele>706.8</ele>
        <time>2026-05-14T07:22:38.000Z</time>
      </trkpt>
      <trkpt lat="44.18096" lon="5.31114">
        <ele>706.7</ele>
        <time>2026-05-14T07:22:39.000Z</time>
      </trkpt>
      <trkpt lat="44.18096" lon="5.31113">
        <ele>706.2</ele>
        <time>2026-05-14T07:22:40.000Z</time>
      </trkpt>
      <trkpt lat="44.18096" lon="5.31112">
        <ele>706</ele>
        <time>2026-05-14T07:22:41.000Z</time>
      </trkpt>
      <trkpt lat="44.18098" lon="5.3111">
        <ele>705.7</ele>
        <time>2026-05-14T07:22:42.000Z</time>
      </trkpt>
      <trkpt lat="44.18099" lon="5.31109">
        <ele>706.2</ele>
        <time>2026-05-14T07:22:43.000Z</time>
      </trkpt>
      <trkpt lat="44.18098" lon="5.31107">
        <ele>706.1</ele>
        <time>2026-05-14T07:22:44.000Z</time>
      </trkpt>
      <trkpt lat="44.18098" lon="5.31105">
        <ele>706.9</ele>
        <time>2026-05-14T07:22:45.000Z</time>
      </trkpt>
      <trkpt lat="44.18098" lon="5.31104">
        <ele>707.1</ele>
        <time>2026-05-14T07:22:46.000Z</time>
      </trkpt>
      <trkpt lat="44.18098" lon="5.31103">
        <ele>707</ele>
        <time>2026-05-14T07:22:47.000Z</time>
      </trkpt>
      <trkpt lat="44.18098" lon="5.31102">
        <ele>706.9</ele>
        <time>2026-05-14T07:22:48.000Z</time>
      </trkpt>
      <trkpt lat="44.18099" lon="5.31099">
        <ele>707.5</ele>
        <time>2026-05-14T07:22:49.000Z</time>
      </trkpt>
      <trkpt lat="44.181" lon="5.31098">
        <ele>708.2</ele>
        <time>2026-05-14T07:22:50.000Z</time>
      </trkpt>
      <trkpt lat="44.18101" lon="5.31097">
        <ele>708.7</ele>
        <time>2026-05-14T07:22:51.000Z</time>
      </trkpt>
      <trkpt lat="44.18101" lon="5.31096">
        <ele>708.9</ele>
        <time>2026-05-14T07:22:52.000Z</time>
      </trkpt>
      <trkpt lat="44.18101" lon="5.31094">
        <ele>709.2</ele>
        <time>2026-05-14T07:22:53.000Z</time>
      </trkpt>
      <trkpt lat="44.18102" lon="5.31093">
        <ele>709</ele>
        <time>2026-05-14T07:22:54.000Z</time>
      </trkpt>
      <trkpt lat="44.18102" lon="5.31092">
        <ele>709.1</ele>
        <time>2026-05-14T07:22:55.000Z</time>
      </trkpt>
      <trkpt lat="44.18102" lon="5.31091">
        <ele>708.2</ele>
        <time>2026-05-14T07:22:56.000Z</time>
      </trkpt>
      <trkpt lat="44.18102" lon="5.3109">
        <ele>708.4</ele>
        <time>2026-05-14T07:22:57.000Z</time>
      </trkpt>
      <trkpt lat="44.18102" lon="5.31089">
        <ele>708.2</ele>
        <time>2026-05-14T07:22:58.000Z</time>
      </trkpt>
      <trkpt lat="44.18103" lon="5.31088">
        <ele>708.3</ele>
        <time>2026-05-14T07:22:59.000Z</time>
      </trkpt>
      <trkpt lat="44.18104" lon="5.31087">
        <ele>708.3</ele>
        <time>2026-05-14T07:23:00.000Z</time>
      </trkpt>
      <trkpt lat="44.18105" lon="5.31085">
        <ele>708.5</ele>
        <time>2026-05-14T07:23:01.000Z</time>
      </trkpt>
      <trkpt lat="44.18106" lon="5.31085">
        <ele>708.3</ele>
        <time>2026-05-14T07:23:02.000Z</time>
      </trkpt>
      <trkpt lat="44.18106" lon="5.31084">
        <ele>708.3</ele>
        <time>2026-05-14T07:23:03.000Z</time>
      </trkpt>
      <trkpt lat="44.18106" lon="5.31083">
        <ele>708.2</ele>
        <time>2026-05-14T07:23:04.000Z</time>
      </trkpt>
      <trkpt lat="44.18106" lon="5.31082">
        <ele>707.9</ele>
        <time>2026-05-14T07:23:05.000Z</time>
      </trkpt>
      <trkpt lat="44.18106" lon="5.31081">
        <ele>706.9</ele>
        <time>2026-05-14T07:23:06.000Z</time>
      </trkpt>
      <trkpt lat="44.18108" lon="5.3108">
        <ele>707.1</ele>
        <time>2026-05-14T07:23:07.000Z</time>
      </trkpt>
      <trkpt lat="44.18109" lon="5.31078">
        <ele>706.9</ele>
        <time>2026-05-14T07:23:08.000Z</time>
      </trkpt>
      <trkpt lat="44.18109" lon="5.31077">
        <ele>706.4</ele>
        <time>2026-05-14T07:23:09.000Z</time>
      </trkpt>
      <trkpt lat="44.1811" lon="5.31076">
        <ele>706.8</ele>
        <time>2026-05-14T07:23:10.000Z</time>
      </trkpt>
      <trkpt lat="44.18111" lon="5.31076">
        <ele>706.8</ele>
        <time>2026-05-14T07:23:11.000Z</time>
      </trkpt>
      <trkpt lat="44.18112" lon="5.31075">
        <ele>706.6</ele>
        <time>2026-05-14T07:23:12.000Z</time>
      </trkpt>
      <trkpt lat="44.18112" lon="5.31074">
        <ele>706.1</ele>
        <time>2026-05-14T07:23:13.000Z</time>
      </trkpt>
      <trkpt lat="44.18113" lon="5.31072">
        <ele>706.1</ele>
        <time>2026-05-14T07:23:14.000Z</time>
      </trkpt>
      <trkpt lat="44.18114" lon="5.31071">
        <ele>706</ele>
        <time>2026-05-14T07:23:15.000Z</time>
      </trkpt>
      <trkpt lat="44.18114" lon="5.3107">
        <ele>705.7</ele>
        <time>2026-05-14T07:23:16.000Z</time>
      </trkpt>
      <trkpt lat="44.18114" lon="5.31069">
        <ele>705.5</ele>
        <time>2026-05-14T07:23:17.000Z</time>
      </trkpt>
      <trkpt lat="44.18115" lon="5.31068">
        <ele>705.7</ele>
        <time>2026-05-14T07:23:18.000Z</time>
      </trkpt>
      <trkpt lat="44.18116" lon="5.31066">
        <ele>706.1</ele>
        <time>2026-05-14T07:23:19.000Z</time>
      </trkpt>
      <trkpt lat="44.18117" lon="5.31065">
        <ele>706.4</ele>
        <time>2026-05-14T07:23:20.000Z</time>
      </trkpt>
      <trkpt lat="44.18118" lon="5.31063">
        <ele>706.4</ele>
        <time>2026-05-14T07:23:21.000Z</time>
      </trkpt>
      <trkpt lat="44.18119" lon="5.3106">
        <ele>706.6</ele>
        <time>2026-05-14T07:23:22.000Z</time>
      </trkpt>
      <trkpt lat="44.1812" lon="5.31059">
        <ele>706.2</ele>
        <time>2026-05-14T07:23:23.000Z</time>
      </trkpt>
      <trkpt lat="44.18121" lon="5.31057">
        <ele>705.5</ele>
        <time>2026-05-14T07:23:24.000Z</time>
      </trkpt>
      <trkpt lat="44.18121" lon="5.31056">
        <ele>704.4</ele>
        <time>2026-05-14T07:23:25.000Z</time>
      </trkpt>
      <trkpt lat="44.18122" lon="5.31054">
        <ele>703.7</ele>
        <time>2026-05-14T07:23:26.000Z</time>
      </trkpt>
      <trkpt lat="44.18123" lon="5.31053">
        <ele>703.5</ele>
        <time>2026-05-14T07:23:27.000Z</time>
      </trkpt>
      <trkpt lat="44.18124" lon="5.31052">
        <ele>703.1</ele>
        <time>2026-05-14T07:23:28.000Z</time>
      </trkpt>
      <trkpt lat="44.18124" lon="5.31051">
        <ele>703.6</ele>
        <time>2026-05-14T07:23:29.000Z</time>
      </trkpt>
      <trkpt lat="44.18124" lon="5.3105">
        <ele>704.1</ele>
        <time>2026-05-14T07:23:30.000Z</time>
      </trkpt>
      <trkpt lat="44.18125" lon="5.31049">
        <ele>704.4</ele>
        <time>2026-05-14T07:23:31.000Z</time>
      </trkpt>
      <trkpt lat="44.18126" lon="5.31047">
        <ele>704.2</ele>
        <time>2026-05-14T07:23:32.000Z</time>
      </trkpt>
      <trkpt lat="44.18127" lon="5.31045">
        <ele>704.3</ele>
        <time>2026-05-14T07:23:33.000Z</time>
      </trkpt>
      <trkpt lat="44.18128" lon="5.31044">
        <ele>705</ele>
        <time>2026-05-14T07:23:34.000Z</time>
      </trkpt>
      <trkpt lat="44.18129" lon="5.31042">
        <ele>705.8</ele>
        <time>2026-05-14T07:23:35.000Z</time>
      </trkpt>
      <trkpt lat="44.1813" lon="5.31041">
        <ele>706.3</ele>
        <time>2026-05-14T07:23:36.000Z</time>
      </trkpt>
      <trkpt lat="44.18131" lon="5.3104">
        <ele>707.5</ele>
        <time>2026-05-14T07:23:37.000Z</time>
      </trkpt>
      <trkpt lat="44.18132" lon="5.31039">
        <ele>708.4</ele>
        <time>2026-05-14T07:23:38.000Z</time>
      </trkpt>
      <trkpt lat="44.18132" lon="5.31038">
        <ele>708.5</ele>
        <time>2026-05-14T07:23:39.000Z</time>
      </trkpt>
      <trkpt lat="44.18133" lon="5.31036">
        <ele>709.1</ele>
        <time>2026-05-14T07:23:40.000Z</time>
      </trkpt>
      <trkpt lat="44.18134" lon="5.31034">
        <ele>709.6</ele>
        <time>2026-05-14T07:23:41.000Z</time>
      </trkpt>
      <trkpt lat="44.18135" lon="5.31033">
        <ele>710.1</ele>
        <time>2026-05-14T07:23:42.000Z</time>
      </trkpt>
      <trkpt lat="44.18136" lon="5.31032">
        <ele>711.3</ele>
        <time>2026-05-14T07:23:43.000Z</time>
      </trkpt>
      <trkpt lat="44.18136" lon="5.31031">
        <ele>711.2</ele>
        <time>2026-05-14T07:23:44.000Z</time>
      </trkpt>
      <trkpt lat="44.18136" lon="5.31029">
        <ele>710.9</ele>
        <time>2026-05-14T07:23:45.000Z</time>
      </trkpt>
      <trkpt lat="44.18136" lon="5.31026">
        <ele>710.7</ele>
        <time>2026-05-14T07:23:46.000Z</time>
      </trkpt>
      <trkpt lat="44.18137" lon="5.31024">
        <ele>710.6</ele>
        <time>2026-05-14T07:23:47.000Z</time>
      </trkpt>
      <trkpt lat="44.18138" lon="5.31023">
        <ele>710.4</ele>
        <time>2026-05-14T07:23:48.000Z</time>
      </trkpt>
      <trkpt lat="44.18138" lon="5.31021">
        <ele>710</ele>
        <time>2026-05-14T07:23:49.000Z</time>
      </trkpt>
      <trkpt lat="44.1814" lon="5.3102">
        <ele>709.4</ele>
        <time>2026-05-14T07:23:50.000Z</time>
      </trkpt>
      <trkpt lat="44.18141" lon="5.31018">
        <ele>709.5</ele>
        <time>2026-05-14T07:23:51.000Z</time>
      </trkpt>
      <trkpt lat="44.18142" lon="5.31017">
        <ele>709.5</ele>
        <time>2026-05-14T07:23:52.000Z</time>
      </trkpt>
      <trkpt lat="44.18143" lon="5.31016">
        <ele>709.8</ele>
        <time>2026-05-14T07:23:53.000Z</time>
      </trkpt>
      <trkpt lat="44.18143" lon="5.31015">
        <ele>709.9</ele>
        <time>2026-05-14T07:23:54.000Z</time>
      </trkpt>
      <trkpt lat="44.18143" lon="5.31014">
        <ele>710.4</ele>
        <time>2026-05-14T07:23:55.000Z</time>
      </trkpt>
      <trkpt lat="44.18143" lon="5.31012">
        <ele>710.3</ele>
        <time>2026-05-14T07:23:56.000Z</time>
      </trkpt>
      <trkpt lat="44.18144" lon="5.3101">
        <ele>710.2</ele>
        <time>2026-05-14T07:23:57.000Z</time>
      </trkpt>
      <trkpt lat="44.18144" lon="5.31007">
        <ele>709.9</ele>
        <time>2026-05-14T07:23:58.000Z</time>
      </trkpt>
      <trkpt lat="44.18144" lon="5.31006">
        <ele>709.8</ele>
        <time>2026-05-14T07:23:59.000Z</time>
      </trkpt>
      <trkpt lat="44.18144" lon="5.31004">
        <ele>709.5</ele>
        <time>2026-05-14T07:24:00.000Z</time>
      </trkpt>
      <trkpt lat="44.18145" lon="5.31003">
        <ele>710.2</ele>
        <time>2026-05-14T07:24:01.000Z</time>
      </trkpt>
      <trkpt lat="44.18146" lon="5.31002">
        <ele>710.1</ele>
        <time>2026-05-14T07:24:02.000Z</time>
      </trkpt>
      <trkpt lat="44.18146" lon="5.31001">
        <ele>710.1</ele>
        <time>2026-05-14T07:24:03.000Z</time>
      </trkpt>
      <trkpt lat="44.18147" lon="5.30999">
        <ele>710.6</ele>
        <time>2026-05-14T07:24:04.000Z</time>
      </trkpt>
      <trkpt lat="44.18148" lon="5.30997">
        <ele>710.6</ele>
        <time>2026-05-14T07:24:05.000Z</time>
      </trkpt>
      <trkpt lat="44.18148" lon="5.30995">
        <ele>710.4</ele>
        <time>2026-05-14T07:24:06.000Z</time>
      </trkpt>
      <trkpt lat="44.18148" lon="5.30994">
        <ele>710.4</ele>
        <time>2026-05-14T07:24:07.000Z</time>
      </trkpt>
      <trkpt lat="44.18148" lon="5.30992">
        <ele>710.9</ele>
        <time>2026-05-14T07:24:08.000Z</time>
      </trkpt>
      <trkpt lat="44.18148" lon="5.30991">
        <ele>711</ele>
        <time>2026-05-14T07:24:09.000Z</time>
      </trkpt>
      <trkpt lat="44.18148" lon="5.3099">
        <ele>711</ele>
        <time>2026-05-14T07:24:10.000Z</time>
      </trkpt>
      <trkpt lat="44.18147" lon="5.30989">
        <ele>711.4</ele>
        <time>2026-05-14T07:24:11.000Z</time>
      </trkpt>
      <trkpt lat="44.18147" lon="5.30988">
        <ele>711.6</ele>
        <time>2026-05-14T07:24:12.000Z</time>
      </trkpt>
      <trkpt lat="44.18148" lon="5.30987">
        <ele>712.4</ele>
        <time>2026-05-14T07:24:13.000Z</time>
      </trkpt>
      <trkpt lat="44.18149" lon="5.30985">
        <ele>712.7</ele>
        <time>2026-05-14T07:24:14.000Z</time>
      </trkpt>
      <trkpt lat="44.18149" lon="5.30984">
        <ele>713.2</ele>
        <time>2026-05-14T07:24:15.000Z</time>
      </trkpt>
      <trkpt lat="44.1815" lon="5.30983">
        <ele>712.9</ele>
        <time>2026-05-14T07:24:16.000Z</time>
      </trkpt>
      <trkpt lat="44.18151" lon="5.30981">
        <ele>712.5</ele>
        <time>2026-05-14T07:24:17.000Z</time>
      </trkpt>
      <trkpt lat="44.18151" lon="5.30978">
        <ele>711.9</ele>
        <time>2026-05-14T07:24:18.000Z</time>
      </trkpt>
      <trkpt lat="44.18152" lon="5.30976">
        <ele>711.4</ele>
        <time>2026-05-14T07:24:19.000Z</time>
      </trkpt>
      <trkpt lat="44.18152" lon="5.30974">
        <ele>711</ele>
        <time>2026-05-14T07:24:20.000Z</time>
      </trkpt>
      <trkpt lat="44.18153" lon="5.30971">
        <ele>711.2</ele>
        <time>2026-05-14T07:24:21.000Z</time>
      </trkpt>
      <trkpt lat="44.18153" lon="5.30969">
        <ele>711.4</ele>
        <time>2026-05-14T07:24:22.000Z</time>
      </trkpt>
      <trkpt lat="44.18153" lon="5.30968">
        <ele>711.6</ele>
        <time>2026-05-14T07:24:23.000Z</time>
      </trkpt>
      <trkpt lat="44.18152" lon="5.30967">
        <ele>711.4</ele>
        <time>2026-05-14T07:24:24.000Z</time>
      </trkpt>
      <trkpt lat="44.18152" lon="5.30965">
        <ele>712.5</ele>
        <time>2026-05-14T07:24:25.000Z</time>
      </trkpt>
      <trkpt lat="44.18151" lon="5.30962">
        <ele>712.7</ele>
        <time>2026-05-14T07:24:26.000Z</time>
      </trkpt>
      <trkpt lat="44.18151" lon="5.30961">
        <ele>712.9</ele>
        <time>2026-05-14T07:24:27.000Z</time>
      </trkpt>
      <trkpt lat="44.18151" lon="5.30959">
        <ele>714.3</ele>
        <time>2026-05-14T07:24:28.000Z</time>
      </trkpt>
      <trkpt lat="44.18152" lon="5.30959">
        <ele>715.2</ele>
        <time>2026-05-14T07:24:29.000Z</time>
      </trkpt>
      <trkpt lat="44.18151" lon="5.30958">
        <ele>715.3</ele>
        <time>2026-05-14T07:24:30.000Z</time>
      </trkpt>
      <trkpt lat="44.18151" lon="5.30956">
        <ele>715.2</ele>
        <time>2026-05-14T07:24:31.000Z</time>
      </trkpt>
      <trkpt lat="44.18151" lon="5.30954">
        <ele>715.6</ele>
        <time>2026-05-14T07:24:32.000Z</time>
      </trkpt>
      <trkpt lat="44.18151" lon="5.30952">
        <ele>716</ele>
        <time>2026-05-14T07:24:33.000Z</time>
      </trkpt>
      <trkpt lat="44.18151" lon="5.30951">
        <ele>716.6</ele>
        <time>2026-05-14T07:24:34.000Z</time>
      </trkpt>
      <trkpt lat="44.18151" lon="5.30949">
        <ele>717.1</ele>
        <time>2026-05-14T07:24:35.000Z</time>
      </trkpt>
      <trkpt lat="44.18152" lon="5.30947">
        <ele>717.7</ele>
        <time>2026-05-14T07:24:36.000Z</time>
      </trkpt>
      <trkpt lat="44.18152" lon="5.30945">
        <ele>717.9</ele>
        <time>2026-05-14T07:24:37.000Z</time>
      </trkpt>
      <trkpt lat="44.18153" lon="5.30942">
        <ele>719.1</ele>
        <time>2026-05-14T07:24:38.000Z</time>
      </trkpt>
      <trkpt lat="44.18153" lon="5.3094">
        <ele>719.5</ele>
        <time>2026-05-14T07:24:39.000Z</time>
      </trkpt>
      <trkpt lat="44.18153" lon="5.30939">
        <ele>719.7</ele>
        <time>2026-05-14T07:24:40.000Z</time>
      </trkpt>
      <trkpt lat="44.18153" lon="5.30938">
        <ele>718.8</ele>
        <time>2026-05-14T07:24:41.000Z</time>
      </trkpt>
      <trkpt lat="44.18154" lon="5.30936">
        <ele>719.1</ele>
        <time>2026-05-14T07:24:42.000Z</time>
      </trkpt>
      <trkpt lat="44.18154" lon="5.30935">
        <ele>719.1</ele>
        <time>2026-05-14T07:24:43.000Z</time>
      </trkpt>
      <trkpt lat="44.18153" lon="5.30933">
        <ele>719</ele>
        <time>2026-05-14T07:24:44.000Z</time>
      </trkpt>
      <trkpt lat="44.18153" lon="5.30932">
        <ele>720</ele>
        <time>2026-05-14T07:24:45.000Z</time>
      </trkpt>
      <trkpt lat="44.18153" lon="5.3093">
        <ele>720.7</ele>
        <time>2026-05-14T07:24:46.000Z</time>
      </trkpt>
      <trkpt lat="44.18153" lon="5.30928">
        <ele>720.5</ele>
        <time>2026-05-14T07:24:47.000Z</time>
      </trkpt>
      <trkpt lat="44.18153" lon="5.30926">
        <ele>720.7</ele>
        <time>2026-05-14T07:24:48.000Z</time>
      </trkpt>
      <trkpt lat="44.18153" lon="5.30925">
        <ele>720.5</ele>
        <time>2026-05-14T07:24:49.000Z</time>
      </trkpt>
      <trkpt lat="44.18153" lon="5.30924">
        <ele>720.6</ele>
        <time>2026-05-14T07:24:50.000Z</time>
      </trkpt>
      <trkpt lat="44.18153" lon="5.30924">
        <ele>720.5</ele>
        <time>2026-05-14T07:24:51.000Z</time>
      </trkpt>
      <trkpt lat="44.18154" lon="5.30923">
        <ele>720.8</ele>
        <time>2026-05-14T07:24:52.000Z</time>
      </trkpt>
      <trkpt lat="44.18155" lon="5.30921">
        <ele>720.9</ele>
        <time>2026-05-14T07:24:53.000Z</time>
      </trkpt>
      <trkpt lat="44.18156" lon="5.30919">
        <ele>721.3</ele>
        <time>2026-05-14T07:24:54.000Z</time>
      </trkpt>
      <trkpt lat="44.18157" lon="5.30918">
        <ele>721.6</ele>
        <time>2026-05-14T07:24:55.000Z</time>
      </trkpt>
      <trkpt lat="44.18157" lon="5.30916">
        <ele>722</ele>
        <time>2026-05-14T07:24:56.000Z</time>
      </trkpt>
      <trkpt lat="44.18157" lon="5.30915">
        <ele>722.3</ele>
        <time>2026-05-14T07:24:57.000Z</time>
      </trkpt>
      <trkpt lat="44.18157" lon="5.30914">
        <ele>722.6</ele>
        <time>2026-05-14T07:24:58.000Z</time>
      </trkpt>
      <trkpt lat="44.18157" lon="5.30912">
        <ele>723.2</ele>
        <time>2026-05-14T07:24:59.000Z</time>
      </trkpt>
      <trkpt lat="44.18157" lon="5.3091">
        <ele>723.8</ele>
        <time>2026-05-14T07:25:00.000Z</time>
      </trkpt>
      <trkpt lat="44.18157" lon="5.30909">
        <ele>723.9</ele>
        <time>2026-05-14T07:25:01.000Z</time>
      </trkpt>
      <trkpt lat="44.18156" lon="5.30906">
        <ele>722.6</ele>
        <time>2026-05-14T07:25:02.000Z</time>
      </trkpt>
      <trkpt lat="44.18156" lon="5.30905">
        <ele>722.2</ele>
        <time>2026-05-14T07:25:03.000Z</time>
      </trkpt>
      <trkpt lat="44.18157" lon="5.30904">
        <ele>720.6</ele>
        <time>2026-05-14T07:25:04.000Z</time>
      </trkpt>
      <trkpt lat="44.18158" lon="5.30903">
        <ele>719.6</ele>
        <time>2026-05-14T07:25:05.000Z</time>
      </trkpt>
      <trkpt lat="44.18158" lon="5.30901">
        <ele>719.1</ele>
        <time>2026-05-14T07:25:06.000Z</time>
      </trkpt>
      <trkpt lat="44.18159" lon="5.309">
        <ele>719</ele>
        <time>2026-05-14T07:25:07.000Z</time>
      </trkpt>
      <trkpt lat="44.18159" lon="5.30898">
        <ele>719.4</ele>
        <time>2026-05-14T07:25:08.000Z</time>
      </trkpt>
      <trkpt lat="44.1816" lon="5.30896">
        <ele>720.4</ele>
        <time>2026-05-14T07:25:09.000Z</time>
      </trkpt>
      <trkpt lat="44.18161" lon="5.30894">
        <ele>720.7</ele>
        <time>2026-05-14T07:25:10.000Z</time>
      </trkpt>
      <trkpt lat="44.18162" lon="5.30894">
        <ele>721.4</ele>
        <time>2026-05-14T07:25:11.000Z</time>
      </trkpt>
      <trkpt lat="44.18162" lon="5.30893">
        <ele>722.1</ele>
        <time>2026-05-14T07:25:12.000Z</time>
      </trkpt>
      <trkpt lat="44.18162" lon="5.30892">
        <ele>722.9</ele>
        <time>2026-05-14T07:25:13.000Z</time>
      </trkpt>
      <trkpt lat="44.18162" lon="5.30891">
        <ele>723.4</ele>
        <time>2026-05-14T07:25:14.000Z</time>
      </trkpt>
      <trkpt lat="44.18162" lon="5.3089">
        <ele>724.1</ele>
        <time>2026-05-14T07:25:15.000Z</time>
      </trkpt>
      <trkpt lat="44.18163" lon="5.30888">
        <ele>724.8</ele>
        <time>2026-05-14T07:25:16.000Z</time>
      </trkpt>
      <trkpt lat="44.18163" lon="5.30886">
        <ele>725.4</ele>
        <time>2026-05-14T07:25:17.000Z</time>
      </trkpt>
      <trkpt lat="44.18164" lon="5.30884">
        <ele>725.7</ele>
        <time>2026-05-14T07:25:18.000Z</time>
      </trkpt>
      <trkpt lat="44.18165" lon="5.30883">
        <ele>726.3</ele>
        <time>2026-05-14T07:25:19.000Z</time>
      </trkpt>
      <trkpt lat="44.18166" lon="5.30881">
        <ele>726.1</ele>
        <time>2026-05-14T07:25:20.000Z</time>
      </trkpt>
      <trkpt lat="44.18167" lon="5.3088">
        <ele>725.9</ele>
        <time>2026-05-14T07:25:21.000Z</time>
      </trkpt>
      <trkpt lat="44.18168" lon="5.30879">
        <ele>725.7</ele>
        <time>2026-05-14T07:25:22.000Z</time>
      </trkpt>
      <trkpt lat="44.18169" lon="5.30877">
        <ele>725.5</ele>
        <time>2026-05-14T07:25:23.000Z</time>
      </trkpt>
      <trkpt lat="44.1817" lon="5.30875">
        <ele>725.4</ele>
        <time>2026-05-14T07:25:24.000Z</time>
      </trkpt>
      <trkpt lat="44.18171" lon="5.30873">
        <ele>725.3</ele>
        <time>2026-05-14T07:25:25.000Z</time>
      </trkpt>
      <trkpt lat="44.18171" lon="5.30872">
        <ele>725.5</ele>
        <time>2026-05-14T07:25:26.000Z</time>
      </trkpt>
      <trkpt lat="44.18171" lon="5.30871">
        <ele>725.5</ele>
        <time>2026-05-14T07:25:27.000Z</time>
      </trkpt>
      <trkpt lat="44.18172" lon="5.30871">
        <ele>725.7</ele>
        <time>2026-05-14T07:25:28.000Z</time>
      </trkpt>
      <trkpt lat="44.18172" lon="5.30871">
        <ele>725.8</ele>
        <time>2026-05-14T07:25:29.000Z</time>
      </trkpt>
      <trkpt lat="44.18173" lon="5.3087">
        <ele>726.1</ele>
        <time>2026-05-14T07:25:30.000Z</time>
      </trkpt>
      <trkpt lat="44.18173" lon="5.30868">
        <ele>726.3</ele>
        <time>2026-05-14T07:25:31.000Z</time>
      </trkpt>
      <trkpt lat="44.18173" lon="5.30867">
        <ele>726.2</ele>
        <time>2026-05-14T07:25:32.000Z</time>
      </trkpt>
      <trkpt lat="44.18174" lon="5.30865">
        <ele>726.3</ele>
        <time>2026-05-14T07:25:33.000Z</time>
      </trkpt>
      <trkpt lat="44.18174" lon="5.30863">
        <ele>726</ele>
        <time>2026-05-14T07:25:34.000Z</time>
      </trkpt>
      <trkpt lat="44.18174" lon="5.30861">
        <ele>725.7</ele>
        <time>2026-05-14T07:25:35.000Z</time>
      </trkpt>
      <trkpt lat="44.18174" lon="5.30859">
        <ele>725.6</ele>
        <time>2026-05-14T07:25:36.000Z</time>
      </trkpt>
      <trkpt lat="44.18175" lon="5.30858">
        <ele>726</ele>
        <time>2026-05-14T07:25:37.000Z</time>
      </trkpt>
      <trkpt lat="44.18176" lon="5.30858">
        <ele>726.3</ele>
        <time>2026-05-14T07:25:38.000Z</time>
      </trkpt>
      <trkpt lat="44.18177" lon="5.30856">
        <ele>726.2</ele>
        <time>2026-05-14T07:25:39.000Z</time>
      </trkpt>
      <trkpt lat="44.18177" lon="5.30855">
        <ele>726.3</ele>
        <time>2026-05-14T07:25:40.000Z</time>
      </trkpt>
      <trkpt lat="44.18178" lon="5.30854">
        <ele>726.4</ele>
        <time>2026-05-14T07:25:41.000Z</time>
      </trkpt>
      <trkpt lat="44.18179" lon="5.30853">
        <ele>726.6</ele>
        <time>2026-05-14T07:25:42.000Z</time>
      </trkpt>
      <trkpt lat="44.18179" lon="5.30851">
        <ele>726.5</ele>
        <time>2026-05-14T07:25:43.000Z</time>
      </trkpt>
      <trkpt lat="44.1818" lon="5.3085">
        <ele>726.6</ele>
        <time>2026-05-14T07:25:44.000Z</time>
      </trkpt>
      <trkpt lat="44.1818" lon="5.30847">
        <ele>726.9</ele>
        <time>2026-05-14T07:25:45.000Z</time>
      </trkpt>
      <trkpt lat="44.1818" lon="5.30846">
        <ele>727.2</ele>
        <time>2026-05-14T07:25:46.000Z</time>
      </trkpt>
      <trkpt lat="44.1818" lon="5.30844">
        <ele>727.3</ele>
        <time>2026-05-14T07:25:47.000Z</time>
      </trkpt>
      <trkpt lat="44.1818" lon="5.30842">
        <ele>727.1</ele>
        <time>2026-05-14T07:25:48.000Z</time>
      </trkpt>
      <trkpt lat="44.18179" lon="5.3084">
        <ele>727.2</ele>
        <time>2026-05-14T07:25:49.000Z</time>
      </trkpt>
      <trkpt lat="44.18179" lon="5.30839">
        <ele>727.5</ele>
        <time>2026-05-14T07:25:50.000Z</time>
      </trkpt>
      <trkpt lat="44.18179" lon="5.30838">
        <ele>727.9</ele>
        <time>2026-05-14T07:25:51.000Z</time>
      </trkpt>
      <trkpt lat="44.1818" lon="5.30838">
        <ele>727.8</ele>
        <time>2026-05-14T07:25:52.000Z</time>
      </trkpt>
      <trkpt lat="44.1818" lon="5.30836">
        <ele>727.9</ele>
        <time>2026-05-14T07:25:53.000Z</time>
      </trkpt>
      <trkpt lat="44.1818" lon="5.30834">
        <ele>729</ele>
        <time>2026-05-14T07:25:54.000Z</time>
      </trkpt>
      <trkpt lat="44.1818" lon="5.30831">
        <ele>729.6</ele>
        <time>2026-05-14T07:25:55.000Z</time>
      </trkpt>
      <trkpt lat="44.1818" lon="5.30828">
        <ele>730</ele>
        <time>2026-05-14T07:25:56.000Z</time>
      </trkpt>
      <trkpt lat="44.1818" lon="5.30826">
        <ele>730.5</ele>
        <time>2026-05-14T07:25:57.000Z</time>
      </trkpt>
      <trkpt lat="44.1818" lon="5.30824">
        <ele>730.6</ele>
        <time>2026-05-14T07:25:58.000Z</time>
      </trkpt>
      <trkpt lat="44.18181" lon="5.30823">
        <ele>731.1</ele>
        <time>2026-05-14T07:25:59.000Z</time>
      </trkpt>
      <trkpt lat="44.1818" lon="5.30821">
        <ele>731</ele>
        <time>2026-05-14T07:26:00.000Z</time>
      </trkpt>
      <trkpt lat="44.1818" lon="5.3082">
        <ele>731.5</ele>
        <time>2026-05-14T07:26:01.000Z</time>
      </trkpt>
      <trkpt lat="44.18181" lon="5.30819">
        <ele>732.2</ele>
        <time>2026-05-14T07:26:02.000Z</time>
      </trkpt>
      <trkpt lat="44.18181" lon="5.30818">
        <ele>733.2</ele>
        <time>2026-05-14T07:26:03.000Z</time>
      </trkpt>
      <trkpt lat="44.18181" lon="5.30817">
        <ele>733.8</ele>
        <time>2026-05-14T07:26:04.000Z</time>
      </trkpt>
      <trkpt lat="44.18182" lon="5.30816">
        <ele>733.8</ele>
        <time>2026-05-14T07:26:05.000Z</time>
      </trkpt>
      <trkpt lat="44.18182" lon="5.30815">
        <ele>733.9</ele>
        <time>2026-05-14T07:26:06.000Z</time>
      </trkpt>
      <trkpt lat="44.18183" lon="5.30814">
        <ele>734.2</ele>
        <time>2026-05-14T07:26:07.000Z</time>
      </trkpt>
      <trkpt lat="44.18183" lon="5.30813">
        <ele>734.6</ele>
        <time>2026-05-14T07:26:08.000Z</time>
      </trkpt>
      <trkpt lat="44.18184" lon="5.30811">
        <ele>734.8</ele>
        <time>2026-05-14T07:26:09.000Z</time>
      </trkpt>
      <trkpt lat="44.18185" lon="5.3081">
        <ele>735.2</ele>
        <time>2026-05-14T07:26:10.000Z</time>
      </trkpt>
      <trkpt lat="44.18185" lon="5.30809">
        <ele>735.5</ele>
        <time>2026-05-14T07:26:11.000Z</time>
      </trkpt>
      <trkpt lat="44.18185" lon="5.30807">
        <ele>736.6</ele>
        <time>2026-05-14T07:26:12.000Z</time>
      </trkpt>
      <trkpt lat="44.18186" lon="5.30805">
        <ele>737.7</ele>
        <time>2026-05-14T07:26:13.000Z</time>
      </trkpt>
      <trkpt lat="44.18186" lon="5.30803">
        <ele>738.4</ele>
        <time>2026-05-14T07:26:14.000Z</time>
      </trkpt>
      <trkpt lat="44.18185" lon="5.30802">
        <ele>739.3</ele>
        <time>2026-05-14T07:26:15.000Z</time>
      </trkpt>
      <trkpt lat="44.18185" lon="5.30802">
        <ele>739</ele>
        <time>2026-05-14T07:26:16.000Z</time>
      </trkpt>
      <trkpt lat="44.18185" lon="5.30801">
        <ele>738.8</ele>
        <time>2026-05-14T07:26:17.000Z</time>
      </trkpt>
      <trkpt lat="44.18184" lon="5.30799">
        <ele>738.6</ele>
        <time>2026-05-14T07:26:18.000Z</time>
      </trkpt>
      <trkpt lat="44.18185" lon="5.30797">
        <ele>738.7</ele>
        <time>2026-05-14T07:26:19.000Z</time>
      </trkpt>
      <trkpt lat="44.18186" lon="5.30795">
        <ele>738.5</ele>
        <time>2026-05-14T07:26:20.000Z</time>
      </trkpt>
      <trkpt lat="44.18186" lon="5.30792">
        <ele>738.3</ele>
        <time>2026-05-14T07:26:21.000Z</time>
      </trkpt>
      <trkpt lat="44.18187" lon="5.3079">
        <ele>738.3</ele>
        <time>2026-05-14T07:26:22.000Z</time>
      </trkpt>
      <trkpt lat="44.18188" lon="5.30787">
        <ele>737.7</ele>
        <time>2026-05-14T07:26:23.000Z</time>
      </trkpt>
      <trkpt lat="44.18188" lon="5.30785">
        <ele>737.6</ele>
        <time>2026-05-14T07:26:24.000Z</time>
      </trkpt>
      <trkpt lat="44.18189" lon="5.30783">
        <ele>737.9</ele>
        <time>2026-05-14T07:26:25.000Z</time>
      </trkpt>
      <trkpt lat="44.18189" lon="5.30782">
        <ele>738.3</ele>
        <time>2026-05-14T07:26:26.000Z</time>
      </trkpt>
      <trkpt lat="44.18189" lon="5.3078">
        <ele>739</ele>
        <time>2026-05-14T07:26:27.000Z</time>
      </trkpt>
      <trkpt lat="44.1819" lon="5.30779">
        <ele>740.1</ele>
        <time>2026-05-14T07:26:28.000Z</time>
      </trkpt>
      <trkpt lat="44.18191" lon="5.30778">
        <ele>740.3</ele>
        <time>2026-05-14T07:26:29.000Z</time>
      </trkpt>
      <trkpt lat="44.18192" lon="5.30778">
        <ele>740.8</ele>
        <time>2026-05-14T07:26:30.000Z</time>
      </trkpt>
      <trkpt lat="44.18192" lon="5.30776">
        <ele>741</ele>
        <time>2026-05-14T07:26:31.000Z</time>
      </trkpt>
      <trkpt lat="44.18193" lon="5.30776">
        <ele>742</ele>
        <time>2026-05-14T07:26:32.000Z</time>
      </trkpt>
      <trkpt lat="44.18193" lon="5.30775">
        <ele>743.3</ele>
        <time>2026-05-14T07:26:33.000Z</time>
      </trkpt>
      <trkpt lat="44.18194" lon="5.30775">
        <ele>744.2</ele>
        <time>2026-05-14T07:26:34.000Z</time>
      </trkpt>
      <trkpt lat="44.18195" lon="5.30774">
        <ele>743.9</ele>
        <time>2026-05-14T07:26:35.000Z</time>
      </trkpt>
      <trkpt lat="44.18196" lon="5.30773">
        <ele>743.2</ele>
        <time>2026-05-14T07:26:36.000Z</time>
      </trkpt>
      <trkpt lat="44.18197" lon="5.30772">
        <ele>742.9</ele>
        <time>2026-05-14T07:26:37.000Z</time>
      </trkpt>
      <trkpt lat="44.18197" lon="5.30771">
        <ele>742.6</ele>
        <time>2026-05-14T07:26:38.000Z</time>
      </trkpt>
      <trkpt lat="44.18197" lon="5.30768">
        <ele>742.1</ele>
        <time>2026-05-14T07:26:40.000Z</time>
      </trkpt>
      <trkpt lat="44.18197" lon="5.30767">
        <ele>741.9</ele>
        <time>2026-05-14T07:26:41.000Z</time>
      </trkpt>
      <trkpt lat="44.18197" lon="5.30765">
        <ele>741.4</ele>
        <time>2026-05-14T07:26:42.000Z</time>
      </trkpt>
      <trkpt lat="44.18198" lon="5.30764">
        <ele>741.3</ele>
        <time>2026-05-14T07:26:43.000Z</time>
      </trkpt>
      <trkpt lat="44.18199" lon="5.30763">
        <ele>740.7</ele>
        <time>2026-05-14T07:26:44.000Z</time>
      </trkpt>
      <trkpt lat="44.18199" lon="5.30762">
        <ele>740.3</ele>
        <time>2026-05-14T07:26:45.000Z</time>
      </trkpt>
      <trkpt lat="44.18199" lon="5.30761">
        <ele>739.9</ele>
        <time>2026-05-14T07:26:46.000Z</time>
      </trkpt>
      <trkpt lat="44.18199" lon="5.30761">
        <ele>739.5</ele>
        <time>2026-05-14T07:26:47.000Z</time>
      </trkpt>
      <trkpt lat="44.18199" lon="5.3076">
        <ele>739.3</ele>
        <time>2026-05-14T07:26:48.000Z</time>
      </trkpt>
      <trkpt lat="44.18198" lon="5.30759">
        <ele>738.9</ele>
        <time>2026-05-14T07:26:49.000Z</time>
      </trkpt>
      <trkpt lat="44.18198" lon="5.30758">
        <ele>737.7</ele>
        <time>2026-05-14T07:26:50.000Z</time>
      </trkpt>
      <trkpt lat="44.18198" lon="5.30755">
        <ele>737.3</ele>
        <time>2026-05-14T07:26:51.000Z</time>
      </trkpt>
      <trkpt lat="44.18199" lon="5.30753">
        <ele>737.2</ele>
        <time>2026-05-14T07:26:52.000Z</time>
      </trkpt>
      <trkpt lat="44.18199" lon="5.30751">
        <ele>737.1</ele>
        <time>2026-05-14T07:26:53.000Z</time>
      </trkpt>
      <trkpt lat="44.18199" lon="5.30749">
        <ele>736.7</ele>
        <time>2026-05-14T07:26:54.000Z</time>
      </trkpt>
      <trkpt lat="44.18199" lon="5.30747">
        <ele>736.2</ele>
        <time>2026-05-14T07:26:55.000Z</time>
      </trkpt>
      <trkpt lat="44.18198" lon="5.30746">
        <ele>735.8</ele>
        <time>2026-05-14T07:26:56.000Z</time>
      </trkpt>
      <trkpt lat="44.18199" lon="5.30745">
        <ele>735.6</ele>
        <time>2026-05-14T07:26:57.000Z</time>
      </trkpt>
      <trkpt lat="44.18199" lon="5.30743">
        <ele>734.7</ele>
        <time>2026-05-14T07:26:58.000Z</time>
      </trkpt>
      <trkpt lat="44.18199" lon="5.30742">
        <ele>734</ele>
        <time>2026-05-14T07:26:59.000Z</time>
      </trkpt>
      <trkpt lat="44.18199" lon="5.3074">
        <ele>734.2</ele>
        <time>2026-05-14T07:27:00.000Z</time>
      </trkpt>
      <trkpt lat="44.18198" lon="5.30738">
        <ele>734.3</ele>
        <time>2026-05-14T07:27:01.000Z</time>
      </trkpt>
      <trkpt lat="44.18197" lon="5.30737">
        <ele>734.6</ele>
        <time>2026-05-14T07:27:02.000Z</time>
      </trkpt>
      <trkpt lat="44.18196" lon="5.30735">
        <ele>734.1</ele>
        <time>2026-05-14T07:27:03.000Z</time>
      </trkpt>
      <trkpt lat="44.18196" lon="5.30733">
        <ele>733.6</ele>
        <time>2026-05-14T07:27:04.000Z</time>
      </trkpt>
      <trkpt lat="44.18195" lon="5.30731">
        <ele>733</ele>
        <time>2026-05-14T07:27:05.000Z</time>
      </trkpt>
      <trkpt lat="44.18195" lon="5.30728">
        <ele>732.1</ele>
        <time>2026-05-14T07:27:06.000Z</time>
      </trkpt>
      <trkpt lat="44.18195" lon="5.30726">
        <ele>731.3</ele>
        <time>2026-05-14T07:27:07.000Z</time>
      </trkpt>
      <trkpt lat="44.18195" lon="5.30724">
        <ele>731.2</ele>
        <time>2026-05-14T07:27:08.000Z</time>
      </trkpt>
      <trkpt lat="44.18196" lon="5.30721">
        <ele>731.1</ele>
        <time>2026-05-14T07:27:09.000Z</time>
      </trkpt>
      <trkpt lat="44.18196" lon="5.30719">
        <ele>731.7</ele>
        <time>2026-05-14T07:27:10.000Z</time>
      </trkpt>
      <trkpt lat="44.18196" lon="5.30718">
        <ele>732.4</ele>
        <time>2026-05-14T07:27:11.000Z</time>
      </trkpt>
      <trkpt lat="44.18196" lon="5.30716">
        <ele>732.8</ele>
        <time>2026-05-14T07:27:12.000Z</time>
      </trkpt>
      <trkpt lat="44.18195" lon="5.30713">
        <ele>732.6</ele>
        <time>2026-05-14T07:27:13.000Z</time>
      </trkpt>
      <trkpt lat="44.18195" lon="5.30711">
        <ele>732.4</ele>
        <time>2026-05-14T07:27:14.000Z</time>
      </trkpt>
      <trkpt lat="44.18195" lon="5.30708">
        <ele>732.1</ele>
        <time>2026-05-14T07:27:15.000Z</time>
      </trkpt>
      <trkpt lat="44.18195" lon="5.30706">
        <ele>732.2</ele>
        <time>2026-05-14T07:27:16.000Z</time>
      </trkpt>
      <trkpt lat="44.18195" lon="5.30705">
        <ele>732.7</ele>
        <time>2026-05-14T07:27:17.000Z</time>
      </trkpt>
      <trkpt lat="44.18194" lon="5.30703">
        <ele>732.9</ele>
        <time>2026-05-14T07:27:18.000Z</time>
      </trkpt>
      <trkpt lat="44.18194" lon="5.30702">
        <ele>733.4</ele>
        <time>2026-05-14T07:27:19.000Z</time>
      </trkpt>
      <trkpt lat="44.18194" lon="5.30701">
        <ele>733.2</ele>
        <time>2026-05-14T07:27:20.000Z</time>
      </trkpt>
      <trkpt lat="44.18193" lon="5.307">
        <ele>733</ele>
        <time>2026-05-14T07:27:21.000Z</time>
      </trkpt>
      <trkpt lat="44.18192" lon="5.30698">
        <ele>732.8</ele>
        <time>2026-05-14T07:27:22.000Z</time>
      </trkpt>
      <trkpt lat="44.18192" lon="5.30696">
        <ele>733.9</ele>
        <time>2026-05-14T07:27:23.000Z</time>
      </trkpt>
      <trkpt lat="44.18192" lon="5.30694">
        <ele>733.7</ele>
        <time>2026-05-14T07:27:24.000Z</time>
      </trkpt>
      <trkpt lat="44.18191" lon="5.30693">
        <ele>732.7</ele>
        <time>2026-05-14T07:27:25.000Z</time>
      </trkpt>
      <trkpt lat="44.18191" lon="5.30692">
        <ele>731.6</ele>
        <time>2026-05-14T07:27:26.000Z</time>
      </trkpt>
      <trkpt lat="44.1819" lon="5.3069">
        <ele>730.4</ele>
        <time>2026-05-14T07:27:27.000Z</time>
      </trkpt>
      <trkpt lat="44.1819" lon="5.30687">
        <ele>729.7</ele>
        <time>2026-05-14T07:27:28.000Z</time>
      </trkpt>
      <trkpt lat="44.18191" lon="5.30686">
        <ele>730.6</ele>
        <time>2026-05-14T07:27:29.000Z</time>
      </trkpt>
      <trkpt lat="44.18191" lon="5.30684">
        <ele>730.9</ele>
        <time>2026-05-14T07:27:30.000Z</time>
      </trkpt>
      <trkpt lat="44.18192" lon="5.30683">
        <ele>731.6</ele>
        <time>2026-05-14T07:27:31.000Z</time>
      </trkpt>
      <trkpt lat="44.18191" lon="5.30683">
        <ele>731.5</ele>
        <time>2026-05-14T07:27:32.000Z</time>
      </trkpt>
      <trkpt lat="44.1819" lon="5.30682">
        <ele>731.3</ele>
        <time>2026-05-14T07:27:33.000Z</time>
      </trkpt>
      <trkpt lat="44.1819" lon="5.30679">
        <ele>731.5</ele>
        <time>2026-05-14T07:27:34.000Z</time>
      </trkpt>
      <trkpt lat="44.18189" lon="5.30677">
        <ele>731.4</ele>
        <time>2026-05-14T07:27:35.000Z</time>
      </trkpt>
      <trkpt lat="44.18189" lon="5.30674">
        <ele>731.8</ele>
        <time>2026-05-14T07:27:36.000Z</time>
      </trkpt>
      <trkpt lat="44.18189" lon="5.30672">
        <ele>732</ele>
        <time>2026-05-14T07:27:37.000Z</time>
      </trkpt>
      <trkpt lat="44.18188" lon="5.30671">
        <ele>732</ele>
        <time>2026-05-14T07:27:38.000Z</time>
      </trkpt>
      <trkpt lat="44.18188" lon="5.30669">
        <ele>732.6</ele>
        <time>2026-05-14T07:27:39.000Z</time>
      </trkpt>
      <trkpt lat="44.18187" lon="5.30668">
        <ele>732.3</ele>
        <time>2026-05-14T07:27:40.000Z</time>
      </trkpt>
      <trkpt lat="44.18187" lon="5.30666">
        <ele>732.3</ele>
        <time>2026-05-14T07:27:41.000Z</time>
      </trkpt>
      <trkpt lat="44.18186" lon="5.30664">
        <ele>732.6</ele>
        <time>2026-05-14T07:27:42.000Z</time>
      </trkpt>
      <trkpt lat="44.18186" lon="5.30662">
        <ele>732.8</ele>
        <time>2026-05-14T07:27:43.000Z</time>
      </trkpt>
      <trkpt lat="44.18187" lon="5.3066">
        <ele>734</ele>
        <time>2026-05-14T07:27:44.000Z</time>
      </trkpt>
      <trkpt lat="44.18187" lon="5.30658">
        <ele>734.1</ele>
        <time>2026-05-14T07:27:45.000Z</time>
      </trkpt>
      <trkpt lat="44.18187" lon="5.30656">
        <ele>734.4</ele>
        <time>2026-05-14T07:27:46.000Z</time>
      </trkpt>
      <trkpt lat="44.18186" lon="5.30655">
        <ele>734.8</ele>
        <time>2026-05-14T07:27:47.000Z</time>
      </trkpt>
      <trkpt lat="44.18186" lon="5.30654">
        <ele>734.9</ele>
        <time>2026-05-14T07:27:48.000Z</time>
      </trkpt>
      <trkpt lat="44.18186" lon="5.30653">
        <ele>735.5</ele>
        <time>2026-05-14T07:27:49.000Z</time>
      </trkpt>
      <trkpt lat="44.18186" lon="5.30652">
        <ele>735.2</ele>
        <time>2026-05-14T07:27:50.000Z</time>
      </trkpt>
      <trkpt lat="44.18185" lon="5.30651">
        <ele>735.4</ele>
        <time>2026-05-14T07:27:51.000Z</time>
      </trkpt>
      <trkpt lat="44.18184" lon="5.30649">
        <ele>735.6</ele>
        <time>2026-05-14T07:27:52.000Z</time>
      </trkpt>
      <trkpt lat="44.18184" lon="5.30647">
        <ele>734.7</ele>
        <time>2026-05-14T07:27:53.000Z</time>
      </trkpt>
      <trkpt lat="44.18184" lon="5.30645">
        <ele>734.1</ele>
        <time>2026-05-14T07:27:54.000Z</time>
      </trkpt>
      <trkpt lat="44.18184" lon="5.30643">
        <ele>734</ele>
        <time>2026-05-14T07:27:55.000Z</time>
      </trkpt>
      <trkpt lat="44.18184" lon="5.30641">
        <ele>734.2</ele>
        <time>2026-05-14T07:27:56.000Z</time>
      </trkpt>
      <trkpt lat="44.18184" lon="5.30639">
        <ele>734.1</ele>
        <time>2026-05-14T07:27:57.000Z</time>
      </trkpt>
      <trkpt lat="44.18183" lon="5.30637">
        <ele>734.3</ele>
        <time>2026-05-14T07:27:58.000Z</time>
      </trkpt>
      <trkpt lat="44.18182" lon="5.30634">
        <ele>734.3</ele>
        <time>2026-05-14T07:27:59.000Z</time>
      </trkpt>
      <trkpt lat="44.18182" lon="5.30632">
        <ele>734.8</ele>
        <time>2026-05-14T07:28:00.000Z</time>
      </trkpt>
      <trkpt lat="44.18183" lon="5.3063">
        <ele>734.8</ele>
        <time>2026-05-14T07:28:01.000Z</time>
      </trkpt>
      <trkpt lat="44.18183" lon="5.30628">
        <ele>734.5</ele>
        <time>2026-05-14T07:28:02.000Z</time>
      </trkpt>
      <trkpt lat="44.18184" lon="5.30626">
        <ele>735</ele>
        <time>2026-05-14T07:28:03.000Z</time>
      </trkpt>
      <trkpt lat="44.18184" lon="5.30624">
        <ele>735</ele>
        <time>2026-05-14T07:28:04.000Z</time>
      </trkpt>
      <trkpt lat="44.18184" lon="5.30623">
        <ele>734.9</ele>
        <time>2026-05-14T07:28:05.000Z</time>
      </trkpt>
      <trkpt lat="44.18184" lon="5.30621">
        <ele>734.9</ele>
        <time>2026-05-14T07:28:06.000Z</time>
      </trkpt>
      <trkpt lat="44.18183" lon="5.30619">
        <ele>734.5</ele>
        <time>2026-05-14T07:28:07.000Z</time>
      </trkpt>
      <trkpt lat="44.18182" lon="5.30616">
        <ele>734.5</ele>
        <time>2026-05-14T07:28:08.000Z</time>
      </trkpt>
      <trkpt lat="44.18182" lon="5.30613">
        <ele>734.4</ele>
        <time>2026-05-14T07:28:09.000Z</time>
      </trkpt>
      <trkpt lat="44.18181" lon="5.30612">
        <ele>734.7</ele>
        <time>2026-05-14T07:28:10.000Z</time>
      </trkpt>
      <trkpt lat="44.18181" lon="5.30609">
        <ele>735.6</ele>
        <time>2026-05-14T07:28:11.000Z</time>
      </trkpt>
      <trkpt lat="44.18181" lon="5.30607">
        <ele>736.1</ele>
        <time>2026-05-14T07:28:12.000Z</time>
      </trkpt>
      <trkpt lat="44.18181" lon="5.30606">
        <ele>736.2</ele>
        <time>2026-05-14T07:28:13.000Z</time>
      </trkpt>
      <trkpt lat="44.18182" lon="5.30606">
        <ele>736.5</ele>
        <time>2026-05-14T07:28:14.000Z</time>
      </trkpt>
      <trkpt lat="44.18182" lon="5.30605">
        <ele>736.7</ele>
        <time>2026-05-14T07:28:15.000Z</time>
      </trkpt>
      <trkpt lat="44.18183" lon="5.30603">
        <ele>737.1</ele>
        <time>2026-05-14T07:28:16.000Z</time>
      </trkpt>
      <trkpt lat="44.18185" lon="5.306">
        <ele>737.9</ele>
        <time>2026-05-14T07:28:17.000Z</time>
      </trkpt>
      <trkpt lat="44.18184" lon="5.30599">
        <ele>738.5</ele>
        <time>2026-05-14T07:28:18.000Z</time>
      </trkpt>
      <trkpt lat="44.18184" lon="5.30597">
        <ele>738.7</ele>
        <time>2026-05-14T07:28:19.000Z</time>
      </trkpt>
      <trkpt lat="44.18184" lon="5.30596">
        <ele>739.5</ele>
        <time>2026-05-14T07:28:20.000Z</time>
      </trkpt>
      <trkpt lat="44.18184" lon="5.30595">
        <ele>740.4</ele>
        <time>2026-05-14T07:28:21.000Z</time>
      </trkpt>
      <trkpt lat="44.18184" lon="5.30592">
        <ele>740</ele>
        <time>2026-05-14T07:28:22.000Z</time>
      </trkpt>
      <trkpt lat="44.18184" lon="5.3059">
        <ele>739.7</ele>
        <time>2026-05-14T07:28:23.000Z</time>
      </trkpt>
      <trkpt lat="44.18183" lon="5.30588">
        <ele>740.5</ele>
        <time>2026-05-14T07:28:24.000Z</time>
      </trkpt>
      <trkpt lat="44.18184" lon="5.30586">
        <ele>740.8</ele>
        <time>2026-05-14T07:28:25.000Z</time>
      </trkpt>
      <trkpt lat="44.18184" lon="5.30584">
        <ele>740.1</ele>
        <time>2026-05-14T07:28:26.000Z</time>
      </trkpt>
      <trkpt lat="44.18185" lon="5.30583">
        <ele>740.4</ele>
        <time>2026-05-14T07:28:27.000Z</time>
      </trkpt>
      <trkpt lat="44.18184" lon="5.30581">
        <ele>740.1</ele>
        <time>2026-05-14T07:28:28.000Z</time>
      </trkpt>
      <trkpt lat="44.18183" lon="5.30579">
        <ele>739.9</ele>
        <time>2026-05-14T07:28:29.000Z</time>
      </trkpt>
      <trkpt lat="44.18183" lon="5.30578">
        <ele>740</ele>
        <time>2026-05-14T07:28:30.000Z</time>
      </trkpt>
      <trkpt lat="44.18182" lon="5.30576">
        <ele>739.6</ele>
        <time>2026-05-14T07:28:31.000Z</time>
      </trkpt>
      <trkpt lat="44.18182" lon="5.30575">
        <ele>739.3</ele>
        <time>2026-05-14T07:28:32.000Z</time>
      </trkpt>
      <trkpt lat="44.18182" lon="5.30572">
        <ele>739.9</ele>
        <time>2026-05-14T07:28:33.000Z</time>
      </trkpt>
      <trkpt lat="44.18183" lon="5.3057">
        <ele>740.2</ele>
        <time>2026-05-14T07:28:34.000Z</time>
      </trkpt>
      <trkpt lat="44.18184" lon="5.30568">
        <ele>740.1</ele>
        <time>2026-05-14T07:28:35.000Z</time>
      </trkpt>
      <trkpt lat="44.18185" lon="5.30566">
        <ele>739.7</ele>
        <time>2026-05-14T07:28:36.000Z</time>
      </trkpt>
      <trkpt lat="44.18186" lon="5.30563">
        <ele>740.2</ele>
        <time>2026-05-14T07:28:37.000Z</time>
      </trkpt>
      <trkpt lat="44.18186" lon="5.30561">
        <ele>740.5</ele>
        <time>2026-05-14T07:28:38.000Z</time>
      </trkpt>
      <trkpt lat="44.18187" lon="5.3056">
        <ele>740.4</ele>
        <time>2026-05-14T07:28:39.000Z</time>
      </trkpt>
      <trkpt lat="44.18189" lon="5.30558">
        <ele>740.4</ele>
        <time>2026-05-14T07:28:40.000Z</time>
      </trkpt>
      <trkpt lat="44.18189" lon="5.30557">
        <ele>740.4</ele>
        <time>2026-05-14T07:28:41.000Z</time>
      </trkpt>
      <trkpt lat="44.18191" lon="5.30556">
        <ele>740.6</ele>
        <time>2026-05-14T07:28:42.000Z</time>
      </trkpt>
      <trkpt lat="44.18192" lon="5.30555">
        <ele>740.4</ele>
        <time>2026-05-14T07:28:43.000Z</time>
      </trkpt>
      <trkpt lat="44.18193" lon="5.30554">
        <ele>740</ele>
        <time>2026-05-14T07:28:44.000Z</time>
      </trkpt>
      <trkpt lat="44.18194" lon="5.30553">
        <ele>740</ele>
        <time>2026-05-14T07:28:45.000Z</time>
      </trkpt>
      <trkpt lat="44.18195" lon="5.30552">
        <ele>739.6</ele>
        <time>2026-05-14T07:28:46.000Z</time>
      </trkpt>
      <trkpt lat="44.18195" lon="5.3055">
        <ele>739.4</ele>
        <time>2026-05-14T07:28:47.000Z</time>
      </trkpt>
      <trkpt lat="44.18196" lon="5.3055">
        <ele>739.8</ele>
        <time>2026-05-14T07:28:48.000Z</time>
      </trkpt>
      <trkpt lat="44.18197" lon="5.30549">
        <ele>740.2</ele>
        <time>2026-05-14T07:28:49.000Z</time>
      </trkpt>
      <trkpt lat="44.18198" lon="5.30549">
        <ele>740.7</ele>
        <time>2026-05-14T07:28:50.000Z</time>
      </trkpt>
      <trkpt lat="44.18199" lon="5.30548">
        <ele>740.9</ele>
        <time>2026-05-14T07:28:51.000Z</time>
      </trkpt>
      <trkpt lat="44.182" lon="5.30546">
        <ele>741.1</ele>
        <time>2026-05-14T07:28:52.000Z</time>
      </trkpt>
      <trkpt lat="44.18201" lon="5.30545">
        <ele>742.3</ele>
        <time>2026-05-14T07:28:53.000Z</time>
      </trkpt>
      <trkpt lat="44.18202" lon="5.30544">
        <ele>743.1</ele>
        <time>2026-05-14T07:28:54.000Z</time>
      </trkpt>
      <trkpt lat="44.18203" lon="5.30544">
        <ele>744.2</ele>
        <time>2026-05-14T07:28:55.000Z</time>
      </trkpt>
      <trkpt lat="44.18204" lon="5.30543">
        <ele>744.5</ele>
        <time>2026-05-14T07:28:56.000Z</time>
      </trkpt>
      <trkpt lat="44.18205" lon="5.30542">
        <ele>744.7</ele>
        <time>2026-05-14T07:28:57.000Z</time>
      </trkpt>
      <trkpt lat="44.18206" lon="5.3054">
        <ele>745.8</ele>
        <time>2026-05-14T07:28:58.000Z</time>
      </trkpt>
      <trkpt lat="44.18206" lon="5.30538">
        <ele>747.1</ele>
        <time>2026-05-14T07:28:59.000Z</time>
      </trkpt>
      <trkpt lat="44.18206" lon="5.30536">
        <ele>748.3</ele>
        <time>2026-05-14T07:29:00.000Z</time>
      </trkpt>
      <trkpt lat="44.18206" lon="5.30534">
        <ele>748.3</ele>
        <time>2026-05-14T07:29:01.000Z</time>
      </trkpt>
      <trkpt lat="44.18206" lon="5.30533">
        <ele>748.3</ele>
        <time>2026-05-14T07:29:02.000Z</time>
      </trkpt>
      <trkpt lat="44.18205" lon="5.30531">
        <ele>747.6</ele>
        <time>2026-05-14T07:29:03.000Z</time>
      </trkpt>
      <trkpt lat="44.18204" lon="5.30529">
        <ele>747.3</ele>
        <time>2026-05-14T07:29:04.000Z</time>
      </trkpt>
      <trkpt lat="44.18203" lon="5.30527">
        <ele>746.5</ele>
        <time>2026-05-14T07:29:05.000Z</time>
      </trkpt>
      <trkpt lat="44.18203" lon="5.30524">
        <ele>746.3</ele>
        <time>2026-05-14T07:29:06.000Z</time>
      </trkpt>
      <trkpt lat="44.18202" lon="5.30521">
        <ele>746.4</ele>
        <time>2026-05-14T07:29:07.000Z</time>
      </trkpt>
      <trkpt lat="44.18202" lon="5.30518">
        <ele>746.3</ele>
        <time>2026-05-14T07:29:08.000Z</time>
      </trkpt>
      <trkpt lat="44.18202" lon="5.30516">
        <ele>746</ele>
        <time>2026-05-14T07:29:09.000Z</time>
      </trkpt>
      <trkpt lat="44.18202" lon="5.30514">
        <ele>746.3</ele>
        <time>2026-05-14T07:29:10.000Z</time>
      </trkpt>
      <trkpt lat="44.18201" lon="5.30512">
        <ele>745.9</ele>
        <time>2026-05-14T07:29:11.000Z</time>
      </trkpt>
      <trkpt lat="44.18201" lon="5.30511">
        <ele>745.7</ele>
        <time>2026-05-14T07:29:12.000Z</time>
      </trkpt>
      <trkpt lat="44.18201" lon="5.30509">
        <ele>745.6</ele>
        <time>2026-05-14T07:29:13.000Z</time>
      </trkpt>
      <trkpt lat="44.182" lon="5.30505">
        <ele>745.7</ele>
        <time>2026-05-14T07:29:14.000Z</time>
      </trkpt>
      <trkpt lat="44.182" lon="5.30503">
        <ele>745.3</ele>
        <time>2026-05-14T07:29:15.000Z</time>
      </trkpt>
      <trkpt lat="44.182" lon="5.30501">
        <ele>745.3</ele>
        <time>2026-05-14T07:29:16.000Z</time>
      </trkpt>
      <trkpt lat="44.18199" lon="5.30499">
        <ele>745.6</ele>
        <time>2026-05-14T07:29:17.000Z</time>
      </trkpt>
      <trkpt lat="44.18199" lon="5.30497">
        <ele>745.8</ele>
        <time>2026-05-14T07:29:18.000Z</time>
      </trkpt>
      <trkpt lat="44.18199" lon="5.30497">
        <ele>745.4</ele>
        <time>2026-05-14T07:29:19.000Z</time>
      </trkpt>
      <trkpt lat="44.18198" lon="5.30497">
        <ele>744.6</ele>
        <time>2026-05-14T07:29:20.000Z</time>
      </trkpt>
      <trkpt lat="44.18197" lon="5.30496">
        <ele>744.1</ele>
        <time>2026-05-14T07:29:21.000Z</time>
      </trkpt>
      <trkpt lat="44.18195" lon="5.30494">
        <ele>743.2</ele>
        <time>2026-05-14T07:29:22.000Z</time>
      </trkpt>
      <trkpt lat="44.18196" lon="5.30493">
        <ele>742.6</ele>
        <time>2026-05-14T07:29:23.000Z</time>
      </trkpt>
      <trkpt lat="44.18195" lon="5.30492">
        <ele>742.3</ele>
        <time>2026-05-14T07:29:24.000Z</time>
      </trkpt>
      <trkpt lat="44.18194" lon="5.3049">
        <ele>741.8</ele>
        <time>2026-05-14T07:29:25.000Z</time>
      </trkpt>
      <trkpt lat="44.18193" lon="5.30488">
        <ele>742.4</ele>
        <time>2026-05-14T07:29:26.000Z</time>
      </trkpt>
      <trkpt lat="44.18191" lon="5.30487">
        <ele>742.5</ele>
        <time>2026-05-14T07:29:27.000Z</time>
      </trkpt>
      <trkpt lat="44.1819" lon="5.30484">
        <ele>741.8</ele>
        <time>2026-05-14T07:29:28.000Z</time>
      </trkpt>
      <trkpt lat="44.1819" lon="5.30482">
        <ele>741</ele>
        <time>2026-05-14T07:29:29.000Z</time>
      </trkpt>
      <trkpt lat="44.1819" lon="5.30479">
        <ele>739.7</ele>
        <time>2026-05-14T07:29:30.000Z</time>
      </trkpt>
      <trkpt lat="44.18189" lon="5.30476">
        <ele>738.6</ele>
        <time>2026-05-14T07:29:31.000Z</time>
      </trkpt>
      <trkpt lat="44.18189" lon="5.30474">
        <ele>737.8</ele>
        <time>2026-05-14T07:29:32.000Z</time>
      </trkpt>
      <trkpt lat="44.18189" lon="5.30473">
        <ele>737.5</ele>
        <time>2026-05-14T07:29:33.000Z</time>
      </trkpt>
      <trkpt lat="44.18189" lon="5.30471">
        <ele>738.4</ele>
        <time>2026-05-14T07:29:34.000Z</time>
      </trkpt>
      <trkpt lat="44.18188" lon="5.3047">
        <ele>739.1</ele>
        <time>2026-05-14T07:29:35.000Z</time>
      </trkpt>
      <trkpt lat="44.18188" lon="5.30469">
        <ele>739.7</ele>
        <time>2026-05-14T07:29:36.000Z</time>
      </trkpt>
      <trkpt lat="44.18188" lon="5.30468">
        <ele>739.4</ele>
        <time>2026-05-14T07:29:37.000Z</time>
      </trkpt>
      <trkpt lat="44.18187" lon="5.30466">
        <ele>738.9</ele>
        <time>2026-05-14T07:29:38.000Z</time>
      </trkpt>
      <trkpt lat="44.18185" lon="5.30463">
        <ele>737.7</ele>
        <time>2026-05-14T07:29:39.000Z</time>
      </trkpt>
      <trkpt lat="44.18184" lon="5.30461">
        <ele>738.2</ele>
        <time>2026-05-14T07:29:40.000Z</time>
      </trkpt>
      <trkpt lat="44.18183" lon="5.30459">
        <ele>738.9</ele>
        <time>2026-05-14T07:29:41.000Z</time>
      </trkpt>
      <trkpt lat="44.18183" lon="5.30458">
        <ele>739.2</ele>
        <time>2026-05-14T07:29:42.000Z</time>
      </trkpt>
      <trkpt lat="44.18182" lon="5.30457">
        <ele>739</ele>
        <time>2026-05-14T07:29:43.000Z</time>
      </trkpt>
      <trkpt lat="44.18182" lon="5.30455">
        <ele>739.3</ele>
        <time>2026-05-14T07:29:44.000Z</time>
      </trkpt>
      <trkpt lat="44.18182" lon="5.30453">
        <ele>740.1</ele>
        <time>2026-05-14T07:29:45.000Z</time>
      </trkpt>
      <trkpt lat="44.18182" lon="5.30452">
        <ele>740.4</ele>
        <time>2026-05-14T07:29:46.000Z</time>
      </trkpt>
      <trkpt lat="44.18182" lon="5.30451">
        <ele>740</ele>
        <time>2026-05-14T07:29:47.000Z</time>
      </trkpt>
      <trkpt lat="44.18181" lon="5.30449">
        <ele>740</ele>
        <time>2026-05-14T07:29:48.000Z</time>
      </trkpt>
      <trkpt lat="44.1818" lon="5.30449">
        <ele>739.9</ele>
        <time>2026-05-14T07:29:49.000Z</time>
      </trkpt>
      <trkpt lat="44.18179" lon="5.30448">
        <ele>739.9</ele>
        <time>2026-05-14T07:29:50.000Z</time>
      </trkpt>
      <trkpt lat="44.18179" lon="5.30446">
        <ele>741.4</ele>
        <time>2026-05-14T07:29:51.000Z</time>
      </trkpt>
      <trkpt lat="44.18178" lon="5.30446">
        <ele>741.8</ele>
        <time>2026-05-14T07:29:52.000Z</time>
      </trkpt>
      <trkpt lat="44.18177" lon="5.30445">
        <ele>741.7</ele>
        <time>2026-05-14T07:29:53.000Z</time>
      </trkpt>
      <trkpt lat="44.18176" lon="5.30444">
        <ele>741.5</ele>
        <time>2026-05-14T07:29:54.000Z</time>
      </trkpt>
      <trkpt lat="44.18175" lon="5.30441">
        <ele>741.4</ele>
        <time>2026-05-14T07:29:55.000Z</time>
      </trkpt>
      <trkpt lat="44.18175" lon="5.30439">
        <ele>741.4</ele>
        <time>2026-05-14T07:29:56.000Z</time>
      </trkpt>
      <trkpt lat="44.18174" lon="5.30437">
        <ele>741.1</ele>
        <time>2026-05-14T07:29:57.000Z</time>
      </trkpt>
      <trkpt lat="44.18174" lon="5.30435">
        <ele>741.3</ele>
        <time>2026-05-14T07:29:58.000Z</time>
      </trkpt>
      <trkpt lat="44.18173" lon="5.30433">
        <ele>741.4</ele>
        <time>2026-05-14T07:29:59.000Z</time>
      </trkpt>
      <trkpt lat="44.18173" lon="5.30432">
        <ele>741.6</ele>
        <time>2026-05-14T07:30:00.000Z</time>
      </trkpt>
      <trkpt lat="44.18172" lon="5.30432">
        <ele>742.1</ele>
        <time>2026-05-14T07:30:01.000Z</time>
      </trkpt>
      <trkpt lat="44.18172" lon="5.30431">
        <ele>742.6</ele>
        <time>2026-05-14T07:30:02.000Z</time>
      </trkpt>
      <trkpt lat="44.18171" lon="5.3043">
        <ele>741.9</ele>
        <time>2026-05-14T07:30:03.000Z</time>
      </trkpt>
      <trkpt lat="44.1817" lon="5.30428">
        <ele>742</ele>
        <time>2026-05-14T07:30:04.000Z</time>
      </trkpt>
      <trkpt lat="44.18169" lon="5.30427">
        <ele>742.2</ele>
        <time>2026-05-14T07:30:05.000Z</time>
      </trkpt>
      <trkpt lat="44.18169" lon="5.30425">
        <ele>742.4</ele>
        <time>2026-05-14T07:30:06.000Z</time>
      </trkpt>
      <trkpt lat="44.18169" lon="5.30423">
        <ele>742.9</ele>
        <time>2026-05-14T07:30:07.000Z</time>
      </trkpt>
      <trkpt lat="44.18169" lon="5.30421">
        <ele>743.2</ele>
        <time>2026-05-14T07:30:08.000Z</time>
      </trkpt>
      <trkpt lat="44.18168" lon="5.30419">
        <ele>743.8</ele>
        <time>2026-05-14T07:30:09.000Z</time>
      </trkpt>
      <trkpt lat="44.18168" lon="5.30418">
        <ele>744.4</ele>
        <time>2026-05-14T07:30:10.000Z</time>
      </trkpt>
      <trkpt lat="44.18167" lon="5.30416">
        <ele>743.7</ele>
        <time>2026-05-14T07:30:11.000Z</time>
      </trkpt>
      <trkpt lat="44.18167" lon="5.30415">
        <ele>743.6</ele>
        <time>2026-05-14T07:30:12.000Z</time>
      </trkpt>
      <trkpt lat="44.18166" lon="5.30414">
        <ele>743.5</ele>
        <time>2026-05-14T07:30:13.000Z</time>
      </trkpt>
      <trkpt lat="44.18166" lon="5.30413">
        <ele>743.7</ele>
        <time>2026-05-14T07:30:14.000Z</time>
      </trkpt>
      <trkpt lat="44.18166" lon="5.30411">
        <ele>743.9</ele>
        <time>2026-05-14T07:30:15.000Z</time>
      </trkpt>
      <trkpt lat="44.18165" lon="5.30411">
        <ele>744.9</ele>
        <time>2026-05-14T07:30:16.000Z</time>
      </trkpt>
      <trkpt lat="44.18166" lon="5.30411">
        <ele>746.2</ele>
        <time>2026-05-14T07:30:17.000Z</time>
      </trkpt>
      <trkpt lat="44.18166" lon="5.30411">
        <ele>747.3</ele>
        <time>2026-05-14T07:30:18.000Z</time>
      </trkpt>
      <trkpt lat="44.18166" lon="5.30411">
        <ele>747.6</ele>
        <time>2026-05-14T07:30:19.000Z</time>
      </trkpt>
      <trkpt lat="44.18167" lon="5.3041">
        <ele>748.1</ele>
        <time>2026-05-14T07:30:20.000Z</time>
      </trkpt>
      <trkpt lat="44.18169" lon="5.30409">
        <ele>748.1</ele>
        <time>2026-05-14T07:30:21.000Z</time>
      </trkpt>
      <trkpt lat="44.1817" lon="5.30408">
        <ele>747.8</ele>
        <time>2026-05-14T07:30:22.000Z</time>
      </trkpt>
      <trkpt lat="44.18171" lon="5.30408">
        <ele>747.5</ele>
        <time>2026-05-14T07:30:23.000Z</time>
      </trkpt>
      <trkpt lat="44.18172" lon="5.30408">
        <ele>747.2</ele>
        <time>2026-05-14T07:30:24.000Z</time>
      </trkpt>
      <trkpt lat="44.18173" lon="5.30409">
        <ele>747.7</ele>
        <time>2026-05-14T07:30:25.000Z</time>
      </trkpt>
      <trkpt lat="44.18174" lon="5.30409">
        <ele>747.7</ele>
        <time>2026-05-14T07:30:26.000Z</time>
      </trkpt>
      <trkpt lat="44.18176" lon="5.3041">
        <ele>747.8</ele>
        <time>2026-05-14T07:30:27.000Z</time>
      </trkpt>
      <trkpt lat="44.18177" lon="5.30411">
        <ele>748.3</ele>
        <time>2026-05-14T07:30:28.000Z</time>
      </trkpt>
      <trkpt lat="44.1818" lon="5.30411">
        <ele>748.6</ele>
        <time>2026-05-14T07:30:29.000Z</time>
      </trkpt>
      <trkpt lat="44.18183" lon="5.30412">
        <ele>749</ele>
        <time>2026-05-14T07:30:30.000Z</time>
      </trkpt>
      <trkpt lat="44.18185" lon="5.30412">
        <ele>750</ele>
        <time>2026-05-14T07:30:31.000Z</time>
      </trkpt>
      <trkpt lat="44.18187" lon="5.30412">
        <ele>750.4</ele>
        <time>2026-05-14T07:30:32.000Z</time>
      </trkpt>
      <trkpt lat="44.18188" lon="5.30412">
        <ele>751.3</ele>
        <time>2026-05-14T07:30:33.000Z</time>
      </trkpt>
      <trkpt lat="44.1819" lon="5.30413">
        <ele>751.9</ele>
        <time>2026-05-14T07:30:34.000Z</time>
      </trkpt>
      <trkpt lat="44.18192" lon="5.30413">
        <ele>751.9</ele>
        <time>2026-05-14T07:30:35.000Z</time>
      </trkpt>
      <trkpt lat="44.18194" lon="5.30413">
        <ele>751.9</ele>
        <time>2026-05-14T07:30:36.000Z</time>
      </trkpt>
      <trkpt lat="44.18196" lon="5.30412">
        <ele>751.9</ele>
        <time>2026-05-14T07:30:37.000Z</time>
      </trkpt>
      <trkpt lat="44.18198" lon="5.30413">
        <ele>752.6</ele>
        <time>2026-05-14T07:30:38.000Z</time>
      </trkpt>
      <trkpt lat="44.182" lon="5.30413">
        <ele>753.2</ele>
        <time>2026-05-14T07:30:39.000Z</time>
      </trkpt>
      <trkpt lat="44.18202" lon="5.30412">
        <ele>753.4</ele>
        <time>2026-05-14T07:30:40.000Z</time>
      </trkpt>
      <trkpt lat="44.18203" lon="5.30413">
        <ele>753.4</ele>
        <time>2026-05-14T07:30:41.000Z</time>
      </trkpt>
      <trkpt lat="44.18205" lon="5.30413">
        <ele>753.2</ele>
        <time>2026-05-14T07:30:42.000Z</time>
      </trkpt>
      <trkpt lat="44.18207" lon="5.30413">
        <ele>752.9</ele>
        <time>2026-05-14T07:30:43.000Z</time>
      </trkpt>
      <trkpt lat="44.18209" lon="5.30414">
        <ele>752.7</ele>
        <time>2026-05-14T07:30:44.000Z</time>
      </trkpt>
      <trkpt lat="44.1821" lon="5.30414">
        <ele>752.7</ele>
        <time>2026-05-14T07:30:45.000Z</time>
      </trkpt>
      <trkpt lat="44.18211" lon="5.30415">
        <ele>752.7</ele>
        <time>2026-05-14T07:30:46.000Z</time>
      </trkpt>
      <trkpt lat="44.18213" lon="5.30415">
        <ele>752</ele>
        <time>2026-05-14T07:30:47.000Z</time>
      </trkpt>
      <trkpt lat="44.18214" lon="5.30415">
        <ele>751.8</ele>
        <time>2026-05-14T07:30:48.000Z</time>
      </trkpt>
      <trkpt lat="44.18216" lon="5.30416">
        <ele>752.2</ele>
        <time>2026-05-14T07:30:49.000Z</time>
      </trkpt>
      <trkpt lat="44.18218" lon="5.30416">
        <ele>753.1</ele>
        <time>2026-05-14T07:30:50.000Z</time>
      </trkpt>
      <trkpt lat="44.1822" lon="5.30416">
        <ele>753.4</ele>
        <time>2026-05-14T07:30:51.000Z</time>
      </trkpt>
      <trkpt lat="44.18221" lon="5.30416">
        <ele>753.5</ele>
        <time>2026-05-14T07:30:52.000Z</time>
      </trkpt>
      <trkpt lat="44.18223" lon="5.30416">
        <ele>753.3</ele>
        <time>2026-05-14T07:30:53.000Z</time>
      </trkpt>
      <trkpt lat="44.18225" lon="5.30416">
        <ele>753.2</ele>
        <time>2026-05-14T07:30:54.000Z</time>
      </trkpt>
      <trkpt lat="44.18227" lon="5.30416">
        <ele>753.3</ele>
        <time>2026-05-14T07:30:55.000Z</time>
      </trkpt>
      <trkpt lat="44.18228" lon="5.30415">
        <ele>752.7</ele>
        <time>2026-05-14T07:30:56.000Z</time>
      </trkpt>
      <trkpt lat="44.18228" lon="5.30416">
        <ele>752.9</ele>
        <time>2026-05-14T07:30:57.000Z</time>
      </trkpt>
      <trkpt lat="44.1823" lon="5.30416">
        <ele>753.1</ele>
        <time>2026-05-14T07:30:58.000Z</time>
      </trkpt>
      <trkpt lat="44.18231" lon="5.30417">
        <ele>753.4</ele>
        <time>2026-05-14T07:30:59.000Z</time>
      </trkpt>
      <trkpt lat="44.18232" lon="5.30418">
        <ele>753.4</ele>
        <time>2026-05-14T07:31:00.000Z</time>
      </trkpt>
      <trkpt lat="44.18233" lon="5.30418">
        <ele>752.7</ele>
        <time>2026-05-14T07:31:01.000Z</time>
      </trkpt>
      <trkpt lat="44.18234" lon="5.30418">
        <ele>751.9</ele>
        <time>2026-05-14T07:31:02.000Z</time>
      </trkpt>
      <trkpt lat="44.18234" lon="5.30418">
        <ele>751.5</ele>
        <time>2026-05-14T07:31:03.000Z</time>
      </trkpt>
      <trkpt lat="44.18235" lon="5.30419">
        <ele>751.4</ele>
        <time>2026-05-14T07:31:04.000Z</time>
      </trkpt>
      <trkpt lat="44.18237" lon="5.3042">
        <ele>751.4</ele>
        <time>2026-05-14T07:31:05.000Z</time>
      </trkpt>
      <trkpt lat="44.18238" lon="5.30421">
        <ele>751.3</ele>
        <time>2026-05-14T07:31:06.000Z</time>
      </trkpt>
      <trkpt lat="44.18239" lon="5.30423">
        <ele>751.5</ele>
        <time>2026-05-14T07:31:07.000Z</time>
      </trkpt>
      <trkpt lat="44.1824" lon="5.30423">
        <ele>751.7</ele>
        <time>2026-05-14T07:31:08.000Z</time>
      </trkpt>
      <trkpt lat="44.18241" lon="5.30424">
        <ele>752.1</ele>
        <time>2026-05-14T07:31:09.000Z</time>
      </trkpt>
      <trkpt lat="44.18242" lon="5.30425">
        <ele>752.1</ele>
        <time>2026-05-14T07:31:10.000Z</time>
      </trkpt>
      <trkpt lat="44.18244" lon="5.30426">
        <ele>752.3</ele>
        <time>2026-05-14T07:31:11.000Z</time>
      </trkpt>
      <trkpt lat="44.18245" lon="5.30426">
        <ele>752.6</ele>
        <time>2026-05-14T07:31:12.000Z</time>
      </trkpt>
      <trkpt lat="44.18245" lon="5.30427">
        <ele>753</ele>
        <time>2026-05-14T07:31:13.000Z</time>
      </trkpt>
      <trkpt lat="44.18246" lon="5.30427">
        <ele>752.3</ele>
        <time>2026-05-14T07:31:14.000Z</time>
      </trkpt>
      <trkpt lat="44.18246" lon="5.30427">
        <ele>751.2</ele>
        <time>2026-05-14T07:31:15.000Z</time>
      </trkpt>
      <trkpt lat="44.18247" lon="5.30427">
        <ele>750.3</ele>
        <time>2026-05-14T07:31:16.000Z</time>
      </trkpt>
      <trkpt lat="44.18247" lon="5.30427">
        <ele>749.9</ele>
        <time>2026-05-14T07:31:17.000Z</time>
      </trkpt>
      <trkpt lat="44.18248" lon="5.30428">
        <ele>749.4</ele>
        <time>2026-05-14T07:31:18.000Z</time>
      </trkpt>
      <trkpt lat="44.1825" lon="5.30429">
        <ele>749.4</ele>
        <time>2026-05-14T07:31:19.000Z</time>
      </trkpt>
      <trkpt lat="44.18251" lon="5.3043">
        <ele>749.1</ele>
        <time>2026-05-14T07:31:20.000Z</time>
      </trkpt>
      <trkpt lat="44.18252" lon="5.3043">
        <ele>749.1</ele>
        <time>2026-05-14T07:31:21.000Z</time>
      </trkpt>
      <trkpt lat="44.18253" lon="5.3043">
        <ele>748.6</ele>
        <time>2026-05-14T07:31:22.000Z</time>
      </trkpt>
      <trkpt lat="44.18255" lon="5.30431">
        <ele>748.8</ele>
        <time>2026-05-14T07:31:23.000Z</time>
      </trkpt>
      <trkpt lat="44.18257" lon="5.30431">
        <ele>749.2</ele>
        <time>2026-05-14T07:31:24.000Z</time>
      </trkpt>
      <trkpt lat="44.18258" lon="5.30433">
        <ele>749.4</ele>
        <time>2026-05-14T07:31:25.000Z</time>
      </trkpt>
      <trkpt lat="44.18259" lon="5.30434">
        <ele>749.1</ele>
        <time>2026-05-14T07:31:26.000Z</time>
      </trkpt>
      <trkpt lat="44.1826" lon="5.30435">
        <ele>748.9</ele>
        <time>2026-05-14T07:31:27.000Z</time>
      </trkpt>
      <trkpt lat="44.18261" lon="5.30435">
        <ele>748.7</ele>
        <time>2026-05-14T07:31:28.000Z</time>
      </trkpt>
      <trkpt lat="44.18262" lon="5.30435">
        <ele>748.4</ele>
        <time>2026-05-14T07:31:29.000Z</time>
      </trkpt>
      <trkpt lat="44.18263" lon="5.30436">
        <ele>747.9</ele>
        <time>2026-05-14T07:31:30.000Z</time>
      </trkpt>
      <trkpt lat="44.18265" lon="5.30437">
        <ele>747.6</ele>
        <time>2026-05-14T07:31:31.000Z</time>
      </trkpt>
      <trkpt lat="44.18265" lon="5.30437">
        <ele>747.7</ele>
        <time>2026-05-14T07:31:32.000Z</time>
      </trkpt>
      <trkpt lat="44.18266" lon="5.30438">
        <ele>748</ele>
        <time>2026-05-14T07:31:33.000Z</time>
      </trkpt>
      <trkpt lat="44.18267" lon="5.30439">
        <ele>747.6</ele>
        <time>2026-05-14T07:31:34.000Z</time>
      </trkpt>
      <trkpt lat="44.18268" lon="5.30441">
        <ele>747.7</ele>
        <time>2026-05-14T07:31:35.000Z</time>
      </trkpt>
      <trkpt lat="44.18269" lon="5.30441">
        <ele>747.1</ele>
        <time>2026-05-14T07:31:36.000Z</time>
      </trkpt>
      <trkpt lat="44.1827" lon="5.30442">
        <ele>746.6</ele>
        <time>2026-05-14T07:31:37.000Z</time>
      </trkpt>
      <trkpt lat="44.18271" lon="5.30443">
        <ele>746.2</ele>
        <time>2026-05-14T07:31:38.000Z</time>
      </trkpt>
      <trkpt lat="44.18272" lon="5.30444">
        <ele>746.3</ele>
        <time>2026-05-14T07:31:39.000Z</time>
      </trkpt>
      <trkpt lat="44.18273" lon="5.30444">
        <ele>745.7</ele>
        <time>2026-05-14T07:31:40.000Z</time>
      </trkpt>
      <trkpt lat="44.18274" lon="5.30444">
        <ele>745.3</ele>
        <time>2026-05-14T07:31:41.000Z</time>
      </trkpt>
      <trkpt lat="44.18275" lon="5.30444">
        <ele>744.5</ele>
        <time>2026-05-14T07:31:42.000Z</time>
      </trkpt>
      <trkpt lat="44.18276" lon="5.30444">
        <ele>743.7</ele>
        <time>2026-05-14T07:31:43.000Z</time>
      </trkpt>
      <trkpt lat="44.18278" lon="5.30443">
        <ele>743.2</ele>
        <time>2026-05-14T07:31:44.000Z</time>
      </trkpt>
      <trkpt lat="44.18279" lon="5.30443">
        <ele>741.8</ele>
        <time>2026-05-14T07:31:45.000Z</time>
      </trkpt>
      <trkpt lat="44.18279" lon="5.30442">
        <ele>741.1</ele>
        <time>2026-05-14T07:31:46.000Z</time>
      </trkpt>
      <trkpt lat="44.1828" lon="5.30442">
        <ele>740.8</ele>
        <time>2026-05-14T07:31:47.000Z</time>
      </trkpt>
      <trkpt lat="44.18281" lon="5.30441">
        <ele>740.6</ele>
        <time>2026-05-14T07:31:48.000Z</time>
      </trkpt>
      <trkpt lat="44.18282" lon="5.30439">
        <ele>740.4</ele>
        <time>2026-05-14T07:31:49.000Z</time>
      </trkpt>
      <trkpt lat="44.18282" lon="5.30438">
        <ele>740.1</ele>
        <time>2026-05-14T07:31:50.000Z</time>
      </trkpt>
      <trkpt lat="44.18282" lon="5.30436">
        <ele>740</ele>
        <time>2026-05-14T07:31:51.000Z</time>
      </trkpt>
      <trkpt lat="44.18283" lon="5.30435">
        <ele>739.6</ele>
        <time>2026-05-14T07:31:52.000Z</time>
      </trkpt>
      <trkpt lat="44.18284" lon="5.30433">
        <ele>739.4</ele>
        <time>2026-05-14T07:31:53.000Z</time>
      </trkpt>
      <trkpt lat="44.18284" lon="5.30432">
        <ele>739.4</ele>
        <time>2026-05-14T07:31:54.000Z</time>
      </trkpt>
      <trkpt lat="44.18285" lon="5.30432">
        <ele>741.3</ele>
        <time>2026-05-14T07:31:55.000Z</time>
      </trkpt>
      <trkpt lat="44.18285" lon="5.30431">
        <ele>741.9</ele>
        <time>2026-05-14T07:31:56.000Z</time>
      </trkpt>
      <trkpt lat="44.18285" lon="5.3043">
        <ele>742</ele>
        <time>2026-05-14T07:31:57.000Z</time>
      </trkpt>
      <trkpt lat="44.18286" lon="5.30428">
        <ele>742.1</ele>
        <time>2026-05-14T07:31:58.000Z</time>
      </trkpt>
      <trkpt lat="44.18287" lon="5.30427">
        <ele>742.3</ele>
        <time>2026-05-14T07:31:59.000Z</time>
      </trkpt>
      <trkpt lat="44.18288" lon="5.30424">
        <ele>742.8</ele>
        <time>2026-05-14T07:32:00.000Z</time>
      </trkpt>
      <trkpt lat="44.18288" lon="5.30423">
        <ele>742.8</ele>
        <time>2026-05-14T07:32:01.000Z</time>
      </trkpt>
      <trkpt lat="44.18288" lon="5.30421">
        <ele>742.4</ele>
        <time>2026-05-14T07:32:02.000Z</time>
      </trkpt>
      <trkpt lat="44.18288" lon="5.30419">
        <ele>742.7</ele>
        <time>2026-05-14T07:32:03.000Z</time>
      </trkpt>
      <trkpt lat="44.18289" lon="5.30418">
        <ele>743.1</ele>
        <time>2026-05-14T07:32:04.000Z</time>
      </trkpt>
      <trkpt lat="44.18289" lon="5.30416">
        <ele>743.3</ele>
        <time>2026-05-14T07:32:05.000Z</time>
      </trkpt>
      <trkpt lat="44.18289" lon="5.30415">
        <ele>743.3</ele>
        <time>2026-05-14T07:32:06.000Z</time>
      </trkpt>
      <trkpt lat="44.1829" lon="5.30415">
        <ele>743.7</ele>
        <time>2026-05-14T07:32:07.000Z</time>
      </trkpt>
      <trkpt lat="44.18291" lon="5.30414">
        <ele>744.7</ele>
        <time>2026-05-14T07:32:09.000Z</time>
      </trkpt>
      <trkpt lat="44.18291" lon="5.30413">
        <ele>745</ele>
        <time>2026-05-14T07:32:10.000Z</time>
      </trkpt>
      <trkpt lat="44.18291" lon="5.30412">
        <ele>745.1</ele>
        <time>2026-05-14T07:32:11.000Z</time>
      </trkpt>
      <trkpt lat="44.1829" lon="5.30412">
        <ele>746.1</ele>
        <time>2026-05-14T07:32:12.000Z</time>
      </trkpt>
      <trkpt lat="44.18289" lon="5.30412">
        <ele>747.2</ele>
        <time>2026-05-14T07:32:13.000Z</time>
      </trkpt>
      <trkpt lat="44.18289" lon="5.30412">
        <ele>748.4</ele>
        <time>2026-05-14T07:32:14.000Z</time>
      </trkpt>
      <trkpt lat="44.18288" lon="5.30414">
        <ele>750.4</ele>
        <time>2026-05-14T07:32:15.000Z</time>
      </trkpt>
      <trkpt lat="44.18288" lon="5.30415">
        <ele>751.3</ele>
        <time>2026-05-14T07:32:16.000Z</time>
      </trkpt>
      <trkpt lat="44.18288" lon="5.30414">
        <ele>751.1</ele>
        <time>2026-05-14T07:32:17.000Z</time>
      </trkpt>
      <trkpt lat="44.18287" lon="5.30412">
        <ele>751.6</ele>
        <time>2026-05-14T07:32:18.000Z</time>
      </trkpt>
      <trkpt lat="44.18287" lon="5.3041">
        <ele>751.6</ele>
        <time>2026-05-14T07:32:19.000Z</time>
      </trkpt>
      <trkpt lat="44.18287" lon="5.30408">
        <ele>751.2</ele>
        <time>2026-05-14T07:32:20.000Z</time>
      </trkpt>
      <trkpt lat="44.18287" lon="5.30406">
        <ele>750.7</ele>
        <time>2026-05-14T07:32:21.000Z</time>
      </trkpt>
      <trkpt lat="44.18287" lon="5.30405">
        <ele>750.3</ele>
        <time>2026-05-14T07:32:22.000Z</time>
      </trkpt>
      <trkpt lat="44.18287" lon="5.30404">
        <ele>749.8</ele>
        <time>2026-05-14T07:32:23.000Z</time>
      </trkpt>
      <trkpt lat="44.18287" lon="5.30402">
        <ele>749.3</ele>
        <time>2026-05-14T07:32:24.000Z</time>
      </trkpt>
      <trkpt lat="44.18287" lon="5.304">
        <ele>748.8</ele>
        <time>2026-05-14T07:32:25.000Z</time>
      </trkpt>
      <trkpt lat="44.18286" lon="5.304">
        <ele>749.6</ele>
        <time>2026-05-14T07:32:26.000Z</time>
      </trkpt>
      <trkpt lat="44.18286" lon="5.304">
        <ele>750.5</ele>
        <time>2026-05-14T07:32:27.000Z</time>
      </trkpt>
      <trkpt lat="44.18286" lon="5.30399">
        <ele>750.5</ele>
        <time>2026-05-14T07:32:28.000Z</time>
      </trkpt>
      <trkpt lat="44.18286" lon="5.30398">
        <ele>751</ele>
        <time>2026-05-14T07:32:29.000Z</time>
      </trkpt>
      <trkpt lat="44.18286" lon="5.30396">
        <ele>750.9</ele>
        <time>2026-05-14T07:32:30.000Z</time>
      </trkpt>
      <trkpt lat="44.18286" lon="5.30393">
        <ele>751</ele>
        <time>2026-05-14T07:32:31.000Z</time>
      </trkpt>
      <trkpt lat="44.18286" lon="5.30391">
        <ele>750.4</ele>
        <time>2026-05-14T07:32:32.000Z</time>
      </trkpt>
      <trkpt lat="44.18286" lon="5.30389">
        <ele>751.2</ele>
        <time>2026-05-14T07:32:33.000Z</time>
      </trkpt>
      <trkpt lat="44.18285" lon="5.30387">
        <ele>751.4</ele>
        <time>2026-05-14T07:32:34.000Z</time>
      </trkpt>
      <trkpt lat="44.18285" lon="5.30385">
        <ele>751.1</ele>
        <time>2026-05-14T07:32:35.000Z</time>
      </trkpt>
      <trkpt lat="44.18285" lon="5.30384">
        <ele>751</ele>
        <time>2026-05-14T07:32:36.000Z</time>
      </trkpt>
      <trkpt lat="44.18285" lon="5.30382">
        <ele>750.9</ele>
        <time>2026-05-14T07:32:37.000Z</time>
      </trkpt>
      <trkpt lat="44.18285" lon="5.3038">
        <ele>750.8</ele>
        <time>2026-05-14T07:32:38.000Z</time>
      </trkpt>
      <trkpt lat="44.18284" lon="5.30378">
        <ele>751</ele>
        <time>2026-05-14T07:32:39.000Z</time>
      </trkpt>
      <trkpt lat="44.18284" lon="5.30377">
        <ele>751.7</ele>
        <time>2026-05-14T07:32:40.000Z</time>
      </trkpt>
      <trkpt lat="44.18284" lon="5.30375">
        <ele>753.1</ele>
        <time>2026-05-14T07:32:41.000Z</time>
      </trkpt>
      <trkpt lat="44.18284" lon="5.30373">
        <ele>752.9</ele>
        <time>2026-05-14T07:32:42.000Z</time>
      </trkpt>
      <trkpt lat="44.18283" lon="5.30371">
        <ele>753.1</ele>
        <time>2026-05-14T07:32:43.000Z</time>
      </trkpt>
      <trkpt lat="44.18284" lon="5.30368">
        <ele>755</ele>
        <time>2026-05-14T07:32:44.000Z</time>
      </trkpt>
      <trkpt lat="44.18284" lon="5.30366">
        <ele>755.5</ele>
        <time>2026-05-14T07:32:45.000Z</time>
      </trkpt>
      <trkpt lat="44.18284" lon="5.30365">
        <ele>755.9</ele>
        <time>2026-05-14T07:32:46.000Z</time>
      </trkpt>
      <trkpt lat="44.18284" lon="5.30364">
        <ele>756.6</ele>
        <time>2026-05-14T07:32:47.000Z</time>
      </trkpt>
      <trkpt lat="44.18284" lon="5.30363">
        <ele>757.3</ele>
        <time>2026-05-14T07:32:48.000Z</time>
      </trkpt>
      <trkpt lat="44.18283" lon="5.30362">
        <ele>757.6</ele>
        <time>2026-05-14T07:32:49.000Z</time>
      </trkpt>
      <trkpt lat="44.18282" lon="5.30361">
        <ele>758</ele>
        <time>2026-05-14T07:32:50.000Z</time>
      </trkpt>
      <trkpt lat="44.1828" lon="5.3036">
        <ele>758.4</ele>
        <time>2026-05-14T07:32:51.000Z</time>
      </trkpt>
      <trkpt lat="44.18279" lon="5.30359">
        <ele>758.4</ele>
        <time>2026-05-14T07:32:52.000Z</time>
      </trkpt>
      <trkpt lat="44.18278" lon="5.30357">
        <ele>759.3</ele>
        <time>2026-05-14T07:32:53.000Z</time>
      </trkpt>
      <trkpt lat="44.18278" lon="5.30355">
        <ele>761.2</ele>
        <time>2026-05-14T07:32:54.000Z</time>
      </trkpt>
      <trkpt lat="44.18278" lon="5.30353">
        <ele>761.3</ele>
        <time>2026-05-14T07:32:55.000Z</time>
      </trkpt>
      <trkpt lat="44.18277" lon="5.3035">
        <ele>760.9</ele>
        <time>2026-05-14T07:32:56.000Z</time>
      </trkpt>
      <trkpt lat="44.18277" lon="5.30349">
        <ele>761</ele>
        <time>2026-05-14T07:32:57.000Z</time>
      </trkpt>
      <trkpt lat="44.18276" lon="5.30347">
        <ele>760.9</ele>
        <time>2026-05-14T07:32:58.000Z</time>
      </trkpt>
      <trkpt lat="44.18275" lon="5.30346">
        <ele>760.4</ele>
        <time>2026-05-14T07:32:59.000Z</time>
      </trkpt>
      <trkpt lat="44.18274" lon="5.30344">
        <ele>759.7</ele>
        <time>2026-05-14T07:33:00.000Z</time>
      </trkpt>
      <trkpt lat="44.18273" lon="5.30343">
        <ele>759</ele>
        <time>2026-05-14T07:33:01.000Z</time>
      </trkpt>
      <trkpt lat="44.18273" lon="5.30342">
        <ele>759.3</ele>
        <time>2026-05-14T07:33:02.000Z</time>
      </trkpt>
      <trkpt lat="44.18274" lon="5.30341">
        <ele>759.2</ele>
        <time>2026-05-14T07:33:03.000Z</time>
      </trkpt>
      <trkpt lat="44.18275" lon="5.3034">
        <ele>759.9</ele>
        <time>2026-05-14T07:33:04.000Z</time>
      </trkpt>
      <trkpt lat="44.18274" lon="5.30338">
        <ele>759.6</ele>
        <time>2026-05-14T07:33:05.000Z</time>
      </trkpt>
      <trkpt lat="44.18273" lon="5.30337">
        <ele>758.8</ele>
        <time>2026-05-14T07:33:06.000Z</time>
      </trkpt>
      <trkpt lat="44.18272" lon="5.30335">
        <ele>758.4</ele>
        <time>2026-05-14T07:33:07.000Z</time>
      </trkpt>
      <trkpt lat="44.18272" lon="5.30332">
        <ele>758.3</ele>
        <time>2026-05-14T07:33:08.000Z</time>
      </trkpt>
      <trkpt lat="44.18271" lon="5.30331">
        <ele>757.2</ele>
        <time>2026-05-14T07:33:09.000Z</time>
      </trkpt>
      <trkpt lat="44.1827" lon="5.3033">
        <ele>756.8</ele>
        <time>2026-05-14T07:33:10.000Z</time>
      </trkpt>
      <trkpt lat="44.18269" lon="5.30328">
        <ele>756.4</ele>
        <time>2026-05-14T07:33:11.000Z</time>
      </trkpt>
      <trkpt lat="44.18269" lon="5.30326">
        <ele>755.8</ele>
        <time>2026-05-14T07:33:12.000Z</time>
      </trkpt>
      <trkpt lat="44.18268" lon="5.30324">
        <ele>755.3</ele>
        <time>2026-05-14T07:33:13.000Z</time>
      </trkpt>
      <trkpt lat="44.18267" lon="5.30321">
        <ele>755.3</ele>
        <time>2026-05-14T07:33:14.000Z</time>
      </trkpt>
      <trkpt lat="44.18266" lon="5.30319">
        <ele>755.1</ele>
        <time>2026-05-14T07:33:15.000Z</time>
      </trkpt>
      <trkpt lat="44.18265" lon="5.30317">
        <ele>754.7</ele>
        <time>2026-05-14T07:33:16.000Z</time>
      </trkpt>
      <trkpt lat="44.18263" lon="5.30315">
        <ele>754.9</ele>
        <time>2026-05-14T07:33:17.000Z</time>
      </trkpt>
      <trkpt lat="44.18263" lon="5.30312">
        <ele>754.6</ele>
        <time>2026-05-14T07:33:18.000Z</time>
      </trkpt>
      <trkpt lat="44.18263" lon="5.3031">
        <ele>755</ele>
        <time>2026-05-14T07:33:19.000Z</time>
      </trkpt>
      <trkpt lat="44.18263" lon="5.30309">
        <ele>755.5</ele>
        <time>2026-05-14T07:33:20.000Z</time>
      </trkpt>
      <trkpt lat="44.18263" lon="5.30308">
        <ele>755.7</ele>
        <time>2026-05-14T07:33:21.000Z</time>
      </trkpt>
      <trkpt lat="44.18264" lon="5.30307">
        <ele>756.1</ele>
        <time>2026-05-14T07:33:22.000Z</time>
      </trkpt>
      <trkpt lat="44.18263" lon="5.30307">
        <ele>756.5</ele>
        <time>2026-05-14T07:33:23.000Z</time>
      </trkpt>
      <trkpt lat="44.18263" lon="5.30307">
        <ele>756.9</ele>
        <time>2026-05-14T07:33:24.000Z</time>
      </trkpt>
      <trkpt lat="44.18263" lon="5.30306">
        <ele>757.6</ele>
        <time>2026-05-14T07:33:25.000Z</time>
      </trkpt>
      <trkpt lat="44.18263" lon="5.30305">
        <ele>758.1</ele>
        <time>2026-05-14T07:33:26.000Z</time>
      </trkpt>
      <trkpt lat="44.18263" lon="5.30304">
        <ele>758.3</ele>
        <time>2026-05-14T07:33:27.000Z</time>
      </trkpt>
      <trkpt lat="44.18263" lon="5.30303">
        <ele>758.1</ele>
        <time>2026-05-14T07:33:28.000Z</time>
      </trkpt>
      <trkpt lat="44.18263" lon="5.30301">
        <ele>758.2</ele>
        <time>2026-05-14T07:33:29.000Z</time>
      </trkpt>
      <trkpt lat="44.18263" lon="5.303">
        <ele>758.2</ele>
        <time>2026-05-14T07:33:30.000Z</time>
      </trkpt>
      <trkpt lat="44.18263" lon="5.30299">
        <ele>758.3</ele>
        <time>2026-05-14T07:33:31.000Z</time>
      </trkpt>
      <trkpt lat="44.18263" lon="5.30298">
        <ele>758.6</ele>
        <time>2026-05-14T07:33:32.000Z</time>
      </trkpt>
      <trkpt lat="44.18264" lon="5.30296">
        <ele>760.2</ele>
        <time>2026-05-14T07:33:33.000Z</time>
      </trkpt>
      <trkpt lat="44.18264" lon="5.30295">
        <ele>761.5</ele>
        <time>2026-05-14T07:33:34.000Z</time>
      </trkpt>
      <trkpt lat="44.18265" lon="5.30294">
        <ele>763.4</ele>
        <time>2026-05-14T07:33:35.000Z</time>
      </trkpt>
      <trkpt lat="44.18265" lon="5.30293">
        <ele>763.3</ele>
        <time>2026-05-14T07:33:36.000Z</time>
      </trkpt>
      <trkpt lat="44.18265" lon="5.30292">
        <ele>763.3</ele>
        <time>2026-05-14T07:33:37.000Z</time>
      </trkpt>
      <trkpt lat="44.18267" lon="5.3029">
        <ele>763.3</ele>
        <time>2026-05-14T07:33:38.000Z</time>
      </trkpt>
      <trkpt lat="44.18267" lon="5.3029">
        <ele>764.4</ele>
        <time>2026-05-14T07:33:39.000Z</time>
      </trkpt>
      <trkpt lat="44.18267" lon="5.3029">
        <ele>765.8</ele>
        <time>2026-05-14T07:33:40.000Z</time>
      </trkpt>
      <trkpt lat="44.18268" lon="5.30289">
        <ele>766.7</ele>
        <time>2026-05-14T07:33:41.000Z</time>
      </trkpt>
      <trkpt lat="44.1827" lon="5.30289">
        <ele>767.3</ele>
        <time>2026-05-14T07:33:42.000Z</time>
      </trkpt>
      <trkpt lat="44.18271" lon="5.30289">
        <ele>767.1</ele>
        <time>2026-05-14T07:33:43.000Z</time>
      </trkpt>
      <trkpt lat="44.18272" lon="5.30288">
        <ele>766.3</ele>
        <time>2026-05-14T07:33:44.000Z</time>
      </trkpt>
      <trkpt lat="44.18273" lon="5.30288">
        <ele>765.4</ele>
        <time>2026-05-14T07:33:45.000Z</time>
      </trkpt>
      <trkpt lat="44.18273" lon="5.30287">
        <ele>764.9</ele>
        <time>2026-05-14T07:33:46.000Z</time>
      </trkpt>
      <trkpt lat="44.18274" lon="5.30287">
        <ele>764.4</ele>
        <time>2026-05-14T07:33:47.000Z</time>
      </trkpt>
      <trkpt lat="44.18275" lon="5.30287">
        <ele>764.3</ele>
        <time>2026-05-14T07:33:48.000Z</time>
      </trkpt>
      <trkpt lat="44.18279" lon="5.30288">
        <ele>762.3</ele>
        <time>2026-05-14T07:33:50.000Z</time>
      </trkpt>
      <trkpt lat="44.18281" lon="5.30289">
        <ele>761.4</ele>
        <time>2026-05-14T07:33:51.000Z</time>
      </trkpt>
      <trkpt lat="44.18283" lon="5.3029">
        <ele>761.1</ele>
        <time>2026-05-14T07:33:52.000Z</time>
      </trkpt>
      <trkpt lat="44.18286" lon="5.30291">
        <ele>761</ele>
        <time>2026-05-14T07:33:53.000Z</time>
      </trkpt>
      <trkpt lat="44.18288" lon="5.30292">
        <ele>761.7</ele>
        <time>2026-05-14T07:33:54.000Z</time>
      </trkpt>
      <trkpt lat="44.1829" lon="5.30294">
        <ele>762.1</ele>
        <time>2026-05-14T07:33:55.000Z</time>
      </trkpt>
      <trkpt lat="44.18293" lon="5.30295">
        <ele>762.8</ele>
        <time>2026-05-14T07:33:56.000Z</time>
      </trkpt>
      <trkpt lat="44.18294" lon="5.30295">
        <ele>762.7</ele>
        <time>2026-05-14T07:33:57.000Z</time>
      </trkpt>
      <trkpt lat="44.18295" lon="5.30296">
        <ele>762.2</ele>
        <time>2026-05-14T07:33:58.000Z</time>
      </trkpt>
      <trkpt lat="44.18296" lon="5.30297">
        <ele>762</ele>
        <time>2026-05-14T07:33:59.000Z</time>
      </trkpt>
      <trkpt lat="44.18298" lon="5.30297">
        <ele>762.3</ele>
        <time>2026-05-14T07:34:00.000Z</time>
      </trkpt>
      <trkpt lat="44.18299" lon="5.30298">
        <ele>762.6</ele>
        <time>2026-05-14T07:34:01.000Z</time>
      </trkpt>
      <trkpt lat="44.18301" lon="5.30299">
        <ele>762.4</ele>
        <time>2026-05-14T07:34:02.000Z</time>
      </trkpt>
      <trkpt lat="44.18303" lon="5.30298">
        <ele>763</ele>
        <time>2026-05-14T07:34:03.000Z</time>
      </trkpt>
      <trkpt lat="44.18305" lon="5.30298">
        <ele>762.9</ele>
        <time>2026-05-14T07:34:04.000Z</time>
      </trkpt>
      <trkpt lat="44.18306" lon="5.30298">
        <ele>762.8</ele>
        <time>2026-05-14T07:34:05.000Z</time>
      </trkpt>
      <trkpt lat="44.18307" lon="5.30298">
        <ele>762.1</ele>
        <time>2026-05-14T07:34:06.000Z</time>
      </trkpt>
      <trkpt lat="44.18309" lon="5.30299">
        <ele>762.2</ele>
        <time>2026-05-14T07:34:07.000Z</time>
      </trkpt>
      <trkpt lat="44.1831" lon="5.303">
        <ele>762.4</ele>
        <time>2026-05-14T07:34:08.000Z</time>
      </trkpt>
      <trkpt lat="44.18312" lon="5.30301">
        <ele>762.4</ele>
        <time>2026-05-14T07:34:09.000Z</time>
      </trkpt>
      <trkpt lat="44.18313" lon="5.30302">
        <ele>762.3</ele>
        <time>2026-05-14T07:34:10.000Z</time>
      </trkpt>
      <trkpt lat="44.18314" lon="5.30303">
        <ele>762.4</ele>
        <time>2026-05-14T07:34:11.000Z</time>
      </trkpt>
      <trkpt lat="44.18316" lon="5.30304">
        <ele>763.1</ele>
        <time>2026-05-14T07:34:12.000Z</time>
      </trkpt>
      <trkpt lat="44.18318" lon="5.30304">
        <ele>763.7</ele>
        <time>2026-05-14T07:34:13.000Z</time>
      </trkpt>
      <trkpt lat="44.1832" lon="5.30305">
        <ele>763.8</ele>
        <time>2026-05-14T07:34:14.000Z</time>
      </trkpt>
      <trkpt lat="44.18322" lon="5.30305">
        <ele>763.9</ele>
        <time>2026-05-14T07:34:15.000Z</time>
      </trkpt>
      <trkpt lat="44.18324" lon="5.30305">
        <ele>764</ele>
        <time>2026-05-14T07:34:16.000Z</time>
      </trkpt>
      <trkpt lat="44.18324" lon="5.30306">
        <ele>763.7</ele>
        <time>2026-05-14T07:34:17.000Z</time>
      </trkpt>
      <trkpt lat="44.18325" lon="5.30305">
        <ele>764.5</ele>
        <time>2026-05-14T07:34:18.000Z</time>
      </trkpt>
      <trkpt lat="44.18326" lon="5.30305">
        <ele>764.7</ele>
        <time>2026-05-14T07:34:19.000Z</time>
      </trkpt>
      <trkpt lat="44.18328" lon="5.30304">
        <ele>765.4</ele>
        <time>2026-05-14T07:34:20.000Z</time>
      </trkpt>
      <trkpt lat="44.1833" lon="5.30304">
        <ele>766.3</ele>
        <time>2026-05-14T07:34:21.000Z</time>
      </trkpt>
      <trkpt lat="44.18331" lon="5.30305">
        <ele>767</ele>
        <time>2026-05-14T07:34:22.000Z</time>
      </trkpt>
      <trkpt lat="44.18332" lon="5.30304">
        <ele>766.8</ele>
        <time>2026-05-14T07:34:23.000Z</time>
      </trkpt>
      <trkpt lat="44.18332" lon="5.30303">
        <ele>766.5</ele>
        <time>2026-05-14T07:34:24.000Z</time>
      </trkpt>
      <trkpt lat="44.18333" lon="5.30301">
        <ele>766.5</ele>
        <time>2026-05-14T07:34:25.000Z</time>
      </trkpt>
      <trkpt lat="44.18335" lon="5.303">
        <ele>766.6</ele>
        <time>2026-05-14T07:34:26.000Z</time>
      </trkpt>
      <trkpt lat="44.18337" lon="5.30299">
        <ele>766.7</ele>
        <time>2026-05-14T07:34:27.000Z</time>
      </trkpt>
      <trkpt lat="44.18337" lon="5.30299">
        <ele>766.7</ele>
        <time>2026-05-14T07:34:28.000Z</time>
      </trkpt>
      <trkpt lat="44.18337" lon="5.30299">
        <ele>768.1</ele>
        <time>2026-05-14T07:34:29.000Z</time>
      </trkpt>
      <trkpt lat="44.18339" lon="5.30298">
        <ele>768.4</ele>
        <time>2026-05-14T07:34:30.000Z</time>
      </trkpt>
      <trkpt lat="44.18339" lon="5.30299">
        <ele>769.5</ele>
        <time>2026-05-14T07:34:31.000Z</time>
      </trkpt>
      <trkpt lat="44.1834" lon="5.30299">
        <ele>770.5</ele>
        <time>2026-05-14T07:34:32.000Z</time>
      </trkpt>
      <trkpt lat="44.18339" lon="5.303">
        <ele>771.3</ele>
        <time>2026-05-14T07:34:33.000Z</time>
      </trkpt>
      <trkpt lat="44.18339" lon="5.303">
        <ele>771.5</ele>
        <time>2026-05-14T07:34:34.000Z</time>
      </trkpt>
      <trkpt lat="44.1834" lon="5.30299">
        <ele>772.4</ele>
        <time>2026-05-14T07:34:35.000Z</time>
      </trkpt>
      <trkpt lat="44.18341" lon="5.30299">
        <ele>771.9</ele>
        <time>2026-05-14T07:34:36.000Z</time>
      </trkpt>
      <trkpt lat="44.18341" lon="5.30299">
        <ele>773.6</ele>
        <time>2026-05-14T07:34:37.000Z</time>
      </trkpt>
      <trkpt lat="44.18342" lon="5.30298">
        <ele>774</ele>
        <time>2026-05-14T07:34:38.000Z</time>
      </trkpt>
      <trkpt lat="44.18343" lon="5.30299">
        <ele>774.9</ele>
        <time>2026-05-14T07:34:39.000Z</time>
      </trkpt>
      <trkpt lat="44.18344" lon="5.30299">
        <ele>775.6</ele>
        <time>2026-05-14T07:34:40.000Z</time>
      </trkpt>
      <trkpt lat="44.18347" lon="5.30298">
        <ele>776.2</ele>
        <time>2026-05-14T07:34:41.000Z</time>
      </trkpt>
      <trkpt lat="44.18348" lon="5.30297">
        <ele>776.4</ele>
        <time>2026-05-14T07:34:42.000Z</time>
      </trkpt>
      <trkpt lat="44.18349" lon="5.30297">
        <ele>776.8</ele>
        <time>2026-05-14T07:34:43.000Z</time>
      </trkpt>
      <trkpt lat="44.18349" lon="5.30297">
        <ele>777.4</ele>
        <time>2026-05-14T07:34:44.000Z</time>
      </trkpt>
      <trkpt lat="44.18351" lon="5.30297">
        <ele>778</ele>
        <time>2026-05-14T07:34:45.000Z</time>
      </trkpt>
      <trkpt lat="44.18353" lon="5.30296">
        <ele>778.3</ele>
        <time>2026-05-14T07:34:46.000Z</time>
      </trkpt>
      <trkpt lat="44.18355" lon="5.30295">
        <ele>778.5</ele>
        <time>2026-05-14T07:34:47.000Z</time>
      </trkpt>
      <trkpt lat="44.18357" lon="5.30294">
        <ele>779.6</ele>
        <time>2026-05-14T07:34:48.000Z</time>
      </trkpt>
      <trkpt lat="44.18358" lon="5.30293">
        <ele>780.3</ele>
        <time>2026-05-14T07:34:49.000Z</time>
      </trkpt>
      <trkpt lat="44.18359" lon="5.30292">
        <ele>780.8</ele>
        <time>2026-05-14T07:34:50.000Z</time>
      </trkpt>
      <trkpt lat="44.1836" lon="5.30292">
        <ele>780.8</ele>
        <time>2026-05-14T07:34:51.000Z</time>
      </trkpt>
      <trkpt lat="44.18361" lon="5.30291">
        <ele>780.2</ele>
        <time>2026-05-14T07:34:52.000Z</time>
      </trkpt>
      <trkpt lat="44.18363" lon="5.3029">
        <ele>779.1</ele>
        <time>2026-05-14T07:34:53.000Z</time>
      </trkpt>
      <trkpt lat="44.18364" lon="5.30289">
        <ele>778.9</ele>
        <time>2026-05-14T07:34:54.000Z</time>
      </trkpt>
      <trkpt lat="44.18364" lon="5.30289">
        <ele>778.5</ele>
        <time>2026-05-14T07:34:55.000Z</time>
      </trkpt>
      <trkpt lat="44.18365" lon="5.30289">
        <ele>778.3</ele>
        <time>2026-05-14T07:34:56.000Z</time>
      </trkpt>
      <trkpt lat="44.18364" lon="5.30288">
        <ele>778.1</ele>
        <time>2026-05-14T07:34:57.000Z</time>
      </trkpt>
      <trkpt lat="44.18365" lon="5.30288">
        <ele>778</ele>
        <time>2026-05-14T07:34:58.000Z</time>
      </trkpt>
      <trkpt lat="44.18366" lon="5.30288">
        <ele>778.3</ele>
        <time>2026-05-14T07:34:59.000Z</time>
      </trkpt>
      <trkpt lat="44.18367" lon="5.30288">
        <ele>778</ele>
        <time>2026-05-14T07:35:00.000Z</time>
      </trkpt>
      <trkpt lat="44.18367" lon="5.30288">
        <ele>777.3</ele>
        <time>2026-05-14T07:35:01.000Z</time>
      </trkpt>
      <trkpt lat="44.18369" lon="5.30287">
        <ele>777.2</ele>
        <time>2026-05-14T07:35:02.000Z</time>
      </trkpt>
      <trkpt lat="44.1837" lon="5.30287">
        <ele>777.1</ele>
        <time>2026-05-14T07:35:03.000Z</time>
      </trkpt>
      <trkpt lat="44.18371" lon="5.30288">
        <ele>777</ele>
        <time>2026-05-14T07:35:04.000Z</time>
      </trkpt>
      <trkpt lat="44.18372" lon="5.30288">
        <ele>776.2</ele>
        <time>2026-05-14T07:35:05.000Z</time>
      </trkpt>
      <trkpt lat="44.18373" lon="5.30289">
        <ele>776</ele>
        <time>2026-05-14T07:35:06.000Z</time>
      </trkpt>
      <trkpt lat="44.18375" lon="5.30289">
        <ele>776.2</ele>
        <time>2026-05-14T07:35:07.000Z</time>
      </trkpt>
      <trkpt lat="44.18377" lon="5.30289">
        <ele>776.6</ele>
        <time>2026-05-14T07:35:08.000Z</time>
      </trkpt>
      <trkpt lat="44.18379" lon="5.30289">
        <ele>777</ele>
        <time>2026-05-14T07:35:09.000Z</time>
      </trkpt>
      <trkpt lat="44.18381" lon="5.30289">
        <ele>777.1</ele>
        <time>2026-05-14T07:35:10.000Z</time>
      </trkpt>
      <trkpt lat="44.18383" lon="5.30288">
        <ele>777</ele>
        <time>2026-05-14T07:35:11.000Z</time>
      </trkpt>
      <trkpt lat="44.18385" lon="5.30288">
        <ele>776.9</ele>
        <time>2026-05-14T07:35:12.000Z</time>
      </trkpt>
      <trkpt lat="44.18387" lon="5.30287">
        <ele>776.8</ele>
        <time>2026-05-14T07:35:13.000Z</time>
      </trkpt>
      <trkpt lat="44.18389" lon="5.30287">
        <ele>776.9</ele>
        <time>2026-05-14T07:35:14.000Z</time>
      </trkpt>
      <trkpt lat="44.1839" lon="5.30287">
        <ele>776.9</ele>
        <time>2026-05-14T07:35:15.000Z</time>
      </trkpt>
      <trkpt lat="44.18392" lon="5.30288">
        <ele>776.4</ele>
        <time>2026-05-14T07:35:16.000Z</time>
      </trkpt>
      <trkpt lat="44.18393" lon="5.30289">
        <ele>776.3</ele>
        <time>2026-05-14T07:35:17.000Z</time>
      </trkpt>
      <trkpt lat="44.18394" lon="5.3029">
        <ele>776.5</ele>
        <time>2026-05-14T07:35:18.000Z</time>
      </trkpt>
      <trkpt lat="44.18395" lon="5.3029">
        <ele>776.6</ele>
        <time>2026-05-14T07:35:19.000Z</time>
      </trkpt>
      <trkpt lat="44.18397" lon="5.30291">
        <ele>776.8</ele>
        <time>2026-05-14T07:35:20.000Z</time>
      </trkpt>
      <trkpt lat="44.18398" lon="5.30291">
        <ele>776.6</ele>
        <time>2026-05-14T07:35:21.000Z</time>
      </trkpt>
      <trkpt lat="44.18399" lon="5.30291">
        <ele>776.1</ele>
        <time>2026-05-14T07:35:22.000Z</time>
      </trkpt>
      <trkpt lat="44.184" lon="5.30291">
        <ele>776</ele>
        <time>2026-05-14T07:35:23.000Z</time>
      </trkpt>
      <trkpt lat="44.18401" lon="5.30292">
        <ele>776.1</ele>
        <time>2026-05-14T07:35:24.000Z</time>
      </trkpt>
      <trkpt lat="44.18402" lon="5.30293">
        <ele>776.7</ele>
        <time>2026-05-14T07:35:25.000Z</time>
      </trkpt>
      <trkpt lat="44.18404" lon="5.30294">
        <ele>777.1</ele>
        <time>2026-05-14T07:35:26.000Z</time>
      </trkpt>
      <trkpt lat="44.18406" lon="5.30295">
        <ele>777.6</ele>
        <time>2026-05-14T07:35:27.000Z</time>
      </trkpt>
      <trkpt lat="44.18408" lon="5.30297">
        <ele>778.1</ele>
        <time>2026-05-14T07:35:28.000Z</time>
      </trkpt>
      <trkpt lat="44.18409" lon="5.30297">
        <ele>778.5</ele>
        <time>2026-05-14T07:35:29.000Z</time>
      </trkpt>
      <trkpt lat="44.1841" lon="5.30297">
        <ele>778.8</ele>
        <time>2026-05-14T07:35:30.000Z</time>
      </trkpt>
      <trkpt lat="44.18411" lon="5.30297">
        <ele>779.6</ele>
        <time>2026-05-14T07:35:31.000Z</time>
      </trkpt>
      <trkpt lat="44.18412" lon="5.30297">
        <ele>779.5</ele>
        <time>2026-05-14T07:35:32.000Z</time>
      </trkpt>
      <trkpt lat="44.18416" lon="5.30298">
        <ele>780.9</ele>
        <time>2026-05-14T07:35:33.000Z</time>
      </trkpt>
      <trkpt lat="44.18418" lon="5.30298">
        <ele>781.9</ele>
        <time>2026-05-14T07:35:34.000Z</time>
      </trkpt>
      <trkpt lat="44.1842" lon="5.30299">
        <ele>782.7</ele>
        <time>2026-05-14T07:35:35.000Z</time>
      </trkpt>
      <trkpt lat="44.18421" lon="5.30299">
        <ele>783.5</ele>
        <time>2026-05-14T07:35:36.000Z</time>
      </trkpt>
      <trkpt lat="44.18423" lon="5.30299">
        <ele>784.5</ele>
        <time>2026-05-14T07:35:37.000Z</time>
      </trkpt>
      <trkpt lat="44.18425" lon="5.303">
        <ele>785.2</ele>
        <time>2026-05-14T07:35:38.000Z</time>
      </trkpt>
      <trkpt lat="44.18426" lon="5.303">
        <ele>785.9</ele>
        <time>2026-05-14T07:35:39.000Z</time>
      </trkpt>
      <trkpt lat="44.18428" lon="5.303">
        <ele>786</ele>
        <time>2026-05-14T07:35:40.000Z</time>
      </trkpt>
      <trkpt lat="44.18429" lon="5.303">
        <ele>785.9</ele>
        <time>2026-05-14T07:35:41.000Z</time>
      </trkpt>
      <trkpt lat="44.18431" lon="5.30301">
        <ele>786.4</ele>
        <time>2026-05-14T07:35:42.000Z</time>
      </trkpt>
      <trkpt lat="44.18433" lon="5.303">
        <ele>786.6</ele>
        <time>2026-05-14T07:35:43.000Z</time>
      </trkpt>
      <trkpt lat="44.18435" lon="5.30299">
        <ele>786.7</ele>
        <time>2026-05-14T07:35:44.000Z</time>
      </trkpt>
      <trkpt lat="44.18436" lon="5.30298">
        <ele>786.7</ele>
        <time>2026-05-14T07:35:45.000Z</time>
      </trkpt>
      <trkpt lat="44.18437" lon="5.30297">
        <ele>787.1</ele>
        <time>2026-05-14T07:35:46.000Z</time>
      </trkpt>
      <trkpt lat="44.18437" lon="5.30298">
        <ele>788.6</ele>
        <time>2026-05-14T07:35:47.000Z</time>
      </trkpt>
      <trkpt lat="44.18437" lon="5.30298">
        <ele>788.7</ele>
        <time>2026-05-14T07:35:48.000Z</time>
      </trkpt>
      <trkpt lat="44.18439" lon="5.30297">
        <ele>789</ele>
        <time>2026-05-14T07:35:49.000Z</time>
      </trkpt>
      <trkpt lat="44.18439" lon="5.30297">
        <ele>790.9</ele>
        <time>2026-05-14T07:35:50.000Z</time>
      </trkpt>
      <trkpt lat="44.1844" lon="5.30297">
        <ele>792.5</ele>
        <time>2026-05-14T07:35:51.000Z</time>
      </trkpt>
      <trkpt lat="44.1844" lon="5.30297">
        <ele>793.1</ele>
        <time>2026-05-14T07:35:52.000Z</time>
      </trkpt>
      <trkpt lat="44.18442" lon="5.30297">
        <ele>793.4</ele>
        <time>2026-05-14T07:35:53.000Z</time>
      </trkpt>
      <trkpt lat="44.18443" lon="5.30296">
        <ele>793.5</ele>
        <time>2026-05-14T07:35:54.000Z</time>
      </trkpt>
      <trkpt lat="44.18445" lon="5.30295">
        <ele>793.3</ele>
        <time>2026-05-14T07:35:55.000Z</time>
      </trkpt>
      <trkpt lat="44.18446" lon="5.30294">
        <ele>793.9</ele>
        <time>2026-05-14T07:35:56.000Z</time>
      </trkpt>
      <trkpt lat="44.18447" lon="5.30293">
        <ele>794.9</ele>
        <time>2026-05-14T07:35:57.000Z</time>
      </trkpt>
      <trkpt lat="44.18448" lon="5.30293">
        <ele>795.9</ele>
        <time>2026-05-14T07:35:58.000Z</time>
      </trkpt>
      <trkpt lat="44.18448" lon="5.30293">
        <ele>796.5</ele>
        <time>2026-05-14T07:35:59.000Z</time>
      </trkpt>
      <trkpt lat="44.18448" lon="5.30293">
        <ele>796.5</ele>
        <time>2026-05-14T07:36:00.000Z</time>
      </trkpt>
      <trkpt lat="44.18451" lon="5.30293">
        <ele>796.7</ele>
        <time>2026-05-14T07:36:01.000Z</time>
      </trkpt>
      <trkpt lat="44.18452" lon="5.30292">
        <ele>796.7</ele>
        <time>2026-05-14T07:36:02.000Z</time>
      </trkpt>
      <trkpt lat="44.18454" lon="5.30291">
        <ele>796.4</ele>
        <time>2026-05-14T07:36:03.000Z</time>
      </trkpt>
      <trkpt lat="44.18455" lon="5.3029">
        <ele>797</ele>
        <time>2026-05-14T07:36:04.000Z</time>
      </trkpt>
      <trkpt lat="44.18455" lon="5.3029">
        <ele>797.1</ele>
        <time>2026-05-14T07:36:05.000Z</time>
      </trkpt>
      <trkpt lat="44.18455" lon="5.3029">
        <ele>797.1</ele>
        <time>2026-05-14T07:36:06.000Z</time>
      </trkpt>
      <trkpt lat="44.18455" lon="5.3029">
        <ele>797.1</ele>
        <time>2026-05-14T07:36:07.000Z</time>
      </trkpt>
      <trkpt lat="44.18455" lon="5.30289">
        <ele>796.9</ele>
        <time>2026-05-14T07:36:08.000Z</time>
      </trkpt>
      <trkpt lat="44.18456" lon="5.30289">
        <ele>797.2</ele>
        <time>2026-05-14T07:36:09.000Z</time>
      </trkpt>
      <trkpt lat="44.18458" lon="5.30288">
        <ele>796.5</ele>
        <time>2026-05-14T07:36:10.999Z</time>
      </trkpt>
      <trkpt lat="44.18459" lon="5.30288">
        <ele>796.4</ele>
        <time>2026-05-14T07:36:11.999Z</time>
      </trkpt>
      <trkpt lat="44.1846" lon="5.30287">
        <ele>796.4</ele>
        <time>2026-05-14T07:36:12.999Z</time>
      </trkpt>
      <trkpt lat="44.1846" lon="5.30286">
        <ele>795.8</ele>
        <time>2026-05-14T07:36:13.999Z</time>
      </trkpt>
      <trkpt lat="44.18461" lon="5.30286">
        <ele>795.5</ele>
        <time>2026-05-14T07:36:14.999Z</time>
      </trkpt>
      <trkpt lat="44.18461" lon="5.30286">
        <ele>795.9</ele>
        <time>2026-05-14T07:36:15.999Z</time>
      </trkpt>
      <trkpt lat="44.18462" lon="5.30285">
        <ele>795.7</ele>
        <time>2026-05-14T07:36:16.999Z</time>
      </trkpt>
      <trkpt lat="44.18463" lon="5.30284">
        <ele>795.8</ele>
        <time>2026-05-14T07:36:17.999Z</time>
      </trkpt>
      <trkpt lat="44.18463" lon="5.30283">
        <ele>795.9</ele>
        <time>2026-05-14T07:36:18.999Z</time>
      </trkpt>
      <trkpt lat="44.18463" lon="5.30282">
        <ele>796</ele>
        <time>2026-05-14T07:36:19.999Z</time>
      </trkpt>
      <trkpt lat="44.18463" lon="5.30282">
        <ele>795.5</ele>
        <time>2026-05-14T07:36:20.999Z</time>
      </trkpt>
      <trkpt lat="44.18465" lon="5.3028">
        <ele>794.7</ele>
        <time>2026-05-14T07:36:21.999Z</time>
      </trkpt>
      <trkpt lat="44.18466" lon="5.30279">
        <ele>794.2</ele>
        <time>2026-05-14T07:36:22.999Z</time>
      </trkpt>
      <trkpt lat="44.18467" lon="5.30279">
        <ele>793.7</ele>
        <time>2026-05-14T07:36:23.999Z</time>
      </trkpt>
      <trkpt lat="44.18467" lon="5.30278">
        <ele>792.6</ele>
        <time>2026-05-14T07:36:24.999Z</time>
      </trkpt>
      <trkpt lat="44.18468" lon="5.30278">
        <ele>792.3</ele>
        <time>2026-05-14T07:36:25.999Z</time>
      </trkpt>
      <trkpt lat="44.18469" lon="5.30278">
        <ele>792</ele>
        <time>2026-05-14T07:36:26.999Z</time>
      </trkpt>
      <trkpt lat="44.1847" lon="5.30279">
        <ele>792.1</ele>
        <time>2026-05-14T07:36:27.999Z</time>
      </trkpt>
      <trkpt lat="44.18472" lon="5.30278">
        <ele>791.6</ele>
        <time>2026-05-14T07:36:28.999Z</time>
      </trkpt>
      <trkpt lat="44.18473" lon="5.30277">
        <ele>791.8</ele>
        <time>2026-05-14T07:36:29.999Z</time>
      </trkpt>
      <trkpt lat="44.18474" lon="5.30277">
        <ele>790.6</ele>
        <time>2026-05-14T07:36:30.999Z</time>
      </trkpt>
      <trkpt lat="44.18474" lon="5.30276">
        <ele>789.1</ele>
        <time>2026-05-14T07:36:31.999Z</time>
      </trkpt>
      <trkpt lat="44.18475" lon="5.30276">
        <ele>788.8</ele>
        <time>2026-05-14T07:36:32.999Z</time>
      </trkpt>
      <trkpt lat="44.18476" lon="5.30276">
        <ele>788.7</ele>
        <time>2026-05-14T07:36:33.999Z</time>
      </trkpt>
      <trkpt lat="44.18478" lon="5.30276">
        <ele>789.6</ele>
        <time>2026-05-14T07:36:34.999Z</time>
      </trkpt>
      <trkpt lat="44.1848" lon="5.30276">
        <ele>790.4</ele>
        <time>2026-05-14T07:36:35.999Z</time>
      </trkpt>
      <trkpt lat="44.18481" lon="5.30276">
        <ele>790.5</ele>
        <time>2026-05-14T07:36:36.999Z</time>
      </trkpt>
      <trkpt lat="44.18483" lon="5.30276">
        <ele>790.8</ele>
        <time>2026-05-14T07:36:37.999Z</time>
      </trkpt>
      <trkpt lat="44.18487" lon="5.30275">
        <ele>792.3</ele>
        <time>2026-05-14T07:36:38.999Z</time>
      </trkpt>
      <trkpt lat="44.18488" lon="5.30275">
        <ele>792.1</ele>
        <time>2026-05-14T07:36:39.999Z</time>
      </trkpt>
      <trkpt lat="44.18489" lon="5.30275">
        <ele>792.3</ele>
        <time>2026-05-14T07:36:40.999Z</time>
      </trkpt>
      <trkpt lat="44.18489" lon="5.30275">
        <ele>792.4</ele>
        <time>2026-05-14T07:36:41.999Z</time>
      </trkpt>
      <trkpt lat="44.1849" lon="5.30275">
        <ele>792.6</ele>
        <time>2026-05-14T07:36:42.999Z</time>
      </trkpt>
      <trkpt lat="44.18491" lon="5.30275">
        <ele>792.6</ele>
        <time>2026-05-14T07:36:43.999Z</time>
      </trkpt>
      <trkpt lat="44.18493" lon="5.30275">
        <ele>792.7</ele>
        <time>2026-05-14T07:36:44.999Z</time>
      </trkpt>
      <trkpt lat="44.18494" lon="5.30275">
        <ele>793</ele>
        <time>2026-05-14T07:36:45.999Z</time>
      </trkpt>
      <trkpt lat="44.18496" lon="5.30276">
        <ele>793</ele>
        <time>2026-05-14T07:36:46.999Z</time>
      </trkpt>
      <trkpt lat="44.18498" lon="5.30276">
        <ele>793</ele>
        <time>2026-05-14T07:36:47.999Z</time>
      </trkpt>
      <trkpt lat="44.18498" lon="5.30277">
        <ele>792.7</ele>
        <time>2026-05-14T07:36:48.999Z</time>
      </trkpt>
      <trkpt lat="44.185" lon="5.30277">
        <ele>792.4</ele>
        <time>2026-05-14T07:36:49.999Z</time>
      </trkpt>
      <trkpt lat="44.18501" lon="5.30279">
        <ele>793.2</ele>
        <time>2026-05-14T07:36:50.999Z</time>
      </trkpt>
      <trkpt lat="44.18505" lon="5.3028">
        <ele>794.4</ele>
        <time>2026-05-14T07:36:51.999Z</time>
      </trkpt>
      <trkpt lat="44.18505" lon="5.3028">
        <ele>794.5</ele>
        <time>2026-05-14T07:36:52.999Z</time>
      </trkpt>
      <trkpt lat="44.18507" lon="5.3028">
        <ele>795</ele>
        <time>2026-05-14T07:36:53.999Z</time>
      </trkpt>
      <trkpt lat="44.18509" lon="5.30281">
        <ele>795.7</ele>
        <time>2026-05-14T07:36:54.999Z</time>
      </trkpt>
      <trkpt lat="44.1851" lon="5.30282">
        <ele>795.8</ele>
        <time>2026-05-14T07:36:55.999Z</time>
      </trkpt>
      <trkpt lat="44.18511" lon="5.30283">
        <ele>796</ele>
        <time>2026-05-14T07:36:56.999Z</time>
      </trkpt>
      <trkpt lat="44.18511" lon="5.30283">
        <ele>796.5</ele>
        <time>2026-05-14T07:36:57.999Z</time>
      </trkpt>
      <trkpt lat="44.18512" lon="5.30283">
        <ele>795.9</ele>
        <time>2026-05-14T07:36:58.999Z</time>
      </trkpt>
      <trkpt lat="44.18512" lon="5.30284">
        <ele>796.4</ele>
        <time>2026-05-14T07:36:59.999Z</time>
      </trkpt>
      <trkpt lat="44.18513" lon="5.30286">
        <ele>796.9</ele>
        <time>2026-05-14T07:37:00.999Z</time>
      </trkpt>
      <trkpt lat="44.18514" lon="5.30287">
        <ele>796.6</ele>
        <time>2026-05-14T07:37:01.999Z</time>
      </trkpt>
      <trkpt lat="44.18514" lon="5.30289">
        <ele>796.7</ele>
        <time>2026-05-14T07:37:02.999Z</time>
      </trkpt>
      <trkpt lat="44.18516" lon="5.30289">
        <ele>796.9</ele>
        <time>2026-05-14T07:37:03.999Z</time>
      </trkpt>
      <trkpt lat="44.18518" lon="5.3029">
        <ele>797.4</ele>
        <time>2026-05-14T07:37:04.999Z</time>
      </trkpt>
      <trkpt lat="44.18519" lon="5.30292">
        <ele>798.2</ele>
        <time>2026-05-14T07:37:05.999Z</time>
      </trkpt>
      <trkpt lat="44.18519" lon="5.30293">
        <ele>798.2</ele>
        <time>2026-05-14T07:37:06.999Z</time>
      </trkpt>
      <trkpt lat="44.1852" lon="5.30294">
        <ele>798.3</ele>
        <time>2026-05-14T07:37:07.999Z</time>
      </trkpt>
      <trkpt lat="44.18521" lon="5.30294">
        <ele>798.3</ele>
        <time>2026-05-14T07:37:08.999Z</time>
      </trkpt>
      <trkpt lat="44.18521" lon="5.30295">
        <ele>798</ele>
        <time>2026-05-14T07:37:09.999Z</time>
      </trkpt>
      <trkpt lat="44.18522" lon="5.30295">
        <ele>797.5</ele>
        <time>2026-05-14T07:37:10.999Z</time>
      </trkpt>
      <trkpt lat="44.18523" lon="5.30297">
        <ele>797.4</ele>
        <time>2026-05-14T07:37:11.999Z</time>
      </trkpt>
      <trkpt lat="44.18523" lon="5.30299">
        <ele>797.2</ele>
        <time>2026-05-14T07:37:12.999Z</time>
      </trkpt>
      <trkpt lat="44.18524" lon="5.30301">
        <ele>797.1</ele>
        <time>2026-05-14T07:37:13.999Z</time>
      </trkpt>
      <trkpt lat="44.18524" lon="5.30302">
        <ele>797.1</ele>
        <time>2026-05-14T07:37:14.999Z</time>
      </trkpt>
      <trkpt lat="44.18525" lon="5.30303">
        <ele>796.9</ele>
        <time>2026-05-14T07:37:15.999Z</time>
      </trkpt>
      <trkpt lat="44.18526" lon="5.30305">
        <ele>797</ele>
        <time>2026-05-14T07:37:16.999Z</time>
      </trkpt>
      <trkpt lat="44.18527" lon="5.30307">
        <ele>796.9</ele>
        <time>2026-05-14T07:37:17.999Z</time>
      </trkpt>
      <trkpt lat="44.18528" lon="5.30308">
        <ele>797.2</ele>
        <time>2026-05-14T07:37:18.999Z</time>
      </trkpt>
      <trkpt lat="44.1853" lon="5.30309">
        <ele>797</ele>
        <time>2026-05-14T07:37:19.999Z</time>
      </trkpt>
      <trkpt lat="44.18531" lon="5.3031">
        <ele>797</ele>
        <time>2026-05-14T07:37:20.999Z</time>
      </trkpt>
      <trkpt lat="44.18532" lon="5.30311">
        <ele>796.8</ele>
        <time>2026-05-14T07:37:21.999Z</time>
      </trkpt>
      <trkpt lat="44.18532" lon="5.30311">
        <ele>796.7</ele>
        <time>2026-05-14T07:37:22.999Z</time>
      </trkpt>
      <trkpt lat="44.18533" lon="5.30313">
        <ele>796.4</ele>
        <time>2026-05-14T07:37:23.999Z</time>
      </trkpt>
      <trkpt lat="44.18534" lon="5.30314">
        <ele>797.3</ele>
        <time>2026-05-14T07:37:24.999Z</time>
      </trkpt>
      <trkpt lat="44.18535" lon="5.30315">
        <ele>797.5</ele>
        <time>2026-05-14T07:37:25.999Z</time>
      </trkpt>
      <trkpt lat="44.18535" lon="5.30317">
        <ele>797</ele>
        <time>2026-05-14T07:37:26.999Z</time>
      </trkpt>
      <trkpt lat="44.18536" lon="5.30318">
        <ele>796.5</ele>
        <time>2026-05-14T07:37:27.999Z</time>
      </trkpt>
      <trkpt lat="44.18537" lon="5.30319">
        <ele>796.1</ele>
        <time>2026-05-14T07:37:28.999Z</time>
      </trkpt>
      <trkpt lat="44.18538" lon="5.3032">
        <ele>795.6</ele>
        <time>2026-05-14T07:37:29.999Z</time>
      </trkpt>
      <trkpt lat="44.18539" lon="5.30322">
        <ele>795.4</ele>
        <time>2026-05-14T07:37:30.999Z</time>
      </trkpt>
      <trkpt lat="44.1854" lon="5.30323">
        <ele>795.3</ele>
        <time>2026-05-14T07:37:31.999Z</time>
      </trkpt>
      <trkpt lat="44.18541" lon="5.30324">
        <ele>795.1</ele>
        <time>2026-05-14T07:37:32.999Z</time>
      </trkpt>
      <trkpt lat="44.18541" lon="5.30324">
        <ele>795.3</ele>
        <time>2026-05-14T07:37:33.999Z</time>
      </trkpt>
      <trkpt lat="44.18541" lon="5.30325">
        <ele>795.4</ele>
        <time>2026-05-14T07:37:34.999Z</time>
      </trkpt>
      <trkpt lat="44.18542" lon="5.30327">
        <ele>796.2</ele>
        <time>2026-05-14T07:37:35.999Z</time>
      </trkpt>
      <trkpt lat="44.18543" lon="5.30328">
        <ele>796.2</ele>
        <time>2026-05-14T07:37:36.999Z</time>
      </trkpt>
      <trkpt lat="44.18543" lon="5.3033">
        <ele>797</ele>
        <time>2026-05-14T07:37:37.999Z</time>
      </trkpt>
      <trkpt lat="44.18543" lon="5.30331">
        <ele>796.9</ele>
        <time>2026-05-14T07:37:38.999Z</time>
      </trkpt>
      <trkpt lat="44.18543" lon="5.30335">
        <ele>798</ele>
        <time>2026-05-14T07:37:39.999Z</time>
      </trkpt>
      <trkpt lat="44.18543" lon="5.30338">
        <ele>799.1</ele>
        <time>2026-05-14T07:37:40.999Z</time>
      </trkpt>
      <trkpt lat="44.18543" lon="5.30342">
        <ele>800.2</ele>
        <time>2026-05-14T07:37:41.999Z</time>
      </trkpt>
      <trkpt lat="44.18542" lon="5.30344">
        <ele>800.7</ele>
        <time>2026-05-14T07:37:42.999Z</time>
      </trkpt>
      <trkpt lat="44.18542" lon="5.30346">
        <ele>801.2</ele>
        <time>2026-05-14T07:37:43.999Z</time>
      </trkpt>
      <trkpt lat="44.18543" lon="5.30347">
        <ele>801.7</ele>
        <time>2026-05-14T07:37:44.999Z</time>
      </trkpt>
      <trkpt lat="44.18544" lon="5.30347">
        <ele>801.9</ele>
        <time>2026-05-14T07:37:45.999Z</time>
      </trkpt>
      <trkpt lat="44.18545" lon="5.30348">
        <ele>802.1</ele>
        <time>2026-05-14T07:37:46.999Z</time>
      </trkpt>
      <trkpt lat="44.18547" lon="5.30349">
        <ele>802.4</ele>
        <time>2026-05-14T07:37:47.999Z</time>
      </trkpt>
      <trkpt lat="44.18549" lon="5.3035">
        <ele>802.7</ele>
        <time>2026-05-14T07:37:48.999Z</time>
      </trkpt>
      <trkpt lat="44.18549" lon="5.3035">
        <ele>802.5</ele>
        <time>2026-05-14T07:37:49.999Z</time>
      </trkpt>
      <trkpt lat="44.18549" lon="5.30353">
        <ele>803.2</ele>
        <time>2026-05-14T07:37:50.999Z</time>
      </trkpt>
      <trkpt lat="44.18549" lon="5.30355">
        <ele>804</ele>
        <time>2026-05-14T07:37:51.999Z</time>
      </trkpt>
      <trkpt lat="44.1855" lon="5.30356">
        <ele>804.1</ele>
        <time>2026-05-14T07:37:52.999Z</time>
      </trkpt>
      <trkpt lat="44.1855" lon="5.30357">
        <ele>804.4</ele>
        <time>2026-05-14T07:37:53.999Z</time>
      </trkpt>
      <trkpt lat="44.18551" lon="5.30359">
        <ele>804.9</ele>
        <time>2026-05-14T07:37:54.999Z</time>
      </trkpt>
      <trkpt lat="44.18551" lon="5.30361">
        <ele>805</ele>
        <time>2026-05-14T07:37:55.999Z</time>
      </trkpt>
      <trkpt lat="44.18551" lon="5.30362">
        <ele>804.9</ele>
        <time>2026-05-14T07:37:56.999Z</time>
      </trkpt>
      <trkpt lat="44.18551" lon="5.30363">
        <ele>805</ele>
        <time>2026-05-14T07:37:57.999Z</time>
      </trkpt>
      <trkpt lat="44.18552" lon="5.30364">
        <ele>805.2</ele>
        <time>2026-05-14T07:37:58.999Z</time>
      </trkpt>
      <trkpt lat="44.18553" lon="5.30366">
        <ele>805.3</ele>
        <time>2026-05-14T07:37:59.999Z</time>
      </trkpt>
      <trkpt lat="44.18553" lon="5.30368">
        <ele>806.1</ele>
        <time>2026-05-14T07:38:00.999Z</time>
      </trkpt>
      <trkpt lat="44.18554" lon="5.3037">
        <ele>806.7</ele>
        <time>2026-05-14T07:38:01.999Z</time>
      </trkpt>
      <trkpt lat="44.18554" lon="5.30371">
        <ele>807.1</ele>
        <time>2026-05-14T07:38:02.999Z</time>
      </trkpt>
      <trkpt lat="44.18553" lon="5.30373">
        <ele>807.5</ele>
        <time>2026-05-14T07:38:03.999Z</time>
      </trkpt>
      <trkpt lat="44.18553" lon="5.30375">
        <ele>807.8</ele>
        <time>2026-05-14T07:38:04.999Z</time>
      </trkpt>
      <trkpt lat="44.18554" lon="5.30378">
        <ele>808.1</ele>
        <time>2026-05-14T07:38:05.999Z</time>
      </trkpt>
      <trkpt lat="44.18554" lon="5.30379">
        <ele>808</ele>
        <time>2026-05-14T07:38:06.999Z</time>
      </trkpt>
      <trkpt lat="44.18554" lon="5.30381">
        <ele>808.2</ele>
        <time>2026-05-14T07:38:07.999Z</time>
      </trkpt>
      <trkpt lat="44.18555" lon="5.30382">
        <ele>809</ele>
        <time>2026-05-14T07:38:08.999Z</time>
      </trkpt>
      <trkpt lat="44.18555" lon="5.30385">
        <ele>809.5</ele>
        <time>2026-05-14T07:38:09.999Z</time>
      </trkpt>
      <trkpt lat="44.18555" lon="5.30387">
        <ele>810.3</ele>
        <time>2026-05-14T07:38:10.999Z</time>
      </trkpt>
      <trkpt lat="44.18556" lon="5.30389">
        <ele>810.4</ele>
        <time>2026-05-14T07:38:11.999Z</time>
      </trkpt>
      <trkpt lat="44.18557" lon="5.30391">
        <ele>810.8</ele>
        <time>2026-05-14T07:38:12.999Z</time>
      </trkpt>
      <trkpt lat="44.18558" lon="5.30394">
        <ele>812.1</ele>
        <time>2026-05-14T07:38:13.999Z</time>
      </trkpt>
      <trkpt lat="44.18559" lon="5.30396">
        <ele>812.7</ele>
        <time>2026-05-14T07:38:14.999Z</time>
      </trkpt>
      <trkpt lat="44.18559" lon="5.30399">
        <ele>813.6</ele>
        <time>2026-05-14T07:38:15.999Z</time>
      </trkpt>
      <trkpt lat="44.1856" lon="5.304">
        <ele>813.4</ele>
        <time>2026-05-14T07:38:16.999Z</time>
      </trkpt>
      <trkpt lat="44.18561" lon="5.30401">
        <ele>813.1</ele>
        <time>2026-05-14T07:38:17.999Z</time>
      </trkpt>
      <trkpt lat="44.18562" lon="5.30402">
        <ele>813</ele>
        <time>2026-05-14T07:38:18.999Z</time>
      </trkpt>
      <trkpt lat="44.18563" lon="5.30404">
        <ele>812.8</ele>
        <time>2026-05-14T07:38:19.999Z</time>
      </trkpt>
      <trkpt lat="44.18563" lon="5.30405">
        <ele>812.9</ele>
        <time>2026-05-14T07:38:20.999Z</time>
      </trkpt>
      <trkpt lat="44.18564" lon="5.30407">
        <ele>812.8</ele>
        <time>2026-05-14T07:38:21.999Z</time>
      </trkpt>
      <trkpt lat="44.18564" lon="5.30408">
        <ele>813.4</ele>
        <time>2026-05-14T07:38:22.999Z</time>
      </trkpt>
      <trkpt lat="44.18565" lon="5.30409">
        <ele>813.5</ele>
        <time>2026-05-14T07:38:23.999Z</time>
      </trkpt>
      <trkpt lat="44.18565" lon="5.30411">
        <ele>813.4</ele>
        <time>2026-05-14T07:38:24.999Z</time>
      </trkpt>
      <trkpt lat="44.18565" lon="5.30412">
        <ele>812.5</ele>
        <time>2026-05-14T07:38:25.999Z</time>
      </trkpt>
      <trkpt lat="44.18566" lon="5.30414">
        <ele>812.3</ele>
        <time>2026-05-14T07:38:26.999Z</time>
      </trkpt>
      <trkpt lat="44.18566" lon="5.30415">
        <ele>813</ele>
        <time>2026-05-14T07:38:27.999Z</time>
      </trkpt>
      <trkpt lat="44.18566" lon="5.30416">
        <ele>814</ele>
        <time>2026-05-14T07:38:28.999Z</time>
      </trkpt>
      <trkpt lat="44.18566" lon="5.30419">
        <ele>814.5</ele>
        <time>2026-05-14T07:38:29.999Z</time>
      </trkpt>
      <trkpt lat="44.18566" lon="5.30422">
        <ele>814.8</ele>
        <time>2026-05-14T07:38:30.999Z</time>
      </trkpt>
      <trkpt lat="44.18567" lon="5.30423">
        <ele>815.1</ele>
        <time>2026-05-14T07:38:31.999Z</time>
      </trkpt>
      <trkpt lat="44.18567" lon="5.30425">
        <ele>815</ele>
        <time>2026-05-14T07:38:32.999Z</time>
      </trkpt>
      <trkpt lat="44.18567" lon="5.30427">
        <ele>815.3</ele>
        <time>2026-05-14T07:38:33.999Z</time>
      </trkpt>
      <trkpt lat="44.18567" lon="5.30428">
        <ele>815.3</ele>
        <time>2026-05-14T07:38:34.999Z</time>
      </trkpt>
      <trkpt lat="44.18567" lon="5.3043">
        <ele>815.4</ele>
        <time>2026-05-14T07:38:35.999Z</time>
      </trkpt>
      <trkpt lat="44.18568" lon="5.30431">
        <ele>815.5</ele>
        <time>2026-05-14T07:38:36.999Z</time>
      </trkpt>
      <trkpt lat="44.18569" lon="5.30433">
        <ele>815.6</ele>
        <time>2026-05-14T07:38:37.999Z</time>
      </trkpt>
      <trkpt lat="44.1857" lon="5.30434">
        <ele>815.6</ele>
        <time>2026-05-14T07:38:38.999Z</time>
      </trkpt>
      <trkpt lat="44.1857" lon="5.30436">
        <ele>815.8</ele>
        <time>2026-05-14T07:38:39.999Z</time>
      </trkpt>
      <trkpt lat="44.1857" lon="5.30437">
        <ele>816</ele>
        <time>2026-05-14T07:38:40.999Z</time>
      </trkpt>
      <trkpt lat="44.1857" lon="5.30438">
        <ele>816.2</ele>
        <time>2026-05-14T07:38:41.999Z</time>
      </trkpt>
      <trkpt lat="44.18571" lon="5.30438">
        <ele>816</ele>
        <time>2026-05-14T07:38:42.999Z</time>
      </trkpt>
      <trkpt lat="44.18572" lon="5.30439">
        <ele>815.6</ele>
        <time>2026-05-14T07:38:43.999Z</time>
      </trkpt>
      <trkpt lat="44.18573" lon="5.30439">
        <ele>815.4</ele>
        <time>2026-05-14T07:38:44.999Z</time>
      </trkpt>
      <trkpt lat="44.18575" lon="5.30439">
        <ele>814.7</ele>
        <time>2026-05-14T07:38:45.999Z</time>
      </trkpt>
      <trkpt lat="44.18576" lon="5.3044">
        <ele>814.7</ele>
        <time>2026-05-14T07:38:46.999Z</time>
      </trkpt>
      <trkpt lat="44.18575" lon="5.30443">
        <ele>814.9</ele>
        <time>2026-05-14T07:38:47.999Z</time>
      </trkpt>
      <trkpt lat="44.18576" lon="5.30444">
        <ele>815.3</ele>
        <time>2026-05-14T07:38:48.999Z</time>
      </trkpt>
      <trkpt lat="44.18576" lon="5.30446">
        <ele>815.7</ele>
        <time>2026-05-14T07:38:49.999Z</time>
      </trkpt>
      <trkpt lat="44.18577" lon="5.30446">
        <ele>815.8</ele>
        <time>2026-05-14T07:38:50.999Z</time>
      </trkpt>
      <trkpt lat="44.18577" lon="5.30447">
        <ele>815.4</ele>
        <time>2026-05-14T07:38:51.999Z</time>
      </trkpt>
      <trkpt lat="44.18578" lon="5.30448">
        <ele>815</ele>
        <time>2026-05-14T07:38:52.999Z</time>
      </trkpt>
      <trkpt lat="44.18579" lon="5.30449">
        <ele>814.8</ele>
        <time>2026-05-14T07:38:53.999Z</time>
      </trkpt>
      <trkpt lat="44.1858" lon="5.30451">
        <ele>814.6</ele>
        <time>2026-05-14T07:38:54.999Z</time>
      </trkpt>
      <trkpt lat="44.1858" lon="5.30451">
        <ele>814.5</ele>
        <time>2026-05-14T07:38:55.999Z</time>
      </trkpt>
      <trkpt lat="44.18581" lon="5.30452">
        <ele>814.3</ele>
        <time>2026-05-14T07:38:56.999Z</time>
      </trkpt>
      <trkpt lat="44.1858" lon="5.30454">
        <ele>814</ele>
        <time>2026-05-14T07:38:57.999Z</time>
      </trkpt>
      <trkpt lat="44.18581" lon="5.30456">
        <ele>813.5</ele>
        <time>2026-05-14T07:38:58.999Z</time>
      </trkpt>
      <trkpt lat="44.18582" lon="5.30458">
        <ele>813.4</ele>
        <time>2026-05-14T07:38:59.999Z</time>
      </trkpt>
      <trkpt lat="44.18582" lon="5.30459">
        <ele>812.9</ele>
        <time>2026-05-14T07:39:00.999Z</time>
      </trkpt>
      <trkpt lat="44.18583" lon="5.3046">
        <ele>812.7</ele>
        <time>2026-05-14T07:39:01.999Z</time>
      </trkpt>
      <trkpt lat="44.18583" lon="5.30461">
        <ele>812.4</ele>
        <time>2026-05-14T07:39:02.999Z</time>
      </trkpt>
      <trkpt lat="44.18584" lon="5.30462">
        <ele>811.5</ele>
        <time>2026-05-14T07:39:03.999Z</time>
      </trkpt>
      <trkpt lat="44.18584" lon="5.30463">
        <ele>810.8</ele>
        <time>2026-05-14T07:39:04.999Z</time>
      </trkpt>
      <trkpt lat="44.18584" lon="5.30466">
        <ele>810.5</ele>
        <time>2026-05-14T07:39:05.999Z</time>
      </trkpt>
      <trkpt lat="44.18584" lon="5.30467">
        <ele>810.9</ele>
        <time>2026-05-14T07:39:06.999Z</time>
      </trkpt>
      <trkpt lat="44.18584" lon="5.30468">
        <ele>810.7</ele>
        <time>2026-05-14T07:39:07.999Z</time>
      </trkpt>
      <trkpt lat="44.18583" lon="5.30472">
        <ele>811.6</ele>
        <time>2026-05-14T07:39:08.999Z</time>
      </trkpt>
      <trkpt lat="44.18583" lon="5.30476">
        <ele>812.7</ele>
        <time>2026-05-14T07:39:09.999Z</time>
      </trkpt>
      <trkpt lat="44.18583" lon="5.30477">
        <ele>812.9</ele>
        <time>2026-05-14T07:39:10.999Z</time>
      </trkpt>
      <trkpt lat="44.18584" lon="5.30479">
        <ele>813.3</ele>
        <time>2026-05-14T07:39:11.999Z</time>
      </trkpt>
      <trkpt lat="44.18584" lon="5.30481">
        <ele>813.8</ele>
        <time>2026-05-14T07:39:12.999Z</time>
      </trkpt>
      <trkpt lat="44.18584" lon="5.30482">
        <ele>813.9</ele>
        <time>2026-05-14T07:39:13.999Z</time>
      </trkpt>
      <trkpt lat="44.18583" lon="5.30484">
        <ele>814.4</ele>
        <time>2026-05-14T07:39:14.999Z</time>
      </trkpt>
      <trkpt lat="44.18584" lon="5.30485">
        <ele>814.9</ele>
        <time>2026-05-14T07:39:15.999Z</time>
      </trkpt>
      <trkpt lat="44.18584" lon="5.30487">
        <ele>815.2</ele>
        <time>2026-05-14T07:39:16.999Z</time>
      </trkpt>
      <trkpt lat="44.18585" lon="5.30489">
        <ele>815.5</ele>
        <time>2026-05-14T07:39:17.999Z</time>
      </trkpt>
      <trkpt lat="44.18585" lon="5.3049">
        <ele>815.7</ele>
        <time>2026-05-14T07:39:18.999Z</time>
      </trkpt>
      <trkpt lat="44.18586" lon="5.30492">
        <ele>815.7</ele>
        <time>2026-05-14T07:39:19.999Z</time>
      </trkpt>
      <trkpt lat="44.18587" lon="5.30492">
        <ele>816.1</ele>
        <time>2026-05-14T07:39:20.999Z</time>
      </trkpt>
      <trkpt lat="44.18587" lon="5.30494">
        <ele>816.6</ele>
        <time>2026-05-14T07:39:21.999Z</time>
      </trkpt>
      <trkpt lat="44.18587" lon="5.30495">
        <ele>816.5</ele>
        <time>2026-05-14T07:39:22.999Z</time>
      </trkpt>
      <trkpt lat="44.18588" lon="5.30496">
        <ele>816.1</ele>
        <time>2026-05-14T07:39:23.999Z</time>
      </trkpt>
      <trkpt lat="44.18589" lon="5.30497">
        <ele>815.6</ele>
        <time>2026-05-14T07:39:24.999Z</time>
      </trkpt>
      <trkpt lat="44.18588" lon="5.305">
        <ele>815.7</ele>
        <time>2026-05-14T07:39:25.999Z</time>
      </trkpt>
      <trkpt lat="44.18589" lon="5.30502">
        <ele>815.6</ele>
        <time>2026-05-14T07:39:26.999Z</time>
      </trkpt>
      <trkpt lat="44.18589" lon="5.30502">
        <ele>815.1</ele>
        <time>2026-05-14T07:39:27.999Z</time>
      </trkpt>
      <trkpt lat="44.1859" lon="5.30503">
        <ele>814.9</ele>
        <time>2026-05-14T07:39:28.999Z</time>
      </trkpt>
      <trkpt lat="44.1859" lon="5.30505">
        <ele>815.2</ele>
        <time>2026-05-14T07:39:29.999Z</time>
      </trkpt>
      <trkpt lat="44.1859" lon="5.30508">
        <ele>814.9</ele>
        <time>2026-05-14T07:39:30.999Z</time>
      </trkpt>
      <trkpt lat="44.18591" lon="5.3051">
        <ele>815.4</ele>
        <time>2026-05-14T07:39:31.999Z</time>
      </trkpt>
      <trkpt lat="44.1859" lon="5.30512">
        <ele>815.9</ele>
        <time>2026-05-14T07:39:32.999Z</time>
      </trkpt>
      <trkpt lat="44.1859" lon="5.30514">
        <ele>816.7</ele>
        <time>2026-05-14T07:39:33.999Z</time>
      </trkpt>
      <trkpt lat="44.1859" lon="5.30516">
        <ele>816.9</ele>
        <time>2026-05-14T07:39:34.999Z</time>
      </trkpt>
      <trkpt lat="44.1859" lon="5.30518">
        <ele>816.5</ele>
        <time>2026-05-14T07:39:35.999Z</time>
      </trkpt>
      <trkpt lat="44.1859" lon="5.3052">
        <ele>816.8</ele>
        <time>2026-05-14T07:39:36.999Z</time>
      </trkpt>
      <trkpt lat="44.1859" lon="5.30522">
        <ele>817.1</ele>
        <time>2026-05-14T07:39:37.999Z</time>
      </trkpt>
      <trkpt lat="44.1859" lon="5.30523">
        <ele>817.3</ele>
        <time>2026-05-14T07:39:38.999Z</time>
      </trkpt>
      <trkpt lat="44.18591" lon="5.30524">
        <ele>817.6</ele>
        <time>2026-05-14T07:39:39.999Z</time>
      </trkpt>
      <trkpt lat="44.18591" lon="5.30526">
        <ele>817.9</ele>
        <time>2026-05-14T07:39:40.999Z</time>
      </trkpt>
      <trkpt lat="44.18592" lon="5.30527">
        <ele>818.6</ele>
        <time>2026-05-14T07:39:41.999Z</time>
      </trkpt>
      <trkpt lat="44.18592" lon="5.30528">
        <ele>819.4</ele>
        <time>2026-05-14T07:39:42.999Z</time>
      </trkpt>
      <trkpt lat="44.18592" lon="5.3053">
        <ele>819.6</ele>
        <time>2026-05-14T07:39:43.999Z</time>
      </trkpt>
      <trkpt lat="44.18593" lon="5.30531">
        <ele>819.8</ele>
        <time>2026-05-14T07:39:44.999Z</time>
      </trkpt>
      <trkpt lat="44.18593" lon="5.30532">
        <ele>820</ele>
        <time>2026-05-14T07:39:45.999Z</time>
      </trkpt>
      <trkpt lat="44.18593" lon="5.30534">
        <ele>820.5</ele>
        <time>2026-05-14T07:39:46.999Z</time>
      </trkpt>
      <trkpt lat="44.18593" lon="5.30536">
        <ele>821.1</ele>
        <time>2026-05-14T07:39:47.999Z</time>
      </trkpt>
      <trkpt lat="44.18593" lon="5.30537">
        <ele>821.4</ele>
        <time>2026-05-14T07:39:48.999Z</time>
      </trkpt>
      <trkpt lat="44.18593" lon="5.30539">
        <ele>821.9</ele>
        <time>2026-05-14T07:39:49.999Z</time>
      </trkpt>
      <trkpt lat="44.18594" lon="5.3054">
        <ele>822.1</ele>
        <time>2026-05-14T07:39:50.999Z</time>
      </trkpt>
      <trkpt lat="44.18595" lon="5.30542">
        <ele>822.1</ele>
        <time>2026-05-14T07:39:51.999Z</time>
      </trkpt>
      <trkpt lat="44.18596" lon="5.30543">
        <ele>821.7</ele>
        <time>2026-05-14T07:39:52.999Z</time>
      </trkpt>
      <trkpt lat="44.18596" lon="5.30545">
        <ele>822.1</ele>
        <time>2026-05-14T07:39:53.999Z</time>
      </trkpt>
      <trkpt lat="44.18597" lon="5.30547">
        <ele>822.5</ele>
        <time>2026-05-14T07:39:54.999Z</time>
      </trkpt>
      <trkpt lat="44.18597" lon="5.30547">
        <ele>822.1</ele>
        <time>2026-05-14T07:39:55.999Z</time>
      </trkpt>
      <trkpt lat="44.18598" lon="5.30549">
        <ele>822.1</ele>
        <time>2026-05-14T07:39:56.999Z</time>
      </trkpt>
      <trkpt lat="44.18598" lon="5.3055">
        <ele>821.9</ele>
        <time>2026-05-14T07:39:57.999Z</time>
      </trkpt>
      <trkpt lat="44.18599" lon="5.30552">
        <ele>821.9</ele>
        <time>2026-05-14T07:39:58.999Z</time>
      </trkpt>
      <trkpt lat="44.18599" lon="5.30553">
        <ele>822.4</ele>
        <time>2026-05-14T07:39:59.999Z</time>
      </trkpt>
      <trkpt lat="44.186" lon="5.30553">
        <ele>822.2</ele>
        <time>2026-05-14T07:40:00.999Z</time>
      </trkpt>
      <trkpt lat="44.186" lon="5.30554">
        <ele>821.6</ele>
        <time>2026-05-14T07:40:01.999Z</time>
      </trkpt>
      <trkpt lat="44.18601" lon="5.30554">
        <ele>821.2</ele>
        <time>2026-05-14T07:40:02.999Z</time>
      </trkpt>
      <trkpt lat="44.18601" lon="5.30556">
        <ele>821.1</ele>
        <time>2026-05-14T07:40:03.999Z</time>
      </trkpt>
      <trkpt lat="44.18602" lon="5.30556">
        <ele>820.8</ele>
        <time>2026-05-14T07:40:04.999Z</time>
      </trkpt>
      <trkpt lat="44.18601" lon="5.30556">
        <ele>820.7</ele>
        <time>2026-05-14T07:40:05.999Z</time>
      </trkpt>
      <trkpt lat="44.18601" lon="5.30557">
        <ele>820.8</ele>
        <time>2026-05-14T07:40:06.999Z</time>
      </trkpt>
      <trkpt lat="44.186" lon="5.30558">
        <ele>820.9</ele>
        <time>2026-05-14T07:40:07.999Z</time>
      </trkpt>
      <trkpt lat="44.18599" lon="5.3056">
        <ele>821.3</ele>
        <time>2026-05-14T07:40:08.999Z</time>
      </trkpt>
      <trkpt lat="44.18599" lon="5.30562">
        <ele>821.4</ele>
        <time>2026-05-14T07:40:09.999Z</time>
      </trkpt>
      <trkpt lat="44.186" lon="5.30564">
        <ele>821.5</ele>
        <time>2026-05-14T07:40:10.999Z</time>
      </trkpt>
      <trkpt lat="44.18601" lon="5.30566">
        <ele>821.7</ele>
        <time>2026-05-14T07:40:11.999Z</time>
      </trkpt>
      <trkpt lat="44.18602" lon="5.30567">
        <ele>822.2</ele>
        <time>2026-05-14T07:40:12.999Z</time>
      </trkpt>
      <trkpt lat="44.18603" lon="5.30567">
        <ele>822</ele>
        <time>2026-05-14T07:40:13.999Z</time>
      </trkpt>
      <trkpt lat="44.18603" lon="5.30568">
        <ele>821.5</ele>
        <time>2026-05-14T07:40:14.999Z</time>
      </trkpt>
      <trkpt lat="44.18604" lon="5.30569">
        <ele>821</ele>
        <time>2026-05-14T07:40:15.999Z</time>
      </trkpt>
      <trkpt lat="44.18605" lon="5.30571">
        <ele>820.6</ele>
        <time>2026-05-14T07:40:16.999Z</time>
      </trkpt>
      <trkpt lat="44.18605" lon="5.30573">
        <ele>820.4</ele>
        <time>2026-05-14T07:40:17.999Z</time>
      </trkpt>
      <trkpt lat="44.18605" lon="5.30575">
        <ele>820.5</ele>
        <time>2026-05-14T07:40:18.999Z</time>
      </trkpt>
      <trkpt lat="44.18605" lon="5.30577">
        <ele>820.4</ele>
        <time>2026-05-14T07:40:19.999Z</time>
      </trkpt>
      <trkpt lat="44.18606" lon="5.30578">
        <ele>820.2</ele>
        <time>2026-05-14T07:40:20.999Z</time>
      </trkpt>
      <trkpt lat="44.18606" lon="5.30579">
        <ele>820</ele>
        <time>2026-05-14T07:40:21.999Z</time>
      </trkpt>
      <trkpt lat="44.18607" lon="5.30581">
        <ele>819.3</ele>
        <time>2026-05-14T07:40:22.999Z</time>
      </trkpt>
      <trkpt lat="44.18608" lon="5.30583">
        <ele>819</ele>
        <time>2026-05-14T07:40:23.999Z</time>
      </trkpt>
      <trkpt lat="44.18608" lon="5.30586">
        <ele>819.5</ele>
        <time>2026-05-14T07:40:24.999Z</time>
      </trkpt>
      <trkpt lat="44.18608" lon="5.30588">
        <ele>819.7</ele>
        <time>2026-05-14T07:40:25.999Z</time>
      </trkpt>
      <trkpt lat="44.18609" lon="5.30589">
        <ele>819.9</ele>
        <time>2026-05-14T07:40:26.999Z</time>
      </trkpt>
      <trkpt lat="44.1861" lon="5.3059">
        <ele>819.6</ele>
        <time>2026-05-14T07:40:27.999Z</time>
      </trkpt>
      <trkpt lat="44.1861" lon="5.30592">
        <ele>819.7</ele>
        <time>2026-05-14T07:40:28.999Z</time>
      </trkpt>
      <trkpt lat="44.18611" lon="5.30593">
        <ele>819.5</ele>
        <time>2026-05-14T07:40:29.999Z</time>
      </trkpt>
      <trkpt lat="44.18611" lon="5.30596">
        <ele>820.2</ele>
        <time>2026-05-14T07:40:30.999Z</time>
      </trkpt>
      <trkpt lat="44.18612" lon="5.30598">
        <ele>820.2</ele>
        <time>2026-05-14T07:40:31.999Z</time>
      </trkpt>
      <trkpt lat="44.18612" lon="5.30599">
        <ele>820.6</ele>
        <time>2026-05-14T07:40:32.999Z</time>
      </trkpt>
      <trkpt lat="44.18612" lon="5.30601">
        <ele>821.1</ele>
        <time>2026-05-14T07:40:33.999Z</time>
      </trkpt>
      <trkpt lat="44.18613" lon="5.30602">
        <ele>821.3</ele>
        <time>2026-05-14T07:40:34.999Z</time>
      </trkpt>
      <trkpt lat="44.18613" lon="5.30604">
        <ele>821.9</ele>
        <time>2026-05-14T07:40:35.999Z</time>
      </trkpt>
      <trkpt lat="44.18613" lon="5.30606">
        <ele>822.4</ele>
        <time>2026-05-14T07:40:36.999Z</time>
      </trkpt>
      <trkpt lat="44.18614" lon="5.30607">
        <ele>823.1</ele>
        <time>2026-05-14T07:40:37.999Z</time>
      </trkpt>
      <trkpt lat="44.18614" lon="5.30608">
        <ele>823.5</ele>
        <time>2026-05-14T07:40:38.999Z</time>
      </trkpt>
      <trkpt lat="44.18615" lon="5.30609">
        <ele>823.9</ele>
        <time>2026-05-14T07:40:39.999Z</time>
      </trkpt>
      <trkpt lat="44.18614" lon="5.3061">
        <ele>824</ele>
        <time>2026-05-14T07:40:40.999Z</time>
      </trkpt>
      <trkpt lat="44.18614" lon="5.30612">
        <ele>824.2</ele>
        <time>2026-05-14T07:40:41.999Z</time>
      </trkpt>
      <trkpt lat="44.18614" lon="5.30614">
        <ele>824.4</ele>
        <time>2026-05-14T07:40:42.999Z</time>
      </trkpt>
      <trkpt lat="44.18614" lon="5.30615">
        <ele>824.5</ele>
        <time>2026-05-14T07:40:43.999Z</time>
      </trkpt>
      <trkpt lat="44.18615" lon="5.30616">
        <ele>824.6</ele>
        <time>2026-05-14T07:40:44.999Z</time>
      </trkpt>
      <trkpt lat="44.18614" lon="5.30618">
        <ele>824.9</ele>
        <time>2026-05-14T07:40:45.999Z</time>
      </trkpt>
      <trkpt lat="44.18614" lon="5.30619">
        <ele>825.5</ele>
        <time>2026-05-14T07:40:46.999Z</time>
      </trkpt>
      <trkpt lat="44.18613" lon="5.3062">
        <ele>826</ele>
        <time>2026-05-14T07:40:47.999Z</time>
      </trkpt>
      <trkpt lat="44.18614" lon="5.30622">
        <ele>826.2</ele>
        <time>2026-05-14T07:40:48.999Z</time>
      </trkpt>
      <trkpt lat="44.18614" lon="5.30624">
        <ele>826.2</ele>
        <time>2026-05-14T07:40:49.999Z</time>
      </trkpt>
      <trkpt lat="44.18616" lon="5.30625">
        <ele>826.1</ele>
        <time>2026-05-14T07:40:50.999Z</time>
      </trkpt>
      <trkpt lat="44.18617" lon="5.30626">
        <ele>826.1</ele>
        <time>2026-05-14T07:40:51.999Z</time>
      </trkpt>
      <trkpt lat="44.18617" lon="5.30626">
        <ele>826.2</ele>
        <time>2026-05-14T07:40:52.999Z</time>
      </trkpt>
      <trkpt lat="44.18617" lon="5.30627">
        <ele>826.3</ele>
        <time>2026-05-14T07:40:53.999Z</time>
      </trkpt>
      <trkpt lat="44.18618" lon="5.30629">
        <ele>826.7</ele>
        <time>2026-05-14T07:40:54.999Z</time>
      </trkpt>
      <trkpt lat="44.18618" lon="5.30631">
        <ele>827.1</ele>
        <time>2026-05-14T07:40:55.999Z</time>
      </trkpt>
      <trkpt lat="44.18618" lon="5.30632">
        <ele>827.7</ele>
        <time>2026-05-14T07:40:56.999Z</time>
      </trkpt>
      <trkpt lat="44.18618" lon="5.30634">
        <ele>828.2</ele>
        <time>2026-05-14T07:40:57.999Z</time>
      </trkpt>
      <trkpt lat="44.18618" lon="5.30635">
        <ele>828.6</ele>
        <time>2026-05-14T07:40:58.999Z</time>
      </trkpt>
      <trkpt lat="44.18618" lon="5.30637">
        <ele>828.9</ele>
        <time>2026-05-14T07:40:59.999Z</time>
      </trkpt>
      <trkpt lat="44.18619" lon="5.30639">
        <ele>829</ele>
        <time>2026-05-14T07:41:00.999Z</time>
      </trkpt>
      <trkpt lat="44.18619" lon="5.30641">
        <ele>828.9</ele>
        <time>2026-05-14T07:41:01.999Z</time>
      </trkpt>
      <trkpt lat="44.18619" lon="5.30643">
        <ele>829</ele>
        <time>2026-05-14T07:41:02.999Z</time>
      </trkpt>
      <trkpt lat="44.18619" lon="5.30644">
        <ele>829.4</ele>
        <time>2026-05-14T07:41:03.999Z</time>
      </trkpt>
      <trkpt lat="44.1862" lon="5.30645">
        <ele>829.6</ele>
        <time>2026-05-14T07:41:04.999Z</time>
      </trkpt>
      <trkpt lat="44.1862" lon="5.30647">
        <ele>829.7</ele>
        <time>2026-05-14T07:41:05.999Z</time>
      </trkpt>
      <trkpt lat="44.1862" lon="5.30649">
        <ele>830</ele>
        <time>2026-05-14T07:41:06.999Z</time>
      </trkpt>
      <trkpt lat="44.1862" lon="5.30651">
        <ele>830.2</ele>
        <time>2026-05-14T07:41:07.999Z</time>
      </trkpt>
      <trkpt lat="44.1862" lon="5.30653">
        <ele>830.2</ele>
        <time>2026-05-14T07:41:08.999Z</time>
      </trkpt>
      <trkpt lat="44.1862" lon="5.30654">
        <ele>830.5</ele>
        <time>2026-05-14T07:41:09.999Z</time>
      </trkpt>
      <trkpt lat="44.1862" lon="5.30655">
        <ele>830.8</ele>
        <time>2026-05-14T07:41:10.999Z</time>
      </trkpt>
      <trkpt lat="44.18622" lon="5.30656">
        <ele>830.7</ele>
        <time>2026-05-14T07:41:11.999Z</time>
      </trkpt>
      <trkpt lat="44.18623" lon="5.30658">
        <ele>830.7</ele>
        <time>2026-05-14T07:41:12.999Z</time>
      </trkpt>
      <trkpt lat="44.18624" lon="5.30659">
        <ele>830.5</ele>
        <time>2026-05-14T07:41:13.999Z</time>
      </trkpt>
      <trkpt lat="44.18624" lon="5.3066">
        <ele>830.5</ele>
        <time>2026-05-14T07:41:14.999Z</time>
      </trkpt>
      <trkpt lat="44.18625" lon="5.30662">
        <ele>830.5</ele>
        <time>2026-05-14T07:41:15.999Z</time>
      </trkpt>
      <trkpt lat="44.18626" lon="5.30664">
        <ele>830.2</ele>
        <time>2026-05-14T07:41:16.999Z</time>
      </trkpt>
      <trkpt lat="44.18627" lon="5.30665">
        <ele>830.7</ele>
        <time>2026-05-14T07:41:17.999Z</time>
      </trkpt>
      <trkpt lat="44.18628" lon="5.30666">
        <ele>830.4</ele>
        <time>2026-05-14T07:41:18.999Z</time>
      </trkpt>
      <trkpt lat="44.18629" lon="5.30667">
        <ele>830.4</ele>
        <time>2026-05-14T07:41:19.999Z</time>
      </trkpt>
      <trkpt lat="44.18629" lon="5.30668">
        <ele>830.5</ele>
        <time>2026-05-14T07:41:20.999Z</time>
      </trkpt>
      <trkpt lat="44.18631" lon="5.30668">
        <ele>830.7</ele>
        <time>2026-05-14T07:41:21.999Z</time>
      </trkpt>
      <trkpt lat="44.18631" lon="5.30669">
        <ele>831.1</ele>
        <time>2026-05-14T07:41:22.999Z</time>
      </trkpt>
      <trkpt lat="44.18632" lon="5.30669">
        <ele>831.5</ele>
        <time>2026-05-14T07:41:23.999Z</time>
      </trkpt>
      <trkpt lat="44.18633" lon="5.3067">
        <ele>831.3</ele>
        <time>2026-05-14T07:41:24.999Z</time>
      </trkpt>
      <trkpt lat="44.18633" lon="5.30671">
        <ele>831.7</ele>
        <time>2026-05-14T07:41:25.999Z</time>
      </trkpt>
      <trkpt lat="44.18633" lon="5.30671">
        <ele>831.6</ele>
        <time>2026-05-14T07:41:26.999Z</time>
      </trkpt>
      <trkpt lat="44.18634" lon="5.30672">
        <ele>832.2</ele>
        <time>2026-05-14T07:41:27.999Z</time>
      </trkpt>
      <trkpt lat="44.18634" lon="5.30675">
        <ele>833.3</ele>
        <time>2026-05-14T07:41:28.999Z</time>
      </trkpt>
      <trkpt lat="44.18634" lon="5.30678">
        <ele>833.8</ele>
        <time>2026-05-14T07:41:29.999Z</time>
      </trkpt>
      <trkpt lat="44.18634" lon="5.30679">
        <ele>834.5</ele>
        <time>2026-05-14T07:41:30.999Z</time>
      </trkpt>
      <trkpt lat="44.18635" lon="5.30681">
        <ele>834.8</ele>
        <time>2026-05-14T07:41:31.999Z</time>
      </trkpt>
      <trkpt lat="44.18635" lon="5.30682">
        <ele>834.6</ele>
        <time>2026-05-14T07:41:32.999Z</time>
      </trkpt>
      <trkpt lat="44.18635" lon="5.30684">
        <ele>834.3</ele>
        <time>2026-05-14T07:41:33.999Z</time>
      </trkpt>
      <trkpt lat="44.18636" lon="5.30686">
        <ele>834.3</ele>
        <time>2026-05-14T07:41:34.999Z</time>
      </trkpt>
      <trkpt lat="44.18637" lon="5.30687">
        <ele>834.4</ele>
        <time>2026-05-14T07:41:35.999Z</time>
      </trkpt>
      <trkpt lat="44.18639" lon="5.3069">
        <ele>834.3</ele>
        <time>2026-05-14T07:41:36.999Z</time>
      </trkpt>
      <trkpt lat="44.1864" lon="5.30692">
        <ele>834.4</ele>
        <time>2026-05-14T07:41:37.999Z</time>
      </trkpt>
      <trkpt lat="44.18641" lon="5.30694">
        <ele>834.6</ele>
        <time>2026-05-14T07:41:38.999Z</time>
      </trkpt>
      <trkpt lat="44.18641" lon="5.30696">
        <ele>834.5</ele>
        <time>2026-05-14T07:41:39.999Z</time>
      </trkpt>
      <trkpt lat="44.18641" lon="5.30697">
        <ele>834.5</ele>
        <time>2026-05-14T07:41:40.999Z</time>
      </trkpt>
      <trkpt lat="44.1864" lon="5.30699">
        <ele>834.7</ele>
        <time>2026-05-14T07:41:41.999Z</time>
      </trkpt>
      <trkpt lat="44.1864" lon="5.30701">
        <ele>834.7</ele>
        <time>2026-05-14T07:41:42.999Z</time>
      </trkpt>
      <trkpt lat="44.1864" lon="5.30702">
        <ele>834.2</ele>
        <time>2026-05-14T07:41:43.999Z</time>
      </trkpt>
      <trkpt lat="44.1864" lon="5.30703">
        <ele>834.2</ele>
        <time>2026-05-14T07:41:44.999Z</time>
      </trkpt>
      <trkpt lat="44.18641" lon="5.30704">
        <ele>833.5</ele>
        <time>2026-05-14T07:41:45.999Z</time>
      </trkpt>
      <trkpt lat="44.18642" lon="5.30705">
        <ele>833.2</ele>
        <time>2026-05-14T07:41:46.999Z</time>
      </trkpt>
      <trkpt lat="44.18643" lon="5.30706">
        <ele>832.6</ele>
        <time>2026-05-14T07:41:47.999Z</time>
      </trkpt>
      <trkpt lat="44.18643" lon="5.30706">
        <ele>832.2</ele>
        <time>2026-05-14T07:41:48.999Z</time>
      </trkpt>
      <trkpt lat="44.18643" lon="5.30706">
        <ele>831.9</ele>
        <time>2026-05-14T07:41:49.999Z</time>
      </trkpt>
      <trkpt lat="44.18643" lon="5.30706">
        <ele>832.1</ele>
        <time>2026-05-14T07:41:50.999Z</time>
      </trkpt>
      <trkpt lat="44.18644" lon="5.30707">
        <ele>832.4</ele>
        <time>2026-05-14T07:41:51.999Z</time>
      </trkpt>
      <trkpt lat="44.18643" lon="5.30709">
        <ele>832.2</ele>
        <time>2026-05-14T07:41:52.999Z</time>
      </trkpt>
      <trkpt lat="44.18644" lon="5.3071">
        <ele>831.9</ele>
        <time>2026-05-14T07:41:53.999Z</time>
      </trkpt>
      <trkpt lat="44.18643" lon="5.30712">
        <ele>831.8</ele>
        <time>2026-05-14T07:41:54.999Z</time>
      </trkpt>
      <trkpt lat="44.18643" lon="5.30713">
        <ele>832.2</ele>
        <time>2026-05-14T07:41:55.999Z</time>
      </trkpt>
      <trkpt lat="44.18643" lon="5.30713">
        <ele>832.2</ele>
        <time>2026-05-14T07:41:56.999Z</time>
      </trkpt>
      <trkpt lat="44.18644" lon="5.30713">
        <ele>832.3</ele>
        <time>2026-05-14T07:41:57.999Z</time>
      </trkpt>
      <trkpt lat="44.18644" lon="5.30713">
        <ele>832.3</ele>
        <time>2026-05-14T07:41:58.999Z</time>
      </trkpt>
      <trkpt lat="44.18644" lon="5.30712">
        <ele>832.4</ele>
        <time>2026-05-14T07:41:59.999Z</time>
      </trkpt>
      <trkpt lat="44.18644" lon="5.30712">
        <ele>832.5</ele>
        <time>2026-05-14T07:42:00.999Z</time>
      </trkpt>
      <trkpt lat="44.18643" lon="5.30713">
        <ele>833.1</ele>
        <time>2026-05-14T07:42:01.999Z</time>
      </trkpt>
      <trkpt lat="44.18643" lon="5.30713">
        <ele>833.4</ele>
        <time>2026-05-14T07:42:02.999Z</time>
      </trkpt>
      <trkpt lat="44.18643" lon="5.30712">
        <ele>833.6</ele>
        <time>2026-05-14T07:42:03.999Z</time>
      </trkpt>
      <trkpt lat="44.18643" lon="5.30713">
        <ele>833.3</ele>
        <time>2026-05-14T07:42:04.999Z</time>
      </trkpt>
      <trkpt lat="44.18644" lon="5.30715">
        <ele>832.6</ele>
        <time>2026-05-14T07:42:05.999Z</time>
      </trkpt>
      <trkpt lat="44.18645" lon="5.30716">
        <ele>831.8</ele>
        <time>2026-05-14T07:42:06.999Z</time>
      </trkpt>
      <trkpt lat="44.18645" lon="5.30718">
        <ele>831.2</ele>
        <time>2026-05-14T07:42:07.999Z</time>
      </trkpt>
      <trkpt lat="44.18645" lon="5.30719">
        <ele>831.2</ele>
        <time>2026-05-14T07:42:08.999Z</time>
      </trkpt>
      <trkpt lat="44.18645" lon="5.3072">
        <ele>831.8</ele>
        <time>2026-05-14T07:42:09.999Z</time>
      </trkpt>
      <trkpt lat="44.18645" lon="5.30719">
        <ele>832.4</ele>
        <time>2026-05-14T07:42:10.999Z</time>
      </trkpt>
      <trkpt lat="44.18645" lon="5.30719">
        <ele>833.1</ele>
        <time>2026-05-14T07:42:11.999Z</time>
      </trkpt>
      <trkpt lat="44.18645" lon="5.3072">
        <ele>833.8</ele>
        <time>2026-05-14T07:42:12.999Z</time>
      </trkpt>
      <trkpt lat="44.18645" lon="5.30722">
        <ele>834</ele>
        <time>2026-05-14T07:42:13.999Z</time>
      </trkpt>
      <trkpt lat="44.18645" lon="5.30724">
        <ele>834.7</ele>
        <time>2026-05-14T07:42:14.999Z</time>
      </trkpt>
      <trkpt lat="44.18646" lon="5.30726">
        <ele>834.5</ele>
        <time>2026-05-14T07:42:15.999Z</time>
      </trkpt>
      <trkpt lat="44.18646" lon="5.30731">
        <ele>834.3</ele>
        <time>2026-05-14T07:42:17.999Z</time>
      </trkpt>
      <trkpt lat="44.18646" lon="5.30733">
        <ele>834.5</ele>
        <time>2026-05-14T07:42:18.999Z</time>
      </trkpt>
      <trkpt lat="44.18646" lon="5.30737">
        <ele>834.4</ele>
        <time>2026-05-14T07:42:19.999Z</time>
      </trkpt>
      <trkpt lat="44.18645" lon="5.3074">
        <ele>834.7</ele>
        <time>2026-05-14T07:42:20.999Z</time>
      </trkpt>
      <trkpt lat="44.18645" lon="5.30742">
        <ele>834.4</ele>
        <time>2026-05-14T07:42:21.999Z</time>
      </trkpt>
      <trkpt lat="44.18645" lon="5.30745">
        <ele>834.4</ele>
        <time>2026-05-14T07:42:22.999Z</time>
      </trkpt>
      <trkpt lat="44.18645" lon="5.30746">
        <ele>834.9</ele>
        <time>2026-05-14T07:42:23.999Z</time>
      </trkpt>
      <trkpt lat="44.18646" lon="5.30747">
        <ele>835.5</ele>
        <time>2026-05-14T07:42:24.999Z</time>
      </trkpt>
      <trkpt lat="44.18646" lon="5.30747">
        <ele>835.9</ele>
        <time>2026-05-14T07:42:25.999Z</time>
      </trkpt>
      <trkpt lat="44.18646" lon="5.30749">
        <ele>836.5</ele>
        <time>2026-05-14T07:42:26.999Z</time>
      </trkpt>
      <trkpt lat="44.18646" lon="5.3075">
        <ele>836.6</ele>
        <time>2026-05-14T07:42:27.999Z</time>
      </trkpt>
      <trkpt lat="44.18646" lon="5.30752">
        <ele>836.2</ele>
        <time>2026-05-14T07:42:28.999Z</time>
      </trkpt>
      <trkpt lat="44.18647" lon="5.30754">
        <ele>836</ele>
        <time>2026-05-14T07:42:29.999Z</time>
      </trkpt>
      <trkpt lat="44.18648" lon="5.30756">
        <ele>835.8</ele>
        <time>2026-05-14T07:42:30.999Z</time>
      </trkpt>
      <trkpt lat="44.18648" lon="5.30759">
        <ele>835.6</ele>
        <time>2026-05-14T07:42:31.999Z</time>
      </trkpt>
      <trkpt lat="44.18649" lon="5.30761">
        <ele>835.6</ele>
        <time>2026-05-14T07:42:32.999Z</time>
      </trkpt>
      <trkpt lat="44.18649" lon="5.30763">
        <ele>835.2</ele>
        <time>2026-05-14T07:42:33.999Z</time>
      </trkpt>
      <trkpt lat="44.1865" lon="5.30764">
        <ele>834.9</ele>
        <time>2026-05-14T07:42:34.999Z</time>
      </trkpt>
      <trkpt lat="44.1865" lon="5.30765">
        <ele>834.6</ele>
        <time>2026-05-14T07:42:35.999Z</time>
      </trkpt>
      <trkpt lat="44.18651" lon="5.30766">
        <ele>834.5</ele>
        <time>2026-05-14T07:42:36.999Z</time>
      </trkpt>
      <trkpt lat="44.18652" lon="5.30767">
        <ele>834.5</ele>
        <time>2026-05-14T07:42:37.999Z</time>
      </trkpt>
      <trkpt lat="44.18653" lon="5.30768">
        <ele>834.6</ele>
        <time>2026-05-14T07:42:38.999Z</time>
      </trkpt>
      <trkpt lat="44.18653" lon="5.30769">
        <ele>834.8</ele>
        <time>2026-05-14T07:42:39.999Z</time>
      </trkpt>
      <trkpt lat="44.18654" lon="5.3077">
        <ele>834.7</ele>
        <time>2026-05-14T07:42:40.999Z</time>
      </trkpt>
      <trkpt lat="44.18654" lon="5.30772">
        <ele>834.5</ele>
        <time>2026-05-14T07:42:41.999Z</time>
      </trkpt>
      <trkpt lat="44.18655" lon="5.30772">
        <ele>835</ele>
        <time>2026-05-14T07:42:42.999Z</time>
      </trkpt>
      <trkpt lat="44.18656" lon="5.30773">
        <ele>834.8</ele>
        <time>2026-05-14T07:42:43.999Z</time>
      </trkpt>
      <trkpt lat="44.18656" lon="5.30774">
        <ele>834.8</ele>
        <time>2026-05-14T07:42:44.999Z</time>
      </trkpt>
      <trkpt lat="44.18656" lon="5.30776">
        <ele>834.5</ele>
        <time>2026-05-14T07:42:45.999Z</time>
      </trkpt>
      <trkpt lat="44.18656" lon="5.30778">
        <ele>834.8</ele>
        <time>2026-05-14T07:42:46.999Z</time>
      </trkpt>
      <trkpt lat="44.18656" lon="5.30778">
        <ele>834.7</ele>
        <time>2026-05-14T07:42:47.999Z</time>
      </trkpt>
      <trkpt lat="44.18656" lon="5.30779">
        <ele>834.8</ele>
        <time>2026-05-14T07:42:48.999Z</time>
      </trkpt>
      <trkpt lat="44.18657" lon="5.3078">
        <ele>834.5</ele>
        <time>2026-05-14T07:42:49.999Z</time>
      </trkpt>
      <trkpt lat="44.18659" lon="5.3078">
        <ele>833.9</ele>
        <time>2026-05-14T07:42:50.999Z</time>
      </trkpt>
      <trkpt lat="44.1866" lon="5.30781">
        <ele>833.9</ele>
        <time>2026-05-14T07:42:51.999Z</time>
      </trkpt>
      <trkpt lat="44.18661" lon="5.30782">
        <ele>833.8</ele>
        <time>2026-05-14T07:42:52.999Z</time>
      </trkpt>
      <trkpt lat="44.18661" lon="5.30783">
        <ele>833.4</ele>
        <time>2026-05-14T07:42:53.999Z</time>
      </trkpt>
      <trkpt lat="44.18662" lon="5.30784">
        <ele>833.4</ele>
        <time>2026-05-14T07:42:54.999Z</time>
      </trkpt>
      <trkpt lat="44.18663" lon="5.30786">
        <ele>833.4</ele>
        <time>2026-05-14T07:42:55.999Z</time>
      </trkpt>
      <trkpt lat="44.18663" lon="5.30787">
        <ele>833.3</ele>
        <time>2026-05-14T07:42:56.999Z</time>
      </trkpt>
      <trkpt lat="44.18664" lon="5.30788">
        <ele>832.9</ele>
        <time>2026-05-14T07:42:57.999Z</time>
      </trkpt>
      <trkpt lat="44.18664" lon="5.3079">
        <ele>832.8</ele>
        <time>2026-05-14T07:42:58.999Z</time>
      </trkpt>
      <trkpt lat="44.18665" lon="5.30792">
        <ele>832.7</ele>
        <time>2026-05-14T07:42:59.999Z</time>
      </trkpt>
      <trkpt lat="44.18665" lon="5.30793">
        <ele>833</ele>
        <time>2026-05-14T07:43:00.999Z</time>
      </trkpt>
      <trkpt lat="44.18665" lon="5.30795">
        <ele>833</ele>
        <time>2026-05-14T07:43:01.999Z</time>
      </trkpt>
      <trkpt lat="44.18666" lon="5.30796">
        <ele>832.8</ele>
        <time>2026-05-14T07:43:02.999Z</time>
      </trkpt>
      <trkpt lat="44.18666" lon="5.30797">
        <ele>832.8</ele>
        <time>2026-05-14T07:43:03.999Z</time>
      </trkpt>
      <trkpt lat="44.18666" lon="5.308">
        <ele>832.8</ele>
        <time>2026-05-14T07:43:04.999Z</time>
      </trkpt>
      <trkpt lat="44.18666" lon="5.30801">
        <ele>832.8</ele>
        <time>2026-05-14T07:43:05.999Z</time>
      </trkpt>
      <trkpt lat="44.18666" lon="5.30802">
        <ele>832.9</ele>
        <time>2026-05-14T07:43:06.999Z</time>
      </trkpt>
      <trkpt lat="44.18666" lon="5.30802">
        <ele>832.8</ele>
        <time>2026-05-14T07:43:07.999Z</time>
      </trkpt>
      <trkpt lat="44.18666" lon="5.30803">
        <ele>832.6</ele>
        <time>2026-05-14T07:43:08.999Z</time>
      </trkpt>
      <trkpt lat="44.18667" lon="5.30804">
        <ele>832.3</ele>
        <time>2026-05-14T07:43:09.999Z</time>
      </trkpt>
      <trkpt lat="44.18668" lon="5.30806">
        <ele>831.9</ele>
        <time>2026-05-14T07:43:10.999Z</time>
      </trkpt>
      <trkpt lat="44.18668" lon="5.30807">
        <ele>831.8</ele>
        <time>2026-05-14T07:43:11.999Z</time>
      </trkpt>
      <trkpt lat="44.18669" lon="5.30808">
        <ele>831.9</ele>
        <time>2026-05-14T07:43:12.999Z</time>
      </trkpt>
      <trkpt lat="44.18669" lon="5.30809">
        <ele>832</ele>
        <time>2026-05-14T07:43:13.999Z</time>
      </trkpt>
      <trkpt lat="44.18669" lon="5.3081">
        <ele>831.8</ele>
        <time>2026-05-14T07:43:14.999Z</time>
      </trkpt>
      <trkpt lat="44.18669" lon="5.3081">
        <ele>832</ele>
        <time>2026-05-14T07:43:15.999Z</time>
      </trkpt>
      <trkpt lat="44.1867" lon="5.30811">
        <ele>831.8</ele>
        <time>2026-05-14T07:43:16.999Z</time>
      </trkpt>
      <trkpt lat="44.18671" lon="5.30812">
        <ele>831.5</ele>
        <time>2026-05-14T07:43:17.999Z</time>
      </trkpt>
      <trkpt lat="44.18672" lon="5.30813">
        <ele>831.8</ele>
        <time>2026-05-14T07:43:18.999Z</time>
      </trkpt>
      <trkpt lat="44.18672" lon="5.30814">
        <ele>831.6</ele>
        <time>2026-05-14T07:43:19.999Z</time>
      </trkpt>
      <trkpt lat="44.18673" lon="5.30816">
        <ele>831.5</ele>
        <time>2026-05-14T07:43:20.999Z</time>
      </trkpt>
      <trkpt lat="44.18673" lon="5.30817">
        <ele>831.2</ele>
        <time>2026-05-14T07:43:21.999Z</time>
      </trkpt>
      <trkpt lat="44.18673" lon="5.3082">
        <ele>831.9</ele>
        <time>2026-05-14T07:43:22.999Z</time>
      </trkpt>
      <trkpt lat="44.18674" lon="5.30822">
        <ele>831.8</ele>
        <time>2026-05-14T07:43:23.999Z</time>
      </trkpt>
      <trkpt lat="44.18674" lon="5.30824">
        <ele>831.9</ele>
        <time>2026-05-14T07:43:24.999Z</time>
      </trkpt>
      <trkpt lat="44.18674" lon="5.30825">
        <ele>831.9</ele>
        <time>2026-05-14T07:43:25.999Z</time>
      </trkpt>
      <trkpt lat="44.18674" lon="5.30826">
        <ele>832.1</ele>
        <time>2026-05-14T07:43:26.999Z</time>
      </trkpt>
      <trkpt lat="44.18674" lon="5.30828">
        <ele>832.3</ele>
        <time>2026-05-14T07:43:27.999Z</time>
      </trkpt>
      <trkpt lat="44.18674" lon="5.3083">
        <ele>832.3</ele>
        <time>2026-05-14T07:43:28.999Z</time>
      </trkpt>
      <trkpt lat="44.18675" lon="5.30831">
        <ele>832.9</ele>
        <time>2026-05-14T07:43:29.999Z</time>
      </trkpt>
      <trkpt lat="44.18676" lon="5.30833">
        <ele>833.2</ele>
        <time>2026-05-14T07:43:30.999Z</time>
      </trkpt>
      <trkpt lat="44.18676" lon="5.30834">
        <ele>833.5</ele>
        <time>2026-05-14T07:43:31.999Z</time>
      </trkpt>
      <trkpt lat="44.18677" lon="5.30836">
        <ele>833.7</ele>
        <time>2026-05-14T07:43:32.999Z</time>
      </trkpt>
      <trkpt lat="44.18677" lon="5.30838">
        <ele>833.7</ele>
        <time>2026-05-14T07:43:33.999Z</time>
      </trkpt>
      <trkpt lat="44.18677" lon="5.3084">
        <ele>833.5</ele>
        <time>2026-05-14T07:43:34.999Z</time>
      </trkpt>
      <trkpt lat="44.18677" lon="5.30841">
        <ele>833.1</ele>
        <time>2026-05-14T07:43:35.999Z</time>
      </trkpt>
      <trkpt lat="44.18678" lon="5.30842">
        <ele>832.8</ele>
        <time>2026-05-14T07:43:36.999Z</time>
      </trkpt>
      <trkpt lat="44.18677" lon="5.30843">
        <ele>832.7</ele>
        <time>2026-05-14T07:43:37.999Z</time>
      </trkpt>
      <trkpt lat="44.18679" lon="5.30843">
        <ele>832.2</ele>
        <time>2026-05-14T07:43:38.999Z</time>
      </trkpt>
      <trkpt lat="44.18681" lon="5.30844">
        <ele>832.1</ele>
        <time>2026-05-14T07:43:39.999Z</time>
      </trkpt>
      <trkpt lat="44.18681" lon="5.30846">
        <ele>832.7</ele>
        <time>2026-05-14T07:43:40.999Z</time>
      </trkpt>
      <trkpt lat="44.18681" lon="5.30849">
        <ele>833</ele>
        <time>2026-05-14T07:43:41.999Z</time>
      </trkpt>
      <trkpt lat="44.18681" lon="5.30851">
        <ele>832.7</ele>
        <time>2026-05-14T07:43:42.999Z</time>
      </trkpt>
      <trkpt lat="44.18682" lon="5.30852">
        <ele>832.3</ele>
        <time>2026-05-14T07:43:43.999Z</time>
      </trkpt>
      <trkpt lat="44.18683" lon="5.30853">
        <ele>831.4</ele>
        <time>2026-05-14T07:43:44.999Z</time>
      </trkpt>
      <trkpt lat="44.18683" lon="5.30855">
        <ele>831.1</ele>
        <time>2026-05-14T07:43:45.999Z</time>
      </trkpt>
      <trkpt lat="44.18684" lon="5.30856">
        <ele>830.8</ele>
        <time>2026-05-14T07:43:46.999Z</time>
      </trkpt>
      <trkpt lat="44.18685" lon="5.30857">
        <ele>830.9</ele>
        <time>2026-05-14T07:43:47.999Z</time>
      </trkpt>
      <trkpt lat="44.18686" lon="5.30858">
        <ele>831.2</ele>
        <time>2026-05-14T07:43:48.999Z</time>
      </trkpt>
      <trkpt lat="44.18687" lon="5.3086">
        <ele>831.3</ele>
        <time>2026-05-14T07:43:49.999Z</time>
      </trkpt>
      <trkpt lat="44.18687" lon="5.30863">
        <ele>831.2</ele>
        <time>2026-05-14T07:43:50.999Z</time>
      </trkpt>
      <trkpt lat="44.18686" lon="5.30869">
        <ele>832.2</ele>
        <time>2026-05-14T07:43:51.999Z</time>
      </trkpt>
      <trkpt lat="44.18685" lon="5.30873">
        <ele>833.3</ele>
        <time>2026-05-14T07:43:52.999Z</time>
      </trkpt>
      <trkpt lat="44.18685" lon="5.30876">
        <ele>833.9</ele>
        <time>2026-05-14T07:43:53.999Z</time>
      </trkpt>
      <trkpt lat="44.18684" lon="5.30879">
        <ele>834.6</ele>
        <time>2026-05-14T07:43:54.999Z</time>
      </trkpt>
      <trkpt lat="44.18684" lon="5.30882">
        <ele>835.4</ele>
        <time>2026-05-14T07:43:55.999Z</time>
      </trkpt>
      <trkpt lat="44.18684" lon="5.30883">
        <ele>835.8</ele>
        <time>2026-05-14T07:43:56.999Z</time>
      </trkpt>
      <trkpt lat="44.18684" lon="5.30886">
        <ele>836.3</ele>
        <time>2026-05-14T07:43:57.999Z</time>
      </trkpt>
      <trkpt lat="44.18685" lon="5.30888">
        <ele>836.2</ele>
        <time>2026-05-14T07:43:58.999Z</time>
      </trkpt>
      <trkpt lat="44.18685" lon="5.3089">
        <ele>836</ele>
        <time>2026-05-14T07:43:59.999Z</time>
      </trkpt>
      <trkpt lat="44.18686" lon="5.30891">
        <ele>836</ele>
        <time>2026-05-14T07:44:00.999Z</time>
      </trkpt>
      <trkpt lat="44.18687" lon="5.30893">
        <ele>836</ele>
        <time>2026-05-14T07:44:01.999Z</time>
      </trkpt>
      <trkpt lat="44.18688" lon="5.30895">
        <ele>836.2</ele>
        <time>2026-05-14T07:44:02.999Z</time>
      </trkpt>
      <trkpt lat="44.18688" lon="5.30897">
        <ele>836.5</ele>
        <time>2026-05-14T07:44:03.999Z</time>
      </trkpt>
      <trkpt lat="44.18689" lon="5.30898">
        <ele>836.4</ele>
        <time>2026-05-14T07:44:04.999Z</time>
      </trkpt>
      <trkpt lat="44.1869" lon="5.30899">
        <ele>836.4</ele>
        <time>2026-05-14T07:44:05.999Z</time>
      </trkpt>
      <trkpt lat="44.1869" lon="5.309">
        <ele>836.4</ele>
        <time>2026-05-14T07:44:06.999Z</time>
      </trkpt>
      <trkpt lat="44.18691" lon="5.30901">
        <ele>836.4</ele>
        <time>2026-05-14T07:44:07.999Z</time>
      </trkpt>
      <trkpt lat="44.18692" lon="5.30901">
        <ele>836.5</ele>
        <time>2026-05-14T07:44:08.999Z</time>
      </trkpt>
      <trkpt lat="44.18693" lon="5.30901">
        <ele>836.3</ele>
        <time>2026-05-14T07:44:09.999Z</time>
      </trkpt>
      <trkpt lat="44.18693" lon="5.30903">
        <ele>835.4</ele>
        <time>2026-05-14T07:44:10.999Z</time>
      </trkpt>
      <trkpt lat="44.18693" lon="5.30905">
        <ele>834.6</ele>
        <time>2026-05-14T07:44:11.999Z</time>
      </trkpt>
      <trkpt lat="44.18694" lon="5.30906">
        <ele>834.2</ele>
        <time>2026-05-14T07:44:12.999Z</time>
      </trkpt>
      <trkpt lat="44.18694" lon="5.30907">
        <ele>834.1</ele>
        <time>2026-05-14T07:44:13.999Z</time>
      </trkpt>
      <trkpt lat="44.18695" lon="5.30908">
        <ele>834.5</ele>
        <time>2026-05-14T07:44:14.999Z</time>
      </trkpt>
      <trkpt lat="44.18696" lon="5.30908">
        <ele>834.5</ele>
        <time>2026-05-14T07:44:15.999Z</time>
      </trkpt>
      <trkpt lat="44.18696" lon="5.3091">
        <ele>834.8</ele>
        <time>2026-05-14T07:44:16.999Z</time>
      </trkpt>
      <trkpt lat="44.18696" lon="5.30911">
        <ele>834.9</ele>
        <time>2026-05-14T07:44:17.999Z</time>
      </trkpt>
      <trkpt lat="44.18697" lon="5.30913">
        <ele>835.1</ele>
        <time>2026-05-14T07:44:18.999Z</time>
      </trkpt>
      <trkpt lat="44.18697" lon="5.30914">
        <ele>835.2</ele>
        <time>2026-05-14T07:44:19.999Z</time>
      </trkpt>
      <trkpt lat="44.18698" lon="5.30917">
        <ele>835.4</ele>
        <time>2026-05-14T07:44:20.999Z</time>
      </trkpt>
      <trkpt lat="44.187" lon="5.3092">
        <ele>835.3</ele>
        <time>2026-05-14T07:44:21.999Z</time>
      </trkpt>
      <trkpt lat="44.187" lon="5.30924">
        <ele>836.3</ele>
        <time>2026-05-14T07:44:22.999Z</time>
      </trkpt>
      <trkpt lat="44.187" lon="5.30928">
        <ele>837.8</ele>
        <time>2026-05-14T07:44:23.999Z</time>
      </trkpt>
      <trkpt lat="44.18701" lon="5.3093">
        <ele>837.7</ele>
        <time>2026-05-14T07:44:24.999Z</time>
      </trkpt>
      <trkpt lat="44.18702" lon="5.30931">
        <ele>837.9</ele>
        <time>2026-05-14T07:44:25.999Z</time>
      </trkpt>
      <trkpt lat="44.18703" lon="5.30932">
        <ele>838.1</ele>
        <time>2026-05-14T07:44:26.999Z</time>
      </trkpt>
      <trkpt lat="44.18704" lon="5.30933">
        <ele>837.8</ele>
        <time>2026-05-14T07:44:27.999Z</time>
      </trkpt>
      <trkpt lat="44.18705" lon="5.30934">
        <ele>837.7</ele>
        <time>2026-05-14T07:44:28.999Z</time>
      </trkpt>
      <trkpt lat="44.18707" lon="5.30935">
        <ele>837.5</ele>
        <time>2026-05-14T07:44:29.999Z</time>
      </trkpt>
      <trkpt lat="44.18708" lon="5.30937">
        <ele>838</ele>
        <time>2026-05-14T07:44:30.999Z</time>
      </trkpt>
      <trkpt lat="44.18709" lon="5.30939">
        <ele>838.7</ele>
        <time>2026-05-14T07:44:31.999Z</time>
      </trkpt>
      <trkpt lat="44.1871" lon="5.30939">
        <ele>838.9</ele>
        <time>2026-05-14T07:44:32.999Z</time>
      </trkpt>
      <trkpt lat="44.18711" lon="5.30939">
        <ele>839</ele>
        <time>2026-05-14T07:44:33.999Z</time>
      </trkpt>
      <trkpt lat="44.18711" lon="5.3094">
        <ele>838.7</ele>
        <time>2026-05-14T07:44:34.999Z</time>
      </trkpt>
      <trkpt lat="44.18712" lon="5.3094">
        <ele>838.6</ele>
        <time>2026-05-14T07:44:35.999Z</time>
      </trkpt>
      <trkpt lat="44.18712" lon="5.3094">
        <ele>838.3</ele>
        <time>2026-05-14T07:44:36.999Z</time>
      </trkpt>
      <trkpt lat="44.18713" lon="5.30941">
        <ele>838.5</ele>
        <time>2026-05-14T07:44:37.999Z</time>
      </trkpt>
      <trkpt lat="44.18713" lon="5.30942">
        <ele>838.7</ele>
        <time>2026-05-14T07:44:38.999Z</time>
      </trkpt>
      <trkpt lat="44.18714" lon="5.30943">
        <ele>838.6</ele>
        <time>2026-05-14T07:44:39.999Z</time>
      </trkpt>
      <trkpt lat="44.18715" lon="5.30943">
        <ele>838.6</ele>
        <time>2026-05-14T07:44:40.999Z</time>
      </trkpt>
      <trkpt lat="44.18716" lon="5.30944">
        <ele>838.1</ele>
        <time>2026-05-14T07:44:41.999Z</time>
      </trkpt>
      <trkpt lat="44.18717" lon="5.30944">
        <ele>838.1</ele>
        <time>2026-05-14T07:44:42.999Z</time>
      </trkpt>
      <trkpt lat="44.18718" lon="5.30945">
        <ele>838.2</ele>
        <time>2026-05-14T07:44:43.999Z</time>
      </trkpt>
      <trkpt lat="44.18718" lon="5.30945">
        <ele>838.3</ele>
        <time>2026-05-14T07:44:44.999Z</time>
      </trkpt>
      <trkpt lat="44.1872" lon="5.30946">
        <ele>837.8</ele>
        <time>2026-05-14T07:44:45.999Z</time>
      </trkpt>
      <trkpt lat="44.18722" lon="5.30947">
        <ele>836.9</ele>
        <time>2026-05-14T07:44:46.999Z</time>
      </trkpt>
      <trkpt lat="44.18723" lon="5.30948">
        <ele>836.5</ele>
        <time>2026-05-14T07:44:47.999Z</time>
      </trkpt>
      <trkpt lat="44.18725" lon="5.30949">
        <ele>836.3</ele>
        <time>2026-05-14T07:44:48.999Z</time>
      </trkpt>
      <trkpt lat="44.18726" lon="5.30949">
        <ele>836</ele>
        <time>2026-05-14T07:44:49.999Z</time>
      </trkpt>
      <trkpt lat="44.18728" lon="5.30952">
        <ele>836.1</ele>
        <time>2026-05-14T07:44:50.999Z</time>
      </trkpt>
      <trkpt lat="44.1873" lon="5.30953">
        <ele>836</ele>
        <time>2026-05-14T07:44:51.999Z</time>
      </trkpt>
      <trkpt lat="44.18732" lon="5.30954">
        <ele>835.5</ele>
        <time>2026-05-14T07:44:52.999Z</time>
      </trkpt>
      <trkpt lat="44.18733" lon="5.30955">
        <ele>835.5</ele>
        <time>2026-05-14T07:44:53.999Z</time>
      </trkpt>
      <trkpt lat="44.18734" lon="5.30956">
        <ele>835.9</ele>
        <time>2026-05-14T07:44:54.999Z</time>
      </trkpt>
      <trkpt lat="44.18735" lon="5.30958">
        <ele>835.7</ele>
        <time>2026-05-14T07:44:55.999Z</time>
      </trkpt>
      <trkpt lat="44.18737" lon="5.30959">
        <ele>835.6</ele>
        <time>2026-05-14T07:44:56.999Z</time>
      </trkpt>
      <trkpt lat="44.18738" lon="5.30961">
        <ele>835.7</ele>
        <time>2026-05-14T07:44:57.999Z</time>
      </trkpt>
      <trkpt lat="44.1874" lon="5.30961">
        <ele>836</ele>
        <time>2026-05-14T07:44:58.999Z</time>
      </trkpt>
      <trkpt lat="44.18741" lon="5.30962">
        <ele>836.3</ele>
        <time>2026-05-14T07:44:59.999Z</time>
      </trkpt>
      <trkpt lat="44.18741" lon="5.30963">
        <ele>836.3</ele>
        <time>2026-05-14T07:45:00.999Z</time>
      </trkpt>
      <trkpt lat="44.18743" lon="5.30965">
        <ele>836.5</ele>
        <time>2026-05-14T07:45:01.999Z</time>
      </trkpt>
      <trkpt lat="44.18743" lon="5.30968">
        <ele>837.2</ele>
        <time>2026-05-14T07:45:02.999Z</time>
      </trkpt>
      <trkpt lat="44.18744" lon="5.3097">
        <ele>837.2</ele>
        <time>2026-05-14T07:45:03.999Z</time>
      </trkpt>
      <trkpt lat="44.18745" lon="5.30973">
        <ele>837.4</ele>
        <time>2026-05-14T07:45:04.999Z</time>
      </trkpt>
      <trkpt lat="44.18746" lon="5.30975">
        <ele>838</ele>
        <time>2026-05-14T07:45:05.999Z</time>
      </trkpt>
      <trkpt lat="44.18746" lon="5.30977">
        <ele>838.6</ele>
        <time>2026-05-14T07:45:06.999Z</time>
      </trkpt>
      <trkpt lat="44.18747" lon="5.30979">
        <ele>839.2</ele>
        <time>2026-05-14T07:45:07.999Z</time>
      </trkpt>
      <trkpt lat="44.18748" lon="5.30979">
        <ele>839.8</ele>
        <time>2026-05-14T07:45:08.999Z</time>
      </trkpt>
      <trkpt lat="44.18749" lon="5.30979">
        <ele>840.2</ele>
        <time>2026-05-14T07:45:09.999Z</time>
      </trkpt>
      <trkpt lat="44.1875" lon="5.3098">
        <ele>840.3</ele>
        <time>2026-05-14T07:45:10.999Z</time>
      </trkpt>
      <trkpt lat="44.18751" lon="5.3098">
        <ele>840.3</ele>
        <time>2026-05-14T07:45:11.999Z</time>
      </trkpt>
      <trkpt lat="44.18752" lon="5.30981">
        <ele>840.6</ele>
        <time>2026-05-14T07:45:12.999Z</time>
      </trkpt>
      <trkpt lat="44.18754" lon="5.30983">
        <ele>841.2</ele>
        <time>2026-05-14T07:45:13.999Z</time>
      </trkpt>
      <trkpt lat="44.18754" lon="5.30984">
        <ele>841.6</ele>
        <time>2026-05-14T07:45:14.999Z</time>
      </trkpt>
      <trkpt lat="44.18755" lon="5.30986">
        <ele>841.5</ele>
        <time>2026-05-14T07:45:15.999Z</time>
      </trkpt>
      <trkpt lat="44.18757" lon="5.30987">
        <ele>841.5</ele>
        <time>2026-05-14T07:45:16.999Z</time>
      </trkpt>
      <trkpt lat="44.18757" lon="5.30988">
        <ele>842.2</ele>
        <time>2026-05-14T07:45:17.999Z</time>
      </trkpt>
      <trkpt lat="44.18758" lon="5.3099">
        <ele>842.8</ele>
        <time>2026-05-14T07:45:18.999Z</time>
      </trkpt>
      <trkpt lat="44.1876" lon="5.30992">
        <ele>843.5</ele>
        <time>2026-05-14T07:45:19.999Z</time>
      </trkpt>
      <trkpt lat="44.18761" lon="5.30992">
        <ele>843.9</ele>
        <time>2026-05-14T07:45:20.999Z</time>
      </trkpt>
      <trkpt lat="44.18762" lon="5.30992">
        <ele>844.4</ele>
        <time>2026-05-14T07:45:21.999Z</time>
      </trkpt>
      <trkpt lat="44.18763" lon="5.30993">
        <ele>844.4</ele>
        <time>2026-05-14T07:45:22.999Z</time>
      </trkpt>
      <trkpt lat="44.18765" lon="5.30993">
        <ele>844</ele>
        <time>2026-05-14T07:45:23.999Z</time>
      </trkpt>
      <trkpt lat="44.18766" lon="5.30994">
        <ele>843.7</ele>
        <time>2026-05-14T07:45:24.999Z</time>
      </trkpt>
      <trkpt lat="44.18767" lon="5.30996">
        <ele>844.4</ele>
        <time>2026-05-14T07:45:25.999Z</time>
      </trkpt>
      <trkpt lat="44.18768" lon="5.30998">
        <ele>844.3</ele>
        <time>2026-05-14T07:45:26.999Z</time>
      </trkpt>
      <trkpt lat="44.18768" lon="5.30999">
        <ele>844.6</ele>
        <time>2026-05-14T07:45:27.999Z</time>
      </trkpt>
      <trkpt lat="44.18769" lon="5.31">
        <ele>844.9</ele>
        <time>2026-05-14T07:45:28.999Z</time>
      </trkpt>
      <trkpt lat="44.1877" lon="5.31001">
        <ele>845.1</ele>
        <time>2026-05-14T07:45:29.999Z</time>
      </trkpt>
      <trkpt lat="44.1877" lon="5.31002">
        <ele>845.4</ele>
        <time>2026-05-14T07:45:30.999Z</time>
      </trkpt>
      <trkpt lat="44.18771" lon="5.31004">
        <ele>845.6</ele>
        <time>2026-05-14T07:45:31.999Z</time>
      </trkpt>
      <trkpt lat="44.18772" lon="5.31005">
        <ele>845.9</ele>
        <time>2026-05-14T07:45:32.999Z</time>
      </trkpt>
      <trkpt lat="44.18773" lon="5.31006">
        <ele>845.8</ele>
        <time>2026-05-14T07:45:33.999Z</time>
      </trkpt>
      <trkpt lat="44.18774" lon="5.31006">
        <ele>845.3</ele>
        <time>2026-05-14T07:45:34.999Z</time>
      </trkpt>
      <trkpt lat="44.18774" lon="5.31006">
        <ele>845.3</ele>
        <time>2026-05-14T07:45:35.999Z</time>
      </trkpt>
      <trkpt lat="44.18776" lon="5.31007">
        <ele>845.7</ele>
        <time>2026-05-14T07:45:36.999Z</time>
      </trkpt>
      <trkpt lat="44.18776" lon="5.31009">
        <ele>845.6</ele>
        <time>2026-05-14T07:45:37.999Z</time>
      </trkpt>
      <trkpt lat="44.18777" lon="5.31009">
        <ele>845.6</ele>
        <time>2026-05-14T07:45:38.999Z</time>
      </trkpt>
      <trkpt lat="44.18778" lon="5.31009">
        <ele>845.9</ele>
        <time>2026-05-14T07:45:39.999Z</time>
      </trkpt>
      <trkpt lat="44.18779" lon="5.31009">
        <ele>846.3</ele>
        <time>2026-05-14T07:45:40.999Z</time>
      </trkpt>
      <trkpt lat="44.1878" lon="5.31009">
        <ele>846.3</ele>
        <time>2026-05-14T07:45:41.999Z</time>
      </trkpt>
      <trkpt lat="44.18781" lon="5.31011">
        <ele>846.2</ele>
        <time>2026-05-14T07:45:42.999Z</time>
      </trkpt>
      <trkpt lat="44.18782" lon="5.31013">
        <ele>846</ele>
        <time>2026-05-14T07:45:43.999Z</time>
      </trkpt>
      <trkpt lat="44.18783" lon="5.31013">
        <ele>845.8</ele>
        <time>2026-05-14T07:45:44.999Z</time>
      </trkpt>
      <trkpt lat="44.18785" lon="5.31013">
        <ele>845.6</ele>
        <time>2026-05-14T07:45:45.999Z</time>
      </trkpt>
      <trkpt lat="44.18786" lon="5.31013">
        <ele>845.6</ele>
        <time>2026-05-14T07:45:46.999Z</time>
      </trkpt>
      <trkpt lat="44.18787" lon="5.31013">
        <ele>845.6</ele>
        <time>2026-05-14T07:45:47.999Z</time>
      </trkpt>
      <trkpt lat="44.18789" lon="5.31013">
        <ele>845.6</ele>
        <time>2026-05-14T07:45:48.999Z</time>
      </trkpt>
      <trkpt lat="44.1879" lon="5.31013">
        <ele>845.7</ele>
        <time>2026-05-14T07:45:49.999Z</time>
      </trkpt>
      <trkpt lat="44.18791" lon="5.31013">
        <ele>845.9</ele>
        <time>2026-05-14T07:45:50.999Z</time>
      </trkpt>
      <trkpt lat="44.18792" lon="5.31013">
        <ele>846.2</ele>
        <time>2026-05-14T07:45:51.999Z</time>
      </trkpt>
      <trkpt lat="44.18793" lon="5.31014">
        <ele>846.7</ele>
        <time>2026-05-14T07:45:52.999Z</time>
      </trkpt>
      <trkpt lat="44.18795" lon="5.31014">
        <ele>847.1</ele>
        <time>2026-05-14T07:45:53.999Z</time>
      </trkpt>
      <trkpt lat="44.18796" lon="5.31015">
        <ele>847.4</ele>
        <time>2026-05-14T07:45:54.999Z</time>
      </trkpt>
      <trkpt lat="44.18797" lon="5.31015">
        <ele>847.7</ele>
        <time>2026-05-14T07:45:55.999Z</time>
      </trkpt>
      <trkpt lat="44.18798" lon="5.31015">
        <ele>847.6</ele>
        <time>2026-05-14T07:45:56.999Z</time>
      </trkpt>
      <trkpt lat="44.18799" lon="5.31016">
        <ele>847.8</ele>
        <time>2026-05-14T07:45:57.999Z</time>
      </trkpt>
      <trkpt lat="44.18799" lon="5.31017">
        <ele>848</ele>
        <time>2026-05-14T07:45:58.999Z</time>
      </trkpt>
      <trkpt lat="44.188" lon="5.31018">
        <ele>847.8</ele>
        <time>2026-05-14T07:45:59.999Z</time>
      </trkpt>
      <trkpt lat="44.188" lon="5.31018">
        <ele>847.8</ele>
        <time>2026-05-14T07:46:00.999Z</time>
      </trkpt>
      <trkpt lat="44.188" lon="5.31018">
        <ele>847.8</ele>
        <time>2026-05-14T07:46:01.999Z</time>
      </trkpt>
      <trkpt lat="44.188" lon="5.31017">
        <ele>847.7</ele>
        <time>2026-05-14T07:46:02.999Z</time>
      </trkpt>
      <trkpt lat="44.18801" lon="5.31016">
        <ele>847.9</ele>
        <time>2026-05-14T07:46:03.999Z</time>
      </trkpt>
      <trkpt lat="44.18802" lon="5.31016">
        <ele>848.2</ele>
        <time>2026-05-14T07:46:04.999Z</time>
      </trkpt>
      <trkpt lat="44.18803" lon="5.31015">
        <ele>848.3</ele>
        <time>2026-05-14T07:46:05.999Z</time>
      </trkpt>
      <trkpt lat="44.18803" lon="5.31015">
        <ele>848</ele>
        <time>2026-05-14T07:46:06.999Z</time>
      </trkpt>
      <trkpt lat="44.18804" lon="5.31014">
        <ele>848</ele>
        <time>2026-05-14T07:46:07.999Z</time>
      </trkpt>
      <trkpt lat="44.18805" lon="5.31013">
        <ele>848.3</ele>
        <time>2026-05-14T07:46:08.999Z</time>
      </trkpt>
      <trkpt lat="44.18806" lon="5.31012">
        <ele>848.4</ele>
        <time>2026-05-14T07:46:09.999Z</time>
      </trkpt>
      <trkpt lat="44.18806" lon="5.31012">
        <ele>848.5</ele>
        <time>2026-05-14T07:46:10.999Z</time>
      </trkpt>
      <trkpt lat="44.18807" lon="5.31011">
        <ele>848.5</ele>
        <time>2026-05-14T07:46:11.999Z</time>
      </trkpt>
      <trkpt lat="44.18808" lon="5.3101">
        <ele>848.9</ele>
        <time>2026-05-14T07:46:12.999Z</time>
      </trkpt>
      <trkpt lat="44.18809" lon="5.3101">
        <ele>850</ele>
        <time>2026-05-14T07:46:13.999Z</time>
      </trkpt>
      <trkpt lat="44.1881" lon="5.31009">
        <ele>850.4</ele>
        <time>2026-05-14T07:46:14.999Z</time>
      </trkpt>
      <trkpt lat="44.18811" lon="5.31008">
        <ele>850.2</ele>
        <time>2026-05-14T07:46:15.999Z</time>
      </trkpt>
      <trkpt lat="44.18812" lon="5.31006">
        <ele>850.3</ele>
        <time>2026-05-14T07:46:16.999Z</time>
      </trkpt>
      <trkpt lat="44.18813" lon="5.31005">
        <ele>850.6</ele>
        <time>2026-05-14T07:46:17.999Z</time>
      </trkpt>
      <trkpt lat="44.18814" lon="5.31003">
        <ele>851</ele>
        <time>2026-05-14T07:46:18.999Z</time>
      </trkpt>
      <trkpt lat="44.18814" lon="5.31002">
        <ele>851.1</ele>
        <time>2026-05-14T07:46:19.999Z</time>
      </trkpt>
      <trkpt lat="44.18815" lon="5.31001">
        <ele>851.2</ele>
        <time>2026-05-14T07:46:20.999Z</time>
      </trkpt>
      <trkpt lat="44.18816" lon="5.31">
        <ele>851.3</ele>
        <time>2026-05-14T07:46:21.999Z</time>
      </trkpt>
      <trkpt lat="44.18817" lon="5.30998">
        <ele>851.7</ele>
        <time>2026-05-14T07:46:22.999Z</time>
      </trkpt>
      <trkpt lat="44.18817" lon="5.30997">
        <ele>852</ele>
        <time>2026-05-14T07:46:23.999Z</time>
      </trkpt>
      <trkpt lat="44.18818" lon="5.30996">
        <ele>852.1</ele>
        <time>2026-05-14T07:46:24.999Z</time>
      </trkpt>
      <trkpt lat="44.18818" lon="5.30995">
        <ele>851.9</ele>
        <time>2026-05-14T07:46:25.999Z</time>
      </trkpt>
      <trkpt lat="44.18818" lon="5.30993">
        <ele>852</ele>
        <time>2026-05-14T07:46:26.999Z</time>
      </trkpt>
      <trkpt lat="44.18818" lon="5.30991">
        <ele>852</ele>
        <time>2026-05-14T07:46:27.999Z</time>
      </trkpt>
      <trkpt lat="44.18819" lon="5.30991">
        <ele>851.8</ele>
        <time>2026-05-14T07:46:28.999Z</time>
      </trkpt>
      <trkpt lat="44.1882" lon="5.30989">
        <ele>852</ele>
        <time>2026-05-14T07:46:29.999Z</time>
      </trkpt>
      <trkpt lat="44.1882" lon="5.30988">
        <ele>852</ele>
        <time>2026-05-14T07:46:30.999Z</time>
      </trkpt>
      <trkpt lat="44.18821" lon="5.30987">
        <ele>851.5</ele>
        <time>2026-05-14T07:46:31.999Z</time>
      </trkpt>
      <trkpt lat="44.18822" lon="5.30986">
        <ele>851.4</ele>
        <time>2026-05-14T07:46:32.999Z</time>
      </trkpt>
      <trkpt lat="44.18823" lon="5.30985">
        <ele>851.4</ele>
        <time>2026-05-14T07:46:33.999Z</time>
      </trkpt>
      <trkpt lat="44.18824" lon="5.30984">
        <ele>851.7</ele>
        <time>2026-05-14T07:46:34.999Z</time>
      </trkpt>
      <trkpt lat="44.18825" lon="5.30983">
        <ele>851.8</ele>
        <time>2026-05-14T07:46:35.999Z</time>
      </trkpt>
      <trkpt lat="44.18825" lon="5.30982">
        <ele>852</ele>
        <time>2026-05-14T07:46:36.999Z</time>
      </trkpt>
      <trkpt lat="44.18826" lon="5.3098">
        <ele>852.3</ele>
        <time>2026-05-14T07:46:37.999Z</time>
      </trkpt>
      <trkpt lat="44.18826" lon="5.30978">
        <ele>852.9</ele>
        <time>2026-05-14T07:46:38.999Z</time>
      </trkpt>
      <trkpt lat="44.18826" lon="5.30977">
        <ele>853.2</ele>
        <time>2026-05-14T07:46:39.999Z</time>
      </trkpt>
      <trkpt lat="44.18826" lon="5.30976">
        <ele>853.6</ele>
        <time>2026-05-14T07:46:40.999Z</time>
      </trkpt>
      <trkpt lat="44.18826" lon="5.30975">
        <ele>853.5</ele>
        <time>2026-05-14T07:46:41.999Z</time>
      </trkpt>
      <trkpt lat="44.18827" lon="5.30974">
        <ele>853.3</ele>
        <time>2026-05-14T07:46:42.999Z</time>
      </trkpt>
      <trkpt lat="44.18828" lon="5.30973">
        <ele>853.2</ele>
        <time>2026-05-14T07:46:43.999Z</time>
      </trkpt>
      <trkpt lat="44.18828" lon="5.30971">
        <ele>853.6</ele>
        <time>2026-05-14T07:46:44.999Z</time>
      </trkpt>
      <trkpt lat="44.18828" lon="5.3097">
        <ele>853.6</ele>
        <time>2026-05-14T07:46:45.999Z</time>
      </trkpt>
      <trkpt lat="44.18828" lon="5.30969">
        <ele>853.4</ele>
        <time>2026-05-14T07:46:46.999Z</time>
      </trkpt>
      <trkpt lat="44.18829" lon="5.30968">
        <ele>853.1</ele>
        <time>2026-05-14T07:46:47.999Z</time>
      </trkpt>
      <trkpt lat="44.18829" lon="5.30966">
        <ele>853.1</ele>
        <time>2026-05-14T07:46:48.999Z</time>
      </trkpt>
      <trkpt lat="44.18829" lon="5.30963">
        <ele>852.7</ele>
        <time>2026-05-14T07:46:49.999Z</time>
      </trkpt>
      <trkpt lat="44.18829" lon="5.30961">
        <ele>852.8</ele>
        <time>2026-05-14T07:46:50.999Z</time>
      </trkpt>
      <trkpt lat="44.18829" lon="5.3096">
        <ele>852.4</ele>
        <time>2026-05-14T07:46:51.999Z</time>
      </trkpt>
      <trkpt lat="44.18829" lon="5.30959">
        <ele>852.3</ele>
        <time>2026-05-14T07:46:52.999Z</time>
      </trkpt>
      <trkpt lat="44.18829" lon="5.30959">
        <ele>852.1</ele>
        <time>2026-05-14T07:46:53.999Z</time>
      </trkpt>
      <trkpt lat="44.18829" lon="5.30958">
        <ele>852</ele>
        <time>2026-05-14T07:46:54.999Z</time>
      </trkpt>
      <trkpt lat="44.1883" lon="5.30956">
        <ele>851.6</ele>
        <time>2026-05-14T07:46:55.999Z</time>
      </trkpt>
      <trkpt lat="44.1883" lon="5.30954">
        <ele>851.1</ele>
        <time>2026-05-14T07:46:56.999Z</time>
      </trkpt>
      <trkpt lat="44.18829" lon="5.30953">
        <ele>850.9</ele>
        <time>2026-05-14T07:46:57.999Z</time>
      </trkpt>
      <trkpt lat="44.18829" lon="5.30952">
        <ele>850.7</ele>
        <time>2026-05-14T07:46:58.999Z</time>
      </trkpt>
      <trkpt lat="44.18829" lon="5.30951">
        <ele>850.4</ele>
        <time>2026-05-14T07:46:59.999Z</time>
      </trkpt>
      <trkpt lat="44.18829" lon="5.30949">
        <ele>850.3</ele>
        <time>2026-05-14T07:47:00.999Z</time>
      </trkpt>
      <trkpt lat="44.1883" lon="5.30948">
        <ele>849.9</ele>
        <time>2026-05-14T07:47:01.999Z</time>
      </trkpt>
      <trkpt lat="44.18829" lon="5.30946">
        <ele>849.4</ele>
        <time>2026-05-14T07:47:02.999Z</time>
      </trkpt>
      <trkpt lat="44.18829" lon="5.30944">
        <ele>849.1</ele>
        <time>2026-05-14T07:47:03.999Z</time>
      </trkpt>
      <trkpt lat="44.18828" lon="5.30943">
        <ele>849</ele>
        <time>2026-05-14T07:47:04.999Z</time>
      </trkpt>
      <trkpt lat="44.18828" lon="5.30941">
        <ele>849.2</ele>
        <time>2026-05-14T07:47:05.999Z</time>
      </trkpt>
      <trkpt lat="44.18828" lon="5.30938">
        <ele>849.5</ele>
        <time>2026-05-14T07:47:06.999Z</time>
      </trkpt>
      <trkpt lat="44.18829" lon="5.30936">
        <ele>849.5</ele>
        <time>2026-05-14T07:47:07.999Z</time>
      </trkpt>
      <trkpt lat="44.18829" lon="5.30935">
        <ele>849.3</ele>
        <time>2026-05-14T07:47:08.999Z</time>
      </trkpt>
      <trkpt lat="44.18828" lon="5.30934">
        <ele>848.7</ele>
        <time>2026-05-14T07:47:09.999Z</time>
      </trkpt>
      <trkpt lat="44.18829" lon="5.30933">
        <ele>848.5</ele>
        <time>2026-05-14T07:47:10.999Z</time>
      </trkpt>
      <trkpt lat="44.18829" lon="5.30931">
        <ele>848.8</ele>
        <time>2026-05-14T07:47:11.999Z</time>
      </trkpt>
      <trkpt lat="44.1883" lon="5.3093">
        <ele>848.6</ele>
        <time>2026-05-14T07:47:12.999Z</time>
      </trkpt>
      <trkpt lat="44.1883" lon="5.30928">
        <ele>848.4</ele>
        <time>2026-05-14T07:47:13.999Z</time>
      </trkpt>
      <trkpt lat="44.18829" lon="5.30927">
        <ele>848.3</ele>
        <time>2026-05-14T07:47:14.999Z</time>
      </trkpt>
      <trkpt lat="44.18829" lon="5.30926">
        <ele>847.8</ele>
        <time>2026-05-14T07:47:15.999Z</time>
      </trkpt>
      <trkpt lat="44.18829" lon="5.30924">
        <ele>847.5</ele>
        <time>2026-05-14T07:47:16.999Z</time>
      </trkpt>
      <trkpt lat="44.1883" lon="5.30922">
        <ele>847.6</ele>
        <time>2026-05-14T07:47:17.999Z</time>
      </trkpt>
      <trkpt lat="44.1883" lon="5.3092">
        <ele>847.8</ele>
        <time>2026-05-14T07:47:18.999Z</time>
      </trkpt>
      <trkpt lat="44.1883" lon="5.30919">
        <ele>847.9</ele>
        <time>2026-05-14T07:47:19.999Z</time>
      </trkpt>
      <trkpt lat="44.18831" lon="5.30918">
        <ele>847.5</ele>
        <time>2026-05-14T07:47:20.999Z</time>
      </trkpt>
      <trkpt lat="44.18831" lon="5.30916">
        <ele>847.5</ele>
        <time>2026-05-14T07:47:21.999Z</time>
      </trkpt>
      <trkpt lat="44.1883" lon="5.30914">
        <ele>847.1</ele>
        <time>2026-05-14T07:47:22.999Z</time>
      </trkpt>
      <trkpt lat="44.1883" lon="5.30912">
        <ele>847.2</ele>
        <time>2026-05-14T07:47:23.999Z</time>
      </trkpt>
      <trkpt lat="44.1883" lon="5.30911">
        <ele>847.1</ele>
        <time>2026-05-14T07:47:24.999Z</time>
      </trkpt>
      <trkpt lat="44.1883" lon="5.3091">
        <ele>847.1</ele>
        <time>2026-05-14T07:47:25.999Z</time>
      </trkpt>
      <trkpt lat="44.18829" lon="5.30909">
        <ele>846.6</ele>
        <time>2026-05-14T07:47:26.999Z</time>
      </trkpt>
      <trkpt lat="44.18829" lon="5.30908">
        <ele>846.2</ele>
        <time>2026-05-14T07:47:27.999Z</time>
      </trkpt>
      <trkpt lat="44.18829" lon="5.30906">
        <ele>845.9</ele>
        <time>2026-05-14T07:47:28.999Z</time>
      </trkpt>
      <trkpt lat="44.18829" lon="5.30904">
        <ele>846.1</ele>
        <time>2026-05-14T07:47:29.999Z</time>
      </trkpt>
      <trkpt lat="44.18829" lon="5.30903">
        <ele>845.8</ele>
        <time>2026-05-14T07:47:30.999Z</time>
      </trkpt>
      <trkpt lat="44.18829" lon="5.30901">
        <ele>845.6</ele>
        <time>2026-05-14T07:47:31.999Z</time>
      </trkpt>
      <trkpt lat="44.18829" lon="5.309">
        <ele>845.1</ele>
        <time>2026-05-14T07:47:32.999Z</time>
      </trkpt>
      <trkpt lat="44.18828" lon="5.30899">
        <ele>845.2</ele>
        <time>2026-05-14T07:47:33.999Z</time>
      </trkpt>
      <trkpt lat="44.18828" lon="5.30898">
        <ele>845</ele>
        <time>2026-05-14T07:47:34.999Z</time>
      </trkpt>
      <trkpt lat="44.18827" lon="5.30897">
        <ele>844.8</ele>
        <time>2026-05-14T07:47:35.999Z</time>
      </trkpt>
      <trkpt lat="44.18827" lon="5.30896">
        <ele>844.7</ele>
        <time>2026-05-14T07:47:36.999Z</time>
      </trkpt>
      <trkpt lat="44.18826" lon="5.30895">
        <ele>844.1</ele>
        <time>2026-05-14T07:47:37.999Z</time>
      </trkpt>
      <trkpt lat="44.18825" lon="5.30895">
        <ele>843.8</ele>
        <time>2026-05-14T07:47:38.999Z</time>
      </trkpt>
      <trkpt lat="44.18824" lon="5.30895">
        <ele>843.6</ele>
        <time>2026-05-14T07:47:39.999Z</time>
      </trkpt>
      <trkpt lat="44.18823" lon="5.30896">
        <ele>843.6</ele>
        <time>2026-05-14T07:47:40.999Z</time>
      </trkpt>
      <trkpt lat="44.18823" lon="5.30898">
        <ele>843.6</ele>
        <time>2026-05-14T07:47:41.999Z</time>
      </trkpt>
      <trkpt lat="44.18822" lon="5.309">
        <ele>843.5</ele>
        <time>2026-05-14T07:47:42.999Z</time>
      </trkpt>
      <trkpt lat="44.18821" lon="5.30901">
        <ele>843.5</ele>
        <time>2026-05-14T07:47:43.999Z</time>
      </trkpt>
      <trkpt lat="44.1882" lon="5.30901">
        <ele>843.9</ele>
        <time>2026-05-14T07:47:44.999Z</time>
      </trkpt>
      <trkpt lat="44.1882" lon="5.30901">
        <ele>844.2</ele>
        <time>2026-05-14T07:47:45.999Z</time>
      </trkpt>
      <trkpt lat="44.1882" lon="5.30902">
        <ele>844.4</ele>
        <time>2026-05-14T07:47:46.999Z</time>
      </trkpt>
      <trkpt lat="44.18819" lon="5.30903">
        <ele>844.5</ele>
        <time>2026-05-14T07:47:47.999Z</time>
      </trkpt>
      <trkpt lat="44.18819" lon="5.30904">
        <ele>844.8</ele>
        <time>2026-05-14T07:47:48.999Z</time>
      </trkpt>
      <trkpt lat="44.18819" lon="5.30905">
        <ele>845.1</ele>
        <time>2026-05-14T07:47:49.999Z</time>
      </trkpt>
      <trkpt lat="44.18818" lon="5.30905">
        <ele>844.9</ele>
        <time>2026-05-14T07:47:50.999Z</time>
      </trkpt>
      <trkpt lat="44.18818" lon="5.30906">
        <ele>845</ele>
        <time>2026-05-14T07:47:51.999Z</time>
      </trkpt>
      <trkpt lat="44.18818" lon="5.30907">
        <ele>845</ele>
        <time>2026-05-14T07:47:52.999Z</time>
      </trkpt>
      <trkpt lat="44.18817" lon="5.30908">
        <ele>844.9</ele>
        <time>2026-05-14T07:47:53.999Z</time>
      </trkpt>
      <trkpt lat="44.18817" lon="5.30909">
        <ele>845.2</ele>
        <time>2026-05-14T07:47:54.999Z</time>
      </trkpt>
      <trkpt lat="44.18816" lon="5.30909">
        <ele>845.2</ele>
        <time>2026-05-14T07:47:55.999Z</time>
      </trkpt>
      <trkpt lat="44.18815" lon="5.30909">
        <ele>845.3</ele>
        <time>2026-05-14T07:47:56.999Z</time>
      </trkpt>
      <trkpt lat="44.18815" lon="5.30908">
        <ele>846</ele>
        <time>2026-05-14T07:47:57.999Z</time>
      </trkpt>
      <trkpt lat="44.18815" lon="5.30909">
        <ele>845.6</ele>
        <time>2026-05-14T07:47:58.999Z</time>
      </trkpt>
      <trkpt lat="44.18815" lon="5.30909">
        <ele>845.6</ele>
        <time>2026-05-14T07:47:59.999Z</time>
      </trkpt>
      <trkpt lat="44.18815" lon="5.30909">
        <ele>845.5</ele>
        <time>2026-05-14T07:48:00.999Z</time>
      </trkpt>
      <trkpt lat="44.18815" lon="5.3091">
        <ele>845.2</ele>
        <time>2026-05-14T07:48:01.999Z</time>
      </trkpt>
      <trkpt lat="44.18814" lon="5.30911">
        <ele>844.8</ele>
        <time>2026-05-14T07:48:02.999Z</time>
      </trkpt>
      <trkpt lat="44.18814" lon="5.30911">
        <ele>844.5</ele>
        <time>2026-05-14T07:48:03.999Z</time>
      </trkpt>
      <trkpt lat="44.18814" lon="5.30912">
        <ele>844.4</ele>
        <time>2026-05-14T07:48:04.999Z</time>
      </trkpt>
      <trkpt lat="44.18814" lon="5.30912">
        <ele>845.1</ele>
        <time>2026-05-14T07:48:05.999Z</time>
      </trkpt>
      <trkpt lat="44.18814" lon="5.30912">
        <ele>845.1</ele>
        <time>2026-05-14T07:48:06.999Z</time>
      </trkpt>
      <trkpt lat="44.18814" lon="5.30912">
        <ele>845.7</ele>
        <time>2026-05-14T07:48:07.999Z</time>
      </trkpt>
      <trkpt lat="44.18814" lon="5.30912">
        <ele>845.7</ele>
        <time>2026-05-14T07:48:08.999Z</time>
      </trkpt>
      <trkpt lat="44.18813" lon="5.30914">
        <ele>846.4</ele>
        <time>2026-05-14T07:48:09.999Z</time>
      </trkpt>
      <trkpt lat="44.18813" lon="5.30914">
        <ele>847</ele>
        <time>2026-05-14T07:48:10.999Z</time>
      </trkpt>
      <trkpt lat="44.18817" lon="5.30916">
        <ele>849.3</ele>
        <time>2026-05-14T07:48:11.999Z</time>
      </trkpt>
      <trkpt lat="44.18818" lon="5.30916">
        <ele>850.4</ele>
        <time>2026-05-14T07:48:12.999Z</time>
      </trkpt>
      <trkpt lat="44.18818" lon="5.30917">
        <ele>850.8</ele>
        <time>2026-05-14T07:48:13.999Z</time>
      </trkpt>
      <trkpt lat="44.18818" lon="5.30917">
        <ele>851.3</ele>
        <time>2026-05-14T07:48:14.999Z</time>
      </trkpt>
      <trkpt lat="44.18818" lon="5.30918">
        <ele>852</ele>
        <time>2026-05-14T07:48:15.999Z</time>
      </trkpt>
      <trkpt lat="44.18818" lon="5.30918">
        <ele>852.7</ele>
        <time>2026-05-14T07:48:16.999Z</time>
      </trkpt>
      <trkpt lat="44.18818" lon="5.30918">
        <ele>852.9</ele>
        <time>2026-05-14T07:48:17.999Z</time>
      </trkpt>
      <trkpt lat="44.18818" lon="5.30919">
        <ele>853.9</ele>
        <time>2026-05-14T07:48:18.999Z</time>
      </trkpt>
      <trkpt lat="44.18818" lon="5.30919">
        <ele>854.3</ele>
        <time>2026-05-14T07:48:19.999Z</time>
      </trkpt>
      <trkpt lat="44.18818" lon="5.30919">
        <ele>854.4</ele>
        <time>2026-05-14T07:48:20.999Z</time>
      </trkpt>
      <trkpt lat="44.18817" lon="5.3092">
        <ele>854.8</ele>
        <time>2026-05-14T07:48:21.999Z</time>
      </trkpt>
      <trkpt lat="44.18817" lon="5.3092">
        <ele>855.3</ele>
        <time>2026-05-14T07:48:22.999Z</time>
      </trkpt>
      <trkpt lat="44.18817" lon="5.30921">
        <ele>855.9</ele>
        <time>2026-05-14T07:48:23.999Z</time>
      </trkpt>
      <trkpt lat="44.18815" lon="5.30922">
        <ele>856.3</ele>
        <time>2026-05-14T07:48:24.999Z</time>
      </trkpt>
      <trkpt lat="44.18814" lon="5.30922">
        <ele>856.9</ele>
        <time>2026-05-14T07:48:25.999Z</time>
      </trkpt>
      <trkpt lat="44.18813" lon="5.30923">
        <ele>857.2</ele>
        <time>2026-05-14T07:48:26.999Z</time>
      </trkpt>
      <trkpt lat="44.18813" lon="5.30924">
        <ele>857.6</ele>
        <time>2026-05-14T07:48:27.999Z</time>
      </trkpt>
      <trkpt lat="44.18812" lon="5.30925">
        <ele>857.7</ele>
        <time>2026-05-14T07:48:28.999Z</time>
      </trkpt>
      <trkpt lat="44.18811" lon="5.30926">
        <ele>857.9</ele>
        <time>2026-05-14T07:48:29.999Z</time>
      </trkpt>
      <trkpt lat="44.1881" lon="5.30927">
        <ele>858</ele>
        <time>2026-05-14T07:48:30.999Z</time>
      </trkpt>
      <trkpt lat="44.18809" lon="5.30927">
        <ele>858.6</ele>
        <time>2026-05-14T07:48:31.999Z</time>
      </trkpt>
      <trkpt lat="44.18809" lon="5.30928">
        <ele>859.1</ele>
        <time>2026-05-14T07:48:32.999Z</time>
      </trkpt>
      <trkpt lat="44.18809" lon="5.30929">
        <ele>859.4</ele>
        <time>2026-05-14T07:48:33.999Z</time>
      </trkpt>
      <trkpt lat="44.18809" lon="5.3093">
        <ele>859.6</ele>
        <time>2026-05-14T07:48:34.999Z</time>
      </trkpt>
      <trkpt lat="44.18808" lon="5.3093">
        <ele>859.8</ele>
        <time>2026-05-14T07:48:35.999Z</time>
      </trkpt>
      <trkpt lat="44.18807" lon="5.30931">
        <ele>860.1</ele>
        <time>2026-05-14T07:48:36.999Z</time>
      </trkpt>
      <trkpt lat="44.18806" lon="5.30931">
        <ele>860.8</ele>
        <time>2026-05-14T07:48:37.999Z</time>
      </trkpt>
      <trkpt lat="44.18805" lon="5.30931">
        <ele>861.6</ele>
        <time>2026-05-14T07:48:38.999Z</time>
      </trkpt>
      <trkpt lat="44.18803" lon="5.30932">
        <ele>862.6</ele>
        <time>2026-05-14T07:48:39.999Z</time>
      </trkpt>
      <trkpt lat="44.18802" lon="5.30933">
        <ele>863.6</ele>
        <time>2026-05-14T07:48:40.999Z</time>
      </trkpt>
      <trkpt lat="44.18801" lon="5.30933">
        <ele>864.8</ele>
        <time>2026-05-14T07:48:41.999Z</time>
      </trkpt>
      <trkpt lat="44.188" lon="5.30934">
        <ele>866.1</ele>
        <time>2026-05-14T07:48:42.999Z</time>
      </trkpt>
      <trkpt lat="44.18798" lon="5.30934">
        <ele>866.9</ele>
        <time>2026-05-14T07:48:43.999Z</time>
      </trkpt>
      <trkpt lat="44.18797" lon="5.30934">
        <ele>867.4</ele>
        <time>2026-05-14T07:48:44.999Z</time>
      </trkpt>
      <trkpt lat="44.18796" lon="5.30934">
        <ele>868</ele>
        <time>2026-05-14T07:48:45.999Z</time>
      </trkpt>
      <trkpt lat="44.18795" lon="5.30934">
        <ele>868.2</ele>
        <time>2026-05-14T07:48:46.999Z</time>
      </trkpt>
      <trkpt lat="44.18794" lon="5.30935">
        <ele>868.1</ele>
        <time>2026-05-14T07:48:47.999Z</time>
      </trkpt>
      <trkpt lat="44.18794" lon="5.30935">
        <ele>868.6</ele>
        <time>2026-05-14T07:48:48.999Z</time>
      </trkpt>
      <trkpt lat="44.18793" lon="5.30935">
        <ele>869.5</ele>
        <time>2026-05-14T07:48:49.999Z</time>
      </trkpt>
      <trkpt lat="44.18792" lon="5.30935">
        <ele>870.1</ele>
        <time>2026-05-14T07:48:50.999Z</time>
      </trkpt>
      <trkpt lat="44.18791" lon="5.30935">
        <ele>870.7</ele>
        <time>2026-05-14T07:48:51.999Z</time>
      </trkpt>
      <trkpt lat="44.18789" lon="5.30935">
        <ele>871</ele>
        <time>2026-05-14T07:48:52.999Z</time>
      </trkpt>
      <trkpt lat="44.18789" lon="5.30934">
        <ele>870.9</ele>
        <time>2026-05-14T07:48:53.999Z</time>
      </trkpt>
      <trkpt lat="44.18788" lon="5.30934">
        <ele>871.4</ele>
        <time>2026-05-14T07:48:54.999Z</time>
      </trkpt>
      <trkpt lat="44.18788" lon="5.30933">
        <ele>871.4</ele>
        <time>2026-05-14T07:48:55.999Z</time>
      </trkpt>
      <trkpt lat="44.18787" lon="5.30933">
        <ele>871.3</ele>
        <time>2026-05-14T07:48:56.999Z</time>
      </trkpt>
      <trkpt lat="44.18786" lon="5.30932">
        <ele>871.1</ele>
        <time>2026-05-14T07:48:57.999Z</time>
      </trkpt>
      <trkpt lat="44.18784" lon="5.30932">
        <ele>871.3</ele>
        <time>2026-05-14T07:48:58.999Z</time>
      </trkpt>
      <trkpt lat="44.18783" lon="5.30932">
        <ele>871.6</ele>
        <time>2026-05-14T07:48:59.999Z</time>
      </trkpt>
      <trkpt lat="44.18782" lon="5.30931">
        <ele>871.8</ele>
        <time>2026-05-14T07:49:00.999Z</time>
      </trkpt>
      <trkpt lat="44.18781" lon="5.30931">
        <ele>872</ele>
        <time>2026-05-14T07:49:01.999Z</time>
      </trkpt>
      <trkpt lat="44.1878" lon="5.30932">
        <ele>872.1</ele>
        <time>2026-05-14T07:49:02.999Z</time>
      </trkpt>
      <trkpt lat="44.18779" lon="5.30932">
        <ele>872.7</ele>
        <time>2026-05-14T07:49:03.999Z</time>
      </trkpt>
      <trkpt lat="44.18778" lon="5.30931">
        <ele>873.3</ele>
        <time>2026-05-14T07:49:04.999Z</time>
      </trkpt>
      <trkpt lat="44.18777" lon="5.30929">
        <ele>873.4</ele>
        <time>2026-05-14T07:49:05.999Z</time>
      </trkpt>
      <trkpt lat="44.18777" lon="5.30929">
        <ele>873.9</ele>
        <time>2026-05-14T07:49:06.999Z</time>
      </trkpt>
      <trkpt lat="44.18776" lon="5.30928">
        <ele>874.3</ele>
        <time>2026-05-14T07:49:07.999Z</time>
      </trkpt>
      <trkpt lat="44.18776" lon="5.30928">
        <ele>874.8</ele>
        <time>2026-05-14T07:49:08.999Z</time>
      </trkpt>
      <trkpt lat="44.18775" lon="5.30927">
        <ele>875</ele>
        <time>2026-05-14T07:49:09.999Z</time>
      </trkpt>
      <trkpt lat="44.18774" lon="5.30925">
        <ele>874.9</ele>
        <time>2026-05-14T07:49:10.999Z</time>
      </trkpt>
      <trkpt lat="44.18773" lon="5.30924">
        <ele>875.5</ele>
        <time>2026-05-14T07:49:11.999Z</time>
      </trkpt>
      <trkpt lat="44.18773" lon="5.30922">
        <ele>875.7</ele>
        <time>2026-05-14T07:49:12.999Z</time>
      </trkpt>
      <trkpt lat="44.18772" lon="5.30922">
        <ele>876</ele>
        <time>2026-05-14T07:49:13.999Z</time>
      </trkpt>
      <trkpt lat="44.18772" lon="5.30921">
        <ele>876.3</ele>
        <time>2026-05-14T07:49:14.999Z</time>
      </trkpt>
      <trkpt lat="44.18771" lon="5.30919">
        <ele>876.1</ele>
        <time>2026-05-14T07:49:15.999Z</time>
      </trkpt>
      <trkpt lat="44.1877" lon="5.30918">
        <ele>876.1</ele>
        <time>2026-05-14T07:49:16.999Z</time>
      </trkpt>
      <trkpt lat="44.1877" lon="5.30916">
        <ele>876.3</ele>
        <time>2026-05-14T07:49:17.999Z</time>
      </trkpt>
      <trkpt lat="44.18769" lon="5.30916">
        <ele>877</ele>
        <time>2026-05-14T07:49:18.999Z</time>
      </trkpt>
      <trkpt lat="44.18768" lon="5.30914">
        <ele>877</ele>
        <time>2026-05-14T07:49:19.999Z</time>
      </trkpt>
      <trkpt lat="44.18767" lon="5.30913">
        <ele>877.7</ele>
        <time>2026-05-14T07:49:20.999Z</time>
      </trkpt>
      <trkpt lat="44.18767" lon="5.30912">
        <ele>877.9</ele>
        <time>2026-05-14T07:49:21.999Z</time>
      </trkpt>
      <trkpt lat="44.18766" lon="5.30911">
        <ele>877.8</ele>
        <time>2026-05-14T07:49:22.999Z</time>
      </trkpt>
      <trkpt lat="44.18766" lon="5.3091">
        <ele>877.6</ele>
        <time>2026-05-14T07:49:23.999Z</time>
      </trkpt>
      <trkpt lat="44.18764" lon="5.3091">
        <ele>877.5</ele>
        <time>2026-05-14T07:49:24.999Z</time>
      </trkpt>
      <trkpt lat="44.18763" lon="5.30909">
        <ele>877.4</ele>
        <time>2026-05-14T07:49:25.999Z</time>
      </trkpt>
      <trkpt lat="44.18762" lon="5.30908">
        <ele>877.3</ele>
        <time>2026-05-14T07:49:26.999Z</time>
      </trkpt>
      <trkpt lat="44.18761" lon="5.30907">
        <ele>877.6</ele>
        <time>2026-05-14T07:49:27.999Z</time>
      </trkpt>
      <trkpt lat="44.18761" lon="5.30906">
        <ele>877.5</ele>
        <time>2026-05-14T07:49:28.999Z</time>
      </trkpt>
      <trkpt lat="44.1876" lon="5.30905">
        <ele>877.1</ele>
        <time>2026-05-14T07:49:29.999Z</time>
      </trkpt>
      <trkpt lat="44.1876" lon="5.30903">
        <ele>876.7</ele>
        <time>2026-05-14T07:49:30.999Z</time>
      </trkpt>
      <trkpt lat="44.1876" lon="5.30901">
        <ele>876.8</ele>
        <time>2026-05-14T07:49:31.999Z</time>
      </trkpt>
      <trkpt lat="44.18759" lon="5.309">
        <ele>876.9</ele>
        <time>2026-05-14T07:49:32.999Z</time>
      </trkpt>
      <trkpt lat="44.18759" lon="5.30898">
        <ele>877</ele>
        <time>2026-05-14T07:49:33.999Z</time>
      </trkpt>
      <trkpt lat="44.18758" lon="5.30898">
        <ele>877.3</ele>
        <time>2026-05-14T07:49:34.999Z</time>
      </trkpt>
      <trkpt lat="44.18758" lon="5.30897">
        <ele>877.9</ele>
        <time>2026-05-14T07:49:35.999Z</time>
      </trkpt>
      <trkpt lat="44.18757" lon="5.30896">
        <ele>878.5</ele>
        <time>2026-05-14T07:49:36.999Z</time>
      </trkpt>
      <trkpt lat="44.18756" lon="5.30895">
        <ele>878.7</ele>
        <time>2026-05-14T07:49:37.999Z</time>
      </trkpt>
      <trkpt lat="44.18755" lon="5.30894">
        <ele>879</ele>
        <time>2026-05-14T07:49:38.999Z</time>
      </trkpt>
      <trkpt lat="44.18755" lon="5.30892">
        <ele>879.4</ele>
        <time>2026-05-14T07:49:39.999Z</time>
      </trkpt>
      <trkpt lat="44.18755" lon="5.30891">
        <ele>879.5</ele>
        <time>2026-05-14T07:49:40.999Z</time>
      </trkpt>
      <trkpt lat="44.18754" lon="5.3089">
        <ele>879.9</ele>
        <time>2026-05-14T07:49:41.999Z</time>
      </trkpt>
      <trkpt lat="44.18754" lon="5.30889">
        <ele>879.9</ele>
        <time>2026-05-14T07:49:42.999Z</time>
      </trkpt>
      <trkpt lat="44.18754" lon="5.30888">
        <ele>879.8</ele>
        <time>2026-05-14T07:49:43.999Z</time>
      </trkpt>
      <trkpt lat="44.18753" lon="5.30887">
        <ele>879.6</ele>
        <time>2026-05-14T07:49:44.999Z</time>
      </trkpt>
      <trkpt lat="44.18753" lon="5.30885">
        <ele>879.5</ele>
        <time>2026-05-14T07:49:45.999Z</time>
      </trkpt>
      <trkpt lat="44.18753" lon="5.30884">
        <ele>879.5</ele>
        <time>2026-05-14T07:49:46.999Z</time>
      </trkpt>
      <trkpt lat="44.18752" lon="5.30883">
        <ele>879.4</ele>
        <time>2026-05-14T07:49:47.999Z</time>
      </trkpt>
      <trkpt lat="44.18752" lon="5.30881">
        <ele>879.2</ele>
        <time>2026-05-14T07:49:48.999Z</time>
      </trkpt>
      <trkpt lat="44.18752" lon="5.3088">
        <ele>879.6</ele>
        <time>2026-05-14T07:49:49.999Z</time>
      </trkpt>
      <trkpt lat="44.18752" lon="5.30878">
        <ele>879.9</ele>
        <time>2026-05-14T07:49:50.999Z</time>
      </trkpt>
      <trkpt lat="44.18751" lon="5.30877">
        <ele>880.3</ele>
        <time>2026-05-14T07:49:51.999Z</time>
      </trkpt>
      <trkpt lat="44.18751" lon="5.30876">
        <ele>880.5</ele>
        <time>2026-05-14T07:49:52.999Z</time>
      </trkpt>
      <trkpt lat="44.18751" lon="5.30875">
        <ele>880.8</ele>
        <time>2026-05-14T07:49:53.999Z</time>
      </trkpt>
      <trkpt lat="44.18751" lon="5.30873">
        <ele>880.8</ele>
        <time>2026-05-14T07:49:54.999Z</time>
      </trkpt>
      <trkpt lat="44.18751" lon="5.30872">
        <ele>880.7</ele>
        <time>2026-05-14T07:49:55.999Z</time>
      </trkpt>
      <trkpt lat="44.18751" lon="5.30871">
        <ele>880.8</ele>
        <time>2026-05-14T07:49:56.999Z</time>
      </trkpt>
      <trkpt lat="44.18751" lon="5.3087">
        <ele>881.3</ele>
        <time>2026-05-14T07:49:57.999Z</time>
      </trkpt>
      <trkpt lat="44.1875" lon="5.30868">
        <ele>882</ele>
        <time>2026-05-14T07:49:58.999Z</time>
      </trkpt>
      <trkpt lat="44.1875" lon="5.30867">
        <ele>882.6</ele>
        <time>2026-05-14T07:49:59.999Z</time>
      </trkpt>
      <trkpt lat="44.18749" lon="5.30866">
        <ele>882.8</ele>
        <time>2026-05-14T07:50:00.999Z</time>
      </trkpt>
      <trkpt lat="44.18749" lon="5.30865">
        <ele>883.2</ele>
        <time>2026-05-14T07:50:01.999Z</time>
      </trkpt>
      <trkpt lat="44.18749" lon="5.30865">
        <ele>883.6</ele>
        <time>2026-05-14T07:50:02.999Z</time>
      </trkpt>
      <trkpt lat="44.18749" lon="5.30864">
        <ele>883.9</ele>
        <time>2026-05-14T07:50:03.999Z</time>
      </trkpt>
      <trkpt lat="44.18749" lon="5.30863">
        <ele>884.7</ele>
        <time>2026-05-14T07:50:04.999Z</time>
      </trkpt>
      <trkpt lat="44.18749" lon="5.30863">
        <ele>885.3</ele>
        <time>2026-05-14T07:50:05.999Z</time>
      </trkpt>
      <trkpt lat="44.18749" lon="5.30863">
        <ele>885.5</ele>
        <time>2026-05-14T07:50:06.999Z</time>
      </trkpt>
      <trkpt lat="44.18748" lon="5.30862">
        <ele>886</ele>
        <time>2026-05-14T07:50:07.999Z</time>
      </trkpt>
      <trkpt lat="44.18748" lon="5.30861">
        <ele>886.4</ele>
        <time>2026-05-14T07:50:08.999Z</time>
      </trkpt>
      <trkpt lat="44.18747" lon="5.3086">
        <ele>886.6</ele>
        <time>2026-05-14T07:50:09.999Z</time>
      </trkpt>
      <trkpt lat="44.18746" lon="5.30858">
        <ele>886.7</ele>
        <time>2026-05-14T07:50:10.999Z</time>
      </trkpt>
      <trkpt lat="44.18746" lon="5.30856">
        <ele>887</ele>
        <time>2026-05-14T07:50:11.999Z</time>
      </trkpt>
      <trkpt lat="44.18746" lon="5.30856">
        <ele>887.5</ele>
        <time>2026-05-14T07:50:12.999Z</time>
      </trkpt>
      <trkpt lat="44.18746" lon="5.30854">
        <ele>887.9</ele>
        <time>2026-05-14T07:50:13.999Z</time>
      </trkpt>
      <trkpt lat="44.18746" lon="5.30853">
        <ele>888.5</ele>
        <time>2026-05-14T07:50:14.999Z</time>
      </trkpt>
      <trkpt lat="44.18746" lon="5.30853">
        <ele>888.5</ele>
        <time>2026-05-14T07:50:15.999Z</time>
      </trkpt>
      <trkpt lat="44.18745" lon="5.30852">
        <ele>888</ele>
        <time>2026-05-14T07:50:16.999Z</time>
      </trkpt>
      <trkpt lat="44.18745" lon="5.30851">
        <ele>887.4</ele>
        <time>2026-05-14T07:50:17.999Z</time>
      </trkpt>
      <trkpt lat="44.18745" lon="5.30849">
        <ele>886.7</ele>
        <time>2026-05-14T07:50:18.999Z</time>
      </trkpt>
      <trkpt lat="44.18745" lon="5.30847">
        <ele>886.1</ele>
        <time>2026-05-14T07:50:19.999Z</time>
      </trkpt>
      <trkpt lat="44.18745" lon="5.30846">
        <ele>886.3</ele>
        <time>2026-05-14T07:50:20.999Z</time>
      </trkpt>
      <trkpt lat="44.18745" lon="5.30844">
        <ele>886.1</ele>
        <time>2026-05-14T07:50:21.999Z</time>
      </trkpt>
      <trkpt lat="44.18744" lon="5.30843">
        <ele>886.2</ele>
        <time>2026-05-14T07:50:22.999Z</time>
      </trkpt>
      <trkpt lat="44.18743" lon="5.30841">
        <ele>885.8</ele>
        <time>2026-05-14T07:50:23.999Z</time>
      </trkpt>
      <trkpt lat="44.18743" lon="5.30838">
        <ele>886.3</ele>
        <time>2026-05-14T07:50:24.999Z</time>
      </trkpt>
      <trkpt lat="44.18743" lon="5.30836">
        <ele>886.7</ele>
        <time>2026-05-14T07:50:25.999Z</time>
      </trkpt>
      <trkpt lat="44.18742" lon="5.30835">
        <ele>886.7</ele>
        <time>2026-05-14T07:50:26.999Z</time>
      </trkpt>
      <trkpt lat="44.18743" lon="5.30834">
        <ele>887.4</ele>
        <time>2026-05-14T07:50:27.999Z</time>
      </trkpt>
      <trkpt lat="44.18742" lon="5.30833">
        <ele>889</ele>
        <time>2026-05-14T07:50:28.999Z</time>
      </trkpt>
      <trkpt lat="44.18742" lon="5.30832">
        <ele>889.8</ele>
        <time>2026-05-14T07:50:29.999Z</time>
      </trkpt>
      <trkpt lat="44.18743" lon="5.30831">
        <ele>890.3</ele>
        <time>2026-05-14T07:50:30.999Z</time>
      </trkpt>
      <trkpt lat="44.18742" lon="5.30829">
        <ele>890.9</ele>
        <time>2026-05-14T07:50:31.999Z</time>
      </trkpt>
      <trkpt lat="44.18742" lon="5.30827">
        <ele>891.1</ele>
        <time>2026-05-14T07:50:32.999Z</time>
      </trkpt>
      <trkpt lat="44.18742" lon="5.30824">
        <ele>891.1</ele>
        <time>2026-05-14T07:50:33.999Z</time>
      </trkpt>
      <trkpt lat="44.18742" lon="5.30823">
        <ele>891.6</ele>
        <time>2026-05-14T07:50:34.999Z</time>
      </trkpt>
      <trkpt lat="44.18742" lon="5.3082">
        <ele>891.9</ele>
        <time>2026-05-14T07:50:35.999Z</time>
      </trkpt>
      <trkpt lat="44.18743" lon="5.30817">
        <ele>892.4</ele>
        <time>2026-05-14T07:50:36.999Z</time>
      </trkpt>
      <trkpt lat="44.18743" lon="5.30815">
        <ele>892.7</ele>
        <time>2026-05-14T07:50:37.999Z</time>
      </trkpt>
      <trkpt lat="44.18744" lon="5.30813">
        <ele>892.8</ele>
        <time>2026-05-14T07:50:38.999Z</time>
      </trkpt>
      <trkpt lat="44.18744" lon="5.30812">
        <ele>892.6</ele>
        <time>2026-05-14T07:50:39.999Z</time>
      </trkpt>
      <trkpt lat="44.18744" lon="5.30812">
        <ele>892.1</ele>
        <time>2026-05-14T07:50:40.999Z</time>
      </trkpt>
      <trkpt lat="44.18744" lon="5.30811">
        <ele>891.2</ele>
        <time>2026-05-14T07:50:41.999Z</time>
      </trkpt>
      <trkpt lat="44.18744" lon="5.30809">
        <ele>891.1</ele>
        <time>2026-05-14T07:50:42.999Z</time>
      </trkpt>
      <trkpt lat="44.18743" lon="5.30808">
        <ele>890.7</ele>
        <time>2026-05-14T07:50:43.999Z</time>
      </trkpt>
      <trkpt lat="44.18742" lon="5.30807">
        <ele>890.3</ele>
        <time>2026-05-14T07:50:44.999Z</time>
      </trkpt>
      <trkpt lat="44.18742" lon="5.30805">
        <ele>890.1</ele>
        <time>2026-05-14T07:50:45.999Z</time>
      </trkpt>
      <trkpt lat="44.18742" lon="5.30804">
        <ele>890.3</ele>
        <time>2026-05-14T07:50:46.999Z</time>
      </trkpt>
      <trkpt lat="44.18742" lon="5.30803">
        <ele>890.3</ele>
        <time>2026-05-14T07:50:47.999Z</time>
      </trkpt>
      <trkpt lat="44.18742" lon="5.30802">
        <ele>890.4</ele>
        <time>2026-05-14T07:50:48.999Z</time>
      </trkpt>
      <trkpt lat="44.18742" lon="5.30799">
        <ele>890.9</ele>
        <time>2026-05-14T07:50:49.999Z</time>
      </trkpt>
      <trkpt lat="44.18742" lon="5.30797">
        <ele>891.2</ele>
        <time>2026-05-14T07:50:50.999Z</time>
      </trkpt>
      <trkpt lat="44.18742" lon="5.30794">
        <ele>891.1</ele>
        <time>2026-05-14T07:50:51.999Z</time>
      </trkpt>
      <trkpt lat="44.18742" lon="5.30792">
        <ele>891.4</ele>
        <time>2026-05-14T07:50:52.999Z</time>
      </trkpt>
      <trkpt lat="44.18742" lon="5.30792">
        <ele>892</ele>
        <time>2026-05-14T07:50:53.999Z</time>
      </trkpt>
      <trkpt lat="44.18742" lon="5.30791">
        <ele>892.6</ele>
        <time>2026-05-14T07:50:54.999Z</time>
      </trkpt>
      <trkpt lat="44.18741" lon="5.3079">
        <ele>892.8</ele>
        <time>2026-05-14T07:50:55.999Z</time>
      </trkpt>
      <trkpt lat="44.1874" lon="5.30788">
        <ele>892.7</ele>
        <time>2026-05-14T07:50:56.999Z</time>
      </trkpt>
      <trkpt lat="44.1874" lon="5.30787">
        <ele>892.7</ele>
        <time>2026-05-14T07:50:57.999Z</time>
      </trkpt>
      <trkpt lat="44.1874" lon="5.30785">
        <ele>893.1</ele>
        <time>2026-05-14T07:50:58.999Z</time>
      </trkpt>
      <trkpt lat="44.1874" lon="5.30784">
        <ele>893.4</ele>
        <time>2026-05-14T07:50:59.999Z</time>
      </trkpt>
      <trkpt lat="44.18739" lon="5.30783">
        <ele>893.3</ele>
        <time>2026-05-14T07:51:00.999Z</time>
      </trkpt>
      <trkpt lat="44.18739" lon="5.3078">
        <ele>893.3</ele>
        <time>2026-05-14T07:51:01.999Z</time>
      </trkpt>
      <trkpt lat="44.18739" lon="5.30779">
        <ele>893.3</ele>
        <time>2026-05-14T07:51:02.999Z</time>
      </trkpt>
      <trkpt lat="44.18739" lon="5.30778">
        <ele>893.6</ele>
        <time>2026-05-14T07:51:03.999Z</time>
      </trkpt>
      <trkpt lat="44.18739" lon="5.30777">
        <ele>894</ele>
        <time>2026-05-14T07:51:04.999Z</time>
      </trkpt>
      <trkpt lat="44.18738" lon="5.30776">
        <ele>894.2</ele>
        <time>2026-05-14T07:51:05.999Z</time>
      </trkpt>
      <trkpt lat="44.18738" lon="5.30775">
        <ele>894.5</ele>
        <time>2026-05-14T07:51:06.999Z</time>
      </trkpt>
      <trkpt lat="44.18737" lon="5.30774">
        <ele>894.2</ele>
        <time>2026-05-14T07:51:07.999Z</time>
      </trkpt>
      <trkpt lat="44.18737" lon="5.30773">
        <ele>894</ele>
        <time>2026-05-14T07:51:08.999Z</time>
      </trkpt>
      <trkpt lat="44.18737" lon="5.30772">
        <ele>893.9</ele>
        <time>2026-05-14T07:51:09.999Z</time>
      </trkpt>
      <trkpt lat="44.18737" lon="5.30772">
        <ele>893.7</ele>
        <time>2026-05-14T07:51:10.999Z</time>
      </trkpt>
      <trkpt lat="44.18737" lon="5.3077">
        <ele>893.9</ele>
        <time>2026-05-14T07:51:11.999Z</time>
      </trkpt>
      <trkpt lat="44.18737" lon="5.30769">
        <ele>893.8</ele>
        <time>2026-05-14T07:51:12.999Z</time>
      </trkpt>
      <trkpt lat="44.18737" lon="5.30768">
        <ele>894</ele>
        <time>2026-05-14T07:51:13.999Z</time>
      </trkpt>
      <trkpt lat="44.18736" lon="5.30767">
        <ele>894</ele>
        <time>2026-05-14T07:51:14.999Z</time>
      </trkpt>
      <trkpt lat="44.18735" lon="5.30765">
        <ele>894.3</ele>
        <time>2026-05-14T07:51:15.999Z</time>
      </trkpt>
      <trkpt lat="44.18735" lon="5.30764">
        <ele>894.4</ele>
        <time>2026-05-14T07:51:16.999Z</time>
      </trkpt>
      <trkpt lat="44.18734" lon="5.30762">
        <ele>894.9</ele>
        <time>2026-05-14T07:51:17.999Z</time>
      </trkpt>
      <trkpt lat="44.18734" lon="5.30761">
        <ele>895.1</ele>
        <time>2026-05-14T07:51:18.999Z</time>
      </trkpt>
      <trkpt lat="44.18734" lon="5.30759">
        <ele>895.4</ele>
        <time>2026-05-14T07:51:19.999Z</time>
      </trkpt>
      <trkpt lat="44.18734" lon="5.30758">
        <ele>895.6</ele>
        <time>2026-05-14T07:51:20.999Z</time>
      </trkpt>
      <trkpt lat="44.18734" lon="5.30756">
        <ele>896</ele>
        <time>2026-05-14T07:51:21.999Z</time>
      </trkpt>
      <trkpt lat="44.18734" lon="5.30755">
        <ele>896.4</ele>
        <time>2026-05-14T07:51:22.999Z</time>
      </trkpt>
      <trkpt lat="44.18734" lon="5.30754">
        <ele>896.6</ele>
        <time>2026-05-14T07:51:23.999Z</time>
      </trkpt>
      <trkpt lat="44.18733" lon="5.30753">
        <ele>897.1</ele>
        <time>2026-05-14T07:51:24.999Z</time>
      </trkpt>
      <trkpt lat="44.18732" lon="5.30752">
        <ele>897.7</ele>
        <time>2026-05-14T07:51:25.999Z</time>
      </trkpt>
      <trkpt lat="44.18732" lon="5.30751">
        <ele>898.5</ele>
        <time>2026-05-14T07:51:26.999Z</time>
      </trkpt>
      <trkpt lat="44.18732" lon="5.3075">
        <ele>899.2</ele>
        <time>2026-05-14T07:51:27.999Z</time>
      </trkpt>
      <trkpt lat="44.18731" lon="5.30748">
        <ele>899.6</ele>
        <time>2026-05-14T07:51:28.999Z</time>
      </trkpt>
      <trkpt lat="44.18732" lon="5.30746">
        <ele>899.7</ele>
        <time>2026-05-14T07:51:29.999Z</time>
      </trkpt>
      <trkpt lat="44.18731" lon="5.30744">
        <ele>899.9</ele>
        <time>2026-05-14T07:51:30.999Z</time>
      </trkpt>
      <trkpt lat="44.18731" lon="5.30743">
        <ele>900.1</ele>
        <time>2026-05-14T07:51:31.999Z</time>
      </trkpt>
      <trkpt lat="44.18731" lon="5.30742">
        <ele>900.2</ele>
        <time>2026-05-14T07:51:32.999Z</time>
      </trkpt>
      <trkpt lat="44.18731" lon="5.30741">
        <ele>900.4</ele>
        <time>2026-05-14T07:51:33.999Z</time>
      </trkpt>
      <trkpt lat="44.18731" lon="5.30739">
        <ele>900.7</ele>
        <time>2026-05-14T07:51:34.999Z</time>
      </trkpt>
      <trkpt lat="44.1873" lon="5.30737">
        <ele>900.7</ele>
        <time>2026-05-14T07:51:35.999Z</time>
      </trkpt>
      <trkpt lat="44.18729" lon="5.30735">
        <ele>900.4</ele>
        <time>2026-05-14T07:51:36.999Z</time>
      </trkpt>
      <trkpt lat="44.18728" lon="5.30733">
        <ele>900.5</ele>
        <time>2026-05-14T07:51:37.999Z</time>
      </trkpt>
      <trkpt lat="44.18728" lon="5.30732">
        <ele>900.5</ele>
        <time>2026-05-14T07:51:38.999Z</time>
      </trkpt>
      <trkpt lat="44.18728" lon="5.30731">
        <ele>900.3</ele>
        <time>2026-05-14T07:51:39.999Z</time>
      </trkpt>
      <trkpt lat="44.18727" lon="5.3073">
        <ele>900.4</ele>
        <time>2026-05-14T07:51:40.999Z</time>
      </trkpt>
      <trkpt lat="44.18726" lon="5.30729">
        <ele>900.1</ele>
        <time>2026-05-14T07:51:41.999Z</time>
      </trkpt>
      <trkpt lat="44.18726" lon="5.30728">
        <ele>899.9</ele>
        <time>2026-05-14T07:51:42.999Z</time>
      </trkpt>
      <trkpt lat="44.18726" lon="5.30726">
        <ele>900</ele>
        <time>2026-05-14T07:51:43.999Z</time>
      </trkpt>
      <trkpt lat="44.18726" lon="5.30724">
        <ele>899.7</ele>
        <time>2026-05-14T07:51:44.999Z</time>
      </trkpt>
      <trkpt lat="44.18725" lon="5.30723">
        <ele>900.3</ele>
        <time>2026-05-14T07:51:45.999Z</time>
      </trkpt>
      <trkpt lat="44.18724" lon="5.30722">
        <ele>900.6</ele>
        <time>2026-05-14T07:51:46.999Z</time>
      </trkpt>
      <trkpt lat="44.18724" lon="5.30721">
        <ele>900.8</ele>
        <time>2026-05-14T07:51:47.999Z</time>
      </trkpt>
      <trkpt lat="44.18723" lon="5.3072">
        <ele>901.4</ele>
        <time>2026-05-14T07:51:48.999Z</time>
      </trkpt>
      <trkpt lat="44.18723" lon="5.30719">
        <ele>901.1</ele>
        <time>2026-05-14T07:51:49.999Z</time>
      </trkpt>
      <trkpt lat="44.18723" lon="5.30718">
        <ele>900.8</ele>
        <time>2026-05-14T07:51:50.999Z</time>
      </trkpt>
      <trkpt lat="44.18724" lon="5.30717">
        <ele>900.8</ele>
        <time>2026-05-14T07:51:51.999Z</time>
      </trkpt>
      <trkpt lat="44.18724" lon="5.30717">
        <ele>900.7</ele>
        <time>2026-05-14T07:51:52.999Z</time>
      </trkpt>
      <trkpt lat="44.18724" lon="5.30715">
        <ele>901.1</ele>
        <time>2026-05-14T07:51:53.999Z</time>
      </trkpt>
      <trkpt lat="44.18724" lon="5.30713">
        <ele>901.4</ele>
        <time>2026-05-14T07:51:54.999Z</time>
      </trkpt>
      <trkpt lat="44.18724" lon="5.30712">
        <ele>901.9</ele>
        <time>2026-05-14T07:51:55.999Z</time>
      </trkpt>
      <trkpt lat="44.18724" lon="5.3071">
        <ele>902.2</ele>
        <time>2026-05-14T07:51:56.999Z</time>
      </trkpt>
      <trkpt lat="44.18723" lon="5.30709">
        <ele>902.9</ele>
        <time>2026-05-14T07:51:57.999Z</time>
      </trkpt>
      <trkpt lat="44.18723" lon="5.30708">
        <ele>903.4</ele>
        <time>2026-05-14T07:51:58.999Z</time>
      </trkpt>
      <trkpt lat="44.18722" lon="5.30708">
        <ele>903.7</ele>
        <time>2026-05-14T07:51:59.999Z</time>
      </trkpt>
      <trkpt lat="44.18723" lon="5.30707">
        <ele>903.3</ele>
        <time>2026-05-14T07:52:00.999Z</time>
      </trkpt>
      <trkpt lat="44.18722" lon="5.30706">
        <ele>903.4</ele>
        <time>2026-05-14T07:52:01.999Z</time>
      </trkpt>
      <trkpt lat="44.18722" lon="5.30705">
        <ele>903.6</ele>
        <time>2026-05-14T07:52:02.999Z</time>
      </trkpt>
      <trkpt lat="44.18722" lon="5.30703">
        <ele>903.8</ele>
        <time>2026-05-14T07:52:03.999Z</time>
      </trkpt>
      <trkpt lat="44.18722" lon="5.30701">
        <ele>904</ele>
        <time>2026-05-14T07:52:04.999Z</time>
      </trkpt>
      <trkpt lat="44.18722" lon="5.307">
        <ele>903.8</ele>
        <time>2026-05-14T07:52:05.999Z</time>
      </trkpt>
      <trkpt lat="44.18721" lon="5.30699">
        <ele>904</ele>
        <time>2026-05-14T07:52:06.999Z</time>
      </trkpt>
      <trkpt lat="44.1872" lon="5.30697">
        <ele>904</ele>
        <time>2026-05-14T07:52:07.999Z</time>
      </trkpt>
      <trkpt lat="44.18719" lon="5.30695">
        <ele>904.1</ele>
        <time>2026-05-14T07:52:08.999Z</time>
      </trkpt>
      <trkpt lat="44.18719" lon="5.30693">
        <ele>904.5</ele>
        <time>2026-05-14T07:52:09.999Z</time>
      </trkpt>
      <trkpt lat="44.18719" lon="5.30692">
        <ele>905.1</ele>
        <time>2026-05-14T07:52:10.999Z</time>
      </trkpt>
      <trkpt lat="44.18718" lon="5.30691">
        <ele>905.8</ele>
        <time>2026-05-14T07:52:11.999Z</time>
      </trkpt>
      <trkpt lat="44.18718" lon="5.30689">
        <ele>906.6</ele>
        <time>2026-05-14T07:52:12.999Z</time>
      </trkpt>
      <trkpt lat="44.18718" lon="5.30687">
        <ele>907</ele>
        <time>2026-05-14T07:52:13.999Z</time>
      </trkpt>
      <trkpt lat="44.18718" lon="5.30686">
        <ele>907.2</ele>
        <time>2026-05-14T07:52:14.999Z</time>
      </trkpt>
      <trkpt lat="44.18719" lon="5.30685">
        <ele>907.2</ele>
        <time>2026-05-14T07:52:15.999Z</time>
      </trkpt>
      <trkpt lat="44.18721" lon="5.30683">
        <ele>907</ele>
        <time>2026-05-14T07:52:16.999Z</time>
      </trkpt>
      <trkpt lat="44.18721" lon="5.30681">
        <ele>907.6</ele>
        <time>2026-05-14T07:52:17.999Z</time>
      </trkpt>
      <trkpt lat="44.18721" lon="5.3068">
        <ele>907.7</ele>
        <time>2026-05-14T07:52:18.999Z</time>
      </trkpt>
      <trkpt lat="44.18721" lon="5.30679">
        <ele>908</ele>
        <time>2026-05-14T07:52:19.999Z</time>
      </trkpt>
      <trkpt lat="44.1872" lon="5.30678">
        <ele>908.2</ele>
        <time>2026-05-14T07:52:20.999Z</time>
      </trkpt>
      <trkpt lat="44.18719" lon="5.30676">
        <ele>908.8</ele>
        <time>2026-05-14T07:52:21.999Z</time>
      </trkpt>
      <trkpt lat="44.18719" lon="5.30675">
        <ele>908.9</ele>
        <time>2026-05-14T07:52:22.999Z</time>
      </trkpt>
      <trkpt lat="44.18719" lon="5.30673">
        <ele>908.9</ele>
        <time>2026-05-14T07:52:23.999Z</time>
      </trkpt>
      <trkpt lat="44.18719" lon="5.30671">
        <ele>909.3</ele>
        <time>2026-05-14T07:52:24.999Z</time>
      </trkpt>
      <trkpt lat="44.18718" lon="5.30669">
        <ele>909.7</ele>
        <time>2026-05-14T07:52:25.999Z</time>
      </trkpt>
      <trkpt lat="44.18718" lon="5.30667">
        <ele>909.9</ele>
        <time>2026-05-14T07:52:26.999Z</time>
      </trkpt>
      <trkpt lat="44.18718" lon="5.30667">
        <ele>910.2</ele>
        <time>2026-05-14T07:52:27.999Z</time>
      </trkpt>
      <trkpt lat="44.18719" lon="5.30666">
        <ele>909.8</ele>
        <time>2026-05-14T07:52:28.999Z</time>
      </trkpt>
      <trkpt lat="44.18718" lon="5.30665">
        <ele>909.4</ele>
        <time>2026-05-14T07:52:29.999Z</time>
      </trkpt>
      <trkpt lat="44.18718" lon="5.30663">
        <ele>909.2</ele>
        <time>2026-05-14T07:52:30.999Z</time>
      </trkpt>
      <trkpt lat="44.18718" lon="5.30662">
        <ele>909.8</ele>
        <time>2026-05-14T07:52:31.999Z</time>
      </trkpt>
      <trkpt lat="44.18718" lon="5.30661">
        <ele>910.2</ele>
        <time>2026-05-14T07:52:32.999Z</time>
      </trkpt>
      <trkpt lat="44.18717" lon="5.3066">
        <ele>910.1</ele>
        <time>2026-05-14T07:52:33.999Z</time>
      </trkpt>
      <trkpt lat="44.18717" lon="5.30658">
        <ele>909.9</ele>
        <time>2026-05-14T07:52:34.999Z</time>
      </trkpt>
      <trkpt lat="44.18716" lon="5.30657">
        <ele>909.9</ele>
        <time>2026-05-14T07:52:35.999Z</time>
      </trkpt>
      <trkpt lat="44.18716" lon="5.30655">
        <ele>910</ele>
        <time>2026-05-14T07:52:36.999Z</time>
      </trkpt>
      <trkpt lat="44.18716" lon="5.30654">
        <ele>910.3</ele>
        <time>2026-05-14T07:52:37.999Z</time>
      </trkpt>
      <trkpt lat="44.18715" lon="5.30652">
        <ele>910.7</ele>
        <time>2026-05-14T07:52:38.999Z</time>
      </trkpt>
      <trkpt lat="44.18715" lon="5.30649">
        <ele>911.2</ele>
        <time>2026-05-14T07:52:39.999Z</time>
      </trkpt>
      <trkpt lat="44.18715" lon="5.30648">
        <ele>911.2</ele>
        <time>2026-05-14T07:52:40.999Z</time>
      </trkpt>
      <trkpt lat="44.18715" lon="5.30647">
        <ele>911</ele>
        <time>2026-05-14T07:52:41.999Z</time>
      </trkpt>
      <trkpt lat="44.18715" lon="5.30646">
        <ele>910.4</ele>
        <time>2026-05-14T07:52:42.999Z</time>
      </trkpt>
      <trkpt lat="44.18715" lon="5.30645">
        <ele>910.3</ele>
        <time>2026-05-14T07:52:43.999Z</time>
      </trkpt>
      <trkpt lat="44.18714" lon="5.30644">
        <ele>911.3</ele>
        <time>2026-05-14T07:52:44.999Z</time>
      </trkpt>
      <trkpt lat="44.18713" lon="5.30643">
        <ele>911.8</ele>
        <time>2026-05-14T07:52:45.999Z</time>
      </trkpt>
      <trkpt lat="44.18712" lon="5.30642">
        <ele>912</ele>
        <time>2026-05-14T07:52:46.999Z</time>
      </trkpt>
      <trkpt lat="44.18711" lon="5.30642">
        <ele>912.9</ele>
        <time>2026-05-14T07:52:47.999Z</time>
      </trkpt>
      <trkpt lat="44.1871" lon="5.30641">
        <ele>913.3</ele>
        <time>2026-05-14T07:52:48.999Z</time>
      </trkpt>
      <trkpt lat="44.18709" lon="5.3064">
        <ele>913.9</ele>
        <time>2026-05-14T07:52:49.999Z</time>
      </trkpt>
      <trkpt lat="44.18709" lon="5.3064">
        <ele>914.5</ele>
        <time>2026-05-14T07:52:50.999Z</time>
      </trkpt>
      <trkpt lat="44.18709" lon="5.30639">
        <ele>915.1</ele>
        <time>2026-05-14T07:52:51.999Z</time>
      </trkpt>
      <trkpt lat="44.18709" lon="5.30638">
        <ele>914.9</ele>
        <time>2026-05-14T07:52:52.999Z</time>
      </trkpt>
      <trkpt lat="44.18709" lon="5.30638">
        <ele>914.9</ele>
        <time>2026-05-14T07:52:53.999Z</time>
      </trkpt>
      <trkpt lat="44.1871" lon="5.30638">
        <ele>914.4</ele>
        <time>2026-05-14T07:52:54.999Z</time>
      </trkpt>
      <trkpt lat="44.1871" lon="5.30638">
        <ele>913.9</ele>
        <time>2026-05-14T07:52:55.999Z</time>
      </trkpt>
      <trkpt lat="44.18711" lon="5.30638">
        <ele>913.1</ele>
        <time>2026-05-14T07:52:56.999Z</time>
      </trkpt>
      <trkpt lat="44.18712" lon="5.30639">
        <ele>912.8</ele>
        <time>2026-05-14T07:52:57.999Z</time>
      </trkpt>
      <trkpt lat="44.18713" lon="5.3064">
        <ele>912.4</ele>
        <time>2026-05-14T07:52:58.999Z</time>
      </trkpt>
      <trkpt lat="44.18713" lon="5.30641">
        <ele>912.4</ele>
        <time>2026-05-14T07:52:59.999Z</time>
      </trkpt>
      <trkpt lat="44.18714" lon="5.30641">
        <ele>912.3</ele>
        <time>2026-05-14T07:53:00.999Z</time>
      </trkpt>
      <trkpt lat="44.18714" lon="5.30642">
        <ele>912</ele>
        <time>2026-05-14T07:53:01.999Z</time>
      </trkpt>
      <trkpt lat="44.18715" lon="5.30643">
        <ele>911.9</ele>
        <time>2026-05-14T07:53:02.999Z</time>
      </trkpt>
      <trkpt lat="44.18716" lon="5.30644">
        <ele>911.8</ele>
        <time>2026-05-14T07:53:03.999Z</time>
      </trkpt>
      <trkpt lat="44.18718" lon="5.30645">
        <ele>911.9</ele>
        <time>2026-05-14T07:53:04.999Z</time>
      </trkpt>
      <trkpt lat="44.18719" lon="5.30647">
        <ele>911.9</ele>
        <time>2026-05-14T07:53:05.999Z</time>
      </trkpt>
      <trkpt lat="44.1872" lon="5.30648">
        <ele>912</ele>
        <time>2026-05-14T07:53:06.999Z</time>
      </trkpt>
      <trkpt lat="44.1872" lon="5.3065">
        <ele>911.8</ele>
        <time>2026-05-14T07:53:07.999Z</time>
      </trkpt>
      <trkpt lat="44.18721" lon="5.30651">
        <ele>911.7</ele>
        <time>2026-05-14T07:53:08.999Z</time>
      </trkpt>
      <trkpt lat="44.18722" lon="5.30652">
        <ele>911.4</ele>
        <time>2026-05-14T07:53:09.999Z</time>
      </trkpt>
      <trkpt lat="44.18722" lon="5.30654">
        <ele>911.3</ele>
        <time>2026-05-14T07:53:10.999Z</time>
      </trkpt>
      <trkpt lat="44.18723" lon="5.30655">
        <ele>911.2</ele>
        <time>2026-05-14T07:53:11.999Z</time>
      </trkpt>
      <trkpt lat="44.18725" lon="5.30655">
        <ele>911.2</ele>
        <time>2026-05-14T07:53:12.999Z</time>
      </trkpt>
      <trkpt lat="44.18726" lon="5.30656">
        <ele>910.7</ele>
        <time>2026-05-14T07:53:13.999Z</time>
      </trkpt>
      <trkpt lat="44.18727" lon="5.30656">
        <ele>910.6</ele>
        <time>2026-05-14T07:53:14.999Z</time>
      </trkpt>
      <trkpt lat="44.18728" lon="5.30658">
        <ele>911</ele>
        <time>2026-05-14T07:53:15.999Z</time>
      </trkpt>
      <trkpt lat="44.18729" lon="5.30659">
        <ele>911.4</ele>
        <time>2026-05-14T07:53:16.999Z</time>
      </trkpt>
      <trkpt lat="44.18729" lon="5.3066">
        <ele>911.3</ele>
        <time>2026-05-14T07:53:17.999Z</time>
      </trkpt>
      <trkpt lat="44.1873" lon="5.30661">
        <ele>911.4</ele>
        <time>2026-05-14T07:53:18.999Z</time>
      </trkpt>
      <trkpt lat="44.18731" lon="5.30662">
        <ele>911.6</ele>
        <time>2026-05-14T07:53:19.999Z</time>
      </trkpt>
      <trkpt lat="44.18732" lon="5.30663">
        <ele>912.2</ele>
        <time>2026-05-14T07:53:20.999Z</time>
      </trkpt>
      <trkpt lat="44.18733" lon="5.30663">
        <ele>912.2</ele>
        <time>2026-05-14T07:53:21.999Z</time>
      </trkpt>
      <trkpt lat="44.18734" lon="5.30665">
        <ele>912.1</ele>
        <time>2026-05-14T07:53:22.999Z</time>
      </trkpt>
      <trkpt lat="44.18735" lon="5.30666">
        <ele>911.8</ele>
        <time>2026-05-14T07:53:23.999Z</time>
      </trkpt>
      <trkpt lat="44.18735" lon="5.30668">
        <ele>911.1</ele>
        <time>2026-05-14T07:53:24.999Z</time>
      </trkpt>
      <trkpt lat="44.18735" lon="5.3067">
        <ele>910.8</ele>
        <time>2026-05-14T07:53:25.999Z</time>
      </trkpt>
      <trkpt lat="44.18735" lon="5.30672">
        <ele>910.6</ele>
        <time>2026-05-14T07:53:26.999Z</time>
      </trkpt>
      <trkpt lat="44.18736" lon="5.30673">
        <ele>910.2</ele>
        <time>2026-05-14T07:53:28.000Z</time>
      </trkpt>
      <trkpt lat="44.18736" lon="5.30674">
        <ele>910.2</ele>
        <time>2026-05-14T07:53:29.000Z</time>
      </trkpt>
      <trkpt lat="44.18737" lon="5.30674">
        <ele>910.3</ele>
        <time>2026-05-14T07:53:30.000Z</time>
      </trkpt>
      <trkpt lat="44.18738" lon="5.30674">
        <ele>910.1</ele>
        <time>2026-05-14T07:53:31.000Z</time>
      </trkpt>
      <trkpt lat="44.18739" lon="5.30676">
        <ele>909.8</ele>
        <time>2026-05-14T07:53:32.000Z</time>
      </trkpt>
      <trkpt lat="44.1874" lon="5.30677">
        <ele>909.4</ele>
        <time>2026-05-14T07:53:33.000Z</time>
      </trkpt>
      <trkpt lat="44.1874" lon="5.30678">
        <ele>909.1</ele>
        <time>2026-05-14T07:53:34.000Z</time>
      </trkpt>
      <trkpt lat="44.18741" lon="5.30679">
        <ele>909</ele>
        <time>2026-05-14T07:53:35.000Z</time>
      </trkpt>
      <trkpt lat="44.18741" lon="5.30681">
        <ele>908.8</ele>
        <time>2026-05-14T07:53:36.000Z</time>
      </trkpt>
      <trkpt lat="44.18741" lon="5.30682">
        <ele>909.1</ele>
        <time>2026-05-14T07:53:37.000Z</time>
      </trkpt>
      <trkpt lat="44.18742" lon="5.30684">
        <ele>909.2</ele>
        <time>2026-05-14T07:53:38.000Z</time>
      </trkpt>
      <trkpt lat="44.18742" lon="5.30685">
        <ele>909.3</ele>
        <time>2026-05-14T07:53:39.000Z</time>
      </trkpt>
      <trkpt lat="44.18743" lon="5.30686">
        <ele>909.3</ele>
        <time>2026-05-14T07:53:40.000Z</time>
      </trkpt>
      <trkpt lat="44.18744" lon="5.30687">
        <ele>909.1</ele>
        <time>2026-05-14T07:53:41.000Z</time>
      </trkpt>
      <trkpt lat="44.18744" lon="5.30687">
        <ele>908.8</ele>
        <time>2026-05-14T07:53:42.000Z</time>
      </trkpt>
      <trkpt lat="44.18745" lon="5.30688">
        <ele>908.3</ele>
        <time>2026-05-14T07:53:43.000Z</time>
      </trkpt>
      <trkpt lat="44.18746" lon="5.30688">
        <ele>908</ele>
        <time>2026-05-14T07:53:44.000Z</time>
      </trkpt>
      <trkpt lat="44.18746" lon="5.30689">
        <ele>907.8</ele>
        <time>2026-05-14T07:53:45.000Z</time>
      </trkpt>
      <trkpt lat="44.18747" lon="5.30689">
        <ele>908</ele>
        <time>2026-05-14T07:53:46.000Z</time>
      </trkpt>
      <trkpt lat="44.18747" lon="5.3069">
        <ele>907.8</ele>
        <time>2026-05-14T07:53:47.000Z</time>
      </trkpt>
      <trkpt lat="44.18748" lon="5.3069">
        <ele>907.9</ele>
        <time>2026-05-14T07:53:48.000Z</time>
      </trkpt>
      <trkpt lat="44.18749" lon="5.30691">
        <ele>908</ele>
        <time>2026-05-14T07:53:49.000Z</time>
      </trkpt>
      <trkpt lat="44.18749" lon="5.30691">
        <ele>908.3</ele>
        <time>2026-05-14T07:53:50.000Z</time>
      </trkpt>
      <trkpt lat="44.1875" lon="5.30692">
        <ele>908.5</ele>
        <time>2026-05-14T07:53:51.000Z</time>
      </trkpt>
      <trkpt lat="44.18751" lon="5.30693">
        <ele>908.4</ele>
        <time>2026-05-14T07:53:52.000Z</time>
      </trkpt>
      <trkpt lat="44.18752" lon="5.30694">
        <ele>908.2</ele>
        <time>2026-05-14T07:53:53.000Z</time>
      </trkpt>
      <trkpt lat="44.18752" lon="5.30695">
        <ele>908.2</ele>
        <time>2026-05-14T07:53:54.000Z</time>
      </trkpt>
      <trkpt lat="44.18753" lon="5.30696">
        <ele>908.3</ele>
        <time>2026-05-14T07:53:55.000Z</time>
      </trkpt>
      <trkpt lat="44.18755" lon="5.30697">
        <ele>908.4</ele>
        <time>2026-05-14T07:53:56.000Z</time>
      </trkpt>
      <trkpt lat="44.18756" lon="5.30698">
        <ele>908.5</ele>
        <time>2026-05-14T07:53:57.000Z</time>
      </trkpt>
      <trkpt lat="44.18757" lon="5.30699">
        <ele>908.8</ele>
        <time>2026-05-14T07:53:58.000Z</time>
      </trkpt>
      <trkpt lat="44.18758" lon="5.307">
        <ele>908.7</ele>
        <time>2026-05-14T07:53:59.000Z</time>
      </trkpt>
      <trkpt lat="44.18759" lon="5.30701">
        <ele>908.5</ele>
        <time>2026-05-14T07:54:00.000Z</time>
      </trkpt>
      <trkpt lat="44.18759" lon="5.30702">
        <ele>907.9</ele>
        <time>2026-05-14T07:54:01.000Z</time>
      </trkpt>
      <trkpt lat="44.18761" lon="5.30703">
        <ele>907.7</ele>
        <time>2026-05-14T07:54:02.000Z</time>
      </trkpt>
      <trkpt lat="44.18761" lon="5.30705">
        <ele>908</ele>
        <time>2026-05-14T07:54:03.000Z</time>
      </trkpt>
      <trkpt lat="44.18762" lon="5.30706">
        <ele>908.2</ele>
        <time>2026-05-14T07:54:04.000Z</time>
      </trkpt>
      <trkpt lat="44.18763" lon="5.30706">
        <ele>908.6</ele>
        <time>2026-05-14T07:54:05.000Z</time>
      </trkpt>
      <trkpt lat="44.18764" lon="5.30707">
        <ele>908.9</ele>
        <time>2026-05-14T07:54:06.000Z</time>
      </trkpt>
      <trkpt lat="44.18765" lon="5.30707">
        <ele>909</ele>
        <time>2026-05-14T07:54:07.000Z</time>
      </trkpt>
      <trkpt lat="44.18765" lon="5.30709">
        <ele>910.1</ele>
        <time>2026-05-14T07:54:08.000Z</time>
      </trkpt>
      <trkpt lat="44.18766" lon="5.30709">
        <ele>910.3</ele>
        <time>2026-05-14T07:54:09.000Z</time>
      </trkpt>
      <trkpt lat="44.18766" lon="5.30708">
        <ele>910.1</ele>
        <time>2026-05-14T07:54:10.000Z</time>
      </trkpt>
      <trkpt lat="44.18767" lon="5.30707">
        <ele>910.2</ele>
        <time>2026-05-14T07:54:11.000Z</time>
      </trkpt>
      <trkpt lat="44.18767" lon="5.30706">
        <ele>910.8</ele>
        <time>2026-05-14T07:54:12.000Z</time>
      </trkpt>
      <trkpt lat="44.18768" lon="5.30705">
        <ele>910.9</ele>
        <time>2026-05-14T07:54:13.000Z</time>
      </trkpt>
      <trkpt lat="44.18768" lon="5.30704">
        <ele>911.1</ele>
        <time>2026-05-14T07:54:14.000Z</time>
      </trkpt>
      <trkpt lat="44.18768" lon="5.30702">
        <ele>911.6</ele>
        <time>2026-05-14T07:54:15.000Z</time>
      </trkpt>
      <trkpt lat="44.18768" lon="5.30701">
        <ele>911.8</ele>
        <time>2026-05-14T07:54:16.000Z</time>
      </trkpt>
      <trkpt lat="44.18769" lon="5.30699">
        <ele>912.1</ele>
        <time>2026-05-14T07:54:17.000Z</time>
      </trkpt>
      <trkpt lat="44.18769" lon="5.30697">
        <ele>912.5</ele>
        <time>2026-05-14T07:54:18.000Z</time>
      </trkpt>
      <trkpt lat="44.18768" lon="5.30696">
        <ele>913</ele>
        <time>2026-05-14T07:54:19.000Z</time>
      </trkpt>
      <trkpt lat="44.18768" lon="5.30695">
        <ele>913.2</ele>
        <time>2026-05-14T07:54:20.000Z</time>
      </trkpt>
      <trkpt lat="44.18768" lon="5.30693">
        <ele>913.1</ele>
        <time>2026-05-14T07:54:21.000Z</time>
      </trkpt>
      <trkpt lat="44.18767" lon="5.30692">
        <ele>913.6</ele>
        <time>2026-05-14T07:54:22.000Z</time>
      </trkpt>
      <trkpt lat="44.18767" lon="5.30691">
        <ele>913.6</ele>
        <time>2026-05-14T07:54:23.000Z</time>
      </trkpt>
      <trkpt lat="44.18768" lon="5.3069">
        <ele>913.7</ele>
        <time>2026-05-14T07:54:24.000Z</time>
      </trkpt>
      <trkpt lat="44.18768" lon="5.30688">
        <ele>913.8</ele>
        <time>2026-05-14T07:54:25.000Z</time>
      </trkpt>
      <trkpt lat="44.18767" lon="5.30687">
        <ele>913.7</ele>
        <time>2026-05-14T07:54:26.000Z</time>
      </trkpt>
      <trkpt lat="44.18768" lon="5.30685">
        <ele>913.3</ele>
        <time>2026-05-14T07:54:27.000Z</time>
      </trkpt>
      <trkpt lat="44.18767" lon="5.30684">
        <ele>913.6</ele>
        <time>2026-05-14T07:54:28.000Z</time>
      </trkpt>
      <trkpt lat="44.18767" lon="5.30682">
        <ele>913.7</ele>
        <time>2026-05-14T07:54:29.000Z</time>
      </trkpt>
      <trkpt lat="44.18767" lon="5.30681">
        <ele>913.8</ele>
        <time>2026-05-14T07:54:30.000Z</time>
      </trkpt>
      <trkpt lat="44.18767" lon="5.3068">
        <ele>914.3</ele>
        <time>2026-05-14T07:54:31.000Z</time>
      </trkpt>
      <trkpt lat="44.18767" lon="5.30678">
        <ele>914.5</ele>
        <time>2026-05-14T07:54:32.000Z</time>
      </trkpt>
      <trkpt lat="44.18767" lon="5.30677">
        <ele>914.2</ele>
        <time>2026-05-14T07:54:33.000Z</time>
      </trkpt>
      <trkpt lat="44.18767" lon="5.30676">
        <ele>914</ele>
        <time>2026-05-14T07:54:34.000Z</time>
      </trkpt>
      <trkpt lat="44.18768" lon="5.30675">
        <ele>914.6</ele>
        <time>2026-05-14T07:54:35.000Z</time>
      </trkpt>
      <trkpt lat="44.18768" lon="5.30674">
        <ele>915.2</ele>
        <time>2026-05-14T07:54:36.000Z</time>
      </trkpt>
      <trkpt lat="44.18768" lon="5.30673">
        <ele>915.6</ele>
        <time>2026-05-14T07:54:37.000Z</time>
      </trkpt>
      <trkpt lat="44.18768" lon="5.30672">
        <ele>916.2</ele>
        <time>2026-05-14T07:54:38.000Z</time>
      </trkpt>
      <trkpt lat="44.18768" lon="5.3067">
        <ele>916.6</ele>
        <time>2026-05-14T07:54:39.000Z</time>
      </trkpt>
      <trkpt lat="44.18768" lon="5.30669">
        <ele>916.9</ele>
        <time>2026-05-14T07:54:40.000Z</time>
      </trkpt>
      <trkpt lat="44.18767" lon="5.30668">
        <ele>917.2</ele>
        <time>2026-05-14T07:54:41.000Z</time>
      </trkpt>
      <trkpt lat="44.18767" lon="5.30667">
        <ele>917.8</ele>
        <time>2026-05-14T07:54:42.000Z</time>
      </trkpt>
      <trkpt lat="44.18767" lon="5.30666">
        <ele>918.1</ele>
        <time>2026-05-14T07:54:43.000Z</time>
      </trkpt>
      <trkpt lat="44.18766" lon="5.30665">
        <ele>918.7</ele>
        <time>2026-05-14T07:54:44.000Z</time>
      </trkpt>
      <trkpt lat="44.18766" lon="5.30663">
        <ele>919</ele>
        <time>2026-05-14T07:54:45.000Z</time>
      </trkpt>
      <trkpt lat="44.18766" lon="5.30662">
        <ele>919</ele>
        <time>2026-05-14T07:54:46.000Z</time>
      </trkpt>
      <trkpt lat="44.18766" lon="5.30662">
        <ele>919.2</ele>
        <time>2026-05-14T07:54:47.000Z</time>
      </trkpt>
      <trkpt lat="44.18766" lon="5.30661">
        <ele>919.4</ele>
        <time>2026-05-14T07:54:48.000Z</time>
      </trkpt>
      <trkpt lat="44.18766" lon="5.3066">
        <ele>919.7</ele>
        <time>2026-05-14T07:54:49.000Z</time>
      </trkpt>
      <trkpt lat="44.18766" lon="5.3066">
        <ele>920</ele>
        <time>2026-05-14T07:54:50.000Z</time>
      </trkpt>
      <trkpt lat="44.18767" lon="5.30659">
        <ele>920.5</ele>
        <time>2026-05-14T07:54:51.000Z</time>
      </trkpt>
      <trkpt lat="44.18767" lon="5.30658">
        <ele>921.2</ele>
        <time>2026-05-14T07:54:52.000Z</time>
      </trkpt>
      <trkpt lat="44.18766" lon="5.30657">
        <ele>921.5</ele>
        <time>2026-05-14T07:54:53.000Z</time>
      </trkpt>
      <trkpt lat="44.18766" lon="5.30656">
        <ele>921.3</ele>
        <time>2026-05-14T07:54:54.000Z</time>
      </trkpt>
      <trkpt lat="44.18766" lon="5.30655">
        <ele>921.7</ele>
        <time>2026-05-14T07:54:55.000Z</time>
      </trkpt>
      <trkpt lat="44.18766" lon="5.30653">
        <ele>921.8</ele>
        <time>2026-05-14T07:54:56.000Z</time>
      </trkpt>
      <trkpt lat="44.18765" lon="5.30652">
        <ele>922.1</ele>
        <time>2026-05-14T07:54:57.000Z</time>
      </trkpt>
      <trkpt lat="44.18765" lon="5.3065">
        <ele>922.5</ele>
        <time>2026-05-14T07:54:58.000Z</time>
      </trkpt>
      <trkpt lat="44.18765" lon="5.3065">
        <ele>922.4</ele>
        <time>2026-05-14T07:54:59.000Z</time>
      </trkpt>
      <trkpt lat="44.18766" lon="5.30649">
        <ele>922</ele>
        <time>2026-05-14T07:55:00.000Z</time>
      </trkpt>
      <trkpt lat="44.18766" lon="5.30648">
        <ele>921.8</ele>
        <time>2026-05-14T07:55:01.000Z</time>
      </trkpt>
      <trkpt lat="44.18766" lon="5.30647">
        <ele>921.8</ele>
        <time>2026-05-14T07:55:02.000Z</time>
      </trkpt>
      <trkpt lat="44.18767" lon="5.30646">
        <ele>921.9</ele>
        <time>2026-05-14T07:55:03.000Z</time>
      </trkpt>
      <trkpt lat="44.18767" lon="5.30645">
        <ele>921.6</ele>
        <time>2026-05-14T07:55:04.000Z</time>
      </trkpt>
      <trkpt lat="44.18767" lon="5.30645">
        <ele>921.4</ele>
        <time>2026-05-14T07:55:05.000Z</time>
      </trkpt>
      <trkpt lat="44.18768" lon="5.30643">
        <ele>921.2</ele>
        <time>2026-05-14T07:55:06.000Z</time>
      </trkpt>
      <trkpt lat="44.18768" lon="5.30641">
        <ele>921.7</ele>
        <time>2026-05-14T07:55:07.000Z</time>
      </trkpt>
      <trkpt lat="44.18768" lon="5.3064">
        <ele>921.8</ele>
        <time>2026-05-14T07:55:08.000Z</time>
      </trkpt>
      <trkpt lat="44.18768" lon="5.3064">
        <ele>921.5</ele>
        <time>2026-05-14T07:55:09.000Z</time>
      </trkpt>
      <trkpt lat="44.18768" lon="5.30639">
        <ele>921.1</ele>
        <time>2026-05-14T07:55:10.000Z</time>
      </trkpt>
      <trkpt lat="44.18768" lon="5.30638">
        <ele>921</ele>
        <time>2026-05-14T07:55:11.000Z</time>
      </trkpt>
      <trkpt lat="44.18768" lon="5.30638">
        <ele>921</ele>
        <time>2026-05-14T07:55:12.000Z</time>
      </trkpt>
      <trkpt lat="44.18768" lon="5.30636">
        <ele>921.7</ele>
        <time>2026-05-14T07:55:13.000Z</time>
      </trkpt>
      <trkpt lat="44.18768" lon="5.30634">
        <ele>922.1</ele>
        <time>2026-05-14T07:55:14.000Z</time>
      </trkpt>
      <trkpt lat="44.18768" lon="5.30633">
        <ele>922.5</ele>
        <time>2026-05-14T07:55:15.000Z</time>
      </trkpt>
      <trkpt lat="44.18768" lon="5.30631">
        <ele>922.8</ele>
        <time>2026-05-14T07:55:16.000Z</time>
      </trkpt>
      <trkpt lat="44.18768" lon="5.3063">
        <ele>923.3</ele>
        <time>2026-05-14T07:55:17.000Z</time>
      </trkpt>
      <trkpt lat="44.18768" lon="5.30628">
        <ele>923.5</ele>
        <time>2026-05-14T07:55:18.000Z</time>
      </trkpt>
      <trkpt lat="44.18768" lon="5.30627">
        <ele>923.9</ele>
        <time>2026-05-14T07:55:19.000Z</time>
      </trkpt>
      <trkpt lat="44.18768" lon="5.30627">
        <ele>924.2</ele>
        <time>2026-05-14T07:55:20.000Z</time>
      </trkpt>
      <trkpt lat="44.18768" lon="5.30627">
        <ele>924.6</ele>
        <time>2026-05-14T07:55:21.000Z</time>
      </trkpt>
      <trkpt lat="44.18768" lon="5.30626">
        <ele>925.2</ele>
        <time>2026-05-14T07:55:22.000Z</time>
      </trkpt>
      <trkpt lat="44.18768" lon="5.30625">
        <ele>925.8</ele>
        <time>2026-05-14T07:55:23.000Z</time>
      </trkpt>
      <trkpt lat="44.18768" lon="5.30624">
        <ele>926.5</ele>
        <time>2026-05-14T07:55:24.000Z</time>
      </trkpt>
      <trkpt lat="44.18768" lon="5.30623">
        <ele>926.9</ele>
        <time>2026-05-14T07:55:25.000Z</time>
      </trkpt>
      <trkpt lat="44.18767" lon="5.30622">
        <ele>927.5</ele>
        <time>2026-05-14T07:55:26.000Z</time>
      </trkpt>
      <trkpt lat="44.18768" lon="5.3062">
        <ele>928</ele>
        <time>2026-05-14T07:55:27.000Z</time>
      </trkpt>
      <trkpt lat="44.18768" lon="5.30619">
        <ele>928.6</ele>
        <time>2026-05-14T07:55:28.000Z</time>
      </trkpt>
      <trkpt lat="44.18768" lon="5.30617">
        <ele>929</ele>
        <time>2026-05-14T07:55:29.000Z</time>
      </trkpt>
      <trkpt lat="44.18768" lon="5.30616">
        <ele>929.3</ele>
        <time>2026-05-14T07:55:30.000Z</time>
      </trkpt>
      <trkpt lat="44.18768" lon="5.30615">
        <ele>929.8</ele>
        <time>2026-05-14T07:55:31.000Z</time>
      </trkpt>
      <trkpt lat="44.18769" lon="5.30614">
        <ele>930.4</ele>
        <time>2026-05-14T07:55:32.000Z</time>
      </trkpt>
      <trkpt lat="44.18769" lon="5.30613">
        <ele>930.8</ele>
        <time>2026-05-14T07:55:33.000Z</time>
      </trkpt>
      <trkpt lat="44.18769" lon="5.30613">
        <ele>930.9</ele>
        <time>2026-05-14T07:55:34.000Z</time>
      </trkpt>
      <trkpt lat="44.1877" lon="5.30612">
        <ele>931.1</ele>
        <time>2026-05-14T07:55:35.000Z</time>
      </trkpt>
      <trkpt lat="44.1877" lon="5.30611">
        <ele>930.9</ele>
        <time>2026-05-14T07:55:36.000Z</time>
      </trkpt>
      <trkpt lat="44.1877" lon="5.3061">
        <ele>930.8</ele>
        <time>2026-05-14T07:55:37.000Z</time>
      </trkpt>
      <trkpt lat="44.18771" lon="5.3061">
        <ele>930.7</ele>
        <time>2026-05-14T07:55:38.000Z</time>
      </trkpt>
      <trkpt lat="44.18771" lon="5.30608">
        <ele>930.4</ele>
        <time>2026-05-14T07:55:39.000Z</time>
      </trkpt>
      <trkpt lat="44.18771" lon="5.30608">
        <ele>930.8</ele>
        <time>2026-05-14T07:55:40.000Z</time>
      </trkpt>
      <trkpt lat="44.18771" lon="5.30607">
        <ele>931.4</ele>
        <time>2026-05-14T07:55:41.000Z</time>
      </trkpt>
      <trkpt lat="44.18771" lon="5.30607">
        <ele>932.1</ele>
        <time>2026-05-14T07:55:42.000Z</time>
      </trkpt>
      <trkpt lat="44.18772" lon="5.30606">
        <ele>932.3</ele>
        <time>2026-05-14T07:55:43.000Z</time>
      </trkpt>
      <trkpt lat="44.18772" lon="5.30604">
        <ele>932.6</ele>
        <time>2026-05-14T07:55:44.000Z</time>
      </trkpt>
      <trkpt lat="44.18773" lon="5.30603">
        <ele>932.7</ele>
        <time>2026-05-14T07:55:45.000Z</time>
      </trkpt>
      <trkpt lat="44.18773" lon="5.30602">
        <ele>932.6</ele>
        <time>2026-05-14T07:55:46.000Z</time>
      </trkpt>
      <trkpt lat="44.18773" lon="5.30601">
        <ele>932.9</ele>
        <time>2026-05-14T07:55:47.000Z</time>
      </trkpt>
      <trkpt lat="44.18772" lon="5.306">
        <ele>933</ele>
        <time>2026-05-14T07:55:48.000Z</time>
      </trkpt>
      <trkpt lat="44.18771" lon="5.30599">
        <ele>933.1</ele>
        <time>2026-05-14T07:55:49.000Z</time>
      </trkpt>
      <trkpt lat="44.18771" lon="5.30598">
        <ele>933.3</ele>
        <time>2026-05-14T07:55:50.000Z</time>
      </trkpt>
      <trkpt lat="44.18771" lon="5.30598">
        <ele>934.1</ele>
        <time>2026-05-14T07:55:51.000Z</time>
      </trkpt>
      <trkpt lat="44.18771" lon="5.30598">
        <ele>934.4</ele>
        <time>2026-05-14T07:55:52.000Z</time>
      </trkpt>
      <trkpt lat="44.18771" lon="5.30597">
        <ele>934.5</ele>
        <time>2026-05-14T07:55:53.000Z</time>
      </trkpt>
      <trkpt lat="44.18771" lon="5.30597">
        <ele>934.4</ele>
        <time>2026-05-14T07:55:54.000Z</time>
      </trkpt>
      <trkpt lat="44.18771" lon="5.30596">
        <ele>934.3</ele>
        <time>2026-05-14T07:55:55.000Z</time>
      </trkpt>
      <trkpt lat="44.18771" lon="5.30596">
        <ele>934.2</ele>
        <time>2026-05-14T07:55:56.000Z</time>
      </trkpt>
      <trkpt lat="44.18771" lon="5.30596">
        <ele>934.5</ele>
        <time>2026-05-14T07:55:57.000Z</time>
      </trkpt>
      <trkpt lat="44.18771" lon="5.30594">
        <ele>934.8</ele>
        <time>2026-05-14T07:55:58.000Z</time>
      </trkpt>
      <trkpt lat="44.18771" lon="5.30592">
        <ele>935.1</ele>
        <time>2026-05-14T07:55:59.000Z</time>
      </trkpt>
      <trkpt lat="44.1877" lon="5.30591">
        <ele>934.8</ele>
        <time>2026-05-14T07:56:00.000Z</time>
      </trkpt>
      <trkpt lat="44.1877" lon="5.30591">
        <ele>934.6</ele>
        <time>2026-05-14T07:56:01.000Z</time>
      </trkpt>
      <trkpt lat="44.18771" lon="5.30591">
        <ele>934.6</ele>
        <time>2026-05-14T07:56:02.000Z</time>
      </trkpt>
      <trkpt lat="44.18771" lon="5.30591">
        <ele>934.6</ele>
        <time>2026-05-14T07:56:03.000Z</time>
      </trkpt>
      <trkpt lat="44.18771" lon="5.30591">
        <ele>934.5</ele>
        <time>2026-05-14T07:56:04.000Z</time>
      </trkpt>
      <trkpt lat="44.18772" lon="5.30591">
        <ele>934.9</ele>
        <time>2026-05-14T07:56:05.000Z</time>
      </trkpt>
      <trkpt lat="44.18772" lon="5.3059">
        <ele>935.3</ele>
        <time>2026-05-14T07:56:06.000Z</time>
      </trkpt>
      <trkpt lat="44.18772" lon="5.3059">
        <ele>935.5</ele>
        <time>2026-05-14T07:56:07.000Z</time>
      </trkpt>
      <trkpt lat="44.18772" lon="5.3059">
        <ele>936.1</ele>
        <time>2026-05-14T07:56:08.000Z</time>
      </trkpt>
      <trkpt lat="44.18772" lon="5.30589">
        <ele>936.4</ele>
        <time>2026-05-14T07:56:09.000Z</time>
      </trkpt>
      <trkpt lat="44.18772" lon="5.30587">
        <ele>936.5</ele>
        <time>2026-05-14T07:56:10.000Z</time>
      </trkpt>
      <trkpt lat="44.18772" lon="5.30585">
        <ele>936.8</ele>
        <time>2026-05-14T07:56:11.000Z</time>
      </trkpt>
      <trkpt lat="44.18772" lon="5.30585">
        <ele>937.2</ele>
        <time>2026-05-14T07:56:12.000Z</time>
      </trkpt>
      <trkpt lat="44.18772" lon="5.30584">
        <ele>937.3</ele>
        <time>2026-05-14T07:56:13.000Z</time>
      </trkpt>
      <trkpt lat="44.18772" lon="5.30584">
        <ele>937.7</ele>
        <time>2026-05-14T07:56:14.000Z</time>
      </trkpt>
      <trkpt lat="44.18772" lon="5.30584">
        <ele>938.2</ele>
        <time>2026-05-14T07:56:15.000Z</time>
      </trkpt>
      <trkpt lat="44.18772" lon="5.30584">
        <ele>938.6</ele>
        <time>2026-05-14T07:56:16.000Z</time>
      </trkpt>
      <trkpt lat="44.18772" lon="5.30583">
        <ele>938.9</ele>
        <time>2026-05-14T07:56:17.000Z</time>
      </trkpt>
      <trkpt lat="44.18772" lon="5.30581">
        <ele>939.2</ele>
        <time>2026-05-14T07:56:18.000Z</time>
      </trkpt>
      <trkpt lat="44.18772" lon="5.30579">
        <ele>939.4</ele>
        <time>2026-05-14T07:56:19.000Z</time>
      </trkpt>
      <trkpt lat="44.18772" lon="5.30578">
        <ele>939.7</ele>
        <time>2026-05-14T07:56:20.000Z</time>
      </trkpt>
      <trkpt lat="44.18771" lon="5.30577">
        <ele>940</ele>
        <time>2026-05-14T07:56:21.000Z</time>
      </trkpt>
      <trkpt lat="44.18771" lon="5.30576">
        <ele>940.2</ele>
        <time>2026-05-14T07:56:22.000Z</time>
      </trkpt>
      <trkpt lat="44.18771" lon="5.30575">
        <ele>940.4</ele>
        <time>2026-05-14T07:56:23.000Z</time>
      </trkpt>
      <trkpt lat="44.18771" lon="5.30574">
        <ele>940.5</ele>
        <time>2026-05-14T07:56:24.000Z</time>
      </trkpt>
      <trkpt lat="44.18771" lon="5.30575">
        <ele>940.5</ele>
        <time>2026-05-14T07:56:25.000Z</time>
      </trkpt>
      <trkpt lat="44.18771" lon="5.30574">
        <ele>941.1</ele>
        <time>2026-05-14T07:56:26.000Z</time>
      </trkpt>
      <trkpt lat="44.18771" lon="5.30574">
        <ele>941.5</ele>
        <time>2026-05-14T07:56:27.000Z</time>
      </trkpt>
      <trkpt lat="44.18772" lon="5.30573">
        <ele>941.7</ele>
        <time>2026-05-14T07:56:28.000Z</time>
      </trkpt>
      <trkpt lat="44.18772" lon="5.30571">
        <ele>941.9</ele>
        <time>2026-05-14T07:56:29.000Z</time>
      </trkpt>
      <trkpt lat="44.18772" lon="5.30569">
        <ele>942</ele>
        <time>2026-05-14T07:56:30.000Z</time>
      </trkpt>
      <trkpt lat="44.18773" lon="5.30568">
        <ele>942.4</ele>
        <time>2026-05-14T07:56:31.000Z</time>
      </trkpt>
      <trkpt lat="44.18773" lon="5.30566">
        <ele>942.5</ele>
        <time>2026-05-14T07:56:32.000Z</time>
      </trkpt>
      <trkpt lat="44.18773" lon="5.30564">
        <ele>942.7</ele>
        <time>2026-05-14T07:56:33.000Z</time>
      </trkpt>
      <trkpt lat="44.18774" lon="5.30564">
        <ele>942.5</ele>
        <time>2026-05-14T07:56:34.000Z</time>
      </trkpt>
      <trkpt lat="44.18774" lon="5.30563">
        <ele>942.5</ele>
        <time>2026-05-14T07:56:35.000Z</time>
      </trkpt>
      <trkpt lat="44.18773" lon="5.30563">
        <ele>942.2</ele>
        <time>2026-05-14T07:56:36.000Z</time>
      </trkpt>
      <trkpt lat="44.18773" lon="5.30563">
        <ele>942.1</ele>
        <time>2026-05-14T07:56:37.000Z</time>
      </trkpt>
      <trkpt lat="44.18773" lon="5.30563">
        <ele>942.3</ele>
        <time>2026-05-14T07:56:38.000Z</time>
      </trkpt>
      <trkpt lat="44.18773" lon="5.30562">
        <ele>942.5</ele>
        <time>2026-05-14T07:56:39.000Z</time>
      </trkpt>
      <trkpt lat="44.18773" lon="5.30562">
        <ele>942.7</ele>
        <time>2026-05-14T07:56:40.000Z</time>
      </trkpt>
      <trkpt lat="44.18773" lon="5.30562">
        <ele>942.7</ele>
        <time>2026-05-14T07:56:41.000Z</time>
      </trkpt>
      <trkpt lat="44.18773" lon="5.30561">
        <ele>942.9</ele>
        <time>2026-05-14T07:56:42.000Z</time>
      </trkpt>
      <trkpt lat="44.18773" lon="5.3056">
        <ele>943.4</ele>
        <time>2026-05-14T07:56:43.000Z</time>
      </trkpt>
      <trkpt lat="44.18773" lon="5.30559">
        <ele>943.5</ele>
        <time>2026-05-14T07:56:44.000Z</time>
      </trkpt>
      <trkpt lat="44.18773" lon="5.30558">
        <ele>944</ele>
        <time>2026-05-14T07:56:45.000Z</time>
      </trkpt>
      <trkpt lat="44.18773" lon="5.30557">
        <ele>944.3</ele>
        <time>2026-05-14T07:56:46.000Z</time>
      </trkpt>
      <trkpt lat="44.18773" lon="5.30557">
        <ele>944.3</ele>
        <time>2026-05-14T07:56:47.000Z</time>
      </trkpt>
      <trkpt lat="44.18773" lon="5.30557">
        <ele>944.5</ele>
        <time>2026-05-14T07:56:48.000Z</time>
      </trkpt>
      <trkpt lat="44.18773" lon="5.30557">
        <ele>944.6</ele>
        <time>2026-05-14T07:56:49.000Z</time>
      </trkpt>
      <trkpt lat="44.18773" lon="5.30556">
        <ele>944.6</ele>
        <time>2026-05-14T07:56:50.000Z</time>
      </trkpt>
      <trkpt lat="44.18773" lon="5.30556">
        <ele>944.3</ele>
        <time>2026-05-14T07:56:51.000Z</time>
      </trkpt>
      <trkpt lat="44.18772" lon="5.30556">
        <ele>944.1</ele>
        <time>2026-05-14T07:56:52.000Z</time>
      </trkpt>
      <trkpt lat="44.18772" lon="5.30556">
        <ele>943.9</ele>
        <time>2026-05-14T07:56:53.000Z</time>
      </trkpt>
      <trkpt lat="44.18772" lon="5.30555">
        <ele>943.9</ele>
        <time>2026-05-14T07:56:54.000Z</time>
      </trkpt>
      <trkpt lat="44.18772" lon="5.30555">
        <ele>944.4</ele>
        <time>2026-05-14T07:56:55.000Z</time>
      </trkpt>
      <trkpt lat="44.18772" lon="5.30554">
        <ele>944.5</ele>
        <time>2026-05-14T07:56:56.000Z</time>
      </trkpt>
      <trkpt lat="44.18772" lon="5.30554">
        <ele>944.6</ele>
        <time>2026-05-14T07:56:57.000Z</time>
      </trkpt>
      <trkpt lat="44.18772" lon="5.30553">
        <ele>944.8</ele>
        <time>2026-05-14T07:56:58.000Z</time>
      </trkpt>
      <trkpt lat="44.18772" lon="5.30553">
        <ele>945</ele>
        <time>2026-05-14T07:56:59.000Z</time>
      </trkpt>
      <trkpt lat="44.18772" lon="5.30551">
        <ele>945.2</ele>
        <time>2026-05-14T07:57:00.000Z</time>
      </trkpt>
      <trkpt lat="44.18772" lon="5.30549">
        <ele>945.5</ele>
        <time>2026-05-14T07:57:01.000Z</time>
      </trkpt>
      <trkpt lat="44.18772" lon="5.30548">
        <ele>945.7</ele>
        <time>2026-05-14T07:57:02.000Z</time>
      </trkpt>
      <trkpt lat="44.18772" lon="5.30547">
        <ele>945.8</ele>
        <time>2026-05-14T07:57:03.000Z</time>
      </trkpt>
      <trkpt lat="44.18772" lon="5.30547">
        <ele>946.1</ele>
        <time>2026-05-14T07:57:04.000Z</time>
      </trkpt>
      <trkpt lat="44.18772" lon="5.30547">
        <ele>946.2</ele>
        <time>2026-05-14T07:57:05.000Z</time>
      </trkpt>
      <trkpt lat="44.18772" lon="5.30547">
        <ele>946.5</ele>
        <time>2026-05-14T07:57:06.000Z</time>
      </trkpt>
      <trkpt lat="44.18772" lon="5.30546">
        <ele>946.8</ele>
        <time>2026-05-14T07:57:07.000Z</time>
      </trkpt>
      <trkpt lat="44.18772" lon="5.30546">
        <ele>947.1</ele>
        <time>2026-05-14T07:57:08.000Z</time>
      </trkpt>
      <trkpt lat="44.18772" lon="5.30546">
        <ele>947.5</ele>
        <time>2026-05-14T07:57:09.000Z</time>
      </trkpt>
      <trkpt lat="44.18772" lon="5.30545">
        <ele>947.5</ele>
        <time>2026-05-14T07:57:10.000Z</time>
      </trkpt>
      <trkpt lat="44.18772" lon="5.30545">
        <ele>947.6</ele>
        <time>2026-05-14T07:57:11.000Z</time>
      </trkpt>
      <trkpt lat="44.18772" lon="5.30544">
        <ele>947.5</ele>
        <time>2026-05-14T07:57:12.000Z</time>
      </trkpt>
      <trkpt lat="44.18771" lon="5.30541">
        <ele>947.4</ele>
        <time>2026-05-14T07:57:13.000Z</time>
      </trkpt>
      <trkpt lat="44.1877" lon="5.30539">
        <ele>947.2</ele>
        <time>2026-05-14T07:57:14.000Z</time>
      </trkpt>
      <trkpt lat="44.1877" lon="5.30536">
        <ele>947.2</ele>
        <time>2026-05-14T07:57:15.000Z</time>
      </trkpt>
      <trkpt lat="44.1877" lon="5.30535">
        <ele>947.7</ele>
        <time>2026-05-14T07:57:16.000Z</time>
      </trkpt>
      <trkpt lat="44.1877" lon="5.30535">
        <ele>948</ele>
        <time>2026-05-14T07:57:17.000Z</time>
      </trkpt>
      <trkpt lat="44.1877" lon="5.30535">
        <ele>948.3</ele>
        <time>2026-05-14T07:57:18.000Z</time>
      </trkpt>
      <trkpt lat="44.1877" lon="5.30534">
        <ele>948.4</ele>
        <time>2026-05-14T07:57:19.000Z</time>
      </trkpt>
      <trkpt lat="44.1877" lon="5.30534">
        <ele>948.5</ele>
        <time>2026-05-14T07:57:20.000Z</time>
      </trkpt>
      <trkpt lat="44.1877" lon="5.30532">
        <ele>948.7</ele>
        <time>2026-05-14T07:57:21.000Z</time>
      </trkpt>
      <trkpt lat="44.1877" lon="5.30531">
        <ele>949</ele>
        <time>2026-05-14T07:57:22.000Z</time>
      </trkpt>
      <trkpt lat="44.1877" lon="5.30529">
        <ele>949.4</ele>
        <time>2026-05-14T07:57:23.000Z</time>
      </trkpt>
      <trkpt lat="44.18771" lon="5.30528">
        <ele>949.9</ele>
        <time>2026-05-14T07:57:24.000Z</time>
      </trkpt>
      <trkpt lat="44.18771" lon="5.30527">
        <ele>950.4</ele>
        <time>2026-05-14T07:57:25.000Z</time>
      </trkpt>
      <trkpt lat="44.18772" lon="5.30525">
        <ele>950.9</ele>
        <time>2026-05-14T07:57:26.000Z</time>
      </trkpt>
      <trkpt lat="44.18772" lon="5.30523">
        <ele>951.4</ele>
        <time>2026-05-14T07:57:27.000Z</time>
      </trkpt>
      <trkpt lat="44.18771" lon="5.30522">
        <ele>951.4</ele>
        <time>2026-05-14T07:57:28.000Z</time>
      </trkpt>
      <trkpt lat="44.1877" lon="5.3052">
        <ele>951.5</ele>
        <time>2026-05-14T07:57:29.000Z</time>
      </trkpt>
      <trkpt lat="44.1877" lon="5.3052">
        <ele>951.3</ele>
        <time>2026-05-14T07:57:30.000Z</time>
      </trkpt>
      <trkpt lat="44.1877" lon="5.3052">
        <ele>951</ele>
        <time>2026-05-14T07:57:31.000Z</time>
      </trkpt>
      <trkpt lat="44.1877" lon="5.3052">
        <ele>951.2</ele>
        <time>2026-05-14T07:57:32.000Z</time>
      </trkpt>
      <trkpt lat="44.1877" lon="5.30519">
        <ele>951.5</ele>
        <time>2026-05-14T07:57:33.000Z</time>
      </trkpt>
      <trkpt lat="44.1877" lon="5.3052">
        <ele>951.3</ele>
        <time>2026-05-14T07:57:34.000Z</time>
      </trkpt>
      <trkpt lat="44.1877" lon="5.30519">
        <ele>951.7</ele>
        <time>2026-05-14T07:57:35.000Z</time>
      </trkpt>
      <trkpt lat="44.1877" lon="5.30519">
        <ele>951.7</ele>
        <time>2026-05-14T07:57:36.000Z</time>
      </trkpt>
      <trkpt lat="44.1877" lon="5.30519">
        <ele>951.7</ele>
        <time>2026-05-14T07:57:37.000Z</time>
      </trkpt>
      <trkpt lat="44.1877" lon="5.30519">
        <ele>952</ele>
        <time>2026-05-14T07:57:38.000Z</time>
      </trkpt>
      <trkpt lat="44.18771" lon="5.30517">
        <ele>952.1</ele>
        <time>2026-05-14T07:57:39.000Z</time>
      </trkpt>
      <trkpt lat="44.18772" lon="5.30516">
        <ele>952.2</ele>
        <time>2026-05-14T07:57:40.000Z</time>
      </trkpt>
      <trkpt lat="44.18772" lon="5.30516">
        <ele>952.4</ele>
        <time>2026-05-14T07:57:41.000Z</time>
      </trkpt>
      <trkpt lat="44.18772" lon="5.30514">
        <ele>952.1</ele>
        <time>2026-05-14T07:57:42.000Z</time>
      </trkpt>
      <trkpt lat="44.18772" lon="5.30513">
        <ele>952</ele>
        <time>2026-05-14T07:57:43.000Z</time>
      </trkpt>
      <trkpt lat="44.18773" lon="5.30512">
        <ele>951.9</ele>
        <time>2026-05-14T07:57:44.000Z</time>
      </trkpt>
      <trkpt lat="44.18774" lon="5.30511">
        <ele>952</ele>
        <time>2026-05-14T07:57:45.000Z</time>
      </trkpt>
      <trkpt lat="44.18775" lon="5.3051">
        <ele>952.4</ele>
        <time>2026-05-14T07:57:46.000Z</time>
      </trkpt>
      <trkpt lat="44.18775" lon="5.30508">
        <ele>952.6</ele>
        <time>2026-05-14T07:57:47.000Z</time>
      </trkpt>
      <trkpt lat="44.18775" lon="5.30507">
        <ele>953.1</ele>
        <time>2026-05-14T07:57:48.000Z</time>
      </trkpt>
      <trkpt lat="44.18775" lon="5.30506">
        <ele>953.4</ele>
        <time>2026-05-14T07:57:49.000Z</time>
      </trkpt>
      <trkpt lat="44.18775" lon="5.30505">
        <ele>953.4</ele>
        <time>2026-05-14T07:57:50.000Z</time>
      </trkpt>
      <trkpt lat="44.18775" lon="5.30504">
        <ele>953.3</ele>
        <time>2026-05-14T07:57:51.000Z</time>
      </trkpt>
      <trkpt lat="44.18775" lon="5.30503">
        <ele>953.6</ele>
        <time>2026-05-14T07:57:52.000Z</time>
      </trkpt>
      <trkpt lat="44.18775" lon="5.30501">
        <ele>954.2</ele>
        <time>2026-05-14T07:57:53.000Z</time>
      </trkpt>
      <trkpt lat="44.18775" lon="5.305">
        <ele>954.2</ele>
        <time>2026-05-14T07:57:54.000Z</time>
      </trkpt>
      <trkpt lat="44.18776" lon="5.305">
        <ele>954.2</ele>
        <time>2026-05-14T07:57:55.000Z</time>
      </trkpt>
      <trkpt lat="44.18776" lon="5.30498">
        <ele>954.2</ele>
        <time>2026-05-14T07:57:56.000Z</time>
      </trkpt>
      <trkpt lat="44.18776" lon="5.30497">
        <ele>954.5</ele>
        <time>2026-05-14T07:57:57.000Z</time>
      </trkpt>
      <trkpt lat="44.18777" lon="5.30497">
        <ele>954.1</ele>
        <time>2026-05-14T07:57:58.000Z</time>
      </trkpt>
      <trkpt lat="44.18778" lon="5.30495">
        <ele>953.1</ele>
        <time>2026-05-14T07:57:59.000Z</time>
      </trkpt>
      <trkpt lat="44.18779" lon="5.30494">
        <ele>952.6</ele>
        <time>2026-05-14T07:58:00.000Z</time>
      </trkpt>
      <trkpt lat="44.18779" lon="5.30493">
        <ele>952.2</ele>
        <time>2026-05-14T07:58:01.000Z</time>
      </trkpt>
      <trkpt lat="44.18779" lon="5.30492">
        <ele>952</ele>
        <time>2026-05-14T07:58:02.000Z</time>
      </trkpt>
      <trkpt lat="44.1878" lon="5.30491">
        <ele>952.2</ele>
        <time>2026-05-14T07:58:03.000Z</time>
      </trkpt>
      <trkpt lat="44.1878" lon="5.30491">
        <ele>952</ele>
        <time>2026-05-14T07:58:04.000Z</time>
      </trkpt>
      <trkpt lat="44.18781" lon="5.3049">
        <ele>951.9</ele>
        <time>2026-05-14T07:58:05.000Z</time>
      </trkpt>
      <trkpt lat="44.18782" lon="5.30489">
        <ele>952.2</ele>
        <time>2026-05-14T07:58:06.000Z</time>
      </trkpt>
      <trkpt lat="44.18782" lon="5.30489">
        <ele>952.3</ele>
        <time>2026-05-14T07:58:07.000Z</time>
      </trkpt>
      <trkpt lat="44.18782" lon="5.30488">
        <ele>951.9</ele>
        <time>2026-05-14T07:58:08.000Z</time>
      </trkpt>
      <trkpt lat="44.18782" lon="5.30487">
        <ele>951.9</ele>
        <time>2026-05-14T07:58:09.000Z</time>
      </trkpt>
      <trkpt lat="44.18782" lon="5.30486">
        <ele>951.6</ele>
        <time>2026-05-14T07:58:10.000Z</time>
      </trkpt>
      <trkpt lat="44.18782" lon="5.30484">
        <ele>951.7</ele>
        <time>2026-05-14T07:58:11.000Z</time>
      </trkpt>
      <trkpt lat="44.18782" lon="5.30483">
        <ele>951.9</ele>
        <time>2026-05-14T07:58:12.000Z</time>
      </trkpt>
      <trkpt lat="44.18783" lon="5.30481">
        <ele>952</ele>
        <time>2026-05-14T07:58:13.000Z</time>
      </trkpt>
      <trkpt lat="44.18783" lon="5.30481">
        <ele>952.1</ele>
        <time>2026-05-14T07:58:14.000Z</time>
      </trkpt>
      <trkpt lat="44.18783" lon="5.30479">
        <ele>952.2</ele>
        <time>2026-05-14T07:58:15.000Z</time>
      </trkpt>
      <trkpt lat="44.18783" lon="5.30477">
        <ele>952.5</ele>
        <time>2026-05-14T07:58:16.000Z</time>
      </trkpt>
      <trkpt lat="44.18784" lon="5.30475">
        <ele>952.5</ele>
        <time>2026-05-14T07:58:17.000Z</time>
      </trkpt>
      <trkpt lat="44.18784" lon="5.30473">
        <ele>952.4</ele>
        <time>2026-05-14T07:58:18.000Z</time>
      </trkpt>
      <trkpt lat="44.18784" lon="5.30471">
        <ele>951.9</ele>
        <time>2026-05-14T07:58:19.000Z</time>
      </trkpt>
      <trkpt lat="44.18784" lon="5.3047">
        <ele>952.2</ele>
        <time>2026-05-14T07:58:20.000Z</time>
      </trkpt>
      <trkpt lat="44.18785" lon="5.30469">
        <ele>952.2</ele>
        <time>2026-05-14T07:58:21.000Z</time>
      </trkpt>
      <trkpt lat="44.18785" lon="5.30469">
        <ele>952.3</ele>
        <time>2026-05-14T07:58:22.000Z</time>
      </trkpt>
      <trkpt lat="44.18786" lon="5.30468">
        <ele>952.3</ele>
        <time>2026-05-14T07:58:23.000Z</time>
      </trkpt>
      <trkpt lat="44.18786" lon="5.30467">
        <ele>952.2</ele>
        <time>2026-05-14T07:58:24.000Z</time>
      </trkpt>
      <trkpt lat="44.18787" lon="5.30466">
        <ele>952.4</ele>
        <time>2026-05-14T07:58:25.000Z</time>
      </trkpt>
      <trkpt lat="44.18788" lon="5.30465">
        <ele>952.6</ele>
        <time>2026-05-14T07:58:26.000Z</time>
      </trkpt>
      <trkpt lat="44.18788" lon="5.30463">
        <ele>952.5</ele>
        <time>2026-05-14T07:58:27.000Z</time>
      </trkpt>
      <trkpt lat="44.18789" lon="5.30462">
        <ele>952.6</ele>
        <time>2026-05-14T07:58:28.000Z</time>
      </trkpt>
      <trkpt lat="44.1879" lon="5.30461">
        <ele>952.9</ele>
        <time>2026-05-14T07:58:29.000Z</time>
      </trkpt>
      <trkpt lat="44.18791" lon="5.3046">
        <ele>953.2</ele>
        <time>2026-05-14T07:58:30.000Z</time>
      </trkpt>
      <trkpt lat="44.18791" lon="5.30459">
        <ele>953.6</ele>
        <time>2026-05-14T07:58:31.000Z</time>
      </trkpt>
      <trkpt lat="44.18791" lon="5.30458">
        <ele>953.8</ele>
        <time>2026-05-14T07:58:32.000Z</time>
      </trkpt>
      <trkpt lat="44.1879" lon="5.30456">
        <ele>953.2</ele>
        <time>2026-05-14T07:58:33.000Z</time>
      </trkpt>
      <trkpt lat="44.1879" lon="5.30454">
        <ele>952.8</ele>
        <time>2026-05-14T07:58:34.000Z</time>
      </trkpt>
      <trkpt lat="44.18789" lon="5.30452">
        <ele>952.4</ele>
        <time>2026-05-14T07:58:35.000Z</time>
      </trkpt>
      <trkpt lat="44.18789" lon="5.3045">
        <ele>952.2</ele>
        <time>2026-05-14T07:58:36.000Z</time>
      </trkpt>
      <trkpt lat="44.18788" lon="5.30448">
        <ele>952.2</ele>
        <time>2026-05-14T07:58:37.000Z</time>
      </trkpt>
      <trkpt lat="44.18787" lon="5.30447">
        <ele>952.1</ele>
        <time>2026-05-14T07:58:38.000Z</time>
      </trkpt>
      <trkpt lat="44.18787" lon="5.30445">
        <ele>952.1</ele>
        <time>2026-05-14T07:58:39.000Z</time>
      </trkpt>
      <trkpt lat="44.18787" lon="5.30444">
        <ele>951.9</ele>
        <time>2026-05-14T07:58:40.000Z</time>
      </trkpt>
      <trkpt lat="44.18786" lon="5.30442">
        <ele>951.4</ele>
        <time>2026-05-14T07:58:41.000Z</time>
      </trkpt>
      <trkpt lat="44.18786" lon="5.3044">
        <ele>951.1</ele>
        <time>2026-05-14T07:58:42.000Z</time>
      </trkpt>
      <trkpt lat="44.18786" lon="5.30438">
        <ele>951.1</ele>
        <time>2026-05-14T07:58:43.000Z</time>
      </trkpt>
      <trkpt lat="44.18786" lon="5.30437">
        <ele>950.8</ele>
        <time>2026-05-14T07:58:44.000Z</time>
      </trkpt>
      <trkpt lat="44.18785" lon="5.30437">
        <ele>950.5</ele>
        <time>2026-05-14T07:58:45.000Z</time>
      </trkpt>
      <trkpt lat="44.18784" lon="5.30435">
        <ele>950.5</ele>
        <time>2026-05-14T07:58:46.000Z</time>
      </trkpt>
      <trkpt lat="44.18784" lon="5.30434">
        <ele>950.6</ele>
        <time>2026-05-14T07:58:47.000Z</time>
      </trkpt>
      <trkpt lat="44.18784" lon="5.30432">
        <ele>950.7</ele>
        <time>2026-05-14T07:58:48.000Z</time>
      </trkpt>
      <trkpt lat="44.18784" lon="5.30431">
        <ele>950.7</ele>
        <time>2026-05-14T07:58:49.000Z</time>
      </trkpt>
      <trkpt lat="44.18784" lon="5.30429">
        <ele>950.7</ele>
        <time>2026-05-14T07:58:50.000Z</time>
      </trkpt>
      <trkpt lat="44.18783" lon="5.30427">
        <ele>950.7</ele>
        <time>2026-05-14T07:58:51.000Z</time>
      </trkpt>
      <trkpt lat="44.18784" lon="5.30425">
        <ele>950.6</ele>
        <time>2026-05-14T07:58:52.000Z</time>
      </trkpt>
      <trkpt lat="44.18784" lon="5.30424">
        <ele>950.7</ele>
        <time>2026-05-14T07:58:53.000Z</time>
      </trkpt>
      <trkpt lat="44.18784" lon="5.30423">
        <ele>950.5</ele>
        <time>2026-05-14T07:58:54.000Z</time>
      </trkpt>
      <trkpt lat="44.18784" lon="5.30423">
        <ele>950.4</ele>
        <time>2026-05-14T07:58:55.000Z</time>
      </trkpt>
      <trkpt lat="44.18783" lon="5.30421">
        <ele>950</ele>
        <time>2026-05-14T07:58:56.000Z</time>
      </trkpt>
      <trkpt lat="44.18782" lon="5.30419">
        <ele>949.6</ele>
        <time>2026-05-14T07:58:57.000Z</time>
      </trkpt>
      <trkpt lat="44.18783" lon="5.30418">
        <ele>949.1</ele>
        <time>2026-05-14T07:58:58.000Z</time>
      </trkpt>
      <trkpt lat="44.18783" lon="5.30416">
        <ele>949.1</ele>
        <time>2026-05-14T07:58:59.000Z</time>
      </trkpt>
      <trkpt lat="44.18782" lon="5.30414">
        <ele>948.8</ele>
        <time>2026-05-14T07:59:00.000Z</time>
      </trkpt>
      <trkpt lat="44.18782" lon="5.30413">
        <ele>948.2</ele>
        <time>2026-05-14T07:59:01.000Z</time>
      </trkpt>
      <trkpt lat="44.18782" lon="5.30411">
        <ele>948</ele>
        <time>2026-05-14T07:59:02.000Z</time>
      </trkpt>
      <trkpt lat="44.18782" lon="5.3041">
        <ele>947.8</ele>
        <time>2026-05-14T07:59:03.000Z</time>
      </trkpt>
      <trkpt lat="44.18782" lon="5.30408">
        <ele>947.6</ele>
        <time>2026-05-14T07:59:04.000Z</time>
      </trkpt>
      <trkpt lat="44.18781" lon="5.30407">
        <ele>947.4</ele>
        <time>2026-05-14T07:59:05.000Z</time>
      </trkpt>
      <trkpt lat="44.18781" lon="5.30406">
        <ele>947.3</ele>
        <time>2026-05-14T07:59:06.000Z</time>
      </trkpt>
      <trkpt lat="44.1878" lon="5.30404">
        <ele>947.1</ele>
        <time>2026-05-14T07:59:07.000Z</time>
      </trkpt>
      <trkpt lat="44.1878" lon="5.30403">
        <ele>947</ele>
        <time>2026-05-14T07:59:08.000Z</time>
      </trkpt>
      <trkpt lat="44.18779" lon="5.30402">
        <ele>946.9</ele>
        <time>2026-05-14T07:59:09.000Z</time>
      </trkpt>
      <trkpt lat="44.18779" lon="5.304">
        <ele>946.9</ele>
        <time>2026-05-14T07:59:10.000Z</time>
      </trkpt>
      <trkpt lat="44.18778" lon="5.30399">
        <ele>946.7</ele>
        <time>2026-05-14T07:59:11.000Z</time>
      </trkpt>
      <trkpt lat="44.18779" lon="5.30398">
        <ele>946.6</ele>
        <time>2026-05-14T07:59:12.000Z</time>
      </trkpt>
      <trkpt lat="44.18779" lon="5.30396">
        <ele>946.3</ele>
        <time>2026-05-14T07:59:13.000Z</time>
      </trkpt>
      <trkpt lat="44.1878" lon="5.30394">
        <ele>946.1</ele>
        <time>2026-05-14T07:59:14.000Z</time>
      </trkpt>
      <trkpt lat="44.1878" lon="5.30392">
        <ele>946.3</ele>
        <time>2026-05-14T07:59:15.000Z</time>
      </trkpt>
      <trkpt lat="44.1878" lon="5.3039">
        <ele>946.5</ele>
        <time>2026-05-14T07:59:16.000Z</time>
      </trkpt>
      <trkpt lat="44.1878" lon="5.30388">
        <ele>946.5</ele>
        <time>2026-05-14T07:59:17.000Z</time>
      </trkpt>
      <trkpt lat="44.18779" lon="5.30388">
        <ele>946.6</ele>
        <time>2026-05-14T07:59:18.000Z</time>
      </trkpt>
      <trkpt lat="44.18779" lon="5.30388">
        <ele>946.6</ele>
        <time>2026-05-14T07:59:19.000Z</time>
      </trkpt>
      <trkpt lat="44.18779" lon="5.30389">
        <ele>947.1</ele>
        <time>2026-05-14T07:59:20.000Z</time>
      </trkpt>
      <trkpt lat="44.18779" lon="5.30389">
        <ele>947.7</ele>
        <time>2026-05-14T07:59:21.000Z</time>
      </trkpt>
      <trkpt lat="44.18779" lon="5.30389">
        <ele>947.7</ele>
        <time>2026-05-14T07:59:22.000Z</time>
      </trkpt>
      <trkpt lat="44.18779" lon="5.30389">
        <ele>947.4</ele>
        <time>2026-05-14T07:59:23.000Z</time>
      </trkpt>
      <trkpt lat="44.18779" lon="5.30389">
        <ele>947.4</ele>
        <time>2026-05-14T07:59:24.000Z</time>
      </trkpt>
      <trkpt lat="44.18778" lon="5.30388">
        <ele>947.4</ele>
        <time>2026-05-14T07:59:25.000Z</time>
      </trkpt>
      <trkpt lat="44.18777" lon="5.30386">
        <ele>947.6</ele>
        <time>2026-05-14T07:59:26.000Z</time>
      </trkpt>
      <trkpt lat="44.18777" lon="5.30384">
        <ele>947.5</ele>
        <time>2026-05-14T07:59:27.000Z</time>
      </trkpt>
      <trkpt lat="44.18776" lon="5.30383">
        <ele>947.4</ele>
        <time>2026-05-14T07:59:28.000Z</time>
      </trkpt>
      <trkpt lat="44.18776" lon="5.30381">
        <ele>947.2</ele>
        <time>2026-05-14T07:59:29.000Z</time>
      </trkpt>
      <trkpt lat="44.18775" lon="5.30379">
        <ele>946.8</ele>
        <time>2026-05-14T07:59:30.000Z</time>
      </trkpt>
      <trkpt lat="44.18774" lon="5.30376">
        <ele>947.5</ele>
        <time>2026-05-14T07:59:32.000Z</time>
      </trkpt>
      <trkpt lat="44.18772" lon="5.30374">
        <ele>947.5</ele>
        <time>2026-05-14T07:59:33.000Z</time>
      </trkpt>
      <trkpt lat="44.18771" lon="5.30372">
        <ele>947.4</ele>
        <time>2026-05-14T07:59:34.000Z</time>
      </trkpt>
      <trkpt lat="44.18771" lon="5.3037">
        <ele>947.3</ele>
        <time>2026-05-14T07:59:35.000Z</time>
      </trkpt>
      <trkpt lat="44.1877" lon="5.30369">
        <ele>947.4</ele>
        <time>2026-05-14T07:59:36.000Z</time>
      </trkpt>
      <trkpt lat="44.18769" lon="5.30368">
        <ele>947.6</ele>
        <time>2026-05-14T07:59:37.000Z</time>
      </trkpt>
      <trkpt lat="44.18768" lon="5.30366">
        <ele>947.6</ele>
        <time>2026-05-14T07:59:38.000Z</time>
      </trkpt>
      <trkpt lat="44.18768" lon="5.30365">
        <ele>947.7</ele>
        <time>2026-05-14T07:59:39.000Z</time>
      </trkpt>
      <trkpt lat="44.18767" lon="5.30364">
        <ele>947.7</ele>
        <time>2026-05-14T07:59:40.000Z</time>
      </trkpt>
      <trkpt lat="44.18767" lon="5.30363">
        <ele>947.9</ele>
        <time>2026-05-14T07:59:41.000Z</time>
      </trkpt>
      <trkpt lat="44.18767" lon="5.30362">
        <ele>948.1</ele>
        <time>2026-05-14T07:59:42.000Z</time>
      </trkpt>
      <trkpt lat="44.18766" lon="5.3036">
        <ele>948.4</ele>
        <time>2026-05-14T07:59:43.000Z</time>
      </trkpt>
      <trkpt lat="44.18765" lon="5.30359">
        <ele>948.9</ele>
        <time>2026-05-14T07:59:44.000Z</time>
      </trkpt>
      <trkpt lat="44.18765" lon="5.30358">
        <ele>949.1</ele>
        <time>2026-05-14T07:59:45.000Z</time>
      </trkpt>
      <trkpt lat="44.18765" lon="5.30356">
        <ele>949</ele>
        <time>2026-05-14T07:59:46.000Z</time>
      </trkpt>
      <trkpt lat="44.18765" lon="5.30355">
        <ele>948.7</ele>
        <time>2026-05-14T07:59:47.000Z</time>
      </trkpt>
      <trkpt lat="44.18764" lon="5.30353">
        <ele>948.5</ele>
        <time>2026-05-14T07:59:48.000Z</time>
      </trkpt>
      <trkpt lat="44.18764" lon="5.30352">
        <ele>948.4</ele>
        <time>2026-05-14T07:59:49.000Z</time>
      </trkpt>
      <trkpt lat="44.18764" lon="5.30351">
        <ele>948.7</ele>
        <time>2026-05-14T07:59:50.000Z</time>
      </trkpt>
      <trkpt lat="44.18764" lon="5.30349">
        <ele>949.1</ele>
        <time>2026-05-14T07:59:51.000Z</time>
      </trkpt>
      <trkpt lat="44.18763" lon="5.30347">
        <ele>949.4</ele>
        <time>2026-05-14T07:59:52.000Z</time>
      </trkpt>
      <trkpt lat="44.18762" lon="5.30345">
        <ele>949.7</ele>
        <time>2026-05-14T07:59:53.000Z</time>
      </trkpt>
      <trkpt lat="44.18761" lon="5.30344">
        <ele>950.3</ele>
        <time>2026-05-14T07:59:54.000Z</time>
      </trkpt>
      <trkpt lat="44.18761" lon="5.30343">
        <ele>950.7</ele>
        <time>2026-05-14T07:59:55.000Z</time>
      </trkpt>
      <trkpt lat="44.1876" lon="5.30342">
        <ele>950.9</ele>
        <time>2026-05-14T07:59:56.000Z</time>
      </trkpt>
      <trkpt lat="44.1876" lon="5.30341">
        <ele>951.3</ele>
        <time>2026-05-14T07:59:57.000Z</time>
      </trkpt>
      <trkpt lat="44.1876" lon="5.30339">
        <ele>951.5</ele>
        <time>2026-05-14T07:59:58.000Z</time>
      </trkpt>
      <trkpt lat="44.18759" lon="5.30338">
        <ele>951.7</ele>
        <time>2026-05-14T07:59:59.000Z</time>
      </trkpt>
      <trkpt lat="44.18758" lon="5.30337">
        <ele>952.1</ele>
        <time>2026-05-14T08:00:00.000Z</time>
      </trkpt>
      <trkpt lat="44.18758" lon="5.30335">
        <ele>952.4</ele>
        <time>2026-05-14T08:00:01.000Z</time>
      </trkpt>
      <trkpt lat="44.18758" lon="5.30334">
        <ele>952.9</ele>
        <time>2026-05-14T08:00:02.000Z</time>
      </trkpt>
      <trkpt lat="44.18757" lon="5.30332">
        <ele>953.2</ele>
        <time>2026-05-14T08:00:03.000Z</time>
      </trkpt>
      <trkpt lat="44.18757" lon="5.30331">
        <ele>953.5</ele>
        <time>2026-05-14T08:00:04.000Z</time>
      </trkpt>
      <trkpt lat="44.18757" lon="5.30329">
        <ele>953.6</ele>
        <time>2026-05-14T08:00:05.000Z</time>
      </trkpt>
      <trkpt lat="44.18757" lon="5.30327">
        <ele>953.5</ele>
        <time>2026-05-14T08:00:06.000Z</time>
      </trkpt>
      <trkpt lat="44.18756" lon="5.30325">
        <ele>953.8</ele>
        <time>2026-05-14T08:00:07.000Z</time>
      </trkpt>
      <trkpt lat="44.18756" lon="5.30323">
        <ele>954.4</ele>
        <time>2026-05-14T08:00:08.000Z</time>
      </trkpt>
      <trkpt lat="44.18755" lon="5.30321">
        <ele>954.6</ele>
        <time>2026-05-14T08:00:09.000Z</time>
      </trkpt>
      <trkpt lat="44.18754" lon="5.30321">
        <ele>954.4</ele>
        <time>2026-05-14T08:00:10.000Z</time>
      </trkpt>
      <trkpt lat="44.18753" lon="5.3032">
        <ele>954.5</ele>
        <time>2026-05-14T08:00:11.000Z</time>
      </trkpt>
      <trkpt lat="44.18752" lon="5.30318">
        <ele>954.7</ele>
        <time>2026-05-14T08:00:12.000Z</time>
      </trkpt>
      <trkpt lat="44.18752" lon="5.30316">
        <ele>954.9</ele>
        <time>2026-05-14T08:00:13.000Z</time>
      </trkpt>
      <trkpt lat="44.18752" lon="5.30314">
        <ele>955.2</ele>
        <time>2026-05-14T08:00:14.000Z</time>
      </trkpt>
      <trkpt lat="44.18751" lon="5.30313">
        <ele>955.4</ele>
        <time>2026-05-14T08:00:15.000Z</time>
      </trkpt>
      <trkpt lat="44.18751" lon="5.30312">
        <ele>955.8</ele>
        <time>2026-05-14T08:00:16.000Z</time>
      </trkpt>
      <trkpt lat="44.1875" lon="5.30311">
        <ele>955.9</ele>
        <time>2026-05-14T08:00:17.000Z</time>
      </trkpt>
      <trkpt lat="44.18749" lon="5.30309">
        <ele>955.9</ele>
        <time>2026-05-14T08:00:18.000Z</time>
      </trkpt>
      <trkpt lat="44.18748" lon="5.30308">
        <ele>956</ele>
        <time>2026-05-14T08:00:19.000Z</time>
      </trkpt>
      <trkpt lat="44.18748" lon="5.30307">
        <ele>956.2</ele>
        <time>2026-05-14T08:00:20.000Z</time>
      </trkpt>
      <trkpt lat="44.18747" lon="5.30305">
        <ele>956.5</ele>
        <time>2026-05-14T08:00:21.000Z</time>
      </trkpt>
      <trkpt lat="44.18747" lon="5.30303">
        <ele>956.2</ele>
        <time>2026-05-14T08:00:22.000Z</time>
      </trkpt>
      <trkpt lat="44.18747" lon="5.30301">
        <ele>956.2</ele>
        <time>2026-05-14T08:00:23.000Z</time>
      </trkpt>
      <trkpt lat="44.18746" lon="5.30299">
        <ele>956.1</ele>
        <time>2026-05-14T08:00:24.000Z</time>
      </trkpt>
      <trkpt lat="44.18746" lon="5.30298">
        <ele>955.9</ele>
        <time>2026-05-14T08:00:25.000Z</time>
      </trkpt>
      <trkpt lat="44.18746" lon="5.30296">
        <ele>955.8</ele>
        <time>2026-05-14T08:00:26.000Z</time>
      </trkpt>
      <trkpt lat="44.18745" lon="5.30295">
        <ele>955.6</ele>
        <time>2026-05-14T08:00:27.000Z</time>
      </trkpt>
      <trkpt lat="44.18745" lon="5.30294">
        <ele>955.5</ele>
        <time>2026-05-14T08:00:28.000Z</time>
      </trkpt>
      <trkpt lat="44.18745" lon="5.30293">
        <ele>955.5</ele>
        <time>2026-05-14T08:00:29.000Z</time>
      </trkpt>
      <trkpt lat="44.18745" lon="5.30291">
        <ele>955.4</ele>
        <time>2026-05-14T08:00:30.000Z</time>
      </trkpt>
      <trkpt lat="44.18745" lon="5.30289">
        <ele>955.4</ele>
        <time>2026-05-14T08:00:31.000Z</time>
      </trkpt>
      <trkpt lat="44.18744" lon="5.30286">
        <ele>955.5</ele>
        <time>2026-05-14T08:00:32.000Z</time>
      </trkpt>
      <trkpt lat="44.18744" lon="5.30284">
        <ele>956</ele>
        <time>2026-05-14T08:00:33.000Z</time>
      </trkpt>
      <trkpt lat="44.18744" lon="5.30282">
        <ele>956.3</ele>
        <time>2026-05-14T08:00:34.000Z</time>
      </trkpt>
      <trkpt lat="44.18744" lon="5.30281">
        <ele>956.5</ele>
        <time>2026-05-14T08:00:35.000Z</time>
      </trkpt>
      <trkpt lat="44.18744" lon="5.30279">
        <ele>956.7</ele>
        <time>2026-05-14T08:00:36.000Z</time>
      </trkpt>
      <trkpt lat="44.18743" lon="5.30278">
        <ele>957.1</ele>
        <time>2026-05-14T08:00:37.000Z</time>
      </trkpt>
      <trkpt lat="44.18743" lon="5.30276">
        <ele>957.6</ele>
        <time>2026-05-14T08:00:38.000Z</time>
      </trkpt>
      <trkpt lat="44.18743" lon="5.30275">
        <ele>958</ele>
        <time>2026-05-14T08:00:39.000Z</time>
      </trkpt>
      <trkpt lat="44.18743" lon="5.30273">
        <ele>957.8</ele>
        <time>2026-05-14T08:00:40.000Z</time>
      </trkpt>
      <trkpt lat="44.18743" lon="5.30271">
        <ele>957.8</ele>
        <time>2026-05-14T08:00:41.000Z</time>
      </trkpt>
      <trkpt lat="44.18743" lon="5.30269">
        <ele>958.1</ele>
        <time>2026-05-14T08:00:42.000Z</time>
      </trkpt>
      <trkpt lat="44.18743" lon="5.30268">
        <ele>958.2</ele>
        <time>2026-05-14T08:00:43.000Z</time>
      </trkpt>
      <trkpt lat="44.18742" lon="5.30268">
        <ele>958.3</ele>
        <time>2026-05-14T08:00:44.000Z</time>
      </trkpt>
      <trkpt lat="44.18742" lon="5.30267">
        <ele>958.7</ele>
        <time>2026-05-14T08:00:45.000Z</time>
      </trkpt>
      <trkpt lat="44.18742" lon="5.30266">
        <ele>959</ele>
        <time>2026-05-14T08:00:46.000Z</time>
      </trkpt>
      <trkpt lat="44.18741" lon="5.30264">
        <ele>959.7</ele>
        <time>2026-05-14T08:00:47.000Z</time>
      </trkpt>
      <trkpt lat="44.18741" lon="5.30262">
        <ele>959.8</ele>
        <time>2026-05-14T08:00:48.000Z</time>
      </trkpt>
      <trkpt lat="44.18741" lon="5.3026">
        <ele>959.8</ele>
        <time>2026-05-14T08:00:49.000Z</time>
      </trkpt>
      <trkpt lat="44.18741" lon="5.30256">
        <ele>960.1</ele>
        <time>2026-05-14T08:00:51.000Z</time>
      </trkpt>
      <trkpt lat="44.18741" lon="5.30255">
        <ele>960.3</ele>
        <time>2026-05-14T08:00:52.000Z</time>
      </trkpt>
      <trkpt lat="44.18741" lon="5.30253">
        <ele>959.6</ele>
        <time>2026-05-14T08:00:53.000Z</time>
      </trkpt>
      <trkpt lat="44.1874" lon="5.30251">
        <ele>959.1</ele>
        <time>2026-05-14T08:00:54.000Z</time>
      </trkpt>
      <trkpt lat="44.18739" lon="5.30249">
        <ele>958.9</ele>
        <time>2026-05-14T08:00:55.000Z</time>
      </trkpt>
      <trkpt lat="44.18738" lon="5.30248">
        <ele>958.2</ele>
        <time>2026-05-14T08:00:56.000Z</time>
      </trkpt>
      <trkpt lat="44.18737" lon="5.30246">
        <ele>958.3</ele>
        <time>2026-05-14T08:00:57.000Z</time>
      </trkpt>
      <trkpt lat="44.18737" lon="5.30245">
        <ele>958.2</ele>
        <time>2026-05-14T08:00:58.000Z</time>
      </trkpt>
      <trkpt lat="44.18737" lon="5.30243">
        <ele>958.1</ele>
        <time>2026-05-14T08:00:59.000Z</time>
      </trkpt>
      <trkpt lat="44.18737" lon="5.30242">
        <ele>958.2</ele>
        <time>2026-05-14T08:01:00.000Z</time>
      </trkpt>
      <trkpt lat="44.18736" lon="5.30241">
        <ele>957.9</ele>
        <time>2026-05-14T08:01:01.000Z</time>
      </trkpt>
      <trkpt lat="44.18736" lon="5.3024">
        <ele>957.8</ele>
        <time>2026-05-14T08:01:02.000Z</time>
      </trkpt>
      <trkpt lat="44.18736" lon="5.30239">
        <ele>958</ele>
        <time>2026-05-14T08:01:03.000Z</time>
      </trkpt>
      <trkpt lat="44.18737" lon="5.30238">
        <ele>958.2</ele>
        <time>2026-05-14T08:01:04.000Z</time>
      </trkpt>
      <trkpt lat="44.18737" lon="5.30237">
        <ele>958.6</ele>
        <time>2026-05-14T08:01:05.000Z</time>
      </trkpt>
      <trkpt lat="44.18736" lon="5.30236">
        <ele>958.7</ele>
        <time>2026-05-14T08:01:06.000Z</time>
      </trkpt>
      <trkpt lat="44.18736" lon="5.30235">
        <ele>958.8</ele>
        <time>2026-05-14T08:01:07.000Z</time>
      </trkpt>
      <trkpt lat="44.18736" lon="5.30234">
        <ele>958.4</ele>
        <time>2026-05-14T08:01:08.000Z</time>
      </trkpt>
      <trkpt lat="44.18737" lon="5.30232">
        <ele>958.4</ele>
        <time>2026-05-14T08:01:09.000Z</time>
      </trkpt>
      <trkpt lat="44.18738" lon="5.30231">
        <ele>958.7</ele>
        <time>2026-05-14T08:01:10.000Z</time>
      </trkpt>
      <trkpt lat="44.18737" lon="5.30229">
        <ele>958.4</ele>
        <time>2026-05-14T08:01:11.000Z</time>
      </trkpt>
      <trkpt lat="44.18737" lon="5.30228">
        <ele>958.4</ele>
        <time>2026-05-14T08:01:12.000Z</time>
      </trkpt>
      <trkpt lat="44.18738" lon="5.30226">
        <ele>958.4</ele>
        <time>2026-05-14T08:01:13.000Z</time>
      </trkpt>
      <trkpt lat="44.18738" lon="5.30225">
        <ele>958.8</ele>
        <time>2026-05-14T08:01:14.000Z</time>
      </trkpt>
      <trkpt lat="44.18738" lon="5.30224">
        <ele>959.3</ele>
        <time>2026-05-14T08:01:15.000Z</time>
      </trkpt>
      <trkpt lat="44.18737" lon="5.30223">
        <ele>959.6</ele>
        <time>2026-05-14T08:01:16.000Z</time>
      </trkpt>
      <trkpt lat="44.18737" lon="5.30222">
        <ele>959.4</ele>
        <time>2026-05-14T08:01:17.000Z</time>
      </trkpt>
      <trkpt lat="44.18736" lon="5.3022">
        <ele>959.4</ele>
        <time>2026-05-14T08:01:18.000Z</time>
      </trkpt>
      <trkpt lat="44.18735" lon="5.30219">
        <ele>959.4</ele>
        <time>2026-05-14T08:01:19.000Z</time>
      </trkpt>
      <trkpt lat="44.18735" lon="5.30218">
        <ele>959.5</ele>
        <time>2026-05-14T08:01:20.000Z</time>
      </trkpt>
      <trkpt lat="44.18734" lon="5.30217">
        <ele>959.4</ele>
        <time>2026-05-14T08:01:21.000Z</time>
      </trkpt>
      <trkpt lat="44.18734" lon="5.30217">
        <ele>959.8</ele>
        <time>2026-05-14T08:01:22.000Z</time>
      </trkpt>
      <trkpt lat="44.18734" lon="5.30217">
        <ele>960.1</ele>
        <time>2026-05-14T08:01:23.000Z</time>
      </trkpt>
      <trkpt lat="44.18734" lon="5.30216">
        <ele>960.6</ele>
        <time>2026-05-14T08:01:24.000Z</time>
      </trkpt>
      <trkpt lat="44.18734" lon="5.30215">
        <ele>961.1</ele>
        <time>2026-05-14T08:01:25.000Z</time>
      </trkpt>
      <trkpt lat="44.18734" lon="5.30213">
        <ele>961.4</ele>
        <time>2026-05-14T08:01:26.000Z</time>
      </trkpt>
      <trkpt lat="44.18734" lon="5.30212">
        <ele>961.8</ele>
        <time>2026-05-14T08:01:27.000Z</time>
      </trkpt>
      <trkpt lat="44.18734" lon="5.3021">
        <ele>962.2</ele>
        <time>2026-05-14T08:01:28.000Z</time>
      </trkpt>
      <trkpt lat="44.18735" lon="5.30209">
        <ele>962.6</ele>
        <time>2026-05-14T08:01:29.000Z</time>
      </trkpt>
      <trkpt lat="44.18735" lon="5.30208">
        <ele>962.8</ele>
        <time>2026-05-14T08:01:30.000Z</time>
      </trkpt>
      <trkpt lat="44.18736" lon="5.30206">
        <ele>963</ele>
        <time>2026-05-14T08:01:31.000Z</time>
      </trkpt>
      <trkpt lat="44.18736" lon="5.30205">
        <ele>963.6</ele>
        <time>2026-05-14T08:01:32.000Z</time>
      </trkpt>
      <trkpt lat="44.18736" lon="5.30203">
        <ele>964</ele>
        <time>2026-05-14T08:01:33.000Z</time>
      </trkpt>
      <trkpt lat="44.18735" lon="5.30202">
        <ele>964</ele>
        <time>2026-05-14T08:01:34.000Z</time>
      </trkpt>
      <trkpt lat="44.18735" lon="5.302">
        <ele>963.8</ele>
        <time>2026-05-14T08:01:35.000Z</time>
      </trkpt>
      <trkpt lat="44.18735" lon="5.30199">
        <ele>964</ele>
        <time>2026-05-14T08:01:36.000Z</time>
      </trkpt>
      <trkpt lat="44.18735" lon="5.30198">
        <ele>963.8</ele>
        <time>2026-05-14T08:01:37.000Z</time>
      </trkpt>
      <trkpt lat="44.18735" lon="5.30196">
        <ele>963.4</ele>
        <time>2026-05-14T08:01:38.000Z</time>
      </trkpt>
      <trkpt lat="44.18735" lon="5.30195">
        <ele>963.1</ele>
        <time>2026-05-14T08:01:39.000Z</time>
      </trkpt>
      <trkpt lat="44.18735" lon="5.30194">
        <ele>963.2</ele>
        <time>2026-05-14T08:01:40.000Z</time>
      </trkpt>
      <trkpt lat="44.18735" lon="5.30192">
        <ele>962.5</ele>
        <time>2026-05-14T08:01:41.000Z</time>
      </trkpt>
      <trkpt lat="44.18734" lon="5.30191">
        <ele>962.2</ele>
        <time>2026-05-14T08:01:42.000Z</time>
      </trkpt>
      <trkpt lat="44.18734" lon="5.3019">
        <ele>962.1</ele>
        <time>2026-05-14T08:01:43.000Z</time>
      </trkpt>
      <trkpt lat="44.18733" lon="5.30188">
        <ele>962.1</ele>
        <time>2026-05-14T08:01:44.000Z</time>
      </trkpt>
      <trkpt lat="44.18733" lon="5.30187">
        <ele>962.2</ele>
        <time>2026-05-14T08:01:45.000Z</time>
      </trkpt>
      <trkpt lat="44.18733" lon="5.30186">
        <ele>962</ele>
        <time>2026-05-14T08:01:46.000Z</time>
      </trkpt>
      <trkpt lat="44.18733" lon="5.30185">
        <ele>961.9</ele>
        <time>2026-05-14T08:01:47.000Z</time>
      </trkpt>
      <trkpt lat="44.18733" lon="5.30184">
        <ele>962</ele>
        <time>2026-05-14T08:01:48.000Z</time>
      </trkpt>
      <trkpt lat="44.18732" lon="5.30183">
        <ele>961.7</ele>
        <time>2026-05-14T08:01:49.000Z</time>
      </trkpt>
      <trkpt lat="44.18732" lon="5.30182">
        <ele>961.5</ele>
        <time>2026-05-14T08:01:50.000Z</time>
      </trkpt>
      <trkpt lat="44.18732" lon="5.30181">
        <ele>961.5</ele>
        <time>2026-05-14T08:01:51.000Z</time>
      </trkpt>
      <trkpt lat="44.18731" lon="5.30179">
        <ele>961.7</ele>
        <time>2026-05-14T08:01:52.000Z</time>
      </trkpt>
      <trkpt lat="44.18731" lon="5.30178">
        <ele>961.8</ele>
        <time>2026-05-14T08:01:53.000Z</time>
      </trkpt>
      <trkpt lat="44.18731" lon="5.30178">
        <ele>962</ele>
        <time>2026-05-14T08:01:54.000Z</time>
      </trkpt>
      <trkpt lat="44.18732" lon="5.30177">
        <ele>962.3</ele>
        <time>2026-05-14T08:01:55.000Z</time>
      </trkpt>
      <trkpt lat="44.18732" lon="5.30176">
        <ele>962.8</ele>
        <time>2026-05-14T08:01:56.000Z</time>
      </trkpt>
      <trkpt lat="44.18732" lon="5.30173">
        <ele>963.1</ele>
        <time>2026-05-14T08:01:57.000Z</time>
      </trkpt>
      <trkpt lat="44.18731" lon="5.30171">
        <ele>963.2</ele>
        <time>2026-05-14T08:01:58.000Z</time>
      </trkpt>
      <trkpt lat="44.18731" lon="5.30169">
        <ele>963.6</ele>
        <time>2026-05-14T08:01:59.000Z</time>
      </trkpt>
      <trkpt lat="44.18732" lon="5.30168">
        <ele>963.7</ele>
        <time>2026-05-14T08:02:00.000Z</time>
      </trkpt>
      <trkpt lat="44.18732" lon="5.30167">
        <ele>963.8</ele>
        <time>2026-05-14T08:02:01.000Z</time>
      </trkpt>
      <trkpt lat="44.18732" lon="5.30167">
        <ele>964</ele>
        <time>2026-05-14T08:02:02.000Z</time>
      </trkpt>
      <trkpt lat="44.18732" lon="5.30165">
        <ele>964.3</ele>
        <time>2026-05-14T08:02:03.000Z</time>
      </trkpt>
      <trkpt lat="44.18732" lon="5.30164">
        <ele>965.1</ele>
        <time>2026-05-14T08:02:04.000Z</time>
      </trkpt>
      <trkpt lat="44.18733" lon="5.30163">
        <ele>965.7</ele>
        <time>2026-05-14T08:02:05.000Z</time>
      </trkpt>
      <trkpt lat="44.18733" lon="5.30161">
        <ele>966.1</ele>
        <time>2026-05-14T08:02:06.000Z</time>
      </trkpt>
      <trkpt lat="44.18733" lon="5.30161">
        <ele>966.3</ele>
        <time>2026-05-14T08:02:07.000Z</time>
      </trkpt>
      <trkpt lat="44.18733" lon="5.3016">
        <ele>966.6</ele>
        <time>2026-05-14T08:02:08.000Z</time>
      </trkpt>
      <trkpt lat="44.18733" lon="5.3016">
        <ele>966.8</ele>
        <time>2026-05-14T08:02:09.000Z</time>
      </trkpt>
      <trkpt lat="44.18733" lon="5.30159">
        <ele>966.9</ele>
        <time>2026-05-14T08:02:10.000Z</time>
      </trkpt>
      <trkpt lat="44.18733" lon="5.30158">
        <ele>967.2</ele>
        <time>2026-05-14T08:02:11.000Z</time>
      </trkpt>
      <trkpt lat="44.18732" lon="5.30157">
        <ele>967.3</ele>
        <time>2026-05-14T08:02:12.000Z</time>
      </trkpt>
      <trkpt lat="44.18732" lon="5.30156">
        <ele>967.2</ele>
        <time>2026-05-14T08:02:13.000Z</time>
      </trkpt>
      <trkpt lat="44.18732" lon="5.30154">
        <ele>967.4</ele>
        <time>2026-05-14T08:02:14.000Z</time>
      </trkpt>
      <trkpt lat="44.18733" lon="5.30152">
        <ele>967.2</ele>
        <time>2026-05-14T08:02:15.000Z</time>
      </trkpt>
      <trkpt lat="44.18733" lon="5.3015">
        <ele>967.1</ele>
        <time>2026-05-14T08:02:16.000Z</time>
      </trkpt>
      <trkpt lat="44.18733" lon="5.30149">
        <ele>966.7</ele>
        <time>2026-05-14T08:02:17.000Z</time>
      </trkpt>
      <trkpt lat="44.18733" lon="5.30148">
        <ele>967.2</ele>
        <time>2026-05-14T08:02:18.000Z</time>
      </trkpt>
      <trkpt lat="44.18733" lon="5.30147">
        <ele>967.9</ele>
        <time>2026-05-14T08:02:19.000Z</time>
      </trkpt>
      <trkpt lat="44.18733" lon="5.30147">
        <ele>968.6</ele>
        <time>2026-05-14T08:02:20.000Z</time>
      </trkpt>
      <trkpt lat="44.18732" lon="5.30145">
        <ele>968.8</ele>
        <time>2026-05-14T08:02:21.000Z</time>
      </trkpt>
      <trkpt lat="44.18733" lon="5.30144">
        <ele>969</ele>
        <time>2026-05-14T08:02:22.000Z</time>
      </trkpt>
      <trkpt lat="44.18733" lon="5.30142">
        <ele>969.5</ele>
        <time>2026-05-14T08:02:23.000Z</time>
      </trkpt>
      <trkpt lat="44.18734" lon="5.3014">
        <ele>970</ele>
        <time>2026-05-14T08:02:24.000Z</time>
      </trkpt>
      <trkpt lat="44.18734" lon="5.30138">
        <ele>970.4</ele>
        <time>2026-05-14T08:02:25.000Z</time>
      </trkpt>
      <trkpt lat="44.18734" lon="5.30136">
        <ele>970.5</ele>
        <time>2026-05-14T08:02:26.000Z</time>
      </trkpt>
      <trkpt lat="44.18734" lon="5.30135">
        <ele>970.3</ele>
        <time>2026-05-14T08:02:27.000Z</time>
      </trkpt>
      <trkpt lat="44.18734" lon="5.30133">
        <ele>970.4</ele>
        <time>2026-05-14T08:02:28.000Z</time>
      </trkpt>
      <trkpt lat="44.18735" lon="5.30131">
        <ele>970.2</ele>
        <time>2026-05-14T08:02:29.000Z</time>
      </trkpt>
      <trkpt lat="44.18735" lon="5.30129">
        <ele>970.4</ele>
        <time>2026-05-14T08:02:30.000Z</time>
      </trkpt>
      <trkpt lat="44.18735" lon="5.30127">
        <ele>970.5</ele>
        <time>2026-05-14T08:02:31.000Z</time>
      </trkpt>
      <trkpt lat="44.18736" lon="5.30125">
        <ele>970.9</ele>
        <time>2026-05-14T08:02:32.000Z</time>
      </trkpt>
      <trkpt lat="44.18736" lon="5.30124">
        <ele>971.2</ele>
        <time>2026-05-14T08:02:33.000Z</time>
      </trkpt>
      <trkpt lat="44.18736" lon="5.30122">
        <ele>971.6</ele>
        <time>2026-05-14T08:02:34.000Z</time>
      </trkpt>
      <trkpt lat="44.18736" lon="5.30121">
        <ele>971.9</ele>
        <time>2026-05-14T08:02:35.000Z</time>
      </trkpt>
      <trkpt lat="44.18735" lon="5.30119">
        <ele>971.9</ele>
        <time>2026-05-14T08:02:36.000Z</time>
      </trkpt>
      <trkpt lat="44.18735" lon="5.30117">
        <ele>972</ele>
        <time>2026-05-14T08:02:37.000Z</time>
      </trkpt>
      <trkpt lat="44.18735" lon="5.30115">
        <ele>972</ele>
        <time>2026-05-14T08:02:38.000Z</time>
      </trkpt>
      <trkpt lat="44.18734" lon="5.30113">
        <ele>972</ele>
        <time>2026-05-14T08:02:39.000Z</time>
      </trkpt>
      <trkpt lat="44.18734" lon="5.30111">
        <ele>972.1</ele>
        <time>2026-05-14T08:02:40.000Z</time>
      </trkpt>
      <trkpt lat="44.18734" lon="5.3011">
        <ele>972</ele>
        <time>2026-05-14T08:02:41.000Z</time>
      </trkpt>
      <trkpt lat="44.18733" lon="5.30108">
        <ele>972.1</ele>
        <time>2026-05-14T08:02:42.000Z</time>
      </trkpt>
      <trkpt lat="44.18733" lon="5.30107">
        <ele>972.2</ele>
        <time>2026-05-14T08:02:43.000Z</time>
      </trkpt>
      <trkpt lat="44.18733" lon="5.30106">
        <ele>972</ele>
        <time>2026-05-14T08:02:44.000Z</time>
      </trkpt>
      <trkpt lat="44.18732" lon="5.30105">
        <ele>971.9</ele>
        <time>2026-05-14T08:02:45.000Z</time>
      </trkpt>
      <trkpt lat="44.18731" lon="5.30104">
        <ele>971.9</ele>
        <time>2026-05-14T08:02:46.000Z</time>
      </trkpt>
      <trkpt lat="44.18731" lon="5.30103">
        <ele>972.2</ele>
        <time>2026-05-14T08:02:47.000Z</time>
      </trkpt>
      <trkpt lat="44.18731" lon="5.30101">
        <ele>972.3</ele>
        <time>2026-05-14T08:02:48.000Z</time>
      </trkpt>
      <trkpt lat="44.1873" lon="5.301">
        <ele>972.5</ele>
        <time>2026-05-14T08:02:49.000Z</time>
      </trkpt>
      <trkpt lat="44.1873" lon="5.30099">
        <ele>972.9</ele>
        <time>2026-05-14T08:02:50.000Z</time>
      </trkpt>
      <trkpt lat="44.18731" lon="5.30097">
        <ele>973.2</ele>
        <time>2026-05-14T08:02:51.000Z</time>
      </trkpt>
      <trkpt lat="44.18732" lon="5.30096">
        <ele>973.2</ele>
        <time>2026-05-14T08:02:52.000Z</time>
      </trkpt>
      <trkpt lat="44.18732" lon="5.30094">
        <ele>973.2</ele>
        <time>2026-05-14T08:02:53.000Z</time>
      </trkpt>
      <trkpt lat="44.18733" lon="5.30093">
        <ele>973.1</ele>
        <time>2026-05-14T08:02:54.000Z</time>
      </trkpt>
      <trkpt lat="44.18734" lon="5.30092">
        <ele>972.7</ele>
        <time>2026-05-14T08:02:55.000Z</time>
      </trkpt>
      <trkpt lat="44.18734" lon="5.3009">
        <ele>972.3</ele>
        <time>2026-05-14T08:02:56.000Z</time>
      </trkpt>
      <trkpt lat="44.18735" lon="5.30089">
        <ele>972.1</ele>
        <time>2026-05-14T08:02:57.000Z</time>
      </trkpt>
      <trkpt lat="44.18736" lon="5.30088">
        <ele>972.6</ele>
        <time>2026-05-14T08:02:58.000Z</time>
      </trkpt>
      <trkpt lat="44.18737" lon="5.30087">
        <ele>972.5</ele>
        <time>2026-05-14T08:02:59.000Z</time>
      </trkpt>
      <trkpt lat="44.18738" lon="5.30086">
        <ele>972.8</ele>
        <time>2026-05-14T08:03:00.000Z</time>
      </trkpt>
      <trkpt lat="44.18739" lon="5.30085">
        <ele>972.7</ele>
        <time>2026-05-14T08:03:02.000Z</time>
      </trkpt>
      <trkpt lat="44.1874" lon="5.30083">
        <ele>972.6</ele>
        <time>2026-05-14T08:03:03.000Z</time>
      </trkpt>
      <trkpt lat="44.1874" lon="5.30082">
        <ele>972.7</ele>
        <time>2026-05-14T08:03:04.000Z</time>
      </trkpt>
      <trkpt lat="44.1874" lon="5.30081">
        <ele>972.5</ele>
        <time>2026-05-14T08:03:05.000Z</time>
      </trkpt>
      <trkpt lat="44.18741" lon="5.3008">
        <ele>972.4</ele>
        <time>2026-05-14T08:03:06.000Z</time>
      </trkpt>
      <trkpt lat="44.18741" lon="5.30078">
        <ele>971.8</ele>
        <time>2026-05-14T08:03:07.000Z</time>
      </trkpt>
      <trkpt lat="44.18742" lon="5.30078">
        <ele>971.8</ele>
        <time>2026-05-14T08:03:08.000Z</time>
      </trkpt>
      <trkpt lat="44.18742" lon="5.30077">
        <ele>972</ele>
        <time>2026-05-14T08:03:09.000Z</time>
      </trkpt>
      <trkpt lat="44.18742" lon="5.30075">
        <ele>971.9</ele>
        <time>2026-05-14T08:03:10.000Z</time>
      </trkpt>
      <trkpt lat="44.18742" lon="5.30074">
        <ele>971.6</ele>
        <time>2026-05-14T08:03:11.000Z</time>
      </trkpt>
      <trkpt lat="44.18742" lon="5.30071">
        <ele>971.7</ele>
        <time>2026-05-14T08:03:12.000Z</time>
      </trkpt>
      <trkpt lat="44.18742" lon="5.3007">
        <ele>972.1</ele>
        <time>2026-05-14T08:03:13.000Z</time>
      </trkpt>
      <trkpt lat="44.18743" lon="5.30069">
        <ele>972.4</ele>
        <time>2026-05-14T08:03:14.000Z</time>
      </trkpt>
      <trkpt lat="44.18744" lon="5.30067">
        <ele>972.7</ele>
        <time>2026-05-14T08:03:15.000Z</time>
      </trkpt>
      <trkpt lat="44.18744" lon="5.30066">
        <ele>972.7</ele>
        <time>2026-05-14T08:03:16.000Z</time>
      </trkpt>
      <trkpt lat="44.18744" lon="5.30066">
        <ele>973</ele>
        <time>2026-05-14T08:03:17.000Z</time>
      </trkpt>
      <trkpt lat="44.18744" lon="5.30065">
        <ele>973.6</ele>
        <time>2026-05-14T08:03:18.000Z</time>
      </trkpt>
      <trkpt lat="44.18744" lon="5.30065">
        <ele>974.2</ele>
        <time>2026-05-14T08:03:19.000Z</time>
      </trkpt>
      <trkpt lat="44.18744" lon="5.30065">
        <ele>974.5</ele>
        <time>2026-05-14T08:03:20.000Z</time>
      </trkpt>
      <trkpt lat="44.18744" lon="5.30064">
        <ele>975.1</ele>
        <time>2026-05-14T08:03:21.000Z</time>
      </trkpt>
      <trkpt lat="44.18744" lon="5.30063">
        <ele>975.4</ele>
        <time>2026-05-14T08:03:22.000Z</time>
      </trkpt>
      <trkpt lat="44.18744" lon="5.30062">
        <ele>975.6</ele>
        <time>2026-05-14T08:03:23.000Z</time>
      </trkpt>
      <trkpt lat="44.18744" lon="5.3006">
        <ele>975.5</ele>
        <time>2026-05-14T08:03:24.000Z</time>
      </trkpt>
      <trkpt lat="44.18744" lon="5.30059">
        <ele>975.1</ele>
        <time>2026-05-14T08:03:25.000Z</time>
      </trkpt>
      <trkpt lat="44.18744" lon="5.30058">
        <ele>975.4</ele>
        <time>2026-05-14T08:03:26.000Z</time>
      </trkpt>
      <trkpt lat="44.18745" lon="5.30056">
        <ele>975.9</ele>
        <time>2026-05-14T08:03:27.000Z</time>
      </trkpt>
      <trkpt lat="44.18746" lon="5.30055">
        <ele>976.1</ele>
        <time>2026-05-14T08:03:28.000Z</time>
      </trkpt>
      <trkpt lat="44.18747" lon="5.30053">
        <ele>976.5</ele>
        <time>2026-05-14T08:03:29.000Z</time>
      </trkpt>
      <trkpt lat="44.18748" lon="5.30051">
        <ele>977</ele>
        <time>2026-05-14T08:03:30.000Z</time>
      </trkpt>
      <trkpt lat="44.18748" lon="5.3005">
        <ele>977.3</ele>
        <time>2026-05-14T08:03:31.000Z</time>
      </trkpt>
      <trkpt lat="44.1875" lon="5.30047">
        <ele>977.9</ele>
        <time>2026-05-14T08:03:32.000Z</time>
      </trkpt>
      <trkpt lat="44.18752" lon="5.30044">
        <ele>978.2</ele>
        <time>2026-05-14T08:03:33.000Z</time>
      </trkpt>
      <trkpt lat="44.18753" lon="5.30042">
        <ele>978.7</ele>
        <time>2026-05-14T08:03:34.000Z</time>
      </trkpt>
      <trkpt lat="44.18754" lon="5.3004">
        <ele>978.8</ele>
        <time>2026-05-14T08:03:35.000Z</time>
      </trkpt>
      <trkpt lat="44.18754" lon="5.30038">
        <ele>978.9</ele>
        <time>2026-05-14T08:03:36.000Z</time>
      </trkpt>
      <trkpt lat="44.18755" lon="5.30036">
        <ele>979</ele>
        <time>2026-05-14T08:03:37.000Z</time>
      </trkpt>
      <trkpt lat="44.18755" lon="5.30036">
        <ele>978.9</ele>
        <time>2026-05-14T08:03:38.000Z</time>
      </trkpt>
      <trkpt lat="44.18756" lon="5.30034">
        <ele>979.2</ele>
        <time>2026-05-14T08:03:39.000Z</time>
      </trkpt>
      <trkpt lat="44.18757" lon="5.30032">
        <ele>979.9</ele>
        <time>2026-05-14T08:03:41.000Z</time>
      </trkpt>
      <trkpt lat="44.18758" lon="5.30032">
        <ele>980.1</ele>
        <time>2026-05-14T08:03:42.000Z</time>
      </trkpt>
      <trkpt lat="44.18759" lon="5.30031">
        <ele>980.4</ele>
        <time>2026-05-14T08:03:43.000Z</time>
      </trkpt>
      <trkpt lat="44.18759" lon="5.3003">
        <ele>980.3</ele>
        <time>2026-05-14T08:03:44.000Z</time>
      </trkpt>
      <trkpt lat="44.1876" lon="5.30028">
        <ele>980.4</ele>
        <time>2026-05-14T08:03:45.000Z</time>
      </trkpt>
      <trkpt lat="44.18761" lon="5.30028">
        <ele>980.7</ele>
        <time>2026-05-14T08:03:46.000Z</time>
      </trkpt>
      <trkpt lat="44.18761" lon="5.30027">
        <ele>981.2</ele>
        <time>2026-05-14T08:03:47.000Z</time>
      </trkpt>
      <trkpt lat="44.18762" lon="5.30026">
        <ele>981.6</ele>
        <time>2026-05-14T08:03:48.000Z</time>
      </trkpt>
      <trkpt lat="44.18762" lon="5.30025">
        <ele>981.7</ele>
        <time>2026-05-14T08:03:49.000Z</time>
      </trkpt>
      <trkpt lat="44.18763" lon="5.30024">
        <ele>981.4</ele>
        <time>2026-05-14T08:03:50.000Z</time>
      </trkpt>
      <trkpt lat="44.18764" lon="5.30023">
        <ele>981.9</ele>
        <time>2026-05-14T08:03:51.000Z</time>
      </trkpt>
      <trkpt lat="44.18764" lon="5.30022">
        <ele>982.4</ele>
        <time>2026-05-14T08:03:52.000Z</time>
      </trkpt>
      <trkpt lat="44.18765" lon="5.30021">
        <ele>982.5</ele>
        <time>2026-05-14T08:03:53.000Z</time>
      </trkpt>
      <trkpt lat="44.18766" lon="5.30019">
        <ele>982.6</ele>
        <time>2026-05-14T08:03:54.000Z</time>
      </trkpt>
      <trkpt lat="44.18767" lon="5.30017">
        <ele>982.1</ele>
        <time>2026-05-14T08:03:55.000Z</time>
      </trkpt>
      <trkpt lat="44.18767" lon="5.30016">
        <ele>982.2</ele>
        <time>2026-05-14T08:03:56.000Z</time>
      </trkpt>
      <trkpt lat="44.18769" lon="5.30016">
        <ele>982.7</ele>
        <time>2026-05-14T08:03:57.000Z</time>
      </trkpt>
      <trkpt lat="44.1877" lon="5.30015">
        <ele>982.8</ele>
        <time>2026-05-14T08:03:58.000Z</time>
      </trkpt>
      <trkpt lat="44.18771" lon="5.30014">
        <ele>983.1</ele>
        <time>2026-05-14T08:03:59.000Z</time>
      </trkpt>
      <trkpt lat="44.18772" lon="5.30014">
        <ele>982.8</ele>
        <time>2026-05-14T08:04:00.000Z</time>
      </trkpt>
      <trkpt lat="44.18773" lon="5.30013">
        <ele>983.3</ele>
        <time>2026-05-14T08:04:01.000Z</time>
      </trkpt>
      <trkpt lat="44.18774" lon="5.30011">
        <ele>983.6</ele>
        <time>2026-05-14T08:04:02.000Z</time>
      </trkpt>
      <trkpt lat="44.18775" lon="5.3001">
        <ele>984.2</ele>
        <time>2026-05-14T08:04:03.000Z</time>
      </trkpt>
      <trkpt lat="44.18776" lon="5.30008">
        <ele>984.9</ele>
        <time>2026-05-14T08:04:04.000Z</time>
      </trkpt>
      <trkpt lat="44.18777" lon="5.30007">
        <ele>985.9</ele>
        <time>2026-05-14T08:04:05.000Z</time>
      </trkpt>
      <trkpt lat="44.18777" lon="5.30006">
        <ele>986.6</ele>
        <time>2026-05-14T08:04:06.000Z</time>
      </trkpt>
      <trkpt lat="44.18778" lon="5.30005">
        <ele>986.8</ele>
        <time>2026-05-14T08:04:07.000Z</time>
      </trkpt>
      <trkpt lat="44.1878" lon="5.30004">
        <ele>987.1</ele>
        <time>2026-05-14T08:04:08.000Z</time>
      </trkpt>
      <trkpt lat="44.18781" lon="5.30003">
        <ele>987.4</ele>
        <time>2026-05-14T08:04:09.000Z</time>
      </trkpt>
      <trkpt lat="44.18782" lon="5.30003">
        <ele>987.9</ele>
        <time>2026-05-14T08:04:10.000Z</time>
      </trkpt>
      <trkpt lat="44.18783" lon="5.30001">
        <ele>988.4</ele>
        <time>2026-05-14T08:04:11.000Z</time>
      </trkpt>
      <trkpt lat="44.18784" lon="5.3">
        <ele>988.7</ele>
        <time>2026-05-14T08:04:12.000Z</time>
      </trkpt>
      <trkpt lat="44.18785" lon="5.3">
        <ele>989.1</ele>
        <time>2026-05-14T08:04:13.000Z</time>
      </trkpt>
      <trkpt lat="44.18786" lon="5.29999">
        <ele>989.3</ele>
        <time>2026-05-14T08:04:14.000Z</time>
      </trkpt>
      <trkpt lat="44.18787" lon="5.29999">
        <ele>989.1</ele>
        <time>2026-05-14T08:04:15.000Z</time>
      </trkpt>
      <trkpt lat="44.18788" lon="5.29998">
        <ele>989.2</ele>
        <time>2026-05-14T08:04:16.000Z</time>
      </trkpt>
      <trkpt lat="44.18789" lon="5.29997">
        <ele>989.2</ele>
        <time>2026-05-14T08:04:17.000Z</time>
      </trkpt>
      <trkpt lat="44.18789" lon="5.29995">
        <ele>989.3</ele>
        <time>2026-05-14T08:04:18.000Z</time>
      </trkpt>
      <trkpt lat="44.1879" lon="5.29993">
        <ele>989.3</ele>
        <time>2026-05-14T08:04:19.000Z</time>
      </trkpt>
      <trkpt lat="44.1879" lon="5.29992">
        <ele>989.2</ele>
        <time>2026-05-14T08:04:20.000Z</time>
      </trkpt>
      <trkpt lat="44.1879" lon="5.29992">
        <ele>989.3</ele>
        <time>2026-05-14T08:04:21.000Z</time>
      </trkpt>
      <trkpt lat="44.18791" lon="5.29991">
        <ele>990</ele>
        <time>2026-05-14T08:04:22.000Z</time>
      </trkpt>
      <trkpt lat="44.18793" lon="5.2999">
        <ele>990.5</ele>
        <time>2026-05-14T08:04:23.000Z</time>
      </trkpt>
      <trkpt lat="44.18794" lon="5.2999">
        <ele>991.1</ele>
        <time>2026-05-14T08:04:24.000Z</time>
      </trkpt>
      <trkpt lat="44.18795" lon="5.29989">
        <ele>991.4</ele>
        <time>2026-05-14T08:04:25.000Z</time>
      </trkpt>
      <trkpt lat="44.18796" lon="5.29988">
        <ele>992.3</ele>
        <time>2026-05-14T08:04:26.000Z</time>
      </trkpt>
      <trkpt lat="44.18796" lon="5.29987">
        <ele>993</ele>
        <time>2026-05-14T08:04:27.000Z</time>
      </trkpt>
      <trkpt lat="44.18797" lon="5.29986">
        <ele>993.5</ele>
        <time>2026-05-14T08:04:28.000Z</time>
      </trkpt>
      <trkpt lat="44.18798" lon="5.29986">
        <ele>993.9</ele>
        <time>2026-05-14T08:04:29.000Z</time>
      </trkpt>
      <trkpt lat="44.18799" lon="5.29986">
        <ele>994</ele>
        <time>2026-05-14T08:04:30.000Z</time>
      </trkpt>
      <trkpt lat="44.188" lon="5.29985">
        <ele>994.6</ele>
        <time>2026-05-14T08:04:31.000Z</time>
      </trkpt>
      <trkpt lat="44.18801" lon="5.29984">
        <ele>994.8</ele>
        <time>2026-05-14T08:04:32.000Z</time>
      </trkpt>
      <trkpt lat="44.18801" lon="5.29984">
        <ele>995</ele>
        <time>2026-05-14T08:04:33.000Z</time>
      </trkpt>
      <trkpt lat="44.18802" lon="5.29982">
        <ele>995.3</ele>
        <time>2026-05-14T08:04:34.000Z</time>
      </trkpt>
      <trkpt lat="44.18802" lon="5.29981">
        <ele>995.2</ele>
        <time>2026-05-14T08:04:35.000Z</time>
      </trkpt>
      <trkpt lat="44.18802" lon="5.29979">
        <ele>994.5</ele>
        <time>2026-05-14T08:04:36.000Z</time>
      </trkpt>
      <trkpt lat="44.18803" lon="5.29978">
        <ele>994.1</ele>
        <time>2026-05-14T08:04:37.000Z</time>
      </trkpt>
      <trkpt lat="44.18803" lon="5.29977">
        <ele>993.9</ele>
        <time>2026-05-14T08:04:38.000Z</time>
      </trkpt>
      <trkpt lat="44.18803" lon="5.29976">
        <ele>993.8</ele>
        <time>2026-05-14T08:04:39.000Z</time>
      </trkpt>
      <trkpt lat="44.18804" lon="5.29976">
        <ele>994</ele>
        <time>2026-05-14T08:04:40.000Z</time>
      </trkpt>
      <trkpt lat="44.18804" lon="5.29975">
        <ele>994.3</ele>
        <time>2026-05-14T08:04:41.000Z</time>
      </trkpt>
      <trkpt lat="44.18805" lon="5.29974">
        <ele>994.9</ele>
        <time>2026-05-14T08:04:42.000Z</time>
      </trkpt>
      <trkpt lat="44.18806" lon="5.29972">
        <ele>995.3</ele>
        <time>2026-05-14T08:04:43.000Z</time>
      </trkpt>
      <trkpt lat="44.18808" lon="5.29971">
        <ele>995.7</ele>
        <time>2026-05-14T08:04:44.000Z</time>
      </trkpt>
      <trkpt lat="44.18809" lon="5.2997">
        <ele>995.3</ele>
        <time>2026-05-14T08:04:45.000Z</time>
      </trkpt>
      <trkpt lat="44.1881" lon="5.29969">
        <ele>995.7</ele>
        <time>2026-05-14T08:04:46.000Z</time>
      </trkpt>
      <trkpt lat="44.18811" lon="5.29968">
        <ele>995.7</ele>
        <time>2026-05-14T08:04:47.000Z</time>
      </trkpt>
      <trkpt lat="44.18812" lon="5.29966">
        <ele>996</ele>
        <time>2026-05-14T08:04:48.000Z</time>
      </trkpt>
      <trkpt lat="44.18813" lon="5.29965">
        <ele>996.2</ele>
        <time>2026-05-14T08:04:49.000Z</time>
      </trkpt>
      <trkpt lat="44.18813" lon="5.29964">
        <ele>995.9</ele>
        <time>2026-05-14T08:04:50.000Z</time>
      </trkpt>
      <trkpt lat="44.18813" lon="5.29963">
        <ele>995.7</ele>
        <time>2026-05-14T08:04:51.000Z</time>
      </trkpt>
      <trkpt lat="44.18813" lon="5.29961">
        <ele>995.4</ele>
        <time>2026-05-14T08:04:52.000Z</time>
      </trkpt>
      <trkpt lat="44.18814" lon="5.29961">
        <ele>996.2</ele>
        <time>2026-05-14T08:04:53.000Z</time>
      </trkpt>
      <trkpt lat="44.18815" lon="5.2996">
        <ele>996.7</ele>
        <time>2026-05-14T08:04:54.000Z</time>
      </trkpt>
      <trkpt lat="44.18815" lon="5.29959">
        <ele>996.6</ele>
        <time>2026-05-14T08:04:55.000Z</time>
      </trkpt>
      <trkpt lat="44.18815" lon="5.29958">
        <ele>996.5</ele>
        <time>2026-05-14T08:04:56.000Z</time>
      </trkpt>
      <trkpt lat="44.18814" lon="5.29957">
        <ele>995.8</ele>
        <time>2026-05-14T08:04:57.000Z</time>
      </trkpt>
      <trkpt lat="44.18813" lon="5.29955">
        <ele>995.7</ele>
        <time>2026-05-14T08:04:58.000Z</time>
      </trkpt>
      <trkpt lat="44.18811" lon="5.29954">
        <ele>995.4</ele>
        <time>2026-05-14T08:04:59.000Z</time>
      </trkpt>
      <trkpt lat="44.18809" lon="5.29954">
        <ele>995.1</ele>
        <time>2026-05-14T08:05:00.000Z</time>
      </trkpt>
      <trkpt lat="44.18808" lon="5.29953">
        <ele>994.9</ele>
        <time>2026-05-14T08:05:01.000Z</time>
      </trkpt>
      <trkpt lat="44.18807" lon="5.29955">
        <ele>994.4</ele>
        <time>2026-05-14T08:05:02.000Z</time>
      </trkpt>
      <trkpt lat="44.18806" lon="5.29956">
        <ele>994.6</ele>
        <time>2026-05-14T08:05:03.000Z</time>
      </trkpt>
      <trkpt lat="44.18805" lon="5.29958">
        <ele>994.6</ele>
        <time>2026-05-14T08:05:04.000Z</time>
      </trkpt>
      <trkpt lat="44.18805" lon="5.29958">
        <ele>994.4</ele>
        <time>2026-05-14T08:05:05.000Z</time>
      </trkpt>
      <trkpt lat="44.18803" lon="5.29958">
        <ele>993.8</ele>
        <time>2026-05-14T08:05:06.000Z</time>
      </trkpt>
      <trkpt lat="44.18802" lon="5.29958">
        <ele>993.7</ele>
        <time>2026-05-14T08:05:07.000Z</time>
      </trkpt>
      <trkpt lat="44.188" lon="5.29959">
        <ele>993.5</ele>
        <time>2026-05-14T08:05:08.000Z</time>
      </trkpt>
      <trkpt lat="44.18799" lon="5.2996">
        <ele>993.6</ele>
        <time>2026-05-14T08:05:09.000Z</time>
      </trkpt>
      <trkpt lat="44.18798" lon="5.29961">
        <ele>993.5</ele>
        <time>2026-05-14T08:05:10.000Z</time>
      </trkpt>
      <trkpt lat="44.18798" lon="5.29961">
        <ele>993.7</ele>
        <time>2026-05-14T08:05:11.000Z</time>
      </trkpt>
      <trkpt lat="44.18798" lon="5.29962">
        <ele>994</ele>
        <time>2026-05-14T08:05:12.000Z</time>
      </trkpt>
      <trkpt lat="44.18797" lon="5.29963">
        <ele>994</ele>
        <time>2026-05-14T08:05:13.000Z</time>
      </trkpt>
      <trkpt lat="44.18796" lon="5.29965">
        <ele>994.4</ele>
        <time>2026-05-14T08:05:14.000Z</time>
      </trkpt>
      <trkpt lat="44.18796" lon="5.29967">
        <ele>995</ele>
        <time>2026-05-14T08:05:15.000Z</time>
      </trkpt>
      <trkpt lat="44.18795" lon="5.29967">
        <ele>994.8</ele>
        <time>2026-05-14T08:05:16.000Z</time>
      </trkpt>
      <trkpt lat="44.18794" lon="5.29968">
        <ele>995.1</ele>
        <time>2026-05-14T08:05:17.000Z</time>
      </trkpt>
      <trkpt lat="44.18794" lon="5.29969">
        <ele>995.2</ele>
        <time>2026-05-14T08:05:18.000Z</time>
      </trkpt>
      <trkpt lat="44.18793" lon="5.29969">
        <ele>994.9</ele>
        <time>2026-05-14T08:05:19.000Z</time>
      </trkpt>
      <trkpt lat="44.18792" lon="5.29968">
        <ele>994.3</ele>
        <time>2026-05-14T08:05:20.000Z</time>
      </trkpt>
      <trkpt lat="44.18791" lon="5.29968">
        <ele>994.2</ele>
        <time>2026-05-14T08:05:21.000Z</time>
      </trkpt>
      <trkpt lat="44.18789" lon="5.29969">
        <ele>993.3</ele>
        <time>2026-05-14T08:05:22.000Z</time>
      </trkpt>
      <trkpt lat="44.18788" lon="5.29969">
        <ele>993.1</ele>
        <time>2026-05-14T08:05:23.000Z</time>
      </trkpt>
      <trkpt lat="44.18787" lon="5.2997">
        <ele>993.1</ele>
        <time>2026-05-14T08:05:24.000Z</time>
      </trkpt>
      <trkpt lat="44.18786" lon="5.29971">
        <ele>992.9</ele>
        <time>2026-05-14T08:05:25.000Z</time>
      </trkpt>
      <trkpt lat="44.18786" lon="5.29972">
        <ele>992.8</ele>
        <time>2026-05-14T08:05:26.000Z</time>
      </trkpt>
      <trkpt lat="44.18785" lon="5.29972">
        <ele>992.9</ele>
        <time>2026-05-14T08:05:27.000Z</time>
      </trkpt>
      <trkpt lat="44.18784" lon="5.29972">
        <ele>993.4</ele>
        <time>2026-05-14T08:05:28.000Z</time>
      </trkpt>
      <trkpt lat="44.18782" lon="5.29972">
        <ele>993.2</ele>
        <time>2026-05-14T08:05:29.000Z</time>
      </trkpt>
      <trkpt lat="44.18781" lon="5.29973">
        <ele>993.5</ele>
        <time>2026-05-14T08:05:30.000Z</time>
      </trkpt>
      <trkpt lat="44.18781" lon="5.29975">
        <ele>993.7</ele>
        <time>2026-05-14T08:05:31.000Z</time>
      </trkpt>
      <trkpt lat="44.1878" lon="5.29976">
        <ele>993.7</ele>
        <time>2026-05-14T08:05:32.000Z</time>
      </trkpt>
      <trkpt lat="44.18778" lon="5.29976">
        <ele>993.9</ele>
        <time>2026-05-14T08:05:33.000Z</time>
      </trkpt>
      <trkpt lat="44.18777" lon="5.29975">
        <ele>994.1</ele>
        <time>2026-05-14T08:05:34.000Z</time>
      </trkpt>
      <trkpt lat="44.18776" lon="5.29975">
        <ele>994.3</ele>
        <time>2026-05-14T08:05:35.000Z</time>
      </trkpt>
      <trkpt lat="44.18776" lon="5.29975">
        <ele>994.4</ele>
        <time>2026-05-14T08:05:36.000Z</time>
      </trkpt>
      <trkpt lat="44.18776" lon="5.29975">
        <ele>994.5</ele>
        <time>2026-05-14T08:05:37.000Z</time>
      </trkpt>
      <trkpt lat="44.18775" lon="5.29975">
        <ele>994.8</ele>
        <time>2026-05-14T08:05:38.000Z</time>
      </trkpt>
      <trkpt lat="44.18775" lon="5.29975">
        <ele>995.1</ele>
        <time>2026-05-14T08:05:39.000Z</time>
      </trkpt>
      <trkpt lat="44.18774" lon="5.29976">
        <ele>995.2</ele>
        <time>2026-05-14T08:05:40.000Z</time>
      </trkpt>
      <trkpt lat="44.18773" lon="5.29976">
        <ele>995.2</ele>
        <time>2026-05-14T08:05:41.000Z</time>
      </trkpt>
      <trkpt lat="44.18771" lon="5.29977">
        <ele>995.1</ele>
        <time>2026-05-14T08:05:42.000Z</time>
      </trkpt>
      <trkpt lat="44.18769" lon="5.29978">
        <ele>995.2</ele>
        <time>2026-05-14T08:05:43.000Z</time>
      </trkpt>
      <trkpt lat="44.18769" lon="5.29979">
        <ele>995.5</ele>
        <time>2026-05-14T08:05:44.000Z</time>
      </trkpt>
      <trkpt lat="44.18768" lon="5.29978">
        <ele>995.6</ele>
        <time>2026-05-14T08:05:45.000Z</time>
      </trkpt>
      <trkpt lat="44.18768" lon="5.29978">
        <ele>995.5</ele>
        <time>2026-05-14T08:05:46.000Z</time>
      </trkpt>
      <trkpt lat="44.18767" lon="5.29979">
        <ele>995.6</ele>
        <time>2026-05-14T08:05:47.000Z</time>
      </trkpt>
      <trkpt lat="44.18766" lon="5.29979">
        <ele>995.1</ele>
        <time>2026-05-14T08:05:48.000Z</time>
      </trkpt>
      <trkpt lat="44.18765" lon="5.29979">
        <ele>994.7</ele>
        <time>2026-05-14T08:05:49.000Z</time>
      </trkpt>
      <trkpt lat="44.18764" lon="5.29979">
        <ele>994.6</ele>
        <time>2026-05-14T08:05:50.000Z</time>
      </trkpt>
      <trkpt lat="44.18763" lon="5.29978">
        <ele>994.8</ele>
        <time>2026-05-14T08:05:51.000Z</time>
      </trkpt>
      <trkpt lat="44.18763" lon="5.29978">
        <ele>995</ele>
        <time>2026-05-14T08:05:52.000Z</time>
      </trkpt>
      <trkpt lat="44.18761" lon="5.29979">
        <ele>995.2</ele>
        <time>2026-05-14T08:05:53.000Z</time>
      </trkpt>
      <trkpt lat="44.18761" lon="5.29979">
        <ele>995.7</ele>
        <time>2026-05-14T08:05:54.000Z</time>
      </trkpt>
      <trkpt lat="44.1876" lon="5.2998">
        <ele>996.2</ele>
        <time>2026-05-14T08:05:55.000Z</time>
      </trkpt>
      <trkpt lat="44.1876" lon="5.2998">
        <ele>996.4</ele>
        <time>2026-05-14T08:05:56.000Z</time>
      </trkpt>
      <trkpt lat="44.18759" lon="5.2998">
        <ele>996.3</ele>
        <time>2026-05-14T08:05:57.000Z</time>
      </trkpt>
      <trkpt lat="44.18758" lon="5.29981">
        <ele>996.4</ele>
        <time>2026-05-14T08:05:58.000Z</time>
      </trkpt>
      <trkpt lat="44.18756" lon="5.29982">
        <ele>996.4</ele>
        <time>2026-05-14T08:05:59.000Z</time>
      </trkpt>
      <trkpt lat="44.18755" lon="5.29981">
        <ele>995.9</ele>
        <time>2026-05-14T08:06:00.000Z</time>
      </trkpt>
      <trkpt lat="44.18753" lon="5.29981">
        <ele>995.6</ele>
        <time>2026-05-14T08:06:01.000Z</time>
      </trkpt>
      <trkpt lat="44.18752" lon="5.29982">
        <ele>995.7</ele>
        <time>2026-05-14T08:06:02.000Z</time>
      </trkpt>
      <trkpt lat="44.18751" lon="5.29982">
        <ele>995.8</ele>
        <time>2026-05-14T08:06:03.000Z</time>
      </trkpt>
      <trkpt lat="44.1875" lon="5.29983">
        <ele>996.1</ele>
        <time>2026-05-14T08:06:04.000Z</time>
      </trkpt>
      <trkpt lat="44.18748" lon="5.29983">
        <ele>996.3</ele>
        <time>2026-05-14T08:06:05.000Z</time>
      </trkpt>
      <trkpt lat="44.18748" lon="5.29983">
        <ele>996.6</ele>
        <time>2026-05-14T08:06:06.000Z</time>
      </trkpt>
      <trkpt lat="44.18747" lon="5.29982">
        <ele>996.9</ele>
        <time>2026-05-14T08:06:07.000Z</time>
      </trkpt>
      <trkpt lat="44.18746" lon="5.29982">
        <ele>997.3</ele>
        <time>2026-05-14T08:06:08.000Z</time>
      </trkpt>
      <trkpt lat="44.18745" lon="5.29983">
        <ele>997.6</ele>
        <time>2026-05-14T08:06:09.000Z</time>
      </trkpt>
      <trkpt lat="44.18743" lon="5.29983">
        <ele>997.7</ele>
        <time>2026-05-14T08:06:10.000Z</time>
      </trkpt>
      <trkpt lat="44.18743" lon="5.29984">
        <ele>997.5</ele>
        <time>2026-05-14T08:06:11.000Z</time>
      </trkpt>
      <trkpt lat="44.18742" lon="5.29983">
        <ele>997.7</ele>
        <time>2026-05-14T08:06:12.000Z</time>
      </trkpt>
      <trkpt lat="44.18741" lon="5.29982">
        <ele>997.5</ele>
        <time>2026-05-14T08:06:13.000Z</time>
      </trkpt>
      <trkpt lat="44.18739" lon="5.29982">
        <ele>997.2</ele>
        <time>2026-05-14T08:06:14.000Z</time>
      </trkpt>
      <trkpt lat="44.18737" lon="5.29982">
        <ele>997.2</ele>
        <time>2026-05-14T08:06:15.000Z</time>
      </trkpt>
      <trkpt lat="44.18736" lon="5.29982">
        <ele>997.2</ele>
        <time>2026-05-14T08:06:16.000Z</time>
      </trkpt>
      <trkpt lat="44.18736" lon="5.29981">
        <ele>997.3</ele>
        <time>2026-05-14T08:06:17.000Z</time>
      </trkpt>
      <trkpt lat="44.18735" lon="5.29981">
        <ele>997.5</ele>
        <time>2026-05-14T08:06:18.000Z</time>
      </trkpt>
      <trkpt lat="44.18735" lon="5.29981">
        <ele>997.5</ele>
        <time>2026-05-14T08:06:19.000Z</time>
      </trkpt>
      <trkpt lat="44.18735" lon="5.29981">
        <ele>997.3</ele>
        <time>2026-05-14T08:06:20.000Z</time>
      </trkpt>
      <trkpt lat="44.18735" lon="5.2998">
        <ele>997.5</ele>
        <time>2026-05-14T08:06:21.000Z</time>
      </trkpt>
      <trkpt lat="44.18734" lon="5.29978">
        <ele>997.7</ele>
        <time>2026-05-14T08:06:22.000Z</time>
      </trkpt>
      <trkpt lat="44.18733" lon="5.29976">
        <ele>997.5</ele>
        <time>2026-05-14T08:06:23.000Z</time>
      </trkpt>
      <trkpt lat="44.18732" lon="5.29974">
        <ele>997.4</ele>
        <time>2026-05-14T08:06:24.000Z</time>
      </trkpt>
      <trkpt lat="44.18732" lon="5.29972">
        <ele>997.5</ele>
        <time>2026-05-14T08:06:25.000Z</time>
      </trkpt>
      <trkpt lat="44.18731" lon="5.29971">
        <ele>997.8</ele>
        <time>2026-05-14T08:06:26.000Z</time>
      </trkpt>
      <trkpt lat="44.1873" lon="5.29969">
        <ele>998.2</ele>
        <time>2026-05-14T08:06:27.000Z</time>
      </trkpt>
      <trkpt lat="44.1873" lon="5.29967">
        <ele>998.9</ele>
        <time>2026-05-14T08:06:28.000Z</time>
      </trkpt>
      <trkpt lat="44.18729" lon="5.29966">
        <ele>999.2</ele>
        <time>2026-05-14T08:06:29.000Z</time>
      </trkpt>
      <trkpt lat="44.18728" lon="5.29964">
        <ele>999.5</ele>
        <time>2026-05-14T08:06:30.000Z</time>
      </trkpt>
      <trkpt lat="44.18728" lon="5.29963">
        <ele>999.9</ele>
        <time>2026-05-14T08:06:31.000Z</time>
      </trkpt>
      <trkpt lat="44.18727" lon="5.29963">
        <ele>999.8</ele>
        <time>2026-05-14T08:06:32.000Z</time>
      </trkpt>
      <trkpt lat="44.18726" lon="5.29962">
        <ele>1000.2</ele>
        <time>2026-05-14T08:06:33.000Z</time>
      </trkpt>
      <trkpt lat="44.18725" lon="5.29962">
        <ele>1000.5</ele>
        <time>2026-05-14T08:06:34.000Z</time>
      </trkpt>
      <trkpt lat="44.18724" lon="5.29962">
        <ele>1000.6</ele>
        <time>2026-05-14T08:06:35.000Z</time>
      </trkpt>
      <trkpt lat="44.18723" lon="5.29961">
        <ele>1000.6</ele>
        <time>2026-05-14T08:06:36.000Z</time>
      </trkpt>
      <trkpt lat="44.18722" lon="5.2996">
        <ele>1000.5</ele>
        <time>2026-05-14T08:06:37.000Z</time>
      </trkpt>
      <trkpt lat="44.18721" lon="5.29959">
        <ele>1000.4</ele>
        <time>2026-05-14T08:06:38.000Z</time>
      </trkpt>
      <trkpt lat="44.1872" lon="5.29957">
        <ele>1000.2</ele>
        <time>2026-05-14T08:06:39.000Z</time>
      </trkpt>
      <trkpt lat="44.1872" lon="5.29955">
        <ele>999.9</ele>
        <time>2026-05-14T08:06:40.000Z</time>
      </trkpt>
      <trkpt lat="44.1872" lon="5.29955">
        <ele>999.8</ele>
        <time>2026-05-14T08:06:41.000Z</time>
      </trkpt>
      <trkpt lat="44.18719" lon="5.29953">
        <ele>1000.3</ele>
        <time>2026-05-14T08:06:42.000Z</time>
      </trkpt>
      <trkpt lat="44.18719" lon="5.29952">
        <ele>1000.3</ele>
        <time>2026-05-14T08:06:43.000Z</time>
      </trkpt>
      <trkpt lat="44.18719" lon="5.29951">
        <ele>1000.7</ele>
        <time>2026-05-14T08:06:44.000Z</time>
      </trkpt>
      <trkpt lat="44.18718" lon="5.2995">
        <ele>1000.7</ele>
        <time>2026-05-14T08:06:45.000Z</time>
      </trkpt>
      <trkpt lat="44.18718" lon="5.2995">
        <ele>1000.9</ele>
        <time>2026-05-14T08:06:46.000Z</time>
      </trkpt>
      <trkpt lat="44.18717" lon="5.29949">
        <ele>1001</ele>
        <time>2026-05-14T08:06:47.000Z</time>
      </trkpt>
      <trkpt lat="44.18717" lon="5.29949">
        <ele>1001.4</ele>
        <time>2026-05-14T08:06:48.000Z</time>
      </trkpt>
      <trkpt lat="44.18716" lon="5.29948">
        <ele>1001.6</ele>
        <time>2026-05-14T08:06:49.000Z</time>
      </trkpt>
      <trkpt lat="44.18716" lon="5.29947">
        <ele>1001.9</ele>
        <time>2026-05-14T08:06:50.000Z</time>
      </trkpt>
      <trkpt lat="44.18715" lon="5.29946">
        <ele>1001.4</ele>
        <time>2026-05-14T08:06:51.000Z</time>
      </trkpt>
      <trkpt lat="44.18715" lon="5.29943">
        <ele>1001</ele>
        <time>2026-05-14T08:06:52.000Z</time>
      </trkpt>
      <trkpt lat="44.18714" lon="5.29941">
        <ele>1000.8</ele>
        <time>2026-05-14T08:06:53.000Z</time>
      </trkpt>
      <trkpt lat="44.18714" lon="5.29939">
        <ele>1000.9</ele>
        <time>2026-05-14T08:06:54.000Z</time>
      </trkpt>
      <trkpt lat="44.18715" lon="5.29938">
        <ele>1001.2</ele>
        <time>2026-05-14T08:06:55.000Z</time>
      </trkpt>
      <trkpt lat="44.18715" lon="5.29936">
        <ele>1001.1</ele>
        <time>2026-05-14T08:06:56.000Z</time>
      </trkpt>
      <trkpt lat="44.18715" lon="5.29934">
        <ele>1001.3</ele>
        <time>2026-05-14T08:06:57.000Z</time>
      </trkpt>
      <trkpt lat="44.18714" lon="5.29932">
        <ele>1001.4</ele>
        <time>2026-05-14T08:06:58.000Z</time>
      </trkpt>
      <trkpt lat="44.18714" lon="5.29931">
        <ele>1002.2</ele>
        <time>2026-05-14T08:06:59.000Z</time>
      </trkpt>
      <trkpt lat="44.18714" lon="5.29929">
        <ele>1003.2</ele>
        <time>2026-05-14T08:07:00.000Z</time>
      </trkpt>
      <trkpt lat="44.18714" lon="5.29927">
        <ele>1003.8</ele>
        <time>2026-05-14T08:07:01.000Z</time>
      </trkpt>
      <trkpt lat="44.18713" lon="5.29926">
        <ele>1004.3</ele>
        <time>2026-05-14T08:07:02.000Z</time>
      </trkpt>
      <trkpt lat="44.18713" lon="5.29924">
        <ele>1004.7</ele>
        <time>2026-05-14T08:07:03.000Z</time>
      </trkpt>
      <trkpt lat="44.18712" lon="5.29923">
        <ele>1004.6</ele>
        <time>2026-05-14T08:07:04.000Z</time>
      </trkpt>
      <trkpt lat="44.18712" lon="5.29921">
        <ele>1004.5</ele>
        <time>2026-05-14T08:07:05.000Z</time>
      </trkpt>
      <trkpt lat="44.18711" lon="5.2992">
        <ele>1004.1</ele>
        <time>2026-05-14T08:07:06.000Z</time>
      </trkpt>
      <trkpt lat="44.1871" lon="5.29919">
        <ele>1004.4</ele>
        <time>2026-05-14T08:07:07.000Z</time>
      </trkpt>
      <trkpt lat="44.1871" lon="5.29918">
        <ele>1004.4</ele>
        <time>2026-05-14T08:07:08.000Z</time>
      </trkpt>
      <trkpt lat="44.18709" lon="5.29916">
        <ele>1004</ele>
        <time>2026-05-14T08:07:09.000Z</time>
      </trkpt>
      <trkpt lat="44.1871" lon="5.29915">
        <ele>1003.3</ele>
        <time>2026-05-14T08:07:10.000Z</time>
      </trkpt>
      <trkpt lat="44.1871" lon="5.29914">
        <ele>1003.3</ele>
        <time>2026-05-14T08:07:11.000Z</time>
      </trkpt>
      <trkpt lat="44.1871" lon="5.29912">
        <ele>1003.3</ele>
        <time>2026-05-14T08:07:12.000Z</time>
      </trkpt>
      <trkpt lat="44.18711" lon="5.29911">
        <ele>1002.8</ele>
        <time>2026-05-14T08:07:13.000Z</time>
      </trkpt>
      <trkpt lat="44.18711" lon="5.29909">
        <ele>1002.3</ele>
        <time>2026-05-14T08:07:14.000Z</time>
      </trkpt>
      <trkpt lat="44.1871" lon="5.29908">
        <ele>1002.1</ele>
        <time>2026-05-14T08:07:15.000Z</time>
      </trkpt>
      <trkpt lat="44.1871" lon="5.29907">
        <ele>1002.7</ele>
        <time>2026-05-14T08:07:16.000Z</time>
      </trkpt>
      <trkpt lat="44.1871" lon="5.29906">
        <ele>1002.5</ele>
        <time>2026-05-14T08:07:17.000Z</time>
      </trkpt>
      <trkpt lat="44.18709" lon="5.29906">
        <ele>1002.2</ele>
        <time>2026-05-14T08:07:18.000Z</time>
      </trkpt>
      <trkpt lat="44.18709" lon="5.29905">
        <ele>1002.1</ele>
        <time>2026-05-14T08:07:19.000Z</time>
      </trkpt>
      <trkpt lat="44.18709" lon="5.29904">
        <ele>1002.8</ele>
        <time>2026-05-14T08:07:20.000Z</time>
      </trkpt>
      <trkpt lat="44.18709" lon="5.29904">
        <ele>1002.6</ele>
        <time>2026-05-14T08:07:21.000Z</time>
      </trkpt>
      <trkpt lat="44.18708" lon="5.29904">
        <ele>1002.8</ele>
        <time>2026-05-14T08:07:22.000Z</time>
      </trkpt>
      <trkpt lat="44.18707" lon="5.29903">
        <ele>1002.8</ele>
        <time>2026-05-14T08:07:23.000Z</time>
      </trkpt>
      <trkpt lat="44.18707" lon="5.29902">
        <ele>1002.5</ele>
        <time>2026-05-14T08:07:24.000Z</time>
      </trkpt>
      <trkpt lat="44.18706" lon="5.29901">
        <ele>1002.5</ele>
        <time>2026-05-14T08:07:25.000Z</time>
      </trkpt>
      <trkpt lat="44.18705" lon="5.29899">
        <ele>1002.8</ele>
        <time>2026-05-14T08:07:26.000Z</time>
      </trkpt>
      <trkpt lat="44.18704" lon="5.29897">
        <ele>1003.3</ele>
        <time>2026-05-14T08:07:27.000Z</time>
      </trkpt>
      <trkpt lat="44.18703" lon="5.29895">
        <ele>1003.6</ele>
        <time>2026-05-14T08:07:28.000Z</time>
      </trkpt>
      <trkpt lat="44.18702" lon="5.29892">
        <ele>1004</ele>
        <time>2026-05-14T08:07:29.000Z</time>
      </trkpt>
      <trkpt lat="44.18701" lon="5.29891">
        <ele>1005.2</ele>
        <time>2026-05-14T08:07:30.000Z</time>
      </trkpt>
      <trkpt lat="44.187" lon="5.2989">
        <ele>1005.8</ele>
        <time>2026-05-14T08:07:31.000Z</time>
      </trkpt>
      <trkpt lat="44.187" lon="5.29889">
        <ele>1005.9</ele>
        <time>2026-05-14T08:07:32.000Z</time>
      </trkpt>
      <trkpt lat="44.187" lon="5.29888">
        <ele>1006.4</ele>
        <time>2026-05-14T08:07:33.000Z</time>
      </trkpt>
      <trkpt lat="44.18699" lon="5.29887">
        <ele>1006.5</ele>
        <time>2026-05-14T08:07:34.000Z</time>
      </trkpt>
      <trkpt lat="44.18699" lon="5.29887">
        <ele>1006.8</ele>
        <time>2026-05-14T08:07:35.000Z</time>
      </trkpt>
      <trkpt lat="44.18699" lon="5.29886">
        <ele>1007.3</ele>
        <time>2026-05-14T08:07:36.000Z</time>
      </trkpt>
      <trkpt lat="44.18698" lon="5.29885">
        <ele>1008</ele>
        <time>2026-05-14T08:07:37.000Z</time>
      </trkpt>
      <trkpt lat="44.18698" lon="5.29884">
        <ele>1007.9</ele>
        <time>2026-05-14T08:07:38.000Z</time>
      </trkpt>
      <trkpt lat="44.18697" lon="5.29882">
        <ele>1007.6</ele>
        <time>2026-05-14T08:07:39.000Z</time>
      </trkpt>
      <trkpt lat="44.18697" lon="5.29881">
        <ele>1007.2</ele>
        <time>2026-05-14T08:07:40.000Z</time>
      </trkpt>
      <trkpt lat="44.18696" lon="5.2988">
        <ele>1007.4</ele>
        <time>2026-05-14T08:07:41.000Z</time>
      </trkpt>
      <trkpt lat="44.18695" lon="5.29878">
        <ele>1007.4</ele>
        <time>2026-05-14T08:07:42.000Z</time>
      </trkpt>
      <trkpt lat="44.18695" lon="5.29876">
        <ele>1007.2</ele>
        <time>2026-05-14T08:07:43.000Z</time>
      </trkpt>
      <trkpt lat="44.18694" lon="5.29875">
        <ele>1007</ele>
        <time>2026-05-14T08:07:44.000Z</time>
      </trkpt>
      <trkpt lat="44.18694" lon="5.29873">
        <ele>1006.8</ele>
        <time>2026-05-14T08:07:45.000Z</time>
      </trkpt>
      <trkpt lat="44.18694" lon="5.29872">
        <ele>1006.4</ele>
        <time>2026-05-14T08:07:46.000Z</time>
      </trkpt>
      <trkpt lat="44.18693" lon="5.29871">
        <ele>1006</ele>
        <time>2026-05-14T08:07:47.000Z</time>
      </trkpt>
      <trkpt lat="44.18692" lon="5.2987">
        <ele>1005.5</ele>
        <time>2026-05-14T08:07:48.000Z</time>
      </trkpt>
      <trkpt lat="44.18692" lon="5.29869">
        <ele>1005.3</ele>
        <time>2026-05-14T08:07:49.000Z</time>
      </trkpt>
      <trkpt lat="44.18692" lon="5.29868">
        <ele>1005.8</ele>
        <time>2026-05-14T08:07:50.000Z</time>
      </trkpt>
      <trkpt lat="44.18691" lon="5.29868">
        <ele>1006.5</ele>
        <time>2026-05-14T08:07:51.000Z</time>
      </trkpt>
      <trkpt lat="44.18691" lon="5.29867">
        <ele>1006.9</ele>
        <time>2026-05-14T08:07:52.000Z</time>
      </trkpt>
      <trkpt lat="44.18691" lon="5.29866">
        <ele>1007.3</ele>
        <time>2026-05-14T08:07:53.000Z</time>
      </trkpt>
      <trkpt lat="44.1869" lon="5.29865">
        <ele>1007.8</ele>
        <time>2026-05-14T08:07:54.000Z</time>
      </trkpt>
      <trkpt lat="44.1869" lon="5.29863">
        <ele>1008.2</ele>
        <time>2026-05-14T08:07:55.000Z</time>
      </trkpt>
      <trkpt lat="44.1869" lon="5.29862">
        <ele>1008.5</ele>
        <time>2026-05-14T08:07:56.000Z</time>
      </trkpt>
      <trkpt lat="44.18689" lon="5.2986">
        <ele>1007.9</ele>
        <time>2026-05-14T08:07:57.000Z</time>
      </trkpt>
      <trkpt lat="44.18689" lon="5.29858">
        <ele>1007.6</ele>
        <time>2026-05-14T08:07:58.000Z</time>
      </trkpt>
      <trkpt lat="44.18688" lon="5.29857">
        <ele>1008</ele>
        <time>2026-05-14T08:07:59.000Z</time>
      </trkpt>
      <trkpt lat="44.18688" lon="5.29855">
        <ele>1008.4</ele>
        <time>2026-05-14T08:08:00.000Z</time>
      </trkpt>
      <trkpt lat="44.18687" lon="5.29854">
        <ele>1009.5</ele>
        <time>2026-05-14T08:08:01.000Z</time>
      </trkpt>
      <trkpt lat="44.18686" lon="5.29853">
        <ele>1009.9</ele>
        <time>2026-05-14T08:08:02.000Z</time>
      </trkpt>
      <trkpt lat="44.18686" lon="5.29853">
        <ele>1010</ele>
        <time>2026-05-14T08:08:03.000Z</time>
      </trkpt>
      <trkpt lat="44.18685" lon="5.29852">
        <ele>1010.5</ele>
        <time>2026-05-14T08:08:04.000Z</time>
      </trkpt>
      <trkpt lat="44.18685" lon="5.29852">
        <ele>1010.6</ele>
        <time>2026-05-14T08:08:05.000Z</time>
      </trkpt>
      <trkpt lat="44.18684" lon="5.29851">
        <ele>1010.3</ele>
        <time>2026-05-14T08:08:06.000Z</time>
      </trkpt>
      <trkpt lat="44.18684" lon="5.2985">
        <ele>1010.3</ele>
        <time>2026-05-14T08:08:07.000Z</time>
      </trkpt>
      <trkpt lat="44.18683" lon="5.29849">
        <ele>1010.1</ele>
        <time>2026-05-14T08:08:08.000Z</time>
      </trkpt>
      <trkpt lat="44.18684" lon="5.29845">
        <ele>1009.2</ele>
        <time>2026-05-14T08:08:10.000Z</time>
      </trkpt>
      <trkpt lat="44.18683" lon="5.29845">
        <ele>1009.3</ele>
        <time>2026-05-14T08:08:11.000Z</time>
      </trkpt>
      <trkpt lat="44.18683" lon="5.29845">
        <ele>1009.3</ele>
        <time>2026-05-14T08:08:12.000Z</time>
      </trkpt>
      <trkpt lat="44.18683" lon="5.29845">
        <ele>1009.4</ele>
        <time>2026-05-14T08:08:13.000Z</time>
      </trkpt>
      <trkpt lat="44.18684" lon="5.29845">
        <ele>1009.8</ele>
        <time>2026-05-14T08:08:14.000Z</time>
      </trkpt>
      <trkpt lat="44.18684" lon="5.29845">
        <ele>1009.5</ele>
        <time>2026-05-14T08:08:15.000Z</time>
      </trkpt>
      <trkpt lat="44.18684" lon="5.29844">
        <ele>1009.4</ele>
        <time>2026-05-14T08:08:16.000Z</time>
      </trkpt>
      <trkpt lat="44.18684" lon="5.29844">
        <ele>1009.4</ele>
        <time>2026-05-14T08:08:17.000Z</time>
      </trkpt>
      <trkpt lat="44.18684" lon="5.29844">
        <ele>1009.6</ele>
        <time>2026-05-14T08:08:18.000Z</time>
      </trkpt>
      <trkpt lat="44.18684" lon="5.29844">
        <ele>1009.6</ele>
        <time>2026-05-14T08:08:19.000Z</time>
      </trkpt>
      <trkpt lat="44.18684" lon="5.29844">
        <ele>1009.6</ele>
        <time>2026-05-14T08:08:20.000Z</time>
      </trkpt>
      <trkpt lat="44.18684" lon="5.29844">
        <ele>1010.2</ele>
        <time>2026-05-14T08:08:21.000Z</time>
      </trkpt>
      <trkpt lat="44.18684" lon="5.29844">
        <ele>1010.2</ele>
        <time>2026-05-14T08:08:22.000Z</time>
      </trkpt>
      <trkpt lat="44.18684" lon="5.29843">
        <ele>1010.3</ele>
        <time>2026-05-14T08:08:23.000Z</time>
      </trkpt>
      <trkpt lat="44.18685" lon="5.29841">
        <ele>1010.7</ele>
        <time>2026-05-14T08:08:25.000Z</time>
      </trkpt>
      <trkpt lat="44.18686" lon="5.2984">
        <ele>1011.1</ele>
        <time>2026-05-14T08:08:26.000Z</time>
      </trkpt>
      <trkpt lat="44.18686" lon="5.29839">
        <ele>1011.3</ele>
        <time>2026-05-14T08:08:27.000Z</time>
      </trkpt>
      <trkpt lat="44.18685" lon="5.29838">
        <ele>1011.2</ele>
        <time>2026-05-14T08:08:28.000Z</time>
      </trkpt>
      <trkpt lat="44.18684" lon="5.29837">
        <ele>1011.4</ele>
        <time>2026-05-14T08:08:29.000Z</time>
      </trkpt>
      <trkpt lat="44.18683" lon="5.29835">
        <ele>1011.5</ele>
        <time>2026-05-14T08:08:30.000Z</time>
      </trkpt>
      <trkpt lat="44.18682" lon="5.29833">
        <ele>1012.1</ele>
        <time>2026-05-14T08:08:31.000Z</time>
      </trkpt>
      <trkpt lat="44.18681" lon="5.2983">
        <ele>1012.6</ele>
        <time>2026-05-14T08:08:32.000Z</time>
      </trkpt>
      <trkpt lat="44.18681" lon="5.29828">
        <ele>1012.7</ele>
        <time>2026-05-14T08:08:33.000Z</time>
      </trkpt>
      <trkpt lat="44.18681" lon="5.29826">
        <ele>1012.7</ele>
        <time>2026-05-14T08:08:34.000Z</time>
      </trkpt>
      <trkpt lat="44.18681" lon="5.29824">
        <ele>1012.2</ele>
        <time>2026-05-14T08:08:35.000Z</time>
      </trkpt>
      <trkpt lat="44.18681" lon="5.29822">
        <ele>1011.8</ele>
        <time>2026-05-14T08:08:36.000Z</time>
      </trkpt>
      <trkpt lat="44.18681" lon="5.29821">
        <ele>1012.1</ele>
        <time>2026-05-14T08:08:37.000Z</time>
      </trkpt>
      <trkpt lat="44.18681" lon="5.2982">
        <ele>1012.5</ele>
        <time>2026-05-14T08:08:38.000Z</time>
      </trkpt>
      <trkpt lat="44.18681" lon="5.2982">
        <ele>1012.7</ele>
        <time>2026-05-14T08:08:39.000Z</time>
      </trkpt>
      <trkpt lat="44.18681" lon="5.29819">
        <ele>1012.9</ele>
        <time>2026-05-14T08:08:40.000Z</time>
      </trkpt>
      <trkpt lat="44.18681" lon="5.29816">
        <ele>1012.8</ele>
        <time>2026-05-14T08:08:41.000Z</time>
      </trkpt>
      <trkpt lat="44.1868" lon="5.29814">
        <ele>1012.9</ele>
        <time>2026-05-14T08:08:42.000Z</time>
      </trkpt>
      <trkpt lat="44.1868" lon="5.29812">
        <ele>1012.8</ele>
        <time>2026-05-14T08:08:43.000Z</time>
      </trkpt>
      <trkpt lat="44.18679" lon="5.2981">
        <ele>1013</ele>
        <time>2026-05-14T08:08:44.000Z</time>
      </trkpt>
      <trkpt lat="44.18678" lon="5.29809">
        <ele>1013.8</ele>
        <time>2026-05-14T08:08:45.000Z</time>
      </trkpt>
      <trkpt lat="44.18678" lon="5.29807">
        <ele>1013.9</ele>
        <time>2026-05-14T08:08:46.000Z</time>
      </trkpt>
      <trkpt lat="44.18677" lon="5.29806">
        <ele>1014</ele>
        <time>2026-05-14T08:08:47.000Z</time>
      </trkpt>
      <trkpt lat="44.18676" lon="5.29805">
        <ele>1014.3</ele>
        <time>2026-05-14T08:08:48.000Z</time>
      </trkpt>
      <trkpt lat="44.18675" lon="5.29804">
        <ele>1014.7</ele>
        <time>2026-05-14T08:08:49.000Z</time>
      </trkpt>
      <trkpt lat="44.18674" lon="5.29803">
        <ele>1015.3</ele>
        <time>2026-05-14T08:08:50.000Z</time>
      </trkpt>
      <trkpt lat="44.18675" lon="5.29802">
        <ele>1015.6</ele>
        <time>2026-05-14T08:08:51.000Z</time>
      </trkpt>
      <trkpt lat="44.18675" lon="5.298">
        <ele>1015.6</ele>
        <time>2026-05-14T08:08:52.000Z</time>
      </trkpt>
      <trkpt lat="44.18675" lon="5.29798">
        <ele>1015.5</ele>
        <time>2026-05-14T08:08:53.000Z</time>
      </trkpt>
      <trkpt lat="44.18675" lon="5.29797">
        <ele>1015.8</ele>
        <time>2026-05-14T08:08:54.000Z</time>
      </trkpt>
      <trkpt lat="44.18675" lon="5.29795">
        <ele>1016.6</ele>
        <time>2026-05-14T08:08:55.000Z</time>
      </trkpt>
      <trkpt lat="44.18674" lon="5.29793">
        <ele>1017.5</ele>
        <time>2026-05-14T08:08:56.000Z</time>
      </trkpt>
      <trkpt lat="44.18674" lon="5.29792">
        <ele>1017.3</ele>
        <time>2026-05-14T08:08:57.000Z</time>
      </trkpt>
      <trkpt lat="44.18673" lon="5.29791">
        <ele>1016.8</ele>
        <time>2026-05-14T08:08:58.000Z</time>
      </trkpt>
      <trkpt lat="44.18673" lon="5.29791">
        <ele>1017.1</ele>
        <time>2026-05-14T08:08:59.000Z</time>
      </trkpt>
      <trkpt lat="44.18672" lon="5.2979">
        <ele>1017.6</ele>
        <time>2026-05-14T08:09:00.000Z</time>
      </trkpt>
      <trkpt lat="44.18672" lon="5.29789">
        <ele>1018</ele>
        <time>2026-05-14T08:09:01.000Z</time>
      </trkpt>
      <trkpt lat="44.18672" lon="5.29787">
        <ele>1018.1</ele>
        <time>2026-05-14T08:09:02.000Z</time>
      </trkpt>
      <trkpt lat="44.18673" lon="5.29786">
        <ele>1017.5</ele>
        <time>2026-05-14T08:09:03.000Z</time>
      </trkpt>
      <trkpt lat="44.18672" lon="5.29785">
        <ele>1017.8</ele>
        <time>2026-05-14T08:09:04.000Z</time>
      </trkpt>
      <trkpt lat="44.18672" lon="5.29784">
        <ele>1018.2</ele>
        <time>2026-05-14T08:09:05.000Z</time>
      </trkpt>
      <trkpt lat="44.18672" lon="5.29783">
        <ele>1018.5</ele>
        <time>2026-05-14T08:09:06.000Z</time>
      </trkpt>
      <trkpt lat="44.18672" lon="5.29782">
        <ele>1019</ele>
        <time>2026-05-14T08:09:07.000Z</time>
      </trkpt>
      <trkpt lat="44.18671" lon="5.29781">
        <ele>1019.1</ele>
        <time>2026-05-14T08:09:08.000Z</time>
      </trkpt>
      <trkpt lat="44.18671" lon="5.29779">
        <ele>1019.6</ele>
        <time>2026-05-14T08:09:09.000Z</time>
      </trkpt>
      <trkpt lat="44.18671" lon="5.29778">
        <ele>1020.2</ele>
        <time>2026-05-14T08:09:10.000Z</time>
      </trkpt>
      <trkpt lat="44.1867" lon="5.29778">
        <ele>1021.2</ele>
        <time>2026-05-14T08:09:11.000Z</time>
      </trkpt>
      <trkpt lat="44.18668" lon="5.29775">
        <ele>1021.6</ele>
        <time>2026-05-14T08:09:13.000Z</time>
      </trkpt>
      <trkpt lat="44.18667" lon="5.29774">
        <ele>1021.8</ele>
        <time>2026-05-14T08:09:14.000Z</time>
      </trkpt>
      <trkpt lat="44.18666" lon="5.29772">
        <ele>1021.5</ele>
        <time>2026-05-14T08:09:15.000Z</time>
      </trkpt>
      <trkpt lat="44.18666" lon="5.2977">
        <ele>1021.1</ele>
        <time>2026-05-14T08:09:16.000Z</time>
      </trkpt>
      <trkpt lat="44.18666" lon="5.29769">
        <ele>1020.6</ele>
        <time>2026-05-14T08:09:17.000Z</time>
      </trkpt>
      <trkpt lat="44.18665" lon="5.29768">
        <ele>1020.3</ele>
        <time>2026-05-14T08:09:18.000Z</time>
      </trkpt>
      <trkpt lat="44.18664" lon="5.29766">
        <ele>1020.1</ele>
        <time>2026-05-14T08:09:19.000Z</time>
      </trkpt>
      <trkpt lat="44.18664" lon="5.29765">
        <ele>1020.1</ele>
        <time>2026-05-14T08:09:20.000Z</time>
      </trkpt>
      <trkpt lat="44.18664" lon="5.29764">
        <ele>1020.1</ele>
        <time>2026-05-14T08:09:21.000Z</time>
      </trkpt>
      <trkpt lat="44.18663" lon="5.29763">
        <ele>1020.2</ele>
        <time>2026-05-14T08:09:22.000Z</time>
      </trkpt>
      <trkpt lat="44.18662" lon="5.29762">
        <ele>1020.5</ele>
        <time>2026-05-14T08:09:23.000Z</time>
      </trkpt>
      <trkpt lat="44.18662" lon="5.29761">
        <ele>1020.3</ele>
        <time>2026-05-14T08:09:24.000Z</time>
      </trkpt>
      <trkpt lat="44.18661" lon="5.29761">
        <ele>1019.8</ele>
        <time>2026-05-14T08:09:25.000Z</time>
      </trkpt>
      <trkpt lat="44.18661" lon="5.2976">
        <ele>1020.2</ele>
        <time>2026-05-14T08:09:26.000Z</time>
      </trkpt>
      <trkpt lat="44.1866" lon="5.2976">
        <ele>1020.5</ele>
        <time>2026-05-14T08:09:27.000Z</time>
      </trkpt>
      <trkpt lat="44.18658" lon="5.29758">
        <ele>1020.1</ele>
        <time>2026-05-14T08:09:28.000Z</time>
      </trkpt>
      <trkpt lat="44.18658" lon="5.29758">
        <ele>1020.2</ele>
        <time>2026-05-14T08:09:29.000Z</time>
      </trkpt>
      <trkpt lat="44.18657" lon="5.29757">
        <ele>1020.7</ele>
        <time>2026-05-14T08:09:30.000Z</time>
      </trkpt>
      <trkpt lat="44.18655" lon="5.29756">
        <ele>1020.6</ele>
        <time>2026-05-14T08:09:31.000Z</time>
      </trkpt>
      <trkpt lat="44.18654" lon="5.29753">
        <ele>1021.8</ele>
        <time>2026-05-14T08:09:33.000Z</time>
      </trkpt>
      <trkpt lat="44.18654" lon="5.29753">
        <ele>1022.2</ele>
        <time>2026-05-14T08:09:34.000Z</time>
      </trkpt>
      <trkpt lat="44.18653" lon="5.29752">
        <ele>1022.3</ele>
        <time>2026-05-14T08:09:35.000Z</time>
      </trkpt>
      <trkpt lat="44.18652" lon="5.2975">
        <ele>1022.3</ele>
        <time>2026-05-14T08:09:36.000Z</time>
      </trkpt>
      <trkpt lat="44.18652" lon="5.29749">
        <ele>1022.4</ele>
        <time>2026-05-14T08:09:37.000Z</time>
      </trkpt>
      <trkpt lat="44.18651" lon="5.29747">
        <ele>1022.4</ele>
        <time>2026-05-14T08:09:38.000Z</time>
      </trkpt>
      <trkpt lat="44.1865" lon="5.29746">
        <ele>1022.9</ele>
        <time>2026-05-14T08:09:39.000Z</time>
      </trkpt>
      <trkpt lat="44.18648" lon="5.29746">
        <ele>1023.1</ele>
        <time>2026-05-14T08:09:40.000Z</time>
      </trkpt>
      <trkpt lat="44.18647" lon="5.29746">
        <ele>1023.4</ele>
        <time>2026-05-14T08:09:41.000Z</time>
      </trkpt>
      <trkpt lat="44.18647" lon="5.29746">
        <ele>1022.7</ele>
        <time>2026-05-14T08:09:42.000Z</time>
      </trkpt>
      <trkpt lat="44.18647" lon="5.29746">
        <ele>1022.2</ele>
        <time>2026-05-14T08:09:43.000Z</time>
      </trkpt>
      <trkpt lat="44.18646" lon="5.29745">
        <ele>1021.7</ele>
        <time>2026-05-14T08:09:44.000Z</time>
      </trkpt>
      <trkpt lat="44.18646" lon="5.29744">
        <ele>1021.4</ele>
        <time>2026-05-14T08:09:45.000Z</time>
      </trkpt>
      <trkpt lat="44.18645" lon="5.29743">
        <ele>1021.4</ele>
        <time>2026-05-14T08:09:46.000Z</time>
      </trkpt>
      <trkpt lat="44.18644" lon="5.29741">
        <ele>1021.9</ele>
        <time>2026-05-14T08:09:47.000Z</time>
      </trkpt>
      <trkpt lat="44.18643" lon="5.29739">
        <ele>1022.1</ele>
        <time>2026-05-14T08:09:48.000Z</time>
      </trkpt>
      <trkpt lat="44.18641" lon="5.29738">
        <ele>1022.3</ele>
        <time>2026-05-14T08:09:49.000Z</time>
      </trkpt>
      <trkpt lat="44.18641" lon="5.29737">
        <ele>1022.5</ele>
        <time>2026-05-14T08:09:50.000Z</time>
      </trkpt>
      <trkpt lat="44.1864" lon="5.29737">
        <ele>1022.3</ele>
        <time>2026-05-14T08:09:51.000Z</time>
      </trkpt>
      <trkpt lat="44.18639" lon="5.29737">
        <ele>1022.2</ele>
        <time>2026-05-14T08:09:52.000Z</time>
      </trkpt>
      <trkpt lat="44.18637" lon="5.29737">
        <ele>1022.5</ele>
        <time>2026-05-14T08:09:53.000Z</time>
      </trkpt>
      <trkpt lat="44.18637" lon="5.29736">
        <ele>1022.6</ele>
        <time>2026-05-14T08:09:54.000Z</time>
      </trkpt>
      <trkpt lat="44.18636" lon="5.29734">
        <ele>1022.5</ele>
        <time>2026-05-14T08:09:55.000Z</time>
      </trkpt>
      <trkpt lat="44.18636" lon="5.29734">
        <ele>1022.7</ele>
        <time>2026-05-14T08:09:56.000Z</time>
      </trkpt>
      <trkpt lat="44.18636" lon="5.29733">
        <ele>1022.7</ele>
        <time>2026-05-14T08:09:57.000Z</time>
      </trkpt>
      <trkpt lat="44.18636" lon="5.29732">
        <ele>1022.4</ele>
        <time>2026-05-14T08:09:58.000Z</time>
      </trkpt>
      <trkpt lat="44.18635" lon="5.29732">
        <ele>1022.2</ele>
        <time>2026-05-14T08:09:59.000Z</time>
      </trkpt>
      <trkpt lat="44.18635" lon="5.2973">
        <ele>1022.2</ele>
        <time>2026-05-14T08:10:00.000Z</time>
      </trkpt>
      <trkpt lat="44.18634" lon="5.2973">
        <ele>1022.3</ele>
        <time>2026-05-14T08:10:01.000Z</time>
      </trkpt>
      <trkpt lat="44.18633" lon="5.29729">
        <ele>1022.1</ele>
        <time>2026-05-14T08:10:02.000Z</time>
      </trkpt>
      <trkpt lat="44.18632" lon="5.29728">
        <ele>1021.7</ele>
        <time>2026-05-14T08:10:03.000Z</time>
      </trkpt>
      <trkpt lat="44.18631" lon="5.29728">
        <ele>1021.3</ele>
        <time>2026-05-14T08:10:04.000Z</time>
      </trkpt>
      <trkpt lat="44.1863" lon="5.29727">
        <ele>1021.4</ele>
        <time>2026-05-14T08:10:05.000Z</time>
      </trkpt>
      <trkpt lat="44.18629" lon="5.29726">
        <ele>1021.8</ele>
        <time>2026-05-14T08:10:06.000Z</time>
      </trkpt>
      <trkpt lat="44.18629" lon="5.29726">
        <ele>1022.1</ele>
        <time>2026-05-14T08:10:07.000Z</time>
      </trkpt>
      <trkpt lat="44.18628" lon="5.29725">
        <ele>1022.3</ele>
        <time>2026-05-14T08:10:08.000Z</time>
      </trkpt>
      <trkpt lat="44.18628" lon="5.29724">
        <ele>1022.1</ele>
        <time>2026-05-14T08:10:09.000Z</time>
      </trkpt>
      <trkpt lat="44.18625" lon="5.29721">
        <ele>1022.7</ele>
        <time>2026-05-14T08:10:11.000Z</time>
      </trkpt>
      <trkpt lat="44.18625" lon="5.2972">
        <ele>1022.9</ele>
        <time>2026-05-14T08:10:12.000Z</time>
      </trkpt>
      <trkpt lat="44.18625" lon="5.2972">
        <ele>1022.9</ele>
        <time>2026-05-14T08:10:13.000Z</time>
      </trkpt>
      <trkpt lat="44.18624" lon="5.29719">
        <ele>1022.4</ele>
        <time>2026-05-14T08:10:14.000Z</time>
      </trkpt>
      <trkpt lat="44.18621" lon="5.29717">
        <ele>1023.7</ele>
        <time>2026-05-14T08:10:15.000Z</time>
      </trkpt>
      <trkpt lat="44.1862" lon="5.29716">
        <ele>1023.9</ele>
        <time>2026-05-14T08:10:16.000Z</time>
      </trkpt>
      <trkpt lat="44.18618" lon="5.29714">
        <ele>1024.1</ele>
        <time>2026-05-14T08:10:17.000Z</time>
      </trkpt>
      <trkpt lat="44.18617" lon="5.29713">
        <ele>1023.6</ele>
        <time>2026-05-14T08:10:18.000Z</time>
      </trkpt>
      <trkpt lat="44.18617" lon="5.29713">
        <ele>1023.3</ele>
        <time>2026-05-14T08:10:19.000Z</time>
      </trkpt>
      <trkpt lat="44.18616" lon="5.29712">
        <ele>1023.4</ele>
        <time>2026-05-14T08:10:20.000Z</time>
      </trkpt>
      <trkpt lat="44.18616" lon="5.29711">
        <ele>1023.3</ele>
        <time>2026-05-14T08:10:21.000Z</time>
      </trkpt>
      <trkpt lat="44.18614" lon="5.2971">
        <ele>1023.8</ele>
        <time>2026-05-14T08:10:22.000Z</time>
      </trkpt>
      <trkpt lat="44.18613" lon="5.29708">
        <ele>1024.7</ele>
        <time>2026-05-14T08:10:23.000Z</time>
      </trkpt>
      <trkpt lat="44.18614" lon="5.29707">
        <ele>1025.5</ele>
        <time>2026-05-14T08:10:24.000Z</time>
      </trkpt>
      <trkpt lat="44.18613" lon="5.29706">
        <ele>1026.8</ele>
        <time>2026-05-14T08:10:25.000Z</time>
      </trkpt>
      <trkpt lat="44.18613" lon="5.29705">
        <ele>1028</ele>
        <time>2026-05-14T08:10:27.000Z</time>
      </trkpt>
      <trkpt lat="44.18612" lon="5.29703">
        <ele>1028.8</ele>
        <time>2026-05-14T08:10:28.000Z</time>
      </trkpt>
      <trkpt lat="44.18612" lon="5.29702">
        <ele>1028.9</ele>
        <time>2026-05-14T08:10:29.000Z</time>
      </trkpt>
      <trkpt lat="44.18611" lon="5.297">
        <ele>1029.2</ele>
        <time>2026-05-14T08:10:30.000Z</time>
      </trkpt>
      <trkpt lat="44.18611" lon="5.29699">
        <ele>1029.1</ele>
        <time>2026-05-14T08:10:31.000Z</time>
      </trkpt>
      <trkpt lat="44.1861" lon="5.29699">
        <ele>1029.3</ele>
        <time>2026-05-14T08:10:32.000Z</time>
      </trkpt>
      <trkpt lat="44.1861" lon="5.29699">
        <ele>1029.3</ele>
        <time>2026-05-14T08:10:33.000Z</time>
      </trkpt>
      <trkpt lat="44.1861" lon="5.29698">
        <ele>1029</ele>
        <time>2026-05-14T08:10:34.000Z</time>
      </trkpt>
      <trkpt lat="44.18609" lon="5.29697">
        <ele>1028.8</ele>
        <time>2026-05-14T08:10:35.000Z</time>
      </trkpt>
      <trkpt lat="44.18609" lon="5.29695">
        <ele>1028.3</ele>
        <time>2026-05-14T08:10:36.000Z</time>
      </trkpt>
      <trkpt lat="44.18609" lon="5.29695">
        <ele>1028.6</ele>
        <time>2026-05-14T08:10:37.000Z</time>
      </trkpt>
      <trkpt lat="44.18608" lon="5.29694">
        <ele>1029</ele>
        <time>2026-05-14T08:10:38.000Z</time>
      </trkpt>
      <trkpt lat="44.18608" lon="5.29694">
        <ele>1028.9</ele>
        <time>2026-05-14T08:10:39.000Z</time>
      </trkpt>
      <trkpt lat="44.18606" lon="5.29694">
        <ele>1028.9</ele>
        <time>2026-05-14T08:10:40.000Z</time>
      </trkpt>
      <trkpt lat="44.18606" lon="5.29694">
        <ele>1028.6</ele>
        <time>2026-05-14T08:10:41.000Z</time>
      </trkpt>
      <trkpt lat="44.18605" lon="5.29694">
        <ele>1028.9</ele>
        <time>2026-05-14T08:10:42.000Z</time>
      </trkpt>
      <trkpt lat="44.18604" lon="5.29694">
        <ele>1029.2</ele>
        <time>2026-05-14T08:10:43.000Z</time>
      </trkpt>
      <trkpt lat="44.18604" lon="5.29693">
        <ele>1029.2</ele>
        <time>2026-05-14T08:10:44.000Z</time>
      </trkpt>
      <trkpt lat="44.18604" lon="5.29693">
        <ele>1029.1</ele>
        <time>2026-05-14T08:10:45.000Z</time>
      </trkpt>
      <trkpt lat="44.18603" lon="5.29693">
        <ele>1028.9</ele>
        <time>2026-05-14T08:10:46.000Z</time>
      </trkpt>
      <trkpt lat="44.18601" lon="5.29692">
        <ele>1028.8</ele>
        <time>2026-05-14T08:10:47.000Z</time>
      </trkpt>
      <trkpt lat="44.186" lon="5.29692">
        <ele>1028.8</ele>
        <time>2026-05-14T08:10:48.000Z</time>
      </trkpt>
      <trkpt lat="44.18599" lon="5.29691">
        <ele>1028.8</ele>
        <time>2026-05-14T08:10:49.000Z</time>
      </trkpt>
      <trkpt lat="44.18598" lon="5.2969">
        <ele>1028.8</ele>
        <time>2026-05-14T08:10:50.000Z</time>
      </trkpt>
      <trkpt lat="44.18597" lon="5.2969">
        <ele>1028.6</ele>
        <time>2026-05-14T08:10:51.000Z</time>
      </trkpt>
      <trkpt lat="44.18596" lon="5.29689">
        <ele>1028.7</ele>
        <time>2026-05-14T08:10:53.000Z</time>
      </trkpt>
      <trkpt lat="44.18593" lon="5.29688">
        <ele>1029.3</ele>
        <time>2026-05-14T08:10:54.999Z</time>
      </trkpt>
      <trkpt lat="44.18592" lon="5.29688">
        <ele>1029.5</ele>
        <time>2026-05-14T08:10:55.999Z</time>
      </trkpt>
      <trkpt lat="44.1859" lon="5.29687">
        <ele>1030.1</ele>
        <time>2026-05-14T08:10:56.999Z</time>
      </trkpt>
      <trkpt lat="44.18589" lon="5.29687">
        <ele>1030.2</ele>
        <time>2026-05-14T08:10:57.999Z</time>
      </trkpt>
      <trkpt lat="44.18588" lon="5.29686">
        <ele>1030</ele>
        <time>2026-05-14T08:10:58.999Z</time>
      </trkpt>
      <trkpt lat="44.18586" lon="5.29684">
        <ele>1031.8</ele>
        <time>2026-05-14T08:10:59.999Z</time>
      </trkpt>
      <trkpt lat="44.18584" lon="5.29683">
        <ele>1033.1</ele>
        <time>2026-05-14T08:11:00.999Z</time>
      </trkpt>
      <trkpt lat="44.18583" lon="5.29681">
        <ele>1034.3</ele>
        <time>2026-05-14T08:11:01.999Z</time>
      </trkpt>
      <trkpt lat="44.18581" lon="5.29679">
        <ele>1035.2</ele>
        <time>2026-05-14T08:11:02.999Z</time>
      </trkpt>
      <trkpt lat="44.18579" lon="5.29677">
        <ele>1035.5</ele>
        <time>2026-05-14T08:11:03.999Z</time>
      </trkpt>
      <trkpt lat="44.18578" lon="5.29675">
        <ele>1036.8</ele>
        <time>2026-05-14T08:11:04.999Z</time>
      </trkpt>
      <trkpt lat="44.18577" lon="5.29674">
        <ele>1037.4</ele>
        <time>2026-05-14T08:11:05.999Z</time>
      </trkpt>
      <trkpt lat="44.18576" lon="5.29673">
        <ele>1037.3</ele>
        <time>2026-05-14T08:11:06.999Z</time>
      </trkpt>
      <trkpt lat="44.18575" lon="5.29672">
        <ele>1037.2</ele>
        <time>2026-05-14T08:11:07.999Z</time>
      </trkpt>
      <trkpt lat="44.18575" lon="5.29671">
        <ele>1037.2</ele>
        <time>2026-05-14T08:11:08.999Z</time>
      </trkpt>
      <trkpt lat="44.18574" lon="5.29671">
        <ele>1037.6</ele>
        <time>2026-05-14T08:11:09.999Z</time>
      </trkpt>
      <trkpt lat="44.18573" lon="5.2967">
        <ele>1038.7</ele>
        <time>2026-05-14T08:11:10.999Z</time>
      </trkpt>
      <trkpt lat="44.18572" lon="5.29669">
        <ele>1038.8</ele>
        <time>2026-05-14T08:11:11.999Z</time>
      </trkpt>
      <trkpt lat="44.18571" lon="5.29669">
        <ele>1038.3</ele>
        <time>2026-05-14T08:11:12.999Z</time>
      </trkpt>
      <trkpt lat="44.18571" lon="5.29669">
        <ele>1037.9</ele>
        <time>2026-05-14T08:11:13.999Z</time>
      </trkpt>
      <trkpt lat="44.1857" lon="5.29669">
        <ele>1037.8</ele>
        <time>2026-05-14T08:11:14.999Z</time>
      </trkpt>
      <trkpt lat="44.18571" lon="5.29668">
        <ele>1037.7</ele>
        <time>2026-05-14T08:11:15.999Z</time>
      </trkpt>
      <trkpt lat="44.18571" lon="5.29668">
        <ele>1037.7</ele>
        <time>2026-05-14T08:11:16.999Z</time>
      </trkpt>
      <trkpt lat="44.18571" lon="5.29668">
        <ele>1037.6</ele>
        <time>2026-05-14T08:11:17.999Z</time>
      </trkpt>
      <trkpt lat="44.18572" lon="5.29667">
        <ele>1037</ele>
        <time>2026-05-14T08:11:18.999Z</time>
      </trkpt>
      <trkpt lat="44.18573" lon="5.29667">
        <ele>1036.6</ele>
        <time>2026-05-14T08:11:19.999Z</time>
      </trkpt>
      <trkpt lat="44.18574" lon="5.29666">
        <ele>1036.3</ele>
        <time>2026-05-14T08:11:20.999Z</time>
      </trkpt>
      <trkpt lat="44.18575" lon="5.29666">
        <ele>1036.4</ele>
        <time>2026-05-14T08:11:21.999Z</time>
      </trkpt>
      <trkpt lat="44.18575" lon="5.29667">
        <ele>1036.2</ele>
        <time>2026-05-14T08:11:22.999Z</time>
      </trkpt>
      <trkpt lat="44.18576" lon="5.29666">
        <ele>1036.3</ele>
        <time>2026-05-14T08:11:23.999Z</time>
      </trkpt>
      <trkpt lat="44.18577" lon="5.29667">
        <ele>1036.3</ele>
        <time>2026-05-14T08:11:24.999Z</time>
      </trkpt>
      <trkpt lat="44.18579" lon="5.29667">
        <ele>1036.4</ele>
        <time>2026-05-14T08:11:25.999Z</time>
      </trkpt>
      <trkpt lat="44.18579" lon="5.29667">
        <ele>1036.4</ele>
        <time>2026-05-14T08:11:26.999Z</time>
      </trkpt>
      <trkpt lat="44.1858" lon="5.29667">
        <ele>1036.3</ele>
        <time>2026-05-14T08:11:27.999Z</time>
      </trkpt>
      <trkpt lat="44.18582" lon="5.29666">
        <ele>1036.3</ele>
        <time>2026-05-14T08:11:28.999Z</time>
      </trkpt>
      <trkpt lat="44.18583" lon="5.29666">
        <ele>1036.2</ele>
        <time>2026-05-14T08:11:29.999Z</time>
      </trkpt>
      <trkpt lat="44.18584" lon="5.29666">
        <ele>1036.1</ele>
        <time>2026-05-14T08:11:30.999Z</time>
      </trkpt>
      <trkpt lat="44.18585" lon="5.29665">
        <ele>1035.8</ele>
        <time>2026-05-14T08:11:31.999Z</time>
      </trkpt>
      <trkpt lat="44.18586" lon="5.29666">
        <ele>1035.8</ele>
        <time>2026-05-14T08:11:32.999Z</time>
      </trkpt>
      <trkpt lat="44.18586" lon="5.29666">
        <ele>1035.6</ele>
        <time>2026-05-14T08:11:33.999Z</time>
      </trkpt>
      <trkpt lat="44.18586" lon="5.29666">
        <ele>1035.4</ele>
        <time>2026-05-14T08:11:34.999Z</time>
      </trkpt>
      <trkpt lat="44.18586" lon="5.29665">
        <ele>1034.9</ele>
        <time>2026-05-14T08:11:35.999Z</time>
      </trkpt>
      <trkpt lat="44.18587" lon="5.29665">
        <ele>1034.7</ele>
        <time>2026-05-14T08:11:36.999Z</time>
      </trkpt>
      <trkpt lat="44.18588" lon="5.29664">
        <ele>1034.5</ele>
        <time>2026-05-14T08:11:37.999Z</time>
      </trkpt>
      <trkpt lat="44.18589" lon="5.29663">
        <ele>1034.1</ele>
        <time>2026-05-14T08:11:38.999Z</time>
      </trkpt>
      <trkpt lat="44.18591" lon="5.29662">
        <ele>1034.7</ele>
        <time>2026-05-14T08:11:39.999Z</time>
      </trkpt>
      <trkpt lat="44.18592" lon="5.29662">
        <ele>1035</ele>
        <time>2026-05-14T08:11:40.999Z</time>
      </trkpt>
      <trkpt lat="44.18594" lon="5.29662">
        <ele>1034.8</ele>
        <time>2026-05-14T08:11:41.999Z</time>
      </trkpt>
      <trkpt lat="44.18595" lon="5.29661">
        <ele>1034.6</ele>
        <time>2026-05-14T08:11:42.999Z</time>
      </trkpt>
      <trkpt lat="44.18596" lon="5.29661">
        <ele>1034.5</ele>
        <time>2026-05-14T08:11:43.999Z</time>
      </trkpt>
      <trkpt lat="44.18598" lon="5.2966">
        <ele>1034</ele>
        <time>2026-05-14T08:11:44.999Z</time>
      </trkpt>
      <trkpt lat="44.18599" lon="5.29661">
        <ele>1033.8</ele>
        <time>2026-05-14T08:11:45.999Z</time>
      </trkpt>
      <trkpt lat="44.18599" lon="5.2966">
        <ele>1033.5</ele>
        <time>2026-05-14T08:11:46.999Z</time>
      </trkpt>
      <trkpt lat="44.186" lon="5.2966">
        <ele>1033.3</ele>
        <time>2026-05-14T08:11:47.999Z</time>
      </trkpt>
      <trkpt lat="44.18601" lon="5.29659">
        <ele>1033.1</ele>
        <time>2026-05-14T08:11:48.999Z</time>
      </trkpt>
      <trkpt lat="44.18601" lon="5.29658">
        <ele>1033</ele>
        <time>2026-05-14T08:11:49.999Z</time>
      </trkpt>
      <trkpt lat="44.18602" lon="5.29658">
        <ele>1032.9</ele>
        <time>2026-05-14T08:11:50.999Z</time>
      </trkpt>
      <trkpt lat="44.18603" lon="5.29657">
        <ele>1032.9</ele>
        <time>2026-05-14T08:11:51.999Z</time>
      </trkpt>
      <trkpt lat="44.18604" lon="5.29657">
        <ele>1033.1</ele>
        <time>2026-05-14T08:11:52.999Z</time>
      </trkpt>
      <trkpt lat="44.18605" lon="5.29657">
        <ele>1033.1</ele>
        <time>2026-05-14T08:11:53.999Z</time>
      </trkpt>
      <trkpt lat="44.18607" lon="5.29657">
        <ele>1033.5</ele>
        <time>2026-05-14T08:11:54.999Z</time>
      </trkpt>
      <trkpt lat="44.18607" lon="5.29657">
        <ele>1033.7</ele>
        <time>2026-05-14T08:11:55.999Z</time>
      </trkpt>
      <trkpt lat="44.18608" lon="5.29657">
        <ele>1033.8</ele>
        <time>2026-05-14T08:11:56.999Z</time>
      </trkpt>
      <trkpt lat="44.18609" lon="5.29657">
        <ele>1033.6</ele>
        <time>2026-05-14T08:11:57.999Z</time>
      </trkpt>
      <trkpt lat="44.1861" lon="5.29657">
        <ele>1034.3</ele>
        <time>2026-05-14T08:11:58.999Z</time>
      </trkpt>
      <trkpt lat="44.18611" lon="5.2966">
        <ele>1034.6</ele>
        <time>2026-05-14T08:11:59.999Z</time>
      </trkpt>
      <trkpt lat="44.18611" lon="5.29659">
        <ele>1034.1</ele>
        <time>2026-05-14T08:12:00.999Z</time>
      </trkpt>
      <trkpt lat="44.18612" lon="5.29663">
        <ele>1035.2</ele>
        <time>2026-05-14T08:12:01.999Z</time>
      </trkpt>
      <trkpt lat="44.18613" lon="5.29663">
        <ele>1035.1</ele>
        <time>2026-05-14T08:12:02.999Z</time>
      </trkpt>
      <trkpt lat="44.18614" lon="5.29664">
        <ele>1035.2</ele>
        <time>2026-05-14T08:12:03.999Z</time>
      </trkpt>
      <trkpt lat="44.18615" lon="5.29665">
        <ele>1035.8</ele>
        <time>2026-05-14T08:12:04.999Z</time>
      </trkpt>
      <trkpt lat="44.18616" lon="5.29666">
        <ele>1036.1</ele>
        <time>2026-05-14T08:12:05.999Z</time>
      </trkpt>
      <trkpt lat="44.18617" lon="5.29667">
        <ele>1036.3</ele>
        <time>2026-05-14T08:12:06.999Z</time>
      </trkpt>
      <trkpt lat="44.18618" lon="5.29668">
        <ele>1036.8</ele>
        <time>2026-05-14T08:12:07.999Z</time>
      </trkpt>
      <trkpt lat="44.1862" lon="5.2967">
        <ele>1037.7</ele>
        <time>2026-05-14T08:12:08.999Z</time>
      </trkpt>
      <trkpt lat="44.18621" lon="5.2967">
        <ele>1037.8</ele>
        <time>2026-05-14T08:12:09.999Z</time>
      </trkpt>
      <trkpt lat="44.18621" lon="5.29671">
        <ele>1038.1</ele>
        <time>2026-05-14T08:12:10.999Z</time>
      </trkpt>
      <trkpt lat="44.18623" lon="5.29673">
        <ele>1039.1</ele>
        <time>2026-05-14T08:12:11.999Z</time>
      </trkpt>
      <trkpt lat="44.18624" lon="5.29674">
        <ele>1039.7</ele>
        <time>2026-05-14T08:12:12.999Z</time>
      </trkpt>
      <trkpt lat="44.18626" lon="5.29675">
        <ele>1039.7</ele>
        <time>2026-05-14T08:12:13.999Z</time>
      </trkpt>
      <trkpt lat="44.18627" lon="5.29674">
        <ele>1039.5</ele>
        <time>2026-05-14T08:12:14.999Z</time>
      </trkpt>
      <trkpt lat="44.18628" lon="5.29674">
        <ele>1039.7</ele>
        <time>2026-05-14T08:12:15.999Z</time>
      </trkpt>
      <trkpt lat="44.18629" lon="5.29674">
        <ele>1039.6</ele>
        <time>2026-05-14T08:12:16.999Z</time>
      </trkpt>
      <trkpt lat="44.1863" lon="5.29675">
        <ele>1039.7</ele>
        <time>2026-05-14T08:12:17.999Z</time>
      </trkpt>
      <trkpt lat="44.18631" lon="5.29675">
        <ele>1039.8</ele>
        <time>2026-05-14T08:12:18.999Z</time>
      </trkpt>
      <trkpt lat="44.18632" lon="5.29676">
        <ele>1040.1</ele>
        <time>2026-05-14T08:12:19.999Z</time>
      </trkpt>
      <trkpt lat="44.18633" lon="5.29676">
        <ele>1040.5</ele>
        <time>2026-05-14T08:12:20.999Z</time>
      </trkpt>
      <trkpt lat="44.18634" lon="5.29677">
        <ele>1040.6</ele>
        <time>2026-05-14T08:12:21.999Z</time>
      </trkpt>
      <trkpt lat="44.18635" lon="5.29678">
        <ele>1040.8</ele>
        <time>2026-05-14T08:12:23.999Z</time>
      </trkpt>
      <trkpt lat="44.18637" lon="5.29677">
        <ele>1040.2</ele>
        <time>2026-05-14T08:12:24.999Z</time>
      </trkpt>
      <trkpt lat="44.18638" lon="5.29677">
        <ele>1039.4</ele>
        <time>2026-05-14T08:12:25.999Z</time>
      </trkpt>
      <trkpt lat="44.18639" lon="5.29677">
        <ele>1039.2</ele>
        <time>2026-05-14T08:12:26.999Z</time>
      </trkpt>
      <trkpt lat="44.1864" lon="5.29678">
        <ele>1038.5</ele>
        <time>2026-05-14T08:12:27.999Z</time>
      </trkpt>
      <trkpt lat="44.18641" lon="5.29679">
        <ele>1038.3</ele>
        <time>2026-05-14T08:12:28.999Z</time>
      </trkpt>
      <trkpt lat="44.18643" lon="5.29679">
        <ele>1038.3</ele>
        <time>2026-05-14T08:12:29.999Z</time>
      </trkpt>
      <trkpt lat="44.18643" lon="5.2968">
        <ele>1038.4</ele>
        <time>2026-05-14T08:12:30.999Z</time>
      </trkpt>
      <trkpt lat="44.18644" lon="5.2968">
        <ele>1038.2</ele>
        <time>2026-05-14T08:12:31.999Z</time>
      </trkpt>
      <trkpt lat="44.18645" lon="5.2968">
        <ele>1037.8</ele>
        <time>2026-05-14T08:12:32.999Z</time>
      </trkpt>
      <trkpt lat="44.18645" lon="5.29681">
        <ele>1038</ele>
        <time>2026-05-14T08:12:33.999Z</time>
      </trkpt>
      <trkpt lat="44.18647" lon="5.29683">
        <ele>1038.4</ele>
        <time>2026-05-14T08:12:34.999Z</time>
      </trkpt>
      <trkpt lat="44.18648" lon="5.29684">
        <ele>1038.4</ele>
        <time>2026-05-14T08:12:35.999Z</time>
      </trkpt>
      <trkpt lat="44.18649" lon="5.29686">
        <ele>1038.5</ele>
        <time>2026-05-14T08:12:36.999Z</time>
      </trkpt>
      <trkpt lat="44.1865" lon="5.29688">
        <ele>1039.2</ele>
        <time>2026-05-14T08:12:37.999Z</time>
      </trkpt>
      <trkpt lat="44.18651" lon="5.29689">
        <ele>1039.6</ele>
        <time>2026-05-14T08:12:38.999Z</time>
      </trkpt>
      <trkpt lat="44.18651" lon="5.2969">
        <ele>1040.1</ele>
        <time>2026-05-14T08:12:39.999Z</time>
      </trkpt>
      <trkpt lat="44.18652" lon="5.29691">
        <ele>1040.4</ele>
        <time>2026-05-14T08:12:40.999Z</time>
      </trkpt>
      <trkpt lat="44.18654" lon="5.29692">
        <ele>1041.6</ele>
        <time>2026-05-14T08:12:41.999Z</time>
      </trkpt>
      <trkpt lat="44.18655" lon="5.29692">
        <ele>1041.7</ele>
        <time>2026-05-14T08:12:42.999Z</time>
      </trkpt>
      <trkpt lat="44.18656" lon="5.29692">
        <ele>1041.3</ele>
        <time>2026-05-14T08:12:43.999Z</time>
      </trkpt>
      <trkpt lat="44.18657" lon="5.29693">
        <ele>1040.9</ele>
        <time>2026-05-14T08:12:44.999Z</time>
      </trkpt>
      <trkpt lat="44.18658" lon="5.29693">
        <ele>1040.8</ele>
        <time>2026-05-14T08:12:45.999Z</time>
      </trkpt>
      <trkpt lat="44.18658" lon="5.29695">
        <ele>1041.4</ele>
        <time>2026-05-14T08:12:46.999Z</time>
      </trkpt>
      <trkpt lat="44.18659" lon="5.29695">
        <ele>1041.4</ele>
        <time>2026-05-14T08:12:47.999Z</time>
      </trkpt>
      <trkpt lat="44.1866" lon="5.29696">
        <ele>1042.2</ele>
        <time>2026-05-14T08:12:48.999Z</time>
      </trkpt>
      <trkpt lat="44.18661" lon="5.29697">
        <ele>1042.5</ele>
        <time>2026-05-14T08:12:49.999Z</time>
      </trkpt>
      <trkpt lat="44.18662" lon="5.29697">
        <ele>1042.2</ele>
        <time>2026-05-14T08:12:50.999Z</time>
      </trkpt>
      <trkpt lat="44.18663" lon="5.29698">
        <ele>1042.7</ele>
        <time>2026-05-14T08:12:51.999Z</time>
      </trkpt>
      <trkpt lat="44.18664" lon="5.29699">
        <ele>1042.7</ele>
        <time>2026-05-14T08:12:52.999Z</time>
      </trkpt>
      <trkpt lat="44.18666" lon="5.29701">
        <ele>1042.7</ele>
        <time>2026-05-14T08:12:53.999Z</time>
      </trkpt>
      <trkpt lat="44.18666" lon="5.29702">
        <ele>1042.5</ele>
        <time>2026-05-14T08:12:54.999Z</time>
      </trkpt>
      <trkpt lat="44.18668" lon="5.29703">
        <ele>1042.4</ele>
        <time>2026-05-14T08:12:55.999Z</time>
      </trkpt>
      <trkpt lat="44.18669" lon="5.29703">
        <ele>1042.1</ele>
        <time>2026-05-14T08:12:56.999Z</time>
      </trkpt>
      <trkpt lat="44.1867" lon="5.29704">
        <ele>1042.3</ele>
        <time>2026-05-14T08:12:57.999Z</time>
      </trkpt>
      <trkpt lat="44.18671" lon="5.29704">
        <ele>1042.4</ele>
        <time>2026-05-14T08:12:58.999Z</time>
      </trkpt>
      <trkpt lat="44.18672" lon="5.29704">
        <ele>1042.5</ele>
        <time>2026-05-14T08:12:59.999Z</time>
      </trkpt>
      <trkpt lat="44.18673" lon="5.29704">
        <ele>1042.3</ele>
        <time>2026-05-14T08:13:00.999Z</time>
      </trkpt>
      <trkpt lat="44.18674" lon="5.29704">
        <ele>1041.9</ele>
        <time>2026-05-14T08:13:01.999Z</time>
      </trkpt>
      <trkpt lat="44.18675" lon="5.29704">
        <ele>1042</ele>
        <time>2026-05-14T08:13:02.999Z</time>
      </trkpt>
      <trkpt lat="44.18676" lon="5.29704">
        <ele>1042</ele>
        <time>2026-05-14T08:13:03.999Z</time>
      </trkpt>
      <trkpt lat="44.18678" lon="5.29704">
        <ele>1041.6</ele>
        <time>2026-05-14T08:13:04.999Z</time>
      </trkpt>
      <trkpt lat="44.18678" lon="5.29704">
        <ele>1041.4</ele>
        <time>2026-05-14T08:13:05.999Z</time>
      </trkpt>
      <trkpt lat="44.18679" lon="5.29705">
        <ele>1041.6</ele>
        <time>2026-05-14T08:13:06.999Z</time>
      </trkpt>
      <trkpt lat="44.18681" lon="5.29705">
        <ele>1041.4</ele>
        <time>2026-05-14T08:13:07.999Z</time>
      </trkpt>
      <trkpt lat="44.18682" lon="5.29706">
        <ele>1040.7</ele>
        <time>2026-05-14T08:13:08.999Z</time>
      </trkpt>
      <trkpt lat="44.18683" lon="5.29707">
        <ele>1040.8</ele>
        <time>2026-05-14T08:13:09.999Z</time>
      </trkpt>
      <trkpt lat="44.18683" lon="5.29709">
        <ele>1040.5</ele>
        <time>2026-05-14T08:13:10.999Z</time>
      </trkpt>
      <trkpt lat="44.18685" lon="5.2971">
        <ele>1040.9</ele>
        <time>2026-05-14T08:13:11.999Z</time>
      </trkpt>
      <trkpt lat="44.18686" lon="5.2971">
        <ele>1041</ele>
        <time>2026-05-14T08:13:12.999Z</time>
      </trkpt>
      <trkpt lat="44.18687" lon="5.2971">
        <ele>1041.2</ele>
        <time>2026-05-14T08:13:13.999Z</time>
      </trkpt>
      <trkpt lat="44.18687" lon="5.2971">
        <ele>1041.4</ele>
        <time>2026-05-14T08:13:14.999Z</time>
      </trkpt>
      <trkpt lat="44.18687" lon="5.29711">
        <ele>1041.6</ele>
        <time>2026-05-14T08:13:15.999Z</time>
      </trkpt>
      <trkpt lat="44.18688" lon="5.29712">
        <ele>1042.6</ele>
        <time>2026-05-14T08:13:16.999Z</time>
      </trkpt>
      <trkpt lat="44.18688" lon="5.29712">
        <ele>1042.6</ele>
        <time>2026-05-14T08:13:17.999Z</time>
      </trkpt>
      <trkpt lat="44.18689" lon="5.29713">
        <ele>1042.5</ele>
        <time>2026-05-14T08:13:18.999Z</time>
      </trkpt>
      <trkpt lat="44.1869" lon="5.29714">
        <ele>1042.7</ele>
        <time>2026-05-14T08:13:19.999Z</time>
      </trkpt>
      <trkpt lat="44.18691" lon="5.29715">
        <ele>1042.2</ele>
        <time>2026-05-14T08:13:20.999Z</time>
      </trkpt>
      <trkpt lat="44.18692" lon="5.29716">
        <ele>1041.8</ele>
        <time>2026-05-14T08:13:21.999Z</time>
      </trkpt>
      <trkpt lat="44.18693" lon="5.29716">
        <ele>1041.8</ele>
        <time>2026-05-14T08:13:22.999Z</time>
      </trkpt>
      <trkpt lat="44.18694" lon="5.29717">
        <ele>1041.7</ele>
        <time>2026-05-14T08:13:23.999Z</time>
      </trkpt>
      <trkpt lat="44.18695" lon="5.29718">
        <ele>1042.2</ele>
        <time>2026-05-14T08:13:24.999Z</time>
      </trkpt>
      <trkpt lat="44.18697" lon="5.2972">
        <ele>1043.7</ele>
        <time>2026-05-14T08:13:26.999Z</time>
      </trkpt>
      <trkpt lat="44.18698" lon="5.29721">
        <ele>1043.4</ele>
        <time>2026-05-14T08:13:27.999Z</time>
      </trkpt>
      <trkpt lat="44.18699" lon="5.29722">
        <ele>1043.3</ele>
        <time>2026-05-14T08:13:28.999Z</time>
      </trkpt>
      <trkpt lat="44.187" lon="5.29723">
        <ele>1043</ele>
        <time>2026-05-14T08:13:29.999Z</time>
      </trkpt>
      <trkpt lat="44.18701" lon="5.29723">
        <ele>1042.9</ele>
        <time>2026-05-14T08:13:30.999Z</time>
      </trkpt>
      <trkpt lat="44.18703" lon="5.29726">
        <ele>1044.8</ele>
        <time>2026-05-14T08:13:31.999Z</time>
      </trkpt>
      <trkpt lat="44.18704" lon="5.29728">
        <ele>1046.4</ele>
        <time>2026-05-14T08:13:32.999Z</time>
      </trkpt>
      <trkpt lat="44.18704" lon="5.29728">
        <ele>1046.7</ele>
        <time>2026-05-14T08:13:33.999Z</time>
      </trkpt>
      <trkpt lat="44.18704" lon="5.29728">
        <ele>1046.8</ele>
        <time>2026-05-14T08:13:34.999Z</time>
      </trkpt>
      <trkpt lat="44.18705" lon="5.29729">
        <ele>1046.8</ele>
        <time>2026-05-14T08:13:35.999Z</time>
      </trkpt>
      <trkpt lat="44.18705" lon="5.2973">
        <ele>1047</ele>
        <time>2026-05-14T08:13:36.999Z</time>
      </trkpt>
      <trkpt lat="44.18706" lon="5.29732">
        <ele>1047.4</ele>
        <time>2026-05-14T08:13:37.999Z</time>
      </trkpt>
      <trkpt lat="44.18707" lon="5.29733">
        <ele>1048</ele>
        <time>2026-05-14T08:13:38.999Z</time>
      </trkpt>
      <trkpt lat="44.18708" lon="5.29734">
        <ele>1048.5</ele>
        <time>2026-05-14T08:13:39.999Z</time>
      </trkpt>
      <trkpt lat="44.18709" lon="5.29735">
        <ele>1048.1</ele>
        <time>2026-05-14T08:13:40.999Z</time>
      </trkpt>
      <trkpt lat="44.1871" lon="5.29736">
        <ele>1047.8</ele>
        <time>2026-05-14T08:13:41.999Z</time>
      </trkpt>
      <trkpt lat="44.1871" lon="5.29737">
        <ele>1046.8</ele>
        <time>2026-05-14T08:13:42.999Z</time>
      </trkpt>
      <trkpt lat="44.18711" lon="5.29739">
        <ele>1047.3</ele>
        <time>2026-05-14T08:13:43.999Z</time>
      </trkpt>
      <trkpt lat="44.18712" lon="5.2974">
        <ele>1047.4</ele>
        <time>2026-05-14T08:13:44.999Z</time>
      </trkpt>
      <trkpt lat="44.18712" lon="5.2974">
        <ele>1047.4</ele>
        <time>2026-05-14T08:13:45.999Z</time>
      </trkpt>
      <trkpt lat="44.18713" lon="5.2974">
        <ele>1047.3</ele>
        <time>2026-05-14T08:13:46.999Z</time>
      </trkpt>
      <trkpt lat="44.18714" lon="5.29741">
        <ele>1047.9</ele>
        <time>2026-05-14T08:13:47.999Z</time>
      </trkpt>
      <trkpt lat="44.18714" lon="5.29742">
        <ele>1048.5</ele>
        <time>2026-05-14T08:13:48.999Z</time>
      </trkpt>
      <trkpt lat="44.18715" lon="5.29744">
        <ele>1049.4</ele>
        <time>2026-05-14T08:13:49.999Z</time>
      </trkpt>
      <trkpt lat="44.18716" lon="5.29745">
        <ele>1049.5</ele>
        <time>2026-05-14T08:13:50.999Z</time>
      </trkpt>
      <trkpt lat="44.18717" lon="5.29746">
        <ele>1050</ele>
        <time>2026-05-14T08:13:51.999Z</time>
      </trkpt>
      <trkpt lat="44.18718" lon="5.29748">
        <ele>1050.2</ele>
        <time>2026-05-14T08:13:52.999Z</time>
      </trkpt>
      <trkpt lat="44.18718" lon="5.29749">
        <ele>1051.1</ele>
        <time>2026-05-14T08:13:53.999Z</time>
      </trkpt>
      <trkpt lat="44.1872" lon="5.2975">
        <ele>1052.1</ele>
        <time>2026-05-14T08:13:54.999Z</time>
      </trkpt>
      <trkpt lat="44.18721" lon="5.29751">
        <ele>1052.3</ele>
        <time>2026-05-14T08:13:55.999Z</time>
      </trkpt>
      <trkpt lat="44.18722" lon="5.29752">
        <ele>1052.6</ele>
        <time>2026-05-14T08:13:56.999Z</time>
      </trkpt>
      <trkpt lat="44.18723" lon="5.29754">
        <ele>1053.1</ele>
        <time>2026-05-14T08:13:57.999Z</time>
      </trkpt>
      <trkpt lat="44.18724" lon="5.29754">
        <ele>1053.2</ele>
        <time>2026-05-14T08:13:58.999Z</time>
      </trkpt>
      <trkpt lat="44.18725" lon="5.29755">
        <ele>1053.4</ele>
        <time>2026-05-14T08:13:59.999Z</time>
      </trkpt>
      <trkpt lat="44.18726" lon="5.29756">
        <ele>1053.7</ele>
        <time>2026-05-14T08:14:00.999Z</time>
      </trkpt>
      <trkpt lat="44.18727" lon="5.29757">
        <ele>1054</ele>
        <time>2026-05-14T08:14:01.999Z</time>
      </trkpt>
      <trkpt lat="44.18727" lon="5.29759">
        <ele>1054.8</ele>
        <time>2026-05-14T08:14:02.999Z</time>
      </trkpt>
      <trkpt lat="44.18728" lon="5.2976">
        <ele>1055.3</ele>
        <time>2026-05-14T08:14:03.999Z</time>
      </trkpt>
      <trkpt lat="44.18729" lon="5.29762">
        <ele>1055.5</ele>
        <time>2026-05-14T08:14:04.999Z</time>
      </trkpt>
      <trkpt lat="44.1873" lon="5.29763">
        <ele>1055.6</ele>
        <time>2026-05-14T08:14:05.999Z</time>
      </trkpt>
      <trkpt lat="44.18731" lon="5.29764">
        <ele>1055.7</ele>
        <time>2026-05-14T08:14:06.999Z</time>
      </trkpt>
      <trkpt lat="44.18731" lon="5.29764">
        <ele>1056.1</ele>
        <time>2026-05-14T08:14:07.999Z</time>
      </trkpt>
      <trkpt lat="44.18732" lon="5.29765">
        <ele>1056.7</ele>
        <time>2026-05-14T08:14:08.999Z</time>
      </trkpt>
      <trkpt lat="44.18732" lon="5.29766">
        <ele>1057.2</ele>
        <time>2026-05-14T08:14:09.999Z</time>
      </trkpt>
      <trkpt lat="44.18733" lon="5.29768">
        <ele>1057.5</ele>
        <time>2026-05-14T08:14:10.999Z</time>
      </trkpt>
      <trkpt lat="44.18733" lon="5.29769">
        <ele>1057.7</ele>
        <time>2026-05-14T08:14:11.999Z</time>
      </trkpt>
      <trkpt lat="44.18734" lon="5.2977">
        <ele>1057.6</ele>
        <time>2026-05-14T08:14:12.999Z</time>
      </trkpt>
      <trkpt lat="44.18735" lon="5.29771">
        <ele>1058</ele>
        <time>2026-05-14T08:14:13.999Z</time>
      </trkpt>
      <trkpt lat="44.18735" lon="5.29772">
        <ele>1057.9</ele>
        <time>2026-05-14T08:14:14.999Z</time>
      </trkpt>
      <trkpt lat="44.18735" lon="5.29772">
        <ele>1057.9</ele>
        <time>2026-05-14T08:14:15.999Z</time>
      </trkpt>
      <trkpt lat="44.18736" lon="5.29773">
        <ele>1058.1</ele>
        <time>2026-05-14T08:14:16.999Z</time>
      </trkpt>
      <trkpt lat="44.18736" lon="5.29774">
        <ele>1058</ele>
        <time>2026-05-14T08:14:17.999Z</time>
      </trkpt>
      <trkpt lat="44.18737" lon="5.29776">
        <ele>1058</ele>
        <time>2026-05-14T08:14:18.999Z</time>
      </trkpt>
      <trkpt lat="44.18738" lon="5.29776">
        <ele>1058.2</ele>
        <time>2026-05-14T08:14:19.999Z</time>
      </trkpt>
      <trkpt lat="44.18739" lon="5.29777">
        <ele>1057.8</ele>
        <time>2026-05-14T08:14:20.999Z</time>
      </trkpt>
      <trkpt lat="44.18739" lon="5.29777">
        <ele>1057.4</ele>
        <time>2026-05-14T08:14:21.999Z</time>
      </trkpt>
      <trkpt lat="44.1874" lon="5.29777">
        <ele>1057.3</ele>
        <time>2026-05-14T08:14:22.999Z</time>
      </trkpt>
      <trkpt lat="44.18741" lon="5.29777">
        <ele>1057.2</ele>
        <time>2026-05-14T08:14:23.999Z</time>
      </trkpt>
      <trkpt lat="44.18742" lon="5.29777">
        <ele>1056.9</ele>
        <time>2026-05-14T08:14:24.999Z</time>
      </trkpt>
      <trkpt lat="44.18742" lon="5.29777">
        <ele>1056.4</ele>
        <time>2026-05-14T08:14:25.999Z</time>
      </trkpt>
      <trkpt lat="44.18744" lon="5.29777">
        <ele>1056.1</ele>
        <time>2026-05-14T08:14:26.999Z</time>
      </trkpt>
      <trkpt lat="44.18745" lon="5.29777">
        <ele>1055.8</ele>
        <time>2026-05-14T08:14:27.999Z</time>
      </trkpt>
      <trkpt lat="44.18746" lon="5.29777">
        <ele>1055.6</ele>
        <time>2026-05-14T08:14:28.999Z</time>
      </trkpt>
      <trkpt lat="44.18749" lon="5.29779">
        <ele>1055.9</ele>
        <time>2026-05-14T08:14:30.999Z</time>
      </trkpt>
      <trkpt lat="44.18749" lon="5.29779">
        <ele>1055.6</ele>
        <time>2026-05-14T08:14:31.999Z</time>
      </trkpt>
      <trkpt lat="44.18751" lon="5.2978">
        <ele>1054.6</ele>
        <time>2026-05-14T08:14:32.999Z</time>
      </trkpt>
      <trkpt lat="44.18752" lon="5.2978">
        <ele>1054.5</ele>
        <time>2026-05-14T08:14:33.999Z</time>
      </trkpt>
      <trkpt lat="44.18753" lon="5.29781">
        <ele>1054.5</ele>
        <time>2026-05-14T08:14:34.999Z</time>
      </trkpt>
      <trkpt lat="44.18754" lon="5.29781">
        <ele>1054.1</ele>
        <time>2026-05-14T08:14:35.999Z</time>
      </trkpt>
      <trkpt lat="44.18754" lon="5.2978">
        <ele>1054.3</ele>
        <time>2026-05-14T08:14:36.999Z</time>
      </trkpt>
      <trkpt lat="44.18755" lon="5.2978">
        <ele>1054.5</ele>
        <time>2026-05-14T08:14:37.999Z</time>
      </trkpt>
      <trkpt lat="44.18756" lon="5.2978">
        <ele>1054.4</ele>
        <time>2026-05-14T08:14:38.999Z</time>
      </trkpt>
      <trkpt lat="44.18756" lon="5.29779">
        <ele>1053.9</ele>
        <time>2026-05-14T08:14:39.999Z</time>
      </trkpt>
      <trkpt lat="44.18757" lon="5.29777">
        <ele>1053.2</ele>
        <time>2026-05-14T08:14:40.999Z</time>
      </trkpt>
      <trkpt lat="44.18758" lon="5.29775">
        <ele>1052.9</ele>
        <time>2026-05-14T08:14:42.999Z</time>
      </trkpt>
      <trkpt lat="44.18758" lon="5.29775">
        <ele>1053</ele>
        <time>2026-05-14T08:14:43.999Z</time>
      </trkpt>
      <trkpt lat="44.18758" lon="5.29774">
        <ele>1053.5</ele>
        <time>2026-05-14T08:14:44.999Z</time>
      </trkpt>
      <trkpt lat="44.18759" lon="5.29773">
        <ele>1053.7</ele>
        <time>2026-05-14T08:14:45.999Z</time>
      </trkpt>
      <trkpt lat="44.18759" lon="5.29772">
        <ele>1053.4</ele>
        <time>2026-05-14T08:14:46.999Z</time>
      </trkpt>
      <trkpt lat="44.18759" lon="5.29771">
        <ele>1053.1</ele>
        <time>2026-05-14T08:14:47.999Z</time>
      </trkpt>
      <trkpt lat="44.18758" lon="5.2977">
        <ele>1053.3</ele>
        <time>2026-05-14T08:14:48.999Z</time>
      </trkpt>
      <trkpt lat="44.18758" lon="5.29769">
        <ele>1053.7</ele>
        <time>2026-05-14T08:14:49.999Z</time>
      </trkpt>
      <trkpt lat="44.18758" lon="5.29768">
        <ele>1054.1</ele>
        <time>2026-05-14T08:14:50.999Z</time>
      </trkpt>
      <trkpt lat="44.18758" lon="5.29768">
        <ele>1053.9</ele>
        <time>2026-05-14T08:14:51.999Z</time>
      </trkpt>
      <trkpt lat="44.18758" lon="5.29767">
        <ele>1054</ele>
        <time>2026-05-14T08:14:52.999Z</time>
      </trkpt>
      <trkpt lat="44.18758" lon="5.29765">
        <ele>1053.9</ele>
        <time>2026-05-14T08:14:53.999Z</time>
      </trkpt>
      <trkpt lat="44.18759" lon="5.29763">
        <ele>1053.9</ele>
        <time>2026-05-14T08:14:55.999Z</time>
      </trkpt>
      <trkpt lat="44.18759" lon="5.29762">
        <ele>1053.9</ele>
        <time>2026-05-14T08:14:56.999Z</time>
      </trkpt>
      <trkpt lat="44.18759" lon="5.29761">
        <ele>1054.3</ele>
        <time>2026-05-14T08:14:57.999Z</time>
      </trkpt>
      <trkpt lat="44.18759" lon="5.29759">
        <ele>1054.2</ele>
        <time>2026-05-14T08:14:58.999Z</time>
      </trkpt>
      <trkpt lat="44.18759" lon="5.29758">
        <ele>1054.4</ele>
        <time>2026-05-14T08:14:59.999Z</time>
      </trkpt>
      <trkpt lat="44.18759" lon="5.29756">
        <ele>1054.8</ele>
        <time>2026-05-14T08:15:00.999Z</time>
      </trkpt>
      <trkpt lat="44.18759" lon="5.29754">
        <ele>1055.2</ele>
        <time>2026-05-14T08:15:01.999Z</time>
      </trkpt>
      <trkpt lat="44.18759" lon="5.29754">
        <ele>1054.7</ele>
        <time>2026-05-14T08:15:03.999Z</time>
      </trkpt>
      <trkpt lat="44.1876" lon="5.29753">
        <ele>1054.3</ele>
        <time>2026-05-14T08:15:04.999Z</time>
      </trkpt>
      <trkpt lat="44.1876" lon="5.29752">
        <ele>1054.5</ele>
        <time>2026-05-14T08:15:05.999Z</time>
      </trkpt>
      <trkpt lat="44.1876" lon="5.29751">
        <ele>1055.3</ele>
        <time>2026-05-14T08:15:06.999Z</time>
      </trkpt>
      <trkpt lat="44.18761" lon="5.29751">
        <ele>1055.3</ele>
        <time>2026-05-14T08:15:07.999Z</time>
      </trkpt>
      <trkpt lat="44.18761" lon="5.2975">
        <ele>1055.2</ele>
        <time>2026-05-14T08:15:08.999Z</time>
      </trkpt>
      <trkpt lat="44.18761" lon="5.29748">
        <ele>1055.6</ele>
        <time>2026-05-14T08:15:09.999Z</time>
      </trkpt>
      <trkpt lat="44.18763" lon="5.29744">
        <ele>1057.1</ele>
        <time>2026-05-14T08:15:11.999Z</time>
      </trkpt>
      <trkpt lat="44.18763" lon="5.29744">
        <ele>1057.7</ele>
        <time>2026-05-14T08:15:12.999Z</time>
      </trkpt>
      <trkpt lat="44.18764" lon="5.29743">
        <ele>1058.3</ele>
        <time>2026-05-14T08:15:13.999Z</time>
      </trkpt>
      <trkpt lat="44.18764" lon="5.29741">
        <ele>1058</ele>
        <time>2026-05-14T08:15:14.999Z</time>
      </trkpt>
      <trkpt lat="44.18764" lon="5.2974">
        <ele>1057.9</ele>
        <time>2026-05-14T08:15:15.999Z</time>
      </trkpt>
      <trkpt lat="44.18765" lon="5.29739">
        <ele>1057.6</ele>
        <time>2026-05-14T08:15:16.999Z</time>
      </trkpt>
      <trkpt lat="44.18765" lon="5.29736">
        <ele>1057.3</ele>
        <time>2026-05-14T08:15:17.999Z</time>
      </trkpt>
      <trkpt lat="44.18764" lon="5.29732">
        <ele>1056.9</ele>
        <time>2026-05-14T08:15:18.999Z</time>
      </trkpt>
      <trkpt lat="44.18764" lon="5.2973">
        <ele>1057.2</ele>
        <time>2026-05-14T08:15:19.999Z</time>
      </trkpt>
      <trkpt lat="44.18764" lon="5.29728">
        <ele>1055.9</ele>
        <time>2026-05-14T08:15:20.999Z</time>
      </trkpt>
      <trkpt lat="44.18764" lon="5.29726">
        <ele>1055.6</ele>
        <time>2026-05-14T08:15:21.999Z</time>
      </trkpt>
      <trkpt lat="44.18764" lon="5.29725">
        <ele>1055.2</ele>
        <time>2026-05-14T08:15:22.999Z</time>
      </trkpt>
      <trkpt lat="44.18764" lon="5.29723">
        <ele>1055</ele>
        <time>2026-05-14T08:15:23.999Z</time>
      </trkpt>
      <trkpt lat="44.18764" lon="5.29722">
        <ele>1055.1</ele>
        <time>2026-05-14T08:15:24.999Z</time>
      </trkpt>
      <trkpt lat="44.18764" lon="5.2972">
        <ele>1056.1</ele>
        <time>2026-05-14T08:15:25.999Z</time>
      </trkpt>
      <trkpt lat="44.18764" lon="5.29719">
        <ele>1057.1</ele>
        <time>2026-05-14T08:15:26.999Z</time>
      </trkpt>
      <trkpt lat="44.18764" lon="5.29718">
        <ele>1057.7</ele>
        <time>2026-05-14T08:15:27.999Z</time>
      </trkpt>
      <trkpt lat="44.18764" lon="5.29716">
        <ele>1057.9</ele>
        <time>2026-05-14T08:15:28.999Z</time>
      </trkpt>
      <trkpt lat="44.18764" lon="5.29715">
        <ele>1060.1</ele>
        <time>2026-05-14T08:15:29.999Z</time>
      </trkpt>
      <trkpt lat="44.18764" lon="5.29712">
        <ele>1061.1</ele>
        <time>2026-05-14T08:15:30.999Z</time>
      </trkpt>
      <trkpt lat="44.18764" lon="5.2971">
        <ele>1062.1</ele>
        <time>2026-05-14T08:15:31.999Z</time>
      </trkpt>
      <trkpt lat="44.18765" lon="5.29709">
        <ele>1062.5</ele>
        <time>2026-05-14T08:15:32.999Z</time>
      </trkpt>
      <trkpt lat="44.18766" lon="5.29708">
        <ele>1062.5</ele>
        <time>2026-05-14T08:15:34.999Z</time>
      </trkpt>
      <trkpt lat="44.18766" lon="5.29707">
        <ele>1062.8</ele>
        <time>2026-05-14T08:15:35.999Z</time>
      </trkpt>
      <trkpt lat="44.18766" lon="5.29706">
        <ele>1063.9</ele>
        <time>2026-05-14T08:15:36.999Z</time>
      </trkpt>
      <trkpt lat="44.18766" lon="5.29705">
        <ele>1064</ele>
        <time>2026-05-14T08:15:37.999Z</time>
      </trkpt>
      <trkpt lat="44.18767" lon="5.29704">
        <ele>1064.1</ele>
        <time>2026-05-14T08:15:38.999Z</time>
      </trkpt>
      <trkpt lat="44.18766" lon="5.29702">
        <ele>1064.3</ele>
        <time>2026-05-14T08:15:39.999Z</time>
      </trkpt>
      <trkpt lat="44.18766" lon="5.29701">
        <ele>1064.6</ele>
        <time>2026-05-14T08:15:40.999Z</time>
      </trkpt>
      <trkpt lat="44.18766" lon="5.29699">
        <ele>1064.8</ele>
        <time>2026-05-14T08:15:42.999Z</time>
      </trkpt>
      <trkpt lat="44.18766" lon="5.29697">
        <ele>1064.7</ele>
        <time>2026-05-14T08:15:43.999Z</time>
      </trkpt>
      <trkpt lat="44.18766" lon="5.29695">
        <ele>1064.9</ele>
        <time>2026-05-14T08:15:44.999Z</time>
      </trkpt>
      <trkpt lat="44.18766" lon="5.29694">
        <ele>1064.8</ele>
        <time>2026-05-14T08:15:45.999Z</time>
      </trkpt>
      <trkpt lat="44.18765" lon="5.29693">
        <ele>1064.4</ele>
        <time>2026-05-14T08:15:46.999Z</time>
      </trkpt>
      <trkpt lat="44.18765" lon="5.29692">
        <ele>1064.6</ele>
        <time>2026-05-14T08:15:47.999Z</time>
      </trkpt>
      <trkpt lat="44.18764" lon="5.29691">
        <ele>1064.8</ele>
        <time>2026-05-14T08:15:48.999Z</time>
      </trkpt>
      <trkpt lat="44.18764" lon="5.29689">
        <ele>1065.3</ele>
        <time>2026-05-14T08:15:49.999Z</time>
      </trkpt>
      <trkpt lat="44.18763" lon="5.29688">
        <ele>1064.8</ele>
        <time>2026-05-14T08:15:50.999Z</time>
      </trkpt>
      <trkpt lat="44.18763" lon="5.29688">
        <ele>1064.8</ele>
        <time>2026-05-14T08:15:51.999Z</time>
      </trkpt>
      <trkpt lat="44.18762" lon="5.29687">
        <ele>1064.3</ele>
        <time>2026-05-14T08:15:52.999Z</time>
      </trkpt>
      <trkpt lat="44.18762" lon="5.29686">
        <ele>1064.1</ele>
        <time>2026-05-14T08:15:53.999Z</time>
      </trkpt>
      <trkpt lat="44.18762" lon="5.29686">
        <ele>1064.5</ele>
        <time>2026-05-14T08:15:54.999Z</time>
      </trkpt>
      <trkpt lat="44.18762" lon="5.29685">
        <ele>1064.7</ele>
        <time>2026-05-14T08:15:55.999Z</time>
      </trkpt>
      <trkpt lat="44.18762" lon="5.29685">
        <ele>1064.8</ele>
        <time>2026-05-14T08:15:56.999Z</time>
      </trkpt>
      <trkpt lat="44.18763" lon="5.29685">
        <ele>1065.6</ele>
        <time>2026-05-14T08:15:57.999Z</time>
      </trkpt>
      <trkpt lat="44.18763" lon="5.29684">
        <ele>1065.7</ele>
        <time>2026-05-14T08:15:58.999Z</time>
      </trkpt>
      <trkpt lat="44.18764" lon="5.29683">
        <ele>1066.2</ele>
        <time>2026-05-14T08:15:59.999Z</time>
      </trkpt>
      <trkpt lat="44.18764" lon="5.2968">
        <ele>1066.5</ele>
        <time>2026-05-14T08:16:00.999Z</time>
      </trkpt>
      <trkpt lat="44.18763" lon="5.29677">
        <ele>1067.1</ele>
        <time>2026-05-14T08:16:01.999Z</time>
      </trkpt>
      <trkpt lat="44.18763" lon="5.29674">
        <ele>1067</ele>
        <time>2026-05-14T08:16:02.999Z</time>
      </trkpt>
      <trkpt lat="44.18763" lon="5.2967">
        <ele>1066.3</ele>
        <time>2026-05-14T08:16:03.999Z</time>
      </trkpt>
      <trkpt lat="44.18764" lon="5.29667">
        <ele>1065.7</ele>
        <time>2026-05-14T08:16:04.999Z</time>
      </trkpt>
      <trkpt lat="44.18765" lon="5.29665">
        <ele>1065.6</ele>
        <time>2026-05-14T08:16:05.999Z</time>
      </trkpt>
      <trkpt lat="44.18765" lon="5.29663">
        <ele>1065.2</ele>
        <time>2026-05-14T08:16:06.999Z</time>
      </trkpt>
      <trkpt lat="44.18765" lon="5.29663">
        <ele>1067.7</ele>
        <time>2026-05-14T08:16:07.999Z</time>
      </trkpt>
      <trkpt lat="44.18766" lon="5.2966">
        <ele>1068.4</ele>
        <time>2026-05-14T08:16:08.999Z</time>
      </trkpt>
      <trkpt lat="44.18765" lon="5.2966">
        <ele>1068.5</ele>
        <time>2026-05-14T08:16:09.999Z</time>
      </trkpt>
      <trkpt lat="44.18765" lon="5.29659">
        <ele>1067.7</ele>
        <time>2026-05-14T08:16:10.999Z</time>
      </trkpt>
      <trkpt lat="44.18765" lon="5.29657">
        <ele>1066.6</ele>
        <time>2026-05-14T08:16:11.999Z</time>
      </trkpt>
      <trkpt lat="44.18765" lon="5.29656">
        <ele>1066.1</ele>
        <time>2026-05-14T08:16:12.999Z</time>
      </trkpt>
      <trkpt lat="44.18766" lon="5.29655">
        <ele>1065.8</ele>
        <time>2026-05-14T08:16:13.999Z</time>
      </trkpt>
      <trkpt lat="44.18766" lon="5.29654">
        <ele>1065.8</ele>
        <time>2026-05-14T08:16:14.999Z</time>
      </trkpt>
      <trkpt lat="44.18765" lon="5.29654">
        <ele>1065.6</ele>
        <time>2026-05-14T08:16:15.999Z</time>
      </trkpt>
      <trkpt lat="44.18765" lon="5.29653">
        <ele>1065.1</ele>
        <time>2026-05-14T08:16:16.999Z</time>
      </trkpt>
      <trkpt lat="44.18766" lon="5.29652">
        <ele>1064.4</ele>
        <time>2026-05-14T08:16:18.999Z</time>
      </trkpt>
      <trkpt lat="44.18766" lon="5.29651">
        <ele>1064.5</ele>
        <time>2026-05-14T08:16:19.999Z</time>
      </trkpt>
      <trkpt lat="44.18767" lon="5.2965">
        <ele>1064.9</ele>
        <time>2026-05-14T08:16:20.999Z</time>
      </trkpt>
      <trkpt lat="44.18767" lon="5.2965">
        <ele>1064.6</ele>
        <time>2026-05-14T08:16:21.999Z</time>
      </trkpt>
      <trkpt lat="44.18767" lon="5.29649">
        <ele>1064.7</ele>
        <time>2026-05-14T08:16:22.999Z</time>
      </trkpt>
      <trkpt lat="44.18767" lon="5.29648">
        <ele>1064.2</ele>
        <time>2026-05-14T08:16:23.999Z</time>
      </trkpt>
      <trkpt lat="44.18768" lon="5.29648">
        <ele>1064.4</ele>
        <time>2026-05-14T08:16:24.999Z</time>
      </trkpt>
      <trkpt lat="44.18768" lon="5.29647">
        <ele>1064.6</ele>
        <time>2026-05-14T08:16:25.999Z</time>
      </trkpt>
      <trkpt lat="44.18768" lon="5.29646">
        <ele>1064.9</ele>
        <time>2026-05-14T08:16:26.999Z</time>
      </trkpt>
      <trkpt lat="44.18768" lon="5.29647">
        <ele>1064.2</ele>
        <time>2026-05-14T08:16:27.999Z</time>
      </trkpt>
      <trkpt lat="44.18768" lon="5.29645">
        <ele>1064</ele>
        <time>2026-05-14T08:16:28.999Z</time>
      </trkpt>
      <trkpt lat="44.18769" lon="5.29643">
        <ele>1064</ele>
        <time>2026-05-14T08:16:29.999Z</time>
      </trkpt>
      <trkpt lat="44.1877" lon="5.29642">
        <ele>1064</ele>
        <time>2026-05-14T08:16:30.999Z</time>
      </trkpt>
      <trkpt lat="44.1877" lon="5.29643">
        <ele>1063.3</ele>
        <time>2026-05-14T08:16:31.999Z</time>
      </trkpt>
      <trkpt lat="44.1877" lon="5.29642">
        <ele>1063.2</ele>
        <time>2026-05-14T08:16:32.999Z</time>
      </trkpt>
      <trkpt lat="44.18771" lon="5.2964">
        <ele>1062.7</ele>
        <time>2026-05-14T08:16:33.999Z</time>
      </trkpt>
      <trkpt lat="44.18771" lon="5.2964">
        <ele>1061.4</ele>
        <time>2026-05-14T08:16:34.999Z</time>
      </trkpt>
      <trkpt lat="44.18773" lon="5.29641">
        <ele>1062.1</ele>
        <time>2026-05-14T08:16:35.999Z</time>
      </trkpt>
      <trkpt lat="44.18773" lon="5.2964">
        <ele>1061.8</ele>
        <time>2026-05-14T08:16:36.999Z</time>
      </trkpt>
      <trkpt lat="44.18774" lon="5.29639">
        <ele>1061.9</ele>
        <time>2026-05-14T08:16:37.999Z</time>
      </trkpt>
      <trkpt lat="44.18775" lon="5.29637">
        <ele>1061.7</ele>
        <time>2026-05-14T08:16:38.999Z</time>
      </trkpt>
      <trkpt lat="44.18776" lon="5.29636">
        <ele>1061.3</ele>
        <time>2026-05-14T08:16:39.999Z</time>
      </trkpt>
      <trkpt lat="44.18777" lon="5.29635">
        <ele>1061.1</ele>
        <time>2026-05-14T08:16:40.999Z</time>
      </trkpt>
      <trkpt lat="44.18778" lon="5.29633">
        <ele>1061.4</ele>
        <time>2026-05-14T08:16:41.999Z</time>
      </trkpt>
      <trkpt lat="44.18778" lon="5.29632">
        <ele>1061.3</ele>
        <time>2026-05-14T08:16:42.999Z</time>
      </trkpt>
      <trkpt lat="44.18779" lon="5.29631">
        <ele>1061.8</ele>
        <time>2026-05-14T08:16:43.999Z</time>
      </trkpt>
      <trkpt lat="44.1878" lon="5.2963">
        <ele>1061.3</ele>
        <time>2026-05-14T08:16:44.999Z</time>
      </trkpt>
      <trkpt lat="44.18783" lon="5.29631">
        <ele>1063.2</ele>
        <time>2026-05-14T08:16:45.999Z</time>
      </trkpt>
      <trkpt lat="44.18783" lon="5.2963">
        <ele>1063</ele>
        <time>2026-05-14T08:16:46.999Z</time>
      </trkpt>
      <trkpt lat="44.18783" lon="5.29631">
        <ele>1062.4</ele>
        <time>2026-05-14T08:16:47.999Z</time>
      </trkpt>
      <trkpt lat="44.18784" lon="5.2963">
        <ele>1062.3</ele>
        <time>2026-05-14T08:16:48.999Z</time>
      </trkpt>
      <trkpt lat="44.18785" lon="5.2963">
        <ele>1063.2</ele>
        <time>2026-05-14T08:16:49.999Z</time>
      </trkpt>
      <trkpt lat="44.18785" lon="5.2963">
        <ele>1063.3</ele>
        <time>2026-05-14T08:16:50.999Z</time>
      </trkpt>
      <trkpt lat="44.18785" lon="5.2963">
        <ele>1063.2</ele>
        <time>2026-05-14T08:16:51.999Z</time>
      </trkpt>
      <trkpt lat="44.18786" lon="5.29631">
        <ele>1063.5</ele>
        <time>2026-05-14T08:16:52.999Z</time>
      </trkpt>
      <trkpt lat="44.18786" lon="5.2963">
        <ele>1063</ele>
        <time>2026-05-14T08:16:53.999Z</time>
      </trkpt>
      <trkpt lat="44.18787" lon="5.29629">
        <ele>1062.7</ele>
        <time>2026-05-14T08:16:54.999Z</time>
      </trkpt>
      <trkpt lat="44.18788" lon="5.29628">
        <ele>1061.9</ele>
        <time>2026-05-14T08:16:55.999Z</time>
      </trkpt>
      <trkpt lat="44.18788" lon="5.29627">
        <ele>1061.7</ele>
        <time>2026-05-14T08:16:56.999Z</time>
      </trkpt>
      <trkpt lat="44.18789" lon="5.29626">
        <ele>1061.6</ele>
        <time>2026-05-14T08:16:57.999Z</time>
      </trkpt>
      <trkpt lat="44.18791" lon="5.29625">
        <ele>1061.9</ele>
        <time>2026-05-14T08:16:58.999Z</time>
      </trkpt>
      <trkpt lat="44.18792" lon="5.29623">
        <ele>1062.6</ele>
        <time>2026-05-14T08:16:59.999Z</time>
      </trkpt>
      <trkpt lat="44.18795" lon="5.29621">
        <ele>1064.6</ele>
        <time>2026-05-14T08:17:01.999Z</time>
      </trkpt>
      <trkpt lat="44.18796" lon="5.29619">
        <ele>1064.5</ele>
        <time>2026-05-14T08:17:02.999Z</time>
      </trkpt>
      <trkpt lat="44.18798" lon="5.29618">
        <ele>1064.2</ele>
        <time>2026-05-14T08:17:03.999Z</time>
      </trkpt>
      <trkpt lat="44.18799" lon="5.29617">
        <ele>1064.7</ele>
        <time>2026-05-14T08:17:04.999Z</time>
      </trkpt>
      <trkpt lat="44.18801" lon="5.29616">
        <ele>1064.6</ele>
        <time>2026-05-14T08:17:05.999Z</time>
      </trkpt>
      <trkpt lat="44.18801" lon="5.29615">
        <ele>1064.3</ele>
        <time>2026-05-14T08:17:06.999Z</time>
      </trkpt>
      <trkpt lat="44.18802" lon="5.29614">
        <ele>1064.1</ele>
        <time>2026-05-14T08:17:07.999Z</time>
      </trkpt>
      <trkpt lat="44.18803" lon="5.29613">
        <ele>1063.5</ele>
        <time>2026-05-14T08:17:08.999Z</time>
      </trkpt>
      <trkpt lat="44.18804" lon="5.29612">
        <ele>1063.6</ele>
        <time>2026-05-14T08:17:09.999Z</time>
      </trkpt>
      <trkpt lat="44.18805" lon="5.29612">
        <ele>1063.8</ele>
        <time>2026-05-14T08:17:10.999Z</time>
      </trkpt>
      <trkpt lat="44.18806" lon="5.29611">
        <ele>1063.9</ele>
        <time>2026-05-14T08:17:11.999Z</time>
      </trkpt>
      <trkpt lat="44.18807" lon="5.2961">
        <ele>1064</ele>
        <time>2026-05-14T08:17:12.999Z</time>
      </trkpt>
      <trkpt lat="44.18808" lon="5.2961">
        <ele>1064.2</ele>
        <time>2026-05-14T08:17:13.999Z</time>
      </trkpt>
      <trkpt lat="44.18808" lon="5.29609">
        <ele>1064.8</ele>
        <time>2026-05-14T08:17:14.999Z</time>
      </trkpt>
      <trkpt lat="44.18809" lon="5.29608">
        <ele>1065.2</ele>
        <time>2026-05-14T08:17:15.999Z</time>
      </trkpt>
      <trkpt lat="44.1881" lon="5.29608">
        <ele>1065.4</ele>
        <time>2026-05-14T08:17:16.999Z</time>
      </trkpt>
      <trkpt lat="44.18811" lon="5.29607">
        <ele>1065.5</ele>
        <time>2026-05-14T08:17:17.999Z</time>
      </trkpt>
      <trkpt lat="44.18812" lon="5.29606">
        <ele>1065.5</ele>
        <time>2026-05-14T08:17:18.999Z</time>
      </trkpt>
      <trkpt lat="44.18813" lon="5.29605">
        <ele>1065.7</ele>
        <time>2026-05-14T08:17:19.999Z</time>
      </trkpt>
      <trkpt lat="44.18814" lon="5.29604">
        <ele>1066.2</ele>
        <time>2026-05-14T08:17:20.999Z</time>
      </trkpt>
      <trkpt lat="44.18815" lon="5.29603">
        <ele>1066.9</ele>
        <time>2026-05-14T08:17:21.999Z</time>
      </trkpt>
      <trkpt lat="44.18815" lon="5.29602">
        <ele>1067.3</ele>
        <time>2026-05-14T08:17:22.999Z</time>
      </trkpt>
      <trkpt lat="44.18817" lon="5.29599">
        <ele>1069.3</ele>
        <time>2026-05-14T08:17:23.999Z</time>
      </trkpt>
      <trkpt lat="44.18818" lon="5.29597">
        <ele>1070.7</ele>
        <time>2026-05-14T08:17:24.999Z</time>
      </trkpt>
      <trkpt lat="44.18819" lon="5.29595">
        <ele>1072.3</ele>
        <time>2026-05-14T08:17:25.999Z</time>
      </trkpt>
      <trkpt lat="44.1882" lon="5.29594">
        <ele>1071.9</ele>
        <time>2026-05-14T08:17:26.999Z</time>
      </trkpt>
      <trkpt lat="44.18821" lon="5.29594">
        <ele>1072.9</ele>
        <time>2026-05-14T08:17:27.999Z</time>
      </trkpt>
      <trkpt lat="44.18822" lon="5.29594">
        <ele>1073.3</ele>
        <time>2026-05-14T08:17:28.999Z</time>
      </trkpt>
      <trkpt lat="44.18822" lon="5.29593">
        <ele>1073</ele>
        <time>2026-05-14T08:17:29.999Z</time>
      </trkpt>
      <trkpt lat="44.18821" lon="5.29593">
        <ele>1072.6</ele>
        <time>2026-05-14T08:17:30.999Z</time>
      </trkpt>
      <trkpt lat="44.18822" lon="5.29592">
        <ele>1072.9</ele>
        <time>2026-05-14T08:17:31.999Z</time>
      </trkpt>
      <trkpt lat="44.18822" lon="5.29591">
        <ele>1073.8</ele>
        <time>2026-05-14T08:17:32.999Z</time>
      </trkpt>
      <trkpt lat="44.18822" lon="5.2959">
        <ele>1074.4</ele>
        <time>2026-05-14T08:17:33.999Z</time>
      </trkpt>
      <trkpt lat="44.18822" lon="5.29588">
        <ele>1074.9</ele>
        <time>2026-05-14T08:17:34.999Z</time>
      </trkpt>
      <trkpt lat="44.18822" lon="5.29588">
        <ele>1075.6</ele>
        <time>2026-05-14T08:17:35.999Z</time>
      </trkpt>
      <trkpt lat="44.18823" lon="5.29587">
        <ele>1076</ele>
        <time>2026-05-14T08:17:36.999Z</time>
      </trkpt>
      <trkpt lat="44.18823" lon="5.29586">
        <ele>1076.8</ele>
        <time>2026-05-14T08:17:37.999Z</time>
      </trkpt>
      <trkpt lat="44.18823" lon="5.29585">
        <ele>1077.2</ele>
        <time>2026-05-14T08:17:38.999Z</time>
      </trkpt>
      <trkpt lat="44.18823" lon="5.29583">
        <ele>1078.2</ele>
        <time>2026-05-14T08:17:39.999Z</time>
      </trkpt>
      <trkpt lat="44.18823" lon="5.29583">
        <ele>1078.7</ele>
        <time>2026-05-14T08:17:40.999Z</time>
      </trkpt>
      <trkpt lat="44.18824" lon="5.29582">
        <ele>1078.9</ele>
        <time>2026-05-14T08:17:41.999Z</time>
      </trkpt>
      <trkpt lat="44.18824" lon="5.29581">
        <ele>1079.6</ele>
        <time>2026-05-14T08:17:42.999Z</time>
      </trkpt>
      <trkpt lat="44.18824" lon="5.29578">
        <ele>1080.3</ele>
        <time>2026-05-14T08:17:43.999Z</time>
      </trkpt>
      <trkpt lat="44.18824" lon="5.29577">
        <ele>1080.6</ele>
        <time>2026-05-14T08:17:44.999Z</time>
      </trkpt>
      <trkpt lat="44.18824" lon="5.29574">
        <ele>1081.2</ele>
        <time>2026-05-14T08:17:45.999Z</time>
      </trkpt>
      <trkpt lat="44.18823" lon="5.29573">
        <ele>1081.3</ele>
        <time>2026-05-14T08:17:46.999Z</time>
      </trkpt>
      <trkpt lat="44.18824" lon="5.29571">
        <ele>1081.5</ele>
        <time>2026-05-14T08:17:47.999Z</time>
      </trkpt>
      <trkpt lat="44.18824" lon="5.29569">
        <ele>1082.1</ele>
        <time>2026-05-14T08:17:48.999Z</time>
      </trkpt>
      <trkpt lat="44.18823" lon="5.29567">
        <ele>1082</ele>
        <time>2026-05-14T08:17:49.999Z</time>
      </trkpt>
      <trkpt lat="44.18823" lon="5.29565">
        <ele>1081.3</ele>
        <time>2026-05-14T08:17:50.999Z</time>
      </trkpt>
      <trkpt lat="44.18823" lon="5.29565">
        <ele>1081.8</ele>
        <time>2026-05-14T08:17:51.999Z</time>
      </trkpt>
      <trkpt lat="44.18823" lon="5.29563">
        <ele>1082.7</ele>
        <time>2026-05-14T08:17:52.999Z</time>
      </trkpt>
      <trkpt lat="44.18823" lon="5.29562">
        <ele>1082.7</ele>
        <time>2026-05-14T08:17:53.999Z</time>
      </trkpt>
      <trkpt lat="44.18823" lon="5.29561">
        <ele>1082.8</ele>
        <time>2026-05-14T08:17:54.999Z</time>
      </trkpt>
      <trkpt lat="44.18822" lon="5.2956">
        <ele>1082.6</ele>
        <time>2026-05-14T08:17:55.999Z</time>
      </trkpt>
      <trkpt lat="44.18822" lon="5.29559">
        <ele>1082.9</ele>
        <time>2026-05-14T08:17:56.999Z</time>
      </trkpt>
      <trkpt lat="44.18823" lon="5.29558">
        <ele>1083</ele>
        <time>2026-05-14T08:17:57.999Z</time>
      </trkpt>
      <trkpt lat="44.18823" lon="5.29557">
        <ele>1082.8</ele>
        <time>2026-05-14T08:17:58.999Z</time>
      </trkpt>
      <trkpt lat="44.18823" lon="5.29556">
        <ele>1082.5</ele>
        <time>2026-05-14T08:17:59.999Z</time>
      </trkpt>
      <trkpt lat="44.18823" lon="5.29554">
        <ele>1081.8</ele>
        <time>2026-05-14T08:18:00.999Z</time>
      </trkpt>
      <trkpt lat="44.18823" lon="5.29553">
        <ele>1081</ele>
        <time>2026-05-14T08:18:01.999Z</time>
      </trkpt>
      <trkpt lat="44.18823" lon="5.29551">
        <ele>1080.8</ele>
        <time>2026-05-14T08:18:02.999Z</time>
      </trkpt>
      <trkpt lat="44.18823" lon="5.29549">
        <ele>1080.6</ele>
        <time>2026-05-14T08:18:03.999Z</time>
      </trkpt>
      <trkpt lat="44.18823" lon="5.29547">
        <ele>1080.6</ele>
        <time>2026-05-14T08:18:04.999Z</time>
      </trkpt>
      <trkpt lat="44.18823" lon="5.29546">
        <ele>1080.5</ele>
        <time>2026-05-14T08:18:05.999Z</time>
      </trkpt>
      <trkpt lat="44.18823" lon="5.29544">
        <ele>1080.5</ele>
        <time>2026-05-14T08:18:06.999Z</time>
      </trkpt>
      <trkpt lat="44.18823" lon="5.29542">
        <ele>1080.5</ele>
        <time>2026-05-14T08:18:07.999Z</time>
      </trkpt>
      <trkpt lat="44.18822" lon="5.29541">
        <ele>1080.4</ele>
        <time>2026-05-14T08:18:08.999Z</time>
      </trkpt>
      <trkpt lat="44.18821" lon="5.29538">
        <ele>1080.2</ele>
        <time>2026-05-14T08:18:09.999Z</time>
      </trkpt>
      <trkpt lat="44.18821" lon="5.29536">
        <ele>1080.1</ele>
        <time>2026-05-14T08:18:10.999Z</time>
      </trkpt>
      <trkpt lat="44.18821" lon="5.29534">
        <ele>1080.6</ele>
        <time>2026-05-14T08:18:11.999Z</time>
      </trkpt>
      <trkpt lat="44.18822" lon="5.29532">
        <ele>1081.5</ele>
        <time>2026-05-14T08:18:12.999Z</time>
      </trkpt>
      <trkpt lat="44.18822" lon="5.29532">
        <ele>1081.6</ele>
        <time>2026-05-14T08:18:13.999Z</time>
      </trkpt>
      <trkpt lat="44.18822" lon="5.29532">
        <ele>1081.9</ele>
        <time>2026-05-14T08:18:14.999Z</time>
      </trkpt>
      <trkpt lat="44.18823" lon="5.2953">
        <ele>1082.9</ele>
        <time>2026-05-14T08:18:15.999Z</time>
      </trkpt>
      <trkpt lat="44.18823" lon="5.29529">
        <ele>1083.6</ele>
        <time>2026-05-14T08:18:16.999Z</time>
      </trkpt>
      <trkpt lat="44.18823" lon="5.29528">
        <ele>1083.6</ele>
        <time>2026-05-14T08:18:17.999Z</time>
      </trkpt>
      <trkpt lat="44.18822" lon="5.29526">
        <ele>1083.6</ele>
        <time>2026-05-14T08:18:18.999Z</time>
      </trkpt>
      <trkpt lat="44.18822" lon="5.29524">
        <ele>1084.2</ele>
        <time>2026-05-14T08:18:19.999Z</time>
      </trkpt>
      <trkpt lat="44.18822" lon="5.29523">
        <ele>1084.5</ele>
        <time>2026-05-14T08:18:20.999Z</time>
      </trkpt>
      <trkpt lat="44.18821" lon="5.29521">
        <ele>1085.2</ele>
        <time>2026-05-14T08:18:21.999Z</time>
      </trkpt>
      <trkpt lat="44.18821" lon="5.2952">
        <ele>1086</ele>
        <time>2026-05-14T08:18:22.999Z</time>
      </trkpt>
      <trkpt lat="44.18821" lon="5.29519">
        <ele>1086.4</ele>
        <time>2026-05-14T08:18:23.999Z</time>
      </trkpt>
      <trkpt lat="44.18821" lon="5.29518">
        <ele>1087</ele>
        <time>2026-05-14T08:18:24.999Z</time>
      </trkpt>
      <trkpt lat="44.18821" lon="5.29518">
        <ele>1088.5</ele>
        <time>2026-05-14T08:18:25.999Z</time>
      </trkpt>
      <trkpt lat="44.1882" lon="5.29518">
        <ele>1088.6</ele>
        <time>2026-05-14T08:18:26.999Z</time>
      </trkpt>
      <trkpt lat="44.18819" lon="5.29516">
        <ele>1089</ele>
        <time>2026-05-14T08:18:27.999Z</time>
      </trkpt>
      <trkpt lat="44.18819" lon="5.29514">
        <ele>1088.8</ele>
        <time>2026-05-14T08:18:28.999Z</time>
      </trkpt>
      <trkpt lat="44.1882" lon="5.29513">
        <ele>1089.7</ele>
        <time>2026-05-14T08:18:29.999Z</time>
      </trkpt>
      <trkpt lat="44.18821" lon="5.29512">
        <ele>1089.9</ele>
        <time>2026-05-14T08:18:30.999Z</time>
      </trkpt>
      <trkpt lat="44.18822" lon="5.29511">
        <ele>1090.2</ele>
        <time>2026-05-14T08:18:31.999Z</time>
      </trkpt>
      <trkpt lat="44.18822" lon="5.29509">
        <ele>1091.1</ele>
        <time>2026-05-14T08:18:32.999Z</time>
      </trkpt>
      <trkpt lat="44.18822" lon="5.29508">
        <ele>1091.6</ele>
        <time>2026-05-14T08:18:33.999Z</time>
      </trkpt>
      <trkpt lat="44.18823" lon="5.29507">
        <ele>1092.7</ele>
        <time>2026-05-14T08:18:34.999Z</time>
      </trkpt>
      <trkpt lat="44.18823" lon="5.29506">
        <ele>1092.8</ele>
        <time>2026-05-14T08:18:35.999Z</time>
      </trkpt>
      <trkpt lat="44.18823" lon="5.29505">
        <ele>1093</ele>
        <time>2026-05-14T08:18:36.999Z</time>
      </trkpt>
      <trkpt lat="44.18823" lon="5.29503">
        <ele>1092.9</ele>
        <time>2026-05-14T08:18:37.999Z</time>
      </trkpt>
      <trkpt lat="44.18824" lon="5.29502">
        <ele>1093</ele>
        <time>2026-05-14T08:18:38.999Z</time>
      </trkpt>
      <trkpt lat="44.18823" lon="5.295">
        <ele>1092.7</ele>
        <time>2026-05-14T08:18:39.999Z</time>
      </trkpt>
      <trkpt lat="44.18824" lon="5.295">
        <ele>1091.9</ele>
        <time>2026-05-14T08:18:40.999Z</time>
      </trkpt>
      <trkpt lat="44.18824" lon="5.29499">
        <ele>1091.7</ele>
        <time>2026-05-14T08:18:41.999Z</time>
      </trkpt>
      <trkpt lat="44.18825" lon="5.29497">
        <ele>1091.4</ele>
        <time>2026-05-14T08:18:42.999Z</time>
      </trkpt>
      <trkpt lat="44.18825" lon="5.29496">
        <ele>1090.7</ele>
        <time>2026-05-14T08:18:43.999Z</time>
      </trkpt>
      <trkpt lat="44.18825" lon="5.29495">
        <ele>1090.7</ele>
        <time>2026-05-14T08:18:44.999Z</time>
      </trkpt>
      <trkpt lat="44.18825" lon="5.29494">
        <ele>1090.9</ele>
        <time>2026-05-14T08:18:45.999Z</time>
      </trkpt>
      <trkpt lat="44.18827" lon="5.29493">
        <ele>1091.7</ele>
        <time>2026-05-14T08:18:46.999Z</time>
      </trkpt>
      <trkpt lat="44.18827" lon="5.29492">
        <ele>1091.7</ele>
        <time>2026-05-14T08:18:47.999Z</time>
      </trkpt>
      <trkpt lat="44.18828" lon="5.2949">
        <ele>1091.6</ele>
        <time>2026-05-14T08:18:48.999Z</time>
      </trkpt>
      <trkpt lat="44.18828" lon="5.29489">
        <ele>1091.6</ele>
        <time>2026-05-14T08:18:49.999Z</time>
      </trkpt>
      <trkpt lat="44.18828" lon="5.29488">
        <ele>1091.9</ele>
        <time>2026-05-14T08:18:50.999Z</time>
      </trkpt>
      <trkpt lat="44.18828" lon="5.29485">
        <ele>1091.9</ele>
        <time>2026-05-14T08:18:51.999Z</time>
      </trkpt>
      <trkpt lat="44.18828" lon="5.29484">
        <ele>1092.4</ele>
        <time>2026-05-14T08:18:52.999Z</time>
      </trkpt>
      <trkpt lat="44.18829" lon="5.29483">
        <ele>1092.6</ele>
        <time>2026-05-14T08:18:53.999Z</time>
      </trkpt>
      <trkpt lat="44.18829" lon="5.29482">
        <ele>1093.1</ele>
        <time>2026-05-14T08:18:54.999Z</time>
      </trkpt>
      <trkpt lat="44.18829" lon="5.2948">
        <ele>1093.1</ele>
        <time>2026-05-14T08:18:55.999Z</time>
      </trkpt>
      <trkpt lat="44.18829" lon="5.29479">
        <ele>1093.3</ele>
        <time>2026-05-14T08:18:56.999Z</time>
      </trkpt>
      <trkpt lat="44.18829" lon="5.29476">
        <ele>1093.4</ele>
        <time>2026-05-14T08:18:57.999Z</time>
      </trkpt>
      <trkpt lat="44.18828" lon="5.29474">
        <ele>1093.4</ele>
        <time>2026-05-14T08:18:58.999Z</time>
      </trkpt>
      <trkpt lat="44.18828" lon="5.29473">
        <ele>1093.9</ele>
        <time>2026-05-14T08:18:59.999Z</time>
      </trkpt>
      <trkpt lat="44.18828" lon="5.29472">
        <ele>1093.6</ele>
        <time>2026-05-14T08:19:00.999Z</time>
      </trkpt>
      <trkpt lat="44.18828" lon="5.29471">
        <ele>1094.2</ele>
        <time>2026-05-14T08:19:01.999Z</time>
      </trkpt>
      <trkpt lat="44.18829" lon="5.2947">
        <ele>1094.6</ele>
        <time>2026-05-14T08:19:02.999Z</time>
      </trkpt>
      <trkpt lat="44.1883" lon="5.29469">
        <ele>1095.7</ele>
        <time>2026-05-14T08:19:03.999Z</time>
      </trkpt>
      <trkpt lat="44.1883" lon="5.29469">
        <ele>1097</ele>
        <time>2026-05-14T08:19:04.999Z</time>
      </trkpt>
      <trkpt lat="44.18831" lon="5.29469">
        <ele>1097.8</ele>
        <time>2026-05-14T08:19:05.999Z</time>
      </trkpt>
      <trkpt lat="44.18831" lon="5.29469">
        <ele>1098.4</ele>
        <time>2026-05-14T08:19:06.999Z</time>
      </trkpt>
      <trkpt lat="44.18832" lon="5.29469">
        <ele>1099</ele>
        <time>2026-05-14T08:19:07.999Z</time>
      </trkpt>
      <trkpt lat="44.18833" lon="5.29468">
        <ele>1100.1</ele>
        <time>2026-05-14T08:19:08.999Z</time>
      </trkpt>
      <trkpt lat="44.18834" lon="5.29467">
        <ele>1100.9</ele>
        <time>2026-05-14T08:19:09.999Z</time>
      </trkpt>
      <trkpt lat="44.18834" lon="5.29467">
        <ele>1100.4</ele>
        <time>2026-05-14T08:19:10.999Z</time>
      </trkpt>
      <trkpt lat="44.18834" lon="5.29466">
        <ele>1100.5</ele>
        <time>2026-05-14T08:19:11.999Z</time>
      </trkpt>
      <trkpt lat="44.18834" lon="5.29465">
        <ele>1100.4</ele>
        <time>2026-05-14T08:19:12.999Z</time>
      </trkpt>
      <trkpt lat="44.18834" lon="5.29463">
        <ele>1100.4</ele>
        <time>2026-05-14T08:19:13.999Z</time>
      </trkpt>
      <trkpt lat="44.18835" lon="5.29461">
        <ele>1100.5</ele>
        <time>2026-05-14T08:19:14.999Z</time>
      </trkpt>
      <trkpt lat="44.18835" lon="5.29461">
        <ele>1101</ele>
        <time>2026-05-14T08:19:15.999Z</time>
      </trkpt>
      <trkpt lat="44.18835" lon="5.2946">
        <ele>1101.3</ele>
        <time>2026-05-14T08:19:16.999Z</time>
      </trkpt>
      <trkpt lat="44.18835" lon="5.2946">
        <ele>1101.5</ele>
        <time>2026-05-14T08:19:17.999Z</time>
      </trkpt>
      <trkpt lat="44.18836" lon="5.2946">
        <ele>1101.9</ele>
        <time>2026-05-14T08:19:18.999Z</time>
      </trkpt>
      <trkpt lat="44.18835" lon="5.29459">
        <ele>1101.8</ele>
        <time>2026-05-14T08:19:19.999Z</time>
      </trkpt>
      <trkpt lat="44.18835" lon="5.29457">
        <ele>1101.7</ele>
        <time>2026-05-14T08:19:20.999Z</time>
      </trkpt>
      <trkpt lat="44.18834" lon="5.29454">
        <ele>1101</ele>
        <time>2026-05-14T08:19:21.999Z</time>
      </trkpt>
      <trkpt lat="44.18834" lon="5.29454">
        <ele>1101.3</ele>
        <time>2026-05-14T08:19:22.999Z</time>
      </trkpt>
      <trkpt lat="44.18835" lon="5.29453">
        <ele>1101.4</ele>
        <time>2026-05-14T08:19:23.999Z</time>
      </trkpt>
      <trkpt lat="44.18835" lon="5.29452">
        <ele>1101.1</ele>
        <time>2026-05-14T08:19:24.999Z</time>
      </trkpt>
      <trkpt lat="44.18835" lon="5.2945">
        <ele>1100.9</ele>
        <time>2026-05-14T08:19:25.999Z</time>
      </trkpt>
      <trkpt lat="44.18835" lon="5.29449">
        <ele>1100.6</ele>
        <time>2026-05-14T08:19:26.999Z</time>
      </trkpt>
      <trkpt lat="44.18835" lon="5.29447">
        <ele>1101.1</ele>
        <time>2026-05-14T08:19:27.999Z</time>
      </trkpt>
      <trkpt lat="44.18836" lon="5.29446">
        <ele>1101.2</ele>
        <time>2026-05-14T08:19:28.999Z</time>
      </trkpt>
      <trkpt lat="44.18837" lon="5.29444">
        <ele>1101.6</ele>
        <time>2026-05-14T08:19:29.999Z</time>
      </trkpt>
      <trkpt lat="44.18838" lon="5.29443">
        <ele>1101.7</ele>
        <time>2026-05-14T08:19:30.999Z</time>
      </trkpt>
      <trkpt lat="44.18839" lon="5.29441">
        <ele>1101.7</ele>
        <time>2026-05-14T08:19:31.999Z</time>
      </trkpt>
      <trkpt lat="44.1884" lon="5.2944">
        <ele>1102.1</ele>
        <time>2026-05-14T08:19:32.999Z</time>
      </trkpt>
      <trkpt lat="44.1884" lon="5.29438">
        <ele>1102</ele>
        <time>2026-05-14T08:19:33.999Z</time>
      </trkpt>
      <trkpt lat="44.1884" lon="5.29437">
        <ele>1102</ele>
        <time>2026-05-14T08:19:34.999Z</time>
      </trkpt>
      <trkpt lat="44.18841" lon="5.29433">
        <ele>1102</ele>
        <time>2026-05-14T08:19:36.999Z</time>
      </trkpt>
      <trkpt lat="44.18841" lon="5.2943">
        <ele>1102.3</ele>
        <time>2026-05-14T08:19:37.999Z</time>
      </trkpt>
      <trkpt lat="44.18842" lon="5.29427">
        <ele>1102.9</ele>
        <time>2026-05-14T08:19:38.999Z</time>
      </trkpt>
      <trkpt lat="44.18843" lon="5.29425">
        <ele>1103.3</ele>
        <time>2026-05-14T08:19:39.999Z</time>
      </trkpt>
      <trkpt lat="44.18844" lon="5.29423">
        <ele>1103.1</ele>
        <time>2026-05-14T08:19:40.999Z</time>
      </trkpt>
      <trkpt lat="44.18844" lon="5.29422">
        <ele>1102.9</ele>
        <time>2026-05-14T08:19:41.999Z</time>
      </trkpt>
      <trkpt lat="44.18845" lon="5.2942">
        <ele>1102.7</ele>
        <time>2026-05-14T08:19:42.999Z</time>
      </trkpt>
      <trkpt lat="44.18846" lon="5.29419">
        <ele>1102.7</ele>
        <time>2026-05-14T08:19:43.999Z</time>
      </trkpt>
      <trkpt lat="44.18846" lon="5.29416">
        <ele>1102.7</ele>
        <time>2026-05-14T08:19:44.999Z</time>
      </trkpt>
      <trkpt lat="44.18846" lon="5.29414">
        <ele>1102.5</ele>
        <time>2026-05-14T08:19:45.999Z</time>
      </trkpt>
      <trkpt lat="44.18845" lon="5.29412">
        <ele>1102</ele>
        <time>2026-05-14T08:19:46.999Z</time>
      </trkpt>
      <trkpt lat="44.18845" lon="5.29409">
        <ele>1101.5</ele>
        <time>2026-05-14T08:19:47.999Z</time>
      </trkpt>
      <trkpt lat="44.18845" lon="5.29408">
        <ele>1101.1</ele>
        <time>2026-05-14T08:19:48.999Z</time>
      </trkpt>
      <trkpt lat="44.18844" lon="5.29406">
        <ele>1100.8</ele>
        <time>2026-05-14T08:19:49.999Z</time>
      </trkpt>
      <trkpt lat="44.18844" lon="5.29404">
        <ele>1100.7</ele>
        <time>2026-05-14T08:19:50.999Z</time>
      </trkpt>
      <trkpt lat="44.18844" lon="5.29402">
        <ele>1100.5</ele>
        <time>2026-05-14T08:19:51.999Z</time>
      </trkpt>
      <trkpt lat="44.18844" lon="5.294">
        <ele>1100.3</ele>
        <time>2026-05-14T08:19:52.999Z</time>
      </trkpt>
      <trkpt lat="44.18844" lon="5.29399">
        <ele>1100.3</ele>
        <time>2026-05-14T08:19:53.999Z</time>
      </trkpt>
      <trkpt lat="44.18844" lon="5.29397">
        <ele>1100</ele>
        <time>2026-05-14T08:19:54.999Z</time>
      </trkpt>
      <trkpt lat="44.18844" lon="5.29395">
        <ele>1099.5</ele>
        <time>2026-05-14T08:19:55.999Z</time>
      </trkpt>
      <trkpt lat="44.18844" lon="5.29393">
        <ele>1100.5</ele>
        <time>2026-05-14T08:19:56.999Z</time>
      </trkpt>
      <trkpt lat="44.18844" lon="5.29391">
        <ele>1100.9</ele>
        <time>2026-05-14T08:19:57.999Z</time>
      </trkpt>
      <trkpt lat="44.18844" lon="5.2939">
        <ele>1100.8</ele>
        <time>2026-05-14T08:19:58.999Z</time>
      </trkpt>
      <trkpt lat="44.18843" lon="5.29388">
        <ele>1100.6</ele>
        <time>2026-05-14T08:19:59.999Z</time>
      </trkpt>
      <trkpt lat="44.18844" lon="5.29387">
        <ele>1100.4</ele>
        <time>2026-05-14T08:20:00.999Z</time>
      </trkpt>
      <trkpt lat="44.18843" lon="5.29385">
        <ele>1100.2</ele>
        <time>2026-05-14T08:20:01.999Z</time>
      </trkpt>
      <trkpt lat="44.18842" lon="5.29383">
        <ele>1099.7</ele>
        <time>2026-05-14T08:20:02.999Z</time>
      </trkpt>
      <trkpt lat="44.18842" lon="5.29381">
        <ele>1099.9</ele>
        <time>2026-05-14T08:20:03.999Z</time>
      </trkpt>
      <trkpt lat="44.18841" lon="5.2938">
        <ele>1100.3</ele>
        <time>2026-05-14T08:20:04.999Z</time>
      </trkpt>
      <trkpt lat="44.1884" lon="5.29379">
        <ele>1100.5</ele>
        <time>2026-05-14T08:20:05.999Z</time>
      </trkpt>
      <trkpt lat="44.1884" lon="5.29378">
        <ele>1100.7</ele>
        <time>2026-05-14T08:20:06.999Z</time>
      </trkpt>
      <trkpt lat="44.18839" lon="5.29377">
        <ele>1100.8</ele>
        <time>2026-05-14T08:20:07.999Z</time>
      </trkpt>
      <trkpt lat="44.18839" lon="5.29378">
        <ele>1100.8</ele>
        <time>2026-05-14T08:20:08.999Z</time>
      </trkpt>
      <trkpt lat="44.18839" lon="5.29377">
        <ele>1100.3</ele>
        <time>2026-05-14T08:20:09.999Z</time>
      </trkpt>
      <trkpt lat="44.18838" lon="5.29377">
        <ele>1100.1</ele>
        <time>2026-05-14T08:20:10.999Z</time>
      </trkpt>
      <trkpt lat="44.18838" lon="5.29377">
        <ele>1100</ele>
        <time>2026-05-14T08:20:11.999Z</time>
      </trkpt>
      <trkpt lat="44.18838" lon="5.29376">
        <ele>1099.9</ele>
        <time>2026-05-14T08:20:12.999Z</time>
      </trkpt>
      <trkpt lat="44.18838" lon="5.29375">
        <ele>1100.6</ele>
        <time>2026-05-14T08:20:13.999Z</time>
      </trkpt>
      <trkpt lat="44.18838" lon="5.29374">
        <ele>1101.9</ele>
        <time>2026-05-14T08:20:14.999Z</time>
      </trkpt>
      <trkpt lat="44.18838" lon="5.29372">
        <ele>1102.3</ele>
        <time>2026-05-14T08:20:15.999Z</time>
      </trkpt>
      <trkpt lat="44.18839" lon="5.2937">
        <ele>1102.9</ele>
        <time>2026-05-14T08:20:16.999Z</time>
      </trkpt>
      <trkpt lat="44.18839" lon="5.29369">
        <ele>1103.3</ele>
        <time>2026-05-14T08:20:17.999Z</time>
      </trkpt>
      <trkpt lat="44.1884" lon="5.29367">
        <ele>1103.1</ele>
        <time>2026-05-14T08:20:18.999Z</time>
      </trkpt>
      <trkpt lat="44.18839" lon="5.29366">
        <ele>1102.6</ele>
        <time>2026-05-14T08:20:19.999Z</time>
      </trkpt>
      <trkpt lat="44.18838" lon="5.29365">
        <ele>1101.5</ele>
        <time>2026-05-14T08:20:20.999Z</time>
      </trkpt>
      <trkpt lat="44.18837" lon="5.29364">
        <ele>1101.4</ele>
        <time>2026-05-14T08:20:21.999Z</time>
      </trkpt>
      <trkpt lat="44.18836" lon="5.29363">
        <ele>1101.4</ele>
        <time>2026-05-14T08:20:22.999Z</time>
      </trkpt>
      <trkpt lat="44.18836" lon="5.29362">
        <ele>1101.6</ele>
        <time>2026-05-14T08:20:23.999Z</time>
      </trkpt>
      <trkpt lat="44.18836" lon="5.29361">
        <ele>1101.3</ele>
        <time>2026-05-14T08:20:24.999Z</time>
      </trkpt>
      <trkpt lat="44.18836" lon="5.2936">
        <ele>1101.4</ele>
        <time>2026-05-14T08:20:25.999Z</time>
      </trkpt>
      <trkpt lat="44.18836" lon="5.29359">
        <ele>1101.8</ele>
        <time>2026-05-14T08:20:26.999Z</time>
      </trkpt>
      <trkpt lat="44.18836" lon="5.29358">
        <ele>1102.4</ele>
        <time>2026-05-14T08:20:27.999Z</time>
      </trkpt>
      <trkpt lat="44.18836" lon="5.29356">
        <ele>1102.6</ele>
        <time>2026-05-14T08:20:28.999Z</time>
      </trkpt>
      <trkpt lat="44.18836" lon="5.29354">
        <ele>1102.7</ele>
        <time>2026-05-14T08:20:29.999Z</time>
      </trkpt>
      <trkpt lat="44.18835" lon="5.29351">
        <ele>1102.8</ele>
        <time>2026-05-14T08:20:30.999Z</time>
      </trkpt>
      <trkpt lat="44.18836" lon="5.29349">
        <ele>1103.5</ele>
        <time>2026-05-14T08:20:31.999Z</time>
      </trkpt>
      <trkpt lat="44.18835" lon="5.29347">
        <ele>1103.9</ele>
        <time>2026-05-14T08:20:32.999Z</time>
      </trkpt>
      <trkpt lat="44.18835" lon="5.29345">
        <ele>1104</ele>
        <time>2026-05-14T08:20:33.999Z</time>
      </trkpt>
      <trkpt lat="44.18836" lon="5.29342">
        <ele>1105.4</ele>
        <time>2026-05-14T08:20:34.999Z</time>
      </trkpt>
      <trkpt lat="44.18836" lon="5.29341">
        <ele>1106.3</ele>
        <time>2026-05-14T08:20:35.999Z</time>
      </trkpt>
      <trkpt lat="44.18835" lon="5.29339">
        <ele>1106.1</ele>
        <time>2026-05-14T08:20:36.999Z</time>
      </trkpt>
      <trkpt lat="44.18835" lon="5.29338">
        <ele>1106</ele>
        <time>2026-05-14T08:20:37.999Z</time>
      </trkpt>
      <trkpt lat="44.18835" lon="5.29337">
        <ele>1106.4</ele>
        <time>2026-05-14T08:20:38.999Z</time>
      </trkpt>
      <trkpt lat="44.18834" lon="5.29335">
        <ele>1107.2</ele>
        <time>2026-05-14T08:20:40.999Z</time>
      </trkpt>
      <trkpt lat="44.18833" lon="5.29334">
        <ele>1106.9</ele>
        <time>2026-05-14T08:20:41.999Z</time>
      </trkpt>
      <trkpt lat="44.18832" lon="5.29332">
        <ele>1106.9</ele>
        <time>2026-05-14T08:20:42.999Z</time>
      </trkpt>
      <trkpt lat="44.18831" lon="5.29329">
        <ele>1107.2</ele>
        <time>2026-05-14T08:20:43.999Z</time>
      </trkpt>
      <trkpt lat="44.1883" lon="5.29328">
        <ele>1107.2</ele>
        <time>2026-05-14T08:20:44.999Z</time>
      </trkpt>
      <trkpt lat="44.1883" lon="5.29327">
        <ele>1107</ele>
        <time>2026-05-14T08:20:45.999Z</time>
      </trkpt>
      <trkpt lat="44.18829" lon="5.29326">
        <ele>1106.9</ele>
        <time>2026-05-14T08:20:46.999Z</time>
      </trkpt>
      <trkpt lat="44.18829" lon="5.29325">
        <ele>1106.2</ele>
        <time>2026-05-14T08:20:47.999Z</time>
      </trkpt>
      <trkpt lat="44.18829" lon="5.29325">
        <ele>1105.8</ele>
        <time>2026-05-14T08:20:48.999Z</time>
      </trkpt>
      <trkpt lat="44.18829" lon="5.29324">
        <ele>1105.5</ele>
        <time>2026-05-14T08:20:49.999Z</time>
      </trkpt>
      <trkpt lat="44.18829" lon="5.29323">
        <ele>1106.2</ele>
        <time>2026-05-14T08:20:50.999Z</time>
      </trkpt>
      <trkpt lat="44.18829" lon="5.29322">
        <ele>1106.4</ele>
        <time>2026-05-14T08:20:51.999Z</time>
      </trkpt>
      <trkpt lat="44.18829" lon="5.29322">
        <ele>1106.3</ele>
        <time>2026-05-14T08:20:52.999Z</time>
      </trkpt>
      <trkpt lat="44.18828" lon="5.29322">
        <ele>1106.4</ele>
        <time>2026-05-14T08:20:53.999Z</time>
      </trkpt>
      <trkpt lat="44.18828" lon="5.29321">
        <ele>1106.3</ele>
        <time>2026-05-14T08:20:54.999Z</time>
      </trkpt>
      <trkpt lat="44.18827" lon="5.2932">
        <ele>1105.4</ele>
        <time>2026-05-14T08:20:55.999Z</time>
      </trkpt>
      <trkpt lat="44.18826" lon="5.29318">
        <ele>1105.2</ele>
        <time>2026-05-14T08:20:56.999Z</time>
      </trkpt>
      <trkpt lat="44.18826" lon="5.29317">
        <ele>1105.7</ele>
        <time>2026-05-14T08:20:57.999Z</time>
      </trkpt>
      <trkpt lat="44.18826" lon="5.29317">
        <ele>1106.3</ele>
        <time>2026-05-14T08:20:58.999Z</time>
      </trkpt>
      <trkpt lat="44.18826" lon="5.29316">
        <ele>1106.8</ele>
        <time>2026-05-14T08:20:59.999Z</time>
      </trkpt>
      <trkpt lat="44.18825" lon="5.29316">
        <ele>1106.7</ele>
        <time>2026-05-14T08:21:00.999Z</time>
      </trkpt>
      <trkpt lat="44.18825" lon="5.29315">
        <ele>1106.2</ele>
        <time>2026-05-14T08:21:01.999Z</time>
      </trkpt>
      <trkpt lat="44.18824" lon="5.29314">
        <ele>1105.5</ele>
        <time>2026-05-14T08:21:02.999Z</time>
      </trkpt>
      <trkpt lat="44.18824" lon="5.29314">
        <ele>1105.2</ele>
        <time>2026-05-14T08:21:03.999Z</time>
      </trkpt>
      <trkpt lat="44.18823" lon="5.29313">
        <ele>1104.7</ele>
        <time>2026-05-14T08:21:04.999Z</time>
      </trkpt>
      <trkpt lat="44.18823" lon="5.29312">
        <ele>1104.2</ele>
        <time>2026-05-14T08:21:05.999Z</time>
      </trkpt>
      <trkpt lat="44.18823" lon="5.29312">
        <ele>1104.1</ele>
        <time>2026-05-14T08:21:06.999Z</time>
      </trkpt>
      <trkpt lat="44.18822" lon="5.2931">
        <ele>1104.8</ele>
        <time>2026-05-14T08:21:07.999Z</time>
      </trkpt>
      <trkpt lat="44.18822" lon="5.29309">
        <ele>1105.5</ele>
        <time>2026-05-14T08:21:08.999Z</time>
      </trkpt>
      <trkpt lat="44.18821" lon="5.29307">
        <ele>1105.7</ele>
        <time>2026-05-14T08:21:09.999Z</time>
      </trkpt>
      <trkpt lat="44.18821" lon="5.29305">
        <ele>1105.4</ele>
        <time>2026-05-14T08:21:11.999Z</time>
      </trkpt>
      <trkpt lat="44.1882" lon="5.29304">
        <ele>1104.7</ele>
        <time>2026-05-14T08:21:12.999Z</time>
      </trkpt>
      <trkpt lat="44.1882" lon="5.29303">
        <ele>1104.3</ele>
        <time>2026-05-14T08:21:13.999Z</time>
      </trkpt>
      <trkpt lat="44.18819" lon="5.29302">
        <ele>1103.8</ele>
        <time>2026-05-14T08:21:14.999Z</time>
      </trkpt>
      <trkpt lat="44.18819" lon="5.29301">
        <ele>1103.9</ele>
        <time>2026-05-14T08:21:15.999Z</time>
      </trkpt>
      <trkpt lat="44.18818" lon="5.29299">
        <ele>1103.5</ele>
        <time>2026-05-14T08:21:16.999Z</time>
      </trkpt>
      <trkpt lat="44.18818" lon="5.29298">
        <ele>1103.8</ele>
        <time>2026-05-14T08:21:17.999Z</time>
      </trkpt>
      <trkpt lat="44.18818" lon="5.29296">
        <ele>1103.9</ele>
        <time>2026-05-14T08:21:18.999Z</time>
      </trkpt>
      <trkpt lat="44.18818" lon="5.29295">
        <ele>1104</ele>
        <time>2026-05-14T08:21:19.999Z</time>
      </trkpt>
      <trkpt lat="44.18817" lon="5.29293">
        <ele>1103.3</ele>
        <time>2026-05-14T08:21:20.999Z</time>
      </trkpt>
      <trkpt lat="44.18817" lon="5.29292">
        <ele>1103.1</ele>
        <time>2026-05-14T08:21:21.999Z</time>
      </trkpt>
      <trkpt lat="44.18816" lon="5.29291">
        <ele>1102.9</ele>
        <time>2026-05-14T08:21:22.999Z</time>
      </trkpt>
      <trkpt lat="44.18816" lon="5.2929">
        <ele>1102.6</ele>
        <time>2026-05-14T08:21:23.999Z</time>
      </trkpt>
      <trkpt lat="44.18815" lon="5.29289">
        <ele>1102.4</ele>
        <time>2026-05-14T08:21:24.999Z</time>
      </trkpt>
      <trkpt lat="44.18814" lon="5.29288">
        <ele>1101.9</ele>
        <time>2026-05-14T08:21:25.999Z</time>
      </trkpt>
      <trkpt lat="44.18814" lon="5.29286">
        <ele>1101.5</ele>
        <time>2026-05-14T08:21:26.999Z</time>
      </trkpt>
      <trkpt lat="44.18814" lon="5.29286">
        <ele>1101.8</ele>
        <time>2026-05-14T08:21:27.999Z</time>
      </trkpt>
      <trkpt lat="44.18813" lon="5.29282">
        <ele>1102.8</ele>
        <time>2026-05-14T08:21:28.999Z</time>
      </trkpt>
      <trkpt lat="44.18813" lon="5.2928">
        <ele>1103.3</ele>
        <time>2026-05-14T08:21:29.999Z</time>
      </trkpt>
      <trkpt lat="44.18813" lon="5.29278">
        <ele>1103.9</ele>
        <time>2026-05-14T08:21:30.999Z</time>
      </trkpt>
      <trkpt lat="44.18814" lon="5.29278">
        <ele>1104.6</ele>
        <time>2026-05-14T08:21:31.999Z</time>
      </trkpt>
      <trkpt lat="44.18814" lon="5.29277">
        <ele>1105.3</ele>
        <time>2026-05-14T08:21:32.999Z</time>
      </trkpt>
      <trkpt lat="44.18815" lon="5.29276">
        <ele>1105.6</ele>
        <time>2026-05-14T08:21:33.999Z</time>
      </trkpt>
      <trkpt lat="44.18816" lon="5.29276">
        <ele>1106</ele>
        <time>2026-05-14T08:21:34.999Z</time>
      </trkpt>
      <trkpt lat="44.18815" lon="5.29272">
        <ele>1106.6</ele>
        <time>2026-05-14T08:21:36.999Z</time>
      </trkpt>
      <trkpt lat="44.18814" lon="5.2927">
        <ele>1106.5</ele>
        <time>2026-05-14T08:21:37.999Z</time>
      </trkpt>
      <trkpt lat="44.18814" lon="5.29268">
        <ele>1108.1</ele>
        <time>2026-05-14T08:21:38.999Z</time>
      </trkpt>
      <trkpt lat="44.18814" lon="5.29266">
        <ele>1108.1</ele>
        <time>2026-05-14T08:21:39.999Z</time>
      </trkpt>
      <trkpt lat="44.18813" lon="5.29263">
        <ele>1109.3</ele>
        <time>2026-05-14T08:21:40.999Z</time>
      </trkpt>
      <trkpt lat="44.18814" lon="5.29261">
        <ele>1110.3</ele>
        <time>2026-05-14T08:21:41.999Z</time>
      </trkpt>
      <trkpt lat="44.18814" lon="5.2926">
        <ele>1110.3</ele>
        <time>2026-05-14T08:21:42.999Z</time>
      </trkpt>
      <trkpt lat="44.18814" lon="5.29259">
        <ele>1111</ele>
        <time>2026-05-14T08:21:44.999Z</time>
      </trkpt>
      <trkpt lat="44.18815" lon="5.29258">
        <ele>1110.9</ele>
        <time>2026-05-14T08:21:45.999Z</time>
      </trkpt>
      <trkpt lat="44.18815" lon="5.29257">
        <ele>1111.6</ele>
        <time>2026-05-14T08:21:46.999Z</time>
      </trkpt>
      <trkpt lat="44.18816" lon="5.29257">
        <ele>1112.1</ele>
        <time>2026-05-14T08:21:47.999Z</time>
      </trkpt>
      <trkpt lat="44.18816" lon="5.29257">
        <ele>1112.1</ele>
        <time>2026-05-14T08:21:48.999Z</time>
      </trkpt>
      <trkpt lat="44.18816" lon="5.29256">
        <ele>1112.4</ele>
        <time>2026-05-14T08:21:49.999Z</time>
      </trkpt>
      <trkpt lat="44.18816" lon="5.29254">
        <ele>1111.9</ele>
        <time>2026-05-14T08:21:50.999Z</time>
      </trkpt>
      <trkpt lat="44.18815" lon="5.29253">
        <ele>1111.6</ele>
        <time>2026-05-14T08:21:51.999Z</time>
      </trkpt>
      <trkpt lat="44.18815" lon="5.29252">
        <ele>1111.2</ele>
        <time>2026-05-14T08:21:52.999Z</time>
      </trkpt>
      <trkpt lat="44.18815" lon="5.29251">
        <ele>1110.9</ele>
        <time>2026-05-14T08:21:53.999Z</time>
      </trkpt>
      <trkpt lat="44.18814" lon="5.29249">
        <ele>1110.9</ele>
        <time>2026-05-14T08:21:54.999Z</time>
      </trkpt>
      <trkpt lat="44.18814" lon="5.29248">
        <ele>1110.7</ele>
        <time>2026-05-14T08:21:55.999Z</time>
      </trkpt>
      <trkpt lat="44.18813" lon="5.29246">
        <ele>1110.6</ele>
        <time>2026-05-14T08:21:56.999Z</time>
      </trkpt>
      <trkpt lat="44.18813" lon="5.29244">
        <ele>1110.4</ele>
        <time>2026-05-14T08:21:57.999Z</time>
      </trkpt>
      <trkpt lat="44.18812" lon="5.29242">
        <ele>1110</ele>
        <time>2026-05-14T08:21:58.999Z</time>
      </trkpt>
      <trkpt lat="44.18812" lon="5.2924">
        <ele>1110.2</ele>
        <time>2026-05-14T08:21:59.999Z</time>
      </trkpt>
      <trkpt lat="44.18812" lon="5.29238">
        <ele>1110.8</ele>
        <time>2026-05-14T08:22:00.999Z</time>
      </trkpt>
      <trkpt lat="44.18812" lon="5.29235">
        <ele>1111.3</ele>
        <time>2026-05-14T08:22:01.999Z</time>
      </trkpt>
      <trkpt lat="44.18812" lon="5.29233">
        <ele>1111.5</ele>
        <time>2026-05-14T08:22:02.999Z</time>
      </trkpt>
      <trkpt lat="44.18812" lon="5.29231">
        <ele>1111.8</ele>
        <time>2026-05-14T08:22:03.999Z</time>
      </trkpt>
      <trkpt lat="44.18812" lon="5.29231">
        <ele>1110.8</ele>
        <time>2026-05-14T08:22:04.999Z</time>
      </trkpt>
      <trkpt lat="44.18812" lon="5.29229">
        <ele>1110.7</ele>
        <time>2026-05-14T08:22:05.999Z</time>
      </trkpt>
      <trkpt lat="44.18812" lon="5.29228">
        <ele>1110.4</ele>
        <time>2026-05-14T08:22:06.999Z</time>
      </trkpt>
      <trkpt lat="44.18811" lon="5.29226">
        <ele>1109.8</ele>
        <time>2026-05-14T08:22:07.999Z</time>
      </trkpt>
      <trkpt lat="44.18811" lon="5.29225">
        <ele>1108.7</ele>
        <time>2026-05-14T08:22:08.999Z</time>
      </trkpt>
      <trkpt lat="44.18812" lon="5.29223">
        <ele>1108.4</ele>
        <time>2026-05-14T08:22:09.999Z</time>
      </trkpt>
      <trkpt lat="44.18812" lon="5.29221">
        <ele>1108.8</ele>
        <time>2026-05-14T08:22:10.999Z</time>
      </trkpt>
      <trkpt lat="44.18812" lon="5.29219">
        <ele>1110.1</ele>
        <time>2026-05-14T08:22:11.999Z</time>
      </trkpt>
      <trkpt lat="44.18812" lon="5.29217">
        <ele>1110.3</ele>
        <time>2026-05-14T08:22:12.999Z</time>
      </trkpt>
      <trkpt lat="44.18811" lon="5.29215">
        <ele>1109.9</ele>
        <time>2026-05-14T08:22:13.999Z</time>
      </trkpt>
      <trkpt lat="44.18811" lon="5.29213">
        <ele>1110.2</ele>
        <time>2026-05-14T08:22:14.999Z</time>
      </trkpt>
      <trkpt lat="44.1881" lon="5.29211">
        <ele>1110.8</ele>
        <time>2026-05-14T08:22:15.999Z</time>
      </trkpt>
      <trkpt lat="44.18809" lon="5.2921">
        <ele>1110.3</ele>
        <time>2026-05-14T08:22:16.999Z</time>
      </trkpt>
      <trkpt lat="44.18809" lon="5.29208">
        <ele>1110</ele>
        <time>2026-05-14T08:22:17.999Z</time>
      </trkpt>
      <trkpt lat="44.18808" lon="5.29207">
        <ele>1110.2</ele>
        <time>2026-05-14T08:22:18.999Z</time>
      </trkpt>
      <trkpt lat="44.18807" lon="5.29205">
        <ele>1109.8</ele>
        <time>2026-05-14T08:22:19.999Z</time>
      </trkpt>
      <trkpt lat="44.18806" lon="5.29204">
        <ele>1109.4</ele>
        <time>2026-05-14T08:22:20.999Z</time>
      </trkpt>
      <trkpt lat="44.18806" lon="5.29204">
        <ele>1109.2</ele>
        <time>2026-05-14T08:22:21.999Z</time>
      </trkpt>
      <trkpt lat="44.18805" lon="5.29203">
        <ele>1108.4</ele>
        <time>2026-05-14T08:22:22.999Z</time>
      </trkpt>
      <trkpt lat="44.18803" lon="5.29202">
        <ele>1108.1</ele>
        <time>2026-05-14T08:22:23.999Z</time>
      </trkpt>
      <trkpt lat="44.18802" lon="5.29201">
        <ele>1106.9</ele>
        <time>2026-05-14T08:22:24.999Z</time>
      </trkpt>
      <trkpt lat="44.188" lon="5.292">
        <ele>1106.5</ele>
        <time>2026-05-14T08:22:25.999Z</time>
      </trkpt>
      <trkpt lat="44.18799" lon="5.292">
        <ele>1106.7</ele>
        <time>2026-05-14T08:22:26.999Z</time>
      </trkpt>
      <trkpt lat="44.18799" lon="5.29199">
        <ele>1106.9</ele>
        <time>2026-05-14T08:22:27.999Z</time>
      </trkpt>
      <trkpt lat="44.18798" lon="5.29199">
        <ele>1105.9</ele>
        <time>2026-05-14T08:22:28.999Z</time>
      </trkpt>
      <trkpt lat="44.18798" lon="5.29197">
        <ele>1106.8</ele>
        <time>2026-05-14T08:22:29.999Z</time>
      </trkpt>
      <trkpt lat="44.18797" lon="5.29197">
        <ele>1107.2</ele>
        <time>2026-05-14T08:22:30.999Z</time>
      </trkpt>
      <trkpt lat="44.18796" lon="5.29197">
        <ele>1106.9</ele>
        <time>2026-05-14T08:22:31.999Z</time>
      </trkpt>
      <trkpt lat="44.18796" lon="5.29196">
        <ele>1107.3</ele>
        <time>2026-05-14T08:22:32.999Z</time>
      </trkpt>
      <trkpt lat="44.18795" lon="5.29196">
        <ele>1106.8</ele>
        <time>2026-05-14T08:22:33.999Z</time>
      </trkpt>
      <trkpt lat="44.18794" lon="5.29195">
        <ele>1106.8</ele>
        <time>2026-05-14T08:22:34.999Z</time>
      </trkpt>
      <trkpt lat="44.18793" lon="5.29195">
        <ele>1106.8</ele>
        <time>2026-05-14T08:22:35.999Z</time>
      </trkpt>
      <trkpt lat="44.18792" lon="5.29195">
        <ele>1106.5</ele>
        <time>2026-05-14T08:22:36.999Z</time>
      </trkpt>
      <trkpt lat="44.18791" lon="5.29195">
        <ele>1106.8</ele>
        <time>2026-05-14T08:22:37.999Z</time>
      </trkpt>
      <trkpt lat="44.1879" lon="5.29194">
        <ele>1106.1</ele>
        <time>2026-05-14T08:22:38.999Z</time>
      </trkpt>
      <trkpt lat="44.1879" lon="5.29194">
        <ele>1106</ele>
        <time>2026-05-14T08:22:39.999Z</time>
      </trkpt>
      <trkpt lat="44.18789" lon="5.29194">
        <ele>1106.1</ele>
        <time>2026-05-14T08:22:40.999Z</time>
      </trkpt>
      <trkpt lat="44.18789" lon="5.29193">
        <ele>1106.1</ele>
        <time>2026-05-14T08:22:41.999Z</time>
      </trkpt>
      <trkpt lat="44.18788" lon="5.29192">
        <ele>1105.3</ele>
        <time>2026-05-14T08:22:42.999Z</time>
      </trkpt>
      <trkpt lat="44.18787" lon="5.29193">
        <ele>1104.7</ele>
        <time>2026-05-14T08:22:43.999Z</time>
      </trkpt>
      <trkpt lat="44.18787" lon="5.29193">
        <ele>1104.2</ele>
        <time>2026-05-14T08:22:44.999Z</time>
      </trkpt>
      <trkpt lat="44.18786" lon="5.29192">
        <ele>1104.3</ele>
        <time>2026-05-14T08:22:45.999Z</time>
      </trkpt>
      <trkpt lat="44.18785" lon="5.29192">
        <ele>1104.6</ele>
        <time>2026-05-14T08:22:46.999Z</time>
      </trkpt>
      <trkpt lat="44.18785" lon="5.29191">
        <ele>1104.5</ele>
        <time>2026-05-14T08:22:47.999Z</time>
      </trkpt>
      <trkpt lat="44.18784" lon="5.2919">
        <ele>1103.6</ele>
        <time>2026-05-14T08:22:48.999Z</time>
      </trkpt>
      <trkpt lat="44.18783" lon="5.29188">
        <ele>1103.7</ele>
        <time>2026-05-14T08:22:49.999Z</time>
      </trkpt>
      <trkpt lat="44.18783" lon="5.29187">
        <ele>1104.1</ele>
        <time>2026-05-14T08:22:50.999Z</time>
      </trkpt>
      <trkpt lat="44.18782" lon="5.29185">
        <ele>1104.5</ele>
        <time>2026-05-14T08:22:51.999Z</time>
      </trkpt>
      <trkpt lat="44.18781" lon="5.29183">
        <ele>1105</ele>
        <time>2026-05-14T08:22:52.999Z</time>
      </trkpt>
      <trkpt lat="44.1878" lon="5.29181">
        <ele>1106.2</ele>
        <time>2026-05-14T08:22:53.999Z</time>
      </trkpt>
      <trkpt lat="44.1878" lon="5.29179">
        <ele>1107.3</ele>
        <time>2026-05-14T08:22:54.999Z</time>
      </trkpt>
      <trkpt lat="44.18781" lon="5.29177">
        <ele>1107.7</ele>
        <time>2026-05-14T08:22:55.999Z</time>
      </trkpt>
      <trkpt lat="44.18781" lon="5.29175">
        <ele>1108.8</ele>
        <time>2026-05-14T08:22:56.999Z</time>
      </trkpt>
      <trkpt lat="44.18781" lon="5.29174">
        <ele>1109.2</ele>
        <time>2026-05-14T08:22:57.999Z</time>
      </trkpt>
      <trkpt lat="44.1878" lon="5.29173">
        <ele>1109.7</ele>
        <time>2026-05-14T08:22:58.999Z</time>
      </trkpt>
      <trkpt lat="44.18779" lon="5.2917">
        <ele>1112.8</ele>
        <time>2026-05-14T08:22:59.999Z</time>
      </trkpt>
      <trkpt lat="44.18778" lon="5.29166">
        <ele>1115.8</ele>
        <time>2026-05-14T08:23:00.999Z</time>
      </trkpt>
      <trkpt lat="44.18778" lon="5.29164">
        <ele>1117.7</ele>
        <time>2026-05-14T08:23:01.999Z</time>
      </trkpt>
      <trkpt lat="44.18777" lon="5.29163">
        <ele>1118.7</ele>
        <time>2026-05-14T08:23:02.999Z</time>
      </trkpt>
      <trkpt lat="44.18777" lon="5.29162">
        <ele>1121.2</ele>
        <time>2026-05-14T08:23:03.999Z</time>
      </trkpt>
      <trkpt lat="44.18776" lon="5.2916">
        <ele>1122</ele>
        <time>2026-05-14T08:23:04.999Z</time>
      </trkpt>
      <trkpt lat="44.18776" lon="5.29158">
        <ele>1122.9</ele>
        <time>2026-05-14T08:23:05.999Z</time>
      </trkpt>
      <trkpt lat="44.18775" lon="5.29157">
        <ele>1123.6</ele>
        <time>2026-05-14T08:23:06.999Z</time>
      </trkpt>
      <trkpt lat="44.18774" lon="5.29156">
        <ele>1124.6</ele>
        <time>2026-05-14T08:23:07.999Z</time>
      </trkpt>
      <trkpt lat="44.18773" lon="5.29155">
        <ele>1125.5</ele>
        <time>2026-05-14T08:23:08.999Z</time>
      </trkpt>
      <trkpt lat="44.18773" lon="5.29154">
        <ele>1125.3</ele>
        <time>2026-05-14T08:23:09.999Z</time>
      </trkpt>
      <trkpt lat="44.18773" lon="5.29153">
        <ele>1125</ele>
        <time>2026-05-14T08:23:10.999Z</time>
      </trkpt>
      <trkpt lat="44.18772" lon="5.29153">
        <ele>1124.7</ele>
        <time>2026-05-14T08:23:11.999Z</time>
      </trkpt>
      <trkpt lat="44.18772" lon="5.29152">
        <ele>1124.5</ele>
        <time>2026-05-14T08:23:12.999Z</time>
      </trkpt>
      <trkpt lat="44.18772" lon="5.29152">
        <ele>1123.9</ele>
        <time>2026-05-14T08:23:13.999Z</time>
      </trkpt>
      <trkpt lat="44.18772" lon="5.29152">
        <ele>1123.7</ele>
        <time>2026-05-14T08:23:14.999Z</time>
      </trkpt>
      <trkpt lat="44.18772" lon="5.29152">
        <ele>1123.5</ele>
        <time>2026-05-14T08:23:15.999Z</time>
      </trkpt>
      <trkpt lat="44.18771" lon="5.29151">
        <ele>1123.2</ele>
        <time>2026-05-14T08:23:16.999Z</time>
      </trkpt>
      <trkpt lat="44.18771" lon="5.29149">
        <ele>1123.2</ele>
        <time>2026-05-14T08:23:17.999Z</time>
      </trkpt>
      <trkpt lat="44.18771" lon="5.29148">
        <ele>1123.5</ele>
        <time>2026-05-14T08:23:18.999Z</time>
      </trkpt>
      <trkpt lat="44.18771" lon="5.29147">
        <ele>1123.9</ele>
        <time>2026-05-14T08:23:19.999Z</time>
      </trkpt>
      <trkpt lat="44.18771" lon="5.29146">
        <ele>1124.1</ele>
        <time>2026-05-14T08:23:20.999Z</time>
      </trkpt>
      <trkpt lat="44.1877" lon="5.29144">
        <ele>1124.5</ele>
        <time>2026-05-14T08:23:21.999Z</time>
      </trkpt>
      <trkpt lat="44.18769" lon="5.29142">
        <ele>1125.9</ele>
        <time>2026-05-14T08:23:22.999Z</time>
      </trkpt>
      <trkpt lat="44.18769" lon="5.2914">
        <ele>1126.5</ele>
        <time>2026-05-14T08:23:23.999Z</time>
      </trkpt>
      <trkpt lat="44.18768" lon="5.29139">
        <ele>1126.7</ele>
        <time>2026-05-14T08:23:24.999Z</time>
      </trkpt>
      <trkpt lat="44.18768" lon="5.29139">
        <ele>1126.7</ele>
        <time>2026-05-14T08:23:25.999Z</time>
      </trkpt>
      <trkpt lat="44.18768" lon="5.29138">
        <ele>1126.9</ele>
        <time>2026-05-14T08:23:26.999Z</time>
      </trkpt>
      <trkpt lat="44.18767" lon="5.29137">
        <ele>1127</ele>
        <time>2026-05-14T08:23:27.999Z</time>
      </trkpt>
      <trkpt lat="44.18766" lon="5.29136">
        <ele>1127.6</ele>
        <time>2026-05-14T08:23:28.999Z</time>
      </trkpt>
      <trkpt lat="44.18765" lon="5.29135">
        <ele>1128.4</ele>
        <time>2026-05-14T08:23:29.999Z</time>
      </trkpt>
      <trkpt lat="44.18765" lon="5.29133">
        <ele>1129</ele>
        <time>2026-05-14T08:23:30.999Z</time>
      </trkpt>
      <trkpt lat="44.18764" lon="5.29133">
        <ele>1129</ele>
        <time>2026-05-14T08:23:31.999Z</time>
      </trkpt>
      <trkpt lat="44.18764" lon="5.29132">
        <ele>1129.1</ele>
        <time>2026-05-14T08:23:32.999Z</time>
      </trkpt>
      <trkpt lat="44.18763" lon="5.29131">
        <ele>1129.5</ele>
        <time>2026-05-14T08:23:33.999Z</time>
      </trkpt>
      <trkpt lat="44.18762" lon="5.2913">
        <ele>1129.7</ele>
        <time>2026-05-14T08:23:34.999Z</time>
      </trkpt>
      <trkpt lat="44.18761" lon="5.2913">
        <ele>1129.8</ele>
        <time>2026-05-14T08:23:35.999Z</time>
      </trkpt>
      <trkpt lat="44.1876" lon="5.29129">
        <ele>1130</ele>
        <time>2026-05-14T08:23:36.999Z</time>
      </trkpt>
      <trkpt lat="44.18759" lon="5.29128">
        <ele>1130.3</ele>
        <time>2026-05-14T08:23:37.999Z</time>
      </trkpt>
      <trkpt lat="44.18759" lon="5.29127">
        <ele>1130.8</ele>
        <time>2026-05-14T08:23:38.999Z</time>
      </trkpt>
      <trkpt lat="44.18757" lon="5.29126">
        <ele>1131.7</ele>
        <time>2026-05-14T08:23:39.999Z</time>
      </trkpt>
      <trkpt lat="44.18757" lon="5.29126">
        <ele>1131.9</ele>
        <time>2026-05-14T08:23:40.999Z</time>
      </trkpt>
      <trkpt lat="44.18756" lon="5.29125">
        <ele>1132.2</ele>
        <time>2026-05-14T08:23:41.999Z</time>
      </trkpt>
      <trkpt lat="44.18756" lon="5.29124">
        <ele>1132.3</ele>
        <time>2026-05-14T08:23:42.999Z</time>
      </trkpt>
      <trkpt lat="44.18756" lon="5.29124">
        <ele>1132.2</ele>
        <time>2026-05-14T08:23:43.999Z</time>
      </trkpt>
      <trkpt lat="44.18755" lon="5.29123">
        <ele>1132.1</ele>
        <time>2026-05-14T08:23:44.999Z</time>
      </trkpt>
      <trkpt lat="44.18755" lon="5.29122">
        <ele>1131.9</ele>
        <time>2026-05-14T08:23:45.999Z</time>
      </trkpt>
      <trkpt lat="44.18754" lon="5.29122">
        <ele>1132.1</ele>
        <time>2026-05-14T08:23:46.999Z</time>
      </trkpt>
      <trkpt lat="44.18754" lon="5.29121">
        <ele>1132.2</ele>
        <time>2026-05-14T08:23:47.999Z</time>
      </trkpt>
      <trkpt lat="44.18753" lon="5.2912">
        <ele>1132.5</ele>
        <time>2026-05-14T08:23:48.999Z</time>
      </trkpt>
      <trkpt lat="44.18753" lon="5.29119">
        <ele>1132.5</ele>
        <time>2026-05-14T08:23:49.999Z</time>
      </trkpt>
      <trkpt lat="44.18752" lon="5.29118">
        <ele>1132</ele>
        <time>2026-05-14T08:23:50.999Z</time>
      </trkpt>
      <trkpt lat="44.18752" lon="5.29118">
        <ele>1132.2</ele>
        <time>2026-05-14T08:23:51.999Z</time>
      </trkpt>
      <trkpt lat="44.18752" lon="5.29117">
        <ele>1132.5</ele>
        <time>2026-05-14T08:23:53.999Z</time>
      </trkpt>
      <trkpt lat="44.18751" lon="5.29116">
        <ele>1132.5</ele>
        <time>2026-05-14T08:23:54.999Z</time>
      </trkpt>
      <trkpt lat="44.1875" lon="5.29114">
        <ele>1132.1</ele>
        <time>2026-05-14T08:23:55.999Z</time>
      </trkpt>
      <trkpt lat="44.18748" lon="5.29114">
        <ele>1131.7</ele>
        <time>2026-05-14T08:23:56.999Z</time>
      </trkpt>
      <trkpt lat="44.18747" lon="5.29113">
        <ele>1131.6</ele>
        <time>2026-05-14T08:23:57.999Z</time>
      </trkpt>
      <trkpt lat="44.18746" lon="5.29111">
        <ele>1131.3</ele>
        <time>2026-05-14T08:23:58.999Z</time>
      </trkpt>
      <trkpt lat="44.18745" lon="5.29111">
        <ele>1131</ele>
        <time>2026-05-14T08:23:59.999Z</time>
      </trkpt>
      <trkpt lat="44.18744" lon="5.29109">
        <ele>1131</ele>
        <time>2026-05-14T08:24:00.999Z</time>
      </trkpt>
      <trkpt lat="44.18743" lon="5.29109">
        <ele>1130.9</ele>
        <time>2026-05-14T08:24:01.999Z</time>
      </trkpt>
      <trkpt lat="44.18742" lon="5.29108">
        <ele>1130.2</ele>
        <time>2026-05-14T08:24:02.999Z</time>
      </trkpt>
      <trkpt lat="44.1874" lon="5.29107">
        <ele>1129.3</ele>
        <time>2026-05-14T08:24:03.999Z</time>
      </trkpt>
      <trkpt lat="44.18739" lon="5.29106">
        <ele>1128.9</ele>
        <time>2026-05-14T08:24:04.999Z</time>
      </trkpt>
      <trkpt lat="44.18738" lon="5.29106">
        <ele>1128</ele>
        <time>2026-05-14T08:24:05.999Z</time>
      </trkpt>
      <trkpt lat="44.18737" lon="5.29104">
        <ele>1128.2</ele>
        <time>2026-05-14T08:24:06.999Z</time>
      </trkpt>
      <trkpt lat="44.18736" lon="5.29103">
        <ele>1128.9</ele>
        <time>2026-05-14T08:24:07.999Z</time>
      </trkpt>
      <trkpt lat="44.18736" lon="5.29101">
        <ele>1129.3</ele>
        <time>2026-05-14T08:24:08.999Z</time>
      </trkpt>
      <trkpt lat="44.18735" lon="5.29099">
        <ele>1131.8</ele>
        <time>2026-05-14T08:24:09.999Z</time>
      </trkpt>
      <trkpt lat="44.18734" lon="5.29097">
        <ele>1132.1</ele>
        <time>2026-05-14T08:24:10.999Z</time>
      </trkpt>
      <trkpt lat="44.18734" lon="5.29097">
        <ele>1132.1</ele>
        <time>2026-05-14T08:24:11.999Z</time>
      </trkpt>
      <trkpt lat="44.18732" lon="5.29095">
        <ele>1131.6</ele>
        <time>2026-05-14T08:24:12.999Z</time>
      </trkpt>
      <trkpt lat="44.18732" lon="5.29094">
        <ele>1131.5</ele>
        <time>2026-05-14T08:24:13.999Z</time>
      </trkpt>
      <trkpt lat="44.18731" lon="5.29093">
        <ele>1131.2</ele>
        <time>2026-05-14T08:24:14.999Z</time>
      </trkpt>
      <trkpt lat="44.1873" lon="5.29092">
        <ele>1130.5</ele>
        <time>2026-05-14T08:24:15.999Z</time>
      </trkpt>
      <trkpt lat="44.1873" lon="5.29092">
        <ele>1130.5</ele>
        <time>2026-05-14T08:24:16.999Z</time>
      </trkpt>
      <trkpt lat="44.1873" lon="5.29092">
        <ele>1130.6</ele>
        <time>2026-05-14T08:24:17.999Z</time>
      </trkpt>
      <trkpt lat="44.1873" lon="5.29092">
        <ele>1131</ele>
        <time>2026-05-14T08:24:18.999Z</time>
      </trkpt>
      <trkpt lat="44.18729" lon="5.2909">
        <ele>1132.7</ele>
        <time>2026-05-14T08:24:19.999Z</time>
      </trkpt>
      <trkpt lat="44.18728" lon="5.29089">
        <ele>1133</ele>
        <time>2026-05-14T08:24:20.999Z</time>
      </trkpt>
      <trkpt lat="44.18728" lon="5.29087">
        <ele>1133.1</ele>
        <time>2026-05-14T08:24:21.999Z</time>
      </trkpt>
      <trkpt lat="44.18727" lon="5.29085">
        <ele>1134</ele>
        <time>2026-05-14T08:24:22.999Z</time>
      </trkpt>
      <trkpt lat="44.18726" lon="5.29083">
        <ele>1134.9</ele>
        <time>2026-05-14T08:24:23.999Z</time>
      </trkpt>
      <trkpt lat="44.18725" lon="5.29083">
        <ele>1134.7</ele>
        <time>2026-05-14T08:24:24.999Z</time>
      </trkpt>
      <trkpt lat="44.18725" lon="5.29082">
        <ele>1134.2</ele>
        <time>2026-05-14T08:24:25.999Z</time>
      </trkpt>
      <trkpt lat="44.18724" lon="5.29081">
        <ele>1133.8</ele>
        <time>2026-05-14T08:24:26.999Z</time>
      </trkpt>
      <trkpt lat="44.18724" lon="5.2908">
        <ele>1133</ele>
        <time>2026-05-14T08:24:27.999Z</time>
      </trkpt>
      <trkpt lat="44.18722" lon="5.29079">
        <ele>1132.5</ele>
        <time>2026-05-14T08:24:28.999Z</time>
      </trkpt>
      <trkpt lat="44.18722" lon="5.29078">
        <ele>1132.3</ele>
        <time>2026-05-14T08:24:29.999Z</time>
      </trkpt>
      <trkpt lat="44.18721" lon="5.29078">
        <ele>1132.5</ele>
        <time>2026-05-14T08:24:30.999Z</time>
      </trkpt>
      <trkpt lat="44.1872" lon="5.29078">
        <ele>1132.4</ele>
        <time>2026-05-14T08:24:31.999Z</time>
      </trkpt>
      <trkpt lat="44.1872" lon="5.29078">
        <ele>1132.5</ele>
        <time>2026-05-14T08:24:32.999Z</time>
      </trkpt>
      <trkpt lat="44.18719" lon="5.29077">
        <ele>1132.3</ele>
        <time>2026-05-14T08:24:33.999Z</time>
      </trkpt>
      <trkpt lat="44.18718" lon="5.29075">
        <ele>1132.3</ele>
        <time>2026-05-14T08:24:34.999Z</time>
      </trkpt>
      <trkpt lat="44.18717" lon="5.29074">
        <ele>1132.1</ele>
        <time>2026-05-14T08:24:35.999Z</time>
      </trkpt>
      <trkpt lat="44.18716" lon="5.29073">
        <ele>1131.7</ele>
        <time>2026-05-14T08:24:36.999Z</time>
      </trkpt>
      <trkpt lat="44.18716" lon="5.29072">
        <ele>1131.4</ele>
        <time>2026-05-14T08:24:37.999Z</time>
      </trkpt>
      <trkpt lat="44.18715" lon="5.2907">
        <ele>1131.9</ele>
        <time>2026-05-14T08:24:38.999Z</time>
      </trkpt>
      <trkpt lat="44.18715" lon="5.2907">
        <ele>1132.3</ele>
        <time>2026-05-14T08:24:39.999Z</time>
      </trkpt>
      <trkpt lat="44.18714" lon="5.29069">
        <ele>1132.2</ele>
        <time>2026-05-14T08:24:40.999Z</time>
      </trkpt>
      <trkpt lat="44.18713" lon="5.29068">
        <ele>1132.3</ele>
        <time>2026-05-14T08:24:41.999Z</time>
      </trkpt>
      <trkpt lat="44.18712" lon="5.29067">
        <ele>1132.5</ele>
        <time>2026-05-14T08:24:42.999Z</time>
      </trkpt>
      <trkpt lat="44.18712" lon="5.29065">
        <ele>1133.5</ele>
        <time>2026-05-14T08:24:43.999Z</time>
      </trkpt>
      <trkpt lat="44.18712" lon="5.29065">
        <ele>1133.7</ele>
        <time>2026-05-14T08:24:44.999Z</time>
      </trkpt>
      <trkpt lat="44.18712" lon="5.29065">
        <ele>1134</ele>
        <time>2026-05-14T08:24:45.999Z</time>
      </trkpt>
      <trkpt lat="44.18712" lon="5.29064">
        <ele>1134.5</ele>
        <time>2026-05-14T08:24:46.999Z</time>
      </trkpt>
      <trkpt lat="44.18711" lon="5.29063">
        <ele>1135</ele>
        <time>2026-05-14T08:24:47.999Z</time>
      </trkpt>
      <trkpt lat="44.18711" lon="5.29062">
        <ele>1135</ele>
        <time>2026-05-14T08:24:48.999Z</time>
      </trkpt>
      <trkpt lat="44.1871" lon="5.29062">
        <ele>1135.5</ele>
        <time>2026-05-14T08:24:49.999Z</time>
      </trkpt>
      <trkpt lat="44.18709" lon="5.2906">
        <ele>1135.8</ele>
        <time>2026-05-14T08:24:50.999Z</time>
      </trkpt>
      <trkpt lat="44.18708" lon="5.29059">
        <ele>1136.1</ele>
        <time>2026-05-14T08:24:51.999Z</time>
      </trkpt>
      <trkpt lat="44.18707" lon="5.29057">
        <ele>1136.5</ele>
        <time>2026-05-14T08:24:52.999Z</time>
      </trkpt>
      <trkpt lat="44.18706" lon="5.29055">
        <ele>1136.2</ele>
        <time>2026-05-14T08:24:53.999Z</time>
      </trkpt>
      <trkpt lat="44.18706" lon="5.29054">
        <ele>1136</ele>
        <time>2026-05-14T08:24:54.999Z</time>
      </trkpt>
      <trkpt lat="44.18705" lon="5.29052">
        <ele>1136</ele>
        <time>2026-05-14T08:24:55.999Z</time>
      </trkpt>
      <trkpt lat="44.18703" lon="5.29051">
        <ele>1135.9</ele>
        <time>2026-05-14T08:24:56.999Z</time>
      </trkpt>
      <trkpt lat="44.18702" lon="5.2905">
        <ele>1135.5</ele>
        <time>2026-05-14T08:24:57.999Z</time>
      </trkpt>
      <trkpt lat="44.18701" lon="5.29049">
        <ele>1135.1</ele>
        <time>2026-05-14T08:24:58.999Z</time>
      </trkpt>
      <trkpt lat="44.18699" lon="5.29048">
        <ele>1135.5</ele>
        <time>2026-05-14T08:24:59.999Z</time>
      </trkpt>
      <trkpt lat="44.18699" lon="5.29048">
        <ele>1135.1</ele>
        <time>2026-05-14T08:25:00.999Z</time>
      </trkpt>
      <trkpt lat="44.18698" lon="5.29045">
        <ele>1136</ele>
        <time>2026-05-14T08:25:01.999Z</time>
      </trkpt>
      <trkpt lat="44.18698" lon="5.29043">
        <ele>1137.6</ele>
        <time>2026-05-14T08:25:02.999Z</time>
      </trkpt>
      <trkpt lat="44.18698" lon="5.29042">
        <ele>1139.1</ele>
        <time>2026-05-14T08:25:03.999Z</time>
      </trkpt>
      <trkpt lat="44.18698" lon="5.29041">
        <ele>1139.5</ele>
        <time>2026-05-14T08:25:04.999Z</time>
      </trkpt>
      <trkpt lat="44.18698" lon="5.29041">
        <ele>1140.2</ele>
        <time>2026-05-14T08:25:05.999Z</time>
      </trkpt>
      <trkpt lat="44.18698" lon="5.2904">
        <ele>1140.5</ele>
        <time>2026-05-14T08:25:06.999Z</time>
      </trkpt>
      <trkpt lat="44.18698" lon="5.29039">
        <ele>1140.6</ele>
        <time>2026-05-14T08:25:07.999Z</time>
      </trkpt>
      <trkpt lat="44.18697" lon="5.29039">
        <ele>1140.4</ele>
        <time>2026-05-14T08:25:08.999Z</time>
      </trkpt>
      <trkpt lat="44.18696" lon="5.29039">
        <ele>1140.3</ele>
        <time>2026-05-14T08:25:09.999Z</time>
      </trkpt>
      <trkpt lat="44.18695" lon="5.29038">
        <ele>1140.1</ele>
        <time>2026-05-14T08:25:10.999Z</time>
      </trkpt>
      <trkpt lat="44.18695" lon="5.29038">
        <ele>1140.3</ele>
        <time>2026-05-14T08:25:11.999Z</time>
      </trkpt>
      <trkpt lat="44.18695" lon="5.29038">
        <ele>1140.2</ele>
        <time>2026-05-14T08:25:12.999Z</time>
      </trkpt>
      <trkpt lat="44.18694" lon="5.29037">
        <ele>1140</ele>
        <time>2026-05-14T08:25:13.999Z</time>
      </trkpt>
      <trkpt lat="44.18693" lon="5.29036">
        <ele>1140.2</ele>
        <time>2026-05-14T08:25:14.999Z</time>
      </trkpt>
      <trkpt lat="44.18693" lon="5.29035">
        <ele>1140.6</ele>
        <time>2026-05-14T08:25:15.999Z</time>
      </trkpt>
      <trkpt lat="44.18691" lon="5.29034">
        <ele>1140.1</ele>
        <time>2026-05-14T08:25:16.999Z</time>
      </trkpt>
      <trkpt lat="44.1869" lon="5.29033">
        <ele>1139.9</ele>
        <time>2026-05-14T08:25:17.999Z</time>
      </trkpt>
      <trkpt lat="44.18688" lon="5.29032">
        <ele>1139.7</ele>
        <time>2026-05-14T08:25:18.999Z</time>
      </trkpt>
      <trkpt lat="44.18687" lon="5.29031">
        <ele>1139.4</ele>
        <time>2026-05-14T08:25:19.999Z</time>
      </trkpt>
      <trkpt lat="44.18685" lon="5.29029">
        <ele>1139</ele>
        <time>2026-05-14T08:25:20.999Z</time>
      </trkpt>
      <trkpt lat="44.18684" lon="5.29028">
        <ele>1139.4</ele>
        <time>2026-05-14T08:25:21.999Z</time>
      </trkpt>
      <trkpt lat="44.18684" lon="5.29026">
        <ele>1139.5</ele>
        <time>2026-05-14T08:25:22.999Z</time>
      </trkpt>
      <trkpt lat="44.18685" lon="5.29024">
        <ele>1140</ele>
        <time>2026-05-14T08:25:23.999Z</time>
      </trkpt>
      <trkpt lat="44.18685" lon="5.29023">
        <ele>1140.3</ele>
        <time>2026-05-14T08:25:24.999Z</time>
      </trkpt>
      <trkpt lat="44.18686" lon="5.29022">
        <ele>1141.3</ele>
        <time>2026-05-14T08:25:25.999Z</time>
      </trkpt>
      <trkpt lat="44.18686" lon="5.29021">
        <ele>1141.9</ele>
        <time>2026-05-14T08:25:26.999Z</time>
      </trkpt>
      <trkpt lat="44.18687" lon="5.29018">
        <ele>1143.4</ele>
        <time>2026-05-14T08:25:27.999Z</time>
      </trkpt>
      <trkpt lat="44.18687" lon="5.29017">
        <ele>1144.3</ele>
        <time>2026-05-14T08:25:28.999Z</time>
      </trkpt>
      <trkpt lat="44.18687" lon="5.29015">
        <ele>1144.5</ele>
        <time>2026-05-14T08:25:29.999Z</time>
      </trkpt>
      <trkpt lat="44.18687" lon="5.29014">
        <ele>1144.8</ele>
        <time>2026-05-14T08:25:30.999Z</time>
      </trkpt>
      <trkpt lat="44.18687" lon="5.29012">
        <ele>1145.2</ele>
        <time>2026-05-14T08:25:31.999Z</time>
      </trkpt>
      <trkpt lat="44.18687" lon="5.29012">
        <ele>1145.6</ele>
        <time>2026-05-14T08:25:32.999Z</time>
      </trkpt>
      <trkpt lat="44.18686" lon="5.2901">
        <ele>1145.4</ele>
        <time>2026-05-14T08:25:33.999Z</time>
      </trkpt>
      <trkpt lat="44.18686" lon="5.29008">
        <ele>1146</ele>
        <time>2026-05-14T08:25:34.999Z</time>
      </trkpt>
      <trkpt lat="44.18687" lon="5.29006">
        <ele>1146.6</ele>
        <time>2026-05-14T08:25:35.999Z</time>
      </trkpt>
      <trkpt lat="44.18687" lon="5.29005">
        <ele>1147.2</ele>
        <time>2026-05-14T08:25:36.999Z</time>
      </trkpt>
      <trkpt lat="44.18687" lon="5.29003">
        <ele>1148</ele>
        <time>2026-05-14T08:25:37.999Z</time>
      </trkpt>
      <trkpt lat="44.18687" lon="5.29001">
        <ele>1148.5</ele>
        <time>2026-05-14T08:25:38.999Z</time>
      </trkpt>
      <trkpt lat="44.18686" lon="5.29">
        <ele>1148.7</ele>
        <time>2026-05-14T08:25:39.999Z</time>
      </trkpt>
      <trkpt lat="44.18686" lon="5.28999">
        <ele>1149</ele>
        <time>2026-05-14T08:25:40.999Z</time>
      </trkpt>
      <trkpt lat="44.18685" lon="5.28998">
        <ele>1149.4</ele>
        <time>2026-05-14T08:25:41.999Z</time>
      </trkpt>
      <trkpt lat="44.18684" lon="5.28996">
        <ele>1149.2</ele>
        <time>2026-05-14T08:25:42.999Z</time>
      </trkpt>
      <trkpt lat="44.18683" lon="5.28994">
        <ele>1148.9</ele>
        <time>2026-05-14T08:25:43.999Z</time>
      </trkpt>
      <trkpt lat="44.18684" lon="5.28991">
        <ele>1149.9</ele>
        <time>2026-05-14T08:25:44.999Z</time>
      </trkpt>
      <trkpt lat="44.18684" lon="5.28988">
        <ele>1151.1</ele>
        <time>2026-05-14T08:25:45.999Z</time>
      </trkpt>
      <trkpt lat="44.18683" lon="5.28986">
        <ele>1150.6</ele>
        <time>2026-05-14T08:25:46.999Z</time>
      </trkpt>
      <trkpt lat="44.18682" lon="5.28985">
        <ele>1149.5</ele>
        <time>2026-05-14T08:25:47.999Z</time>
      </trkpt>
      <trkpt lat="44.18682" lon="5.28983">
        <ele>1150.3</ele>
        <time>2026-05-14T08:25:48.999Z</time>
      </trkpt>
      <trkpt lat="44.18682" lon="5.28981">
        <ele>1150.2</ele>
        <time>2026-05-14T08:25:49.999Z</time>
      </trkpt>
      <trkpt lat="44.18681" lon="5.28979">
        <ele>1149.6</ele>
        <time>2026-05-14T08:25:50.999Z</time>
      </trkpt>
      <trkpt lat="44.18681" lon="5.28979">
        <ele>1149.6</ele>
        <time>2026-05-14T08:25:51.999Z</time>
      </trkpt>
      <trkpt lat="44.18681" lon="5.28977">
        <ele>1149.4</ele>
        <time>2026-05-14T08:25:52.999Z</time>
      </trkpt>
      <trkpt lat="44.1868" lon="5.28975">
        <ele>1149</ele>
        <time>2026-05-14T08:25:53.999Z</time>
      </trkpt>
      <trkpt lat="44.18678" lon="5.28973">
        <ele>1148.6</ele>
        <time>2026-05-14T08:25:54.999Z</time>
      </trkpt>
      <trkpt lat="44.18678" lon="5.28972">
        <ele>1148.4</ele>
        <time>2026-05-14T08:25:55.999Z</time>
      </trkpt>
      <trkpt lat="44.18677" lon="5.28972">
        <ele>1148.9</ele>
        <time>2026-05-14T08:25:56.999Z</time>
      </trkpt>
      <trkpt lat="44.18677" lon="5.2897">
        <ele>1149.1</ele>
        <time>2026-05-14T08:25:57.999Z</time>
      </trkpt>
      <trkpt lat="44.18677" lon="5.28969">
        <ele>1150.5</ele>
        <time>2026-05-14T08:25:58.999Z</time>
      </trkpt>
      <trkpt lat="44.18676" lon="5.28968">
        <ele>1151</ele>
        <time>2026-05-14T08:25:59.999Z</time>
      </trkpt>
      <trkpt lat="44.18675" lon="5.28966">
        <ele>1151</ele>
        <time>2026-05-14T08:26:00.999Z</time>
      </trkpt>
      <trkpt lat="44.18674" lon="5.28965">
        <ele>1151.3</ele>
        <time>2026-05-14T08:26:01.999Z</time>
      </trkpt>
      <trkpt lat="44.18673" lon="5.28964">
        <ele>1151.1</ele>
        <time>2026-05-14T08:26:02.999Z</time>
      </trkpt>
      <trkpt lat="44.18672" lon="5.28963">
        <ele>1151</ele>
        <time>2026-05-14T08:26:03.999Z</time>
      </trkpt>
      <trkpt lat="44.18671" lon="5.28963">
        <ele>1151.1</ele>
        <time>2026-05-14T08:26:04.999Z</time>
      </trkpt>
      <trkpt lat="44.18671" lon="5.28962">
        <ele>1151.5</ele>
        <time>2026-05-14T08:26:05.999Z</time>
      </trkpt>
      <trkpt lat="44.18671" lon="5.28961">
        <ele>1151.5</ele>
        <time>2026-05-14T08:26:06.999Z</time>
      </trkpt>
      <trkpt lat="44.18671" lon="5.28959">
        <ele>1151.8</ele>
        <time>2026-05-14T08:26:07.999Z</time>
      </trkpt>
      <trkpt lat="44.1867" lon="5.28958">
        <ele>1151.1</ele>
        <time>2026-05-14T08:26:08.999Z</time>
      </trkpt>
      <trkpt lat="44.1867" lon="5.28957">
        <ele>1151.2</ele>
        <time>2026-05-14T08:26:09.999Z</time>
      </trkpt>
      <trkpt lat="44.18669" lon="5.28955">
        <ele>1151.4</ele>
        <time>2026-05-14T08:26:10.999Z</time>
      </trkpt>
      <trkpt lat="44.18669" lon="5.28954">
        <ele>1151.7</ele>
        <time>2026-05-14T08:26:11.999Z</time>
      </trkpt>
      <trkpt lat="44.18669" lon="5.28953">
        <ele>1151.7</ele>
        <time>2026-05-14T08:26:12.999Z</time>
      </trkpt>
      <trkpt lat="44.18669" lon="5.28952">
        <ele>1152</ele>
        <time>2026-05-14T08:26:13.999Z</time>
      </trkpt>
      <trkpt lat="44.18669" lon="5.28952">
        <ele>1152.3</ele>
        <time>2026-05-14T08:26:14.999Z</time>
      </trkpt>
      <trkpt lat="44.18668" lon="5.28952">
        <ele>1152.4</ele>
        <time>2026-05-14T08:26:15.999Z</time>
      </trkpt>
      <trkpt lat="44.18668" lon="5.28951">
        <ele>1152.4</ele>
        <time>2026-05-14T08:26:16.999Z</time>
      </trkpt>
      <trkpt lat="44.18668" lon="5.28952">
        <ele>1152.4</ele>
        <time>2026-05-14T08:26:17.999Z</time>
      </trkpt>
      <trkpt lat="44.18669" lon="5.28952">
        <ele>1153.1</ele>
        <time>2026-05-14T08:26:18.999Z</time>
      </trkpt>
      <trkpt lat="44.18668" lon="5.2895">
        <ele>1154.3</ele>
        <time>2026-05-14T08:26:19.999Z</time>
      </trkpt>
      <trkpt lat="44.18668" lon="5.28949">
        <ele>1154.6</ele>
        <time>2026-05-14T08:26:20.999Z</time>
      </trkpt>
      <trkpt lat="44.18668" lon="5.28948">
        <ele>1154.5</ele>
        <time>2026-05-14T08:26:21.999Z</time>
      </trkpt>
      <trkpt lat="44.18667" lon="5.28948">
        <ele>1154.5</ele>
        <time>2026-05-14T08:26:22.999Z</time>
      </trkpt>
      <trkpt lat="44.18666" lon="5.28947">
        <ele>1154.4</ele>
        <time>2026-05-14T08:26:23.999Z</time>
      </trkpt>
      <trkpt lat="44.18666" lon="5.28947">
        <ele>1154.2</ele>
        <time>2026-05-14T08:26:24.999Z</time>
      </trkpt>
      <trkpt lat="44.18665" lon="5.28946">
        <ele>1154</ele>
        <time>2026-05-14T08:26:25.999Z</time>
      </trkpt>
      <trkpt lat="44.18664" lon="5.28945">
        <ele>1154</ele>
        <time>2026-05-14T08:26:26.999Z</time>
      </trkpt>
      <trkpt lat="44.18664" lon="5.28944">
        <ele>1154.2</ele>
        <time>2026-05-14T08:26:27.999Z</time>
      </trkpt>
      <trkpt lat="44.18663" lon="5.28943">
        <ele>1154.5</ele>
        <time>2026-05-14T08:26:28.999Z</time>
      </trkpt>
      <trkpt lat="44.18663" lon="5.28943">
        <ele>1154.5</ele>
        <time>2026-05-14T08:26:29.999Z</time>
      </trkpt>
      <trkpt lat="44.18662" lon="5.28941">
        <ele>1154.2</ele>
        <time>2026-05-14T08:26:30.999Z</time>
      </trkpt>
      <trkpt lat="44.18661" lon="5.2894">
        <ele>1153.6</ele>
        <time>2026-05-14T08:26:31.999Z</time>
      </trkpt>
      <trkpt lat="44.18661" lon="5.28939">
        <ele>1153.8</ele>
        <time>2026-05-14T08:26:32.999Z</time>
      </trkpt>
      <trkpt lat="44.1866" lon="5.28939">
        <ele>1153.9</ele>
        <time>2026-05-14T08:26:33.999Z</time>
      </trkpt>
      <trkpt lat="44.18659" lon="5.28937">
        <ele>1154</ele>
        <time>2026-05-14T08:26:34.999Z</time>
      </trkpt>
      <trkpt lat="44.18658" lon="5.28936">
        <ele>1154.1</ele>
        <time>2026-05-14T08:26:35.999Z</time>
      </trkpt>
      <trkpt lat="44.18657" lon="5.28934">
        <ele>1154.9</ele>
        <time>2026-05-14T08:26:36.999Z</time>
      </trkpt>
      <trkpt lat="44.18656" lon="5.28934">
        <ele>1155</ele>
        <time>2026-05-14T08:26:37.999Z</time>
      </trkpt>
      <trkpt lat="44.18656" lon="5.28933">
        <ele>1154.8</ele>
        <time>2026-05-14T08:26:38.999Z</time>
      </trkpt>
      <trkpt lat="44.18656" lon="5.28933">
        <ele>1154.5</ele>
        <time>2026-05-14T08:26:39.999Z</time>
      </trkpt>
      <trkpt lat="44.18655" lon="5.28932">
        <ele>1154.1</ele>
        <time>2026-05-14T08:26:40.999Z</time>
      </trkpt>
      <trkpt lat="44.18654" lon="5.28931">
        <ele>1154</ele>
        <time>2026-05-14T08:26:41.999Z</time>
      </trkpt>
      <trkpt lat="44.18654" lon="5.2893">
        <ele>1153.7</ele>
        <time>2026-05-14T08:26:42.999Z</time>
      </trkpt>
      <trkpt lat="44.18653" lon="5.28929">
        <ele>1153.1</ele>
        <time>2026-05-14T08:26:43.999Z</time>
      </trkpt>
      <trkpt lat="44.18652" lon="5.28929">
        <ele>1152.4</ele>
        <time>2026-05-14T08:26:44.999Z</time>
      </trkpt>
      <trkpt lat="44.18651" lon="5.28928">
        <ele>1152.2</ele>
        <time>2026-05-14T08:26:45.999Z</time>
      </trkpt>
      <trkpt lat="44.18651" lon="5.28928">
        <ele>1152.1</ele>
        <time>2026-05-14T08:26:46.999Z</time>
      </trkpt>
      <trkpt lat="44.1865" lon="5.28928">
        <ele>1151.8</ele>
        <time>2026-05-14T08:26:47.999Z</time>
      </trkpt>
      <trkpt lat="44.1865" lon="5.28928">
        <ele>1152.2</ele>
        <time>2026-05-14T08:26:48.999Z</time>
      </trkpt>
      <trkpt lat="44.1865" lon="5.28928">
        <ele>1152</ele>
        <time>2026-05-14T08:26:49.999Z</time>
      </trkpt>
      <trkpt lat="44.18649" lon="5.28928">
        <ele>1151.8</ele>
        <time>2026-05-14T08:26:50.999Z</time>
      </trkpt>
      <trkpt lat="44.18648" lon="5.28928">
        <ele>1151.4</ele>
        <time>2026-05-14T08:26:51.999Z</time>
      </trkpt>
      <trkpt lat="44.18647" lon="5.28927">
        <ele>1151</ele>
        <time>2026-05-14T08:26:52.999Z</time>
      </trkpt>
      <trkpt lat="44.18646" lon="5.28926">
        <ele>1150.5</ele>
        <time>2026-05-14T08:26:53.999Z</time>
      </trkpt>
      <trkpt lat="44.18645" lon="5.28926">
        <ele>1150.3</ele>
        <time>2026-05-14T08:26:54.999Z</time>
      </trkpt>
      <trkpt lat="44.18644" lon="5.28925">
        <ele>1150.1</ele>
        <time>2026-05-14T08:26:55.999Z</time>
      </trkpt>
      <trkpt lat="44.18643" lon="5.28924">
        <ele>1149.6</ele>
        <time>2026-05-14T08:26:56.999Z</time>
      </trkpt>
      <trkpt lat="44.18643" lon="5.28924">
        <ele>1149.5</ele>
        <time>2026-05-14T08:26:57.999Z</time>
      </trkpt>
      <trkpt lat="44.18643" lon="5.28923">
        <ele>1149.5</ele>
        <time>2026-05-14T08:26:58.999Z</time>
      </trkpt>
      <trkpt lat="44.18643" lon="5.28923">
        <ele>1149.4</ele>
        <time>2026-05-14T08:26:59.999Z</time>
      </trkpt>
      <trkpt lat="44.18642" lon="5.28921">
        <ele>1149.2</ele>
        <time>2026-05-14T08:27:00.999Z</time>
      </trkpt>
      <trkpt lat="44.18642" lon="5.28921">
        <ele>1149.2</ele>
        <time>2026-05-14T08:27:01.999Z</time>
      </trkpt>
      <trkpt lat="44.18642" lon="5.28921">
        <ele>1149.2</ele>
        <time>2026-05-14T08:27:02.999Z</time>
      </trkpt>
      <trkpt lat="44.18642" lon="5.2892">
        <ele>1149.4</ele>
        <time>2026-05-14T08:27:03.999Z</time>
      </trkpt>
      <trkpt lat="44.18641" lon="5.28918">
        <ele>1150</ele>
        <time>2026-05-14T08:27:04.999Z</time>
      </trkpt>
      <trkpt lat="44.1864" lon="5.28917">
        <ele>1150.2</ele>
        <time>2026-05-14T08:27:05.999Z</time>
      </trkpt>
      <trkpt lat="44.18638" lon="5.28915">
        <ele>1149.8</ele>
        <time>2026-05-14T08:27:06.999Z</time>
      </trkpt>
      <trkpt lat="44.18637" lon="5.28913">
        <ele>1149.3</ele>
        <time>2026-05-14T08:27:07.999Z</time>
      </trkpt>
      <trkpt lat="44.18636" lon="5.28913">
        <ele>1148.7</ele>
        <time>2026-05-14T08:27:08.999Z</time>
      </trkpt>
      <trkpt lat="44.18635" lon="5.28912">
        <ele>1148.9</ele>
        <time>2026-05-14T08:27:09.999Z</time>
      </trkpt>
      <trkpt lat="44.18634" lon="5.28911">
        <ele>1149</ele>
        <time>2026-05-14T08:27:10.999Z</time>
      </trkpt>
      <trkpt lat="44.18633" lon="5.28912">
        <ele>1148.4</ele>
        <time>2026-05-14T08:27:11.999Z</time>
      </trkpt>
      <trkpt lat="44.18632" lon="5.28912">
        <ele>1148.6</ele>
        <time>2026-05-14T08:27:12.999Z</time>
      </trkpt>
      <trkpt lat="44.18632" lon="5.28912">
        <ele>1148.8</ele>
        <time>2026-05-14T08:27:13.999Z</time>
      </trkpt>
      <trkpt lat="44.1863" lon="5.28911">
        <ele>1149</ele>
        <time>2026-05-14T08:27:14.999Z</time>
      </trkpt>
      <trkpt lat="44.18629" lon="5.28909">
        <ele>1149.4</ele>
        <time>2026-05-14T08:27:15.999Z</time>
      </trkpt>
      <trkpt lat="44.18629" lon="5.28909">
        <ele>1149.4</ele>
        <time>2026-05-14T08:27:16.999Z</time>
      </trkpt>
      <trkpt lat="44.18628" lon="5.28908">
        <ele>1150.1</ele>
        <time>2026-05-14T08:27:17.999Z</time>
      </trkpt>
      <trkpt lat="44.18627" lon="5.28907">
        <ele>1150.1</ele>
        <time>2026-05-14T08:27:18.999Z</time>
      </trkpt>
      <trkpt lat="44.18626" lon="5.28907">
        <ele>1149.8</ele>
        <time>2026-05-14T08:27:19.999Z</time>
      </trkpt>
      <trkpt lat="44.18626" lon="5.28906">
        <ele>1150.2</ele>
        <time>2026-05-14T08:27:20.999Z</time>
      </trkpt>
      <trkpt lat="44.18625" lon="5.28906">
        <ele>1149.9</ele>
        <time>2026-05-14T08:27:21.999Z</time>
      </trkpt>
      <trkpt lat="44.18624" lon="5.28905">
        <ele>1149.8</ele>
        <time>2026-05-14T08:27:22.999Z</time>
      </trkpt>
      <trkpt lat="44.18623" lon="5.28904">
        <ele>1149.9</ele>
        <time>2026-05-14T08:27:23.999Z</time>
      </trkpt>
      <trkpt lat="44.18622" lon="5.28904">
        <ele>1149.9</ele>
        <time>2026-05-14T08:27:24.999Z</time>
      </trkpt>
      <trkpt lat="44.1862" lon="5.28902">
        <ele>1150.5</ele>
        <time>2026-05-14T08:27:25.999Z</time>
      </trkpt>
      <trkpt lat="44.18619" lon="5.28901">
        <ele>1150.8</ele>
        <time>2026-05-14T08:27:26.999Z</time>
      </trkpt>
      <trkpt lat="44.18619" lon="5.28898">
        <ele>1151.5</ele>
        <time>2026-05-14T08:27:27.999Z</time>
      </trkpt>
      <trkpt lat="44.18618" lon="5.28898">
        <ele>1152.2</ele>
        <time>2026-05-14T08:27:28.999Z</time>
      </trkpt>
      <trkpt lat="44.18617" lon="5.28896">
        <ele>1152.8</ele>
        <time>2026-05-14T08:27:29.999Z</time>
      </trkpt>
      <trkpt lat="44.18617" lon="5.28896">
        <ele>1153.5</ele>
        <time>2026-05-14T08:27:30.999Z</time>
      </trkpt>
      <trkpt lat="44.18617" lon="5.28896">
        <ele>1153.7</ele>
        <time>2026-05-14T08:27:31.999Z</time>
      </trkpt>
      <trkpt lat="44.18617" lon="5.28895">
        <ele>1154.3</ele>
        <time>2026-05-14T08:27:32.999Z</time>
      </trkpt>
      <trkpt lat="44.18616" lon="5.28894">
        <ele>1154.9</ele>
        <time>2026-05-14T08:27:33.999Z</time>
      </trkpt>
      <trkpt lat="44.18615" lon="5.28892">
        <ele>1154.7</ele>
        <time>2026-05-14T08:27:34.999Z</time>
      </trkpt>
      <trkpt lat="44.18613" lon="5.28891">
        <ele>1154.4</ele>
        <time>2026-05-14T08:27:35.999Z</time>
      </trkpt>
      <trkpt lat="44.18613" lon="5.28891">
        <ele>1153.6</ele>
        <time>2026-05-14T08:27:36.999Z</time>
      </trkpt>
      <trkpt lat="44.18612" lon="5.2889">
        <ele>1154.9</ele>
        <time>2026-05-14T08:27:37.999Z</time>
      </trkpt>
      <trkpt lat="44.18612" lon="5.2889">
        <ele>1155</ele>
        <time>2026-05-14T08:27:38.999Z</time>
      </trkpt>
      <trkpt lat="44.18611" lon="5.28889">
        <ele>1155.5</ele>
        <time>2026-05-14T08:27:39.999Z</time>
      </trkpt>
      <trkpt lat="44.1861" lon="5.28889">
        <ele>1155.4</ele>
        <time>2026-05-14T08:27:40.999Z</time>
      </trkpt>
      <trkpt lat="44.1861" lon="5.28889">
        <ele>1155.4</ele>
        <time>2026-05-14T08:27:41.999Z</time>
      </trkpt>
      <trkpt lat="44.18608" lon="5.2889">
        <ele>1155.2</ele>
        <time>2026-05-14T08:27:42.999Z</time>
      </trkpt>
      <trkpt lat="44.18607" lon="5.2889">
        <ele>1155.3</ele>
        <time>2026-05-14T08:27:43.999Z</time>
      </trkpt>
      <trkpt lat="44.18606" lon="5.2889">
        <ele>1155.4</ele>
        <time>2026-05-14T08:27:44.999Z</time>
      </trkpt>
      <trkpt lat="44.18605" lon="5.28888">
        <ele>1155.2</ele>
        <time>2026-05-14T08:27:45.999Z</time>
      </trkpt>
      <trkpt lat="44.18604" lon="5.28887">
        <ele>1154.9</ele>
        <time>2026-05-14T08:27:46.999Z</time>
      </trkpt>
      <trkpt lat="44.18603" lon="5.28887">
        <ele>1154.7</ele>
        <time>2026-05-14T08:27:47.999Z</time>
      </trkpt>
      <trkpt lat="44.18602" lon="5.28886">
        <ele>1154.2</ele>
        <time>2026-05-14T08:27:48.999Z</time>
      </trkpt>
      <trkpt lat="44.18602" lon="5.28886">
        <ele>1154.4</ele>
        <time>2026-05-14T08:27:49.999Z</time>
      </trkpt>
      <trkpt lat="44.18602" lon="5.28885">
        <ele>1155.1</ele>
        <time>2026-05-14T08:27:50.999Z</time>
      </trkpt>
      <trkpt lat="44.18601" lon="5.28885">
        <ele>1155.1</ele>
        <time>2026-05-14T08:27:51.999Z</time>
      </trkpt>
      <trkpt lat="44.186" lon="5.28884">
        <ele>1154.3</ele>
        <time>2026-05-14T08:27:52.999Z</time>
      </trkpt>
      <trkpt lat="44.18599" lon="5.28883">
        <ele>1154.4</ele>
        <time>2026-05-14T08:27:53.999Z</time>
      </trkpt>
      <trkpt lat="44.18599" lon="5.28883">
        <ele>1154.2</ele>
        <time>2026-05-14T08:27:54.999Z</time>
      </trkpt>
      <trkpt lat="44.18598" lon="5.28881">
        <ele>1154.5</ele>
        <time>2026-05-14T08:27:55.999Z</time>
      </trkpt>
      <trkpt lat="44.18596" lon="5.28879">
        <ele>1155</ele>
        <time>2026-05-14T08:27:56.999Z</time>
      </trkpt>
      <trkpt lat="44.18595" lon="5.28876">
        <ele>1156</ele>
        <time>2026-05-14T08:27:57.999Z</time>
      </trkpt>
      <trkpt lat="44.18594" lon="5.28876">
        <ele>1155.4</ele>
        <time>2026-05-14T08:27:58.999Z</time>
      </trkpt>
      <trkpt lat="44.18592" lon="5.28875">
        <ele>1155.2</ele>
        <time>2026-05-14T08:27:59.999Z</time>
      </trkpt>
      <trkpt lat="44.18591" lon="5.28873">
        <ele>1156.1</ele>
        <time>2026-05-14T08:28:00.999Z</time>
      </trkpt>
      <trkpt lat="44.1859" lon="5.28872">
        <ele>1157.1</ele>
        <time>2026-05-14T08:28:01.999Z</time>
      </trkpt>
      <trkpt lat="44.18589" lon="5.28872">
        <ele>1157.3</ele>
        <time>2026-05-14T08:28:02.999Z</time>
      </trkpt>
      <trkpt lat="44.18589" lon="5.28872">
        <ele>1159</ele>
        <time>2026-05-14T08:28:03.999Z</time>
      </trkpt>
      <trkpt lat="44.18589" lon="5.28871">
        <ele>1160.9</ele>
        <time>2026-05-14T08:28:04.999Z</time>
      </trkpt>
      <trkpt lat="44.18588" lon="5.2887">
        <ele>1162.1</ele>
        <time>2026-05-14T08:28:05.999Z</time>
      </trkpt>
      <trkpt lat="44.18587" lon="5.28869">
        <ele>1163</ele>
        <time>2026-05-14T08:28:06.999Z</time>
      </trkpt>
      <trkpt lat="44.18587" lon="5.28869">
        <ele>1163.1</ele>
        <time>2026-05-14T08:28:07.999Z</time>
      </trkpt>
      <trkpt lat="44.18586" lon="5.28869">
        <ele>1163</ele>
        <time>2026-05-14T08:28:08.999Z</time>
      </trkpt>
      <trkpt lat="44.18585" lon="5.28869">
        <ele>1163.3</ele>
        <time>2026-05-14T08:28:09.999Z</time>
      </trkpt>
      <trkpt lat="44.18584" lon="5.28868">
        <ele>1162.9</ele>
        <time>2026-05-14T08:28:10.999Z</time>
      </trkpt>
      <trkpt lat="44.18583" lon="5.28868">
        <ele>1162.7</ele>
        <time>2026-05-14T08:28:11.999Z</time>
      </trkpt>
      <trkpt lat="44.18582" lon="5.28868">
        <ele>1162.4</ele>
        <time>2026-05-14T08:28:12.999Z</time>
      </trkpt>
      <trkpt lat="44.18582" lon="5.28867">
        <ele>1163.3</ele>
        <time>2026-05-14T08:28:13.999Z</time>
      </trkpt>
      <trkpt lat="44.18581" lon="5.28866">
        <ele>1164</ele>
        <time>2026-05-14T08:28:14.999Z</time>
      </trkpt>
      <trkpt lat="44.1858" lon="5.28865">
        <ele>1164.8</ele>
        <time>2026-05-14T08:28:16.000Z</time>
      </trkpt>
      <trkpt lat="44.18579" lon="5.28864">
        <ele>1165.5</ele>
        <time>2026-05-14T08:28:17.000Z</time>
      </trkpt>
      <trkpt lat="44.18578" lon="5.28863">
        <ele>1166.1</ele>
        <time>2026-05-14T08:28:18.000Z</time>
      </trkpt>
      <trkpt lat="44.18577" lon="5.28864">
        <ele>1166.3</ele>
        <time>2026-05-14T08:28:19.000Z</time>
      </trkpt>
      <trkpt lat="44.18577" lon="5.28863">
        <ele>1166.1</ele>
        <time>2026-05-14T08:28:20.000Z</time>
      </trkpt>
      <trkpt lat="44.18576" lon="5.28862">
        <ele>1166.3</ele>
        <time>2026-05-14T08:28:21.000Z</time>
      </trkpt>
      <trkpt lat="44.18575" lon="5.28862">
        <ele>1166.4</ele>
        <time>2026-05-14T08:28:22.000Z</time>
      </trkpt>
      <trkpt lat="44.18574" lon="5.2886">
        <ele>1166</ele>
        <time>2026-05-14T08:28:23.000Z</time>
      </trkpt>
      <trkpt lat="44.18573" lon="5.28859">
        <ele>1165.2</ele>
        <time>2026-05-14T08:28:24.000Z</time>
      </trkpt>
      <trkpt lat="44.18572" lon="5.28858">
        <ele>1165.5</ele>
        <time>2026-05-14T08:28:25.000Z</time>
      </trkpt>
      <trkpt lat="44.18572" lon="5.28857">
        <ele>1165.5</ele>
        <time>2026-05-14T08:28:26.000Z</time>
      </trkpt>
      <trkpt lat="44.18571" lon="5.28856">
        <ele>1166</ele>
        <time>2026-05-14T08:28:27.000Z</time>
      </trkpt>
      <trkpt lat="44.1857" lon="5.28854">
        <ele>1166.8</ele>
        <time>2026-05-14T08:28:28.000Z</time>
      </trkpt>
      <trkpt lat="44.1857" lon="5.28853">
        <ele>1168</ele>
        <time>2026-05-14T08:28:29.000Z</time>
      </trkpt>
      <trkpt lat="44.1857" lon="5.28852">
        <ele>1168.9</ele>
        <time>2026-05-14T08:28:30.000Z</time>
      </trkpt>
      <trkpt lat="44.18569" lon="5.28849">
        <ele>1171</ele>
        <time>2026-05-14T08:28:31.000Z</time>
      </trkpt>
      <trkpt lat="44.18569" lon="5.28847">
        <ele>1172.2</ele>
        <time>2026-05-14T08:28:32.000Z</time>
      </trkpt>
      <trkpt lat="44.18568" lon="5.28846">
        <ele>1172.6</ele>
        <time>2026-05-14T08:28:33.000Z</time>
      </trkpt>
      <trkpt lat="44.18567" lon="5.28845">
        <ele>1172.3</ele>
        <time>2026-05-14T08:28:34.000Z</time>
      </trkpt>
      <trkpt lat="44.18567" lon="5.28844">
        <ele>1172.2</ele>
        <time>2026-05-14T08:28:35.000Z</time>
      </trkpt>
      <trkpt lat="44.18566" lon="5.28842">
        <ele>1172.6</ele>
        <time>2026-05-14T08:28:36.000Z</time>
      </trkpt>
      <trkpt lat="44.18566" lon="5.2884">
        <ele>1173.1</ele>
        <time>2026-05-14T08:28:37.000Z</time>
      </trkpt>
      <trkpt lat="44.18565" lon="5.28839">
        <ele>1172.6</ele>
        <time>2026-05-14T08:28:38.000Z</time>
      </trkpt>
      <trkpt lat="44.18565" lon="5.28837">
        <ele>1173.4</ele>
        <time>2026-05-14T08:28:39.000Z</time>
      </trkpt>
      <trkpt lat="44.18564" lon="5.28835">
        <ele>1174</ele>
        <time>2026-05-14T08:28:40.000Z</time>
      </trkpt>
      <trkpt lat="44.18564" lon="5.28833">
        <ele>1174.3</ele>
        <time>2026-05-14T08:28:41.000Z</time>
      </trkpt>
      <trkpt lat="44.18564" lon="5.28833">
        <ele>1175</ele>
        <time>2026-05-14T08:28:42.000Z</time>
      </trkpt>
      <trkpt lat="44.18564" lon="5.28832">
        <ele>1175.4</ele>
        <time>2026-05-14T08:28:43.000Z</time>
      </trkpt>
      <trkpt lat="44.18564" lon="5.28831">
        <ele>1175.8</ele>
        <time>2026-05-14T08:28:44.000Z</time>
      </trkpt>
      <trkpt lat="44.18565" lon="5.28831">
        <ele>1176.4</ele>
        <time>2026-05-14T08:28:45.000Z</time>
      </trkpt>
      <trkpt lat="44.18565" lon="5.28829">
        <ele>1176.8</ele>
        <time>2026-05-14T08:28:46.000Z</time>
      </trkpt>
      <trkpt lat="44.18565" lon="5.28828">
        <ele>1176.5</ele>
        <time>2026-05-14T08:28:47.000Z</time>
      </trkpt>
      <trkpt lat="44.18565" lon="5.28826">
        <ele>1177.3</ele>
        <time>2026-05-14T08:28:48.000Z</time>
      </trkpt>
      <trkpt lat="44.18565" lon="5.28825">
        <ele>1177.6</ele>
        <time>2026-05-14T08:28:49.000Z</time>
      </trkpt>
      <trkpt lat="44.18565" lon="5.28824">
        <ele>1177.6</ele>
        <time>2026-05-14T08:28:50.000Z</time>
      </trkpt>
      <trkpt lat="44.18565" lon="5.28823">
        <ele>1177.4</ele>
        <time>2026-05-14T08:28:51.000Z</time>
      </trkpt>
      <trkpt lat="44.18566" lon="5.28822">
        <ele>1177.4</ele>
        <time>2026-05-14T08:28:52.000Z</time>
      </trkpt>
      <trkpt lat="44.18567" lon="5.2882">
        <ele>1178</ele>
        <time>2026-05-14T08:28:53.000Z</time>
      </trkpt>
      <trkpt lat="44.18568" lon="5.28819">
        <ele>1178.9</ele>
        <time>2026-05-14T08:28:54.000Z</time>
      </trkpt>
      <trkpt lat="44.18568" lon="5.28817">
        <ele>1179</ele>
        <time>2026-05-14T08:28:55.000Z</time>
      </trkpt>
      <trkpt lat="44.18568" lon="5.28816">
        <ele>1179</ele>
        <time>2026-05-14T08:28:56.000Z</time>
      </trkpt>
      <trkpt lat="44.18568" lon="5.28815">
        <ele>1179</ele>
        <time>2026-05-14T08:28:57.000Z</time>
      </trkpt>
      <trkpt lat="44.18568" lon="5.28813">
        <ele>1179.2</ele>
        <time>2026-05-14T08:28:58.000Z</time>
      </trkpt>
      <trkpt lat="44.18568" lon="5.28811">
        <ele>1179.2</ele>
        <time>2026-05-14T08:28:59.000Z</time>
      </trkpt>
      <trkpt lat="44.18567" lon="5.2881">
        <ele>1179.4</ele>
        <time>2026-05-14T08:29:00.000Z</time>
      </trkpt>
      <trkpt lat="44.18567" lon="5.28809">
        <ele>1179.3</ele>
        <time>2026-05-14T08:29:01.000Z</time>
      </trkpt>
      <trkpt lat="44.18567" lon="5.28808">
        <ele>1179.4</ele>
        <time>2026-05-14T08:29:02.000Z</time>
      </trkpt>
      <trkpt lat="44.18567" lon="5.28807">
        <ele>1179.4</ele>
        <time>2026-05-14T08:29:03.000Z</time>
      </trkpt>
      <trkpt lat="44.18566" lon="5.28806">
        <ele>1179.4</ele>
        <time>2026-05-14T08:29:04.000Z</time>
      </trkpt>
      <trkpt lat="44.18566" lon="5.28804">
        <ele>1178.3</ele>
        <time>2026-05-14T08:29:05.000Z</time>
      </trkpt>
      <trkpt lat="44.18565" lon="5.28803">
        <ele>1177.5</ele>
        <time>2026-05-14T08:29:06.000Z</time>
      </trkpt>
      <trkpt lat="44.18565" lon="5.28802">
        <ele>1177.2</ele>
        <time>2026-05-14T08:29:07.000Z</time>
      </trkpt>
      <trkpt lat="44.18566" lon="5.28802">
        <ele>1177.6</ele>
        <time>2026-05-14T08:29:08.000Z</time>
      </trkpt>
      <trkpt lat="44.18566" lon="5.28801">
        <ele>1178.4</ele>
        <time>2026-05-14T08:29:09.000Z</time>
      </trkpt>
      <trkpt lat="44.18566" lon="5.288">
        <ele>1179</ele>
        <time>2026-05-14T08:29:10.000Z</time>
      </trkpt>
      <trkpt lat="44.18567" lon="5.28799">
        <ele>1179.2</ele>
        <time>2026-05-14T08:29:11.000Z</time>
      </trkpt>
      <trkpt lat="44.18567" lon="5.28798">
        <ele>1179</ele>
        <time>2026-05-14T08:29:12.000Z</time>
      </trkpt>
      <trkpt lat="44.18567" lon="5.28796">
        <ele>1179.2</ele>
        <time>2026-05-14T08:29:13.000Z</time>
      </trkpt>
      <trkpt lat="44.18568" lon="5.28794">
        <ele>1179.5</ele>
        <time>2026-05-14T08:29:14.000Z</time>
      </trkpt>
      <trkpt lat="44.18569" lon="5.28793">
        <ele>1179.5</ele>
        <time>2026-05-14T08:29:15.000Z</time>
      </trkpt>
      <trkpt lat="44.18569" lon="5.28792">
        <ele>1180</ele>
        <time>2026-05-14T08:29:16.000Z</time>
      </trkpt>
      <trkpt lat="44.1857" lon="5.2879">
        <ele>1180.4</ele>
        <time>2026-05-14T08:29:17.000Z</time>
      </trkpt>
      <trkpt lat="44.18571" lon="5.28789">
        <ele>1181</ele>
        <time>2026-05-14T08:29:18.000Z</time>
      </trkpt>
      <trkpt lat="44.18571" lon="5.28787">
        <ele>1181.1</ele>
        <time>2026-05-14T08:29:19.000Z</time>
      </trkpt>
      <trkpt lat="44.18572" lon="5.28787">
        <ele>1182.2</ele>
        <time>2026-05-14T08:29:20.000Z</time>
      </trkpt>
      <trkpt lat="44.18572" lon="5.28784">
        <ele>1182.2</ele>
        <time>2026-05-14T08:29:21.000Z</time>
      </trkpt>
      <trkpt lat="44.18572" lon="5.28782">
        <ele>1182.8</ele>
        <time>2026-05-14T08:29:22.000Z</time>
      </trkpt>
      <trkpt lat="44.18573" lon="5.28781">
        <ele>1183.2</ele>
        <time>2026-05-14T08:29:23.000Z</time>
      </trkpt>
      <trkpt lat="44.18574" lon="5.2878">
        <ele>1183.6</ele>
        <time>2026-05-14T08:29:24.000Z</time>
      </trkpt>
      <trkpt lat="44.18574" lon="5.28779">
        <ele>1184</ele>
        <time>2026-05-14T08:29:25.000Z</time>
      </trkpt>
      <trkpt lat="44.18575" lon="5.28777">
        <ele>1183.4</ele>
        <time>2026-05-14T08:29:26.000Z</time>
      </trkpt>
      <trkpt lat="44.18575" lon="5.28777">
        <ele>1183.3</ele>
        <time>2026-05-14T08:29:27.000Z</time>
      </trkpt>
      <trkpt lat="44.18575" lon="5.28775">
        <ele>1183.9</ele>
        <time>2026-05-14T08:29:28.000Z</time>
      </trkpt>
      <trkpt lat="44.18574" lon="5.28774">
        <ele>1183.9</ele>
        <time>2026-05-14T08:29:29.000Z</time>
      </trkpt>
      <trkpt lat="44.18575" lon="5.28773">
        <ele>1183.8</ele>
        <time>2026-05-14T08:29:30.000Z</time>
      </trkpt>
      <trkpt lat="44.18575" lon="5.28772">
        <ele>1183.8</ele>
        <time>2026-05-14T08:29:31.000Z</time>
      </trkpt>
      <trkpt lat="44.18575" lon="5.2877">
        <ele>1183.9</ele>
        <time>2026-05-14T08:29:32.000Z</time>
      </trkpt>
      <trkpt lat="44.18576" lon="5.28769">
        <ele>1183.7</ele>
        <time>2026-05-14T08:29:33.000Z</time>
      </trkpt>
      <trkpt lat="44.18576" lon="5.28769">
        <ele>1183.6</ele>
        <time>2026-05-14T08:29:34.000Z</time>
      </trkpt>
      <trkpt lat="44.18577" lon="5.28768">
        <ele>1183.6</ele>
        <time>2026-05-14T08:29:35.000Z</time>
      </trkpt>
      <trkpt lat="44.18578" lon="5.28766">
        <ele>1183.3</ele>
        <time>2026-05-14T08:29:36.000Z</time>
      </trkpt>
      <trkpt lat="44.18579" lon="5.28764">
        <ele>1183.2</ele>
        <time>2026-05-14T08:29:37.000Z</time>
      </trkpt>
      <trkpt lat="44.18579" lon="5.28762">
        <ele>1183</ele>
        <time>2026-05-14T08:29:38.000Z</time>
      </trkpt>
      <trkpt lat="44.18579" lon="5.28761">
        <ele>1182.8</ele>
        <time>2026-05-14T08:29:39.000Z</time>
      </trkpt>
      <trkpt lat="44.18579" lon="5.2876">
        <ele>1183.1</ele>
        <time>2026-05-14T08:29:40.000Z</time>
      </trkpt>
      <trkpt lat="44.18579" lon="5.28759">
        <ele>1183.3</ele>
        <time>2026-05-14T08:29:41.000Z</time>
      </trkpt>
      <trkpt lat="44.18579" lon="5.28758">
        <ele>1183.8</ele>
        <time>2026-05-14T08:29:42.000Z</time>
      </trkpt>
      <trkpt lat="44.1858" lon="5.28757">
        <ele>1184.2</ele>
        <time>2026-05-14T08:29:43.000Z</time>
      </trkpt>
      <trkpt lat="44.1858" lon="5.28755">
        <ele>1184.9</ele>
        <time>2026-05-14T08:29:44.000Z</time>
      </trkpt>
      <trkpt lat="44.18581" lon="5.28754">
        <ele>1185</ele>
        <time>2026-05-14T08:29:45.000Z</time>
      </trkpt>
      <trkpt lat="44.1858" lon="5.28753">
        <ele>1185.2</ele>
        <time>2026-05-14T08:29:46.000Z</time>
      </trkpt>
      <trkpt lat="44.1858" lon="5.28751">
        <ele>1184.8</ele>
        <time>2026-05-14T08:29:47.000Z</time>
      </trkpt>
      <trkpt lat="44.1858" lon="5.2875">
        <ele>1185</ele>
        <time>2026-05-14T08:29:48.000Z</time>
      </trkpt>
      <trkpt lat="44.1858" lon="5.28749">
        <ele>1185.5</ele>
        <time>2026-05-14T08:29:49.000Z</time>
      </trkpt>
      <trkpt lat="44.1858" lon="5.28748">
        <ele>1186.3</ele>
        <time>2026-05-14T08:29:50.000Z</time>
      </trkpt>
      <trkpt lat="44.18581" lon="5.28748">
        <ele>1187.1</ele>
        <time>2026-05-14T08:29:51.000Z</time>
      </trkpt>
      <trkpt lat="44.18581" lon="5.28749">
        <ele>1187.9</ele>
        <time>2026-05-14T08:29:52.000Z</time>
      </trkpt>
      <trkpt lat="44.18582" lon="5.28748">
        <ele>1188.4</ele>
        <time>2026-05-14T08:29:53.000Z</time>
      </trkpt>
      <trkpt lat="44.18583" lon="5.28747">
        <ele>1188.8</ele>
        <time>2026-05-14T08:29:54.000Z</time>
      </trkpt>
      <trkpt lat="44.18584" lon="5.28746">
        <ele>1189</ele>
        <time>2026-05-14T08:29:55.000Z</time>
      </trkpt>
      <trkpt lat="44.18585" lon="5.28745">
        <ele>1188.9</ele>
        <time>2026-05-14T08:29:56.000Z</time>
      </trkpt>
      <trkpt lat="44.18585" lon="5.28745">
        <ele>1188.8</ele>
        <time>2026-05-14T08:29:57.000Z</time>
      </trkpt>
      <trkpt lat="44.18585" lon="5.28744">
        <ele>1188.7</ele>
        <time>2026-05-14T08:29:58.000Z</time>
      </trkpt>
      <trkpt lat="44.18586" lon="5.28744">
        <ele>1189.4</ele>
        <time>2026-05-14T08:29:59.000Z</time>
      </trkpt>
      <trkpt lat="44.18587" lon="5.28742">
        <ele>1189.5</ele>
        <time>2026-05-14T08:30:00.000Z</time>
      </trkpt>
      <trkpt lat="44.18588" lon="5.28741">
        <ele>1189.6</ele>
        <time>2026-05-14T08:30:01.000Z</time>
      </trkpt>
      <trkpt lat="44.1859" lon="5.28739">
        <ele>1189.9</ele>
        <time>2026-05-14T08:30:02.000Z</time>
      </trkpt>
      <trkpt lat="44.18591" lon="5.28737">
        <ele>1190.1</ele>
        <time>2026-05-14T08:30:03.000Z</time>
      </trkpt>
      <trkpt lat="44.18591" lon="5.28735">
        <ele>1190.3</ele>
        <time>2026-05-14T08:30:04.000Z</time>
      </trkpt>
      <trkpt lat="44.18591" lon="5.28734">
        <ele>1190.8</ele>
        <time>2026-05-14T08:30:05.000Z</time>
      </trkpt>
      <trkpt lat="44.18591" lon="5.28732">
        <ele>1191.4</ele>
        <time>2026-05-14T08:30:06.000Z</time>
      </trkpt>
      <trkpt lat="44.18591" lon="5.28731">
        <ele>1191.8</ele>
        <time>2026-05-14T08:30:07.000Z</time>
      </trkpt>
      <trkpt lat="44.18592" lon="5.28731">
        <ele>1191.5</ele>
        <time>2026-05-14T08:30:08.000Z</time>
      </trkpt>
      <trkpt lat="44.18592" lon="5.28729">
        <ele>1191</ele>
        <time>2026-05-14T08:30:09.000Z</time>
      </trkpt>
      <trkpt lat="44.18593" lon="5.28728">
        <ele>1190.9</ele>
        <time>2026-05-14T08:30:10.000Z</time>
      </trkpt>
      <trkpt lat="44.18594" lon="5.28727">
        <ele>1191.2</ele>
        <time>2026-05-14T08:30:11.000Z</time>
      </trkpt>
      <trkpt lat="44.18594" lon="5.28726">
        <ele>1191.5</ele>
        <time>2026-05-14T08:30:12.000Z</time>
      </trkpt>
      <trkpt lat="44.18594" lon="5.28725">
        <ele>1191.9</ele>
        <time>2026-05-14T08:30:13.000Z</time>
      </trkpt>
      <trkpt lat="44.18594" lon="5.28723">
        <ele>1191.8</ele>
        <time>2026-05-14T08:30:14.000Z</time>
      </trkpt>
      <trkpt lat="44.18594" lon="5.2872">
        <ele>1191.3</ele>
        <time>2026-05-14T08:30:15.000Z</time>
      </trkpt>
      <trkpt lat="44.18593" lon="5.28718">
        <ele>1191.2</ele>
        <time>2026-05-14T08:30:16.000Z</time>
      </trkpt>
      <trkpt lat="44.18593" lon="5.28716">
        <ele>1191.5</ele>
        <time>2026-05-14T08:30:17.000Z</time>
      </trkpt>
      <trkpt lat="44.18593" lon="5.28714">
        <ele>1192</ele>
        <time>2026-05-14T08:30:18.000Z</time>
      </trkpt>
      <trkpt lat="44.18594" lon="5.28712">
        <ele>1192.6</ele>
        <time>2026-05-14T08:30:19.000Z</time>
      </trkpt>
      <trkpt lat="44.18595" lon="5.28711">
        <ele>1193</ele>
        <time>2026-05-14T08:30:20.000Z</time>
      </trkpt>
      <trkpt lat="44.18595" lon="5.2871">
        <ele>1193</ele>
        <time>2026-05-14T08:30:21.000Z</time>
      </trkpt>
      <trkpt lat="44.18596" lon="5.28709">
        <ele>1193.5</ele>
        <time>2026-05-14T08:30:22.000Z</time>
      </trkpt>
      <trkpt lat="44.18596" lon="5.28708">
        <ele>1193.8</ele>
        <time>2026-05-14T08:30:23.000Z</time>
      </trkpt>
      <trkpt lat="44.18597" lon="5.28707">
        <ele>1194.4</ele>
        <time>2026-05-14T08:30:24.000Z</time>
      </trkpt>
      <trkpt lat="44.18596" lon="5.28705">
        <ele>1195.4</ele>
        <time>2026-05-14T08:30:25.000Z</time>
      </trkpt>
      <trkpt lat="44.18596" lon="5.28704">
        <ele>1196</ele>
        <time>2026-05-14T08:30:26.000Z</time>
      </trkpt>
      <trkpt lat="44.18596" lon="5.28703">
        <ele>1196</ele>
        <time>2026-05-14T08:30:27.000Z</time>
      </trkpt>
      <trkpt lat="44.18595" lon="5.28703">
        <ele>1195.9</ele>
        <time>2026-05-14T08:30:28.000Z</time>
      </trkpt>
      <trkpt lat="44.18595" lon="5.28702">
        <ele>1195.7</ele>
        <time>2026-05-14T08:30:29.000Z</time>
      </trkpt>
      <trkpt lat="44.18595" lon="5.28701">
        <ele>1195.2</ele>
        <time>2026-05-14T08:30:30.000Z</time>
      </trkpt>
      <trkpt lat="44.18595" lon="5.28701">
        <ele>1194.5</ele>
        <time>2026-05-14T08:30:31.000Z</time>
      </trkpt>
      <trkpt lat="44.18595" lon="5.28701">
        <ele>1194.4</ele>
        <time>2026-05-14T08:30:32.000Z</time>
      </trkpt>
      <trkpt lat="44.18595" lon="5.28701">
        <ele>1194.6</ele>
        <time>2026-05-14T08:30:33.000Z</time>
      </trkpt>
      <trkpt lat="44.18595" lon="5.28701">
        <ele>1194.8</ele>
        <time>2026-05-14T08:30:34.000Z</time>
      </trkpt>
      <trkpt lat="44.18595" lon="5.28701">
        <ele>1195.3</ele>
        <time>2026-05-14T08:30:35.000Z</time>
      </trkpt>
      <trkpt lat="44.18595" lon="5.287">
        <ele>1195.6</ele>
        <time>2026-05-14T08:30:36.000Z</time>
      </trkpt>
      <trkpt lat="44.18594" lon="5.287">
        <ele>1195.3</ele>
        <time>2026-05-14T08:30:37.000Z</time>
      </trkpt>
      <trkpt lat="44.18594" lon="5.287">
        <ele>1195.1</ele>
        <time>2026-05-14T08:30:38.000Z</time>
      </trkpt>
      <trkpt lat="44.18594" lon="5.287">
        <ele>1195.2</ele>
        <time>2026-05-14T08:30:39.000Z</time>
      </trkpt>
      <trkpt lat="44.18594" lon="5.287">
        <ele>1194.5</ele>
        <time>2026-05-14T08:30:40.000Z</time>
      </trkpt>
      <trkpt lat="44.18594" lon="5.287">
        <ele>1194.2</ele>
        <time>2026-05-14T08:30:41.000Z</time>
      </trkpt>
      <trkpt lat="44.18594" lon="5.287">
        <ele>1194.3</ele>
        <time>2026-05-14T08:30:42.000Z</time>
      </trkpt>
      <trkpt lat="44.18594" lon="5.287">
        <ele>1194.4</ele>
        <time>2026-05-14T08:30:43.000Z</time>
      </trkpt>
      <trkpt lat="44.18594" lon="5.287">
        <ele>1194.1</ele>
        <time>2026-05-14T08:30:44.000Z</time>
      </trkpt>
      <trkpt lat="44.18594" lon="5.287">
        <ele>1193.9</ele>
        <time>2026-05-14T08:30:45.000Z</time>
      </trkpt>
      <trkpt lat="44.18594" lon="5.287">
        <ele>1193.7</ele>
        <time>2026-05-14T08:30:46.000Z</time>
      </trkpt>
      <trkpt lat="44.18594" lon="5.287">
        <ele>1193.6</ele>
        <time>2026-05-14T08:30:47.000Z</time>
      </trkpt>
      <trkpt lat="44.18594" lon="5.287">
        <ele>1193.5</ele>
        <time>2026-05-14T08:30:48.000Z</time>
      </trkpt>
      <trkpt lat="44.18594" lon="5.287">
        <ele>1193.7</ele>
        <time>2026-05-14T08:30:49.000Z</time>
      </trkpt>
      <trkpt lat="44.18594" lon="5.287">
        <ele>1194</ele>
        <time>2026-05-14T08:30:50.000Z</time>
      </trkpt>
      <trkpt lat="44.18594" lon="5.28699">
        <ele>1194.1</ele>
        <time>2026-05-14T08:30:51.000Z</time>
      </trkpt>
      <trkpt lat="44.18594" lon="5.28699">
        <ele>1194.2</ele>
        <time>2026-05-14T08:30:52.000Z</time>
      </trkpt>
      <trkpt lat="44.18594" lon="5.28699">
        <ele>1194.1</ele>
        <time>2026-05-14T08:30:53.000Z</time>
      </trkpt>
      <trkpt lat="44.18594" lon="5.28699">
        <ele>1194.1</ele>
        <time>2026-05-14T08:30:55.000Z</time>
      </trkpt>
      <trkpt lat="44.18594" lon="5.28698">
        <ele>1194.1</ele>
        <time>2026-05-14T08:30:56.000Z</time>
      </trkpt>
      <trkpt lat="44.18594" lon="5.28697">
        <ele>1193.9</ele>
        <time>2026-05-14T08:30:57.000Z</time>
      </trkpt>
      <trkpt lat="44.18595" lon="5.28695">
        <ele>1194.2</ele>
        <time>2026-05-14T08:30:58.000Z</time>
      </trkpt>
      <trkpt lat="44.18595" lon="5.28695">
        <ele>1194.6</ele>
        <time>2026-05-14T08:30:59.000Z</time>
      </trkpt>
      <trkpt lat="44.18596" lon="5.28694">
        <ele>1194.4</ele>
        <time>2026-05-14T08:31:00.000Z</time>
      </trkpt>
      <trkpt lat="44.18597" lon="5.28693">
        <ele>1194.5</ele>
        <time>2026-05-14T08:31:01.000Z</time>
      </trkpt>
      <trkpt lat="44.18598" lon="5.28692">
        <ele>1194.6</ele>
        <time>2026-05-14T08:31:02.000Z</time>
      </trkpt>
      <trkpt lat="44.18598" lon="5.28691">
        <ele>1194.6</ele>
        <time>2026-05-14T08:31:03.000Z</time>
      </trkpt>
      <trkpt lat="44.18598" lon="5.2869">
        <ele>1194.5</ele>
        <time>2026-05-14T08:31:04.000Z</time>
      </trkpt>
      <trkpt lat="44.18597" lon="5.28689">
        <ele>1194.4</ele>
        <time>2026-05-14T08:31:05.000Z</time>
      </trkpt>
      <trkpt lat="44.18597" lon="5.28687">
        <ele>1194.1</ele>
        <time>2026-05-14T08:31:06.000Z</time>
      </trkpt>
      <trkpt lat="44.18597" lon="5.28686">
        <ele>1194.5</ele>
        <time>2026-05-14T08:31:07.000Z</time>
      </trkpt>
      <trkpt lat="44.18597" lon="5.28684">
        <ele>1194.6</ele>
        <time>2026-05-14T08:31:08.000Z</time>
      </trkpt>
      <trkpt lat="44.18597" lon="5.28683">
        <ele>1194.8</ele>
        <time>2026-05-14T08:31:09.000Z</time>
      </trkpt>
      <trkpt lat="44.18598" lon="5.28682">
        <ele>1195.1</ele>
        <time>2026-05-14T08:31:10.000Z</time>
      </trkpt>
      <trkpt lat="44.18598" lon="5.28682">
        <ele>1195.4</ele>
        <time>2026-05-14T08:31:11.000Z</time>
      </trkpt>
      <trkpt lat="44.18599" lon="5.28681">
        <ele>1195.7</ele>
        <time>2026-05-14T08:31:12.000Z</time>
      </trkpt>
      <trkpt lat="44.186" lon="5.2868">
        <ele>1196</ele>
        <time>2026-05-14T08:31:13.000Z</time>
      </trkpt>
      <trkpt lat="44.18602" lon="5.28679">
        <ele>1196.4</ele>
        <time>2026-05-14T08:31:14.000Z</time>
      </trkpt>
      <trkpt lat="44.18603" lon="5.28678">
        <ele>1196.3</ele>
        <time>2026-05-14T08:31:15.000Z</time>
      </trkpt>
      <trkpt lat="44.18603" lon="5.28677">
        <ele>1196.3</ele>
        <time>2026-05-14T08:31:16.000Z</time>
      </trkpt>
      <trkpt lat="44.18604" lon="5.28675">
        <ele>1196.3</ele>
        <time>2026-05-14T08:31:17.000Z</time>
      </trkpt>
      <trkpt lat="44.18605" lon="5.28674">
        <ele>1196.3</ele>
        <time>2026-05-14T08:31:18.000Z</time>
      </trkpt>
      <trkpt lat="44.18605" lon="5.28672">
        <ele>1196.5</ele>
        <time>2026-05-14T08:31:19.000Z</time>
      </trkpt>
      <trkpt lat="44.18607" lon="5.28671">
        <ele>1197.2</ele>
        <time>2026-05-14T08:31:20.000Z</time>
      </trkpt>
      <trkpt lat="44.18609" lon="5.2867">
        <ele>1197.3</ele>
        <time>2026-05-14T08:31:21.000Z</time>
      </trkpt>
      <trkpt lat="44.1861" lon="5.28668">
        <ele>1197.2</ele>
        <time>2026-05-14T08:31:22.000Z</time>
      </trkpt>
      <trkpt lat="44.18611" lon="5.28667">
        <ele>1197.3</ele>
        <time>2026-05-14T08:31:23.000Z</time>
      </trkpt>
      <trkpt lat="44.18613" lon="5.28665">
        <ele>1197</ele>
        <time>2026-05-14T08:31:24.000Z</time>
      </trkpt>
      <trkpt lat="44.18613" lon="5.28664">
        <ele>1196.7</ele>
        <time>2026-05-14T08:31:25.000Z</time>
      </trkpt>
      <trkpt lat="44.18615" lon="5.28662">
        <ele>1196.9</ele>
        <time>2026-05-14T08:31:26.000Z</time>
      </trkpt>
      <trkpt lat="44.18616" lon="5.2866">
        <ele>1197.2</ele>
        <time>2026-05-14T08:31:27.000Z</time>
      </trkpt>
      <trkpt lat="44.18617" lon="5.28658">
        <ele>1196.8</ele>
        <time>2026-05-14T08:31:28.000Z</time>
      </trkpt>
      <trkpt lat="44.18617" lon="5.28656">
        <ele>1196.6</ele>
        <time>2026-05-14T08:31:29.000Z</time>
      </trkpt>
      <trkpt lat="44.18617" lon="5.28655">
        <ele>1196.3</ele>
        <time>2026-05-14T08:31:30.000Z</time>
      </trkpt>
      <trkpt lat="44.18617" lon="5.28654">
        <ele>1196.2</ele>
        <time>2026-05-14T08:31:31.000Z</time>
      </trkpt>
      <trkpt lat="44.18617" lon="5.28653">
        <ele>1196.1</ele>
        <time>2026-05-14T08:31:32.000Z</time>
      </trkpt>
      <trkpt lat="44.18617" lon="5.28652">
        <ele>1195.9</ele>
        <time>2026-05-14T08:31:33.000Z</time>
      </trkpt>
      <trkpt lat="44.18618" lon="5.28652">
        <ele>1196.6</ele>
        <time>2026-05-14T08:31:34.000Z</time>
      </trkpt>
      <trkpt lat="44.18619" lon="5.28651">
        <ele>1197.1</ele>
        <time>2026-05-14T08:31:35.000Z</time>
      </trkpt>
      <trkpt lat="44.18621" lon="5.28651">
        <ele>1197.6</ele>
        <time>2026-05-14T08:31:36.000Z</time>
      </trkpt>
      <trkpt lat="44.18622" lon="5.2865">
        <ele>1198.2</ele>
        <time>2026-05-14T08:31:37.000Z</time>
      </trkpt>
      <trkpt lat="44.18623" lon="5.2865">
        <ele>1198</ele>
        <time>2026-05-14T08:31:38.000Z</time>
      </trkpt>
      <trkpt lat="44.18624" lon="5.2865">
        <ele>1197.9</ele>
        <time>2026-05-14T08:31:39.000Z</time>
      </trkpt>
      <trkpt lat="44.18625" lon="5.28649">
        <ele>1198</ele>
        <time>2026-05-14T08:31:40.000Z</time>
      </trkpt>
      <trkpt lat="44.18625" lon="5.28648">
        <ele>1198.5</ele>
        <time>2026-05-14T08:31:41.000Z</time>
      </trkpt>
      <trkpt lat="44.18626" lon="5.28648">
        <ele>1198.4</ele>
        <time>2026-05-14T08:31:42.000Z</time>
      </trkpt>
      <trkpt lat="44.18626" lon="5.28647">
        <ele>1198.4</ele>
        <time>2026-05-14T08:31:43.000Z</time>
      </trkpt>
      <trkpt lat="44.18627" lon="5.28646">
        <ele>1198.7</ele>
        <time>2026-05-14T08:31:44.000Z</time>
      </trkpt>
      <trkpt lat="44.18628" lon="5.28645">
        <ele>1198.9</ele>
        <time>2026-05-14T08:31:45.000Z</time>
      </trkpt>
      <trkpt lat="44.18629" lon="5.28644">
        <ele>1199.1</ele>
        <time>2026-05-14T08:31:46.000Z</time>
      </trkpt>
      <trkpt lat="44.1863" lon="5.28644">
        <ele>1199.1</ele>
        <time>2026-05-14T08:31:47.000Z</time>
      </trkpt>
      <trkpt lat="44.1863" lon="5.28643">
        <ele>1199</ele>
        <time>2026-05-14T08:31:48.000Z</time>
      </trkpt>
      <trkpt lat="44.18631" lon="5.28643">
        <ele>1199.1</ele>
        <time>2026-05-14T08:31:49.000Z</time>
      </trkpt>
      <trkpt lat="44.18632" lon="5.28643">
        <ele>1199.1</ele>
        <time>2026-05-14T08:31:50.000Z</time>
      </trkpt>
      <trkpt lat="44.18632" lon="5.28642">
        <ele>1199.1</ele>
        <time>2026-05-14T08:31:51.000Z</time>
      </trkpt>
      <trkpt lat="44.18633" lon="5.28641">
        <ele>1199.5</ele>
        <time>2026-05-14T08:31:52.000Z</time>
      </trkpt>
      <trkpt lat="44.18634" lon="5.28641">
        <ele>1199.9</ele>
        <time>2026-05-14T08:31:53.000Z</time>
      </trkpt>
      <trkpt lat="44.18636" lon="5.28641">
        <ele>1200.4</ele>
        <time>2026-05-14T08:31:54.000Z</time>
      </trkpt>
      <trkpt lat="44.18636" lon="5.2864">
        <ele>1200.6</ele>
        <time>2026-05-14T08:31:55.000Z</time>
      </trkpt>
      <trkpt lat="44.18637" lon="5.28638">
        <ele>1200.9</ele>
        <time>2026-05-14T08:31:56.000Z</time>
      </trkpt>
      <trkpt lat="44.18637" lon="5.28637">
        <ele>1201.3</ele>
        <time>2026-05-14T08:31:57.000Z</time>
      </trkpt>
      <trkpt lat="44.18637" lon="5.28636">
        <ele>1201.5</ele>
        <time>2026-05-14T08:31:58.000Z</time>
      </trkpt>
      <trkpt lat="44.18637" lon="5.28636">
        <ele>1201.8</ele>
        <time>2026-05-14T08:31:59.000Z</time>
      </trkpt>
      <trkpt lat="44.18637" lon="5.28636">
        <ele>1201.9</ele>
        <time>2026-05-14T08:32:00.000Z</time>
      </trkpt>
      <trkpt lat="44.18635" lon="5.28637">
        <ele>1202</ele>
        <time>2026-05-14T08:32:02.000Z</time>
      </trkpt>
      <trkpt lat="44.18634" lon="5.28637">
        <ele>1202.4</ele>
        <time>2026-05-14T08:32:03.000Z</time>
      </trkpt>
      <trkpt lat="44.18633" lon="5.28637">
        <ele>1202.2</ele>
        <time>2026-05-14T08:32:04.000Z</time>
      </trkpt>
      <trkpt lat="44.18632" lon="5.28635">
        <ele>1202.3</ele>
        <time>2026-05-14T08:32:05.000Z</time>
      </trkpt>
      <trkpt lat="44.18631" lon="5.28635">
        <ele>1202.3</ele>
        <time>2026-05-14T08:32:06.000Z</time>
      </trkpt>
      <trkpt lat="44.18631" lon="5.28636">
        <ele>1202.3</ele>
        <time>2026-05-14T08:32:07.000Z</time>
      </trkpt>
      <trkpt lat="44.1863" lon="5.28636">
        <ele>1201.8</ele>
        <time>2026-05-14T08:32:08.000Z</time>
      </trkpt>
      <trkpt lat="44.18629" lon="5.28636">
        <ele>1201.5</ele>
        <time>2026-05-14T08:32:09.000Z</time>
      </trkpt>
      <trkpt lat="44.18628" lon="5.28637">
        <ele>1200.9</ele>
        <time>2026-05-14T08:32:10.000Z</time>
      </trkpt>
      <trkpt lat="44.18628" lon="5.28637">
        <ele>1200.5</ele>
        <time>2026-05-14T08:32:11.000Z</time>
      </trkpt>
      <trkpt lat="44.18628" lon="5.28637">
        <ele>1200.6</ele>
        <time>2026-05-14T08:32:12.000Z</time>
      </trkpt>
      <trkpt lat="44.18628" lon="5.28638">
        <ele>1200.4</ele>
        <time>2026-05-14T08:32:13.000Z</time>
      </trkpt>
      <trkpt lat="44.18628" lon="5.28638">
        <ele>1200.2</ele>
        <time>2026-05-14T08:32:14.000Z</time>
      </trkpt>
      <trkpt lat="44.18628" lon="5.28638">
        <ele>1200.5</ele>
        <time>2026-05-14T08:32:15.000Z</time>
      </trkpt>
      <trkpt lat="44.18626" lon="5.28639">
        <ele>1200.5</ele>
        <time>2026-05-14T08:32:16.000Z</time>
      </trkpt>
      <trkpt lat="44.18625" lon="5.2864">
        <ele>1200.6</ele>
        <time>2026-05-14T08:32:17.000Z</time>
      </trkpt>
      <trkpt lat="44.18624" lon="5.28639">
        <ele>1199.9</ele>
        <time>2026-05-14T08:32:19.000Z</time>
      </trkpt>
      <trkpt lat="44.18624" lon="5.28639">
        <ele>1199.4</ele>
        <time>2026-05-14T08:32:20.000Z</time>
      </trkpt>
      <trkpt lat="44.18624" lon="5.28638">
        <ele>1199.7</ele>
        <time>2026-05-14T08:32:21.000Z</time>
      </trkpt>
      <trkpt lat="44.18623" lon="5.28638">
        <ele>1199.8</ele>
        <time>2026-05-14T08:32:22.000Z</time>
      </trkpt>
      <trkpt lat="44.18623" lon="5.28638">
        <ele>1199.8</ele>
        <time>2026-05-14T08:32:23.000Z</time>
      </trkpt>
      <trkpt lat="44.18622" lon="5.28637">
        <ele>1199.8</ele>
        <time>2026-05-14T08:32:24.000Z</time>
      </trkpt>
      <trkpt lat="44.18622" lon="5.28637">
        <ele>1199.8</ele>
        <time>2026-05-14T08:32:25.000Z</time>
      </trkpt>
      <trkpt lat="44.1862" lon="5.28637">
        <ele>1200.1</ele>
        <time>2026-05-14T08:32:26.000Z</time>
      </trkpt>
      <trkpt lat="44.18619" lon="5.28636">
        <ele>1200.2</ele>
        <time>2026-05-14T08:32:27.000Z</time>
      </trkpt>
      <trkpt lat="44.18618" lon="5.28636">
        <ele>1200.3</ele>
        <time>2026-05-14T08:32:28.000Z</time>
      </trkpt>
      <trkpt lat="44.18617" lon="5.28636">
        <ele>1200.6</ele>
        <time>2026-05-14T08:32:29.000Z</time>
      </trkpt>
      <trkpt lat="44.18617" lon="5.28636">
        <ele>1200.8</ele>
        <time>2026-05-14T08:32:30.000Z</time>
      </trkpt>
      <trkpt lat="44.18617" lon="5.28636">
        <ele>1200.8</ele>
        <time>2026-05-14T08:32:31.000Z</time>
      </trkpt>
      <trkpt lat="44.18617" lon="5.28636">
        <ele>1200.5</ele>
        <time>2026-05-14T08:32:32.000Z</time>
      </trkpt>
      <trkpt lat="44.18616" lon="5.28636">
        <ele>1200.3</ele>
        <time>2026-05-14T08:32:33.000Z</time>
      </trkpt>
      <trkpt lat="44.18616" lon="5.28636">
        <ele>1200.2</ele>
        <time>2026-05-14T08:32:34.000Z</time>
      </trkpt>
      <trkpt lat="44.18616" lon="5.28637">
        <ele>1200.1</ele>
        <time>2026-05-14T08:32:35.000Z</time>
      </trkpt>
      <trkpt lat="44.18615" lon="5.28637">
        <ele>1200</ele>
        <time>2026-05-14T08:32:36.000Z</time>
      </trkpt>
      <trkpt lat="44.18613" lon="5.28638">
        <ele>1199.9</ele>
        <time>2026-05-14T08:32:37.000Z</time>
      </trkpt>
      <trkpt lat="44.18611" lon="5.28638">
        <ele>1199.6</ele>
        <time>2026-05-14T08:32:38.000Z</time>
      </trkpt>
      <trkpt lat="44.1861" lon="5.28639">
        <ele>1199.5</ele>
        <time>2026-05-14T08:32:39.000Z</time>
      </trkpt>
      <trkpt lat="44.18608" lon="5.2864">
        <ele>1199.3</ele>
        <time>2026-05-14T08:32:40.000Z</time>
      </trkpt>
      <trkpt lat="44.18606" lon="5.28641">
        <ele>1199.4</ele>
        <time>2026-05-14T08:32:41.000Z</time>
      </trkpt>
      <trkpt lat="44.18604" lon="5.28643">
        <ele>1198.9</ele>
        <time>2026-05-14T08:32:42.000Z</time>
      </trkpt>
      <trkpt lat="44.18603" lon="5.28644">
        <ele>1198.6</ele>
        <time>2026-05-14T08:32:43.000Z</time>
      </trkpt>
      <trkpt lat="44.18602" lon="5.28644">
        <ele>1198.8</ele>
        <time>2026-05-14T08:32:44.000Z</time>
      </trkpt>
      <trkpt lat="44.18601" lon="5.28644">
        <ele>1199</ele>
        <time>2026-05-14T08:32:45.000Z</time>
      </trkpt>
      <trkpt lat="44.18601" lon="5.28645">
        <ele>1199.1</ele>
        <time>2026-05-14T08:32:46.000Z</time>
      </trkpt>
      <trkpt lat="44.186" lon="5.28645">
        <ele>1199.4</ele>
        <time>2026-05-14T08:32:47.000Z</time>
      </trkpt>
      <trkpt lat="44.186" lon="5.28646">
        <ele>1199.7</ele>
        <time>2026-05-14T08:32:48.000Z</time>
      </trkpt>
      <trkpt lat="44.18598" lon="5.28648">
        <ele>1199.4</ele>
        <time>2026-05-14T08:32:49.000Z</time>
      </trkpt>
      <trkpt lat="44.18596" lon="5.28649">
        <ele>1199.2</ele>
        <time>2026-05-14T08:32:50.000Z</time>
      </trkpt>
      <trkpt lat="44.18595" lon="5.2865">
        <ele>1199</ele>
        <time>2026-05-14T08:32:51.000Z</time>
      </trkpt>
      <trkpt lat="44.18594" lon="5.28651">
        <ele>1198.9</ele>
        <time>2026-05-14T08:32:52.000Z</time>
      </trkpt>
      <trkpt lat="44.18593" lon="5.28651">
        <ele>1198.8</ele>
        <time>2026-05-14T08:32:53.000Z</time>
      </trkpt>
      <trkpt lat="44.18592" lon="5.28652">
        <ele>1198.7</ele>
        <time>2026-05-14T08:32:54.000Z</time>
      </trkpt>
      <trkpt lat="44.18591" lon="5.28652">
        <ele>1198.9</ele>
        <time>2026-05-14T08:32:55.000Z</time>
      </trkpt>
      <trkpt lat="44.18591" lon="5.28652">
        <ele>1198.8</ele>
        <time>2026-05-14T08:32:56.000Z</time>
      </trkpt>
      <trkpt lat="44.18591" lon="5.28652">
        <ele>1199</ele>
        <time>2026-05-14T08:32:57.000Z</time>
      </trkpt>
      <trkpt lat="44.18589" lon="5.28651">
        <ele>1199</ele>
        <time>2026-05-14T08:32:58.000Z</time>
      </trkpt>
      <trkpt lat="44.18588" lon="5.28651">
        <ele>1199.1</ele>
        <time>2026-05-14T08:32:59.000Z</time>
      </trkpt>
      <trkpt lat="44.18587" lon="5.28651">
        <ele>1199.2</ele>
        <time>2026-05-14T08:33:00.000Z</time>
      </trkpt>
      <trkpt lat="44.18586" lon="5.28651">
        <ele>1199</ele>
        <time>2026-05-14T08:33:01.000Z</time>
      </trkpt>
      <trkpt lat="44.18584" lon="5.28652">
        <ele>1198.7</ele>
        <time>2026-05-14T08:33:02.000Z</time>
      </trkpt>
      <trkpt lat="44.18583" lon="5.28652">
        <ele>1198.4</ele>
        <time>2026-05-14T08:33:03.000Z</time>
      </trkpt>
      <trkpt lat="44.18583" lon="5.28653">
        <ele>1198.4</ele>
        <time>2026-05-14T08:33:04.000Z</time>
      </trkpt>
      <trkpt lat="44.18583" lon="5.28653">
        <ele>1198.4</ele>
        <time>2026-05-14T08:33:05.000Z</time>
      </trkpt>
      <trkpt lat="44.18582" lon="5.28653">
        <ele>1198.1</ele>
        <time>2026-05-14T08:33:06.000Z</time>
      </trkpt>
      <trkpt lat="44.18581" lon="5.28654">
        <ele>1198.4</ele>
        <time>2026-05-14T08:33:07.000Z</time>
      </trkpt>
      <trkpt lat="44.18581" lon="5.28654">
        <ele>1198.4</ele>
        <time>2026-05-14T08:33:08.000Z</time>
      </trkpt>
      <trkpt lat="44.18581" lon="5.28654">
        <ele>1197.9</ele>
        <time>2026-05-14T08:33:09.000Z</time>
      </trkpt>
      <trkpt lat="44.18581" lon="5.28654">
        <ele>1197.7</ele>
        <time>2026-05-14T08:33:10.000Z</time>
      </trkpt>
      <trkpt lat="44.18581" lon="5.28654">
        <ele>1197.4</ele>
        <time>2026-05-14T08:33:11.000Z</time>
      </trkpt>
      <trkpt lat="44.18581" lon="5.28654">
        <ele>1197.4</ele>
        <time>2026-05-14T08:33:12.000Z</time>
      </trkpt>
      <trkpt lat="44.1858" lon="5.28656">
        <ele>1197.5</ele>
        <time>2026-05-14T08:33:13.000Z</time>
      </trkpt>
      <trkpt lat="44.1858" lon="5.28658">
        <ele>1197.4</ele>
        <time>2026-05-14T08:33:14.000Z</time>
      </trkpt>
      <trkpt lat="44.18579" lon="5.2866">
        <ele>1197.3</ele>
        <time>2026-05-14T08:33:15.000Z</time>
      </trkpt>
      <trkpt lat="44.18578" lon="5.28661">
        <ele>1197.4</ele>
        <time>2026-05-14T08:33:16.000Z</time>
      </trkpt>
      <trkpt lat="44.18577" lon="5.28663">
        <ele>1197.7</ele>
        <time>2026-05-14T08:33:17.000Z</time>
      </trkpt>
      <trkpt lat="44.18576" lon="5.28664">
        <ele>1197.6</ele>
        <time>2026-05-14T08:33:18.000Z</time>
      </trkpt>
      <trkpt lat="44.18576" lon="5.28665">
        <ele>1197.7</ele>
        <time>2026-05-14T08:33:19.000Z</time>
      </trkpt>
      <trkpt lat="44.18575" lon="5.28665">
        <ele>1197.2</ele>
        <time>2026-05-14T08:33:20.000Z</time>
      </trkpt>
      <trkpt lat="44.18575" lon="5.28666">
        <ele>1196.9</ele>
        <time>2026-05-14T08:33:21.000Z</time>
      </trkpt>
      <trkpt lat="44.18575" lon="5.28666">
        <ele>1196.7</ele>
        <time>2026-05-14T08:33:22.000Z</time>
      </trkpt>
      <trkpt lat="44.18575" lon="5.28666">
        <ele>1196.8</ele>
        <time>2026-05-14T08:33:23.000Z</time>
      </trkpt>
      <trkpt lat="44.18574" lon="5.28667">
        <ele>1196.7</ele>
        <time>2026-05-14T08:33:24.000Z</time>
      </trkpt>
      <trkpt lat="44.18574" lon="5.28669">
        <ele>1196.6</ele>
        <time>2026-05-14T08:33:25.000Z</time>
      </trkpt>
      <trkpt lat="44.18573" lon="5.2867">
        <ele>1196.8</ele>
        <time>2026-05-14T08:33:26.000Z</time>
      </trkpt>
      <trkpt lat="44.18573" lon="5.2867">
        <ele>1196.8</ele>
        <time>2026-05-14T08:33:27.000Z</time>
      </trkpt>
      <trkpt lat="44.18573" lon="5.28671">
        <ele>1197.1</ele>
        <time>2026-05-14T08:33:28.000Z</time>
      </trkpt>
      <trkpt lat="44.18572" lon="5.28672">
        <ele>1197.5</ele>
        <time>2026-05-14T08:33:29.000Z</time>
      </trkpt>
      <trkpt lat="44.18571" lon="5.28673">
        <ele>1197.5</ele>
        <time>2026-05-14T08:33:30.000Z</time>
      </trkpt>
      <trkpt lat="44.18571" lon="5.28674">
        <ele>1197.6</ele>
        <time>2026-05-14T08:33:31.000Z</time>
      </trkpt>
      <trkpt lat="44.1857" lon="5.28674">
        <ele>1197.4</ele>
        <time>2026-05-14T08:33:32.000Z</time>
      </trkpt>
      <trkpt lat="44.1857" lon="5.28675">
        <ele>1197.3</ele>
        <time>2026-05-14T08:33:33.000Z</time>
      </trkpt>
      <trkpt lat="44.18569" lon="5.28675">
        <ele>1197.1</ele>
        <time>2026-05-14T08:33:34.000Z</time>
      </trkpt>
      <trkpt lat="44.18568" lon="5.28675">
        <ele>1197</ele>
        <time>2026-05-14T08:33:35.000Z</time>
      </trkpt>
      <trkpt lat="44.18567" lon="5.28675">
        <ele>1196.8</ele>
        <time>2026-05-14T08:33:36.000Z</time>
      </trkpt>
      <trkpt lat="44.18566" lon="5.28676">
        <ele>1196.6</ele>
        <time>2026-05-14T08:33:37.000Z</time>
      </trkpt>
      <trkpt lat="44.18565" lon="5.28676">
        <ele>1196.3</ele>
        <time>2026-05-14T08:33:38.000Z</time>
      </trkpt>
      <trkpt lat="44.18564" lon="5.28678">
        <ele>1196</ele>
        <time>2026-05-14T08:33:39.000Z</time>
      </trkpt>
      <trkpt lat="44.18563" lon="5.28678">
        <ele>1195.7</ele>
        <time>2026-05-14T08:33:40.000Z</time>
      </trkpt>
      <trkpt lat="44.18562" lon="5.2868">
        <ele>1195.4</ele>
        <time>2026-05-14T08:33:41.000Z</time>
      </trkpt>
      <trkpt lat="44.18561" lon="5.28681">
        <ele>1195.7</ele>
        <time>2026-05-14T08:33:43.000Z</time>
      </trkpt>
      <trkpt lat="44.1856" lon="5.28682">
        <ele>1195.7</ele>
        <time>2026-05-14T08:33:44.000Z</time>
      </trkpt>
      <trkpt lat="44.18559" lon="5.28684">
        <ele>1196.5</ele>
        <time>2026-05-14T08:33:45.000Z</time>
      </trkpt>
      <trkpt lat="44.18558" lon="5.28686">
        <ele>1196.4</ele>
        <time>2026-05-14T08:33:46.000Z</time>
      </trkpt>
      <trkpt lat="44.18558" lon="5.28687">
        <ele>1196.6</ele>
        <time>2026-05-14T08:33:47.000Z</time>
      </trkpt>
      <trkpt lat="44.18557" lon="5.28689">
        <ele>1196.3</ele>
        <time>2026-05-14T08:33:48.000Z</time>
      </trkpt>
      <trkpt lat="44.18556" lon="5.28691">
        <ele>1196.2</ele>
        <time>2026-05-14T08:33:49.000Z</time>
      </trkpt>
      <trkpt lat="44.18555" lon="5.28693">
        <ele>1196.3</ele>
        <time>2026-05-14T08:33:50.000Z</time>
      </trkpt>
      <trkpt lat="44.18555" lon="5.28693">
        <ele>1196.1</ele>
        <time>2026-05-14T08:33:51.000Z</time>
      </trkpt>
      <trkpt lat="44.18555" lon="5.28694">
        <ele>1196.3</ele>
        <time>2026-05-14T08:33:52.000Z</time>
      </trkpt>
      <trkpt lat="44.18554" lon="5.28695">
        <ele>1196.3</ele>
        <time>2026-05-14T08:33:53.000Z</time>
      </trkpt>
      <trkpt lat="44.18554" lon="5.28695">
        <ele>1196.9</ele>
        <time>2026-05-14T08:33:54.000Z</time>
      </trkpt>
      <trkpt lat="44.18554" lon="5.28695">
        <ele>1196.7</ele>
        <time>2026-05-14T08:33:55.000Z</time>
      </trkpt>
      <trkpt lat="44.18554" lon="5.28695">
        <ele>1196.8</ele>
        <time>2026-05-14T08:33:56.000Z</time>
      </trkpt>
      <trkpt lat="44.18553" lon="5.28696">
        <ele>1197</ele>
        <time>2026-05-14T08:33:57.000Z</time>
      </trkpt>
      <trkpt lat="44.18553" lon="5.28697">
        <ele>1196.7</ele>
        <time>2026-05-14T08:33:58.000Z</time>
      </trkpt>
      <trkpt lat="44.18552" lon="5.28698">
        <ele>1196</ele>
        <time>2026-05-14T08:33:59.000Z</time>
      </trkpt>
      <trkpt lat="44.18551" lon="5.28699">
        <ele>1195.9</ele>
        <time>2026-05-14T08:34:01.000Z</time>
      </trkpt>
      <trkpt lat="44.1855" lon="5.287">
        <ele>1195.5</ele>
        <time>2026-05-14T08:34:02.000Z</time>
      </trkpt>
      <trkpt lat="44.18549" lon="5.28701">
        <ele>1195.2</ele>
        <time>2026-05-14T08:34:03.000Z</time>
      </trkpt>
      <trkpt lat="44.18548" lon="5.28702">
        <ele>1195.1</ele>
        <time>2026-05-14T08:34:04.000Z</time>
      </trkpt>
      <trkpt lat="44.18547" lon="5.28703">
        <ele>1195</ele>
        <time>2026-05-14T08:34:05.000Z</time>
      </trkpt>
      <trkpt lat="44.18547" lon="5.28704">
        <ele>1194.6</ele>
        <time>2026-05-14T08:34:06.000Z</time>
      </trkpt>
      <trkpt lat="44.18545" lon="5.28705">
        <ele>1194.6</ele>
        <time>2026-05-14T08:34:07.000Z</time>
      </trkpt>
      <trkpt lat="44.18544" lon="5.28706">
        <ele>1194.5</ele>
        <time>2026-05-14T08:34:08.000Z</time>
      </trkpt>
      <trkpt lat="44.18543" lon="5.28707">
        <ele>1194.3</ele>
        <time>2026-05-14T08:34:09.000Z</time>
      </trkpt>
      <trkpt lat="44.18541" lon="5.28708">
        <ele>1194.1</ele>
        <time>2026-05-14T08:34:10.000Z</time>
      </trkpt>
      <trkpt lat="44.1854" lon="5.2871">
        <ele>1194</ele>
        <time>2026-05-14T08:34:11.000Z</time>
      </trkpt>
      <trkpt lat="44.18539" lon="5.28711">
        <ele>1194</ele>
        <time>2026-05-14T08:34:12.000Z</time>
      </trkpt>
      <trkpt lat="44.18538" lon="5.28712">
        <ele>1193.9</ele>
        <time>2026-05-14T08:34:13.000Z</time>
      </trkpt>
      <trkpt lat="44.18538" lon="5.28713">
        <ele>1193.6</ele>
        <time>2026-05-14T08:34:14.000Z</time>
      </trkpt>
      <trkpt lat="44.18537" lon="5.28715">
        <ele>1194</ele>
        <time>2026-05-14T08:34:15.000Z</time>
      </trkpt>
      <trkpt lat="44.18536" lon="5.28716">
        <ele>1194</ele>
        <time>2026-05-14T08:34:16.000Z</time>
      </trkpt>
      <trkpt lat="44.18535" lon="5.28717">
        <ele>1194.3</ele>
        <time>2026-05-14T08:34:17.000Z</time>
      </trkpt>
      <trkpt lat="44.18535" lon="5.28717">
        <ele>1194.3</ele>
        <time>2026-05-14T08:34:18.000Z</time>
      </trkpt>
      <trkpt lat="44.18535" lon="5.28718">
        <ele>1194.6</ele>
        <time>2026-05-14T08:34:19.000Z</time>
      </trkpt>
      <trkpt lat="44.18535" lon="5.28718">
        <ele>1194.7</ele>
        <time>2026-05-14T08:34:20.000Z</time>
      </trkpt>
      <trkpt lat="44.18536" lon="5.28719">
        <ele>1194.7</ele>
        <time>2026-05-14T08:34:21.000Z</time>
      </trkpt>
      <trkpt lat="44.18536" lon="5.28721">
        <ele>1194.9</ele>
        <time>2026-05-14T08:34:22.000Z</time>
      </trkpt>
      <trkpt lat="44.18535" lon="5.28722">
        <ele>1194.7</ele>
        <time>2026-05-14T08:34:23.000Z</time>
      </trkpt>
      <trkpt lat="44.18534" lon="5.28723">
        <ele>1194.8</ele>
        <time>2026-05-14T08:34:24.000Z</time>
      </trkpt>
      <trkpt lat="44.18534" lon="5.28724">
        <ele>1195.1</ele>
        <time>2026-05-14T08:34:25.000Z</time>
      </trkpt>
      <trkpt lat="44.18534" lon="5.28725">
        <ele>1195.2</ele>
        <time>2026-05-14T08:34:26.000Z</time>
      </trkpt>
      <trkpt lat="44.18534" lon="5.28726">
        <ele>1195</ele>
        <time>2026-05-14T08:34:27.000Z</time>
      </trkpt>
      <trkpt lat="44.18534" lon="5.28727">
        <ele>1194.9</ele>
        <time>2026-05-14T08:34:28.000Z</time>
      </trkpt>
      <trkpt lat="44.18534" lon="5.28728">
        <ele>1195.2</ele>
        <time>2026-05-14T08:34:29.000Z</time>
      </trkpt>
      <trkpt lat="44.18533" lon="5.2873">
        <ele>1195.4</ele>
        <time>2026-05-14T08:34:30.000Z</time>
      </trkpt>
      <trkpt lat="44.18532" lon="5.28732">
        <ele>1195.2</ele>
        <time>2026-05-14T08:34:31.000Z</time>
      </trkpt>
      <trkpt lat="44.18532" lon="5.28734">
        <ele>1195.9</ele>
        <time>2026-05-14T08:34:32.000Z</time>
      </trkpt>
      <trkpt lat="44.18532" lon="5.28736">
        <ele>1196.4</ele>
        <time>2026-05-14T08:34:33.000Z</time>
      </trkpt>
      <trkpt lat="44.18531" lon="5.28737">
        <ele>1196.7</ele>
        <time>2026-05-14T08:34:34.000Z</time>
      </trkpt>
      <trkpt lat="44.18531" lon="5.28738">
        <ele>1197.1</ele>
        <time>2026-05-14T08:34:35.000Z</time>
      </trkpt>
      <trkpt lat="44.18531" lon="5.28739">
        <ele>1197.2</ele>
        <time>2026-05-14T08:34:36.000Z</time>
      </trkpt>
      <trkpt lat="44.18531" lon="5.2874">
        <ele>1196.8</ele>
        <time>2026-05-14T08:34:37.000Z</time>
      </trkpt>
      <trkpt lat="44.1853" lon="5.28741">
        <ele>1196.9</ele>
        <time>2026-05-14T08:34:38.000Z</time>
      </trkpt>
      <trkpt lat="44.18529" lon="5.28742">
        <ele>1197.4</ele>
        <time>2026-05-14T08:34:39.000Z</time>
      </trkpt>
      <trkpt lat="44.18529" lon="5.28743">
        <ele>1197.4</ele>
        <time>2026-05-14T08:34:40.000Z</time>
      </trkpt>
      <trkpt lat="44.18528" lon="5.28743">
        <ele>1197.5</ele>
        <time>2026-05-14T08:34:41.000Z</time>
      </trkpt>
      <trkpt lat="44.18528" lon="5.28742">
        <ele>1196.6</ele>
        <time>2026-05-14T08:34:42.000Z</time>
      </trkpt>
      <trkpt lat="44.18528" lon="5.28742">
        <ele>1195.7</ele>
        <time>2026-05-14T08:34:43.000Z</time>
      </trkpt>
      <trkpt lat="44.18528" lon="5.28742">
        <ele>1195.5</ele>
        <time>2026-05-14T08:34:44.000Z</time>
      </trkpt>
      <trkpt lat="44.18527" lon="5.28743">
        <ele>1195.8</ele>
        <time>2026-05-14T08:34:45.000Z</time>
      </trkpt>
      <trkpt lat="44.18527" lon="5.28743">
        <ele>1196.3</ele>
        <time>2026-05-14T08:34:46.000Z</time>
      </trkpt>
      <trkpt lat="44.18526" lon="5.28744">
        <ele>1196.4</ele>
        <time>2026-05-14T08:34:47.000Z</time>
      </trkpt>
      <trkpt lat="44.18526" lon="5.28744">
        <ele>1196.6</ele>
        <time>2026-05-14T08:34:48.000Z</time>
      </trkpt>
      <trkpt lat="44.18526" lon="5.28743">
        <ele>1196.8</ele>
        <time>2026-05-14T08:34:49.000Z</time>
      </trkpt>
      <trkpt lat="44.18527" lon="5.28743">
        <ele>1197.4</ele>
        <time>2026-05-14T08:34:50.000Z</time>
      </trkpt>
      <trkpt lat="44.18527" lon="5.28743">
        <ele>1197</ele>
        <time>2026-05-14T08:34:51.000Z</time>
      </trkpt>
      <trkpt lat="44.18527" lon="5.28743">
        <ele>1196.6</ele>
        <time>2026-05-14T08:34:52.000Z</time>
      </trkpt>
      <trkpt lat="44.18527" lon="5.28743">
        <ele>1196.2</ele>
        <time>2026-05-14T08:34:53.000Z</time>
      </trkpt>
      <trkpt lat="44.18527" lon="5.28744">
        <ele>1196.4</ele>
        <time>2026-05-14T08:34:54.000Z</time>
      </trkpt>
      <trkpt lat="44.18526" lon="5.28744">
        <ele>1197.7</ele>
        <time>2026-05-14T08:34:55.000Z</time>
      </trkpt>
      <trkpt lat="44.18526" lon="5.28744">
        <ele>1197.9</ele>
        <time>2026-05-14T08:34:56.000Z</time>
      </trkpt>
      <trkpt lat="44.18526" lon="5.28744">
        <ele>1198</ele>
        <time>2026-05-14T08:34:57.000Z</time>
      </trkpt>
      <trkpt lat="44.18524" lon="5.28746">
        <ele>1198.5</ele>
        <time>2026-05-14T08:34:58.000Z</time>
      </trkpt>
      <trkpt lat="44.18523" lon="5.28748">
        <ele>1199.4</ele>
        <time>2026-05-14T08:34:59.000Z</time>
      </trkpt>
      <trkpt lat="44.18523" lon="5.28749">
        <ele>1200.2</ele>
        <time>2026-05-14T08:35:00.000Z</time>
      </trkpt>
      <trkpt lat="44.18523" lon="5.28749">
        <ele>1200.4</ele>
        <time>2026-05-14T08:35:01.000Z</time>
      </trkpt>
      <trkpt lat="44.18523" lon="5.28749">
        <ele>1200.7</ele>
        <time>2026-05-14T08:35:02.000Z</time>
      </trkpt>
      <trkpt lat="44.18523" lon="5.28749">
        <ele>1200.7</ele>
        <time>2026-05-14T08:35:03.000Z</time>
      </trkpt>
      <trkpt lat="44.18523" lon="5.28749">
        <ele>1200.7</ele>
        <time>2026-05-14T08:35:04.000Z</time>
      </trkpt>
      <trkpt lat="44.18523" lon="5.28749">
        <ele>1201.3</ele>
        <time>2026-05-14T08:35:05.000Z</time>
      </trkpt>
      <trkpt lat="44.18523" lon="5.28749">
        <ele>1201.8</ele>
        <time>2026-05-14T08:35:06.000Z</time>
      </trkpt>
      <trkpt lat="44.18523" lon="5.28749">
        <ele>1202.5</ele>
        <time>2026-05-14T08:35:07.000Z</time>
      </trkpt>
      <trkpt lat="44.18523" lon="5.28749">
        <ele>1203.5</ele>
        <time>2026-05-14T08:35:08.000Z</time>
      </trkpt>
      <trkpt lat="44.18523" lon="5.2875">
        <ele>1204.3</ele>
        <time>2026-05-14T08:35:09.000Z</time>
      </trkpt>
      <trkpt lat="44.18523" lon="5.2875">
        <ele>1205</ele>
        <time>2026-05-14T08:35:10.000Z</time>
      </trkpt>
      <trkpt lat="44.18523" lon="5.2875">
        <ele>1205.3</ele>
        <time>2026-05-14T08:35:11.000Z</time>
      </trkpt>
      <trkpt lat="44.18523" lon="5.2875">
        <ele>1205.5</ele>
        <time>2026-05-14T08:35:12.000Z</time>
      </trkpt>
      <trkpt lat="44.18523" lon="5.2875">
        <ele>1206</ele>
        <time>2026-05-14T08:35:13.000Z</time>
      </trkpt>
      <trkpt lat="44.18523" lon="5.2875">
        <ele>1205.7</ele>
        <time>2026-05-14T08:35:14.000Z</time>
      </trkpt>
      <trkpt lat="44.18523" lon="5.2875">
        <ele>1205.2</ele>
        <time>2026-05-14T08:35:15.000Z</time>
      </trkpt>
      <trkpt lat="44.18523" lon="5.2875">
        <ele>1204.9</ele>
        <time>2026-05-14T08:35:16.000Z</time>
      </trkpt>
      <trkpt lat="44.18523" lon="5.2875">
        <ele>1204.9</ele>
        <time>2026-05-14T08:35:17.000Z</time>
      </trkpt>
      <trkpt lat="44.18523" lon="5.2875">
        <ele>1205</ele>
        <time>2026-05-14T08:35:18.000Z</time>
      </trkpt>
      <trkpt lat="44.18523" lon="5.2875">
        <ele>1205.1</ele>
        <time>2026-05-14T08:35:19.000Z</time>
      </trkpt>
      <trkpt lat="44.18523" lon="5.2875">
        <ele>1205.1</ele>
        <time>2026-05-14T08:35:20.000Z</time>
      </trkpt>
      <trkpt lat="44.18523" lon="5.28751">
        <ele>1204.9</ele>
        <time>2026-05-14T08:35:21.000Z</time>
      </trkpt>
      <trkpt lat="44.18523" lon="5.28751">
        <ele>1205.2</ele>
        <time>2026-05-14T08:35:22.000Z</time>
      </trkpt>
      <trkpt lat="44.18523" lon="5.28751">
        <ele>1205.4</ele>
        <time>2026-05-14T08:35:23.000Z</time>
      </trkpt>
      <trkpt lat="44.18523" lon="5.28752">
        <ele>1206.4</ele>
        <time>2026-05-14T08:35:24.000Z</time>
      </trkpt>
      <trkpt lat="44.18523" lon="5.28754">
        <ele>1207.1</ele>
        <time>2026-05-14T08:35:25.000Z</time>
      </trkpt>
      <trkpt lat="44.18523" lon="5.28753">
        <ele>1207</ele>
        <time>2026-05-14T08:35:26.000Z</time>
      </trkpt>
      <trkpt lat="44.18523" lon="5.28754">
        <ele>1207.8</ele>
        <time>2026-05-14T08:35:27.000Z</time>
      </trkpt>
      <trkpt lat="44.18523" lon="5.28754">
        <ele>1208.6</ele>
        <time>2026-05-14T08:35:28.000Z</time>
      </trkpt>
      <trkpt lat="44.18523" lon="5.28754">
        <ele>1209</ele>
        <time>2026-05-14T08:35:29.000Z</time>
      </trkpt>
      <trkpt lat="44.18523" lon="5.28754">
        <ele>1209</ele>
        <time>2026-05-14T08:35:30.000Z</time>
      </trkpt>
      <trkpt lat="44.18523" lon="5.28754">
        <ele>1208.9</ele>
        <time>2026-05-14T08:35:31.000Z</time>
      </trkpt>
      <trkpt lat="44.18523" lon="5.28754">
        <ele>1208.9</ele>
        <time>2026-05-14T08:35:32.000Z</time>
      </trkpt>
      <trkpt lat="44.18523" lon="5.28754">
        <ele>1208.5</ele>
        <time>2026-05-14T08:35:34.000Z</time>
      </trkpt>
      <trkpt lat="44.18523" lon="5.28755">
        <ele>1208.3</ele>
        <time>2026-05-14T08:35:35.000Z</time>
      </trkpt>
      <trkpt lat="44.18523" lon="5.28755">
        <ele>1208.2</ele>
        <time>2026-05-14T08:35:36.000Z</time>
      </trkpt>
      <trkpt lat="44.18523" lon="5.28756">
        <ele>1208.5</ele>
        <time>2026-05-14T08:35:37.000Z</time>
      </trkpt>
      <trkpt lat="44.18522" lon="5.28758">
        <ele>1208.6</ele>
        <time>2026-05-14T08:35:38.000Z</time>
      </trkpt>
      <trkpt lat="44.18522" lon="5.2876">
        <ele>1208.6</ele>
        <time>2026-05-14T08:35:39.000Z</time>
      </trkpt>
      <trkpt lat="44.18521" lon="5.28762">
        <ele>1208.5</ele>
        <time>2026-05-14T08:35:40.000Z</time>
      </trkpt>
      <trkpt lat="44.18521" lon="5.28763">
        <ele>1208.4</ele>
        <time>2026-05-14T08:35:41.000Z</time>
      </trkpt>
      <trkpt lat="44.18521" lon="5.28765">
        <ele>1208.4</ele>
        <time>2026-05-14T08:35:42.000Z</time>
      </trkpt>
      <trkpt lat="44.18521" lon="5.28767">
        <ele>1208.1</ele>
        <time>2026-05-14T08:35:43.000Z</time>
      </trkpt>
      <trkpt lat="44.1852" lon="5.28768">
        <ele>1208.2</ele>
        <time>2026-05-14T08:35:44.000Z</time>
      </trkpt>
      <trkpt lat="44.18519" lon="5.2877">
        <ele>1207.9</ele>
        <time>2026-05-14T08:35:45.000Z</time>
      </trkpt>
      <trkpt lat="44.18518" lon="5.28772">
        <ele>1207.7</ele>
        <time>2026-05-14T08:35:46.000Z</time>
      </trkpt>
      <trkpt lat="44.18517" lon="5.28774">
        <ele>1208</ele>
        <time>2026-05-14T08:35:47.000Z</time>
      </trkpt>
      <trkpt lat="44.18517" lon="5.28776">
        <ele>1208.3</ele>
        <time>2026-05-14T08:35:48.000Z</time>
      </trkpt>
      <trkpt lat="44.18516" lon="5.28777">
        <ele>1208.4</ele>
        <time>2026-05-14T08:35:49.000Z</time>
      </trkpt>
      <trkpt lat="44.18516" lon="5.28779">
        <ele>1208.2</ele>
        <time>2026-05-14T08:35:50.000Z</time>
      </trkpt>
      <trkpt lat="44.18515" lon="5.28781">
        <ele>1208.3</ele>
        <time>2026-05-14T08:35:51.000Z</time>
      </trkpt>
      <trkpt lat="44.18514" lon="5.28782">
        <ele>1208.3</ele>
        <time>2026-05-14T08:35:52.000Z</time>
      </trkpt>
      <trkpt lat="44.18513" lon="5.28784">
        <ele>1208.6</ele>
        <time>2026-05-14T08:35:53.000Z</time>
      </trkpt>
      <trkpt lat="44.18513" lon="5.28785">
        <ele>1208.9</ele>
        <time>2026-05-14T08:35:54.000Z</time>
      </trkpt>
      <trkpt lat="44.18513" lon="5.28786">
        <ele>1209</ele>
        <time>2026-05-14T08:35:55.000Z</time>
      </trkpt>
      <trkpt lat="44.18512" lon="5.28788">
        <ele>1209.2</ele>
        <time>2026-05-14T08:35:56.000Z</time>
      </trkpt>
      <trkpt lat="44.18511" lon="5.28789">
        <ele>1209.5</ele>
        <time>2026-05-14T08:35:57.000Z</time>
      </trkpt>
      <trkpt lat="44.1851" lon="5.2879">
        <ele>1209.9</ele>
        <time>2026-05-14T08:35:58.000Z</time>
      </trkpt>
      <trkpt lat="44.18509" lon="5.28791">
        <ele>1210</ele>
        <time>2026-05-14T08:35:59.000Z</time>
      </trkpt>
      <trkpt lat="44.18509" lon="5.28791">
        <ele>1209.9</ele>
        <time>2026-05-14T08:36:00.000Z</time>
      </trkpt>
      <trkpt lat="44.18508" lon="5.28791">
        <ele>1209.8</ele>
        <time>2026-05-14T08:36:01.000Z</time>
      </trkpt>
      <trkpt lat="44.18508" lon="5.28791">
        <ele>1209.9</ele>
        <time>2026-05-14T08:36:02.000Z</time>
      </trkpt>
      <trkpt lat="44.18507" lon="5.28791">
        <ele>1210.4</ele>
        <time>2026-05-14T08:36:03.000Z</time>
      </trkpt>
      <trkpt lat="44.18507" lon="5.28792">
        <ele>1211.4</ele>
        <time>2026-05-14T08:36:04.000Z</time>
      </trkpt>
      <trkpt lat="44.18507" lon="5.28792">
        <ele>1211.4</ele>
        <time>2026-05-14T08:36:05.000Z</time>
      </trkpt>
      <trkpt lat="44.18507" lon="5.28793">
        <ele>1211</ele>
        <time>2026-05-14T08:36:06.000Z</time>
      </trkpt>
      <trkpt lat="44.18507" lon="5.28793">
        <ele>1210.9</ele>
        <time>2026-05-14T08:36:07.000Z</time>
      </trkpt>
      <trkpt lat="44.18507" lon="5.28793">
        <ele>1210.9</ele>
        <time>2026-05-14T08:36:08.000Z</time>
      </trkpt>
      <trkpt lat="44.18506" lon="5.28794">
        <ele>1210.9</ele>
        <time>2026-05-14T08:36:09.000Z</time>
      </trkpt>
      <trkpt lat="44.18506" lon="5.28794">
        <ele>1211</ele>
        <time>2026-05-14T08:36:10.000Z</time>
      </trkpt>
      <trkpt lat="44.18505" lon="5.28794">
        <ele>1211.1</ele>
        <time>2026-05-14T08:36:11.000Z</time>
      </trkpt>
      <trkpt lat="44.18505" lon="5.28794">
        <ele>1211.1</ele>
        <time>2026-05-14T08:36:12.000Z</time>
      </trkpt>
      <trkpt lat="44.18505" lon="5.28794">
        <ele>1211.4</ele>
        <time>2026-05-14T08:36:13.000Z</time>
      </trkpt>
      <trkpt lat="44.18503" lon="5.28795">
        <ele>1211.2</ele>
        <time>2026-05-14T08:36:14.000Z</time>
      </trkpt>
      <trkpt lat="44.18503" lon="5.28796">
        <ele>1211.1</ele>
        <time>2026-05-14T08:36:15.000Z</time>
      </trkpt>
      <trkpt lat="44.18502" lon="5.28797">
        <ele>1211.2</ele>
        <time>2026-05-14T08:36:16.000Z</time>
      </trkpt>
      <trkpt lat="44.18501" lon="5.28798">
        <ele>1211.5</ele>
        <time>2026-05-14T08:36:17.000Z</time>
      </trkpt>
      <trkpt lat="44.18499" lon="5.288">
        <ele>1211.2</ele>
        <time>2026-05-14T08:36:18.000Z</time>
      </trkpt>
      <trkpt lat="44.18498" lon="5.28801">
        <ele>1210.9</ele>
        <time>2026-05-14T08:36:19.000Z</time>
      </trkpt>
      <trkpt lat="44.18497" lon="5.28802">
        <ele>1210.7</ele>
        <time>2026-05-14T08:36:20.000Z</time>
      </trkpt>
      <trkpt lat="44.18497" lon="5.28803">
        <ele>1210.7</ele>
        <time>2026-05-14T08:36:21.000Z</time>
      </trkpt>
      <trkpt lat="44.18496" lon="5.28804">
        <ele>1210.7</ele>
        <time>2026-05-14T08:36:22.000Z</time>
      </trkpt>
      <trkpt lat="44.18495" lon="5.28805">
        <ele>1210.5</ele>
        <time>2026-05-14T08:36:23.000Z</time>
      </trkpt>
      <trkpt lat="44.18494" lon="5.28806">
        <ele>1210.4</ele>
        <time>2026-05-14T08:36:24.000Z</time>
      </trkpt>
      <trkpt lat="44.18492" lon="5.28806">
        <ele>1210.3</ele>
        <time>2026-05-14T08:36:25.000Z</time>
      </trkpt>
      <trkpt lat="44.18491" lon="5.28808">
        <ele>1209.9</ele>
        <time>2026-05-14T08:36:26.000Z</time>
      </trkpt>
      <trkpt lat="44.18491" lon="5.28808">
        <ele>1209.7</ele>
        <time>2026-05-14T08:36:27.000Z</time>
      </trkpt>
      <trkpt lat="44.1849" lon="5.28809">
        <ele>1210.1</ele>
        <time>2026-05-14T08:36:28.000Z</time>
      </trkpt>
      <trkpt lat="44.1849" lon="5.2881">
        <ele>1210.3</ele>
        <time>2026-05-14T08:36:29.000Z</time>
      </trkpt>
      <trkpt lat="44.18489" lon="5.2881">
        <ele>1210.4</ele>
        <time>2026-05-14T08:36:30.000Z</time>
      </trkpt>
      <trkpt lat="44.18488" lon="5.2881">
        <ele>1210.8</ele>
        <time>2026-05-14T08:36:31.000Z</time>
      </trkpt>
      <trkpt lat="44.18488" lon="5.28811">
        <ele>1210.9</ele>
        <time>2026-05-14T08:36:32.000Z</time>
      </trkpt>
      <trkpt lat="44.18488" lon="5.28812">
        <ele>1210.4</ele>
        <time>2026-05-14T08:36:33.000Z</time>
      </trkpt>
      <trkpt lat="44.18487" lon="5.28813">
        <ele>1210</ele>
        <time>2026-05-14T08:36:34.000Z</time>
      </trkpt>
      <trkpt lat="44.18487" lon="5.28814">
        <ele>1209.9</ele>
        <time>2026-05-14T08:36:35.000Z</time>
      </trkpt>
      <trkpt lat="44.18487" lon="5.28814">
        <ele>1209.3</ele>
        <time>2026-05-14T08:36:36.000Z</time>
      </trkpt>
      <trkpt lat="44.18486" lon="5.28815">
        <ele>1209</ele>
        <time>2026-05-14T08:36:37.000Z</time>
      </trkpt>
      <trkpt lat="44.18485" lon="5.28816">
        <ele>1208.8</ele>
        <time>2026-05-14T08:36:38.000Z</time>
      </trkpt>
      <trkpt lat="44.18484" lon="5.28818">
        <ele>1208.4</ele>
        <time>2026-05-14T08:36:39.000Z</time>
      </trkpt>
      <trkpt lat="44.18484" lon="5.28818">
        <ele>1208.1</ele>
        <time>2026-05-14T08:36:40.000Z</time>
      </trkpt>
      <trkpt lat="44.18483" lon="5.28819">
        <ele>1208.3</ele>
        <time>2026-05-14T08:36:41.000Z</time>
      </trkpt>
      <trkpt lat="44.18482" lon="5.2882">
        <ele>1208.4</ele>
        <time>2026-05-14T08:36:42.000Z</time>
      </trkpt>
      <trkpt lat="44.18481" lon="5.28821">
        <ele>1209.1</ele>
        <time>2026-05-14T08:36:43.000Z</time>
      </trkpt>
      <trkpt lat="44.1848" lon="5.28822">
        <ele>1209.1</ele>
        <time>2026-05-14T08:36:44.000Z</time>
      </trkpt>
      <trkpt lat="44.18479" lon="5.28823">
        <ele>1209.2</ele>
        <time>2026-05-14T08:36:45.000Z</time>
      </trkpt>
      <trkpt lat="44.18479" lon="5.28823">
        <ele>1209.3</ele>
        <time>2026-05-14T08:36:46.000Z</time>
      </trkpt>
      <trkpt lat="44.18478" lon="5.28824">
        <ele>1209.1</ele>
        <time>2026-05-14T08:36:47.000Z</time>
      </trkpt>
      <trkpt lat="44.18478" lon="5.28823">
        <ele>1209.3</ele>
        <time>2026-05-14T08:36:48.000Z</time>
      </trkpt>
      <trkpt lat="44.18478" lon="5.28823">
        <ele>1209.5</ele>
        <time>2026-05-14T08:36:49.000Z</time>
      </trkpt>
      <trkpt lat="44.18477" lon="5.28823">
        <ele>1209.6</ele>
        <time>2026-05-14T08:36:50.000Z</time>
      </trkpt>
      <trkpt lat="44.18477" lon="5.28824">
        <ele>1209.9</ele>
        <time>2026-05-14T08:36:51.000Z</time>
      </trkpt>
      <trkpt lat="44.18475" lon="5.28824">
        <ele>1210.1</ele>
        <time>2026-05-14T08:36:52.000Z</time>
      </trkpt>
      <trkpt lat="44.18474" lon="5.28825">
        <ele>1210</ele>
        <time>2026-05-14T08:36:53.000Z</time>
      </trkpt>
      <trkpt lat="44.18473" lon="5.28826">
        <ele>1209.6</ele>
        <time>2026-05-14T08:36:54.000Z</time>
      </trkpt>
      <trkpt lat="44.18473" lon="5.28827">
        <ele>1209.9</ele>
        <time>2026-05-14T08:36:55.000Z</time>
      </trkpt>
      <trkpt lat="44.18472" lon="5.28828">
        <ele>1209.8</ele>
        <time>2026-05-14T08:36:56.000Z</time>
      </trkpt>
      <trkpt lat="44.18471" lon="5.28829">
        <ele>1209.8</ele>
        <time>2026-05-14T08:36:57.000Z</time>
      </trkpt>
      <trkpt lat="44.18471" lon="5.28828">
        <ele>1209.1</ele>
        <time>2026-05-14T08:36:58.000Z</time>
      </trkpt>
      <trkpt lat="44.1847" lon="5.2883">
        <ele>1209.2</ele>
        <time>2026-05-14T08:36:59.000Z</time>
      </trkpt>
      <trkpt lat="44.18468" lon="5.28831">
        <ele>1209.7</ele>
        <time>2026-05-14T08:37:00.000Z</time>
      </trkpt>
      <trkpt lat="44.18467" lon="5.28833">
        <ele>1210.2</ele>
        <time>2026-05-14T08:37:01.000Z</time>
      </trkpt>
      <trkpt lat="44.18466" lon="5.28833">
        <ele>1210.3</ele>
        <time>2026-05-14T08:37:02.000Z</time>
      </trkpt>
      <trkpt lat="44.18466" lon="5.28834">
        <ele>1210.7</ele>
        <time>2026-05-14T08:37:03.000Z</time>
      </trkpt>
      <trkpt lat="44.18466" lon="5.28835">
        <ele>1210.9</ele>
        <time>2026-05-14T08:37:04.000Z</time>
      </trkpt>
      <trkpt lat="44.18465" lon="5.28836">
        <ele>1211.2</ele>
        <time>2026-05-14T08:37:05.000Z</time>
      </trkpt>
      <trkpt lat="44.18465" lon="5.28837">
        <ele>1211.7</ele>
        <time>2026-05-14T08:37:06.000Z</time>
      </trkpt>
      <trkpt lat="44.18464" lon="5.28838">
        <ele>1211.5</ele>
        <time>2026-05-14T08:37:07.000Z</time>
      </trkpt>
      <trkpt lat="44.18463" lon="5.2884">
        <ele>1211.3</ele>
        <time>2026-05-14T08:37:08.000Z</time>
      </trkpt>
      <trkpt lat="44.18463" lon="5.28841">
        <ele>1211</ele>
        <time>2026-05-14T08:37:09.000Z</time>
      </trkpt>
      <trkpt lat="44.18462" lon="5.28842">
        <ele>1210.9</ele>
        <time>2026-05-14T08:37:10.000Z</time>
      </trkpt>
      <trkpt lat="44.18462" lon="5.28843">
        <ele>1211.5</ele>
        <time>2026-05-14T08:37:11.000Z</time>
      </trkpt>
      <trkpt lat="44.18461" lon="5.28845">
        <ele>1212.6</ele>
        <time>2026-05-14T08:37:12.000Z</time>
      </trkpt>
      <trkpt lat="44.18461" lon="5.28845">
        <ele>1212.6</ele>
        <time>2026-05-14T08:37:13.000Z</time>
      </trkpt>
      <trkpt lat="44.1846" lon="5.28846">
        <ele>1212.7</ele>
        <time>2026-05-14T08:37:14.000Z</time>
      </trkpt>
      <trkpt lat="44.18459" lon="5.28847">
        <ele>1212.2</ele>
        <time>2026-05-14T08:37:15.000Z</time>
      </trkpt>
      <trkpt lat="44.18459" lon="5.28849">
        <ele>1212.8</ele>
        <time>2026-05-14T08:37:16.000Z</time>
      </trkpt>
      <trkpt lat="44.18458" lon="5.2885">
        <ele>1213.5</ele>
        <time>2026-05-14T08:37:17.000Z</time>
      </trkpt>
      <trkpt lat="44.18458" lon="5.28851">
        <ele>1213.8</ele>
        <time>2026-05-14T08:37:18.000Z</time>
      </trkpt>
      <trkpt lat="44.18458" lon="5.28852">
        <ele>1214.7</ele>
        <time>2026-05-14T08:37:19.000Z</time>
      </trkpt>
      <trkpt lat="44.18457" lon="5.28853">
        <ele>1215.4</ele>
        <time>2026-05-14T08:37:20.000Z</time>
      </trkpt>
      <trkpt lat="44.18457" lon="5.28855">
        <ele>1216.2</ele>
        <time>2026-05-14T08:37:21.000Z</time>
      </trkpt>
      <trkpt lat="44.18457" lon="5.28858">
        <ele>1217.5</ele>
        <time>2026-05-14T08:37:22.000Z</time>
      </trkpt>
      <trkpt lat="44.18457" lon="5.2886">
        <ele>1218.2</ele>
        <time>2026-05-14T08:37:23.000Z</time>
      </trkpt>
      <trkpt lat="44.18457" lon="5.28862">
        <ele>1218.3</ele>
        <time>2026-05-14T08:37:24.000Z</time>
      </trkpt>
      <trkpt lat="44.18458" lon="5.28863">
        <ele>1218.8</ele>
        <time>2026-05-14T08:37:25.000Z</time>
      </trkpt>
      <trkpt lat="44.18458" lon="5.28864">
        <ele>1218.9</ele>
        <time>2026-05-14T08:37:26.000Z</time>
      </trkpt>
      <trkpt lat="44.18458" lon="5.28865">
        <ele>1218.3</ele>
        <time>2026-05-14T08:37:27.000Z</time>
      </trkpt>
      <trkpt lat="44.18458" lon="5.28866">
        <ele>1219.2</ele>
        <time>2026-05-14T08:37:28.000Z</time>
      </trkpt>
      <trkpt lat="44.18458" lon="5.28866">
        <ele>1219.4</ele>
        <time>2026-05-14T08:37:29.000Z</time>
      </trkpt>
      <trkpt lat="44.18458" lon="5.28867">
        <ele>1219.5</ele>
        <time>2026-05-14T08:37:30.000Z</time>
      </trkpt>
      <trkpt lat="44.18458" lon="5.28868">
        <ele>1219.3</ele>
        <time>2026-05-14T08:37:31.000Z</time>
      </trkpt>
      <trkpt lat="44.18459" lon="5.2887">
        <ele>1219.9</ele>
        <time>2026-05-14T08:37:32.000Z</time>
      </trkpt>
      <trkpt lat="44.18458" lon="5.28872">
        <ele>1220.6</ele>
        <time>2026-05-14T08:37:33.000Z</time>
      </trkpt>
      <trkpt lat="44.18458" lon="5.28873">
        <ele>1220.8</ele>
        <time>2026-05-14T08:37:34.000Z</time>
      </trkpt>
      <trkpt lat="44.18458" lon="5.28875">
        <ele>1221</ele>
        <time>2026-05-14T08:37:35.000Z</time>
      </trkpt>
      <trkpt lat="44.18458" lon="5.28877">
        <ele>1221.8</ele>
        <time>2026-05-14T08:37:36.000Z</time>
      </trkpt>
      <trkpt lat="44.18458" lon="5.28878">
        <ele>1223</ele>
        <time>2026-05-14T08:37:37.000Z</time>
      </trkpt>
      <trkpt lat="44.18459" lon="5.28879">
        <ele>1223</ele>
        <time>2026-05-14T08:37:38.000Z</time>
      </trkpt>
      <trkpt lat="44.1846" lon="5.28879">
        <ele>1223.4</ele>
        <time>2026-05-14T08:37:39.000Z</time>
      </trkpt>
      <trkpt lat="44.18461" lon="5.2888">
        <ele>1224.2</ele>
        <time>2026-05-14T08:37:40.000Z</time>
      </trkpt>
      <trkpt lat="44.18462" lon="5.28882">
        <ele>1224.8</ele>
        <time>2026-05-14T08:37:41.000Z</time>
      </trkpt>
      <trkpt lat="44.18463" lon="5.28882">
        <ele>1225.3</ele>
        <time>2026-05-14T08:37:42.000Z</time>
      </trkpt>
      <trkpt lat="44.18464" lon="5.28883">
        <ele>1226.8</ele>
        <time>2026-05-14T08:37:43.000Z</time>
      </trkpt>
      <trkpt lat="44.18465" lon="5.28885">
        <ele>1228.1</ele>
        <time>2026-05-14T08:37:44.000Z</time>
      </trkpt>
      <trkpt lat="44.18467" lon="5.28886">
        <ele>1229</ele>
        <time>2026-05-14T08:37:45.000Z</time>
      </trkpt>
      <trkpt lat="44.18467" lon="5.28888">
        <ele>1229</ele>
        <time>2026-05-14T08:37:46.000Z</time>
      </trkpt>
      <trkpt lat="44.18468" lon="5.2889">
        <ele>1229.4</ele>
        <time>2026-05-14T08:37:47.000Z</time>
      </trkpt>
      <trkpt lat="44.18468" lon="5.2889">
        <ele>1229.7</ele>
        <time>2026-05-14T08:37:48.000Z</time>
      </trkpt>
      <trkpt lat="44.18468" lon="5.28891">
        <ele>1230.4</ele>
        <time>2026-05-14T08:37:49.000Z</time>
      </trkpt>
      <trkpt lat="44.18469" lon="5.28891">
        <ele>1231.8</ele>
        <time>2026-05-14T08:37:50.000Z</time>
      </trkpt>
      <trkpt lat="44.18469" lon="5.28892">
        <ele>1232.6</ele>
        <time>2026-05-14T08:37:51.000Z</time>
      </trkpt>
      <trkpt lat="44.1847" lon="5.28893">
        <ele>1233.1</ele>
        <time>2026-05-14T08:37:52.000Z</time>
      </trkpt>
      <trkpt lat="44.1847" lon="5.28894">
        <ele>1233.8</ele>
        <time>2026-05-14T08:37:53.000Z</time>
      </trkpt>
      <trkpt lat="44.1847" lon="5.28897">
        <ele>1234.6</ele>
        <time>2026-05-14T08:37:54.000Z</time>
      </trkpt>
      <trkpt lat="44.1847" lon="5.28899">
        <ele>1235</ele>
        <time>2026-05-14T08:37:55.000Z</time>
      </trkpt>
      <trkpt lat="44.18471" lon="5.289">
        <ele>1235.2</ele>
        <time>2026-05-14T08:37:56.000Z</time>
      </trkpt>
      <trkpt lat="44.18471" lon="5.28902">
        <ele>1235.4</ele>
        <time>2026-05-14T08:37:57.000Z</time>
      </trkpt>
      <trkpt lat="44.18471" lon="5.28903">
        <ele>1236.2</ele>
        <time>2026-05-14T08:37:58.000Z</time>
      </trkpt>
      <trkpt lat="44.18471" lon="5.28905">
        <ele>1237</ele>
        <time>2026-05-14T08:37:59.000Z</time>
      </trkpt>
      <trkpt lat="44.18471" lon="5.28906">
        <ele>1237.8</ele>
        <time>2026-05-14T08:38:00.000Z</time>
      </trkpt>
      <trkpt lat="44.18471" lon="5.28906">
        <ele>1238.3</ele>
        <time>2026-05-14T08:38:01.000Z</time>
      </trkpt>
      <trkpt lat="44.18472" lon="5.28906">
        <ele>1238.5</ele>
        <time>2026-05-14T08:38:02.000Z</time>
      </trkpt>
      <trkpt lat="44.18473" lon="5.28906">
        <ele>1238.8</ele>
        <time>2026-05-14T08:38:03.000Z</time>
      </trkpt>
      <trkpt lat="44.18473" lon="5.28906">
        <ele>1239.1</ele>
        <time>2026-05-14T08:38:04.000Z</time>
      </trkpt>
      <trkpt lat="44.18474" lon="5.28906">
        <ele>1240</ele>
        <time>2026-05-14T08:38:05.000Z</time>
      </trkpt>
      <trkpt lat="44.18475" lon="5.28906">
        <ele>1240.1</ele>
        <time>2026-05-14T08:38:06.000Z</time>
      </trkpt>
      <trkpt lat="44.18475" lon="5.28907">
        <ele>1239.8</ele>
        <time>2026-05-14T08:38:07.000Z</time>
      </trkpt>
      <trkpt lat="44.18475" lon="5.28907">
        <ele>1239.7</ele>
        <time>2026-05-14T08:38:08.000Z</time>
      </trkpt>
      <trkpt lat="44.18475" lon="5.28907">
        <ele>1239.6</ele>
        <time>2026-05-14T08:38:09.000Z</time>
      </trkpt>
      <trkpt lat="44.18475" lon="5.28907">
        <ele>1239.6</ele>
        <time>2026-05-14T08:38:10.000Z</time>
      </trkpt>
      <trkpt lat="44.18475" lon="5.28907">
        <ele>1239.7</ele>
        <time>2026-05-14T08:38:11.000Z</time>
      </trkpt>
      <trkpt lat="44.18477" lon="5.2891">
        <ele>1240.4</ele>
        <time>2026-05-14T08:38:12.000Z</time>
      </trkpt>
      <trkpt lat="44.18478" lon="5.28911">
        <ele>1241.4</ele>
        <time>2026-05-14T08:38:13.000Z</time>
      </trkpt>
      <trkpt lat="44.18479" lon="5.28913">
        <ele>1242.1</ele>
        <time>2026-05-14T08:38:14.000Z</time>
      </trkpt>
      <trkpt lat="44.18479" lon="5.28915">
        <ele>1242.2</ele>
        <time>2026-05-14T08:38:15.000Z</time>
      </trkpt>
      <trkpt lat="44.1848" lon="5.28917">
        <ele>1242.5</ele>
        <time>2026-05-14T08:38:16.000Z</time>
      </trkpt>
      <trkpt lat="44.1848" lon="5.28919">
        <ele>1242.3</ele>
        <time>2026-05-14T08:38:17.000Z</time>
      </trkpt>
      <trkpt lat="44.1848" lon="5.28921">
        <ele>1242.3</ele>
        <time>2026-05-14T08:38:18.000Z</time>
      </trkpt>
      <trkpt lat="44.1848" lon="5.28922">
        <ele>1242</ele>
        <time>2026-05-14T08:38:19.000Z</time>
      </trkpt>
      <trkpt lat="44.1848" lon="5.28924">
        <ele>1242</ele>
        <time>2026-05-14T08:38:21.000Z</time>
      </trkpt>
      <trkpt lat="44.1848" lon="5.28925">
        <ele>1242.2</ele>
        <time>2026-05-14T08:38:22.000Z</time>
      </trkpt>
      <trkpt lat="44.18481" lon="5.28926">
        <ele>1242.3</ele>
        <time>2026-05-14T08:38:23.000Z</time>
      </trkpt>
      <trkpt lat="44.18481" lon="5.28927">
        <ele>1242.3</ele>
        <time>2026-05-14T08:38:24.000Z</time>
      </trkpt>
      <trkpt lat="44.18482" lon="5.28928">
        <ele>1242.7</ele>
        <time>2026-05-14T08:38:25.000Z</time>
      </trkpt>
      <trkpt lat="44.18483" lon="5.28929">
        <ele>1243</ele>
        <time>2026-05-14T08:38:26.000Z</time>
      </trkpt>
      <trkpt lat="44.18484" lon="5.2893">
        <ele>1243</ele>
        <time>2026-05-14T08:38:27.000Z</time>
      </trkpt>
      <trkpt lat="44.18484" lon="5.28931">
        <ele>1242.8</ele>
        <time>2026-05-14T08:38:28.000Z</time>
      </trkpt>
      <trkpt lat="44.18485" lon="5.28933">
        <ele>1242.4</ele>
        <time>2026-05-14T08:38:29.000Z</time>
      </trkpt>
      <trkpt lat="44.18486" lon="5.28934">
        <ele>1242.6</ele>
        <time>2026-05-14T08:38:30.000Z</time>
      </trkpt>
      <trkpt lat="44.18487" lon="5.28934">
        <ele>1242.7</ele>
        <time>2026-05-14T08:38:31.000Z</time>
      </trkpt>
      <trkpt lat="44.18487" lon="5.28934">
        <ele>1242.4</ele>
        <time>2026-05-14T08:38:32.000Z</time>
      </trkpt>
      <trkpt lat="44.18488" lon="5.28934">
        <ele>1242.4</ele>
        <time>2026-05-14T08:38:33.000Z</time>
      </trkpt>
      <trkpt lat="44.18488" lon="5.28935">
        <ele>1242.5</ele>
        <time>2026-05-14T08:38:34.000Z</time>
      </trkpt>
      <trkpt lat="44.18488" lon="5.28936">
        <ele>1242.1</ele>
        <time>2026-05-14T08:38:35.000Z</time>
      </trkpt>
      <trkpt lat="44.18489" lon="5.28936">
        <ele>1241.6</ele>
        <time>2026-05-14T08:38:36.000Z</time>
      </trkpt>
      <trkpt lat="44.18489" lon="5.28937">
        <ele>1241.4</ele>
        <time>2026-05-14T08:38:37.000Z</time>
      </trkpt>
      <trkpt lat="44.18491" lon="5.28939">
        <ele>1241.7</ele>
        <time>2026-05-14T08:38:38.000Z</time>
      </trkpt>
      <trkpt lat="44.18492" lon="5.2894">
        <ele>1242.1</ele>
        <time>2026-05-14T08:38:39.000Z</time>
      </trkpt>
      <trkpt lat="44.18492" lon="5.28941">
        <ele>1242.1</ele>
        <time>2026-05-14T08:38:40.000Z</time>
      </trkpt>
      <trkpt lat="44.18493" lon="5.28942">
        <ele>1241.4</ele>
        <time>2026-05-14T08:38:41.000Z</time>
      </trkpt>
      <trkpt lat="44.18493" lon="5.28942">
        <ele>1241</ele>
        <time>2026-05-14T08:38:42.000Z</time>
      </trkpt>
      <trkpt lat="44.18493" lon="5.28943">
        <ele>1240.7</ele>
        <time>2026-05-14T08:38:43.000Z</time>
      </trkpt>
      <trkpt lat="44.18494" lon="5.28944">
        <ele>1240.2</ele>
        <time>2026-05-14T08:38:44.000Z</time>
      </trkpt>
      <trkpt lat="44.18494" lon="5.28945">
        <ele>1240</ele>
        <time>2026-05-14T08:38:45.000Z</time>
      </trkpt>
      <trkpt lat="44.18494" lon="5.28947">
        <ele>1240.3</ele>
        <time>2026-05-14T08:38:46.000Z</time>
      </trkpt>
      <trkpt lat="44.18494" lon="5.28948">
        <ele>1240.2</ele>
        <time>2026-05-14T08:38:47.000Z</time>
      </trkpt>
      <trkpt lat="44.18494" lon="5.28949">
        <ele>1240</ele>
        <time>2026-05-14T08:38:48.000Z</time>
      </trkpt>
      <trkpt lat="44.18495" lon="5.2895">
        <ele>1239.9</ele>
        <time>2026-05-14T08:38:49.000Z</time>
      </trkpt>
      <trkpt lat="44.18495" lon="5.28952">
        <ele>1239.8</ele>
        <time>2026-05-14T08:38:50.000Z</time>
      </trkpt>
      <trkpt lat="44.18496" lon="5.28954">
        <ele>1239.1</ele>
        <time>2026-05-14T08:38:51.000Z</time>
      </trkpt>
      <trkpt lat="44.18497" lon="5.28956">
        <ele>1239</ele>
        <time>2026-05-14T08:38:52.000Z</time>
      </trkpt>
      <trkpt lat="44.18497" lon="5.28957">
        <ele>1239.1</ele>
        <time>2026-05-14T08:38:53.000Z</time>
      </trkpt>
      <trkpt lat="44.18498" lon="5.28959">
        <ele>1239.1</ele>
        <time>2026-05-14T08:38:54.000Z</time>
      </trkpt>
      <trkpt lat="44.18499" lon="5.2896">
        <ele>1239</ele>
        <time>2026-05-14T08:38:55.000Z</time>
      </trkpt>
      <trkpt lat="44.18501" lon="5.28964">
        <ele>1240.4</ele>
        <time>2026-05-14T08:38:57.000Z</time>
      </trkpt>
      <trkpt lat="44.18501" lon="5.28964">
        <ele>1240.2</ele>
        <time>2026-05-14T08:38:58.000Z</time>
      </trkpt>
      <trkpt lat="44.18501" lon="5.28965">
        <ele>1239.7</ele>
        <time>2026-05-14T08:38:59.000Z</time>
      </trkpt>
      <trkpt lat="44.18502" lon="5.28966">
        <ele>1240.1</ele>
        <time>2026-05-14T08:39:00.000Z</time>
      </trkpt>
      <trkpt lat="44.18502" lon="5.28966">
        <ele>1240.4</ele>
        <time>2026-05-14T08:39:01.000Z</time>
      </trkpt>
      <trkpt lat="44.18503" lon="5.28966">
        <ele>1240.7</ele>
        <time>2026-05-14T08:39:02.000Z</time>
      </trkpt>
      <trkpt lat="44.18503" lon="5.28967">
        <ele>1240.6</ele>
        <time>2026-05-14T08:39:03.000Z</time>
      </trkpt>
      <trkpt lat="44.18504" lon="5.28968">
        <ele>1241.6</ele>
        <time>2026-05-14T08:39:04.000Z</time>
      </trkpt>
      <trkpt lat="44.18504" lon="5.28969">
        <ele>1241.9</ele>
        <time>2026-05-14T08:39:05.000Z</time>
      </trkpt>
      <trkpt lat="44.18505" lon="5.2897">
        <ele>1241.6</ele>
        <time>2026-05-14T08:39:06.000Z</time>
      </trkpt>
      <trkpt lat="44.18508" lon="5.28973">
        <ele>1242.4</ele>
        <time>2026-05-14T08:39:08.000Z</time>
      </trkpt>
      <trkpt lat="44.18508" lon="5.28973">
        <ele>1242.5</ele>
        <time>2026-05-14T08:39:09.000Z</time>
      </trkpt>
      <trkpt lat="44.18509" lon="5.28973">
        <ele>1243.3</ele>
        <time>2026-05-14T08:39:10.000Z</time>
      </trkpt>
      <trkpt lat="44.18509" lon="5.28974">
        <ele>1244.1</ele>
        <time>2026-05-14T08:39:11.000Z</time>
      </trkpt>
      <trkpt lat="44.1851" lon="5.28975">
        <ele>1243.6</ele>
        <time>2026-05-14T08:39:12.000Z</time>
      </trkpt>
      <trkpt lat="44.1851" lon="5.28975">
        <ele>1243.1</ele>
        <time>2026-05-14T08:39:13.000Z</time>
      </trkpt>
      <trkpt lat="44.18511" lon="5.28976">
        <ele>1243</ele>
        <time>2026-05-14T08:39:14.000Z</time>
      </trkpt>
      <trkpt lat="44.18511" lon="5.28977">
        <ele>1243</ele>
        <time>2026-05-14T08:39:15.000Z</time>
      </trkpt>
      <trkpt lat="44.18512" lon="5.28978">
        <ele>1243.2</ele>
        <time>2026-05-14T08:39:16.000Z</time>
      </trkpt>
      <trkpt lat="44.18513" lon="5.28979">
        <ele>1244.3</ele>
        <time>2026-05-14T08:39:17.000Z</time>
      </trkpt>
      <trkpt lat="44.18513" lon="5.2898">
        <ele>1244.9</ele>
        <time>2026-05-14T08:39:18.000Z</time>
      </trkpt>
      <trkpt lat="44.18513" lon="5.28981">
        <ele>1244.5</ele>
        <time>2026-05-14T08:39:19.000Z</time>
      </trkpt>
      <trkpt lat="44.18513" lon="5.28982">
        <ele>1244.7</ele>
        <time>2026-05-14T08:39:20.000Z</time>
      </trkpt>
      <trkpt lat="44.18515" lon="5.28983">
        <ele>1245.4</ele>
        <time>2026-05-14T08:39:21.000Z</time>
      </trkpt>
      <trkpt lat="44.18515" lon="5.28984">
        <ele>1245.2</ele>
        <time>2026-05-14T08:39:22.000Z</time>
      </trkpt>
      <trkpt lat="44.18516" lon="5.28986">
        <ele>1245.5</ele>
        <time>2026-05-14T08:39:23.000Z</time>
      </trkpt>
      <trkpt lat="44.18517" lon="5.28986">
        <ele>1246.4</ele>
        <time>2026-05-14T08:39:24.000Z</time>
      </trkpt>
      <trkpt lat="44.18518" lon="5.28987">
        <ele>1246.9</ele>
        <time>2026-05-14T08:39:25.000Z</time>
      </trkpt>
      <trkpt lat="44.18518" lon="5.28987">
        <ele>1247.1</ele>
        <time>2026-05-14T08:39:26.000Z</time>
      </trkpt>
      <trkpt lat="44.18518" lon="5.28987">
        <ele>1247.4</ele>
        <time>2026-05-14T08:39:27.000Z</time>
      </trkpt>
      <trkpt lat="44.18518" lon="5.28987">
        <ele>1248.2</ele>
        <time>2026-05-14T08:39:28.000Z</time>
      </trkpt>
      <trkpt lat="44.18519" lon="5.28988">
        <ele>1248.9</ele>
        <time>2026-05-14T08:39:29.000Z</time>
      </trkpt>
      <trkpt lat="44.18519" lon="5.28989">
        <ele>1249.4</ele>
        <time>2026-05-14T08:39:30.000Z</time>
      </trkpt>
      <trkpt lat="44.1852" lon="5.28989">
        <ele>1250.3</ele>
        <time>2026-05-14T08:39:31.000Z</time>
      </trkpt>
      <trkpt lat="44.18521" lon="5.2899">
        <ele>1250.4</ele>
        <time>2026-05-14T08:39:32.000Z</time>
      </trkpt>
      <trkpt lat="44.18521" lon="5.2899">
        <ele>1250.4</ele>
        <time>2026-05-14T08:39:33.000Z</time>
      </trkpt>
      <trkpt lat="44.18522" lon="5.28991">
        <ele>1250.7</ele>
        <time>2026-05-14T08:39:34.000Z</time>
      </trkpt>
      <trkpt lat="44.18524" lon="5.28993">
        <ele>1251</ele>
        <time>2026-05-14T08:39:35.000Z</time>
      </trkpt>
      <trkpt lat="44.18525" lon="5.28993">
        <ele>1251.4</ele>
        <time>2026-05-14T08:39:36.000Z</time>
      </trkpt>
      <trkpt lat="44.18526" lon="5.28994">
        <ele>1251.3</ele>
        <time>2026-05-14T08:39:37.000Z</time>
      </trkpt>
      <trkpt lat="44.18527" lon="5.28994">
        <ele>1251.6</ele>
        <time>2026-05-14T08:39:38.000Z</time>
      </trkpt>
      <trkpt lat="44.18528" lon="5.28995">
        <ele>1251.8</ele>
        <time>2026-05-14T08:39:39.000Z</time>
      </trkpt>
      <trkpt lat="44.18529" lon="5.28995">
        <ele>1252</ele>
        <time>2026-05-14T08:39:40.000Z</time>
      </trkpt>
      <trkpt lat="44.18531" lon="5.28996">
        <ele>1252.1</ele>
        <time>2026-05-14T08:39:42.000Z</time>
      </trkpt>
      <trkpt lat="44.18533" lon="5.28997">
        <ele>1252.1</ele>
        <time>2026-05-14T08:39:43.000Z</time>
      </trkpt>
      <trkpt lat="44.18535" lon="5.28998">
        <ele>1252.7</ele>
        <time>2026-05-14T08:39:44.000Z</time>
      </trkpt>
      <trkpt lat="44.18535" lon="5.28998">
        <ele>1252.5</ele>
        <time>2026-05-14T08:39:45.000Z</time>
      </trkpt>
      <trkpt lat="44.18537" lon="5.28999">
        <ele>1252.6</ele>
        <time>2026-05-14T08:39:46.000Z</time>
      </trkpt>
      <trkpt lat="44.18538" lon="5.29">
        <ele>1253</ele>
        <time>2026-05-14T08:39:47.000Z</time>
      </trkpt>
      <trkpt lat="44.18539" lon="5.29001">
        <ele>1253</ele>
        <time>2026-05-14T08:39:48.000Z</time>
      </trkpt>
      <trkpt lat="44.1854" lon="5.29002">
        <ele>1252.8</ele>
        <time>2026-05-14T08:39:49.000Z</time>
      </trkpt>
      <trkpt lat="44.1854" lon="5.29002">
        <ele>1252.8</ele>
        <time>2026-05-14T08:39:50.000Z</time>
      </trkpt>
      <trkpt lat="44.18541" lon="5.29003">
        <ele>1252.7</ele>
        <time>2026-05-14T08:39:51.000Z</time>
      </trkpt>
      <trkpt lat="44.18542" lon="5.29004">
        <ele>1252.8</ele>
        <time>2026-05-14T08:39:52.000Z</time>
      </trkpt>
      <trkpt lat="44.18543" lon="5.29004">
        <ele>1253.6</ele>
        <time>2026-05-14T08:39:53.000Z</time>
      </trkpt>
      <trkpt lat="44.18544" lon="5.29004">
        <ele>1253.3</ele>
        <time>2026-05-14T08:39:54.000Z</time>
      </trkpt>
      <trkpt lat="44.18545" lon="5.29005">
        <ele>1253.4</ele>
        <time>2026-05-14T08:39:55.000Z</time>
      </trkpt>
      <trkpt lat="44.18546" lon="5.29006">
        <ele>1253.4</ele>
        <time>2026-05-14T08:39:56.000Z</time>
      </trkpt>
      <trkpt lat="44.18547" lon="5.29007">
        <ele>1253.1</ele>
        <time>2026-05-14T08:39:57.000Z</time>
      </trkpt>
      <trkpt lat="44.18547" lon="5.29008">
        <ele>1252.9</ele>
        <time>2026-05-14T08:39:58.000Z</time>
      </trkpt>
      <trkpt lat="44.18548" lon="5.29008">
        <ele>1252.8</ele>
        <time>2026-05-14T08:39:59.000Z</time>
      </trkpt>
      <trkpt lat="44.1855" lon="5.29009">
        <ele>1252.8</ele>
        <time>2026-05-14T08:40:00.000Z</time>
      </trkpt>
      <trkpt lat="44.18551" lon="5.29009">
        <ele>1252.9</ele>
        <time>2026-05-14T08:40:01.000Z</time>
      </trkpt>
      <trkpt lat="44.18552" lon="5.2901">
        <ele>1253</ele>
        <time>2026-05-14T08:40:02.000Z</time>
      </trkpt>
      <trkpt lat="44.18552" lon="5.2901">
        <ele>1253</ele>
        <time>2026-05-14T08:40:03.000Z</time>
      </trkpt>
      <trkpt lat="44.18552" lon="5.29012">
        <ele>1252</ele>
        <time>2026-05-14T08:40:04.000Z</time>
      </trkpt>
      <trkpt lat="44.18552" lon="5.29013">
        <ele>1251.9</ele>
        <time>2026-05-14T08:40:05.000Z</time>
      </trkpt>
      <trkpt lat="44.18551" lon="5.29014">
        <ele>1251.9</ele>
        <time>2026-05-14T08:40:06.000Z</time>
      </trkpt>
      <trkpt lat="44.18551" lon="5.29015">
        <ele>1252.1</ele>
        <time>2026-05-14T08:40:07.000Z</time>
      </trkpt>
      <trkpt lat="44.1855" lon="5.29016">
        <ele>1252.3</ele>
        <time>2026-05-14T08:40:08.000Z</time>
      </trkpt>
      <trkpt lat="44.1855" lon="5.29016">
        <ele>1252.3</ele>
        <time>2026-05-14T08:40:09.000Z</time>
      </trkpt>
      <trkpt lat="44.1855" lon="5.29017">
        <ele>1251.8</ele>
        <time>2026-05-14T08:40:10.000Z</time>
      </trkpt>
      <trkpt lat="44.18549" lon="5.29018">
        <ele>1251.4</ele>
        <time>2026-05-14T08:40:11.000Z</time>
      </trkpt>
      <trkpt lat="44.18549" lon="5.29019">
        <ele>1251</ele>
        <time>2026-05-14T08:40:12.000Z</time>
      </trkpt>
      <trkpt lat="44.18549" lon="5.2902">
        <ele>1250.4</ele>
        <time>2026-05-14T08:40:13.000Z</time>
      </trkpt>
      <trkpt lat="44.18548" lon="5.29023">
        <ele>1250.3</ele>
        <time>2026-05-14T08:40:14.000Z</time>
      </trkpt>
      <trkpt lat="44.18548" lon="5.29025">
        <ele>1250.8</ele>
        <time>2026-05-14T08:40:15.000Z</time>
      </trkpt>
      <trkpt lat="44.18547" lon="5.29026">
        <ele>1249.8</ele>
        <time>2026-05-14T08:40:16.000Z</time>
      </trkpt>
      <trkpt lat="44.18546" lon="5.29027">
        <ele>1249.6</ele>
        <time>2026-05-14T08:40:17.000Z</time>
      </trkpt>
      <trkpt lat="44.18546" lon="5.29029">
        <ele>1249.3</ele>
        <time>2026-05-14T08:40:18.000Z</time>
      </trkpt>
      <trkpt lat="44.18545" lon="5.29031">
        <ele>1248.1</ele>
        <time>2026-05-14T08:40:20.000Z</time>
      </trkpt>
      <trkpt lat="44.18544" lon="5.29032">
        <ele>1248.4</ele>
        <time>2026-05-14T08:40:21.000Z</time>
      </trkpt>
      <trkpt lat="44.18544" lon="5.29034">
        <ele>1248.6</ele>
        <time>2026-05-14T08:40:22.000Z</time>
      </trkpt>
      <trkpt lat="44.18542" lon="5.29035">
        <ele>1248.6</ele>
        <time>2026-05-14T08:40:23.000Z</time>
      </trkpt>
      <trkpt lat="44.18542" lon="5.29036">
        <ele>1249.3</ele>
        <time>2026-05-14T08:40:24.000Z</time>
      </trkpt>
      <trkpt lat="44.18541" lon="5.29037">
        <ele>1249.1</ele>
        <time>2026-05-14T08:40:25.000Z</time>
      </trkpt>
      <trkpt lat="44.18541" lon="5.29038">
        <ele>1248.9</ele>
        <time>2026-05-14T08:40:26.000Z</time>
      </trkpt>
      <trkpt lat="44.1854" lon="5.2904">
        <ele>1248.7</ele>
        <time>2026-05-14T08:40:28.000Z</time>
      </trkpt>
      <trkpt lat="44.1854" lon="5.29041">
        <ele>1248.7</ele>
        <time>2026-05-14T08:40:29.000Z</time>
      </trkpt>
      <trkpt lat="44.18539" lon="5.29042">
        <ele>1248.5</ele>
        <time>2026-05-14T08:40:30.000Z</time>
      </trkpt>
      <trkpt lat="44.1854" lon="5.29042">
        <ele>1247.9</ele>
        <time>2026-05-14T08:40:31.000Z</time>
      </trkpt>
      <trkpt lat="44.18539" lon="5.29043">
        <ele>1247.6</ele>
        <time>2026-05-14T08:40:32.000Z</time>
      </trkpt>
      <trkpt lat="44.1854" lon="5.29044">
        <ele>1247.4</ele>
        <time>2026-05-14T08:40:33.000Z</time>
      </trkpt>
      <trkpt lat="44.1854" lon="5.29046">
        <ele>1247</ele>
        <time>2026-05-14T08:40:34.000Z</time>
      </trkpt>
      <trkpt lat="44.1854" lon="5.29047">
        <ele>1246.4</ele>
        <time>2026-05-14T08:40:35.000Z</time>
      </trkpt>
      <trkpt lat="44.1854" lon="5.29049">
        <ele>1246.2</ele>
        <time>2026-05-14T08:40:36.000Z</time>
      </trkpt>
      <trkpt lat="44.1854" lon="5.2905">
        <ele>1246.2</ele>
        <time>2026-05-14T08:40:37.000Z</time>
      </trkpt>
      <trkpt lat="44.1854" lon="5.2905">
        <ele>1246.5</ele>
        <time>2026-05-14T08:40:38.000Z</time>
      </trkpt>
      <trkpt lat="44.18541" lon="5.29051">
        <ele>1247</ele>
        <time>2026-05-14T08:40:39.000Z</time>
      </trkpt>
      <trkpt lat="44.18541" lon="5.29052">
        <ele>1247.3</ele>
        <time>2026-05-14T08:40:40.000Z</time>
      </trkpt>
      <trkpt lat="44.18541" lon="5.29053">
        <ele>1247.4</ele>
        <time>2026-05-14T08:40:41.000Z</time>
      </trkpt>
      <trkpt lat="44.18541" lon="5.29053">
        <ele>1247.4</ele>
        <time>2026-05-14T08:40:42.000Z</time>
      </trkpt>
      <trkpt lat="44.18541" lon="5.29053">
        <ele>1247.4</ele>
        <time>2026-05-14T08:40:43.000Z</time>
      </trkpt>
      <trkpt lat="44.18541" lon="5.29054">
        <ele>1247.3</ele>
        <time>2026-05-14T08:40:44.000Z</time>
      </trkpt>
      <trkpt lat="44.18542" lon="5.29055">
        <ele>1247.6</ele>
        <time>2026-05-14T08:40:45.000Z</time>
      </trkpt>
      <trkpt lat="44.18542" lon="5.29056">
        <ele>1247.7</ele>
        <time>2026-05-14T08:40:46.000Z</time>
      </trkpt>
      <trkpt lat="44.18542" lon="5.29056">
        <ele>1247.3</ele>
        <time>2026-05-14T08:40:47.000Z</time>
      </trkpt>
      <trkpt lat="44.18542" lon="5.29057">
        <ele>1246.9</ele>
        <time>2026-05-14T08:40:48.000Z</time>
      </trkpt>
      <trkpt lat="44.18543" lon="5.29057">
        <ele>1246.6</ele>
        <time>2026-05-14T08:40:49.000Z</time>
      </trkpt>
      <trkpt lat="44.18543" lon="5.29058">
        <ele>1246.5</ele>
        <time>2026-05-14T08:40:50.000Z</time>
      </trkpt>
      <trkpt lat="44.18543" lon="5.2906">
        <ele>1246.5</ele>
        <time>2026-05-14T08:40:51.000Z</time>
      </trkpt>
      <trkpt lat="44.18543" lon="5.2906">
        <ele>1246.5</ele>
        <time>2026-05-14T08:40:52.000Z</time>
      </trkpt>
      <trkpt lat="44.18543" lon="5.29062">
        <ele>1246.2</ele>
        <time>2026-05-14T08:40:53.000Z</time>
      </trkpt>
      <trkpt lat="44.18543" lon="5.29063">
        <ele>1246</ele>
        <time>2026-05-14T08:40:54.000Z</time>
      </trkpt>
      <trkpt lat="44.18543" lon="5.29064">
        <ele>1246.2</ele>
        <time>2026-05-14T08:40:55.000Z</time>
      </trkpt>
      <trkpt lat="44.18543" lon="5.29065">
        <ele>1245.9</ele>
        <time>2026-05-14T08:40:56.000Z</time>
      </trkpt>
      <trkpt lat="44.18544" lon="5.29067">
        <ele>1245.9</ele>
        <time>2026-05-14T08:40:57.000Z</time>
      </trkpt>
      <trkpt lat="44.18544" lon="5.29068">
        <ele>1245.8</ele>
        <time>2026-05-14T08:40:58.000Z</time>
      </trkpt>
      <trkpt lat="44.18544" lon="5.2907">
        <ele>1245.8</ele>
        <time>2026-05-14T08:40:59.000Z</time>
      </trkpt>
      <trkpt lat="44.18543" lon="5.29071">
        <ele>1246.3</ele>
        <time>2026-05-14T08:41:00.000Z</time>
      </trkpt>
      <trkpt lat="44.18543" lon="5.29071">
        <ele>1246.4</ele>
        <time>2026-05-14T08:41:01.000Z</time>
      </trkpt>
      <trkpt lat="44.18543" lon="5.29073">
        <ele>1245.9</ele>
        <time>2026-05-14T08:41:02.000Z</time>
      </trkpt>
      <trkpt lat="44.18542" lon="5.29075">
        <ele>1245.4</ele>
        <time>2026-05-14T08:41:03.000Z</time>
      </trkpt>
      <trkpt lat="44.18543" lon="5.29078">
        <ele>1246.8</ele>
        <time>2026-05-14T08:41:04.000Z</time>
      </trkpt>
      <trkpt lat="44.18544" lon="5.2908">
        <ele>1247.6</ele>
        <time>2026-05-14T08:41:05.000Z</time>
      </trkpt>
      <trkpt lat="44.18545" lon="5.29083">
        <ele>1248.1</ele>
        <time>2026-05-14T08:41:06.000Z</time>
      </trkpt>
      <trkpt lat="44.18546" lon="5.29085">
        <ele>1248.6</ele>
        <time>2026-05-14T08:41:07.000Z</time>
      </trkpt>
      <trkpt lat="44.18546" lon="5.29087">
        <ele>1249.1</ele>
        <time>2026-05-14T08:41:08.000Z</time>
      </trkpt>
      <trkpt lat="44.18547" lon="5.29089">
        <ele>1249.9</ele>
        <time>2026-05-14T08:41:09.000Z</time>
      </trkpt>
      <trkpt lat="44.18547" lon="5.29089">
        <ele>1249.6</ele>
        <time>2026-05-14T08:41:10.000Z</time>
      </trkpt>
      <trkpt lat="44.18548" lon="5.2909">
        <ele>1249.9</ele>
        <time>2026-05-14T08:41:11.000Z</time>
      </trkpt>
      <trkpt lat="44.18549" lon="5.29091">
        <ele>1250</ele>
        <time>2026-05-14T08:41:12.000Z</time>
      </trkpt>
      <trkpt lat="44.18549" lon="5.29092">
        <ele>1250.4</ele>
        <time>2026-05-14T08:41:13.000Z</time>
      </trkpt>
      <trkpt lat="44.1855" lon="5.29093">
        <ele>1250.8</ele>
        <time>2026-05-14T08:41:14.000Z</time>
      </trkpt>
      <trkpt lat="44.18551" lon="5.29092">
        <ele>1251.6</ele>
        <time>2026-05-14T08:41:15.000Z</time>
      </trkpt>
      <trkpt lat="44.18551" lon="5.29094">
        <ele>1252.7</ele>
        <time>2026-05-14T08:41:16.000Z</time>
      </trkpt>
      <trkpt lat="44.18551" lon="5.29096">
        <ele>1253.3</ele>
        <time>2026-05-14T08:41:18.000Z</time>
      </trkpt>
      <trkpt lat="44.18551" lon="5.29097">
        <ele>1253.2</ele>
        <time>2026-05-14T08:41:19.000Z</time>
      </trkpt>
      <trkpt lat="44.18552" lon="5.29099">
        <ele>1253.9</ele>
        <time>2026-05-14T08:41:20.000Z</time>
      </trkpt>
      <trkpt lat="44.18552" lon="5.291">
        <ele>1253.9</ele>
        <time>2026-05-14T08:41:21.000Z</time>
      </trkpt>
      <trkpt lat="44.18552" lon="5.29103">
        <ele>1254.2</ele>
        <time>2026-05-14T08:41:22.000Z</time>
      </trkpt>
      <trkpt lat="44.18552" lon="5.29106">
        <ele>1253.9</ele>
        <time>2026-05-14T08:41:23.000Z</time>
      </trkpt>
      <trkpt lat="44.18553" lon="5.29108">
        <ele>1254.6</ele>
        <time>2026-05-14T08:41:24.000Z</time>
      </trkpt>
      <trkpt lat="44.18553" lon="5.29109">
        <ele>1254.4</ele>
        <time>2026-05-14T08:41:25.000Z</time>
      </trkpt>
      <trkpt lat="44.18552" lon="5.29112">
        <ele>1254.2</ele>
        <time>2026-05-14T08:41:26.000Z</time>
      </trkpt>
      <trkpt lat="44.18551" lon="5.29113">
        <ele>1254.2</ele>
        <time>2026-05-14T08:41:27.000Z</time>
      </trkpt>
      <trkpt lat="44.18551" lon="5.29115">
        <ele>1254.1</ele>
        <time>2026-05-14T08:41:28.000Z</time>
      </trkpt>
      <trkpt lat="44.18552" lon="5.29116">
        <ele>1254.3</ele>
        <time>2026-05-14T08:41:29.000Z</time>
      </trkpt>
      <trkpt lat="44.18552" lon="5.29118">
        <ele>1254.8</ele>
        <time>2026-05-14T08:41:30.000Z</time>
      </trkpt>
      <trkpt lat="44.18553" lon="5.29118">
        <ele>1255.1</ele>
        <time>2026-05-14T08:41:31.000Z</time>
      </trkpt>
      <trkpt lat="44.18554" lon="5.29119">
        <ele>1257</ele>
        <time>2026-05-14T08:41:32.000Z</time>
      </trkpt>
      <trkpt lat="44.18554" lon="5.2912">
        <ele>1257.7</ele>
        <time>2026-05-14T08:41:33.000Z</time>
      </trkpt>
      <trkpt lat="44.18554" lon="5.29121">
        <ele>1258.2</ele>
        <time>2026-05-14T08:41:34.000Z</time>
      </trkpt>
      <trkpt lat="44.18554" lon="5.29123">
        <ele>1258.5</ele>
        <time>2026-05-14T08:41:35.000Z</time>
      </trkpt>
      <trkpt lat="44.18554" lon="5.29124">
        <ele>1258.1</ele>
        <time>2026-05-14T08:41:36.000Z</time>
      </trkpt>
      <trkpt lat="44.18555" lon="5.29125">
        <ele>1257.4</ele>
        <time>2026-05-14T08:41:37.000Z</time>
      </trkpt>
      <trkpt lat="44.18555" lon="5.29127">
        <ele>1257.1</ele>
        <time>2026-05-14T08:41:38.000Z</time>
      </trkpt>
      <trkpt lat="44.18555" lon="5.29129">
        <ele>1257</ele>
        <time>2026-05-14T08:41:39.000Z</time>
      </trkpt>
      <trkpt lat="44.18555" lon="5.29131">
        <ele>1257.3</ele>
        <time>2026-05-14T08:41:40.000Z</time>
      </trkpt>
      <trkpt lat="44.18555" lon="5.29134">
        <ele>1258.1</ele>
        <time>2026-05-14T08:41:41.000Z</time>
      </trkpt>
      <trkpt lat="44.18556" lon="5.29135">
        <ele>1258.5</ele>
        <time>2026-05-14T08:41:42.000Z</time>
      </trkpt>
      <trkpt lat="44.18556" lon="5.29135">
        <ele>1258.2</ele>
        <time>2026-05-14T08:41:43.000Z</time>
      </trkpt>
      <trkpt lat="44.18556" lon="5.29136">
        <ele>1258.7</ele>
        <time>2026-05-14T08:41:44.000Z</time>
      </trkpt>
      <trkpt lat="44.18556" lon="5.29139">
        <ele>1258.9</ele>
        <time>2026-05-14T08:41:45.000Z</time>
      </trkpt>
      <trkpt lat="44.18556" lon="5.29141">
        <ele>1259</ele>
        <time>2026-05-14T08:41:46.000Z</time>
      </trkpt>
      <trkpt lat="44.18555" lon="5.29143">
        <ele>1259.2</ele>
        <time>2026-05-14T08:41:47.000Z</time>
      </trkpt>
      <trkpt lat="44.18555" lon="5.29145">
        <ele>1259.5</ele>
        <time>2026-05-14T08:41:48.000Z</time>
      </trkpt>
      <trkpt lat="44.18554" lon="5.29145">
        <ele>1259.2</ele>
        <time>2026-05-14T08:41:49.000Z</time>
      </trkpt>
      <trkpt lat="44.18553" lon="5.29146">
        <ele>1259.1</ele>
        <time>2026-05-14T08:41:50.000Z</time>
      </trkpt>
      <trkpt lat="44.18553" lon="5.29147">
        <ele>1258.8</ele>
        <time>2026-05-14T08:41:51.000Z</time>
      </trkpt>
      <trkpt lat="44.18552" lon="5.29149">
        <ele>1259.4</ele>
        <time>2026-05-14T08:41:52.000Z</time>
      </trkpt>
      <trkpt lat="44.1855" lon="5.2915">
        <ele>1260</ele>
        <time>2026-05-14T08:41:53.000Z</time>
      </trkpt>
      <trkpt lat="44.18549" lon="5.29151">
        <ele>1260.6</ele>
        <time>2026-05-14T08:41:54.000Z</time>
      </trkpt>
      <trkpt lat="44.18549" lon="5.29151">
        <ele>1260.3</ele>
        <time>2026-05-14T08:41:55.000Z</time>
      </trkpt>
      <trkpt lat="44.18548" lon="5.29151">
        <ele>1260.2</ele>
        <time>2026-05-14T08:41:56.000Z</time>
      </trkpt>
      <trkpt lat="44.18548" lon="5.29152">
        <ele>1260.9</ele>
        <time>2026-05-14T08:41:58.000Z</time>
      </trkpt>
      <trkpt lat="44.18548" lon="5.29152">
        <ele>1260.7</ele>
        <time>2026-05-14T08:41:59.000Z</time>
      </trkpt>
      <trkpt lat="44.18547" lon="5.29152">
        <ele>1261</ele>
        <time>2026-05-14T08:42:00.000Z</time>
      </trkpt>
      <trkpt lat="44.18547" lon="5.29153">
        <ele>1261.1</ele>
        <time>2026-05-14T08:42:01.000Z</time>
      </trkpt>
      <trkpt lat="44.18546" lon="5.29153">
        <ele>1260.8</ele>
        <time>2026-05-14T08:42:02.000Z</time>
      </trkpt>
      <trkpt lat="44.18545" lon="5.29153">
        <ele>1260.3</ele>
        <time>2026-05-14T08:42:03.000Z</time>
      </trkpt>
      <trkpt lat="44.18544" lon="5.29154">
        <ele>1260</ele>
        <time>2026-05-14T08:42:05.000Z</time>
      </trkpt>
      <trkpt lat="44.18543" lon="5.29154">
        <ele>1259.5</ele>
        <time>2026-05-14T08:42:06.000Z</time>
      </trkpt>
      <trkpt lat="44.18543" lon="5.29154">
        <ele>1258.8</ele>
        <time>2026-05-14T08:42:07.000Z</time>
      </trkpt>
      <trkpt lat="44.18542" lon="5.29155">
        <ele>1258.5</ele>
        <time>2026-05-14T08:42:08.000Z</time>
      </trkpt>
      <trkpt lat="44.18541" lon="5.29155">
        <ele>1258.1</ele>
        <time>2026-05-14T08:42:09.000Z</time>
      </trkpt>
      <trkpt lat="44.1854" lon="5.29155">
        <ele>1257.9</ele>
        <time>2026-05-14T08:42:10.000Z</time>
      </trkpt>
      <trkpt lat="44.18539" lon="5.29155">
        <ele>1258.3</ele>
        <time>2026-05-14T08:42:11.000Z</time>
      </trkpt>
      <trkpt lat="44.18538" lon="5.29155">
        <ele>1258.5</ele>
        <time>2026-05-14T08:42:12.000Z</time>
      </trkpt>
      <trkpt lat="44.18537" lon="5.29156">
        <ele>1259</ele>
        <time>2026-05-14T08:42:13.000Z</time>
      </trkpt>
      <trkpt lat="44.18537" lon="5.29157">
        <ele>1258.9</ele>
        <time>2026-05-14T08:42:14.000Z</time>
      </trkpt>
      <trkpt lat="44.18535" lon="5.29158">
        <ele>1258.4</ele>
        <time>2026-05-14T08:42:16.000Z</time>
      </trkpt>
      <trkpt lat="44.18535" lon="5.29158">
        <ele>1258.5</ele>
        <time>2026-05-14T08:42:17.000Z</time>
      </trkpt>
      <trkpt lat="44.18534" lon="5.29158">
        <ele>1258.4</ele>
        <time>2026-05-14T08:42:18.000Z</time>
      </trkpt>
      <trkpt lat="44.18534" lon="5.29159">
        <ele>1258.4</ele>
        <time>2026-05-14T08:42:19.000Z</time>
      </trkpt>
      <trkpt lat="44.18533" lon="5.29159">
        <ele>1258.4</ele>
        <time>2026-05-14T08:42:20.000Z</time>
      </trkpt>
      <trkpt lat="44.18533" lon="5.29159">
        <ele>1258.7</ele>
        <time>2026-05-14T08:42:21.000Z</time>
      </trkpt>
      <trkpt lat="44.18532" lon="5.29159">
        <ele>1259.1</ele>
        <time>2026-05-14T08:42:22.000Z</time>
      </trkpt>
      <trkpt lat="44.18531" lon="5.29159">
        <ele>1258.4</ele>
        <time>2026-05-14T08:42:23.000Z</time>
      </trkpt>
      <trkpt lat="44.1853" lon="5.29159">
        <ele>1258.7</ele>
        <time>2026-05-14T08:42:24.000Z</time>
      </trkpt>
      <trkpt lat="44.18529" lon="5.29159">
        <ele>1258.2</ele>
        <time>2026-05-14T08:42:25.000Z</time>
      </trkpt>
      <trkpt lat="44.18528" lon="5.29159">
        <ele>1258.3</ele>
        <time>2026-05-14T08:42:26.000Z</time>
      </trkpt>
      <trkpt lat="44.18527" lon="5.29161">
        <ele>1258.6</ele>
        <time>2026-05-14T08:42:27.000Z</time>
      </trkpt>
      <trkpt lat="44.18527" lon="5.29161">
        <ele>1258.7</ele>
        <time>2026-05-14T08:42:28.000Z</time>
      </trkpt>
      <trkpt lat="44.18526" lon="5.29161">
        <ele>1258.6</ele>
        <time>2026-05-14T08:42:29.000Z</time>
      </trkpt>
      <trkpt lat="44.18525" lon="5.29162">
        <ele>1258.4</ele>
        <time>2026-05-14T08:42:30.000Z</time>
      </trkpt>
      <trkpt lat="44.18525" lon="5.29162">
        <ele>1258.9</ele>
        <time>2026-05-14T08:42:31.000Z</time>
      </trkpt>
      <trkpt lat="44.18523" lon="5.29162">
        <ele>1258.7</ele>
        <time>2026-05-14T08:42:32.000Z</time>
      </trkpt>
      <trkpt lat="44.18522" lon="5.29162">
        <ele>1258.8</ele>
        <time>2026-05-14T08:42:33.000Z</time>
      </trkpt>
      <trkpt lat="44.18521" lon="5.29162">
        <ele>1258.9</ele>
        <time>2026-05-14T08:42:34.000Z</time>
      </trkpt>
      <trkpt lat="44.18521" lon="5.29161">
        <ele>1258.9</ele>
        <time>2026-05-14T08:42:35.000Z</time>
      </trkpt>
      <trkpt lat="44.18519" lon="5.29159">
        <ele>1258.5</ele>
        <time>2026-05-14T08:42:36.000Z</time>
      </trkpt>
      <trkpt lat="44.18518" lon="5.2916">
        <ele>1259.5</ele>
        <time>2026-05-14T08:42:37.000Z</time>
      </trkpt>
      <trkpt lat="44.18518" lon="5.29159">
        <ele>1259.4</ele>
        <time>2026-05-14T08:42:38.000Z</time>
      </trkpt>
      <trkpt lat="44.18518" lon="5.29158">
        <ele>1259.3</ele>
        <time>2026-05-14T08:42:39.000Z</time>
      </trkpt>
      <trkpt lat="44.18518" lon="5.29157">
        <ele>1259.6</ele>
        <time>2026-05-14T08:42:40.000Z</time>
      </trkpt>
      <trkpt lat="44.18518" lon="5.29157">
        <ele>1259.1</ele>
        <time>2026-05-14T08:42:41.000Z</time>
      </trkpt>
      <trkpt lat="44.18519" lon="5.29156">
        <ele>1258.8</ele>
        <time>2026-05-14T08:42:42.000Z</time>
      </trkpt>
      <trkpt lat="44.18518" lon="5.29155">
        <ele>1258.6</ele>
        <time>2026-05-14T08:42:43.000Z</time>
      </trkpt>
      <trkpt lat="44.18518" lon="5.29155">
        <ele>1258.4</ele>
        <time>2026-05-14T08:42:44.000Z</time>
      </trkpt>
      <trkpt lat="44.18518" lon="5.29155">
        <ele>1259.1</ele>
        <time>2026-05-14T08:42:45.000Z</time>
      </trkpt>
      <trkpt lat="44.18518" lon="5.29155">
        <ele>1259.3</ele>
        <time>2026-05-14T08:42:46.000Z</time>
      </trkpt>
      <trkpt lat="44.18518" lon="5.29155">
        <ele>1260.2</ele>
        <time>2026-05-14T08:42:47.000Z</time>
      </trkpt>
      <trkpt lat="44.18517" lon="5.29154">
        <ele>1261.1</ele>
        <time>2026-05-14T08:42:48.000Z</time>
      </trkpt>
      <trkpt lat="44.18517" lon="5.29153">
        <ele>1261.2</ele>
        <time>2026-05-14T08:42:49.000Z</time>
      </trkpt>
      <trkpt lat="44.18516" lon="5.29151">
        <ele>1261.6</ele>
        <time>2026-05-14T08:42:51.000Z</time>
      </trkpt>
      <trkpt lat="44.18517" lon="5.2915">
        <ele>1261.4</ele>
        <time>2026-05-14T08:42:52.000Z</time>
      </trkpt>
      <trkpt lat="44.18517" lon="5.29148">
        <ele>1261.4</ele>
        <time>2026-05-14T08:42:53.000Z</time>
      </trkpt>
      <trkpt lat="44.18518" lon="5.29148">
        <ele>1262.2</ele>
        <time>2026-05-14T08:42:54.000Z</time>
      </trkpt>
      <trkpt lat="44.18519" lon="5.29146">
        <ele>1262.7</ele>
        <time>2026-05-14T08:42:55.000Z</time>
      </trkpt>
      <trkpt lat="44.1852" lon="5.29145">
        <ele>1262.9</ele>
        <time>2026-05-14T08:42:56.000Z</time>
      </trkpt>
      <trkpt lat="44.1852" lon="5.29144">
        <ele>1263.4</ele>
        <time>2026-05-14T08:42:57.000Z</time>
      </trkpt>
      <trkpt lat="44.18521" lon="5.29143">
        <ele>1264</ele>
        <time>2026-05-14T08:42:58.000Z</time>
      </trkpt>
      <trkpt lat="44.18521" lon="5.29142">
        <ele>1264.5</ele>
        <time>2026-05-14T08:42:59.000Z</time>
      </trkpt>
      <trkpt lat="44.18522" lon="5.29141">
        <ele>1264.6</ele>
        <time>2026-05-14T08:43:00.000Z</time>
      </trkpt>
      <trkpt lat="44.18522" lon="5.2914">
        <ele>1265.1</ele>
        <time>2026-05-14T08:43:01.000Z</time>
      </trkpt>
      <trkpt lat="44.18523" lon="5.29139">
        <ele>1265.2</ele>
        <time>2026-05-14T08:43:02.000Z</time>
      </trkpt>
      <trkpt lat="44.18523" lon="5.29137">
        <ele>1265.1</ele>
        <time>2026-05-14T08:43:03.000Z</time>
      </trkpt>
      <trkpt lat="44.18524" lon="5.29136">
        <ele>1265</ele>
        <time>2026-05-14T08:43:04.000Z</time>
      </trkpt>
      <trkpt lat="44.18524" lon="5.29135">
        <ele>1264.9</ele>
        <time>2026-05-14T08:43:05.000Z</time>
      </trkpt>
      <trkpt lat="44.18524" lon="5.29133">
        <ele>1265.1</ele>
        <time>2026-05-14T08:43:06.000Z</time>
      </trkpt>
      <trkpt lat="44.18523" lon="5.29132">
        <ele>1264.6</ele>
        <time>2026-05-14T08:43:07.000Z</time>
      </trkpt>
      <trkpt lat="44.18522" lon="5.2913">
        <ele>1264</ele>
        <time>2026-05-14T08:43:08.000Z</time>
      </trkpt>
      <trkpt lat="44.18521" lon="5.29129">
        <ele>1263.7</ele>
        <time>2026-05-14T08:43:09.000Z</time>
      </trkpt>
      <trkpt lat="44.18521" lon="5.29129">
        <ele>1264.5</ele>
        <time>2026-05-14T08:43:10.000Z</time>
      </trkpt>
      <trkpt lat="44.18521" lon="5.29128">
        <ele>1264.8</ele>
        <time>2026-05-14T08:43:11.000Z</time>
      </trkpt>
      <trkpt lat="44.18521" lon="5.29127">
        <ele>1264.6</ele>
        <time>2026-05-14T08:43:12.000Z</time>
      </trkpt>
      <trkpt lat="44.18521" lon="5.29125">
        <ele>1264.9</ele>
        <time>2026-05-14T08:43:13.000Z</time>
      </trkpt>
      <trkpt lat="44.18521" lon="5.29124">
        <ele>1265.1</ele>
        <time>2026-05-14T08:43:14.000Z</time>
      </trkpt>
      <trkpt lat="44.18522" lon="5.29123">
        <ele>1265.7</ele>
        <time>2026-05-14T08:43:15.000Z</time>
      </trkpt>
      <trkpt lat="44.18522" lon="5.29123">
        <ele>1266</ele>
        <time>2026-05-14T08:43:16.000Z</time>
      </trkpt>
      <trkpt lat="44.18522" lon="5.29122">
        <ele>1266.2</ele>
        <time>2026-05-14T08:43:17.000Z</time>
      </trkpt>
      <trkpt lat="44.18522" lon="5.29122">
        <ele>1266.4</ele>
        <time>2026-05-14T08:43:18.000Z</time>
      </trkpt>
      <trkpt lat="44.18521" lon="5.29121">
        <ele>1266</ele>
        <time>2026-05-14T08:43:19.000Z</time>
      </trkpt>
      <trkpt lat="44.1852" lon="5.29118">
        <ele>1265.6</ele>
        <time>2026-05-14T08:43:20.000Z</time>
      </trkpt>
      <trkpt lat="44.1852" lon="5.29116">
        <ele>1265.7</ele>
        <time>2026-05-14T08:43:21.000Z</time>
      </trkpt>
      <trkpt lat="44.18519" lon="5.29114">
        <ele>1266</ele>
        <time>2026-05-14T08:43:22.000Z</time>
      </trkpt>
      <trkpt lat="44.18519" lon="5.29113">
        <ele>1266.2</ele>
        <time>2026-05-14T08:43:23.000Z</time>
      </trkpt>
      <trkpt lat="44.18519" lon="5.29111">
        <ele>1266.5</ele>
        <time>2026-05-14T08:43:24.000Z</time>
      </trkpt>
      <trkpt lat="44.18518" lon="5.2911">
        <ele>1267.3</ele>
        <time>2026-05-14T08:43:25.000Z</time>
      </trkpt>
      <trkpt lat="44.18518" lon="5.29108">
        <ele>1268.5</ele>
        <time>2026-05-14T08:43:26.000Z</time>
      </trkpt>
      <trkpt lat="44.18518" lon="5.29107">
        <ele>1269.2</ele>
        <time>2026-05-14T08:43:27.000Z</time>
      </trkpt>
      <trkpt lat="44.18518" lon="5.29106">
        <ele>1269.8</ele>
        <time>2026-05-14T08:43:28.000Z</time>
      </trkpt>
      <trkpt lat="44.18517" lon="5.29105">
        <ele>1270.3</ele>
        <time>2026-05-14T08:43:29.000Z</time>
      </trkpt>
      <trkpt lat="44.18517" lon="5.29104">
        <ele>1270.8</ele>
        <time>2026-05-14T08:43:30.000Z</time>
      </trkpt>
      <trkpt lat="44.18517" lon="5.29103">
        <ele>1270.9</ele>
        <time>2026-05-14T08:43:31.000Z</time>
      </trkpt>
      <trkpt lat="44.18516" lon="5.29102">
        <ele>1270.6</ele>
        <time>2026-05-14T08:43:32.000Z</time>
      </trkpt>
      <trkpt lat="44.18515" lon="5.29101">
        <ele>1269.5</ele>
        <time>2026-05-14T08:43:33.000Z</time>
      </trkpt>
      <trkpt lat="44.18514" lon="5.291">
        <ele>1268.8</ele>
        <time>2026-05-14T08:43:34.000Z</time>
      </trkpt>
      <trkpt lat="44.18513" lon="5.29099">
        <ele>1268.8</ele>
        <time>2026-05-14T08:43:35.000Z</time>
      </trkpt>
      <trkpt lat="44.18513" lon="5.29097">
        <ele>1268.8</ele>
        <time>2026-05-14T08:43:36.000Z</time>
      </trkpt>
      <trkpt lat="44.18512" lon="5.29096">
        <ele>1268.2</ele>
        <time>2026-05-14T08:43:37.000Z</time>
      </trkpt>
      <trkpt lat="44.18512" lon="5.29094">
        <ele>1269</ele>
        <time>2026-05-14T08:43:38.000Z</time>
      </trkpt>
      <trkpt lat="44.18512" lon="5.29094">
        <ele>1268.6</ele>
        <time>2026-05-14T08:43:39.000Z</time>
      </trkpt>
      <trkpt lat="44.18511" lon="5.29093">
        <ele>1268.9</ele>
        <time>2026-05-14T08:43:40.000Z</time>
      </trkpt>
      <trkpt lat="44.1851" lon="5.29092">
        <ele>1269</ele>
        <time>2026-05-14T08:43:41.000Z</time>
      </trkpt>
      <trkpt lat="44.1851" lon="5.2909">
        <ele>1270.2</ele>
        <time>2026-05-14T08:43:42.000Z</time>
      </trkpt>
      <trkpt lat="44.18509" lon="5.29088">
        <ele>1270.2</ele>
        <time>2026-05-14T08:43:43.000Z</time>
      </trkpt>
      <trkpt lat="44.18509" lon="5.29087">
        <ele>1270.5</ele>
        <time>2026-05-14T08:43:44.000Z</time>
      </trkpt>
      <trkpt lat="44.18508" lon="5.29087">
        <ele>1270.5</ele>
        <time>2026-05-14T08:43:45.000Z</time>
      </trkpt>
      <trkpt lat="44.18508" lon="5.29086">
        <ele>1270.9</ele>
        <time>2026-05-14T08:43:46.000Z</time>
      </trkpt>
      <trkpt lat="44.18508" lon="5.29084">
        <ele>1272.6</ele>
        <time>2026-05-14T08:43:47.000Z</time>
      </trkpt>
      <trkpt lat="44.18508" lon="5.29083">
        <ele>1274.2</ele>
        <time>2026-05-14T08:43:48.000Z</time>
      </trkpt>
      <trkpt lat="44.18508" lon="5.29081">
        <ele>1275.4</ele>
        <time>2026-05-14T08:43:49.000Z</time>
      </trkpt>
      <trkpt lat="44.18508" lon="5.29079">
        <ele>1276.5</ele>
        <time>2026-05-14T08:43:50.000Z</time>
      </trkpt>
      <trkpt lat="44.18508" lon="5.29078">
        <ele>1277.2</ele>
        <time>2026-05-14T08:43:51.000Z</time>
      </trkpt>
      <trkpt lat="44.18508" lon="5.29077">
        <ele>1277.7</ele>
        <time>2026-05-14T08:43:52.000Z</time>
      </trkpt>
      <trkpt lat="44.18508" lon="5.29076">
        <ele>1278.1</ele>
        <time>2026-05-14T08:43:53.000Z</time>
      </trkpt>
      <trkpt lat="44.18508" lon="5.29075">
        <ele>1277.9</ele>
        <time>2026-05-14T08:43:54.000Z</time>
      </trkpt>
      <trkpt lat="44.18508" lon="5.29075">
        <ele>1277.7</ele>
        <time>2026-05-14T08:43:55.000Z</time>
      </trkpt>
      <trkpt lat="44.18508" lon="5.29073">
        <ele>1277.2</ele>
        <time>2026-05-14T08:43:56.000Z</time>
      </trkpt>
      <trkpt lat="44.18507" lon="5.29072">
        <ele>1276.6</ele>
        <time>2026-05-14T08:43:57.000Z</time>
      </trkpt>
      <trkpt lat="44.18506" lon="5.29071">
        <ele>1275.9</ele>
        <time>2026-05-14T08:43:58.000Z</time>
      </trkpt>
      <trkpt lat="44.18505" lon="5.2907">
        <ele>1276.5</ele>
        <time>2026-05-14T08:43:59.000Z</time>
      </trkpt>
      <trkpt lat="44.18504" lon="5.29069">
        <ele>1277</ele>
        <time>2026-05-14T08:44:00.000Z</time>
      </trkpt>
      <trkpt lat="44.18504" lon="5.29068">
        <ele>1277.2</ele>
        <time>2026-05-14T08:44:01.000Z</time>
      </trkpt>
      <trkpt lat="44.18503" lon="5.29066">
        <ele>1278.3</ele>
        <time>2026-05-14T08:44:02.000Z</time>
      </trkpt>
      <trkpt lat="44.18502" lon="5.29064">
        <ele>1278.8</ele>
        <time>2026-05-14T08:44:03.000Z</time>
      </trkpt>
      <trkpt lat="44.18501" lon="5.29063">
        <ele>1278.8</ele>
        <time>2026-05-14T08:44:04.000Z</time>
      </trkpt>
      <trkpt lat="44.18501" lon="5.29062">
        <ele>1278.6</ele>
        <time>2026-05-14T08:44:05.000Z</time>
      </trkpt>
      <trkpt lat="44.185" lon="5.29061">
        <ele>1278.9</ele>
        <time>2026-05-14T08:44:06.000Z</time>
      </trkpt>
      <trkpt lat="44.185" lon="5.2906">
        <ele>1279.3</ele>
        <time>2026-05-14T08:44:07.000Z</time>
      </trkpt>
      <trkpt lat="44.185" lon="5.29059">
        <ele>1279.8</ele>
        <time>2026-05-14T08:44:08.000Z</time>
      </trkpt>
      <trkpt lat="44.185" lon="5.29059">
        <ele>1280.1</ele>
        <time>2026-05-14T08:44:09.000Z</time>
      </trkpt>
      <trkpt lat="44.18499" lon="5.29058">
        <ele>1281</ele>
        <time>2026-05-14T08:44:10.000Z</time>
      </trkpt>
      <trkpt lat="44.18499" lon="5.29057">
        <ele>1281.2</ele>
        <time>2026-05-14T08:44:11.000Z</time>
      </trkpt>
      <trkpt lat="44.18499" lon="5.29056">
        <ele>1280.9</ele>
        <time>2026-05-14T08:44:12.000Z</time>
      </trkpt>
      <trkpt lat="44.18498" lon="5.29056">
        <ele>1280.8</ele>
        <time>2026-05-14T08:44:13.000Z</time>
      </trkpt>
      <trkpt lat="44.18498" lon="5.29054">
        <ele>1280.8</ele>
        <time>2026-05-14T08:44:14.000Z</time>
      </trkpt>
      <trkpt lat="44.18497" lon="5.29053">
        <ele>1280.5</ele>
        <time>2026-05-14T08:44:15.000Z</time>
      </trkpt>
      <trkpt lat="44.18496" lon="5.29052">
        <ele>1280.3</ele>
        <time>2026-05-14T08:44:16.000Z</time>
      </trkpt>
      <trkpt lat="44.18496" lon="5.29052">
        <ele>1280.6</ele>
        <time>2026-05-14T08:44:17.000Z</time>
      </trkpt>
      <trkpt lat="44.18495" lon="5.29052">
        <ele>1280.7</ele>
        <time>2026-05-14T08:44:18.000Z</time>
      </trkpt>
      <trkpt lat="44.18495" lon="5.29052">
        <ele>1280.7</ele>
        <time>2026-05-14T08:44:19.000Z</time>
      </trkpt>
      <trkpt lat="44.18494" lon="5.29051">
        <ele>1280.7</ele>
        <time>2026-05-14T08:44:20.000Z</time>
      </trkpt>
      <trkpt lat="44.18494" lon="5.29051">
        <ele>1281.2</ele>
        <time>2026-05-14T08:44:21.000Z</time>
      </trkpt>
      <trkpt lat="44.18493" lon="5.29051">
        <ele>1281.5</ele>
        <time>2026-05-14T08:44:22.000Z</time>
      </trkpt>
      <trkpt lat="44.18493" lon="5.29051">
        <ele>1281.9</ele>
        <time>2026-05-14T08:44:23.000Z</time>
      </trkpt>
      <trkpt lat="44.18492" lon="5.2905">
        <ele>1282.1</ele>
        <time>2026-05-14T08:44:24.000Z</time>
      </trkpt>
      <trkpt lat="44.18491" lon="5.29049">
        <ele>1281.6</ele>
        <time>2026-05-14T08:44:25.000Z</time>
      </trkpt>
      <trkpt lat="44.1849" lon="5.29049">
        <ele>1281.6</ele>
        <time>2026-05-14T08:44:26.000Z</time>
      </trkpt>
      <trkpt lat="44.1849" lon="5.29048">
        <ele>1281.8</ele>
        <time>2026-05-14T08:44:27.000Z</time>
      </trkpt>
      <trkpt lat="44.18489" lon="5.29048">
        <ele>1281.6</ele>
        <time>2026-05-14T08:44:28.000Z</time>
      </trkpt>
      <trkpt lat="44.18488" lon="5.29046">
        <ele>1281.8</ele>
        <time>2026-05-14T08:44:29.000Z</time>
      </trkpt>
      <trkpt lat="44.18487" lon="5.29046">
        <ele>1281.6</ele>
        <time>2026-05-14T08:44:30.000Z</time>
      </trkpt>
      <trkpt lat="44.18487" lon="5.29045">
        <ele>1280.6</ele>
        <time>2026-05-14T08:44:31.000Z</time>
      </trkpt>
      <trkpt lat="44.18486" lon="5.29045">
        <ele>1280.3</ele>
        <time>2026-05-14T08:44:32.000Z</time>
      </trkpt>
      <trkpt lat="44.18485" lon="5.29044">
        <ele>1280.3</ele>
        <time>2026-05-14T08:44:33.000Z</time>
      </trkpt>
      <trkpt lat="44.18484" lon="5.29043">
        <ele>1280.4</ele>
        <time>2026-05-14T08:44:34.000Z</time>
      </trkpt>
      <trkpt lat="44.18484" lon="5.29043">
        <ele>1280.1</ele>
        <time>2026-05-14T08:44:35.000Z</time>
      </trkpt>
      <trkpt lat="44.18483" lon="5.29042">
        <ele>1280.2</ele>
        <time>2026-05-14T08:44:36.000Z</time>
      </trkpt>
      <trkpt lat="44.18482" lon="5.29041">
        <ele>1280.1</ele>
        <time>2026-05-14T08:44:37.000Z</time>
      </trkpt>
      <trkpt lat="44.18481" lon="5.29041">
        <ele>1279.9</ele>
        <time>2026-05-14T08:44:38.000Z</time>
      </trkpt>
      <trkpt lat="44.1848" lon="5.2904">
        <ele>1279.9</ele>
        <time>2026-05-14T08:44:39.000Z</time>
      </trkpt>
      <trkpt lat="44.18479" lon="5.2904">
        <ele>1279.4</ele>
        <time>2026-05-14T08:44:40.000Z</time>
      </trkpt>
      <trkpt lat="44.18478" lon="5.2904">
        <ele>1279.4</ele>
        <time>2026-05-14T08:44:41.000Z</time>
      </trkpt>
      <trkpt lat="44.18477" lon="5.2904">
        <ele>1279.3</ele>
        <time>2026-05-14T08:44:42.000Z</time>
      </trkpt>
      <trkpt lat="44.18476" lon="5.29039">
        <ele>1279.4</ele>
        <time>2026-05-14T08:44:43.000Z</time>
      </trkpt>
      <trkpt lat="44.18475" lon="5.29038">
        <ele>1280.1</ele>
        <time>2026-05-14T08:44:44.000Z</time>
      </trkpt>
      <trkpt lat="44.18475" lon="5.29037">
        <ele>1280.9</ele>
        <time>2026-05-14T08:44:45.000Z</time>
      </trkpt>
      <trkpt lat="44.18474" lon="5.29037">
        <ele>1280.7</ele>
        <time>2026-05-14T08:44:46.000Z</time>
      </trkpt>
      <trkpt lat="44.18474" lon="5.29037">
        <ele>1280.1</ele>
        <time>2026-05-14T08:44:47.000Z</time>
      </trkpt>
      <trkpt lat="44.18473" lon="5.29036">
        <ele>1279.9</ele>
        <time>2026-05-14T08:44:48.000Z</time>
      </trkpt>
      <trkpt lat="44.18472" lon="5.29034">
        <ele>1280.5</ele>
        <time>2026-05-14T08:44:49.000Z</time>
      </trkpt>
      <trkpt lat="44.18471" lon="5.29032">
        <ele>1281</ele>
        <time>2026-05-14T08:44:50.000Z</time>
      </trkpt>
      <trkpt lat="44.1847" lon="5.29031">
        <ele>1281.2</ele>
        <time>2026-05-14T08:44:51.000Z</time>
      </trkpt>
      <trkpt lat="44.18469" lon="5.29031">
        <ele>1281.1</ele>
        <time>2026-05-14T08:44:52.000Z</time>
      </trkpt>
      <trkpt lat="44.18468" lon="5.29029">
        <ele>1281.4</ele>
        <time>2026-05-14T08:44:53.000Z</time>
      </trkpt>
      <trkpt lat="44.18467" lon="5.29028">
        <ele>1281.8</ele>
        <time>2026-05-14T08:44:54.000Z</time>
      </trkpt>
      <trkpt lat="44.18466" lon="5.29027">
        <ele>1281.9</ele>
        <time>2026-05-14T08:44:55.000Z</time>
      </trkpt>
      <trkpt lat="44.18465" lon="5.29026">
        <ele>1281.9</ele>
        <time>2026-05-14T08:44:56.000Z</time>
      </trkpt>
      <trkpt lat="44.18464" lon="5.29026">
        <ele>1282</ele>
        <time>2026-05-14T08:44:57.000Z</time>
      </trkpt>
      <trkpt lat="44.18464" lon="5.29025">
        <ele>1281.9</ele>
        <time>2026-05-14T08:44:58.000Z</time>
      </trkpt>
      <trkpt lat="44.18463" lon="5.29025">
        <ele>1281.7</ele>
        <time>2026-05-14T08:44:59.000Z</time>
      </trkpt>
      <trkpt lat="44.18463" lon="5.29025">
        <ele>1281.4</ele>
        <time>2026-05-14T08:45:00.000Z</time>
      </trkpt>
      <trkpt lat="44.18463" lon="5.29025">
        <ele>1281.5</ele>
        <time>2026-05-14T08:45:01.000Z</time>
      </trkpt>
      <trkpt lat="44.18462" lon="5.29025">
        <ele>1281.4</ele>
        <time>2026-05-14T08:45:02.000Z</time>
      </trkpt>
      <trkpt lat="44.18463" lon="5.29026">
        <ele>1281.4</ele>
        <time>2026-05-14T08:45:03.000Z</time>
      </trkpt>
      <trkpt lat="44.18463" lon="5.29026">
        <ele>1281.5</ele>
        <time>2026-05-14T08:45:04.000Z</time>
      </trkpt>
      <trkpt lat="44.18463" lon="5.29026">
        <ele>1281.5</ele>
        <time>2026-05-14T08:45:05.000Z</time>
      </trkpt>
      <trkpt lat="44.18463" lon="5.29025">
        <ele>1281.4</ele>
        <time>2026-05-14T08:45:06.000Z</time>
      </trkpt>
      <trkpt lat="44.18463" lon="5.29025">
        <ele>1281.3</ele>
        <time>2026-05-14T08:45:07.000Z</time>
      </trkpt>
      <trkpt lat="44.18463" lon="5.29025">
        <ele>1281.2</ele>
        <time>2026-05-14T08:45:08.000Z</time>
      </trkpt>
      <trkpt lat="44.18463" lon="5.29024">
        <ele>1281.5</ele>
        <time>2026-05-14T08:45:09.000Z</time>
      </trkpt>
      <trkpt lat="44.18463" lon="5.29024">
        <ele>1281.5</ele>
        <time>2026-05-14T08:45:10.000Z</time>
      </trkpt>
      <trkpt lat="44.18462" lon="5.29024">
        <ele>1281.6</ele>
        <time>2026-05-14T08:45:11.000Z</time>
      </trkpt>
      <trkpt lat="44.18462" lon="5.29024">
        <ele>1281.5</ele>
        <time>2026-05-14T08:45:12.000Z</time>
      </trkpt>
      <trkpt lat="44.18462" lon="5.29024">
        <ele>1281.1</ele>
        <time>2026-05-14T08:45:13.000Z</time>
      </trkpt>
      <trkpt lat="44.18462" lon="5.29024">
        <ele>1281</ele>
        <time>2026-05-14T08:45:14.000Z</time>
      </trkpt>
      <trkpt lat="44.18463" lon="5.29023">
        <ele>1281</ele>
        <time>2026-05-14T08:45:15.000Z</time>
      </trkpt>
      <trkpt lat="44.18464" lon="5.29023">
        <ele>1281.4</ele>
        <time>2026-05-14T08:45:16.000Z</time>
      </trkpt>
      <trkpt lat="44.18463" lon="5.29022">
        <ele>1280.8</ele>
        <time>2026-05-14T08:45:18.000Z</time>
      </trkpt>
      <trkpt lat="44.18463" lon="5.29022">
        <ele>1280.8</ele>
        <time>2026-05-14T08:45:19.000Z</time>
      </trkpt>
      <trkpt lat="44.18463" lon="5.29022">
        <ele>1280.8</ele>
        <time>2026-05-14T08:45:20.000Z</time>
      </trkpt>
      <trkpt lat="44.18462" lon="5.29021">
        <ele>1280.7</ele>
        <time>2026-05-14T08:45:21.000Z</time>
      </trkpt>
      <trkpt lat="44.18462" lon="5.2902">
        <ele>1280.7</ele>
        <time>2026-05-14T08:45:22.000Z</time>
      </trkpt>
      <trkpt lat="44.18461" lon="5.29019">
        <ele>1280.7</ele>
        <time>2026-05-14T08:45:23.000Z</time>
      </trkpt>
      <trkpt lat="44.18461" lon="5.29018">
        <ele>1280.8</ele>
        <time>2026-05-14T08:45:24.000Z</time>
      </trkpt>
      <trkpt lat="44.1846" lon="5.29017">
        <ele>1280.8</ele>
        <time>2026-05-14T08:45:25.000Z</time>
      </trkpt>
      <trkpt lat="44.1846" lon="5.29017">
        <ele>1280.7</ele>
        <time>2026-05-14T08:45:26.000Z</time>
      </trkpt>
      <trkpt lat="44.18459" lon="5.29015">
        <ele>1280.6</ele>
        <time>2026-05-14T08:45:27.000Z</time>
      </trkpt>
      <trkpt lat="44.18457" lon="5.29014">
        <ele>1280.6</ele>
        <time>2026-05-14T08:45:28.000Z</time>
      </trkpt>
      <trkpt lat="44.18456" lon="5.29014">
        <ele>1280.3</ele>
        <time>2026-05-14T08:45:29.000Z</time>
      </trkpt>
      <trkpt lat="44.18455" lon="5.29014">
        <ele>1280</ele>
        <time>2026-05-14T08:45:30.000Z</time>
      </trkpt>
      <trkpt lat="44.18454" lon="5.29014">
        <ele>1280.1</ele>
        <time>2026-05-14T08:45:31.000Z</time>
      </trkpt>
      <trkpt lat="44.18453" lon="5.29013">
        <ele>1280.1</ele>
        <time>2026-05-14T08:45:32.000Z</time>
      </trkpt>
      <trkpt lat="44.18452" lon="5.29012">
        <ele>1280.1</ele>
        <time>2026-05-14T08:45:33.000Z</time>
      </trkpt>
      <trkpt lat="44.18451" lon="5.2901">
        <ele>1279.5</ele>
        <time>2026-05-14T08:45:34.000Z</time>
      </trkpt>
      <trkpt lat="44.1845" lon="5.2901">
        <ele>1279.3</ele>
        <time>2026-05-14T08:45:35.000Z</time>
      </trkpt>
      <trkpt lat="44.18449" lon="5.29009">
        <ele>1279.7</ele>
        <time>2026-05-14T08:45:36.000Z</time>
      </trkpt>
      <trkpt lat="44.18449" lon="5.29008">
        <ele>1279.9</ele>
        <time>2026-05-14T08:45:37.000Z</time>
      </trkpt>
      <trkpt lat="44.18448" lon="5.29007">
        <ele>1279.6</ele>
        <time>2026-05-14T08:45:38.000Z</time>
      </trkpt>
      <trkpt lat="44.18448" lon="5.29006">
        <ele>1279.7</ele>
        <time>2026-05-14T08:45:39.000Z</time>
      </trkpt>
      <trkpt lat="44.18448" lon="5.29005">
        <ele>1280.2</ele>
        <time>2026-05-14T08:45:40.000Z</time>
      </trkpt>
      <trkpt lat="44.18447" lon="5.29004">
        <ele>1280.8</ele>
        <time>2026-05-14T08:45:41.000Z</time>
      </trkpt>
      <trkpt lat="44.18447" lon="5.29002">
        <ele>1280.8</ele>
        <time>2026-05-14T08:45:42.000Z</time>
      </trkpt>
      <trkpt lat="44.18446" lon="5.29001">
        <ele>1280.9</ele>
        <time>2026-05-14T08:45:43.000Z</time>
      </trkpt>
      <trkpt lat="44.18446" lon="5.28999">
        <ele>1280.5</ele>
        <time>2026-05-14T08:45:44.000Z</time>
      </trkpt>
      <trkpt lat="44.18443" lon="5.28997">
        <ele>1280.1</ele>
        <time>2026-05-14T08:45:45.999Z</time>
      </trkpt>
      <trkpt lat="44.18442" lon="5.28996">
        <ele>1280.6</ele>
        <time>2026-05-14T08:45:46.999Z</time>
      </trkpt>
      <trkpt lat="44.1844" lon="5.28995">
        <ele>1280.8</ele>
        <time>2026-05-14T08:45:47.999Z</time>
      </trkpt>
      <trkpt lat="44.18439" lon="5.28995">
        <ele>1281.3</ele>
        <time>2026-05-14T08:45:48.999Z</time>
      </trkpt>
      <trkpt lat="44.18438" lon="5.28995">
        <ele>1281.3</ele>
        <time>2026-05-14T08:45:49.999Z</time>
      </trkpt>
      <trkpt lat="44.18438" lon="5.28995">
        <ele>1280.9</ele>
        <time>2026-05-14T08:45:50.999Z</time>
      </trkpt>
      <trkpt lat="44.18438" lon="5.28994">
        <ele>1281</ele>
        <time>2026-05-14T08:45:51.999Z</time>
      </trkpt>
      <trkpt lat="44.18437" lon="5.28993">
        <ele>1281.1</ele>
        <time>2026-05-14T08:45:52.999Z</time>
      </trkpt>
      <trkpt lat="44.18437" lon="5.28992">
        <ele>1281.2</ele>
        <time>2026-05-14T08:45:53.999Z</time>
      </trkpt>
      <trkpt lat="44.18436" lon="5.28991">
        <ele>1281.5</ele>
        <time>2026-05-14T08:45:54.999Z</time>
      </trkpt>
      <trkpt lat="44.18435" lon="5.28989">
        <ele>1282.4</ele>
        <time>2026-05-14T08:45:55.999Z</time>
      </trkpt>
      <trkpt lat="44.18434" lon="5.28988">
        <ele>1282.6</ele>
        <time>2026-05-14T08:45:56.999Z</time>
      </trkpt>
      <trkpt lat="44.18434" lon="5.28988">
        <ele>1283.1</ele>
        <time>2026-05-14T08:45:57.999Z</time>
      </trkpt>
      <trkpt lat="44.18433" lon="5.28987">
        <ele>1283.4</ele>
        <time>2026-05-14T08:45:58.999Z</time>
      </trkpt>
      <trkpt lat="44.18432" lon="5.28987">
        <ele>1284.2</ele>
        <time>2026-05-14T08:45:59.999Z</time>
      </trkpt>
      <trkpt lat="44.18431" lon="5.28986">
        <ele>1284.1</ele>
        <time>2026-05-14T08:46:00.999Z</time>
      </trkpt>
      <trkpt lat="44.18431" lon="5.28986">
        <ele>1284.8</ele>
        <time>2026-05-14T08:46:01.999Z</time>
      </trkpt>
      <trkpt lat="44.1843" lon="5.28985">
        <ele>1284.3</ele>
        <time>2026-05-14T08:46:02.999Z</time>
      </trkpt>
      <trkpt lat="44.18429" lon="5.28985">
        <ele>1284.3</ele>
        <time>2026-05-14T08:46:03.999Z</time>
      </trkpt>
      <trkpt lat="44.18428" lon="5.28985">
        <ele>1283.9</ele>
        <time>2026-05-14T08:46:04.999Z</time>
      </trkpt>
      <trkpt lat="44.18427" lon="5.28985">
        <ele>1283.7</ele>
        <time>2026-05-14T08:46:05.999Z</time>
      </trkpt>
      <trkpt lat="44.18427" lon="5.28984">
        <ele>1283.6</ele>
        <time>2026-05-14T08:46:06.999Z</time>
      </trkpt>
      <trkpt lat="44.18426" lon="5.28982">
        <ele>1283.6</ele>
        <time>2026-05-14T08:46:07.999Z</time>
      </trkpt>
      <trkpt lat="44.18426" lon="5.28981">
        <ele>1284.4</ele>
        <time>2026-05-14T08:46:08.999Z</time>
      </trkpt>
      <trkpt lat="44.18425" lon="5.2898">
        <ele>1284.3</ele>
        <time>2026-05-14T08:46:09.999Z</time>
      </trkpt>
      <trkpt lat="44.18424" lon="5.2898">
        <ele>1284.5</ele>
        <time>2026-05-14T08:46:10.999Z</time>
      </trkpt>
      <trkpt lat="44.18424" lon="5.28979">
        <ele>1284.5</ele>
        <time>2026-05-14T08:46:11.999Z</time>
      </trkpt>
      <trkpt lat="44.18423" lon="5.28978">
        <ele>1284.7</ele>
        <time>2026-05-14T08:46:12.999Z</time>
      </trkpt>
      <trkpt lat="44.18423" lon="5.28978">
        <ele>1284.8</ele>
        <time>2026-05-14T08:46:13.999Z</time>
      </trkpt>
      <trkpt lat="44.18422" lon="5.28977">
        <ele>1284.1</ele>
        <time>2026-05-14T08:46:14.999Z</time>
      </trkpt>
      <trkpt lat="44.18421" lon="5.28977">
        <ele>1283.7</ele>
        <time>2026-05-14T08:46:15.999Z</time>
      </trkpt>
      <trkpt lat="44.1842" lon="5.28976">
        <ele>1283.4</ele>
        <time>2026-05-14T08:46:16.999Z</time>
      </trkpt>
      <trkpt lat="44.18419" lon="5.28975">
        <ele>1283.3</ele>
        <time>2026-05-14T08:46:17.999Z</time>
      </trkpt>
      <trkpt lat="44.18418" lon="5.28974">
        <ele>1282.9</ele>
        <time>2026-05-14T08:46:18.999Z</time>
      </trkpt>
      <trkpt lat="44.18417" lon="5.28973">
        <ele>1282.4</ele>
        <time>2026-05-14T08:46:19.999Z</time>
      </trkpt>
      <trkpt lat="44.18416" lon="5.28973">
        <ele>1283.2</ele>
        <time>2026-05-14T08:46:20.999Z</time>
      </trkpt>
      <trkpt lat="44.18415" lon="5.28973">
        <ele>1283.4</ele>
        <time>2026-05-14T08:46:21.999Z</time>
      </trkpt>
      <trkpt lat="44.18414" lon="5.28972">
        <ele>1283.6</ele>
        <time>2026-05-14T08:46:22.999Z</time>
      </trkpt>
      <trkpt lat="44.18413" lon="5.28971">
        <ele>1283.5</ele>
        <time>2026-05-14T08:46:23.999Z</time>
      </trkpt>
      <trkpt lat="44.18412" lon="5.28971">
        <ele>1283.6</ele>
        <time>2026-05-14T08:46:24.999Z</time>
      </trkpt>
      <trkpt lat="44.18411" lon="5.2897">
        <ele>1284</ele>
        <time>2026-05-14T08:46:25.999Z</time>
      </trkpt>
      <trkpt lat="44.18411" lon="5.28969">
        <ele>1283.8</ele>
        <time>2026-05-14T08:46:26.999Z</time>
      </trkpt>
      <trkpt lat="44.1841" lon="5.28968">
        <ele>1284.7</ele>
        <time>2026-05-14T08:46:27.999Z</time>
      </trkpt>
      <trkpt lat="44.1841" lon="5.28965">
        <ele>1286.1</ele>
        <time>2026-05-14T08:46:28.999Z</time>
      </trkpt>
      <trkpt lat="44.1841" lon="5.28963">
        <ele>1287.8</ele>
        <time>2026-05-14T08:46:29.999Z</time>
      </trkpt>
      <trkpt lat="44.18409" lon="5.28961">
        <ele>1287.9</ele>
        <time>2026-05-14T08:46:30.999Z</time>
      </trkpt>
      <trkpt lat="44.18408" lon="5.28959">
        <ele>1288.3</ele>
        <time>2026-05-14T08:46:31.999Z</time>
      </trkpt>
      <trkpt lat="44.18408" lon="5.28958">
        <ele>1288.4</ele>
        <time>2026-05-14T08:46:32.999Z</time>
      </trkpt>
      <trkpt lat="44.18407" lon="5.28958">
        <ele>1288.6</ele>
        <time>2026-05-14T08:46:33.999Z</time>
      </trkpt>
      <trkpt lat="44.18407" lon="5.28958">
        <ele>1289.1</ele>
        <time>2026-05-14T08:46:34.999Z</time>
      </trkpt>
      <trkpt lat="44.18406" lon="5.28958">
        <ele>1289</ele>
        <time>2026-05-14T08:46:35.999Z</time>
      </trkpt>
      <trkpt lat="44.18405" lon="5.28958">
        <ele>1289</ele>
        <time>2026-05-14T08:46:36.999Z</time>
      </trkpt>
      <trkpt lat="44.18404" lon="5.28957">
        <ele>1288.6</ele>
        <time>2026-05-14T08:46:37.999Z</time>
      </trkpt>
      <trkpt lat="44.18403" lon="5.28956">
        <ele>1288.3</ele>
        <time>2026-05-14T08:46:38.999Z</time>
      </trkpt>
      <trkpt lat="44.18403" lon="5.28955">
        <ele>1289.1</ele>
        <time>2026-05-14T08:46:39.999Z</time>
      </trkpt>
      <trkpt lat="44.18402" lon="5.28953">
        <ele>1289.5</ele>
        <time>2026-05-14T08:46:40.999Z</time>
      </trkpt>
      <trkpt lat="44.18402" lon="5.28952">
        <ele>1289.7</ele>
        <time>2026-05-14T08:46:41.999Z</time>
      </trkpt>
      <trkpt lat="44.18401" lon="5.28952">
        <ele>1289.5</ele>
        <time>2026-05-14T08:46:42.999Z</time>
      </trkpt>
      <trkpt lat="44.18401" lon="5.28951">
        <ele>1289.3</ele>
        <time>2026-05-14T08:46:43.999Z</time>
      </trkpt>
      <trkpt lat="44.184" lon="5.2895">
        <ele>1289</ele>
        <time>2026-05-14T08:46:44.999Z</time>
      </trkpt>
      <trkpt lat="44.18399" lon="5.28949">
        <ele>1289.3</ele>
        <time>2026-05-14T08:46:45.999Z</time>
      </trkpt>
      <trkpt lat="44.18398" lon="5.28949">
        <ele>1289.1</ele>
        <time>2026-05-14T08:46:46.999Z</time>
      </trkpt>
      <trkpt lat="44.18396" lon="5.28948">
        <ele>1289.1</ele>
        <time>2026-05-14T08:46:47.999Z</time>
      </trkpt>
      <trkpt lat="44.18395" lon="5.28948">
        <ele>1288.6</ele>
        <time>2026-05-14T08:46:48.999Z</time>
      </trkpt>
      <trkpt lat="44.18395" lon="5.28947">
        <ele>1288.6</ele>
        <time>2026-05-14T08:46:49.999Z</time>
      </trkpt>
      <trkpt lat="44.18394" lon="5.28947">
        <ele>1289.1</ele>
        <time>2026-05-14T08:46:50.999Z</time>
      </trkpt>
      <trkpt lat="44.18393" lon="5.28946">
        <ele>1289.1</ele>
        <time>2026-05-14T08:46:51.999Z</time>
      </trkpt>
      <trkpt lat="44.18392" lon="5.28945">
        <ele>1289.5</ele>
        <time>2026-05-14T08:46:52.999Z</time>
      </trkpt>
      <trkpt lat="44.18391" lon="5.28945">
        <ele>1289.6</ele>
        <time>2026-05-14T08:46:53.999Z</time>
      </trkpt>
      <trkpt lat="44.1839" lon="5.28944">
        <ele>1289.9</ele>
        <time>2026-05-14T08:46:54.999Z</time>
      </trkpt>
      <trkpt lat="44.18389" lon="5.28944">
        <ele>1289.7</ele>
        <time>2026-05-14T08:46:55.999Z</time>
      </trkpt>
      <trkpt lat="44.18388" lon="5.28943">
        <ele>1289.2</ele>
        <time>2026-05-14T08:46:56.999Z</time>
      </trkpt>
      <trkpt lat="44.18386" lon="5.28942">
        <ele>1288.9</ele>
        <time>2026-05-14T08:46:57.999Z</time>
      </trkpt>
      <trkpt lat="44.18385" lon="5.28942">
        <ele>1289</ele>
        <time>2026-05-14T08:46:58.999Z</time>
      </trkpt>
      <trkpt lat="44.18384" lon="5.28941">
        <ele>1288.7</ele>
        <time>2026-05-14T08:46:59.999Z</time>
      </trkpt>
      <trkpt lat="44.18383" lon="5.28939">
        <ele>1289.2</ele>
        <time>2026-05-14T08:47:00.999Z</time>
      </trkpt>
      <trkpt lat="44.18382" lon="5.28938">
        <ele>1289.7</ele>
        <time>2026-05-14T08:47:01.999Z</time>
      </trkpt>
      <trkpt lat="44.18381" lon="5.28938">
        <ele>1290</ele>
        <time>2026-05-14T08:47:02.999Z</time>
      </trkpt>
      <trkpt lat="44.1838" lon="5.28938">
        <ele>1290</ele>
        <time>2026-05-14T08:47:03.999Z</time>
      </trkpt>
      <trkpt lat="44.1838" lon="5.28939">
        <ele>1290.1</ele>
        <time>2026-05-14T08:47:04.999Z</time>
      </trkpt>
      <trkpt lat="44.18379" lon="5.28939">
        <ele>1289.5</ele>
        <time>2026-05-14T08:47:05.999Z</time>
      </trkpt>
      <trkpt lat="44.18377" lon="5.28939">
        <ele>1289</ele>
        <time>2026-05-14T08:47:06.999Z</time>
      </trkpt>
      <trkpt lat="44.18376" lon="5.28938">
        <ele>1288.3</ele>
        <time>2026-05-14T08:47:07.999Z</time>
      </trkpt>
      <trkpt lat="44.18375" lon="5.28938">
        <ele>1287.7</ele>
        <time>2026-05-14T08:47:08.999Z</time>
      </trkpt>
      <trkpt lat="44.18375" lon="5.28938">
        <ele>1287.7</ele>
        <time>2026-05-14T08:47:09.999Z</time>
      </trkpt>
      <trkpt lat="44.18374" lon="5.28937">
        <ele>1287.3</ele>
        <time>2026-05-14T08:47:10.999Z</time>
      </trkpt>
      <trkpt lat="44.18373" lon="5.28937">
        <ele>1287.3</ele>
        <time>2026-05-14T08:47:11.999Z</time>
      </trkpt>
      <trkpt lat="44.18372" lon="5.28936">
        <ele>1287.9</ele>
        <time>2026-05-14T08:47:12.999Z</time>
      </trkpt>
      <trkpt lat="44.18371" lon="5.28934">
        <ele>1288.8</ele>
        <time>2026-05-14T08:47:13.999Z</time>
      </trkpt>
      <trkpt lat="44.18369" lon="5.28933">
        <ele>1288.8</ele>
        <time>2026-05-14T08:47:14.999Z</time>
      </trkpt>
      <trkpt lat="44.18369" lon="5.28933">
        <ele>1288.9</ele>
        <time>2026-05-14T08:47:15.999Z</time>
      </trkpt>
      <trkpt lat="44.18368" lon="5.28932">
        <ele>1288.4</ele>
        <time>2026-05-14T08:47:16.999Z</time>
      </trkpt>
      <trkpt lat="44.18367" lon="5.28931">
        <ele>1288.5</ele>
        <time>2026-05-14T08:47:17.999Z</time>
      </trkpt>
      <trkpt lat="44.18366" lon="5.28931">
        <ele>1288.1</ele>
        <time>2026-05-14T08:47:18.999Z</time>
      </trkpt>
      <trkpt lat="44.18365" lon="5.2893">
        <ele>1288</ele>
        <time>2026-05-14T08:47:19.999Z</time>
      </trkpt>
      <trkpt lat="44.18365" lon="5.28931">
        <ele>1288.3</ele>
        <time>2026-05-14T08:47:20.999Z</time>
      </trkpt>
      <trkpt lat="44.18365" lon="5.2893">
        <ele>1288.5</ele>
        <time>2026-05-14T08:47:21.999Z</time>
      </trkpt>
      <trkpt lat="44.18365" lon="5.2893">
        <ele>1288.8</ele>
        <time>2026-05-14T08:47:22.999Z</time>
      </trkpt>
      <trkpt lat="44.18365" lon="5.28931">
        <ele>1288.7</ele>
        <time>2026-05-14T08:47:23.999Z</time>
      </trkpt>
      <trkpt lat="44.18364" lon="5.28931">
        <ele>1288.7</ele>
        <time>2026-05-14T08:47:24.999Z</time>
      </trkpt>
      <trkpt lat="44.18363" lon="5.2893">
        <ele>1288.6</ele>
        <time>2026-05-14T08:47:25.999Z</time>
      </trkpt>
      <trkpt lat="44.18361" lon="5.2893">
        <ele>1288.4</ele>
        <time>2026-05-14T08:47:26.999Z</time>
      </trkpt>
      <trkpt lat="44.1836" lon="5.2893">
        <ele>1288.2</ele>
        <time>2026-05-14T08:47:27.999Z</time>
      </trkpt>
      <trkpt lat="44.18359" lon="5.28931">
        <ele>1288.6</ele>
        <time>2026-05-14T08:47:28.999Z</time>
      </trkpt>
      <trkpt lat="44.18358" lon="5.28931">
        <ele>1289.7</ele>
        <time>2026-05-14T08:47:29.999Z</time>
      </trkpt>
      <trkpt lat="44.18357" lon="5.2893">
        <ele>1290.1</ele>
        <time>2026-05-14T08:47:30.999Z</time>
      </trkpt>
      <trkpt lat="44.18356" lon="5.28929">
        <ele>1289.9</ele>
        <time>2026-05-14T08:47:31.999Z</time>
      </trkpt>
      <trkpt lat="44.18355" lon="5.28928">
        <ele>1289.8</ele>
        <time>2026-05-14T08:47:32.999Z</time>
      </trkpt>
      <trkpt lat="44.18354" lon="5.28927">
        <ele>1289.9</ele>
        <time>2026-05-14T08:47:33.999Z</time>
      </trkpt>
      <trkpt lat="44.18353" lon="5.28926">
        <ele>1290</ele>
        <time>2026-05-14T08:47:34.999Z</time>
      </trkpt>
      <trkpt lat="44.18352" lon="5.28925">
        <ele>1290.1</ele>
        <time>2026-05-14T08:47:35.999Z</time>
      </trkpt>
      <trkpt lat="44.18351" lon="5.28924">
        <ele>1290.7</ele>
        <time>2026-05-14T08:47:36.999Z</time>
      </trkpt>
      <trkpt lat="44.18351" lon="5.28922">
        <ele>1291.6</ele>
        <time>2026-05-14T08:47:37.999Z</time>
      </trkpt>
      <trkpt lat="44.18351" lon="5.28921">
        <ele>1291.7</ele>
        <time>2026-05-14T08:47:38.999Z</time>
      </trkpt>
      <trkpt lat="44.1835" lon="5.2892">
        <ele>1291.9</ele>
        <time>2026-05-14T08:47:39.999Z</time>
      </trkpt>
      <trkpt lat="44.1835" lon="5.2892">
        <ele>1292.1</ele>
        <time>2026-05-14T08:47:40.999Z</time>
      </trkpt>
      <trkpt lat="44.18349" lon="5.28919">
        <ele>1292</ele>
        <time>2026-05-14T08:47:41.999Z</time>
      </trkpt>
      <trkpt lat="44.18349" lon="5.28918">
        <ele>1291.9</ele>
        <time>2026-05-14T08:47:42.999Z</time>
      </trkpt>
      <trkpt lat="44.18348" lon="5.28917">
        <ele>1291.9</ele>
        <time>2026-05-14T08:47:43.999Z</time>
      </trkpt>
      <trkpt lat="44.18347" lon="5.28917">
        <ele>1292</ele>
        <time>2026-05-14T08:47:44.999Z</time>
      </trkpt>
      <trkpt lat="44.18346" lon="5.28917">
        <ele>1291.9</ele>
        <time>2026-05-14T08:47:45.999Z</time>
      </trkpt>
      <trkpt lat="44.18346" lon="5.28917">
        <ele>1292.2</ele>
        <time>2026-05-14T08:47:46.999Z</time>
      </trkpt>
      <trkpt lat="44.18346" lon="5.28916">
        <ele>1292.3</ele>
        <time>2026-05-14T08:47:47.999Z</time>
      </trkpt>
      <trkpt lat="44.18345" lon="5.28915">
        <ele>1292.9</ele>
        <time>2026-05-14T08:47:48.999Z</time>
      </trkpt>
      <trkpt lat="44.18344" lon="5.28913">
        <ele>1293.3</ele>
        <time>2026-05-14T08:47:49.999Z</time>
      </trkpt>
      <trkpt lat="44.18343" lon="5.28911">
        <ele>1293.5</ele>
        <time>2026-05-14T08:47:50.999Z</time>
      </trkpt>
      <trkpt lat="44.18343" lon="5.28911">
        <ele>1293.9</ele>
        <time>2026-05-14T08:47:51.999Z</time>
      </trkpt>
      <trkpt lat="44.18342" lon="5.2891">
        <ele>1294</ele>
        <time>2026-05-14T08:47:52.999Z</time>
      </trkpt>
      <trkpt lat="44.18341" lon="5.28909">
        <ele>1293.9</ele>
        <time>2026-05-14T08:47:53.999Z</time>
      </trkpt>
      <trkpt lat="44.18341" lon="5.28908">
        <ele>1293.6</ele>
        <time>2026-05-14T08:47:54.999Z</time>
      </trkpt>
      <trkpt lat="44.18339" lon="5.28906">
        <ele>1293.7</ele>
        <time>2026-05-14T08:47:55.999Z</time>
      </trkpt>
      <trkpt lat="44.18338" lon="5.28904">
        <ele>1293.7</ele>
        <time>2026-05-14T08:47:56.999Z</time>
      </trkpt>
      <trkpt lat="44.18338" lon="5.28904">
        <ele>1294.1</ele>
        <time>2026-05-14T08:47:57.999Z</time>
      </trkpt>
      <trkpt lat="44.18338" lon="5.28904">
        <ele>1294.3</ele>
        <time>2026-05-14T08:47:58.999Z</time>
      </trkpt>
      <trkpt lat="44.18338" lon="5.28903">
        <ele>1294.3</ele>
        <time>2026-05-14T08:47:59.999Z</time>
      </trkpt>
      <trkpt lat="44.18338" lon="5.28902">
        <ele>1294.4</ele>
        <time>2026-05-14T08:48:00.999Z</time>
      </trkpt>
      <trkpt lat="44.18338" lon="5.28902">
        <ele>1294.7</ele>
        <time>2026-05-14T08:48:01.999Z</time>
      </trkpt>
      <trkpt lat="44.18337" lon="5.28901">
        <ele>1295</ele>
        <time>2026-05-14T08:48:02.999Z</time>
      </trkpt>
      <trkpt lat="44.18336" lon="5.289">
        <ele>1295.4</ele>
        <time>2026-05-14T08:48:03.999Z</time>
      </trkpt>
      <trkpt lat="44.18335" lon="5.28898">
        <ele>1295.1</ele>
        <time>2026-05-14T08:48:04.999Z</time>
      </trkpt>
      <trkpt lat="44.18334" lon="5.28897">
        <ele>1295.1</ele>
        <time>2026-05-14T08:48:05.999Z</time>
      </trkpt>
      <trkpt lat="44.18333" lon="5.28896">
        <ele>1294.8</ele>
        <time>2026-05-14T08:48:06.999Z</time>
      </trkpt>
      <trkpt lat="44.18332" lon="5.28895">
        <ele>1295.1</ele>
        <time>2026-05-14T08:48:07.999Z</time>
      </trkpt>
      <trkpt lat="44.18331" lon="5.28893">
        <ele>1295.3</ele>
        <time>2026-05-14T08:48:08.999Z</time>
      </trkpt>
      <trkpt lat="44.1833" lon="5.28892">
        <ele>1295.5</ele>
        <time>2026-05-14T08:48:09.999Z</time>
      </trkpt>
      <trkpt lat="44.18329" lon="5.28889">
        <ele>1295.9</ele>
        <time>2026-05-14T08:48:10.999Z</time>
      </trkpt>
      <trkpt lat="44.18328" lon="5.28888">
        <ele>1296</ele>
        <time>2026-05-14T08:48:11.999Z</time>
      </trkpt>
      <trkpt lat="44.18327" lon="5.28887">
        <ele>1295.5</ele>
        <time>2026-05-14T08:48:12.999Z</time>
      </trkpt>
      <trkpt lat="44.18326" lon="5.28886">
        <ele>1295.6</ele>
        <time>2026-05-14T08:48:13.999Z</time>
      </trkpt>
      <trkpt lat="44.18325" lon="5.28885">
        <ele>1295.6</ele>
        <time>2026-05-14T08:48:14.999Z</time>
      </trkpt>
      <trkpt lat="44.18324" lon="5.28883">
        <ele>1296.1</ele>
        <time>2026-05-14T08:48:15.999Z</time>
      </trkpt>
      <trkpt lat="44.18324" lon="5.28882">
        <ele>1296.2</ele>
        <time>2026-05-14T08:48:16.999Z</time>
      </trkpt>
      <trkpt lat="44.18323" lon="5.2888">
        <ele>1296</ele>
        <time>2026-05-14T08:48:17.999Z</time>
      </trkpt>
      <trkpt lat="44.18323" lon="5.28879">
        <ele>1296</ele>
        <time>2026-05-14T08:48:18.999Z</time>
      </trkpt>
      <trkpt lat="44.18322" lon="5.28878">
        <ele>1295.8</ele>
        <time>2026-05-14T08:48:19.999Z</time>
      </trkpt>
      <trkpt lat="44.18322" lon="5.28876">
        <ele>1296.6</ele>
        <time>2026-05-14T08:48:20.999Z</time>
      </trkpt>
      <trkpt lat="44.18322" lon="5.28876">
        <ele>1296.4</ele>
        <time>2026-05-14T08:48:21.999Z</time>
      </trkpt>
      <trkpt lat="44.18321" lon="5.28874">
        <ele>1297</ele>
        <time>2026-05-14T08:48:22.999Z</time>
      </trkpt>
      <trkpt lat="44.18321" lon="5.28873">
        <ele>1297.6</ele>
        <time>2026-05-14T08:48:23.999Z</time>
      </trkpt>
      <trkpt lat="44.1832" lon="5.28872">
        <ele>1296.9</ele>
        <time>2026-05-14T08:48:24.999Z</time>
      </trkpt>
      <trkpt lat="44.1832" lon="5.28871">
        <ele>1297</ele>
        <time>2026-05-14T08:48:25.999Z</time>
      </trkpt>
      <trkpt lat="44.18319" lon="5.2887">
        <ele>1297.1</ele>
        <time>2026-05-14T08:48:26.999Z</time>
      </trkpt>
      <trkpt lat="44.18318" lon="5.28869">
        <ele>1297.9</ele>
        <time>2026-05-14T08:48:27.999Z</time>
      </trkpt>
      <trkpt lat="44.18318" lon="5.28868">
        <ele>1297.9</ele>
        <time>2026-05-14T08:48:28.999Z</time>
      </trkpt>
      <trkpt lat="44.18317" lon="5.28867">
        <ele>1297.5</ele>
        <time>2026-05-14T08:48:29.999Z</time>
      </trkpt>
      <trkpt lat="44.18316" lon="5.28866">
        <ele>1296.9</ele>
        <time>2026-05-14T08:48:30.999Z</time>
      </trkpt>
      <trkpt lat="44.18316" lon="5.28866">
        <ele>1297.7</ele>
        <time>2026-05-14T08:48:31.999Z</time>
      </trkpt>
      <trkpt lat="44.18316" lon="5.28867">
        <ele>1298.2</ele>
        <time>2026-05-14T08:48:32.999Z</time>
      </trkpt>
      <trkpt lat="44.18315" lon="5.28867">
        <ele>1298.6</ele>
        <time>2026-05-14T08:48:33.999Z</time>
      </trkpt>
      <trkpt lat="44.18315" lon="5.28866">
        <ele>1299</ele>
        <time>2026-05-14T08:48:34.999Z</time>
      </trkpt>
      <trkpt lat="44.18315" lon="5.28865">
        <ele>1299.9</ele>
        <time>2026-05-14T08:48:35.999Z</time>
      </trkpt>
      <trkpt lat="44.18314" lon="5.28864">
        <ele>1300.5</ele>
        <time>2026-05-14T08:48:36.999Z</time>
      </trkpt>
      <trkpt lat="44.18314" lon="5.28862">
        <ele>1301.2</ele>
        <time>2026-05-14T08:48:37.999Z</time>
      </trkpt>
      <trkpt lat="44.18313" lon="5.28861">
        <ele>1302.2</ele>
        <time>2026-05-14T08:48:38.999Z</time>
      </trkpt>
      <trkpt lat="44.18313" lon="5.2886">
        <ele>1302.3</ele>
        <time>2026-05-14T08:48:39.999Z</time>
      </trkpt>
      <trkpt lat="44.18313" lon="5.28859">
        <ele>1302.7</ele>
        <time>2026-05-14T08:48:40.999Z</time>
      </trkpt>
      <trkpt lat="44.18313" lon="5.28858">
        <ele>1302.6</ele>
        <time>2026-05-14T08:48:41.999Z</time>
      </trkpt>
      <trkpt lat="44.18313" lon="5.28857">
        <ele>1303.7</ele>
        <time>2026-05-14T08:48:42.999Z</time>
      </trkpt>
      <trkpt lat="44.18312" lon="5.28856">
        <ele>1304.1</ele>
        <time>2026-05-14T08:48:43.999Z</time>
      </trkpt>
      <trkpt lat="44.18312" lon="5.28856">
        <ele>1304.3</ele>
        <time>2026-05-14T08:48:44.999Z</time>
      </trkpt>
      <trkpt lat="44.18311" lon="5.28856">
        <ele>1304.8</ele>
        <time>2026-05-14T08:48:45.999Z</time>
      </trkpt>
      <trkpt lat="44.18311" lon="5.28855">
        <ele>1305</ele>
        <time>2026-05-14T08:48:46.999Z</time>
      </trkpt>
      <trkpt lat="44.1831" lon="5.28855">
        <ele>1304.2</ele>
        <time>2026-05-14T08:48:47.999Z</time>
      </trkpt>
      <trkpt lat="44.18309" lon="5.28854">
        <ele>1303.6</ele>
        <time>2026-05-14T08:48:48.999Z</time>
      </trkpt>
      <trkpt lat="44.1831" lon="5.28853">
        <ele>1303.6</ele>
        <time>2026-05-14T08:48:49.999Z</time>
      </trkpt>
      <trkpt lat="44.18309" lon="5.28852">
        <ele>1303.5</ele>
        <time>2026-05-14T08:48:50.999Z</time>
      </trkpt>
      <trkpt lat="44.18309" lon="5.28851">
        <ele>1303.2</ele>
        <time>2026-05-14T08:48:51.999Z</time>
      </trkpt>
      <trkpt lat="44.18309" lon="5.2885">
        <ele>1303.8</ele>
        <time>2026-05-14T08:48:52.999Z</time>
      </trkpt>
      <trkpt lat="44.18308" lon="5.28849">
        <ele>1304.4</ele>
        <time>2026-05-14T08:48:53.999Z</time>
      </trkpt>
      <trkpt lat="44.18308" lon="5.28848">
        <ele>1304.6</ele>
        <time>2026-05-14T08:48:54.999Z</time>
      </trkpt>
      <trkpt lat="44.18308" lon="5.28846">
        <ele>1305</ele>
        <time>2026-05-14T08:48:55.999Z</time>
      </trkpt>
      <trkpt lat="44.18307" lon="5.28845">
        <ele>1305.5</ele>
        <time>2026-05-14T08:48:56.999Z</time>
      </trkpt>
      <trkpt lat="44.18307" lon="5.28844">
        <ele>1306</ele>
        <time>2026-05-14T08:48:57.999Z</time>
      </trkpt>
      <trkpt lat="44.18307" lon="5.28842">
        <ele>1306</ele>
        <time>2026-05-14T08:48:58.999Z</time>
      </trkpt>
      <trkpt lat="44.18306" lon="5.28841">
        <ele>1306.1</ele>
        <time>2026-05-14T08:48:59.999Z</time>
      </trkpt>
      <trkpt lat="44.18305" lon="5.28841">
        <ele>1305.8</ele>
        <time>2026-05-14T08:49:00.999Z</time>
      </trkpt>
      <trkpt lat="44.18304" lon="5.2884">
        <ele>1305.5</ele>
        <time>2026-05-14T08:49:01.999Z</time>
      </trkpt>
      <trkpt lat="44.18303" lon="5.2884">
        <ele>1304.9</ele>
        <time>2026-05-14T08:49:02.999Z</time>
      </trkpt>
      <trkpt lat="44.18302" lon="5.28839">
        <ele>1305</ele>
        <time>2026-05-14T08:49:03.999Z</time>
      </trkpt>
      <trkpt lat="44.18302" lon="5.28839">
        <ele>1305</ele>
        <time>2026-05-14T08:49:04.999Z</time>
      </trkpt>
      <trkpt lat="44.18302" lon="5.28838">
        <ele>1305.3</ele>
        <time>2026-05-14T08:49:05.999Z</time>
      </trkpt>
      <trkpt lat="44.18302" lon="5.28837">
        <ele>1305.5</ele>
        <time>2026-05-14T08:49:06.999Z</time>
      </trkpt>
      <trkpt lat="44.18302" lon="5.28836">
        <ele>1305.7</ele>
        <time>2026-05-14T08:49:07.999Z</time>
      </trkpt>
      <trkpt lat="44.18302" lon="5.28834">
        <ele>1306</ele>
        <time>2026-05-14T08:49:08.999Z</time>
      </trkpt>
      <trkpt lat="44.18302" lon="5.28833">
        <ele>1306.3</ele>
        <time>2026-05-14T08:49:09.999Z</time>
      </trkpt>
      <trkpt lat="44.18301" lon="5.28831">
        <ele>1306.7</ele>
        <time>2026-05-14T08:49:10.999Z</time>
      </trkpt>
      <trkpt lat="44.18301" lon="5.28829">
        <ele>1307</ele>
        <time>2026-05-14T08:49:11.999Z</time>
      </trkpt>
      <trkpt lat="44.18302" lon="5.28828">
        <ele>1307.7</ele>
        <time>2026-05-14T08:49:12.999Z</time>
      </trkpt>
      <trkpt lat="44.18301" lon="5.28826">
        <ele>1308.3</ele>
        <time>2026-05-14T08:49:13.999Z</time>
      </trkpt>
      <trkpt lat="44.183" lon="5.28824">
        <ele>1308.8</ele>
        <time>2026-05-14T08:49:14.999Z</time>
      </trkpt>
      <trkpt lat="44.183" lon="5.28823">
        <ele>1309.2</ele>
        <time>2026-05-14T08:49:15.999Z</time>
      </trkpt>
      <trkpt lat="44.183" lon="5.28823">
        <ele>1309.6</ele>
        <time>2026-05-14T08:49:16.999Z</time>
      </trkpt>
      <trkpt lat="44.18301" lon="5.28822">
        <ele>1310.2</ele>
        <time>2026-05-14T08:49:17.999Z</time>
      </trkpt>
      <trkpt lat="44.18301" lon="5.2882">
        <ele>1310.9</ele>
        <time>2026-05-14T08:49:18.999Z</time>
      </trkpt>
      <trkpt lat="44.18302" lon="5.28819">
        <ele>1311.2</ele>
        <time>2026-05-14T08:49:19.999Z</time>
      </trkpt>
      <trkpt lat="44.18303" lon="5.28817">
        <ele>1311.8</ele>
        <time>2026-05-14T08:49:20.999Z</time>
      </trkpt>
      <trkpt lat="44.18303" lon="5.28816">
        <ele>1312</ele>
        <time>2026-05-14T08:49:21.999Z</time>
      </trkpt>
      <trkpt lat="44.18304" lon="5.28814">
        <ele>1312.3</ele>
        <time>2026-05-14T08:49:22.999Z</time>
      </trkpt>
      <trkpt lat="44.18304" lon="5.28813">
        <ele>1312.1</ele>
        <time>2026-05-14T08:49:23.999Z</time>
      </trkpt>
      <trkpt lat="44.18305" lon="5.28812">
        <ele>1312.2</ele>
        <time>2026-05-14T08:49:24.999Z</time>
      </trkpt>
      <trkpt lat="44.18305" lon="5.2881">
        <ele>1312.7</ele>
        <time>2026-05-14T08:49:25.999Z</time>
      </trkpt>
      <trkpt lat="44.18306" lon="5.2881">
        <ele>1313</ele>
        <time>2026-05-14T08:49:26.999Z</time>
      </trkpt>
      <trkpt lat="44.18305" lon="5.28809">
        <ele>1313.3</ele>
        <time>2026-05-14T08:49:27.999Z</time>
      </trkpt>
      <trkpt lat="44.18305" lon="5.28809">
        <ele>1313.3</ele>
        <time>2026-05-14T08:49:28.999Z</time>
      </trkpt>
      <trkpt lat="44.18305" lon="5.28809">
        <ele>1313</ele>
        <time>2026-05-14T08:49:29.999Z</time>
      </trkpt>
      <trkpt lat="44.18305" lon="5.28808">
        <ele>1313.4</ele>
        <time>2026-05-14T08:49:30.999Z</time>
      </trkpt>
      <trkpt lat="44.18305" lon="5.28808">
        <ele>1312.6</ele>
        <time>2026-05-14T08:49:31.999Z</time>
      </trkpt>
      <trkpt lat="44.18305" lon="5.28807">
        <ele>1312.3</ele>
        <time>2026-05-14T08:49:32.999Z</time>
      </trkpt>
      <trkpt lat="44.18306" lon="5.28805">
        <ele>1312.5</ele>
        <time>2026-05-14T08:49:33.999Z</time>
      </trkpt>
      <trkpt lat="44.18307" lon="5.28804">
        <ele>1312.8</ele>
        <time>2026-05-14T08:49:34.999Z</time>
      </trkpt>
      <trkpt lat="44.18308" lon="5.28803">
        <ele>1312.4</ele>
        <time>2026-05-14T08:49:35.999Z</time>
      </trkpt>
      <trkpt lat="44.18309" lon="5.28802">
        <ele>1312.5</ele>
        <time>2026-05-14T08:49:36.999Z</time>
      </trkpt>
      <trkpt lat="44.18309" lon="5.28801">
        <ele>1313</ele>
        <time>2026-05-14T08:49:37.999Z</time>
      </trkpt>
      <trkpt lat="44.1831" lon="5.28801">
        <ele>1313.6</ele>
        <time>2026-05-14T08:49:38.999Z</time>
      </trkpt>
      <trkpt lat="44.1831" lon="5.28801">
        <ele>1313.9</ele>
        <time>2026-05-14T08:49:39.999Z</time>
      </trkpt>
      <trkpt lat="44.1831" lon="5.28801">
        <ele>1314.3</ele>
        <time>2026-05-14T08:49:40.999Z</time>
      </trkpt>
      <trkpt lat="44.1831" lon="5.28801">
        <ele>1314.5</ele>
        <time>2026-05-14T08:49:41.999Z</time>
      </trkpt>
      <trkpt lat="44.1831" lon="5.288">
        <ele>1314.8</ele>
        <time>2026-05-14T08:49:42.999Z</time>
      </trkpt>
      <trkpt lat="44.18311" lon="5.28799">
        <ele>1315.2</ele>
        <time>2026-05-14T08:49:43.999Z</time>
      </trkpt>
      <trkpt lat="44.18311" lon="5.28798">
        <ele>1315.2</ele>
        <time>2026-05-14T08:49:44.999Z</time>
      </trkpt>
      <trkpt lat="44.18311" lon="5.28796">
        <ele>1315.3</ele>
        <time>2026-05-14T08:49:45.999Z</time>
      </trkpt>
      <trkpt lat="44.18311" lon="5.28794">
        <ele>1315</ele>
        <time>2026-05-14T08:49:46.999Z</time>
      </trkpt>
      <trkpt lat="44.18311" lon="5.28793">
        <ele>1314.9</ele>
        <time>2026-05-14T08:49:47.999Z</time>
      </trkpt>
      <trkpt lat="44.18311" lon="5.28793">
        <ele>1314.8</ele>
        <time>2026-05-14T08:49:48.999Z</time>
      </trkpt>
      <trkpt lat="44.18311" lon="5.28792">
        <ele>1314.9</ele>
        <time>2026-05-14T08:49:49.999Z</time>
      </trkpt>
      <trkpt lat="44.18311" lon="5.28792">
        <ele>1314.9</ele>
        <time>2026-05-14T08:49:50.999Z</time>
      </trkpt>
      <trkpt lat="44.18311" lon="5.28791">
        <ele>1315.1</ele>
        <time>2026-05-14T08:49:51.999Z</time>
      </trkpt>
      <trkpt lat="44.18311" lon="5.2879">
        <ele>1315.1</ele>
        <time>2026-05-14T08:49:52.999Z</time>
      </trkpt>
      <trkpt lat="44.18311" lon="5.28789">
        <ele>1315.1</ele>
        <time>2026-05-14T08:49:53.999Z</time>
      </trkpt>
      <trkpt lat="44.18311" lon="5.28789">
        <ele>1315.1</ele>
        <time>2026-05-14T08:49:54.999Z</time>
      </trkpt>
      <trkpt lat="44.18311" lon="5.28788">
        <ele>1315.1</ele>
        <time>2026-05-14T08:49:55.999Z</time>
      </trkpt>
      <trkpt lat="44.18311" lon="5.28787">
        <ele>1315</ele>
        <time>2026-05-14T08:49:56.999Z</time>
      </trkpt>
      <trkpt lat="44.18311" lon="5.28787">
        <ele>1314.8</ele>
        <time>2026-05-14T08:49:57.999Z</time>
      </trkpt>
      <trkpt lat="44.18311" lon="5.28786">
        <ele>1315.1</ele>
        <time>2026-05-14T08:49:58.999Z</time>
      </trkpt>
      <trkpt lat="44.18311" lon="5.28786">
        <ele>1315</ele>
        <time>2026-05-14T08:49:59.999Z</time>
      </trkpt>
      <trkpt lat="44.18313" lon="5.28786">
        <ele>1314.6</ele>
        <time>2026-05-14T08:50:00.999Z</time>
      </trkpt>
      <trkpt lat="44.18313" lon="5.28786">
        <ele>1314.4</ele>
        <time>2026-05-14T08:50:01.999Z</time>
      </trkpt>
      <trkpt lat="44.18314" lon="5.28786">
        <ele>1314.4</ele>
        <time>2026-05-14T08:50:02.999Z</time>
      </trkpt>
      <trkpt lat="44.18314" lon="5.28785">
        <ele>1314.6</ele>
        <time>2026-05-14T08:50:03.999Z</time>
      </trkpt>
      <trkpt lat="44.18315" lon="5.28785">
        <ele>1314.8</ele>
        <time>2026-05-14T08:50:04.999Z</time>
      </trkpt>
      <trkpt lat="44.18315" lon="5.28785">
        <ele>1315.1</ele>
        <time>2026-05-14T08:50:05.999Z</time>
      </trkpt>
      <trkpt lat="44.18316" lon="5.28784">
        <ele>1314.9</ele>
        <time>2026-05-14T08:50:06.999Z</time>
      </trkpt>
      <trkpt lat="44.18317" lon="5.28783">
        <ele>1315.1</ele>
        <time>2026-05-14T08:50:07.999Z</time>
      </trkpt>
      <trkpt lat="44.18318" lon="5.28782">
        <ele>1315.3</ele>
        <time>2026-05-14T08:50:08.999Z</time>
      </trkpt>
      <trkpt lat="44.1832" lon="5.28781">
        <ele>1315.1</ele>
        <time>2026-05-14T08:50:09.999Z</time>
      </trkpt>
      <trkpt lat="44.18321" lon="5.28781">
        <ele>1315.3</ele>
        <time>2026-05-14T08:50:10.999Z</time>
      </trkpt>
      <trkpt lat="44.18322" lon="5.28781">
        <ele>1315.3</ele>
        <time>2026-05-14T08:50:11.999Z</time>
      </trkpt>
      <trkpt lat="44.18322" lon="5.28781">
        <ele>1315.3</ele>
        <time>2026-05-14T08:50:12.999Z</time>
      </trkpt>
      <trkpt lat="44.18323" lon="5.28781">
        <ele>1315</ele>
        <time>2026-05-14T08:50:13.999Z</time>
      </trkpt>
      <trkpt lat="44.18323" lon="5.2878">
        <ele>1315.3</ele>
        <time>2026-05-14T08:50:14.999Z</time>
      </trkpt>
      <trkpt lat="44.18324" lon="5.28781">
        <ele>1315.2</ele>
        <time>2026-05-14T08:50:15.999Z</time>
      </trkpt>
      <trkpt lat="44.18324" lon="5.2878">
        <ele>1314.8</ele>
        <time>2026-05-14T08:50:16.999Z</time>
      </trkpt>
      <trkpt lat="44.18325" lon="5.2878">
        <ele>1314.7</ele>
        <time>2026-05-14T08:50:17.999Z</time>
      </trkpt>
      <trkpt lat="44.18326" lon="5.28779">
        <ele>1314.5</ele>
        <time>2026-05-14T08:50:18.999Z</time>
      </trkpt>
      <trkpt lat="44.18327" lon="5.28778">
        <ele>1314.2</ele>
        <time>2026-05-14T08:50:19.999Z</time>
      </trkpt>
      <trkpt lat="44.18328" lon="5.28778">
        <ele>1314.2</ele>
        <time>2026-05-14T08:50:20.999Z</time>
      </trkpt>
      <trkpt lat="44.18329" lon="5.28777">
        <ele>1314.2</ele>
        <time>2026-05-14T08:50:21.999Z</time>
      </trkpt>
      <trkpt lat="44.18329" lon="5.28776">
        <ele>1314.2</ele>
        <time>2026-05-14T08:50:22.999Z</time>
      </trkpt>
      <trkpt lat="44.18331" lon="5.28774">
        <ele>1313.9</ele>
        <time>2026-05-14T08:50:23.999Z</time>
      </trkpt>
      <trkpt lat="44.18331" lon="5.28773">
        <ele>1313.5</ele>
        <time>2026-05-14T08:50:24.999Z</time>
      </trkpt>
      <trkpt lat="44.18332" lon="5.28772">
        <ele>1313.7</ele>
        <time>2026-05-14T08:50:25.999Z</time>
      </trkpt>
      <trkpt lat="44.18332" lon="5.28772">
        <ele>1313.5</ele>
        <time>2026-05-14T08:50:26.999Z</time>
      </trkpt>
      <trkpt lat="44.18332" lon="5.28772">
        <ele>1313.3</ele>
        <time>2026-05-14T08:50:27.999Z</time>
      </trkpt>
      <trkpt lat="44.18334" lon="5.28772">
        <ele>1313.6</ele>
        <time>2026-05-14T08:50:28.999Z</time>
      </trkpt>
      <trkpt lat="44.18335" lon="5.28772">
        <ele>1313.7</ele>
        <time>2026-05-14T08:50:29.999Z</time>
      </trkpt>
      <trkpt lat="44.18336" lon="5.28772">
        <ele>1314.2</ele>
        <time>2026-05-14T08:50:30.999Z</time>
      </trkpt>
      <trkpt lat="44.18337" lon="5.28772">
        <ele>1314.4</ele>
        <time>2026-05-14T08:50:31.999Z</time>
      </trkpt>
      <trkpt lat="44.18338" lon="5.28771">
        <ele>1314.6</ele>
        <time>2026-05-14T08:50:32.999Z</time>
      </trkpt>
      <trkpt lat="44.18339" lon="5.2877">
        <ele>1314.8</ele>
        <time>2026-05-14T08:50:33.999Z</time>
      </trkpt>
      <trkpt lat="44.1834" lon="5.2877">
        <ele>1314.7</ele>
        <time>2026-05-14T08:50:34.999Z</time>
      </trkpt>
      <trkpt lat="44.18342" lon="5.28769">
        <ele>1314.6</ele>
        <time>2026-05-14T08:50:35.999Z</time>
      </trkpt>
      <trkpt lat="44.18343" lon="5.28769">
        <ele>1314.8</ele>
        <time>2026-05-14T08:50:36.999Z</time>
      </trkpt>
      <trkpt lat="44.18344" lon="5.28769">
        <ele>1314.4</ele>
        <time>2026-05-14T08:50:37.999Z</time>
      </trkpt>
      <trkpt lat="44.18344" lon="5.28768">
        <ele>1314.2</ele>
        <time>2026-05-14T08:50:38.999Z</time>
      </trkpt>
      <trkpt lat="44.18345" lon="5.28768">
        <ele>1314.2</ele>
        <time>2026-05-14T08:50:39.999Z</time>
      </trkpt>
      <trkpt lat="44.18346" lon="5.28768">
        <ele>1314.1</ele>
        <time>2026-05-14T08:50:40.999Z</time>
      </trkpt>
      <trkpt lat="44.18346" lon="5.28768">
        <ele>1313.1</ele>
        <time>2026-05-14T08:50:41.999Z</time>
      </trkpt>
      <trkpt lat="44.18346" lon="5.28768">
        <ele>1313</ele>
        <time>2026-05-14T08:50:42.999Z</time>
      </trkpt>
      <trkpt lat="44.18347" lon="5.28768">
        <ele>1313.2</ele>
        <time>2026-05-14T08:50:43.999Z</time>
      </trkpt>
      <trkpt lat="44.18347" lon="5.28768">
        <ele>1313</ele>
        <time>2026-05-14T08:50:44.999Z</time>
      </trkpt>
      <trkpt lat="44.18348" lon="5.28768">
        <ele>1313.9</ele>
        <time>2026-05-14T08:50:45.999Z</time>
      </trkpt>
      <trkpt lat="44.18348" lon="5.28768">
        <ele>1313.9</ele>
        <time>2026-05-14T08:50:46.999Z</time>
      </trkpt>
      <trkpt lat="44.18348" lon="5.28768">
        <ele>1313.5</ele>
        <time>2026-05-14T08:50:47.999Z</time>
      </trkpt>
      <trkpt lat="44.18348" lon="5.28768">
        <ele>1313</ele>
        <time>2026-05-14T08:50:48.999Z</time>
      </trkpt>
      <trkpt lat="44.18348" lon="5.28768">
        <ele>1312.6</ele>
        <time>2026-05-14T08:50:49.999Z</time>
      </trkpt>
      <trkpt lat="44.18348" lon="5.28768">
        <ele>1312.4</ele>
        <time>2026-05-14T08:50:50.999Z</time>
      </trkpt>
      <trkpt lat="44.18348" lon="5.28768">
        <ele>1312.3</ele>
        <time>2026-05-14T08:50:51.999Z</time>
      </trkpt>
      <trkpt lat="44.18348" lon="5.28768">
        <ele>1312.3</ele>
        <time>2026-05-14T08:50:52.999Z</time>
      </trkpt>
      <trkpt lat="44.18348" lon="5.28768">
        <ele>1312.2</ele>
        <time>2026-05-14T08:50:53.999Z</time>
      </trkpt>
      <trkpt lat="44.18348" lon="5.28767">
        <ele>1312</ele>
        <time>2026-05-14T08:50:54.999Z</time>
      </trkpt>
      <trkpt lat="44.18348" lon="5.28767">
        <ele>1312.6</ele>
        <time>2026-05-14T08:50:55.999Z</time>
      </trkpt>
      <trkpt lat="44.18348" lon="5.28767">
        <ele>1313</ele>
        <time>2026-05-14T08:50:56.999Z</time>
      </trkpt>
      <trkpt lat="44.18348" lon="5.28767">
        <ele>1313.4</ele>
        <time>2026-05-14T08:50:57.999Z</time>
      </trkpt>
      <trkpt lat="44.18348" lon="5.28767">
        <ele>1313.8</ele>
        <time>2026-05-14T08:50:58.999Z</time>
      </trkpt>
      <trkpt lat="44.18348" lon="5.28767">
        <ele>1313.9</ele>
        <time>2026-05-14T08:50:59.999Z</time>
      </trkpt>
      <trkpt lat="44.18348" lon="5.28767">
        <ele>1314.1</ele>
        <time>2026-05-14T08:51:00.999Z</time>
      </trkpt>
      <trkpt lat="44.18349" lon="5.28767">
        <ele>1314.3</ele>
        <time>2026-05-14T08:51:01.999Z</time>
      </trkpt>
      <trkpt lat="44.18349" lon="5.28767">
        <ele>1314.3</ele>
        <time>2026-05-14T08:51:02.999Z</time>
      </trkpt>
      <trkpt lat="44.1835" lon="5.28766">
        <ele>1314.2</ele>
        <time>2026-05-14T08:51:03.999Z</time>
      </trkpt>
      <trkpt lat="44.1835" lon="5.28765">
        <ele>1314.2</ele>
        <time>2026-05-14T08:51:04.999Z</time>
      </trkpt>
      <trkpt lat="44.1835" lon="5.28764">
        <ele>1313.9</ele>
        <time>2026-05-14T08:51:05.999Z</time>
      </trkpt>
      <trkpt lat="44.1835" lon="5.28764">
        <ele>1314</ele>
        <time>2026-05-14T08:51:06.999Z</time>
      </trkpt>
      <trkpt lat="44.1835" lon="5.28762">
        <ele>1313.9</ele>
        <time>2026-05-14T08:51:07.999Z</time>
      </trkpt>
      <trkpt lat="44.1835" lon="5.28762">
        <ele>1314</ele>
        <time>2026-05-14T08:51:08.999Z</time>
      </trkpt>
      <trkpt lat="44.1835" lon="5.28762">
        <ele>1314.3</ele>
        <time>2026-05-14T08:51:09.999Z</time>
      </trkpt>
      <trkpt lat="44.1835" lon="5.28762">
        <ele>1314.3</ele>
        <time>2026-05-14T08:51:10.999Z</time>
      </trkpt>
      <trkpt lat="44.1835" lon="5.28762">
        <ele>1314</ele>
        <time>2026-05-14T08:51:11.999Z</time>
      </trkpt>
      <trkpt lat="44.1835" lon="5.28762">
        <ele>1314.1</ele>
        <time>2026-05-14T08:51:12.999Z</time>
      </trkpt>
      <trkpt lat="44.1835" lon="5.28761">
        <ele>1314.6</ele>
        <time>2026-05-14T08:51:13.999Z</time>
      </trkpt>
      <trkpt lat="44.1835" lon="5.28761">
        <ele>1315</ele>
        <time>2026-05-14T08:51:14.999Z</time>
      </trkpt>
      <trkpt lat="44.18349" lon="5.28761">
        <ele>1315.1</ele>
        <time>2026-05-14T08:51:15.999Z</time>
      </trkpt>
      <trkpt lat="44.18349" lon="5.28762">
        <ele>1314.9</ele>
        <time>2026-05-14T08:51:16.999Z</time>
      </trkpt>
      <trkpt lat="44.18349" lon="5.28763">
        <ele>1314.8</ele>
        <time>2026-05-14T08:51:17.999Z</time>
      </trkpt>
      <trkpt lat="44.18349" lon="5.28763">
        <ele>1314.3</ele>
        <time>2026-05-14T08:51:18.999Z</time>
      </trkpt>
      <trkpt lat="44.1835" lon="5.28764">
        <ele>1314.4</ele>
        <time>2026-05-14T08:51:19.999Z</time>
      </trkpt>
      <trkpt lat="44.18349" lon="5.28764">
        <ele>1313.7</ele>
        <time>2026-05-14T08:51:20.999Z</time>
      </trkpt>
      <trkpt lat="44.1835" lon="5.28764">
        <ele>1313.9</ele>
        <time>2026-05-14T08:51:21.999Z</time>
      </trkpt>
      <trkpt lat="44.1835" lon="5.28764">
        <ele>1313.6</ele>
        <time>2026-05-14T08:51:22.999Z</time>
      </trkpt>
      <trkpt lat="44.1835" lon="5.28764">
        <ele>1313.7</ele>
        <time>2026-05-14T08:51:23.999Z</time>
      </trkpt>
      <trkpt lat="44.1835" lon="5.28764">
        <ele>1313.9</ele>
        <time>2026-05-14T08:51:24.999Z</time>
      </trkpt>
      <trkpt lat="44.18349" lon="5.28764">
        <ele>1313.9</ele>
        <time>2026-05-14T08:51:25.999Z</time>
      </trkpt>
      <trkpt lat="44.18349" lon="5.28764">
        <ele>1314.3</ele>
        <time>2026-05-14T08:51:26.999Z</time>
      </trkpt>
      <trkpt lat="44.18349" lon="5.28764">
        <ele>1315</ele>
        <time>2026-05-14T08:51:27.999Z</time>
      </trkpt>
      <trkpt lat="44.18349" lon="5.28764">
        <ele>1315.5</ele>
        <time>2026-05-14T08:51:28.999Z</time>
      </trkpt>
      <trkpt lat="44.18349" lon="5.28764">
        <ele>1316.2</ele>
        <time>2026-05-14T08:51:29.999Z</time>
      </trkpt>
      <trkpt lat="44.18349" lon="5.28765">
        <ele>1316.7</ele>
        <time>2026-05-14T08:51:30.999Z</time>
      </trkpt>
      <trkpt lat="44.18348" lon="5.28765">
        <ele>1317.1</ele>
        <time>2026-05-14T08:51:31.999Z</time>
      </trkpt>
      <trkpt lat="44.18348" lon="5.28765">
        <ele>1317.1</ele>
        <time>2026-05-14T08:51:32.999Z</time>
      </trkpt>
      <trkpt lat="44.18348" lon="5.28765">
        <ele>1316.9</ele>
        <time>2026-05-14T08:51:33.999Z</time>
      </trkpt>
      <trkpt lat="44.18348" lon="5.28765">
        <ele>1317</ele>
        <time>2026-05-14T08:51:34.999Z</time>
      </trkpt>
      <trkpt lat="44.18348" lon="5.28766">
        <ele>1316.8</ele>
        <time>2026-05-14T08:51:35.999Z</time>
      </trkpt>
      <trkpt lat="44.18348" lon="5.28766">
        <ele>1316.9</ele>
        <time>2026-05-14T08:51:36.999Z</time>
      </trkpt>
      <trkpt lat="44.18348" lon="5.28766">
        <ele>1316.5</ele>
        <time>2026-05-14T08:51:37.999Z</time>
      </trkpt>
      <trkpt lat="44.18347" lon="5.28766">
        <ele>1316.7</ele>
        <time>2026-05-14T08:51:38.999Z</time>
      </trkpt>
      <trkpt lat="44.18348" lon="5.28766">
        <ele>1316.9</ele>
        <time>2026-05-14T08:51:39.999Z</time>
      </trkpt>
      <trkpt lat="44.18348" lon="5.28766">
        <ele>1316.8</ele>
        <time>2026-05-14T08:51:40.999Z</time>
      </trkpt>
      <trkpt lat="44.18348" lon="5.28766">
        <ele>1316.8</ele>
        <time>2026-05-14T08:51:41.999Z</time>
      </trkpt>
      <trkpt lat="44.18348" lon="5.28766">
        <ele>1317</ele>
        <time>2026-05-14T08:51:42.999Z</time>
      </trkpt>
      <trkpt lat="44.18349" lon="5.28765">
        <ele>1317</ele>
        <time>2026-05-14T08:51:43.999Z</time>
      </trkpt>
      <trkpt lat="44.18349" lon="5.28764">
        <ele>1317</ele>
        <time>2026-05-14T08:51:44.999Z</time>
      </trkpt>
      <trkpt lat="44.1835" lon="5.28763">
        <ele>1316.9</ele>
        <time>2026-05-14T08:51:45.999Z</time>
      </trkpt>
      <trkpt lat="44.18351" lon="5.28762">
        <ele>1317.1</ele>
        <time>2026-05-14T08:51:46.999Z</time>
      </trkpt>
      <trkpt lat="44.18352" lon="5.28761">
        <ele>1317.4</ele>
        <time>2026-05-14T08:51:47.999Z</time>
      </trkpt>
      <trkpt lat="44.18352" lon="5.2876">
        <ele>1317.5</ele>
        <time>2026-05-14T08:51:48.999Z</time>
      </trkpt>
      <trkpt lat="44.18353" lon="5.28759">
        <ele>1317.7</ele>
        <time>2026-05-14T08:51:49.999Z</time>
      </trkpt>
      <trkpt lat="44.18353" lon="5.28759">
        <ele>1317.7</ele>
        <time>2026-05-14T08:51:50.999Z</time>
      </trkpt>
      <trkpt lat="44.18354" lon="5.28758">
        <ele>1317.8</ele>
        <time>2026-05-14T08:51:51.999Z</time>
      </trkpt>
      <trkpt lat="44.18356" lon="5.28757">
        <ele>1318</ele>
        <time>2026-05-14T08:51:52.999Z</time>
      </trkpt>
      <trkpt lat="44.18357" lon="5.28757">
        <ele>1318.3</ele>
        <time>2026-05-14T08:51:53.999Z</time>
      </trkpt>
      <trkpt lat="44.18357" lon="5.28757">
        <ele>1318.5</ele>
        <time>2026-05-14T08:51:54.999Z</time>
      </trkpt>
      <trkpt lat="44.18359" lon="5.28756">
        <ele>1318.4</ele>
        <time>2026-05-14T08:51:55.999Z</time>
      </trkpt>
      <trkpt lat="44.1836" lon="5.28756">
        <ele>1318.3</ele>
        <time>2026-05-14T08:51:56.999Z</time>
      </trkpt>
      <trkpt lat="44.18361" lon="5.28756">
        <ele>1318.4</ele>
        <time>2026-05-14T08:51:57.999Z</time>
      </trkpt>
      <trkpt lat="44.18361" lon="5.28755">
        <ele>1318.6</ele>
        <time>2026-05-14T08:51:58.999Z</time>
      </trkpt>
      <trkpt lat="44.18362" lon="5.28755">
        <ele>1318.3</ele>
        <time>2026-05-14T08:51:59.999Z</time>
      </trkpt>
      <trkpt lat="44.18363" lon="5.28754">
        <ele>1318.1</ele>
        <time>2026-05-14T08:52:00.999Z</time>
      </trkpt>
      <trkpt lat="44.18363" lon="5.28754">
        <ele>1318.2</ele>
        <time>2026-05-14T08:52:01.999Z</time>
      </trkpt>
      <trkpt lat="44.18364" lon="5.28753">
        <ele>1318.5</ele>
        <time>2026-05-14T08:52:02.999Z</time>
      </trkpt>
      <trkpt lat="44.18365" lon="5.28753">
        <ele>1318.6</ele>
        <time>2026-05-14T08:52:03.999Z</time>
      </trkpt>
      <trkpt lat="44.18366" lon="5.28752">
        <ele>1318.4</ele>
        <time>2026-05-14T08:52:04.999Z</time>
      </trkpt>
      <trkpt lat="44.18367" lon="5.28751">
        <ele>1318.5</ele>
        <time>2026-05-14T08:52:05.999Z</time>
      </trkpt>
      <trkpt lat="44.18369" lon="5.28749">
        <ele>1318.4</ele>
        <time>2026-05-14T08:52:06.999Z</time>
      </trkpt>
      <trkpt lat="44.1837" lon="5.28748">
        <ele>1318.8</ele>
        <time>2026-05-14T08:52:07.999Z</time>
      </trkpt>
      <trkpt lat="44.18371" lon="5.28746">
        <ele>1319.2</ele>
        <time>2026-05-14T08:52:08.999Z</time>
      </trkpt>
      <trkpt lat="44.18371" lon="5.28745">
        <ele>1319.9</ele>
        <time>2026-05-14T08:52:09.999Z</time>
      </trkpt>
      <trkpt lat="44.18372" lon="5.28744">
        <ele>1320.6</ele>
        <time>2026-05-14T08:52:10.999Z</time>
      </trkpt>
      <trkpt lat="44.18374" lon="5.28744">
        <ele>1321.2</ele>
        <time>2026-05-14T08:52:11.999Z</time>
      </trkpt>
      <trkpt lat="44.18375" lon="5.28743">
        <ele>1321.4</ele>
        <time>2026-05-14T08:52:12.999Z</time>
      </trkpt>
      <trkpt lat="44.18375" lon="5.28742">
        <ele>1321.7</ele>
        <time>2026-05-14T08:52:13.999Z</time>
      </trkpt>
      <trkpt lat="44.18376" lon="5.28741">
        <ele>1321.9</ele>
        <time>2026-05-14T08:52:14.999Z</time>
      </trkpt>
      <trkpt lat="44.18377" lon="5.28739">
        <ele>1322.2</ele>
        <time>2026-05-14T08:52:15.999Z</time>
      </trkpt>
      <trkpt lat="44.18378" lon="5.28738">
        <ele>1322</ele>
        <time>2026-05-14T08:52:16.999Z</time>
      </trkpt>
      <trkpt lat="44.18378" lon="5.28738">
        <ele>1321.9</ele>
        <time>2026-05-14T08:52:17.999Z</time>
      </trkpt>
      <trkpt lat="44.18379" lon="5.28737">
        <ele>1321.6</ele>
        <time>2026-05-14T08:52:18.999Z</time>
      </trkpt>
      <trkpt lat="44.18379" lon="5.28736">
        <ele>1322.3</ele>
        <time>2026-05-14T08:52:19.999Z</time>
      </trkpt>
      <trkpt lat="44.18381" lon="5.28735">
        <ele>1322.3</ele>
        <time>2026-05-14T08:52:20.999Z</time>
      </trkpt>
      <trkpt lat="44.18381" lon="5.28734">
        <ele>1322.7</ele>
        <time>2026-05-14T08:52:21.999Z</time>
      </trkpt>
      <trkpt lat="44.18382" lon="5.28734">
        <ele>1323.2</ele>
        <time>2026-05-14T08:52:22.999Z</time>
      </trkpt>
      <trkpt lat="44.18383" lon="5.28733">
        <ele>1323.3</ele>
        <time>2026-05-14T08:52:23.999Z</time>
      </trkpt>
      <trkpt lat="44.18384" lon="5.28733">
        <ele>1323.7</ele>
        <time>2026-05-14T08:52:24.999Z</time>
      </trkpt>
      <trkpt lat="44.18385" lon="5.28732">
        <ele>1323.6</ele>
        <time>2026-05-14T08:52:25.999Z</time>
      </trkpt>
      <trkpt lat="44.18386" lon="5.2873">
        <ele>1324.1</ele>
        <time>2026-05-14T08:52:26.999Z</time>
      </trkpt>
      <trkpt lat="44.18387" lon="5.2873">
        <ele>1324.4</ele>
        <time>2026-05-14T08:52:27.999Z</time>
      </trkpt>
      <trkpt lat="44.18387" lon="5.28729">
        <ele>1324.1</ele>
        <time>2026-05-14T08:52:28.999Z</time>
      </trkpt>
      <trkpt lat="44.18387" lon="5.28728">
        <ele>1323.6</ele>
        <time>2026-05-14T08:52:29.999Z</time>
      </trkpt>
      <trkpt lat="44.18388" lon="5.28727">
        <ele>1323.3</ele>
        <time>2026-05-14T08:52:30.999Z</time>
      </trkpt>
      <trkpt lat="44.18389" lon="5.28727">
        <ele>1323</ele>
        <time>2026-05-14T08:52:31.999Z</time>
      </trkpt>
      <trkpt lat="44.18389" lon="5.28726">
        <ele>1323.1</ele>
        <time>2026-05-14T08:52:32.999Z</time>
      </trkpt>
      <trkpt lat="44.18389" lon="5.28725">
        <ele>1323.5</ele>
        <time>2026-05-14T08:52:33.999Z</time>
      </trkpt>
      <trkpt lat="44.1839" lon="5.28725">
        <ele>1323.8</ele>
        <time>2026-05-14T08:52:34.999Z</time>
      </trkpt>
      <trkpt lat="44.18391" lon="5.28724">
        <ele>1324.1</ele>
        <time>2026-05-14T08:52:35.999Z</time>
      </trkpt>
      <trkpt lat="44.18391" lon="5.28723">
        <ele>1324.5</ele>
        <time>2026-05-14T08:52:36.999Z</time>
      </trkpt>
      <trkpt lat="44.18392" lon="5.28723">
        <ele>1325.2</ele>
        <time>2026-05-14T08:52:37.999Z</time>
      </trkpt>
      <trkpt lat="44.18393" lon="5.28722">
        <ele>1325.3</ele>
        <time>2026-05-14T08:52:38.999Z</time>
      </trkpt>
      <trkpt lat="44.18394" lon="5.28722">
        <ele>1325.5</ele>
        <time>2026-05-14T08:52:39.999Z</time>
      </trkpt>
      <trkpt lat="44.18394" lon="5.28721">
        <ele>1325.7</ele>
        <time>2026-05-14T08:52:40.999Z</time>
      </trkpt>
      <trkpt lat="44.18395" lon="5.2872">
        <ele>1325.7</ele>
        <time>2026-05-14T08:52:41.999Z</time>
      </trkpt>
      <trkpt lat="44.18395" lon="5.28719">
        <ele>1326.5</ele>
        <time>2026-05-14T08:52:42.999Z</time>
      </trkpt>
      <trkpt lat="44.18395" lon="5.28718">
        <ele>1327.1</ele>
        <time>2026-05-14T08:52:43.999Z</time>
      </trkpt>
      <trkpt lat="44.18396" lon="5.28716">
        <ele>1327.4</ele>
        <time>2026-05-14T08:52:44.999Z</time>
      </trkpt>
      <trkpt lat="44.18395" lon="5.28715">
        <ele>1327.3</ele>
        <time>2026-05-14T08:52:45.999Z</time>
      </trkpt>
      <trkpt lat="44.18395" lon="5.28714">
        <ele>1327.3</ele>
        <time>2026-05-14T08:52:46.999Z</time>
      </trkpt>
      <trkpt lat="44.18395" lon="5.28713">
        <ele>1327.6</ele>
        <time>2026-05-14T08:52:47.999Z</time>
      </trkpt>
      <trkpt lat="44.18395" lon="5.28711">
        <ele>1327.4</ele>
        <time>2026-05-14T08:52:48.999Z</time>
      </trkpt>
      <trkpt lat="44.18396" lon="5.28711">
        <ele>1327.5</ele>
        <time>2026-05-14T08:52:49.999Z</time>
      </trkpt>
      <trkpt lat="44.18396" lon="5.28709">
        <ele>1327.6</ele>
        <time>2026-05-14T08:52:50.999Z</time>
      </trkpt>
      <trkpt lat="44.18397" lon="5.28708">
        <ele>1327.6</ele>
        <time>2026-05-14T08:52:51.999Z</time>
      </trkpt>
      <trkpt lat="44.18397" lon="5.28707">
        <ele>1327.9</ele>
        <time>2026-05-14T08:52:52.999Z</time>
      </trkpt>
      <trkpt lat="44.18398" lon="5.28706">
        <ele>1328</ele>
        <time>2026-05-14T08:52:53.999Z</time>
      </trkpt>
      <trkpt lat="44.18399" lon="5.28705">
        <ele>1328.1</ele>
        <time>2026-05-14T08:52:54.999Z</time>
      </trkpt>
      <trkpt lat="44.18399" lon="5.28704">
        <ele>1328.2</ele>
        <time>2026-05-14T08:52:55.999Z</time>
      </trkpt>
      <trkpt lat="44.184" lon="5.28702">
        <ele>1328</ele>
        <time>2026-05-14T08:52:56.999Z</time>
      </trkpt>
      <trkpt lat="44.184" lon="5.287">
        <ele>1328.4</ele>
        <time>2026-05-14T08:52:57.999Z</time>
      </trkpt>
      <trkpt lat="44.18401" lon="5.28699">
        <ele>1328.6</ele>
        <time>2026-05-14T08:52:58.999Z</time>
      </trkpt>
      <trkpt lat="44.18401" lon="5.28698">
        <ele>1328.6</ele>
        <time>2026-05-14T08:52:59.999Z</time>
      </trkpt>
      <trkpt lat="44.18401" lon="5.28698">
        <ele>1328.4</ele>
        <time>2026-05-14T08:53:00.999Z</time>
      </trkpt>
      <trkpt lat="44.18401" lon="5.28697">
        <ele>1328</ele>
        <time>2026-05-14T08:53:01.999Z</time>
      </trkpt>
      <trkpt lat="44.18401" lon="5.28695">
        <ele>1327.9</ele>
        <time>2026-05-14T08:53:02.999Z</time>
      </trkpt>
      <trkpt lat="44.18401" lon="5.28695">
        <ele>1327.5</ele>
        <time>2026-05-14T08:53:03.999Z</time>
      </trkpt>
      <trkpt lat="44.18403" lon="5.28693">
        <ele>1326.9</ele>
        <time>2026-05-14T08:53:04.999Z</time>
      </trkpt>
      <trkpt lat="44.18403" lon="5.28692">
        <ele>1326.6</ele>
        <time>2026-05-14T08:53:05.999Z</time>
      </trkpt>
      <trkpt lat="44.18404" lon="5.2869">
        <ele>1326.5</ele>
        <time>2026-05-14T08:53:06.999Z</time>
      </trkpt>
      <trkpt lat="44.18405" lon="5.28689">
        <ele>1326.7</ele>
        <time>2026-05-14T08:53:07.999Z</time>
      </trkpt>
      <trkpt lat="44.18406" lon="5.28688">
        <ele>1326.8</ele>
        <time>2026-05-14T08:53:08.999Z</time>
      </trkpt>
      <trkpt lat="44.18407" lon="5.28687">
        <ele>1326.9</ele>
        <time>2026-05-14T08:53:09.999Z</time>
      </trkpt>
      <trkpt lat="44.18408" lon="5.28687">
        <ele>1327.4</ele>
        <time>2026-05-14T08:53:10.999Z</time>
      </trkpt>
      <trkpt lat="44.18409" lon="5.28686">
        <ele>1327.8</ele>
        <time>2026-05-14T08:53:11.999Z</time>
      </trkpt>
      <trkpt lat="44.1841" lon="5.28685">
        <ele>1327.9</ele>
        <time>2026-05-14T08:53:12.999Z</time>
      </trkpt>
      <trkpt lat="44.18411" lon="5.28684">
        <ele>1328.2</ele>
        <time>2026-05-14T08:53:13.999Z</time>
      </trkpt>
      <trkpt lat="44.18411" lon="5.28683">
        <ele>1328.1</ele>
        <time>2026-05-14T08:53:14.999Z</time>
      </trkpt>
      <trkpt lat="44.18411" lon="5.28682">
        <ele>1327.9</ele>
        <time>2026-05-14T08:53:15.999Z</time>
      </trkpt>
      <trkpt lat="44.18411" lon="5.28681">
        <ele>1328.2</ele>
        <time>2026-05-14T08:53:16.999Z</time>
      </trkpt>
      <trkpt lat="44.18412" lon="5.28681">
        <ele>1328.6</ele>
        <time>2026-05-14T08:53:17.999Z</time>
      </trkpt>
      <trkpt lat="44.18414" lon="5.2868">
        <ele>1328.3</ele>
        <time>2026-05-14T08:53:18.999Z</time>
      </trkpt>
      <trkpt lat="44.18414" lon="5.28679">
        <ele>1328.2</ele>
        <time>2026-05-14T08:53:19.999Z</time>
      </trkpt>
      <trkpt lat="44.18414" lon="5.28678">
        <ele>1328.2</ele>
        <time>2026-05-14T08:53:20.999Z</time>
      </trkpt>
      <trkpt lat="44.18415" lon="5.28677">
        <ele>1328.1</ele>
        <time>2026-05-14T08:53:21.999Z</time>
      </trkpt>
      <trkpt lat="44.18415" lon="5.28675">
        <ele>1327.9</ele>
        <time>2026-05-14T08:53:22.999Z</time>
      </trkpt>
      <trkpt lat="44.18416" lon="5.28674">
        <ele>1327.9</ele>
        <time>2026-05-14T08:53:23.999Z</time>
      </trkpt>
      <trkpt lat="44.18416" lon="5.28672">
        <ele>1327.9</ele>
        <time>2026-05-14T08:53:24.999Z</time>
      </trkpt>
      <trkpt lat="44.18416" lon="5.28671">
        <ele>1327.8</ele>
        <time>2026-05-14T08:53:25.999Z</time>
      </trkpt>
      <trkpt lat="44.18416" lon="5.28671">
        <ele>1328</ele>
        <time>2026-05-14T08:53:26.999Z</time>
      </trkpt>
      <trkpt lat="44.18417" lon="5.28668">
        <ele>1327.1</ele>
        <time>2026-05-14T08:53:27.999Z</time>
      </trkpt>
      <trkpt lat="44.18417" lon="5.28667">
        <ele>1327.5</ele>
        <time>2026-05-14T08:53:28.999Z</time>
      </trkpt>
      <trkpt lat="44.18417" lon="5.28664">
        <ele>1327.9</ele>
        <time>2026-05-14T08:53:29.999Z</time>
      </trkpt>
      <trkpt lat="44.18417" lon="5.28662">
        <ele>1327.7</ele>
        <time>2026-05-14T08:53:30.999Z</time>
      </trkpt>
      <trkpt lat="44.18417" lon="5.2866">
        <ele>1327.7</ele>
        <time>2026-05-14T08:53:31.999Z</time>
      </trkpt>
      <trkpt lat="44.18417" lon="5.28658">
        <ele>1327.6</ele>
        <time>2026-05-14T08:53:32.999Z</time>
      </trkpt>
      <trkpt lat="44.18416" lon="5.28657">
        <ele>1327.5</ele>
        <time>2026-05-14T08:53:33.999Z</time>
      </trkpt>
      <trkpt lat="44.18416" lon="5.28656">
        <ele>1327.1</ele>
        <time>2026-05-14T08:53:34.999Z</time>
      </trkpt>
      <trkpt lat="44.18416" lon="5.28655">
        <ele>1326.5</ele>
        <time>2026-05-14T08:53:35.999Z</time>
      </trkpt>
      <trkpt lat="44.18416" lon="5.28654">
        <ele>1326.1</ele>
        <time>2026-05-14T08:53:36.999Z</time>
      </trkpt>
      <trkpt lat="44.18415" lon="5.28652">
        <ele>1325.4</ele>
        <time>2026-05-14T08:53:37.999Z</time>
      </trkpt>
      <trkpt lat="44.18416" lon="5.28651">
        <ele>1325.7</ele>
        <time>2026-05-14T08:53:38.999Z</time>
      </trkpt>
      <trkpt lat="44.18417" lon="5.2865">
        <ele>1326.2</ele>
        <time>2026-05-14T08:53:39.999Z</time>
      </trkpt>
      <trkpt lat="44.18416" lon="5.28649">
        <ele>1326.5</ele>
        <time>2026-05-14T08:53:40.999Z</time>
      </trkpt>
      <trkpt lat="44.18416" lon="5.28647">
        <ele>1326.5</ele>
        <time>2026-05-14T08:53:41.999Z</time>
      </trkpt>
      <trkpt lat="44.18415" lon="5.28646">
        <ele>1326.5</ele>
        <time>2026-05-14T08:53:42.999Z</time>
      </trkpt>
      <trkpt lat="44.18415" lon="5.28645">
        <ele>1325.9</ele>
        <time>2026-05-14T08:53:43.999Z</time>
      </trkpt>
      <trkpt lat="44.18416" lon="5.28644">
        <ele>1325.2</ele>
        <time>2026-05-14T08:53:44.999Z</time>
      </trkpt>
      <trkpt lat="44.18417" lon="5.28642">
        <ele>1325.4</ele>
        <time>2026-05-14T08:53:45.999Z</time>
      </trkpt>
      <trkpt lat="44.18417" lon="5.28641">
        <ele>1325.1</ele>
        <time>2026-05-14T08:53:46.999Z</time>
      </trkpt>
      <trkpt lat="44.18418" lon="5.2864">
        <ele>1325.5</ele>
        <time>2026-05-14T08:53:47.999Z</time>
      </trkpt>
      <trkpt lat="44.18418" lon="5.28639">
        <ele>1325.7</ele>
        <time>2026-05-14T08:53:48.999Z</time>
      </trkpt>
      <trkpt lat="44.18418" lon="5.28637">
        <ele>1326.4</ele>
        <time>2026-05-14T08:53:49.999Z</time>
      </trkpt>
      <trkpt lat="44.18418" lon="5.28636">
        <ele>1326.7</ele>
        <time>2026-05-14T08:53:50.999Z</time>
      </trkpt>
      <trkpt lat="44.18418" lon="5.28635">
        <ele>1327.1</ele>
        <time>2026-05-14T08:53:51.999Z</time>
      </trkpt>
      <trkpt lat="44.18418" lon="5.28635">
        <ele>1327.1</ele>
        <time>2026-05-14T08:53:52.999Z</time>
      </trkpt>
      <trkpt lat="44.18418" lon="5.28633">
        <ele>1327.5</ele>
        <time>2026-05-14T08:53:53.999Z</time>
      </trkpt>
      <trkpt lat="44.18418" lon="5.28631">
        <ele>1328.8</ele>
        <time>2026-05-14T08:53:54.999Z</time>
      </trkpt>
      <trkpt lat="44.18418" lon="5.2863">
        <ele>1329.3</ele>
        <time>2026-05-14T08:53:55.999Z</time>
      </trkpt>
      <trkpt lat="44.18418" lon="5.2863">
        <ele>1329.5</ele>
        <time>2026-05-14T08:53:56.999Z</time>
      </trkpt>
      <trkpt lat="44.18418" lon="5.28629">
        <ele>1329.8</ele>
        <time>2026-05-14T08:53:57.999Z</time>
      </trkpt>
      <trkpt lat="44.18418" lon="5.28628">
        <ele>1330.3</ele>
        <time>2026-05-14T08:53:58.999Z</time>
      </trkpt>
      <trkpt lat="44.18418" lon="5.28628">
        <ele>1330.7</ele>
        <time>2026-05-14T08:53:59.999Z</time>
      </trkpt>
      <trkpt lat="44.18418" lon="5.28628">
        <ele>1330.7</ele>
        <time>2026-05-14T08:54:00.999Z</time>
      </trkpt>
      <trkpt lat="44.18418" lon="5.28627">
        <ele>1330.8</ele>
        <time>2026-05-14T08:54:01.999Z</time>
      </trkpt>
      <trkpt lat="44.18418" lon="5.28627">
        <ele>1330.9</ele>
        <time>2026-05-14T08:54:02.999Z</time>
      </trkpt>
      <trkpt lat="44.18418" lon="5.28626">
        <ele>1331.8</ele>
        <time>2026-05-14T08:54:03.999Z</time>
      </trkpt>
      <trkpt lat="44.18418" lon="5.28625">
        <ele>1332.7</ele>
        <time>2026-05-14T08:54:04.999Z</time>
      </trkpt>
      <trkpt lat="44.18419" lon="5.28624">
        <ele>1333.2</ele>
        <time>2026-05-14T08:54:05.999Z</time>
      </trkpt>
      <trkpt lat="44.1842" lon="5.28623">
        <ele>1333.3</ele>
        <time>2026-05-14T08:54:06.999Z</time>
      </trkpt>
      <trkpt lat="44.1842" lon="5.28622">
        <ele>1333.5</ele>
        <time>2026-05-14T08:54:07.999Z</time>
      </trkpt>
      <trkpt lat="44.18421" lon="5.2862">
        <ele>1333.3</ele>
        <time>2026-05-14T08:54:08.999Z</time>
      </trkpt>
      <trkpt lat="44.18421" lon="5.2862">
        <ele>1333.3</ele>
        <time>2026-05-14T08:54:09.999Z</time>
      </trkpt>
      <trkpt lat="44.18422" lon="5.28619">
        <ele>1333.2</ele>
        <time>2026-05-14T08:54:10.999Z</time>
      </trkpt>
      <trkpt lat="44.18423" lon="5.28617">
        <ele>1333.1</ele>
        <time>2026-05-14T08:54:11.999Z</time>
      </trkpt>
      <trkpt lat="44.18423" lon="5.28616">
        <ele>1333.1</ele>
        <time>2026-05-14T08:54:12.999Z</time>
      </trkpt>
      <trkpt lat="44.18423" lon="5.28616">
        <ele>1332.8</ele>
        <time>2026-05-14T08:54:13.999Z</time>
      </trkpt>
      <trkpt lat="44.18422" lon="5.28615">
        <ele>1332.6</ele>
        <time>2026-05-14T08:54:14.999Z</time>
      </trkpt>
      <trkpt lat="44.18422" lon="5.28615">
        <ele>1332.3</ele>
        <time>2026-05-14T08:54:15.999Z</time>
      </trkpt>
      <trkpt lat="44.18422" lon="5.28614">
        <ele>1332</ele>
        <time>2026-05-14T08:54:16.999Z</time>
      </trkpt>
      <trkpt lat="44.18422" lon="5.28613">
        <ele>1331.6</ele>
        <time>2026-05-14T08:54:17.999Z</time>
      </trkpt>
      <trkpt lat="44.18422" lon="5.28612">
        <ele>1331.7</ele>
        <time>2026-05-14T08:54:18.999Z</time>
      </trkpt>
      <trkpt lat="44.18423" lon="5.2861">
        <ele>1332.2</ele>
        <time>2026-05-14T08:54:19.999Z</time>
      </trkpt>
      <trkpt lat="44.18423" lon="5.28608">
        <ele>1332.4</ele>
        <time>2026-05-14T08:54:20.999Z</time>
      </trkpt>
      <trkpt lat="44.18423" lon="5.28607">
        <ele>1332.2</ele>
        <time>2026-05-14T08:54:21.999Z</time>
      </trkpt>
      <trkpt lat="44.18423" lon="5.28606">
        <ele>1332.7</ele>
        <time>2026-05-14T08:54:22.999Z</time>
      </trkpt>
      <trkpt lat="44.18424" lon="5.28604">
        <ele>1333</ele>
        <time>2026-05-14T08:54:23.999Z</time>
      </trkpt>
      <trkpt lat="44.18424" lon="5.28603">
        <ele>1333.2</ele>
        <time>2026-05-14T08:54:24.999Z</time>
      </trkpt>
      <trkpt lat="44.18424" lon="5.28602">
        <ele>1333.1</ele>
        <time>2026-05-14T08:54:25.999Z</time>
      </trkpt>
      <trkpt lat="44.18425" lon="5.28601">
        <ele>1333.1</ele>
        <time>2026-05-14T08:54:26.999Z</time>
      </trkpt>
      <trkpt lat="44.18425" lon="5.286">
        <ele>1333.2</ele>
        <time>2026-05-14T08:54:27.999Z</time>
      </trkpt>
      <trkpt lat="44.18425" lon="5.28598">
        <ele>1333.3</ele>
        <time>2026-05-14T08:54:28.999Z</time>
      </trkpt>
      <trkpt lat="44.18425" lon="5.28597">
        <ele>1333.4</ele>
        <time>2026-05-14T08:54:29.999Z</time>
      </trkpt>
      <trkpt lat="44.18425" lon="5.28595">
        <ele>1333.8</ele>
        <time>2026-05-14T08:54:30.999Z</time>
      </trkpt>
      <trkpt lat="44.18426" lon="5.28594">
        <ele>1334.3</ele>
        <time>2026-05-14T08:54:31.999Z</time>
      </trkpt>
      <trkpt lat="44.18427" lon="5.28593">
        <ele>1334.8</ele>
        <time>2026-05-14T08:54:32.999Z</time>
      </trkpt>
      <trkpt lat="44.18427" lon="5.28592">
        <ele>1334.9</ele>
        <time>2026-05-14T08:54:33.999Z</time>
      </trkpt>
      <trkpt lat="44.18428" lon="5.28592">
        <ele>1334.7</ele>
        <time>2026-05-14T08:54:34.999Z</time>
      </trkpt>
      <trkpt lat="44.18428" lon="5.28591">
        <ele>1334.8</ele>
        <time>2026-05-14T08:54:35.999Z</time>
      </trkpt>
      <trkpt lat="44.18428" lon="5.2859">
        <ele>1334.6</ele>
        <time>2026-05-14T08:54:36.999Z</time>
      </trkpt>
      <trkpt lat="44.18428" lon="5.28589">
        <ele>1334.7</ele>
        <time>2026-05-14T08:54:37.999Z</time>
      </trkpt>
      <trkpt lat="44.18428" lon="5.28588">
        <ele>1335</ele>
        <time>2026-05-14T08:54:38.999Z</time>
      </trkpt>
      <trkpt lat="44.18429" lon="5.28587">
        <ele>1335.3</ele>
        <time>2026-05-14T08:54:39.999Z</time>
      </trkpt>
      <trkpt lat="44.18429" lon="5.28585">
        <ele>1335.9</ele>
        <time>2026-05-14T08:54:40.999Z</time>
      </trkpt>
      <trkpt lat="44.18429" lon="5.28584">
        <ele>1335.9</ele>
        <time>2026-05-14T08:54:41.999Z</time>
      </trkpt>
      <trkpt lat="44.18429" lon="5.28583">
        <ele>1336</ele>
        <time>2026-05-14T08:54:42.999Z</time>
      </trkpt>
      <trkpt lat="44.1843" lon="5.28582">
        <ele>1335.9</ele>
        <time>2026-05-14T08:54:43.999Z</time>
      </trkpt>
      <trkpt lat="44.1843" lon="5.28581">
        <ele>1336.1</ele>
        <time>2026-05-14T08:54:44.999Z</time>
      </trkpt>
      <trkpt lat="44.1843" lon="5.2858">
        <ele>1335.9</ele>
        <time>2026-05-14T08:54:45.999Z</time>
      </trkpt>
      <trkpt lat="44.18431" lon="5.28579">
        <ele>1336.1</ele>
        <time>2026-05-14T08:54:46.999Z</time>
      </trkpt>
      <trkpt lat="44.18431" lon="5.28578">
        <ele>1336.3</ele>
        <time>2026-05-14T08:54:47.999Z</time>
      </trkpt>
      <trkpt lat="44.18431" lon="5.28577">
        <ele>1336.4</ele>
        <time>2026-05-14T08:54:48.999Z</time>
      </trkpt>
      <trkpt lat="44.18432" lon="5.28576">
        <ele>1336.8</ele>
        <time>2026-05-14T08:54:49.999Z</time>
      </trkpt>
      <trkpt lat="44.18432" lon="5.28575">
        <ele>1337.1</ele>
        <time>2026-05-14T08:54:50.999Z</time>
      </trkpt>
      <trkpt lat="44.18433" lon="5.28575">
        <ele>1337.2</ele>
        <time>2026-05-14T08:54:51.999Z</time>
      </trkpt>
      <trkpt lat="44.18434" lon="5.28574">
        <ele>1337.5</ele>
        <time>2026-05-14T08:54:52.999Z</time>
      </trkpt>
      <trkpt lat="44.18434" lon="5.28574">
        <ele>1337.6</ele>
        <time>2026-05-14T08:54:53.999Z</time>
      </trkpt>
      <trkpt lat="44.18435" lon="5.28573">
        <ele>1337.7</ele>
        <time>2026-05-14T08:54:54.999Z</time>
      </trkpt>
      <trkpt lat="44.18435" lon="5.28573">
        <ele>1337.9</ele>
        <time>2026-05-14T08:54:55.999Z</time>
      </trkpt>
      <trkpt lat="44.18436" lon="5.28572">
        <ele>1338.4</ele>
        <time>2026-05-14T08:54:56.999Z</time>
      </trkpt>
      <trkpt lat="44.18436" lon="5.28571">
        <ele>1338.2</ele>
        <time>2026-05-14T08:54:57.999Z</time>
      </trkpt>
      <trkpt lat="44.18437" lon="5.2857">
        <ele>1338.1</ele>
        <time>2026-05-14T08:54:58.999Z</time>
      </trkpt>
      <trkpt lat="44.18437" lon="5.28569">
        <ele>1338.2</ele>
        <time>2026-05-14T08:54:59.999Z</time>
      </trkpt>
      <trkpt lat="44.18438" lon="5.28568">
        <ele>1338.4</ele>
        <time>2026-05-14T08:55:00.999Z</time>
      </trkpt>
      <trkpt lat="44.18438" lon="5.28567">
        <ele>1338.4</ele>
        <time>2026-05-14T08:55:01.999Z</time>
      </trkpt>
      <trkpt lat="44.18438" lon="5.28566">
        <ele>1338.5</ele>
        <time>2026-05-14T08:55:02.999Z</time>
      </trkpt>
      <trkpt lat="44.18439" lon="5.28564">
        <ele>1339.1</ele>
        <time>2026-05-14T08:55:03.999Z</time>
      </trkpt>
      <trkpt lat="44.18439" lon="5.28564">
        <ele>1339.2</ele>
        <time>2026-05-14T08:55:04.999Z</time>
      </trkpt>
      <trkpt lat="44.18439" lon="5.28563">
        <ele>1339.5</ele>
        <time>2026-05-14T08:55:05.999Z</time>
      </trkpt>
      <trkpt lat="44.1844" lon="5.28561">
        <ele>1340.1</ele>
        <time>2026-05-14T08:55:06.999Z</time>
      </trkpt>
      <trkpt lat="44.18439" lon="5.28561">
        <ele>1340.4</ele>
        <time>2026-05-14T08:55:07.999Z</time>
      </trkpt>
      <trkpt lat="44.18439" lon="5.2856">
        <ele>1341.1</ele>
        <time>2026-05-14T08:55:08.999Z</time>
      </trkpt>
      <trkpt lat="44.18439" lon="5.28559">
        <ele>1341.6</ele>
        <time>2026-05-14T08:55:09.999Z</time>
      </trkpt>
      <trkpt lat="44.18439" lon="5.28557">
        <ele>1341.6</ele>
        <time>2026-05-14T08:55:10.999Z</time>
      </trkpt>
      <trkpt lat="44.18439" lon="5.28556">
        <ele>1341.3</ele>
        <time>2026-05-14T08:55:11.999Z</time>
      </trkpt>
      <trkpt lat="44.18439" lon="5.28556">
        <ele>1341.6</ele>
        <time>2026-05-14T08:55:12.999Z</time>
      </trkpt>
      <trkpt lat="44.18439" lon="5.28555">
        <ele>1342</ele>
        <time>2026-05-14T08:55:13.999Z</time>
      </trkpt>
      <trkpt lat="44.18439" lon="5.28554">
        <ele>1341.9</ele>
        <time>2026-05-14T08:55:14.999Z</time>
      </trkpt>
      <trkpt lat="44.18439" lon="5.28552">
        <ele>1342.2</ele>
        <time>2026-05-14T08:55:15.999Z</time>
      </trkpt>
      <trkpt lat="44.18439" lon="5.2855">
        <ele>1342.4</ele>
        <time>2026-05-14T08:55:16.999Z</time>
      </trkpt>
      <trkpt lat="44.1844" lon="5.28549">
        <ele>1342.8</ele>
        <time>2026-05-14T08:55:17.999Z</time>
      </trkpt>
      <trkpt lat="44.1844" lon="5.28547">
        <ele>1343.6</ele>
        <time>2026-05-14T08:55:18.999Z</time>
      </trkpt>
      <trkpt lat="44.18441" lon="5.28546">
        <ele>1344</ele>
        <time>2026-05-14T08:55:19.999Z</time>
      </trkpt>
      <trkpt lat="44.18442" lon="5.28545">
        <ele>1344.2</ele>
        <time>2026-05-14T08:55:20.999Z</time>
      </trkpt>
      <trkpt lat="44.18442" lon="5.28544">
        <ele>1344.2</ele>
        <time>2026-05-14T08:55:21.999Z</time>
      </trkpt>
      <trkpt lat="44.18442" lon="5.28542">
        <ele>1344.4</ele>
        <time>2026-05-14T08:55:22.999Z</time>
      </trkpt>
      <trkpt lat="44.18442" lon="5.28541">
        <ele>1344.4</ele>
        <time>2026-05-14T08:55:23.999Z</time>
      </trkpt>
      <trkpt lat="44.18441" lon="5.2854">
        <ele>1344.2</ele>
        <time>2026-05-14T08:55:24.999Z</time>
      </trkpt>
      <trkpt lat="44.18441" lon="5.28538">
        <ele>1343.9</ele>
        <time>2026-05-14T08:55:25.999Z</time>
      </trkpt>
      <trkpt lat="44.1844" lon="5.28537">
        <ele>1344</ele>
        <time>2026-05-14T08:55:26.999Z</time>
      </trkpt>
      <trkpt lat="44.1844" lon="5.28535">
        <ele>1343.9</ele>
        <time>2026-05-14T08:55:27.999Z</time>
      </trkpt>
      <trkpt lat="44.1844" lon="5.28535">
        <ele>1344.1</ele>
        <time>2026-05-14T08:55:28.999Z</time>
      </trkpt>
      <trkpt lat="44.18439" lon="5.28533">
        <ele>1344.1</ele>
        <time>2026-05-14T08:55:29.999Z</time>
      </trkpt>
      <trkpt lat="44.18438" lon="5.28532">
        <ele>1344.5</ele>
        <time>2026-05-14T08:55:30.999Z</time>
      </trkpt>
      <trkpt lat="44.18437" lon="5.28531">
        <ele>1344.5</ele>
        <time>2026-05-14T08:55:31.999Z</time>
      </trkpt>
      <trkpt lat="44.18437" lon="5.2853">
        <ele>1344.9</ele>
        <time>2026-05-14T08:55:32.999Z</time>
      </trkpt>
      <trkpt lat="44.18437" lon="5.28529">
        <ele>1344.9</ele>
        <time>2026-05-14T08:55:33.999Z</time>
      </trkpt>
      <trkpt lat="44.18437" lon="5.28528">
        <ele>1345</ele>
        <time>2026-05-14T08:55:34.999Z</time>
      </trkpt>
      <trkpt lat="44.18437" lon="5.28526">
        <ele>1345</ele>
        <time>2026-05-14T08:55:35.999Z</time>
      </trkpt>
      <trkpt lat="44.18438" lon="5.28524">
        <ele>1345.1</ele>
        <time>2026-05-14T08:55:36.999Z</time>
      </trkpt>
      <trkpt lat="44.18438" lon="5.28523">
        <ele>1345</ele>
        <time>2026-05-14T08:55:37.999Z</time>
      </trkpt>
      <trkpt lat="44.18438" lon="5.28521">
        <ele>1344.7</ele>
        <time>2026-05-14T08:55:38.999Z</time>
      </trkpt>
      <trkpt lat="44.18439" lon="5.28521">
        <ele>1344.7</ele>
        <time>2026-05-14T08:55:39.999Z</time>
      </trkpt>
      <trkpt lat="44.18439" lon="5.2852">
        <ele>1344.3</ele>
        <time>2026-05-14T08:55:40.999Z</time>
      </trkpt>
      <trkpt lat="44.18439" lon="5.2852">
        <ele>1343.8</ele>
        <time>2026-05-14T08:55:41.999Z</time>
      </trkpt>
      <trkpt lat="44.18439" lon="5.28519">
        <ele>1343.7</ele>
        <time>2026-05-14T08:55:42.999Z</time>
      </trkpt>
      <trkpt lat="44.18438" lon="5.28517">
        <ele>1343.3</ele>
        <time>2026-05-14T08:55:43.999Z</time>
      </trkpt>
      <trkpt lat="44.18437" lon="5.28515">
        <ele>1342.8</ele>
        <time>2026-05-14T08:55:44.999Z</time>
      </trkpt>
      <trkpt lat="44.18437" lon="5.28515">
        <ele>1343</ele>
        <time>2026-05-14T08:55:45.999Z</time>
      </trkpt>
      <trkpt lat="44.18437" lon="5.28514">
        <ele>1343.1</ele>
        <time>2026-05-14T08:55:46.999Z</time>
      </trkpt>
      <trkpt lat="44.18437" lon="5.28513">
        <ele>1343.4</ele>
        <time>2026-05-14T08:55:47.999Z</time>
      </trkpt>
      <trkpt lat="44.18436" lon="5.28512">
        <ele>1344.1</ele>
        <time>2026-05-14T08:55:48.999Z</time>
      </trkpt>
      <trkpt lat="44.18436" lon="5.2851">
        <ele>1344.5</ele>
        <time>2026-05-14T08:55:49.999Z</time>
      </trkpt>
      <trkpt lat="44.18436" lon="5.28509">
        <ele>1345.2</ele>
        <time>2026-05-14T08:55:50.999Z</time>
      </trkpt>
      <trkpt lat="44.18435" lon="5.28507">
        <ele>1345.4</ele>
        <time>2026-05-14T08:55:51.999Z</time>
      </trkpt>
      <trkpt lat="44.18434" lon="5.28505">
        <ele>1345.8</ele>
        <time>2026-05-14T08:55:52.999Z</time>
      </trkpt>
      <trkpt lat="44.18433" lon="5.28504">
        <ele>1346.4</ele>
        <time>2026-05-14T08:55:53.999Z</time>
      </trkpt>
      <trkpt lat="44.18433" lon="5.28503">
        <ele>1346.7</ele>
        <time>2026-05-14T08:55:54.999Z</time>
      </trkpt>
      <trkpt lat="44.18433" lon="5.28502">
        <ele>1346.9</ele>
        <time>2026-05-14T08:55:55.999Z</time>
      </trkpt>
      <trkpt lat="44.18433" lon="5.28501">
        <ele>1347.2</ele>
        <time>2026-05-14T08:55:56.999Z</time>
      </trkpt>
      <trkpt lat="44.18432" lon="5.28501">
        <ele>1347.3</ele>
        <time>2026-05-14T08:55:57.999Z</time>
      </trkpt>
      <trkpt lat="44.18432" lon="5.285">
        <ele>1347.7</ele>
        <time>2026-05-14T08:55:58.999Z</time>
      </trkpt>
      <trkpt lat="44.18432" lon="5.28498">
        <ele>1347.8</ele>
        <time>2026-05-14T08:55:59.999Z</time>
      </trkpt>
      <trkpt lat="44.18431" lon="5.28496">
        <ele>1347.4</ele>
        <time>2026-05-14T08:56:00.999Z</time>
      </trkpt>
      <trkpt lat="44.18431" lon="5.28495">
        <ele>1347.4</ele>
        <time>2026-05-14T08:56:01.999Z</time>
      </trkpt>
      <trkpt lat="44.18431" lon="5.28494">
        <ele>1347.4</ele>
        <time>2026-05-14T08:56:02.999Z</time>
      </trkpt>
      <trkpt lat="44.18431" lon="5.28492">
        <ele>1347.9</ele>
        <time>2026-05-14T08:56:03.999Z</time>
      </trkpt>
      <trkpt lat="44.18431" lon="5.28491">
        <ele>1348.3</ele>
        <time>2026-05-14T08:56:04.999Z</time>
      </trkpt>
      <trkpt lat="44.18431" lon="5.28489">
        <ele>1348.3</ele>
        <time>2026-05-14T08:56:05.999Z</time>
      </trkpt>
      <trkpt lat="44.18431" lon="5.28488">
        <ele>1348.4</ele>
        <time>2026-05-14T08:56:06.999Z</time>
      </trkpt>
      <trkpt lat="44.18431" lon="5.28488">
        <ele>1349</ele>
        <time>2026-05-14T08:56:07.999Z</time>
      </trkpt>
      <trkpt lat="44.1843" lon="5.28487">
        <ele>1349</ele>
        <time>2026-05-14T08:56:08.999Z</time>
      </trkpt>
      <trkpt lat="44.1843" lon="5.28486">
        <ele>1349</ele>
        <time>2026-05-14T08:56:09.999Z</time>
      </trkpt>
      <trkpt lat="44.18429" lon="5.28485">
        <ele>1348.9</ele>
        <time>2026-05-14T08:56:10.999Z</time>
      </trkpt>
      <trkpt lat="44.18429" lon="5.28483">
        <ele>1349.2</ele>
        <time>2026-05-14T08:56:11.999Z</time>
      </trkpt>
      <trkpt lat="44.18429" lon="5.28482">
        <ele>1349.3</ele>
        <time>2026-05-14T08:56:12.999Z</time>
      </trkpt>
      <trkpt lat="44.18428" lon="5.28481">
        <ele>1349.5</ele>
        <time>2026-05-14T08:56:13.999Z</time>
      </trkpt>
      <trkpt lat="44.18428" lon="5.28481">
        <ele>1349.6</ele>
        <time>2026-05-14T08:56:14.999Z</time>
      </trkpt>
      <trkpt lat="44.18428" lon="5.2848">
        <ele>1349.2</ele>
        <time>2026-05-14T08:56:15.999Z</time>
      </trkpt>
      <trkpt lat="44.18428" lon="5.28479">
        <ele>1349.5</ele>
        <time>2026-05-14T08:56:16.999Z</time>
      </trkpt>
      <trkpt lat="44.18428" lon="5.28478">
        <ele>1349.6</ele>
        <time>2026-05-14T08:56:17.999Z</time>
      </trkpt>
      <trkpt lat="44.18428" lon="5.28478">
        <ele>1349.7</ele>
        <time>2026-05-14T08:56:18.999Z</time>
      </trkpt>
      <trkpt lat="44.18428" lon="5.28477">
        <ele>1350</ele>
        <time>2026-05-14T08:56:19.999Z</time>
      </trkpt>
      <trkpt lat="44.18427" lon="5.28476">
        <ele>1349.5</ele>
        <time>2026-05-14T08:56:20.999Z</time>
      </trkpt>
      <trkpt lat="44.18427" lon="5.28474">
        <ele>1349.2</ele>
        <time>2026-05-14T08:56:21.999Z</time>
      </trkpt>
      <trkpt lat="44.18427" lon="5.28473">
        <ele>1349.2</ele>
        <time>2026-05-14T08:56:22.999Z</time>
      </trkpt>
      <trkpt lat="44.18426" lon="5.28471">
        <ele>1349.4</ele>
        <time>2026-05-14T08:56:23.999Z</time>
      </trkpt>
      <trkpt lat="44.18426" lon="5.2847">
        <ele>1349.3</ele>
        <time>2026-05-14T08:56:24.999Z</time>
      </trkpt>
      <trkpt lat="44.18426" lon="5.28469">
        <ele>1349.6</ele>
        <time>2026-05-14T08:56:25.999Z</time>
      </trkpt>
      <trkpt lat="44.18426" lon="5.28468">
        <ele>1350.4</ele>
        <time>2026-05-14T08:56:26.999Z</time>
      </trkpt>
      <trkpt lat="44.18425" lon="5.28467">
        <ele>1350.8</ele>
        <time>2026-05-14T08:56:27.999Z</time>
      </trkpt>
      <trkpt lat="44.18425" lon="5.28465">
        <ele>1350.4</ele>
        <time>2026-05-14T08:56:28.999Z</time>
      </trkpt>
      <trkpt lat="44.18424" lon="5.28465">
        <ele>1350.2</ele>
        <time>2026-05-14T08:56:29.999Z</time>
      </trkpt>
      <trkpt lat="44.18424" lon="5.28462">
        <ele>1350.2</ele>
        <time>2026-05-14T08:56:30.999Z</time>
      </trkpt>
      <trkpt lat="44.18423" lon="5.28461">
        <ele>1350.2</ele>
        <time>2026-05-14T08:56:31.999Z</time>
      </trkpt>
      <trkpt lat="44.18423" lon="5.2846">
        <ele>1350.5</ele>
        <time>2026-05-14T08:56:32.999Z</time>
      </trkpt>
      <trkpt lat="44.18423" lon="5.28458">
        <ele>1350.9</ele>
        <time>2026-05-14T08:56:33.999Z</time>
      </trkpt>
      <trkpt lat="44.18423" lon="5.28457">
        <ele>1351.1</ele>
        <time>2026-05-14T08:56:34.999Z</time>
      </trkpt>
      <trkpt lat="44.18423" lon="5.28456">
        <ele>1351.6</ele>
        <time>2026-05-14T08:56:35.999Z</time>
      </trkpt>
      <trkpt lat="44.18423" lon="5.28455">
        <ele>1351.4</ele>
        <time>2026-05-14T08:56:36.999Z</time>
      </trkpt>
      <trkpt lat="44.18422" lon="5.28453">
        <ele>1351.4</ele>
        <time>2026-05-14T08:56:37.999Z</time>
      </trkpt>
      <trkpt lat="44.18422" lon="5.28452">
        <ele>1351.8</ele>
        <time>2026-05-14T08:56:38.999Z</time>
      </trkpt>
      <trkpt lat="44.18422" lon="5.28451">
        <ele>1352.1</ele>
        <time>2026-05-14T08:56:39.999Z</time>
      </trkpt>
      <trkpt lat="44.18421" lon="5.2845">
        <ele>1351.9</ele>
        <time>2026-05-14T08:56:40.999Z</time>
      </trkpt>
      <trkpt lat="44.18421" lon="5.2845">
        <ele>1352.6</ele>
        <time>2026-05-14T08:56:41.999Z</time>
      </trkpt>
      <trkpt lat="44.18421" lon="5.28448">
        <ele>1352.6</ele>
        <time>2026-05-14T08:56:42.999Z</time>
      </trkpt>
      <trkpt lat="44.18421" lon="5.28447">
        <ele>1352.5</ele>
        <time>2026-05-14T08:56:43.999Z</time>
      </trkpt>
      <trkpt lat="44.18421" lon="5.28445">
        <ele>1352.5</ele>
        <time>2026-05-14T08:56:44.999Z</time>
      </trkpt>
      <trkpt lat="44.1842" lon="5.28444">
        <ele>1352.6</ele>
        <time>2026-05-14T08:56:45.999Z</time>
      </trkpt>
      <trkpt lat="44.18421" lon="5.28443">
        <ele>1352.7</ele>
        <time>2026-05-14T08:56:46.999Z</time>
      </trkpt>
      <trkpt lat="44.18421" lon="5.28442">
        <ele>1352.7</ele>
        <time>2026-05-14T08:56:47.999Z</time>
      </trkpt>
      <trkpt lat="44.1842" lon="5.2844">
        <ele>1353</ele>
        <time>2026-05-14T08:56:48.999Z</time>
      </trkpt>
      <trkpt lat="44.1842" lon="5.28439">
        <ele>1353.3</ele>
        <time>2026-05-14T08:56:49.999Z</time>
      </trkpt>
      <trkpt lat="44.18421" lon="5.28438">
        <ele>1353.9</ele>
        <time>2026-05-14T08:56:50.999Z</time>
      </trkpt>
      <trkpt lat="44.18421" lon="5.28436">
        <ele>1354.8</ele>
        <time>2026-05-14T08:56:51.999Z</time>
      </trkpt>
      <trkpt lat="44.18421" lon="5.28436">
        <ele>1355</ele>
        <time>2026-05-14T08:56:52.999Z</time>
      </trkpt>
      <trkpt lat="44.18421" lon="5.28436">
        <ele>1355</ele>
        <time>2026-05-14T08:56:53.999Z</time>
      </trkpt>
      <trkpt lat="44.18422" lon="5.28434">
        <ele>1354.5</ele>
        <time>2026-05-14T08:56:54.999Z</time>
      </trkpt>
      <trkpt lat="44.18422" lon="5.28433">
        <ele>1354.6</ele>
        <time>2026-05-14T08:56:55.999Z</time>
      </trkpt>
      <trkpt lat="44.18422" lon="5.28432">
        <ele>1354.8</ele>
        <time>2026-05-14T08:56:56.999Z</time>
      </trkpt>
      <trkpt lat="44.18422" lon="5.28431">
        <ele>1355.1</ele>
        <time>2026-05-14T08:56:57.999Z</time>
      </trkpt>
      <trkpt lat="44.18423" lon="5.2843">
        <ele>1355.3</ele>
        <time>2026-05-14T08:56:58.999Z</time>
      </trkpt>
      <trkpt lat="44.18423" lon="5.28428">
        <ele>1355.6</ele>
        <time>2026-05-14T08:56:59.999Z</time>
      </trkpt>
      <trkpt lat="44.18422" lon="5.28426">
        <ele>1355.5</ele>
        <time>2026-05-14T08:57:00.999Z</time>
      </trkpt>
      <trkpt lat="44.18421" lon="5.28425">
        <ele>1355.2</ele>
        <time>2026-05-14T08:57:01.999Z</time>
      </trkpt>
      <trkpt lat="44.18422" lon="5.28423">
        <ele>1355.4</ele>
        <time>2026-05-14T08:57:02.999Z</time>
      </trkpt>
      <trkpt lat="44.18421" lon="5.28422">
        <ele>1355.5</ele>
        <time>2026-05-14T08:57:03.999Z</time>
      </trkpt>
      <trkpt lat="44.18421" lon="5.2842">
        <ele>1355.6</ele>
        <time>2026-05-14T08:57:04.999Z</time>
      </trkpt>
      <trkpt lat="44.18421" lon="5.28419">
        <ele>1355.9</ele>
        <time>2026-05-14T08:57:05.999Z</time>
      </trkpt>
      <trkpt lat="44.1842" lon="5.28418">
        <ele>1356.2</ele>
        <time>2026-05-14T08:57:06.999Z</time>
      </trkpt>
      <trkpt lat="44.1842" lon="5.28417">
        <ele>1356.1</ele>
        <time>2026-05-14T08:57:07.999Z</time>
      </trkpt>
      <trkpt lat="44.1842" lon="5.28415">
        <ele>1355.8</ele>
        <time>2026-05-14T08:57:08.999Z</time>
      </trkpt>
      <trkpt lat="44.18421" lon="5.28413">
        <ele>1356</ele>
        <time>2026-05-14T08:57:09.999Z</time>
      </trkpt>
      <trkpt lat="44.18421" lon="5.28412">
        <ele>1356</ele>
        <time>2026-05-14T08:57:10.999Z</time>
      </trkpt>
      <trkpt lat="44.18421" lon="5.2841">
        <ele>1355.8</ele>
        <time>2026-05-14T08:57:11.999Z</time>
      </trkpt>
      <trkpt lat="44.1842" lon="5.2841">
        <ele>1355.8</ele>
        <time>2026-05-14T08:57:12.999Z</time>
      </trkpt>
      <trkpt lat="44.18419" lon="5.28409">
        <ele>1355.5</ele>
        <time>2026-05-14T08:57:13.999Z</time>
      </trkpt>
      <trkpt lat="44.18418" lon="5.28408">
        <ele>1355</ele>
        <time>2026-05-14T08:57:14.999Z</time>
      </trkpt>
      <trkpt lat="44.18418" lon="5.28407">
        <ele>1355</ele>
        <time>2026-05-14T08:57:15.999Z</time>
      </trkpt>
      <trkpt lat="44.18418" lon="5.28406">
        <ele>1355.3</ele>
        <time>2026-05-14T08:57:16.999Z</time>
      </trkpt>
      <trkpt lat="44.18418" lon="5.28405">
        <ele>1355.7</ele>
        <time>2026-05-14T08:57:17.999Z</time>
      </trkpt>
      <trkpt lat="44.18417" lon="5.28404">
        <ele>1356.9</ele>
        <time>2026-05-14T08:57:18.999Z</time>
      </trkpt>
      <trkpt lat="44.18416" lon="5.28403">
        <ele>1357.5</ele>
        <time>2026-05-14T08:57:19.999Z</time>
      </trkpt>
      <trkpt lat="44.18416" lon="5.28402">
        <ele>1357.5</ele>
        <time>2026-05-14T08:57:20.999Z</time>
      </trkpt>
      <trkpt lat="44.18415" lon="5.28402">
        <ele>1357.3</ele>
        <time>2026-05-14T08:57:21.999Z</time>
      </trkpt>
      <trkpt lat="44.18415" lon="5.284">
        <ele>1357.5</ele>
        <time>2026-05-14T08:57:22.999Z</time>
      </trkpt>
      <trkpt lat="44.18415" lon="5.28399">
        <ele>1357.9</ele>
        <time>2026-05-14T08:57:23.999Z</time>
      </trkpt>
      <trkpt lat="44.18415" lon="5.28397">
        <ele>1358.1</ele>
        <time>2026-05-14T08:57:24.999Z</time>
      </trkpt>
      <trkpt lat="44.18414" lon="5.28396">
        <ele>1357.8</ele>
        <time>2026-05-14T08:57:25.999Z</time>
      </trkpt>
      <trkpt lat="44.18414" lon="5.28394">
        <ele>1357.6</ele>
        <time>2026-05-14T08:57:26.999Z</time>
      </trkpt>
      <trkpt lat="44.18414" lon="5.28393">
        <ele>1357</ele>
        <time>2026-05-14T08:57:27.999Z</time>
      </trkpt>
      <trkpt lat="44.18413" lon="5.28391">
        <ele>1356.7</ele>
        <time>2026-05-14T08:57:28.999Z</time>
      </trkpt>
      <trkpt lat="44.18413" lon="5.2839">
        <ele>1357.3</ele>
        <time>2026-05-14T08:57:29.999Z</time>
      </trkpt>
      <trkpt lat="44.18413" lon="5.28388">
        <ele>1357.9</ele>
        <time>2026-05-14T08:57:30.999Z</time>
      </trkpt>
      <trkpt lat="44.18414" lon="5.28388">
        <ele>1357.9</ele>
        <time>2026-05-14T08:57:31.999Z</time>
      </trkpt>
      <trkpt lat="44.18414" lon="5.28387">
        <ele>1358.6</ele>
        <time>2026-05-14T08:57:32.999Z</time>
      </trkpt>
      <trkpt lat="44.18414" lon="5.28386">
        <ele>1358.8</ele>
        <time>2026-05-14T08:57:33.999Z</time>
      </trkpt>
      <trkpt lat="44.18414" lon="5.28386">
        <ele>1358.9</ele>
        <time>2026-05-14T08:57:34.999Z</time>
      </trkpt>
      <trkpt lat="44.18414" lon="5.28385">
        <ele>1358.5</ele>
        <time>2026-05-14T08:57:35.999Z</time>
      </trkpt>
      <trkpt lat="44.18414" lon="5.28385">
        <ele>1358.9</ele>
        <time>2026-05-14T08:57:36.999Z</time>
      </trkpt>
      <trkpt lat="44.18413" lon="5.28382">
        <ele>1359.1</ele>
        <time>2026-05-14T08:57:37.999Z</time>
      </trkpt>
      <trkpt lat="44.18413" lon="5.28379">
        <ele>1359.2</ele>
        <time>2026-05-14T08:57:38.999Z</time>
      </trkpt>
      <trkpt lat="44.18413" lon="5.28378">
        <ele>1360.1</ele>
        <time>2026-05-14T08:57:39.999Z</time>
      </trkpt>
      <trkpt lat="44.18412" lon="5.28377">
        <ele>1360.7</ele>
        <time>2026-05-14T08:57:40.999Z</time>
      </trkpt>
      <trkpt lat="44.18412" lon="5.28376">
        <ele>1360.9</ele>
        <time>2026-05-14T08:57:41.999Z</time>
      </trkpt>
      <trkpt lat="44.18412" lon="5.28376">
        <ele>1361</ele>
        <time>2026-05-14T08:57:42.999Z</time>
      </trkpt>
      <trkpt lat="44.18412" lon="5.28375">
        <ele>1360.8</ele>
        <time>2026-05-14T08:57:43.999Z</time>
      </trkpt>
      <trkpt lat="44.18411" lon="5.28374">
        <ele>1360.9</ele>
        <time>2026-05-14T08:57:44.999Z</time>
      </trkpt>
      <trkpt lat="44.18411" lon="5.28372">
        <ele>1360.6</ele>
        <time>2026-05-14T08:57:45.999Z</time>
      </trkpt>
      <trkpt lat="44.18411" lon="5.28371">
        <ele>1360.7</ele>
        <time>2026-05-14T08:57:46.999Z</time>
      </trkpt>
      <trkpt lat="44.18411" lon="5.2837">
        <ele>1360.9</ele>
        <time>2026-05-14T08:57:47.999Z</time>
      </trkpt>
      <trkpt lat="44.1841" lon="5.28369">
        <ele>1361.1</ele>
        <time>2026-05-14T08:57:48.999Z</time>
      </trkpt>
      <trkpt lat="44.18409" lon="5.28367">
        <ele>1361.1</ele>
        <time>2026-05-14T08:57:49.999Z</time>
      </trkpt>
      <trkpt lat="44.18409" lon="5.28367">
        <ele>1361.4</ele>
        <time>2026-05-14T08:57:50.999Z</time>
      </trkpt>
      <trkpt lat="44.18408" lon="5.28366">
        <ele>1361.9</ele>
        <time>2026-05-14T08:57:51.999Z</time>
      </trkpt>
      <trkpt lat="44.18408" lon="5.28364">
        <ele>1362.5</ele>
        <time>2026-05-14T08:57:52.999Z</time>
      </trkpt>
      <trkpt lat="44.18407" lon="5.28364">
        <ele>1362.2</ele>
        <time>2026-05-14T08:57:53.999Z</time>
      </trkpt>
      <trkpt lat="44.18407" lon="5.28362">
        <ele>1362.6</ele>
        <time>2026-05-14T08:57:54.999Z</time>
      </trkpt>
      <trkpt lat="44.18406" lon="5.28361">
        <ele>1362.6</ele>
        <time>2026-05-14T08:57:55.999Z</time>
      </trkpt>
      <trkpt lat="44.18405" lon="5.2836">
        <ele>1362.9</ele>
        <time>2026-05-14T08:57:56.999Z</time>
      </trkpt>
      <trkpt lat="44.18404" lon="5.2836">
        <ele>1363.2</ele>
        <time>2026-05-14T08:57:57.999Z</time>
      </trkpt>
      <trkpt lat="44.18404" lon="5.28358">
        <ele>1364</ele>
        <time>2026-05-14T08:57:58.999Z</time>
      </trkpt>
      <trkpt lat="44.18404" lon="5.28357">
        <ele>1364.4</ele>
        <time>2026-05-14T08:57:59.999Z</time>
      </trkpt>
      <trkpt lat="44.18403" lon="5.28357">
        <ele>1364.8</ele>
        <time>2026-05-14T08:58:00.999Z</time>
      </trkpt>
      <trkpt lat="44.18403" lon="5.28356">
        <ele>1366</ele>
        <time>2026-05-14T08:58:01.999Z</time>
      </trkpt>
      <trkpt lat="44.18403" lon="5.28354">
        <ele>1366.3</ele>
        <time>2026-05-14T08:58:02.999Z</time>
      </trkpt>
      <trkpt lat="44.18402" lon="5.28353">
        <ele>1366.8</ele>
        <time>2026-05-14T08:58:03.999Z</time>
      </trkpt>
      <trkpt lat="44.18402" lon="5.28351">
        <ele>1367.3</ele>
        <time>2026-05-14T08:58:04.999Z</time>
      </trkpt>
      <trkpt lat="44.18401" lon="5.2835">
        <ele>1367.7</ele>
        <time>2026-05-14T08:58:05.999Z</time>
      </trkpt>
      <trkpt lat="44.18401" lon="5.28349">
        <ele>1368</ele>
        <time>2026-05-14T08:58:06.999Z</time>
      </trkpt>
      <trkpt lat="44.18401" lon="5.28347">
        <ele>1368.4</ele>
        <time>2026-05-14T08:58:07.999Z</time>
      </trkpt>
      <trkpt lat="44.18402" lon="5.28346">
        <ele>1369.3</ele>
        <time>2026-05-14T08:58:08.999Z</time>
      </trkpt>
      <trkpt lat="44.18402" lon="5.28346">
        <ele>1369.3</ele>
        <time>2026-05-14T08:58:09.999Z</time>
      </trkpt>
      <trkpt lat="44.18402" lon="5.28346">
        <ele>1368.9</ele>
        <time>2026-05-14T08:58:10.999Z</time>
      </trkpt>
      <trkpt lat="44.18401" lon="5.28345">
        <ele>1368.7</ele>
        <time>2026-05-14T08:58:11.999Z</time>
      </trkpt>
      <trkpt lat="44.18401" lon="5.28343">
        <ele>1368.4</ele>
        <time>2026-05-14T08:58:12.999Z</time>
      </trkpt>
      <trkpt lat="44.18401" lon="5.28341">
        <ele>1368.2</ele>
        <time>2026-05-14T08:58:13.999Z</time>
      </trkpt>
      <trkpt lat="44.18401" lon="5.28339">
        <ele>1368.6</ele>
        <time>2026-05-14T08:58:14.999Z</time>
      </trkpt>
      <trkpt lat="44.18401" lon="5.28337">
        <ele>1368.3</ele>
        <time>2026-05-14T08:58:15.999Z</time>
      </trkpt>
      <trkpt lat="44.184" lon="5.28336">
        <ele>1367.9</ele>
        <time>2026-05-14T08:58:16.999Z</time>
      </trkpt>
      <trkpt lat="44.184" lon="5.28334">
        <ele>1367.6</ele>
        <time>2026-05-14T08:58:17.999Z</time>
      </trkpt>
      <trkpt lat="44.184" lon="5.28333">
        <ele>1367.8</ele>
        <time>2026-05-14T08:58:18.999Z</time>
      </trkpt>
      <trkpt lat="44.184" lon="5.28332">
        <ele>1367.8</ele>
        <time>2026-05-14T08:58:19.999Z</time>
      </trkpt>
      <trkpt lat="44.18401" lon="5.28331">
        <ele>1368</ele>
        <time>2026-05-14T08:58:20.999Z</time>
      </trkpt>
      <trkpt lat="44.184" lon="5.2833">
        <ele>1368.5</ele>
        <time>2026-05-14T08:58:21.999Z</time>
      </trkpt>
      <trkpt lat="44.184" lon="5.2833">
        <ele>1369.1</ele>
        <time>2026-05-14T08:58:22.999Z</time>
      </trkpt>
      <trkpt lat="44.18399" lon="5.28329">
        <ele>1369.3</ele>
        <time>2026-05-14T08:58:23.999Z</time>
      </trkpt>
      <trkpt lat="44.184" lon="5.28329">
        <ele>1370</ele>
        <time>2026-05-14T08:58:24.999Z</time>
      </trkpt>
      <trkpt lat="44.18401" lon="5.28327">
        <ele>1370.5</ele>
        <time>2026-05-14T08:58:25.999Z</time>
      </trkpt>
      <trkpt lat="44.18402" lon="5.28327">
        <ele>1370.9</ele>
        <time>2026-05-14T08:58:26.999Z</time>
      </trkpt>
      <trkpt lat="44.18402" lon="5.28325">
        <ele>1371.1</ele>
        <time>2026-05-14T08:58:27.999Z</time>
      </trkpt>
      <trkpt lat="44.18403" lon="5.28323">
        <ele>1371.2</ele>
        <time>2026-05-14T08:58:28.999Z</time>
      </trkpt>
      <trkpt lat="44.18402" lon="5.28323">
        <ele>1371.6</ele>
        <time>2026-05-14T08:58:29.999Z</time>
      </trkpt>
      <trkpt lat="44.18402" lon="5.28322">
        <ele>1372.3</ele>
        <time>2026-05-14T08:58:30.999Z</time>
      </trkpt>
      <trkpt lat="44.18402" lon="5.28322">
        <ele>1373.2</ele>
        <time>2026-05-14T08:58:31.999Z</time>
      </trkpt>
      <trkpt lat="44.18403" lon="5.28323">
        <ele>1373.3</ele>
        <time>2026-05-14T08:58:32.999Z</time>
      </trkpt>
      <trkpt lat="44.18402" lon="5.28323">
        <ele>1374</ele>
        <time>2026-05-14T08:58:33.999Z</time>
      </trkpt>
      <trkpt lat="44.18402" lon="5.28323">
        <ele>1374.3</ele>
        <time>2026-05-14T08:58:34.999Z</time>
      </trkpt>
      <trkpt lat="44.18402" lon="5.28323">
        <ele>1374.4</ele>
        <time>2026-05-14T08:58:35.999Z</time>
      </trkpt>
      <trkpt lat="44.18402" lon="5.28322">
        <ele>1374.2</ele>
        <time>2026-05-14T08:58:36.999Z</time>
      </trkpt>
      <trkpt lat="44.18402" lon="5.28321">
        <ele>1373.8</ele>
        <time>2026-05-14T08:58:37.999Z</time>
      </trkpt>
      <trkpt lat="44.18402" lon="5.2832">
        <ele>1373.3</ele>
        <time>2026-05-14T08:58:38.999Z</time>
      </trkpt>
      <trkpt lat="44.18402" lon="5.28319">
        <ele>1372.9</ele>
        <time>2026-05-14T08:58:39.999Z</time>
      </trkpt>
      <trkpt lat="44.18403" lon="5.28318">
        <ele>1372.8</ele>
        <time>2026-05-14T08:58:40.999Z</time>
      </trkpt>
      <trkpt lat="44.18403" lon="5.28318">
        <ele>1372.5</ele>
        <time>2026-05-14T08:58:41.999Z</time>
      </trkpt>
      <trkpt lat="44.18402" lon="5.28316">
        <ele>1372</ele>
        <time>2026-05-14T08:58:42.999Z</time>
      </trkpt>
      <trkpt lat="44.18402" lon="5.28315">
        <ele>1372.5</ele>
        <time>2026-05-14T08:58:43.999Z</time>
      </trkpt>
      <trkpt lat="44.18402" lon="5.28313">
        <ele>1373.3</ele>
        <time>2026-05-14T08:58:44.999Z</time>
      </trkpt>
      <trkpt lat="44.18403" lon="5.28312">
        <ele>1373.7</ele>
        <time>2026-05-14T08:58:45.999Z</time>
      </trkpt>
      <trkpt lat="44.18403" lon="5.28311">
        <ele>1374.5</ele>
        <time>2026-05-14T08:58:46.999Z</time>
      </trkpt>
      <trkpt lat="44.18403" lon="5.2831">
        <ele>1374.4</ele>
        <time>2026-05-14T08:58:47.999Z</time>
      </trkpt>
      <trkpt lat="44.18403" lon="5.28311">
        <ele>1373.9</ele>
        <time>2026-05-14T08:58:48.999Z</time>
      </trkpt>
      <trkpt lat="44.18403" lon="5.28311">
        <ele>1373.5</ele>
        <time>2026-05-14T08:58:49.999Z</time>
      </trkpt>
      <trkpt lat="44.18403" lon="5.28312">
        <ele>1373.5</ele>
        <time>2026-05-14T08:58:50.999Z</time>
      </trkpt>
      <trkpt lat="44.18402" lon="5.28312">
        <ele>1373.4</ele>
        <time>2026-05-14T08:58:51.999Z</time>
      </trkpt>
      <trkpt lat="44.18402" lon="5.28312">
        <ele>1373.6</ele>
        <time>2026-05-14T08:58:52.999Z</time>
      </trkpt>
      <trkpt lat="44.18402" lon="5.28312">
        <ele>1373.8</ele>
        <time>2026-05-14T08:58:53.999Z</time>
      </trkpt>
      <trkpt lat="44.18402" lon="5.28312">
        <ele>1373.9</ele>
        <time>2026-05-14T08:58:54.999Z</time>
      </trkpt>
      <trkpt lat="44.18402" lon="5.28311">
        <ele>1374</ele>
        <time>2026-05-14T08:58:55.999Z</time>
      </trkpt>
      <trkpt lat="44.18402" lon="5.2831">
        <ele>1374</ele>
        <time>2026-05-14T08:58:56.999Z</time>
      </trkpt>
      <trkpt lat="44.18403" lon="5.28308">
        <ele>1373.7</ele>
        <time>2026-05-14T08:58:57.999Z</time>
      </trkpt>
      <trkpt lat="44.18403" lon="5.28307">
        <ele>1373.6</ele>
        <time>2026-05-14T08:58:58.999Z</time>
      </trkpt>
      <trkpt lat="44.18403" lon="5.28306">
        <ele>1373.5</ele>
        <time>2026-05-14T08:58:59.999Z</time>
      </trkpt>
      <trkpt lat="44.18404" lon="5.28304">
        <ele>1373.6</ele>
        <time>2026-05-14T08:59:00.999Z</time>
      </trkpt>
      <trkpt lat="44.18405" lon="5.28303">
        <ele>1374.3</ele>
        <time>2026-05-14T08:59:01.999Z</time>
      </trkpt>
      <trkpt lat="44.18405" lon="5.28303">
        <ele>1374.7</ele>
        <time>2026-05-14T08:59:02.999Z</time>
      </trkpt>
      <trkpt lat="44.18406" lon="5.28302">
        <ele>1375.2</ele>
        <time>2026-05-14T08:59:03.999Z</time>
      </trkpt>
      <trkpt lat="44.18406" lon="5.28301">
        <ele>1375.6</ele>
        <time>2026-05-14T08:59:04.999Z</time>
      </trkpt>
      <trkpt lat="44.18406" lon="5.283">
        <ele>1376.2</ele>
        <time>2026-05-14T08:59:05.999Z</time>
      </trkpt>
      <trkpt lat="44.18407" lon="5.28299">
        <ele>1377.2</ele>
        <time>2026-05-14T08:59:06.999Z</time>
      </trkpt>
      <trkpt lat="44.18407" lon="5.28299">
        <ele>1377.7</ele>
        <time>2026-05-14T08:59:07.999Z</time>
      </trkpt>
      <trkpt lat="44.18407" lon="5.28297">
        <ele>1378.2</ele>
        <time>2026-05-14T08:59:08.999Z</time>
      </trkpt>
      <trkpt lat="44.18408" lon="5.28297">
        <ele>1378.3</ele>
        <time>2026-05-14T08:59:09.999Z</time>
      </trkpt>
      <trkpt lat="44.18408" lon="5.28296">
        <ele>1378.3</ele>
        <time>2026-05-14T08:59:10.999Z</time>
      </trkpt>
      <trkpt lat="44.18409" lon="5.28295">
        <ele>1378.2</ele>
        <time>2026-05-14T08:59:11.999Z</time>
      </trkpt>
      <trkpt lat="44.18409" lon="5.28294">
        <ele>1377.9</ele>
        <time>2026-05-14T08:59:12.999Z</time>
      </trkpt>
      <trkpt lat="44.18409" lon="5.28293">
        <ele>1378.4</ele>
        <time>2026-05-14T08:59:13.999Z</time>
      </trkpt>
      <trkpt lat="44.18409" lon="5.28291">
        <ele>1378.5</ele>
        <time>2026-05-14T08:59:14.999Z</time>
      </trkpt>
      <trkpt lat="44.18408" lon="5.2829">
        <ele>1378.4</ele>
        <time>2026-05-14T08:59:15.999Z</time>
      </trkpt>
      <trkpt lat="44.18408" lon="5.28288">
        <ele>1378.3</ele>
        <time>2026-05-14T08:59:16.999Z</time>
      </trkpt>
      <trkpt lat="44.18407" lon="5.28286">
        <ele>1378.4</ele>
        <time>2026-05-14T08:59:17.999Z</time>
      </trkpt>
      <trkpt lat="44.18407" lon="5.28284">
        <ele>1378.2</ele>
        <time>2026-05-14T08:59:18.999Z</time>
      </trkpt>
      <trkpt lat="44.18407" lon="5.28283">
        <ele>1377.8</ele>
        <time>2026-05-14T08:59:19.999Z</time>
      </trkpt>
      <trkpt lat="44.18407" lon="5.28282">
        <ele>1377.9</ele>
        <time>2026-05-14T08:59:20.999Z</time>
      </trkpt>
      <trkpt lat="44.18408" lon="5.28281">
        <ele>1378</ele>
        <time>2026-05-14T08:59:21.999Z</time>
      </trkpt>
      <trkpt lat="44.18408" lon="5.28281">
        <ele>1377.7</ele>
        <time>2026-05-14T08:59:22.999Z</time>
      </trkpt>
      <trkpt lat="44.18408" lon="5.28279">
        <ele>1377.4</ele>
        <time>2026-05-14T08:59:23.999Z</time>
      </trkpt>
      <trkpt lat="44.18409" lon="5.28278">
        <ele>1377.5</ele>
        <time>2026-05-14T08:59:24.999Z</time>
      </trkpt>
      <trkpt lat="44.18409" lon="5.28277">
        <ele>1377.9</ele>
        <time>2026-05-14T08:59:25.999Z</time>
      </trkpt>
      <trkpt lat="44.1841" lon="5.28277">
        <ele>1378.1</ele>
        <time>2026-05-14T08:59:26.999Z</time>
      </trkpt>
      <trkpt lat="44.1841" lon="5.28277">
        <ele>1378.2</ele>
        <time>2026-05-14T08:59:27.999Z</time>
      </trkpt>
      <trkpt lat="44.1841" lon="5.28276">
        <ele>1377.6</ele>
        <time>2026-05-14T08:59:28.999Z</time>
      </trkpt>
      <trkpt lat="44.1841" lon="5.28275">
        <ele>1377.6</ele>
        <time>2026-05-14T08:59:29.999Z</time>
      </trkpt>
      <trkpt lat="44.18409" lon="5.28274">
        <ele>1378</ele>
        <time>2026-05-14T08:59:30.999Z</time>
      </trkpt>
      <trkpt lat="44.18409" lon="5.28272">
        <ele>1378.3</ele>
        <time>2026-05-14T08:59:31.999Z</time>
      </trkpt>
      <trkpt lat="44.1841" lon="5.28271">
        <ele>1378.7</ele>
        <time>2026-05-14T08:59:32.999Z</time>
      </trkpt>
      <trkpt lat="44.18411" lon="5.2827">
        <ele>1378.7</ele>
        <time>2026-05-14T08:59:33.999Z</time>
      </trkpt>
      <trkpt lat="44.18411" lon="5.28268">
        <ele>1378.7</ele>
        <time>2026-05-14T08:59:34.999Z</time>
      </trkpt>
      <trkpt lat="44.18412" lon="5.28268">
        <ele>1379</ele>
        <time>2026-05-14T08:59:35.999Z</time>
      </trkpt>
      <trkpt lat="44.18412" lon="5.28267">
        <ele>1379</ele>
        <time>2026-05-14T08:59:36.999Z</time>
      </trkpt>
      <trkpt lat="44.18413" lon="5.28265">
        <ele>1379.4</ele>
        <time>2026-05-14T08:59:37.999Z</time>
      </trkpt>
      <trkpt lat="44.18413" lon="5.28264">
        <ele>1379.6</ele>
        <time>2026-05-14T08:59:38.999Z</time>
      </trkpt>
      <trkpt lat="44.18414" lon="5.28264">
        <ele>1379.7</ele>
        <time>2026-05-14T08:59:39.999Z</time>
      </trkpt>
      <trkpt lat="44.18414" lon="5.28264">
        <ele>1380.1</ele>
        <time>2026-05-14T08:59:40.999Z</time>
      </trkpt>
      <trkpt lat="44.18415" lon="5.28263">
        <ele>1380.4</ele>
        <time>2026-05-14T08:59:41.999Z</time>
      </trkpt>
      <trkpt lat="44.18415" lon="5.28262">
        <ele>1380.6</ele>
        <time>2026-05-14T08:59:42.999Z</time>
      </trkpt>
      <trkpt lat="44.18415" lon="5.28261">
        <ele>1380.6</ele>
        <time>2026-05-14T08:59:43.999Z</time>
      </trkpt>
      <trkpt lat="44.18416" lon="5.28259">
        <ele>1379.8</ele>
        <time>2026-05-14T08:59:44.999Z</time>
      </trkpt>
      <trkpt lat="44.18416" lon="5.28257">
        <ele>1379.5</ele>
        <time>2026-05-14T08:59:45.999Z</time>
      </trkpt>
      <trkpt lat="44.18416" lon="5.28256">
        <ele>1378.7</ele>
        <time>2026-05-14T08:59:46.999Z</time>
      </trkpt>
      <trkpt lat="44.18417" lon="5.28257">
        <ele>1379.8</ele>
        <time>2026-05-14T08:59:47.999Z</time>
      </trkpt>
      <trkpt lat="44.18418" lon="5.28256">
        <ele>1380.8</ele>
        <time>2026-05-14T08:59:48.999Z</time>
      </trkpt>
      <trkpt lat="44.18418" lon="5.28255">
        <ele>1381.2</ele>
        <time>2026-05-14T08:59:49.999Z</time>
      </trkpt>
      <trkpt lat="44.18417" lon="5.28253">
        <ele>1381.6</ele>
        <time>2026-05-14T08:59:50.999Z</time>
      </trkpt>
      <trkpt lat="44.18417" lon="5.28252">
        <ele>1382.1</ele>
        <time>2026-05-14T08:59:51.999Z</time>
      </trkpt>
      <trkpt lat="44.18417" lon="5.28251">
        <ele>1382.4</ele>
        <time>2026-05-14T08:59:52.999Z</time>
      </trkpt>
      <trkpt lat="44.18417" lon="5.2825">
        <ele>1381.7</ele>
        <time>2026-05-14T08:59:53.999Z</time>
      </trkpt>
      <trkpt lat="44.18417" lon="5.28249">
        <ele>1381.2</ele>
        <time>2026-05-14T08:59:54.999Z</time>
      </trkpt>
      <trkpt lat="44.18418" lon="5.28248">
        <ele>1380.5</ele>
        <time>2026-05-14T08:59:55.999Z</time>
      </trkpt>
      <trkpt lat="44.18418" lon="5.28246">
        <ele>1379.8</ele>
        <time>2026-05-14T08:59:56.999Z</time>
      </trkpt>
      <trkpt lat="44.18418" lon="5.28245">
        <ele>1380.2</ele>
        <time>2026-05-14T08:59:57.999Z</time>
      </trkpt>
      <trkpt lat="44.18418" lon="5.28243">
        <ele>1379.7</ele>
        <time>2026-05-14T08:59:58.999Z</time>
      </trkpt>
      <trkpt lat="44.18418" lon="5.28241">
        <ele>1379.7</ele>
        <time>2026-05-14T08:59:59.999Z</time>
      </trkpt>
      <trkpt lat="44.18418" lon="5.2824">
        <ele>1379.7</ele>
        <time>2026-05-14T09:00:00.999Z</time>
      </trkpt>
      <trkpt lat="44.18418" lon="5.28239">
        <ele>1379.7</ele>
        <time>2026-05-14T09:00:01.999Z</time>
      </trkpt>
      <trkpt lat="44.18418" lon="5.28238">
        <ele>1380</ele>
        <time>2026-05-14T09:00:02.999Z</time>
      </trkpt>
      <trkpt lat="44.18418" lon="5.28238">
        <ele>1380</ele>
        <time>2026-05-14T09:00:03.999Z</time>
      </trkpt>
      <trkpt lat="44.18418" lon="5.28237">
        <ele>1380.4</ele>
        <time>2026-05-14T09:00:04.999Z</time>
      </trkpt>
      <trkpt lat="44.18417" lon="5.28236">
        <ele>1380.8</ele>
        <time>2026-05-14T09:00:05.999Z</time>
      </trkpt>
      <trkpt lat="44.18418" lon="5.28236">
        <ele>1381.3</ele>
        <time>2026-05-14T09:00:06.999Z</time>
      </trkpt>
      <trkpt lat="44.18418" lon="5.28236">
        <ele>1381.8</ele>
        <time>2026-05-14T09:00:07.999Z</time>
      </trkpt>
      <trkpt lat="44.18417" lon="5.28235">
        <ele>1381.5</ele>
        <time>2026-05-14T09:00:08.999Z</time>
      </trkpt>
      <trkpt lat="44.18417" lon="5.28235">
        <ele>1382.1</ele>
        <time>2026-05-14T09:00:09.999Z</time>
      </trkpt>
      <trkpt lat="44.18417" lon="5.28233">
        <ele>1382.5</ele>
        <time>2026-05-14T09:00:10.999Z</time>
      </trkpt>
      <trkpt lat="44.18417" lon="5.28233">
        <ele>1382.5</ele>
        <time>2026-05-14T09:00:11.999Z</time>
      </trkpt>
      <trkpt lat="44.18418" lon="5.28232">
        <ele>1382.8</ele>
        <time>2026-05-14T09:00:12.999Z</time>
      </trkpt>
      <trkpt lat="44.18419" lon="5.28231">
        <ele>1382.9</ele>
        <time>2026-05-14T09:00:13.999Z</time>
      </trkpt>
      <trkpt lat="44.1842" lon="5.2823">
        <ele>1383.4</ele>
        <time>2026-05-14T09:00:14.999Z</time>
      </trkpt>
      <trkpt lat="44.1842" lon="5.28229">
        <ele>1383.8</ele>
        <time>2026-05-14T09:00:15.999Z</time>
      </trkpt>
      <trkpt lat="44.18421" lon="5.28228">
        <ele>1384.3</ele>
        <time>2026-05-14T09:00:16.999Z</time>
      </trkpt>
      <trkpt lat="44.18422" lon="5.28228">
        <ele>1384.3</ele>
        <time>2026-05-14T09:00:17.999Z</time>
      </trkpt>
      <trkpt lat="44.18423" lon="5.28227">
        <ele>1384.5</ele>
        <time>2026-05-14T09:00:18.999Z</time>
      </trkpt>
      <trkpt lat="44.18423" lon="5.28226">
        <ele>1384.7</ele>
        <time>2026-05-14T09:00:19.999Z</time>
      </trkpt>
      <trkpt lat="44.18423" lon="5.28225">
        <ele>1384.5</ele>
        <time>2026-05-14T09:00:20.999Z</time>
      </trkpt>
      <trkpt lat="44.18423" lon="5.28225">
        <ele>1384.6</ele>
        <time>2026-05-14T09:00:21.999Z</time>
      </trkpt>
      <trkpt lat="44.18423" lon="5.28226">
        <ele>1385.1</ele>
        <time>2026-05-14T09:00:23.999Z</time>
      </trkpt>
      <trkpt lat="44.18423" lon="5.28226">
        <ele>1384.8</ele>
        <time>2026-05-14T09:00:24.999Z</time>
      </trkpt>
      <trkpt lat="44.18423" lon="5.28225">
        <ele>1385.2</ele>
        <time>2026-05-14T09:00:25.999Z</time>
      </trkpt>
      <trkpt lat="44.18424" lon="5.28225">
        <ele>1385.1</ele>
        <time>2026-05-14T09:00:26.999Z</time>
      </trkpt>
      <trkpt lat="44.18424" lon="5.28225">
        <ele>1386</ele>
        <time>2026-05-14T09:00:27.999Z</time>
      </trkpt>
      <trkpt lat="44.18426" lon="5.28225">
        <ele>1386.3</ele>
        <time>2026-05-14T09:00:28.999Z</time>
      </trkpt>
      <trkpt lat="44.18427" lon="5.28226">
        <ele>1386.1</ele>
        <time>2026-05-14T09:00:29.999Z</time>
      </trkpt>
      <trkpt lat="44.18428" lon="5.28226">
        <ele>1385.4</ele>
        <time>2026-05-14T09:00:30.999Z</time>
      </trkpt>
      <trkpt lat="44.18428" lon="5.28227">
        <ele>1385.1</ele>
        <time>2026-05-14T09:00:31.999Z</time>
      </trkpt>
      <trkpt lat="44.18429" lon="5.28227">
        <ele>1385</ele>
        <time>2026-05-14T09:00:32.999Z</time>
      </trkpt>
      <trkpt lat="44.1843" lon="5.28228">
        <ele>1385.1</ele>
        <time>2026-05-14T09:00:33.999Z</time>
      </trkpt>
      <trkpt lat="44.18431" lon="5.28228">
        <ele>1385</ele>
        <time>2026-05-14T09:00:34.999Z</time>
      </trkpt>
      <trkpt lat="44.18432" lon="5.28229">
        <ele>1385.4</ele>
        <time>2026-05-14T09:00:35.999Z</time>
      </trkpt>
      <trkpt lat="44.18433" lon="5.2823">
        <ele>1385.9</ele>
        <time>2026-05-14T09:00:36.999Z</time>
      </trkpt>
      <trkpt lat="44.18434" lon="5.28233">
        <ele>1386.4</ele>
        <time>2026-05-14T09:00:37.999Z</time>
      </trkpt>
      <trkpt lat="44.18434" lon="5.28235">
        <ele>1387</ele>
        <time>2026-05-14T09:00:38.999Z</time>
      </trkpt>
      <trkpt lat="44.18434" lon="5.28236">
        <ele>1387.3</ele>
        <time>2026-05-14T09:00:39.999Z</time>
      </trkpt>
      <trkpt lat="44.18435" lon="5.28237">
        <ele>1387.6</ele>
        <time>2026-05-14T09:00:40.999Z</time>
      </trkpt>
      <trkpt lat="44.18435" lon="5.28238">
        <ele>1388</ele>
        <time>2026-05-14T09:00:41.999Z</time>
      </trkpt>
      <trkpt lat="44.18435" lon="5.28238">
        <ele>1387.9</ele>
        <time>2026-05-14T09:00:42.999Z</time>
      </trkpt>
      <trkpt lat="44.18436" lon="5.28239">
        <ele>1388.1</ele>
        <time>2026-05-14T09:00:43.999Z</time>
      </trkpt>
      <trkpt lat="44.18436" lon="5.28241">
        <ele>1388.7</ele>
        <time>2026-05-14T09:00:44.999Z</time>
      </trkpt>
      <trkpt lat="44.18437" lon="5.28242">
        <ele>1388.8</ele>
        <time>2026-05-14T09:00:45.999Z</time>
      </trkpt>
      <trkpt lat="44.18438" lon="5.28243">
        <ele>1389</ele>
        <time>2026-05-14T09:00:46.999Z</time>
      </trkpt>
      <trkpt lat="44.18439" lon="5.28244">
        <ele>1389.2</ele>
        <time>2026-05-14T09:00:47.999Z</time>
      </trkpt>
      <trkpt lat="44.18439" lon="5.28245">
        <ele>1389.6</ele>
        <time>2026-05-14T09:00:48.999Z</time>
      </trkpt>
      <trkpt lat="44.1844" lon="5.28246">
        <ele>1389.9</ele>
        <time>2026-05-14T09:00:49.999Z</time>
      </trkpt>
      <trkpt lat="44.1844" lon="5.28248">
        <ele>1390</ele>
        <time>2026-05-14T09:00:50.999Z</time>
      </trkpt>
      <trkpt lat="44.1844" lon="5.2825">
        <ele>1389.5</ele>
        <time>2026-05-14T09:00:51.999Z</time>
      </trkpt>
      <trkpt lat="44.18441" lon="5.2825">
        <ele>1389.4</ele>
        <time>2026-05-14T09:00:52.999Z</time>
      </trkpt>
      <trkpt lat="44.18441" lon="5.28252">
        <ele>1389.4</ele>
        <time>2026-05-14T09:00:53.999Z</time>
      </trkpt>
      <trkpt lat="44.18442" lon="5.28253">
        <ele>1389.1</ele>
        <time>2026-05-14T09:00:54.999Z</time>
      </trkpt>
      <trkpt lat="44.18442" lon="5.28254">
        <ele>1388.7</ele>
        <time>2026-05-14T09:00:55.999Z</time>
      </trkpt>
      <trkpt lat="44.18442" lon="5.28254">
        <ele>1388.4</ele>
        <time>2026-05-14T09:00:56.999Z</time>
      </trkpt>
      <trkpt lat="44.18442" lon="5.28256">
        <ele>1388.2</ele>
        <time>2026-05-14T09:00:57.999Z</time>
      </trkpt>
      <trkpt lat="44.18442" lon="5.28257">
        <ele>1388.6</ele>
        <time>2026-05-14T09:00:58.999Z</time>
      </trkpt>
      <trkpt lat="44.18443" lon="5.28258">
        <ele>1389</ele>
        <time>2026-05-14T09:00:59.999Z</time>
      </trkpt>
      <trkpt lat="44.18444" lon="5.28259">
        <ele>1388.7</ele>
        <time>2026-05-14T09:01:00.999Z</time>
      </trkpt>
      <trkpt lat="44.18444" lon="5.28259">
        <ele>1388.9</ele>
        <time>2026-05-14T09:01:01.999Z</time>
      </trkpt>
      <trkpt lat="44.18444" lon="5.28261">
        <ele>1389.2</ele>
        <time>2026-05-14T09:01:02.999Z</time>
      </trkpt>
      <trkpt lat="44.18445" lon="5.28262">
        <ele>1389.3</ele>
        <time>2026-05-14T09:01:03.999Z</time>
      </trkpt>
      <trkpt lat="44.18446" lon="5.28262">
        <ele>1389.3</ele>
        <time>2026-05-14T09:01:04.999Z</time>
      </trkpt>
      <trkpt lat="44.18446" lon="5.28263">
        <ele>1389.4</ele>
        <time>2026-05-14T09:01:05.999Z</time>
      </trkpt>
      <trkpt lat="44.18447" lon="5.28264">
        <ele>1389.5</ele>
        <time>2026-05-14T09:01:06.999Z</time>
      </trkpt>
      <trkpt lat="44.18448" lon="5.28265">
        <ele>1389.6</ele>
        <time>2026-05-14T09:01:07.999Z</time>
      </trkpt>
      <trkpt lat="44.18448" lon="5.28265">
        <ele>1389.7</ele>
        <time>2026-05-14T09:01:08.999Z</time>
      </trkpt>
      <trkpt lat="44.18449" lon="5.28266">
        <ele>1390.4</ele>
        <time>2026-05-14T09:01:09.999Z</time>
      </trkpt>
      <trkpt lat="44.1845" lon="5.28266">
        <ele>1390.5</ele>
        <time>2026-05-14T09:01:10.999Z</time>
      </trkpt>
      <trkpt lat="44.1845" lon="5.28266">
        <ele>1390.8</ele>
        <time>2026-05-14T09:01:11.999Z</time>
      </trkpt>
      <trkpt lat="44.18451" lon="5.28267">
        <ele>1390.9</ele>
        <time>2026-05-14T09:01:12.999Z</time>
      </trkpt>
      <trkpt lat="44.18451" lon="5.28267">
        <ele>1390.6</ele>
        <time>2026-05-14T09:01:13.999Z</time>
      </trkpt>
      <trkpt lat="44.18452" lon="5.28269">
        <ele>1390.6</ele>
        <time>2026-05-14T09:01:15.999Z</time>
      </trkpt>
      <trkpt lat="44.18453" lon="5.2827">
        <ele>1390.6</ele>
        <time>2026-05-14T09:01:16.999Z</time>
      </trkpt>
      <trkpt lat="44.18454" lon="5.28271">
        <ele>1390.6</ele>
        <time>2026-05-14T09:01:17.999Z</time>
      </trkpt>
      <trkpt lat="44.18454" lon="5.28271">
        <ele>1390.7</ele>
        <time>2026-05-14T09:01:18.999Z</time>
      </trkpt>
      <trkpt lat="44.18454" lon="5.28272">
        <ele>1391.4</ele>
        <time>2026-05-14T09:01:19.999Z</time>
      </trkpt>
      <trkpt lat="44.18455" lon="5.28272">
        <ele>1392</ele>
        <time>2026-05-14T09:01:20.999Z</time>
      </trkpt>
      <trkpt lat="44.18456" lon="5.28273">
        <ele>1392.2</ele>
        <time>2026-05-14T09:01:21.999Z</time>
      </trkpt>
      <trkpt lat="44.18457" lon="5.28273">
        <ele>1392.8</ele>
        <time>2026-05-14T09:01:22.999Z</time>
      </trkpt>
      <trkpt lat="44.18457" lon="5.28273">
        <ele>1392.8</ele>
        <time>2026-05-14T09:01:23.999Z</time>
      </trkpt>
      <trkpt lat="44.18458" lon="5.28272">
        <ele>1393.2</ele>
        <time>2026-05-14T09:01:24.999Z</time>
      </trkpt>
      <trkpt lat="44.18459" lon="5.28273">
        <ele>1392.8</ele>
        <time>2026-05-14T09:01:25.999Z</time>
      </trkpt>
      <trkpt lat="44.18459" lon="5.28273">
        <ele>1392.9</ele>
        <time>2026-05-14T09:01:26.999Z</time>
      </trkpt>
      <trkpt lat="44.18459" lon="5.28273">
        <ele>1393.2</ele>
        <time>2026-05-14T09:01:27.999Z</time>
      </trkpt>
      <trkpt lat="44.1846" lon="5.28274">
        <ele>1393.2</ele>
        <time>2026-05-14T09:01:28.999Z</time>
      </trkpt>
      <trkpt lat="44.1846" lon="5.28274">
        <ele>1393.3</ele>
        <time>2026-05-14T09:01:29.999Z</time>
      </trkpt>
      <trkpt lat="44.18461" lon="5.28275">
        <ele>1393.4</ele>
        <time>2026-05-14T09:01:30.999Z</time>
      </trkpt>
      <trkpt lat="44.18461" lon="5.28276">
        <ele>1393.6</ele>
        <time>2026-05-14T09:01:31.999Z</time>
      </trkpt>
      <trkpt lat="44.18462" lon="5.28277">
        <ele>1394.1</ele>
        <time>2026-05-14T09:01:32.999Z</time>
      </trkpt>
      <trkpt lat="44.18463" lon="5.28277">
        <ele>1394.2</ele>
        <time>2026-05-14T09:01:33.999Z</time>
      </trkpt>
      <trkpt lat="44.18464" lon="5.28278">
        <ele>1394.2</ele>
        <time>2026-05-14T09:01:34.999Z</time>
      </trkpt>
      <trkpt lat="44.18465" lon="5.28278">
        <ele>1394.2</ele>
        <time>2026-05-14T09:01:35.999Z</time>
      </trkpt>
      <trkpt lat="44.18466" lon="5.28279">
        <ele>1394.3</ele>
        <time>2026-05-14T09:01:36.999Z</time>
      </trkpt>
      <trkpt lat="44.18466" lon="5.2828">
        <ele>1394.4</ele>
        <time>2026-05-14T09:01:37.999Z</time>
      </trkpt>
      <trkpt lat="44.18467" lon="5.28282">
        <ele>1394.5</ele>
        <time>2026-05-14T09:01:38.999Z</time>
      </trkpt>
      <trkpt lat="44.18468" lon="5.28284">
        <ele>1394.7</ele>
        <time>2026-05-14T09:01:39.999Z</time>
      </trkpt>
      <trkpt lat="44.18469" lon="5.28284">
        <ele>1395</ele>
        <time>2026-05-14T09:01:40.999Z</time>
      </trkpt>
      <trkpt lat="44.1847" lon="5.28285">
        <ele>1394.6</ele>
        <time>2026-05-14T09:01:41.999Z</time>
      </trkpt>
      <trkpt lat="44.18471" lon="5.28285">
        <ele>1394.4</ele>
        <time>2026-05-14T09:01:42.999Z</time>
      </trkpt>
      <trkpt lat="44.18472" lon="5.28285">
        <ele>1394.3</ele>
        <time>2026-05-14T09:01:43.999Z</time>
      </trkpt>
      <trkpt lat="44.18473" lon="5.28285">
        <ele>1394.3</ele>
        <time>2026-05-14T09:01:44.999Z</time>
      </trkpt>
      <trkpt lat="44.18474" lon="5.28285">
        <ele>1394.3</ele>
        <time>2026-05-14T09:01:45.999Z</time>
      </trkpt>
      <trkpt lat="44.18474" lon="5.28286">
        <ele>1394</ele>
        <time>2026-05-14T09:01:46.999Z</time>
      </trkpt>
      <trkpt lat="44.18474" lon="5.28286">
        <ele>1393.8</ele>
        <time>2026-05-14T09:01:47.999Z</time>
      </trkpt>
      <trkpt lat="44.18474" lon="5.28286">
        <ele>1393.6</ele>
        <time>2026-05-14T09:01:48.999Z</time>
      </trkpt>
      <trkpt lat="44.18475" lon="5.28286">
        <ele>1393.6</ele>
        <time>2026-05-14T09:01:49.999Z</time>
      </trkpt>
      <trkpt lat="44.18475" lon="5.28287">
        <ele>1393.9</ele>
        <time>2026-05-14T09:01:50.999Z</time>
      </trkpt>
      <trkpt lat="44.18476" lon="5.28287">
        <ele>1394.4</ele>
        <time>2026-05-14T09:01:51.999Z</time>
      </trkpt>
      <trkpt lat="44.18477" lon="5.28287">
        <ele>1394.9</ele>
        <time>2026-05-14T09:01:52.999Z</time>
      </trkpt>
      <trkpt lat="44.18478" lon="5.28288">
        <ele>1395.2</ele>
        <time>2026-05-14T09:01:53.999Z</time>
      </trkpt>
      <trkpt lat="44.18479" lon="5.28289">
        <ele>1395.2</ele>
        <time>2026-05-14T09:01:54.999Z</time>
      </trkpt>
      <trkpt lat="44.1848" lon="5.28289">
        <ele>1395.2</ele>
        <time>2026-05-14T09:01:55.999Z</time>
      </trkpt>
      <trkpt lat="44.1848" lon="5.28289">
        <ele>1395.4</ele>
        <time>2026-05-14T09:01:56.999Z</time>
      </trkpt>
      <trkpt lat="44.18481" lon="5.2829">
        <ele>1395.6</ele>
        <time>2026-05-14T09:01:57.999Z</time>
      </trkpt>
      <trkpt lat="44.18481" lon="5.28291">
        <ele>1395.7</ele>
        <time>2026-05-14T09:01:58.999Z</time>
      </trkpt>
      <trkpt lat="44.18481" lon="5.2829">
        <ele>1395.5</ele>
        <time>2026-05-14T09:01:59.999Z</time>
      </trkpt>
      <trkpt lat="44.18482" lon="5.28289">
        <ele>1395.9</ele>
        <time>2026-05-14T09:02:00.999Z</time>
      </trkpt>
      <trkpt lat="44.18483" lon="5.28289">
        <ele>1396.4</ele>
        <time>2026-05-14T09:02:01.999Z</time>
      </trkpt>
      <trkpt lat="44.18485" lon="5.28289">
        <ele>1396.3</ele>
        <time>2026-05-14T09:02:02.999Z</time>
      </trkpt>
      <trkpt lat="44.18487" lon="5.28289">
        <ele>1396.3</ele>
        <time>2026-05-14T09:02:03.999Z</time>
      </trkpt>
      <trkpt lat="44.18488" lon="5.28289">
        <ele>1396.6</ele>
        <time>2026-05-14T09:02:04.999Z</time>
      </trkpt>
      <trkpt lat="44.18489" lon="5.28289">
        <ele>1396.6</ele>
        <time>2026-05-14T09:02:05.999Z</time>
      </trkpt>
      <trkpt lat="44.1849" lon="5.28289">
        <ele>1396.8</ele>
        <time>2026-05-14T09:02:06.999Z</time>
      </trkpt>
      <trkpt lat="44.18491" lon="5.2829">
        <ele>1397.8</ele>
        <time>2026-05-14T09:02:07.999Z</time>
      </trkpt>
      <trkpt lat="44.18492" lon="5.2829">
        <ele>1397.9</ele>
        <time>2026-05-14T09:02:08.999Z</time>
      </trkpt>
      <trkpt lat="44.18493" lon="5.2829">
        <ele>1398.4</ele>
        <time>2026-05-14T09:02:09.999Z</time>
      </trkpt>
      <trkpt lat="44.18493" lon="5.2829">
        <ele>1398.6</ele>
        <time>2026-05-14T09:02:10.999Z</time>
      </trkpt>
      <trkpt lat="44.18494" lon="5.2829">
        <ele>1398.4</ele>
        <time>2026-05-14T09:02:12.999Z</time>
      </trkpt>
      <trkpt lat="44.18495" lon="5.28291">
        <ele>1398.3</ele>
        <time>2026-05-14T09:02:13.999Z</time>
      </trkpt>
      <trkpt lat="44.18495" lon="5.28291">
        <ele>1398.6</ele>
        <time>2026-05-14T09:02:14.999Z</time>
      </trkpt>
      <trkpt lat="44.18495" lon="5.28292">
        <ele>1398.6</ele>
        <time>2026-05-14T09:02:15.999Z</time>
      </trkpt>
      <trkpt lat="44.18496" lon="5.28293">
        <ele>1398.9</ele>
        <time>2026-05-14T09:02:16.999Z</time>
      </trkpt>
      <trkpt lat="44.18496" lon="5.28292">
        <ele>1399.2</ele>
        <time>2026-05-14T09:02:17.999Z</time>
      </trkpt>
      <trkpt lat="44.18497" lon="5.28293">
        <ele>1399.8</ele>
        <time>2026-05-14T09:02:18.999Z</time>
      </trkpt>
      <trkpt lat="44.18498" lon="5.28295">
        <ele>1400</ele>
        <time>2026-05-14T09:02:19.999Z</time>
      </trkpt>
      <trkpt lat="44.185" lon="5.28297">
        <ele>1399.8</ele>
        <time>2026-05-14T09:02:20.999Z</time>
      </trkpt>
      <trkpt lat="44.18501" lon="5.28297">
        <ele>1399.6</ele>
        <time>2026-05-14T09:02:21.999Z</time>
      </trkpt>
      <trkpt lat="44.18502" lon="5.28298">
        <ele>1399.3</ele>
        <time>2026-05-14T09:02:22.999Z</time>
      </trkpt>
      <trkpt lat="44.18502" lon="5.28297">
        <ele>1399.1</ele>
        <time>2026-05-14T09:02:23.999Z</time>
      </trkpt>
      <trkpt lat="44.18502" lon="5.28297">
        <ele>1398.7</ele>
        <time>2026-05-14T09:02:24.999Z</time>
      </trkpt>
      <trkpt lat="44.18502" lon="5.28297">
        <ele>1398.7</ele>
        <time>2026-05-14T09:02:25.999Z</time>
      </trkpt>
      <trkpt lat="44.18502" lon="5.28297">
        <ele>1398.8</ele>
        <time>2026-05-14T09:02:26.999Z</time>
      </trkpt>
      <trkpt lat="44.18502" lon="5.28297">
        <ele>1399.4</ele>
        <time>2026-05-14T09:02:27.999Z</time>
      </trkpt>
      <trkpt lat="44.18502" lon="5.28297">
        <ele>1399.5</ele>
        <time>2026-05-14T09:02:28.999Z</time>
      </trkpt>
      <trkpt lat="44.18502" lon="5.28297">
        <ele>1399.6</ele>
        <time>2026-05-14T09:02:29.999Z</time>
      </trkpt>
      <trkpt lat="44.18503" lon="5.28297">
        <ele>1399.7</ele>
        <time>2026-05-14T09:02:30.999Z</time>
      </trkpt>
      <trkpt lat="44.18504" lon="5.28298">
        <ele>1399.4</ele>
        <time>2026-05-14T09:02:31.999Z</time>
      </trkpt>
      <trkpt lat="44.18505" lon="5.28298">
        <ele>1399.4</ele>
        <time>2026-05-14T09:02:32.999Z</time>
      </trkpt>
      <trkpt lat="44.18506" lon="5.28298">
        <ele>1399.6</ele>
        <time>2026-05-14T09:02:33.999Z</time>
      </trkpt>
      <trkpt lat="44.18506" lon="5.28298">
        <ele>1399.5</ele>
        <time>2026-05-14T09:02:34.999Z</time>
      </trkpt>
      <trkpt lat="44.18506" lon="5.28297">
        <ele>1399.5</ele>
        <time>2026-05-14T09:02:35.999Z</time>
      </trkpt>
      <trkpt lat="44.18507" lon="5.28297">
        <ele>1399.6</ele>
        <time>2026-05-14T09:02:36.999Z</time>
      </trkpt>
      <trkpt lat="44.18507" lon="5.28298">
        <ele>1399.6</ele>
        <time>2026-05-14T09:02:37.999Z</time>
      </trkpt>
      <trkpt lat="44.18508" lon="5.28298">
        <ele>1399.8</ele>
        <time>2026-05-14T09:02:38.999Z</time>
      </trkpt>
      <trkpt lat="44.18508" lon="5.28299">
        <ele>1400</ele>
        <time>2026-05-14T09:02:39.999Z</time>
      </trkpt>
      <trkpt lat="44.1851" lon="5.283">
        <ele>1399.9</ele>
        <time>2026-05-14T09:02:40.999Z</time>
      </trkpt>
      <trkpt lat="44.18511" lon="5.283">
        <ele>1399.9</ele>
        <time>2026-05-14T09:02:41.999Z</time>
      </trkpt>
      <trkpt lat="44.18512" lon="5.28299">
        <ele>1400</ele>
        <time>2026-05-14T09:02:42.999Z</time>
      </trkpt>
      <trkpt lat="44.18512" lon="5.28299">
        <ele>1400.2</ele>
        <time>2026-05-14T09:02:43.999Z</time>
      </trkpt>
      <trkpt lat="44.18512" lon="5.28299">
        <ele>1400.6</ele>
        <time>2026-05-14T09:02:44.999Z</time>
      </trkpt>
      <trkpt lat="44.18513" lon="5.28299">
        <ele>1400.9</ele>
        <time>2026-05-14T09:02:45.999Z</time>
      </trkpt>
      <trkpt lat="44.18514" lon="5.28298">
        <ele>1400.8</ele>
        <time>2026-05-14T09:02:46.999Z</time>
      </trkpt>
      <trkpt lat="44.18515" lon="5.28298">
        <ele>1400.5</ele>
        <time>2026-05-14T09:02:47.999Z</time>
      </trkpt>
      <trkpt lat="44.18515" lon="5.28298">
        <ele>1400.3</ele>
        <time>2026-05-14T09:02:48.999Z</time>
      </trkpt>
      <trkpt lat="44.18515" lon="5.28298">
        <ele>1400.4</ele>
        <time>2026-05-14T09:02:49.999Z</time>
      </trkpt>
      <trkpt lat="44.18516" lon="5.28298">
        <ele>1400.2</ele>
        <time>2026-05-14T09:02:50.999Z</time>
      </trkpt>
      <trkpt lat="44.18516" lon="5.28298">
        <ele>1400.7</ele>
        <time>2026-05-14T09:02:51.999Z</time>
      </trkpt>
      <trkpt lat="44.18516" lon="5.28298">
        <ele>1400.9</ele>
        <time>2026-05-14T09:02:52.999Z</time>
      </trkpt>
      <trkpt lat="44.18517" lon="5.28299">
        <ele>1400.9</ele>
        <time>2026-05-14T09:02:53.999Z</time>
      </trkpt>
      <trkpt lat="44.18518" lon="5.28301">
        <ele>1400.7</ele>
        <time>2026-05-14T09:02:54.999Z</time>
      </trkpt>
      <trkpt lat="44.18519" lon="5.28301">
        <ele>1400.6</ele>
        <time>2026-05-14T09:02:55.999Z</time>
      </trkpt>
      <trkpt lat="44.1852" lon="5.28302">
        <ele>1400.5</ele>
        <time>2026-05-14T09:02:57.999Z</time>
      </trkpt>
      <trkpt lat="44.1852" lon="5.28302">
        <ele>1400.5</ele>
        <time>2026-05-14T09:02:58.999Z</time>
      </trkpt>
      <trkpt lat="44.18521" lon="5.28302">
        <ele>1400.4</ele>
        <time>2026-05-14T09:02:59.999Z</time>
      </trkpt>
      <trkpt lat="44.18521" lon="5.28303">
        <ele>1400.3</ele>
        <time>2026-05-14T09:03:00.999Z</time>
      </trkpt>
      <trkpt lat="44.18522" lon="5.28303">
        <ele>1400.5</ele>
        <time>2026-05-14T09:03:01.999Z</time>
      </trkpt>
      <trkpt lat="44.18522" lon="5.28303">
        <ele>1400.2</ele>
        <time>2026-05-14T09:03:02.999Z</time>
      </trkpt>
      <trkpt lat="44.18522" lon="5.28303">
        <ele>1400.3</ele>
        <time>2026-05-14T09:03:03.999Z</time>
      </trkpt>
      <trkpt lat="44.18523" lon="5.28303">
        <ele>1399.9</ele>
        <time>2026-05-14T09:03:04.999Z</time>
      </trkpt>
      <trkpt lat="44.18525" lon="5.28305">
        <ele>1398.9</ele>
        <time>2026-05-14T09:03:05.999Z</time>
      </trkpt>
      <trkpt lat="44.18526" lon="5.28305">
        <ele>1398.5</ele>
        <time>2026-05-14T09:03:06.999Z</time>
      </trkpt>
      <trkpt lat="44.18528" lon="5.28305">
        <ele>1398.2</ele>
        <time>2026-05-14T09:03:07.999Z</time>
      </trkpt>
      <trkpt lat="44.18529" lon="5.28305">
        <ele>1398.4</ele>
        <time>2026-05-14T09:03:09.000Z</time>
      </trkpt>
      <trkpt lat="44.1853" lon="5.28304">
        <ele>1398.6</ele>
        <time>2026-05-14T09:03:10.000Z</time>
      </trkpt>
      <trkpt lat="44.18532" lon="5.28304">
        <ele>1398.9</ele>
        <time>2026-05-14T09:03:11.000Z</time>
      </trkpt>
      <trkpt lat="44.18533" lon="5.28304">
        <ele>1399.2</ele>
        <time>2026-05-14T09:03:12.000Z</time>
      </trkpt>
      <trkpt lat="44.18533" lon="5.28304">
        <ele>1399.6</ele>
        <time>2026-05-14T09:03:13.000Z</time>
      </trkpt>
      <trkpt lat="44.18533" lon="5.28304">
        <ele>1399.6</ele>
        <time>2026-05-14T09:03:14.000Z</time>
      </trkpt>
      <trkpt lat="44.18534" lon="5.28305">
        <ele>1399.6</ele>
        <time>2026-05-14T09:03:15.000Z</time>
      </trkpt>
      <trkpt lat="44.18535" lon="5.28305">
        <ele>1399.7</ele>
        <time>2026-05-14T09:03:16.000Z</time>
      </trkpt>
      <trkpt lat="44.18535" lon="5.28305">
        <ele>1399.6</ele>
        <time>2026-05-14T09:03:17.000Z</time>
      </trkpt>
      <trkpt lat="44.18536" lon="5.28305">
        <ele>1400.1</ele>
        <time>2026-05-14T09:03:18.000Z</time>
      </trkpt>
      <trkpt lat="44.18536" lon="5.28306">
        <ele>1400.3</ele>
        <time>2026-05-14T09:03:19.000Z</time>
      </trkpt>
      <trkpt lat="44.18537" lon="5.28307">
        <ele>1400.6</ele>
        <time>2026-05-14T09:03:20.000Z</time>
      </trkpt>
      <trkpt lat="44.18538" lon="5.28307">
        <ele>1401.1</ele>
        <time>2026-05-14T09:03:21.000Z</time>
      </trkpt>
      <trkpt lat="44.18538" lon="5.28308">
        <ele>1401.4</ele>
        <time>2026-05-14T09:03:22.000Z</time>
      </trkpt>
      <trkpt lat="44.18539" lon="5.28308">
        <ele>1401.9</ele>
        <time>2026-05-14T09:03:23.000Z</time>
      </trkpt>
      <trkpt lat="44.18539" lon="5.28308">
        <ele>1402.1</ele>
        <time>2026-05-14T09:03:24.000Z</time>
      </trkpt>
      <trkpt lat="44.18539" lon="5.28308">
        <ele>1402.4</ele>
        <time>2026-05-14T09:03:25.000Z</time>
      </trkpt>
      <trkpt lat="44.1854" lon="5.28308">
        <ele>1402.4</ele>
        <time>2026-05-14T09:03:26.000Z</time>
      </trkpt>
      <trkpt lat="44.1854" lon="5.28308">
        <ele>1402.5</ele>
        <time>2026-05-14T09:03:27.000Z</time>
      </trkpt>
      <trkpt lat="44.1854" lon="5.28308">
        <ele>1402.6</ele>
        <time>2026-05-14T09:03:28.000Z</time>
      </trkpt>
      <trkpt lat="44.18541" lon="5.28309">
        <ele>1403</ele>
        <time>2026-05-14T09:03:29.000Z</time>
      </trkpt>
      <trkpt lat="44.18542" lon="5.28309">
        <ele>1403.2</ele>
        <time>2026-05-14T09:03:30.000Z</time>
      </trkpt>
      <trkpt lat="44.18542" lon="5.28309">
        <ele>1403.8</ele>
        <time>2026-05-14T09:03:31.000Z</time>
      </trkpt>
      <trkpt lat="44.18543" lon="5.28309">
        <ele>1404.2</ele>
        <time>2026-05-14T09:03:32.000Z</time>
      </trkpt>
      <trkpt lat="44.18543" lon="5.28308">
        <ele>1404.2</ele>
        <time>2026-05-14T09:03:33.000Z</time>
      </trkpt>
      <trkpt lat="44.18544" lon="5.28308">
        <ele>1404.1</ele>
        <time>2026-05-14T09:03:34.000Z</time>
      </trkpt>
      <trkpt lat="44.18545" lon="5.28307">
        <ele>1404.4</ele>
        <time>2026-05-14T09:03:35.000Z</time>
      </trkpt>
      <trkpt lat="44.18546" lon="5.28307">
        <ele>1404.7</ele>
        <time>2026-05-14T09:03:36.000Z</time>
      </trkpt>
      <trkpt lat="44.18546" lon="5.28307">
        <ele>1404.7</ele>
        <time>2026-05-14T09:03:37.000Z</time>
      </trkpt>
      <trkpt lat="44.18546" lon="5.28308">
        <ele>1404.9</ele>
        <time>2026-05-14T09:03:38.000Z</time>
      </trkpt>
      <trkpt lat="44.18547" lon="5.28309">
        <ele>1405.1</ele>
        <time>2026-05-14T09:03:39.000Z</time>
      </trkpt>
      <trkpt lat="44.18547" lon="5.28311">
        <ele>1405.1</ele>
        <time>2026-05-14T09:03:40.000Z</time>
      </trkpt>
      <trkpt lat="44.18547" lon="5.2831">
        <ele>1404.4</ele>
        <time>2026-05-14T09:03:41.000Z</time>
      </trkpt>
      <trkpt lat="44.18547" lon="5.2831">
        <ele>1404</ele>
        <time>2026-05-14T09:03:42.000Z</time>
      </trkpt>
      <trkpt lat="44.18547" lon="5.2831">
        <ele>1403.7</ele>
        <time>2026-05-14T09:03:43.000Z</time>
      </trkpt>
      <trkpt lat="44.18546" lon="5.2831">
        <ele>1403.8</ele>
        <time>2026-05-14T09:03:44.000Z</time>
      </trkpt>
      <trkpt lat="44.18546" lon="5.2831">
        <ele>1403.6</ele>
        <time>2026-05-14T09:03:45.000Z</time>
      </trkpt>
      <trkpt lat="44.18546" lon="5.2831">
        <ele>1403.6</ele>
        <time>2026-05-14T09:03:46.000Z</time>
      </trkpt>
      <trkpt lat="44.18546" lon="5.2831">
        <ele>1403.6</ele>
        <time>2026-05-14T09:03:47.000Z</time>
      </trkpt>
      <trkpt lat="44.18547" lon="5.28311">
        <ele>1403.9</ele>
        <time>2026-05-14T09:03:48.000Z</time>
      </trkpt>
      <trkpt lat="44.18547" lon="5.28312">
        <ele>1404.2</ele>
        <time>2026-05-14T09:03:49.000Z</time>
      </trkpt>
      <trkpt lat="44.18548" lon="5.28313">
        <ele>1404.4</ele>
        <time>2026-05-14T09:03:50.000Z</time>
      </trkpt>
      <trkpt lat="44.18549" lon="5.28314">
        <ele>1404.6</ele>
        <time>2026-05-14T09:03:51.000Z</time>
      </trkpt>
      <trkpt lat="44.1855" lon="5.28314">
        <ele>1404.9</ele>
        <time>2026-05-14T09:03:52.000Z</time>
      </trkpt>
      <trkpt lat="44.18551" lon="5.28314">
        <ele>1405</ele>
        <time>2026-05-14T09:03:53.000Z</time>
      </trkpt>
      <trkpt lat="44.18552" lon="5.28314">
        <ele>1404.9</ele>
        <time>2026-05-14T09:03:54.000Z</time>
      </trkpt>
      <trkpt lat="44.18554" lon="5.28315">
        <ele>1404.9</ele>
        <time>2026-05-14T09:03:55.000Z</time>
      </trkpt>
      <trkpt lat="44.18555" lon="5.28314">
        <ele>1404.9</ele>
        <time>2026-05-14T09:03:56.000Z</time>
      </trkpt>
      <trkpt lat="44.18555" lon="5.28314">
        <ele>1405</ele>
        <time>2026-05-14T09:03:57.000Z</time>
      </trkpt>
      <trkpt lat="44.18557" lon="5.28314">
        <ele>1404.9</ele>
        <time>2026-05-14T09:03:58.000Z</time>
      </trkpt>
      <trkpt lat="44.18558" lon="5.28313">
        <ele>1405</ele>
        <time>2026-05-14T09:03:59.000Z</time>
      </trkpt>
      <trkpt lat="44.18559" lon="5.28313">
        <ele>1404.8</ele>
        <time>2026-05-14T09:04:00.000Z</time>
      </trkpt>
      <trkpt lat="44.1856" lon="5.28313">
        <ele>1404.6</ele>
        <time>2026-05-14T09:04:01.000Z</time>
      </trkpt>
      <trkpt lat="44.18562" lon="5.28313">
        <ele>1404.7</ele>
        <time>2026-05-14T09:04:02.000Z</time>
      </trkpt>
      <trkpt lat="44.18562" lon="5.28313">
        <ele>1404.8</ele>
        <time>2026-05-14T09:04:03.000Z</time>
      </trkpt>
      <trkpt lat="44.18563" lon="5.28314">
        <ele>1404.8</ele>
        <time>2026-05-14T09:04:04.000Z</time>
      </trkpt>
      <trkpt lat="44.18564" lon="5.28314">
        <ele>1404.9</ele>
        <time>2026-05-14T09:04:05.000Z</time>
      </trkpt>
      <trkpt lat="44.18565" lon="5.28314">
        <ele>1404.9</ele>
        <time>2026-05-14T09:04:06.000Z</time>
      </trkpt>
      <trkpt lat="44.18566" lon="5.28314">
        <ele>1404.7</ele>
        <time>2026-05-14T09:04:07.000Z</time>
      </trkpt>
      <trkpt lat="44.18567" lon="5.28314">
        <ele>1404.8</ele>
        <time>2026-05-14T09:04:08.000Z</time>
      </trkpt>
      <trkpt lat="44.18568" lon="5.28314">
        <ele>1404.8</ele>
        <time>2026-05-14T09:04:09.000Z</time>
      </trkpt>
      <trkpt lat="44.18569" lon="5.28313">
        <ele>1404.8</ele>
        <time>2026-05-14T09:04:10.000Z</time>
      </trkpt>
      <trkpt lat="44.18569" lon="5.28312">
        <ele>1404.9</ele>
        <time>2026-05-14T09:04:11.000Z</time>
      </trkpt>
      <trkpt lat="44.18571" lon="5.28311">
        <ele>1405.1</ele>
        <time>2026-05-14T09:04:12.000Z</time>
      </trkpt>
      <trkpt lat="44.18571" lon="5.28311">
        <ele>1405.3</ele>
        <time>2026-05-14T09:04:13.000Z</time>
      </trkpt>
      <trkpt lat="44.18572" lon="5.28311">
        <ele>1405</ele>
        <time>2026-05-14T09:04:14.000Z</time>
      </trkpt>
      <trkpt lat="44.18573" lon="5.28309">
        <ele>1404.1</ele>
        <time>2026-05-14T09:04:15.000Z</time>
      </trkpt>
      <trkpt lat="44.18575" lon="5.28307">
        <ele>1403.5</ele>
        <time>2026-05-14T09:04:16.000Z</time>
      </trkpt>
      <trkpt lat="44.18575" lon="5.28306">
        <ele>1403.3</ele>
        <time>2026-05-14T09:04:17.000Z</time>
      </trkpt>
      <trkpt lat="44.18575" lon="5.28306">
        <ele>1403.5</ele>
        <time>2026-05-14T09:04:18.000Z</time>
      </trkpt>
      <trkpt lat="44.18575" lon="5.28305">
        <ele>1403.5</ele>
        <time>2026-05-14T09:04:19.000Z</time>
      </trkpt>
      <trkpt lat="44.18575" lon="5.28305">
        <ele>1403.4</ele>
        <time>2026-05-14T09:04:20.000Z</time>
      </trkpt>
      <trkpt lat="44.18576" lon="5.28304">
        <ele>1403.5</ele>
        <time>2026-05-14T09:04:21.000Z</time>
      </trkpt>
      <trkpt lat="44.18576" lon="5.28304">
        <ele>1403.5</ele>
        <time>2026-05-14T09:04:22.000Z</time>
      </trkpt>
      <trkpt lat="44.18576" lon="5.28304">
        <ele>1403.8</ele>
        <time>2026-05-14T09:04:23.000Z</time>
      </trkpt>
      <trkpt lat="44.18576" lon="5.28304">
        <ele>1403.9</ele>
        <time>2026-05-14T09:04:24.000Z</time>
      </trkpt>
      <trkpt lat="44.18577" lon="5.28304">
        <ele>1403.9</ele>
        <time>2026-05-14T09:04:25.000Z</time>
      </trkpt>
      <trkpt lat="44.18578" lon="5.28304">
        <ele>1404.1</ele>
        <time>2026-05-14T09:04:26.000Z</time>
      </trkpt>
      <trkpt lat="44.1858" lon="5.28303">
        <ele>1404.6</ele>
        <time>2026-05-14T09:04:27.000Z</time>
      </trkpt>
      <trkpt lat="44.18581" lon="5.28302">
        <ele>1404.8</ele>
        <time>2026-05-14T09:04:28.000Z</time>
      </trkpt>
      <trkpt lat="44.18581" lon="5.28301">
        <ele>1404.9</ele>
        <time>2026-05-14T09:04:29.000Z</time>
      </trkpt>
      <trkpt lat="44.1858" lon="5.283">
        <ele>1405.1</ele>
        <time>2026-05-14T09:04:30.000Z</time>
      </trkpt>
      <trkpt lat="44.1858" lon="5.283">
        <ele>1405.2</ele>
        <time>2026-05-14T09:04:31.000Z</time>
      </trkpt>
      <trkpt lat="44.1858" lon="5.28299">
        <ele>1405.3</ele>
        <time>2026-05-14T09:04:32.000Z</time>
      </trkpt>
      <trkpt lat="44.1858" lon="5.28299">
        <ele>1405.5</ele>
        <time>2026-05-14T09:04:33.000Z</time>
      </trkpt>
      <trkpt lat="44.1858" lon="5.28299">
        <ele>1405.8</ele>
        <time>2026-05-14T09:04:34.000Z</time>
      </trkpt>
      <trkpt lat="44.1858" lon="5.28299">
        <ele>1406.6</ele>
        <time>2026-05-14T09:04:35.000Z</time>
      </trkpt>
      <trkpt lat="44.1858" lon="5.28298">
        <ele>1407.3</ele>
        <time>2026-05-14T09:04:36.000Z</time>
      </trkpt>
      <trkpt lat="44.1858" lon="5.28298">
        <ele>1407.6</ele>
        <time>2026-05-14T09:04:37.000Z</time>
      </trkpt>
      <trkpt lat="44.1858" lon="5.28298">
        <ele>1408.2</ele>
        <time>2026-05-14T09:04:38.000Z</time>
      </trkpt>
      <trkpt lat="44.1858" lon="5.28298">
        <ele>1408.4</ele>
        <time>2026-05-14T09:04:39.000Z</time>
      </trkpt>
      <trkpt lat="44.1858" lon="5.28297">
        <ele>1408.9</ele>
        <time>2026-05-14T09:04:40.000Z</time>
      </trkpt>
      <trkpt lat="44.1858" lon="5.28297">
        <ele>1409.3</ele>
        <time>2026-05-14T09:04:41.000Z</time>
      </trkpt>
      <trkpt lat="44.1858" lon="5.28296">
        <ele>1409.5</ele>
        <time>2026-05-14T09:04:42.000Z</time>
      </trkpt>
      <trkpt lat="44.1858" lon="5.28296">
        <ele>1409.9</ele>
        <time>2026-05-14T09:04:43.000Z</time>
      </trkpt>
      <trkpt lat="44.1858" lon="5.28296">
        <ele>1410.4</ele>
        <time>2026-05-14T09:04:44.000Z</time>
      </trkpt>
      <trkpt lat="44.18581" lon="5.28293">
        <ele>1410.9</ele>
        <time>2026-05-14T09:04:45.000Z</time>
      </trkpt>
      <trkpt lat="44.18582" lon="5.2829">
        <ele>1411.6</ele>
        <time>2026-05-14T09:04:46.000Z</time>
      </trkpt>
      <trkpt lat="44.18582" lon="5.28288">
        <ele>1412.2</ele>
        <time>2026-05-14T09:04:47.000Z</time>
      </trkpt>
      <trkpt lat="44.18583" lon="5.28286">
        <ele>1412.8</ele>
        <time>2026-05-14T09:04:48.000Z</time>
      </trkpt>
      <trkpt lat="44.18584" lon="5.28285">
        <ele>1413</ele>
        <time>2026-05-14T09:04:49.000Z</time>
      </trkpt>
      <trkpt lat="44.18584" lon="5.28285">
        <ele>1413.1</ele>
        <time>2026-05-14T09:04:50.000Z</time>
      </trkpt>
      <trkpt lat="44.18584" lon="5.28285">
        <ele>1413.1</ele>
        <time>2026-05-14T09:04:51.000Z</time>
      </trkpt>
      <trkpt lat="44.18584" lon="5.28285">
        <ele>1413.4</ele>
        <time>2026-05-14T09:04:52.000Z</time>
      </trkpt>
      <trkpt lat="44.18584" lon="5.28285">
        <ele>1413.5</ele>
        <time>2026-05-14T09:04:53.000Z</time>
      </trkpt>
      <trkpt lat="44.18584" lon="5.28285">
        <ele>1413.2</ele>
        <time>2026-05-14T09:04:54.000Z</time>
      </trkpt>
      <trkpt lat="44.18584" lon="5.28285">
        <ele>1413.3</ele>
        <time>2026-05-14T09:04:55.000Z</time>
      </trkpt>
      <trkpt lat="44.18584" lon="5.28285">
        <ele>1413.2</ele>
        <time>2026-05-14T09:04:56.000Z</time>
      </trkpt>
      <trkpt lat="44.18585" lon="5.28284">
        <ele>1413.3</ele>
        <time>2026-05-14T09:04:57.000Z</time>
      </trkpt>
      <trkpt lat="44.18585" lon="5.28285">
        <ele>1413.4</ele>
        <time>2026-05-14T09:04:58.000Z</time>
      </trkpt>
      <trkpt lat="44.18586" lon="5.28285">
        <ele>1413.5</ele>
        <time>2026-05-14T09:04:59.000Z</time>
      </trkpt>
      <trkpt lat="44.18586" lon="5.28285">
        <ele>1413.7</ele>
        <time>2026-05-14T09:05:00.000Z</time>
      </trkpt>
      <trkpt lat="44.18586" lon="5.28285">
        <ele>1413.7</ele>
        <time>2026-05-14T09:05:01.000Z</time>
      </trkpt>
      <trkpt lat="44.18588" lon="5.28285">
        <ele>1414.7</ele>
        <time>2026-05-14T09:05:02.000Z</time>
      </trkpt>
      <trkpt lat="44.1859" lon="5.28284">
        <ele>1415.6</ele>
        <time>2026-05-14T09:05:03.000Z</time>
      </trkpt>
      <trkpt lat="44.18591" lon="5.28284">
        <ele>1416.1</ele>
        <time>2026-05-14T09:05:04.000Z</time>
      </trkpt>
      <trkpt lat="44.18592" lon="5.28283">
        <ele>1416.5</ele>
        <time>2026-05-14T09:05:05.000Z</time>
      </trkpt>
      <trkpt lat="44.18593" lon="5.28283">
        <ele>1416.6</ele>
        <time>2026-05-14T09:05:06.000Z</time>
      </trkpt>
      <trkpt lat="44.18593" lon="5.28282">
        <ele>1416.8</ele>
        <time>2026-05-14T09:05:07.000Z</time>
      </trkpt>
      <trkpt lat="44.18593" lon="5.28282">
        <ele>1417</ele>
        <time>2026-05-14T09:05:08.000Z</time>
      </trkpt>
      <trkpt lat="44.18593" lon="5.28282">
        <ele>1417.1</ele>
        <time>2026-05-14T09:05:09.000Z</time>
      </trkpt>
      <trkpt lat="44.18593" lon="5.28283">
        <ele>1417.2</ele>
        <time>2026-05-14T09:05:10.000Z</time>
      </trkpt>
      <trkpt lat="44.18592" lon="5.28283">
        <ele>1417.4</ele>
        <time>2026-05-14T09:05:11.000Z</time>
      </trkpt>
      <trkpt lat="44.18592" lon="5.28284">
        <ele>1417.6</ele>
        <time>2026-05-14T09:05:12.000Z</time>
      </trkpt>
      <trkpt lat="44.18591" lon="5.28284">
        <ele>1418</ele>
        <time>2026-05-14T09:05:13.000Z</time>
      </trkpt>
      <trkpt lat="44.18591" lon="5.28285">
        <ele>1418.4</ele>
        <time>2026-05-14T09:05:14.000Z</time>
      </trkpt>
      <trkpt lat="44.18591" lon="5.28285">
        <ele>1418.8</ele>
        <time>2026-05-14T09:05:15.000Z</time>
      </trkpt>
      <trkpt lat="44.18591" lon="5.28285">
        <ele>1419.2</ele>
        <time>2026-05-14T09:05:16.000Z</time>
      </trkpt>
      <trkpt lat="44.1859" lon="5.28286">
        <ele>1419.4</ele>
        <time>2026-05-14T09:05:17.000Z</time>
      </trkpt>
      <trkpt lat="44.1859" lon="5.28286">
        <ele>1419.5</ele>
        <time>2026-05-14T09:05:18.000Z</time>
      </trkpt>
      <trkpt lat="44.1859" lon="5.28286">
        <ele>1419.9</ele>
        <time>2026-05-14T09:05:19.000Z</time>
      </trkpt>
      <trkpt lat="44.18589" lon="5.28286">
        <ele>1420.2</ele>
        <time>2026-05-14T09:05:20.000Z</time>
      </trkpt>
      <trkpt lat="44.18588" lon="5.28287">
        <ele>1420.4</ele>
        <time>2026-05-14T09:05:21.000Z</time>
      </trkpt>
      <trkpt lat="44.18587" lon="5.28288">
        <ele>1420.8</ele>
        <time>2026-05-14T09:05:22.000Z</time>
      </trkpt>
      <trkpt lat="44.18586" lon="5.28288">
        <ele>1421</ele>
        <time>2026-05-14T09:05:23.000Z</time>
      </trkpt>
      <trkpt lat="44.18586" lon="5.28289">
        <ele>1420.9</ele>
        <time>2026-05-14T09:05:24.000Z</time>
      </trkpt>
      <trkpt lat="44.18586" lon="5.28288">
        <ele>1421</ele>
        <time>2026-05-14T09:05:25.000Z</time>
      </trkpt>
      <trkpt lat="44.18585" lon="5.28289">
        <ele>1421.1</ele>
        <time>2026-05-14T09:05:26.000Z</time>
      </trkpt>
      <trkpt lat="44.18584" lon="5.2829">
        <ele>1421</ele>
        <time>2026-05-14T09:05:27.000Z</time>
      </trkpt>
      <trkpt lat="44.18583" lon="5.2829">
        <ele>1421</ele>
        <time>2026-05-14T09:05:28.000Z</time>
      </trkpt>
      <trkpt lat="44.18583" lon="5.28291">
        <ele>1420.9</ele>
        <time>2026-05-14T09:05:29.000Z</time>
      </trkpt>
      <trkpt lat="44.18583" lon="5.2829">
        <ele>1420.4</ele>
        <time>2026-05-14T09:05:30.000Z</time>
      </trkpt>
      <trkpt lat="44.18583" lon="5.28291">
        <ele>1420.2</ele>
        <time>2026-05-14T09:05:31.000Z</time>
      </trkpt>
      <trkpt lat="44.18583" lon="5.28291">
        <ele>1420.1</ele>
        <time>2026-05-14T09:05:32.000Z</time>
      </trkpt>
      <trkpt lat="44.18583" lon="5.2829">
        <ele>1420</ele>
        <time>2026-05-14T09:05:33.000Z</time>
      </trkpt>
      <trkpt lat="44.18583" lon="5.2829">
        <ele>1420.4</ele>
        <time>2026-05-14T09:05:34.000Z</time>
      </trkpt>
      <trkpt lat="44.18583" lon="5.2829">
        <ele>1420.9</ele>
        <time>2026-05-14T09:05:35.000Z</time>
      </trkpt>
      <trkpt lat="44.18583" lon="5.2829">
        <ele>1421.1</ele>
        <time>2026-05-14T09:05:36.000Z</time>
      </trkpt>
      <trkpt lat="44.18583" lon="5.2829">
        <ele>1421.4</ele>
        <time>2026-05-14T09:05:37.000Z</time>
      </trkpt>
      <trkpt lat="44.18582" lon="5.2829">
        <ele>1421.4</ele>
        <time>2026-05-14T09:05:38.000Z</time>
      </trkpt>
      <trkpt lat="44.18582" lon="5.2829">
        <ele>1421.4</ele>
        <time>2026-05-14T09:05:39.000Z</time>
      </trkpt>
      <trkpt lat="44.18582" lon="5.2829">
        <ele>1421.1</ele>
        <time>2026-05-14T09:05:40.000Z</time>
      </trkpt>
      <trkpt lat="44.18581" lon="5.2829">
        <ele>1420.9</ele>
        <time>2026-05-14T09:05:41.000Z</time>
      </trkpt>
      <trkpt lat="44.18581" lon="5.28291">
        <ele>1420.2</ele>
        <time>2026-05-14T09:05:42.000Z</time>
      </trkpt>
      <trkpt lat="44.1858" lon="5.28291">
        <ele>1419.9</ele>
        <time>2026-05-14T09:05:43.000Z</time>
      </trkpt>
      <trkpt lat="44.1858" lon="5.28291">
        <ele>1419.8</ele>
        <time>2026-05-14T09:05:44.000Z</time>
      </trkpt>
      <trkpt lat="44.18579" lon="5.28291">
        <ele>1419.6</ele>
        <time>2026-05-14T09:05:45.000Z</time>
      </trkpt>
      <trkpt lat="44.18578" lon="5.28291">
        <ele>1419.4</ele>
        <time>2026-05-14T09:05:46.000Z</time>
      </trkpt>
      <trkpt lat="44.18576" lon="5.28291">
        <ele>1419.3</ele>
        <time>2026-05-14T09:05:47.000Z</time>
      </trkpt>
      <trkpt lat="44.18574" lon="5.28291">
        <ele>1419.2</ele>
        <time>2026-05-14T09:05:48.000Z</time>
      </trkpt>
      <trkpt lat="44.18573" lon="5.28291">
        <ele>1419.2</ele>
        <time>2026-05-14T09:05:49.000Z</time>
      </trkpt>
      <trkpt lat="44.18572" lon="5.28291">
        <ele>1419.3</ele>
        <time>2026-05-14T09:05:50.000Z</time>
      </trkpt>
      <trkpt lat="44.18571" lon="5.2829">
        <ele>1419.5</ele>
        <time>2026-05-14T09:05:51.000Z</time>
      </trkpt>
      <trkpt lat="44.18571" lon="5.2829">
        <ele>1419.6</ele>
        <time>2026-05-14T09:05:52.000Z</time>
      </trkpt>
      <trkpt lat="44.18569" lon="5.28289">
        <ele>1419.6</ele>
        <time>2026-05-14T09:05:53.000Z</time>
      </trkpt>
      <trkpt lat="44.18568" lon="5.28289">
        <ele>1419.4</ele>
        <time>2026-05-14T09:05:54.000Z</time>
      </trkpt>
      <trkpt lat="44.18567" lon="5.28289">
        <ele>1419.4</ele>
        <time>2026-05-14T09:05:55.000Z</time>
      </trkpt>
      <trkpt lat="44.18566" lon="5.2829">
        <ele>1419.4</ele>
        <time>2026-05-14T09:05:56.000Z</time>
      </trkpt>
      <trkpt lat="44.18566" lon="5.28291">
        <ele>1419.3</ele>
        <time>2026-05-14T09:05:57.000Z</time>
      </trkpt>
      <trkpt lat="44.18565" lon="5.2829">
        <ele>1419.2</ele>
        <time>2026-05-14T09:05:58.000Z</time>
      </trkpt>
      <trkpt lat="44.18565" lon="5.2829">
        <ele>1419.4</ele>
        <time>2026-05-14T09:05:59.000Z</time>
      </trkpt>
      <trkpt lat="44.18564" lon="5.28289">
        <ele>1419.5</ele>
        <time>2026-05-14T09:06:00.000Z</time>
      </trkpt>
      <trkpt lat="44.18562" lon="5.28289">
        <ele>1419.4</ele>
        <time>2026-05-14T09:06:01.000Z</time>
      </trkpt>
      <trkpt lat="44.18561" lon="5.28289">
        <ele>1419.4</ele>
        <time>2026-05-14T09:06:02.000Z</time>
      </trkpt>
      <trkpt lat="44.18561" lon="5.28288">
        <ele>1419.4</ele>
        <time>2026-05-14T09:06:03.000Z</time>
      </trkpt>
      <trkpt lat="44.18559" lon="5.28288">
        <ele>1419.5</ele>
        <time>2026-05-14T09:06:04.000Z</time>
      </trkpt>
      <trkpt lat="44.18559" lon="5.28288">
        <ele>1419.7</ele>
        <time>2026-05-14T09:06:05.000Z</time>
      </trkpt>
      <trkpt lat="44.18558" lon="5.28288">
        <ele>1419.7</ele>
        <time>2026-05-14T09:06:06.000Z</time>
      </trkpt>
      <trkpt lat="44.18557" lon="5.28287">
        <ele>1419.4</ele>
        <time>2026-05-14T09:06:07.000Z</time>
      </trkpt>
      <trkpt lat="44.18556" lon="5.28287">
        <ele>1419.6</ele>
        <time>2026-05-14T09:06:08.000Z</time>
      </trkpt>
      <trkpt lat="44.18556" lon="5.28286">
        <ele>1419.8</ele>
        <time>2026-05-14T09:06:09.000Z</time>
      </trkpt>
      <trkpt lat="44.18555" lon="5.28286">
        <ele>1419.5</ele>
        <time>2026-05-14T09:06:10.000Z</time>
      </trkpt>
      <trkpt lat="44.18555" lon="5.28285">
        <ele>1419.4</ele>
        <time>2026-05-14T09:06:11.000Z</time>
      </trkpt>
      <trkpt lat="44.18556" lon="5.28284">
        <ele>1419.1</ele>
        <time>2026-05-14T09:06:12.000Z</time>
      </trkpt>
      <trkpt lat="44.18556" lon="5.28283">
        <ele>1419</ele>
        <time>2026-05-14T09:06:13.000Z</time>
      </trkpt>
      <trkpt lat="44.18556" lon="5.28281">
        <ele>1419.5</ele>
        <time>2026-05-14T09:06:14.000Z</time>
      </trkpt>
      <trkpt lat="44.18555" lon="5.2828">
        <ele>1419.5</ele>
        <time>2026-05-14T09:06:15.000Z</time>
      </trkpt>
      <trkpt lat="44.18555" lon="5.28279">
        <ele>1419.4</ele>
        <time>2026-05-14T09:06:16.000Z</time>
      </trkpt>
      <trkpt lat="44.18555" lon="5.28279">
        <ele>1419.1</ele>
        <time>2026-05-14T09:06:17.000Z</time>
      </trkpt>
      <trkpt lat="44.18554" lon="5.28279">
        <ele>1419.5</ele>
        <time>2026-05-14T09:06:18.000Z</time>
      </trkpt>
      <trkpt lat="44.18553" lon="5.28279">
        <ele>1420.2</ele>
        <time>2026-05-14T09:06:19.000Z</time>
      </trkpt>
      <trkpt lat="44.18553" lon="5.28278">
        <ele>1420.8</ele>
        <time>2026-05-14T09:06:20.000Z</time>
      </trkpt>
      <trkpt lat="44.18553" lon="5.28278">
        <ele>1421.1</ele>
        <time>2026-05-14T09:06:21.000Z</time>
      </trkpt>
      <trkpt lat="44.18552" lon="5.28277">
        <ele>1421.7</ele>
        <time>2026-05-14T09:06:22.000Z</time>
      </trkpt>
      <trkpt lat="44.18552" lon="5.28277">
        <ele>1422</ele>
        <time>2026-05-14T09:06:23.000Z</time>
      </trkpt>
      <trkpt lat="44.18551" lon="5.28276">
        <ele>1422.3</ele>
        <time>2026-05-14T09:06:24.000Z</time>
      </trkpt>
      <trkpt lat="44.1855" lon="5.28276">
        <ele>1422.8</ele>
        <time>2026-05-14T09:06:25.000Z</time>
      </trkpt>
      <trkpt lat="44.18549" lon="5.28275">
        <ele>1423</ele>
        <time>2026-05-14T09:06:26.000Z</time>
      </trkpt>
      <trkpt lat="44.18548" lon="5.28274">
        <ele>1423.4</ele>
        <time>2026-05-14T09:06:27.000Z</time>
      </trkpt>
      <trkpt lat="44.18547" lon="5.28273">
        <ele>1423.6</ele>
        <time>2026-05-14T09:06:28.000Z</time>
      </trkpt>
      <trkpt lat="44.18547" lon="5.28273">
        <ele>1424.1</ele>
        <time>2026-05-14T09:06:29.000Z</time>
      </trkpt>
      <trkpt lat="44.18546" lon="5.28272">
        <ele>1424.3</ele>
        <time>2026-05-14T09:06:30.000Z</time>
      </trkpt>
      <trkpt lat="44.18546" lon="5.28272">
        <ele>1424.2</ele>
        <time>2026-05-14T09:06:31.000Z</time>
      </trkpt>
      <trkpt lat="44.18546" lon="5.28272">
        <ele>1424.2</ele>
        <time>2026-05-14T09:06:32.000Z</time>
      </trkpt>
      <trkpt lat="44.18545" lon="5.28272">
        <ele>1423.7</ele>
        <time>2026-05-14T09:06:33.000Z</time>
      </trkpt>
      <trkpt lat="44.18545" lon="5.28271">
        <ele>1423.6</ele>
        <time>2026-05-14T09:06:34.000Z</time>
      </trkpt>
      <trkpt lat="44.18544" lon="5.28271">
        <ele>1423.6</ele>
        <time>2026-05-14T09:06:35.000Z</time>
      </trkpt>
      <trkpt lat="44.18544" lon="5.2827">
        <ele>1423.7</ele>
        <time>2026-05-14T09:06:36.000Z</time>
      </trkpt>
      <trkpt lat="44.18542" lon="5.2827">
        <ele>1423.6</ele>
        <time>2026-05-14T09:06:37.000Z</time>
      </trkpt>
      <trkpt lat="44.18541" lon="5.2827">
        <ele>1423.5</ele>
        <time>2026-05-14T09:06:38.000Z</time>
      </trkpt>
      <trkpt lat="44.18541" lon="5.28269">
        <ele>1423.3</ele>
        <time>2026-05-14T09:06:39.000Z</time>
      </trkpt>
      <trkpt lat="44.18541" lon="5.28269">
        <ele>1423.4</ele>
        <time>2026-05-14T09:06:40.000Z</time>
      </trkpt>
      <trkpt lat="44.1854" lon="5.28268">
        <ele>1423.6</ele>
        <time>2026-05-14T09:06:41.000Z</time>
      </trkpt>
      <trkpt lat="44.1854" lon="5.28267">
        <ele>1423.6</ele>
        <time>2026-05-14T09:06:42.000Z</time>
      </trkpt>
      <trkpt lat="44.18539" lon="5.28266">
        <ele>1423.7</ele>
        <time>2026-05-14T09:06:43.000Z</time>
      </trkpt>
      <trkpt lat="44.18538" lon="5.28266">
        <ele>1423.8</ele>
        <time>2026-05-14T09:06:44.000Z</time>
      </trkpt>
      <trkpt lat="44.18538" lon="5.28265">
        <ele>1423.8</ele>
        <time>2026-05-14T09:06:45.000Z</time>
      </trkpt>
      <trkpt lat="44.18538" lon="5.28264">
        <ele>1424</ele>
        <time>2026-05-14T09:06:46.000Z</time>
      </trkpt>
      <trkpt lat="44.18538" lon="5.28264">
        <ele>1424.3</ele>
        <time>2026-05-14T09:06:47.000Z</time>
      </trkpt>
      <trkpt lat="44.18538" lon="5.28263">
        <ele>1424.3</ele>
        <time>2026-05-14T09:06:48.000Z</time>
      </trkpt>
      <trkpt lat="44.18537" lon="5.28262">
        <ele>1424.6</ele>
        <time>2026-05-14T09:06:49.000Z</time>
      </trkpt>
      <trkpt lat="44.18537" lon="5.28262">
        <ele>1425.1</ele>
        <time>2026-05-14T09:06:50.000Z</time>
      </trkpt>
      <trkpt lat="44.18536" lon="5.28261">
        <ele>1425.4</ele>
        <time>2026-05-14T09:06:51.000Z</time>
      </trkpt>
      <trkpt lat="44.18536" lon="5.28261">
        <ele>1425.5</ele>
        <time>2026-05-14T09:06:52.000Z</time>
      </trkpt>
      <trkpt lat="44.18535" lon="5.2826">
        <ele>1425.6</ele>
        <time>2026-05-14T09:06:53.000Z</time>
      </trkpt>
      <trkpt lat="44.18535" lon="5.2826">
        <ele>1425.5</ele>
        <time>2026-05-14T09:06:54.000Z</time>
      </trkpt>
      <trkpt lat="44.18535" lon="5.28259">
        <ele>1425.6</ele>
        <time>2026-05-14T09:06:55.000Z</time>
      </trkpt>
      <trkpt lat="44.18534" lon="5.28259">
        <ele>1425.3</ele>
        <time>2026-05-14T09:06:56.000Z</time>
      </trkpt>
      <trkpt lat="44.18534" lon="5.28259">
        <ele>1425</ele>
        <time>2026-05-14T09:06:57.000Z</time>
      </trkpt>
      <trkpt lat="44.18533" lon="5.28258">
        <ele>1424.9</ele>
        <time>2026-05-14T09:06:58.000Z</time>
      </trkpt>
      <trkpt lat="44.18533" lon="5.28257">
        <ele>1424.6</ele>
        <time>2026-05-14T09:06:59.000Z</time>
      </trkpt>
      <trkpt lat="44.18532" lon="5.28256">
        <ele>1424.5</ele>
        <time>2026-05-14T09:07:00.000Z</time>
      </trkpt>
      <trkpt lat="44.18532" lon="5.28256">
        <ele>1424.3</ele>
        <time>2026-05-14T09:07:01.000Z</time>
      </trkpt>
      <trkpt lat="44.18531" lon="5.28255">
        <ele>1424.2</ele>
        <time>2026-05-14T09:07:02.000Z</time>
      </trkpt>
      <trkpt lat="44.1853" lon="5.28254">
        <ele>1424.2</ele>
        <time>2026-05-14T09:07:03.000Z</time>
      </trkpt>
      <trkpt lat="44.18531" lon="5.28254">
        <ele>1424.3</ele>
        <time>2026-05-14T09:07:04.000Z</time>
      </trkpt>
      <trkpt lat="44.1853" lon="5.28254">
        <ele>1424.6</ele>
        <time>2026-05-14T09:07:05.000Z</time>
      </trkpt>
      <trkpt lat="44.1853" lon="5.28254">
        <ele>1425.1</ele>
        <time>2026-05-14T09:07:06.000Z</time>
      </trkpt>
      <trkpt lat="44.1853" lon="5.28253">
        <ele>1425.4</ele>
        <time>2026-05-14T09:07:07.000Z</time>
      </trkpt>
      <trkpt lat="44.18529" lon="5.28253">
        <ele>1425.4</ele>
        <time>2026-05-14T09:07:08.000Z</time>
      </trkpt>
      <trkpt lat="44.18529" lon="5.28251">
        <ele>1425.5</ele>
        <time>2026-05-14T09:07:09.000Z</time>
      </trkpt>
      <trkpt lat="44.18528" lon="5.2825">
        <ele>1425.4</ele>
        <time>2026-05-14T09:07:10.000Z</time>
      </trkpt>
      <trkpt lat="44.18528" lon="5.28249">
        <ele>1425.4</ele>
        <time>2026-05-14T09:07:11.000Z</time>
      </trkpt>
      <trkpt lat="44.18525" lon="5.28247">
        <ele>1424.9</ele>
        <time>2026-05-14T09:07:13.000Z</time>
      </trkpt>
      <trkpt lat="44.18524" lon="5.28245">
        <ele>1424.8</ele>
        <time>2026-05-14T09:07:14.000Z</time>
      </trkpt>
      <trkpt lat="44.18524" lon="5.28245">
        <ele>1425.4</ele>
        <time>2026-05-14T09:07:15.000Z</time>
      </trkpt>
      <trkpt lat="44.18523" lon="5.28245">
        <ele>1425.8</ele>
        <time>2026-05-14T09:07:16.000Z</time>
      </trkpt>
      <trkpt lat="44.18523" lon="5.28244">
        <ele>1426</ele>
        <time>2026-05-14T09:07:17.000Z</time>
      </trkpt>
      <trkpt lat="44.18523" lon="5.28244">
        <ele>1425.8</ele>
        <time>2026-05-14T09:07:18.000Z</time>
      </trkpt>
      <trkpt lat="44.18523" lon="5.28244">
        <ele>1426</ele>
        <time>2026-05-14T09:07:19.000Z</time>
      </trkpt>
      <trkpt lat="44.18523" lon="5.28243">
        <ele>1425.9</ele>
        <time>2026-05-14T09:07:20.000Z</time>
      </trkpt>
      <trkpt lat="44.18523" lon="5.28243">
        <ele>1426.2</ele>
        <time>2026-05-14T09:07:21.000Z</time>
      </trkpt>
      <trkpt lat="44.18523" lon="5.28243">
        <ele>1426.2</ele>
        <time>2026-05-14T09:07:22.000Z</time>
      </trkpt>
      <trkpt lat="44.18522" lon="5.28242">
        <ele>1426.6</ele>
        <time>2026-05-14T09:07:23.000Z</time>
      </trkpt>
      <trkpt lat="44.18522" lon="5.28242">
        <ele>1427</ele>
        <time>2026-05-14T09:07:24.000Z</time>
      </trkpt>
      <trkpt lat="44.18522" lon="5.2824">
        <ele>1427</ele>
        <time>2026-05-14T09:07:25.000Z</time>
      </trkpt>
      <trkpt lat="44.18522" lon="5.28239">
        <ele>1426.9</ele>
        <time>2026-05-14T09:07:26.000Z</time>
      </trkpt>
      <trkpt lat="44.18521" lon="5.28238">
        <ele>1426.9</ele>
        <time>2026-05-14T09:07:27.000Z</time>
      </trkpt>
      <trkpt lat="44.18521" lon="5.28236">
        <ele>1427.5</ele>
        <time>2026-05-14T09:07:28.000Z</time>
      </trkpt>
      <trkpt lat="44.1852" lon="5.28235">
        <ele>1427.9</ele>
        <time>2026-05-14T09:07:29.000Z</time>
      </trkpt>
      <trkpt lat="44.1852" lon="5.28235">
        <ele>1428.2</ele>
        <time>2026-05-14T09:07:30.000Z</time>
      </trkpt>
      <trkpt lat="44.1852" lon="5.28236">
        <ele>1428.8</ele>
        <time>2026-05-14T09:07:31.000Z</time>
      </trkpt>
      <trkpt lat="44.1852" lon="5.28236">
        <ele>1429.5</ele>
        <time>2026-05-14T09:07:32.000Z</time>
      </trkpt>
      <trkpt lat="44.1852" lon="5.28236">
        <ele>1429.9</ele>
        <time>2026-05-14T09:07:33.000Z</time>
      </trkpt>
      <trkpt lat="44.18519" lon="5.28236">
        <ele>1430.3</ele>
        <time>2026-05-14T09:07:34.000Z</time>
      </trkpt>
      <trkpt lat="44.18518" lon="5.28235">
        <ele>1430.3</ele>
        <time>2026-05-14T09:07:35.000Z</time>
      </trkpt>
      <trkpt lat="44.18517" lon="5.28235">
        <ele>1430.4</ele>
        <time>2026-05-14T09:07:36.000Z</time>
      </trkpt>
      <trkpt lat="44.18516" lon="5.28235">
        <ele>1430.2</ele>
        <time>2026-05-14T09:07:37.000Z</time>
      </trkpt>
      <trkpt lat="44.18517" lon="5.28234">
        <ele>1430.5</ele>
        <time>2026-05-14T09:07:38.000Z</time>
      </trkpt>
      <trkpt lat="44.18516" lon="5.28234">
        <ele>1430.1</ele>
        <time>2026-05-14T09:07:40.000Z</time>
      </trkpt>
      <trkpt lat="44.18516" lon="5.28233">
        <ele>1430.3</ele>
        <time>2026-05-14T09:07:41.000Z</time>
      </trkpt>
      <trkpt lat="44.18516" lon="5.28233">
        <ele>1430.2</ele>
        <time>2026-05-14T09:07:42.000Z</time>
      </trkpt>
      <trkpt lat="44.18515" lon="5.28232">
        <ele>1430.3</ele>
        <time>2026-05-14T09:07:43.000Z</time>
      </trkpt>
      <trkpt lat="44.18514" lon="5.28232">
        <ele>1430.8</ele>
        <time>2026-05-14T09:07:44.000Z</time>
      </trkpt>
      <trkpt lat="44.18512" lon="5.2823">
        <ele>1430.6</ele>
        <time>2026-05-14T09:07:45.000Z</time>
      </trkpt>
      <trkpt lat="44.18512" lon="5.28229">
        <ele>1430.5</ele>
        <time>2026-05-14T09:07:46.000Z</time>
      </trkpt>
      <trkpt lat="44.18513" lon="5.28229">
        <ele>1430.6</ele>
        <time>2026-05-14T09:07:48.000Z</time>
      </trkpt>
      <trkpt lat="44.18512" lon="5.28228">
        <ele>1430.6</ele>
        <time>2026-05-14T09:07:49.000Z</time>
      </trkpt>
      <trkpt lat="44.18512" lon="5.28228">
        <ele>1430.7</ele>
        <time>2026-05-14T09:07:50.000Z</time>
      </trkpt>
      <trkpt lat="44.18512" lon="5.28228">
        <ele>1430.5</ele>
        <time>2026-05-14T09:07:51.000Z</time>
      </trkpt>
      <trkpt lat="44.18512" lon="5.28228">
        <ele>1430.4</ele>
        <time>2026-05-14T09:07:52.000Z</time>
      </trkpt>
      <trkpt lat="44.18511" lon="5.28228">
        <ele>1430.5</ele>
        <time>2026-05-14T09:07:53.000Z</time>
      </trkpt>
      <trkpt lat="44.1851" lon="5.28227">
        <ele>1430.5</ele>
        <time>2026-05-14T09:07:54.000Z</time>
      </trkpt>
      <trkpt lat="44.18509" lon="5.28226">
        <ele>1430.1</ele>
        <time>2026-05-14T09:07:55.000Z</time>
      </trkpt>
      <trkpt lat="44.18507" lon="5.28226">
        <ele>1430</ele>
        <time>2026-05-14T09:07:56.000Z</time>
      </trkpt>
      <trkpt lat="44.18506" lon="5.28224">
        <ele>1429.7</ele>
        <time>2026-05-14T09:07:57.000Z</time>
      </trkpt>
      <trkpt lat="44.18505" lon="5.28224">
        <ele>1429.8</ele>
        <time>2026-05-14T09:07:58.000Z</time>
      </trkpt>
      <trkpt lat="44.18505" lon="5.28224">
        <ele>1429.9</ele>
        <time>2026-05-14T09:07:59.000Z</time>
      </trkpt>
      <trkpt lat="44.18505" lon="5.28224">
        <ele>1429.7</ele>
        <time>2026-05-14T09:08:00.000Z</time>
      </trkpt>
      <trkpt lat="44.18505" lon="5.28224">
        <ele>1429.4</ele>
        <time>2026-05-14T09:08:01.000Z</time>
      </trkpt>
      <trkpt lat="44.18505" lon="5.28224">
        <ele>1429.2</ele>
        <time>2026-05-14T09:08:02.000Z</time>
      </trkpt>
      <trkpt lat="44.18505" lon="5.28224">
        <ele>1429.3</ele>
        <time>2026-05-14T09:08:03.000Z</time>
      </trkpt>
      <trkpt lat="44.18505" lon="5.28224">
        <ele>1429.2</ele>
        <time>2026-05-14T09:08:04.000Z</time>
      </trkpt>
      <trkpt lat="44.18504" lon="5.28224">
        <ele>1429</ele>
        <time>2026-05-14T09:08:05.000Z</time>
      </trkpt>
      <trkpt lat="44.18504" lon="5.28223">
        <ele>1428.9</ele>
        <time>2026-05-14T09:08:06.000Z</time>
      </trkpt>
      <trkpt lat="44.18504" lon="5.28223">
        <ele>1428.9</ele>
        <time>2026-05-14T09:08:07.000Z</time>
      </trkpt>
      <trkpt lat="44.18503" lon="5.28222">
        <ele>1428.7</ele>
        <time>2026-05-14T09:08:08.000Z</time>
      </trkpt>
      <trkpt lat="44.18502" lon="5.28221">
        <ele>1428.9</ele>
        <time>2026-05-14T09:08:09.000Z</time>
      </trkpt>
      <trkpt lat="44.18502" lon="5.28221">
        <ele>1428.8</ele>
        <time>2026-05-14T09:08:10.000Z</time>
      </trkpt>
      <trkpt lat="44.18502" lon="5.28221">
        <ele>1428.9</ele>
        <time>2026-05-14T09:08:11.000Z</time>
      </trkpt>
      <trkpt lat="44.18502" lon="5.28219">
        <ele>1429.1</ele>
        <time>2026-05-14T09:08:12.000Z</time>
      </trkpt>
      <trkpt lat="44.18501" lon="5.28218">
        <ele>1429.3</ele>
        <time>2026-05-14T09:08:13.000Z</time>
      </trkpt>
      <trkpt lat="44.18501" lon="5.28217">
        <ele>1429.7</ele>
        <time>2026-05-14T09:08:14.000Z</time>
      </trkpt>
      <trkpt lat="44.185" lon="5.28214">
        <ele>1429.4</ele>
        <time>2026-05-14T09:08:16.000Z</time>
      </trkpt>
      <trkpt lat="44.18499" lon="5.28213">
        <ele>1430.1</ele>
        <time>2026-05-14T09:08:17.000Z</time>
      </trkpt>
      <trkpt lat="44.18499" lon="5.28212">
        <ele>1430.4</ele>
        <time>2026-05-14T09:08:18.000Z</time>
      </trkpt>
      <trkpt lat="44.18498" lon="5.28211">
        <ele>1430.2</ele>
        <time>2026-05-14T09:08:19.000Z</time>
      </trkpt>
      <trkpt lat="44.18498" lon="5.28209">
        <ele>1430</ele>
        <time>2026-05-14T09:08:20.000Z</time>
      </trkpt>
      <trkpt lat="44.18498" lon="5.28208">
        <ele>1430</ele>
        <time>2026-05-14T09:08:21.000Z</time>
      </trkpt>
      <trkpt lat="44.18498" lon="5.28207">
        <ele>1431.6</ele>
        <time>2026-05-14T09:08:22.000Z</time>
      </trkpt>
      <trkpt lat="44.18497" lon="5.28207">
        <ele>1432.9</ele>
        <time>2026-05-14T09:08:23.000Z</time>
      </trkpt>
      <trkpt lat="44.18497" lon="5.28207">
        <ele>1433.7</ele>
        <time>2026-05-14T09:08:24.000Z</time>
      </trkpt>
      <trkpt lat="44.18497" lon="5.28207">
        <ele>1433.6</ele>
        <time>2026-05-14T09:08:25.000Z</time>
      </trkpt>
      <trkpt lat="44.18497" lon="5.28206">
        <ele>1433.6</ele>
        <time>2026-05-14T09:08:26.000Z</time>
      </trkpt>
      <trkpt lat="44.18497" lon="5.28205">
        <ele>1433.6</ele>
        <time>2026-05-14T09:08:27.000Z</time>
      </trkpt>
      <trkpt lat="44.18497" lon="5.28203">
        <ele>1433.4</ele>
        <time>2026-05-14T09:08:28.000Z</time>
      </trkpt>
      <trkpt lat="44.18496" lon="5.28201">
        <ele>1432.9</ele>
        <time>2026-05-14T09:08:30.000Z</time>
      </trkpt>
      <trkpt lat="44.18495" lon="5.28199">
        <ele>1432.4</ele>
        <time>2026-05-14T09:08:31.000Z</time>
      </trkpt>
      <trkpt lat="44.18494" lon="5.28197">
        <ele>1432.4</ele>
        <time>2026-05-14T09:08:32.000Z</time>
      </trkpt>
      <trkpt lat="44.18494" lon="5.28196">
        <ele>1432.7</ele>
        <time>2026-05-14T09:08:33.000Z</time>
      </trkpt>
      <trkpt lat="44.18494" lon="5.28195">
        <ele>1432.6</ele>
        <time>2026-05-14T09:08:34.000Z</time>
      </trkpt>
      <trkpt lat="44.18493" lon="5.28194">
        <ele>1432.4</ele>
        <time>2026-05-14T09:08:35.000Z</time>
      </trkpt>
      <trkpt lat="44.18493" lon="5.28193">
        <ele>1432.1</ele>
        <time>2026-05-14T09:08:36.000Z</time>
      </trkpt>
      <trkpt lat="44.18493" lon="5.28193">
        <ele>1432.2</ele>
        <time>2026-05-14T09:08:37.000Z</time>
      </trkpt>
      <trkpt lat="44.18492" lon="5.28191">
        <ele>1432.2</ele>
        <time>2026-05-14T09:08:38.000Z</time>
      </trkpt>
      <trkpt lat="44.18492" lon="5.2819">
        <ele>1432</ele>
        <time>2026-05-14T09:08:39.000Z</time>
      </trkpt>
      <trkpt lat="44.18491" lon="5.28189">
        <ele>1431.8</ele>
        <time>2026-05-14T09:08:40.000Z</time>
      </trkpt>
      <trkpt lat="44.1849" lon="5.28187">
        <ele>1431.8</ele>
        <time>2026-05-14T09:08:41.000Z</time>
      </trkpt>
      <trkpt lat="44.1849" lon="5.28186">
        <ele>1431.6</ele>
        <time>2026-05-14T09:08:42.000Z</time>
      </trkpt>
      <trkpt lat="44.18489" lon="5.28184">
        <ele>1431.4</ele>
        <time>2026-05-14T09:08:43.000Z</time>
      </trkpt>
      <trkpt lat="44.18488" lon="5.28182">
        <ele>1431.3</ele>
        <time>2026-05-14T09:08:44.000Z</time>
      </trkpt>
      <trkpt lat="44.18487" lon="5.2818">
        <ele>1431.2</ele>
        <time>2026-05-14T09:08:45.000Z</time>
      </trkpt>
      <trkpt lat="44.18486" lon="5.28179">
        <ele>1431.2</ele>
        <time>2026-05-14T09:08:46.000Z</time>
      </trkpt>
      <trkpt lat="44.18486" lon="5.28178">
        <ele>1431.3</ele>
        <time>2026-05-14T09:08:47.000Z</time>
      </trkpt>
      <trkpt lat="44.18485" lon="5.28178">
        <ele>1431.4</ele>
        <time>2026-05-14T09:08:48.000Z</time>
      </trkpt>
      <trkpt lat="44.18485" lon="5.28177">
        <ele>1431.4</ele>
        <time>2026-05-14T09:08:49.000Z</time>
      </trkpt>
      <trkpt lat="44.18485" lon="5.28176">
        <ele>1431.6</ele>
        <time>2026-05-14T09:08:50.000Z</time>
      </trkpt>
      <trkpt lat="44.18485" lon="5.28174">
        <ele>1431.6</ele>
        <time>2026-05-14T09:08:52.000Z</time>
      </trkpt>
      <trkpt lat="44.18485" lon="5.28174">
        <ele>1431.8</ele>
        <time>2026-05-14T09:08:53.000Z</time>
      </trkpt>
      <trkpt lat="44.18485" lon="5.28174">
        <ele>1431.7</ele>
        <time>2026-05-14T09:08:54.000Z</time>
      </trkpt>
      <trkpt lat="44.18484" lon="5.28173">
        <ele>1431.5</ele>
        <time>2026-05-14T09:08:55.000Z</time>
      </trkpt>
      <trkpt lat="44.18484" lon="5.28172">
        <ele>1431.3</ele>
        <time>2026-05-14T09:08:56.000Z</time>
      </trkpt>
      <trkpt lat="44.18483" lon="5.28172">
        <ele>1431.3</ele>
        <time>2026-05-14T09:08:57.000Z</time>
      </trkpt>
      <trkpt lat="44.18483" lon="5.2817">
        <ele>1431.1</ele>
        <time>2026-05-14T09:08:58.000Z</time>
      </trkpt>
      <trkpt lat="44.18482" lon="5.28168">
        <ele>1431</ele>
        <time>2026-05-14T09:08:59.000Z</time>
      </trkpt>
      <trkpt lat="44.1848" lon="5.28166">
        <ele>1430.9</ele>
        <time>2026-05-14T09:09:00.000Z</time>
      </trkpt>
      <trkpt lat="44.18479" lon="5.28165">
        <ele>1430.4</ele>
        <time>2026-05-14T09:09:01.000Z</time>
      </trkpt>
      <trkpt lat="44.18478" lon="5.28163">
        <ele>1430.2</ele>
        <time>2026-05-14T09:09:02.000Z</time>
      </trkpt>
      <trkpt lat="44.18478" lon="5.28161">
        <ele>1430.2</ele>
        <time>2026-05-14T09:09:03.000Z</time>
      </trkpt>
      <trkpt lat="44.18478" lon="5.28161">
        <ele>1430.5</ele>
        <time>2026-05-14T09:09:04.000Z</time>
      </trkpt>
      <trkpt lat="44.18478" lon="5.28161">
        <ele>1430.4</ele>
        <time>2026-05-14T09:09:05.000Z</time>
      </trkpt>
      <trkpt lat="44.18477" lon="5.2816">
        <ele>1430.3</ele>
        <time>2026-05-14T09:09:06.000Z</time>
      </trkpt>
      <trkpt lat="44.18477" lon="5.28159">
        <ele>1430</ele>
        <time>2026-05-14T09:09:07.000Z</time>
      </trkpt>
      <trkpt lat="44.18476" lon="5.28156">
        <ele>1429.9</ele>
        <time>2026-05-14T09:09:08.000Z</time>
      </trkpt>
      <trkpt lat="44.18476" lon="5.28155">
        <ele>1429.8</ele>
        <time>2026-05-14T09:09:09.000Z</time>
      </trkpt>
      <trkpt lat="44.18476" lon="5.28154">
        <ele>1429.5</ele>
        <time>2026-05-14T09:09:10.000Z</time>
      </trkpt>
      <trkpt lat="44.18475" lon="5.28153">
        <ele>1429.3</ele>
        <time>2026-05-14T09:09:11.000Z</time>
      </trkpt>
      <trkpt lat="44.18474" lon="5.28152">
        <ele>1429.2</ele>
        <time>2026-05-14T09:09:12.000Z</time>
      </trkpt>
      <trkpt lat="44.18473" lon="5.28151">
        <ele>1428.9</ele>
        <time>2026-05-14T09:09:13.000Z</time>
      </trkpt>
      <trkpt lat="44.18472" lon="5.28151">
        <ele>1428.7</ele>
        <time>2026-05-14T09:09:14.000Z</time>
      </trkpt>
      <trkpt lat="44.18471" lon="5.2815">
        <ele>1428.6</ele>
        <time>2026-05-14T09:09:15.000Z</time>
      </trkpt>
      <trkpt lat="44.18471" lon="5.28149">
        <ele>1428.7</ele>
        <time>2026-05-14T09:09:16.000Z</time>
      </trkpt>
      <trkpt lat="44.18469" lon="5.28148">
        <ele>1428.4</ele>
        <time>2026-05-14T09:09:17.000Z</time>
      </trkpt>
      <trkpt lat="44.18469" lon="5.28146">
        <ele>1427.8</ele>
        <time>2026-05-14T09:09:18.000Z</time>
      </trkpt>
      <trkpt lat="44.18469" lon="5.28145">
        <ele>1427.6</ele>
        <time>2026-05-14T09:09:19.000Z</time>
      </trkpt>
      <trkpt lat="44.18469" lon="5.28144">
        <ele>1427.4</ele>
        <time>2026-05-14T09:09:20.000Z</time>
      </trkpt>
      <trkpt lat="44.18469" lon="5.28144">
        <ele>1427.5</ele>
        <time>2026-05-14T09:09:21.000Z</time>
      </trkpt>
      <trkpt lat="44.18468" lon="5.28144">
        <ele>1427.3</ele>
        <time>2026-05-14T09:09:22.000Z</time>
      </trkpt>
      <trkpt lat="44.18467" lon="5.28142">
        <ele>1427.1</ele>
        <time>2026-05-14T09:09:23.000Z</time>
      </trkpt>
      <trkpt lat="44.18466" lon="5.28139">
        <ele>1427</ele>
        <time>2026-05-14T09:09:24.000Z</time>
      </trkpt>
      <trkpt lat="44.18466" lon="5.28138">
        <ele>1427</ele>
        <time>2026-05-14T09:09:25.000Z</time>
      </trkpt>
      <trkpt lat="44.18466" lon="5.28137">
        <ele>1427</ele>
        <time>2026-05-14T09:09:26.000Z</time>
      </trkpt>
      <trkpt lat="44.18466" lon="5.28136">
        <ele>1427</ele>
        <time>2026-05-14T09:09:27.000Z</time>
      </trkpt>
      <trkpt lat="44.18466" lon="5.28135">
        <ele>1427.1</ele>
        <time>2026-05-14T09:09:28.000Z</time>
      </trkpt>
      <trkpt lat="44.18465" lon="5.28134">
        <ele>1427.3</ele>
        <time>2026-05-14T09:09:29.000Z</time>
      </trkpt>
      <trkpt lat="44.18463" lon="5.28132">
        <ele>1427.6</ele>
        <time>2026-05-14T09:09:30.000Z</time>
      </trkpt>
      <trkpt lat="44.18462" lon="5.28131">
        <ele>1427.8</ele>
        <time>2026-05-14T09:09:31.000Z</time>
      </trkpt>
      <trkpt lat="44.18462" lon="5.2813">
        <ele>1428</ele>
        <time>2026-05-14T09:09:32.000Z</time>
      </trkpt>
      <trkpt lat="44.18461" lon="5.28129">
        <ele>1428.1</ele>
        <time>2026-05-14T09:09:33.000Z</time>
      </trkpt>
      <trkpt lat="44.1846" lon="5.28128">
        <ele>1428.5</ele>
        <time>2026-05-14T09:09:34.000Z</time>
      </trkpt>
      <trkpt lat="44.1846" lon="5.28128">
        <ele>1428.7</ele>
        <time>2026-05-14T09:09:35.000Z</time>
      </trkpt>
      <trkpt lat="44.1846" lon="5.28128">
        <ele>1428.7</ele>
        <time>2026-05-14T09:09:36.000Z</time>
      </trkpt>
      <trkpt lat="44.1846" lon="5.28128">
        <ele>1428.8</ele>
        <time>2026-05-14T09:09:37.000Z</time>
      </trkpt>
      <trkpt lat="44.1846" lon="5.28128">
        <ele>1429.1</ele>
        <time>2026-05-14T09:09:38.000Z</time>
      </trkpt>
      <trkpt lat="44.1846" lon="5.28128">
        <ele>1429.3</ele>
        <time>2026-05-14T09:09:39.000Z</time>
      </trkpt>
      <trkpt lat="44.1846" lon="5.28128">
        <ele>1429.7</ele>
        <time>2026-05-14T09:09:40.000Z</time>
      </trkpt>
      <trkpt lat="44.1846" lon="5.28128">
        <ele>1429.9</ele>
        <time>2026-05-14T09:09:41.000Z</time>
      </trkpt>
      <trkpt lat="44.18459" lon="5.28128">
        <ele>1430.1</ele>
        <time>2026-05-14T09:09:42.000Z</time>
      </trkpt>
      <trkpt lat="44.18459" lon="5.28129">
        <ele>1430.2</ele>
        <time>2026-05-14T09:09:43.000Z</time>
      </trkpt>
      <trkpt lat="44.18459" lon="5.28128">
        <ele>1430.6</ele>
        <time>2026-05-14T09:09:44.000Z</time>
      </trkpt>
      <trkpt lat="44.18459" lon="5.28128">
        <ele>1431</ele>
        <time>2026-05-14T09:09:45.000Z</time>
      </trkpt>
      <trkpt lat="44.18459" lon="5.28127">
        <ele>1431.2</ele>
        <time>2026-05-14T09:09:46.000Z</time>
      </trkpt>
      <trkpt lat="44.18459" lon="5.28127">
        <ele>1431.2</ele>
        <time>2026-05-14T09:09:47.000Z</time>
      </trkpt>
      <trkpt lat="44.18459" lon="5.28127">
        <ele>1431.3</ele>
        <time>2026-05-14T09:09:48.000Z</time>
      </trkpt>
      <trkpt lat="44.18459" lon="5.28127">
        <ele>1431.3</ele>
        <time>2026-05-14T09:09:49.000Z</time>
      </trkpt>
      <trkpt lat="44.18459" lon="5.28127">
        <ele>1431.4</ele>
        <time>2026-05-14T09:09:50.000Z</time>
      </trkpt>
      <trkpt lat="44.18459" lon="5.28127">
        <ele>1431.7</ele>
        <time>2026-05-14T09:09:51.000Z</time>
      </trkpt>
      <trkpt lat="44.18459" lon="5.28127">
        <ele>1431.9</ele>
        <time>2026-05-14T09:09:52.000Z</time>
      </trkpt>
      <trkpt lat="44.18459" lon="5.28127">
        <ele>1431.8</ele>
        <time>2026-05-14T09:09:53.000Z</time>
      </trkpt>
      <trkpt lat="44.18459" lon="5.28127">
        <ele>1431.8</ele>
        <time>2026-05-14T09:09:54.000Z</time>
      </trkpt>
      <trkpt lat="44.18459" lon="5.28127">
        <ele>1431.7</ele>
        <time>2026-05-14T09:09:55.000Z</time>
      </trkpt>
      <trkpt lat="44.18458" lon="5.28127">
        <ele>1431.6</ele>
        <time>2026-05-14T09:09:56.000Z</time>
      </trkpt>
      <trkpt lat="44.18458" lon="5.28127">
        <ele>1431.5</ele>
        <time>2026-05-14T09:09:57.000Z</time>
      </trkpt>
      <trkpt lat="44.18458" lon="5.28127">
        <ele>1431.5</ele>
        <time>2026-05-14T09:09:58.000Z</time>
      </trkpt>
      <trkpt lat="44.18458" lon="5.28127">
        <ele>1431.6</ele>
        <time>2026-05-14T09:09:59.000Z</time>
      </trkpt>
      <trkpt lat="44.18457" lon="5.28127">
        <ele>1431.6</ele>
        <time>2026-05-14T09:10:00.000Z</time>
      </trkpt>
      <trkpt lat="44.18457" lon="5.28127">
        <ele>1431.6</ele>
        <time>2026-05-14T09:10:01.000Z</time>
      </trkpt>
      <trkpt lat="44.18458" lon="5.28127">
        <ele>1431.6</ele>
        <time>2026-05-14T09:10:02.000Z</time>
      </trkpt>
      <trkpt lat="44.18458" lon="5.28127">
        <ele>1431.5</ele>
        <time>2026-05-14T09:10:03.000Z</time>
      </trkpt>
      <trkpt lat="44.18458" lon="5.28127">
        <ele>1431.4</ele>
        <time>2026-05-14T09:10:04.000Z</time>
      </trkpt>
      <trkpt lat="44.18458" lon="5.28127">
        <ele>1431.3</ele>
        <time>2026-05-14T09:10:05.000Z</time>
      </trkpt>
      <trkpt lat="44.18458" lon="5.28127">
        <ele>1432</ele>
        <time>2026-05-14T09:10:06.000Z</time>
      </trkpt>
      <trkpt lat="44.18458" lon="5.28127">
        <ele>1432.5</ele>
        <time>2026-05-14T09:10:07.000Z</time>
      </trkpt>
      <trkpt lat="44.18458" lon="5.28127">
        <ele>1433</ele>
        <time>2026-05-14T09:10:08.000Z</time>
      </trkpt>
      <trkpt lat="44.18458" lon="5.28127">
        <ele>1433.4</ele>
        <time>2026-05-14T09:10:09.000Z</time>
      </trkpt>
      <trkpt lat="44.18458" lon="5.28127">
        <ele>1433.8</ele>
        <time>2026-05-14T09:10:10.000Z</time>
      </trkpt>
      <trkpt lat="44.18458" lon="5.28127">
        <ele>1434</ele>
        <time>2026-05-14T09:10:11.000Z</time>
      </trkpt>
      <trkpt lat="44.18458" lon="5.28127">
        <ele>1434.4</ele>
        <time>2026-05-14T09:10:12.000Z</time>
      </trkpt>
      <trkpt lat="44.18458" lon="5.28127">
        <ele>1434.8</ele>
        <time>2026-05-14T09:10:13.000Z</time>
      </trkpt>
      <trkpt lat="44.18458" lon="5.28127">
        <ele>1435.2</ele>
        <time>2026-05-14T09:10:14.000Z</time>
      </trkpt>
      <trkpt lat="44.18458" lon="5.28126">
        <ele>1435.5</ele>
        <time>2026-05-14T09:10:15.000Z</time>
      </trkpt>
      <trkpt lat="44.18457" lon="5.28125">
        <ele>1435.7</ele>
        <time>2026-05-14T09:10:16.000Z</time>
      </trkpt>
      <trkpt lat="44.18457" lon="5.28124">
        <ele>1435.7</ele>
        <time>2026-05-14T09:10:17.000Z</time>
      </trkpt>
      <trkpt lat="44.18457" lon="5.28123">
        <ele>1435.9</ele>
        <time>2026-05-14T09:10:18.000Z</time>
      </trkpt>
      <trkpt lat="44.18457" lon="5.28123">
        <ele>1435.9</ele>
        <time>2026-05-14T09:10:19.000Z</time>
      </trkpt>
      <trkpt lat="44.18456" lon="5.28123">
        <ele>1436.4</ele>
        <time>2026-05-14T09:10:20.000Z</time>
      </trkpt>
      <trkpt lat="44.18456" lon="5.28123">
        <ele>1436.3</ele>
        <time>2026-05-14T09:10:21.000Z</time>
      </trkpt>
      <trkpt lat="44.18456" lon="5.28123">
        <ele>1436.4</ele>
        <time>2026-05-14T09:10:22.000Z</time>
      </trkpt>
      <trkpt lat="44.18455" lon="5.28123">
        <ele>1436.6</ele>
        <time>2026-05-14T09:10:23.000Z</time>
      </trkpt>
      <trkpt lat="44.18455" lon="5.28123">
        <ele>1436.8</ele>
        <time>2026-05-14T09:10:24.000Z</time>
      </trkpt>
      <trkpt lat="44.18455" lon="5.28123">
        <ele>1437.1</ele>
        <time>2026-05-14T09:10:26.000Z</time>
      </trkpt>
      <trkpt lat="44.18456" lon="5.28122">
        <ele>1436.6</ele>
        <time>2026-05-14T09:10:27.000Z</time>
      </trkpt>
      <trkpt lat="44.18456" lon="5.28122">
        <ele>1436.4</ele>
        <time>2026-05-14T09:10:28.000Z</time>
      </trkpt>
      <trkpt lat="44.18456" lon="5.28122">
        <ele>1436.6</ele>
        <time>2026-05-14T09:10:29.000Z</time>
      </trkpt>
      <trkpt lat="44.18456" lon="5.28122">
        <ele>1436.7</ele>
        <time>2026-05-14T09:10:30.000Z</time>
      </trkpt>
      <trkpt lat="44.18456" lon="5.28123">
        <ele>1437.3</ele>
        <time>2026-05-14T09:10:31.000Z</time>
      </trkpt>
      <trkpt lat="44.18456" lon="5.28123">
        <ele>1437.6</ele>
        <time>2026-05-14T09:10:32.000Z</time>
      </trkpt>
      <trkpt lat="44.18456" lon="5.28123">
        <ele>1437.6</ele>
        <time>2026-05-14T09:10:33.000Z</time>
      </trkpt>
      <trkpt lat="44.18456" lon="5.28123">
        <ele>1437.6</ele>
        <time>2026-05-14T09:10:34.000Z</time>
      </trkpt>
      <trkpt lat="44.18456" lon="5.28123">
        <ele>1437.8</ele>
        <time>2026-05-14T09:10:35.000Z</time>
      </trkpt>
      <trkpt lat="44.18456" lon="5.28123">
        <ele>1438</ele>
        <time>2026-05-14T09:10:36.000Z</time>
      </trkpt>
      <trkpt lat="44.18456" lon="5.28123">
        <ele>1438.3</ele>
        <time>2026-05-14T09:10:37.000Z</time>
      </trkpt>
      <trkpt lat="44.18456" lon="5.28123">
        <ele>1438.5</ele>
        <time>2026-05-14T09:10:38.000Z</time>
      </trkpt>
      <trkpt lat="44.18456" lon="5.28123">
        <ele>1438.7</ele>
        <time>2026-05-14T09:10:39.000Z</time>
      </trkpt>
      <trkpt lat="44.18456" lon="5.28123">
        <ele>1439</ele>
        <time>2026-05-14T09:10:40.000Z</time>
      </trkpt>
      <trkpt lat="44.18456" lon="5.28123">
        <ele>1439.3</ele>
        <time>2026-05-14T09:10:41.000Z</time>
      </trkpt>
      <trkpt lat="44.18456" lon="5.28123">
        <ele>1439.4</ele>
        <time>2026-05-14T09:10:42.000Z</time>
      </trkpt>
      <trkpt lat="44.18456" lon="5.28123">
        <ele>1439.6</ele>
        <time>2026-05-14T09:10:43.000Z</time>
      </trkpt>
      <trkpt lat="44.18456" lon="5.28122">
        <ele>1439.7</ele>
        <time>2026-05-14T09:10:44.000Z</time>
      </trkpt>
      <trkpt lat="44.18456" lon="5.28122">
        <ele>1439.4</ele>
        <time>2026-05-14T09:10:45.000Z</time>
      </trkpt>
      <trkpt lat="44.18456" lon="5.28122">
        <ele>1439.5</ele>
        <time>2026-05-14T09:10:46.000Z</time>
      </trkpt>
      <trkpt lat="44.18456" lon="5.28122">
        <ele>1439.8</ele>
        <time>2026-05-14T09:10:48.000Z</time>
      </trkpt>
      <trkpt lat="44.18456" lon="5.28122">
        <ele>1439.8</ele>
        <time>2026-05-14T09:10:49.000Z</time>
      </trkpt>
      <trkpt lat="44.18456" lon="5.28122">
        <ele>1439.8</ele>
        <time>2026-05-14T09:10:50.000Z</time>
      </trkpt>
      <trkpt lat="44.18456" lon="5.28123">
        <ele>1439.7</ele>
        <time>2026-05-14T09:10:51.000Z</time>
      </trkpt>
      <trkpt lat="44.18456" lon="5.28123">
        <ele>1439.7</ele>
        <time>2026-05-14T09:10:52.000Z</time>
      </trkpt>
      <trkpt lat="44.18456" lon="5.28123">
        <ele>1439.9</ele>
        <time>2026-05-14T09:10:53.000Z</time>
      </trkpt>
      <trkpt lat="44.18456" lon="5.28123">
        <ele>1440</ele>
        <time>2026-05-14T09:10:54.000Z</time>
      </trkpt>
      <trkpt lat="44.18456" lon="5.28123">
        <ele>1439.8</ele>
        <time>2026-05-14T09:10:55.000Z</time>
      </trkpt>
      <trkpt lat="44.18456" lon="5.28122">
        <ele>1440.2</ele>
        <time>2026-05-14T09:10:56.000Z</time>
      </trkpt>
      <trkpt lat="44.18456" lon="5.28122">
        <ele>1440.5</ele>
        <time>2026-05-14T09:10:57.000Z</time>
      </trkpt>
      <trkpt lat="44.18457" lon="5.28122">
        <ele>1440.8</ele>
        <time>2026-05-14T09:10:58.000Z</time>
      </trkpt>
      <trkpt lat="44.18457" lon="5.28121">
        <ele>1440.9</ele>
        <time>2026-05-14T09:11:00.000Z</time>
      </trkpt>
      <trkpt lat="44.18457" lon="5.2812">
        <ele>1440.6</ele>
        <time>2026-05-14T09:11:01.000Z</time>
      </trkpt>
      <trkpt lat="44.18457" lon="5.2812">
        <ele>1440.7</ele>
        <time>2026-05-14T09:11:02.000Z</time>
      </trkpt>
      <trkpt lat="44.18457" lon="5.2812">
        <ele>1440.7</ele>
        <time>2026-05-14T09:11:03.000Z</time>
      </trkpt>
      <trkpt lat="44.18457" lon="5.2812">
        <ele>1440.7</ele>
        <time>2026-05-14T09:11:04.000Z</time>
      </trkpt>
      <trkpt lat="44.18457" lon="5.2812">
        <ele>1440.8</ele>
        <time>2026-05-14T09:11:05.000Z</time>
      </trkpt>
      <trkpt lat="44.18457" lon="5.2812">
        <ele>1440.6</ele>
        <time>2026-05-14T09:11:06.000Z</time>
      </trkpt>
      <trkpt lat="44.18457" lon="5.2812">
        <ele>1440.4</ele>
        <time>2026-05-14T09:11:07.000Z</time>
      </trkpt>
      <trkpt lat="44.18457" lon="5.2812">
        <ele>1440.3</ele>
        <time>2026-05-14T09:11:08.000Z</time>
      </trkpt>
      <trkpt lat="44.18457" lon="5.2812">
        <ele>1440.4</ele>
        <time>2026-05-14T09:11:09.000Z</time>
      </trkpt>
      <trkpt lat="44.18457" lon="5.2812">
        <ele>1440.4</ele>
        <time>2026-05-14T09:11:10.000Z</time>
      </trkpt>
      <trkpt lat="44.18457" lon="5.2812">
        <ele>1440.3</ele>
        <time>2026-05-14T09:11:11.000Z</time>
      </trkpt>
      <trkpt lat="44.18457" lon="5.2812">
        <ele>1440.4</ele>
        <time>2026-05-14T09:11:12.000Z</time>
      </trkpt>
      <trkpt lat="44.18457" lon="5.2812">
        <ele>1440.5</ele>
        <time>2026-05-14T09:11:13.000Z</time>
      </trkpt>
      <trkpt lat="44.18457" lon="5.2812">
        <ele>1440.5</ele>
        <time>2026-05-14T09:11:14.000Z</time>
      </trkpt>
      <trkpt lat="44.18457" lon="5.2812">
        <ele>1440.4</ele>
        <time>2026-05-14T09:11:15.000Z</time>
      </trkpt>
      <trkpt lat="44.18457" lon="5.2812">
        <ele>1440.3</ele>
        <time>2026-05-14T09:11:16.000Z</time>
      </trkpt>
      <trkpt lat="44.18457" lon="5.2812">
        <ele>1440.7</ele>
        <time>2026-05-14T09:11:17.000Z</time>
      </trkpt>
      <trkpt lat="44.18457" lon="5.2812">
        <ele>1441</ele>
        <time>2026-05-14T09:11:18.000Z</time>
      </trkpt>
      <trkpt lat="44.18457" lon="5.2812">
        <ele>1441.3</ele>
        <time>2026-05-14T09:11:19.000Z</time>
      </trkpt>
      <trkpt lat="44.18457" lon="5.28121">
        <ele>1441.5</ele>
        <time>2026-05-14T09:11:20.000Z</time>
      </trkpt>
      <trkpt lat="44.18457" lon="5.28121">
        <ele>1441.6</ele>
        <time>2026-05-14T09:11:21.000Z</time>
      </trkpt>
      <trkpt lat="44.18457" lon="5.28121">
        <ele>1441.7</ele>
        <time>2026-05-14T09:11:22.000Z</time>
      </trkpt>
      <trkpt lat="44.18457" lon="5.28121">
        <ele>1441.9</ele>
        <time>2026-05-14T09:11:23.000Z</time>
      </trkpt>
      <trkpt lat="44.18457" lon="5.28121">
        <ele>1441.9</ele>
        <time>2026-05-14T09:11:24.000Z</time>
      </trkpt>
      <trkpt lat="44.18457" lon="5.28121">
        <ele>1441.5</ele>
        <time>2026-05-14T09:11:25.000Z</time>
      </trkpt>
      <trkpt lat="44.18457" lon="5.28121">
        <ele>1441.2</ele>
        <time>2026-05-14T09:11:26.000Z</time>
      </trkpt>
      <trkpt lat="44.18457" lon="5.2812">
        <ele>1441.2</ele>
        <time>2026-05-14T09:11:27.000Z</time>
      </trkpt>
      <trkpt lat="44.18457" lon="5.2812">
        <ele>1441.4</ele>
        <time>2026-05-14T09:11:28.000Z</time>
      </trkpt>
      <trkpt lat="44.18457" lon="5.2812">
        <ele>1441.4</ele>
        <time>2026-05-14T09:11:29.000Z</time>
      </trkpt>
      <trkpt lat="44.18457" lon="5.2812">
        <ele>1441.3</ele>
        <time>2026-05-14T09:11:30.000Z</time>
      </trkpt>
      <trkpt lat="44.18457" lon="5.2812">
        <ele>1441.2</ele>
        <time>2026-05-14T09:11:31.000Z</time>
      </trkpt>
      <trkpt lat="44.18457" lon="5.28121">
        <ele>1441.2</ele>
        <time>2026-05-14T09:11:32.000Z</time>
      </trkpt>
      <trkpt lat="44.18457" lon="5.28121">
        <ele>1441</ele>
        <time>2026-05-14T09:11:33.000Z</time>
      </trkpt>
      <trkpt lat="44.18457" lon="5.28121">
        <ele>1440.8</ele>
        <time>2026-05-14T09:11:34.000Z</time>
      </trkpt>
      <trkpt lat="44.18457" lon="5.28121">
        <ele>1440.5</ele>
        <time>2026-05-14T09:11:35.000Z</time>
      </trkpt>
      <trkpt lat="44.18457" lon="5.28121">
        <ele>1440.2</ele>
        <time>2026-05-14T09:11:36.000Z</time>
      </trkpt>
      <trkpt lat="44.18457" lon="5.28121">
        <ele>1440.2</ele>
        <time>2026-05-14T09:11:37.000Z</time>
      </trkpt>
      <trkpt lat="44.18457" lon="5.28121">
        <ele>1440.1</ele>
        <time>2026-05-14T09:11:38.000Z</time>
      </trkpt>
      <trkpt lat="44.18457" lon="5.28122">
        <ele>1440.2</ele>
        <time>2026-05-14T09:11:39.000Z</time>
      </trkpt>
      <trkpt lat="44.18457" lon="5.28123">
        <ele>1440.2</ele>
        <time>2026-05-14T09:11:40.000Z</time>
      </trkpt>
      <trkpt lat="44.18458" lon="5.28123">
        <ele>1440</ele>
        <time>2026-05-14T09:11:41.000Z</time>
      </trkpt>
      <trkpt lat="44.18458" lon="5.28124">
        <ele>1440.3</ele>
        <time>2026-05-14T09:11:42.000Z</time>
      </trkpt>
      <trkpt lat="44.18458" lon="5.28124">
        <ele>1440.7</ele>
        <time>2026-05-14T09:11:43.000Z</time>
      </trkpt>
      <trkpt lat="44.18458" lon="5.28124">
        <ele>1440.7</ele>
        <time>2026-05-14T09:11:44.000Z</time>
      </trkpt>
      <trkpt lat="44.18458" lon="5.28124">
        <ele>1440.8</ele>
        <time>2026-05-14T09:11:45.000Z</time>
      </trkpt>
      <trkpt lat="44.18458" lon="5.28124">
        <ele>1440.8</ele>
        <time>2026-05-14T09:11:46.000Z</time>
      </trkpt>
      <trkpt lat="44.18458" lon="5.28123">
        <ele>1441</ele>
        <time>2026-05-14T09:11:47.000Z</time>
      </trkpt>
      <trkpt lat="44.18458" lon="5.28123">
        <ele>1440.8</ele>
        <time>2026-05-14T09:11:48.000Z</time>
      </trkpt>
      <trkpt lat="44.18458" lon="5.28122">
        <ele>1440.8</ele>
        <time>2026-05-14T09:11:49.000Z</time>
      </trkpt>
      <trkpt lat="44.18458" lon="5.28122">
        <ele>1440.6</ele>
        <time>2026-05-14T09:11:50.000Z</time>
      </trkpt>
      <trkpt lat="44.18459" lon="5.28121">
        <ele>1440.5</ele>
        <time>2026-05-14T09:11:51.000Z</time>
      </trkpt>
      <trkpt lat="44.18459" lon="5.2812">
        <ele>1440.6</ele>
        <time>2026-05-14T09:11:52.000Z</time>
      </trkpt>
      <trkpt lat="44.18459" lon="5.28119">
        <ele>1440.7</ele>
        <time>2026-05-14T09:11:53.000Z</time>
      </trkpt>
      <trkpt lat="44.18459" lon="5.28119">
        <ele>1440.9</ele>
        <time>2026-05-14T09:11:54.000Z</time>
      </trkpt>
      <trkpt lat="44.1846" lon="5.28119">
        <ele>1440.9</ele>
        <time>2026-05-14T09:11:55.000Z</time>
      </trkpt>
      <trkpt lat="44.18461" lon="5.2812">
        <ele>1441</ele>
        <time>2026-05-14T09:11:56.000Z</time>
      </trkpt>
      <trkpt lat="44.1846" lon="5.2812">
        <ele>1440.9</ele>
        <time>2026-05-14T09:11:57.000Z</time>
      </trkpt>
      <trkpt lat="44.1846" lon="5.28119">
        <ele>1441</ele>
        <time>2026-05-14T09:11:58.000Z</time>
      </trkpt>
      <trkpt lat="44.1846" lon="5.28119">
        <ele>1441</ele>
        <time>2026-05-14T09:11:59.000Z</time>
      </trkpt>
      <trkpt lat="44.1846" lon="5.28119">
        <ele>1440.8</ele>
        <time>2026-05-14T09:12:00.000Z</time>
      </trkpt>
      <trkpt lat="44.1846" lon="5.28119">
        <ele>1440.9</ele>
        <time>2026-05-14T09:12:01.000Z</time>
      </trkpt>
      <trkpt lat="44.1846" lon="5.28119">
        <ele>1440.7</ele>
        <time>2026-05-14T09:12:02.000Z</time>
      </trkpt>
      <trkpt lat="44.1846" lon="5.28118">
        <ele>1441.1</ele>
        <time>2026-05-14T09:12:03.000Z</time>
      </trkpt>
      <trkpt lat="44.1846" lon="5.28118">
        <ele>1441.1</ele>
        <time>2026-05-14T09:12:04.000Z</time>
      </trkpt>
      <trkpt lat="44.1846" lon="5.28118">
        <ele>1441.2</ele>
        <time>2026-05-14T09:12:05.000Z</time>
      </trkpt>
      <trkpt lat="44.18459" lon="5.28118">
        <ele>1441.3</ele>
        <time>2026-05-14T09:12:06.000Z</time>
      </trkpt>
      <trkpt lat="44.18459" lon="5.28118">
        <ele>1441</ele>
        <time>2026-05-14T09:12:07.000Z</time>
      </trkpt>
      <trkpt lat="44.18459" lon="5.28118">
        <ele>1440.9</ele>
        <time>2026-05-14T09:12:08.000Z</time>
      </trkpt>
      <trkpt lat="44.18458" lon="5.28118">
        <ele>1440.9</ele>
        <time>2026-05-14T09:12:09.000Z</time>
      </trkpt>
      <trkpt lat="44.18458" lon="5.28118">
        <ele>1440.9</ele>
        <time>2026-05-14T09:12:10.000Z</time>
      </trkpt>
      <trkpt lat="44.18458" lon="5.28118">
        <ele>1441</ele>
        <time>2026-05-14T09:12:11.000Z</time>
      </trkpt>
      <trkpt lat="44.18458" lon="5.28119">
        <ele>1441.1</ele>
        <time>2026-05-14T09:12:12.000Z</time>
      </trkpt>
      <trkpt lat="44.18458" lon="5.28118">
        <ele>1441</ele>
        <time>2026-05-14T09:12:13.000Z</time>
      </trkpt>
      <trkpt lat="44.18458" lon="5.28119">
        <ele>1441.1</ele>
        <time>2026-05-14T09:12:14.000Z</time>
      </trkpt>
      <trkpt lat="44.18457" lon="5.2812">
        <ele>1440.7</ele>
        <time>2026-05-14T09:12:15.000Z</time>
      </trkpt>
      <trkpt lat="44.18456" lon="5.28121">
        <ele>1440</ele>
        <time>2026-05-14T09:12:16.000Z</time>
      </trkpt>
      <trkpt lat="44.18456" lon="5.28121">
        <ele>1439.9</ele>
        <time>2026-05-14T09:12:17.000Z</time>
      </trkpt>
      <trkpt lat="44.18457" lon="5.28122">
        <ele>1439.7</ele>
        <time>2026-05-14T09:12:18.000Z</time>
      </trkpt>
      <trkpt lat="44.18458" lon="5.28122">
        <ele>1439.4</ele>
        <time>2026-05-14T09:12:19.000Z</time>
      </trkpt>
      <trkpt lat="44.18458" lon="5.28122">
        <ele>1439.4</ele>
        <time>2026-05-14T09:12:20.000Z</time>
      </trkpt>
      <trkpt lat="44.18458" lon="5.28122">
        <ele>1439.6</ele>
        <time>2026-05-14T09:12:21.000Z</time>
      </trkpt>
      <trkpt lat="44.18458" lon="5.28122">
        <ele>1439.6</ele>
        <time>2026-05-14T09:12:22.000Z</time>
      </trkpt>
      <trkpt lat="44.18458" lon="5.28122">
        <ele>1439.6</ele>
        <time>2026-05-14T09:12:23.000Z</time>
      </trkpt>
      <trkpt lat="44.18457" lon="5.28122">
        <ele>1439.7</ele>
        <time>2026-05-14T09:12:24.000Z</time>
      </trkpt>
      <trkpt lat="44.18457" lon="5.28121">
        <ele>1439.9</ele>
        <time>2026-05-14T09:12:25.000Z</time>
      </trkpt>
      <trkpt lat="44.18457" lon="5.28121">
        <ele>1439.9</ele>
        <time>2026-05-14T09:12:26.000Z</time>
      </trkpt>
      <trkpt lat="44.18457" lon="5.28121">
        <ele>1440</ele>
        <time>2026-05-14T09:12:27.000Z</time>
      </trkpt>
      <trkpt lat="44.18457" lon="5.28121">
        <ele>1439.7</ele>
        <time>2026-05-14T09:12:28.000Z</time>
      </trkpt>
      <trkpt lat="44.18457" lon="5.28122">
        <ele>1439.6</ele>
        <time>2026-05-14T09:12:29.000Z</time>
      </trkpt>
      <trkpt lat="44.18457" lon="5.28122">
        <ele>1439.5</ele>
        <time>2026-05-14T09:12:30.000Z</time>
      </trkpt>
      <trkpt lat="44.18457" lon="5.28122">
        <ele>1439.5</ele>
        <time>2026-05-14T09:12:31.000Z</time>
      </trkpt>
      <trkpt lat="44.18457" lon="5.28122">
        <ele>1439.5</ele>
        <time>2026-05-14T09:12:32.000Z</time>
      </trkpt>
      <trkpt lat="44.18457" lon="5.28122">
        <ele>1439.6</ele>
        <time>2026-05-14T09:12:33.000Z</time>
      </trkpt>
      <trkpt lat="44.18457" lon="5.28122">
        <ele>1439.6</ele>
        <time>2026-05-14T09:12:34.000Z</time>
      </trkpt>
      <trkpt lat="44.18457" lon="5.28122">
        <ele>1439.5</ele>
        <time>2026-05-14T09:12:35.000Z</time>
      </trkpt>
      <trkpt lat="44.18457" lon="5.28122">
        <ele>1439.7</ele>
        <time>2026-05-14T09:12:36.000Z</time>
      </trkpt>
      <trkpt lat="44.18457" lon="5.28122">
        <ele>1440</ele>
        <time>2026-05-14T09:12:37.000Z</time>
      </trkpt>
      <trkpt lat="44.18457" lon="5.28122">
        <ele>1440.2</ele>
        <time>2026-05-14T09:12:38.000Z</time>
      </trkpt>
      <trkpt lat="44.18457" lon="5.28122">
        <ele>1440.6</ele>
        <time>2026-05-14T09:12:39.000Z</time>
      </trkpt>
      <trkpt lat="44.18457" lon="5.28122">
        <ele>1440.8</ele>
        <time>2026-05-14T09:12:40.000Z</time>
      </trkpt>
      <trkpt lat="44.18457" lon="5.28122">
        <ele>1440.5</ele>
        <time>2026-05-14T09:12:41.000Z</time>
      </trkpt>
      <trkpt lat="44.18457" lon="5.28122">
        <ele>1440.6</ele>
        <time>2026-05-14T09:12:42.000Z</time>
      </trkpt>
      <trkpt lat="44.18457" lon="5.28122">
        <ele>1440.5</ele>
        <time>2026-05-14T09:12:43.000Z</time>
      </trkpt>
      <trkpt lat="44.18457" lon="5.28122">
        <ele>1440.9</ele>
        <time>2026-05-14T09:12:44.000Z</time>
      </trkpt>
      <trkpt lat="44.18457" lon="5.28122">
        <ele>1441.6</ele>
        <time>2026-05-14T09:12:45.000Z</time>
      </trkpt>
      <trkpt lat="44.18457" lon="5.28122">
        <ele>1441.6</ele>
        <time>2026-05-14T09:12:46.000Z</time>
      </trkpt>
      <trkpt lat="44.18457" lon="5.28122">
        <ele>1441.8</ele>
        <time>2026-05-14T09:12:47.000Z</time>
      </trkpt>
      <trkpt lat="44.18457" lon="5.28122">
        <ele>1441.8</ele>
        <time>2026-05-14T09:12:48.000Z</time>
      </trkpt>
      <trkpt lat="44.18457" lon="5.28123">
        <ele>1442.1</ele>
        <time>2026-05-14T09:12:49.000Z</time>
      </trkpt>
      <trkpt lat="44.18457" lon="5.28122">
        <ele>1442.3</ele>
        <time>2026-05-14T09:12:50.000Z</time>
      </trkpt>
      <trkpt lat="44.18457" lon="5.28122">
        <ele>1442.5</ele>
        <time>2026-05-14T09:12:51.000Z</time>
      </trkpt>
      <trkpt lat="44.18457" lon="5.28122">
        <ele>1442.1</ele>
        <time>2026-05-14T09:12:52.000Z</time>
      </trkpt>
      <trkpt lat="44.18457" lon="5.28122">
        <ele>1441.6</ele>
        <time>2026-05-14T09:12:53.000Z</time>
      </trkpt>
      <trkpt lat="44.18457" lon="5.28122">
        <ele>1441.7</ele>
        <time>2026-05-14T09:12:54.000Z</time>
      </trkpt>
      <trkpt lat="44.18457" lon="5.28122">
        <ele>1441.6</ele>
        <time>2026-05-14T09:12:55.000Z</time>
      </trkpt>
      <trkpt lat="44.18457" lon="5.28122">
        <ele>1441.7</ele>
        <time>2026-05-14T09:12:56.000Z</time>
      </trkpt>
      <trkpt lat="44.18457" lon="5.28122">
        <ele>1441.5</ele>
        <time>2026-05-14T09:12:57.000Z</time>
      </trkpt>
      <trkpt lat="44.18457" lon="5.28122">
        <ele>1441.4</ele>
        <time>2026-05-14T09:12:58.000Z</time>
      </trkpt>
      <trkpt lat="44.18457" lon="5.28122">
        <ele>1441.2</ele>
        <time>2026-05-14T09:12:59.000Z</time>
      </trkpt>
      <trkpt lat="44.18457" lon="5.28122">
        <ele>1441.3</ele>
        <time>2026-05-14T09:13:00.000Z</time>
      </trkpt>
      <trkpt lat="44.18457" lon="5.28122">
        <ele>1441.4</ele>
        <time>2026-05-14T09:13:01.000Z</time>
      </trkpt>
      <trkpt lat="44.18457" lon="5.28122">
        <ele>1441.7</ele>
        <time>2026-05-14T09:13:02.000Z</time>
      </trkpt>
      <trkpt lat="44.18457" lon="5.28122">
        <ele>1441.7</ele>
        <time>2026-05-14T09:13:03.000Z</time>
      </trkpt>
      <trkpt lat="44.18457" lon="5.28122">
        <ele>1441.6</ele>
        <time>2026-05-14T09:13:04.000Z</time>
      </trkpt>
      <trkpt lat="44.18457" lon="5.28122">
        <ele>1441.7</ele>
        <time>2026-05-14T09:13:05.000Z</time>
      </trkpt>
      <trkpt lat="44.18457" lon="5.28122">
        <ele>1441.2</ele>
        <time>2026-05-14T09:13:06.000Z</time>
      </trkpt>
      <trkpt lat="44.18457" lon="5.28122">
        <ele>1440.5</ele>
        <time>2026-05-14T09:13:07.000Z</time>
      </trkpt>
      <trkpt lat="44.18457" lon="5.28122">
        <ele>1440.1</ele>
        <time>2026-05-14T09:13:08.000Z</time>
      </trkpt>
      <trkpt lat="44.18457" lon="5.28122">
        <ele>1439.9</ele>
        <time>2026-05-14T09:13:09.000Z</time>
      </trkpt>
      <trkpt lat="44.18457" lon="5.28122">
        <ele>1439.8</ele>
        <time>2026-05-14T09:13:10.000Z</time>
      </trkpt>
      <trkpt lat="44.18457" lon="5.28122">
        <ele>1439.5</ele>
        <time>2026-05-14T09:13:11.000Z</time>
      </trkpt>
      <trkpt lat="44.18457" lon="5.28122">
        <ele>1438.9</ele>
        <time>2026-05-14T09:13:12.000Z</time>
      </trkpt>
      <trkpt lat="44.18457" lon="5.28122">
        <ele>1438.5</ele>
        <time>2026-05-14T09:13:13.000Z</time>
      </trkpt>
      <trkpt lat="44.18457" lon="5.28122">
        <ele>1438</ele>
        <time>2026-05-14T09:13:14.000Z</time>
      </trkpt>
      <trkpt lat="44.18457" lon="5.28122">
        <ele>1437.8</ele>
        <time>2026-05-14T09:13:15.000Z</time>
      </trkpt>
      <trkpt lat="44.18457" lon="5.28122">
        <ele>1437.6</ele>
        <time>2026-05-14T09:13:16.000Z</time>
      </trkpt>
      <trkpt lat="44.18457" lon="5.28122">
        <ele>1437.6</ele>
        <time>2026-05-14T09:13:17.000Z</time>
      </trkpt>
      <trkpt lat="44.18457" lon="5.28122">
        <ele>1437.5</ele>
        <time>2026-05-14T09:13:18.000Z</time>
      </trkpt>
      <trkpt lat="44.18457" lon="5.28122">
        <ele>1437.6</ele>
        <time>2026-05-14T09:13:19.000Z</time>
      </trkpt>
      <trkpt lat="44.18457" lon="5.28122">
        <ele>1437.4</ele>
        <time>2026-05-14T09:13:20.000Z</time>
      </trkpt>
      <trkpt lat="44.18457" lon="5.28122">
        <ele>1437.5</ele>
        <time>2026-05-14T09:13:21.000Z</time>
      </trkpt>
      <trkpt lat="44.18457" lon="5.28122">
        <ele>1437.6</ele>
        <time>2026-05-14T09:13:22.000Z</time>
      </trkpt>
      <trkpt lat="44.18457" lon="5.28122">
        <ele>1437.6</ele>
        <time>2026-05-14T09:13:23.000Z</time>
      </trkpt>
      <trkpt lat="44.18457" lon="5.28122">
        <ele>1437.5</ele>
        <time>2026-05-14T09:13:24.000Z</time>
      </trkpt>
      <trkpt lat="44.18457" lon="5.28122">
        <ele>1437.5</ele>
        <time>2026-05-14T09:13:25.000Z</time>
      </trkpt>
      <trkpt lat="44.18457" lon="5.28122">
        <ele>1437.3</ele>
        <time>2026-05-14T09:13:26.000Z</time>
      </trkpt>
      <trkpt lat="44.18457" lon="5.28122">
        <ele>1437.1</ele>
        <time>2026-05-14T09:13:27.000Z</time>
      </trkpt>
      <trkpt lat="44.18457" lon="5.28122">
        <ele>1437.1</ele>
        <time>2026-05-14T09:13:28.000Z</time>
      </trkpt>
      <trkpt lat="44.18457" lon="5.28122">
        <ele>1437.1</ele>
        <time>2026-05-14T09:13:29.000Z</time>
      </trkpt>
      <trkpt lat="44.18457" lon="5.28122">
        <ele>1437.1</ele>
        <time>2026-05-14T09:13:30.000Z</time>
      </trkpt>
      <trkpt lat="44.18457" lon="5.28122">
        <ele>1437.2</ele>
        <time>2026-05-14T09:13:31.000Z</time>
      </trkpt>
      <trkpt lat="44.18457" lon="5.28122">
        <ele>1437.2</ele>
        <time>2026-05-14T09:13:32.000Z</time>
      </trkpt>
      <trkpt lat="44.18457" lon="5.28122">
        <ele>1437.1</ele>
        <time>2026-05-14T09:13:33.000Z</time>
      </trkpt>
      <trkpt lat="44.18457" lon="5.28122">
        <ele>1437</ele>
        <time>2026-05-14T09:13:34.000Z</time>
      </trkpt>
      <trkpt lat="44.18457" lon="5.28122">
        <ele>1437</ele>
        <time>2026-05-14T09:13:35.000Z</time>
      </trkpt>
      <trkpt lat="44.18457" lon="5.28122">
        <ele>1437</ele>
        <time>2026-05-14T09:13:36.000Z</time>
      </trkpt>
      <trkpt lat="44.18457" lon="5.28122">
        <ele>1437</ele>
        <time>2026-05-14T09:13:37.000Z</time>
      </trkpt>
      <trkpt lat="44.18457" lon="5.28122">
        <ele>1436.9</ele>
        <time>2026-05-14T09:13:38.000Z</time>
      </trkpt>
      <trkpt lat="44.18457" lon="5.28122">
        <ele>1437</ele>
        <time>2026-05-14T09:13:39.000Z</time>
      </trkpt>
      <trkpt lat="44.18457" lon="5.28122">
        <ele>1437</ele>
        <time>2026-05-14T09:13:40.000Z</time>
      </trkpt>
      <trkpt lat="44.18457" lon="5.28122">
        <ele>1437.1</ele>
        <time>2026-05-14T09:13:41.000Z</time>
      </trkpt>
      <trkpt lat="44.18457" lon="5.28122">
        <ele>1437</ele>
        <time>2026-05-14T09:13:42.000Z</time>
      </trkpt>
      <trkpt lat="44.18457" lon="5.28122">
        <ele>1436.8</ele>
        <time>2026-05-14T09:13:43.000Z</time>
      </trkpt>
      <trkpt lat="44.18457" lon="5.28122">
        <ele>1436.7</ele>
        <time>2026-05-14T09:13:44.000Z</time>
      </trkpt>
      <trkpt lat="44.18457" lon="5.28122">
        <ele>1436.8</ele>
        <time>2026-05-14T09:13:45.000Z</time>
      </trkpt>
      <trkpt lat="44.18457" lon="5.28122">
        <ele>1436.8</ele>
        <time>2026-05-14T09:13:46.000Z</time>
      </trkpt>
      <trkpt lat="44.18457" lon="5.28122">
        <ele>1436.8</ele>
        <time>2026-05-14T09:13:47.000Z</time>
      </trkpt>
      <trkpt lat="44.18457" lon="5.28122">
        <ele>1437</ele>
        <time>2026-05-14T09:13:48.000Z</time>
      </trkpt>
      <trkpt lat="44.18457" lon="5.28122">
        <ele>1437.1</ele>
        <time>2026-05-14T09:13:49.000Z</time>
      </trkpt>
      <trkpt lat="44.18457" lon="5.28122">
        <ele>1437.2</ele>
        <time>2026-05-14T09:13:50.000Z</time>
      </trkpt>
      <trkpt lat="44.18457" lon="5.28122">
        <ele>1437.3</ele>
        <time>2026-05-14T09:13:51.000Z</time>
      </trkpt>
      <trkpt lat="44.18457" lon="5.28122">
        <ele>1437.7</ele>
        <time>2026-05-14T09:13:52.000Z</time>
      </trkpt>
      <trkpt lat="44.18457" lon="5.28122">
        <ele>1438.2</ele>
        <time>2026-05-14T09:13:53.000Z</time>
      </trkpt>
      <trkpt lat="44.18457" lon="5.28122">
        <ele>1438.4</ele>
        <time>2026-05-14T09:13:54.000Z</time>
      </trkpt>
      <trkpt lat="44.18457" lon="5.28122">
        <ele>1438.8</ele>
        <time>2026-05-14T09:13:55.000Z</time>
      </trkpt>
      <trkpt lat="44.18457" lon="5.28122">
        <ele>1439</ele>
        <time>2026-05-14T09:13:56.000Z</time>
      </trkpt>
      <trkpt lat="44.18457" lon="5.28121">
        <ele>1439</ele>
        <time>2026-05-14T09:13:57.000Z</time>
      </trkpt>
      <trkpt lat="44.18457" lon="5.28121">
        <ele>1439</ele>
        <time>2026-05-14T09:13:59.000Z</time>
      </trkpt>
      <trkpt lat="44.18457" lon="5.28121">
        <ele>1439</ele>
        <time>2026-05-14T09:14:00.000Z</time>
      </trkpt>
      <trkpt lat="44.18457" lon="5.28121">
        <ele>1438.9</ele>
        <time>2026-05-14T09:14:01.000Z</time>
      </trkpt>
      <trkpt lat="44.18457" lon="5.28121">
        <ele>1438.9</ele>
        <time>2026-05-14T09:14:02.000Z</time>
      </trkpt>
      <trkpt lat="44.18457" lon="5.28121">
        <ele>1439.9</ele>
        <time>2026-05-14T09:14:03.000Z</time>
      </trkpt>
      <trkpt lat="44.18457" lon="5.28121">
        <ele>1439.7</ele>
        <time>2026-05-14T09:14:04.000Z</time>
      </trkpt>
      <trkpt lat="44.18457" lon="5.28121">
        <ele>1439.4</ele>
        <time>2026-05-14T09:14:05.000Z</time>
      </trkpt>
      <trkpt lat="44.18457" lon="5.28121">
        <ele>1439.2</ele>
        <time>2026-05-14T09:14:06.000Z</time>
      </trkpt>
      <trkpt lat="44.18457" lon="5.28121">
        <ele>1439</ele>
        <time>2026-05-14T09:14:07.000Z</time>
      </trkpt>
      <trkpt lat="44.18457" lon="5.28121">
        <ele>1439</ele>
        <time>2026-05-14T09:14:08.000Z</time>
      </trkpt>
      <trkpt lat="44.18457" lon="5.28122">
        <ele>1438.9</ele>
        <time>2026-05-14T09:14:09.000Z</time>
      </trkpt>
      <trkpt lat="44.18457" lon="5.28121">
        <ele>1438.7</ele>
        <time>2026-05-14T09:14:10.000Z</time>
      </trkpt>
      <trkpt lat="44.18457" lon="5.28121">
        <ele>1438.7</ele>
        <time>2026-05-14T09:14:11.000Z</time>
      </trkpt>
      <trkpt lat="44.18457" lon="5.28121">
        <ele>1438.7</ele>
        <time>2026-05-14T09:14:12.000Z</time>
      </trkpt>
      <trkpt lat="44.18458" lon="5.28121">
        <ele>1439.2</ele>
        <time>2026-05-14T09:14:13.000Z</time>
      </trkpt>
      <trkpt lat="44.18459" lon="5.28122">
        <ele>1439.4</ele>
        <time>2026-05-14T09:14:14.000Z</time>
      </trkpt>
      <trkpt lat="44.18459" lon="5.28122">
        <ele>1439.3</ele>
        <time>2026-05-14T09:14:15.000Z</time>
      </trkpt>
      <trkpt lat="44.18459" lon="5.28122">
        <ele>1439.7</ele>
        <time>2026-05-14T09:14:17.000Z</time>
      </trkpt>
      <trkpt lat="44.18459" lon="5.28121">
        <ele>1439.6</ele>
        <time>2026-05-14T09:14:18.000Z</time>
      </trkpt>
      <trkpt lat="44.18459" lon="5.28121">
        <ele>1439.6</ele>
        <time>2026-05-14T09:14:19.000Z</time>
      </trkpt>
      <trkpt lat="44.18459" lon="5.28121">
        <ele>1439.6</ele>
        <time>2026-05-14T09:14:20.000Z</time>
      </trkpt>
      <trkpt lat="44.18459" lon="5.28121">
        <ele>1439.7</ele>
        <time>2026-05-14T09:14:21.000Z</time>
      </trkpt>
      <trkpt lat="44.18459" lon="5.28121">
        <ele>1439.8</ele>
        <time>2026-05-14T09:14:22.000Z</time>
      </trkpt>
      <trkpt lat="44.18459" lon="5.28121">
        <ele>1439.9</ele>
        <time>2026-05-14T09:14:23.000Z</time>
      </trkpt>
      <trkpt lat="44.18459" lon="5.28122">
        <ele>1440.1</ele>
        <time>2026-05-14T09:14:24.000Z</time>
      </trkpt>
      <trkpt lat="44.1846" lon="5.28121">
        <ele>1440.2</ele>
        <time>2026-05-14T09:14:25.000Z</time>
      </trkpt>
      <trkpt lat="44.18461" lon="5.28121">
        <ele>1440.3</ele>
        <time>2026-05-14T09:14:26.000Z</time>
      </trkpt>
      <trkpt lat="44.18461" lon="5.2812">
        <ele>1440.5</ele>
        <time>2026-05-14T09:14:27.000Z</time>
      </trkpt>
      <trkpt lat="44.1846" lon="5.2812">
        <ele>1439.9</ele>
        <time>2026-05-14T09:14:28.000Z</time>
      </trkpt>
      <trkpt lat="44.18459" lon="5.2812">
        <ele>1439.4</ele>
        <time>2026-05-14T09:14:29.000Z</time>
      </trkpt>
      <trkpt lat="44.18458" lon="5.2812">
        <ele>1439</ele>
        <time>2026-05-14T09:14:30.000Z</time>
      </trkpt>
      <trkpt lat="44.18458" lon="5.2812">
        <ele>1438.8</ele>
        <time>2026-05-14T09:14:31.000Z</time>
      </trkpt>
      <trkpt lat="44.18458" lon="5.2812">
        <ele>1438.8</ele>
        <time>2026-05-14T09:14:32.000Z</time>
      </trkpt>
      <trkpt lat="44.18458" lon="5.2812">
        <ele>1438.8</ele>
        <time>2026-05-14T09:14:33.000Z</time>
      </trkpt>
      <trkpt lat="44.18458" lon="5.2812">
        <ele>1439.2</ele>
        <time>2026-05-14T09:14:34.000Z</time>
      </trkpt>
      <trkpt lat="44.18458" lon="5.2812">
        <ele>1439.5</ele>
        <time>2026-05-14T09:14:35.000Z</time>
      </trkpt>
      <trkpt lat="44.18458" lon="5.2812">
        <ele>1439.1</ele>
        <time>2026-05-14T09:14:36.000Z</time>
      </trkpt>
      <trkpt lat="44.18458" lon="5.2812">
        <ele>1439.2</ele>
        <time>2026-05-14T09:14:37.000Z</time>
      </trkpt>
      <trkpt lat="44.18458" lon="5.2812">
        <ele>1439.3</ele>
        <time>2026-05-14T09:14:38.000Z</time>
      </trkpt>
      <trkpt lat="44.18458" lon="5.2812">
        <ele>1439.4</ele>
        <time>2026-05-14T09:14:39.000Z</time>
      </trkpt>
      <trkpt lat="44.18458" lon="5.2812">
        <ele>1439.3</ele>
        <time>2026-05-14T09:14:40.000Z</time>
      </trkpt>
      <trkpt lat="44.18458" lon="5.2812">
        <ele>1439.3</ele>
        <time>2026-05-14T09:14:41.000Z</time>
      </trkpt>
      <trkpt lat="44.18458" lon="5.2812">
        <ele>1439.3</ele>
        <time>2026-05-14T09:14:42.000Z</time>
      </trkpt>
      <trkpt lat="44.18458" lon="5.2812">
        <ele>1439.2</ele>
        <time>2026-05-14T09:14:43.000Z</time>
      </trkpt>
      <trkpt lat="44.18458" lon="5.2812">
        <ele>1439.6</ele>
        <time>2026-05-14T09:14:44.000Z</time>
      </trkpt>
      <trkpt lat="44.18458" lon="5.2812">
        <ele>1439.7</ele>
        <time>2026-05-14T09:14:45.000Z</time>
      </trkpt>
      <trkpt lat="44.18457" lon="5.2812">
        <ele>1439.8</ele>
        <time>2026-05-14T09:14:46.000Z</time>
      </trkpt>
      <trkpt lat="44.18457" lon="5.2812">
        <ele>1440</ele>
        <time>2026-05-14T09:14:47.000Z</time>
      </trkpt>
      <trkpt lat="44.18457" lon="5.2812">
        <ele>1440</ele>
        <time>2026-05-14T09:14:48.000Z</time>
      </trkpt>
      <trkpt lat="44.18457" lon="5.2812">
        <ele>1440</ele>
        <time>2026-05-14T09:14:49.000Z</time>
      </trkpt>
      <trkpt lat="44.18457" lon="5.2812">
        <ele>1440</ele>
        <time>2026-05-14T09:14:50.000Z</time>
      </trkpt>
      <trkpt lat="44.18457" lon="5.2812">
        <ele>1440</ele>
        <time>2026-05-14T09:14:51.000Z</time>
      </trkpt>
      <trkpt lat="44.18457" lon="5.2812">
        <ele>1440</ele>
        <time>2026-05-14T09:14:52.000Z</time>
      </trkpt>
      <trkpt lat="44.18457" lon="5.2812">
        <ele>1439.5</ele>
        <time>2026-05-14T09:14:53.000Z</time>
      </trkpt>
      <trkpt lat="44.18457" lon="5.2812">
        <ele>1439.4</ele>
        <time>2026-05-14T09:14:54.000Z</time>
      </trkpt>
      <trkpt lat="44.18457" lon="5.2812">
        <ele>1439.5</ele>
        <time>2026-05-14T09:14:55.000Z</time>
      </trkpt>
      <trkpt lat="44.18457" lon="5.2812">
        <ele>1439.1</ele>
        <time>2026-05-14T09:14:56.000Z</time>
      </trkpt>
      <trkpt lat="44.18457" lon="5.28121">
        <ele>1439</ele>
        <time>2026-05-14T09:14:57.000Z</time>
      </trkpt>
      <trkpt lat="44.18457" lon="5.28121">
        <ele>1438.8</ele>
        <time>2026-05-14T09:14:58.000Z</time>
      </trkpt>
      <trkpt lat="44.18457" lon="5.28121">
        <ele>1438.5</ele>
        <time>2026-05-14T09:14:59.000Z</time>
      </trkpt>
      <trkpt lat="44.18457" lon="5.28121">
        <ele>1438.5</ele>
        <time>2026-05-14T09:15:00.000Z</time>
      </trkpt>
      <trkpt lat="44.18457" lon="5.28121">
        <ele>1438.5</ele>
        <time>2026-05-14T09:15:01.000Z</time>
      </trkpt>
      <trkpt lat="44.18457" lon="5.28121">
        <ele>1438.4</ele>
        <time>2026-05-14T09:15:02.000Z</time>
      </trkpt>
      <trkpt lat="44.18457" lon="5.28121">
        <ele>1438.2</ele>
        <time>2026-05-14T09:15:03.000Z</time>
      </trkpt>
      <trkpt lat="44.18457" lon="5.28121">
        <ele>1438.1</ele>
        <time>2026-05-14T09:15:04.000Z</time>
      </trkpt>
      <trkpt lat="44.18457" lon="5.28121">
        <ele>1438.1</ele>
        <time>2026-05-14T09:15:05.000Z</time>
      </trkpt>
      <trkpt lat="44.18457" lon="5.28121">
        <ele>1438</ele>
        <time>2026-05-14T09:15:06.000Z</time>
      </trkpt>
      <trkpt lat="44.18457" lon="5.28121">
        <ele>1438</ele>
        <time>2026-05-14T09:15:07.000Z</time>
      </trkpt>
      <trkpt lat="44.18457" lon="5.28121">
        <ele>1438</ele>
        <time>2026-05-14T09:15:08.000Z</time>
      </trkpt>
      <trkpt lat="44.18457" lon="5.28121">
        <ele>1437.9</ele>
        <time>2026-05-14T09:15:09.000Z</time>
      </trkpt>
      <trkpt lat="44.18457" lon="5.28121">
        <ele>1437.8</ele>
        <time>2026-05-14T09:15:10.000Z</time>
      </trkpt>
      <trkpt lat="44.18457" lon="5.28121">
        <ele>1437.8</ele>
        <time>2026-05-14T09:15:11.000Z</time>
      </trkpt>
      <trkpt lat="44.18457" lon="5.28121">
        <ele>1437.6</ele>
        <time>2026-05-14T09:15:12.000Z</time>
      </trkpt>
      <trkpt lat="44.18456" lon="5.2812">
        <ele>1437.4</ele>
        <time>2026-05-14T09:15:13.000Z</time>
      </trkpt>
      <trkpt lat="44.18455" lon="5.28119">
        <ele>1437.3</ele>
        <time>2026-05-14T09:15:14.000Z</time>
      </trkpt>
      <trkpt lat="44.18454" lon="5.28118">
        <ele>1437.2</ele>
        <time>2026-05-14T09:15:15.000Z</time>
      </trkpt>
      <trkpt lat="44.18454" lon="5.28118">
        <ele>1437.3</ele>
        <time>2026-05-14T09:15:16.000Z</time>
      </trkpt>
      <trkpt lat="44.18454" lon="5.28118">
        <ele>1437.3</ele>
        <time>2026-05-14T09:15:17.000Z</time>
      </trkpt>
      <trkpt lat="44.18454" lon="5.28118">
        <ele>1437.4</ele>
        <time>2026-05-14T09:15:18.000Z</time>
      </trkpt>
      <trkpt lat="44.18454" lon="5.28118">
        <ele>1437.4</ele>
        <time>2026-05-14T09:15:19.000Z</time>
      </trkpt>
      <trkpt lat="44.18454" lon="5.28118">
        <ele>1437.3</ele>
        <time>2026-05-14T09:15:20.000Z</time>
      </trkpt>
      <trkpt lat="44.18454" lon="5.28118">
        <ele>1437.3</ele>
        <time>2026-05-14T09:15:21.000Z</time>
      </trkpt>
      <trkpt lat="44.18454" lon="5.28118">
        <ele>1437.6</ele>
        <time>2026-05-14T09:15:22.000Z</time>
      </trkpt>
      <trkpt lat="44.18454" lon="5.28118">
        <ele>1437.7</ele>
        <time>2026-05-14T09:15:23.000Z</time>
      </trkpt>
      <trkpt lat="44.18454" lon="5.28118">
        <ele>1437.6</ele>
        <time>2026-05-14T09:15:24.000Z</time>
      </trkpt>
      <trkpt lat="44.18454" lon="5.28118">
        <ele>1437.6</ele>
        <time>2026-05-14T09:15:25.000Z</time>
      </trkpt>
      <trkpt lat="44.18454" lon="5.28117">
        <ele>1437.6</ele>
        <time>2026-05-14T09:15:26.000Z</time>
      </trkpt>
      <trkpt lat="44.18454" lon="5.28117">
        <ele>1437.9</ele>
        <time>2026-05-14T09:15:27.000Z</time>
      </trkpt>
      <trkpt lat="44.18455" lon="5.28118">
        <ele>1438.1</ele>
        <time>2026-05-14T09:15:28.000Z</time>
      </trkpt>
      <trkpt lat="44.18455" lon="5.28118">
        <ele>1438</ele>
        <time>2026-05-14T09:15:29.000Z</time>
      </trkpt>
      <trkpt lat="44.18455" lon="5.28117">
        <ele>1437.9</ele>
        <time>2026-05-14T09:15:30.000Z</time>
      </trkpt>
      <trkpt lat="44.18455" lon="5.28118">
        <ele>1438.1</ele>
        <time>2026-05-14T09:15:31.000Z</time>
      </trkpt>
      <trkpt lat="44.18455" lon="5.28118">
        <ele>1438</ele>
        <time>2026-05-14T09:15:32.000Z</time>
      </trkpt>
      <trkpt lat="44.18455" lon="5.28118">
        <ele>1437.8</ele>
        <time>2026-05-14T09:15:33.000Z</time>
      </trkpt>
      <trkpt lat="44.18455" lon="5.28118">
        <ele>1437.7</ele>
        <time>2026-05-14T09:15:34.000Z</time>
      </trkpt>
      <trkpt lat="44.18455" lon="5.28118">
        <ele>1437.7</ele>
        <time>2026-05-14T09:15:35.000Z</time>
      </trkpt>
      <trkpt lat="44.18455" lon="5.28118">
        <ele>1437.5</ele>
        <time>2026-05-14T09:15:36.000Z</time>
      </trkpt>
      <trkpt lat="44.18455" lon="5.28118">
        <ele>1437.5</ele>
        <time>2026-05-14T09:15:37.000Z</time>
      </trkpt>
      <trkpt lat="44.18455" lon="5.28118">
        <ele>1437.5</ele>
        <time>2026-05-14T09:15:38.000Z</time>
      </trkpt>
      <trkpt lat="44.18455" lon="5.28118">
        <ele>1437.8</ele>
        <time>2026-05-14T09:15:39.000Z</time>
      </trkpt>
      <trkpt lat="44.18455" lon="5.28118">
        <ele>1437.9</ele>
        <time>2026-05-14T09:15:40.000Z</time>
      </trkpt>
      <trkpt lat="44.18455" lon="5.28118">
        <ele>1438.1</ele>
        <time>2026-05-14T09:15:41.000Z</time>
      </trkpt>
      <trkpt lat="44.18455" lon="5.28119">
        <ele>1438.3</ele>
        <time>2026-05-14T09:15:42.000Z</time>
      </trkpt>
      <trkpt lat="44.18455" lon="5.28119">
        <ele>1438.6</ele>
        <time>2026-05-14T09:15:43.000Z</time>
      </trkpt>
      <trkpt lat="44.18455" lon="5.28119">
        <ele>1438.8</ele>
        <time>2026-05-14T09:15:44.000Z</time>
      </trkpt>
      <trkpt lat="44.18455" lon="5.28119">
        <ele>1439</ele>
        <time>2026-05-14T09:15:45.000Z</time>
      </trkpt>
      <trkpt lat="44.18455" lon="5.28119">
        <ele>1439.2</ele>
        <time>2026-05-14T09:15:46.000Z</time>
      </trkpt>
      <trkpt lat="44.18455" lon="5.28119">
        <ele>1439.4</ele>
        <time>2026-05-14T09:15:47.000Z</time>
      </trkpt>
      <trkpt lat="44.18455" lon="5.28119">
        <ele>1439.4</ele>
        <time>2026-05-14T09:15:48.000Z</time>
      </trkpt>
      <trkpt lat="44.18455" lon="5.28119">
        <ele>1439.7</ele>
        <time>2026-05-14T09:15:49.000Z</time>
      </trkpt>
      <trkpt lat="44.18455" lon="5.28119">
        <ele>1439.9</ele>
        <time>2026-05-14T09:15:50.000Z</time>
      </trkpt>
      <trkpt lat="44.18455" lon="5.28119">
        <ele>1439.9</ele>
        <time>2026-05-14T09:15:51.000Z</time>
      </trkpt>
      <trkpt lat="44.18455" lon="5.28118">
        <ele>1440</ele>
        <time>2026-05-14T09:15:52.000Z</time>
      </trkpt>
      <trkpt lat="44.18455" lon="5.28118">
        <ele>1440</ele>
        <time>2026-05-14T09:15:53.000Z</time>
      </trkpt>
      <trkpt lat="44.18455" lon="5.28118">
        <ele>1440</ele>
        <time>2026-05-14T09:15:54.000Z</time>
      </trkpt>
      <trkpt lat="44.18455" lon="5.28118">
        <ele>1440</ele>
        <time>2026-05-14T09:15:55.000Z</time>
      </trkpt>
      <trkpt lat="44.18455" lon="5.28118">
        <ele>1439.8</ele>
        <time>2026-05-14T09:15:56.000Z</time>
      </trkpt>
      <trkpt lat="44.18455" lon="5.28118">
        <ele>1439.8</ele>
        <time>2026-05-14T09:15:57.000Z</time>
      </trkpt>
      <trkpt lat="44.18455" lon="5.28118">
        <ele>1439.6</ele>
        <time>2026-05-14T09:15:58.000Z</time>
      </trkpt>
      <trkpt lat="44.18455" lon="5.28118">
        <ele>1439.4</ele>
        <time>2026-05-14T09:15:59.000Z</time>
      </trkpt>
      <trkpt lat="44.18455" lon="5.28118">
        <ele>1439.2</ele>
        <time>2026-05-14T09:16:00.000Z</time>
      </trkpt>
      <trkpt lat="44.18455" lon="5.28118">
        <ele>1438.9</ele>
        <time>2026-05-14T09:16:01.000Z</time>
      </trkpt>
      <trkpt lat="44.18455" lon="5.28118">
        <ele>1438.5</ele>
        <time>2026-05-14T09:16:02.000Z</time>
      </trkpt>
      <trkpt lat="44.18455" lon="5.28118">
        <ele>1438.2</ele>
        <time>2026-05-14T09:16:03.000Z</time>
      </trkpt>
      <trkpt lat="44.18455" lon="5.28118">
        <ele>1438.2</ele>
        <time>2026-05-14T09:16:04.000Z</time>
      </trkpt>
      <trkpt lat="44.18455" lon="5.28118">
        <ele>1438.3</ele>
        <time>2026-05-14T09:16:05.000Z</time>
      </trkpt>
      <trkpt lat="44.18455" lon="5.28118">
        <ele>1438.3</ele>
        <time>2026-05-14T09:16:06.000Z</time>
      </trkpt>
      <trkpt lat="44.18455" lon="5.28118">
        <ele>1438.4</ele>
        <time>2026-05-14T09:16:07.000Z</time>
      </trkpt>
      <trkpt lat="44.18455" lon="5.28118">
        <ele>1438</ele>
        <time>2026-05-14T09:16:08.000Z</time>
      </trkpt>
      <trkpt lat="44.18455" lon="5.28118">
        <ele>1437.7</ele>
        <time>2026-05-14T09:16:09.000Z</time>
      </trkpt>
      <trkpt lat="44.18455" lon="5.28118">
        <ele>1437.6</ele>
        <time>2026-05-14T09:16:10.000Z</time>
      </trkpt>
      <trkpt lat="44.18455" lon="5.28119">
        <ele>1437.7</ele>
        <time>2026-05-14T09:16:11.000Z</time>
      </trkpt>
      <trkpt lat="44.18456" lon="5.28118">
        <ele>1437.8</ele>
        <time>2026-05-14T09:16:12.000Z</time>
      </trkpt>
      <trkpt lat="44.18455" lon="5.28118">
        <ele>1437.5</ele>
        <time>2026-05-14T09:16:13.000Z</time>
      </trkpt>
      <trkpt lat="44.18455" lon="5.28118">
        <ele>1437.5</ele>
        <time>2026-05-14T09:16:14.000Z</time>
      </trkpt>
      <trkpt lat="44.18455" lon="5.28118">
        <ele>1437.4</ele>
        <time>2026-05-14T09:16:15.000Z</time>
      </trkpt>
      <trkpt lat="44.18455" lon="5.28118">
        <ele>1437.4</ele>
        <time>2026-05-14T09:16:16.000Z</time>
      </trkpt>
      <trkpt lat="44.18455" lon="5.28118">
        <ele>1437.4</ele>
        <time>2026-05-14T09:16:17.000Z</time>
      </trkpt>
      <trkpt lat="44.18455" lon="5.28118">
        <ele>1437.4</ele>
        <time>2026-05-14T09:16:18.000Z</time>
      </trkpt>
      <trkpt lat="44.18455" lon="5.28118">
        <ele>1437.4</ele>
        <time>2026-05-14T09:16:19.000Z</time>
      </trkpt>
      <trkpt lat="44.18455" lon="5.28118">
        <ele>1437.4</ele>
        <time>2026-05-14T09:16:20.000Z</time>
      </trkpt>
      <trkpt lat="44.18455" lon="5.28118">
        <ele>1437.4</ele>
        <time>2026-05-14T09:16:21.000Z</time>
      </trkpt>
      <trkpt lat="44.18455" lon="5.28118">
        <ele>1437.4</ele>
        <time>2026-05-14T09:16:22.000Z</time>
      </trkpt>
      <trkpt lat="44.18455" lon="5.28118">
        <ele>1437.5</ele>
        <time>2026-05-14T09:16:23.000Z</time>
      </trkpt>
      <trkpt lat="44.18455" lon="5.28118">
        <ele>1437.5</ele>
        <time>2026-05-14T09:16:24.000Z</time>
      </trkpt>
      <trkpt lat="44.18455" lon="5.28118">
        <ele>1437.5</ele>
        <time>2026-05-14T09:16:25.000Z</time>
      </trkpt>
      <trkpt lat="44.18455" lon="5.28118">
        <ele>1437.9</ele>
        <time>2026-05-14T09:16:26.000Z</time>
      </trkpt>
      <trkpt lat="44.18455" lon="5.28118">
        <ele>1438.2</ele>
        <time>2026-05-14T09:16:27.000Z</time>
      </trkpt>
      <trkpt lat="44.18455" lon="5.28118">
        <ele>1438.5</ele>
        <time>2026-05-14T09:16:28.000Z</time>
      </trkpt>
      <trkpt lat="44.18455" lon="5.28118">
        <ele>1438.7</ele>
        <time>2026-05-14T09:16:29.000Z</time>
      </trkpt>
      <trkpt lat="44.18455" lon="5.28119">
        <ele>1438.9</ele>
        <time>2026-05-14T09:16:30.000Z</time>
      </trkpt>
      <trkpt lat="44.18455" lon="5.28119">
        <ele>1439</ele>
        <time>2026-05-14T09:16:31.000Z</time>
      </trkpt>
      <trkpt lat="44.18455" lon="5.28119">
        <ele>1439.5</ele>
        <time>2026-05-14T09:16:32.000Z</time>
      </trkpt>
      <trkpt lat="44.18456" lon="5.28119">
        <ele>1439.8</ele>
        <time>2026-05-14T09:16:33.000Z</time>
      </trkpt>
      <trkpt lat="44.18456" lon="5.28119">
        <ele>1440.1</ele>
        <time>2026-05-14T09:16:34.000Z</time>
      </trkpt>
      <trkpt lat="44.18456" lon="5.28119">
        <ele>1440.1</ele>
        <time>2026-05-14T09:16:35.000Z</time>
      </trkpt>
      <trkpt lat="44.18456" lon="5.2812">
        <ele>1440.2</ele>
        <time>2026-05-14T09:16:36.000Z</time>
      </trkpt>
      <trkpt lat="44.18456" lon="5.2812">
        <ele>1440.1</ele>
        <time>2026-05-14T09:16:37.000Z</time>
      </trkpt>
      <trkpt lat="44.18456" lon="5.2812">
        <ele>1440.1</ele>
        <time>2026-05-14T09:16:38.000Z</time>
      </trkpt>
      <trkpt lat="44.18456" lon="5.2812">
        <ele>1439.9</ele>
        <time>2026-05-14T09:16:39.000Z</time>
      </trkpt>
      <trkpt lat="44.18456" lon="5.2812">
        <ele>1440</ele>
        <time>2026-05-14T09:16:40.000Z</time>
      </trkpt>
      <trkpt lat="44.18456" lon="5.2812">
        <ele>1439.8</ele>
        <time>2026-05-14T09:16:41.000Z</time>
      </trkpt>
      <trkpt lat="44.18456" lon="5.2812">
        <ele>1439.2</ele>
        <time>2026-05-14T09:16:42.000Z</time>
      </trkpt>
      <trkpt lat="44.18456" lon="5.2812">
        <ele>1438.6</ele>
        <time>2026-05-14T09:16:43.000Z</time>
      </trkpt>
      <trkpt lat="44.18455" lon="5.2812">
        <ele>1438.2</ele>
        <time>2026-05-14T09:16:44.000Z</time>
      </trkpt>
      <trkpt lat="44.18455" lon="5.2812">
        <ele>1437.7</ele>
        <time>2026-05-14T09:16:45.000Z</time>
      </trkpt>
      <trkpt lat="44.18455" lon="5.2812">
        <ele>1437.4</ele>
        <time>2026-05-14T09:16:46.000Z</time>
      </trkpt>
      <trkpt lat="44.18455" lon="5.2812">
        <ele>1437.2</ele>
        <time>2026-05-14T09:16:47.000Z</time>
      </trkpt>
      <trkpt lat="44.18455" lon="5.2812">
        <ele>1437.4</ele>
        <time>2026-05-14T09:16:48.000Z</time>
      </trkpt>
      <trkpt lat="44.18455" lon="5.2812">
        <ele>1437.1</ele>
        <time>2026-05-14T09:16:49.000Z</time>
      </trkpt>
      <trkpt lat="44.18455" lon="5.2812">
        <ele>1436.8</ele>
        <time>2026-05-14T09:16:50.000Z</time>
      </trkpt>
      <trkpt lat="44.18455" lon="5.2812">
        <ele>1436.5</ele>
        <time>2026-05-14T09:16:51.000Z</time>
      </trkpt>
      <trkpt lat="44.18455" lon="5.2812">
        <ele>1436.6</ele>
        <time>2026-05-14T09:16:52.000Z</time>
      </trkpt>
      <trkpt lat="44.18455" lon="5.2812">
        <ele>1436.5</ele>
        <time>2026-05-14T09:16:53.000Z</time>
      </trkpt>
      <trkpt lat="44.18455" lon="5.2812">
        <ele>1436.3</ele>
        <time>2026-05-14T09:16:54.000Z</time>
      </trkpt>
      <trkpt lat="44.18455" lon="5.2812">
        <ele>1436.1</ele>
        <time>2026-05-14T09:16:55.000Z</time>
      </trkpt>
      <trkpt lat="44.18455" lon="5.28119">
        <ele>1435.9</ele>
        <time>2026-05-14T09:16:56.000Z</time>
      </trkpt>
      <trkpt lat="44.18455" lon="5.28119">
        <ele>1435.8</ele>
        <time>2026-05-14T09:16:57.000Z</time>
      </trkpt>
      <trkpt lat="44.18455" lon="5.28119">
        <ele>1435.8</ele>
        <time>2026-05-14T09:16:58.000Z</time>
      </trkpt>
      <trkpt lat="44.18455" lon="5.2812">
        <ele>1435.8</ele>
        <time>2026-05-14T09:16:59.000Z</time>
      </trkpt>
      <trkpt lat="44.18455" lon="5.2812">
        <ele>1436</ele>
        <time>2026-05-14T09:17:00.000Z</time>
      </trkpt>
      <trkpt lat="44.18455" lon="5.2812">
        <ele>1436</ele>
        <time>2026-05-14T09:17:01.000Z</time>
      </trkpt>
      <trkpt lat="44.18455" lon="5.28119">
        <ele>1436</ele>
        <time>2026-05-14T09:17:02.000Z</time>
      </trkpt>
      <trkpt lat="44.18455" lon="5.2812">
        <ele>1436</ele>
        <time>2026-05-14T09:17:03.000Z</time>
      </trkpt>
      <trkpt lat="44.18456" lon="5.2812">
        <ele>1436.1</ele>
        <time>2026-05-14T09:17:04.000Z</time>
      </trkpt>
      <trkpt lat="44.18456" lon="5.2812">
        <ele>1436.3</ele>
        <time>2026-05-14T09:17:05.000Z</time>
      </trkpt>
      <trkpt lat="44.18456" lon="5.2812">
        <ele>1436.4</ele>
        <time>2026-05-14T09:17:06.000Z</time>
      </trkpt>
      <trkpt lat="44.18455" lon="5.2812">
        <ele>1436.3</ele>
        <time>2026-05-14T09:17:07.000Z</time>
      </trkpt>
      <trkpt lat="44.18455" lon="5.2812">
        <ele>1436.3</ele>
        <time>2026-05-14T09:17:08.000Z</time>
      </trkpt>
      <trkpt lat="44.18456" lon="5.2812">
        <ele>1436.6</ele>
        <time>2026-05-14T09:17:09.000Z</time>
      </trkpt>
      <trkpt lat="44.18456" lon="5.28121">
        <ele>1437.5</ele>
        <time>2026-05-14T09:17:10.000Z</time>
      </trkpt>
      <trkpt lat="44.18457" lon="5.28122">
        <ele>1438</ele>
        <time>2026-05-14T09:17:11.000Z</time>
      </trkpt>
      <trkpt lat="44.18457" lon="5.28122">
        <ele>1438.3</ele>
        <time>2026-05-14T09:17:12.000Z</time>
      </trkpt>
      <trkpt lat="44.18457" lon="5.28122">
        <ele>1438.1</ele>
        <time>2026-05-14T09:17:13.000Z</time>
      </trkpt>
      <trkpt lat="44.18457" lon="5.28123">
        <ele>1438.2</ele>
        <time>2026-05-14T09:17:14.000Z</time>
      </trkpt>
      <trkpt lat="44.18457" lon="5.28123">
        <ele>1438.2</ele>
        <time>2026-05-14T09:17:15.000Z</time>
      </trkpt>
      <trkpt lat="44.18456" lon="5.28123">
        <ele>1438.1</ele>
        <time>2026-05-14T09:17:16.000Z</time>
      </trkpt>
      <trkpt lat="44.18456" lon="5.28123">
        <ele>1437.9</ele>
        <time>2026-05-14T09:17:17.000Z</time>
      </trkpt>
      <trkpt lat="44.18456" lon="5.28123">
        <ele>1438</ele>
        <time>2026-05-14T09:17:18.000Z</time>
      </trkpt>
      <trkpt lat="44.18456" lon="5.28123">
        <ele>1437.8</ele>
        <time>2026-05-14T09:17:19.000Z</time>
      </trkpt>
      <trkpt lat="44.18456" lon="5.28123">
        <ele>1437.8</ele>
        <time>2026-05-14T09:17:20.000Z</time>
      </trkpt>
      <trkpt lat="44.18456" lon="5.28123">
        <ele>1437.7</ele>
        <time>2026-05-14T09:17:21.000Z</time>
      </trkpt>
      <trkpt lat="44.18456" lon="5.28123">
        <ele>1437.7</ele>
        <time>2026-05-14T09:17:22.000Z</time>
      </trkpt>
      <trkpt lat="44.18456" lon="5.28123">
        <ele>1437.5</ele>
        <time>2026-05-14T09:17:23.000Z</time>
      </trkpt>
      <trkpt lat="44.18456" lon="5.28123">
        <ele>1437.1</ele>
        <time>2026-05-14T09:17:24.000Z</time>
      </trkpt>
      <trkpt lat="44.18456" lon="5.28123">
        <ele>1436.7</ele>
        <time>2026-05-14T09:17:25.000Z</time>
      </trkpt>
      <trkpt lat="44.18456" lon="5.28123">
        <ele>1436.7</ele>
        <time>2026-05-14T09:17:26.000Z</time>
      </trkpt>
      <trkpt lat="44.18456" lon="5.28123">
        <ele>1436.6</ele>
        <time>2026-05-14T09:17:27.000Z</time>
      </trkpt>
      <trkpt lat="44.18456" lon="5.28123">
        <ele>1436.5</ele>
        <time>2026-05-14T09:17:28.000Z</time>
      </trkpt>
      <trkpt lat="44.18456" lon="5.28123">
        <ele>1436.6</ele>
        <time>2026-05-14T09:17:29.000Z</time>
      </trkpt>
      <trkpt lat="44.18456" lon="5.28123">
        <ele>1436.7</ele>
        <time>2026-05-14T09:17:30.000Z</time>
      </trkpt>
      <trkpt lat="44.18456" lon="5.28123">
        <ele>1436.6</ele>
        <time>2026-05-14T09:17:31.000Z</time>
      </trkpt>
      <trkpt lat="44.18456" lon="5.28123">
        <ele>1436.4</ele>
        <time>2026-05-14T09:17:32.000Z</time>
      </trkpt>
      <trkpt lat="44.18456" lon="5.28123">
        <ele>1436.4</ele>
        <time>2026-05-14T09:17:33.000Z</time>
      </trkpt>
      <trkpt lat="44.18456" lon="5.28123">
        <ele>1436.3</ele>
        <time>2026-05-14T09:17:34.000Z</time>
      </trkpt>
      <trkpt lat="44.18456" lon="5.28123">
        <ele>1436.3</ele>
        <time>2026-05-14T09:17:35.000Z</time>
      </trkpt>
      <trkpt lat="44.18456" lon="5.28123">
        <ele>1436.1</ele>
        <time>2026-05-14T09:17:36.000Z</time>
      </trkpt>
      <trkpt lat="44.18456" lon="5.28123">
        <ele>1435.9</ele>
        <time>2026-05-14T09:17:37.000Z</time>
      </trkpt>
      <trkpt lat="44.18456" lon="5.28123">
        <ele>1436.1</ele>
        <time>2026-05-14T09:17:38.000Z</time>
      </trkpt>
      <trkpt lat="44.18456" lon="5.28123">
        <ele>1436.2</ele>
        <time>2026-05-14T09:17:39.000Z</time>
      </trkpt>
      <trkpt lat="44.18456" lon="5.28123">
        <ele>1436.4</ele>
        <time>2026-05-14T09:17:40.000Z</time>
      </trkpt>
      <trkpt lat="44.18456" lon="5.28123">
        <ele>1436.2</ele>
        <time>2026-05-14T09:17:41.000Z</time>
      </trkpt>
      <trkpt lat="44.18456" lon="5.28123">
        <ele>1436.1</ele>
        <time>2026-05-14T09:17:43.000Z</time>
      </trkpt>
      <trkpt lat="44.18456" lon="5.28123">
        <ele>1436.2</ele>
        <time>2026-05-14T09:17:44.000Z</time>
      </trkpt>
      <trkpt lat="44.18456" lon="5.28123">
        <ele>1436.4</ele>
        <time>2026-05-14T09:17:45.000Z</time>
      </trkpt>
      <trkpt lat="44.18456" lon="5.28123">
        <ele>1436.4</ele>
        <time>2026-05-14T09:17:46.000Z</time>
      </trkpt>
      <trkpt lat="44.18456" lon="5.28123">
        <ele>1436.5</ele>
        <time>2026-05-14T09:17:47.000Z</time>
      </trkpt>
      <trkpt lat="44.18456" lon="5.28123">
        <ele>1436.6</ele>
        <time>2026-05-14T09:17:48.000Z</time>
      </trkpt>
      <trkpt lat="44.18456" lon="5.28123">
        <ele>1436.7</ele>
        <time>2026-05-14T09:17:49.000Z</time>
      </trkpt>
      <trkpt lat="44.18456" lon="5.28123">
        <ele>1436.8</ele>
        <time>2026-05-14T09:17:50.000Z</time>
      </trkpt>
      <trkpt lat="44.18456" lon="5.28123">
        <ele>1437.2</ele>
        <time>2026-05-14T09:17:51.000Z</time>
      </trkpt>
      <trkpt lat="44.18456" lon="5.28123">
        <ele>1437.5</ele>
        <time>2026-05-14T09:17:52.000Z</time>
      </trkpt>
      <trkpt lat="44.18456" lon="5.28123">
        <ele>1437.6</ele>
        <time>2026-05-14T09:17:53.000Z</time>
      </trkpt>
      <trkpt lat="44.18456" lon="5.28123">
        <ele>1437.6</ele>
        <time>2026-05-14T09:17:54.000Z</time>
      </trkpt>
      <trkpt lat="44.18456" lon="5.28123">
        <ele>1437.5</ele>
        <time>2026-05-14T09:17:55.000Z</time>
      </trkpt>
      <trkpt lat="44.18456" lon="5.28123">
        <ele>1437.6</ele>
        <time>2026-05-14T09:17:56.000Z</time>
      </trkpt>
      <trkpt lat="44.18456" lon="5.28124">
        <ele>1437.5</ele>
        <time>2026-05-14T09:17:57.000Z</time>
      </trkpt>
      <trkpt lat="44.18456" lon="5.28124">
        <ele>1437.3</ele>
        <time>2026-05-14T09:17:58.000Z</time>
      </trkpt>
      <trkpt lat="44.18457" lon="5.28124">
        <ele>1437</ele>
        <time>2026-05-14T09:18:00.000Z</time>
      </trkpt>
      <trkpt lat="44.18457" lon="5.28124">
        <ele>1437</ele>
        <time>2026-05-14T09:18:01.000Z</time>
      </trkpt>
      <trkpt lat="44.18457" lon="5.28124">
        <ele>1437.1</ele>
        <time>2026-05-14T09:18:02.000Z</time>
      </trkpt>
      <trkpt lat="44.18457" lon="5.28124">
        <ele>1437.1</ele>
        <time>2026-05-14T09:18:03.000Z</time>
      </trkpt>
      <trkpt lat="44.18457" lon="5.28124">
        <ele>1437.5</ele>
        <time>2026-05-14T09:18:04.000Z</time>
      </trkpt>
      <trkpt lat="44.18457" lon="5.28124">
        <ele>1437.8</ele>
        <time>2026-05-14T09:18:05.000Z</time>
      </trkpt>
      <trkpt lat="44.18457" lon="5.28124">
        <ele>1437.9</ele>
        <time>2026-05-14T09:18:06.000Z</time>
      </trkpt>
      <trkpt lat="44.18457" lon="5.28124">
        <ele>1438.1</ele>
        <time>2026-05-14T09:18:07.000Z</time>
      </trkpt>
      <trkpt lat="44.18457" lon="5.28124">
        <ele>1438.2</ele>
        <time>2026-05-14T09:18:08.000Z</time>
      </trkpt>
      <trkpt lat="44.18457" lon="5.28124">
        <ele>1438.3</ele>
        <time>2026-05-14T09:18:09.000Z</time>
      </trkpt>
      <trkpt lat="44.18458" lon="5.28124">
        <ele>1438.5</ele>
        <time>2026-05-14T09:18:10.000Z</time>
      </trkpt>
      <trkpt lat="44.18458" lon="5.28124">
        <ele>1438.5</ele>
        <time>2026-05-14T09:18:11.000Z</time>
      </trkpt>
      <trkpt lat="44.18458" lon="5.28124">
        <ele>1438.5</ele>
        <time>2026-05-14T09:18:12.000Z</time>
      </trkpt>
      <trkpt lat="44.18458" lon="5.28124">
        <ele>1438.4</ele>
        <time>2026-05-14T09:18:13.000Z</time>
      </trkpt>
      <trkpt lat="44.18458" lon="5.28124">
        <ele>1438.3</ele>
        <time>2026-05-14T09:18:14.000Z</time>
      </trkpt>
      <trkpt lat="44.18458" lon="5.28124">
        <ele>1438.3</ele>
        <time>2026-05-14T09:18:15.000Z</time>
      </trkpt>
      <trkpt lat="44.18458" lon="5.28124">
        <ele>1438.2</ele>
        <time>2026-05-14T09:18:16.000Z</time>
      </trkpt>
      <trkpt lat="44.18458" lon="5.28124">
        <ele>1438</ele>
        <time>2026-05-14T09:18:17.000Z</time>
      </trkpt>
      <trkpt lat="44.18458" lon="5.28124">
        <ele>1438</ele>
        <time>2026-05-14T09:18:18.000Z</time>
      </trkpt>
      <trkpt lat="44.18458" lon="5.28124">
        <ele>1438</ele>
        <time>2026-05-14T09:18:19.000Z</time>
      </trkpt>
      <trkpt lat="44.18458" lon="5.28124">
        <ele>1437.7</ele>
        <time>2026-05-14T09:18:20.000Z</time>
      </trkpt>
      <trkpt lat="44.18458" lon="5.28124">
        <ele>1437.4</ele>
        <time>2026-05-14T09:18:21.000Z</time>
      </trkpt>
      <trkpt lat="44.18458" lon="5.28123">
        <ele>1437.3</ele>
        <time>2026-05-14T09:18:22.000Z</time>
      </trkpt>
      <trkpt lat="44.18458" lon="5.28123">
        <ele>1437</ele>
        <time>2026-05-14T09:18:23.000Z</time>
      </trkpt>
      <trkpt lat="44.18458" lon="5.28123">
        <ele>1436.9</ele>
        <time>2026-05-14T09:18:24.000Z</time>
      </trkpt>
      <trkpt lat="44.18458" lon="5.28123">
        <ele>1437.1</ele>
        <time>2026-05-14T09:18:25.000Z</time>
      </trkpt>
      <trkpt lat="44.18458" lon="5.28123">
        <ele>1437.3</ele>
        <time>2026-05-14T09:18:26.000Z</time>
      </trkpt>
      <trkpt lat="44.18458" lon="5.28123">
        <ele>1437.5</ele>
        <time>2026-05-14T09:18:27.000Z</time>
      </trkpt>
      <trkpt lat="44.18458" lon="5.28123">
        <ele>1437.5</ele>
        <time>2026-05-14T09:18:28.000Z</time>
      </trkpt>
      <trkpt lat="44.18458" lon="5.28123">
        <ele>1437.7</ele>
        <time>2026-05-14T09:18:29.000Z</time>
      </trkpt>
      <trkpt lat="44.18458" lon="5.28123">
        <ele>1437.7</ele>
        <time>2026-05-14T09:18:30.000Z</time>
      </trkpt>
      <trkpt lat="44.18458" lon="5.28123">
        <ele>1437.6</ele>
        <time>2026-05-14T09:18:31.000Z</time>
      </trkpt>
      <trkpt lat="44.18458" lon="5.28123">
        <ele>1437.5</ele>
        <time>2026-05-14T09:18:32.000Z</time>
      </trkpt>
      <trkpt lat="44.18458" lon="5.28123">
        <ele>1437.5</ele>
        <time>2026-05-14T09:18:33.000Z</time>
      </trkpt>
      <trkpt lat="44.18458" lon="5.28122">
        <ele>1437.4</ele>
        <time>2026-05-14T09:18:34.000Z</time>
      </trkpt>
      <trkpt lat="44.18458" lon="5.28122">
        <ele>1437.3</ele>
        <time>2026-05-14T09:18:35.000Z</time>
      </trkpt>
      <trkpt lat="44.18458" lon="5.28121">
        <ele>1437.2</ele>
        <time>2026-05-14T09:18:36.000Z</time>
      </trkpt>
      <trkpt lat="44.18458" lon="5.28121">
        <ele>1437</ele>
        <time>2026-05-14T09:18:37.000Z</time>
      </trkpt>
      <trkpt lat="44.18458" lon="5.28121">
        <ele>1436.8</ele>
        <time>2026-05-14T09:18:38.000Z</time>
      </trkpt>
      <trkpt lat="44.18458" lon="5.28121">
        <ele>1436.6</ele>
        <time>2026-05-14T09:18:39.000Z</time>
      </trkpt>
      <trkpt lat="44.18458" lon="5.28121">
        <ele>1436.6</ele>
        <time>2026-05-14T09:18:40.000Z</time>
      </trkpt>
      <trkpt lat="44.18458" lon="5.28121">
        <ele>1436.7</ele>
        <time>2026-05-14T09:18:41.000Z</time>
      </trkpt>
      <trkpt lat="44.18459" lon="5.28121">
        <ele>1437</ele>
        <time>2026-05-14T09:18:42.000Z</time>
      </trkpt>
      <trkpt lat="44.18459" lon="5.28121">
        <ele>1437</ele>
        <time>2026-05-14T09:18:43.000Z</time>
      </trkpt>
      <trkpt lat="44.18459" lon="5.28121">
        <ele>1436.8</ele>
        <time>2026-05-14T09:18:44.000Z</time>
      </trkpt>
      <trkpt lat="44.18459" lon="5.28121">
        <ele>1436.6</ele>
        <time>2026-05-14T09:18:45.000Z</time>
      </trkpt>
      <trkpt lat="44.18458" lon="5.28121">
        <ele>1436.6</ele>
        <time>2026-05-14T09:18:46.000Z</time>
      </trkpt>
      <trkpt lat="44.18458" lon="5.28121">
        <ele>1436.5</ele>
        <time>2026-05-14T09:18:47.000Z</time>
      </trkpt>
      <trkpt lat="44.18458" lon="5.28121">
        <ele>1436.5</ele>
        <time>2026-05-14T09:18:48.000Z</time>
      </trkpt>
      <trkpt lat="44.18458" lon="5.28121">
        <ele>1436.6</ele>
        <time>2026-05-14T09:18:49.000Z</time>
      </trkpt>
      <trkpt lat="44.18458" lon="5.28121">
        <ele>1436.6</ele>
        <time>2026-05-14T09:18:50.000Z</time>
      </trkpt>
      <trkpt lat="44.18458" lon="5.28121">
        <ele>1436.7</ele>
        <time>2026-05-14T09:18:51.000Z</time>
      </trkpt>
      <trkpt lat="44.18458" lon="5.28121">
        <ele>1436.7</ele>
        <time>2026-05-14T09:18:52.000Z</time>
      </trkpt>
      <trkpt lat="44.18458" lon="5.28121">
        <ele>1436.8</ele>
        <time>2026-05-14T09:18:53.000Z</time>
      </trkpt>
      <trkpt lat="44.18458" lon="5.28121">
        <ele>1436.8</ele>
        <time>2026-05-14T09:18:54.000Z</time>
      </trkpt>
      <trkpt lat="44.18458" lon="5.28121">
        <ele>1436.9</ele>
        <time>2026-05-14T09:18:55.000Z</time>
      </trkpt>
      <trkpt lat="44.18458" lon="5.28121">
        <ele>1437.1</ele>
        <time>2026-05-14T09:18:56.000Z</time>
      </trkpt>
      <trkpt lat="44.18458" lon="5.28121">
        <ele>1437</ele>
        <time>2026-05-14T09:18:57.000Z</time>
      </trkpt>
      <trkpt lat="44.18459" lon="5.28121">
        <ele>1436.9</ele>
        <time>2026-05-14T09:18:58.000Z</time>
      </trkpt>
      <trkpt lat="44.18458" lon="5.2812">
        <ele>1437</ele>
        <time>2026-05-14T09:18:59.000Z</time>
      </trkpt>
      <trkpt lat="44.18458" lon="5.2812">
        <ele>1436.9</ele>
        <time>2026-05-14T09:19:00.000Z</time>
      </trkpt>
      <trkpt lat="44.18458" lon="5.2812">
        <ele>1436.9</ele>
        <time>2026-05-14T09:19:01.000Z</time>
      </trkpt>
      <trkpt lat="44.18458" lon="5.2812">
        <ele>1437</ele>
        <time>2026-05-14T09:19:02.000Z</time>
      </trkpt>
      <trkpt lat="44.18458" lon="5.2812">
        <ele>1437.1</ele>
        <time>2026-05-14T09:19:03.000Z</time>
      </trkpt>
      <trkpt lat="44.18458" lon="5.2812">
        <ele>1437.3</ele>
        <time>2026-05-14T09:19:04.000Z</time>
      </trkpt>
      <trkpt lat="44.18458" lon="5.2812">
        <ele>1437.4</ele>
        <time>2026-05-14T09:19:05.000Z</time>
      </trkpt>
      <trkpt lat="44.18459" lon="5.2812">
        <ele>1437.8</ele>
        <time>2026-05-14T09:19:06.000Z</time>
      </trkpt>
      <trkpt lat="44.18459" lon="5.28121">
        <ele>1438.5</ele>
        <time>2026-05-14T09:19:07.000Z</time>
      </trkpt>
      <trkpt lat="44.18459" lon="5.28121">
        <ele>1438.8</ele>
        <time>2026-05-14T09:19:08.000Z</time>
      </trkpt>
      <trkpt lat="44.18459" lon="5.28121">
        <ele>1439.1</ele>
        <time>2026-05-14T09:19:09.000Z</time>
      </trkpt>
      <trkpt lat="44.18459" lon="5.28121">
        <ele>1439.6</ele>
        <time>2026-05-14T09:19:10.000Z</time>
      </trkpt>
      <trkpt lat="44.18459" lon="5.28121">
        <ele>1439.9</ele>
        <time>2026-05-14T09:19:11.000Z</time>
      </trkpt>
      <trkpt lat="44.18459" lon="5.28121">
        <ele>1439.8</ele>
        <time>2026-05-14T09:19:12.000Z</time>
      </trkpt>
      <trkpt lat="44.18459" lon="5.28121">
        <ele>1439.7</ele>
        <time>2026-05-14T09:19:13.000Z</time>
      </trkpt>
      <trkpt lat="44.18459" lon="5.28121">
        <ele>1439.7</ele>
        <time>2026-05-14T09:19:14.000Z</time>
      </trkpt>
      <trkpt lat="44.18459" lon="5.28121">
        <ele>1439.8</ele>
        <time>2026-05-14T09:19:15.000Z</time>
      </trkpt>
      <trkpt lat="44.18459" lon="5.28121">
        <ele>1440</ele>
        <time>2026-05-14T09:19:16.000Z</time>
      </trkpt>
      <trkpt lat="44.18458" lon="5.28121">
        <ele>1440.2</ele>
        <time>2026-05-14T09:19:17.000Z</time>
      </trkpt>
      <trkpt lat="44.18458" lon="5.28121">
        <ele>1440.1</ele>
        <time>2026-05-14T09:19:18.000Z</time>
      </trkpt>
      <trkpt lat="44.18458" lon="5.28121">
        <ele>1440.2</ele>
        <time>2026-05-14T09:19:19.000Z</time>
      </trkpt>
      <trkpt lat="44.18458" lon="5.28121">
        <ele>1440.3</ele>
        <time>2026-05-14T09:19:20.000Z</time>
      </trkpt>
      <trkpt lat="44.18458" lon="5.28121">
        <ele>1440.4</ele>
        <time>2026-05-14T09:19:21.000Z</time>
      </trkpt>
      <trkpt lat="44.18458" lon="5.28121">
        <ele>1440.5</ele>
        <time>2026-05-14T09:19:22.000Z</time>
      </trkpt>
      <trkpt lat="44.18458" lon="5.28121">
        <ele>1440.4</ele>
        <time>2026-05-14T09:19:23.000Z</time>
      </trkpt>
      <trkpt lat="44.18458" lon="5.28121">
        <ele>1440.4</ele>
        <time>2026-05-14T09:19:24.000Z</time>
      </trkpt>
      <trkpt lat="44.18458" lon="5.2812">
        <ele>1440.3</ele>
        <time>2026-05-14T09:19:25.000Z</time>
      </trkpt>
      <trkpt lat="44.18458" lon="5.2812">
        <ele>1440.3</ele>
        <time>2026-05-14T09:19:26.000Z</time>
      </trkpt>
      <trkpt lat="44.18458" lon="5.2812">
        <ele>1440.3</ele>
        <time>2026-05-14T09:19:27.000Z</time>
      </trkpt>
      <trkpt lat="44.18458" lon="5.2812">
        <ele>1440.4</ele>
        <time>2026-05-14T09:19:28.000Z</time>
      </trkpt>
      <trkpt lat="44.18457" lon="5.2812">
        <ele>1440.3</ele>
        <time>2026-05-14T09:19:29.000Z</time>
      </trkpt>
      <trkpt lat="44.18456" lon="5.28118">
        <ele>1440.4</ele>
        <time>2026-05-14T09:19:30.000Z</time>
      </trkpt>
      <trkpt lat="44.18456" lon="5.28118">
        <ele>1440.7</ele>
        <time>2026-05-14T09:19:31.000Z</time>
      </trkpt>
      <trkpt lat="44.18456" lon="5.28117">
        <ele>1440.9</ele>
        <time>2026-05-14T09:19:32.000Z</time>
      </trkpt>
      <trkpt lat="44.18456" lon="5.28117">
        <ele>1441.2</ele>
        <time>2026-05-14T09:19:33.000Z</time>
      </trkpt>
      <trkpt lat="44.18456" lon="5.28117">
        <ele>1441.3</ele>
        <time>2026-05-14T09:19:34.000Z</time>
      </trkpt>
      <trkpt lat="44.18456" lon="5.28117">
        <ele>1441.2</ele>
        <time>2026-05-14T09:19:35.000Z</time>
      </trkpt>
      <trkpt lat="44.18456" lon="5.28117">
        <ele>1441.3</ele>
        <time>2026-05-14T09:19:36.000Z</time>
      </trkpt>
      <trkpt lat="44.18456" lon="5.28117">
        <ele>1441.5</ele>
        <time>2026-05-14T09:19:37.000Z</time>
      </trkpt>
      <trkpt lat="44.18456" lon="5.28117">
        <ele>1441.2</ele>
        <time>2026-05-14T09:19:38.000Z</time>
      </trkpt>
      <trkpt lat="44.18456" lon="5.28117">
        <ele>1441.1</ele>
        <time>2026-05-14T09:19:39.000Z</time>
      </trkpt>
      <trkpt lat="44.18456" lon="5.28117">
        <ele>1440.6</ele>
        <time>2026-05-14T09:19:40.000Z</time>
      </trkpt>
      <trkpt lat="44.18456" lon="5.28117">
        <ele>1440.3</ele>
        <time>2026-05-14T09:19:41.000Z</time>
      </trkpt>
      <trkpt lat="44.18456" lon="5.28117">
        <ele>1440</ele>
        <time>2026-05-14T09:19:42.000Z</time>
      </trkpt>
      <trkpt lat="44.18456" lon="5.28117">
        <ele>1439.9</ele>
        <time>2026-05-14T09:19:43.000Z</time>
      </trkpt>
      <trkpt lat="44.18456" lon="5.28117">
        <ele>1439.7</ele>
        <time>2026-05-14T09:19:44.000Z</time>
      </trkpt>
      <trkpt lat="44.18456" lon="5.28117">
        <ele>1439.4</ele>
        <time>2026-05-14T09:19:45.000Z</time>
      </trkpt>
      <trkpt lat="44.18456" lon="5.28117">
        <ele>1439</ele>
        <time>2026-05-14T09:19:46.000Z</time>
      </trkpt>
      <trkpt lat="44.18456" lon="5.28117">
        <ele>1439.1</ele>
        <time>2026-05-14T09:19:47.000Z</time>
      </trkpt>
      <trkpt lat="44.18456" lon="5.28117">
        <ele>1438.7</ele>
        <time>2026-05-14T09:19:48.000Z</time>
      </trkpt>
      <trkpt lat="44.18456" lon="5.28117">
        <ele>1438.4</ele>
        <time>2026-05-14T09:19:49.000Z</time>
      </trkpt>
      <trkpt lat="44.18456" lon="5.28117">
        <ele>1438.1</ele>
        <time>2026-05-14T09:19:50.000Z</time>
      </trkpt>
      <trkpt lat="44.18456" lon="5.28117">
        <ele>1437.6</ele>
        <time>2026-05-14T09:19:51.000Z</time>
      </trkpt>
      <trkpt lat="44.18456" lon="5.28117">
        <ele>1437.4</ele>
        <time>2026-05-14T09:19:52.000Z</time>
      </trkpt>
      <trkpt lat="44.18456" lon="5.28117">
        <ele>1437.2</ele>
        <time>2026-05-14T09:19:53.000Z</time>
      </trkpt>
      <trkpt lat="44.18456" lon="5.28117">
        <ele>1437.5</ele>
        <time>2026-05-14T09:19:54.000Z</time>
      </trkpt>
      <trkpt lat="44.18456" lon="5.28117">
        <ele>1438</ele>
        <time>2026-05-14T09:19:55.000Z</time>
      </trkpt>
      <trkpt lat="44.18456" lon="5.28117">
        <ele>1438.3</ele>
        <time>2026-05-14T09:19:56.000Z</time>
      </trkpt>
      <trkpt lat="44.18456" lon="5.28117">
        <ele>1438.6</ele>
        <time>2026-05-14T09:19:57.000Z</time>
      </trkpt>
      <trkpt lat="44.18456" lon="5.28117">
        <ele>1438.6</ele>
        <time>2026-05-14T09:19:58.000Z</time>
      </trkpt>
      <trkpt lat="44.18456" lon="5.28117">
        <ele>1438.7</ele>
        <time>2026-05-14T09:19:59.000Z</time>
      </trkpt>
      <trkpt lat="44.18456" lon="5.28117">
        <ele>1438.7</ele>
        <time>2026-05-14T09:20:00.000Z</time>
      </trkpt>
      <trkpt lat="44.18456" lon="5.28117">
        <ele>1439.1</ele>
        <time>2026-05-14T09:20:01.000Z</time>
      </trkpt>
      <trkpt lat="44.18456" lon="5.28117">
        <ele>1439.2</ele>
        <time>2026-05-14T09:20:02.000Z</time>
      </trkpt>
      <trkpt lat="44.18456" lon="5.28117">
        <ele>1439.4</ele>
        <time>2026-05-14T09:20:03.000Z</time>
      </trkpt>
      <trkpt lat="44.18456" lon="5.28117">
        <ele>1439.3</ele>
        <time>2026-05-14T09:20:04.000Z</time>
      </trkpt>
      <trkpt lat="44.18456" lon="5.28117">
        <ele>1439.2</ele>
        <time>2026-05-14T09:20:05.000Z</time>
      </trkpt>
      <trkpt lat="44.18456" lon="5.28117">
        <ele>1439</ele>
        <time>2026-05-14T09:20:06.000Z</time>
      </trkpt>
      <trkpt lat="44.18456" lon="5.28117">
        <ele>1438.8</ele>
        <time>2026-05-14T09:20:07.000Z</time>
      </trkpt>
      <trkpt lat="44.18456" lon="5.28117">
        <ele>1438.8</ele>
        <time>2026-05-14T09:20:08.000Z</time>
      </trkpt>
      <trkpt lat="44.18456" lon="5.28117">
        <ele>1438.8</ele>
        <time>2026-05-14T09:20:09.000Z</time>
      </trkpt>
      <trkpt lat="44.18457" lon="5.28118">
        <ele>1438.8</ele>
        <time>2026-05-14T09:20:10.000Z</time>
      </trkpt>
      <trkpt lat="44.18457" lon="5.28118">
        <ele>1438.7</ele>
        <time>2026-05-14T09:20:11.000Z</time>
      </trkpt>
      <trkpt lat="44.18457" lon="5.28118">
        <ele>1438.4</ele>
        <time>2026-05-14T09:20:12.000Z</time>
      </trkpt>
      <trkpt lat="44.18457" lon="5.28118">
        <ele>1438.2</ele>
        <time>2026-05-14T09:20:13.000Z</time>
      </trkpt>
      <trkpt lat="44.18457" lon="5.28118">
        <ele>1438.1</ele>
        <time>2026-05-14T09:20:14.000Z</time>
      </trkpt>
      <trkpt lat="44.18457" lon="5.28118">
        <ele>1438.4</ele>
        <time>2026-05-14T09:20:15.000Z</time>
      </trkpt>
      <trkpt lat="44.18457" lon="5.28118">
        <ele>1438.6</ele>
        <time>2026-05-14T09:20:16.000Z</time>
      </trkpt>
      <trkpt lat="44.18457" lon="5.28118">
        <ele>1438.5</ele>
        <time>2026-05-14T09:20:17.000Z</time>
      </trkpt>
      <trkpt lat="44.18457" lon="5.28118">
        <ele>1438.3</ele>
        <time>2026-05-14T09:20:18.000Z</time>
      </trkpt>
      <trkpt lat="44.18457" lon="5.28118">
        <ele>1438.1</ele>
        <time>2026-05-14T09:20:19.000Z</time>
      </trkpt>
      <trkpt lat="44.18457" lon="5.28118">
        <ele>1437.9</ele>
        <time>2026-05-14T09:20:20.000Z</time>
      </trkpt>
      <trkpt lat="44.18457" lon="5.28118">
        <ele>1437.9</ele>
        <time>2026-05-14T09:20:21.000Z</time>
      </trkpt>
      <trkpt lat="44.18457" lon="5.28118">
        <ele>1437.7</ele>
        <time>2026-05-14T09:20:22.000Z</time>
      </trkpt>
      <trkpt lat="44.18457" lon="5.28118">
        <ele>1437.7</ele>
        <time>2026-05-14T09:20:23.000Z</time>
      </trkpt>
      <trkpt lat="44.18456" lon="5.28118">
        <ele>1437.7</ele>
        <time>2026-05-14T09:20:24.000Z</time>
      </trkpt>
      <trkpt lat="44.18456" lon="5.28117">
        <ele>1437.7</ele>
        <time>2026-05-14T09:20:25.000Z</time>
      </trkpt>
      <trkpt lat="44.18455" lon="5.28115">
        <ele>1437.6</ele>
        <time>2026-05-14T09:20:26.000Z</time>
      </trkpt>
      <trkpt lat="44.18455" lon="5.28115">
        <ele>1437.5</ele>
        <time>2026-05-14T09:20:27.000Z</time>
      </trkpt>
      <trkpt lat="44.18454" lon="5.28113">
        <ele>1436.9</ele>
        <time>2026-05-14T09:20:28.000Z</time>
      </trkpt>
      <trkpt lat="44.18453" lon="5.28113">
        <ele>1436.9</ele>
        <time>2026-05-14T09:20:29.000Z</time>
      </trkpt>
      <trkpt lat="44.18453" lon="5.28112">
        <ele>1436.9</ele>
        <time>2026-05-14T09:20:30.000Z</time>
      </trkpt>
      <trkpt lat="44.18452" lon="5.2811">
        <ele>1436.8</ele>
        <time>2026-05-14T09:20:31.000Z</time>
      </trkpt>
      <trkpt lat="44.18451" lon="5.28109">
        <ele>1436.7</ele>
        <time>2026-05-14T09:20:32.000Z</time>
      </trkpt>
      <trkpt lat="44.18451" lon="5.28108">
        <ele>1436.5</ele>
        <time>2026-05-14T09:20:33.000Z</time>
      </trkpt>
      <trkpt lat="44.1845" lon="5.28107">
        <ele>1436.5</ele>
        <time>2026-05-14T09:20:34.000Z</time>
      </trkpt>
      <trkpt lat="44.1845" lon="5.28105">
        <ele>1436.3</ele>
        <time>2026-05-14T09:20:35.000Z</time>
      </trkpt>
      <trkpt lat="44.1845" lon="5.28104">
        <ele>1436.5</ele>
        <time>2026-05-14T09:20:36.000Z</time>
      </trkpt>
      <trkpt lat="44.18449" lon="5.28102">
        <ele>1436.4</ele>
        <time>2026-05-14T09:20:37.000Z</time>
      </trkpt>
      <trkpt lat="44.18449" lon="5.28101">
        <ele>1436.3</ele>
        <time>2026-05-14T09:20:38.000Z</time>
      </trkpt>
      <trkpt lat="44.18449" lon="5.28099">
        <ele>1436.4</ele>
        <time>2026-05-14T09:20:39.000Z</time>
      </trkpt>
      <trkpt lat="44.18448" lon="5.28098">
        <ele>1436.5</ele>
        <time>2026-05-14T09:20:40.000Z</time>
      </trkpt>
      <trkpt lat="44.18447" lon="5.28097">
        <ele>1436.6</ele>
        <time>2026-05-14T09:20:41.000Z</time>
      </trkpt>
      <trkpt lat="44.18446" lon="5.28095">
        <ele>1436.2</ele>
        <time>2026-05-14T09:20:42.999Z</time>
      </trkpt>
      <trkpt lat="44.18446" lon="5.28092">
        <ele>1436</ele>
        <time>2026-05-14T09:20:44.999Z</time>
      </trkpt>
      <trkpt lat="44.18445" lon="5.28091">
        <ele>1435.7</ele>
        <time>2026-05-14T09:20:45.999Z</time>
      </trkpt>
      <trkpt lat="44.18444" lon="5.28089">
        <ele>1435.3</ele>
        <time>2026-05-14T09:20:46.999Z</time>
      </trkpt>
      <trkpt lat="44.18444" lon="5.28088">
        <ele>1435</ele>
        <time>2026-05-14T09:20:47.999Z</time>
      </trkpt>
      <trkpt lat="44.18443" lon="5.28088">
        <ele>1434.9</ele>
        <time>2026-05-14T09:20:48.999Z</time>
      </trkpt>
      <trkpt lat="44.18442" lon="5.28087">
        <ele>1434.2</ele>
        <time>2026-05-14T09:20:49.999Z</time>
      </trkpt>
      <trkpt lat="44.18441" lon="5.28086">
        <ele>1433.6</ele>
        <time>2026-05-14T09:20:50.999Z</time>
      </trkpt>
      <trkpt lat="44.1844" lon="5.28085">
        <ele>1433.4</ele>
        <time>2026-05-14T09:20:51.999Z</time>
      </trkpt>
      <trkpt lat="44.1844" lon="5.28085">
        <ele>1433</ele>
        <time>2026-05-14T09:20:52.999Z</time>
      </trkpt>
      <trkpt lat="44.1844" lon="5.28085">
        <ele>1433.1</ele>
        <time>2026-05-14T09:20:53.999Z</time>
      </trkpt>
      <trkpt lat="44.1844" lon="5.28084">
        <ele>1433</ele>
        <time>2026-05-14T09:20:54.999Z</time>
      </trkpt>
      <trkpt lat="44.1844" lon="5.28084">
        <ele>1432.9</ele>
        <time>2026-05-14T09:20:55.999Z</time>
      </trkpt>
      <trkpt lat="44.1844" lon="5.28083">
        <ele>1432.4</ele>
        <time>2026-05-14T09:20:56.999Z</time>
      </trkpt>
      <trkpt lat="44.1844" lon="5.28083">
        <ele>1432.1</ele>
        <time>2026-05-14T09:20:57.999Z</time>
      </trkpt>
      <trkpt lat="44.18439" lon="5.28083">
        <ele>1431.7</ele>
        <time>2026-05-14T09:20:58.999Z</time>
      </trkpt>
      <trkpt lat="44.18438" lon="5.28082">
        <ele>1430.9</ele>
        <time>2026-05-14T09:20:59.999Z</time>
      </trkpt>
      <trkpt lat="44.18437" lon="5.28082">
        <ele>1430.4</ele>
        <time>2026-05-14T09:21:00.999Z</time>
      </trkpt>
      <trkpt lat="44.18435" lon="5.28081">
        <ele>1430.2</ele>
        <time>2026-05-14T09:21:01.999Z</time>
      </trkpt>
      <trkpt lat="44.18435" lon="5.28081">
        <ele>1430.2</ele>
        <time>2026-05-14T09:21:02.999Z</time>
      </trkpt>
      <trkpt lat="44.18435" lon="5.28081">
        <ele>1430</ele>
        <time>2026-05-14T09:21:03.999Z</time>
      </trkpt>
      <trkpt lat="44.18434" lon="5.2808">
        <ele>1429.8</ele>
        <time>2026-05-14T09:21:04.999Z</time>
      </trkpt>
      <trkpt lat="44.18433" lon="5.2808">
        <ele>1429.4</ele>
        <time>2026-05-14T09:21:05.999Z</time>
      </trkpt>
      <trkpt lat="44.18432" lon="5.2808">
        <ele>1429</ele>
        <time>2026-05-14T09:21:06.999Z</time>
      </trkpt>
      <trkpt lat="44.18432" lon="5.28081">
        <ele>1429.1</ele>
        <time>2026-05-14T09:21:07.999Z</time>
      </trkpt>
      <trkpt lat="44.18433" lon="5.28081">
        <ele>1428.9</ele>
        <time>2026-05-14T09:21:08.999Z</time>
      </trkpt>
      <trkpt lat="44.18432" lon="5.28081">
        <ele>1428.5</ele>
        <time>2026-05-14T09:21:09.999Z</time>
      </trkpt>
      <trkpt lat="44.18432" lon="5.28081">
        <ele>1428.3</ele>
        <time>2026-05-14T09:21:10.999Z</time>
      </trkpt>
      <trkpt lat="44.18432" lon="5.28081">
        <ele>1428.2</ele>
        <time>2026-05-14T09:21:11.999Z</time>
      </trkpt>
      <trkpt lat="44.18432" lon="5.28081">
        <ele>1428.3</ele>
        <time>2026-05-14T09:21:12.999Z</time>
      </trkpt>
      <trkpt lat="44.18432" lon="5.28082">
        <ele>1427.9</ele>
        <time>2026-05-14T09:21:13.999Z</time>
      </trkpt>
      <trkpt lat="44.18432" lon="5.28082">
        <ele>1427.8</ele>
        <time>2026-05-14T09:21:14.999Z</time>
      </trkpt>
      <trkpt lat="44.18432" lon="5.28082">
        <ele>1427.9</ele>
        <time>2026-05-14T09:21:15.999Z</time>
      </trkpt>
      <trkpt lat="44.18432" lon="5.28082">
        <ele>1428</ele>
        <time>2026-05-14T09:21:16.999Z</time>
      </trkpt>
      <trkpt lat="44.18432" lon="5.28082">
        <ele>1428.2</ele>
        <time>2026-05-14T09:21:17.999Z</time>
      </trkpt>
      <trkpt lat="44.18432" lon="5.28082">
        <ele>1428.1</ele>
        <time>2026-05-14T09:21:18.999Z</time>
      </trkpt>
      <trkpt lat="44.18432" lon="5.28082">
        <ele>1428.1</ele>
        <time>2026-05-14T09:21:19.999Z</time>
      </trkpt>
      <trkpt lat="44.18432" lon="5.28082">
        <ele>1428.1</ele>
        <time>2026-05-14T09:21:20.999Z</time>
      </trkpt>
      <trkpt lat="44.18432" lon="5.28082">
        <ele>1428</ele>
        <time>2026-05-14T09:21:21.999Z</time>
      </trkpt>
      <trkpt lat="44.18432" lon="5.28082">
        <ele>1428.4</ele>
        <time>2026-05-14T09:21:22.999Z</time>
      </trkpt>
      <trkpt lat="44.18432" lon="5.28082">
        <ele>1428.2</ele>
        <time>2026-05-14T09:21:23.999Z</time>
      </trkpt>
      <trkpt lat="44.18431" lon="5.28082">
        <ele>1428.2</ele>
        <time>2026-05-14T09:21:24.999Z</time>
      </trkpt>
      <trkpt lat="44.18431" lon="5.28082">
        <ele>1427.8</ele>
        <time>2026-05-14T09:21:25.999Z</time>
      </trkpt>
      <trkpt lat="44.18431" lon="5.28082">
        <ele>1427.5</ele>
        <time>2026-05-14T09:21:26.999Z</time>
      </trkpt>
      <trkpt lat="44.18431" lon="5.28082">
        <ele>1427.5</ele>
        <time>2026-05-14T09:21:27.999Z</time>
      </trkpt>
      <trkpt lat="44.18431" lon="5.28082">
        <ele>1427.3</ele>
        <time>2026-05-14T09:21:28.999Z</time>
      </trkpt>
      <trkpt lat="44.18431" lon="5.28082">
        <ele>1427.1</ele>
        <time>2026-05-14T09:21:29.999Z</time>
      </trkpt>
      <trkpt lat="44.18431" lon="5.28082">
        <ele>1426.9</ele>
        <time>2026-05-14T09:21:30.999Z</time>
      </trkpt>
      <trkpt lat="44.18431" lon="5.28082">
        <ele>1426.4</ele>
        <time>2026-05-14T09:21:31.999Z</time>
      </trkpt>
      <trkpt lat="44.18431" lon="5.28082">
        <ele>1426.5</ele>
        <time>2026-05-14T09:21:32.999Z</time>
      </trkpt>
      <trkpt lat="44.18431" lon="5.28082">
        <ele>1426.2</ele>
        <time>2026-05-14T09:21:33.999Z</time>
      </trkpt>
      <trkpt lat="44.18431" lon="5.28082">
        <ele>1426.4</ele>
        <time>2026-05-14T09:21:34.999Z</time>
      </trkpt>
      <trkpt lat="44.18431" lon="5.28082">
        <ele>1426.5</ele>
        <time>2026-05-14T09:21:35.999Z</time>
      </trkpt>
      <trkpt lat="44.1843" lon="5.28082">
        <ele>1426.5</ele>
        <time>2026-05-14T09:21:37.999Z</time>
      </trkpt>
      <trkpt lat="44.1843" lon="5.28082">
        <ele>1426.5</ele>
        <time>2026-05-14T09:21:38.999Z</time>
      </trkpt>
      <trkpt lat="44.1843" lon="5.28082">
        <ele>1426.6</ele>
        <time>2026-05-14T09:21:39.999Z</time>
      </trkpt>
      <trkpt lat="44.1843" lon="5.28081">
        <ele>1426.7</ele>
        <time>2026-05-14T09:21:40.999Z</time>
      </trkpt>
      <trkpt lat="44.1843" lon="5.28081">
        <ele>1426.8</ele>
        <time>2026-05-14T09:21:41.999Z</time>
      </trkpt>
      <trkpt lat="44.18429" lon="5.28081">
        <ele>1427.2</ele>
        <time>2026-05-14T09:21:42.999Z</time>
      </trkpt>
      <trkpt lat="44.18428" lon="5.28081">
        <ele>1426.7</ele>
        <time>2026-05-14T09:21:43.999Z</time>
      </trkpt>
      <trkpt lat="44.18427" lon="5.2808">
        <ele>1426.6</ele>
        <time>2026-05-14T09:21:44.999Z</time>
      </trkpt>
      <trkpt lat="44.18427" lon="5.2808">
        <ele>1426.8</ele>
        <time>2026-05-14T09:21:45.999Z</time>
      </trkpt>
      <trkpt lat="44.18427" lon="5.2808">
        <ele>1427</ele>
        <time>2026-05-14T09:21:46.999Z</time>
      </trkpt>
      <trkpt lat="44.18426" lon="5.2808">
        <ele>1427.2</ele>
        <time>2026-05-14T09:21:47.999Z</time>
      </trkpt>
      <trkpt lat="44.18427" lon="5.2808">
        <ele>1427.3</ele>
        <time>2026-05-14T09:21:48.999Z</time>
      </trkpt>
      <trkpt lat="44.18426" lon="5.2808">
        <ele>1427.2</ele>
        <time>2026-05-14T09:21:49.999Z</time>
      </trkpt>
      <trkpt lat="44.18426" lon="5.2808">
        <ele>1427.1</ele>
        <time>2026-05-14T09:21:50.999Z</time>
      </trkpt>
      <trkpt lat="44.18426" lon="5.2808">
        <ele>1426.9</ele>
        <time>2026-05-14T09:21:51.999Z</time>
      </trkpt>
      <trkpt lat="44.18426" lon="5.2808">
        <ele>1426.6</ele>
        <time>2026-05-14T09:21:52.999Z</time>
      </trkpt>
      <trkpt lat="44.18426" lon="5.2808">
        <ele>1426.6</ele>
        <time>2026-05-14T09:21:53.999Z</time>
      </trkpt>
      <trkpt lat="44.18426" lon="5.2808">
        <ele>1426.5</ele>
        <time>2026-05-14T09:21:54.999Z</time>
      </trkpt>
      <trkpt lat="44.18426" lon="5.2808">
        <ele>1426.6</ele>
        <time>2026-05-14T09:21:55.999Z</time>
      </trkpt>
      <trkpt lat="44.18426" lon="5.2808">
        <ele>1426.6</ele>
        <time>2026-05-14T09:21:56.999Z</time>
      </trkpt>
      <trkpt lat="44.18426" lon="5.2808">
        <ele>1426.4</ele>
        <time>2026-05-14T09:21:57.999Z</time>
      </trkpt>
      <trkpt lat="44.18426" lon="5.28078">
        <ele>1425.9</ele>
        <time>2026-05-14T09:21:58.999Z</time>
      </trkpt>
      <trkpt lat="44.18425" lon="5.28077">
        <ele>1425.8</ele>
        <time>2026-05-14T09:21:59.999Z</time>
      </trkpt>
      <trkpt lat="44.18425" lon="5.28076">
        <ele>1425.8</ele>
        <time>2026-05-14T09:22:00.999Z</time>
      </trkpt>
      <trkpt lat="44.18424" lon="5.28075">
        <ele>1425.5</ele>
        <time>2026-05-14T09:22:01.999Z</time>
      </trkpt>
      <trkpt lat="44.18424" lon="5.28075">
        <ele>1425.5</ele>
        <time>2026-05-14T09:22:02.999Z</time>
      </trkpt>
      <trkpt lat="44.18424" lon="5.28074">
        <ele>1425.2</ele>
        <time>2026-05-14T09:22:03.999Z</time>
      </trkpt>
      <trkpt lat="44.18423" lon="5.28074">
        <ele>1425.2</ele>
        <time>2026-05-14T09:22:04.999Z</time>
      </trkpt>
      <trkpt lat="44.18422" lon="5.28074">
        <ele>1425.1</ele>
        <time>2026-05-14T09:22:05.999Z</time>
      </trkpt>
      <trkpt lat="44.18422" lon="5.28074">
        <ele>1425.1</ele>
        <time>2026-05-14T09:22:06.999Z</time>
      </trkpt>
      <trkpt lat="44.18422" lon="5.28074">
        <ele>1425.3</ele>
        <time>2026-05-14T09:22:07.999Z</time>
      </trkpt>
      <trkpt lat="44.18421" lon="5.28073">
        <ele>1425</ele>
        <time>2026-05-14T09:22:08.999Z</time>
      </trkpt>
      <trkpt lat="44.18421" lon="5.28073">
        <ele>1424.7</ele>
        <time>2026-05-14T09:22:09.999Z</time>
      </trkpt>
      <trkpt lat="44.18421" lon="5.28073">
        <ele>1424.6</ele>
        <time>2026-05-14T09:22:10.999Z</time>
      </trkpt>
      <trkpt lat="44.18421" lon="5.28073">
        <ele>1424.7</ele>
        <time>2026-05-14T09:22:11.999Z</time>
      </trkpt>
      <trkpt lat="44.1842" lon="5.28073">
        <ele>1424.8</ele>
        <time>2026-05-14T09:22:12.999Z</time>
      </trkpt>
      <trkpt lat="44.18419" lon="5.28073">
        <ele>1424.6</ele>
        <time>2026-05-14T09:22:13.999Z</time>
      </trkpt>
      <trkpt lat="44.18417" lon="5.28072">
        <ele>1424.6</ele>
        <time>2026-05-14T09:22:14.999Z</time>
      </trkpt>
      <trkpt lat="44.18415" lon="5.28072">
        <ele>1424.6</ele>
        <time>2026-05-14T09:22:15.999Z</time>
      </trkpt>
      <trkpt lat="44.18414" lon="5.28071">
        <ele>1424.6</ele>
        <time>2026-05-14T09:22:16.999Z</time>
      </trkpt>
      <trkpt lat="44.18412" lon="5.2807">
        <ele>1424.7</ele>
        <time>2026-05-14T09:22:17.999Z</time>
      </trkpt>
      <trkpt lat="44.18411" lon="5.2807">
        <ele>1424.7</ele>
        <time>2026-05-14T09:22:18.999Z</time>
      </trkpt>
      <trkpt lat="44.18409" lon="5.2807">
        <ele>1424.9</ele>
        <time>2026-05-14T09:22:19.999Z</time>
      </trkpt>
      <trkpt lat="44.18408" lon="5.28069">
        <ele>1424.8</ele>
        <time>2026-05-14T09:22:20.999Z</time>
      </trkpt>
      <trkpt lat="44.18406" lon="5.28069">
        <ele>1425</ele>
        <time>2026-05-14T09:22:21.999Z</time>
      </trkpt>
      <trkpt lat="44.18405" lon="5.28068">
        <ele>1424.9</ele>
        <time>2026-05-14T09:22:22.999Z</time>
      </trkpt>
      <trkpt lat="44.18404" lon="5.28068">
        <ele>1424.9</ele>
        <time>2026-05-14T09:22:23.999Z</time>
      </trkpt>
      <trkpt lat="44.18404" lon="5.28067">
        <ele>1425.3</ele>
        <time>2026-05-14T09:22:24.999Z</time>
      </trkpt>
      <trkpt lat="44.18402" lon="5.28066">
        <ele>1425.5</ele>
        <time>2026-05-14T09:22:25.999Z</time>
      </trkpt>
      <trkpt lat="44.184" lon="5.28065">
        <ele>1425.8</ele>
        <time>2026-05-14T09:22:26.999Z</time>
      </trkpt>
      <trkpt lat="44.18399" lon="5.28064">
        <ele>1426</ele>
        <time>2026-05-14T09:22:27.999Z</time>
      </trkpt>
      <trkpt lat="44.18399" lon="5.28064">
        <ele>1426.2</ele>
        <time>2026-05-14T09:22:28.999Z</time>
      </trkpt>
      <trkpt lat="44.18398" lon="5.28064">
        <ele>1426.4</ele>
        <time>2026-05-14T09:22:29.999Z</time>
      </trkpt>
      <trkpt lat="44.18398" lon="5.28063">
        <ele>1426.6</ele>
        <time>2026-05-14T09:22:30.999Z</time>
      </trkpt>
      <trkpt lat="44.18398" lon="5.28063">
        <ele>1426.7</ele>
        <time>2026-05-14T09:22:31.999Z</time>
      </trkpt>
      <trkpt lat="44.18397" lon="5.28063">
        <ele>1426.7</ele>
        <time>2026-05-14T09:22:32.999Z</time>
      </trkpt>
      <trkpt lat="44.18397" lon="5.28062">
        <ele>1426.7</ele>
        <time>2026-05-14T09:22:33.999Z</time>
      </trkpt>
      <trkpt lat="44.18396" lon="5.28062">
        <ele>1426.9</ele>
        <time>2026-05-14T09:22:34.999Z</time>
      </trkpt>
      <trkpt lat="44.18395" lon="5.28062">
        <ele>1427</ele>
        <time>2026-05-14T09:22:35.999Z</time>
      </trkpt>
      <trkpt lat="44.18395" lon="5.28062">
        <ele>1427</ele>
        <time>2026-05-14T09:22:36.999Z</time>
      </trkpt>
      <trkpt lat="44.18395" lon="5.28061">
        <ele>1427.2</ele>
        <time>2026-05-14T09:22:37.999Z</time>
      </trkpt>
      <trkpt lat="44.18394" lon="5.2806">
        <ele>1426.9</ele>
        <time>2026-05-14T09:22:38.999Z</time>
      </trkpt>
      <trkpt lat="44.18394" lon="5.2806">
        <ele>1426.6</ele>
        <time>2026-05-14T09:22:39.999Z</time>
      </trkpt>
      <trkpt lat="44.18393" lon="5.2806">
        <ele>1426.4</ele>
        <time>2026-05-14T09:22:40.999Z</time>
      </trkpt>
      <trkpt lat="44.18392" lon="5.2806">
        <ele>1426.6</ele>
        <time>2026-05-14T09:22:41.999Z</time>
      </trkpt>
      <trkpt lat="44.18391" lon="5.28059">
        <ele>1426.7</ele>
        <time>2026-05-14T09:22:42.999Z</time>
      </trkpt>
      <trkpt lat="44.1839" lon="5.28059">
        <ele>1426.8</ele>
        <time>2026-05-14T09:22:43.999Z</time>
      </trkpt>
      <trkpt lat="44.18389" lon="5.28058">
        <ele>1427</ele>
        <time>2026-05-14T09:22:44.999Z</time>
      </trkpt>
      <trkpt lat="44.18389" lon="5.28058">
        <ele>1427</ele>
        <time>2026-05-14T09:22:45.999Z</time>
      </trkpt>
      <trkpt lat="44.18389" lon="5.28058">
        <ele>1427.2</ele>
        <time>2026-05-14T09:22:46.999Z</time>
      </trkpt>
      <trkpt lat="44.18389" lon="5.28058">
        <ele>1427.5</ele>
        <time>2026-05-14T09:22:47.999Z</time>
      </trkpt>
      <trkpt lat="44.18389" lon="5.28058">
        <ele>1427.4</ele>
        <time>2026-05-14T09:22:48.999Z</time>
      </trkpt>
      <trkpt lat="44.18389" lon="5.28058">
        <ele>1427.4</ele>
        <time>2026-05-14T09:22:49.999Z</time>
      </trkpt>
      <trkpt lat="44.18389" lon="5.28058">
        <ele>1427.5</ele>
        <time>2026-05-14T09:22:50.999Z</time>
      </trkpt>
      <trkpt lat="44.18389" lon="5.28058">
        <ele>1427.3</ele>
        <time>2026-05-14T09:22:51.999Z</time>
      </trkpt>
      <trkpt lat="44.18389" lon="5.28058">
        <ele>1427</ele>
        <time>2026-05-14T09:22:52.999Z</time>
      </trkpt>
      <trkpt lat="44.18389" lon="5.28057">
        <ele>1426.7</ele>
        <time>2026-05-14T09:22:53.999Z</time>
      </trkpt>
      <trkpt lat="44.18388" lon="5.28057">
        <ele>1426.5</ele>
        <time>2026-05-14T09:22:54.999Z</time>
      </trkpt>
      <trkpt lat="44.18388" lon="5.28055">
        <ele>1426.3</ele>
        <time>2026-05-14T09:22:55.999Z</time>
      </trkpt>
      <trkpt lat="44.18387" lon="5.28054">
        <ele>1426.1</ele>
        <time>2026-05-14T09:22:56.999Z</time>
      </trkpt>
      <trkpt lat="44.18386" lon="5.28053">
        <ele>1426.1</ele>
        <time>2026-05-14T09:22:57.999Z</time>
      </trkpt>
      <trkpt lat="44.18385" lon="5.28052">
        <ele>1425.9</ele>
        <time>2026-05-14T09:22:58.999Z</time>
      </trkpt>
      <trkpt lat="44.18385" lon="5.28051">
        <ele>1425.7</ele>
        <time>2026-05-14T09:22:59.999Z</time>
      </trkpt>
      <trkpt lat="44.18384" lon="5.2805">
        <ele>1425.6</ele>
        <time>2026-05-14T09:23:00.999Z</time>
      </trkpt>
      <trkpt lat="44.18382" lon="5.28047">
        <ele>1425.5</ele>
        <time>2026-05-14T09:23:02.999Z</time>
      </trkpt>
      <trkpt lat="44.18382" lon="5.28046">
        <ele>1425.3</ele>
        <time>2026-05-14T09:23:03.999Z</time>
      </trkpt>
      <trkpt lat="44.18381" lon="5.28045">
        <ele>1425.2</ele>
        <time>2026-05-14T09:23:04.999Z</time>
      </trkpt>
      <trkpt lat="44.18379" lon="5.28045">
        <ele>1425.4</ele>
        <time>2026-05-14T09:23:05.999Z</time>
      </trkpt>
      <trkpt lat="44.18378" lon="5.28045">
        <ele>1425</ele>
        <time>2026-05-14T09:23:06.999Z</time>
      </trkpt>
      <trkpt lat="44.18377" lon="5.28044">
        <ele>1424.8</ele>
        <time>2026-05-14T09:23:07.999Z</time>
      </trkpt>
      <trkpt lat="44.18376" lon="5.28043">
        <ele>1424.6</ele>
        <time>2026-05-14T09:23:09.999Z</time>
      </trkpt>
      <trkpt lat="44.18376" lon="5.28043">
        <ele>1424.6</ele>
        <time>2026-05-14T09:23:10.999Z</time>
      </trkpt>
      <trkpt lat="44.18376" lon="5.28043">
        <ele>1424.6</ele>
        <time>2026-05-14T09:23:11.999Z</time>
      </trkpt>
      <trkpt lat="44.18375" lon="5.28042">
        <ele>1424.8</ele>
        <time>2026-05-14T09:23:12.999Z</time>
      </trkpt>
      <trkpt lat="44.18374" lon="5.28041">
        <ele>1425</ele>
        <time>2026-05-14T09:23:13.999Z</time>
      </trkpt>
      <trkpt lat="44.18373" lon="5.28041">
        <ele>1425</ele>
        <time>2026-05-14T09:23:14.999Z</time>
      </trkpt>
      <trkpt lat="44.18372" lon="5.2804">
        <ele>1425.3</ele>
        <time>2026-05-14T09:23:15.999Z</time>
      </trkpt>
      <trkpt lat="44.18372" lon="5.28039">
        <ele>1425.4</ele>
        <time>2026-05-14T09:23:16.999Z</time>
      </trkpt>
      <trkpt lat="44.1837" lon="5.28038">
        <ele>1425.8</ele>
        <time>2026-05-14T09:23:17.999Z</time>
      </trkpt>
      <trkpt lat="44.1837" lon="5.28037">
        <ele>1425.9</ele>
        <time>2026-05-14T09:23:18.999Z</time>
      </trkpt>
      <trkpt lat="44.1837" lon="5.28036">
        <ele>1425.8</ele>
        <time>2026-05-14T09:23:19.999Z</time>
      </trkpt>
      <trkpt lat="44.1837" lon="5.28036">
        <ele>1425.8</ele>
        <time>2026-05-14T09:23:20.999Z</time>
      </trkpt>
      <trkpt lat="44.1837" lon="5.28036">
        <ele>1425.6</ele>
        <time>2026-05-14T09:23:21.999Z</time>
      </trkpt>
      <trkpt lat="44.1837" lon="5.28036">
        <ele>1425.7</ele>
        <time>2026-05-14T09:23:22.999Z</time>
      </trkpt>
      <trkpt lat="44.1837" lon="5.28036">
        <ele>1424.9</ele>
        <time>2026-05-14T09:23:24.999Z</time>
      </trkpt>
      <trkpt lat="44.18369" lon="5.28035">
        <ele>1424.9</ele>
        <time>2026-05-14T09:23:25.999Z</time>
      </trkpt>
      <trkpt lat="44.18369" lon="5.28034">
        <ele>1424.8</ele>
        <time>2026-05-14T09:23:26.999Z</time>
      </trkpt>
      <trkpt lat="44.18368" lon="5.28034">
        <ele>1425</ele>
        <time>2026-05-14T09:23:27.999Z</time>
      </trkpt>
      <trkpt lat="44.18367" lon="5.28034">
        <ele>1425</ele>
        <time>2026-05-14T09:23:28.999Z</time>
      </trkpt>
      <trkpt lat="44.18367" lon="5.28034">
        <ele>1425.2</ele>
        <time>2026-05-14T09:23:29.999Z</time>
      </trkpt>
      <trkpt lat="44.18367" lon="5.28033">
        <ele>1425.4</ele>
        <time>2026-05-14T09:23:30.999Z</time>
      </trkpt>
      <trkpt lat="44.18366" lon="5.28033">
        <ele>1425.5</ele>
        <time>2026-05-14T09:23:31.999Z</time>
      </trkpt>
      <trkpt lat="44.18365" lon="5.28032">
        <ele>1425.6</ele>
        <time>2026-05-14T09:23:32.999Z</time>
      </trkpt>
      <trkpt lat="44.18364" lon="5.28031">
        <ele>1426</ele>
        <time>2026-05-14T09:23:33.999Z</time>
      </trkpt>
      <trkpt lat="44.18363" lon="5.28031">
        <ele>1426.2</ele>
        <time>2026-05-14T09:23:34.999Z</time>
      </trkpt>
      <trkpt lat="44.18362" lon="5.28031">
        <ele>1426.2</ele>
        <time>2026-05-14T09:23:35.999Z</time>
      </trkpt>
      <trkpt lat="44.18361" lon="5.28031">
        <ele>1426.1</ele>
        <time>2026-05-14T09:23:36.999Z</time>
      </trkpt>
      <trkpt lat="44.1836" lon="5.28031">
        <ele>1426.2</ele>
        <time>2026-05-14T09:23:37.999Z</time>
      </trkpt>
      <trkpt lat="44.18357" lon="5.28031">
        <ele>1426.8</ele>
        <time>2026-05-14T09:23:39.999Z</time>
      </trkpt>
      <trkpt lat="44.18355" lon="5.28031">
        <ele>1426.5</ele>
        <time>2026-05-14T09:23:40.999Z</time>
      </trkpt>
      <trkpt lat="44.18354" lon="5.28032">
        <ele>1426.5</ele>
        <time>2026-05-14T09:23:41.999Z</time>
      </trkpt>
      <trkpt lat="44.18353" lon="5.28033">
        <ele>1426.5</ele>
        <time>2026-05-14T09:23:42.999Z</time>
      </trkpt>
      <trkpt lat="44.18352" lon="5.28034">
        <ele>1426.4</ele>
        <time>2026-05-14T09:23:43.999Z</time>
      </trkpt>
      <trkpt lat="44.18352" lon="5.28034">
        <ele>1426.2</ele>
        <time>2026-05-14T09:23:44.999Z</time>
      </trkpt>
      <trkpt lat="44.18352" lon="5.28034">
        <ele>1426</ele>
        <time>2026-05-14T09:23:45.999Z</time>
      </trkpt>
      <trkpt lat="44.18351" lon="5.28035">
        <ele>1425.8</ele>
        <time>2026-05-14T09:23:46.999Z</time>
      </trkpt>
      <trkpt lat="44.18351" lon="5.28035">
        <ele>1425.7</ele>
        <time>2026-05-14T09:23:47.999Z</time>
      </trkpt>
      <trkpt lat="44.18351" lon="5.28035">
        <ele>1425.4</ele>
        <time>2026-05-14T09:23:49.999Z</time>
      </trkpt>
      <trkpt lat="44.1835" lon="5.28036">
        <ele>1425.4</ele>
        <time>2026-05-14T09:23:50.999Z</time>
      </trkpt>
      <trkpt lat="44.18349" lon="5.28037">
        <ele>1425.3</ele>
        <time>2026-05-14T09:23:51.999Z</time>
      </trkpt>
      <trkpt lat="44.18348" lon="5.28038">
        <ele>1425.2</ele>
        <time>2026-05-14T09:23:52.999Z</time>
      </trkpt>
      <trkpt lat="44.18348" lon="5.28037">
        <ele>1424.8</ele>
        <time>2026-05-14T09:23:53.999Z</time>
      </trkpt>
      <trkpt lat="44.18348" lon="5.28038">
        <ele>1424.7</ele>
        <time>2026-05-14T09:23:54.999Z</time>
      </trkpt>
      <trkpt lat="44.18347" lon="5.28038">
        <ele>1424.3</ele>
        <time>2026-05-14T09:23:55.999Z</time>
      </trkpt>
      <trkpt lat="44.18346" lon="5.28037">
        <ele>1423.7</ele>
        <time>2026-05-14T09:23:56.999Z</time>
      </trkpt>
      <trkpt lat="44.18346" lon="5.28037">
        <ele>1423.2</ele>
        <time>2026-05-14T09:23:57.999Z</time>
      </trkpt>
      <trkpt lat="44.18346" lon="5.28038">
        <ele>1422.7</ele>
        <time>2026-05-14T09:23:58.999Z</time>
      </trkpt>
      <trkpt lat="44.18345" lon="5.28039">
        <ele>1422.6</ele>
        <time>2026-05-14T09:23:59.999Z</time>
      </trkpt>
      <trkpt lat="44.18345" lon="5.2804">
        <ele>1422.8</ele>
        <time>2026-05-14T09:24:00.999Z</time>
      </trkpt>
      <trkpt lat="44.18346" lon="5.28041">
        <ele>1422.7</ele>
        <time>2026-05-14T09:24:01.999Z</time>
      </trkpt>
      <trkpt lat="44.18346" lon="5.28041">
        <ele>1422.7</ele>
        <time>2026-05-14T09:24:02.999Z</time>
      </trkpt>
      <trkpt lat="44.18346" lon="5.28041">
        <ele>1423.1</ele>
        <time>2026-05-14T09:24:03.999Z</time>
      </trkpt>
      <trkpt lat="44.18346" lon="5.28042">
        <ele>1423.3</ele>
        <time>2026-05-14T09:24:04.999Z</time>
      </trkpt>
      <trkpt lat="44.18346" lon="5.28042">
        <ele>1423.2</ele>
        <time>2026-05-14T09:24:05.999Z</time>
      </trkpt>
      <trkpt lat="44.18346" lon="5.28043">
        <ele>1423</ele>
        <time>2026-05-14T09:24:06.999Z</time>
      </trkpt>
      <trkpt lat="44.18346" lon="5.28044">
        <ele>1423.3</ele>
        <time>2026-05-14T09:24:07.999Z</time>
      </trkpt>
      <trkpt lat="44.18346" lon="5.28046">
        <ele>1423.5</ele>
        <time>2026-05-14T09:24:08.999Z</time>
      </trkpt>
      <trkpt lat="44.18347" lon="5.28047">
        <ele>1423.6</ele>
        <time>2026-05-14T09:24:09.999Z</time>
      </trkpt>
      <trkpt lat="44.18347" lon="5.28049">
        <ele>1423.6</ele>
        <time>2026-05-14T09:24:10.999Z</time>
      </trkpt>
      <trkpt lat="44.18347" lon="5.28051">
        <ele>1423.6</ele>
        <time>2026-05-14T09:24:11.999Z</time>
      </trkpt>
      <trkpt lat="44.18347" lon="5.28053">
        <ele>1423.7</ele>
        <time>2026-05-14T09:24:12.999Z</time>
      </trkpt>
      <trkpt lat="44.18347" lon="5.28054">
        <ele>1423.6</ele>
        <time>2026-05-14T09:24:13.999Z</time>
      </trkpt>
      <trkpt lat="44.18347" lon="5.28056">
        <ele>1423.6</ele>
        <time>2026-05-14T09:24:14.999Z</time>
      </trkpt>
      <trkpt lat="44.18347" lon="5.28058">
        <ele>1423.7</ele>
        <time>2026-05-14T09:24:15.999Z</time>
      </trkpt>
      <trkpt lat="44.18347" lon="5.28059">
        <ele>1423.5</ele>
        <time>2026-05-14T09:24:16.999Z</time>
      </trkpt>
      <trkpt lat="44.18347" lon="5.2806">
        <ele>1423.4</ele>
        <time>2026-05-14T09:24:17.999Z</time>
      </trkpt>
      <trkpt lat="44.18347" lon="5.28063">
        <ele>1424</ele>
        <time>2026-05-14T09:24:18.999Z</time>
      </trkpt>
      <trkpt lat="44.18347" lon="5.28066">
        <ele>1424.3</ele>
        <time>2026-05-14T09:24:19.999Z</time>
      </trkpt>
      <trkpt lat="44.18346" lon="5.28068">
        <ele>1424.2</ele>
        <time>2026-05-14T09:24:20.999Z</time>
      </trkpt>
      <trkpt lat="44.18346" lon="5.2807">
        <ele>1424.2</ele>
        <time>2026-05-14T09:24:21.999Z</time>
      </trkpt>
      <trkpt lat="44.18346" lon="5.28072">
        <ele>1424.3</ele>
        <time>2026-05-14T09:24:22.999Z</time>
      </trkpt>
      <trkpt lat="44.18346" lon="5.28074">
        <ele>1424.2</ele>
        <time>2026-05-14T09:24:23.999Z</time>
      </trkpt>
      <trkpt lat="44.18345" lon="5.28076">
        <ele>1424.2</ele>
        <time>2026-05-14T09:24:24.999Z</time>
      </trkpt>
      <trkpt lat="44.18345" lon="5.28078">
        <ele>1424.3</ele>
        <time>2026-05-14T09:24:25.999Z</time>
      </trkpt>
      <trkpt lat="44.18345" lon="5.28079">
        <ele>1424.5</ele>
        <time>2026-05-14T09:24:26.999Z</time>
      </trkpt>
      <trkpt lat="44.18345" lon="5.2808">
        <ele>1424.6</ele>
        <time>2026-05-14T09:24:27.999Z</time>
      </trkpt>
      <trkpt lat="44.18345" lon="5.28082">
        <ele>1425.1</ele>
        <time>2026-05-14T09:24:28.999Z</time>
      </trkpt>
      <trkpt lat="44.18345" lon="5.28084">
        <ele>1425.8</ele>
        <time>2026-05-14T09:24:29.999Z</time>
      </trkpt>
      <trkpt lat="44.18345" lon="5.28086">
        <ele>1426.4</ele>
        <time>2026-05-14T09:24:30.999Z</time>
      </trkpt>
      <trkpt lat="44.18345" lon="5.28087">
        <ele>1426.5</ele>
        <time>2026-05-14T09:24:31.999Z</time>
      </trkpt>
      <trkpt lat="44.18345" lon="5.28087">
        <ele>1426.7</ele>
        <time>2026-05-14T09:24:32.999Z</time>
      </trkpt>
      <trkpt lat="44.18344" lon="5.28088">
        <ele>1426.6</ele>
        <time>2026-05-14T09:24:33.999Z</time>
      </trkpt>
      <trkpt lat="44.18344" lon="5.28089">
        <ele>1426.7</ele>
        <time>2026-05-14T09:24:34.999Z</time>
      </trkpt>
      <trkpt lat="44.18344" lon="5.2809">
        <ele>1426.6</ele>
        <time>2026-05-14T09:24:35.999Z</time>
      </trkpt>
      <trkpt lat="44.18344" lon="5.28091">
        <ele>1426.7</ele>
        <time>2026-05-14T09:24:36.999Z</time>
      </trkpt>
      <trkpt lat="44.18344" lon="5.28092">
        <ele>1426.6</ele>
        <time>2026-05-14T09:24:37.999Z</time>
      </trkpt>
      <trkpt lat="44.18344" lon="5.28093">
        <ele>1426.4</ele>
        <time>2026-05-14T09:24:38.999Z</time>
      </trkpt>
      <trkpt lat="44.18344" lon="5.28094">
        <ele>1425.5</ele>
        <time>2026-05-14T09:24:39.999Z</time>
      </trkpt>
      <trkpt lat="44.18344" lon="5.28095">
        <ele>1425.1</ele>
        <time>2026-05-14T09:24:40.999Z</time>
      </trkpt>
      <trkpt lat="44.18343" lon="5.28096">
        <ele>1425.1</ele>
        <time>2026-05-14T09:24:41.999Z</time>
      </trkpt>
      <trkpt lat="44.18343" lon="5.28097">
        <ele>1425.2</ele>
        <time>2026-05-14T09:24:42.999Z</time>
      </trkpt>
      <trkpt lat="44.18343" lon="5.28098">
        <ele>1425.1</ele>
        <time>2026-05-14T09:24:43.999Z</time>
      </trkpt>
      <trkpt lat="44.18343" lon="5.281">
        <ele>1425.3</ele>
        <time>2026-05-14T09:24:44.999Z</time>
      </trkpt>
      <trkpt lat="44.18343" lon="5.28102">
        <ele>1425.8</ele>
        <time>2026-05-14T09:24:45.999Z</time>
      </trkpt>
      <trkpt lat="44.18343" lon="5.28103">
        <ele>1425.3</ele>
        <time>2026-05-14T09:24:46.999Z</time>
      </trkpt>
      <trkpt lat="44.18342" lon="5.28105">
        <ele>1425.6</ele>
        <time>2026-05-14T09:24:47.999Z</time>
      </trkpt>
      <trkpt lat="44.18342" lon="5.28107">
        <ele>1425.9</ele>
        <time>2026-05-14T09:24:48.999Z</time>
      </trkpt>
      <trkpt lat="44.18341" lon="5.28109">
        <ele>1425.9</ele>
        <time>2026-05-14T09:24:49.999Z</time>
      </trkpt>
      <trkpt lat="44.1834" lon="5.28111">
        <ele>1425.9</ele>
        <time>2026-05-14T09:24:50.999Z</time>
      </trkpt>
      <trkpt lat="44.1834" lon="5.28112">
        <ele>1425.9</ele>
        <time>2026-05-14T09:24:51.999Z</time>
      </trkpt>
      <trkpt lat="44.1834" lon="5.28113">
        <ele>1425.8</ele>
        <time>2026-05-14T09:24:52.999Z</time>
      </trkpt>
      <trkpt lat="44.1834" lon="5.28114">
        <ele>1426.1</ele>
        <time>2026-05-14T09:24:53.999Z</time>
      </trkpt>
      <trkpt lat="44.1834" lon="5.28115">
        <ele>1426.2</ele>
        <time>2026-05-14T09:24:54.999Z</time>
      </trkpt>
      <trkpt lat="44.18339" lon="5.28116">
        <ele>1426.2</ele>
        <time>2026-05-14T09:24:55.999Z</time>
      </trkpt>
      <trkpt lat="44.18339" lon="5.28116">
        <ele>1425.6</ele>
        <time>2026-05-14T09:24:56.999Z</time>
      </trkpt>
      <trkpt lat="44.18339" lon="5.28118">
        <ele>1424.9</ele>
        <time>2026-05-14T09:24:58.999Z</time>
      </trkpt>
      <trkpt lat="44.18338" lon="5.28119">
        <ele>1424.8</ele>
        <time>2026-05-14T09:24:59.999Z</time>
      </trkpt>
      <trkpt lat="44.18338" lon="5.28121">
        <ele>1424.7</ele>
        <time>2026-05-14T09:25:00.999Z</time>
      </trkpt>
      <trkpt lat="44.18338" lon="5.28122">
        <ele>1424.1</ele>
        <time>2026-05-14T09:25:01.999Z</time>
      </trkpt>
      <trkpt lat="44.18338" lon="5.28124">
        <ele>1424</ele>
        <time>2026-05-14T09:25:02.999Z</time>
      </trkpt>
      <trkpt lat="44.18337" lon="5.28126">
        <ele>1423.7</ele>
        <time>2026-05-14T09:25:03.999Z</time>
      </trkpt>
      <trkpt lat="44.18336" lon="5.28127">
        <ele>1423.5</ele>
        <time>2026-05-14T09:25:04.999Z</time>
      </trkpt>
      <trkpt lat="44.18336" lon="5.28128">
        <ele>1423.3</ele>
        <time>2026-05-14T09:25:05.999Z</time>
      </trkpt>
      <trkpt lat="44.18335" lon="5.28129">
        <ele>1423.4</ele>
        <time>2026-05-14T09:25:06.999Z</time>
      </trkpt>
      <trkpt lat="44.18334" lon="5.28131">
        <ele>1424.2</ele>
        <time>2026-05-14T09:25:07.999Z</time>
      </trkpt>
      <trkpt lat="44.18333" lon="5.28132">
        <ele>1423.8</ele>
        <time>2026-05-14T09:25:08.999Z</time>
      </trkpt>
      <trkpt lat="44.18332" lon="5.28134">
        <ele>1424.1</ele>
        <time>2026-05-14T09:25:09.999Z</time>
      </trkpt>
      <trkpt lat="44.18331" lon="5.28136">
        <ele>1424.8</ele>
        <time>2026-05-14T09:25:10.999Z</time>
      </trkpt>
      <trkpt lat="44.1833" lon="5.28137">
        <ele>1425.3</ele>
        <time>2026-05-14T09:25:11.999Z</time>
      </trkpt>
      <trkpt lat="44.18329" lon="5.28138">
        <ele>1425.5</ele>
        <time>2026-05-14T09:25:12.999Z</time>
      </trkpt>
      <trkpt lat="44.18329" lon="5.2814">
        <ele>1425.9</ele>
        <time>2026-05-14T09:25:13.999Z</time>
      </trkpt>
      <trkpt lat="44.18328" lon="5.28141">
        <ele>1426.1</ele>
        <time>2026-05-14T09:25:14.999Z</time>
      </trkpt>
      <trkpt lat="44.18327" lon="5.28143">
        <ele>1426.5</ele>
        <time>2026-05-14T09:25:15.999Z</time>
      </trkpt>
      <trkpt lat="44.18327" lon="5.28145">
        <ele>1426.7</ele>
        <time>2026-05-14T09:25:16.999Z</time>
      </trkpt>
      <trkpt lat="44.18326" lon="5.28147">
        <ele>1427.2</ele>
        <time>2026-05-14T09:25:17.999Z</time>
      </trkpt>
      <trkpt lat="44.18325" lon="5.28148">
        <ele>1427.5</ele>
        <time>2026-05-14T09:25:18.999Z</time>
      </trkpt>
      <trkpt lat="44.18324" lon="5.2815">
        <ele>1428</ele>
        <time>2026-05-14T09:25:19.999Z</time>
      </trkpt>
      <trkpt lat="44.18324" lon="5.28151">
        <ele>1428.1</ele>
        <time>2026-05-14T09:25:20.999Z</time>
      </trkpt>
      <trkpt lat="44.18324" lon="5.28152">
        <ele>1428.3</ele>
        <time>2026-05-14T09:25:21.999Z</time>
      </trkpt>
      <trkpt lat="44.18324" lon="5.28153">
        <ele>1428.5</ele>
        <time>2026-05-14T09:25:22.999Z</time>
      </trkpt>
      <trkpt lat="44.18323" lon="5.28154">
        <ele>1428.9</ele>
        <time>2026-05-14T09:25:23.999Z</time>
      </trkpt>
      <trkpt lat="44.18322" lon="5.28155">
        <ele>1428.8</ele>
        <time>2026-05-14T09:25:24.999Z</time>
      </trkpt>
      <trkpt lat="44.18321" lon="5.28156">
        <ele>1429.2</ele>
        <time>2026-05-14T09:25:25.999Z</time>
      </trkpt>
      <trkpt lat="44.1832" lon="5.28158">
        <ele>1429.6</ele>
        <time>2026-05-14T09:25:26.999Z</time>
      </trkpt>
      <trkpt lat="44.18319" lon="5.28159">
        <ele>1429.9</ele>
        <time>2026-05-14T09:25:27.999Z</time>
      </trkpt>
      <trkpt lat="44.18318" lon="5.28159">
        <ele>1430.3</ele>
        <time>2026-05-14T09:25:28.999Z</time>
      </trkpt>
      <trkpt lat="44.18317" lon="5.28161">
        <ele>1430.9</ele>
        <time>2026-05-14T09:25:29.999Z</time>
      </trkpt>
      <trkpt lat="44.18316" lon="5.28163">
        <ele>1431.7</ele>
        <time>2026-05-14T09:25:30.999Z</time>
      </trkpt>
      <trkpt lat="44.18316" lon="5.28163">
        <ele>1432.1</ele>
        <time>2026-05-14T09:25:31.999Z</time>
      </trkpt>
      <trkpt lat="44.18315" lon="5.28163">
        <ele>1432.2</ele>
        <time>2026-05-14T09:25:32.999Z</time>
      </trkpt>
      <trkpt lat="44.18314" lon="5.28164">
        <ele>1432.4</ele>
        <time>2026-05-14T09:25:33.999Z</time>
      </trkpt>
      <trkpt lat="44.18313" lon="5.28164">
        <ele>1433</ele>
        <time>2026-05-14T09:25:34.999Z</time>
      </trkpt>
      <trkpt lat="44.18312" lon="5.28165">
        <ele>1432.9</ele>
        <time>2026-05-14T09:25:35.999Z</time>
      </trkpt>
      <trkpt lat="44.18311" lon="5.28165">
        <ele>1432.9</ele>
        <time>2026-05-14T09:25:36.999Z</time>
      </trkpt>
      <trkpt lat="44.18311" lon="5.28166">
        <ele>1432.9</ele>
        <time>2026-05-14T09:25:37.999Z</time>
      </trkpt>
      <trkpt lat="44.1831" lon="5.28166">
        <ele>1432.8</ele>
        <time>2026-05-14T09:25:38.999Z</time>
      </trkpt>
      <trkpt lat="44.18309" lon="5.28167">
        <ele>1432.4</ele>
        <time>2026-05-14T09:25:39.999Z</time>
      </trkpt>
      <trkpt lat="44.18308" lon="5.28168">
        <ele>1432.1</ele>
        <time>2026-05-14T09:25:40.999Z</time>
      </trkpt>
      <trkpt lat="44.18307" lon="5.28169">
        <ele>1431.8</ele>
        <time>2026-05-14T09:25:41.999Z</time>
      </trkpt>
      <trkpt lat="44.18307" lon="5.2817">
        <ele>1431.7</ele>
        <time>2026-05-14T09:25:42.999Z</time>
      </trkpt>
      <trkpt lat="44.18305" lon="5.28171">
        <ele>1431.9</ele>
        <time>2026-05-14T09:25:43.999Z</time>
      </trkpt>
      <trkpt lat="44.18305" lon="5.28172">
        <ele>1431.7</ele>
        <time>2026-05-14T09:25:44.999Z</time>
      </trkpt>
      <trkpt lat="44.18305" lon="5.28173">
        <ele>1431.2</ele>
        <time>2026-05-14T09:25:45.999Z</time>
      </trkpt>
      <trkpt lat="44.18304" lon="5.28174">
        <ele>1430.8</ele>
        <time>2026-05-14T09:25:46.999Z</time>
      </trkpt>
      <trkpt lat="44.18303" lon="5.28175">
        <ele>1430.3</ele>
        <time>2026-05-14T09:25:47.999Z</time>
      </trkpt>
      <trkpt lat="44.18302" lon="5.28176">
        <ele>1429.4</ele>
        <time>2026-05-14T09:25:48.999Z</time>
      </trkpt>
      <trkpt lat="44.18301" lon="5.28177">
        <ele>1429.1</ele>
        <time>2026-05-14T09:25:49.999Z</time>
      </trkpt>
      <trkpt lat="44.183" lon="5.28177">
        <ele>1428.6</ele>
        <time>2026-05-14T09:25:50.999Z</time>
      </trkpt>
      <trkpt lat="44.18299" lon="5.28178">
        <ele>1428.8</ele>
        <time>2026-05-14T09:25:51.999Z</time>
      </trkpt>
      <trkpt lat="44.18299" lon="5.2818">
        <ele>1429</ele>
        <time>2026-05-14T09:25:52.999Z</time>
      </trkpt>
      <trkpt lat="44.18298" lon="5.28181">
        <ele>1429.9</ele>
        <time>2026-05-14T09:25:53.999Z</time>
      </trkpt>
      <trkpt lat="44.18296" lon="5.28182">
        <ele>1430.9</ele>
        <time>2026-05-14T09:25:54.999Z</time>
      </trkpt>
      <trkpt lat="44.18295" lon="5.28184">
        <ele>1432.2</ele>
        <time>2026-05-14T09:25:55.999Z</time>
      </trkpt>
      <trkpt lat="44.18294" lon="5.28186">
        <ele>1432.7</ele>
        <time>2026-05-14T09:25:56.999Z</time>
      </trkpt>
      <trkpt lat="44.18293" lon="5.28188">
        <ele>1433.7</ele>
        <time>2026-05-14T09:25:57.999Z</time>
      </trkpt>
      <trkpt lat="44.18292" lon="5.2819">
        <ele>1434.9</ele>
        <time>2026-05-14T09:25:58.999Z</time>
      </trkpt>
      <trkpt lat="44.18291" lon="5.28193">
        <ele>1436.5</ele>
        <time>2026-05-14T09:25:59.999Z</time>
      </trkpt>
      <trkpt lat="44.1829" lon="5.28194">
        <ele>1437.2</ele>
        <time>2026-05-14T09:26:00.999Z</time>
      </trkpt>
      <trkpt lat="44.18289" lon="5.28195">
        <ele>1437.6</ele>
        <time>2026-05-14T09:26:01.999Z</time>
      </trkpt>
      <trkpt lat="44.18288" lon="5.28196">
        <ele>1437.9</ele>
        <time>2026-05-14T09:26:02.999Z</time>
      </trkpt>
      <trkpt lat="44.18287" lon="5.28197">
        <ele>1437.3</ele>
        <time>2026-05-14T09:26:03.999Z</time>
      </trkpt>
      <trkpt lat="44.18286" lon="5.28198">
        <ele>1438</ele>
        <time>2026-05-14T09:26:04.999Z</time>
      </trkpt>
      <trkpt lat="44.18285" lon="5.28199">
        <ele>1438.8</ele>
        <time>2026-05-14T09:26:05.999Z</time>
      </trkpt>
      <trkpt lat="44.18284" lon="5.282">
        <ele>1438.3</ele>
        <time>2026-05-14T09:26:06.999Z</time>
      </trkpt>
      <trkpt lat="44.18283" lon="5.282">
        <ele>1438.1</ele>
        <time>2026-05-14T09:26:07.999Z</time>
      </trkpt>
      <trkpt lat="44.18282" lon="5.28201">
        <ele>1438.5</ele>
        <time>2026-05-14T09:26:08.999Z</time>
      </trkpt>
      <trkpt lat="44.18281" lon="5.28201">
        <ele>1438.7</ele>
        <time>2026-05-14T09:26:09.999Z</time>
      </trkpt>
      <trkpt lat="44.18279" lon="5.28202">
        <ele>1438.5</ele>
        <time>2026-05-14T09:26:10.999Z</time>
      </trkpt>
      <trkpt lat="44.18278" lon="5.28202">
        <ele>1439</ele>
        <time>2026-05-14T09:26:11.999Z</time>
      </trkpt>
      <trkpt lat="44.18278" lon="5.28203">
        <ele>1439.4</ele>
        <time>2026-05-14T09:26:12.999Z</time>
      </trkpt>
      <trkpt lat="44.18277" lon="5.28204">
        <ele>1439.4</ele>
        <time>2026-05-14T09:26:13.999Z</time>
      </trkpt>
      <trkpt lat="44.18276" lon="5.28205">
        <ele>1439.8</ele>
        <time>2026-05-14T09:26:14.999Z</time>
      </trkpt>
      <trkpt lat="44.18275" lon="5.28206">
        <ele>1440.4</ele>
        <time>2026-05-14T09:26:15.999Z</time>
      </trkpt>
      <trkpt lat="44.18275" lon="5.28206">
        <ele>1440.1</ele>
        <time>2026-05-14T09:26:16.999Z</time>
      </trkpt>
      <trkpt lat="44.18274" lon="5.28207">
        <ele>1439.7</ele>
        <time>2026-05-14T09:26:17.999Z</time>
      </trkpt>
      <trkpt lat="44.18273" lon="5.28208">
        <ele>1439.5</ele>
        <time>2026-05-14T09:26:18.999Z</time>
      </trkpt>
      <trkpt lat="44.18272" lon="5.2821">
        <ele>1440</ele>
        <time>2026-05-14T09:26:19.999Z</time>
      </trkpt>
      <trkpt lat="44.18271" lon="5.28211">
        <ele>1439.7</ele>
        <time>2026-05-14T09:26:20.999Z</time>
      </trkpt>
      <trkpt lat="44.1827" lon="5.28212">
        <ele>1439.5</ele>
        <time>2026-05-14T09:26:21.999Z</time>
      </trkpt>
      <trkpt lat="44.18269" lon="5.28212">
        <ele>1439.8</ele>
        <time>2026-05-14T09:26:22.999Z</time>
      </trkpt>
      <trkpt lat="44.18269" lon="5.28212">
        <ele>1440</ele>
        <time>2026-05-14T09:26:23.999Z</time>
      </trkpt>
      <trkpt lat="44.18268" lon="5.28212">
        <ele>1440.2</ele>
        <time>2026-05-14T09:26:24.999Z</time>
      </trkpt>
      <trkpt lat="44.18267" lon="5.28213">
        <ele>1440.3</ele>
        <time>2026-05-14T09:26:25.999Z</time>
      </trkpt>
      <trkpt lat="44.18266" lon="5.28213">
        <ele>1440.5</ele>
        <time>2026-05-14T09:26:26.999Z</time>
      </trkpt>
      <trkpt lat="44.18264" lon="5.28213">
        <ele>1440.8</ele>
        <time>2026-05-14T09:26:27.999Z</time>
      </trkpt>
      <trkpt lat="44.18263" lon="5.28214">
        <ele>1441.7</ele>
        <time>2026-05-14T09:26:28.999Z</time>
      </trkpt>
      <trkpt lat="44.18261" lon="5.28214">
        <ele>1441.9</ele>
        <time>2026-05-14T09:26:29.999Z</time>
      </trkpt>
      <trkpt lat="44.1826" lon="5.28215">
        <ele>1441.5</ele>
        <time>2026-05-14T09:26:30.999Z</time>
      </trkpt>
      <trkpt lat="44.18259" lon="5.28215">
        <ele>1441.3</ele>
        <time>2026-05-14T09:26:31.999Z</time>
      </trkpt>
      <trkpt lat="44.18259" lon="5.28215">
        <ele>1441.4</ele>
        <time>2026-05-14T09:26:32.999Z</time>
      </trkpt>
      <trkpt lat="44.18258" lon="5.28215">
        <ele>1441.2</ele>
        <time>2026-05-14T09:26:33.999Z</time>
      </trkpt>
      <trkpt lat="44.18258" lon="5.28214">
        <ele>1441.1</ele>
        <time>2026-05-14T09:26:34.999Z</time>
      </trkpt>
      <trkpt lat="44.18257" lon="5.28214">
        <ele>1440.7</ele>
        <time>2026-05-14T09:26:35.999Z</time>
      </trkpt>
      <trkpt lat="44.18257" lon="5.28214">
        <ele>1440.7</ele>
        <time>2026-05-14T09:26:36.999Z</time>
      </trkpt>
      <trkpt lat="44.18257" lon="5.28215">
        <ele>1440.7</ele>
        <time>2026-05-14T09:26:37.999Z</time>
      </trkpt>
      <trkpt lat="44.18257" lon="5.28215">
        <ele>1440.6</ele>
        <time>2026-05-14T09:26:38.999Z</time>
      </trkpt>
      <trkpt lat="44.18256" lon="5.28215">
        <ele>1440.7</ele>
        <time>2026-05-14T09:26:39.999Z</time>
      </trkpt>
      <trkpt lat="44.18255" lon="5.28216">
        <ele>1440.8</ele>
        <time>2026-05-14T09:26:40.999Z</time>
      </trkpt>
      <trkpt lat="44.18254" lon="5.28216">
        <ele>1440.5</ele>
        <time>2026-05-14T09:26:41.999Z</time>
      </trkpt>
      <trkpt lat="44.18253" lon="5.28216">
        <ele>1440.4</ele>
        <time>2026-05-14T09:26:42.999Z</time>
      </trkpt>
      <trkpt lat="44.18252" lon="5.28217">
        <ele>1440.7</ele>
        <time>2026-05-14T09:26:43.999Z</time>
      </trkpt>
      <trkpt lat="44.18251" lon="5.28217">
        <ele>1440.1</ele>
        <time>2026-05-14T09:26:44.999Z</time>
      </trkpt>
      <trkpt lat="44.18249" lon="5.28218">
        <ele>1440.8</ele>
        <time>2026-05-14T09:26:46.999Z</time>
      </trkpt>
      <trkpt lat="44.18249" lon="5.28219">
        <ele>1440.8</ele>
        <time>2026-05-14T09:26:47.999Z</time>
      </trkpt>
      <trkpt lat="44.18248" lon="5.2822">
        <ele>1441</ele>
        <time>2026-05-14T09:26:48.999Z</time>
      </trkpt>
      <trkpt lat="44.18247" lon="5.28222">
        <ele>1440.9</ele>
        <time>2026-05-14T09:26:49.999Z</time>
      </trkpt>
      <trkpt lat="44.18247" lon="5.28223">
        <ele>1440.9</ele>
        <time>2026-05-14T09:26:50.999Z</time>
      </trkpt>
      <trkpt lat="44.18246" lon="5.28224">
        <ele>1440.7</ele>
        <time>2026-05-14T09:26:51.999Z</time>
      </trkpt>
      <trkpt lat="44.18245" lon="5.28225">
        <ele>1440.1</ele>
        <time>2026-05-14T09:26:52.999Z</time>
      </trkpt>
      <trkpt lat="44.18244" lon="5.28227">
        <ele>1440.4</ele>
        <time>2026-05-14T09:26:53.999Z</time>
      </trkpt>
      <trkpt lat="44.18242" lon="5.28229">
        <ele>1440.6</ele>
        <time>2026-05-14T09:26:54.999Z</time>
      </trkpt>
      <trkpt lat="44.18241" lon="5.28231">
        <ele>1440.7</ele>
        <time>2026-05-14T09:26:55.999Z</time>
      </trkpt>
      <trkpt lat="44.1824" lon="5.28233">
        <ele>1441.4</ele>
        <time>2026-05-14T09:26:56.999Z</time>
      </trkpt>
      <trkpt lat="44.18239" lon="5.28234">
        <ele>1441.8</ele>
        <time>2026-05-14T09:26:57.999Z</time>
      </trkpt>
      <trkpt lat="44.18239" lon="5.28234">
        <ele>1441.4</ele>
        <time>2026-05-14T09:26:58.999Z</time>
      </trkpt>
      <trkpt lat="44.18238" lon="5.28236">
        <ele>1441</ele>
        <time>2026-05-14T09:26:59.999Z</time>
      </trkpt>
      <trkpt lat="44.18238" lon="5.28237">
        <ele>1440.9</ele>
        <time>2026-05-14T09:27:00.999Z</time>
      </trkpt>
      <trkpt lat="44.18238" lon="5.28239">
        <ele>1441.6</ele>
        <time>2026-05-14T09:27:01.999Z</time>
      </trkpt>
      <trkpt lat="44.18237" lon="5.2824">
        <ele>1441.2</ele>
        <time>2026-05-14T09:27:02.999Z</time>
      </trkpt>
      <trkpt lat="44.18238" lon="5.28242">
        <ele>1441.8</ele>
        <time>2026-05-14T09:27:03.999Z</time>
      </trkpt>
      <trkpt lat="44.18238" lon="5.28244">
        <ele>1442</ele>
        <time>2026-05-14T09:27:04.999Z</time>
      </trkpt>
      <trkpt lat="44.18238" lon="5.28246">
        <ele>1442.1</ele>
        <time>2026-05-14T09:27:05.999Z</time>
      </trkpt>
      <trkpt lat="44.18238" lon="5.28248">
        <ele>1442.8</ele>
        <time>2026-05-14T09:27:06.999Z</time>
      </trkpt>
      <trkpt lat="44.18237" lon="5.2825">
        <ele>1442.6</ele>
        <time>2026-05-14T09:27:07.999Z</time>
      </trkpt>
      <trkpt lat="44.18236" lon="5.28251">
        <ele>1442.1</ele>
        <time>2026-05-14T09:27:08.999Z</time>
      </trkpt>
      <trkpt lat="44.18236" lon="5.28252">
        <ele>1442.1</ele>
        <time>2026-05-14T09:27:09.999Z</time>
      </trkpt>
      <trkpt lat="44.18236" lon="5.28254">
        <ele>1441.8</ele>
        <time>2026-05-14T09:27:10.999Z</time>
      </trkpt>
      <trkpt lat="44.18235" lon="5.28255">
        <ele>1442.4</ele>
        <time>2026-05-14T09:27:11.999Z</time>
      </trkpt>
      <trkpt lat="44.18235" lon="5.28255">
        <ele>1442.4</ele>
        <time>2026-05-14T09:27:12.999Z</time>
      </trkpt>
      <trkpt lat="44.18234" lon="5.28256">
        <ele>1442.7</ele>
        <time>2026-05-14T09:27:13.999Z</time>
      </trkpt>
      <trkpt lat="44.18233" lon="5.28256">
        <ele>1442.8</ele>
        <time>2026-05-14T09:27:14.999Z</time>
      </trkpt>
      <trkpt lat="44.18232" lon="5.28258">
        <ele>1443.3</ele>
        <time>2026-05-14T09:27:15.999Z</time>
      </trkpt>
      <trkpt lat="44.18232" lon="5.2826">
        <ele>1443.3</ele>
        <time>2026-05-14T09:27:16.999Z</time>
      </trkpt>
      <trkpt lat="44.18232" lon="5.28262">
        <ele>1443.5</ele>
        <time>2026-05-14T09:27:17.999Z</time>
      </trkpt>
      <trkpt lat="44.18232" lon="5.28263">
        <ele>1443.5</ele>
        <time>2026-05-14T09:27:18.999Z</time>
      </trkpt>
      <trkpt lat="44.18232" lon="5.28267">
        <ele>1444.8</ele>
        <time>2026-05-14T09:27:19.999Z</time>
      </trkpt>
      <trkpt lat="44.18233" lon="5.28269">
        <ele>1444.8</ele>
        <time>2026-05-14T09:27:20.999Z</time>
      </trkpt>
      <trkpt lat="44.18233" lon="5.28271">
        <ele>1444.9</ele>
        <time>2026-05-14T09:27:21.999Z</time>
      </trkpt>
      <trkpt lat="44.18233" lon="5.28272">
        <ele>1444.8</ele>
        <time>2026-05-14T09:27:22.999Z</time>
      </trkpt>
      <trkpt lat="44.18234" lon="5.28273">
        <ele>1444.7</ele>
        <time>2026-05-14T09:27:23.999Z</time>
      </trkpt>
      <trkpt lat="44.18235" lon="5.28274">
        <ele>1445.2</ele>
        <time>2026-05-14T09:27:24.999Z</time>
      </trkpt>
      <trkpt lat="44.18235" lon="5.28276">
        <ele>1446.2</ele>
        <time>2026-05-14T09:27:25.999Z</time>
      </trkpt>
      <trkpt lat="44.18236" lon="5.28277">
        <ele>1446.7</ele>
        <time>2026-05-14T09:27:26.999Z</time>
      </trkpt>
      <trkpt lat="44.18236" lon="5.28278">
        <ele>1447.1</ele>
        <time>2026-05-14T09:27:27.999Z</time>
      </trkpt>
      <trkpt lat="44.18237" lon="5.28279">
        <ele>1446.5</ele>
        <time>2026-05-14T09:27:28.999Z</time>
      </trkpt>
      <trkpt lat="44.18238" lon="5.2828">
        <ele>1445.9</ele>
        <time>2026-05-14T09:27:29.999Z</time>
      </trkpt>
      <trkpt lat="44.18239" lon="5.28281">
        <ele>1444.4</ele>
        <time>2026-05-14T09:27:30.999Z</time>
      </trkpt>
      <trkpt lat="44.18239" lon="5.28282">
        <ele>1443.4</ele>
        <time>2026-05-14T09:27:31.999Z</time>
      </trkpt>
      <trkpt lat="44.18239" lon="5.28283">
        <ele>1442.7</ele>
        <time>2026-05-14T09:27:32.999Z</time>
      </trkpt>
      <trkpt lat="44.18239" lon="5.28285">
        <ele>1443</ele>
        <time>2026-05-14T09:27:33.999Z</time>
      </trkpt>
      <trkpt lat="44.18239" lon="5.28286">
        <ele>1443.6</ele>
        <time>2026-05-14T09:27:34.999Z</time>
      </trkpt>
      <trkpt lat="44.18239" lon="5.28288">
        <ele>1444.7</ele>
        <time>2026-05-14T09:27:35.999Z</time>
      </trkpt>
      <trkpt lat="44.18238" lon="5.2829">
        <ele>1445.6</ele>
        <time>2026-05-14T09:27:36.999Z</time>
      </trkpt>
      <trkpt lat="44.18239" lon="5.28291">
        <ele>1446.1</ele>
        <time>2026-05-14T09:27:37.999Z</time>
      </trkpt>
      <trkpt lat="44.18239" lon="5.28292">
        <ele>1446.7</ele>
        <time>2026-05-14T09:27:38.999Z</time>
      </trkpt>
      <trkpt lat="44.18239" lon="5.28293">
        <ele>1447.6</ele>
        <time>2026-05-14T09:27:39.999Z</time>
      </trkpt>
      <trkpt lat="44.1824" lon="5.28294">
        <ele>1448.1</ele>
        <time>2026-05-14T09:27:40.999Z</time>
      </trkpt>
      <trkpt lat="44.1824" lon="5.28295">
        <ele>1448.9</ele>
        <time>2026-05-14T09:27:41.999Z</time>
      </trkpt>
      <trkpt lat="44.1824" lon="5.28297">
        <ele>1449.4</ele>
        <time>2026-05-14T09:27:42.999Z</time>
      </trkpt>
      <trkpt lat="44.18241" lon="5.28299">
        <ele>1450.1</ele>
        <time>2026-05-14T09:27:43.999Z</time>
      </trkpt>
      <trkpt lat="44.18242" lon="5.283">
        <ele>1450.3</ele>
        <time>2026-05-14T09:27:44.999Z</time>
      </trkpt>
      <trkpt lat="44.18243" lon="5.283">
        <ele>1450.2</ele>
        <time>2026-05-14T09:27:45.999Z</time>
      </trkpt>
      <trkpt lat="44.18244" lon="5.28301">
        <ele>1450.5</ele>
        <time>2026-05-14T09:27:46.999Z</time>
      </trkpt>
      <trkpt lat="44.18245" lon="5.28302">
        <ele>1451.1</ele>
        <time>2026-05-14T09:27:47.999Z</time>
      </trkpt>
      <trkpt lat="44.18245" lon="5.28303">
        <ele>1451.3</ele>
        <time>2026-05-14T09:27:48.999Z</time>
      </trkpt>
      <trkpt lat="44.18246" lon="5.28304">
        <ele>1451.2</ele>
        <time>2026-05-14T09:27:49.999Z</time>
      </trkpt>
      <trkpt lat="44.18247" lon="5.28305">
        <ele>1451</ele>
        <time>2026-05-14T09:27:50.999Z</time>
      </trkpt>
      <trkpt lat="44.18248" lon="5.28305">
        <ele>1451.5</ele>
        <time>2026-05-14T09:27:51.999Z</time>
      </trkpt>
      <trkpt lat="44.18249" lon="5.28306">
        <ele>1452.2</ele>
        <time>2026-05-14T09:27:52.999Z</time>
      </trkpt>
      <trkpt lat="44.1825" lon="5.28307">
        <ele>1452.7</ele>
        <time>2026-05-14T09:27:53.999Z</time>
      </trkpt>
      <trkpt lat="44.18252" lon="5.28307">
        <ele>1453.2</ele>
        <time>2026-05-14T09:27:54.999Z</time>
      </trkpt>
      <trkpt lat="44.18253" lon="5.28308">
        <ele>1453.6</ele>
        <time>2026-05-14T09:27:55.999Z</time>
      </trkpt>
      <trkpt lat="44.18254" lon="5.28308">
        <ele>1454</ele>
        <time>2026-05-14T09:27:56.999Z</time>
      </trkpt>
      <trkpt lat="44.18255" lon="5.2831">
        <ele>1454.1</ele>
        <time>2026-05-14T09:27:57.999Z</time>
      </trkpt>
      <trkpt lat="44.18255" lon="5.28311">
        <ele>1454.4</ele>
        <time>2026-05-14T09:27:58.999Z</time>
      </trkpt>
      <trkpt lat="44.18256" lon="5.28312">
        <ele>1454.7</ele>
        <time>2026-05-14T09:27:59.999Z</time>
      </trkpt>
      <trkpt lat="44.18257" lon="5.28313">
        <ele>1454.9</ele>
        <time>2026-05-14T09:28:00.999Z</time>
      </trkpt>
      <trkpt lat="44.18257" lon="5.28314">
        <ele>1455.5</ele>
        <time>2026-05-14T09:28:01.999Z</time>
      </trkpt>
      <trkpt lat="44.18257" lon="5.28316">
        <ele>1455.7</ele>
        <time>2026-05-14T09:28:02.999Z</time>
      </trkpt>
      <trkpt lat="44.18258" lon="5.28317">
        <ele>1455.6</ele>
        <time>2026-05-14T09:28:03.999Z</time>
      </trkpt>
      <trkpt lat="44.18259" lon="5.28318">
        <ele>1455.7</ele>
        <time>2026-05-14T09:28:04.999Z</time>
      </trkpt>
      <trkpt lat="44.18259" lon="5.28319">
        <ele>1456</ele>
        <time>2026-05-14T09:28:05.999Z</time>
      </trkpt>
      <trkpt lat="44.18259" lon="5.28319">
        <ele>1455.8</ele>
        <time>2026-05-14T09:28:06.999Z</time>
      </trkpt>
      <trkpt lat="44.18259" lon="5.2832">
        <ele>1455.7</ele>
        <time>2026-05-14T09:28:07.999Z</time>
      </trkpt>
      <trkpt lat="44.18259" lon="5.28321">
        <ele>1455.6</ele>
        <time>2026-05-14T09:28:08.999Z</time>
      </trkpt>
      <trkpt lat="44.18259" lon="5.28322">
        <ele>1455.2</ele>
        <time>2026-05-14T09:28:09.999Z</time>
      </trkpt>
      <trkpt lat="44.1826" lon="5.28322">
        <ele>1455.1</ele>
        <time>2026-05-14T09:28:10.999Z</time>
      </trkpt>
      <trkpt lat="44.1826" lon="5.28323">
        <ele>1455</ele>
        <time>2026-05-14T09:28:11.999Z</time>
      </trkpt>
      <trkpt lat="44.18261" lon="5.28325">
        <ele>1455.5</ele>
        <time>2026-05-14T09:28:12.999Z</time>
      </trkpt>
      <trkpt lat="44.18261" lon="5.28326">
        <ele>1455.2</ele>
        <time>2026-05-14T09:28:13.999Z</time>
      </trkpt>
      <trkpt lat="44.18261" lon="5.28328">
        <ele>1455.1</ele>
        <time>2026-05-14T09:28:14.999Z</time>
      </trkpt>
      <trkpt lat="44.18261" lon="5.28329">
        <ele>1455.1</ele>
        <time>2026-05-14T09:28:15.999Z</time>
      </trkpt>
      <trkpt lat="44.18261" lon="5.28332">
        <ele>1455.6</ele>
        <time>2026-05-14T09:28:16.999Z</time>
      </trkpt>
      <trkpt lat="44.18262" lon="5.28333">
        <ele>1455.8</ele>
        <time>2026-05-14T09:28:17.999Z</time>
      </trkpt>
      <trkpt lat="44.18262" lon="5.28335">
        <ele>1456</ele>
        <time>2026-05-14T09:28:18.999Z</time>
      </trkpt>
      <trkpt lat="44.18263" lon="5.28338">
        <ele>1456.5</ele>
        <time>2026-05-14T09:28:19.999Z</time>
      </trkpt>
      <trkpt lat="44.18262" lon="5.2834">
        <ele>1456.7</ele>
        <time>2026-05-14T09:28:20.999Z</time>
      </trkpt>
      <trkpt lat="44.18263" lon="5.28342">
        <ele>1457.2</ele>
        <time>2026-05-14T09:28:21.999Z</time>
      </trkpt>
      <trkpt lat="44.18264" lon="5.28345">
        <ele>1457.6</ele>
        <time>2026-05-14T09:28:22.999Z</time>
      </trkpt>
      <trkpt lat="44.18264" lon="5.28347">
        <ele>1457.7</ele>
        <time>2026-05-14T09:28:23.999Z</time>
      </trkpt>
      <trkpt lat="44.18264" lon="5.28349">
        <ele>1458</ele>
        <time>2026-05-14T09:28:24.999Z</time>
      </trkpt>
      <trkpt lat="44.18265" lon="5.28351">
        <ele>1458.2</ele>
        <time>2026-05-14T09:28:25.999Z</time>
      </trkpt>
      <trkpt lat="44.18264" lon="5.28353">
        <ele>1458.3</ele>
        <time>2026-05-14T09:28:26.999Z</time>
      </trkpt>
      <trkpt lat="44.18264" lon="5.28355">
        <ele>1458.1</ele>
        <time>2026-05-14T09:28:27.999Z</time>
      </trkpt>
      <trkpt lat="44.18264" lon="5.28357">
        <ele>1458</ele>
        <time>2026-05-14T09:28:28.999Z</time>
      </trkpt>
      <trkpt lat="44.18265" lon="5.2836">
        <ele>1458.1</ele>
        <time>2026-05-14T09:28:29.999Z</time>
      </trkpt>
      <trkpt lat="44.18266" lon="5.28362">
        <ele>1458.2</ele>
        <time>2026-05-14T09:28:30.999Z</time>
      </trkpt>
      <trkpt lat="44.18266" lon="5.28364">
        <ele>1458.1</ele>
        <time>2026-05-14T09:28:31.999Z</time>
      </trkpt>
      <trkpt lat="44.18266" lon="5.28366">
        <ele>1457.7</ele>
        <time>2026-05-14T09:28:32.999Z</time>
      </trkpt>
      <trkpt lat="44.18265" lon="5.28367">
        <ele>1457.4</ele>
        <time>2026-05-14T09:28:33.999Z</time>
      </trkpt>
      <trkpt lat="44.18265" lon="5.28368">
        <ele>1457.5</ele>
        <time>2026-05-14T09:28:34.999Z</time>
      </trkpt>
      <trkpt lat="44.18266" lon="5.28369">
        <ele>1457.3</ele>
        <time>2026-05-14T09:28:35.999Z</time>
      </trkpt>
      <trkpt lat="44.18266" lon="5.28371">
        <ele>1457.2</ele>
        <time>2026-05-14T09:28:36.999Z</time>
      </trkpt>
      <trkpt lat="44.18267" lon="5.28373">
        <ele>1457.2</ele>
        <time>2026-05-14T09:28:37.999Z</time>
      </trkpt>
      <trkpt lat="44.18267" lon="5.28374">
        <ele>1457</ele>
        <time>2026-05-14T09:28:38.999Z</time>
      </trkpt>
      <trkpt lat="44.18267" lon="5.28375">
        <ele>1456.8</ele>
        <time>2026-05-14T09:28:39.999Z</time>
      </trkpt>
      <trkpt lat="44.18266" lon="5.28376">
        <ele>1456.8</ele>
        <time>2026-05-14T09:28:40.999Z</time>
      </trkpt>
      <trkpt lat="44.18266" lon="5.28378">
        <ele>1456.8</ele>
        <time>2026-05-14T09:28:41.999Z</time>
      </trkpt>
      <trkpt lat="44.18266" lon="5.28379">
        <ele>1456.7</ele>
        <time>2026-05-14T09:28:42.999Z</time>
      </trkpt>
      <trkpt lat="44.18267" lon="5.28381">
        <ele>1456.7</ele>
        <time>2026-05-14T09:28:43.999Z</time>
      </trkpt>
      <trkpt lat="44.18267" lon="5.28382">
        <ele>1456.8</ele>
        <time>2026-05-14T09:28:44.999Z</time>
      </trkpt>
      <trkpt lat="44.18267" lon="5.28383">
        <ele>1456.9</ele>
        <time>2026-05-14T09:28:45.999Z</time>
      </trkpt>
      <trkpt lat="44.18267" lon="5.28385">
        <ele>1457</ele>
        <time>2026-05-14T09:28:46.999Z</time>
      </trkpt>
      <trkpt lat="44.18267" lon="5.28386">
        <ele>1456.7</ele>
        <time>2026-05-14T09:28:47.999Z</time>
      </trkpt>
      <trkpt lat="44.18267" lon="5.28388">
        <ele>1456.1</ele>
        <time>2026-05-14T09:28:48.999Z</time>
      </trkpt>
      <trkpt lat="44.18267" lon="5.28389">
        <ele>1456.3</ele>
        <time>2026-05-14T09:28:49.999Z</time>
      </trkpt>
      <trkpt lat="44.18267" lon="5.28391">
        <ele>1456.7</ele>
        <time>2026-05-14T09:28:50.999Z</time>
      </trkpt>
      <trkpt lat="44.18266" lon="5.28392">
        <ele>1457</ele>
        <time>2026-05-14T09:28:51.999Z</time>
      </trkpt>
      <trkpt lat="44.18266" lon="5.28394">
        <ele>1456.9</ele>
        <time>2026-05-14T09:28:52.999Z</time>
      </trkpt>
      <trkpt lat="44.18266" lon="5.28395">
        <ele>1456.7</ele>
        <time>2026-05-14T09:28:53.999Z</time>
      </trkpt>
      <trkpt lat="44.18266" lon="5.28397">
        <ele>1456.7</ele>
        <time>2026-05-14T09:28:54.999Z</time>
      </trkpt>
      <trkpt lat="44.18265" lon="5.28399">
        <ele>1456.5</ele>
        <time>2026-05-14T09:28:55.999Z</time>
      </trkpt>
      <trkpt lat="44.18265" lon="5.28401">
        <ele>1457.1</ele>
        <time>2026-05-14T09:28:56.999Z</time>
      </trkpt>
      <trkpt lat="44.18264" lon="5.28403">
        <ele>1457.7</ele>
        <time>2026-05-14T09:28:57.999Z</time>
      </trkpt>
      <trkpt lat="44.18264" lon="5.28405">
        <ele>1457.9</ele>
        <time>2026-05-14T09:28:58.999Z</time>
      </trkpt>
      <trkpt lat="44.18264" lon="5.28406">
        <ele>1458.1</ele>
        <time>2026-05-14T09:28:59.999Z</time>
      </trkpt>
      <trkpt lat="44.18264" lon="5.28408">
        <ele>1457.9</ele>
        <time>2026-05-14T09:29:00.999Z</time>
      </trkpt>
      <trkpt lat="44.18265" lon="5.28409">
        <ele>1458.6</ele>
        <time>2026-05-14T09:29:01.999Z</time>
      </trkpt>
      <trkpt lat="44.18265" lon="5.2841">
        <ele>1459.2</ele>
        <time>2026-05-14T09:29:02.999Z</time>
      </trkpt>
      <trkpt lat="44.18265" lon="5.28411">
        <ele>1459.5</ele>
        <time>2026-05-14T09:29:03.999Z</time>
      </trkpt>
      <trkpt lat="44.18265" lon="5.28413">
        <ele>1459.7</ele>
        <time>2026-05-14T09:29:04.999Z</time>
      </trkpt>
      <trkpt lat="44.18264" lon="5.28413">
        <ele>1459.7</ele>
        <time>2026-05-14T09:29:05.999Z</time>
      </trkpt>
      <trkpt lat="44.18264" lon="5.28414">
        <ele>1459.4</ele>
        <time>2026-05-14T09:29:06.999Z</time>
      </trkpt>
      <trkpt lat="44.18264" lon="5.28414">
        <ele>1459.3</ele>
        <time>2026-05-14T09:29:07.999Z</time>
      </trkpt>
      <trkpt lat="44.18265" lon="5.28415">
        <ele>1459.1</ele>
        <time>2026-05-14T09:29:08.999Z</time>
      </trkpt>
      <trkpt lat="44.18265" lon="5.28416">
        <ele>1458.9</ele>
        <time>2026-05-14T09:29:09.999Z</time>
      </trkpt>
      <trkpt lat="44.18265" lon="5.28416">
        <ele>1458.7</ele>
        <time>2026-05-14T09:29:10.999Z</time>
      </trkpt>
      <trkpt lat="44.18265" lon="5.28417">
        <ele>1458.5</ele>
        <time>2026-05-14T09:29:11.999Z</time>
      </trkpt>
      <trkpt lat="44.18265" lon="5.28418">
        <ele>1458.1</ele>
        <time>2026-05-14T09:29:12.999Z</time>
      </trkpt>
      <trkpt lat="44.18265" lon="5.28419">
        <ele>1458</ele>
        <time>2026-05-14T09:29:13.999Z</time>
      </trkpt>
      <trkpt lat="44.18266" lon="5.28421">
        <ele>1458.4</ele>
        <time>2026-05-14T09:29:14.999Z</time>
      </trkpt>
      <trkpt lat="44.18266" lon="5.28423">
        <ele>1458.6</ele>
        <time>2026-05-14T09:29:15.999Z</time>
      </trkpt>
      <trkpt lat="44.18265" lon="5.28425">
        <ele>1458.7</ele>
        <time>2026-05-14T09:29:16.999Z</time>
      </trkpt>
      <trkpt lat="44.18265" lon="5.28427">
        <ele>1458.5</ele>
        <time>2026-05-14T09:29:17.999Z</time>
      </trkpt>
      <trkpt lat="44.18265" lon="5.28429">
        <ele>1458.4</ele>
        <time>2026-05-14T09:29:18.999Z</time>
      </trkpt>
      <trkpt lat="44.18265" lon="5.2843">
        <ele>1458.1</ele>
        <time>2026-05-14T09:29:19.999Z</time>
      </trkpt>
      <trkpt lat="44.18265" lon="5.28432">
        <ele>1457.9</ele>
        <time>2026-05-14T09:29:20.999Z</time>
      </trkpt>
      <trkpt lat="44.18264" lon="5.28433">
        <ele>1458</ele>
        <time>2026-05-14T09:29:21.999Z</time>
      </trkpt>
      <trkpt lat="44.18264" lon="5.28434">
        <ele>1458.1</ele>
        <time>2026-05-14T09:29:22.999Z</time>
      </trkpt>
      <trkpt lat="44.18264" lon="5.28435">
        <ele>1457.9</ele>
        <time>2026-05-14T09:29:23.999Z</time>
      </trkpt>
      <trkpt lat="44.18264" lon="5.28437">
        <ele>1458.4</ele>
        <time>2026-05-14T09:29:24.999Z</time>
      </trkpt>
      <trkpt lat="44.18264" lon="5.28439">
        <ele>1458.7</ele>
        <time>2026-05-14T09:29:25.999Z</time>
      </trkpt>
      <trkpt lat="44.18264" lon="5.28441">
        <ele>1459.3</ele>
        <time>2026-05-14T09:29:26.999Z</time>
      </trkpt>
      <trkpt lat="44.18263" lon="5.28442">
        <ele>1459.1</ele>
        <time>2026-05-14T09:29:27.999Z</time>
      </trkpt>
      <trkpt lat="44.18263" lon="5.28443">
        <ele>1458.6</ele>
        <time>2026-05-14T09:29:28.999Z</time>
      </trkpt>
      <trkpt lat="44.18263" lon="5.28446">
        <ele>1458.9</ele>
        <time>2026-05-14T09:29:29.999Z</time>
      </trkpt>
      <trkpt lat="44.18263" lon="5.28448">
        <ele>1459</ele>
        <time>2026-05-14T09:29:30.999Z</time>
      </trkpt>
      <trkpt lat="44.18262" lon="5.28449">
        <ele>1459.1</ele>
        <time>2026-05-14T09:29:31.999Z</time>
      </trkpt>
      <trkpt lat="44.18262" lon="5.28451">
        <ele>1459.5</ele>
        <time>2026-05-14T09:29:32.999Z</time>
      </trkpt>
      <trkpt lat="44.18262" lon="5.28452">
        <ele>1459.6</ele>
        <time>2026-05-14T09:29:33.999Z</time>
      </trkpt>
      <trkpt lat="44.18261" lon="5.28454">
        <ele>1459.5</ele>
        <time>2026-05-14T09:29:34.999Z</time>
      </trkpt>
      <trkpt lat="44.18261" lon="5.28456">
        <ele>1460</ele>
        <time>2026-05-14T09:29:35.999Z</time>
      </trkpt>
      <trkpt lat="44.18261" lon="5.28457">
        <ele>1459.8</ele>
        <time>2026-05-14T09:29:36.999Z</time>
      </trkpt>
      <trkpt lat="44.18261" lon="5.28458">
        <ele>1459.7</ele>
        <time>2026-05-14T09:29:37.999Z</time>
      </trkpt>
      <trkpt lat="44.1826" lon="5.28459">
        <ele>1459.8</ele>
        <time>2026-05-14T09:29:38.999Z</time>
      </trkpt>
      <trkpt lat="44.1826" lon="5.28461">
        <ele>1459.7</ele>
        <time>2026-05-14T09:29:39.999Z</time>
      </trkpt>
      <trkpt lat="44.1826" lon="5.28463">
        <ele>1459.5</ele>
        <time>2026-05-14T09:29:40.999Z</time>
      </trkpt>
      <trkpt lat="44.1826" lon="5.28465">
        <ele>1459.2</ele>
        <time>2026-05-14T09:29:41.999Z</time>
      </trkpt>
      <trkpt lat="44.18259" lon="5.28465">
        <ele>1458.7</ele>
        <time>2026-05-14T09:29:42.999Z</time>
      </trkpt>
      <trkpt lat="44.18259" lon="5.28466">
        <ele>1458.6</ele>
        <time>2026-05-14T09:29:43.999Z</time>
      </trkpt>
      <trkpt lat="44.18258" lon="5.28466">
        <ele>1458.8</ele>
        <time>2026-05-14T09:29:44.999Z</time>
      </trkpt>
      <trkpt lat="44.18257" lon="5.28467">
        <ele>1458.9</ele>
        <time>2026-05-14T09:29:45.999Z</time>
      </trkpt>
      <trkpt lat="44.18256" lon="5.28468">
        <ele>1458.9</ele>
        <time>2026-05-14T09:29:46.999Z</time>
      </trkpt>
      <trkpt lat="44.18255" lon="5.28469">
        <ele>1459.2</ele>
        <time>2026-05-14T09:29:47.999Z</time>
      </trkpt>
      <trkpt lat="44.18254" lon="5.2847">
        <ele>1458.9</ele>
        <time>2026-05-14T09:29:48.999Z</time>
      </trkpt>
      <trkpt lat="44.18253" lon="5.2847">
        <ele>1458.8</ele>
        <time>2026-05-14T09:29:49.999Z</time>
      </trkpt>
      <trkpt lat="44.18253" lon="5.28471">
        <ele>1459</ele>
        <time>2026-05-14T09:29:50.999Z</time>
      </trkpt>
      <trkpt lat="44.18252" lon="5.28471">
        <ele>1459.2</ele>
        <time>2026-05-14T09:29:51.999Z</time>
      </trkpt>
      <trkpt lat="44.18251" lon="5.28471">
        <ele>1459.3</ele>
        <time>2026-05-14T09:29:52.999Z</time>
      </trkpt>
      <trkpt lat="44.1825" lon="5.28471">
        <ele>1459.1</ele>
        <time>2026-05-14T09:29:53.999Z</time>
      </trkpt>
      <trkpt lat="44.18248" lon="5.2847">
        <ele>1458.9</ele>
        <time>2026-05-14T09:29:54.999Z</time>
      </trkpt>
      <trkpt lat="44.18247" lon="5.2847">
        <ele>1458.9</ele>
        <time>2026-05-14T09:29:55.999Z</time>
      </trkpt>
      <trkpt lat="44.18245" lon="5.2847">
        <ele>1458.9</ele>
        <time>2026-05-14T09:29:56.999Z</time>
      </trkpt>
      <trkpt lat="44.18244" lon="5.28469">
        <ele>1459.3</ele>
        <time>2026-05-14T09:29:57.999Z</time>
      </trkpt>
      <trkpt lat="44.18243" lon="5.28469">
        <ele>1459.2</ele>
        <time>2026-05-14T09:29:58.999Z</time>
      </trkpt>
      <trkpt lat="44.18242" lon="5.28468">
        <ele>1459.2</ele>
        <time>2026-05-14T09:29:59.999Z</time>
      </trkpt>
      <trkpt lat="44.18241" lon="5.28468">
        <ele>1459.2</ele>
        <time>2026-05-14T09:30:00.999Z</time>
      </trkpt>
      <trkpt lat="44.18241" lon="5.28467">
        <ele>1459.4</ele>
        <time>2026-05-14T09:30:01.999Z</time>
      </trkpt>
      <trkpt lat="44.18239" lon="5.28466">
        <ele>1459.2</ele>
        <time>2026-05-14T09:30:02.999Z</time>
      </trkpt>
      <trkpt lat="44.18239" lon="5.28465">
        <ele>1459.1</ele>
        <time>2026-05-14T09:30:03.999Z</time>
      </trkpt>
      <trkpt lat="44.18238" lon="5.28465">
        <ele>1459</ele>
        <time>2026-05-14T09:30:04.999Z</time>
      </trkpt>
      <trkpt lat="44.18237" lon="5.28464">
        <ele>1458.4</ele>
        <time>2026-05-14T09:30:05.999Z</time>
      </trkpt>
      <trkpt lat="44.18236" lon="5.28464">
        <ele>1457.7</ele>
        <time>2026-05-14T09:30:06.999Z</time>
      </trkpt>
      <trkpt lat="44.18236" lon="5.28463">
        <ele>1457.7</ele>
        <time>2026-05-14T09:30:07.999Z</time>
      </trkpt>
      <trkpt lat="44.18234" lon="5.28462">
        <ele>1457.9</ele>
        <time>2026-05-14T09:30:08.999Z</time>
      </trkpt>
      <trkpt lat="44.18234" lon="5.28461">
        <ele>1457.8</ele>
        <time>2026-05-14T09:30:09.999Z</time>
      </trkpt>
      <trkpt lat="44.18233" lon="5.2846">
        <ele>1457.5</ele>
        <time>2026-05-14T09:30:10.999Z</time>
      </trkpt>
      <trkpt lat="44.18234" lon="5.2846">
        <ele>1456.6</ele>
        <time>2026-05-14T09:30:11.999Z</time>
      </trkpt>
      <trkpt lat="44.18234" lon="5.2846">
        <ele>1456.2</ele>
        <time>2026-05-14T09:30:12.999Z</time>
      </trkpt>
      <trkpt lat="44.18234" lon="5.28461">
        <ele>1456</ele>
        <time>2026-05-14T09:30:13.999Z</time>
      </trkpt>
      <trkpt lat="44.18234" lon="5.28461">
        <ele>1456</ele>
        <time>2026-05-14T09:30:14.999Z</time>
      </trkpt>
      <trkpt lat="44.18234" lon="5.28461">
        <ele>1456.1</ele>
        <time>2026-05-14T09:30:15.999Z</time>
      </trkpt>
      <trkpt lat="44.18234" lon="5.28461">
        <ele>1456.2</ele>
        <time>2026-05-14T09:30:16.999Z</time>
      </trkpt>
      <trkpt lat="44.18234" lon="5.28461">
        <ele>1456.3</ele>
        <time>2026-05-14T09:30:17.999Z</time>
      </trkpt>
      <trkpt lat="44.18234" lon="5.28461">
        <ele>1456.3</ele>
        <time>2026-05-14T09:30:18.999Z</time>
      </trkpt>
      <trkpt lat="44.18234" lon="5.28461">
        <ele>1456.3</ele>
        <time>2026-05-14T09:30:19.999Z</time>
      </trkpt>
      <trkpt lat="44.18234" lon="5.28461">
        <ele>1456.3</ele>
        <time>2026-05-14T09:30:20.999Z</time>
      </trkpt>
      <trkpt lat="44.18234" lon="5.28461">
        <ele>1456.4</ele>
        <time>2026-05-14T09:30:21.999Z</time>
      </trkpt>
      <trkpt lat="44.18234" lon="5.28461">
        <ele>1456.5</ele>
        <time>2026-05-14T09:30:22.999Z</time>
      </trkpt>
      <trkpt lat="44.18234" lon="5.28461">
        <ele>1456.6</ele>
        <time>2026-05-14T09:30:23.999Z</time>
      </trkpt>
      <trkpt lat="44.18234" lon="5.28461">
        <ele>1456.5</ele>
        <time>2026-05-14T09:30:24.999Z</time>
      </trkpt>
      <trkpt lat="44.18234" lon="5.28461">
        <ele>1456.5</ele>
        <time>2026-05-14T09:30:25.999Z</time>
      </trkpt>
      <trkpt lat="44.18234" lon="5.28461">
        <ele>1456.8</ele>
        <time>2026-05-14T09:30:26.999Z</time>
      </trkpt>
      <trkpt lat="44.18234" lon="5.28461">
        <ele>1456.9</ele>
        <time>2026-05-14T09:30:27.999Z</time>
      </trkpt>
      <trkpt lat="44.18234" lon="5.28461">
        <ele>1457.2</ele>
        <time>2026-05-14T09:30:28.999Z</time>
      </trkpt>
      <trkpt lat="44.18235" lon="5.28461">
        <ele>1457.3</ele>
        <time>2026-05-14T09:30:29.999Z</time>
      </trkpt>
      <trkpt lat="44.18235" lon="5.28461">
        <ele>1457.3</ele>
        <time>2026-05-14T09:30:30.999Z</time>
      </trkpt>
      <trkpt lat="44.18235" lon="5.28462">
        <ele>1457.2</ele>
        <time>2026-05-14T09:30:31.999Z</time>
      </trkpt>
      <trkpt lat="44.18235" lon="5.28462">
        <ele>1457.3</ele>
        <time>2026-05-14T09:30:32.999Z</time>
      </trkpt>
      <trkpt lat="44.18235" lon="5.28462">
        <ele>1457.3</ele>
        <time>2026-05-14T09:30:33.999Z</time>
      </trkpt>
      <trkpt lat="44.18235" lon="5.28462">
        <ele>1457.4</ele>
        <time>2026-05-14T09:30:34.999Z</time>
      </trkpt>
      <trkpt lat="44.18235" lon="5.28462">
        <ele>1457.4</ele>
        <time>2026-05-14T09:30:35.999Z</time>
      </trkpt>
      <trkpt lat="44.18235" lon="5.28462">
        <ele>1457.7</ele>
        <time>2026-05-14T09:30:36.999Z</time>
      </trkpt>
      <trkpt lat="44.18236" lon="5.28462">
        <ele>1458</ele>
        <time>2026-05-14T09:30:37.999Z</time>
      </trkpt>
      <trkpt lat="44.18237" lon="5.28462">
        <ele>1458.2</ele>
        <time>2026-05-14T09:30:38.999Z</time>
      </trkpt>
      <trkpt lat="44.18237" lon="5.28462">
        <ele>1458.3</ele>
        <time>2026-05-14T09:30:39.999Z</time>
      </trkpt>
      <trkpt lat="44.18237" lon="5.28462">
        <ele>1458.2</ele>
        <time>2026-05-14T09:30:40.999Z</time>
      </trkpt>
      <trkpt lat="44.18237" lon="5.28462">
        <ele>1458.2</ele>
        <time>2026-05-14T09:30:41.999Z</time>
      </trkpt>
      <trkpt lat="44.18237" lon="5.28462">
        <ele>1458.4</ele>
        <time>2026-05-14T09:30:42.999Z</time>
      </trkpt>
      <trkpt lat="44.18237" lon="5.28462">
        <ele>1458.4</ele>
        <time>2026-05-14T09:30:43.999Z</time>
      </trkpt>
      <trkpt lat="44.18237" lon="5.28462">
        <ele>1459.3</ele>
        <time>2026-05-14T09:30:44.999Z</time>
      </trkpt>
      <trkpt lat="44.18237" lon="5.28462">
        <ele>1459.7</ele>
        <time>2026-05-14T09:30:45.999Z</time>
      </trkpt>
      <trkpt lat="44.18237" lon="5.28462">
        <ele>1460.1</ele>
        <time>2026-05-14T09:30:46.999Z</time>
      </trkpt>
      <trkpt lat="44.18237" lon="5.28462">
        <ele>1460.3</ele>
        <time>2026-05-14T09:30:47.999Z</time>
      </trkpt>
      <trkpt lat="44.18237" lon="5.28462">
        <ele>1460.5</ele>
        <time>2026-05-14T09:30:48.999Z</time>
      </trkpt>
      <trkpt lat="44.18237" lon="5.28462">
        <ele>1460.9</ele>
        <time>2026-05-14T09:30:49.999Z</time>
      </trkpt>
      <trkpt lat="44.18237" lon="5.28462">
        <ele>1461.3</ele>
        <time>2026-05-14T09:30:50.999Z</time>
      </trkpt>
      <trkpt lat="44.18237" lon="5.28462">
        <ele>1461.8</ele>
        <time>2026-05-14T09:30:51.999Z</time>
      </trkpt>
      <trkpt lat="44.18237" lon="5.28462">
        <ele>1462</ele>
        <time>2026-05-14T09:30:52.999Z</time>
      </trkpt>
      <trkpt lat="44.18237" lon="5.28462">
        <ele>1462.5</ele>
        <time>2026-05-14T09:30:53.999Z</time>
      </trkpt>
      <trkpt lat="44.18238" lon="5.28462">
        <ele>1462.9</ele>
        <time>2026-05-14T09:30:54.999Z</time>
      </trkpt>
      <trkpt lat="44.18238" lon="5.28461">
        <ele>1463.4</ele>
        <time>2026-05-14T09:30:55.999Z</time>
      </trkpt>
      <trkpt lat="44.18239" lon="5.28461">
        <ele>1463.9</ele>
        <time>2026-05-14T09:30:56.999Z</time>
      </trkpt>
      <trkpt lat="44.18239" lon="5.2846">
        <ele>1464.3</ele>
        <time>2026-05-14T09:30:57.999Z</time>
      </trkpt>
      <trkpt lat="44.18239" lon="5.2846">
        <ele>1464.9</ele>
        <time>2026-05-14T09:30:58.999Z</time>
      </trkpt>
      <trkpt lat="44.18239" lon="5.2846">
        <ele>1465.3</ele>
        <time>2026-05-14T09:30:59.999Z</time>
      </trkpt>
      <trkpt lat="44.18239" lon="5.2846">
        <ele>1465.7</ele>
        <time>2026-05-14T09:31:00.999Z</time>
      </trkpt>
      <trkpt lat="44.18239" lon="5.2846">
        <ele>1466</ele>
        <time>2026-05-14T09:31:01.999Z</time>
      </trkpt>
      <trkpt lat="44.18239" lon="5.2846">
        <ele>1466.4</ele>
        <time>2026-05-14T09:31:02.999Z</time>
      </trkpt>
      <trkpt lat="44.18239" lon="5.2846">
        <ele>1467.1</ele>
        <time>2026-05-14T09:31:03.999Z</time>
      </trkpt>
      <trkpt lat="44.18239" lon="5.2846">
        <ele>1467.7</ele>
        <time>2026-05-14T09:31:04.999Z</time>
      </trkpt>
      <trkpt lat="44.18239" lon="5.2846">
        <ele>1468.3</ele>
        <time>2026-05-14T09:31:05.999Z</time>
      </trkpt>
      <trkpt lat="44.18239" lon="5.2846">
        <ele>1468.6</ele>
        <time>2026-05-14T09:31:06.999Z</time>
      </trkpt>
      <trkpt lat="44.18239" lon="5.2846">
        <ele>1469.1</ele>
        <time>2026-05-14T09:31:07.999Z</time>
      </trkpt>
      <trkpt lat="44.18239" lon="5.2846">
        <ele>1469.4</ele>
        <time>2026-05-14T09:31:08.999Z</time>
      </trkpt>
      <trkpt lat="44.18238" lon="5.2846">
        <ele>1469.7</ele>
        <time>2026-05-14T09:31:09.999Z</time>
      </trkpt>
      <trkpt lat="44.18238" lon="5.2846">
        <ele>1469.9</ele>
        <time>2026-05-14T09:31:10.999Z</time>
      </trkpt>
      <trkpt lat="44.18238" lon="5.2846">
        <ele>1469.8</ele>
        <time>2026-05-14T09:31:11.999Z</time>
      </trkpt>
      <trkpt lat="44.18238" lon="5.2846">
        <ele>1470.2</ele>
        <time>2026-05-14T09:31:12.999Z</time>
      </trkpt>
      <trkpt lat="44.18238" lon="5.2846">
        <ele>1470.5</ele>
        <time>2026-05-14T09:31:13.999Z</time>
      </trkpt>
      <trkpt lat="44.18238" lon="5.2846">
        <ele>1470.8</ele>
        <time>2026-05-14T09:31:14.999Z</time>
      </trkpt>
      <trkpt lat="44.18238" lon="5.2846">
        <ele>1471.6</ele>
        <time>2026-05-14T09:31:15.999Z</time>
      </trkpt>
      <trkpt lat="44.18238" lon="5.2846">
        <ele>1472.2</ele>
        <time>2026-05-14T09:31:16.999Z</time>
      </trkpt>
      <trkpt lat="44.18238" lon="5.2846">
        <ele>1472.8</ele>
        <time>2026-05-14T09:31:17.999Z</time>
      </trkpt>
      <trkpt lat="44.18238" lon="5.2846">
        <ele>1473</ele>
        <time>2026-05-14T09:31:18.999Z</time>
      </trkpt>
      <trkpt lat="44.18238" lon="5.2846">
        <ele>1473</ele>
        <time>2026-05-14T09:31:19.999Z</time>
      </trkpt>
      <trkpt lat="44.18238" lon="5.2846">
        <ele>1472.7</ele>
        <time>2026-05-14T09:31:20.999Z</time>
      </trkpt>
      <trkpt lat="44.18238" lon="5.2846">
        <ele>1472.7</ele>
        <time>2026-05-14T09:31:21.999Z</time>
      </trkpt>
      <trkpt lat="44.18238" lon="5.2846">
        <ele>1472.6</ele>
        <time>2026-05-14T09:31:22.999Z</time>
      </trkpt>
      <trkpt lat="44.18238" lon="5.2846">
        <ele>1472.5</ele>
        <time>2026-05-14T09:31:23.999Z</time>
      </trkpt>
      <trkpt lat="44.18238" lon="5.2846">
        <ele>1472.4</ele>
        <time>2026-05-14T09:31:24.999Z</time>
      </trkpt>
      <trkpt lat="44.18238" lon="5.2846">
        <ele>1472.5</ele>
        <time>2026-05-14T09:31:25.999Z</time>
      </trkpt>
      <trkpt lat="44.18238" lon="5.2846">
        <ele>1472.3</ele>
        <time>2026-05-14T09:31:26.999Z</time>
      </trkpt>
      <trkpt lat="44.18238" lon="5.2846">
        <ele>1472.5</ele>
        <time>2026-05-14T09:31:27.999Z</time>
      </trkpt>
      <trkpt lat="44.18238" lon="5.2846">
        <ele>1472.6</ele>
        <time>2026-05-14T09:31:28.999Z</time>
      </trkpt>
      <trkpt lat="44.18238" lon="5.2846">
        <ele>1472.6</ele>
        <time>2026-05-14T09:31:29.999Z</time>
      </trkpt>
      <trkpt lat="44.18238" lon="5.2846">
        <ele>1472.6</ele>
        <time>2026-05-14T09:31:30.999Z</time>
      </trkpt>
      <trkpt lat="44.18238" lon="5.2846">
        <ele>1472.7</ele>
        <time>2026-05-14T09:31:31.999Z</time>
      </trkpt>
      <trkpt lat="44.18238" lon="5.2846">
        <ele>1472.8</ele>
        <time>2026-05-14T09:31:32.999Z</time>
      </trkpt>
      <trkpt lat="44.18238" lon="5.2846">
        <ele>1473</ele>
        <time>2026-05-14T09:31:33.999Z</time>
      </trkpt>
      <trkpt lat="44.18238" lon="5.2846">
        <ele>1473</ele>
        <time>2026-05-14T09:31:34.999Z</time>
      </trkpt>
      <trkpt lat="44.18238" lon="5.2846">
        <ele>1473</ele>
        <time>2026-05-14T09:31:35.999Z</time>
      </trkpt>
      <trkpt lat="44.18238" lon="5.2846">
        <ele>1473</ele>
        <time>2026-05-14T09:31:36.999Z</time>
      </trkpt>
      <trkpt lat="44.18238" lon="5.2846">
        <ele>1472.8</ele>
        <time>2026-05-14T09:31:37.999Z</time>
      </trkpt>
      <trkpt lat="44.18238" lon="5.2846">
        <ele>1472.7</ele>
        <time>2026-05-14T09:31:38.999Z</time>
      </trkpt>
      <trkpt lat="44.18238" lon="5.2846">
        <ele>1472.7</ele>
        <time>2026-05-14T09:31:39.999Z</time>
      </trkpt>
      <trkpt lat="44.18238" lon="5.2846">
        <ele>1472.5</ele>
        <time>2026-05-14T09:31:40.999Z</time>
      </trkpt>
      <trkpt lat="44.18238" lon="5.2846">
        <ele>1472.3</ele>
        <time>2026-05-14T09:31:41.999Z</time>
      </trkpt>
      <trkpt lat="44.18237" lon="5.2846">
        <ele>1472</ele>
        <time>2026-05-14T09:31:42.999Z</time>
      </trkpt>
      <trkpt lat="44.18237" lon="5.28459">
        <ele>1471.7</ele>
        <time>2026-05-14T09:31:43.999Z</time>
      </trkpt>
      <trkpt lat="44.18237" lon="5.28459">
        <ele>1471.4</ele>
        <time>2026-05-14T09:31:44.999Z</time>
      </trkpt>
      <trkpt lat="44.18237" lon="5.28459">
        <ele>1471.2</ele>
        <time>2026-05-14T09:31:45.999Z</time>
      </trkpt>
      <trkpt lat="44.18237" lon="5.28458">
        <ele>1471.2</ele>
        <time>2026-05-14T09:31:46.999Z</time>
      </trkpt>
      <trkpt lat="44.18237" lon="5.28458">
        <ele>1471</ele>
        <time>2026-05-14T09:31:47.999Z</time>
      </trkpt>
      <trkpt lat="44.18237" lon="5.28458">
        <ele>1470.7</ele>
        <time>2026-05-14T09:31:48.999Z</time>
      </trkpt>
      <trkpt lat="44.18237" lon="5.28458">
        <ele>1470.6</ele>
        <time>2026-05-14T09:31:49.999Z</time>
      </trkpt>
      <trkpt lat="44.18237" lon="5.28458">
        <ele>1470.8</ele>
        <time>2026-05-14T09:31:50.999Z</time>
      </trkpt>
      <trkpt lat="44.18237" lon="5.28458">
        <ele>1470.7</ele>
        <time>2026-05-14T09:31:51.999Z</time>
      </trkpt>
      <trkpt lat="44.18236" lon="5.28458">
        <ele>1470.6</ele>
        <time>2026-05-14T09:31:52.999Z</time>
      </trkpt>
      <trkpt lat="44.18236" lon="5.28458">
        <ele>1470.3</ele>
        <time>2026-05-14T09:31:53.999Z</time>
      </trkpt>
      <trkpt lat="44.18236" lon="5.28457">
        <ele>1470.4</ele>
        <time>2026-05-14T09:31:54.999Z</time>
      </trkpt>
      <trkpt lat="44.18236" lon="5.28457">
        <ele>1470.5</ele>
        <time>2026-05-14T09:31:55.999Z</time>
      </trkpt>
      <trkpt lat="44.18236" lon="5.28458">
        <ele>1470.8</ele>
        <time>2026-05-14T09:31:56.999Z</time>
      </trkpt>
      <trkpt lat="44.18236" lon="5.28458">
        <ele>1471</ele>
        <time>2026-05-14T09:31:57.999Z</time>
      </trkpt>
      <trkpt lat="44.18236" lon="5.28458">
        <ele>1471.2</ele>
        <time>2026-05-14T09:31:58.999Z</time>
      </trkpt>
      <trkpt lat="44.18236" lon="5.28458">
        <ele>1471.3</ele>
        <time>2026-05-14T09:31:59.999Z</time>
      </trkpt>
      <trkpt lat="44.18236" lon="5.28458">
        <ele>1471.4</ele>
        <time>2026-05-14T09:32:00.999Z</time>
      </trkpt>
      <trkpt lat="44.18236" lon="5.28458">
        <ele>1471.5</ele>
        <time>2026-05-14T09:32:01.999Z</time>
      </trkpt>
      <trkpt lat="44.18236" lon="5.28458">
        <ele>1471.8</ele>
        <time>2026-05-14T09:32:02.999Z</time>
      </trkpt>
      <trkpt lat="44.18236" lon="5.28458">
        <ele>1471.8</ele>
        <time>2026-05-14T09:32:03.999Z</time>
      </trkpt>
      <trkpt lat="44.18236" lon="5.28458">
        <ele>1471.7</ele>
        <time>2026-05-14T09:32:04.999Z</time>
      </trkpt>
      <trkpt lat="44.18236" lon="5.28458">
        <ele>1471.6</ele>
        <time>2026-05-14T09:32:05.999Z</time>
      </trkpt>
      <trkpt lat="44.18236" lon="5.28458">
        <ele>1471.5</ele>
        <time>2026-05-14T09:32:06.999Z</time>
      </trkpt>
      <trkpt lat="44.18236" lon="5.28458">
        <ele>1471.4</ele>
        <time>2026-05-14T09:32:07.999Z</time>
      </trkpt>
      <trkpt lat="44.18236" lon="5.28458">
        <ele>1471.4</ele>
        <time>2026-05-14T09:32:08.999Z</time>
      </trkpt>
      <trkpt lat="44.18236" lon="5.28458">
        <ele>1471.3</ele>
        <time>2026-05-14T09:32:09.999Z</time>
      </trkpt>
      <trkpt lat="44.18237" lon="5.28457">
        <ele>1471.2</ele>
        <time>2026-05-14T09:32:10.999Z</time>
      </trkpt>
      <trkpt lat="44.18237" lon="5.28457">
        <ele>1471</ele>
        <time>2026-05-14T09:32:11.999Z</time>
      </trkpt>
      <trkpt lat="44.18237" lon="5.28457">
        <ele>1471.1</ele>
        <time>2026-05-14T09:32:12.999Z</time>
      </trkpt>
      <trkpt lat="44.18237" lon="5.28457">
        <ele>1471.2</ele>
        <time>2026-05-14T09:32:13.999Z</time>
      </trkpt>
      <trkpt lat="44.18237" lon="5.28457">
        <ele>1471.3</ele>
        <time>2026-05-14T09:32:14.999Z</time>
      </trkpt>
      <trkpt lat="44.18237" lon="5.28457">
        <ele>1471.2</ele>
        <time>2026-05-14T09:32:15.999Z</time>
      </trkpt>
      <trkpt lat="44.18237" lon="5.28457">
        <ele>1471.2</ele>
        <time>2026-05-14T09:32:16.999Z</time>
      </trkpt>
      <trkpt lat="44.18237" lon="5.28458">
        <ele>1471.1</ele>
        <time>2026-05-14T09:32:17.999Z</time>
      </trkpt>
      <trkpt lat="44.18237" lon="5.28458">
        <ele>1471.2</ele>
        <time>2026-05-14T09:32:18.999Z</time>
      </trkpt>
      <trkpt lat="44.18237" lon="5.28458">
        <ele>1471.4</ele>
        <time>2026-05-14T09:32:19.999Z</time>
      </trkpt>
      <trkpt lat="44.18237" lon="5.28458">
        <ele>1471.5</ele>
        <time>2026-05-14T09:32:20.999Z</time>
      </trkpt>
      <trkpt lat="44.18237" lon="5.28458">
        <ele>1471.4</ele>
        <time>2026-05-14T09:32:21.999Z</time>
      </trkpt>
      <trkpt lat="44.18237" lon="5.28458">
        <ele>1471.3</ele>
        <time>2026-05-14T09:32:22.999Z</time>
      </trkpt>
      <trkpt lat="44.18237" lon="5.28458">
        <ele>1471.3</ele>
        <time>2026-05-14T09:32:23.999Z</time>
      </trkpt>
      <trkpt lat="44.18237" lon="5.28458">
        <ele>1471.5</ele>
        <time>2026-05-14T09:32:24.999Z</time>
      </trkpt>
      <trkpt lat="44.18237" lon="5.28458">
        <ele>1471.6</ele>
        <time>2026-05-14T09:32:25.999Z</time>
      </trkpt>
      <trkpt lat="44.18237" lon="5.28458">
        <ele>1471.8</ele>
        <time>2026-05-14T09:32:26.999Z</time>
      </trkpt>
      <trkpt lat="44.18237" lon="5.28458">
        <ele>1471.9</ele>
        <time>2026-05-14T09:32:27.999Z</time>
      </trkpt>
      <trkpt lat="44.18237" lon="5.28458">
        <ele>1472</ele>
        <time>2026-05-14T09:32:28.999Z</time>
      </trkpt>
      <trkpt lat="44.18237" lon="5.28458">
        <ele>1472</ele>
        <time>2026-05-14T09:32:29.999Z</time>
      </trkpt>
      <trkpt lat="44.18237" lon="5.28458">
        <ele>1471.7</ele>
        <time>2026-05-14T09:32:30.999Z</time>
      </trkpt>
      <trkpt lat="44.18237" lon="5.28458">
        <ele>1471.4</ele>
        <time>2026-05-14T09:32:31.999Z</time>
      </trkpt>
      <trkpt lat="44.18237" lon="5.28458">
        <ele>1471.4</ele>
        <time>2026-05-14T09:32:32.999Z</time>
      </trkpt>
      <trkpt lat="44.18237" lon="5.28458">
        <ele>1471.5</ele>
        <time>2026-05-14T09:32:33.999Z</time>
      </trkpt>
      <trkpt lat="44.18237" lon="5.28458">
        <ele>1471.5</ele>
        <time>2026-05-14T09:32:34.999Z</time>
      </trkpt>
      <trkpt lat="44.18237" lon="5.28458">
        <ele>1471.8</ele>
        <time>2026-05-14T09:32:35.999Z</time>
      </trkpt>
      <trkpt lat="44.18237" lon="5.28458">
        <ele>1471.7</ele>
        <time>2026-05-14T09:32:36.999Z</time>
      </trkpt>
      <trkpt lat="44.18237" lon="5.28458">
        <ele>1471.7</ele>
        <time>2026-05-14T09:32:37.999Z</time>
      </trkpt>
      <trkpt lat="44.18237" lon="5.28459">
        <ele>1471.9</ele>
        <time>2026-05-14T09:32:38.999Z</time>
      </trkpt>
      <trkpt lat="44.18238" lon="5.28458">
        <ele>1471.9</ele>
        <time>2026-05-14T09:32:39.999Z</time>
      </trkpt>
      <trkpt lat="44.18237" lon="5.28458">
        <ele>1471.6</ele>
        <time>2026-05-14T09:32:40.999Z</time>
      </trkpt>
      <trkpt lat="44.18237" lon="5.28458">
        <ele>1471.5</ele>
        <time>2026-05-14T09:32:41.999Z</time>
      </trkpt>
      <trkpt lat="44.18237" lon="5.28458">
        <ele>1471.4</ele>
        <time>2026-05-14T09:32:42.999Z</time>
      </trkpt>
      <trkpt lat="44.18237" lon="5.28458">
        <ele>1471.6</ele>
        <time>2026-05-14T09:32:43.999Z</time>
      </trkpt>
      <trkpt lat="44.18237" lon="5.28457">
        <ele>1471.6</ele>
        <time>2026-05-14T09:32:44.999Z</time>
      </trkpt>
      <trkpt lat="44.18236" lon="5.28457">
        <ele>1471.6</ele>
        <time>2026-05-14T09:32:45.999Z</time>
      </trkpt>
      <trkpt lat="44.18236" lon="5.28457">
        <ele>1471.6</ele>
        <time>2026-05-14T09:32:46.999Z</time>
      </trkpt>
      <trkpt lat="44.18236" lon="5.28457">
        <ele>1471.4</ele>
        <time>2026-05-14T09:32:47.999Z</time>
      </trkpt>
      <trkpt lat="44.18236" lon="5.28457">
        <ele>1471.1</ele>
        <time>2026-05-14T09:32:48.999Z</time>
      </trkpt>
      <trkpt lat="44.18236" lon="5.28457">
        <ele>1471.1</ele>
        <time>2026-05-14T09:32:49.999Z</time>
      </trkpt>
      <trkpt lat="44.18236" lon="5.28458">
        <ele>1471</ele>
        <time>2026-05-14T09:32:50.999Z</time>
      </trkpt>
      <trkpt lat="44.18236" lon="5.28458">
        <ele>1471.2</ele>
        <time>2026-05-14T09:32:51.999Z</time>
      </trkpt>
      <trkpt lat="44.18236" lon="5.28458">
        <ele>1471.2</ele>
        <time>2026-05-14T09:32:52.999Z</time>
      </trkpt>
      <trkpt lat="44.18236" lon="5.28458">
        <ele>1471.3</ele>
        <time>2026-05-14T09:32:53.999Z</time>
      </trkpt>
      <trkpt lat="44.18236" lon="5.28458">
        <ele>1471.5</ele>
        <time>2026-05-14T09:32:54.999Z</time>
      </trkpt>
      <trkpt lat="44.18236" lon="5.28458">
        <ele>1471.6</ele>
        <time>2026-05-14T09:32:55.999Z</time>
      </trkpt>
      <trkpt lat="44.18236" lon="5.28458">
        <ele>1471.8</ele>
        <time>2026-05-14T09:32:56.999Z</time>
      </trkpt>
      <trkpt lat="44.18236" lon="5.28458">
        <ele>1472.1</ele>
        <time>2026-05-14T09:32:57.999Z</time>
      </trkpt>
      <trkpt lat="44.18236" lon="5.28458">
        <ele>1472.2</ele>
        <time>2026-05-14T09:32:58.999Z</time>
      </trkpt>
      <trkpt lat="44.18236" lon="5.28458">
        <ele>1472.2</ele>
        <time>2026-05-14T09:32:59.999Z</time>
      </trkpt>
      <trkpt lat="44.18236" lon="5.28458">
        <ele>1472.2</ele>
        <time>2026-05-14T09:33:00.999Z</time>
      </trkpt>
      <trkpt lat="44.18236" lon="5.28458">
        <ele>1472.3</ele>
        <time>2026-05-14T09:33:01.999Z</time>
      </trkpt>
      <trkpt lat="44.18236" lon="5.28458">
        <ele>1472.4</ele>
        <time>2026-05-14T09:33:02.999Z</time>
      </trkpt>
      <trkpt lat="44.18237" lon="5.28458">
        <ele>1472.4</ele>
        <time>2026-05-14T09:33:03.999Z</time>
      </trkpt>
      <trkpt lat="44.18237" lon="5.28458">
        <ele>1472.5</ele>
        <time>2026-05-14T09:33:04.999Z</time>
      </trkpt>
      <trkpt lat="44.18237" lon="5.28458">
        <ele>1472.3</ele>
        <time>2026-05-14T09:33:05.999Z</time>
      </trkpt>
      <trkpt lat="44.18236" lon="5.28458">
        <ele>1472</ele>
        <time>2026-05-14T09:33:06.999Z</time>
      </trkpt>
      <trkpt lat="44.18236" lon="5.28458">
        <ele>1471.9</ele>
        <time>2026-05-14T09:33:07.999Z</time>
      </trkpt>
      <trkpt lat="44.18236" lon="5.28458">
        <ele>1471.7</ele>
        <time>2026-05-14T09:33:08.999Z</time>
      </trkpt>
      <trkpt lat="44.18236" lon="5.28458">
        <ele>1471.7</ele>
        <time>2026-05-14T09:33:09.999Z</time>
      </trkpt>
      <trkpt lat="44.18236" lon="5.28458">
        <ele>1471.8</ele>
        <time>2026-05-14T09:33:10.999Z</time>
      </trkpt>
      <trkpt lat="44.18236" lon="5.28458">
        <ele>1471.9</ele>
        <time>2026-05-14T09:33:11.999Z</time>
      </trkpt>
      <trkpt lat="44.18236" lon="5.28458">
        <ele>1472.1</ele>
        <time>2026-05-14T09:33:12.999Z</time>
      </trkpt>
      <trkpt lat="44.18236" lon="5.28458">
        <ele>1472.5</ele>
        <time>2026-05-14T09:33:13.999Z</time>
      </trkpt>
      <trkpt lat="44.18236" lon="5.28458">
        <ele>1472.7</ele>
        <time>2026-05-14T09:33:14.999Z</time>
      </trkpt>
      <trkpt lat="44.18236" lon="5.28458">
        <ele>1472.8</ele>
        <time>2026-05-14T09:33:15.999Z</time>
      </trkpt>
      <trkpt lat="44.18236" lon="5.28458">
        <ele>1473.1</ele>
        <time>2026-05-14T09:33:16.999Z</time>
      </trkpt>
      <trkpt lat="44.18237" lon="5.28458">
        <ele>1473.3</ele>
        <time>2026-05-14T09:33:17.999Z</time>
      </trkpt>
      <trkpt lat="44.18237" lon="5.28459">
        <ele>1473.5</ele>
        <time>2026-05-14T09:33:18.999Z</time>
      </trkpt>
      <trkpt lat="44.18237" lon="5.28459">
        <ele>1473.8</ele>
        <time>2026-05-14T09:33:19.999Z</time>
      </trkpt>
      <trkpt lat="44.18237" lon="5.2846">
        <ele>1473.7</ele>
        <time>2026-05-14T09:33:20.999Z</time>
      </trkpt>
      <trkpt lat="44.18237" lon="5.28459">
        <ele>1473.7</ele>
        <time>2026-05-14T09:33:21.999Z</time>
      </trkpt>
      <trkpt lat="44.18237" lon="5.28459">
        <ele>1473.7</ele>
        <time>2026-05-14T09:33:22.999Z</time>
      </trkpt>
      <trkpt lat="44.18237" lon="5.2846">
        <ele>1473.7</ele>
        <time>2026-05-14T09:33:23.999Z</time>
      </trkpt>
      <trkpt lat="44.18237" lon="5.2846">
        <ele>1473.6</ele>
        <time>2026-05-14T09:33:24.999Z</time>
      </trkpt>
      <trkpt lat="44.18237" lon="5.2846">
        <ele>1473.6</ele>
        <time>2026-05-14T09:33:25.999Z</time>
      </trkpt>
      <trkpt lat="44.18237" lon="5.2846">
        <ele>1473.6</ele>
        <time>2026-05-14T09:33:26.999Z</time>
      </trkpt>
      <trkpt lat="44.18237" lon="5.2846">
        <ele>1473.5</ele>
        <time>2026-05-14T09:33:27.999Z</time>
      </trkpt>
      <trkpt lat="44.18237" lon="5.2846">
        <ele>1473.1</ele>
        <time>2026-05-14T09:33:28.999Z</time>
      </trkpt>
      <trkpt lat="44.18237" lon="5.2846">
        <ele>1473.1</ele>
        <time>2026-05-14T09:33:29.999Z</time>
      </trkpt>
      <trkpt lat="44.18237" lon="5.2846">
        <ele>1473</ele>
        <time>2026-05-14T09:33:30.999Z</time>
      </trkpt>
      <trkpt lat="44.18236" lon="5.2846">
        <ele>1472.9</ele>
        <time>2026-05-14T09:33:31.999Z</time>
      </trkpt>
      <trkpt lat="44.18236" lon="5.2846">
        <ele>1473.2</ele>
        <time>2026-05-14T09:33:32.999Z</time>
      </trkpt>
      <trkpt lat="44.18236" lon="5.2846">
        <ele>1473.5</ele>
        <time>2026-05-14T09:33:33.999Z</time>
      </trkpt>
      <trkpt lat="44.18236" lon="5.2846">
        <ele>1473.6</ele>
        <time>2026-05-14T09:33:34.999Z</time>
      </trkpt>
      <trkpt lat="44.18236" lon="5.2846">
        <ele>1474</ele>
        <time>2026-05-14T09:33:35.999Z</time>
      </trkpt>
      <trkpt lat="44.18236" lon="5.2846">
        <ele>1474.2</ele>
        <time>2026-05-14T09:33:36.999Z</time>
      </trkpt>
      <trkpt lat="44.18236" lon="5.2846">
        <ele>1474</ele>
        <time>2026-05-14T09:33:37.999Z</time>
      </trkpt>
      <trkpt lat="44.18236" lon="5.2846">
        <ele>1474</ele>
        <time>2026-05-14T09:33:38.999Z</time>
      </trkpt>
      <trkpt lat="44.18236" lon="5.2846">
        <ele>1473.9</ele>
        <time>2026-05-14T09:33:39.999Z</time>
      </trkpt>
      <trkpt lat="44.18236" lon="5.2846">
        <ele>1473.8</ele>
        <time>2026-05-14T09:33:40.999Z</time>
      </trkpt>
      <trkpt lat="44.18236" lon="5.2846">
        <ele>1473.8</ele>
        <time>2026-05-14T09:33:41.999Z</time>
      </trkpt>
      <trkpt lat="44.18236" lon="5.2846">
        <ele>1473.8</ele>
        <time>2026-05-14T09:33:42.999Z</time>
      </trkpt>
      <trkpt lat="44.18236" lon="5.2846">
        <ele>1473.9</ele>
        <time>2026-05-14T09:33:43.999Z</time>
      </trkpt>
      <trkpt lat="44.18236" lon="5.2846">
        <ele>1473.8</ele>
        <time>2026-05-14T09:33:44.999Z</time>
      </trkpt>
      <trkpt lat="44.18236" lon="5.2846">
        <ele>1473.9</ele>
        <time>2026-05-14T09:33:45.999Z</time>
      </trkpt>
      <trkpt lat="44.18236" lon="5.28461">
        <ele>1473.7</ele>
        <time>2026-05-14T09:33:46.999Z</time>
      </trkpt>
      <trkpt lat="44.18236" lon="5.28461">
        <ele>1473.4</ele>
        <time>2026-05-14T09:33:47.999Z</time>
      </trkpt>
      <trkpt lat="44.18236" lon="5.28461">
        <ele>1473.3</ele>
        <time>2026-05-14T09:33:48.999Z</time>
      </trkpt>
      <trkpt lat="44.18236" lon="5.28461">
        <ele>1472.9</ele>
        <time>2026-05-14T09:33:49.999Z</time>
      </trkpt>
      <trkpt lat="44.18236" lon="5.28461">
        <ele>1472.9</ele>
        <time>2026-05-14T09:33:50.999Z</time>
      </trkpt>
      <trkpt lat="44.18236" lon="5.28461">
        <ele>1472.9</ele>
        <time>2026-05-14T09:33:51.999Z</time>
      </trkpt>
      <trkpt lat="44.18236" lon="5.28461">
        <ele>1472.8</ele>
        <time>2026-05-14T09:33:52.999Z</time>
      </trkpt>
      <trkpt lat="44.18236" lon="5.28461">
        <ele>1472.6</ele>
        <time>2026-05-14T09:33:53.999Z</time>
      </trkpt>
      <trkpt lat="44.18236" lon="5.28461">
        <ele>1472.2</ele>
        <time>2026-05-14T09:33:54.999Z</time>
      </trkpt>
      <trkpt lat="44.18236" lon="5.28461">
        <ele>1471.8</ele>
        <time>2026-05-14T09:33:55.999Z</time>
      </trkpt>
      <trkpt lat="44.18236" lon="5.28461">
        <ele>1471.5</ele>
        <time>2026-05-14T09:33:56.999Z</time>
      </trkpt>
      <trkpt lat="44.18236" lon="5.28461">
        <ele>1471.4</ele>
        <time>2026-05-14T09:33:57.999Z</time>
      </trkpt>
      <trkpt lat="44.18236" lon="5.28461">
        <ele>1471.3</ele>
        <time>2026-05-14T09:33:58.999Z</time>
      </trkpt>
      <trkpt lat="44.18235" lon="5.2846">
        <ele>1471.1</ele>
        <time>2026-05-14T09:33:59.999Z</time>
      </trkpt>
      <trkpt lat="44.18235" lon="5.28459">
        <ele>1470.8</ele>
        <time>2026-05-14T09:34:01.999Z</time>
      </trkpt>
      <trkpt lat="44.18235" lon="5.28459">
        <ele>1470.7</ele>
        <time>2026-05-14T09:34:02.999Z</time>
      </trkpt>
      <trkpt lat="44.18235" lon="5.28459">
        <ele>1470.7</ele>
        <time>2026-05-14T09:34:03.999Z</time>
      </trkpt>
      <trkpt lat="44.18235" lon="5.28459">
        <ele>1470.5</ele>
        <time>2026-05-14T09:34:04.999Z</time>
      </trkpt>
      <trkpt lat="44.18235" lon="5.28459">
        <ele>1470.3</ele>
        <time>2026-05-14T09:34:05.999Z</time>
      </trkpt>
      <trkpt lat="44.18234" lon="5.28459">
        <ele>1470.2</ele>
        <time>2026-05-14T09:34:06.999Z</time>
      </trkpt>
      <trkpt lat="44.18234" lon="5.28459">
        <ele>1469.9</ele>
        <time>2026-05-14T09:34:07.999Z</time>
      </trkpt>
      <trkpt lat="44.18233" lon="5.28459">
        <ele>1469.8</ele>
        <time>2026-05-14T09:34:08.999Z</time>
      </trkpt>
      <trkpt lat="44.18232" lon="5.28459">
        <ele>1469.7</ele>
        <time>2026-05-14T09:34:09.999Z</time>
      </trkpt>
      <trkpt lat="44.18231" lon="5.28459">
        <ele>1469.7</ele>
        <time>2026-05-14T09:34:10.999Z</time>
      </trkpt>
      <trkpt lat="44.1823" lon="5.28459">
        <ele>1469.6</ele>
        <time>2026-05-14T09:34:11.999Z</time>
      </trkpt>
      <trkpt lat="44.1823" lon="5.28458">
        <ele>1469.6</ele>
        <time>2026-05-14T09:34:12.999Z</time>
      </trkpt>
      <trkpt lat="44.18228" lon="5.28458">
        <ele>1469.3</ele>
        <time>2026-05-14T09:34:13.999Z</time>
      </trkpt>
      <trkpt lat="44.18228" lon="5.28457">
        <ele>1469.2</ele>
        <time>2026-05-14T09:34:14.999Z</time>
      </trkpt>
      <trkpt lat="44.18226" lon="5.28457">
        <ele>1468.9</ele>
        <time>2026-05-14T09:34:15.999Z</time>
      </trkpt>
      <trkpt lat="44.18225" lon="5.28457">
        <ele>1468.7</ele>
        <time>2026-05-14T09:34:16.999Z</time>
      </trkpt>
      <trkpt lat="44.18224" lon="5.28456">
        <ele>1468.6</ele>
        <time>2026-05-14T09:34:17.999Z</time>
      </trkpt>
      <trkpt lat="44.18223" lon="5.28456">
        <ele>1468.3</ele>
        <time>2026-05-14T09:34:18.999Z</time>
      </trkpt>
      <trkpt lat="44.18222" lon="5.28457">
        <ele>1468.2</ele>
        <time>2026-05-14T09:34:19.999Z</time>
      </trkpt>
      <trkpt lat="44.18221" lon="5.28457">
        <ele>1468</ele>
        <time>2026-05-14T09:34:20.999Z</time>
      </trkpt>
      <trkpt lat="44.1822" lon="5.28456">
        <ele>1467.9</ele>
        <time>2026-05-14T09:34:21.999Z</time>
      </trkpt>
      <trkpt lat="44.1822" lon="5.28456">
        <ele>1467.9</ele>
        <time>2026-05-14T09:34:22.999Z</time>
      </trkpt>
      <trkpt lat="44.18219" lon="5.28456">
        <ele>1467.9</ele>
        <time>2026-05-14T09:34:23.999Z</time>
      </trkpt>
      <trkpt lat="44.18218" lon="5.28456">
        <ele>1467.9</ele>
        <time>2026-05-14T09:34:24.999Z</time>
      </trkpt>
      <trkpt lat="44.18217" lon="5.28456">
        <ele>1468</ele>
        <time>2026-05-14T09:34:25.999Z</time>
      </trkpt>
      <trkpt lat="44.18216" lon="5.28456">
        <ele>1467.6</ele>
        <time>2026-05-14T09:34:26.999Z</time>
      </trkpt>
      <trkpt lat="44.18215" lon="5.28456">
        <ele>1467.3</ele>
        <time>2026-05-14T09:34:27.999Z</time>
      </trkpt>
      <trkpt lat="44.18214" lon="5.28456">
        <ele>1466.8</ele>
        <time>2026-05-14T09:34:28.999Z</time>
      </trkpt>
      <trkpt lat="44.18213" lon="5.28456">
        <ele>1466.4</ele>
        <time>2026-05-14T09:34:29.999Z</time>
      </trkpt>
      <trkpt lat="44.18212" lon="5.28456">
        <ele>1465.8</ele>
        <time>2026-05-14T09:34:30.999Z</time>
      </trkpt>
      <trkpt lat="44.18211" lon="5.28455">
        <ele>1465.4</ele>
        <time>2026-05-14T09:34:31.999Z</time>
      </trkpt>
      <trkpt lat="44.18211" lon="5.28454">
        <ele>1465.1</ele>
        <time>2026-05-14T09:34:32.999Z</time>
      </trkpt>
      <trkpt lat="44.1821" lon="5.28453">
        <ele>1464.5</ele>
        <time>2026-05-14T09:34:33.999Z</time>
      </trkpt>
      <trkpt lat="44.1821" lon="5.28453">
        <ele>1464.8</ele>
        <time>2026-05-14T09:34:34.999Z</time>
      </trkpt>
      <trkpt lat="44.1821" lon="5.28453">
        <ele>1465.6</ele>
        <time>2026-05-14T09:34:35.999Z</time>
      </trkpt>
      <trkpt lat="44.18211" lon="5.28453">
        <ele>1465.6</ele>
        <time>2026-05-14T09:34:36.999Z</time>
      </trkpt>
      <trkpt lat="44.18211" lon="5.28453">
        <ele>1465.7</ele>
        <time>2026-05-14T09:34:37.999Z</time>
      </trkpt>
      <trkpt lat="44.18211" lon="5.28453">
        <ele>1465.6</ele>
        <time>2026-05-14T09:34:38.999Z</time>
      </trkpt>
      <trkpt lat="44.18212" lon="5.28453">
        <ele>1465.4</ele>
        <time>2026-05-14T09:34:39.999Z</time>
      </trkpt>
      <trkpt lat="44.18212" lon="5.28452">
        <ele>1465.3</ele>
        <time>2026-05-14T09:34:40.999Z</time>
      </trkpt>
      <trkpt lat="44.18213" lon="5.28452">
        <ele>1464.9</ele>
        <time>2026-05-14T09:34:41.999Z</time>
      </trkpt>
      <trkpt lat="44.18213" lon="5.28452">
        <ele>1464.2</ele>
        <time>2026-05-14T09:34:42.999Z</time>
      </trkpt>
      <trkpt lat="44.18213" lon="5.28452">
        <ele>1463.2</ele>
        <time>2026-05-14T09:34:43.999Z</time>
      </trkpt>
      <trkpt lat="44.18213" lon="5.28451">
        <ele>1462.3</ele>
        <time>2026-05-14T09:34:44.999Z</time>
      </trkpt>
      <trkpt lat="44.18213" lon="5.28451">
        <ele>1461.6</ele>
        <time>2026-05-14T09:34:45.999Z</time>
      </trkpt>
      <trkpt lat="44.18213" lon="5.28452">
        <ele>1461</ele>
        <time>2026-05-14T09:34:46.999Z</time>
      </trkpt>
      <trkpt lat="44.18213" lon="5.28452">
        <ele>1460.7</ele>
        <time>2026-05-14T09:34:47.999Z</time>
      </trkpt>
      <trkpt lat="44.18213" lon="5.28452">
        <ele>1460.8</ele>
        <time>2026-05-14T09:34:48.999Z</time>
      </trkpt>
      <trkpt lat="44.18213" lon="5.28452">
        <ele>1460.7</ele>
        <time>2026-05-14T09:34:49.999Z</time>
      </trkpt>
      <trkpt lat="44.18213" lon="5.28452">
        <ele>1460.6</ele>
        <time>2026-05-14T09:34:50.999Z</time>
      </trkpt>
      <trkpt lat="44.18213" lon="5.28452">
        <ele>1460.8</ele>
        <time>2026-05-14T09:34:51.999Z</time>
      </trkpt>
      <trkpt lat="44.18213" lon="5.28452">
        <ele>1460.9</ele>
        <time>2026-05-14T09:34:52.999Z</time>
      </trkpt>
      <trkpt lat="44.18214" lon="5.28452">
        <ele>1461.2</ele>
        <time>2026-05-14T09:34:53.999Z</time>
      </trkpt>
      <trkpt lat="44.18214" lon="5.28452">
        <ele>1461.2</ele>
        <time>2026-05-14T09:34:54.999Z</time>
      </trkpt>
      <trkpt lat="44.18214" lon="5.28452">
        <ele>1461</ele>
        <time>2026-05-14T09:34:55.999Z</time>
      </trkpt>
      <trkpt lat="44.18215" lon="5.28451">
        <ele>1461</ele>
        <time>2026-05-14T09:34:56.999Z</time>
      </trkpt>
      <trkpt lat="44.18215" lon="5.2845">
        <ele>1460.9</ele>
        <time>2026-05-14T09:34:57.999Z</time>
      </trkpt>
      <trkpt lat="44.18215" lon="5.2845">
        <ele>1460.9</ele>
        <time>2026-05-14T09:34:58.999Z</time>
      </trkpt>
      <trkpt lat="44.18216" lon="5.2845">
        <ele>1460.9</ele>
        <time>2026-05-14T09:34:59.999Z</time>
      </trkpt>
      <trkpt lat="44.18216" lon="5.2845">
        <ele>1460.8</ele>
        <time>2026-05-14T09:35:00.999Z</time>
      </trkpt>
      <trkpt lat="44.18217" lon="5.28449">
        <ele>1460.8</ele>
        <time>2026-05-14T09:35:01.999Z</time>
      </trkpt>
      <trkpt lat="44.18218" lon="5.28448">
        <ele>1460.9</ele>
        <time>2026-05-14T09:35:02.999Z</time>
      </trkpt>
      <trkpt lat="44.18218" lon="5.28447">
        <ele>1460.8</ele>
        <time>2026-05-14T09:35:03.999Z</time>
      </trkpt>
      <trkpt lat="44.18218" lon="5.28446">
        <ele>1461.1</ele>
        <time>2026-05-14T09:35:04.999Z</time>
      </trkpt>
      <trkpt lat="44.18218" lon="5.28446">
        <ele>1461.2</ele>
        <time>2026-05-14T09:35:05.999Z</time>
      </trkpt>
      <trkpt lat="44.18218" lon="5.28445">
        <ele>1461.4</ele>
        <time>2026-05-14T09:35:06.999Z</time>
      </trkpt>
      <trkpt lat="44.18218" lon="5.28445">
        <ele>1461.3</ele>
        <time>2026-05-14T09:35:07.999Z</time>
      </trkpt>
      <trkpt lat="44.18218" lon="5.28444">
        <ele>1461.2</ele>
        <time>2026-05-14T09:35:08.999Z</time>
      </trkpt>
      <trkpt lat="44.18218" lon="5.28444">
        <ele>1461.1</ele>
        <time>2026-05-14T09:35:09.999Z</time>
      </trkpt>
      <trkpt lat="44.18218" lon="5.28444">
        <ele>1461.2</ele>
        <time>2026-05-14T09:35:10.999Z</time>
      </trkpt>
      <trkpt lat="44.18218" lon="5.28444">
        <ele>1461.2</ele>
        <time>2026-05-14T09:35:11.999Z</time>
      </trkpt>
      <trkpt lat="44.18218" lon="5.28444">
        <ele>1461</ele>
        <time>2026-05-14T09:35:12.999Z</time>
      </trkpt>
      <trkpt lat="44.18218" lon="5.28444">
        <ele>1461.2</ele>
        <time>2026-05-14T09:35:13.999Z</time>
      </trkpt>
      <trkpt lat="44.18218" lon="5.28443">
        <ele>1461.5</ele>
        <time>2026-05-14T09:35:14.999Z</time>
      </trkpt>
      <trkpt lat="44.18217" lon="5.28443">
        <ele>1461.6</ele>
        <time>2026-05-14T09:35:15.999Z</time>
      </trkpt>
      <trkpt lat="44.18217" lon="5.28443">
        <ele>1461.8</ele>
        <time>2026-05-14T09:35:16.999Z</time>
      </trkpt>
      <trkpt lat="44.18216" lon="5.28443">
        <ele>1461.9</ele>
        <time>2026-05-14T09:35:17.999Z</time>
      </trkpt>
      <trkpt lat="44.18215" lon="5.28443">
        <ele>1461.8</ele>
        <time>2026-05-14T09:35:18.999Z</time>
      </trkpt>
      <trkpt lat="44.18213" lon="5.28442">
        <ele>1461.8</ele>
        <time>2026-05-14T09:35:19.999Z</time>
      </trkpt>
      <trkpt lat="44.18211" lon="5.28442">
        <ele>1461.6</ele>
        <time>2026-05-14T09:35:20.999Z</time>
      </trkpt>
      <trkpt lat="44.18209" lon="5.28442">
        <ele>1461.6</ele>
        <time>2026-05-14T09:35:21.999Z</time>
      </trkpt>
      <trkpt lat="44.18208" lon="5.28442">
        <ele>1461.5</ele>
        <time>2026-05-14T09:35:22.999Z</time>
      </trkpt>
      <trkpt lat="44.18207" lon="5.28442">
        <ele>1461.5</ele>
        <time>2026-05-14T09:35:23.999Z</time>
      </trkpt>
      <trkpt lat="44.18206" lon="5.28442">
        <ele>1461.3</ele>
        <time>2026-05-14T09:35:24.999Z</time>
      </trkpt>
      <trkpt lat="44.18204" lon="5.28443">
        <ele>1461.2</ele>
        <time>2026-05-14T09:35:25.999Z</time>
      </trkpt>
      <trkpt lat="44.18203" lon="5.28443">
        <ele>1461.2</ele>
        <time>2026-05-14T09:35:26.999Z</time>
      </trkpt>
      <trkpt lat="44.18201" lon="5.28443">
        <ele>1461.1</ele>
        <time>2026-05-14T09:35:27.999Z</time>
      </trkpt>
      <trkpt lat="44.182" lon="5.28444">
        <ele>1461.3</ele>
        <time>2026-05-14T09:35:28.999Z</time>
      </trkpt>
      <trkpt lat="44.182" lon="5.28444">
        <ele>1461.2</ele>
        <time>2026-05-14T09:35:29.999Z</time>
      </trkpt>
      <trkpt lat="44.18199" lon="5.28445">
        <ele>1461.3</ele>
        <time>2026-05-14T09:35:30.999Z</time>
      </trkpt>
      <trkpt lat="44.18199" lon="5.28445">
        <ele>1461.3</ele>
        <time>2026-05-14T09:35:31.999Z</time>
      </trkpt>
      <trkpt lat="44.18198" lon="5.28446">
        <ele>1461.5</ele>
        <time>2026-05-14T09:35:32.999Z</time>
      </trkpt>
      <trkpt lat="44.18198" lon="5.28446">
        <ele>1461.6</ele>
        <time>2026-05-14T09:35:33.999Z</time>
      </trkpt>
      <trkpt lat="44.18197" lon="5.28446">
        <ele>1461.3</ele>
        <time>2026-05-14T09:35:34.999Z</time>
      </trkpt>
      <trkpt lat="44.18197" lon="5.28446">
        <ele>1460.7</ele>
        <time>2026-05-14T09:35:35.999Z</time>
      </trkpt>
      <trkpt lat="44.18196" lon="5.28446">
        <ele>1460.5</ele>
        <time>2026-05-14T09:35:36.999Z</time>
      </trkpt>
      <trkpt lat="44.18195" lon="5.28446">
        <ele>1460.1</ele>
        <time>2026-05-14T09:35:37.999Z</time>
      </trkpt>
      <trkpt lat="44.18193" lon="5.28446">
        <ele>1459.8</ele>
        <time>2026-05-14T09:35:38.999Z</time>
      </trkpt>
      <trkpt lat="44.18192" lon="5.28447">
        <ele>1459.8</ele>
        <time>2026-05-14T09:35:39.999Z</time>
      </trkpt>
      <trkpt lat="44.18191" lon="5.28447">
        <ele>1459.8</ele>
        <time>2026-05-14T09:35:40.999Z</time>
      </trkpt>
      <trkpt lat="44.1819" lon="5.28447">
        <ele>1459.8</ele>
        <time>2026-05-14T09:35:41.999Z</time>
      </trkpt>
      <trkpt lat="44.18189" lon="5.28447">
        <ele>1459.7</ele>
        <time>2026-05-14T09:35:42.999Z</time>
      </trkpt>
      <trkpt lat="44.18188" lon="5.28448">
        <ele>1459.6</ele>
        <time>2026-05-14T09:35:43.999Z</time>
      </trkpt>
      <trkpt lat="44.18188" lon="5.28448">
        <ele>1459.8</ele>
        <time>2026-05-14T09:35:44.999Z</time>
      </trkpt>
      <trkpt lat="44.18188" lon="5.28449">
        <ele>1459.8</ele>
        <time>2026-05-14T09:35:45.999Z</time>
      </trkpt>
      <trkpt lat="44.18188" lon="5.28449">
        <ele>1459.8</ele>
        <time>2026-05-14T09:35:46.999Z</time>
      </trkpt>
      <trkpt lat="44.18188" lon="5.28449">
        <ele>1459.7</ele>
        <time>2026-05-14T09:35:47.999Z</time>
      </trkpt>
      <trkpt lat="44.18186" lon="5.2845">
        <ele>1459.7</ele>
        <time>2026-05-14T09:35:48.999Z</time>
      </trkpt>
      <trkpt lat="44.18185" lon="5.2845">
        <ele>1459.4</ele>
        <time>2026-05-14T09:35:49.999Z</time>
      </trkpt>
      <trkpt lat="44.18184" lon="5.28451">
        <ele>1459.4</ele>
        <time>2026-05-14T09:35:50.999Z</time>
      </trkpt>
      <trkpt lat="44.18183" lon="5.28451">
        <ele>1459.3</ele>
        <time>2026-05-14T09:35:51.999Z</time>
      </trkpt>
      <trkpt lat="44.18181" lon="5.28451">
        <ele>1459.3</ele>
        <time>2026-05-14T09:35:52.999Z</time>
      </trkpt>
      <trkpt lat="44.18179" lon="5.28452">
        <ele>1459.4</ele>
        <time>2026-05-14T09:35:53.999Z</time>
      </trkpt>
      <trkpt lat="44.18177" lon="5.28452">
        <ele>1459.4</ele>
        <time>2026-05-14T09:35:54.999Z</time>
      </trkpt>
      <trkpt lat="44.18177" lon="5.28453">
        <ele>1459.4</ele>
        <time>2026-05-14T09:35:55.999Z</time>
      </trkpt>
      <trkpt lat="44.18176" lon="5.28454">
        <ele>1459.4</ele>
        <time>2026-05-14T09:35:56.999Z</time>
      </trkpt>
      <trkpt lat="44.18175" lon="5.28455">
        <ele>1459.6</ele>
        <time>2026-05-14T09:35:57.999Z</time>
      </trkpt>
      <trkpt lat="44.18173" lon="5.28456">
        <ele>1459.7</ele>
        <time>2026-05-14T09:35:58.999Z</time>
      </trkpt>
      <trkpt lat="44.18172" lon="5.28458">
        <ele>1460.2</ele>
        <time>2026-05-14T09:35:59.999Z</time>
      </trkpt>
      <trkpt lat="44.18171" lon="5.28459">
        <ele>1460.4</ele>
        <time>2026-05-14T09:36:00.999Z</time>
      </trkpt>
      <trkpt lat="44.18169" lon="5.28459">
        <ele>1460.3</ele>
        <time>2026-05-14T09:36:01.999Z</time>
      </trkpt>
      <trkpt lat="44.18169" lon="5.2846">
        <ele>1460.5</ele>
        <time>2026-05-14T09:36:02.999Z</time>
      </trkpt>
      <trkpt lat="44.18168" lon="5.2846">
        <ele>1460.6</ele>
        <time>2026-05-14T09:36:03.999Z</time>
      </trkpt>
      <trkpt lat="44.18167" lon="5.28461">
        <ele>1460.3</ele>
        <time>2026-05-14T09:36:04.999Z</time>
      </trkpt>
      <trkpt lat="44.18167" lon="5.28461">
        <ele>1460.3</ele>
        <time>2026-05-14T09:36:05.999Z</time>
      </trkpt>
      <trkpt lat="44.18165" lon="5.28463">
        <ele>1460.6</ele>
        <time>2026-05-14T09:36:06.999Z</time>
      </trkpt>
      <trkpt lat="44.18164" lon="5.28463">
        <ele>1461.1</ele>
        <time>2026-05-14T09:36:07.999Z</time>
      </trkpt>
      <trkpt lat="44.18163" lon="5.28464">
        <ele>1461.1</ele>
        <time>2026-05-14T09:36:08.999Z</time>
      </trkpt>
      <trkpt lat="44.18162" lon="5.28465">
        <ele>1461.1</ele>
        <time>2026-05-14T09:36:09.999Z</time>
      </trkpt>
      <trkpt lat="44.18161" lon="5.28466">
        <ele>1460.9</ele>
        <time>2026-05-14T09:36:10.999Z</time>
      </trkpt>
      <trkpt lat="44.18161" lon="5.28467">
        <ele>1460.9</ele>
        <time>2026-05-14T09:36:11.999Z</time>
      </trkpt>
      <trkpt lat="44.18161" lon="5.28468">
        <ele>1461.2</ele>
        <time>2026-05-14T09:36:12.999Z</time>
      </trkpt>
      <trkpt lat="44.1816" lon="5.28469">
        <ele>1461.8</ele>
        <time>2026-05-14T09:36:13.999Z</time>
      </trkpt>
      <trkpt lat="44.18161" lon="5.2847">
        <ele>1462.2</ele>
        <time>2026-05-14T09:36:14.999Z</time>
      </trkpt>
      <trkpt lat="44.18161" lon="5.2847">
        <ele>1462.7</ele>
        <time>2026-05-14T09:36:15.999Z</time>
      </trkpt>
      <trkpt lat="44.18161" lon="5.2847">
        <ele>1463</ele>
        <time>2026-05-14T09:36:16.999Z</time>
      </trkpt>
      <trkpt lat="44.1816" lon="5.28471">
        <ele>1463</ele>
        <time>2026-05-14T09:36:17.999Z</time>
      </trkpt>
      <trkpt lat="44.1816" lon="5.28472">
        <ele>1463.5</ele>
        <time>2026-05-14T09:36:18.999Z</time>
      </trkpt>
      <trkpt lat="44.18159" lon="5.28473">
        <ele>1464.2</ele>
        <time>2026-05-14T09:36:19.999Z</time>
      </trkpt>
      <trkpt lat="44.18159" lon="5.28475">
        <ele>1464.3</ele>
        <time>2026-05-14T09:36:20.999Z</time>
      </trkpt>
      <trkpt lat="44.18159" lon="5.28476">
        <ele>1464.5</ele>
        <time>2026-05-14T09:36:21.999Z</time>
      </trkpt>
      <trkpt lat="44.18158" lon="5.28477">
        <ele>1465.1</ele>
        <time>2026-05-14T09:36:22.999Z</time>
      </trkpt>
      <trkpt lat="44.18158" lon="5.28478">
        <ele>1465.4</ele>
        <time>2026-05-14T09:36:23.999Z</time>
      </trkpt>
      <trkpt lat="44.18157" lon="5.28479">
        <ele>1465.4</ele>
        <time>2026-05-14T09:36:24.999Z</time>
      </trkpt>
      <trkpt lat="44.18156" lon="5.2848">
        <ele>1465.3</ele>
        <time>2026-05-14T09:36:25.999Z</time>
      </trkpt>
      <trkpt lat="44.18155" lon="5.28481">
        <ele>1464.7</ele>
        <time>2026-05-14T09:36:26.999Z</time>
      </trkpt>
      <trkpt lat="44.18154" lon="5.28482">
        <ele>1464.7</ele>
        <time>2026-05-14T09:36:27.999Z</time>
      </trkpt>
      <trkpt lat="44.18153" lon="5.28483">
        <ele>1465</ele>
        <time>2026-05-14T09:36:28.999Z</time>
      </trkpt>
      <trkpt lat="44.18153" lon="5.28484">
        <ele>1464.9</ele>
        <time>2026-05-14T09:36:29.999Z</time>
      </trkpt>
      <trkpt lat="44.18152" lon="5.28484">
        <ele>1464.5</ele>
        <time>2026-05-14T09:36:30.999Z</time>
      </trkpt>
      <trkpt lat="44.18151" lon="5.28485">
        <ele>1464.4</ele>
        <time>2026-05-14T09:36:31.999Z</time>
      </trkpt>
      <trkpt lat="44.1815" lon="5.28485">
        <ele>1464.2</ele>
        <time>2026-05-14T09:36:32.999Z</time>
      </trkpt>
      <trkpt lat="44.18149" lon="5.28485">
        <ele>1464</ele>
        <time>2026-05-14T09:36:33.999Z</time>
      </trkpt>
      <trkpt lat="44.18149" lon="5.28485">
        <ele>1463.8</ele>
        <time>2026-05-14T09:36:34.999Z</time>
      </trkpt>
      <trkpt lat="44.18148" lon="5.28486">
        <ele>1463.7</ele>
        <time>2026-05-14T09:36:35.999Z</time>
      </trkpt>
      <trkpt lat="44.18147" lon="5.28486">
        <ele>1463.3</ele>
        <time>2026-05-14T09:36:36.999Z</time>
      </trkpt>
      <trkpt lat="44.18146" lon="5.28486">
        <ele>1463.1</ele>
        <time>2026-05-14T09:36:37.999Z</time>
      </trkpt>
      <trkpt lat="44.18146" lon="5.28486">
        <ele>1462.8</ele>
        <time>2026-05-14T09:36:38.999Z</time>
      </trkpt>
      <trkpt lat="44.18145" lon="5.28487">
        <ele>1463</ele>
        <time>2026-05-14T09:36:39.999Z</time>
      </trkpt>
      <trkpt lat="44.18144" lon="5.28487">
        <ele>1463.5</ele>
        <time>2026-05-14T09:36:40.999Z</time>
      </trkpt>
      <trkpt lat="44.18143" lon="5.28488">
        <ele>1463.9</ele>
        <time>2026-05-14T09:36:41.999Z</time>
      </trkpt>
      <trkpt lat="44.18142" lon="5.28489">
        <ele>1464.1</ele>
        <time>2026-05-14T09:36:42.999Z</time>
      </trkpt>
      <trkpt lat="44.18141" lon="5.2849">
        <ele>1464.5</ele>
        <time>2026-05-14T09:36:43.999Z</time>
      </trkpt>
      <trkpt lat="44.18141" lon="5.28491">
        <ele>1465.8</ele>
        <time>2026-05-14T09:36:44.999Z</time>
      </trkpt>
      <trkpt lat="44.1814" lon="5.28493">
        <ele>1467</ele>
        <time>2026-05-14T09:36:45.999Z</time>
      </trkpt>
      <trkpt lat="44.18139" lon="5.28494">
        <ele>1467.5</ele>
        <time>2026-05-14T09:36:46.999Z</time>
      </trkpt>
      <trkpt lat="44.18138" lon="5.28494">
        <ele>1467.6</ele>
        <time>2026-05-14T09:36:47.999Z</time>
      </trkpt>
      <trkpt lat="44.18137" lon="5.28495">
        <ele>1468.1</ele>
        <time>2026-05-14T09:36:48.999Z</time>
      </trkpt>
      <trkpt lat="44.18136" lon="5.28496">
        <ele>1468.7</ele>
        <time>2026-05-14T09:36:49.999Z</time>
      </trkpt>
      <trkpt lat="44.18136" lon="5.28497">
        <ele>1469.1</ele>
        <time>2026-05-14T09:36:50.999Z</time>
      </trkpt>
      <trkpt lat="44.18136" lon="5.28498">
        <ele>1469.5</ele>
        <time>2026-05-14T09:36:51.999Z</time>
      </trkpt>
      <trkpt lat="44.18135" lon="5.28498">
        <ele>1469.7</ele>
        <time>2026-05-14T09:36:52.999Z</time>
      </trkpt>
      <trkpt lat="44.18135" lon="5.28499">
        <ele>1469.8</ele>
        <time>2026-05-14T09:36:53.999Z</time>
      </trkpt>
      <trkpt lat="44.18134" lon="5.28499">
        <ele>1469.9</ele>
        <time>2026-05-14T09:36:54.999Z</time>
      </trkpt>
      <trkpt lat="44.18133" lon="5.28499">
        <ele>1470.1</ele>
        <time>2026-05-14T09:36:55.999Z</time>
      </trkpt>
      <trkpt lat="44.18132" lon="5.28499">
        <ele>1470</ele>
        <time>2026-05-14T09:36:56.999Z</time>
      </trkpt>
      <trkpt lat="44.18132" lon="5.285">
        <ele>1469.8</ele>
        <time>2026-05-14T09:36:57.999Z</time>
      </trkpt>
      <trkpt lat="44.18131" lon="5.285">
        <ele>1469.9</ele>
        <time>2026-05-14T09:36:58.999Z</time>
      </trkpt>
      <trkpt lat="44.18131" lon="5.285">
        <ele>1469.4</ele>
        <time>2026-05-14T09:36:59.999Z</time>
      </trkpt>
      <trkpt lat="44.1813" lon="5.285">
        <ele>1469.3</ele>
        <time>2026-05-14T09:37:00.999Z</time>
      </trkpt>
      <trkpt lat="44.18129" lon="5.285">
        <ele>1468.8</ele>
        <time>2026-05-14T09:37:01.999Z</time>
      </trkpt>
      <trkpt lat="44.18129" lon="5.28501">
        <ele>1468.8</ele>
        <time>2026-05-14T09:37:02.999Z</time>
      </trkpt>
      <trkpt lat="44.18129" lon="5.28502">
        <ele>1468.9</ele>
        <time>2026-05-14T09:37:03.999Z</time>
      </trkpt>
      <trkpt lat="44.18129" lon="5.28503">
        <ele>1468.7</ele>
        <time>2026-05-14T09:37:04.999Z</time>
      </trkpt>
      <trkpt lat="44.18128" lon="5.28503">
        <ele>1468.6</ele>
        <time>2026-05-14T09:37:05.999Z</time>
      </trkpt>
      <trkpt lat="44.18127" lon="5.28504">
        <ele>1468.4</ele>
        <time>2026-05-14T09:37:06.999Z</time>
      </trkpt>
      <trkpt lat="44.18126" lon="5.28505">
        <ele>1468.6</ele>
        <time>2026-05-14T09:37:07.999Z</time>
      </trkpt>
      <trkpt lat="44.18125" lon="5.28506">
        <ele>1468.9</ele>
        <time>2026-05-14T09:37:08.999Z</time>
      </trkpt>
      <trkpt lat="44.18124" lon="5.28507">
        <ele>1469.3</ele>
        <time>2026-05-14T09:37:09.999Z</time>
      </trkpt>
      <trkpt lat="44.18124" lon="5.28508">
        <ele>1469.6</ele>
        <time>2026-05-14T09:37:10.999Z</time>
      </trkpt>
      <trkpt lat="44.18123" lon="5.28509">
        <ele>1469.8</ele>
        <time>2026-05-14T09:37:11.999Z</time>
      </trkpt>
      <trkpt lat="44.18123" lon="5.28509">
        <ele>1469.8</ele>
        <time>2026-05-14T09:37:12.999Z</time>
      </trkpt>
      <trkpt lat="44.18123" lon="5.2851">
        <ele>1470.1</ele>
        <time>2026-05-14T09:37:13.999Z</time>
      </trkpt>
      <trkpt lat="44.18122" lon="5.28511">
        <ele>1469.9</ele>
        <time>2026-05-14T09:37:14.999Z</time>
      </trkpt>
      <trkpt lat="44.1812" lon="5.28512">
        <ele>1469.2</ele>
        <time>2026-05-14T09:37:15.999Z</time>
      </trkpt>
      <trkpt lat="44.18119" lon="5.28513">
        <ele>1468.3</ele>
        <time>2026-05-14T09:37:16.999Z</time>
      </trkpt>
      <trkpt lat="44.18119" lon="5.28513">
        <ele>1468.3</ele>
        <time>2026-05-14T09:37:17.999Z</time>
      </trkpt>
      <trkpt lat="44.18118" lon="5.28514">
        <ele>1468.4</ele>
        <time>2026-05-14T09:37:18.999Z</time>
      </trkpt>
      <trkpt lat="44.18117" lon="5.28514">
        <ele>1468.6</ele>
        <time>2026-05-14T09:37:19.999Z</time>
      </trkpt>
      <trkpt lat="44.18117" lon="5.28515">
        <ele>1468.8</ele>
        <time>2026-05-14T09:37:20.999Z</time>
      </trkpt>
      <trkpt lat="44.18117" lon="5.28516">
        <ele>1469.7</ele>
        <time>2026-05-14T09:37:21.999Z</time>
      </trkpt>
      <trkpt lat="44.18117" lon="5.28517">
        <ele>1470.4</ele>
        <time>2026-05-14T09:37:22.999Z</time>
      </trkpt>
      <trkpt lat="44.18117" lon="5.28518">
        <ele>1470.8</ele>
        <time>2026-05-14T09:37:23.999Z</time>
      </trkpt>
      <trkpt lat="44.18117" lon="5.2852">
        <ele>1471.9</ele>
        <time>2026-05-14T09:37:25.999Z</time>
      </trkpt>
      <trkpt lat="44.18116" lon="5.28522">
        <ele>1472.4</ele>
        <time>2026-05-14T09:37:26.999Z</time>
      </trkpt>
      <trkpt lat="44.18115" lon="5.28524">
        <ele>1472.8</ele>
        <time>2026-05-14T09:37:27.999Z</time>
      </trkpt>
      <trkpt lat="44.18114" lon="5.28524">
        <ele>1472.3</ele>
        <time>2026-05-14T09:37:28.999Z</time>
      </trkpt>
      <trkpt lat="44.18113" lon="5.28525">
        <ele>1472</ele>
        <time>2026-05-14T09:37:29.999Z</time>
      </trkpt>
      <trkpt lat="44.18112" lon="5.28526">
        <ele>1471.7</ele>
        <time>2026-05-14T09:37:30.999Z</time>
      </trkpt>
      <trkpt lat="44.18111" lon="5.28527">
        <ele>1471.9</ele>
        <time>2026-05-14T09:37:31.999Z</time>
      </trkpt>
      <trkpt lat="44.18111" lon="5.28528">
        <ele>1472.5</ele>
        <time>2026-05-14T09:37:32.999Z</time>
      </trkpt>
      <trkpt lat="44.1811" lon="5.28528">
        <ele>1473.1</ele>
        <time>2026-05-14T09:37:33.999Z</time>
      </trkpt>
      <trkpt lat="44.18109" lon="5.28528">
        <ele>1473.4</ele>
        <time>2026-05-14T09:37:34.999Z</time>
      </trkpt>
      <trkpt lat="44.18108" lon="5.28528">
        <ele>1473.6</ele>
        <time>2026-05-14T09:37:35.999Z</time>
      </trkpt>
      <trkpt lat="44.18108" lon="5.28529">
        <ele>1474.1</ele>
        <time>2026-05-14T09:37:36.999Z</time>
      </trkpt>
      <trkpt lat="44.18107" lon="5.2853">
        <ele>1474.2</ele>
        <time>2026-05-14T09:37:37.999Z</time>
      </trkpt>
      <trkpt lat="44.18107" lon="5.2853">
        <ele>1474.6</ele>
        <time>2026-05-14T09:37:38.999Z</time>
      </trkpt>
      <trkpt lat="44.18106" lon="5.2853">
        <ele>1474.4</ele>
        <time>2026-05-14T09:37:39.999Z</time>
      </trkpt>
      <trkpt lat="44.18105" lon="5.2853">
        <ele>1474.2</ele>
        <time>2026-05-14T09:37:40.999Z</time>
      </trkpt>
      <trkpt lat="44.18104" lon="5.28531">
        <ele>1474.2</ele>
        <time>2026-05-14T09:37:41.999Z</time>
      </trkpt>
      <trkpt lat="44.18103" lon="5.28531">
        <ele>1474.5</ele>
        <time>2026-05-14T09:37:42.999Z</time>
      </trkpt>
      <trkpt lat="44.18102" lon="5.28531">
        <ele>1474.2</ele>
        <time>2026-05-14T09:37:43.999Z</time>
      </trkpt>
      <trkpt lat="44.18101" lon="5.28531">
        <ele>1473.9</ele>
        <time>2026-05-14T09:37:44.999Z</time>
      </trkpt>
      <trkpt lat="44.18101" lon="5.28531">
        <ele>1474.1</ele>
        <time>2026-05-14T09:37:45.999Z</time>
      </trkpt>
      <trkpt lat="44.18101" lon="5.28531">
        <ele>1474.7</ele>
        <time>2026-05-14T09:37:46.999Z</time>
      </trkpt>
      <trkpt lat="44.181" lon="5.28532">
        <ele>1475</ele>
        <time>2026-05-14T09:37:47.999Z</time>
      </trkpt>
      <trkpt lat="44.18099" lon="5.28533">
        <ele>1475.4</ele>
        <time>2026-05-14T09:37:48.999Z</time>
      </trkpt>
      <trkpt lat="44.18098" lon="5.28534">
        <ele>1475.6</ele>
        <time>2026-05-14T09:37:49.999Z</time>
      </trkpt>
      <trkpt lat="44.18097" lon="5.28535">
        <ele>1475.9</ele>
        <time>2026-05-14T09:37:50.999Z</time>
      </trkpt>
      <trkpt lat="44.18096" lon="5.28536">
        <ele>1475.7</ele>
        <time>2026-05-14T09:37:51.999Z</time>
      </trkpt>
      <trkpt lat="44.18095" lon="5.28538">
        <ele>1475.6</ele>
        <time>2026-05-14T09:37:52.999Z</time>
      </trkpt>
      <trkpt lat="44.18093" lon="5.28538">
        <ele>1475.3</ele>
        <time>2026-05-14T09:37:53.999Z</time>
      </trkpt>
      <trkpt lat="44.18092" lon="5.28539">
        <ele>1475.6</ele>
        <time>2026-05-14T09:37:54.999Z</time>
      </trkpt>
      <trkpt lat="44.18091" lon="5.28539">
        <ele>1475.3</ele>
        <time>2026-05-14T09:37:55.999Z</time>
      </trkpt>
      <trkpt lat="44.1809" lon="5.2854">
        <ele>1475.2</ele>
        <time>2026-05-14T09:37:56.999Z</time>
      </trkpt>
      <trkpt lat="44.18089" lon="5.2854">
        <ele>1474.6</ele>
        <time>2026-05-14T09:37:57.999Z</time>
      </trkpt>
      <trkpt lat="44.18088" lon="5.28541">
        <ele>1474.8</ele>
        <time>2026-05-14T09:37:58.999Z</time>
      </trkpt>
      <trkpt lat="44.18087" lon="5.28543">
        <ele>1474.7</ele>
        <time>2026-05-14T09:37:59.999Z</time>
      </trkpt>
      <trkpt lat="44.18086" lon="5.28544">
        <ele>1475.1</ele>
        <time>2026-05-14T09:38:00.999Z</time>
      </trkpt>
      <trkpt lat="44.18085" lon="5.28545">
        <ele>1475.4</ele>
        <time>2026-05-14T09:38:01.999Z</time>
      </trkpt>
      <trkpt lat="44.18084" lon="5.28546">
        <ele>1475.2</ele>
        <time>2026-05-14T09:38:02.999Z</time>
      </trkpt>
      <trkpt lat="44.18083" lon="5.28547">
        <ele>1475.1</ele>
        <time>2026-05-14T09:38:03.999Z</time>
      </trkpt>
      <trkpt lat="44.18083" lon="5.28547">
        <ele>1475.1</ele>
        <time>2026-05-14T09:38:04.999Z</time>
      </trkpt>
      <trkpt lat="44.18082" lon="5.28548">
        <ele>1475.1</ele>
        <time>2026-05-14T09:38:05.999Z</time>
      </trkpt>
      <trkpt lat="44.18082" lon="5.28548">
        <ele>1474.8</ele>
        <time>2026-05-14T09:38:06.999Z</time>
      </trkpt>
      <trkpt lat="44.18081" lon="5.28548">
        <ele>1474.5</ele>
        <time>2026-05-14T09:38:07.999Z</time>
      </trkpt>
      <trkpt lat="44.1808" lon="5.28549">
        <ele>1474.7</ele>
        <time>2026-05-14T09:38:08.999Z</time>
      </trkpt>
      <trkpt lat="44.18079" lon="5.28549">
        <ele>1474.5</ele>
        <time>2026-05-14T09:38:09.999Z</time>
      </trkpt>
      <trkpt lat="44.18077" lon="5.28551">
        <ele>1474.3</ele>
        <time>2026-05-14T09:38:10.999Z</time>
      </trkpt>
      <trkpt lat="44.18076" lon="5.28552">
        <ele>1474.2</ele>
        <time>2026-05-14T09:38:12.000Z</time>
      </trkpt>
      <trkpt lat="44.18076" lon="5.28554">
        <ele>1474.3</ele>
        <time>2026-05-14T09:38:13.000Z</time>
      </trkpt>
      <trkpt lat="44.18075" lon="5.28555">
        <ele>1474.7</ele>
        <time>2026-05-14T09:38:14.000Z</time>
      </trkpt>
      <trkpt lat="44.18075" lon="5.28555">
        <ele>1474.9</ele>
        <time>2026-05-14T09:38:15.000Z</time>
      </trkpt>
      <trkpt lat="44.18074" lon="5.28556">
        <ele>1475.4</ele>
        <time>2026-05-14T09:38:16.000Z</time>
      </trkpt>
      <trkpt lat="44.18073" lon="5.28557">
        <ele>1475.6</ele>
        <time>2026-05-14T09:38:17.000Z</time>
      </trkpt>
      <trkpt lat="44.18073" lon="5.28558">
        <ele>1475.6</ele>
        <time>2026-05-14T09:38:18.000Z</time>
      </trkpt>
      <trkpt lat="44.18072" lon="5.28559">
        <ele>1475.1</ele>
        <time>2026-05-14T09:38:19.000Z</time>
      </trkpt>
      <trkpt lat="44.18072" lon="5.28559">
        <ele>1474.3</ele>
        <time>2026-05-14T09:38:20.000Z</time>
      </trkpt>
      <trkpt lat="44.18071" lon="5.28559">
        <ele>1474.1</ele>
        <time>2026-05-14T09:38:21.000Z</time>
      </trkpt>
      <trkpt lat="44.18071" lon="5.2856">
        <ele>1473.4</ele>
        <time>2026-05-14T09:38:22.000Z</time>
      </trkpt>
      <trkpt lat="44.18071" lon="5.28559">
        <ele>1472.7</ele>
        <time>2026-05-14T09:38:23.000Z</time>
      </trkpt>
      <trkpt lat="44.1807" lon="5.28559">
        <ele>1472.3</ele>
        <time>2026-05-14T09:38:24.000Z</time>
      </trkpt>
      <trkpt lat="44.18069" lon="5.28559">
        <ele>1471.9</ele>
        <time>2026-05-14T09:38:25.000Z</time>
      </trkpt>
      <trkpt lat="44.18068" lon="5.28559">
        <ele>1472.5</ele>
        <time>2026-05-14T09:38:26.000Z</time>
      </trkpt>
      <trkpt lat="44.18067" lon="5.28559">
        <ele>1472.9</ele>
        <time>2026-05-14T09:38:27.000Z</time>
      </trkpt>
      <trkpt lat="44.18066" lon="5.2856">
        <ele>1473.1</ele>
        <time>2026-05-14T09:38:28.000Z</time>
      </trkpt>
      <trkpt lat="44.18065" lon="5.28562">
        <ele>1473.3</ele>
        <time>2026-05-14T09:38:29.000Z</time>
      </trkpt>
      <trkpt lat="44.18063" lon="5.28563">
        <ele>1473.8</ele>
        <time>2026-05-14T09:38:30.000Z</time>
      </trkpt>
      <trkpt lat="44.18062" lon="5.28564">
        <ele>1474.4</ele>
        <time>2026-05-14T09:38:31.000Z</time>
      </trkpt>
      <trkpt lat="44.18061" lon="5.28565">
        <ele>1474.4</ele>
        <time>2026-05-14T09:38:32.000Z</time>
      </trkpt>
      <trkpt lat="44.1806" lon="5.28565">
        <ele>1474.7</ele>
        <time>2026-05-14T09:38:33.000Z</time>
      </trkpt>
      <trkpt lat="44.18059" lon="5.28566">
        <ele>1474.9</ele>
        <time>2026-05-14T09:38:34.000Z</time>
      </trkpt>
      <trkpt lat="44.18057" lon="5.28567">
        <ele>1474.7</ele>
        <time>2026-05-14T09:38:35.000Z</time>
      </trkpt>
      <trkpt lat="44.18057" lon="5.28567">
        <ele>1474.4</ele>
        <time>2026-05-14T09:38:36.000Z</time>
      </trkpt>
      <trkpt lat="44.18056" lon="5.28568">
        <ele>1474.9</ele>
        <time>2026-05-14T09:38:37.000Z</time>
      </trkpt>
      <trkpt lat="44.18055" lon="5.28569">
        <ele>1475.2</ele>
        <time>2026-05-14T09:38:38.000Z</time>
      </trkpt>
      <trkpt lat="44.18054" lon="5.28569">
        <ele>1475.6</ele>
        <time>2026-05-14T09:38:39.000Z</time>
      </trkpt>
      <trkpt lat="44.18053" lon="5.2857">
        <ele>1476.2</ele>
        <time>2026-05-14T09:38:40.000Z</time>
      </trkpt>
      <trkpt lat="44.18053" lon="5.28569">
        <ele>1476.3</ele>
        <time>2026-05-14T09:38:41.000Z</time>
      </trkpt>
      <trkpt lat="44.18052" lon="5.28569">
        <ele>1475.9</ele>
        <time>2026-05-14T09:38:43.000Z</time>
      </trkpt>
      <trkpt lat="44.1805" lon="5.28569">
        <ele>1475.3</ele>
        <time>2026-05-14T09:38:44.000Z</time>
      </trkpt>
      <trkpt lat="44.1805" lon="5.28569">
        <ele>1475.1</ele>
        <time>2026-05-14T09:38:45.000Z</time>
      </trkpt>
      <trkpt lat="44.18049" lon="5.2857">
        <ele>1475</ele>
        <time>2026-05-14T09:38:46.000Z</time>
      </trkpt>
      <trkpt lat="44.18049" lon="5.28571">
        <ele>1475.5</ele>
        <time>2026-05-14T09:38:47.000Z</time>
      </trkpt>
      <trkpt lat="44.18048" lon="5.28572">
        <ele>1475.8</ele>
        <time>2026-05-14T09:38:48.000Z</time>
      </trkpt>
      <trkpt lat="44.18048" lon="5.28573">
        <ele>1475.3</ele>
        <time>2026-05-14T09:38:49.000Z</time>
      </trkpt>
      <trkpt lat="44.18047" lon="5.28573">
        <ele>1474.6</ele>
        <time>2026-05-14T09:38:50.000Z</time>
      </trkpt>
      <trkpt lat="44.18047" lon="5.28573">
        <ele>1474.4</ele>
        <time>2026-05-14T09:38:51.000Z</time>
      </trkpt>
      <trkpt lat="44.18047" lon="5.28573">
        <ele>1475.8</ele>
        <time>2026-05-14T09:38:52.000Z</time>
      </trkpt>
      <trkpt lat="44.18047" lon="5.28573">
        <ele>1475.7</ele>
        <time>2026-05-14T09:38:53.000Z</time>
      </trkpt>
      <trkpt lat="44.18047" lon="5.28574">
        <ele>1475.5</ele>
        <time>2026-05-14T09:38:54.000Z</time>
      </trkpt>
      <trkpt lat="44.18046" lon="5.28574">
        <ele>1475.4</ele>
        <time>2026-05-14T09:38:55.000Z</time>
      </trkpt>
      <trkpt lat="44.18045" lon="5.28575">
        <ele>1475.2</ele>
        <time>2026-05-14T09:38:56.000Z</time>
      </trkpt>
      <trkpt lat="44.18044" lon="5.28575">
        <ele>1475.1</ele>
        <time>2026-05-14T09:38:57.000Z</time>
      </trkpt>
      <trkpt lat="44.18043" lon="5.28575">
        <ele>1475.3</ele>
        <time>2026-05-14T09:38:58.000Z</time>
      </trkpt>
      <trkpt lat="44.18043" lon="5.28575">
        <ele>1475.4</ele>
        <time>2026-05-14T09:38:59.000Z</time>
      </trkpt>
      <trkpt lat="44.18042" lon="5.28575">
        <ele>1475.4</ele>
        <time>2026-05-14T09:39:00.000Z</time>
      </trkpt>
      <trkpt lat="44.18042" lon="5.28575">
        <ele>1475.5</ele>
        <time>2026-05-14T09:39:01.000Z</time>
      </trkpt>
      <trkpt lat="44.18042" lon="5.28575">
        <ele>1475.5</ele>
        <time>2026-05-14T09:39:02.000Z</time>
      </trkpt>
      <trkpt lat="44.18041" lon="5.28575">
        <ele>1475.5</ele>
        <time>2026-05-14T09:39:03.000Z</time>
      </trkpt>
      <trkpt lat="44.1804" lon="5.28576">
        <ele>1475.6</ele>
        <time>2026-05-14T09:39:04.000Z</time>
      </trkpt>
      <trkpt lat="44.18039" lon="5.28577">
        <ele>1475.7</ele>
        <time>2026-05-14T09:39:05.000Z</time>
      </trkpt>
      <trkpt lat="44.18039" lon="5.28577">
        <ele>1476</ele>
        <time>2026-05-14T09:39:06.000Z</time>
      </trkpt>
      <trkpt lat="44.18038" lon="5.28578">
        <ele>1476.4</ele>
        <time>2026-05-14T09:39:07.000Z</time>
      </trkpt>
      <trkpt lat="44.18037" lon="5.28578">
        <ele>1476.9</ele>
        <time>2026-05-14T09:39:08.000Z</time>
      </trkpt>
      <trkpt lat="44.18036" lon="5.28579">
        <ele>1476.7</ele>
        <time>2026-05-14T09:39:09.000Z</time>
      </trkpt>
      <trkpt lat="44.18036" lon="5.28581">
        <ele>1477</ele>
        <time>2026-05-14T09:39:10.000Z</time>
      </trkpt>
      <trkpt lat="44.18035" lon="5.28582">
        <ele>1477.5</ele>
        <time>2026-05-14T09:39:11.000Z</time>
      </trkpt>
      <trkpt lat="44.18035" lon="5.28584">
        <ele>1477.8</ele>
        <time>2026-05-14T09:39:12.000Z</time>
      </trkpt>
      <trkpt lat="44.18034" lon="5.28585">
        <ele>1477.9</ele>
        <time>2026-05-14T09:39:13.000Z</time>
      </trkpt>
      <trkpt lat="44.18034" lon="5.28586">
        <ele>1478.2</ele>
        <time>2026-05-14T09:39:14.000Z</time>
      </trkpt>
      <trkpt lat="44.18033" lon="5.28586">
        <ele>1478.2</ele>
        <time>2026-05-14T09:39:15.000Z</time>
      </trkpt>
      <trkpt lat="44.18032" lon="5.28587">
        <ele>1478.3</ele>
        <time>2026-05-14T09:39:16.000Z</time>
      </trkpt>
      <trkpt lat="44.18032" lon="5.28587">
        <ele>1478.2</ele>
        <time>2026-05-14T09:39:17.000Z</time>
      </trkpt>
      <trkpt lat="44.18031" lon="5.28587">
        <ele>1478.1</ele>
        <time>2026-05-14T09:39:18.000Z</time>
      </trkpt>
      <trkpt lat="44.1803" lon="5.28588">
        <ele>1478.2</ele>
        <time>2026-05-14T09:39:19.000Z</time>
      </trkpt>
      <trkpt lat="44.18029" lon="5.28588">
        <ele>1478.2</ele>
        <time>2026-05-14T09:39:20.000Z</time>
      </trkpt>
      <trkpt lat="44.18028" lon="5.28589">
        <ele>1477.7</ele>
        <time>2026-05-14T09:39:21.000Z</time>
      </trkpt>
      <trkpt lat="44.18028" lon="5.28589">
        <ele>1477.3</ele>
        <time>2026-05-14T09:39:22.000Z</time>
      </trkpt>
      <trkpt lat="44.18027" lon="5.28589">
        <ele>1476.9</ele>
        <time>2026-05-14T09:39:23.000Z</time>
      </trkpt>
      <trkpt lat="44.18027" lon="5.28589">
        <ele>1476.5</ele>
        <time>2026-05-14T09:39:24.000Z</time>
      </trkpt>
      <trkpt lat="44.18027" lon="5.28588">
        <ele>1476.4</ele>
        <time>2026-05-14T09:39:25.000Z</time>
      </trkpt>
      <trkpt lat="44.18027" lon="5.28588">
        <ele>1476.6</ele>
        <time>2026-05-14T09:39:26.000Z</time>
      </trkpt>
      <trkpt lat="44.18026" lon="5.28588">
        <ele>1476.7</ele>
        <time>2026-05-14T09:39:27.000Z</time>
      </trkpt>
      <trkpt lat="44.18026" lon="5.28588">
        <ele>1476.8</ele>
        <time>2026-05-14T09:39:28.000Z</time>
      </trkpt>
      <trkpt lat="44.18026" lon="5.28588">
        <ele>1477.4</ele>
        <time>2026-05-14T09:39:29.000Z</time>
      </trkpt>
      <trkpt lat="44.18026" lon="5.28588">
        <ele>1477.7</ele>
        <time>2026-05-14T09:39:30.000Z</time>
      </trkpt>
      <trkpt lat="44.18026" lon="5.28588">
        <ele>1478.2</ele>
        <time>2026-05-14T09:39:31.000Z</time>
      </trkpt>
      <trkpt lat="44.18027" lon="5.28589">
        <ele>1478.7</ele>
        <time>2026-05-14T09:39:32.000Z</time>
      </trkpt>
      <trkpt lat="44.18027" lon="5.28589">
        <ele>1479.1</ele>
        <time>2026-05-14T09:39:33.000Z</time>
      </trkpt>
      <trkpt lat="44.18028" lon="5.28588">
        <ele>1479.4</ele>
        <time>2026-05-14T09:39:34.000Z</time>
      </trkpt>
      <trkpt lat="44.18029" lon="5.28588">
        <ele>1479.8</ele>
        <time>2026-05-14T09:39:35.000Z</time>
      </trkpt>
      <trkpt lat="44.1803" lon="5.28585">
        <ele>1478.7</ele>
        <time>2026-05-14T09:39:36.000Z</time>
      </trkpt>
      <trkpt lat="44.1803" lon="5.28584">
        <ele>1479</ele>
        <time>2026-05-14T09:39:37.000Z</time>
      </trkpt>
      <trkpt lat="44.18031" lon="5.28583">
        <ele>1478.7</ele>
        <time>2026-05-14T09:39:38.000Z</time>
      </trkpt>
      <trkpt lat="44.18031" lon="5.28582">
        <ele>1478.6</ele>
        <time>2026-05-14T09:39:39.000Z</time>
      </trkpt>
      <trkpt lat="44.18031" lon="5.28582">
        <ele>1478.1</ele>
        <time>2026-05-14T09:39:40.000Z</time>
      </trkpt>
      <trkpt lat="44.18031" lon="5.2858">
        <ele>1478</ele>
        <time>2026-05-14T09:39:41.000Z</time>
      </trkpt>
      <trkpt lat="44.18032" lon="5.28579">
        <ele>1478</ele>
        <time>2026-05-14T09:39:42.000Z</time>
      </trkpt>
      <trkpt lat="44.18032" lon="5.28579">
        <ele>1478.6</ele>
        <time>2026-05-14T09:39:43.000Z</time>
      </trkpt>
      <trkpt lat="44.18032" lon="5.28578">
        <ele>1479.3</ele>
        <time>2026-05-14T09:39:44.000Z</time>
      </trkpt>
      <trkpt lat="44.18032" lon="5.28578">
        <ele>1480.6</ele>
        <time>2026-05-14T09:39:45.000Z</time>
      </trkpt>
      <trkpt lat="44.18031" lon="5.28577">
        <ele>1482</ele>
        <time>2026-05-14T09:39:46.000Z</time>
      </trkpt>
      <trkpt lat="44.18031" lon="5.28576">
        <ele>1483.2</ele>
        <time>2026-05-14T09:39:47.000Z</time>
      </trkpt>
      <trkpt lat="44.18031" lon="5.28575">
        <ele>1483.8</ele>
        <time>2026-05-14T09:39:48.000Z</time>
      </trkpt>
      <trkpt lat="44.18031" lon="5.28574">
        <ele>1484.2</ele>
        <time>2026-05-14T09:39:49.000Z</time>
      </trkpt>
      <trkpt lat="44.18031" lon="5.28574">
        <ele>1485.1</ele>
        <time>2026-05-14T09:39:50.000Z</time>
      </trkpt>
      <trkpt lat="44.18031" lon="5.28573">
        <ele>1485.4</ele>
        <time>2026-05-14T09:39:51.000Z</time>
      </trkpt>
      <trkpt lat="44.18031" lon="5.28572">
        <ele>1485.5</ele>
        <time>2026-05-14T09:39:52.000Z</time>
      </trkpt>
      <trkpt lat="44.18031" lon="5.28571">
        <ele>1485.2</ele>
        <time>2026-05-14T09:39:53.000Z</time>
      </trkpt>
      <trkpt lat="44.18033" lon="5.2857">
        <ele>1485.8</ele>
        <time>2026-05-14T09:39:54.000Z</time>
      </trkpt>
      <trkpt lat="44.18033" lon="5.28569">
        <ele>1486.2</ele>
        <time>2026-05-14T09:39:55.000Z</time>
      </trkpt>
      <trkpt lat="44.18033" lon="5.28569">
        <ele>1486.7</ele>
        <time>2026-05-14T09:39:56.000Z</time>
      </trkpt>
      <trkpt lat="44.18033" lon="5.28569">
        <ele>1487.4</ele>
        <time>2026-05-14T09:39:57.000Z</time>
      </trkpt>
      <trkpt lat="44.18034" lon="5.28569">
        <ele>1487.9</ele>
        <time>2026-05-14T09:39:58.000Z</time>
      </trkpt>
      <trkpt lat="44.18033" lon="5.28569">
        <ele>1488.2</ele>
        <time>2026-05-14T09:39:59.000Z</time>
      </trkpt>
      <trkpt lat="44.18033" lon="5.28569">
        <ele>1488.3</ele>
        <time>2026-05-14T09:40:00.000Z</time>
      </trkpt>
      <trkpt lat="44.18033" lon="5.28568">
        <ele>1488.5</ele>
        <time>2026-05-14T09:40:01.000Z</time>
      </trkpt>
      <trkpt lat="44.18034" lon="5.28567">
        <ele>1489</ele>
        <time>2026-05-14T09:40:02.000Z</time>
      </trkpt>
      <trkpt lat="44.18034" lon="5.28567">
        <ele>1489.2</ele>
        <time>2026-05-14T09:40:03.000Z</time>
      </trkpt>
      <trkpt lat="44.18034" lon="5.28567">
        <ele>1490.3</ele>
        <time>2026-05-14T09:40:04.000Z</time>
      </trkpt>
      <trkpt lat="44.18035" lon="5.28565">
        <ele>1490.7</ele>
        <time>2026-05-14T09:40:05.000Z</time>
      </trkpt>
      <trkpt lat="44.18035" lon="5.28564">
        <ele>1491</ele>
        <time>2026-05-14T09:40:06.000Z</time>
      </trkpt>
      <trkpt lat="44.18035" lon="5.28563">
        <ele>1491.4</ele>
        <time>2026-05-14T09:40:07.000Z</time>
      </trkpt>
      <trkpt lat="44.18036" lon="5.28562">
        <ele>1491.5</ele>
        <time>2026-05-14T09:40:08.000Z</time>
      </trkpt>
      <trkpt lat="44.18037" lon="5.28562">
        <ele>1490.9</ele>
        <time>2026-05-14T09:40:09.000Z</time>
      </trkpt>
      <trkpt lat="44.18037" lon="5.28561">
        <ele>1490.7</ele>
        <time>2026-05-14T09:40:10.000Z</time>
      </trkpt>
      <trkpt lat="44.18038" lon="5.2856">
        <ele>1490.9</ele>
        <time>2026-05-14T09:40:11.000Z</time>
      </trkpt>
      <trkpt lat="44.18038" lon="5.28559">
        <ele>1491.1</ele>
        <time>2026-05-14T09:40:12.000Z</time>
      </trkpt>
      <trkpt lat="44.18039" lon="5.28557">
        <ele>1492.1</ele>
        <time>2026-05-14T09:40:13.000Z</time>
      </trkpt>
      <trkpt lat="44.18039" lon="5.28556">
        <ele>1492.5</ele>
        <time>2026-05-14T09:40:14.000Z</time>
      </trkpt>
      <trkpt lat="44.18039" lon="5.28555">
        <ele>1492.7</ele>
        <time>2026-05-14T09:40:15.000Z</time>
      </trkpt>
      <trkpt lat="44.18038" lon="5.28554">
        <ele>1492.9</ele>
        <time>2026-05-14T09:40:16.000Z</time>
      </trkpt>
      <trkpt lat="44.18038" lon="5.28553">
        <ele>1492.9</ele>
        <time>2026-05-14T09:40:17.000Z</time>
      </trkpt>
      <trkpt lat="44.18038" lon="5.28553">
        <ele>1492.9</ele>
        <time>2026-05-14T09:40:18.000Z</time>
      </trkpt>
      <trkpt lat="44.18038" lon="5.28552">
        <ele>1493</ele>
        <time>2026-05-14T09:40:19.000Z</time>
      </trkpt>
      <trkpt lat="44.18037" lon="5.28552">
        <ele>1493.2</ele>
        <time>2026-05-14T09:40:20.000Z</time>
      </trkpt>
      <trkpt lat="44.18037" lon="5.28552">
        <ele>1493.3</ele>
        <time>2026-05-14T09:40:21.000Z</time>
      </trkpt>
      <trkpt lat="44.18037" lon="5.28551">
        <ele>1493.5</ele>
        <time>2026-05-14T09:40:22.000Z</time>
      </trkpt>
      <trkpt lat="44.18037" lon="5.2855">
        <ele>1494</ele>
        <time>2026-05-14T09:40:23.000Z</time>
      </trkpt>
      <trkpt lat="44.18037" lon="5.28549">
        <ele>1495.1</ele>
        <time>2026-05-14T09:40:24.000Z</time>
      </trkpt>
      <trkpt lat="44.18038" lon="5.28548">
        <ele>1496.6</ele>
        <time>2026-05-14T09:40:25.000Z</time>
      </trkpt>
      <trkpt lat="44.18038" lon="5.28548">
        <ele>1497.3</ele>
        <time>2026-05-14T09:40:26.000Z</time>
      </trkpt>
      <trkpt lat="44.18039" lon="5.28547">
        <ele>1497.7</ele>
        <time>2026-05-14T09:40:27.000Z</time>
      </trkpt>
      <trkpt lat="44.18039" lon="5.28547">
        <ele>1498</ele>
        <time>2026-05-14T09:40:28.000Z</time>
      </trkpt>
      <trkpt lat="44.18039" lon="5.28548">
        <ele>1498.4</ele>
        <time>2026-05-14T09:40:29.000Z</time>
      </trkpt>
      <trkpt lat="44.18039" lon="5.28547">
        <ele>1498.3</ele>
        <time>2026-05-14T09:40:30.000Z</time>
      </trkpt>
      <trkpt lat="44.18039" lon="5.28547">
        <ele>1498.3</ele>
        <time>2026-05-14T09:40:31.000Z</time>
      </trkpt>
      <trkpt lat="44.1804" lon="5.28547">
        <ele>1498.5</ele>
        <time>2026-05-14T09:40:32.000Z</time>
      </trkpt>
      <trkpt lat="44.1804" lon="5.28546">
        <ele>1498.9</ele>
        <time>2026-05-14T09:40:33.000Z</time>
      </trkpt>
      <trkpt lat="44.1804" lon="5.28545">
        <ele>1499.5</ele>
        <time>2026-05-14T09:40:34.000Z</time>
      </trkpt>
      <trkpt lat="44.18041" lon="5.28543">
        <ele>1499.7</ele>
        <time>2026-05-14T09:40:35.000Z</time>
      </trkpt>
      <trkpt lat="44.18041" lon="5.28543">
        <ele>1500.7</ele>
        <time>2026-05-14T09:40:36.000Z</time>
      </trkpt>
      <trkpt lat="44.18041" lon="5.28541">
        <ele>1501</ele>
        <time>2026-05-14T09:40:37.000Z</time>
      </trkpt>
      <trkpt lat="44.18041" lon="5.28539">
        <ele>1501.4</ele>
        <time>2026-05-14T09:40:38.000Z</time>
      </trkpt>
      <trkpt lat="44.18042" lon="5.28537">
        <ele>1501.5</ele>
        <time>2026-05-14T09:40:39.000Z</time>
      </trkpt>
      <trkpt lat="44.18042" lon="5.28535">
        <ele>1501.4</ele>
        <time>2026-05-14T09:40:40.000Z</time>
      </trkpt>
      <trkpt lat="44.18043" lon="5.28534">
        <ele>1502</ele>
        <time>2026-05-14T09:40:41.000Z</time>
      </trkpt>
      <trkpt lat="44.18043" lon="5.28532">
        <ele>1502</ele>
        <time>2026-05-14T09:40:42.000Z</time>
      </trkpt>
      <trkpt lat="44.18043" lon="5.28531">
        <ele>1501.6</ele>
        <time>2026-05-14T09:40:43.000Z</time>
      </trkpt>
      <trkpt lat="44.18044" lon="5.2853">
        <ele>1501.6</ele>
        <time>2026-05-14T09:40:44.000Z</time>
      </trkpt>
      <trkpt lat="44.18043" lon="5.2853">
        <ele>1501.8</ele>
        <time>2026-05-14T09:40:45.000Z</time>
      </trkpt>
      <trkpt lat="44.18044" lon="5.2853">
        <ele>1502.1</ele>
        <time>2026-05-14T09:40:46.000Z</time>
      </trkpt>
      <trkpt lat="44.18045" lon="5.28529">
        <ele>1501.9</ele>
        <time>2026-05-14T09:40:47.000Z</time>
      </trkpt>
      <trkpt lat="44.18045" lon="5.28528">
        <ele>1501.7</ele>
        <time>2026-05-14T09:40:48.000Z</time>
      </trkpt>
      <trkpt lat="44.18045" lon="5.28528">
        <ele>1501.4</ele>
        <time>2026-05-14T09:40:49.000Z</time>
      </trkpt>
      <trkpt lat="44.18047" lon="5.28527">
        <ele>1501.5</ele>
        <time>2026-05-14T09:40:50.000Z</time>
      </trkpt>
      <trkpt lat="44.18047" lon="5.28526">
        <ele>1502.3</ele>
        <time>2026-05-14T09:40:51.000Z</time>
      </trkpt>
      <trkpt lat="44.18048" lon="5.28526">
        <ele>1503</ele>
        <time>2026-05-14T09:40:52.000Z</time>
      </trkpt>
      <trkpt lat="44.1805" lon="5.28525">
        <ele>1503.5</ele>
        <time>2026-05-14T09:40:53.000Z</time>
      </trkpt>
      <trkpt lat="44.18051" lon="5.28524">
        <ele>1504</ele>
        <time>2026-05-14T09:40:54.000Z</time>
      </trkpt>
      <trkpt lat="44.18052" lon="5.28522">
        <ele>1504.5</ele>
        <time>2026-05-14T09:40:55.000Z</time>
      </trkpt>
      <trkpt lat="44.18054" lon="5.28521">
        <ele>1506.7</ele>
        <time>2026-05-14T09:40:56.000Z</time>
      </trkpt>
      <trkpt lat="44.18056" lon="5.28521">
        <ele>1508.4</ele>
        <time>2026-05-14T09:40:57.000Z</time>
      </trkpt>
      <trkpt lat="44.18056" lon="5.2852">
        <ele>1509.1</ele>
        <time>2026-05-14T09:40:58.000Z</time>
      </trkpt>
      <trkpt lat="44.18057" lon="5.28518">
        <ele>1509.6</ele>
        <time>2026-05-14T09:40:59.000Z</time>
      </trkpt>
      <trkpt lat="44.18057" lon="5.28516">
        <ele>1510</ele>
        <time>2026-05-14T09:41:00.000Z</time>
      </trkpt>
      <trkpt lat="44.18058" lon="5.28514">
        <ele>1510.7</ele>
        <time>2026-05-14T09:41:01.000Z</time>
      </trkpt>
      <trkpt lat="44.18059" lon="5.28512">
        <ele>1511.2</ele>
        <time>2026-05-14T09:41:02.000Z</time>
      </trkpt>
      <trkpt lat="44.18061" lon="5.2851">
        <ele>1511.1</ele>
        <time>2026-05-14T09:41:03.000Z</time>
      </trkpt>
      <trkpt lat="44.18062" lon="5.28509">
        <ele>1510.7</ele>
        <time>2026-05-14T09:41:04.000Z</time>
      </trkpt>
      <trkpt lat="44.18062" lon="5.28508">
        <ele>1510.8</ele>
        <time>2026-05-14T09:41:05.000Z</time>
      </trkpt>
      <trkpt lat="44.18063" lon="5.28508">
        <ele>1511.3</ele>
        <time>2026-05-14T09:41:06.000Z</time>
      </trkpt>
      <trkpt lat="44.18063" lon="5.28508">
        <ele>1511.9</ele>
        <time>2026-05-14T09:41:07.000Z</time>
      </trkpt>
      <trkpt lat="44.18064" lon="5.28508">
        <ele>1512</ele>
        <time>2026-05-14T09:41:08.000Z</time>
      </trkpt>
      <trkpt lat="44.18065" lon="5.28507">
        <ele>1512.1</ele>
        <time>2026-05-14T09:41:09.000Z</time>
      </trkpt>
      <trkpt lat="44.18065" lon="5.28506">
        <ele>1512.5</ele>
        <time>2026-05-14T09:41:10.000Z</time>
      </trkpt>
      <trkpt lat="44.18065" lon="5.28507">
        <ele>1512.9</ele>
        <time>2026-05-14T09:41:11.000Z</time>
      </trkpt>
      <trkpt lat="44.18066" lon="5.28506">
        <ele>1513.2</ele>
        <time>2026-05-14T09:41:12.000Z</time>
      </trkpt>
      <trkpt lat="44.18066" lon="5.28505">
        <ele>1513.5</ele>
        <time>2026-05-14T09:41:13.000Z</time>
      </trkpt>
      <trkpt lat="44.18066" lon="5.28504">
        <ele>1513.5</ele>
        <time>2026-05-14T09:41:14.000Z</time>
      </trkpt>
      <trkpt lat="44.18067" lon="5.28502">
        <ele>1513.6</ele>
        <time>2026-05-14T09:41:15.000Z</time>
      </trkpt>
      <trkpt lat="44.18067" lon="5.28501">
        <ele>1514.1</ele>
        <time>2026-05-14T09:41:16.000Z</time>
      </trkpt>
      <trkpt lat="44.18067" lon="5.285">
        <ele>1513.9</ele>
        <time>2026-05-14T09:41:17.000Z</time>
      </trkpt>
      <trkpt lat="44.18068" lon="5.28498">
        <ele>1513.8</ele>
        <time>2026-05-14T09:41:18.000Z</time>
      </trkpt>
      <trkpt lat="44.18068" lon="5.28496">
        <ele>1513.4</ele>
        <time>2026-05-14T09:41:19.000Z</time>
      </trkpt>
      <trkpt lat="44.18068" lon="5.28495">
        <ele>1513.5</ele>
        <time>2026-05-14T09:41:20.000Z</time>
      </trkpt>
      <trkpt lat="44.18068" lon="5.28494">
        <ele>1513.7</ele>
        <time>2026-05-14T09:41:21.000Z</time>
      </trkpt>
      <trkpt lat="44.18069" lon="5.28493">
        <ele>1514.2</ele>
        <time>2026-05-14T09:41:22.000Z</time>
      </trkpt>
      <trkpt lat="44.18069" lon="5.28491">
        <ele>1514.4</ele>
        <time>2026-05-14T09:41:23.000Z</time>
      </trkpt>
      <trkpt lat="44.1807" lon="5.28489">
        <ele>1514.5</ele>
        <time>2026-05-14T09:41:24.000Z</time>
      </trkpt>
      <trkpt lat="44.18071" lon="5.28487">
        <ele>1514.4</ele>
        <time>2026-05-14T09:41:25.000Z</time>
      </trkpt>
      <trkpt lat="44.18072" lon="5.28486">
        <ele>1514.4</ele>
        <time>2026-05-14T09:41:26.000Z</time>
      </trkpt>
      <trkpt lat="44.18073" lon="5.28484">
        <ele>1514.9</ele>
        <time>2026-05-14T09:41:27.000Z</time>
      </trkpt>
      <trkpt lat="44.18073" lon="5.28483">
        <ele>1515.8</ele>
        <time>2026-05-14T09:41:28.000Z</time>
      </trkpt>
      <trkpt lat="44.18074" lon="5.28482">
        <ele>1516.9</ele>
        <time>2026-05-14T09:41:29.000Z</time>
      </trkpt>
      <trkpt lat="44.18075" lon="5.28481">
        <ele>1517.4</ele>
        <time>2026-05-14T09:41:30.000Z</time>
      </trkpt>
      <trkpt lat="44.18075" lon="5.2848">
        <ele>1517.2</ele>
        <time>2026-05-14T09:41:31.000Z</time>
      </trkpt>
      <trkpt lat="44.18075" lon="5.28478">
        <ele>1517.1</ele>
        <time>2026-05-14T09:41:32.000Z</time>
      </trkpt>
      <trkpt lat="44.18075" lon="5.28477">
        <ele>1517.4</ele>
        <time>2026-05-14T09:41:33.000Z</time>
      </trkpt>
      <trkpt lat="44.18075" lon="5.28476">
        <ele>1517.7</ele>
        <time>2026-05-14T09:41:34.000Z</time>
      </trkpt>
      <trkpt lat="44.18076" lon="5.28475">
        <ele>1517.8</ele>
        <time>2026-05-14T09:41:35.000Z</time>
      </trkpt>
      <trkpt lat="44.18076" lon="5.28473">
        <ele>1517.8</ele>
        <time>2026-05-14T09:41:36.000Z</time>
      </trkpt>
      <trkpt lat="44.18077" lon="5.28472">
        <ele>1517.5</ele>
        <time>2026-05-14T09:41:37.000Z</time>
      </trkpt>
      <trkpt lat="44.18078" lon="5.28471">
        <ele>1517.5</ele>
        <time>2026-05-14T09:41:38.000Z</time>
      </trkpt>
      <trkpt lat="44.1808" lon="5.28469">
        <ele>1517.8</ele>
        <time>2026-05-14T09:41:39.000Z</time>
      </trkpt>
      <trkpt lat="44.1808" lon="5.28469">
        <ele>1517.5</ele>
        <time>2026-05-14T09:41:40.000Z</time>
      </trkpt>
      <trkpt lat="44.18081" lon="5.28468">
        <ele>1517.1</ele>
        <time>2026-05-14T09:41:41.000Z</time>
      </trkpt>
      <trkpt lat="44.1808" lon="5.28467">
        <ele>1516.3</ele>
        <time>2026-05-14T09:41:42.000Z</time>
      </trkpt>
      <trkpt lat="44.1808" lon="5.28466">
        <ele>1516.2</ele>
        <time>2026-05-14T09:41:43.000Z</time>
      </trkpt>
      <trkpt lat="44.1808" lon="5.28465">
        <ele>1515.7</ele>
        <time>2026-05-14T09:41:44.000Z</time>
      </trkpt>
      <trkpt lat="44.1808" lon="5.28464">
        <ele>1516.9</ele>
        <time>2026-05-14T09:41:45.000Z</time>
      </trkpt>
      <trkpt lat="44.18079" lon="5.28463">
        <ele>1517.8</ele>
        <time>2026-05-14T09:41:46.000Z</time>
      </trkpt>
      <trkpt lat="44.18078" lon="5.28461">
        <ele>1518</ele>
        <time>2026-05-14T09:41:47.000Z</time>
      </trkpt>
      <trkpt lat="44.18079" lon="5.2846">
        <ele>1518.1</ele>
        <time>2026-05-14T09:41:48.000Z</time>
      </trkpt>
      <trkpt lat="44.18079" lon="5.28458">
        <ele>1518.3</ele>
        <time>2026-05-14T09:41:49.000Z</time>
      </trkpt>
      <trkpt lat="44.1808" lon="5.28457">
        <ele>1518.1</ele>
        <time>2026-05-14T09:41:50.000Z</time>
      </trkpt>
      <trkpt lat="44.1808" lon="5.28456">
        <ele>1518.3</ele>
        <time>2026-05-14T09:41:51.000Z</time>
      </trkpt>
      <trkpt lat="44.1808" lon="5.28455">
        <ele>1518.8</ele>
        <time>2026-05-14T09:41:52.000Z</time>
      </trkpt>
      <trkpt lat="44.1808" lon="5.28454">
        <ele>1519</ele>
        <time>2026-05-14T09:41:53.000Z</time>
      </trkpt>
      <trkpt lat="44.18081" lon="5.28453">
        <ele>1519.3</ele>
        <time>2026-05-14T09:41:54.000Z</time>
      </trkpt>
      <trkpt lat="44.18081" lon="5.28452">
        <ele>1519.7</ele>
        <time>2026-05-14T09:41:55.000Z</time>
      </trkpt>
      <trkpt lat="44.18082" lon="5.2845">
        <ele>1519.5</ele>
        <time>2026-05-14T09:41:56.000Z</time>
      </trkpt>
      <trkpt lat="44.18082" lon="5.28449">
        <ele>1520</ele>
        <time>2026-05-14T09:41:57.000Z</time>
      </trkpt>
      <trkpt lat="44.18083" lon="5.28447">
        <ele>1519.7</ele>
        <time>2026-05-14T09:41:58.000Z</time>
      </trkpt>
      <trkpt lat="44.18084" lon="5.28445">
        <ele>1519.6</ele>
        <time>2026-05-14T09:41:59.000Z</time>
      </trkpt>
      <trkpt lat="44.18084" lon="5.28443">
        <ele>1519.2</ele>
        <time>2026-05-14T09:42:00.000Z</time>
      </trkpt>
      <trkpt lat="44.18085" lon="5.28442">
        <ele>1520.6</ele>
        <time>2026-05-14T09:42:01.000Z</time>
      </trkpt>
      <trkpt lat="44.18086" lon="5.2844">
        <ele>1520.8</ele>
        <time>2026-05-14T09:42:02.000Z</time>
      </trkpt>
      <trkpt lat="44.18086" lon="5.28439">
        <ele>1521.8</ele>
        <time>2026-05-14T09:42:03.000Z</time>
      </trkpt>
      <trkpt lat="44.18086" lon="5.28438">
        <ele>1522.1</ele>
        <time>2026-05-14T09:42:04.000Z</time>
      </trkpt>
      <trkpt lat="44.18086" lon="5.28437">
        <ele>1523.1</ele>
        <time>2026-05-14T09:42:05.000Z</time>
      </trkpt>
      <trkpt lat="44.18086" lon="5.28435">
        <ele>1523.5</ele>
        <time>2026-05-14T09:42:06.000Z</time>
      </trkpt>
      <trkpt lat="44.18086" lon="5.28434">
        <ele>1524.2</ele>
        <time>2026-05-14T09:42:07.000Z</time>
      </trkpt>
      <trkpt lat="44.18086" lon="5.28432">
        <ele>1524.1</ele>
        <time>2026-05-14T09:42:08.000Z</time>
      </trkpt>
      <trkpt lat="44.18086" lon="5.28432">
        <ele>1525.1</ele>
        <time>2026-05-14T09:42:09.000Z</time>
      </trkpt>
      <trkpt lat="44.18086" lon="5.2843">
        <ele>1524.5</ele>
        <time>2026-05-14T09:42:10.000Z</time>
      </trkpt>
      <trkpt lat="44.18087" lon="5.28429">
        <ele>1524.3</ele>
        <time>2026-05-14T09:42:11.000Z</time>
      </trkpt>
      <trkpt lat="44.18088" lon="5.28427">
        <ele>1524.1</ele>
        <time>2026-05-14T09:42:12.000Z</time>
      </trkpt>
      <trkpt lat="44.18089" lon="5.28426">
        <ele>1523.8</ele>
        <time>2026-05-14T09:42:13.000Z</time>
      </trkpt>
      <trkpt lat="44.18089" lon="5.28425">
        <ele>1525.1</ele>
        <time>2026-05-14T09:42:14.000Z</time>
      </trkpt>
      <trkpt lat="44.18089" lon="5.28426">
        <ele>1525.3</ele>
        <time>2026-05-14T09:42:15.000Z</time>
      </trkpt>
      <trkpt lat="44.18089" lon="5.28424">
        <ele>1525.1</ele>
        <time>2026-05-14T09:42:16.000Z</time>
      </trkpt>
      <trkpt lat="44.18089" lon="5.28423">
        <ele>1524.7</ele>
        <time>2026-05-14T09:42:17.000Z</time>
      </trkpt>
      <trkpt lat="44.18089" lon="5.28422">
        <ele>1524.6</ele>
        <time>2026-05-14T09:42:18.000Z</time>
      </trkpt>
      <trkpt lat="44.1809" lon="5.2842">
        <ele>1524.7</ele>
        <time>2026-05-14T09:42:19.000Z</time>
      </trkpt>
      <trkpt lat="44.1809" lon="5.28419">
        <ele>1524.7</ele>
        <time>2026-05-14T09:42:20.000Z</time>
      </trkpt>
      <trkpt lat="44.1809" lon="5.28417">
        <ele>1525.4</ele>
        <time>2026-05-14T09:42:21.000Z</time>
      </trkpt>
      <trkpt lat="44.18091" lon="5.28415">
        <ele>1525.7</ele>
        <time>2026-05-14T09:42:22.000Z</time>
      </trkpt>
      <trkpt lat="44.18091" lon="5.28413">
        <ele>1525.5</ele>
        <time>2026-05-14T09:42:23.000Z</time>
      </trkpt>
      <trkpt lat="44.18091" lon="5.28411">
        <ele>1525.6</ele>
        <time>2026-05-14T09:42:24.000Z</time>
      </trkpt>
      <trkpt lat="44.18091" lon="5.2841">
        <ele>1525.6</ele>
        <time>2026-05-14T09:42:25.000Z</time>
      </trkpt>
      <trkpt lat="44.18092" lon="5.28409">
        <ele>1526</ele>
        <time>2026-05-14T09:42:26.000Z</time>
      </trkpt>
      <trkpt lat="44.18092" lon="5.28408">
        <ele>1525.8</ele>
        <time>2026-05-14T09:42:27.000Z</time>
      </trkpt>
      <trkpt lat="44.18091" lon="5.28408">
        <ele>1525.9</ele>
        <time>2026-05-14T09:42:28.000Z</time>
      </trkpt>
      <trkpt lat="44.18091" lon="5.28408">
        <ele>1526</ele>
        <time>2026-05-14T09:42:29.000Z</time>
      </trkpt>
      <trkpt lat="44.18091" lon="5.28407">
        <ele>1526.3</ele>
        <time>2026-05-14T09:42:30.000Z</time>
      </trkpt>
      <trkpt lat="44.18091" lon="5.28405">
        <ele>1525.7</ele>
        <time>2026-05-14T09:42:31.000Z</time>
      </trkpt>
      <trkpt lat="44.18091" lon="5.28403">
        <ele>1526.1</ele>
        <time>2026-05-14T09:42:32.000Z</time>
      </trkpt>
      <trkpt lat="44.18092" lon="5.28401">
        <ele>1526.2</ele>
        <time>2026-05-14T09:42:33.000Z</time>
      </trkpt>
      <trkpt lat="44.18092" lon="5.284">
        <ele>1526.4</ele>
        <time>2026-05-14T09:42:34.000Z</time>
      </trkpt>
      <trkpt lat="44.18092" lon="5.28399">
        <ele>1526.6</ele>
        <time>2026-05-14T09:42:35.000Z</time>
      </trkpt>
      <trkpt lat="44.18092" lon="5.28398">
        <ele>1527.3</ele>
        <time>2026-05-14T09:42:36.000Z</time>
      </trkpt>
      <trkpt lat="44.18091" lon="5.28396">
        <ele>1527.9</ele>
        <time>2026-05-14T09:42:37.000Z</time>
      </trkpt>
      <trkpt lat="44.18092" lon="5.28395">
        <ele>1527.9</ele>
        <time>2026-05-14T09:42:38.000Z</time>
      </trkpt>
      <trkpt lat="44.18091" lon="5.28393">
        <ele>1527.8</ele>
        <time>2026-05-14T09:42:39.000Z</time>
      </trkpt>
      <trkpt lat="44.18091" lon="5.28391">
        <ele>1527.8</ele>
        <time>2026-05-14T09:42:40.000Z</time>
      </trkpt>
      <trkpt lat="44.18091" lon="5.2839">
        <ele>1527.8</ele>
        <time>2026-05-14T09:42:41.000Z</time>
      </trkpt>
      <trkpt lat="44.18092" lon="5.28389">
        <ele>1527.9</ele>
        <time>2026-05-14T09:42:42.000Z</time>
      </trkpt>
      <trkpt lat="44.18092" lon="5.28388">
        <ele>1527.8</ele>
        <time>2026-05-14T09:42:43.000Z</time>
      </trkpt>
      <trkpt lat="44.18092" lon="5.28386">
        <ele>1527.6</ele>
        <time>2026-05-14T09:42:44.000Z</time>
      </trkpt>
      <trkpt lat="44.18093" lon="5.28385">
        <ele>1528.1</ele>
        <time>2026-05-14T09:42:45.000Z</time>
      </trkpt>
      <trkpt lat="44.18093" lon="5.28385">
        <ele>1528.1</ele>
        <time>2026-05-14T09:42:46.000Z</time>
      </trkpt>
      <trkpt lat="44.18093" lon="5.28385">
        <ele>1529.1</ele>
        <time>2026-05-14T09:42:47.000Z</time>
      </trkpt>
      <trkpt lat="44.18093" lon="5.28385">
        <ele>1530.6</ele>
        <time>2026-05-14T09:42:48.000Z</time>
      </trkpt>
      <trkpt lat="44.18094" lon="5.28384">
        <ele>1531.6</ele>
        <time>2026-05-14T09:42:49.000Z</time>
      </trkpt>
      <trkpt lat="44.18095" lon="5.28384">
        <ele>1532.2</ele>
        <time>2026-05-14T09:42:50.000Z</time>
      </trkpt>
      <trkpt lat="44.18094" lon="5.28383">
        <ele>1532.9</ele>
        <time>2026-05-14T09:42:51.000Z</time>
      </trkpt>
      <trkpt lat="44.18094" lon="5.28382">
        <ele>1533.1</ele>
        <time>2026-05-14T09:42:52.000Z</time>
      </trkpt>
      <trkpt lat="44.18094" lon="5.2838">
        <ele>1533.8</ele>
        <time>2026-05-14T09:42:53.000Z</time>
      </trkpt>
      <trkpt lat="44.18095" lon="5.28377">
        <ele>1534.4</ele>
        <time>2026-05-14T09:42:54.000Z</time>
      </trkpt>
      <trkpt lat="44.18095" lon="5.28375">
        <ele>1534.8</ele>
        <time>2026-05-14T09:42:55.000Z</time>
      </trkpt>
      <trkpt lat="44.18095" lon="5.28373">
        <ele>1534.9</ele>
        <time>2026-05-14T09:42:56.000Z</time>
      </trkpt>
      <trkpt lat="44.18096" lon="5.28371">
        <ele>1535.3</ele>
        <time>2026-05-14T09:42:57.000Z</time>
      </trkpt>
      <trkpt lat="44.18097" lon="5.28371">
        <ele>1536.3</ele>
        <time>2026-05-14T09:42:58.000Z</time>
      </trkpt>
      <trkpt lat="44.18096" lon="5.2837">
        <ele>1536.6</ele>
        <time>2026-05-14T09:42:59.000Z</time>
      </trkpt>
      <trkpt lat="44.18097" lon="5.28369">
        <ele>1536.9</ele>
        <time>2026-05-14T09:43:00.000Z</time>
      </trkpt>
      <trkpt lat="44.18098" lon="5.28368">
        <ele>1536.8</ele>
        <time>2026-05-14T09:43:01.000Z</time>
      </trkpt>
      <trkpt lat="44.18098" lon="5.28366">
        <ele>1536.6</ele>
        <time>2026-05-14T09:43:02.000Z</time>
      </trkpt>
      <trkpt lat="44.18098" lon="5.28363">
        <ele>1536.4</ele>
        <time>2026-05-14T09:43:03.000Z</time>
      </trkpt>
      <trkpt lat="44.18098" lon="5.28362">
        <ele>1536.2</ele>
        <time>2026-05-14T09:43:04.000Z</time>
      </trkpt>
      <trkpt lat="44.18098" lon="5.2836">
        <ele>1536.4</ele>
        <time>2026-05-14T09:43:05.000Z</time>
      </trkpt>
      <trkpt lat="44.18098" lon="5.28359">
        <ele>1536.6</ele>
        <time>2026-05-14T09:43:06.000Z</time>
      </trkpt>
      <trkpt lat="44.18098" lon="5.28358">
        <ele>1536.5</ele>
        <time>2026-05-14T09:43:07.000Z</time>
      </trkpt>
      <trkpt lat="44.18098" lon="5.28357">
        <ele>1536.4</ele>
        <time>2026-05-14T09:43:08.000Z</time>
      </trkpt>
      <trkpt lat="44.18098" lon="5.28357">
        <ele>1537.6</ele>
        <time>2026-05-14T09:43:09.000Z</time>
      </trkpt>
      <trkpt lat="44.18098" lon="5.28356">
        <ele>1538.8</ele>
        <time>2026-05-14T09:43:10.000Z</time>
      </trkpt>
      <trkpt lat="44.18098" lon="5.28354">
        <ele>1539.2</ele>
        <time>2026-05-14T09:43:11.000Z</time>
      </trkpt>
      <trkpt lat="44.18099" lon="5.28352">
        <ele>1539.8</ele>
        <time>2026-05-14T09:43:12.000Z</time>
      </trkpt>
      <trkpt lat="44.18099" lon="5.28351">
        <ele>1540.4</ele>
        <time>2026-05-14T09:43:13.000Z</time>
      </trkpt>
      <trkpt lat="44.18099" lon="5.28348">
        <ele>1540.5</ele>
        <time>2026-05-14T09:43:14.000Z</time>
      </trkpt>
      <trkpt lat="44.18099" lon="5.28346">
        <ele>1540.3</ele>
        <time>2026-05-14T09:43:15.000Z</time>
      </trkpt>
      <trkpt lat="44.18099" lon="5.28344">
        <ele>1540.6</ele>
        <time>2026-05-14T09:43:16.000Z</time>
      </trkpt>
      <trkpt lat="44.18099" lon="5.28343">
        <ele>1540.6</ele>
        <time>2026-05-14T09:43:17.000Z</time>
      </trkpt>
      <trkpt lat="44.18099" lon="5.28341">
        <ele>1540.6</ele>
        <time>2026-05-14T09:43:18.000Z</time>
      </trkpt>
      <trkpt lat="44.18099" lon="5.2834">
        <ele>1539.9</ele>
        <time>2026-05-14T09:43:19.000Z</time>
      </trkpt>
      <trkpt lat="44.181" lon="5.28337">
        <ele>1539.5</ele>
        <time>2026-05-14T09:43:20.000Z</time>
      </trkpt>
      <trkpt lat="44.181" lon="5.28336">
        <ele>1539.4</ele>
        <time>2026-05-14T09:43:21.000Z</time>
      </trkpt>
      <trkpt lat="44.181" lon="5.28335">
        <ele>1539</ele>
        <time>2026-05-14T09:43:22.000Z</time>
      </trkpt>
      <trkpt lat="44.18101" lon="5.28334">
        <ele>1539.1</ele>
        <time>2026-05-14T09:43:23.000Z</time>
      </trkpt>
      <trkpt lat="44.18102" lon="5.28333">
        <ele>1539.1</ele>
        <time>2026-05-14T09:43:24.000Z</time>
      </trkpt>
      <trkpt lat="44.18103" lon="5.28332">
        <ele>1539.1</ele>
        <time>2026-05-14T09:43:25.000Z</time>
      </trkpt>
      <trkpt lat="44.18103" lon="5.28331">
        <ele>1538.5</ele>
        <time>2026-05-14T09:43:26.000Z</time>
      </trkpt>
      <trkpt lat="44.18103" lon="5.28329">
        <ele>1539</ele>
        <time>2026-05-14T09:43:27.000Z</time>
      </trkpt>
      <trkpt lat="44.18103" lon="5.28328">
        <ele>1539</ele>
        <time>2026-05-14T09:43:28.000Z</time>
      </trkpt>
      <trkpt lat="44.18103" lon="5.28328">
        <ele>1539.2</ele>
        <time>2026-05-14T09:43:29.000Z</time>
      </trkpt>
      <trkpt lat="44.18104" lon="5.28327">
        <ele>1539.5</ele>
        <time>2026-05-14T09:43:30.000Z</time>
      </trkpt>
      <trkpt lat="44.18104" lon="5.28326">
        <ele>1539.4</ele>
        <time>2026-05-14T09:43:31.000Z</time>
      </trkpt>
      <trkpt lat="44.18104" lon="5.28325">
        <ele>1539.3</ele>
        <time>2026-05-14T09:43:32.000Z</time>
      </trkpt>
      <trkpt lat="44.18104" lon="5.28324">
        <ele>1538.9</ele>
        <time>2026-05-14T09:43:33.000Z</time>
      </trkpt>
      <trkpt lat="44.18103" lon="5.28323">
        <ele>1538.9</ele>
        <time>2026-05-14T09:43:34.000Z</time>
      </trkpt>
      <trkpt lat="44.18103" lon="5.28322">
        <ele>1539.1</ele>
        <time>2026-05-14T09:43:35.000Z</time>
      </trkpt>
      <trkpt lat="44.18103" lon="5.28321">
        <ele>1539</ele>
        <time>2026-05-14T09:43:36.000Z</time>
      </trkpt>
      <trkpt lat="44.18103" lon="5.28319">
        <ele>1539.4</ele>
        <time>2026-05-14T09:43:37.000Z</time>
      </trkpt>
      <trkpt lat="44.18103" lon="5.28318">
        <ele>1539.3</ele>
        <time>2026-05-14T09:43:38.000Z</time>
      </trkpt>
      <trkpt lat="44.18103" lon="5.28316">
        <ele>1539.6</ele>
        <time>2026-05-14T09:43:39.000Z</time>
      </trkpt>
      <trkpt lat="44.18102" lon="5.28314">
        <ele>1539.3</ele>
        <time>2026-05-14T09:43:40.000Z</time>
      </trkpt>
      <trkpt lat="44.18101" lon="5.28313">
        <ele>1539.1</ele>
        <time>2026-05-14T09:43:41.000Z</time>
      </trkpt>
      <trkpt lat="44.18101" lon="5.28313">
        <ele>1539.2</ele>
        <time>2026-05-14T09:43:42.000Z</time>
      </trkpt>
      <trkpt lat="44.18101" lon="5.28312">
        <ele>1539.4</ele>
        <time>2026-05-14T09:43:43.000Z</time>
      </trkpt>
      <trkpt lat="44.181" lon="5.28311">
        <ele>1539.6</ele>
        <time>2026-05-14T09:43:44.000Z</time>
      </trkpt>
      <trkpt lat="44.181" lon="5.28309">
        <ele>1539.5</ele>
        <time>2026-05-14T09:43:45.000Z</time>
      </trkpt>
      <trkpt lat="44.181" lon="5.28308">
        <ele>1539.3</ele>
        <time>2026-05-14T09:43:46.000Z</time>
      </trkpt>
      <trkpt lat="44.181" lon="5.28307">
        <ele>1538.9</ele>
        <time>2026-05-14T09:43:47.000Z</time>
      </trkpt>
      <trkpt lat="44.181" lon="5.28305">
        <ele>1538.8</ele>
        <time>2026-05-14T09:43:48.000Z</time>
      </trkpt>
      <trkpt lat="44.181" lon="5.28303">
        <ele>1538.5</ele>
        <time>2026-05-14T09:43:49.000Z</time>
      </trkpt>
      <trkpt lat="44.181" lon="5.28302">
        <ele>1538.4</ele>
        <time>2026-05-14T09:43:50.000Z</time>
      </trkpt>
      <trkpt lat="44.181" lon="5.283">
        <ele>1539.1</ele>
        <time>2026-05-14T09:43:51.000Z</time>
      </trkpt>
      <trkpt lat="44.181" lon="5.28299">
        <ele>1539.2</ele>
        <time>2026-05-14T09:43:52.000Z</time>
      </trkpt>
      <trkpt lat="44.18099" lon="5.28299">
        <ele>1539.3</ele>
        <time>2026-05-14T09:43:53.000Z</time>
      </trkpt>
      <trkpt lat="44.18099" lon="5.28298">
        <ele>1538.8</ele>
        <time>2026-05-14T09:43:54.000Z</time>
      </trkpt>
      <trkpt lat="44.18098" lon="5.28298">
        <ele>1538.6</ele>
        <time>2026-05-14T09:43:55.000Z</time>
      </trkpt>
      <trkpt lat="44.18097" lon="5.28296">
        <ele>1537.9</ele>
        <time>2026-05-14T09:43:56.000Z</time>
      </trkpt>
      <trkpt lat="44.18097" lon="5.28295">
        <ele>1538</ele>
        <time>2026-05-14T09:43:57.000Z</time>
      </trkpt>
      <trkpt lat="44.18096" lon="5.28294">
        <ele>1537.7</ele>
        <time>2026-05-14T09:43:58.000Z</time>
      </trkpt>
      <trkpt lat="44.18096" lon="5.28293">
        <ele>1536.9</ele>
        <time>2026-05-14T09:43:59.000Z</time>
      </trkpt>
      <trkpt lat="44.18095" lon="5.28292">
        <ele>1536.1</ele>
        <time>2026-05-14T09:44:00.000Z</time>
      </trkpt>
      <trkpt lat="44.18094" lon="5.28292">
        <ele>1536.5</ele>
        <time>2026-05-14T09:44:01.000Z</time>
      </trkpt>
      <trkpt lat="44.18093" lon="5.28291">
        <ele>1536</ele>
        <time>2026-05-14T09:44:02.000Z</time>
      </trkpt>
      <trkpt lat="44.18092" lon="5.2829">
        <ele>1536</ele>
        <time>2026-05-14T09:44:03.000Z</time>
      </trkpt>
      <trkpt lat="44.18092" lon="5.28289">
        <ele>1536.2</ele>
        <time>2026-05-14T09:44:04.000Z</time>
      </trkpt>
      <trkpt lat="44.18091" lon="5.28288">
        <ele>1536</ele>
        <time>2026-05-14T09:44:05.000Z</time>
      </trkpt>
      <trkpt lat="44.18091" lon="5.28286">
        <ele>1535.7</ele>
        <time>2026-05-14T09:44:06.000Z</time>
      </trkpt>
      <trkpt lat="44.1809" lon="5.28285">
        <ele>1535.6</ele>
        <time>2026-05-14T09:44:07.000Z</time>
      </trkpt>
      <trkpt lat="44.1809" lon="5.28284">
        <ele>1535.4</ele>
        <time>2026-05-14T09:44:08.000Z</time>
      </trkpt>
      <trkpt lat="44.1809" lon="5.28283">
        <ele>1535</ele>
        <time>2026-05-14T09:44:09.000Z</time>
      </trkpt>
      <trkpt lat="44.18088" lon="5.28281">
        <ele>1534.4</ele>
        <time>2026-05-14T09:44:10.000Z</time>
      </trkpt>
      <trkpt lat="44.18088" lon="5.28279">
        <ele>1534.2</ele>
        <time>2026-05-14T09:44:11.000Z</time>
      </trkpt>
      <trkpt lat="44.18088" lon="5.28278">
        <ele>1533.7</ele>
        <time>2026-05-14T09:44:12.000Z</time>
      </trkpt>
      <trkpt lat="44.18087" lon="5.28277">
        <ele>1533.1</ele>
        <time>2026-05-14T09:44:13.000Z</time>
      </trkpt>
      <trkpt lat="44.18087" lon="5.28275">
        <ele>1532.8</ele>
        <time>2026-05-14T09:44:14.000Z</time>
      </trkpt>
      <trkpt lat="44.18086" lon="5.28274">
        <ele>1532.9</ele>
        <time>2026-05-14T09:44:15.000Z</time>
      </trkpt>
      <trkpt lat="44.18085" lon="5.28272">
        <ele>1532.5</ele>
        <time>2026-05-14T09:44:16.000Z</time>
      </trkpt>
      <trkpt lat="44.18085" lon="5.28271">
        <ele>1532.1</ele>
        <time>2026-05-14T09:44:17.000Z</time>
      </trkpt>
      <trkpt lat="44.18084" lon="5.2827">
        <ele>1531.8</ele>
        <time>2026-05-14T09:44:18.000Z</time>
      </trkpt>
      <trkpt lat="44.18084" lon="5.28268">
        <ele>1531.6</ele>
        <time>2026-05-14T09:44:19.000Z</time>
      </trkpt>
      <trkpt lat="44.18084" lon="5.28266">
        <ele>1531.3</ele>
        <time>2026-05-14T09:44:20.000Z</time>
      </trkpt>
      <trkpt lat="44.18083" lon="5.28265">
        <ele>1531.1</ele>
        <time>2026-05-14T09:44:21.000Z</time>
      </trkpt>
      <trkpt lat="44.18083" lon="5.28265">
        <ele>1531</ele>
        <time>2026-05-14T09:44:22.000Z</time>
      </trkpt>
      <trkpt lat="44.18083" lon="5.28264">
        <ele>1531</ele>
        <time>2026-05-14T09:44:23.000Z</time>
      </trkpt>
      <trkpt lat="44.18083" lon="5.28262">
        <ele>1531</ele>
        <time>2026-05-14T09:44:24.000Z</time>
      </trkpt>
      <trkpt lat="44.18082" lon="5.28261">
        <ele>1530.7</ele>
        <time>2026-05-14T09:44:25.000Z</time>
      </trkpt>
      <trkpt lat="44.18082" lon="5.28259">
        <ele>1530.9</ele>
        <time>2026-05-14T09:44:26.000Z</time>
      </trkpt>
      <trkpt lat="44.18081" lon="5.28257">
        <ele>1531</ele>
        <time>2026-05-14T09:44:27.000Z</time>
      </trkpt>
      <trkpt lat="44.18081" lon="5.28256">
        <ele>1530.9</ele>
        <time>2026-05-14T09:44:28.000Z</time>
      </trkpt>
      <trkpt lat="44.18081" lon="5.28254">
        <ele>1530.9</ele>
        <time>2026-05-14T09:44:29.000Z</time>
      </trkpt>
      <trkpt lat="44.18081" lon="5.28253">
        <ele>1530.5</ele>
        <time>2026-05-14T09:44:30.000Z</time>
      </trkpt>
      <trkpt lat="44.1808" lon="5.28252">
        <ele>1530.3</ele>
        <time>2026-05-14T09:44:31.000Z</time>
      </trkpt>
      <trkpt lat="44.1808" lon="5.28251">
        <ele>1530.1</ele>
        <time>2026-05-14T09:44:32.000Z</time>
      </trkpt>
      <trkpt lat="44.1808" lon="5.28251">
        <ele>1529.6</ele>
        <time>2026-05-14T09:44:33.000Z</time>
      </trkpt>
      <trkpt lat="44.18081" lon="5.28249">
        <ele>1529.3</ele>
        <time>2026-05-14T09:44:34.000Z</time>
      </trkpt>
      <trkpt lat="44.18082" lon="5.28248">
        <ele>1529.3</ele>
        <time>2026-05-14T09:44:35.000Z</time>
      </trkpt>
      <trkpt lat="44.18082" lon="5.28247">
        <ele>1529.1</ele>
        <time>2026-05-14T09:44:36.000Z</time>
      </trkpt>
      <trkpt lat="44.18082" lon="5.28246">
        <ele>1528.8</ele>
        <time>2026-05-14T09:44:37.000Z</time>
      </trkpt>
      <trkpt lat="44.18083" lon="5.28246">
        <ele>1528.4</ele>
        <time>2026-05-14T09:44:38.000Z</time>
      </trkpt>
      <trkpt lat="44.18083" lon="5.28245">
        <ele>1528.2</ele>
        <time>2026-05-14T09:44:39.000Z</time>
      </trkpt>
      <trkpt lat="44.18083" lon="5.28244">
        <ele>1528.3</ele>
        <time>2026-05-14T09:44:40.000Z</time>
      </trkpt>
      <trkpt lat="44.18083" lon="5.28243">
        <ele>1527.4</ele>
        <time>2026-05-14T09:44:41.000Z</time>
      </trkpt>
      <trkpt lat="44.18084" lon="5.28242">
        <ele>1527.1</ele>
        <time>2026-05-14T09:44:42.000Z</time>
      </trkpt>
      <trkpt lat="44.18084" lon="5.2824">
        <ele>1526.8</ele>
        <time>2026-05-14T09:44:43.000Z</time>
      </trkpt>
      <trkpt lat="44.18084" lon="5.28239">
        <ele>1526.7</ele>
        <time>2026-05-14T09:44:44.000Z</time>
      </trkpt>
      <trkpt lat="44.18084" lon="5.28238">
        <ele>1526.6</ele>
        <time>2026-05-14T09:44:45.000Z</time>
      </trkpt>
      <trkpt lat="44.18085" lon="5.28236">
        <ele>1526.9</ele>
        <time>2026-05-14T09:44:46.000Z</time>
      </trkpt>
      <trkpt lat="44.18084" lon="5.28234">
        <ele>1526.9</ele>
        <time>2026-05-14T09:44:47.000Z</time>
      </trkpt>
      <trkpt lat="44.18084" lon="5.28233">
        <ele>1527.3</ele>
        <time>2026-05-14T09:44:48.000Z</time>
      </trkpt>
      <trkpt lat="44.18084" lon="5.28232">
        <ele>1527.6</ele>
        <time>2026-05-14T09:44:49.000Z</time>
      </trkpt>
      <trkpt lat="44.18085" lon="5.28231">
        <ele>1527.1</ele>
        <time>2026-05-14T09:44:50.000Z</time>
      </trkpt>
      <trkpt lat="44.18085" lon="5.2823">
        <ele>1526.7</ele>
        <time>2026-05-14T09:44:51.000Z</time>
      </trkpt>
      <trkpt lat="44.18085" lon="5.28229">
        <ele>1526.9</ele>
        <time>2026-05-14T09:44:52.000Z</time>
      </trkpt>
      <trkpt lat="44.18085" lon="5.28227">
        <ele>1526.6</ele>
        <time>2026-05-14T09:44:53.000Z</time>
      </trkpt>
      <trkpt lat="44.18086" lon="5.28226">
        <ele>1526.8</ele>
        <time>2026-05-14T09:44:54.000Z</time>
      </trkpt>
      <trkpt lat="44.18086" lon="5.28225">
        <ele>1526.6</ele>
        <time>2026-05-14T09:44:55.000Z</time>
      </trkpt>
      <trkpt lat="44.18088" lon="5.28224">
        <ele>1526.8</ele>
        <time>2026-05-14T09:44:56.000Z</time>
      </trkpt>
      <trkpt lat="44.18088" lon="5.28223">
        <ele>1527.2</ele>
        <time>2026-05-14T09:44:57.000Z</time>
      </trkpt>
      <trkpt lat="44.18089" lon="5.28222">
        <ele>1527.1</ele>
        <time>2026-05-14T09:44:58.000Z</time>
      </trkpt>
      <trkpt lat="44.1809" lon="5.28221">
        <ele>1527.1</ele>
        <time>2026-05-14T09:44:59.000Z</time>
      </trkpt>
      <trkpt lat="44.1809" lon="5.2822">
        <ele>1527.1</ele>
        <time>2026-05-14T09:45:00.000Z</time>
      </trkpt>
      <trkpt lat="44.18091" lon="5.28219">
        <ele>1527.1</ele>
        <time>2026-05-14T09:45:01.000Z</time>
      </trkpt>
      <trkpt lat="44.18092" lon="5.28217">
        <ele>1526.6</ele>
        <time>2026-05-14T09:45:02.000Z</time>
      </trkpt>
      <trkpt lat="44.18092" lon="5.28216">
        <ele>1526.5</ele>
        <time>2026-05-14T09:45:03.000Z</time>
      </trkpt>
      <trkpt lat="44.18093" lon="5.28216">
        <ele>1526.4</ele>
        <time>2026-05-14T09:45:04.000Z</time>
      </trkpt>
      <trkpt lat="44.18094" lon="5.28215">
        <ele>1526.6</ele>
        <time>2026-05-14T09:45:05.000Z</time>
      </trkpt>
      <trkpt lat="44.18094" lon="5.28214">
        <ele>1526.5</ele>
        <time>2026-05-14T09:45:06.000Z</time>
      </trkpt>
      <trkpt lat="44.18094" lon="5.28213">
        <ele>1526</ele>
        <time>2026-05-14T09:45:07.000Z</time>
      </trkpt>
      <trkpt lat="44.18094" lon="5.28212">
        <ele>1525.3</ele>
        <time>2026-05-14T09:45:08.000Z</time>
      </trkpt>
      <trkpt lat="44.18094" lon="5.28211">
        <ele>1525</ele>
        <time>2026-05-14T09:45:09.000Z</time>
      </trkpt>
      <trkpt lat="44.18094" lon="5.28209">
        <ele>1525.8</ele>
        <time>2026-05-14T09:45:10.000Z</time>
      </trkpt>
      <trkpt lat="44.18095" lon="5.28206">
        <ele>1525.9</ele>
        <time>2026-05-14T09:45:11.000Z</time>
      </trkpt>
      <trkpt lat="44.18094" lon="5.28203">
        <ele>1525.8</ele>
        <time>2026-05-14T09:45:12.000Z</time>
      </trkpt>
      <trkpt lat="44.18093" lon="5.28201">
        <ele>1526.2</ele>
        <time>2026-05-14T09:45:13.000Z</time>
      </trkpt>
      <trkpt lat="44.18093" lon="5.28199">
        <ele>1526.4</ele>
        <time>2026-05-14T09:45:14.000Z</time>
      </trkpt>
      <trkpt lat="44.18093" lon="5.28198">
        <ele>1526.9</ele>
        <time>2026-05-14T09:45:15.000Z</time>
      </trkpt>
      <trkpt lat="44.18092" lon="5.28197">
        <ele>1528</ele>
        <time>2026-05-14T09:45:16.000Z</time>
      </trkpt>
      <trkpt lat="44.18092" lon="5.28196">
        <ele>1528.6</ele>
        <time>2026-05-14T09:45:17.000Z</time>
      </trkpt>
      <trkpt lat="44.18092" lon="5.28195">
        <ele>1528</ele>
        <time>2026-05-14T09:45:18.000Z</time>
      </trkpt>
      <trkpt lat="44.18092" lon="5.28194">
        <ele>1528.2</ele>
        <time>2026-05-14T09:45:19.000Z</time>
      </trkpt>
      <trkpt lat="44.18092" lon="5.28193">
        <ele>1528.1</ele>
        <time>2026-05-14T09:45:20.000Z</time>
      </trkpt>
      <trkpt lat="44.18091" lon="5.2819">
        <ele>1527.2</ele>
        <time>2026-05-14T09:45:21.000Z</time>
      </trkpt>
      <trkpt lat="44.18091" lon="5.28189">
        <ele>1527.1</ele>
        <time>2026-05-14T09:45:22.000Z</time>
      </trkpt>
      <trkpt lat="44.1809" lon="5.28188">
        <ele>1527.3</ele>
        <time>2026-05-14T09:45:23.000Z</time>
      </trkpt>
      <trkpt lat="44.1809" lon="5.28187">
        <ele>1526.7</ele>
        <time>2026-05-14T09:45:24.000Z</time>
      </trkpt>
      <trkpt lat="44.1809" lon="5.28187">
        <ele>1527</ele>
        <time>2026-05-14T09:45:25.000Z</time>
      </trkpt>
      <trkpt lat="44.1809" lon="5.28186">
        <ele>1526.8</ele>
        <time>2026-05-14T09:45:26.000Z</time>
      </trkpt>
      <trkpt lat="44.18091" lon="5.28186">
        <ele>1525.8</ele>
        <time>2026-05-14T09:45:27.000Z</time>
      </trkpt>
      <trkpt lat="44.18091" lon="5.28185">
        <ele>1524.9</ele>
        <time>2026-05-14T09:45:28.000Z</time>
      </trkpt>
      <trkpt lat="44.18091" lon="5.28184">
        <ele>1524.8</ele>
        <time>2026-05-14T09:45:29.000Z</time>
      </trkpt>
      <trkpt lat="44.18091" lon="5.28183">
        <ele>1525.1</ele>
        <time>2026-05-14T09:45:30.000Z</time>
      </trkpt>
      <trkpt lat="44.18091" lon="5.28181">
        <ele>1525.1</ele>
        <time>2026-05-14T09:45:31.000Z</time>
      </trkpt>
      <trkpt lat="44.1809" lon="5.28179">
        <ele>1525</ele>
        <time>2026-05-14T09:45:32.000Z</time>
      </trkpt>
      <trkpt lat="44.1809" lon="5.28178">
        <ele>1524.9</ele>
        <time>2026-05-14T09:45:33.000Z</time>
      </trkpt>
      <trkpt lat="44.1809" lon="5.28177">
        <ele>1524.7</ele>
        <time>2026-05-14T09:45:34.000Z</time>
      </trkpt>
      <trkpt lat="44.1809" lon="5.28176">
        <ele>1525.1</ele>
        <time>2026-05-14T09:45:35.000Z</time>
      </trkpt>
      <trkpt lat="44.1809" lon="5.28176">
        <ele>1525.2</ele>
        <time>2026-05-14T09:45:36.000Z</time>
      </trkpt>
      <trkpt lat="44.1809" lon="5.28174">
        <ele>1525</ele>
        <time>2026-05-14T09:45:37.000Z</time>
      </trkpt>
      <trkpt lat="44.18089" lon="5.28173">
        <ele>1524.7</ele>
        <time>2026-05-14T09:45:38.000Z</time>
      </trkpt>
      <trkpt lat="44.1809" lon="5.28171">
        <ele>1524.4</ele>
        <time>2026-05-14T09:45:39.000Z</time>
      </trkpt>
      <trkpt lat="44.1809" lon="5.2817">
        <ele>1524.3</ele>
        <time>2026-05-14T09:45:40.000Z</time>
      </trkpt>
      <trkpt lat="44.18091" lon="5.28169">
        <ele>1524.4</ele>
        <time>2026-05-14T09:45:41.000Z</time>
      </trkpt>
      <trkpt lat="44.18091" lon="5.28167">
        <ele>1524.1</ele>
        <time>2026-05-14T09:45:42.000Z</time>
      </trkpt>
      <trkpt lat="44.18092" lon="5.28166">
        <ele>1523.8</ele>
        <time>2026-05-14T09:45:43.000Z</time>
      </trkpt>
      <trkpt lat="44.18093" lon="5.28164">
        <ele>1524.1</ele>
        <time>2026-05-14T09:45:44.000Z</time>
      </trkpt>
      <trkpt lat="44.18093" lon="5.28162">
        <ele>1524.6</ele>
        <time>2026-05-14T09:45:45.000Z</time>
      </trkpt>
      <trkpt lat="44.18095" lon="5.2816">
        <ele>1526.6</ele>
        <time>2026-05-14T09:45:47.000Z</time>
      </trkpt>
      <trkpt lat="44.18095" lon="5.28159">
        <ele>1527</ele>
        <time>2026-05-14T09:45:48.000Z</time>
      </trkpt>
      <trkpt lat="44.18096" lon="5.28157">
        <ele>1527.4</ele>
        <time>2026-05-14T09:45:49.000Z</time>
      </trkpt>
      <trkpt lat="44.18096" lon="5.28156">
        <ele>1527</ele>
        <time>2026-05-14T09:45:50.000Z</time>
      </trkpt>
      <trkpt lat="44.18097" lon="5.28154">
        <ele>1526.5</ele>
        <time>2026-05-14T09:45:51.000Z</time>
      </trkpt>
      <trkpt lat="44.18097" lon="5.28152">
        <ele>1526.6</ele>
        <time>2026-05-14T09:45:52.000Z</time>
      </trkpt>
      <trkpt lat="44.18098" lon="5.28151">
        <ele>1527</ele>
        <time>2026-05-14T09:45:53.000Z</time>
      </trkpt>
      <trkpt lat="44.18098" lon="5.28151">
        <ele>1527.1</ele>
        <time>2026-05-14T09:45:54.000Z</time>
      </trkpt>
      <trkpt lat="44.18097" lon="5.2815">
        <ele>1526.7</ele>
        <time>2026-05-14T09:45:55.000Z</time>
      </trkpt>
      <trkpt lat="44.18098" lon="5.28149">
        <ele>1526.6</ele>
        <time>2026-05-14T09:45:56.000Z</time>
      </trkpt>
      <trkpt lat="44.18098" lon="5.28148">
        <ele>1526.9</ele>
        <time>2026-05-14T09:45:57.000Z</time>
      </trkpt>
      <trkpt lat="44.18098" lon="5.28146">
        <ele>1526.5</ele>
        <time>2026-05-14T09:45:58.000Z</time>
      </trkpt>
      <trkpt lat="44.18098" lon="5.28144">
        <ele>1526.1</ele>
        <time>2026-05-14T09:45:59.000Z</time>
      </trkpt>
      <trkpt lat="44.18098" lon="5.28143">
        <ele>1526.1</ele>
        <time>2026-05-14T09:46:00.000Z</time>
      </trkpt>
      <trkpt lat="44.18098" lon="5.28141">
        <ele>1526.4</ele>
        <time>2026-05-14T09:46:01.000Z</time>
      </trkpt>
      <trkpt lat="44.18098" lon="5.28139">
        <ele>1526.3</ele>
        <time>2026-05-14T09:46:02.000Z</time>
      </trkpt>
      <trkpt lat="44.18099" lon="5.28137">
        <ele>1526.7</ele>
        <time>2026-05-14T09:46:03.000Z</time>
      </trkpt>
      <trkpt lat="44.18099" lon="5.28135">
        <ele>1527.4</ele>
        <time>2026-05-14T09:46:04.000Z</time>
      </trkpt>
      <trkpt lat="44.18099" lon="5.28134">
        <ele>1527.5</ele>
        <time>2026-05-14T09:46:05.000Z</time>
      </trkpt>
      <trkpt lat="44.181" lon="5.28133">
        <ele>1527.3</ele>
        <time>2026-05-14T09:46:06.000Z</time>
      </trkpt>
      <trkpt lat="44.181" lon="5.28132">
        <ele>1527.1</ele>
        <time>2026-05-14T09:46:07.000Z</time>
      </trkpt>
      <trkpt lat="44.18099" lon="5.2813">
        <ele>1527</ele>
        <time>2026-05-14T09:46:08.000Z</time>
      </trkpt>
      <trkpt lat="44.18099" lon="5.28129">
        <ele>1527.2</ele>
        <time>2026-05-14T09:46:09.000Z</time>
      </trkpt>
      <trkpt lat="44.18099" lon="5.28129">
        <ele>1527.2</ele>
        <time>2026-05-14T09:46:10.000Z</time>
      </trkpt>
      <trkpt lat="44.18099" lon="5.28127">
        <ele>1527.6</ele>
        <time>2026-05-14T09:46:11.000Z</time>
      </trkpt>
      <trkpt lat="44.18099" lon="5.28126">
        <ele>1527.4</ele>
        <time>2026-05-14T09:46:12.000Z</time>
      </trkpt>
      <trkpt lat="44.18098" lon="5.28125">
        <ele>1527.7</ele>
        <time>2026-05-14T09:46:13.000Z</time>
      </trkpt>
      <trkpt lat="44.18098" lon="5.28124">
        <ele>1527.4</ele>
        <time>2026-05-14T09:46:14.000Z</time>
      </trkpt>
      <trkpt lat="44.18098" lon="5.28123">
        <ele>1527.6</ele>
        <time>2026-05-14T09:46:15.000Z</time>
      </trkpt>
      <trkpt lat="44.18098" lon="5.28121">
        <ele>1527.7</ele>
        <time>2026-05-14T09:46:16.000Z</time>
      </trkpt>
      <trkpt lat="44.18098" lon="5.2812">
        <ele>1527.9</ele>
        <time>2026-05-14T09:46:17.000Z</time>
      </trkpt>
      <trkpt lat="44.18098" lon="5.28118">
        <ele>1528.5</ele>
        <time>2026-05-14T09:46:18.000Z</time>
      </trkpt>
      <trkpt lat="44.18098" lon="5.28116">
        <ele>1528.6</ele>
        <time>2026-05-14T09:46:19.000Z</time>
      </trkpt>
      <trkpt lat="44.18098" lon="5.28114">
        <ele>1528.3</ele>
        <time>2026-05-14T09:46:20.000Z</time>
      </trkpt>
      <trkpt lat="44.18097" lon="5.28113">
        <ele>1528.1</ele>
        <time>2026-05-14T09:46:21.000Z</time>
      </trkpt>
      <trkpt lat="44.18098" lon="5.28112">
        <ele>1528.2</ele>
        <time>2026-05-14T09:46:22.000Z</time>
      </trkpt>
      <trkpt lat="44.18098" lon="5.28111">
        <ele>1528.4</ele>
        <time>2026-05-14T09:46:23.000Z</time>
      </trkpt>
      <trkpt lat="44.18098" lon="5.28111">
        <ele>1528.6</ele>
        <time>2026-05-14T09:46:24.000Z</time>
      </trkpt>
      <trkpt lat="44.18099" lon="5.2811">
        <ele>1529.3</ele>
        <time>2026-05-14T09:46:25.000Z</time>
      </trkpt>
      <trkpt lat="44.18099" lon="5.2811">
        <ele>1529</ele>
        <time>2026-05-14T09:46:26.000Z</time>
      </trkpt>
      <trkpt lat="44.18099" lon="5.28109">
        <ele>1528.6</ele>
        <time>2026-05-14T09:46:27.000Z</time>
      </trkpt>
      <trkpt lat="44.18099" lon="5.28107">
        <ele>1528.4</ele>
        <time>2026-05-14T09:46:28.000Z</time>
      </trkpt>
      <trkpt lat="44.18099" lon="5.28105">
        <ele>1528.2</ele>
        <time>2026-05-14T09:46:29.000Z</time>
      </trkpt>
      <trkpt lat="44.18099" lon="5.28102">
        <ele>1527.7</ele>
        <time>2026-05-14T09:46:30.000Z</time>
      </trkpt>
      <trkpt lat="44.18099" lon="5.281">
        <ele>1527.4</ele>
        <time>2026-05-14T09:46:31.000Z</time>
      </trkpt>
      <trkpt lat="44.18099" lon="5.28099">
        <ele>1527.7</ele>
        <time>2026-05-14T09:46:32.000Z</time>
      </trkpt>
      <trkpt lat="44.18098" lon="5.28097">
        <ele>1527.9</ele>
        <time>2026-05-14T09:46:33.000Z</time>
      </trkpt>
      <trkpt lat="44.18099" lon="5.28096">
        <ele>1529</ele>
        <time>2026-05-14T09:46:34.000Z</time>
      </trkpt>
      <trkpt lat="44.18099" lon="5.28095">
        <ele>1529.5</ele>
        <time>2026-05-14T09:46:35.000Z</time>
      </trkpt>
      <trkpt lat="44.181" lon="5.28094">
        <ele>1529.6</ele>
        <time>2026-05-14T09:46:36.000Z</time>
      </trkpt>
      <trkpt lat="44.181" lon="5.28092">
        <ele>1529.3</ele>
        <time>2026-05-14T09:46:37.000Z</time>
      </trkpt>
      <trkpt lat="44.18101" lon="5.2809">
        <ele>1529.6</ele>
        <time>2026-05-14T09:46:38.000Z</time>
      </trkpt>
      <trkpt lat="44.18101" lon="5.28089">
        <ele>1529.7</ele>
        <time>2026-05-14T09:46:39.000Z</time>
      </trkpt>
      <trkpt lat="44.18101" lon="5.28087">
        <ele>1530.3</ele>
        <time>2026-05-14T09:46:40.000Z</time>
      </trkpt>
      <trkpt lat="44.18101" lon="5.28086">
        <ele>1530.7</ele>
        <time>2026-05-14T09:46:41.000Z</time>
      </trkpt>
      <trkpt lat="44.181" lon="5.28084">
        <ele>1530.8</ele>
        <time>2026-05-14T09:46:42.000Z</time>
      </trkpt>
      <trkpt lat="44.181" lon="5.28082">
        <ele>1531.1</ele>
        <time>2026-05-14T09:46:43.000Z</time>
      </trkpt>
      <trkpt lat="44.181" lon="5.28081">
        <ele>1532</ele>
        <time>2026-05-14T09:46:44.000Z</time>
      </trkpt>
      <trkpt lat="44.18101" lon="5.2808">
        <ele>1532.2</ele>
        <time>2026-05-14T09:46:45.000Z</time>
      </trkpt>
      <trkpt lat="44.18101" lon="5.28079">
        <ele>1532.5</ele>
        <time>2026-05-14T09:46:46.000Z</time>
      </trkpt>
      <trkpt lat="44.18102" lon="5.28077">
        <ele>1532.8</ele>
        <time>2026-05-14T09:46:47.000Z</time>
      </trkpt>
      <trkpt lat="44.18103" lon="5.28075">
        <ele>1533.1</ele>
        <time>2026-05-14T09:46:48.000Z</time>
      </trkpt>
      <trkpt lat="44.18102" lon="5.28074">
        <ele>1533.2</ele>
        <time>2026-05-14T09:46:49.000Z</time>
      </trkpt>
      <trkpt lat="44.18102" lon="5.28072">
        <ele>1534.1</ele>
        <time>2026-05-14T09:46:50.000Z</time>
      </trkpt>
      <trkpt lat="44.18101" lon="5.28071">
        <ele>1534.7</ele>
        <time>2026-05-14T09:46:51.000Z</time>
      </trkpt>
      <trkpt lat="44.18102" lon="5.28069">
        <ele>1535.2</ele>
        <time>2026-05-14T09:46:52.000Z</time>
      </trkpt>
      <trkpt lat="44.18102" lon="5.28069">
        <ele>1535.2</ele>
        <time>2026-05-14T09:46:53.000Z</time>
      </trkpt>
      <trkpt lat="44.18102" lon="5.28068">
        <ele>1535.2</ele>
        <time>2026-05-14T09:46:54.000Z</time>
      </trkpt>
      <trkpt lat="44.18102" lon="5.28066">
        <ele>1535.5</ele>
        <time>2026-05-14T09:46:55.000Z</time>
      </trkpt>
      <trkpt lat="44.18101" lon="5.28064">
        <ele>1535.5</ele>
        <time>2026-05-14T09:46:56.000Z</time>
      </trkpt>
      <trkpt lat="44.18101" lon="5.28064">
        <ele>1535.1</ele>
        <time>2026-05-14T09:46:57.000Z</time>
      </trkpt>
      <trkpt lat="44.181" lon="5.28062">
        <ele>1535.9</ele>
        <time>2026-05-14T09:46:58.000Z</time>
      </trkpt>
      <trkpt lat="44.181" lon="5.28061">
        <ele>1536.2</ele>
        <time>2026-05-14T09:46:59.000Z</time>
      </trkpt>
      <trkpt lat="44.181" lon="5.28061">
        <ele>1536.4</ele>
        <time>2026-05-14T09:47:00.000Z</time>
      </trkpt>
      <trkpt lat="44.18099" lon="5.2806">
        <ele>1536.7</ele>
        <time>2026-05-14T09:47:01.000Z</time>
      </trkpt>
      <trkpt lat="44.18099" lon="5.2806">
        <ele>1537.1</ele>
        <time>2026-05-14T09:47:02.000Z</time>
      </trkpt>
      <trkpt lat="44.18099" lon="5.28059">
        <ele>1537.1</ele>
        <time>2026-05-14T09:47:03.000Z</time>
      </trkpt>
      <trkpt lat="44.18099" lon="5.28058">
        <ele>1537.5</ele>
        <time>2026-05-14T09:47:04.000Z</time>
      </trkpt>
      <trkpt lat="44.18099" lon="5.28057">
        <ele>1538.4</ele>
        <time>2026-05-14T09:47:05.000Z</time>
      </trkpt>
      <trkpt lat="44.18099" lon="5.28055">
        <ele>1538.6</ele>
        <time>2026-05-14T09:47:06.000Z</time>
      </trkpt>
      <trkpt lat="44.18099" lon="5.28055">
        <ele>1538.1</ele>
        <time>2026-05-14T09:47:07.000Z</time>
      </trkpt>
      <trkpt lat="44.18099" lon="5.28053">
        <ele>1537.8</ele>
        <time>2026-05-14T09:47:08.000Z</time>
      </trkpt>
      <trkpt lat="44.18099" lon="5.28052">
        <ele>1537.3</ele>
        <time>2026-05-14T09:47:09.000Z</time>
      </trkpt>
      <trkpt lat="44.18098" lon="5.28051">
        <ele>1537.1</ele>
        <time>2026-05-14T09:47:10.000Z</time>
      </trkpt>
      <trkpt lat="44.18098" lon="5.28049">
        <ele>1537.1</ele>
        <time>2026-05-14T09:47:11.000Z</time>
      </trkpt>
      <trkpt lat="44.18098" lon="5.28048">
        <ele>1537.4</ele>
        <time>2026-05-14T09:47:12.000Z</time>
      </trkpt>
      <trkpt lat="44.18098" lon="5.28047">
        <ele>1538.2</ele>
        <time>2026-05-14T09:47:13.000Z</time>
      </trkpt>
      <trkpt lat="44.18098" lon="5.28046">
        <ele>1538.6</ele>
        <time>2026-05-14T09:47:14.000Z</time>
      </trkpt>
      <trkpt lat="44.18098" lon="5.28044">
        <ele>1538.8</ele>
        <time>2026-05-14T09:47:15.000Z</time>
      </trkpt>
      <trkpt lat="44.18098" lon="5.28044">
        <ele>1538</ele>
        <time>2026-05-14T09:47:16.000Z</time>
      </trkpt>
      <trkpt lat="44.18099" lon="5.28042">
        <ele>1538.6</ele>
        <time>2026-05-14T09:47:17.000Z</time>
      </trkpt>
      <trkpt lat="44.18099" lon="5.28041">
        <ele>1538.9</ele>
        <time>2026-05-14T09:47:18.000Z</time>
      </trkpt>
      <trkpt lat="44.18099" lon="5.28039">
        <ele>1539.1</ele>
        <time>2026-05-14T09:47:19.000Z</time>
      </trkpt>
      <trkpt lat="44.18099" lon="5.28038">
        <ele>1539.7</ele>
        <time>2026-05-14T09:47:20.000Z</time>
      </trkpt>
      <trkpt lat="44.18099" lon="5.28037">
        <ele>1539.7</ele>
        <time>2026-05-14T09:47:21.000Z</time>
      </trkpt>
      <trkpt lat="44.18099" lon="5.28035">
        <ele>1539.2</ele>
        <time>2026-05-14T09:47:22.000Z</time>
      </trkpt>
      <trkpt lat="44.18099" lon="5.28034">
        <ele>1539.5</ele>
        <time>2026-05-14T09:47:23.000Z</time>
      </trkpt>
      <trkpt lat="44.18099" lon="5.28033">
        <ele>1540</ele>
        <time>2026-05-14T09:47:24.000Z</time>
      </trkpt>
      <trkpt lat="44.18098" lon="5.28031">
        <ele>1540.3</ele>
        <time>2026-05-14T09:47:25.000Z</time>
      </trkpt>
      <trkpt lat="44.18098" lon="5.2803">
        <ele>1540.3</ele>
        <time>2026-05-14T09:47:26.000Z</time>
      </trkpt>
      <trkpt lat="44.18098" lon="5.28031">
        <ele>1540.1</ele>
        <time>2026-05-14T09:47:27.000Z</time>
      </trkpt>
      <trkpt lat="44.18098" lon="5.28031">
        <ele>1541</ele>
        <time>2026-05-14T09:47:28.000Z</time>
      </trkpt>
      <trkpt lat="44.18098" lon="5.28032">
        <ele>1541.1</ele>
        <time>2026-05-14T09:47:29.000Z</time>
      </trkpt>
      <trkpt lat="44.18098" lon="5.28033">
        <ele>1540.8</ele>
        <time>2026-05-14T09:47:30.000Z</time>
      </trkpt>
      <trkpt lat="44.18098" lon="5.28034">
        <ele>1541.6</ele>
        <time>2026-05-14T09:47:31.000Z</time>
      </trkpt>
      <trkpt lat="44.18098" lon="5.28035">
        <ele>1542.1</ele>
        <time>2026-05-14T09:47:32.000Z</time>
      </trkpt>
      <trkpt lat="44.18098" lon="5.28036">
        <ele>1542.1</ele>
        <time>2026-05-14T09:47:33.000Z</time>
      </trkpt>
      <trkpt lat="44.18098" lon="5.28037">
        <ele>1542.1</ele>
        <time>2026-05-14T09:47:34.000Z</time>
      </trkpt>
      <trkpt lat="44.18097" lon="5.28039">
        <ele>1542.1</ele>
        <time>2026-05-14T09:47:35.000Z</time>
      </trkpt>
      <trkpt lat="44.18096" lon="5.28041">
        <ele>1542.2</ele>
        <time>2026-05-14T09:47:36.000Z</time>
      </trkpt>
      <trkpt lat="44.18095" lon="5.28042">
        <ele>1542.5</ele>
        <time>2026-05-14T09:47:37.000Z</time>
      </trkpt>
      <trkpt lat="44.18095" lon="5.28044">
        <ele>1542.5</ele>
        <time>2026-05-14T09:47:38.000Z</time>
      </trkpt>
      <trkpt lat="44.18094" lon="5.28046">
        <ele>1543</ele>
        <time>2026-05-14T09:47:39.000Z</time>
      </trkpt>
      <trkpt lat="44.18094" lon="5.28046">
        <ele>1543.2</ele>
        <time>2026-05-14T09:47:40.000Z</time>
      </trkpt>
      <trkpt lat="44.18094" lon="5.28047">
        <ele>1543.4</ele>
        <time>2026-05-14T09:47:41.000Z</time>
      </trkpt>
      <trkpt lat="44.18093" lon="5.28048">
        <ele>1543.9</ele>
        <time>2026-05-14T09:47:42.000Z</time>
      </trkpt>
      <trkpt lat="44.18092" lon="5.28049">
        <ele>1545.4</ele>
        <time>2026-05-14T09:47:43.000Z</time>
      </trkpt>
      <trkpt lat="44.18092" lon="5.28051">
        <ele>1546.1</ele>
        <time>2026-05-14T09:47:44.000Z</time>
      </trkpt>
      <trkpt lat="44.18091" lon="5.28053">
        <ele>1545.8</ele>
        <time>2026-05-14T09:47:45.000Z</time>
      </trkpt>
      <trkpt lat="44.18091" lon="5.28054">
        <ele>1546.4</ele>
        <time>2026-05-14T09:47:46.000Z</time>
      </trkpt>
      <trkpt lat="44.18091" lon="5.28055">
        <ele>1546.7</ele>
        <time>2026-05-14T09:47:47.000Z</time>
      </trkpt>
      <trkpt lat="44.18091" lon="5.28057">
        <ele>1547.9</ele>
        <time>2026-05-14T09:47:48.000Z</time>
      </trkpt>
      <trkpt lat="44.18091" lon="5.28059">
        <ele>1548.2</ele>
        <time>2026-05-14T09:47:49.000Z</time>
      </trkpt>
      <trkpt lat="44.18091" lon="5.28061">
        <ele>1548.4</ele>
        <time>2026-05-14T09:47:50.000Z</time>
      </trkpt>
      <trkpt lat="44.1809" lon="5.28062">
        <ele>1548.6</ele>
        <time>2026-05-14T09:47:51.000Z</time>
      </trkpt>
      <trkpt lat="44.18089" lon="5.28063">
        <ele>1549.4</ele>
        <time>2026-05-14T09:47:52.000Z</time>
      </trkpt>
      <trkpt lat="44.18088" lon="5.28067">
        <ele>1551.4</ele>
        <time>2026-05-14T09:47:53.000Z</time>
      </trkpt>
      <trkpt lat="44.18087" lon="5.2807">
        <ele>1552.6</ele>
        <time>2026-05-14T09:47:54.000Z</time>
      </trkpt>
      <trkpt lat="44.18087" lon="5.28072">
        <ele>1553.2</ele>
        <time>2026-05-14T09:47:55.000Z</time>
      </trkpt>
      <trkpt lat="44.18087" lon="5.28074">
        <ele>1553.7</ele>
        <time>2026-05-14T09:47:56.000Z</time>
      </trkpt>
      <trkpt lat="44.18087" lon="5.28077">
        <ele>1555.6</ele>
        <time>2026-05-14T09:47:57.000Z</time>
      </trkpt>
      <trkpt lat="44.18087" lon="5.28079">
        <ele>1556</ele>
        <time>2026-05-14T09:47:58.000Z</time>
      </trkpt>
      <trkpt lat="44.18086" lon="5.28081">
        <ele>1556.4</ele>
        <time>2026-05-14T09:47:59.000Z</time>
      </trkpt>
      <trkpt lat="44.18086" lon="5.28082">
        <ele>1557.3</ele>
        <time>2026-05-14T09:48:00.000Z</time>
      </trkpt>
      <trkpt lat="44.18087" lon="5.28083">
        <ele>1558.5</ele>
        <time>2026-05-14T09:48:01.000Z</time>
      </trkpt>
      <trkpt lat="44.18087" lon="5.28085">
        <ele>1559.6</ele>
        <time>2026-05-14T09:48:02.000Z</time>
      </trkpt>
      <trkpt lat="44.18087" lon="5.28085">
        <ele>1560.3</ele>
        <time>2026-05-14T09:48:03.000Z</time>
      </trkpt>
      <trkpt lat="44.18088" lon="5.28087">
        <ele>1560.7</ele>
        <time>2026-05-14T09:48:04.000Z</time>
      </trkpt>
      <trkpt lat="44.18088" lon="5.28088">
        <ele>1561.1</ele>
        <time>2026-05-14T09:48:05.000Z</time>
      </trkpt>
      <trkpt lat="44.18088" lon="5.2809">
        <ele>1561.4</ele>
        <time>2026-05-14T09:48:06.000Z</time>
      </trkpt>
      <trkpt lat="44.18088" lon="5.28091">
        <ele>1561.6</ele>
        <time>2026-05-14T09:48:07.000Z</time>
      </trkpt>
      <trkpt lat="44.18088" lon="5.28092">
        <ele>1562</ele>
        <time>2026-05-14T09:48:08.000Z</time>
      </trkpt>
      <trkpt lat="44.18088" lon="5.28092">
        <ele>1561.9</ele>
        <time>2026-05-14T09:48:09.000Z</time>
      </trkpt>
      <trkpt lat="44.18087" lon="5.28092">
        <ele>1562.1</ele>
        <time>2026-05-14T09:48:10.000Z</time>
      </trkpt>
      <trkpt lat="44.18087" lon="5.28094">
        <ele>1562.4</ele>
        <time>2026-05-14T09:48:11.000Z</time>
      </trkpt>
      <trkpt lat="44.18087" lon="5.28095">
        <ele>1562.9</ele>
        <time>2026-05-14T09:48:12.000Z</time>
      </trkpt>
      <trkpt lat="44.18088" lon="5.28097">
        <ele>1562.8</ele>
        <time>2026-05-14T09:48:13.000Z</time>
      </trkpt>
      <trkpt lat="44.18087" lon="5.28098">
        <ele>1563</ele>
        <time>2026-05-14T09:48:14.000Z</time>
      </trkpt>
      <trkpt lat="44.18087" lon="5.28098">
        <ele>1563.4</ele>
        <time>2026-05-14T09:48:15.000Z</time>
      </trkpt>
      <trkpt lat="44.18086" lon="5.28099">
        <ele>1563.7</ele>
        <time>2026-05-14T09:48:16.000Z</time>
      </trkpt>
      <trkpt lat="44.18085" lon="5.28101">
        <ele>1564.2</ele>
        <time>2026-05-14T09:48:17.000Z</time>
      </trkpt>
      <trkpt lat="44.18085" lon="5.28103">
        <ele>1564.6</ele>
        <time>2026-05-14T09:48:18.000Z</time>
      </trkpt>
      <trkpt lat="44.18085" lon="5.28104">
        <ele>1564.8</ele>
        <time>2026-05-14T09:48:19.000Z</time>
      </trkpt>
      <trkpt lat="44.18085" lon="5.28106">
        <ele>1565.4</ele>
        <time>2026-05-14T09:48:20.000Z</time>
      </trkpt>
      <trkpt lat="44.18085" lon="5.28108">
        <ele>1566.2</ele>
        <time>2026-05-14T09:48:21.000Z</time>
      </trkpt>
      <trkpt lat="44.18085" lon="5.2811">
        <ele>1567.1</ele>
        <time>2026-05-14T09:48:22.000Z</time>
      </trkpt>
      <trkpt lat="44.18084" lon="5.28112">
        <ele>1566.9</ele>
        <time>2026-05-14T09:48:23.000Z</time>
      </trkpt>
      <trkpt lat="44.18084" lon="5.28113">
        <ele>1567.2</ele>
        <time>2026-05-14T09:48:24.000Z</time>
      </trkpt>
      <trkpt lat="44.18084" lon="5.28115">
        <ele>1567.6</ele>
        <time>2026-05-14T09:48:25.000Z</time>
      </trkpt>
      <trkpt lat="44.18084" lon="5.28116">
        <ele>1567.8</ele>
        <time>2026-05-14T09:48:26.000Z</time>
      </trkpt>
      <trkpt lat="44.18084" lon="5.28117">
        <ele>1567.8</ele>
        <time>2026-05-14T09:48:27.000Z</time>
      </trkpt>
      <trkpt lat="44.18083" lon="5.28118">
        <ele>1567.7</ele>
        <time>2026-05-14T09:48:28.000Z</time>
      </trkpt>
      <trkpt lat="44.18083" lon="5.28119">
        <ele>1567.5</ele>
        <time>2026-05-14T09:48:29.000Z</time>
      </trkpt>
      <trkpt lat="44.18083" lon="5.28119">
        <ele>1567.5</ele>
        <time>2026-05-14T09:48:30.000Z</time>
      </trkpt>
      <trkpt lat="44.18083" lon="5.2812">
        <ele>1567</ele>
        <time>2026-05-14T09:48:31.000Z</time>
      </trkpt>
      <trkpt lat="44.18082" lon="5.28123">
        <ele>1567.7</ele>
        <time>2026-05-14T09:48:32.000Z</time>
      </trkpt>
      <trkpt lat="44.18083" lon="5.28124">
        <ele>1567.5</ele>
        <time>2026-05-14T09:48:33.000Z</time>
      </trkpt>
      <trkpt lat="44.18083" lon="5.28126">
        <ele>1567.9</ele>
        <time>2026-05-14T09:48:34.000Z</time>
      </trkpt>
      <trkpt lat="44.18082" lon="5.28127">
        <ele>1568.2</ele>
        <time>2026-05-14T09:48:35.000Z</time>
      </trkpt>
      <trkpt lat="44.18082" lon="5.28128">
        <ele>1567.7</ele>
        <time>2026-05-14T09:48:36.000Z</time>
      </trkpt>
      <trkpt lat="44.18082" lon="5.2813">
        <ele>1567.5</ele>
        <time>2026-05-14T09:48:37.000Z</time>
      </trkpt>
      <trkpt lat="44.18082" lon="5.28132">
        <ele>1568</ele>
        <time>2026-05-14T09:48:38.000Z</time>
      </trkpt>
      <trkpt lat="44.18082" lon="5.28134">
        <ele>1568.7</ele>
        <time>2026-05-14T09:48:39.000Z</time>
      </trkpt>
      <trkpt lat="44.18081" lon="5.28135">
        <ele>1569.1</ele>
        <time>2026-05-14T09:48:40.000Z</time>
      </trkpt>
      <trkpt lat="44.1808" lon="5.28136">
        <ele>1568.9</ele>
        <time>2026-05-14T09:48:41.000Z</time>
      </trkpt>
      <trkpt lat="44.1808" lon="5.28137">
        <ele>1569</ele>
        <time>2026-05-14T09:48:42.000Z</time>
      </trkpt>
      <trkpt lat="44.1808" lon="5.28139">
        <ele>1568.9</ele>
        <time>2026-05-14T09:48:43.000Z</time>
      </trkpt>
      <trkpt lat="44.18079" lon="5.28141">
        <ele>1569.1</ele>
        <time>2026-05-14T09:48:44.000Z</time>
      </trkpt>
      <trkpt lat="44.18079" lon="5.28142">
        <ele>1569.3</ele>
        <time>2026-05-14T09:48:45.000Z</time>
      </trkpt>
      <trkpt lat="44.18078" lon="5.28143">
        <ele>1568.9</ele>
        <time>2026-05-14T09:48:46.000Z</time>
      </trkpt>
      <trkpt lat="44.18078" lon="5.28145">
        <ele>1569.3</ele>
        <time>2026-05-14T09:48:47.000Z</time>
      </trkpt>
      <trkpt lat="44.18078" lon="5.28147">
        <ele>1569.1</ele>
        <time>2026-05-14T09:48:48.000Z</time>
      </trkpt>
      <trkpt lat="44.18078" lon="5.28149">
        <ele>1569.2</ele>
        <time>2026-05-14T09:48:49.000Z</time>
      </trkpt>
      <trkpt lat="44.18077" lon="5.2815">
        <ele>1568.6</ele>
        <time>2026-05-14T09:48:50.000Z</time>
      </trkpt>
      <trkpt lat="44.18077" lon="5.28152">
        <ele>1569</ele>
        <time>2026-05-14T09:48:51.000Z</time>
      </trkpt>
      <trkpt lat="44.18076" lon="5.28153">
        <ele>1569.4</ele>
        <time>2026-05-14T09:48:52.000Z</time>
      </trkpt>
      <trkpt lat="44.18076" lon="5.28154">
        <ele>1569.6</ele>
        <time>2026-05-14T09:48:53.000Z</time>
      </trkpt>
      <trkpt lat="44.18075" lon="5.28157">
        <ele>1570.3</ele>
        <time>2026-05-14T09:48:54.000Z</time>
      </trkpt>
      <trkpt lat="44.18074" lon="5.28158">
        <ele>1570.2</ele>
        <time>2026-05-14T09:48:55.000Z</time>
      </trkpt>
      <trkpt lat="44.18074" lon="5.28159">
        <ele>1570.2</ele>
        <time>2026-05-14T09:48:56.000Z</time>
      </trkpt>
      <trkpt lat="44.18074" lon="5.2816">
        <ele>1570.3</ele>
        <time>2026-05-14T09:48:57.000Z</time>
      </trkpt>
      <trkpt lat="44.18073" lon="5.28162">
        <ele>1570.4</ele>
        <time>2026-05-14T09:48:58.000Z</time>
      </trkpt>
      <trkpt lat="44.18073" lon="5.28164">
        <ele>1570.2</ele>
        <time>2026-05-14T09:48:59.000Z</time>
      </trkpt>
      <trkpt lat="44.18073" lon="5.28165">
        <ele>1569.9</ele>
        <time>2026-05-14T09:49:00.000Z</time>
      </trkpt>
      <trkpt lat="44.18073" lon="5.28166">
        <ele>1569.8</ele>
        <time>2026-05-14T09:49:01.000Z</time>
      </trkpt>
      <trkpt lat="44.18073" lon="5.28166">
        <ele>1569.8</ele>
        <time>2026-05-14T09:49:02.000Z</time>
      </trkpt>
      <trkpt lat="44.18073" lon="5.28166">
        <ele>1569.6</ele>
        <time>2026-05-14T09:49:03.000Z</time>
      </trkpt>
      <trkpt lat="44.18073" lon="5.28166">
        <ele>1569.4</ele>
        <time>2026-05-14T09:49:04.000Z</time>
      </trkpt>
      <trkpt lat="44.18073" lon="5.28167">
        <ele>1569.6</ele>
        <time>2026-05-14T09:49:05.000Z</time>
      </trkpt>
      <trkpt lat="44.18073" lon="5.28167">
        <ele>1569.3</ele>
        <time>2026-05-14T09:49:06.000Z</time>
      </trkpt>
      <trkpt lat="44.18073" lon="5.28167">
        <ele>1569.3</ele>
        <time>2026-05-14T09:49:07.000Z</time>
      </trkpt>
      <trkpt lat="44.18072" lon="5.28168">
        <ele>1569.5</ele>
        <time>2026-05-14T09:49:08.000Z</time>
      </trkpt>
      <trkpt lat="44.18072" lon="5.28168">
        <ele>1569.9</ele>
        <time>2026-05-14T09:49:09.000Z</time>
      </trkpt>
      <trkpt lat="44.18072" lon="5.28168">
        <ele>1570.2</ele>
        <time>2026-05-14T09:49:10.000Z</time>
      </trkpt>
      <trkpt lat="44.18072" lon="5.28169">
        <ele>1570.4</ele>
        <time>2026-05-14T09:49:11.000Z</time>
      </trkpt>
      <trkpt lat="44.18071" lon="5.2817">
        <ele>1570.5</ele>
        <time>2026-05-14T09:49:12.000Z</time>
      </trkpt>
      <trkpt lat="44.18071" lon="5.28172">
        <ele>1570.6</ele>
        <time>2026-05-14T09:49:13.000Z</time>
      </trkpt>
      <trkpt lat="44.1807" lon="5.28174">
        <ele>1570.6</ele>
        <time>2026-05-14T09:49:14.000Z</time>
      </trkpt>
      <trkpt lat="44.18069" lon="5.28176">
        <ele>1570.7</ele>
        <time>2026-05-14T09:49:15.000Z</time>
      </trkpt>
      <trkpt lat="44.18068" lon="5.28177">
        <ele>1570.9</ele>
        <time>2026-05-14T09:49:16.000Z</time>
      </trkpt>
      <trkpt lat="44.18067" lon="5.28179">
        <ele>1571</ele>
        <time>2026-05-14T09:49:17.000Z</time>
      </trkpt>
      <trkpt lat="44.18066" lon="5.2818">
        <ele>1571</ele>
        <time>2026-05-14T09:49:18.000Z</time>
      </trkpt>
      <trkpt lat="44.18065" lon="5.28182">
        <ele>1571.1</ele>
        <time>2026-05-14T09:49:19.000Z</time>
      </trkpt>
      <trkpt lat="44.18063" lon="5.28183">
        <ele>1571.3</ele>
        <time>2026-05-14T09:49:20.000Z</time>
      </trkpt>
      <trkpt lat="44.18062" lon="5.28184">
        <ele>1571.6</ele>
        <time>2026-05-14T09:49:21.000Z</time>
      </trkpt>
      <trkpt lat="44.18061" lon="5.28186">
        <ele>1571.8</ele>
        <time>2026-05-14T09:49:22.000Z</time>
      </trkpt>
      <trkpt lat="44.1806" lon="5.28187">
        <ele>1571.9</ele>
        <time>2026-05-14T09:49:23.000Z</time>
      </trkpt>
      <trkpt lat="44.18059" lon="5.28187">
        <ele>1572</ele>
        <time>2026-05-14T09:49:24.000Z</time>
      </trkpt>
      <trkpt lat="44.18058" lon="5.28188">
        <ele>1572.1</ele>
        <time>2026-05-14T09:49:25.000Z</time>
      </trkpt>
      <trkpt lat="44.18057" lon="5.28189">
        <ele>1572</ele>
        <time>2026-05-14T09:49:26.000Z</time>
      </trkpt>
      <trkpt lat="44.18057" lon="5.2819">
        <ele>1571.8</ele>
        <time>2026-05-14T09:49:27.000Z</time>
      </trkpt>
      <trkpt lat="44.18056" lon="5.28192">
        <ele>1572.4</ele>
        <time>2026-05-14T09:49:28.000Z</time>
      </trkpt>
      <trkpt lat="44.18055" lon="5.28192">
        <ele>1572</ele>
        <time>2026-05-14T09:49:29.000Z</time>
      </trkpt>
      <trkpt lat="44.18054" lon="5.28193">
        <ele>1572.1</ele>
        <time>2026-05-14T09:49:30.000Z</time>
      </trkpt>
      <trkpt lat="44.18054" lon="5.28194">
        <ele>1572.2</ele>
        <time>2026-05-14T09:49:31.000Z</time>
      </trkpt>
      <trkpt lat="44.18053" lon="5.28194">
        <ele>1572.2</ele>
        <time>2026-05-14T09:49:32.000Z</time>
      </trkpt>
      <trkpt lat="44.18052" lon="5.28195">
        <ele>1572.1</ele>
        <time>2026-05-14T09:49:33.000Z</time>
      </trkpt>
      <trkpt lat="44.18052" lon="5.28196">
        <ele>1572.6</ele>
        <time>2026-05-14T09:49:34.000Z</time>
      </trkpt>
      <trkpt lat="44.18051" lon="5.28197">
        <ele>1572.6</ele>
        <time>2026-05-14T09:49:35.000Z</time>
      </trkpt>
      <trkpt lat="44.18051" lon="5.28198">
        <ele>1572.4</ele>
        <time>2026-05-14T09:49:36.000Z</time>
      </trkpt>
      <trkpt lat="44.1805" lon="5.282">
        <ele>1572.4</ele>
        <time>2026-05-14T09:49:37.000Z</time>
      </trkpt>
      <trkpt lat="44.1805" lon="5.282">
        <ele>1572.5</ele>
        <time>2026-05-14T09:49:38.000Z</time>
      </trkpt>
      <trkpt lat="44.1805" lon="5.28201">
        <ele>1572.2</ele>
        <time>2026-05-14T09:49:39.000Z</time>
      </trkpt>
      <trkpt lat="44.18049" lon="5.28201">
        <ele>1572.2</ele>
        <time>2026-05-14T09:49:40.000Z</time>
      </trkpt>
      <trkpt lat="44.18049" lon="5.28201">
        <ele>1572.1</ele>
        <time>2026-05-14T09:49:41.000Z</time>
      </trkpt>
      <trkpt lat="44.18049" lon="5.28202">
        <ele>1571.8</ele>
        <time>2026-05-14T09:49:42.000Z</time>
      </trkpt>
      <trkpt lat="44.18048" lon="5.28203">
        <ele>1572</ele>
        <time>2026-05-14T09:49:43.000Z</time>
      </trkpt>
      <trkpt lat="44.18047" lon="5.28204">
        <ele>1571.5</ele>
        <time>2026-05-14T09:49:44.000Z</time>
      </trkpt>
      <trkpt lat="44.18047" lon="5.28206">
        <ele>1571.6</ele>
        <time>2026-05-14T09:49:45.000Z</time>
      </trkpt>
      <trkpt lat="44.18047" lon="5.28207">
        <ele>1572</ele>
        <time>2026-05-14T09:49:46.000Z</time>
      </trkpt>
      <trkpt lat="44.18047" lon="5.28207">
        <ele>1572.6</ele>
        <time>2026-05-14T09:49:47.000Z</time>
      </trkpt>
      <trkpt lat="44.18047" lon="5.28207">
        <ele>1572.3</ele>
        <time>2026-05-14T09:49:48.000Z</time>
      </trkpt>
      <trkpt lat="44.18046" lon="5.28208">
        <ele>1572.3</ele>
        <time>2026-05-14T09:49:49.000Z</time>
      </trkpt>
      <trkpt lat="44.18046" lon="5.28208">
        <ele>1572.8</ele>
        <time>2026-05-14T09:49:50.000Z</time>
      </trkpt>
      <trkpt lat="44.18046" lon="5.28209">
        <ele>1573.2</ele>
        <time>2026-05-14T09:49:51.000Z</time>
      </trkpt>
      <trkpt lat="44.18046" lon="5.2821">
        <ele>1573.2</ele>
        <time>2026-05-14T09:49:52.000Z</time>
      </trkpt>
      <trkpt lat="44.18046" lon="5.2821">
        <ele>1573</ele>
        <time>2026-05-14T09:49:53.000Z</time>
      </trkpt>
      <trkpt lat="44.18046" lon="5.2821">
        <ele>1572.8</ele>
        <time>2026-05-14T09:49:54.000Z</time>
      </trkpt>
      <trkpt lat="44.18045" lon="5.28211">
        <ele>1572.8</ele>
        <time>2026-05-14T09:49:55.000Z</time>
      </trkpt>
      <trkpt lat="44.18045" lon="5.28211">
        <ele>1572.8</ele>
        <time>2026-05-14T09:49:56.000Z</time>
      </trkpt>
      <trkpt lat="44.18045" lon="5.28211">
        <ele>1572.6</ele>
        <time>2026-05-14T09:49:57.000Z</time>
      </trkpt>
      <trkpt lat="44.18044" lon="5.28211">
        <ele>1572.1</ele>
        <time>2026-05-14T09:49:58.000Z</time>
      </trkpt>
      <trkpt lat="44.18043" lon="5.28211">
        <ele>1571.9</ele>
        <time>2026-05-14T09:49:59.000Z</time>
      </trkpt>
      <trkpt lat="44.18042" lon="5.28211">
        <ele>1571.9</ele>
        <time>2026-05-14T09:50:00.000Z</time>
      </trkpt>
      <trkpt lat="44.18041" lon="5.28213">
        <ele>1572.5</ele>
        <time>2026-05-14T09:50:01.000Z</time>
      </trkpt>
      <trkpt lat="44.18041" lon="5.28213">
        <ele>1572.6</ele>
        <time>2026-05-14T09:50:02.000Z</time>
      </trkpt>
      <trkpt lat="44.18041" lon="5.28213">
        <ele>1573.2</ele>
        <time>2026-05-14T09:50:03.000Z</time>
      </trkpt>
      <trkpt lat="44.18041" lon="5.28213">
        <ele>1572.9</ele>
        <time>2026-05-14T09:50:04.000Z</time>
      </trkpt>
      <trkpt lat="44.18041" lon="5.28214">
        <ele>1572.8</ele>
        <time>2026-05-14T09:50:05.000Z</time>
      </trkpt>
      <trkpt lat="44.18041" lon="5.28214">
        <ele>1572.8</ele>
        <time>2026-05-14T09:50:06.000Z</time>
      </trkpt>
      <trkpt lat="44.18041" lon="5.28214">
        <ele>1572.7</ele>
        <time>2026-05-14T09:50:07.000Z</time>
      </trkpt>
      <trkpt lat="44.1804" lon="5.28215">
        <ele>1571.8</ele>
        <time>2026-05-14T09:50:08.000Z</time>
      </trkpt>
      <trkpt lat="44.18039" lon="5.28216">
        <ele>1571.3</ele>
        <time>2026-05-14T09:50:09.000Z</time>
      </trkpt>
      <trkpt lat="44.18039" lon="5.28218">
        <ele>1571</ele>
        <time>2026-05-14T09:50:10.000Z</time>
      </trkpt>
      <trkpt lat="44.18039" lon="5.28218">
        <ele>1570.3</ele>
        <time>2026-05-14T09:50:11.000Z</time>
      </trkpt>
      <trkpt lat="44.18038" lon="5.28219">
        <ele>1570.1</ele>
        <time>2026-05-14T09:50:12.000Z</time>
      </trkpt>
      <trkpt lat="44.18037" lon="5.28219">
        <ele>1570.1</ele>
        <time>2026-05-14T09:50:13.000Z</time>
      </trkpt>
      <trkpt lat="44.18037" lon="5.2822">
        <ele>1570.4</ele>
        <time>2026-05-14T09:50:14.000Z</time>
      </trkpt>
      <trkpt lat="44.18035" lon="5.28223">
        <ele>1571</ele>
        <time>2026-05-14T09:50:15.000Z</time>
      </trkpt>
      <trkpt lat="44.18034" lon="5.28226">
        <ele>1571.4</ele>
        <time>2026-05-14T09:50:16.000Z</time>
      </trkpt>
      <trkpt lat="44.18032" lon="5.28229">
        <ele>1572</ele>
        <time>2026-05-14T09:50:17.000Z</time>
      </trkpt>
      <trkpt lat="44.18032" lon="5.2823">
        <ele>1572.1</ele>
        <time>2026-05-14T09:50:18.000Z</time>
      </trkpt>
      <trkpt lat="44.18031" lon="5.28232">
        <ele>1572.3</ele>
        <time>2026-05-14T09:50:19.000Z</time>
      </trkpt>
      <trkpt lat="44.18031" lon="5.28234">
        <ele>1572.6</ele>
        <time>2026-05-14T09:50:20.000Z</time>
      </trkpt>
      <trkpt lat="44.18031" lon="5.28236">
        <ele>1572.7</ele>
        <time>2026-05-14T09:50:21.000Z</time>
      </trkpt>
      <trkpt lat="44.1803" lon="5.28237">
        <ele>1572.8</ele>
        <time>2026-05-14T09:50:22.000Z</time>
      </trkpt>
      <trkpt lat="44.1803" lon="5.28238">
        <ele>1572.9</ele>
        <time>2026-05-14T09:50:23.000Z</time>
      </trkpt>
      <trkpt lat="44.1803" lon="5.28238">
        <ele>1573.1</ele>
        <time>2026-05-14T09:50:24.000Z</time>
      </trkpt>
      <trkpt lat="44.1803" lon="5.28238">
        <ele>1573.1</ele>
        <time>2026-05-14T09:50:25.000Z</time>
      </trkpt>
      <trkpt lat="44.1803" lon="5.28239">
        <ele>1573.4</ele>
        <time>2026-05-14T09:50:26.000Z</time>
      </trkpt>
      <trkpt lat="44.18029" lon="5.28241">
        <ele>1573.8</ele>
        <time>2026-05-14T09:50:27.000Z</time>
      </trkpt>
      <trkpt lat="44.18029" lon="5.28243">
        <ele>1574.2</ele>
        <time>2026-05-14T09:50:28.000Z</time>
      </trkpt>
      <trkpt lat="44.18028" lon="5.28246">
        <ele>1574.6</ele>
        <time>2026-05-14T09:50:29.000Z</time>
      </trkpt>
      <trkpt lat="44.18028" lon="5.28247">
        <ele>1574.9</ele>
        <time>2026-05-14T09:50:30.000Z</time>
      </trkpt>
      <trkpt lat="44.18027" lon="5.2825">
        <ele>1575.2</ele>
        <time>2026-05-14T09:50:31.000Z</time>
      </trkpt>
      <trkpt lat="44.18027" lon="5.28252">
        <ele>1575.7</ele>
        <time>2026-05-14T09:50:32.000Z</time>
      </trkpt>
      <trkpt lat="44.18027" lon="5.28253">
        <ele>1575.8</ele>
        <time>2026-05-14T09:50:33.000Z</time>
      </trkpt>
      <trkpt lat="44.18026" lon="5.28254">
        <ele>1576.4</ele>
        <time>2026-05-14T09:50:34.000Z</time>
      </trkpt>
      <trkpt lat="44.18026" lon="5.28256">
        <ele>1576.9</ele>
        <time>2026-05-14T09:50:35.000Z</time>
      </trkpt>
      <trkpt lat="44.18026" lon="5.28257">
        <ele>1577.4</ele>
        <time>2026-05-14T09:50:36.000Z</time>
      </trkpt>
      <trkpt lat="44.18026" lon="5.28257">
        <ele>1577.8</ele>
        <time>2026-05-14T09:50:37.000Z</time>
      </trkpt>
      <trkpt lat="44.18027" lon="5.28258">
        <ele>1578</ele>
        <time>2026-05-14T09:50:38.000Z</time>
      </trkpt>
      <trkpt lat="44.18027" lon="5.28259">
        <ele>1578.3</ele>
        <time>2026-05-14T09:50:39.000Z</time>
      </trkpt>
      <trkpt lat="44.18027" lon="5.28259">
        <ele>1578.2</ele>
        <time>2026-05-14T09:50:40.000Z</time>
      </trkpt>
      <trkpt lat="44.18027" lon="5.2826">
        <ele>1578.4</ele>
        <time>2026-05-14T09:50:41.000Z</time>
      </trkpt>
      <trkpt lat="44.18027" lon="5.28261">
        <ele>1578.7</ele>
        <time>2026-05-14T09:50:42.000Z</time>
      </trkpt>
      <trkpt lat="44.18027" lon="5.28262">
        <ele>1579.2</ele>
        <time>2026-05-14T09:50:43.000Z</time>
      </trkpt>
      <trkpt lat="44.18028" lon="5.28263">
        <ele>1579.7</ele>
        <time>2026-05-14T09:50:44.000Z</time>
      </trkpt>
      <trkpt lat="44.18028" lon="5.28265">
        <ele>1580.5</ele>
        <time>2026-05-14T09:50:45.000Z</time>
      </trkpt>
      <trkpt lat="44.18028" lon="5.28267">
        <ele>1580.6</ele>
        <time>2026-05-14T09:50:46.000Z</time>
      </trkpt>
      <trkpt lat="44.18028" lon="5.28269">
        <ele>1580.6</ele>
        <time>2026-05-14T09:50:47.000Z</time>
      </trkpt>
      <trkpt lat="44.18027" lon="5.28271">
        <ele>1582</ele>
        <time>2026-05-14T09:50:48.000Z</time>
      </trkpt>
      <trkpt lat="44.18027" lon="5.28271">
        <ele>1582.4</ele>
        <time>2026-05-14T09:50:49.000Z</time>
      </trkpt>
      <trkpt lat="44.18027" lon="5.28272">
        <ele>1582.8</ele>
        <time>2026-05-14T09:50:50.000Z</time>
      </trkpt>
      <trkpt lat="44.18027" lon="5.28273">
        <ele>1582.8</ele>
        <time>2026-05-14T09:50:51.000Z</time>
      </trkpt>
      <trkpt lat="44.18027" lon="5.28274">
        <ele>1583.1</ele>
        <time>2026-05-14T09:50:52.000Z</time>
      </trkpt>
      <trkpt lat="44.18028" lon="5.28275">
        <ele>1583.6</ele>
        <time>2026-05-14T09:50:53.000Z</time>
      </trkpt>
      <trkpt lat="44.18028" lon="5.28276">
        <ele>1584.1</ele>
        <time>2026-05-14T09:50:54.000Z</time>
      </trkpt>
      <trkpt lat="44.18029" lon="5.28276">
        <ele>1584.4</ele>
        <time>2026-05-14T09:50:55.000Z</time>
      </trkpt>
      <trkpt lat="44.1803" lon="5.28277">
        <ele>1584.7</ele>
        <time>2026-05-14T09:50:56.000Z</time>
      </trkpt>
      <trkpt lat="44.1803" lon="5.28277">
        <ele>1585.5</ele>
        <time>2026-05-14T09:50:57.000Z</time>
      </trkpt>
      <trkpt lat="44.18031" lon="5.28278">
        <ele>1585.9</ele>
        <time>2026-05-14T09:50:58.000Z</time>
      </trkpt>
      <trkpt lat="44.18031" lon="5.2828">
        <ele>1586.1</ele>
        <time>2026-05-14T09:50:59.000Z</time>
      </trkpt>
      <trkpt lat="44.18031" lon="5.28283">
        <ele>1586.7</ele>
        <time>2026-05-14T09:51:00.000Z</time>
      </trkpt>
      <trkpt lat="44.18032" lon="5.28284">
        <ele>1587.3</ele>
        <time>2026-05-14T09:51:01.000Z</time>
      </trkpt>
      <trkpt lat="44.18032" lon="5.28285">
        <ele>1587.6</ele>
        <time>2026-05-14T09:51:02.000Z</time>
      </trkpt>
      <trkpt lat="44.18032" lon="5.28287">
        <ele>1587.8</ele>
        <time>2026-05-14T09:51:03.000Z</time>
      </trkpt>
      <trkpt lat="44.18032" lon="5.2829">
        <ele>1588</ele>
        <time>2026-05-14T09:51:04.000Z</time>
      </trkpt>
      <trkpt lat="44.18032" lon="5.28293">
        <ele>1588.9</ele>
        <time>2026-05-14T09:51:05.000Z</time>
      </trkpt>
      <trkpt lat="44.18032" lon="5.28294">
        <ele>1588.9</ele>
        <time>2026-05-14T09:51:06.000Z</time>
      </trkpt>
      <trkpt lat="44.18032" lon="5.28295">
        <ele>1589.5</ele>
        <time>2026-05-14T09:51:07.000Z</time>
      </trkpt>
      <trkpt lat="44.18032" lon="5.28296">
        <ele>1590.2</ele>
        <time>2026-05-14T09:51:08.000Z</time>
      </trkpt>
      <trkpt lat="44.18032" lon="5.28297">
        <ele>1590.4</ele>
        <time>2026-05-14T09:51:09.000Z</time>
      </trkpt>
      <trkpt lat="44.18032" lon="5.28298">
        <ele>1591</ele>
        <time>2026-05-14T09:51:10.000Z</time>
      </trkpt>
      <trkpt lat="44.18032" lon="5.28299">
        <ele>1591</ele>
        <time>2026-05-14T09:51:11.000Z</time>
      </trkpt>
      <trkpt lat="44.18032" lon="5.283">
        <ele>1590.9</ele>
        <time>2026-05-14T09:51:12.000Z</time>
      </trkpt>
      <trkpt lat="44.18033" lon="5.28302">
        <ele>1590.3</ele>
        <time>2026-05-14T09:51:13.000Z</time>
      </trkpt>
      <trkpt lat="44.18033" lon="5.28303">
        <ele>1590.4</ele>
        <time>2026-05-14T09:51:14.000Z</time>
      </trkpt>
      <trkpt lat="44.18033" lon="5.28306">
        <ele>1590.1</ele>
        <time>2026-05-14T09:51:15.000Z</time>
      </trkpt>
      <trkpt lat="44.18033" lon="5.28307">
        <ele>1589.8</ele>
        <time>2026-05-14T09:51:16.000Z</time>
      </trkpt>
      <trkpt lat="44.18034" lon="5.28309">
        <ele>1589.5</ele>
        <time>2026-05-14T09:51:17.000Z</time>
      </trkpt>
      <trkpt lat="44.18034" lon="5.28311">
        <ele>1589.5</ele>
        <time>2026-05-14T09:51:18.000Z</time>
      </trkpt>
      <trkpt lat="44.18033" lon="5.28313">
        <ele>1590</ele>
        <time>2026-05-14T09:51:19.000Z</time>
      </trkpt>
      <trkpt lat="44.18034" lon="5.28315">
        <ele>1590.1</ele>
        <time>2026-05-14T09:51:20.000Z</time>
      </trkpt>
      <trkpt lat="44.18033" lon="5.28316">
        <ele>1591</ele>
        <time>2026-05-14T09:51:21.000Z</time>
      </trkpt>
      <trkpt lat="44.18033" lon="5.28318">
        <ele>1591.7</ele>
        <time>2026-05-14T09:51:22.000Z</time>
      </trkpt>
      <trkpt lat="44.18034" lon="5.28319">
        <ele>1591.6</ele>
        <time>2026-05-14T09:51:23.000Z</time>
      </trkpt>
      <trkpt lat="44.18034" lon="5.28321">
        <ele>1592.2</ele>
        <time>2026-05-14T09:51:24.000Z</time>
      </trkpt>
      <trkpt lat="44.18034" lon="5.28323">
        <ele>1592.9</ele>
        <time>2026-05-14T09:51:25.000Z</time>
      </trkpt>
      <trkpt lat="44.18034" lon="5.28324">
        <ele>1593.2</ele>
        <time>2026-05-14T09:51:26.000Z</time>
      </trkpt>
      <trkpt lat="44.18034" lon="5.28325">
        <ele>1592.5</ele>
        <time>2026-05-14T09:51:27.000Z</time>
      </trkpt>
      <trkpt lat="44.18034" lon="5.28326">
        <ele>1592.4</ele>
        <time>2026-05-14T09:51:28.000Z</time>
      </trkpt>
      <trkpt lat="44.18033" lon="5.28328">
        <ele>1592.3</ele>
        <time>2026-05-14T09:51:29.000Z</time>
      </trkpt>
      <trkpt lat="44.18033" lon="5.28329">
        <ele>1591.8</ele>
        <time>2026-05-14T09:51:30.000Z</time>
      </trkpt>
      <trkpt lat="44.18033" lon="5.2833">
        <ele>1592.8</ele>
        <time>2026-05-14T09:51:31.000Z</time>
      </trkpt>
      <trkpt lat="44.18033" lon="5.28331">
        <ele>1592.9</ele>
        <time>2026-05-14T09:51:32.000Z</time>
      </trkpt>
      <trkpt lat="44.18033" lon="5.28332">
        <ele>1593.1</ele>
        <time>2026-05-14T09:51:33.000Z</time>
      </trkpt>
      <trkpt lat="44.18033" lon="5.28334">
        <ele>1593.2</ele>
        <time>2026-05-14T09:51:34.000Z</time>
      </trkpt>
      <trkpt lat="44.18034" lon="5.28336">
        <ele>1593.6</ele>
        <time>2026-05-14T09:51:35.000Z</time>
      </trkpt>
      <trkpt lat="44.18033" lon="5.28338">
        <ele>1594</ele>
        <time>2026-05-14T09:51:36.000Z</time>
      </trkpt>
      <trkpt lat="44.18033" lon="5.28339">
        <ele>1594</ele>
        <time>2026-05-14T09:51:37.000Z</time>
      </trkpt>
      <trkpt lat="44.18033" lon="5.2834">
        <ele>1593.5</ele>
        <time>2026-05-14T09:51:38.000Z</time>
      </trkpt>
      <trkpt lat="44.18033" lon="5.28341">
        <ele>1593.2</ele>
        <time>2026-05-14T09:51:39.000Z</time>
      </trkpt>
      <trkpt lat="44.18033" lon="5.28341">
        <ele>1593.3</ele>
        <time>2026-05-14T09:51:40.000Z</time>
      </trkpt>
      <trkpt lat="44.18033" lon="5.28342">
        <ele>1593.4</ele>
        <time>2026-05-14T09:51:41.000Z</time>
      </trkpt>
      <trkpt lat="44.18033" lon="5.28344">
        <ele>1593.2</ele>
        <time>2026-05-14T09:51:42.000Z</time>
      </trkpt>
      <trkpt lat="44.18033" lon="5.28346">
        <ele>1593.7</ele>
        <time>2026-05-14T09:51:43.000Z</time>
      </trkpt>
      <trkpt lat="44.18033" lon="5.28348">
        <ele>1593.7</ele>
        <time>2026-05-14T09:51:44.000Z</time>
      </trkpt>
      <trkpt lat="44.18033" lon="5.28349">
        <ele>1593.5</ele>
        <time>2026-05-14T09:51:45.000Z</time>
      </trkpt>
      <trkpt lat="44.18033" lon="5.2835">
        <ele>1593.6</ele>
        <time>2026-05-14T09:51:46.000Z</time>
      </trkpt>
      <trkpt lat="44.18033" lon="5.28351">
        <ele>1593.6</ele>
        <time>2026-05-14T09:51:47.000Z</time>
      </trkpt>
      <trkpt lat="44.18033" lon="5.28352">
        <ele>1593.6</ele>
        <time>2026-05-14T09:51:48.000Z</time>
      </trkpt>
      <trkpt lat="44.18033" lon="5.28353">
        <ele>1593.8</ele>
        <time>2026-05-14T09:51:49.000Z</time>
      </trkpt>
      <trkpt lat="44.18033" lon="5.28355">
        <ele>1593.6</ele>
        <time>2026-05-14T09:51:50.000Z</time>
      </trkpt>
      <trkpt lat="44.18033" lon="5.28356">
        <ele>1593.5</ele>
        <time>2026-05-14T09:51:51.000Z</time>
      </trkpt>
      <trkpt lat="44.18033" lon="5.28357">
        <ele>1593.7</ele>
        <time>2026-05-14T09:51:52.000Z</time>
      </trkpt>
      <trkpt lat="44.18033" lon="5.28357">
        <ele>1594</ele>
        <time>2026-05-14T09:51:53.000Z</time>
      </trkpt>
      <trkpt lat="44.18032" lon="5.28357">
        <ele>1594.2</ele>
        <time>2026-05-14T09:51:54.000Z</time>
      </trkpt>
      <trkpt lat="44.18031" lon="5.28358">
        <ele>1594.2</ele>
        <time>2026-05-14T09:51:55.000Z</time>
      </trkpt>
      <trkpt lat="44.18031" lon="5.28359">
        <ele>1594.1</ele>
        <time>2026-05-14T09:51:56.000Z</time>
      </trkpt>
      <trkpt lat="44.1803" lon="5.28361">
        <ele>1594.2</ele>
        <time>2026-05-14T09:51:57.000Z</time>
      </trkpt>
      <trkpt lat="44.1803" lon="5.28362">
        <ele>1594.2</ele>
        <time>2026-05-14T09:51:58.000Z</time>
      </trkpt>
      <trkpt lat="44.18029" lon="5.28364">
        <ele>1594.4</ele>
        <time>2026-05-14T09:51:59.000Z</time>
      </trkpt>
      <trkpt lat="44.18029" lon="5.28365">
        <ele>1594.8</ele>
        <time>2026-05-14T09:52:00.000Z</time>
      </trkpt>
      <trkpt lat="44.18029" lon="5.28366">
        <ele>1595</ele>
        <time>2026-05-14T09:52:01.000Z</time>
      </trkpt>
      <trkpt lat="44.18028" lon="5.28368">
        <ele>1594.8</ele>
        <time>2026-05-14T09:52:02.000Z</time>
      </trkpt>
      <trkpt lat="44.18028" lon="5.28369">
        <ele>1594.9</ele>
        <time>2026-05-14T09:52:03.000Z</time>
      </trkpt>
      <trkpt lat="44.18028" lon="5.28371">
        <ele>1594.5</ele>
        <time>2026-05-14T09:52:04.000Z</time>
      </trkpt>
      <trkpt lat="44.18028" lon="5.28372">
        <ele>1594</ele>
        <time>2026-05-14T09:52:05.000Z</time>
      </trkpt>
      <trkpt lat="44.18028" lon="5.28374">
        <ele>1594.1</ele>
        <time>2026-05-14T09:52:06.000Z</time>
      </trkpt>
      <trkpt lat="44.18028" lon="5.28376">
        <ele>1594.6</ele>
        <time>2026-05-14T09:52:07.000Z</time>
      </trkpt>
      <trkpt lat="44.18029" lon="5.28377">
        <ele>1594.9</ele>
        <time>2026-05-14T09:52:08.000Z</time>
      </trkpt>
      <trkpt lat="44.18028" lon="5.28378">
        <ele>1595.2</ele>
        <time>2026-05-14T09:52:09.000Z</time>
      </trkpt>
      <trkpt lat="44.18028" lon="5.28379">
        <ele>1595.1</ele>
        <time>2026-05-14T09:52:10.000Z</time>
      </trkpt>
      <trkpt lat="44.18027" lon="5.2838">
        <ele>1594.4</ele>
        <time>2026-05-14T09:52:11.000Z</time>
      </trkpt>
      <trkpt lat="44.18026" lon="5.28382">
        <ele>1594.5</ele>
        <time>2026-05-14T09:52:12.000Z</time>
      </trkpt>
      <trkpt lat="44.18026" lon="5.28383">
        <ele>1595.3</ele>
        <time>2026-05-14T09:52:13.000Z</time>
      </trkpt>
      <trkpt lat="44.18026" lon="5.28384">
        <ele>1595.3</ele>
        <time>2026-05-14T09:52:14.000Z</time>
      </trkpt>
      <trkpt lat="44.18026" lon="5.28385">
        <ele>1595.8</ele>
        <time>2026-05-14T09:52:15.000Z</time>
      </trkpt>
      <trkpt lat="44.18026" lon="5.28385">
        <ele>1596.4</ele>
        <time>2026-05-14T09:52:16.000Z</time>
      </trkpt>
      <trkpt lat="44.18026" lon="5.28386">
        <ele>1596.6</ele>
        <time>2026-05-14T09:52:17.000Z</time>
      </trkpt>
      <trkpt lat="44.18025" lon="5.28387">
        <ele>1597.1</ele>
        <time>2026-05-14T09:52:18.000Z</time>
      </trkpt>
      <trkpt lat="44.18025" lon="5.28387">
        <ele>1597.5</ele>
        <time>2026-05-14T09:52:19.000Z</time>
      </trkpt>
      <trkpt lat="44.18024" lon="5.28387">
        <ele>1596.9</ele>
        <time>2026-05-14T09:52:20.000Z</time>
      </trkpt>
      <trkpt lat="44.18024" lon="5.28388">
        <ele>1596.4</ele>
        <time>2026-05-14T09:52:21.000Z</time>
      </trkpt>
      <trkpt lat="44.18024" lon="5.28389">
        <ele>1596.2</ele>
        <time>2026-05-14T09:52:22.000Z</time>
      </trkpt>
      <trkpt lat="44.18024" lon="5.28391">
        <ele>1596.1</ele>
        <time>2026-05-14T09:52:23.000Z</time>
      </trkpt>
      <trkpt lat="44.18024" lon="5.28391">
        <ele>1596.2</ele>
        <time>2026-05-14T09:52:24.000Z</time>
      </trkpt>
      <trkpt lat="44.18024" lon="5.28392">
        <ele>1596.5</ele>
        <time>2026-05-14T09:52:25.000Z</time>
      </trkpt>
      <trkpt lat="44.18023" lon="5.28391">
        <ele>1596.5</ele>
        <time>2026-05-14T09:52:26.000Z</time>
      </trkpt>
      <trkpt lat="44.18023" lon="5.28391">
        <ele>1596.7</ele>
        <time>2026-05-14T09:52:27.000Z</time>
      </trkpt>
      <trkpt lat="44.18022" lon="5.28391">
        <ele>1596.8</ele>
        <time>2026-05-14T09:52:28.000Z</time>
      </trkpt>
      <trkpt lat="44.18022" lon="5.28391">
        <ele>1597</ele>
        <time>2026-05-14T09:52:29.000Z</time>
      </trkpt>
      <trkpt lat="44.18021" lon="5.28391">
        <ele>1597.2</ele>
        <time>2026-05-14T09:52:30.000Z</time>
      </trkpt>
      <trkpt lat="44.18021" lon="5.28392">
        <ele>1597.1</ele>
        <time>2026-05-14T09:52:31.000Z</time>
      </trkpt>
      <trkpt lat="44.1802" lon="5.28392">
        <ele>1596.9</ele>
        <time>2026-05-14T09:52:32.000Z</time>
      </trkpt>
      <trkpt lat="44.18019" lon="5.28393">
        <ele>1596.8</ele>
        <time>2026-05-14T09:52:33.000Z</time>
      </trkpt>
      <trkpt lat="44.18019" lon="5.28394">
        <ele>1596.7</ele>
        <time>2026-05-14T09:52:34.000Z</time>
      </trkpt>
      <trkpt lat="44.18018" lon="5.28395">
        <ele>1596.2</ele>
        <time>2026-05-14T09:52:35.000Z</time>
      </trkpt>
      <trkpt lat="44.18018" lon="5.28396">
        <ele>1595.8</ele>
        <time>2026-05-14T09:52:36.000Z</time>
      </trkpt>
      <trkpt lat="44.18017" lon="5.28397">
        <ele>1595.9</ele>
        <time>2026-05-14T09:52:37.000Z</time>
      </trkpt>
      <trkpt lat="44.18017" lon="5.28398">
        <ele>1595.9</ele>
        <time>2026-05-14T09:52:38.000Z</time>
      </trkpt>
      <trkpt lat="44.18017" lon="5.28399">
        <ele>1595.8</ele>
        <time>2026-05-14T09:52:39.000Z</time>
      </trkpt>
      <trkpt lat="44.18016" lon="5.28399">
        <ele>1595.3</ele>
        <time>2026-05-14T09:52:40.000Z</time>
      </trkpt>
      <trkpt lat="44.18015" lon="5.284">
        <ele>1595.4</ele>
        <time>2026-05-14T09:52:41.000Z</time>
      </trkpt>
      <trkpt lat="44.18015" lon="5.284">
        <ele>1595.7</ele>
        <time>2026-05-14T09:52:42.000Z</time>
      </trkpt>
      <trkpt lat="44.18015" lon="5.28401">
        <ele>1596.1</ele>
        <time>2026-05-14T09:52:43.000Z</time>
      </trkpt>
      <trkpt lat="44.18014" lon="5.28402">
        <ele>1596.4</ele>
        <time>2026-05-14T09:52:44.000Z</time>
      </trkpt>
      <trkpt lat="44.18013" lon="5.28403">
        <ele>1596.6</ele>
        <time>2026-05-14T09:52:45.000Z</time>
      </trkpt>
      <trkpt lat="44.18013" lon="5.28403">
        <ele>1596.1</ele>
        <time>2026-05-14T09:52:46.000Z</time>
      </trkpt>
      <trkpt lat="44.18013" lon="5.28404">
        <ele>1596</ele>
        <time>2026-05-14T09:52:47.000Z</time>
      </trkpt>
      <trkpt lat="44.18012" lon="5.28404">
        <ele>1596.3</ele>
        <time>2026-05-14T09:52:48.000Z</time>
      </trkpt>
      <trkpt lat="44.18011" lon="5.28405">
        <ele>1596.6</ele>
        <time>2026-05-14T09:52:49.000Z</time>
      </trkpt>
      <trkpt lat="44.1801" lon="5.28406">
        <ele>1596.9</ele>
        <time>2026-05-14T09:52:50.000Z</time>
      </trkpt>
      <trkpt lat="44.18009" lon="5.28407">
        <ele>1596.8</ele>
        <time>2026-05-14T09:52:51.000Z</time>
      </trkpt>
      <trkpt lat="44.18008" lon="5.28408">
        <ele>1596.7</ele>
        <time>2026-05-14T09:52:52.000Z</time>
      </trkpt>
      <trkpt lat="44.18008" lon="5.28409">
        <ele>1596.6</ele>
        <time>2026-05-14T09:52:53.000Z</time>
      </trkpt>
      <trkpt lat="44.18007" lon="5.28409">
        <ele>1596.7</ele>
        <time>2026-05-14T09:52:54.000Z</time>
      </trkpt>
      <trkpt lat="44.18006" lon="5.2841">
        <ele>1596.1</ele>
        <time>2026-05-14T09:52:55.000Z</time>
      </trkpt>
      <trkpt lat="44.18006" lon="5.28411">
        <ele>1596.2</ele>
        <time>2026-05-14T09:52:56.000Z</time>
      </trkpt>
      <trkpt lat="44.18005" lon="5.28411">
        <ele>1596.1</ele>
        <time>2026-05-14T09:52:57.000Z</time>
      </trkpt>
      <trkpt lat="44.18003" lon="5.28411">
        <ele>1595.9</ele>
        <time>2026-05-14T09:52:58.000Z</time>
      </trkpt>
      <trkpt lat="44.18003" lon="5.28411">
        <ele>1595.8</ele>
        <time>2026-05-14T09:52:59.000Z</time>
      </trkpt>
      <trkpt lat="44.18002" lon="5.28412">
        <ele>1595.9</ele>
        <time>2026-05-14T09:53:00.000Z</time>
      </trkpt>
      <trkpt lat="44.18001" lon="5.28413">
        <ele>1596</ele>
        <time>2026-05-14T09:53:01.000Z</time>
      </trkpt>
      <trkpt lat="44.18001" lon="5.28413">
        <ele>1595.5</ele>
        <time>2026-05-14T09:53:02.000Z</time>
      </trkpt>
      <trkpt lat="44.18" lon="5.28414">
        <ele>1594.7</ele>
        <time>2026-05-14T09:53:03.000Z</time>
      </trkpt>
      <trkpt lat="44.17999" lon="5.28416">
        <ele>1594.3</ele>
        <time>2026-05-14T09:53:04.000Z</time>
      </trkpt>
      <trkpt lat="44.17998" lon="5.28416">
        <ele>1594.2</ele>
        <time>2026-05-14T09:53:05.000Z</time>
      </trkpt>
      <trkpt lat="44.17998" lon="5.28417">
        <ele>1594.4</ele>
        <time>2026-05-14T09:53:06.000Z</time>
      </trkpt>
      <trkpt lat="44.17997" lon="5.28418">
        <ele>1594.6</ele>
        <time>2026-05-14T09:53:07.000Z</time>
      </trkpt>
      <trkpt lat="44.17996" lon="5.28418">
        <ele>1594.3</ele>
        <time>2026-05-14T09:53:08.000Z</time>
      </trkpt>
      <trkpt lat="44.17995" lon="5.28418">
        <ele>1594.1</ele>
        <time>2026-05-14T09:53:09.000Z</time>
      </trkpt>
      <trkpt lat="44.17994" lon="5.28419">
        <ele>1594</ele>
        <time>2026-05-14T09:53:10.000Z</time>
      </trkpt>
      <trkpt lat="44.17993" lon="5.2842">
        <ele>1594</ele>
        <time>2026-05-14T09:53:11.000Z</time>
      </trkpt>
      <trkpt lat="44.17992" lon="5.28421">
        <ele>1594</ele>
        <time>2026-05-14T09:53:12.000Z</time>
      </trkpt>
      <trkpt lat="44.17991" lon="5.28421">
        <ele>1594.1</ele>
        <time>2026-05-14T09:53:13.000Z</time>
      </trkpt>
      <trkpt lat="44.1799" lon="5.28422">
        <ele>1594.6</ele>
        <time>2026-05-14T09:53:14.000Z</time>
      </trkpt>
      <trkpt lat="44.1799" lon="5.28423">
        <ele>1594.5</ele>
        <time>2026-05-14T09:53:15.000Z</time>
      </trkpt>
      <trkpt lat="44.17988" lon="5.28423">
        <ele>1594.4</ele>
        <time>2026-05-14T09:53:16.000Z</time>
      </trkpt>
      <trkpt lat="44.17988" lon="5.28424">
        <ele>1594.1</ele>
        <time>2026-05-14T09:53:17.000Z</time>
      </trkpt>
      <trkpt lat="44.17987" lon="5.28424">
        <ele>1594</ele>
        <time>2026-05-14T09:53:18.000Z</time>
      </trkpt>
      <trkpt lat="44.17986" lon="5.28426">
        <ele>1594.2</ele>
        <time>2026-05-14T09:53:19.000Z</time>
      </trkpt>
      <trkpt lat="44.17984" lon="5.28426">
        <ele>1594.3</ele>
        <time>2026-05-14T09:53:20.000Z</time>
      </trkpt>
      <trkpt lat="44.17983" lon="5.28426">
        <ele>1593.9</ele>
        <time>2026-05-14T09:53:21.000Z</time>
      </trkpt>
      <trkpt lat="44.17983" lon="5.28427">
        <ele>1594.1</ele>
        <time>2026-05-14T09:53:22.000Z</time>
      </trkpt>
      <trkpt lat="44.17981" lon="5.28427">
        <ele>1593.7</ele>
        <time>2026-05-14T09:53:23.000Z</time>
      </trkpt>
      <trkpt lat="44.1798" lon="5.28427">
        <ele>1593.4</ele>
        <time>2026-05-14T09:53:24.000Z</time>
      </trkpt>
      <trkpt lat="44.17979" lon="5.28429">
        <ele>1594</ele>
        <time>2026-05-14T09:53:25.000Z</time>
      </trkpt>
      <trkpt lat="44.17978" lon="5.28429">
        <ele>1594.2</ele>
        <time>2026-05-14T09:53:26.000Z</time>
      </trkpt>
      <trkpt lat="44.17977" lon="5.28431">
        <ele>1594.2</ele>
        <time>2026-05-14T09:53:27.000Z</time>
      </trkpt>
      <trkpt lat="44.17977" lon="5.28431">
        <ele>1594.2</ele>
        <time>2026-05-14T09:53:28.000Z</time>
      </trkpt>
      <trkpt lat="44.17976" lon="5.28432">
        <ele>1594.1</ele>
        <time>2026-05-14T09:53:29.000Z</time>
      </trkpt>
      <trkpt lat="44.17975" lon="5.28433">
        <ele>1594.2</ele>
        <time>2026-05-14T09:53:30.000Z</time>
      </trkpt>
      <trkpt lat="44.17974" lon="5.28434">
        <ele>1594.2</ele>
        <time>2026-05-14T09:53:31.000Z</time>
      </trkpt>
      <trkpt lat="44.17973" lon="5.28436">
        <ele>1594.3</ele>
        <time>2026-05-14T09:53:32.000Z</time>
      </trkpt>
      <trkpt lat="44.17972" lon="5.28437">
        <ele>1594.6</ele>
        <time>2026-05-14T09:53:33.000Z</time>
      </trkpt>
      <trkpt lat="44.17972" lon="5.28438">
        <ele>1594.9</ele>
        <time>2026-05-14T09:53:34.000Z</time>
      </trkpt>
      <trkpt lat="44.17972" lon="5.28439">
        <ele>1594.9</ele>
        <time>2026-05-14T09:53:35.000Z</time>
      </trkpt>
      <trkpt lat="44.17972" lon="5.28439">
        <ele>1595.2</ele>
        <time>2026-05-14T09:53:36.000Z</time>
      </trkpt>
      <trkpt lat="44.17971" lon="5.2844">
        <ele>1595.1</ele>
        <time>2026-05-14T09:53:37.000Z</time>
      </trkpt>
      <trkpt lat="44.17971" lon="5.2844">
        <ele>1595.1</ele>
        <time>2026-05-14T09:53:38.000Z</time>
      </trkpt>
      <trkpt lat="44.1797" lon="5.28439">
        <ele>1595</ele>
        <time>2026-05-14T09:53:39.000Z</time>
      </trkpt>
      <trkpt lat="44.17969" lon="5.2844">
        <ele>1595</ele>
        <time>2026-05-14T09:53:40.000Z</time>
      </trkpt>
      <trkpt lat="44.17969" lon="5.2844">
        <ele>1595.2</ele>
        <time>2026-05-14T09:53:41.000Z</time>
      </trkpt>
      <trkpt lat="44.17969" lon="5.2844">
        <ele>1595</ele>
        <time>2026-05-14T09:53:42.000Z</time>
      </trkpt>
      <trkpt lat="44.17968" lon="5.2844">
        <ele>1595</ele>
        <time>2026-05-14T09:53:43.000Z</time>
      </trkpt>
      <trkpt lat="44.17967" lon="5.2844">
        <ele>1595</ele>
        <time>2026-05-14T09:53:44.000Z</time>
      </trkpt>
      <trkpt lat="44.17966" lon="5.28441">
        <ele>1594.9</ele>
        <time>2026-05-14T09:53:45.000Z</time>
      </trkpt>
      <trkpt lat="44.17965" lon="5.28443">
        <ele>1595.1</ele>
        <time>2026-05-14T09:53:46.000Z</time>
      </trkpt>
      <trkpt lat="44.17965" lon="5.28443">
        <ele>1595</ele>
        <time>2026-05-14T09:53:47.000Z</time>
      </trkpt>
      <trkpt lat="44.17964" lon="5.28444">
        <ele>1594.9</ele>
        <time>2026-05-14T09:53:48.000Z</time>
      </trkpt>
      <trkpt lat="44.17963" lon="5.28444">
        <ele>1594.7</ele>
        <time>2026-05-14T09:53:49.000Z</time>
      </trkpt>
      <trkpt lat="44.17962" lon="5.28445">
        <ele>1594.9</ele>
        <time>2026-05-14T09:53:50.000Z</time>
      </trkpt>
      <trkpt lat="44.17961" lon="5.28445">
        <ele>1595.3</ele>
        <time>2026-05-14T09:53:51.000Z</time>
      </trkpt>
      <trkpt lat="44.17959" lon="5.28446">
        <ele>1595.6</ele>
        <time>2026-05-14T09:53:52.000Z</time>
      </trkpt>
      <trkpt lat="44.17958" lon="5.28447">
        <ele>1595.8</ele>
        <time>2026-05-14T09:53:53.000Z</time>
      </trkpt>
      <trkpt lat="44.17957" lon="5.28447">
        <ele>1595.2</ele>
        <time>2026-05-14T09:53:54.000Z</time>
      </trkpt>
      <trkpt lat="44.17956" lon="5.28447">
        <ele>1595.5</ele>
        <time>2026-05-14T09:53:55.000Z</time>
      </trkpt>
      <trkpt lat="44.17955" lon="5.28448">
        <ele>1595.5</ele>
        <time>2026-05-14T09:53:56.000Z</time>
      </trkpt>
      <trkpt lat="44.17954" lon="5.28449">
        <ele>1595.3</ele>
        <time>2026-05-14T09:53:57.000Z</time>
      </trkpt>
      <trkpt lat="44.17953" lon="5.28449">
        <ele>1595.3</ele>
        <time>2026-05-14T09:53:58.000Z</time>
      </trkpt>
      <trkpt lat="44.17952" lon="5.28449">
        <ele>1595</ele>
        <time>2026-05-14T09:53:59.000Z</time>
      </trkpt>
      <trkpt lat="44.17952" lon="5.2845">
        <ele>1594.8</ele>
        <time>2026-05-14T09:54:00.000Z</time>
      </trkpt>
      <trkpt lat="44.17951" lon="5.2845">
        <ele>1594.8</ele>
        <time>2026-05-14T09:54:01.000Z</time>
      </trkpt>
      <trkpt lat="44.17949" lon="5.2845">
        <ele>1594.8</ele>
        <time>2026-05-14T09:54:02.000Z</time>
      </trkpt>
      <trkpt lat="44.17948" lon="5.28451">
        <ele>1595</ele>
        <time>2026-05-14T09:54:03.000Z</time>
      </trkpt>
      <trkpt lat="44.17947" lon="5.28451">
        <ele>1595.2</ele>
        <time>2026-05-14T09:54:04.000Z</time>
      </trkpt>
      <trkpt lat="44.17947" lon="5.28452">
        <ele>1595.3</ele>
        <time>2026-05-14T09:54:05.000Z</time>
      </trkpt>
      <trkpt lat="44.17946" lon="5.28454">
        <ele>1595.5</ele>
        <time>2026-05-14T09:54:06.000Z</time>
      </trkpt>
      <trkpt lat="44.17945" lon="5.28455">
        <ele>1595.6</ele>
        <time>2026-05-14T09:54:07.000Z</time>
      </trkpt>
      <trkpt lat="44.17944" lon="5.28456">
        <ele>1595.5</ele>
        <time>2026-05-14T09:54:08.000Z</time>
      </trkpt>
      <trkpt lat="44.17944" lon="5.28456">
        <ele>1595.6</ele>
        <time>2026-05-14T09:54:09.000Z</time>
      </trkpt>
      <trkpt lat="44.17943" lon="5.28457">
        <ele>1595.2</ele>
        <time>2026-05-14T09:54:10.000Z</time>
      </trkpt>
      <trkpt lat="44.17942" lon="5.28457">
        <ele>1595</ele>
        <time>2026-05-14T09:54:11.000Z</time>
      </trkpt>
      <trkpt lat="44.17941" lon="5.28458">
        <ele>1595</ele>
        <time>2026-05-14T09:54:12.000Z</time>
      </trkpt>
      <trkpt lat="44.17941" lon="5.28458">
        <ele>1594.6</ele>
        <time>2026-05-14T09:54:13.000Z</time>
      </trkpt>
      <trkpt lat="44.1794" lon="5.28459">
        <ele>1595.1</ele>
        <time>2026-05-14T09:54:14.000Z</time>
      </trkpt>
      <trkpt lat="44.17939" lon="5.28461">
        <ele>1595.3</ele>
        <time>2026-05-14T09:54:15.000Z</time>
      </trkpt>
      <trkpt lat="44.17938" lon="5.28462">
        <ele>1595.6</ele>
        <time>2026-05-14T09:54:16.000Z</time>
      </trkpt>
      <trkpt lat="44.17937" lon="5.28464">
        <ele>1595.8</ele>
        <time>2026-05-14T09:54:17.000Z</time>
      </trkpt>
      <trkpt lat="44.17936" lon="5.28464">
        <ele>1595.7</ele>
        <time>2026-05-14T09:54:18.000Z</time>
      </trkpt>
      <trkpt lat="44.17935" lon="5.28465">
        <ele>1596.1</ele>
        <time>2026-05-14T09:54:19.000Z</time>
      </trkpt>
      <trkpt lat="44.17935" lon="5.28465">
        <ele>1596</ele>
        <time>2026-05-14T09:54:20.000Z</time>
      </trkpt>
      <trkpt lat="44.17935" lon="5.28466">
        <ele>1596</ele>
        <time>2026-05-14T09:54:21.000Z</time>
      </trkpt>
      <trkpt lat="44.17934" lon="5.28468">
        <ele>1596.5</ele>
        <time>2026-05-14T09:54:22.000Z</time>
      </trkpt>
      <trkpt lat="44.17934" lon="5.28469">
        <ele>1596.7</ele>
        <time>2026-05-14T09:54:23.000Z</time>
      </trkpt>
      <trkpt lat="44.17934" lon="5.2847">
        <ele>1597</ele>
        <time>2026-05-14T09:54:24.000Z</time>
      </trkpt>
      <trkpt lat="44.17934" lon="5.2847">
        <ele>1597</ele>
        <time>2026-05-14T09:54:25.000Z</time>
      </trkpt>
      <trkpt lat="44.17934" lon="5.28471">
        <ele>1597.2</ele>
        <time>2026-05-14T09:54:26.000Z</time>
      </trkpt>
      <trkpt lat="44.17933" lon="5.28472">
        <ele>1597.2</ele>
        <time>2026-05-14T09:54:27.000Z</time>
      </trkpt>
      <trkpt lat="44.17932" lon="5.28473">
        <ele>1597.7</ele>
        <time>2026-05-14T09:54:28.000Z</time>
      </trkpt>
      <trkpt lat="44.17931" lon="5.28472">
        <ele>1597.6</ele>
        <time>2026-05-14T09:54:29.000Z</time>
      </trkpt>
      <trkpt lat="44.17931" lon="5.28473">
        <ele>1597.8</ele>
        <time>2026-05-14T09:54:30.000Z</time>
      </trkpt>
      <trkpt lat="44.17929" lon="5.28473">
        <ele>1598.4</ele>
        <time>2026-05-14T09:54:31.000Z</time>
      </trkpt>
      <trkpt lat="44.17928" lon="5.28473">
        <ele>1599</ele>
        <time>2026-05-14T09:54:32.000Z</time>
      </trkpt>
      <trkpt lat="44.17927" lon="5.28473">
        <ele>1598.8</ele>
        <time>2026-05-14T09:54:33.000Z</time>
      </trkpt>
      <trkpt lat="44.17927" lon="5.28473">
        <ele>1599</ele>
        <time>2026-05-14T09:54:34.000Z</time>
      </trkpt>
      <trkpt lat="44.17926" lon="5.28474">
        <ele>1599.1</ele>
        <time>2026-05-14T09:54:35.000Z</time>
      </trkpt>
      <trkpt lat="44.17925" lon="5.28476">
        <ele>1599.1</ele>
        <time>2026-05-14T09:54:36.000Z</time>
      </trkpt>
      <trkpt lat="44.17924" lon="5.28477">
        <ele>1599.3</ele>
        <time>2026-05-14T09:54:37.000Z</time>
      </trkpt>
      <trkpt lat="44.17923" lon="5.28477">
        <ele>1599.6</ele>
        <time>2026-05-14T09:54:38.000Z</time>
      </trkpt>
      <trkpt lat="44.17922" lon="5.28478">
        <ele>1600.1</ele>
        <time>2026-05-14T09:54:39.000Z</time>
      </trkpt>
      <trkpt lat="44.17922" lon="5.28478">
        <ele>1601.3</ele>
        <time>2026-05-14T09:54:40.000Z</time>
      </trkpt>
      <trkpt lat="44.17922" lon="5.28478">
        <ele>1601.8</ele>
        <time>2026-05-14T09:54:41.000Z</time>
      </trkpt>
      <trkpt lat="44.17922" lon="5.28478">
        <ele>1601.7</ele>
        <time>2026-05-14T09:54:42.000Z</time>
      </trkpt>
      <trkpt lat="44.17922" lon="5.28478">
        <ele>1601.9</ele>
        <time>2026-05-14T09:54:43.000Z</time>
      </trkpt>
      <trkpt lat="44.17921" lon="5.28478">
        <ele>1602.2</ele>
        <time>2026-05-14T09:54:44.000Z</time>
      </trkpt>
      <trkpt lat="44.1792" lon="5.28478">
        <ele>1602.6</ele>
        <time>2026-05-14T09:54:45.000Z</time>
      </trkpt>
      <trkpt lat="44.1792" lon="5.28477">
        <ele>1602.8</ele>
        <time>2026-05-14T09:54:46.000Z</time>
      </trkpt>
      <trkpt lat="44.17918" lon="5.28477">
        <ele>1602.6</ele>
        <time>2026-05-14T09:54:47.000Z</time>
      </trkpt>
      <trkpt lat="44.17917" lon="5.28477">
        <ele>1602.5</ele>
        <time>2026-05-14T09:54:48.000Z</time>
      </trkpt>
      <trkpt lat="44.17915" lon="5.28476">
        <ele>1602.7</ele>
        <time>2026-05-14T09:54:49.000Z</time>
      </trkpt>
      <trkpt lat="44.17915" lon="5.28476">
        <ele>1602.7</ele>
        <time>2026-05-14T09:54:50.000Z</time>
      </trkpt>
      <trkpt lat="44.17914" lon="5.28475">
        <ele>1603.2</ele>
        <time>2026-05-14T09:54:51.000Z</time>
      </trkpt>
      <trkpt lat="44.17913" lon="5.28476">
        <ele>1603</ele>
        <time>2026-05-14T09:54:52.000Z</time>
      </trkpt>
      <trkpt lat="44.17913" lon="5.28475">
        <ele>1603.1</ele>
        <time>2026-05-14T09:54:53.000Z</time>
      </trkpt>
      <trkpt lat="44.17912" lon="5.28475">
        <ele>1603</ele>
        <time>2026-05-14T09:54:54.000Z</time>
      </trkpt>
      <trkpt lat="44.17911" lon="5.28475">
        <ele>1602.7</ele>
        <time>2026-05-14T09:54:55.000Z</time>
      </trkpt>
      <trkpt lat="44.1791" lon="5.28474">
        <ele>1602.3</ele>
        <time>2026-05-14T09:54:56.000Z</time>
      </trkpt>
      <trkpt lat="44.17909" lon="5.28474">
        <ele>1602.2</ele>
        <time>2026-05-14T09:54:57.000Z</time>
      </trkpt>
      <trkpt lat="44.17908" lon="5.28473">
        <ele>1602.1</ele>
        <time>2026-05-14T09:54:58.000Z</time>
      </trkpt>
      <trkpt lat="44.17906" lon="5.28473">
        <ele>1602.2</ele>
        <time>2026-05-14T09:54:59.000Z</time>
      </trkpt>
      <trkpt lat="44.17905" lon="5.28473">
        <ele>1602.3</ele>
        <time>2026-05-14T09:55:00.000Z</time>
      </trkpt>
      <trkpt lat="44.17905" lon="5.28473">
        <ele>1602.4</ele>
        <time>2026-05-14T09:55:01.000Z</time>
      </trkpt>
      <trkpt lat="44.17904" lon="5.28473">
        <ele>1602.5</ele>
        <time>2026-05-14T09:55:02.000Z</time>
      </trkpt>
      <trkpt lat="44.17904" lon="5.28473">
        <ele>1602.5</ele>
        <time>2026-05-14T09:55:03.000Z</time>
      </trkpt>
      <trkpt lat="44.17903" lon="5.28474">
        <ele>1602.2</ele>
        <time>2026-05-14T09:55:04.000Z</time>
      </trkpt>
      <trkpt lat="44.17902" lon="5.28475">
        <ele>1602</ele>
        <time>2026-05-14T09:55:05.000Z</time>
      </trkpt>
      <trkpt lat="44.17901" lon="5.28476">
        <ele>1601.9</ele>
        <time>2026-05-14T09:55:06.000Z</time>
      </trkpt>
      <trkpt lat="44.179" lon="5.28477">
        <ele>1602.2</ele>
        <time>2026-05-14T09:55:07.000Z</time>
      </trkpt>
      <trkpt lat="44.17899" lon="5.28477">
        <ele>1602.4</ele>
        <time>2026-05-14T09:55:08.000Z</time>
      </trkpt>
      <trkpt lat="44.17898" lon="5.28478">
        <ele>1602.7</ele>
        <time>2026-05-14T09:55:09.000Z</time>
      </trkpt>
      <trkpt lat="44.17897" lon="5.28477">
        <ele>1602.6</ele>
        <time>2026-05-14T09:55:10.000Z</time>
      </trkpt>
      <trkpt lat="44.17896" lon="5.28477">
        <ele>1602.4</ele>
        <time>2026-05-14T09:55:11.000Z</time>
      </trkpt>
      <trkpt lat="44.17895" lon="5.28478">
        <ele>1602.4</ele>
        <time>2026-05-14T09:55:12.000Z</time>
      </trkpt>
      <trkpt lat="44.17895" lon="5.28477">
        <ele>1602.1</ele>
        <time>2026-05-14T09:55:13.000Z</time>
      </trkpt>
      <trkpt lat="44.17894" lon="5.28477">
        <ele>1601.9</ele>
        <time>2026-05-14T09:55:14.000Z</time>
      </trkpt>
      <trkpt lat="44.17893" lon="5.28476">
        <ele>1601.9</ele>
        <time>2026-05-14T09:55:15.000Z</time>
      </trkpt>
      <trkpt lat="44.17892" lon="5.28475">
        <ele>1601.9</ele>
        <time>2026-05-14T09:55:16.000Z</time>
      </trkpt>
      <trkpt lat="44.17891" lon="5.28474">
        <ele>1602</ele>
        <time>2026-05-14T09:55:17.000Z</time>
      </trkpt>
      <trkpt lat="44.17891" lon="5.28473">
        <ele>1601.9</ele>
        <time>2026-05-14T09:55:18.000Z</time>
      </trkpt>
      <trkpt lat="44.1789" lon="5.28473">
        <ele>1601.8</ele>
        <time>2026-05-14T09:55:19.000Z</time>
      </trkpt>
      <trkpt lat="44.17889" lon="5.28472">
        <ele>1601.7</ele>
        <time>2026-05-14T09:55:20.000Z</time>
      </trkpt>
      <trkpt lat="44.17888" lon="5.28471">
        <ele>1601.6</ele>
        <time>2026-05-14T09:55:21.000Z</time>
      </trkpt>
      <trkpt lat="44.17888" lon="5.28471">
        <ele>1601.7</ele>
        <time>2026-05-14T09:55:22.000Z</time>
      </trkpt>
      <trkpt lat="44.17887" lon="5.28469">
        <ele>1601.8</ele>
        <time>2026-05-14T09:55:23.000Z</time>
      </trkpt>
      <trkpt lat="44.17887" lon="5.28468">
        <ele>1601.7</ele>
        <time>2026-05-14T09:55:24.000Z</time>
      </trkpt>
      <trkpt lat="44.17887" lon="5.28469">
        <ele>1602</ele>
        <time>2026-05-14T09:55:25.000Z</time>
      </trkpt>
      <trkpt lat="44.17887" lon="5.28468">
        <ele>1602.4</ele>
        <time>2026-05-14T09:55:26.000Z</time>
      </trkpt>
      <trkpt lat="44.17886" lon="5.28467">
        <ele>1602.3</ele>
        <time>2026-05-14T09:55:27.000Z</time>
      </trkpt>
      <trkpt lat="44.17885" lon="5.28467">
        <ele>1602.1</ele>
        <time>2026-05-14T09:55:28.000Z</time>
      </trkpt>
      <trkpt lat="44.17885" lon="5.28466">
        <ele>1601.8</ele>
        <time>2026-05-14T09:55:29.000Z</time>
      </trkpt>
      <trkpt lat="44.17884" lon="5.28466">
        <ele>1601.7</ele>
        <time>2026-05-14T09:55:30.000Z</time>
      </trkpt>
      <trkpt lat="44.17883" lon="5.28465">
        <ele>1601.6</ele>
        <time>2026-05-14T09:55:31.000Z</time>
      </trkpt>
      <trkpt lat="44.17882" lon="5.28465">
        <ele>1601.8</ele>
        <time>2026-05-14T09:55:32.000Z</time>
      </trkpt>
      <trkpt lat="44.17881" lon="5.28465">
        <ele>1602</ele>
        <time>2026-05-14T09:55:33.000Z</time>
      </trkpt>
      <trkpt lat="44.17881" lon="5.28464">
        <ele>1602</ele>
        <time>2026-05-14T09:55:34.000Z</time>
      </trkpt>
      <trkpt lat="44.1788" lon="5.28464">
        <ele>1602.1</ele>
        <time>2026-05-14T09:55:35.000Z</time>
      </trkpt>
      <trkpt lat="44.17879" lon="5.28464">
        <ele>1603.4</ele>
        <time>2026-05-14T09:55:36.000Z</time>
      </trkpt>
      <trkpt lat="44.17877" lon="5.28464">
        <ele>1604.1</ele>
        <time>2026-05-14T09:55:37.000Z</time>
      </trkpt>
      <trkpt lat="44.17876" lon="5.28464">
        <ele>1604.2</ele>
        <time>2026-05-14T09:55:38.999Z</time>
      </trkpt>
      <trkpt lat="44.17875" lon="5.28464">
        <ele>1603.7</ele>
        <time>2026-05-14T09:55:39.999Z</time>
      </trkpt>
      <trkpt lat="44.17874" lon="5.28465">
        <ele>1603.4</ele>
        <time>2026-05-14T09:55:40.999Z</time>
      </trkpt>
      <trkpt lat="44.17873" lon="5.28465">
        <ele>1603.9</ele>
        <time>2026-05-14T09:55:41.999Z</time>
      </trkpt>
      <trkpt lat="44.17873" lon="5.28464">
        <ele>1603.7</ele>
        <time>2026-05-14T09:55:42.999Z</time>
      </trkpt>
      <trkpt lat="44.17873" lon="5.28465">
        <ele>1603.5</ele>
        <time>2026-05-14T09:55:43.999Z</time>
      </trkpt>
      <trkpt lat="44.17872" lon="5.28465">
        <ele>1603.7</ele>
        <time>2026-05-14T09:55:44.999Z</time>
      </trkpt>
      <trkpt lat="44.17871" lon="5.28465">
        <ele>1603.7</ele>
        <time>2026-05-14T09:55:45.999Z</time>
      </trkpt>
      <trkpt lat="44.1787" lon="5.28464">
        <ele>1603.4</ele>
        <time>2026-05-14T09:55:46.999Z</time>
      </trkpt>
      <trkpt lat="44.17869" lon="5.28464">
        <ele>1603.2</ele>
        <time>2026-05-14T09:55:47.999Z</time>
      </trkpt>
      <trkpt lat="44.17869" lon="5.28464">
        <ele>1603.5</ele>
        <time>2026-05-14T09:55:48.999Z</time>
      </trkpt>
      <trkpt lat="44.17869" lon="5.28464">
        <ele>1603.5</ele>
        <time>2026-05-14T09:55:49.999Z</time>
      </trkpt>
      <trkpt lat="44.17868" lon="5.28464">
        <ele>1602.8</ele>
        <time>2026-05-14T09:55:50.999Z</time>
      </trkpt>
      <trkpt lat="44.17868" lon="5.28464">
        <ele>1602.4</ele>
        <time>2026-05-14T09:55:51.999Z</time>
      </trkpt>
      <trkpt lat="44.17868" lon="5.28464">
        <ele>1602.4</ele>
        <time>2026-05-14T09:55:52.999Z</time>
      </trkpt>
      <trkpt lat="44.17867" lon="5.28464">
        <ele>1602.4</ele>
        <time>2026-05-14T09:55:53.999Z</time>
      </trkpt>
      <trkpt lat="44.17867" lon="5.28464">
        <ele>1602.4</ele>
        <time>2026-05-14T09:55:54.999Z</time>
      </trkpt>
      <trkpt lat="44.17866" lon="5.28465">
        <ele>1602.4</ele>
        <time>2026-05-14T09:55:55.999Z</time>
      </trkpt>
      <trkpt lat="44.17864" lon="5.28465">
        <ele>1602.4</ele>
        <time>2026-05-14T09:55:56.999Z</time>
      </trkpt>
      <trkpt lat="44.17863" lon="5.28465">
        <ele>1602.3</ele>
        <time>2026-05-14T09:55:57.999Z</time>
      </trkpt>
      <trkpt lat="44.17862" lon="5.28466">
        <ele>1602.1</ele>
        <time>2026-05-14T09:55:58.999Z</time>
      </trkpt>
      <trkpt lat="44.17861" lon="5.28466">
        <ele>1602.9</ele>
        <time>2026-05-14T09:55:59.999Z</time>
      </trkpt>
      <trkpt lat="44.1786" lon="5.28466">
        <ele>1603.3</ele>
        <time>2026-05-14T09:56:00.999Z</time>
      </trkpt>
      <trkpt lat="44.17859" lon="5.28466">
        <ele>1603.2</ele>
        <time>2026-05-14T09:56:01.999Z</time>
      </trkpt>
      <trkpt lat="44.17858" lon="5.28466">
        <ele>1603.2</ele>
        <time>2026-05-14T09:56:02.999Z</time>
      </trkpt>
      <trkpt lat="44.17857" lon="5.28467">
        <ele>1603.3</ele>
        <time>2026-05-14T09:56:03.999Z</time>
      </trkpt>
      <trkpt lat="44.17856" lon="5.28467">
        <ele>1603.2</ele>
        <time>2026-05-14T09:56:04.999Z</time>
      </trkpt>
      <trkpt lat="44.17857" lon="5.28467">
        <ele>1603.4</ele>
        <time>2026-05-14T09:56:05.999Z</time>
      </trkpt>
      <trkpt lat="44.17856" lon="5.28468">
        <ele>1603.6</ele>
        <time>2026-05-14T09:56:06.999Z</time>
      </trkpt>
      <trkpt lat="44.17855" lon="5.28469">
        <ele>1604.3</ele>
        <time>2026-05-14T09:56:07.999Z</time>
      </trkpt>
      <trkpt lat="44.17855" lon="5.28469">
        <ele>1604.4</ele>
        <time>2026-05-14T09:56:08.999Z</time>
      </trkpt>
      <trkpt lat="44.17854" lon="5.28469">
        <ele>1604.4</ele>
        <time>2026-05-14T09:56:09.999Z</time>
      </trkpt>
      <trkpt lat="44.17854" lon="5.2847">
        <ele>1604.8</ele>
        <time>2026-05-14T09:56:10.999Z</time>
      </trkpt>
      <trkpt lat="44.17853" lon="5.28471">
        <ele>1604.9</ele>
        <time>2026-05-14T09:56:11.999Z</time>
      </trkpt>
      <trkpt lat="44.17851" lon="5.28471">
        <ele>1605.1</ele>
        <time>2026-05-14T09:56:12.999Z</time>
      </trkpt>
      <trkpt lat="44.17851" lon="5.28472">
        <ele>1605.2</ele>
        <time>2026-05-14T09:56:13.999Z</time>
      </trkpt>
      <trkpt lat="44.17851" lon="5.28472">
        <ele>1605.3</ele>
        <time>2026-05-14T09:56:14.999Z</time>
      </trkpt>
      <trkpt lat="44.17851" lon="5.28473">
        <ele>1605.7</ele>
        <time>2026-05-14T09:56:15.999Z</time>
      </trkpt>
      <trkpt lat="44.1785" lon="5.28473">
        <ele>1605.8</ele>
        <time>2026-05-14T09:56:16.999Z</time>
      </trkpt>
      <trkpt lat="44.17849" lon="5.28473">
        <ele>1605.8</ele>
        <time>2026-05-14T09:56:17.999Z</time>
      </trkpt>
      <trkpt lat="44.17848" lon="5.28473">
        <ele>1605.5</ele>
        <time>2026-05-14T09:56:18.999Z</time>
      </trkpt>
      <trkpt lat="44.17847" lon="5.28474">
        <ele>1606.3</ele>
        <time>2026-05-14T09:56:19.999Z</time>
      </trkpt>
      <trkpt lat="44.17846" lon="5.28475">
        <ele>1606.6</ele>
        <time>2026-05-14T09:56:20.999Z</time>
      </trkpt>
      <trkpt lat="44.17845" lon="5.28475">
        <ele>1606.8</ele>
        <time>2026-05-14T09:56:21.999Z</time>
      </trkpt>
      <trkpt lat="44.17844" lon="5.28475">
        <ele>1606.8</ele>
        <time>2026-05-14T09:56:22.999Z</time>
      </trkpt>
      <trkpt lat="44.17844" lon="5.28475">
        <ele>1606.8</ele>
        <time>2026-05-14T09:56:23.999Z</time>
      </trkpt>
      <trkpt lat="44.17843" lon="5.28476">
        <ele>1606.4</ele>
        <time>2026-05-14T09:56:24.999Z</time>
      </trkpt>
      <trkpt lat="44.17843" lon="5.28476">
        <ele>1606.4</ele>
        <time>2026-05-14T09:56:25.999Z</time>
      </trkpt>
      <trkpt lat="44.17842" lon="5.28476">
        <ele>1606.4</ele>
        <time>2026-05-14T09:56:26.999Z</time>
      </trkpt>
      <trkpt lat="44.17842" lon="5.28476">
        <ele>1606.4</ele>
        <time>2026-05-14T09:56:27.999Z</time>
      </trkpt>
      <trkpt lat="44.17842" lon="5.28476">
        <ele>1606.4</ele>
        <time>2026-05-14T09:56:28.999Z</time>
      </trkpt>
      <trkpt lat="44.17841" lon="5.28477">
        <ele>1606.1</ele>
        <time>2026-05-14T09:56:29.999Z</time>
      </trkpt>
      <trkpt lat="44.17841" lon="5.28476">
        <ele>1605.9</ele>
        <time>2026-05-14T09:56:30.999Z</time>
      </trkpt>
      <trkpt lat="44.17841" lon="5.28476">
        <ele>1605.9</ele>
        <time>2026-05-14T09:56:31.999Z</time>
      </trkpt>
      <trkpt lat="44.1784" lon="5.28476">
        <ele>1605.6</ele>
        <time>2026-05-14T09:56:32.999Z</time>
      </trkpt>
      <trkpt lat="44.1784" lon="5.28475">
        <ele>1605.6</ele>
        <time>2026-05-14T09:56:33.999Z</time>
      </trkpt>
      <trkpt lat="44.1784" lon="5.28474">
        <ele>1605.6</ele>
        <time>2026-05-14T09:56:34.999Z</time>
      </trkpt>
      <trkpt lat="44.17839" lon="5.28474">
        <ele>1605.6</ele>
        <time>2026-05-14T09:56:35.999Z</time>
      </trkpt>
      <trkpt lat="44.17839" lon="5.28473">
        <ele>1605.7</ele>
        <time>2026-05-14T09:56:36.999Z</time>
      </trkpt>
      <trkpt lat="44.17839" lon="5.28472">
        <ele>1605.8</ele>
        <time>2026-05-14T09:56:37.999Z</time>
      </trkpt>
      <trkpt lat="44.17838" lon="5.28472">
        <ele>1605.6</ele>
        <time>2026-05-14T09:56:38.999Z</time>
      </trkpt>
      <trkpt lat="44.17838" lon="5.28472">
        <ele>1605.9</ele>
        <time>2026-05-14T09:56:39.999Z</time>
      </trkpt>
      <trkpt lat="44.17837" lon="5.28472">
        <ele>1605.8</ele>
        <time>2026-05-14T09:56:40.999Z</time>
      </trkpt>
      <trkpt lat="44.17836" lon="5.28472">
        <ele>1605.7</ele>
        <time>2026-05-14T09:56:41.999Z</time>
      </trkpt>
      <trkpt lat="44.17836" lon="5.28472">
        <ele>1605.5</ele>
        <time>2026-05-14T09:56:42.999Z</time>
      </trkpt>
      <trkpt lat="44.17835" lon="5.28472">
        <ele>1605.4</ele>
        <time>2026-05-14T09:56:43.999Z</time>
      </trkpt>
      <trkpt lat="44.17835" lon="5.28472">
        <ele>1605.3</ele>
        <time>2026-05-14T09:56:44.999Z</time>
      </trkpt>
      <trkpt lat="44.17835" lon="5.28472">
        <ele>1605.2</ele>
        <time>2026-05-14T09:56:45.999Z</time>
      </trkpt>
      <trkpt lat="44.17835" lon="5.28472">
        <ele>1605</ele>
        <time>2026-05-14T09:56:46.999Z</time>
      </trkpt>
      <trkpt lat="44.17835" lon="5.28472">
        <ele>1605.1</ele>
        <time>2026-05-14T09:56:47.999Z</time>
      </trkpt>
      <trkpt lat="44.17835" lon="5.28472">
        <ele>1605.2</ele>
        <time>2026-05-14T09:56:48.999Z</time>
      </trkpt>
      <trkpt lat="44.17835" lon="5.28472">
        <ele>1605.1</ele>
        <time>2026-05-14T09:56:49.999Z</time>
      </trkpt>
      <trkpt lat="44.17835" lon="5.28471">
        <ele>1605</ele>
        <time>2026-05-14T09:56:50.999Z</time>
      </trkpt>
      <trkpt lat="44.17836" lon="5.28472">
        <ele>1605.3</ele>
        <time>2026-05-14T09:56:51.999Z</time>
      </trkpt>
      <trkpt lat="44.17836" lon="5.28471">
        <ele>1605.1</ele>
        <time>2026-05-14T09:56:52.999Z</time>
      </trkpt>
      <trkpt lat="44.17836" lon="5.28471">
        <ele>1605.2</ele>
        <time>2026-05-14T09:56:53.999Z</time>
      </trkpt>
      <trkpt lat="44.17835" lon="5.28472">
        <ele>1605.4</ele>
        <time>2026-05-14T09:56:54.999Z</time>
      </trkpt>
      <trkpt lat="44.17835" lon="5.28472">
        <ele>1605.4</ele>
        <time>2026-05-14T09:56:55.999Z</time>
      </trkpt>
      <trkpt lat="44.17835" lon="5.28472">
        <ele>1605.4</ele>
        <time>2026-05-14T09:56:56.999Z</time>
      </trkpt>
      <trkpt lat="44.17835" lon="5.28472">
        <ele>1605.7</ele>
        <time>2026-05-14T09:56:57.999Z</time>
      </trkpt>
      <trkpt lat="44.17834" lon="5.28473">
        <ele>1605.7</ele>
        <time>2026-05-14T09:56:58.999Z</time>
      </trkpt>
      <trkpt lat="44.17834" lon="5.28473">
        <ele>1605.7</ele>
        <time>2026-05-14T09:56:59.999Z</time>
      </trkpt>
      <trkpt lat="44.17835" lon="5.28473">
        <ele>1605.6</ele>
        <time>2026-05-14T09:57:00.999Z</time>
      </trkpt>
      <trkpt lat="44.17835" lon="5.28472">
        <ele>1605.9</ele>
        <time>2026-05-14T09:57:01.999Z</time>
      </trkpt>
      <trkpt lat="44.17835" lon="5.28471">
        <ele>1606</ele>
        <time>2026-05-14T09:57:02.999Z</time>
      </trkpt>
      <trkpt lat="44.17835" lon="5.28471">
        <ele>1605.5</ele>
        <time>2026-05-14T09:57:03.999Z</time>
      </trkpt>
      <trkpt lat="44.17835" lon="5.28471">
        <ele>1604.7</ele>
        <time>2026-05-14T09:57:04.999Z</time>
      </trkpt>
      <trkpt lat="44.17835" lon="5.28471">
        <ele>1604.5</ele>
        <time>2026-05-14T09:57:05.999Z</time>
      </trkpt>
      <trkpt lat="44.17835" lon="5.28471">
        <ele>1604.4</ele>
        <time>2026-05-14T09:57:06.999Z</time>
      </trkpt>
      <trkpt lat="44.17837" lon="5.28474">
        <ele>1606.7</ele>
        <time>2026-05-14T09:57:07.999Z</time>
      </trkpt>
      <trkpt lat="44.17838" lon="5.28475">
        <ele>1607.7</ele>
        <time>2026-05-14T09:57:08.999Z</time>
      </trkpt>
      <trkpt lat="44.17839" lon="5.28475">
        <ele>1608.6</ele>
        <time>2026-05-14T09:57:09.999Z</time>
      </trkpt>
      <trkpt lat="44.17839" lon="5.28475">
        <ele>1608.7</ele>
        <time>2026-05-14T09:57:10.999Z</time>
      </trkpt>
      <trkpt lat="44.17839" lon="5.28474">
        <ele>1610.6</ele>
        <time>2026-05-14T09:57:11.999Z</time>
      </trkpt>
      <trkpt lat="44.17839" lon="5.28473">
        <ele>1611.2</ele>
        <time>2026-05-14T09:57:12.999Z</time>
      </trkpt>
      <trkpt lat="44.17839" lon="5.28473">
        <ele>1611.6</ele>
        <time>2026-05-14T09:57:13.999Z</time>
      </trkpt>
      <trkpt lat="44.1784" lon="5.28473">
        <ele>1612.2</ele>
        <time>2026-05-14T09:57:14.999Z</time>
      </trkpt>
      <trkpt lat="44.1784" lon="5.28473">
        <ele>1611.5</ele>
        <time>2026-05-14T09:57:15.999Z</time>
      </trkpt>
      <trkpt lat="44.1784" lon="5.28473">
        <ele>1612.1</ele>
        <time>2026-05-14T09:57:16.999Z</time>
      </trkpt>
      <trkpt lat="44.1784" lon="5.28473">
        <ele>1612.3</ele>
        <time>2026-05-14T09:57:17.999Z</time>
      </trkpt>
      <trkpt lat="44.1784" lon="5.28473">
        <ele>1613.1</ele>
        <time>2026-05-14T09:57:18.999Z</time>
      </trkpt>
      <trkpt lat="44.17841" lon="5.28473">
        <ele>1613.5</ele>
        <time>2026-05-14T09:57:19.999Z</time>
      </trkpt>
      <trkpt lat="44.17839" lon="5.28472">
        <ele>1615.6</ele>
        <time>2026-05-14T09:57:20.999Z</time>
      </trkpt>
      <trkpt lat="44.1784" lon="5.28471">
        <ele>1615.7</ele>
        <time>2026-05-14T09:57:21.999Z</time>
      </trkpt>
      <trkpt lat="44.17839" lon="5.28472">
        <ele>1616.7</ele>
        <time>2026-05-14T09:57:22.999Z</time>
      </trkpt>
      <trkpt lat="44.17839" lon="5.28471">
        <ele>1618.3</ele>
        <time>2026-05-14T09:57:23.999Z</time>
      </trkpt>
      <trkpt lat="44.1784" lon="5.2847">
        <ele>1618.7</ele>
        <time>2026-05-14T09:57:24.999Z</time>
      </trkpt>
      <trkpt lat="44.1784" lon="5.28469">
        <ele>1618.6</ele>
        <time>2026-05-14T09:57:25.999Z</time>
      </trkpt>
      <trkpt lat="44.1784" lon="5.28469">
        <ele>1619</ele>
        <time>2026-05-14T09:57:26.999Z</time>
      </trkpt>
      <trkpt lat="44.17841" lon="5.28468">
        <ele>1619.1</ele>
        <time>2026-05-14T09:57:27.999Z</time>
      </trkpt>
      <trkpt lat="44.17841" lon="5.28467">
        <ele>1621.1</ele>
        <time>2026-05-14T09:57:28.999Z</time>
      </trkpt>
      <trkpt lat="44.17841" lon="5.28465">
        <ele>1622.1</ele>
        <time>2026-05-14T09:57:29.999Z</time>
      </trkpt>
      <trkpt lat="44.17841" lon="5.28464">
        <ele>1622.4</ele>
        <time>2026-05-14T09:57:30.999Z</time>
      </trkpt>
      <trkpt lat="44.17841" lon="5.28463">
        <ele>1623.1</ele>
        <time>2026-05-14T09:57:31.999Z</time>
      </trkpt>
      <trkpt lat="44.17841" lon="5.28463">
        <ele>1623.6</ele>
        <time>2026-05-14T09:57:32.999Z</time>
      </trkpt>
      <trkpt lat="44.1784" lon="5.28463">
        <ele>1624.7</ele>
        <time>2026-05-14T09:57:33.999Z</time>
      </trkpt>
      <trkpt lat="44.1784" lon="5.28462">
        <ele>1625.2</ele>
        <time>2026-05-14T09:57:34.999Z</time>
      </trkpt>
      <trkpt lat="44.1784" lon="5.28462">
        <ele>1626</ele>
        <time>2026-05-14T09:57:35.999Z</time>
      </trkpt>
      <trkpt lat="44.17841" lon="5.28461">
        <ele>1626.5</ele>
        <time>2026-05-14T09:57:36.999Z</time>
      </trkpt>
      <trkpt lat="44.17841" lon="5.28461">
        <ele>1627.3</ele>
        <time>2026-05-14T09:57:37.999Z</time>
      </trkpt>
      <trkpt lat="44.17841" lon="5.2846">
        <ele>1628</ele>
        <time>2026-05-14T09:57:38.999Z</time>
      </trkpt>
      <trkpt lat="44.17841" lon="5.2846">
        <ele>1628.3</ele>
        <time>2026-05-14T09:57:39.999Z</time>
      </trkpt>
      <trkpt lat="44.17841" lon="5.28459">
        <ele>1628.2</ele>
        <time>2026-05-14T09:57:40.999Z</time>
      </trkpt>
      <trkpt lat="44.17842" lon="5.28458">
        <ele>1628.3</ele>
        <time>2026-05-14T09:57:41.999Z</time>
      </trkpt>
      <trkpt lat="44.17843" lon="5.28457">
        <ele>1628.3</ele>
        <time>2026-05-14T09:57:42.999Z</time>
      </trkpt>
      <trkpt lat="44.17844" lon="5.28456">
        <ele>1628.5</ele>
        <time>2026-05-14T09:57:43.999Z</time>
      </trkpt>
      <trkpt lat="44.17844" lon="5.28458">
        <ele>1629.7</ele>
        <time>2026-05-14T09:57:44.999Z</time>
      </trkpt>
      <trkpt lat="44.17844" lon="5.28458">
        <ele>1631.4</ele>
        <time>2026-05-14T09:57:45.999Z</time>
      </trkpt>
      <trkpt lat="44.17847" lon="5.28457">
        <ele>1633.2</ele>
        <time>2026-05-14T09:57:46.999Z</time>
      </trkpt>
      <trkpt lat="44.17847" lon="5.28457">
        <ele>1634.4</ele>
        <time>2026-05-14T09:57:47.999Z</time>
      </trkpt>
      <trkpt lat="44.17847" lon="5.28457">
        <ele>1635.7</ele>
        <time>2026-05-14T09:57:48.999Z</time>
      </trkpt>
      <trkpt lat="44.17846" lon="5.28457">
        <ele>1636.8</ele>
        <time>2026-05-14T09:57:49.999Z</time>
      </trkpt>
      <trkpt lat="44.17846" lon="5.28456">
        <ele>1637.4</ele>
        <time>2026-05-14T09:57:50.999Z</time>
      </trkpt>
      <trkpt lat="44.17846" lon="5.28457">
        <ele>1637.4</ele>
        <time>2026-05-14T09:57:51.999Z</time>
      </trkpt>
      <trkpt lat="44.17847" lon="5.28457">
        <ele>1637.7</ele>
        <time>2026-05-14T09:57:52.999Z</time>
      </trkpt>
      <trkpt lat="44.17847" lon="5.28458">
        <ele>1638.1</ele>
        <time>2026-05-14T09:57:53.999Z</time>
      </trkpt>
      <trkpt lat="44.17847" lon="5.28458">
        <ele>1637.9</ele>
        <time>2026-05-14T09:57:54.999Z</time>
      </trkpt>
      <trkpt lat="44.17847" lon="5.28458">
        <ele>1638.1</ele>
        <time>2026-05-14T09:57:55.999Z</time>
      </trkpt>
      <trkpt lat="44.17847" lon="5.28457">
        <ele>1639.7</ele>
        <time>2026-05-14T09:57:56.999Z</time>
      </trkpt>
      <trkpt lat="44.17847" lon="5.28457">
        <ele>1639.3</ele>
        <time>2026-05-14T09:57:57.999Z</time>
      </trkpt>
      <trkpt lat="44.17846" lon="5.28457">
        <ele>1639.3</ele>
        <time>2026-05-14T09:57:58.999Z</time>
      </trkpt>
      <trkpt lat="44.17846" lon="5.28457">
        <ele>1639.3</ele>
        <time>2026-05-14T09:57:59.999Z</time>
      </trkpt>
      <trkpt lat="44.17846" lon="5.28457">
        <ele>1639.8</ele>
        <time>2026-05-14T09:58:00.999Z</time>
      </trkpt>
      <trkpt lat="44.17846" lon="5.28456">
        <ele>1639.7</ele>
        <time>2026-05-14T09:58:01.999Z</time>
      </trkpt>
      <trkpt lat="44.17847" lon="5.28456">
        <ele>1639.6</ele>
        <time>2026-05-14T09:58:02.999Z</time>
      </trkpt>
      <trkpt lat="44.17847" lon="5.28455">
        <ele>1639.9</ele>
        <time>2026-05-14T09:58:03.999Z</time>
      </trkpt>
      <trkpt lat="44.17848" lon="5.28454">
        <ele>1639.8</ele>
        <time>2026-05-14T09:58:04.999Z</time>
      </trkpt>
      <trkpt lat="44.17849" lon="5.28453">
        <ele>1639.6</ele>
        <time>2026-05-14T09:58:05.999Z</time>
      </trkpt>
      <trkpt lat="44.1785" lon="5.28453">
        <ele>1639.8</ele>
        <time>2026-05-14T09:58:06.999Z</time>
      </trkpt>
      <trkpt lat="44.1785" lon="5.28452">
        <ele>1639.8</ele>
        <time>2026-05-14T09:58:07.999Z</time>
      </trkpt>
      <trkpt lat="44.17851" lon="5.28452">
        <ele>1639.8</ele>
        <time>2026-05-14T09:58:08.999Z</time>
      </trkpt>
      <trkpt lat="44.17852" lon="5.28451">
        <ele>1640</ele>
        <time>2026-05-14T09:58:09.999Z</time>
      </trkpt>
      <trkpt lat="44.17854" lon="5.2845">
        <ele>1640.6</ele>
        <time>2026-05-14T09:58:10.999Z</time>
      </trkpt>
      <trkpt lat="44.17855" lon="5.2845">
        <ele>1641.3</ele>
        <time>2026-05-14T09:58:11.999Z</time>
      </trkpt>
      <trkpt lat="44.17856" lon="5.28449">
        <ele>1641.5</ele>
        <time>2026-05-14T09:58:12.999Z</time>
      </trkpt>
      <trkpt lat="44.17857" lon="5.28449">
        <ele>1641.8</ele>
        <time>2026-05-14T09:58:13.999Z</time>
      </trkpt>
      <trkpt lat="44.17859" lon="5.28447">
        <ele>1642.4</ele>
        <time>2026-05-14T09:58:14.999Z</time>
      </trkpt>
      <trkpt lat="44.1786" lon="5.28446">
        <ele>1643.3</ele>
        <time>2026-05-14T09:58:15.999Z</time>
      </trkpt>
      <trkpt lat="44.17861" lon="5.28445">
        <ele>1643.7</ele>
        <time>2026-05-14T09:58:16.999Z</time>
      </trkpt>
      <trkpt lat="44.17861" lon="5.28445">
        <ele>1643.8</ele>
        <time>2026-05-14T09:58:17.999Z</time>
      </trkpt>
      <trkpt lat="44.17862" lon="5.28444">
        <ele>1643.5</ele>
        <time>2026-05-14T09:58:18.999Z</time>
      </trkpt>
      <trkpt lat="44.17862" lon="5.28443">
        <ele>1643.4</ele>
        <time>2026-05-14T09:58:19.999Z</time>
      </trkpt>
      <trkpt lat="44.17864" lon="5.28443">
        <ele>1643.3</ele>
        <time>2026-05-14T09:58:20.999Z</time>
      </trkpt>
      <trkpt lat="44.17866" lon="5.28442">
        <ele>1642.9</ele>
        <time>2026-05-14T09:58:21.999Z</time>
      </trkpt>
      <trkpt lat="44.17867" lon="5.28442">
        <ele>1642.4</ele>
        <time>2026-05-14T09:58:22.999Z</time>
      </trkpt>
      <trkpt lat="44.17869" lon="5.28441">
        <ele>1642.1</ele>
        <time>2026-05-14T09:58:23.999Z</time>
      </trkpt>
      <trkpt lat="44.1787" lon="5.2844">
        <ele>1641.5</ele>
        <time>2026-05-14T09:58:24.999Z</time>
      </trkpt>
      <trkpt lat="44.17872" lon="5.28439">
        <ele>1641</ele>
        <time>2026-05-14T09:58:25.999Z</time>
      </trkpt>
      <trkpt lat="44.17873" lon="5.28438">
        <ele>1640.6</ele>
        <time>2026-05-14T09:58:26.999Z</time>
      </trkpt>
      <trkpt lat="44.17873" lon="5.28438">
        <ele>1640.3</ele>
        <time>2026-05-14T09:58:27.999Z</time>
      </trkpt>
      <trkpt lat="44.17875" lon="5.28439">
        <ele>1639</ele>
        <time>2026-05-14T09:58:28.999Z</time>
      </trkpt>
      <trkpt lat="44.17876" lon="5.28438">
        <ele>1638.8</ele>
        <time>2026-05-14T09:58:29.999Z</time>
      </trkpt>
      <trkpt lat="44.17877" lon="5.28438">
        <ele>1638.8</ele>
        <time>2026-05-14T09:58:30.999Z</time>
      </trkpt>
      <trkpt lat="44.17879" lon="5.28437">
        <ele>1638.7</ele>
        <time>2026-05-14T09:58:31.999Z</time>
      </trkpt>
      <trkpt lat="44.1788" lon="5.28438">
        <ele>1638.5</ele>
        <time>2026-05-14T09:58:32.999Z</time>
      </trkpt>
      <trkpt lat="44.1788" lon="5.28439">
        <ele>1638.1</ele>
        <time>2026-05-14T09:58:33.999Z</time>
      </trkpt>
      <trkpt lat="44.17881" lon="5.28439">
        <ele>1637.8</ele>
        <time>2026-05-14T09:58:34.999Z</time>
      </trkpt>
      <trkpt lat="44.17881" lon="5.28439">
        <ele>1637.6</ele>
        <time>2026-05-14T09:58:35.999Z</time>
      </trkpt>
      <trkpt lat="44.17882" lon="5.28438">
        <ele>1637.4</ele>
        <time>2026-05-14T09:58:36.999Z</time>
      </trkpt>
      <trkpt lat="44.17883" lon="5.28438">
        <ele>1637.5</ele>
        <time>2026-05-14T09:58:37.999Z</time>
      </trkpt>
      <trkpt lat="44.17885" lon="5.28438">
        <ele>1637.5</ele>
        <time>2026-05-14T09:58:38.999Z</time>
      </trkpt>
      <trkpt lat="44.17887" lon="5.28437">
        <ele>1637.1</ele>
        <time>2026-05-14T09:58:39.999Z</time>
      </trkpt>
      <trkpt lat="44.17888" lon="5.28436">
        <ele>1636.8</ele>
        <time>2026-05-14T09:58:40.999Z</time>
      </trkpt>
      <trkpt lat="44.1789" lon="5.28436">
        <ele>1636.1</ele>
        <time>2026-05-14T09:58:41.999Z</time>
      </trkpt>
      <trkpt lat="44.17891" lon="5.28436">
        <ele>1635.9</ele>
        <time>2026-05-14T09:58:42.999Z</time>
      </trkpt>
      <trkpt lat="44.17892" lon="5.28435">
        <ele>1635.8</ele>
        <time>2026-05-14T09:58:43.999Z</time>
      </trkpt>
      <trkpt lat="44.17894" lon="5.28435">
        <ele>1635.6</ele>
        <time>2026-05-14T09:58:44.999Z</time>
      </trkpt>
      <trkpt lat="44.17895" lon="5.28436">
        <ele>1635.6</ele>
        <time>2026-05-14T09:58:45.999Z</time>
      </trkpt>
      <trkpt lat="44.17896" lon="5.28436">
        <ele>1635.7</ele>
        <time>2026-05-14T09:58:46.999Z</time>
      </trkpt>
      <trkpt lat="44.17897" lon="5.28437">
        <ele>1635.6</ele>
        <time>2026-05-14T09:58:47.999Z</time>
      </trkpt>
      <trkpt lat="44.17899" lon="5.28437">
        <ele>1635.2</ele>
        <time>2026-05-14T09:58:48.999Z</time>
      </trkpt>
      <trkpt lat="44.179" lon="5.28436">
        <ele>1635.2</ele>
        <time>2026-05-14T09:58:49.999Z</time>
      </trkpt>
      <trkpt lat="44.179" lon="5.28437">
        <ele>1636.4</ele>
        <time>2026-05-14T09:58:50.999Z</time>
      </trkpt>
      <trkpt lat="44.17902" lon="5.28436">
        <ele>1636.3</ele>
        <time>2026-05-14T09:58:51.999Z</time>
      </trkpt>
      <trkpt lat="44.17902" lon="5.28436">
        <ele>1635.9</ele>
        <time>2026-05-14T09:58:52.999Z</time>
      </trkpt>
      <trkpt lat="44.17903" lon="5.28434">
        <ele>1635.4</ele>
        <time>2026-05-14T09:58:53.999Z</time>
      </trkpt>
      <trkpt lat="44.17904" lon="5.28434">
        <ele>1635.2</ele>
        <time>2026-05-14T09:58:54.999Z</time>
      </trkpt>
      <trkpt lat="44.17905" lon="5.28432">
        <ele>1635</ele>
        <time>2026-05-14T09:58:55.999Z</time>
      </trkpt>
      <trkpt lat="44.17906" lon="5.2843">
        <ele>1634.7</ele>
        <time>2026-05-14T09:58:56.999Z</time>
      </trkpt>
      <trkpt lat="44.17907" lon="5.28429">
        <ele>1634.6</ele>
        <time>2026-05-14T09:58:57.999Z</time>
      </trkpt>
      <trkpt lat="44.17908" lon="5.28428">
        <ele>1634.4</ele>
        <time>2026-05-14T09:58:58.999Z</time>
      </trkpt>
      <trkpt lat="44.17908" lon="5.28427">
        <ele>1634.9</ele>
        <time>2026-05-14T09:58:59.999Z</time>
      </trkpt>
      <trkpt lat="44.17909" lon="5.28425">
        <ele>1635.7</ele>
        <time>2026-05-14T09:59:00.999Z</time>
      </trkpt>
      <trkpt lat="44.1791" lon="5.28424">
        <ele>1635.9</ele>
        <time>2026-05-14T09:59:01.999Z</time>
      </trkpt>
      <trkpt lat="44.17912" lon="5.28424">
        <ele>1635.5</ele>
        <time>2026-05-14T09:59:02.999Z</time>
      </trkpt>
      <trkpt lat="44.17913" lon="5.28423">
        <ele>1635.3</ele>
        <time>2026-05-14T09:59:03.999Z</time>
      </trkpt>
      <trkpt lat="44.17913" lon="5.28422">
        <ele>1637.9</ele>
        <time>2026-05-14T09:59:04.999Z</time>
      </trkpt>
      <trkpt lat="44.17914" lon="5.28421">
        <ele>1638.1</ele>
        <time>2026-05-14T09:59:05.999Z</time>
      </trkpt>
      <trkpt lat="44.17915" lon="5.28421">
        <ele>1638.2</ele>
        <time>2026-05-14T09:59:06.999Z</time>
      </trkpt>
      <trkpt lat="44.17915" lon="5.2842">
        <ele>1638.4</ele>
        <time>2026-05-14T09:59:07.999Z</time>
      </trkpt>
      <trkpt lat="44.17916" lon="5.28419">
        <ele>1638.5</ele>
        <time>2026-05-14T09:59:08.999Z</time>
      </trkpt>
      <trkpt lat="44.17917" lon="5.28418">
        <ele>1638.2</ele>
        <time>2026-05-14T09:59:09.999Z</time>
      </trkpt>
      <trkpt lat="44.17917" lon="5.28417">
        <ele>1638.2</ele>
        <time>2026-05-14T09:59:10.999Z</time>
      </trkpt>
      <trkpt lat="44.17917" lon="5.28415">
        <ele>1639.3</ele>
        <time>2026-05-14T09:59:11.999Z</time>
      </trkpt>
      <trkpt lat="44.17917" lon="5.28414">
        <ele>1639.9</ele>
        <time>2026-05-14T09:59:12.999Z</time>
      </trkpt>
      <trkpt lat="44.17917" lon="5.28414">
        <ele>1640</ele>
        <time>2026-05-14T09:59:13.999Z</time>
      </trkpt>
      <trkpt lat="44.17917" lon="5.28413">
        <ele>1640.4</ele>
        <time>2026-05-14T09:59:14.999Z</time>
      </trkpt>
      <trkpt lat="44.17917" lon="5.28412">
        <ele>1640.4</ele>
        <time>2026-05-14T09:59:15.999Z</time>
      </trkpt>
      <trkpt lat="44.17917" lon="5.28411">
        <ele>1641</ele>
        <time>2026-05-14T09:59:16.999Z</time>
      </trkpt>
      <trkpt lat="44.17919" lon="5.2841">
        <ele>1641.4</ele>
        <time>2026-05-14T09:59:17.999Z</time>
      </trkpt>
      <trkpt lat="44.1792" lon="5.2841">
        <ele>1641.4</ele>
        <time>2026-05-14T09:59:18.999Z</time>
      </trkpt>
      <trkpt lat="44.1792" lon="5.28409">
        <ele>1641.3</ele>
        <time>2026-05-14T09:59:19.999Z</time>
      </trkpt>
      <trkpt lat="44.17921" lon="5.28408">
        <ele>1641.3</ele>
        <time>2026-05-14T09:59:20.999Z</time>
      </trkpt>
      <trkpt lat="44.17922" lon="5.28406">
        <ele>1641.3</ele>
        <time>2026-05-14T09:59:21.999Z</time>
      </trkpt>
      <trkpt lat="44.17923" lon="5.28405">
        <ele>1641.1</ele>
        <time>2026-05-14T09:59:22.999Z</time>
      </trkpt>
      <trkpt lat="44.17923" lon="5.28403">
        <ele>1641</ele>
        <time>2026-05-14T09:59:23.999Z</time>
      </trkpt>
      <trkpt lat="44.17924" lon="5.28402">
        <ele>1641.6</ele>
        <time>2026-05-14T09:59:24.999Z</time>
      </trkpt>
      <trkpt lat="44.17924" lon="5.28402">
        <ele>1642.1</ele>
        <time>2026-05-14T09:59:25.999Z</time>
      </trkpt>
      <trkpt lat="44.17924" lon="5.28401">
        <ele>1643.6</ele>
        <time>2026-05-14T09:59:26.999Z</time>
      </trkpt>
      <trkpt lat="44.17925" lon="5.284">
        <ele>1644.6</ele>
        <time>2026-05-14T09:59:27.999Z</time>
      </trkpt>
      <trkpt lat="44.17925" lon="5.28398">
        <ele>1644.7</ele>
        <time>2026-05-14T09:59:28.999Z</time>
      </trkpt>
      <trkpt lat="44.17925" lon="5.28397">
        <ele>1644.7</ele>
        <time>2026-05-14T09:59:29.999Z</time>
      </trkpt>
      <trkpt lat="44.17926" lon="5.28396">
        <ele>1644.7</ele>
        <time>2026-05-14T09:59:30.999Z</time>
      </trkpt>
      <trkpt lat="44.17926" lon="5.28394">
        <ele>1644.8</ele>
        <time>2026-05-14T09:59:31.999Z</time>
      </trkpt>
      <trkpt lat="44.17926" lon="5.28392">
        <ele>1645.1</ele>
        <time>2026-05-14T09:59:32.999Z</time>
      </trkpt>
      <trkpt lat="44.17926" lon="5.28391">
        <ele>1646</ele>
        <time>2026-05-14T09:59:33.999Z</time>
      </trkpt>
      <trkpt lat="44.17927" lon="5.2839">
        <ele>1646.2</ele>
        <time>2026-05-14T09:59:34.999Z</time>
      </trkpt>
      <trkpt lat="44.17928" lon="5.28389">
        <ele>1646.1</ele>
        <time>2026-05-14T09:59:35.999Z</time>
      </trkpt>
      <trkpt lat="44.17928" lon="5.28388">
        <ele>1646.8</ele>
        <time>2026-05-14T09:59:36.999Z</time>
      </trkpt>
      <trkpt lat="44.17927" lon="5.28387">
        <ele>1646.8</ele>
        <time>2026-05-14T09:59:37.999Z</time>
      </trkpt>
      <trkpt lat="44.17928" lon="5.28387">
        <ele>1645.9</ele>
        <time>2026-05-14T09:59:38.999Z</time>
      </trkpt>
      <trkpt lat="44.17929" lon="5.28387">
        <ele>1645.5</ele>
        <time>2026-05-14T09:59:39.999Z</time>
      </trkpt>
      <trkpt lat="44.1793" lon="5.28386">
        <ele>1645.3</ele>
        <time>2026-05-14T09:59:40.999Z</time>
      </trkpt>
      <trkpt lat="44.17931" lon="5.28386">
        <ele>1645.3</ele>
        <time>2026-05-14T09:59:41.999Z</time>
      </trkpt>
      <trkpt lat="44.17932" lon="5.28385">
        <ele>1645.1</ele>
        <time>2026-05-14T09:59:42.999Z</time>
      </trkpt>
      <trkpt lat="44.17932" lon="5.28383">
        <ele>1645.5</ele>
        <time>2026-05-14T09:59:43.999Z</time>
      </trkpt>
      <trkpt lat="44.17933" lon="5.28382">
        <ele>1645.6</ele>
        <time>2026-05-14T09:59:44.999Z</time>
      </trkpt>
      <trkpt lat="44.17933" lon="5.28381">
        <ele>1646</ele>
        <time>2026-05-14T09:59:45.999Z</time>
      </trkpt>
      <trkpt lat="44.17933" lon="5.28381">
        <ele>1646.1</ele>
        <time>2026-05-14T09:59:46.999Z</time>
      </trkpt>
      <trkpt lat="44.17933" lon="5.2838">
        <ele>1645.9</ele>
        <time>2026-05-14T09:59:47.999Z</time>
      </trkpt>
      <trkpt lat="44.17934" lon="5.28379">
        <ele>1645.9</ele>
        <time>2026-05-14T09:59:48.999Z</time>
      </trkpt>
      <trkpt lat="44.17936" lon="5.28378">
        <ele>1645.6</ele>
        <time>2026-05-14T09:59:49.999Z</time>
      </trkpt>
      <trkpt lat="44.17937" lon="5.28377">
        <ele>1645.2</ele>
        <time>2026-05-14T09:59:50.999Z</time>
      </trkpt>
      <trkpt lat="44.17938" lon="5.28377">
        <ele>1645.5</ele>
        <time>2026-05-14T09:59:51.999Z</time>
      </trkpt>
      <trkpt lat="44.17939" lon="5.28376">
        <ele>1645.8</ele>
        <time>2026-05-14T09:59:52.999Z</time>
      </trkpt>
      <trkpt lat="44.1794" lon="5.28375">
        <ele>1646.5</ele>
        <time>2026-05-14T09:59:53.999Z</time>
      </trkpt>
      <trkpt lat="44.1794" lon="5.28373">
        <ele>1647.1</ele>
        <time>2026-05-14T09:59:54.999Z</time>
      </trkpt>
      <trkpt lat="44.17941" lon="5.28371">
        <ele>1647.1</ele>
        <time>2026-05-14T09:59:55.999Z</time>
      </trkpt>
      <trkpt lat="44.17941" lon="5.28369">
        <ele>1647</ele>
        <time>2026-05-14T09:59:56.999Z</time>
      </trkpt>
      <trkpt lat="44.17942" lon="5.28368">
        <ele>1647.7</ele>
        <time>2026-05-14T09:59:57.999Z</time>
      </trkpt>
      <trkpt lat="44.17942" lon="5.28367">
        <ele>1648.1</ele>
        <time>2026-05-14T09:59:58.999Z</time>
      </trkpt>
      <trkpt lat="44.17942" lon="5.28365">
        <ele>1647.6</ele>
        <time>2026-05-14T09:59:59.999Z</time>
      </trkpt>
      <trkpt lat="44.17942" lon="5.28364">
        <ele>1647.7</ele>
        <time>2026-05-14T10:00:00.999Z</time>
      </trkpt>
      <trkpt lat="44.17942" lon="5.28364">
        <ele>1647.8</ele>
        <time>2026-05-14T10:00:01.999Z</time>
      </trkpt>
      <trkpt lat="44.17941" lon="5.28363">
        <ele>1648.3</ele>
        <time>2026-05-14T10:00:02.999Z</time>
      </trkpt>
      <trkpt lat="44.1794" lon="5.28362">
        <ele>1648.7</ele>
        <time>2026-05-14T10:00:03.999Z</time>
      </trkpt>
      <trkpt lat="44.1794" lon="5.28361">
        <ele>1649</ele>
        <time>2026-05-14T10:00:04.999Z</time>
      </trkpt>
      <trkpt lat="44.1794" lon="5.28359">
        <ele>1649.2</ele>
        <time>2026-05-14T10:00:05.999Z</time>
      </trkpt>
      <trkpt lat="44.17939" lon="5.28357">
        <ele>1649.4</ele>
        <time>2026-05-14T10:00:06.999Z</time>
      </trkpt>
      <trkpt lat="44.17939" lon="5.28355">
        <ele>1649</ele>
        <time>2026-05-14T10:00:07.999Z</time>
      </trkpt>
      <trkpt lat="44.17939" lon="5.28353">
        <ele>1649.2</ele>
        <time>2026-05-14T10:00:08.999Z</time>
      </trkpt>
      <trkpt lat="44.1794" lon="5.28351">
        <ele>1649.1</ele>
        <time>2026-05-14T10:00:09.999Z</time>
      </trkpt>
      <trkpt lat="44.1794" lon="5.2835">
        <ele>1648.8</ele>
        <time>2026-05-14T10:00:10.999Z</time>
      </trkpt>
      <trkpt lat="44.1794" lon="5.28348">
        <ele>1648.9</ele>
        <time>2026-05-14T10:00:11.999Z</time>
      </trkpt>
      <trkpt lat="44.17941" lon="5.28347">
        <ele>1648.8</ele>
        <time>2026-05-14T10:00:12.999Z</time>
      </trkpt>
      <trkpt lat="44.17941" lon="5.28346">
        <ele>1649.1</ele>
        <time>2026-05-14T10:00:13.999Z</time>
      </trkpt>
      <trkpt lat="44.17942" lon="5.28344">
        <ele>1649.5</ele>
        <time>2026-05-14T10:00:14.999Z</time>
      </trkpt>
      <trkpt lat="44.17942" lon="5.28343">
        <ele>1649.3</ele>
        <time>2026-05-14T10:00:15.999Z</time>
      </trkpt>
      <trkpt lat="44.17941" lon="5.28342">
        <ele>1649.3</ele>
        <time>2026-05-14T10:00:16.999Z</time>
      </trkpt>
      <trkpt lat="44.17942" lon="5.2834">
        <ele>1649.1</ele>
        <time>2026-05-14T10:00:17.999Z</time>
      </trkpt>
      <trkpt lat="44.17942" lon="5.28339">
        <ele>1648.9</ele>
        <time>2026-05-14T10:00:18.999Z</time>
      </trkpt>
      <trkpt lat="44.17943" lon="5.28338">
        <ele>1649.4</ele>
        <time>2026-05-14T10:00:19.999Z</time>
      </trkpt>
      <trkpt lat="44.17943" lon="5.28337">
        <ele>1649.7</ele>
        <time>2026-05-14T10:00:20.999Z</time>
      </trkpt>
      <trkpt lat="44.17943" lon="5.28336">
        <ele>1649.7</ele>
        <time>2026-05-14T10:00:21.999Z</time>
      </trkpt>
      <trkpt lat="44.17943" lon="5.28335">
        <ele>1649.9</ele>
        <time>2026-05-14T10:00:22.999Z</time>
      </trkpt>
      <trkpt lat="44.17942" lon="5.28333">
        <ele>1649.8</ele>
        <time>2026-05-14T10:00:23.999Z</time>
      </trkpt>
      <trkpt lat="44.17942" lon="5.28332">
        <ele>1650.1</ele>
        <time>2026-05-14T10:00:24.999Z</time>
      </trkpt>
      <trkpt lat="44.17942" lon="5.2833">
        <ele>1649.8</ele>
        <time>2026-05-14T10:00:25.999Z</time>
      </trkpt>
      <trkpt lat="44.17943" lon="5.28328">
        <ele>1649.7</ele>
        <time>2026-05-14T10:00:26.999Z</time>
      </trkpt>
      <trkpt lat="44.17943" lon="5.28326">
        <ele>1649.5</ele>
        <time>2026-05-14T10:00:27.999Z</time>
      </trkpt>
      <trkpt lat="44.17944" lon="5.28323">
        <ele>1649.4</ele>
        <time>2026-05-14T10:00:28.999Z</time>
      </trkpt>
      <trkpt lat="44.17945" lon="5.28322">
        <ele>1649.9</ele>
        <time>2026-05-14T10:00:29.999Z</time>
      </trkpt>
      <trkpt lat="44.17946" lon="5.28322">
        <ele>1651.3</ele>
        <time>2026-05-14T10:00:30.999Z</time>
      </trkpt>
      <trkpt lat="44.17946" lon="5.28323">
        <ele>1652</ele>
        <time>2026-05-14T10:00:31.999Z</time>
      </trkpt>
      <trkpt lat="44.17947" lon="5.28323">
        <ele>1653</ele>
        <time>2026-05-14T10:00:32.999Z</time>
      </trkpt>
      <trkpt lat="44.17947" lon="5.28322">
        <ele>1652.9</ele>
        <time>2026-05-14T10:00:33.999Z</time>
      </trkpt>
      <trkpt lat="44.17947" lon="5.28322">
        <ele>1653.9</ele>
        <time>2026-05-14T10:00:34.999Z</time>
      </trkpt>
      <trkpt lat="44.17948" lon="5.28322">
        <ele>1654.5</ele>
        <time>2026-05-14T10:00:35.999Z</time>
      </trkpt>
      <trkpt lat="44.17947" lon="5.28322">
        <ele>1654.4</ele>
        <time>2026-05-14T10:00:36.999Z</time>
      </trkpt>
      <trkpt lat="44.17947" lon="5.28322">
        <ele>1654.1</ele>
        <time>2026-05-14T10:00:37.999Z</time>
      </trkpt>
      <trkpt lat="44.17947" lon="5.28321">
        <ele>1654.4</ele>
        <time>2026-05-14T10:00:38.999Z</time>
      </trkpt>
      <trkpt lat="44.17947" lon="5.2832">
        <ele>1654.5</ele>
        <time>2026-05-14T10:00:39.999Z</time>
      </trkpt>
      <trkpt lat="44.17946" lon="5.2832">
        <ele>1654.8</ele>
        <time>2026-05-14T10:00:40.999Z</time>
      </trkpt>
      <trkpt lat="44.17946" lon="5.28318">
        <ele>1655.4</ele>
        <time>2026-05-14T10:00:41.999Z</time>
      </trkpt>
      <trkpt lat="44.17945" lon="5.28317">
        <ele>1655.7</ele>
        <time>2026-05-14T10:00:42.999Z</time>
      </trkpt>
      <trkpt lat="44.17945" lon="5.28315">
        <ele>1655.8</ele>
        <time>2026-05-14T10:00:43.999Z</time>
      </trkpt>
      <trkpt lat="44.17944" lon="5.28314">
        <ele>1655.3</ele>
        <time>2026-05-14T10:00:44.999Z</time>
      </trkpt>
      <trkpt lat="44.17945" lon="5.28313">
        <ele>1654.9</ele>
        <time>2026-05-14T10:00:45.999Z</time>
      </trkpt>
      <trkpt lat="44.17945" lon="5.28312">
        <ele>1654</ele>
        <time>2026-05-14T10:00:46.999Z</time>
      </trkpt>
      <trkpt lat="44.17945" lon="5.2831">
        <ele>1653.6</ele>
        <time>2026-05-14T10:00:47.999Z</time>
      </trkpt>
      <trkpt lat="44.17945" lon="5.28309">
        <ele>1653.4</ele>
        <time>2026-05-14T10:00:48.999Z</time>
      </trkpt>
      <trkpt lat="44.17945" lon="5.28307">
        <ele>1653.1</ele>
        <time>2026-05-14T10:00:49.999Z</time>
      </trkpt>
      <trkpt lat="44.17945" lon="5.28306">
        <ele>1652.5</ele>
        <time>2026-05-14T10:00:50.999Z</time>
      </trkpt>
      <trkpt lat="44.17944" lon="5.28305">
        <ele>1652</ele>
        <time>2026-05-14T10:00:51.999Z</time>
      </trkpt>
      <trkpt lat="44.17943" lon="5.28303">
        <ele>1651.6</ele>
        <time>2026-05-14T10:00:52.999Z</time>
      </trkpt>
      <trkpt lat="44.17942" lon="5.28301">
        <ele>1651.9</ele>
        <time>2026-05-14T10:00:53.999Z</time>
      </trkpt>
      <trkpt lat="44.17941" lon="5.28299">
        <ele>1652.1</ele>
        <time>2026-05-14T10:00:54.999Z</time>
      </trkpt>
      <trkpt lat="44.1794" lon="5.28297">
        <ele>1651.8</ele>
        <time>2026-05-14T10:00:55.999Z</time>
      </trkpt>
      <trkpt lat="44.17939" lon="5.28297">
        <ele>1651.8</ele>
        <time>2026-05-14T10:00:56.999Z</time>
      </trkpt>
      <trkpt lat="44.17939" lon="5.28296">
        <ele>1652.1</ele>
        <time>2026-05-14T10:00:57.999Z</time>
      </trkpt>
      <trkpt lat="44.17938" lon="5.28296">
        <ele>1651.8</ele>
        <time>2026-05-14T10:00:58.999Z</time>
      </trkpt>
      <trkpt lat="44.17937" lon="5.28295">
        <ele>1651.6</ele>
        <time>2026-05-14T10:00:59.999Z</time>
      </trkpt>
      <trkpt lat="44.17937" lon="5.28294">
        <ele>1651.6</ele>
        <time>2026-05-14T10:01:00.999Z</time>
      </trkpt>
      <trkpt lat="44.17936" lon="5.28293">
        <ele>1651.5</ele>
        <time>2026-05-14T10:01:01.999Z</time>
      </trkpt>
      <trkpt lat="44.17935" lon="5.28292">
        <ele>1651.3</ele>
        <time>2026-05-14T10:01:02.999Z</time>
      </trkpt>
      <trkpt lat="44.17935" lon="5.28292">
        <ele>1651.5</ele>
        <time>2026-05-14T10:01:03.999Z</time>
      </trkpt>
      <trkpt lat="44.17934" lon="5.28291">
        <ele>1651.7</ele>
        <time>2026-05-14T10:01:04.999Z</time>
      </trkpt>
      <trkpt lat="44.17934" lon="5.28289">
        <ele>1652</ele>
        <time>2026-05-14T10:01:05.999Z</time>
      </trkpt>
      <trkpt lat="44.17934" lon="5.28289">
        <ele>1652.1</ele>
        <time>2026-05-14T10:01:06.999Z</time>
      </trkpt>
      <trkpt lat="44.17934" lon="5.28289">
        <ele>1652.2</ele>
        <time>2026-05-14T10:01:07.999Z</time>
      </trkpt>
      <trkpt lat="44.17934" lon="5.28289">
        <ele>1651.5</ele>
        <time>2026-05-14T10:01:08.999Z</time>
      </trkpt>
      <trkpt lat="44.17934" lon="5.28289">
        <ele>1651.7</ele>
        <time>2026-05-14T10:01:09.999Z</time>
      </trkpt>
      <trkpt lat="44.17934" lon="5.28289">
        <ele>1651.3</ele>
        <time>2026-05-14T10:01:10.999Z</time>
      </trkpt>
      <trkpt lat="44.17934" lon="5.28289">
        <ele>1651</ele>
        <time>2026-05-14T10:01:11.999Z</time>
      </trkpt>
      <trkpt lat="44.17934" lon="5.28289">
        <ele>1651</ele>
        <time>2026-05-14T10:01:12.999Z</time>
      </trkpt>
      <trkpt lat="44.17934" lon="5.2829">
        <ele>1651</ele>
        <time>2026-05-14T10:01:13.999Z</time>
      </trkpt>
      <trkpt lat="44.17934" lon="5.2829">
        <ele>1651.3</ele>
        <time>2026-05-14T10:01:14.999Z</time>
      </trkpt>
      <trkpt lat="44.17934" lon="5.2829">
        <ele>1651.4</ele>
        <time>2026-05-14T10:01:15.999Z</time>
      </trkpt>
      <trkpt lat="44.17934" lon="5.2829">
        <ele>1651.7</ele>
        <time>2026-05-14T10:01:16.999Z</time>
      </trkpt>
      <trkpt lat="44.17934" lon="5.2829">
        <ele>1651.6</ele>
        <time>2026-05-14T10:01:17.999Z</time>
      </trkpt>
      <trkpt lat="44.17933" lon="5.28289">
        <ele>1651.7</ele>
        <time>2026-05-14T10:01:18.999Z</time>
      </trkpt>
      <trkpt lat="44.17933" lon="5.28288">
        <ele>1651.9</ele>
        <time>2026-05-14T10:01:19.999Z</time>
      </trkpt>
      <trkpt lat="44.17933" lon="5.28288">
        <ele>1652.1</ele>
        <time>2026-05-14T10:01:20.999Z</time>
      </trkpt>
      <trkpt lat="44.17933" lon="5.28287">
        <ele>1652</ele>
        <time>2026-05-14T10:01:21.999Z</time>
      </trkpt>
      <trkpt lat="44.17933" lon="5.28286">
        <ele>1651.9</ele>
        <time>2026-05-14T10:01:22.999Z</time>
      </trkpt>
      <trkpt lat="44.17932" lon="5.28286">
        <ele>1651.8</ele>
        <time>2026-05-14T10:01:23.999Z</time>
      </trkpt>
      <trkpt lat="44.17932" lon="5.28286">
        <ele>1651.6</ele>
        <time>2026-05-14T10:01:24.999Z</time>
      </trkpt>
      <trkpt lat="44.17932" lon="5.28286">
        <ele>1651.4</ele>
        <time>2026-05-14T10:01:25.999Z</time>
      </trkpt>
      <trkpt lat="44.17932" lon="5.28285">
        <ele>1651.1</ele>
        <time>2026-05-14T10:01:26.999Z</time>
      </trkpt>
      <trkpt lat="44.17932" lon="5.28284">
        <ele>1650.7</ele>
        <time>2026-05-14T10:01:28.999Z</time>
      </trkpt>
      <trkpt lat="44.17932" lon="5.28283">
        <ele>1650.5</ele>
        <time>2026-05-14T10:01:29.999Z</time>
      </trkpt>
      <trkpt lat="44.17932" lon="5.28283">
        <ele>1650.6</ele>
        <time>2026-05-14T10:01:30.999Z</time>
      </trkpt>
      <trkpt lat="44.17931" lon="5.28282">
        <ele>1650.7</ele>
        <time>2026-05-14T10:01:31.999Z</time>
      </trkpt>
      <trkpt lat="44.17931" lon="5.28281">
        <ele>1650.6</ele>
        <time>2026-05-14T10:01:32.999Z</time>
      </trkpt>
      <trkpt lat="44.17931" lon="5.28278">
        <ele>1650.6</ele>
        <time>2026-05-14T10:01:33.999Z</time>
      </trkpt>
      <trkpt lat="44.1793" lon="5.28275">
        <ele>1650.4</ele>
        <time>2026-05-14T10:01:34.999Z</time>
      </trkpt>
      <trkpt lat="44.17929" lon="5.28271">
        <ele>1650.2</ele>
        <time>2026-05-14T10:01:35.999Z</time>
      </trkpt>
      <trkpt lat="44.17928" lon="5.28269">
        <ele>1650.2</ele>
        <time>2026-05-14T10:01:36.999Z</time>
      </trkpt>
      <trkpt lat="44.17927" lon="5.28268">
        <ele>1649.9</ele>
        <time>2026-05-14T10:01:37.999Z</time>
      </trkpt>
      <trkpt lat="44.17927" lon="5.28268">
        <ele>1649.7</ele>
        <time>2026-05-14T10:01:38.999Z</time>
      </trkpt>
      <trkpt lat="44.17925" lon="5.28263">
        <ele>1649.5</ele>
        <time>2026-05-14T10:01:40.999Z</time>
      </trkpt>
      <trkpt lat="44.17925" lon="5.28263">
        <ele>1649.4</ele>
        <time>2026-05-14T10:01:41.999Z</time>
      </trkpt>
      <trkpt lat="44.17925" lon="5.28262">
        <ele>1649.1</ele>
        <time>2026-05-14T10:01:42.999Z</time>
      </trkpt>
      <trkpt lat="44.17924" lon="5.28261">
        <ele>1649.2</ele>
        <time>2026-05-14T10:01:43.999Z</time>
      </trkpt>
      <trkpt lat="44.17924" lon="5.28261">
        <ele>1649</ele>
        <time>2026-05-14T10:01:44.999Z</time>
      </trkpt>
      <trkpt lat="44.17923" lon="5.28259">
        <ele>1648.9</ele>
        <time>2026-05-14T10:01:45.999Z</time>
      </trkpt>
      <trkpt lat="44.17922" lon="5.28256">
        <ele>1648.6</ele>
        <time>2026-05-14T10:01:46.999Z</time>
      </trkpt>
      <trkpt lat="44.17921" lon="5.28254">
        <ele>1648.5</ele>
        <time>2026-05-14T10:01:47.999Z</time>
      </trkpt>
      <trkpt lat="44.1792" lon="5.28252">
        <ele>1648.7</ele>
        <time>2026-05-14T10:01:48.999Z</time>
      </trkpt>
      <trkpt lat="44.17919" lon="5.28251">
        <ele>1648.9</ele>
        <time>2026-05-14T10:01:49.999Z</time>
      </trkpt>
      <trkpt lat="44.17918" lon="5.28248">
        <ele>1649.1</ele>
        <time>2026-05-14T10:01:50.999Z</time>
      </trkpt>
      <trkpt lat="44.17917" lon="5.28245">
        <ele>1649.3</ele>
        <time>2026-05-14T10:01:51.999Z</time>
      </trkpt>
      <trkpt lat="44.17916" lon="5.28244">
        <ele>1649.1</ele>
        <time>2026-05-14T10:01:52.999Z</time>
      </trkpt>
      <trkpt lat="44.17916" lon="5.28243">
        <ele>1649</ele>
        <time>2026-05-14T10:01:53.999Z</time>
      </trkpt>
      <trkpt lat="44.17914" lon="5.28243">
        <ele>1650.6</ele>
        <time>2026-05-14T10:01:54.999Z</time>
      </trkpt>
      <trkpt lat="44.17915" lon="5.28241">
        <ele>1649.7</ele>
        <time>2026-05-14T10:01:56.999Z</time>
      </trkpt>
      <trkpt lat="44.17915" lon="5.2824">
        <ele>1649.4</ele>
        <time>2026-05-14T10:01:57.999Z</time>
      </trkpt>
      <trkpt lat="44.17915" lon="5.28239">
        <ele>1649</ele>
        <time>2026-05-14T10:01:58.999Z</time>
      </trkpt>
      <trkpt lat="44.17915" lon="5.28238">
        <ele>1649.3</ele>
        <time>2026-05-14T10:01:59.999Z</time>
      </trkpt>
      <trkpt lat="44.17914" lon="5.28237">
        <ele>1649.3</ele>
        <time>2026-05-14T10:02:00.999Z</time>
      </trkpt>
      <trkpt lat="44.17914" lon="5.28235">
        <ele>1649.5</ele>
        <time>2026-05-14T10:02:01.999Z</time>
      </trkpt>
      <trkpt lat="44.17914" lon="5.28235">
        <ele>1649.1</ele>
        <time>2026-05-14T10:02:02.999Z</time>
      </trkpt>
      <trkpt lat="44.17914" lon="5.28235">
        <ele>1648.8</ele>
        <time>2026-05-14T10:02:03.999Z</time>
      </trkpt>
      <trkpt lat="44.17914" lon="5.28235">
        <ele>1647.9</ele>
        <time>2026-05-14T10:02:04.999Z</time>
      </trkpt>
      <trkpt lat="44.17914" lon="5.28235">
        <ele>1647.1</ele>
        <time>2026-05-14T10:02:05.999Z</time>
      </trkpt>
      <trkpt lat="44.17914" lon="5.28235">
        <ele>1646.7</ele>
        <time>2026-05-14T10:02:06.999Z</time>
      </trkpt>
      <trkpt lat="44.17914" lon="5.28234">
        <ele>1646.8</ele>
        <time>2026-05-14T10:02:07.999Z</time>
      </trkpt>
      <trkpt lat="44.17913" lon="5.28232">
        <ele>1646.4</ele>
        <time>2026-05-14T10:02:08.999Z</time>
      </trkpt>
      <trkpt lat="44.17912" lon="5.2823">
        <ele>1646.5</ele>
        <time>2026-05-14T10:02:09.999Z</time>
      </trkpt>
      <trkpt lat="44.17911" lon="5.28228">
        <ele>1646.6</ele>
        <time>2026-05-14T10:02:10.999Z</time>
      </trkpt>
      <trkpt lat="44.17911" lon="5.28227">
        <ele>1647</ele>
        <time>2026-05-14T10:02:11.999Z</time>
      </trkpt>
      <trkpt lat="44.17911" lon="5.28225">
        <ele>1647.5</ele>
        <time>2026-05-14T10:02:12.999Z</time>
      </trkpt>
      <trkpt lat="44.1791" lon="5.28223">
        <ele>1647.9</ele>
        <time>2026-05-14T10:02:13.999Z</time>
      </trkpt>
      <trkpt lat="44.1791" lon="5.2822">
        <ele>1648.6</ele>
        <time>2026-05-14T10:02:14.999Z</time>
      </trkpt>
      <trkpt lat="44.17909" lon="5.28218">
        <ele>1649</ele>
        <time>2026-05-14T10:02:15.999Z</time>
      </trkpt>
      <trkpt lat="44.17909" lon="5.28216">
        <ele>1649.3</ele>
        <time>2026-05-14T10:02:16.999Z</time>
      </trkpt>
      <trkpt lat="44.17909" lon="5.28215">
        <ele>1649.6</ele>
        <time>2026-05-14T10:02:17.999Z</time>
      </trkpt>
      <trkpt lat="44.17909" lon="5.28212">
        <ele>1649.9</ele>
        <time>2026-05-14T10:02:18.999Z</time>
      </trkpt>
      <trkpt lat="44.17909" lon="5.28211">
        <ele>1650.2</ele>
        <time>2026-05-14T10:02:19.999Z</time>
      </trkpt>
      <trkpt lat="44.17909" lon="5.28209">
        <ele>1650.2</ele>
        <time>2026-05-14T10:02:20.999Z</time>
      </trkpt>
      <trkpt lat="44.17908" lon="5.28208">
        <ele>1651.6</ele>
        <time>2026-05-14T10:02:21.999Z</time>
      </trkpt>
      <trkpt lat="44.17908" lon="5.28207">
        <ele>1652.4</ele>
        <time>2026-05-14T10:02:22.999Z</time>
      </trkpt>
      <trkpt lat="44.17907" lon="5.28206">
        <ele>1652.4</ele>
        <time>2026-05-14T10:02:23.999Z</time>
      </trkpt>
      <trkpt lat="44.17907" lon="5.28207">
        <ele>1652.4</ele>
        <time>2026-05-14T10:02:24.999Z</time>
      </trkpt>
      <trkpt lat="44.17907" lon="5.28206">
        <ele>1652.3</ele>
        <time>2026-05-14T10:02:25.999Z</time>
      </trkpt>
      <trkpt lat="44.17907" lon="5.28205">
        <ele>1652.2</ele>
        <time>2026-05-14T10:02:26.999Z</time>
      </trkpt>
      <trkpt lat="44.17907" lon="5.28204">
        <ele>1652.2</ele>
        <time>2026-05-14T10:02:27.999Z</time>
      </trkpt>
      <trkpt lat="44.17906" lon="5.28203">
        <ele>1652</ele>
        <time>2026-05-14T10:02:28.999Z</time>
      </trkpt>
      <trkpt lat="44.17906" lon="5.28202">
        <ele>1651.8</ele>
        <time>2026-05-14T10:02:29.999Z</time>
      </trkpt>
      <trkpt lat="44.17905" lon="5.28201">
        <ele>1652</ele>
        <time>2026-05-14T10:02:30.999Z</time>
      </trkpt>
      <trkpt lat="44.17906" lon="5.282">
        <ele>1652.2</ele>
        <time>2026-05-14T10:02:31.999Z</time>
      </trkpt>
      <trkpt lat="44.17905" lon="5.28198">
        <ele>1652</ele>
        <time>2026-05-14T10:02:32.999Z</time>
      </trkpt>
      <trkpt lat="44.17906" lon="5.28197">
        <ele>1652.2</ele>
        <time>2026-05-14T10:02:33.999Z</time>
      </trkpt>
      <trkpt lat="44.17906" lon="5.28196">
        <ele>1651.7</ele>
        <time>2026-05-14T10:02:34.999Z</time>
      </trkpt>
      <trkpt lat="44.17906" lon="5.28194">
        <ele>1651.5</ele>
        <time>2026-05-14T10:02:35.999Z</time>
      </trkpt>
      <trkpt lat="44.17906" lon="5.28192">
        <ele>1651.2</ele>
        <time>2026-05-14T10:02:36.999Z</time>
      </trkpt>
      <trkpt lat="44.17907" lon="5.2819">
        <ele>1652.1</ele>
        <time>2026-05-14T10:02:37.999Z</time>
      </trkpt>
      <trkpt lat="44.17907" lon="5.28188">
        <ele>1652.9</ele>
        <time>2026-05-14T10:02:38.999Z</time>
      </trkpt>
      <trkpt lat="44.17908" lon="5.28186">
        <ele>1653.4</ele>
        <time>2026-05-14T10:02:39.999Z</time>
      </trkpt>
      <trkpt lat="44.17908" lon="5.28185">
        <ele>1654</ele>
        <time>2026-05-14T10:02:40.999Z</time>
      </trkpt>
      <trkpt lat="44.17909" lon="5.28185">
        <ele>1655.1</ele>
        <time>2026-05-14T10:02:41.999Z</time>
      </trkpt>
      <trkpt lat="44.17909" lon="5.28183">
        <ele>1656.2</ele>
        <time>2026-05-14T10:02:42.999Z</time>
      </trkpt>
      <trkpt lat="44.17909" lon="5.28182">
        <ele>1656.7</ele>
        <time>2026-05-14T10:02:43.999Z</time>
      </trkpt>
      <trkpt lat="44.17909" lon="5.28181">
        <ele>1657.9</ele>
        <time>2026-05-14T10:02:44.999Z</time>
      </trkpt>
      <trkpt lat="44.17909" lon="5.2818">
        <ele>1658.4</ele>
        <time>2026-05-14T10:02:45.999Z</time>
      </trkpt>
      <trkpt lat="44.17909" lon="5.28178">
        <ele>1658.1</ele>
        <time>2026-05-14T10:02:46.999Z</time>
      </trkpt>
      <trkpt lat="44.17909" lon="5.28177">
        <ele>1658.3</ele>
        <time>2026-05-14T10:02:47.999Z</time>
      </trkpt>
      <trkpt lat="44.17909" lon="5.28176">
        <ele>1658.4</ele>
        <time>2026-05-14T10:02:48.999Z</time>
      </trkpt>
      <trkpt lat="44.1791" lon="5.28175">
        <ele>1658.7</ele>
        <time>2026-05-14T10:02:49.999Z</time>
      </trkpt>
      <trkpt lat="44.1791" lon="5.28174">
        <ele>1658.8</ele>
        <time>2026-05-14T10:02:50.999Z</time>
      </trkpt>
      <trkpt lat="44.17909" lon="5.28173">
        <ele>1658.5</ele>
        <time>2026-05-14T10:02:51.999Z</time>
      </trkpt>
      <trkpt lat="44.17909" lon="5.28172">
        <ele>1658.2</ele>
        <time>2026-05-14T10:02:52.999Z</time>
      </trkpt>
      <trkpt lat="44.17909" lon="5.2817">
        <ele>1657.9</ele>
        <time>2026-05-14T10:02:53.999Z</time>
      </trkpt>
      <trkpt lat="44.17909" lon="5.28168">
        <ele>1657.8</ele>
        <time>2026-05-14T10:02:54.999Z</time>
      </trkpt>
      <trkpt lat="44.1791" lon="5.28167">
        <ele>1657.7</ele>
        <time>2026-05-14T10:02:55.999Z</time>
      </trkpt>
      <trkpt lat="44.1791" lon="5.28166">
        <ele>1657.8</ele>
        <time>2026-05-14T10:02:56.999Z</time>
      </trkpt>
      <trkpt lat="44.1791" lon="5.28166">
        <ele>1658</ele>
        <time>2026-05-14T10:02:57.999Z</time>
      </trkpt>
      <trkpt lat="44.17911" lon="5.28165">
        <ele>1658.3</ele>
        <time>2026-05-14T10:02:58.999Z</time>
      </trkpt>
      <trkpt lat="44.1791" lon="5.28164">
        <ele>1658.4</ele>
        <time>2026-05-14T10:02:59.999Z</time>
      </trkpt>
      <trkpt lat="44.17911" lon="5.28163">
        <ele>1659.3</ele>
        <time>2026-05-14T10:03:00.999Z</time>
      </trkpt>
      <trkpt lat="44.1791" lon="5.28161">
        <ele>1659.3</ele>
        <time>2026-05-14T10:03:01.999Z</time>
      </trkpt>
      <trkpt lat="44.17911" lon="5.2816">
        <ele>1659.3</ele>
        <time>2026-05-14T10:03:02.999Z</time>
      </trkpt>
      <trkpt lat="44.17911" lon="5.28159">
        <ele>1659.7</ele>
        <time>2026-05-14T10:03:03.999Z</time>
      </trkpt>
      <trkpt lat="44.17911" lon="5.28158">
        <ele>1659.7</ele>
        <time>2026-05-14T10:03:04.999Z</time>
      </trkpt>
      <trkpt lat="44.17911" lon="5.28157">
        <ele>1659.8</ele>
        <time>2026-05-14T10:03:05.999Z</time>
      </trkpt>
      <trkpt lat="44.17911" lon="5.28156">
        <ele>1659.6</ele>
        <time>2026-05-14T10:03:06.999Z</time>
      </trkpt>
      <trkpt lat="44.17912" lon="5.28154">
        <ele>1660</ele>
        <time>2026-05-14T10:03:07.999Z</time>
      </trkpt>
      <trkpt lat="44.17913" lon="5.28154">
        <ele>1660.6</ele>
        <time>2026-05-14T10:03:08.999Z</time>
      </trkpt>
      <trkpt lat="44.17913" lon="5.28153">
        <ele>1660.6</ele>
        <time>2026-05-14T10:03:09.999Z</time>
      </trkpt>
      <trkpt lat="44.17914" lon="5.28151">
        <ele>1661.5</ele>
        <time>2026-05-14T10:03:10.999Z</time>
      </trkpt>
      <trkpt lat="44.17914" lon="5.28151">
        <ele>1661.4</ele>
        <time>2026-05-14T10:03:11.999Z</time>
      </trkpt>
      <trkpt lat="44.17914" lon="5.2815">
        <ele>1661.6</ele>
        <time>2026-05-14T10:03:12.999Z</time>
      </trkpt>
      <trkpt lat="44.17914" lon="5.28149">
        <ele>1661.9</ele>
        <time>2026-05-14T10:03:13.999Z</time>
      </trkpt>
      <trkpt lat="44.17914" lon="5.28149">
        <ele>1661.7</ele>
        <time>2026-05-14T10:03:14.999Z</time>
      </trkpt>
      <trkpt lat="44.17914" lon="5.28148">
        <ele>1661.6</ele>
        <time>2026-05-14T10:03:15.999Z</time>
      </trkpt>
      <trkpt lat="44.17915" lon="5.28147">
        <ele>1661.6</ele>
        <time>2026-05-14T10:03:16.999Z</time>
      </trkpt>
      <trkpt lat="44.17916" lon="5.28145">
        <ele>1661.7</ele>
        <time>2026-05-14T10:03:17.999Z</time>
      </trkpt>
      <trkpt lat="44.17916" lon="5.28144">
        <ele>1662.2</ele>
        <time>2026-05-14T10:03:18.999Z</time>
      </trkpt>
      <trkpt lat="44.17916" lon="5.28144">
        <ele>1662.5</ele>
        <time>2026-05-14T10:03:19.999Z</time>
      </trkpt>
      <trkpt lat="44.17916" lon="5.28144">
        <ele>1662.7</ele>
        <time>2026-05-14T10:03:20.999Z</time>
      </trkpt>
      <trkpt lat="44.17917" lon="5.28142">
        <ele>1663.1</ele>
        <time>2026-05-14T10:03:21.999Z</time>
      </trkpt>
      <trkpt lat="44.17918" lon="5.28142">
        <ele>1664.1</ele>
        <time>2026-05-14T10:03:22.999Z</time>
      </trkpt>
      <trkpt lat="44.17919" lon="5.28141">
        <ele>1663.8</ele>
        <time>2026-05-14T10:03:23.999Z</time>
      </trkpt>
      <trkpt lat="44.17919" lon="5.28141">
        <ele>1664</ele>
        <time>2026-05-14T10:03:24.999Z</time>
      </trkpt>
      <trkpt lat="44.17919" lon="5.2814">
        <ele>1663.9</ele>
        <time>2026-05-14T10:03:25.999Z</time>
      </trkpt>
      <trkpt lat="44.1792" lon="5.28139">
        <ele>1664.6</ele>
        <time>2026-05-14T10:03:26.999Z</time>
      </trkpt>
      <trkpt lat="44.17921" lon="5.28137">
        <ele>1665</ele>
        <time>2026-05-14T10:03:27.999Z</time>
      </trkpt>
      <trkpt lat="44.17921" lon="5.28135">
        <ele>1666</ele>
        <time>2026-05-14T10:03:28.999Z</time>
      </trkpt>
      <trkpt lat="44.17922" lon="5.28134">
        <ele>1666.1</ele>
        <time>2026-05-14T10:03:29.999Z</time>
      </trkpt>
      <trkpt lat="44.17923" lon="5.28132">
        <ele>1665.6</ele>
        <time>2026-05-14T10:03:30.999Z</time>
      </trkpt>
      <trkpt lat="44.17924" lon="5.2813">
        <ele>1664.9</ele>
        <time>2026-05-14T10:03:31.999Z</time>
      </trkpt>
      <trkpt lat="44.17924" lon="5.28129">
        <ele>1665.2</ele>
        <time>2026-05-14T10:03:32.999Z</time>
      </trkpt>
      <trkpt lat="44.17924" lon="5.28128">
        <ele>1665.2</ele>
        <time>2026-05-14T10:03:33.999Z</time>
      </trkpt>
      <trkpt lat="44.17925" lon="5.28127">
        <ele>1665.2</ele>
        <time>2026-05-14T10:03:34.999Z</time>
      </trkpt>
      <trkpt lat="44.17926" lon="5.28126">
        <ele>1665.3</ele>
        <time>2026-05-14T10:03:35.999Z</time>
      </trkpt>
      <trkpt lat="44.17926" lon="5.28125">
        <ele>1665</ele>
        <time>2026-05-14T10:03:36.999Z</time>
      </trkpt>
      <trkpt lat="44.17927" lon="5.28123">
        <ele>1664.7</ele>
        <time>2026-05-14T10:03:37.999Z</time>
      </trkpt>
      <trkpt lat="44.17927" lon="5.28122">
        <ele>1665.6</ele>
        <time>2026-05-14T10:03:38.999Z</time>
      </trkpt>
      <trkpt lat="44.17928" lon="5.2812">
        <ele>1665.5</ele>
        <time>2026-05-14T10:03:39.999Z</time>
      </trkpt>
      <trkpt lat="44.17928" lon="5.28119">
        <ele>1666.2</ele>
        <time>2026-05-14T10:03:40.999Z</time>
      </trkpt>
      <trkpt lat="44.17928" lon="5.28118">
        <ele>1666.6</ele>
        <time>2026-05-14T10:03:41.999Z</time>
      </trkpt>
      <trkpt lat="44.17928" lon="5.28117">
        <ele>1667.5</ele>
        <time>2026-05-14T10:03:42.999Z</time>
      </trkpt>
      <trkpt lat="44.17929" lon="5.28116">
        <ele>1668.1</ele>
        <time>2026-05-14T10:03:43.999Z</time>
      </trkpt>
      <trkpt lat="44.17929" lon="5.28115">
        <ele>1668.3</ele>
        <time>2026-05-14T10:03:44.999Z</time>
      </trkpt>
      <trkpt lat="44.1793" lon="5.28115">
        <ele>1667.9</ele>
        <time>2026-05-14T10:03:45.999Z</time>
      </trkpt>
      <trkpt lat="44.1793" lon="5.28114">
        <ele>1667</ele>
        <time>2026-05-14T10:03:46.999Z</time>
      </trkpt>
      <trkpt lat="44.1793" lon="5.28113">
        <ele>1667.3</ele>
        <time>2026-05-14T10:03:47.999Z</time>
      </trkpt>
      <trkpt lat="44.1793" lon="5.28111">
        <ele>1666.8</ele>
        <time>2026-05-14T10:03:48.999Z</time>
      </trkpt>
      <trkpt lat="44.17931" lon="5.2811">
        <ele>1666.5</ele>
        <time>2026-05-14T10:03:49.999Z</time>
      </trkpt>
      <trkpt lat="44.17931" lon="5.28109">
        <ele>1666.5</ele>
        <time>2026-05-14T10:03:50.999Z</time>
      </trkpt>
      <trkpt lat="44.17932" lon="5.28108">
        <ele>1666.8</ele>
        <time>2026-05-14T10:03:51.999Z</time>
      </trkpt>
      <trkpt lat="44.17932" lon="5.28107">
        <ele>1666.7</ele>
        <time>2026-05-14T10:03:52.999Z</time>
      </trkpt>
      <trkpt lat="44.17933" lon="5.28106">
        <ele>1666.6</ele>
        <time>2026-05-14T10:03:53.999Z</time>
      </trkpt>
      <trkpt lat="44.17934" lon="5.28104">
        <ele>1666.5</ele>
        <time>2026-05-14T10:03:54.999Z</time>
      </trkpt>
      <trkpt lat="44.17934" lon="5.28103">
        <ele>1666.5</ele>
        <time>2026-05-14T10:03:55.999Z</time>
      </trkpt>
      <trkpt lat="44.17934" lon="5.28102">
        <ele>1666.5</ele>
        <time>2026-05-14T10:03:56.999Z</time>
      </trkpt>
      <trkpt lat="44.17934" lon="5.28101">
        <ele>1666.6</ele>
        <time>2026-05-14T10:03:57.999Z</time>
      </trkpt>
      <trkpt lat="44.17935" lon="5.28099">
        <ele>1666.3</ele>
        <time>2026-05-14T10:03:58.999Z</time>
      </trkpt>
      <trkpt lat="44.17935" lon="5.28097">
        <ele>1666.4</ele>
        <time>2026-05-14T10:03:59.999Z</time>
      </trkpt>
      <trkpt lat="44.17934" lon="5.28095">
        <ele>1666.4</ele>
        <time>2026-05-14T10:04:00.999Z</time>
      </trkpt>
      <trkpt lat="44.17934" lon="5.28094">
        <ele>1666.3</ele>
        <time>2026-05-14T10:04:01.999Z</time>
      </trkpt>
      <trkpt lat="44.17933" lon="5.28093">
        <ele>1666.3</ele>
        <time>2026-05-14T10:04:02.999Z</time>
      </trkpt>
      <trkpt lat="44.17933" lon="5.28093">
        <ele>1666</ele>
        <time>2026-05-14T10:04:03.999Z</time>
      </trkpt>
      <trkpt lat="44.17933" lon="5.28094">
        <ele>1666.1</ele>
        <time>2026-05-14T10:04:04.999Z</time>
      </trkpt>
      <trkpt lat="44.17933" lon="5.28094">
        <ele>1666.3</ele>
        <time>2026-05-14T10:04:05.999Z</time>
      </trkpt>
      <trkpt lat="44.17933" lon="5.28095">
        <ele>1666.3</ele>
        <time>2026-05-14T10:04:06.999Z</time>
      </trkpt>
      <trkpt lat="44.17933" lon="5.28096">
        <ele>1666.2</ele>
        <time>2026-05-14T10:04:07.999Z</time>
      </trkpt>
      <trkpt lat="44.17932" lon="5.28096">
        <ele>1666.7</ele>
        <time>2026-05-14T10:04:08.999Z</time>
      </trkpt>
      <trkpt lat="44.17932" lon="5.28097">
        <ele>1666.6</ele>
        <time>2026-05-14T10:04:09.999Z</time>
      </trkpt>
      <trkpt lat="44.17932" lon="5.28098">
        <ele>1666.7</ele>
        <time>2026-05-14T10:04:10.999Z</time>
      </trkpt>
      <trkpt lat="44.17931" lon="5.28098">
        <ele>1666.3</ele>
        <time>2026-05-14T10:04:11.999Z</time>
      </trkpt>
      <trkpt lat="44.17931" lon="5.28099">
        <ele>1666.3</ele>
        <time>2026-05-14T10:04:12.999Z</time>
      </trkpt>
      <trkpt lat="44.17931" lon="5.281">
        <ele>1665.9</ele>
        <time>2026-05-14T10:04:13.999Z</time>
      </trkpt>
      <trkpt lat="44.17931" lon="5.28101">
        <ele>1666.2</ele>
        <time>2026-05-14T10:04:14.999Z</time>
      </trkpt>
      <trkpt lat="44.1793" lon="5.28102">
        <ele>1666.3</ele>
        <time>2026-05-14T10:04:15.999Z</time>
      </trkpt>
      <trkpt lat="44.17928" lon="5.28102">
        <ele>1666.5</ele>
        <time>2026-05-14T10:04:16.999Z</time>
      </trkpt>
      <trkpt lat="44.17929" lon="5.28104">
        <ele>1666.3</ele>
        <time>2026-05-14T10:04:17.999Z</time>
      </trkpt>
      <trkpt lat="44.17928" lon="5.28105">
        <ele>1666.4</ele>
        <time>2026-05-14T10:04:18.999Z</time>
      </trkpt>
      <trkpt lat="44.17927" lon="5.28106">
        <ele>1666</ele>
        <time>2026-05-14T10:04:19.999Z</time>
      </trkpt>
      <trkpt lat="44.17927" lon="5.28107">
        <ele>1665.9</ele>
        <time>2026-05-14T10:04:20.999Z</time>
      </trkpt>
      <trkpt lat="44.17927" lon="5.28108">
        <ele>1665.8</ele>
        <time>2026-05-14T10:04:21.999Z</time>
      </trkpt>
      <trkpt lat="44.17927" lon="5.28108">
        <ele>1666.6</ele>
        <time>2026-05-14T10:04:22.999Z</time>
      </trkpt>
      <trkpt lat="44.17927" lon="5.28109">
        <ele>1666.6</ele>
        <time>2026-05-14T10:04:23.999Z</time>
      </trkpt>
      <trkpt lat="44.17927" lon="5.28109">
        <ele>1666.5</ele>
        <time>2026-05-14T10:04:24.999Z</time>
      </trkpt>
      <trkpt lat="44.17927" lon="5.2811">
        <ele>1666.2</ele>
        <time>2026-05-14T10:04:25.999Z</time>
      </trkpt>
      <trkpt lat="44.17926" lon="5.28111">
        <ele>1666.9</ele>
        <time>2026-05-14T10:04:26.999Z</time>
      </trkpt>
      <trkpt lat="44.17925" lon="5.28112">
        <ele>1666.7</ele>
        <time>2026-05-14T10:04:27.999Z</time>
      </trkpt>
      <trkpt lat="44.17925" lon="5.28113">
        <ele>1666.2</ele>
        <time>2026-05-14T10:04:28.999Z</time>
      </trkpt>
      <trkpt lat="44.17924" lon="5.28115">
        <ele>1665.8</ele>
        <time>2026-05-14T10:04:29.999Z</time>
      </trkpt>
      <trkpt lat="44.17924" lon="5.28116">
        <ele>1666.2</ele>
        <time>2026-05-14T10:04:30.999Z</time>
      </trkpt>
      <trkpt lat="44.17923" lon="5.28116">
        <ele>1666.1</ele>
        <time>2026-05-14T10:04:31.999Z</time>
      </trkpt>
      <trkpt lat="44.17923" lon="5.28117">
        <ele>1665.9</ele>
        <time>2026-05-14T10:04:32.999Z</time>
      </trkpt>
      <trkpt lat="44.17922" lon="5.28118">
        <ele>1665.8</ele>
        <time>2026-05-14T10:04:33.999Z</time>
      </trkpt>
      <trkpt lat="44.17922" lon="5.28119">
        <ele>1665.7</ele>
        <time>2026-05-14T10:04:34.999Z</time>
      </trkpt>
      <trkpt lat="44.17921" lon="5.28119">
        <ele>1665.5</ele>
        <time>2026-05-14T10:04:35.999Z</time>
      </trkpt>
      <trkpt lat="44.1792" lon="5.28119">
        <ele>1665.1</ele>
        <time>2026-05-14T10:04:36.999Z</time>
      </trkpt>
      <trkpt lat="44.17919" lon="5.2812">
        <ele>1664.8</ele>
        <time>2026-05-14T10:04:37.999Z</time>
      </trkpt>
      <trkpt lat="44.17919" lon="5.2812">
        <ele>1664.7</ele>
        <time>2026-05-14T10:04:38.999Z</time>
      </trkpt>
      <trkpt lat="44.17918" lon="5.2812">
        <ele>1664.6</ele>
        <time>2026-05-14T10:04:39.999Z</time>
      </trkpt>
      <trkpt lat="44.17917" lon="5.28121">
        <ele>1664.8</ele>
        <time>2026-05-14T10:04:40.999Z</time>
      </trkpt>
      <trkpt lat="44.17917" lon="5.28121">
        <ele>1664.7</ele>
        <time>2026-05-14T10:04:41.999Z</time>
      </trkpt>
      <trkpt lat="44.17916" lon="5.28121">
        <ele>1664.3</ele>
        <time>2026-05-14T10:04:42.999Z</time>
      </trkpt>
      <trkpt lat="44.17915" lon="5.28121">
        <ele>1663.9</ele>
        <time>2026-05-14T10:04:43.999Z</time>
      </trkpt>
      <trkpt lat="44.17915" lon="5.28121">
        <ele>1664.4</ele>
        <time>2026-05-14T10:04:44.999Z</time>
      </trkpt>
      <trkpt lat="44.17915" lon="5.28121">
        <ele>1664.2</ele>
        <time>2026-05-14T10:04:45.999Z</time>
      </trkpt>
      <trkpt lat="44.17915" lon="5.28121">
        <ele>1664</ele>
        <time>2026-05-14T10:04:46.999Z</time>
      </trkpt>
      <trkpt lat="44.17915" lon="5.28121">
        <ele>1663.9</ele>
        <time>2026-05-14T10:04:47.999Z</time>
      </trkpt>
      <trkpt lat="44.17915" lon="5.28121">
        <ele>1663.7</ele>
        <time>2026-05-14T10:04:48.999Z</time>
      </trkpt>
      <trkpt lat="44.17915" lon="5.28122">
        <ele>1663.5</ele>
        <time>2026-05-14T10:04:49.999Z</time>
      </trkpt>
      <trkpt lat="44.17914" lon="5.28122">
        <ele>1663.3</ele>
        <time>2026-05-14T10:04:50.999Z</time>
      </trkpt>
      <trkpt lat="44.17913" lon="5.28122">
        <ele>1663.3</ele>
        <time>2026-05-14T10:04:51.999Z</time>
      </trkpt>
      <trkpt lat="44.17912" lon="5.28123">
        <ele>1663.2</ele>
        <time>2026-05-14T10:04:52.999Z</time>
      </trkpt>
      <trkpt lat="44.17911" lon="5.28124">
        <ele>1663.2</ele>
        <time>2026-05-14T10:04:53.999Z</time>
      </trkpt>
      <trkpt lat="44.1791" lon="5.28124">
        <ele>1663.2</ele>
        <time>2026-05-14T10:04:54.999Z</time>
      </trkpt>
      <trkpt lat="44.17909" lon="5.28126">
        <ele>1663</ele>
        <time>2026-05-14T10:04:55.999Z</time>
      </trkpt>
      <trkpt lat="44.17907" lon="5.28126">
        <ele>1663.4</ele>
        <time>2026-05-14T10:04:56.999Z</time>
      </trkpt>
      <trkpt lat="44.17906" lon="5.28126">
        <ele>1663.3</ele>
        <time>2026-05-14T10:04:57.999Z</time>
      </trkpt>
      <trkpt lat="44.17905" lon="5.28127">
        <ele>1663.2</ele>
        <time>2026-05-14T10:04:58.999Z</time>
      </trkpt>
      <trkpt lat="44.17905" lon="5.28127">
        <ele>1663.1</ele>
        <time>2026-05-14T10:04:59.999Z</time>
      </trkpt>
      <trkpt lat="44.17905" lon="5.28127">
        <ele>1663</ele>
        <time>2026-05-14T10:05:00.999Z</time>
      </trkpt>
      <trkpt lat="44.17905" lon="5.28128">
        <ele>1662.7</ele>
        <time>2026-05-14T10:05:01.999Z</time>
      </trkpt>
      <trkpt lat="44.17904" lon="5.28128">
        <ele>1662.5</ele>
        <time>2026-05-14T10:05:02.999Z</time>
      </trkpt>
      <trkpt lat="44.17904" lon="5.28128">
        <ele>1662.5</ele>
        <time>2026-05-14T10:05:03.999Z</time>
      </trkpt>
      <trkpt lat="44.17902" lon="5.28129">
        <ele>1662.1</ele>
        <time>2026-05-14T10:05:04.999Z</time>
      </trkpt>
      <trkpt lat="44.17901" lon="5.28129">
        <ele>1662.1</ele>
        <time>2026-05-14T10:05:05.999Z</time>
      </trkpt>
      <trkpt lat="44.17901" lon="5.2813">
        <ele>1662.3</ele>
        <time>2026-05-14T10:05:06.999Z</time>
      </trkpt>
      <trkpt lat="44.179" lon="5.28131">
        <ele>1662.3</ele>
        <time>2026-05-14T10:05:07.999Z</time>
      </trkpt>
      <trkpt lat="44.17899" lon="5.28131">
        <ele>1662.2</ele>
        <time>2026-05-14T10:05:08.999Z</time>
      </trkpt>
      <trkpt lat="44.17898" lon="5.28132">
        <ele>1662</ele>
        <time>2026-05-14T10:05:09.999Z</time>
      </trkpt>
      <trkpt lat="44.17896" lon="5.28132">
        <ele>1661.9</ele>
        <time>2026-05-14T10:05:10.999Z</time>
      </trkpt>
      <trkpt lat="44.17896" lon="5.28134">
        <ele>1661.8</ele>
        <time>2026-05-14T10:05:11.999Z</time>
      </trkpt>
      <trkpt lat="44.17895" lon="5.28134">
        <ele>1662</ele>
        <time>2026-05-14T10:05:12.999Z</time>
      </trkpt>
      <trkpt lat="44.17894" lon="5.28134">
        <ele>1661.9</ele>
        <time>2026-05-14T10:05:13.999Z</time>
      </trkpt>
      <trkpt lat="44.17893" lon="5.28134">
        <ele>1661.9</ele>
        <time>2026-05-14T10:05:14.999Z</time>
      </trkpt>
      <trkpt lat="44.17892" lon="5.28135">
        <ele>1661.6</ele>
        <time>2026-05-14T10:05:15.999Z</time>
      </trkpt>
      <trkpt lat="44.17892" lon="5.28136">
        <ele>1661.6</ele>
        <time>2026-05-14T10:05:16.999Z</time>
      </trkpt>
      <trkpt lat="44.17892" lon="5.28136">
        <ele>1661.6</ele>
        <time>2026-05-14T10:05:17.999Z</time>
      </trkpt>
      <trkpt lat="44.17891" lon="5.28138">
        <ele>1661.4</ele>
        <time>2026-05-14T10:05:18.999Z</time>
      </trkpt>
      <trkpt lat="44.1789" lon="5.28139">
        <ele>1661.7</ele>
        <time>2026-05-14T10:05:19.999Z</time>
      </trkpt>
      <trkpt lat="44.17889" lon="5.2814">
        <ele>1661.8</ele>
        <time>2026-05-14T10:05:20.999Z</time>
      </trkpt>
      <trkpt lat="44.17888" lon="5.28141">
        <ele>1662</ele>
        <time>2026-05-14T10:05:21.999Z</time>
      </trkpt>
      <trkpt lat="44.17887" lon="5.28142">
        <ele>1662.2</ele>
        <time>2026-05-14T10:05:22.999Z</time>
      </trkpt>
      <trkpt lat="44.17887" lon="5.28143">
        <ele>1662.4</ele>
        <time>2026-05-14T10:05:23.999Z</time>
      </trkpt>
      <trkpt lat="44.17886" lon="5.28144">
        <ele>1662.3</ele>
        <time>2026-05-14T10:05:24.999Z</time>
      </trkpt>
      <trkpt lat="44.17885" lon="5.28146">
        <ele>1662.3</ele>
        <time>2026-05-14T10:05:25.999Z</time>
      </trkpt>
      <trkpt lat="44.17884" lon="5.28148">
        <ele>1662.3</ele>
        <time>2026-05-14T10:05:26.999Z</time>
      </trkpt>
      <trkpt lat="44.17883" lon="5.28149">
        <ele>1662.3</ele>
        <time>2026-05-14T10:05:27.999Z</time>
      </trkpt>
      <trkpt lat="44.17882" lon="5.2815">
        <ele>1662.3</ele>
        <time>2026-05-14T10:05:28.999Z</time>
      </trkpt>
      <trkpt lat="44.17882" lon="5.2815">
        <ele>1662.2</ele>
        <time>2026-05-14T10:05:29.999Z</time>
      </trkpt>
      <trkpt lat="44.17881" lon="5.28151">
        <ele>1661.9</ele>
        <time>2026-05-14T10:05:30.999Z</time>
      </trkpt>
      <trkpt lat="44.1788" lon="5.28151">
        <ele>1661.9</ele>
        <time>2026-05-14T10:05:31.999Z</time>
      </trkpt>
      <trkpt lat="44.17879" lon="5.28152">
        <ele>1661.9</ele>
        <time>2026-05-14T10:05:32.999Z</time>
      </trkpt>
      <trkpt lat="44.17879" lon="5.28153">
        <ele>1661.8</ele>
        <time>2026-05-14T10:05:33.999Z</time>
      </trkpt>
      <trkpt lat="44.17878" lon="5.28155">
        <ele>1661.6</ele>
        <time>2026-05-14T10:05:34.999Z</time>
      </trkpt>
      <trkpt lat="44.17878" lon="5.28157">
        <ele>1661.5</ele>
        <time>2026-05-14T10:05:35.999Z</time>
      </trkpt>
      <trkpt lat="44.17877" lon="5.28158">
        <ele>1661.2</ele>
        <time>2026-05-14T10:05:36.999Z</time>
      </trkpt>
      <trkpt lat="44.17876" lon="5.28159">
        <ele>1661.2</ele>
        <time>2026-05-14T10:05:37.999Z</time>
      </trkpt>
      <trkpt lat="44.17876" lon="5.28159">
        <ele>1661.7</ele>
        <time>2026-05-14T10:05:38.999Z</time>
      </trkpt>
      <trkpt lat="44.17875" lon="5.2816">
        <ele>1661.5</ele>
        <time>2026-05-14T10:05:39.999Z</time>
      </trkpt>
      <trkpt lat="44.17874" lon="5.28161">
        <ele>1661.5</ele>
        <time>2026-05-14T10:05:40.999Z</time>
      </trkpt>
      <trkpt lat="44.17873" lon="5.28162">
        <ele>1661.6</ele>
        <time>2026-05-14T10:05:41.999Z</time>
      </trkpt>
      <trkpt lat="44.17873" lon="5.28164">
        <ele>1661.9</ele>
        <time>2026-05-14T10:05:42.999Z</time>
      </trkpt>
      <trkpt lat="44.17872" lon="5.28164">
        <ele>1662</ele>
        <time>2026-05-14T10:05:43.999Z</time>
      </trkpt>
      <trkpt lat="44.17872" lon="5.28165">
        <ele>1662.2</ele>
        <time>2026-05-14T10:05:44.999Z</time>
      </trkpt>
      <trkpt lat="44.17872" lon="5.28166">
        <ele>1662.3</ele>
        <time>2026-05-14T10:05:45.999Z</time>
      </trkpt>
      <trkpt lat="44.17871" lon="5.28167">
        <ele>1662.6</ele>
        <time>2026-05-14T10:05:46.999Z</time>
      </trkpt>
      <trkpt lat="44.1787" lon="5.28168">
        <ele>1662.8</ele>
        <time>2026-05-14T10:05:47.999Z</time>
      </trkpt>
      <trkpt lat="44.1787" lon="5.28169">
        <ele>1663.3</ele>
        <time>2026-05-14T10:05:48.999Z</time>
      </trkpt>
      <trkpt lat="44.1787" lon="5.2817">
        <ele>1663.6</ele>
        <time>2026-05-14T10:05:49.999Z</time>
      </trkpt>
      <trkpt lat="44.17869" lon="5.2817">
        <ele>1663.7</ele>
        <time>2026-05-14T10:05:50.999Z</time>
      </trkpt>
      <trkpt lat="44.17869" lon="5.2817">
        <ele>1663.5</ele>
        <time>2026-05-14T10:05:51.999Z</time>
      </trkpt>
      <trkpt lat="44.17868" lon="5.2817">
        <ele>1663.5</ele>
        <time>2026-05-14T10:05:52.999Z</time>
      </trkpt>
      <trkpt lat="44.17868" lon="5.28172">
        <ele>1663.5</ele>
        <time>2026-05-14T10:05:53.999Z</time>
      </trkpt>
      <trkpt lat="44.17867" lon="5.28172">
        <ele>1663.7</ele>
        <time>2026-05-14T10:05:54.999Z</time>
      </trkpt>
      <trkpt lat="44.17867" lon="5.28173">
        <ele>1663.9</ele>
        <time>2026-05-14T10:05:55.999Z</time>
      </trkpt>
      <trkpt lat="44.17866" lon="5.28175">
        <ele>1664.2</ele>
        <time>2026-05-14T10:05:56.999Z</time>
      </trkpt>
      <trkpt lat="44.17866" lon="5.28176">
        <ele>1664.6</ele>
        <time>2026-05-14T10:05:57.999Z</time>
      </trkpt>
      <trkpt lat="44.17866" lon="5.28176">
        <ele>1664.8</ele>
        <time>2026-05-14T10:05:58.999Z</time>
      </trkpt>
      <trkpt lat="44.17865" lon="5.28177">
        <ele>1664.7</ele>
        <time>2026-05-14T10:05:59.999Z</time>
      </trkpt>
      <trkpt lat="44.17866" lon="5.28179">
        <ele>1666.7</ele>
        <time>2026-05-14T10:06:00.999Z</time>
      </trkpt>
      <trkpt lat="44.17866" lon="5.2818">
        <ele>1668</ele>
        <time>2026-05-14T10:06:01.999Z</time>
      </trkpt>
      <trkpt lat="44.17866" lon="5.28181">
        <ele>1669.6</ele>
        <time>2026-05-14T10:06:02.999Z</time>
      </trkpt>
      <trkpt lat="44.17866" lon="5.28182">
        <ele>1670</ele>
        <time>2026-05-14T10:06:03.999Z</time>
      </trkpt>
      <trkpt lat="44.17865" lon="5.28183">
        <ele>1670.4</ele>
        <time>2026-05-14T10:06:04.999Z</time>
      </trkpt>
      <trkpt lat="44.17864" lon="5.28185">
        <ele>1670</ele>
        <time>2026-05-14T10:06:05.999Z</time>
      </trkpt>
      <trkpt lat="44.17864" lon="5.28186">
        <ele>1670.2</ele>
        <time>2026-05-14T10:06:06.999Z</time>
      </trkpt>
      <trkpt lat="44.17863" lon="5.28188">
        <ele>1670.3</ele>
        <time>2026-05-14T10:06:07.999Z</time>
      </trkpt>
      <trkpt lat="44.17862" lon="5.28189">
        <ele>1671.5</ele>
        <time>2026-05-14T10:06:08.999Z</time>
      </trkpt>
      <trkpt lat="44.17862" lon="5.2819">
        <ele>1672.1</ele>
        <time>2026-05-14T10:06:09.999Z</time>
      </trkpt>
      <trkpt lat="44.17862" lon="5.28193">
        <ele>1673.1</ele>
        <time>2026-05-14T10:06:10.999Z</time>
      </trkpt>
      <trkpt lat="44.17862" lon="5.28194">
        <ele>1673.6</ele>
        <time>2026-05-14T10:06:11.999Z</time>
      </trkpt>
      <trkpt lat="44.17862" lon="5.28195">
        <ele>1674.4</ele>
        <time>2026-05-14T10:06:12.999Z</time>
      </trkpt>
      <trkpt lat="44.17862" lon="5.28195">
        <ele>1674.3</ele>
        <time>2026-05-14T10:06:13.999Z</time>
      </trkpt>
      <trkpt lat="44.17861" lon="5.28198">
        <ele>1674.7</ele>
        <time>2026-05-14T10:06:14.999Z</time>
      </trkpt>
      <trkpt lat="44.17861" lon="5.282">
        <ele>1676.2</ele>
        <time>2026-05-14T10:06:15.999Z</time>
      </trkpt>
      <trkpt lat="44.17861" lon="5.28202">
        <ele>1677.6</ele>
        <time>2026-05-14T10:06:16.999Z</time>
      </trkpt>
      <trkpt lat="44.17861" lon="5.28203">
        <ele>1677.5</ele>
        <time>2026-05-14T10:06:17.999Z</time>
      </trkpt>
      <trkpt lat="44.17861" lon="5.28205">
        <ele>1678.1</ele>
        <time>2026-05-14T10:06:18.999Z</time>
      </trkpt>
      <trkpt lat="44.17861" lon="5.28206">
        <ele>1678.1</ele>
        <time>2026-05-14T10:06:19.999Z</time>
      </trkpt>
      <trkpt lat="44.17861" lon="5.28208">
        <ele>1678.1</ele>
        <time>2026-05-14T10:06:20.999Z</time>
      </trkpt>
      <trkpt lat="44.17861" lon="5.2821">
        <ele>1677.7</ele>
        <time>2026-05-14T10:06:21.999Z</time>
      </trkpt>
      <trkpt lat="44.17861" lon="5.28211">
        <ele>1677.7</ele>
        <time>2026-05-14T10:06:22.999Z</time>
      </trkpt>
      <trkpt lat="44.17861" lon="5.28211">
        <ele>1677.7</ele>
        <time>2026-05-14T10:06:23.999Z</time>
      </trkpt>
      <trkpt lat="44.17861" lon="5.28213">
        <ele>1677.7</ele>
        <time>2026-05-14T10:06:24.999Z</time>
      </trkpt>
      <trkpt lat="44.17861" lon="5.28213">
        <ele>1677.9</ele>
        <time>2026-05-14T10:06:25.999Z</time>
      </trkpt>
      <trkpt lat="44.17861" lon="5.28214">
        <ele>1678</ele>
        <time>2026-05-14T10:06:26.999Z</time>
      </trkpt>
      <trkpt lat="44.17861" lon="5.28214">
        <ele>1677.9</ele>
        <time>2026-05-14T10:06:27.999Z</time>
      </trkpt>
      <trkpt lat="44.17862" lon="5.28215">
        <ele>1678.1</ele>
        <time>2026-05-14T10:06:28.999Z</time>
      </trkpt>
      <trkpt lat="44.17862" lon="5.28217">
        <ele>1678.1</ele>
        <time>2026-05-14T10:06:29.999Z</time>
      </trkpt>
      <trkpt lat="44.17862" lon="5.28219">
        <ele>1678.2</ele>
        <time>2026-05-14T10:06:30.999Z</time>
      </trkpt>
      <trkpt lat="44.17863" lon="5.2822">
        <ele>1678.1</ele>
        <time>2026-05-14T10:06:31.999Z</time>
      </trkpt>
      <trkpt lat="44.17862" lon="5.28222">
        <ele>1677.9</ele>
        <time>2026-05-14T10:06:32.999Z</time>
      </trkpt>
      <trkpt lat="44.17863" lon="5.28223">
        <ele>1677.8</ele>
        <time>2026-05-14T10:06:33.999Z</time>
      </trkpt>
      <trkpt lat="44.17863" lon="5.28224">
        <ele>1677.8</ele>
        <time>2026-05-14T10:06:34.999Z</time>
      </trkpt>
      <trkpt lat="44.17863" lon="5.28225">
        <ele>1677.8</ele>
        <time>2026-05-14T10:06:35.999Z</time>
      </trkpt>
      <trkpt lat="44.17863" lon="5.28227">
        <ele>1678.1</ele>
        <time>2026-05-14T10:06:36.999Z</time>
      </trkpt>
      <trkpt lat="44.17864" lon="5.28228">
        <ele>1678.4</ele>
        <time>2026-05-14T10:06:37.999Z</time>
      </trkpt>
      <trkpt lat="44.17864" lon="5.28229">
        <ele>1678.4</ele>
        <time>2026-05-14T10:06:38.999Z</time>
      </trkpt>
      <trkpt lat="44.17864" lon="5.28231">
        <ele>1678.8</ele>
        <time>2026-05-14T10:06:39.999Z</time>
      </trkpt>
      <trkpt lat="44.17864" lon="5.28232">
        <ele>1680.2</ele>
        <time>2026-05-14T10:06:40.999Z</time>
      </trkpt>
      <trkpt lat="44.17864" lon="5.28233">
        <ele>1680.7</ele>
        <time>2026-05-14T10:06:41.999Z</time>
      </trkpt>
      <trkpt lat="44.17864" lon="5.28234">
        <ele>1681.5</ele>
        <time>2026-05-14T10:06:42.999Z</time>
      </trkpt>
      <trkpt lat="44.17864" lon="5.28236">
        <ele>1682.4</ele>
        <time>2026-05-14T10:06:43.999Z</time>
      </trkpt>
      <trkpt lat="44.17865" lon="5.28238">
        <ele>1683.1</ele>
        <time>2026-05-14T10:06:44.999Z</time>
      </trkpt>
      <trkpt lat="44.17865" lon="5.28239">
        <ele>1683.2</ele>
        <time>2026-05-14T10:06:45.999Z</time>
      </trkpt>
      <trkpt lat="44.17865" lon="5.28241">
        <ele>1683.2</ele>
        <time>2026-05-14T10:06:46.999Z</time>
      </trkpt>
      <trkpt lat="44.17866" lon="5.28241">
        <ele>1683.3</ele>
        <time>2026-05-14T10:06:47.999Z</time>
      </trkpt>
      <trkpt lat="44.17866" lon="5.28243">
        <ele>1683.3</ele>
        <time>2026-05-14T10:06:48.999Z</time>
      </trkpt>
      <trkpt lat="44.17866" lon="5.28245">
        <ele>1683.8</ele>
        <time>2026-05-14T10:06:49.999Z</time>
      </trkpt>
      <trkpt lat="44.17866" lon="5.28246">
        <ele>1684.1</ele>
        <time>2026-05-14T10:06:50.999Z</time>
      </trkpt>
      <trkpt lat="44.17867" lon="5.28248">
        <ele>1683.9</ele>
        <time>2026-05-14T10:06:51.999Z</time>
      </trkpt>
      <trkpt lat="44.17867" lon="5.28249">
        <ele>1684.9</ele>
        <time>2026-05-14T10:06:52.999Z</time>
      </trkpt>
      <trkpt lat="44.17866" lon="5.2825">
        <ele>1685.6</ele>
        <time>2026-05-14T10:06:53.999Z</time>
      </trkpt>
      <trkpt lat="44.17866" lon="5.28251">
        <ele>1685.9</ele>
        <time>2026-05-14T10:06:54.999Z</time>
      </trkpt>
      <trkpt lat="44.17864" lon="5.28251">
        <ele>1687.7</ele>
        <time>2026-05-14T10:06:55.999Z</time>
      </trkpt>
      <trkpt lat="44.17864" lon="5.28251">
        <ele>1688.2</ele>
        <time>2026-05-14T10:06:56.999Z</time>
      </trkpt>
      <trkpt lat="44.17865" lon="5.28252">
        <ele>1688.7</ele>
        <time>2026-05-14T10:06:57.999Z</time>
      </trkpt>
      <trkpt lat="44.17864" lon="5.28252">
        <ele>1689.9</ele>
        <time>2026-05-14T10:06:58.999Z</time>
      </trkpt>
      <trkpt lat="44.17864" lon="5.28252">
        <ele>1690.6</ele>
        <time>2026-05-14T10:06:59.999Z</time>
      </trkpt>
      <trkpt lat="44.17864" lon="5.28251">
        <ele>1690</ele>
        <time>2026-05-14T10:07:00.999Z</time>
      </trkpt>
      <trkpt lat="44.17864" lon="5.28251">
        <ele>1689.6</ele>
        <time>2026-05-14T10:07:01.999Z</time>
      </trkpt>
      <trkpt lat="44.17864" lon="5.28251">
        <ele>1689.2</ele>
        <time>2026-05-14T10:07:02.999Z</time>
      </trkpt>
      <trkpt lat="44.17864" lon="5.28251">
        <ele>1689.1</ele>
        <time>2026-05-14T10:07:03.999Z</time>
      </trkpt>
      <trkpt lat="44.17864" lon="5.28251">
        <ele>1689.5</ele>
        <time>2026-05-14T10:07:04.999Z</time>
      </trkpt>
      <trkpt lat="44.17864" lon="5.28251">
        <ele>1689.6</ele>
        <time>2026-05-14T10:07:05.999Z</time>
      </trkpt>
      <trkpt lat="44.17864" lon="5.28251">
        <ele>1689.7</ele>
        <time>2026-05-14T10:07:06.999Z</time>
      </trkpt>
      <trkpt lat="44.17864" lon="5.28252">
        <ele>1689.7</ele>
        <time>2026-05-14T10:07:07.999Z</time>
      </trkpt>
      <trkpt lat="44.17864" lon="5.28253">
        <ele>1689.9</ele>
        <time>2026-05-14T10:07:08.999Z</time>
      </trkpt>
      <trkpt lat="44.17864" lon="5.28253">
        <ele>1690</ele>
        <time>2026-05-14T10:07:09.999Z</time>
      </trkpt>
      <trkpt lat="44.17865" lon="5.28254">
        <ele>1689.8</ele>
        <time>2026-05-14T10:07:10.999Z</time>
      </trkpt>
      <trkpt lat="44.17865" lon="5.28253">
        <ele>1689.8</ele>
        <time>2026-05-14T10:07:11.999Z</time>
      </trkpt>
      <trkpt lat="44.17866" lon="5.28253">
        <ele>1689.6</ele>
        <time>2026-05-14T10:07:12.999Z</time>
      </trkpt>
      <trkpt lat="44.17866" lon="5.28253">
        <ele>1689.3</ele>
        <time>2026-05-14T10:07:13.999Z</time>
      </trkpt>
      <trkpt lat="44.17867" lon="5.28254">
        <ele>1689.1</ele>
        <time>2026-05-14T10:07:14.999Z</time>
      </trkpt>
      <trkpt lat="44.17867" lon="5.28254">
        <ele>1689</ele>
        <time>2026-05-14T10:07:15.999Z</time>
      </trkpt>
      <trkpt lat="44.17867" lon="5.28255">
        <ele>1688.9</ele>
        <time>2026-05-14T10:07:16.999Z</time>
      </trkpt>
      <trkpt lat="44.17867" lon="5.28257">
        <ele>1688.8</ele>
        <time>2026-05-14T10:07:17.999Z</time>
      </trkpt>
      <trkpt lat="44.17868" lon="5.2826">
        <ele>1688.6</ele>
        <time>2026-05-14T10:07:18.999Z</time>
      </trkpt>
      <trkpt lat="44.17868" lon="5.28262">
        <ele>1688.7</ele>
        <time>2026-05-14T10:07:19.999Z</time>
      </trkpt>
      <trkpt lat="44.17869" lon="5.28264">
        <ele>1688.7</ele>
        <time>2026-05-14T10:07:20.999Z</time>
      </trkpt>
      <trkpt lat="44.17869" lon="5.28266">
        <ele>1688.4</ele>
        <time>2026-05-14T10:07:21.999Z</time>
      </trkpt>
      <trkpt lat="44.17869" lon="5.28269">
        <ele>1688.3</ele>
        <time>2026-05-14T10:07:22.999Z</time>
      </trkpt>
      <trkpt lat="44.17869" lon="5.28271">
        <ele>1688.2</ele>
        <time>2026-05-14T10:07:23.999Z</time>
      </trkpt>
      <trkpt lat="44.17869" lon="5.28272">
        <ele>1688</ele>
        <time>2026-05-14T10:07:24.999Z</time>
      </trkpt>
      <trkpt lat="44.17869" lon="5.28275">
        <ele>1689</ele>
        <time>2026-05-14T10:07:25.999Z</time>
      </trkpt>
      <trkpt lat="44.17869" lon="5.28276">
        <ele>1689.2</ele>
        <time>2026-05-14T10:07:26.999Z</time>
      </trkpt>
      <trkpt lat="44.1787" lon="5.28278">
        <ele>1689.2</ele>
        <time>2026-05-14T10:07:27.999Z</time>
      </trkpt>
      <trkpt lat="44.1787" lon="5.28279">
        <ele>1689.1</ele>
        <time>2026-05-14T10:07:28.999Z</time>
      </trkpt>
      <trkpt lat="44.1787" lon="5.2828">
        <ele>1689.1</ele>
        <time>2026-05-14T10:07:29.999Z</time>
      </trkpt>
      <trkpt lat="44.17871" lon="5.28282">
        <ele>1689.5</ele>
        <time>2026-05-14T10:07:30.999Z</time>
      </trkpt>
      <trkpt lat="44.17871" lon="5.28283">
        <ele>1689.3</ele>
        <time>2026-05-14T10:07:31.999Z</time>
      </trkpt>
      <trkpt lat="44.17871" lon="5.28285">
        <ele>1689.2</ele>
        <time>2026-05-14T10:07:32.999Z</time>
      </trkpt>
      <trkpt lat="44.17871" lon="5.28286">
        <ele>1688.8</ele>
        <time>2026-05-14T10:07:33.999Z</time>
      </trkpt>
      <trkpt lat="44.17871" lon="5.28288">
        <ele>1688.8</ele>
        <time>2026-05-14T10:07:34.999Z</time>
      </trkpt>
      <trkpt lat="44.17871" lon="5.28289">
        <ele>1688.5</ele>
        <time>2026-05-14T10:07:35.999Z</time>
      </trkpt>
      <trkpt lat="44.17871" lon="5.28291">
        <ele>1689</ele>
        <time>2026-05-14T10:07:36.999Z</time>
      </trkpt>
      <trkpt lat="44.17871" lon="5.28293">
        <ele>1688.6</ele>
        <time>2026-05-14T10:07:37.999Z</time>
      </trkpt>
      <trkpt lat="44.17871" lon="5.28294">
        <ele>1688.4</ele>
        <time>2026-05-14T10:07:38.999Z</time>
      </trkpt>
      <trkpt lat="44.1787" lon="5.28295">
        <ele>1688.2</ele>
        <time>2026-05-14T10:07:39.999Z</time>
      </trkpt>
      <trkpt lat="44.17871" lon="5.28297">
        <ele>1688.5</ele>
        <time>2026-05-14T10:07:40.999Z</time>
      </trkpt>
      <trkpt lat="44.17871" lon="5.28299">
        <ele>1688.3</ele>
        <time>2026-05-14T10:07:41.999Z</time>
      </trkpt>
      <trkpt lat="44.17871" lon="5.283">
        <ele>1688.2</ele>
        <time>2026-05-14T10:07:42.999Z</time>
      </trkpt>
      <trkpt lat="44.1787" lon="5.28301">
        <ele>1688.5</ele>
        <time>2026-05-14T10:07:43.999Z</time>
      </trkpt>
      <trkpt lat="44.17869" lon="5.28303">
        <ele>1689.3</ele>
        <time>2026-05-14T10:07:44.999Z</time>
      </trkpt>
      <trkpt lat="44.17868" lon="5.28304">
        <ele>1689.6</ele>
        <time>2026-05-14T10:07:45.999Z</time>
      </trkpt>
      <trkpt lat="44.17868" lon="5.28305">
        <ele>1689.7</ele>
        <time>2026-05-14T10:07:46.999Z</time>
      </trkpt>
      <trkpt lat="44.17868" lon="5.28306">
        <ele>1689.9</ele>
        <time>2026-05-14T10:07:47.999Z</time>
      </trkpt>
      <trkpt lat="44.17868" lon="5.28308">
        <ele>1690.2</ele>
        <time>2026-05-14T10:07:48.999Z</time>
      </trkpt>
      <trkpt lat="44.17867" lon="5.28309">
        <ele>1690.4</ele>
        <time>2026-05-14T10:07:49.999Z</time>
      </trkpt>
      <trkpt lat="44.17866" lon="5.28311">
        <ele>1690.5</ele>
        <time>2026-05-14T10:07:50.999Z</time>
      </trkpt>
      <trkpt lat="44.17866" lon="5.28312">
        <ele>1690.6</ele>
        <time>2026-05-14T10:07:51.999Z</time>
      </trkpt>
      <trkpt lat="44.17865" lon="5.28313">
        <ele>1690.5</ele>
        <time>2026-05-14T10:07:52.999Z</time>
      </trkpt>
      <trkpt lat="44.17864" lon="5.28314">
        <ele>1690.5</ele>
        <time>2026-05-14T10:07:53.999Z</time>
      </trkpt>
      <trkpt lat="44.17863" lon="5.28315">
        <ele>1690.7</ele>
        <time>2026-05-14T10:07:54.999Z</time>
      </trkpt>
      <trkpt lat="44.17862" lon="5.28317">
        <ele>1690.7</ele>
        <time>2026-05-14T10:07:55.999Z</time>
      </trkpt>
      <trkpt lat="44.17861" lon="5.28319">
        <ele>1690.6</ele>
        <time>2026-05-14T10:07:56.999Z</time>
      </trkpt>
      <trkpt lat="44.1786" lon="5.28319">
        <ele>1690.5</ele>
        <time>2026-05-14T10:07:57.999Z</time>
      </trkpt>
      <trkpt lat="44.17859" lon="5.28319">
        <ele>1690.2</ele>
        <time>2026-05-14T10:07:58.999Z</time>
      </trkpt>
      <trkpt lat="44.17859" lon="5.2832">
        <ele>1690.1</ele>
        <time>2026-05-14T10:07:59.999Z</time>
      </trkpt>
      <trkpt lat="44.17859" lon="5.2832">
        <ele>1690</ele>
        <time>2026-05-14T10:08:00.999Z</time>
      </trkpt>
      <trkpt lat="44.17859" lon="5.28319">
        <ele>1689.6</ele>
        <time>2026-05-14T10:08:01.999Z</time>
      </trkpt>
      <trkpt lat="44.17858" lon="5.28319">
        <ele>1689.1</ele>
        <time>2026-05-14T10:08:02.999Z</time>
      </trkpt>
      <trkpt lat="44.17858" lon="5.28319">
        <ele>1689</ele>
        <time>2026-05-14T10:08:03.999Z</time>
      </trkpt>
      <trkpt lat="44.17859" lon="5.28318">
        <ele>1689.1</ele>
        <time>2026-05-14T10:08:04.999Z</time>
      </trkpt>
      <trkpt lat="44.17859" lon="5.28317">
        <ele>1688.8</ele>
        <time>2026-05-14T10:08:05.999Z</time>
      </trkpt>
      <trkpt lat="44.1786" lon="5.28317">
        <ele>1688.7</ele>
        <time>2026-05-14T10:08:06.999Z</time>
      </trkpt>
      <trkpt lat="44.17859" lon="5.28315">
        <ele>1688.7</ele>
        <time>2026-05-14T10:08:07.999Z</time>
      </trkpt>
      <trkpt lat="44.17859" lon="5.28315">
        <ele>1688.3</ele>
        <time>2026-05-14T10:08:08.999Z</time>
      </trkpt>
      <trkpt lat="44.1786" lon="5.28314">
        <ele>1688.2</ele>
        <time>2026-05-14T10:08:09.999Z</time>
      </trkpt>
      <trkpt lat="44.1786" lon="5.28313">
        <ele>1687.9</ele>
        <time>2026-05-14T10:08:10.999Z</time>
      </trkpt>
      <trkpt lat="44.1786" lon="5.28312">
        <ele>1687.8</ele>
        <time>2026-05-14T10:08:11.999Z</time>
      </trkpt>
      <trkpt lat="44.1786" lon="5.28311">
        <ele>1687.4</ele>
        <time>2026-05-14T10:08:12.999Z</time>
      </trkpt>
      <trkpt lat="44.1786" lon="5.2831">
        <ele>1687.5</ele>
        <time>2026-05-14T10:08:13.999Z</time>
      </trkpt>
      <trkpt lat="44.1786" lon="5.28308">
        <ele>1687.5</ele>
        <time>2026-05-14T10:08:14.999Z</time>
      </trkpt>
      <trkpt lat="44.17859" lon="5.28307">
        <ele>1687.5</ele>
        <time>2026-05-14T10:08:15.999Z</time>
      </trkpt>
      <trkpt lat="44.17859" lon="5.28305">
        <ele>1687.7</ele>
        <time>2026-05-14T10:08:16.999Z</time>
      </trkpt>
      <trkpt lat="44.17859" lon="5.28303">
        <ele>1688.1</ele>
        <time>2026-05-14T10:08:17.999Z</time>
      </trkpt>
      <trkpt lat="44.17859" lon="5.28302">
        <ele>1688.2</ele>
        <time>2026-05-14T10:08:18.999Z</time>
      </trkpt>
      <trkpt lat="44.17859" lon="5.28301">
        <ele>1688.1</ele>
        <time>2026-05-14T10:08:19.999Z</time>
      </trkpt>
      <trkpt lat="44.17859" lon="5.283">
        <ele>1687.8</ele>
        <time>2026-05-14T10:08:20.999Z</time>
      </trkpt>
      <trkpt lat="44.17859" lon="5.28299">
        <ele>1688</ele>
        <time>2026-05-14T10:08:21.999Z</time>
      </trkpt>
      <trkpt lat="44.1786" lon="5.28298">
        <ele>1688.1</ele>
        <time>2026-05-14T10:08:22.999Z</time>
      </trkpt>
      <trkpt lat="44.17859" lon="5.28296">
        <ele>1687.9</ele>
        <time>2026-05-14T10:08:23.999Z</time>
      </trkpt>
      <trkpt lat="44.17858" lon="5.28294">
        <ele>1688.1</ele>
        <time>2026-05-14T10:08:24.999Z</time>
      </trkpt>
      <trkpt lat="44.17859" lon="5.28293">
        <ele>1688</ele>
        <time>2026-05-14T10:08:25.999Z</time>
      </trkpt>
      <trkpt lat="44.17859" lon="5.28291">
        <ele>1688.9</ele>
        <time>2026-05-14T10:08:26.999Z</time>
      </trkpt>
      <trkpt lat="44.17857" lon="5.28289">
        <ele>1691.3</ele>
        <time>2026-05-14T10:08:27.999Z</time>
      </trkpt>
      <trkpt lat="44.17857" lon="5.28287">
        <ele>1691.9</ele>
        <time>2026-05-14T10:08:28.999Z</time>
      </trkpt>
      <trkpt lat="44.17857" lon="5.28285">
        <ele>1691.6</ele>
        <time>2026-05-14T10:08:29.999Z</time>
      </trkpt>
      <trkpt lat="44.17857" lon="5.28283">
        <ele>1692.5</ele>
        <time>2026-05-14T10:08:30.999Z</time>
      </trkpt>
      <trkpt lat="44.17857" lon="5.28281">
        <ele>1692.8</ele>
        <time>2026-05-14T10:08:31.999Z</time>
      </trkpt>
      <trkpt lat="44.17856" lon="5.2828">
        <ele>1693.4</ele>
        <time>2026-05-14T10:08:32.999Z</time>
      </trkpt>
      <trkpt lat="44.17855" lon="5.28279">
        <ele>1693.9</ele>
        <time>2026-05-14T10:08:33.999Z</time>
      </trkpt>
      <trkpt lat="44.17854" lon="5.28277">
        <ele>1694</ele>
        <time>2026-05-14T10:08:34.999Z</time>
      </trkpt>
      <trkpt lat="44.17854" lon="5.28275">
        <ele>1694.5</ele>
        <time>2026-05-14T10:08:35.999Z</time>
      </trkpt>
      <trkpt lat="44.17854" lon="5.28274">
        <ele>1695.4</ele>
        <time>2026-05-14T10:08:36.999Z</time>
      </trkpt>
      <trkpt lat="44.17854" lon="5.28275">
        <ele>1695.6</ele>
        <time>2026-05-14T10:08:37.999Z</time>
      </trkpt>
      <trkpt lat="44.17854" lon="5.28275">
        <ele>1696.4</ele>
        <time>2026-05-14T10:08:38.999Z</time>
      </trkpt>
      <trkpt lat="44.17854" lon="5.28275">
        <ele>1696.9</ele>
        <time>2026-05-14T10:08:39.999Z</time>
      </trkpt>
      <trkpt lat="44.17853" lon="5.28275">
        <ele>1696.8</ele>
        <time>2026-05-14T10:08:40.999Z</time>
      </trkpt>
      <trkpt lat="44.17853" lon="5.28275">
        <ele>1697.1</ele>
        <time>2026-05-14T10:08:41.999Z</time>
      </trkpt>
      <trkpt lat="44.17852" lon="5.28274">
        <ele>1697.4</ele>
        <time>2026-05-14T10:08:42.999Z</time>
      </trkpt>
      <trkpt lat="44.17852" lon="5.28274">
        <ele>1697.5</ele>
        <time>2026-05-14T10:08:43.999Z</time>
      </trkpt>
      <trkpt lat="44.17852" lon="5.28274">
        <ele>1697.7</ele>
        <time>2026-05-14T10:08:44.999Z</time>
      </trkpt>
      <trkpt lat="44.17852" lon="5.28274">
        <ele>1697.2</ele>
        <time>2026-05-14T10:08:45.999Z</time>
      </trkpt>
      <trkpt lat="44.17852" lon="5.28274">
        <ele>1696.4</ele>
        <time>2026-05-14T10:08:46.999Z</time>
      </trkpt>
      <trkpt lat="44.17852" lon="5.28274">
        <ele>1696.2</ele>
        <time>2026-05-14T10:08:47.999Z</time>
      </trkpt>
      <trkpt lat="44.17852" lon="5.28274">
        <ele>1695.7</ele>
        <time>2026-05-14T10:08:48.999Z</time>
      </trkpt>
      <trkpt lat="44.17852" lon="5.28274">
        <ele>1695.5</ele>
        <time>2026-05-14T10:08:49.999Z</time>
      </trkpt>
      <trkpt lat="44.17852" lon="5.28274">
        <ele>1695.4</ele>
        <time>2026-05-14T10:08:50.999Z</time>
      </trkpt>
      <trkpt lat="44.17852" lon="5.28274">
        <ele>1695.4</ele>
        <time>2026-05-14T10:08:51.999Z</time>
      </trkpt>
      <trkpt lat="44.17852" lon="5.28274">
        <ele>1695.3</ele>
        <time>2026-05-14T10:08:52.999Z</time>
      </trkpt>
      <trkpt lat="44.17852" lon="5.28274">
        <ele>1695.3</ele>
        <time>2026-05-14T10:08:53.999Z</time>
      </trkpt>
      <trkpt lat="44.17852" lon="5.28274">
        <ele>1695.1</ele>
        <time>2026-05-14T10:08:54.999Z</time>
      </trkpt>
      <trkpt lat="44.17852" lon="5.28275">
        <ele>1694.9</ele>
        <time>2026-05-14T10:08:55.999Z</time>
      </trkpt>
      <trkpt lat="44.17852" lon="5.28275">
        <ele>1694.9</ele>
        <time>2026-05-14T10:08:56.999Z</time>
      </trkpt>
      <trkpt lat="44.17852" lon="5.28275">
        <ele>1694.6</ele>
        <time>2026-05-14T10:08:57.999Z</time>
      </trkpt>
      <trkpt lat="44.17852" lon="5.28275">
        <ele>1694.5</ele>
        <time>2026-05-14T10:08:58.999Z</time>
      </trkpt>
      <trkpt lat="44.17852" lon="5.28275">
        <ele>1694.5</ele>
        <time>2026-05-14T10:08:59.999Z</time>
      </trkpt>
      <trkpt lat="44.17852" lon="5.28275">
        <ele>1694.2</ele>
        <time>2026-05-14T10:09:00.999Z</time>
      </trkpt>
      <trkpt lat="44.17852" lon="5.28275">
        <ele>1694.1</ele>
        <time>2026-05-14T10:09:01.999Z</time>
      </trkpt>
      <trkpt lat="44.17852" lon="5.28275">
        <ele>1693.9</ele>
        <time>2026-05-14T10:09:02.999Z</time>
      </trkpt>
      <trkpt lat="44.17852" lon="5.28275">
        <ele>1693.8</ele>
        <time>2026-05-14T10:09:03.999Z</time>
      </trkpt>
      <trkpt lat="44.17852" lon="5.28275">
        <ele>1693.9</ele>
        <time>2026-05-14T10:09:04.999Z</time>
      </trkpt>
      <trkpt lat="44.17852" lon="5.28274">
        <ele>1694</ele>
        <time>2026-05-14T10:09:05.999Z</time>
      </trkpt>
      <trkpt lat="44.17852" lon="5.28274">
        <ele>1694.1</ele>
        <time>2026-05-14T10:09:06.999Z</time>
      </trkpt>
      <trkpt lat="44.17852" lon="5.28274">
        <ele>1694.2</ele>
        <time>2026-05-14T10:09:07.999Z</time>
      </trkpt>
      <trkpt lat="44.17852" lon="5.28274">
        <ele>1694.1</ele>
        <time>2026-05-14T10:09:08.999Z</time>
      </trkpt>
      <trkpt lat="44.17852" lon="5.28274">
        <ele>1694</ele>
        <time>2026-05-14T10:09:09.999Z</time>
      </trkpt>
      <trkpt lat="44.17852" lon="5.28274">
        <ele>1694.2</ele>
        <time>2026-05-14T10:09:10.999Z</time>
      </trkpt>
      <trkpt lat="44.17852" lon="5.28274">
        <ele>1694.4</ele>
        <time>2026-05-14T10:09:11.999Z</time>
      </trkpt>
      <trkpt lat="44.17852" lon="5.28274">
        <ele>1694.4</ele>
        <time>2026-05-14T10:09:12.999Z</time>
      </trkpt>
      <trkpt lat="44.17852" lon="5.28274">
        <ele>1694.9</ele>
        <time>2026-05-14T10:09:13.999Z</time>
      </trkpt>
      <trkpt lat="44.17852" lon="5.28274">
        <ele>1695</ele>
        <time>2026-05-14T10:09:14.999Z</time>
      </trkpt>
      <trkpt lat="44.17852" lon="5.28275">
        <ele>1695.2</ele>
        <time>2026-05-14T10:09:15.999Z</time>
      </trkpt>
      <trkpt lat="44.17852" lon="5.28275">
        <ele>1695.2</ele>
        <time>2026-05-14T10:09:16.999Z</time>
      </trkpt>
      <trkpt lat="44.17852" lon="5.28275">
        <ele>1695.4</ele>
        <time>2026-05-14T10:09:17.999Z</time>
      </trkpt>
      <trkpt lat="44.17852" lon="5.28275">
        <ele>1695.8</ele>
        <time>2026-05-14T10:09:18.999Z</time>
      </trkpt>
      <trkpt lat="44.17852" lon="5.28275">
        <ele>1696.3</ele>
        <time>2026-05-14T10:09:19.999Z</time>
      </trkpt>
      <trkpt lat="44.17852" lon="5.28274">
        <ele>1696.7</ele>
        <time>2026-05-14T10:09:20.999Z</time>
      </trkpt>
      <trkpt lat="44.17852" lon="5.28275">
        <ele>1697.1</ele>
        <time>2026-05-14T10:09:21.999Z</time>
      </trkpt>
      <trkpt lat="44.17852" lon="5.28274">
        <ele>1697.4</ele>
        <time>2026-05-14T10:09:22.999Z</time>
      </trkpt>
      <trkpt lat="44.17852" lon="5.28275">
        <ele>1697.7</ele>
        <time>2026-05-14T10:09:23.999Z</time>
      </trkpt>
      <trkpt lat="44.17852" lon="5.28274">
        <ele>1697.7</ele>
        <time>2026-05-14T10:09:24.999Z</time>
      </trkpt>
      <trkpt lat="44.17852" lon="5.28275">
        <ele>1697.8</ele>
        <time>2026-05-14T10:09:25.999Z</time>
      </trkpt>
      <trkpt lat="44.17852" lon="5.28275">
        <ele>1697.8</ele>
        <time>2026-05-14T10:09:26.999Z</time>
      </trkpt>
      <trkpt lat="44.17852" lon="5.28275">
        <ele>1697.7</ele>
        <time>2026-05-14T10:09:27.999Z</time>
      </trkpt>
      <trkpt lat="44.17852" lon="5.28275">
        <ele>1697.8</ele>
        <time>2026-05-14T10:09:28.999Z</time>
      </trkpt>
      <trkpt lat="44.17852" lon="5.28275">
        <ele>1697.7</ele>
        <time>2026-05-14T10:09:29.999Z</time>
      </trkpt>
      <trkpt lat="44.17852" lon="5.28274">
        <ele>1697.7</ele>
        <time>2026-05-14T10:09:30.999Z</time>
      </trkpt>
      <trkpt lat="44.17852" lon="5.28274">
        <ele>1698.4</ele>
        <time>2026-05-14T10:09:31.999Z</time>
      </trkpt>
      <trkpt lat="44.17852" lon="5.28274">
        <ele>1698.2</ele>
        <time>2026-05-14T10:09:32.999Z</time>
      </trkpt>
      <trkpt lat="44.17852" lon="5.28273">
        <ele>1699.3</ele>
        <time>2026-05-14T10:09:33.999Z</time>
      </trkpt>
      <trkpt lat="44.17852" lon="5.28273">
        <ele>1699.2</ele>
        <time>2026-05-14T10:09:34.999Z</time>
      </trkpt>
      <trkpt lat="44.17852" lon="5.28273">
        <ele>1699.1</ele>
        <time>2026-05-14T10:09:35.999Z</time>
      </trkpt>
      <trkpt lat="44.17851" lon="5.28273">
        <ele>1699</ele>
        <time>2026-05-14T10:09:36.999Z</time>
      </trkpt>
      <trkpt lat="44.17851" lon="5.28273">
        <ele>1699.2</ele>
        <time>2026-05-14T10:09:37.999Z</time>
      </trkpt>
      <trkpt lat="44.17851" lon="5.28273">
        <ele>1699.1</ele>
        <time>2026-05-14T10:09:38.999Z</time>
      </trkpt>
      <trkpt lat="44.17851" lon="5.28273">
        <ele>1699</ele>
        <time>2026-05-14T10:09:39.999Z</time>
      </trkpt>
      <trkpt lat="44.17851" lon="5.28272">
        <ele>1699.5</ele>
        <time>2026-05-14T10:09:40.999Z</time>
      </trkpt>
      <trkpt lat="44.17851" lon="5.28272">
        <ele>1699.5</ele>
        <time>2026-05-14T10:09:41.999Z</time>
      </trkpt>
      <trkpt lat="44.17851" lon="5.28272">
        <ele>1700</ele>
        <time>2026-05-14T10:09:42.999Z</time>
      </trkpt>
      <trkpt lat="44.17851" lon="5.28272">
        <ele>1700.2</ele>
        <time>2026-05-14T10:09:43.999Z</time>
      </trkpt>
      <trkpt lat="44.1785" lon="5.28271">
        <ele>1700.4</ele>
        <time>2026-05-14T10:09:44.999Z</time>
      </trkpt>
      <trkpt lat="44.1785" lon="5.28271">
        <ele>1700.3</ele>
        <time>2026-05-14T10:09:45.999Z</time>
      </trkpt>
      <trkpt lat="44.1785" lon="5.28271">
        <ele>1700.5</ele>
        <time>2026-05-14T10:09:46.999Z</time>
      </trkpt>
      <trkpt lat="44.1785" lon="5.28271">
        <ele>1700.6</ele>
        <time>2026-05-14T10:09:47.999Z</time>
      </trkpt>
      <trkpt lat="44.1785" lon="5.28271">
        <ele>1700.8</ele>
        <time>2026-05-14T10:09:48.999Z</time>
      </trkpt>
      <trkpt lat="44.1785" lon="5.28271">
        <ele>1701.5</ele>
        <time>2026-05-14T10:09:49.999Z</time>
      </trkpt>
      <trkpt lat="44.1785" lon="5.28271">
        <ele>1702</ele>
        <time>2026-05-14T10:09:50.999Z</time>
      </trkpt>
      <trkpt lat="44.1785" lon="5.28271">
        <ele>1702.2</ele>
        <time>2026-05-14T10:09:51.999Z</time>
      </trkpt>
      <trkpt lat="44.1785" lon="5.28271">
        <ele>1702.6</ele>
        <time>2026-05-14T10:09:52.999Z</time>
      </trkpt>
      <trkpt lat="44.1785" lon="5.28271">
        <ele>1702.8</ele>
        <time>2026-05-14T10:09:53.999Z</time>
      </trkpt>
      <trkpt lat="44.1785" lon="5.28271">
        <ele>1703</ele>
        <time>2026-05-14T10:09:54.999Z</time>
      </trkpt>
      <trkpt lat="44.1785" lon="5.28271">
        <ele>1703.4</ele>
        <time>2026-05-14T10:09:55.999Z</time>
      </trkpt>
      <trkpt lat="44.1785" lon="5.28271">
        <ele>1703.8</ele>
        <time>2026-05-14T10:09:56.999Z</time>
      </trkpt>
      <trkpt lat="44.1785" lon="5.28271">
        <ele>1704.2</ele>
        <time>2026-05-14T10:09:57.999Z</time>
      </trkpt>
      <trkpt lat="44.1785" lon="5.28271">
        <ele>1704.7</ele>
        <time>2026-05-14T10:09:58.999Z</time>
      </trkpt>
      <trkpt lat="44.1785" lon="5.28271">
        <ele>1705</ele>
        <time>2026-05-14T10:09:59.999Z</time>
      </trkpt>
      <trkpt lat="44.1785" lon="5.28271">
        <ele>1705.6</ele>
        <time>2026-05-14T10:10:00.999Z</time>
      </trkpt>
      <trkpt lat="44.1785" lon="5.2827">
        <ele>1705.8</ele>
        <time>2026-05-14T10:10:01.999Z</time>
      </trkpt>
      <trkpt lat="44.1785" lon="5.2827">
        <ele>1705.6</ele>
        <time>2026-05-14T10:10:02.999Z</time>
      </trkpt>
      <trkpt lat="44.1785" lon="5.28269">
        <ele>1706.1</ele>
        <time>2026-05-14T10:10:03.999Z</time>
      </trkpt>
      <trkpt lat="44.1785" lon="5.28268">
        <ele>1706.3</ele>
        <time>2026-05-14T10:10:04.999Z</time>
      </trkpt>
      <trkpt lat="44.1785" lon="5.28267">
        <ele>1706.6</ele>
        <time>2026-05-14T10:10:05.999Z</time>
      </trkpt>
      <trkpt lat="44.17849" lon="5.28266">
        <ele>1707</ele>
        <time>2026-05-14T10:10:06.999Z</time>
      </trkpt>
      <trkpt lat="44.17849" lon="5.28265">
        <ele>1707.2</ele>
        <time>2026-05-14T10:10:07.999Z</time>
      </trkpt>
      <trkpt lat="44.17848" lon="5.28264">
        <ele>1707.2</ele>
        <time>2026-05-14T10:10:08.999Z</time>
      </trkpt>
      <trkpt lat="44.17848" lon="5.28263">
        <ele>1707.2</ele>
        <time>2026-05-14T10:10:09.999Z</time>
      </trkpt>
      <trkpt lat="44.17847" lon="5.28262">
        <ele>1707.2</ele>
        <time>2026-05-14T10:10:10.999Z</time>
      </trkpt>
      <trkpt lat="44.17846" lon="5.28261">
        <ele>1707.1</ele>
        <time>2026-05-14T10:10:11.999Z</time>
      </trkpt>
      <trkpt lat="44.17846" lon="5.2826">
        <ele>1707</ele>
        <time>2026-05-14T10:10:12.999Z</time>
      </trkpt>
      <trkpt lat="44.17845" lon="5.28259">
        <ele>1706.9</ele>
        <time>2026-05-14T10:10:13.999Z</time>
      </trkpt>
      <trkpt lat="44.17845" lon="5.28258">
        <ele>1706.9</ele>
        <time>2026-05-14T10:10:14.999Z</time>
      </trkpt>
      <trkpt lat="44.17844" lon="5.28257">
        <ele>1706.9</ele>
        <time>2026-05-14T10:10:15.999Z</time>
      </trkpt>
      <trkpt lat="44.17844" lon="5.28255">
        <ele>1707.2</ele>
        <time>2026-05-14T10:10:16.999Z</time>
      </trkpt>
      <trkpt lat="44.17844" lon="5.28254">
        <ele>1707.3</ele>
        <time>2026-05-14T10:10:17.999Z</time>
      </trkpt>
      <trkpt lat="44.17843" lon="5.28253">
        <ele>1707.2</ele>
        <time>2026-05-14T10:10:18.999Z</time>
      </trkpt>
      <trkpt lat="44.17842" lon="5.28252">
        <ele>1707.1</ele>
        <time>2026-05-14T10:10:19.999Z</time>
      </trkpt>
      <trkpt lat="44.17841" lon="5.28251">
        <ele>1706.9</ele>
        <time>2026-05-14T10:10:20.999Z</time>
      </trkpt>
      <trkpt lat="44.17841" lon="5.2825">
        <ele>1707</ele>
        <time>2026-05-14T10:10:21.999Z</time>
      </trkpt>
      <trkpt lat="44.1784" lon="5.28249">
        <ele>1707.1</ele>
        <time>2026-05-14T10:10:22.999Z</time>
      </trkpt>
      <trkpt lat="44.1784" lon="5.28248">
        <ele>1707.2</ele>
        <time>2026-05-14T10:10:23.999Z</time>
      </trkpt>
      <trkpt lat="44.1784" lon="5.28247">
        <ele>1707.7</ele>
        <time>2026-05-14T10:10:24.999Z</time>
      </trkpt>
      <trkpt lat="44.17841" lon="5.28246">
        <ele>1707.3</ele>
        <time>2026-05-14T10:10:25.999Z</time>
      </trkpt>
      <trkpt lat="44.1784" lon="5.28244">
        <ele>1707</ele>
        <time>2026-05-14T10:10:26.999Z</time>
      </trkpt>
      <trkpt lat="44.1784" lon="5.28243">
        <ele>1707.4</ele>
        <time>2026-05-14T10:10:27.999Z</time>
      </trkpt>
      <trkpt lat="44.1784" lon="5.28242">
        <ele>1707.4</ele>
        <time>2026-05-14T10:10:28.999Z</time>
      </trkpt>
      <trkpt lat="44.1784" lon="5.28241">
        <ele>1707.5</ele>
        <time>2026-05-14T10:10:29.999Z</time>
      </trkpt>
      <trkpt lat="44.1784" lon="5.28239">
        <ele>1707.7</ele>
        <time>2026-05-14T10:10:30.999Z</time>
      </trkpt>
      <trkpt lat="44.17839" lon="5.28238">
        <ele>1707.8</ele>
        <time>2026-05-14T10:10:31.999Z</time>
      </trkpt>
      <trkpt lat="44.17839" lon="5.28237">
        <ele>1707.9</ele>
        <time>2026-05-14T10:10:32.999Z</time>
      </trkpt>
      <trkpt lat="44.1784" lon="5.28237">
        <ele>1708</ele>
        <time>2026-05-14T10:10:33.999Z</time>
      </trkpt>
      <trkpt lat="44.1784" lon="5.28237">
        <ele>1708.3</ele>
        <time>2026-05-14T10:10:34.999Z</time>
      </trkpt>
      <trkpt lat="44.1784" lon="5.28237">
        <ele>1708.2</ele>
        <time>2026-05-14T10:10:35.999Z</time>
      </trkpt>
      <trkpt lat="44.1784" lon="5.28238">
        <ele>1708.4</ele>
        <time>2026-05-14T10:10:36.999Z</time>
      </trkpt>
      <trkpt lat="44.1784" lon="5.28238">
        <ele>1708.4</ele>
        <time>2026-05-14T10:10:37.999Z</time>
      </trkpt>
      <trkpt lat="44.1784" lon="5.28238">
        <ele>1708.5</ele>
        <time>2026-05-14T10:10:38.999Z</time>
      </trkpt>
      <trkpt lat="44.17839" lon="5.28238">
        <ele>1708.5</ele>
        <time>2026-05-14T10:10:39.999Z</time>
      </trkpt>
      <trkpt lat="44.17839" lon="5.28237">
        <ele>1708.6</ele>
        <time>2026-05-14T10:10:40.999Z</time>
      </trkpt>
      <trkpt lat="44.17838" lon="5.28236">
        <ele>1708.4</ele>
        <time>2026-05-14T10:10:41.999Z</time>
      </trkpt>
      <trkpt lat="44.17838" lon="5.28236">
        <ele>1708.4</ele>
        <time>2026-05-14T10:10:42.999Z</time>
      </trkpt>
      <trkpt lat="44.17838" lon="5.28235">
        <ele>1708.3</ele>
        <time>2026-05-14T10:10:43.999Z</time>
      </trkpt>
      <trkpt lat="44.17838" lon="5.28236">
        <ele>1708.9</ele>
        <time>2026-05-14T10:10:44.999Z</time>
      </trkpt>
      <trkpt lat="44.17838" lon="5.28234">
        <ele>1709.2</ele>
        <time>2026-05-14T10:10:45.999Z</time>
      </trkpt>
      <trkpt lat="44.17838" lon="5.28234">
        <ele>1709.4</ele>
        <time>2026-05-14T10:10:46.999Z</time>
      </trkpt>
      <trkpt lat="44.17837" lon="5.28233">
        <ele>1709.7</ele>
        <time>2026-05-14T10:10:47.999Z</time>
      </trkpt>
      <trkpt lat="44.17837" lon="5.28232">
        <ele>1710</ele>
        <time>2026-05-14T10:10:48.999Z</time>
      </trkpt>
      <trkpt lat="44.17837" lon="5.2823">
        <ele>1710.6</ele>
        <time>2026-05-14T10:10:49.999Z</time>
      </trkpt>
      <trkpt lat="44.17837" lon="5.28229">
        <ele>1711</ele>
        <time>2026-05-14T10:10:50.999Z</time>
      </trkpt>
      <trkpt lat="44.17837" lon="5.28229">
        <ele>1711.5</ele>
        <time>2026-05-14T10:10:51.999Z</time>
      </trkpt>
      <trkpt lat="44.17837" lon="5.28227">
        <ele>1712</ele>
        <time>2026-05-14T10:10:52.999Z</time>
      </trkpt>
      <trkpt lat="44.17837" lon="5.28226">
        <ele>1712.4</ele>
        <time>2026-05-14T10:10:53.999Z</time>
      </trkpt>
      <trkpt lat="44.17836" lon="5.28223">
        <ele>1713.2</ele>
        <time>2026-05-14T10:10:54.999Z</time>
      </trkpt>
      <trkpt lat="44.17836" lon="5.28222">
        <ele>1713.3</ele>
        <time>2026-05-14T10:10:55.999Z</time>
      </trkpt>
      <trkpt lat="44.17835" lon="5.2822">
        <ele>1713.7</ele>
        <time>2026-05-14T10:10:56.999Z</time>
      </trkpt>
      <trkpt lat="44.17835" lon="5.28219">
        <ele>1714</ele>
        <time>2026-05-14T10:10:57.999Z</time>
      </trkpt>
      <trkpt lat="44.17835" lon="5.28219">
        <ele>1714</ele>
        <time>2026-05-14T10:10:58.999Z</time>
      </trkpt>
      <trkpt lat="44.17835" lon="5.28218">
        <ele>1714.1</ele>
        <time>2026-05-14T10:10:59.999Z</time>
      </trkpt>
      <trkpt lat="44.17834" lon="5.28217">
        <ele>1714.1</ele>
        <time>2026-05-14T10:11:00.999Z</time>
      </trkpt>
      <trkpt lat="44.17834" lon="5.28217">
        <ele>1715</ele>
        <time>2026-05-14T10:11:01.999Z</time>
      </trkpt>
      <trkpt lat="44.17834" lon="5.28216">
        <ele>1715.1</ele>
        <time>2026-05-14T10:11:02.999Z</time>
      </trkpt>
      <trkpt lat="44.17833" lon="5.28216">
        <ele>1715.6</ele>
        <time>2026-05-14T10:11:03.999Z</time>
      </trkpt>
      <trkpt lat="44.17833" lon="5.28216">
        <ele>1715.9</ele>
        <time>2026-05-14T10:11:04.999Z</time>
      </trkpt>
      <trkpt lat="44.17833" lon="5.28216">
        <ele>1716</ele>
        <time>2026-05-14T10:11:05.999Z</time>
      </trkpt>
      <trkpt lat="44.17833" lon="5.28215">
        <ele>1716.1</ele>
        <time>2026-05-14T10:11:06.999Z</time>
      </trkpt>
      <trkpt lat="44.17833" lon="5.28214">
        <ele>1717.1</ele>
        <time>2026-05-14T10:11:07.999Z</time>
      </trkpt>
      <trkpt lat="44.17833" lon="5.28213">
        <ele>1717.2</ele>
        <time>2026-05-14T10:11:08.999Z</time>
      </trkpt>
      <trkpt lat="44.17833" lon="5.28213">
        <ele>1717.2</ele>
        <time>2026-05-14T10:11:09.999Z</time>
      </trkpt>
      <trkpt lat="44.17833" lon="5.28213">
        <ele>1717.3</ele>
        <time>2026-05-14T10:11:10.999Z</time>
      </trkpt>
      <trkpt lat="44.17833" lon="5.28213">
        <ele>1717.4</ele>
        <time>2026-05-14T10:11:11.999Z</time>
      </trkpt>
      <trkpt lat="44.17833" lon="5.28214">
        <ele>1716.8</ele>
        <time>2026-05-14T10:11:12.999Z</time>
      </trkpt>
      <trkpt lat="44.17832" lon="5.28213">
        <ele>1716.6</ele>
        <time>2026-05-14T10:11:13.999Z</time>
      </trkpt>
      <trkpt lat="44.17832" lon="5.28213">
        <ele>1716.7</ele>
        <time>2026-05-14T10:11:14.999Z</time>
      </trkpt>
      <trkpt lat="44.17832" lon="5.28213">
        <ele>1716.9</ele>
        <time>2026-05-14T10:11:15.999Z</time>
      </trkpt>
      <trkpt lat="44.17832" lon="5.28212">
        <ele>1717.2</ele>
        <time>2026-05-14T10:11:16.999Z</time>
      </trkpt>
      <trkpt lat="44.17831" lon="5.28211">
        <ele>1717.3</ele>
        <time>2026-05-14T10:11:17.999Z</time>
      </trkpt>
      <trkpt lat="44.17831" lon="5.2821">
        <ele>1717.5</ele>
        <time>2026-05-14T10:11:18.999Z</time>
      </trkpt>
      <trkpt lat="44.17831" lon="5.28209">
        <ele>1718.1</ele>
        <time>2026-05-14T10:11:19.999Z</time>
      </trkpt>
      <trkpt lat="44.17831" lon="5.28208">
        <ele>1718.3</ele>
        <time>2026-05-14T10:11:20.999Z</time>
      </trkpt>
      <trkpt lat="44.17831" lon="5.28207">
        <ele>1718.3</ele>
        <time>2026-05-14T10:11:21.999Z</time>
      </trkpt>
      <trkpt lat="44.1783" lon="5.28206">
        <ele>1718.4</ele>
        <time>2026-05-14T10:11:22.999Z</time>
      </trkpt>
      <trkpt lat="44.1783" lon="5.28205">
        <ele>1718.4</ele>
        <time>2026-05-14T10:11:23.999Z</time>
      </trkpt>
      <trkpt lat="44.1783" lon="5.28205">
        <ele>1718.3</ele>
        <time>2026-05-14T10:11:24.999Z</time>
      </trkpt>
      <trkpt lat="44.17829" lon="5.28205">
        <ele>1718.1</ele>
        <time>2026-05-14T10:11:25.999Z</time>
      </trkpt>
      <trkpt lat="44.17829" lon="5.28204">
        <ele>1718.1</ele>
        <time>2026-05-14T10:11:26.999Z</time>
      </trkpt>
      <trkpt lat="44.17828" lon="5.28204">
        <ele>1718.1</ele>
        <time>2026-05-14T10:11:27.999Z</time>
      </trkpt>
      <trkpt lat="44.17828" lon="5.28203">
        <ele>1718</ele>
        <time>2026-05-14T10:11:28.999Z</time>
      </trkpt>
      <trkpt lat="44.17828" lon="5.28202">
        <ele>1718</ele>
        <time>2026-05-14T10:11:29.999Z</time>
      </trkpt>
      <trkpt lat="44.17828" lon="5.282">
        <ele>1718</ele>
        <time>2026-05-14T10:11:30.999Z</time>
      </trkpt>
      <trkpt lat="44.17828" lon="5.28199">
        <ele>1718</ele>
        <time>2026-05-14T10:11:31.999Z</time>
      </trkpt>
      <trkpt lat="44.17828" lon="5.28198">
        <ele>1718</ele>
        <time>2026-05-14T10:11:32.999Z</time>
      </trkpt>
      <trkpt lat="44.17828" lon="5.28197">
        <ele>1718</ele>
        <time>2026-05-14T10:11:33.999Z</time>
      </trkpt>
      <trkpt lat="44.17828" lon="5.28196">
        <ele>1718.3</ele>
        <time>2026-05-14T10:11:34.999Z</time>
      </trkpt>
      <trkpt lat="44.17827" lon="5.28194">
        <ele>1718.9</ele>
        <time>2026-05-14T10:11:35.999Z</time>
      </trkpt>
      <trkpt lat="44.17827" lon="5.28193">
        <ele>1718.9</ele>
        <time>2026-05-14T10:11:36.999Z</time>
      </trkpt>
      <trkpt lat="44.17826" lon="5.28192">
        <ele>1718.9</ele>
        <time>2026-05-14T10:11:37.999Z</time>
      </trkpt>
      <trkpt lat="44.17826" lon="5.28192">
        <ele>1718.9</ele>
        <time>2026-05-14T10:11:38.999Z</time>
      </trkpt>
      <trkpt lat="44.17826" lon="5.28191">
        <ele>1718.3</ele>
        <time>2026-05-14T10:11:39.999Z</time>
      </trkpt>
      <trkpt lat="44.17826" lon="5.2819">
        <ele>1718</ele>
        <time>2026-05-14T10:11:40.999Z</time>
      </trkpt>
      <trkpt lat="44.17826" lon="5.28189">
        <ele>1717.7</ele>
        <time>2026-05-14T10:11:41.999Z</time>
      </trkpt>
      <trkpt lat="44.17826" lon="5.28189">
        <ele>1718.4</ele>
        <time>2026-05-14T10:11:42.999Z</time>
      </trkpt>
      <trkpt lat="44.17826" lon="5.28188">
        <ele>1718.6</ele>
        <time>2026-05-14T10:11:43.999Z</time>
      </trkpt>
      <trkpt lat="44.17826" lon="5.28187">
        <ele>1718.3</ele>
        <time>2026-05-14T10:11:44.999Z</time>
      </trkpt>
      <trkpt lat="44.17826" lon="5.28187">
        <ele>1717.9</ele>
        <time>2026-05-14T10:11:45.999Z</time>
      </trkpt>
      <trkpt lat="44.17825" lon="5.28186">
        <ele>1717.7</ele>
        <time>2026-05-14T10:11:46.999Z</time>
      </trkpt>
      <trkpt lat="44.17826" lon="5.28186">
        <ele>1718</ele>
        <time>2026-05-14T10:11:47.999Z</time>
      </trkpt>
      <trkpt lat="44.17825" lon="5.28185">
        <ele>1718.2</ele>
        <time>2026-05-14T10:11:48.999Z</time>
      </trkpt>
      <trkpt lat="44.17825" lon="5.28185">
        <ele>1718.3</ele>
        <time>2026-05-14T10:11:49.999Z</time>
      </trkpt>
      <trkpt lat="44.17824" lon="5.28184">
        <ele>1718</ele>
        <time>2026-05-14T10:11:50.999Z</time>
      </trkpt>
      <trkpt lat="44.17824" lon="5.28183">
        <ele>1717.8</ele>
        <time>2026-05-14T10:11:51.999Z</time>
      </trkpt>
      <trkpt lat="44.17824" lon="5.28183">
        <ele>1718</ele>
        <time>2026-05-14T10:11:52.999Z</time>
      </trkpt>
      <trkpt lat="44.17824" lon="5.28183">
        <ele>1718.2</ele>
        <time>2026-05-14T10:11:53.999Z</time>
      </trkpt>
      <trkpt lat="44.17825" lon="5.28182">
        <ele>1718.1</ele>
        <time>2026-05-14T10:11:54.999Z</time>
      </trkpt>
      <trkpt lat="44.17825" lon="5.28182">
        <ele>1717.5</ele>
        <time>2026-05-14T10:11:55.999Z</time>
      </trkpt>
      <trkpt lat="44.17824" lon="5.28181">
        <ele>1716.9</ele>
        <time>2026-05-14T10:11:56.999Z</time>
      </trkpt>
      <trkpt lat="44.17823" lon="5.28178">
        <ele>1716.6</ele>
        <time>2026-05-14T10:11:57.999Z</time>
      </trkpt>
      <trkpt lat="44.17822" lon="5.28177">
        <ele>1716.8</ele>
        <time>2026-05-14T10:11:58.999Z</time>
      </trkpt>
      <trkpt lat="44.17822" lon="5.28175">
        <ele>1717.3</ele>
        <time>2026-05-14T10:11:59.999Z</time>
      </trkpt>
      <trkpt lat="44.17821" lon="5.28173">
        <ele>1717.6</ele>
        <time>2026-05-14T10:12:00.999Z</time>
      </trkpt>
      <trkpt lat="44.17822" lon="5.28172">
        <ele>1718.1</ele>
        <time>2026-05-14T10:12:01.999Z</time>
      </trkpt>
      <trkpt lat="44.17822" lon="5.28171">
        <ele>1718.4</ele>
        <time>2026-05-14T10:12:02.999Z</time>
      </trkpt>
      <trkpt lat="44.17822" lon="5.28169">
        <ele>1718.5</ele>
        <time>2026-05-14T10:12:03.999Z</time>
      </trkpt>
      <trkpt lat="44.17821" lon="5.28169">
        <ele>1718.7</ele>
        <time>2026-05-14T10:12:04.999Z</time>
      </trkpt>
      <trkpt lat="44.17821" lon="5.28168">
        <ele>1719.1</ele>
        <time>2026-05-14T10:12:05.999Z</time>
      </trkpt>
      <trkpt lat="44.17821" lon="5.28167">
        <ele>1719.5</ele>
        <time>2026-05-14T10:12:06.999Z</time>
      </trkpt>
      <trkpt lat="44.1782" lon="5.28167">
        <ele>1720.2</ele>
        <time>2026-05-14T10:12:07.999Z</time>
      </trkpt>
      <trkpt lat="44.1782" lon="5.28166">
        <ele>1720.9</ele>
        <time>2026-05-14T10:12:08.999Z</time>
      </trkpt>
      <trkpt lat="44.1782" lon="5.28164">
        <ele>1721.4</ele>
        <time>2026-05-14T10:12:09.999Z</time>
      </trkpt>
      <trkpt lat="44.17819" lon="5.28163">
        <ele>1721.4</ele>
        <time>2026-05-14T10:12:10.999Z</time>
      </trkpt>
      <trkpt lat="44.17819" lon="5.28162">
        <ele>1721.4</ele>
        <time>2026-05-14T10:12:11.999Z</time>
      </trkpt>
      <trkpt lat="44.17819" lon="5.28161">
        <ele>1721.7</ele>
        <time>2026-05-14T10:12:12.999Z</time>
      </trkpt>
      <trkpt lat="44.17819" lon="5.28161">
        <ele>1721.6</ele>
        <time>2026-05-14T10:12:14.999Z</time>
      </trkpt>
      <trkpt lat="44.17819" lon="5.28159">
        <ele>1722.1</ele>
        <time>2026-05-14T10:12:15.999Z</time>
      </trkpt>
      <trkpt lat="44.17819" lon="5.28157">
        <ele>1722.6</ele>
        <time>2026-05-14T10:12:16.999Z</time>
      </trkpt>
      <trkpt lat="44.17819" lon="5.28156">
        <ele>1722.9</ele>
        <time>2026-05-14T10:12:17.999Z</time>
      </trkpt>
      <trkpt lat="44.17819" lon="5.28156">
        <ele>1722.3</ele>
        <time>2026-05-14T10:12:18.999Z</time>
      </trkpt>
      <trkpt lat="44.1782" lon="5.28155">
        <ele>1722.2</ele>
        <time>2026-05-14T10:12:19.999Z</time>
      </trkpt>
      <trkpt lat="44.1782" lon="5.28154">
        <ele>1722.1</ele>
        <time>2026-05-14T10:12:20.999Z</time>
      </trkpt>
      <trkpt lat="44.1782" lon="5.28153">
        <ele>1723.5</ele>
        <time>2026-05-14T10:12:22.999Z</time>
      </trkpt>
      <trkpt lat="44.17821" lon="5.28153">
        <ele>1723.8</ele>
        <time>2026-05-14T10:12:23.999Z</time>
      </trkpt>
      <trkpt lat="44.17821" lon="5.28151">
        <ele>1724.4</ele>
        <time>2026-05-14T10:12:24.999Z</time>
      </trkpt>
      <trkpt lat="44.17821" lon="5.28149">
        <ele>1724.9</ele>
        <time>2026-05-14T10:12:25.999Z</time>
      </trkpt>
      <trkpt lat="44.17821" lon="5.28148">
        <ele>1725.1</ele>
        <time>2026-05-14T10:12:26.999Z</time>
      </trkpt>
      <trkpt lat="44.17822" lon="5.28147">
        <ele>1724.6</ele>
        <time>2026-05-14T10:12:27.999Z</time>
      </trkpt>
      <trkpt lat="44.17822" lon="5.28147">
        <ele>1724.7</ele>
        <time>2026-05-14T10:12:28.999Z</time>
      </trkpt>
      <trkpt lat="44.17823" lon="5.28145">
        <ele>1725</ele>
        <time>2026-05-14T10:12:29.999Z</time>
      </trkpt>
      <trkpt lat="44.17824" lon="5.28144">
        <ele>1725.1</ele>
        <time>2026-05-14T10:12:30.999Z</time>
      </trkpt>
      <trkpt lat="44.17824" lon="5.28143">
        <ele>1725.3</ele>
        <time>2026-05-14T10:12:31.999Z</time>
      </trkpt>
      <trkpt lat="44.17825" lon="5.28143">
        <ele>1725.2</ele>
        <time>2026-05-14T10:12:32.999Z</time>
      </trkpt>
      <trkpt lat="44.17826" lon="5.28142">
        <ele>1724.8</ele>
        <time>2026-05-14T10:12:33.999Z</time>
      </trkpt>
      <trkpt lat="44.17826" lon="5.2814">
        <ele>1724.6</ele>
        <time>2026-05-14T10:12:34.999Z</time>
      </trkpt>
      <trkpt lat="44.17825" lon="5.28139">
        <ele>1724.7</ele>
        <time>2026-05-14T10:12:35.999Z</time>
      </trkpt>
      <trkpt lat="44.17824" lon="5.28138">
        <ele>1725.1</ele>
        <time>2026-05-14T10:12:36.999Z</time>
      </trkpt>
      <trkpt lat="44.17823" lon="5.28136">
        <ele>1725.7</ele>
        <time>2026-05-14T10:12:37.999Z</time>
      </trkpt>
      <trkpt lat="44.17822" lon="5.28135">
        <ele>1726.6</ele>
        <time>2026-05-14T10:12:38.999Z</time>
      </trkpt>
      <trkpt lat="44.17822" lon="5.28133">
        <ele>1728.2</ele>
        <time>2026-05-14T10:12:39.999Z</time>
      </trkpt>
      <trkpt lat="44.17821" lon="5.28132">
        <ele>1728.9</ele>
        <time>2026-05-14T10:12:40.999Z</time>
      </trkpt>
      <trkpt lat="44.17821" lon="5.28131">
        <ele>1729.6</ele>
        <time>2026-05-14T10:12:41.999Z</time>
      </trkpt>
      <trkpt lat="44.17821" lon="5.2813">
        <ele>1729.5</ele>
        <time>2026-05-14T10:12:42.999Z</time>
      </trkpt>
      <trkpt lat="44.17822" lon="5.28129">
        <ele>1729.2</ele>
        <time>2026-05-14T10:12:43.999Z</time>
      </trkpt>
      <trkpt lat="44.17822" lon="5.28129">
        <ele>1729.2</ele>
        <time>2026-05-14T10:12:44.999Z</time>
      </trkpt>
      <trkpt lat="44.17823" lon="5.28128">
        <ele>1729.5</ele>
        <time>2026-05-14T10:12:45.999Z</time>
      </trkpt>
      <trkpt lat="44.17824" lon="5.28127">
        <ele>1729.3</ele>
        <time>2026-05-14T10:12:46.999Z</time>
      </trkpt>
      <trkpt lat="44.17824" lon="5.28126">
        <ele>1729.5</ele>
        <time>2026-05-14T10:12:47.999Z</time>
      </trkpt>
      <trkpt lat="44.17825" lon="5.28125">
        <ele>1729.8</ele>
        <time>2026-05-14T10:12:48.999Z</time>
      </trkpt>
      <trkpt lat="44.17825" lon="5.28124">
        <ele>1730.6</ele>
        <time>2026-05-14T10:12:49.999Z</time>
      </trkpt>
      <trkpt lat="44.17825" lon="5.28124">
        <ele>1731.2</ele>
        <time>2026-05-14T10:12:50.999Z</time>
      </trkpt>
      <trkpt lat="44.17826" lon="5.28123">
        <ele>1731.6</ele>
        <time>2026-05-14T10:12:51.999Z</time>
      </trkpt>
      <trkpt lat="44.17826" lon="5.28122">
        <ele>1731.9</ele>
        <time>2026-05-14T10:12:52.999Z</time>
      </trkpt>
      <trkpt lat="44.17827" lon="5.28122">
        <ele>1731.8</ele>
        <time>2026-05-14T10:12:53.999Z</time>
      </trkpt>
      <trkpt lat="44.17827" lon="5.28121">
        <ele>1731.7</ele>
        <time>2026-05-14T10:12:54.999Z</time>
      </trkpt>
      <trkpt lat="44.17827" lon="5.2812">
        <ele>1732</ele>
        <time>2026-05-14T10:12:55.999Z</time>
      </trkpt>
      <trkpt lat="44.17828" lon="5.28119">
        <ele>1732.8</ele>
        <time>2026-05-14T10:12:56.999Z</time>
      </trkpt>
      <trkpt lat="44.17828" lon="5.28117">
        <ele>1733.8</ele>
        <time>2026-05-14T10:12:57.999Z</time>
      </trkpt>
      <trkpt lat="44.17829" lon="5.28117">
        <ele>1734.6</ele>
        <time>2026-05-14T10:12:59.000Z</time>
      </trkpt>
      <trkpt lat="44.1783" lon="5.28115">
        <ele>1734.8</ele>
        <time>2026-05-14T10:13:00.000Z</time>
      </trkpt>
      <trkpt lat="44.17831" lon="5.28114">
        <ele>1735</ele>
        <time>2026-05-14T10:13:01.000Z</time>
      </trkpt>
      <trkpt lat="44.17831" lon="5.28112">
        <ele>1735.1</ele>
        <time>2026-05-14T10:13:02.000Z</time>
      </trkpt>
      <trkpt lat="44.17832" lon="5.28112">
        <ele>1734.9</ele>
        <time>2026-05-14T10:13:03.000Z</time>
      </trkpt>
      <trkpt lat="44.17832" lon="5.28111">
        <ele>1734.6</ele>
        <time>2026-05-14T10:13:04.000Z</time>
      </trkpt>
      <trkpt lat="44.17832" lon="5.28111">
        <ele>1734.5</ele>
        <time>2026-05-14T10:13:05.000Z</time>
      </trkpt>
      <trkpt lat="44.17832" lon="5.2811">
        <ele>1734.1</ele>
        <time>2026-05-14T10:13:06.000Z</time>
      </trkpt>
      <trkpt lat="44.17833" lon="5.28108">
        <ele>1734.4</ele>
        <time>2026-05-14T10:13:07.000Z</time>
      </trkpt>
      <trkpt lat="44.17834" lon="5.28106">
        <ele>1734.5</ele>
        <time>2026-05-14T10:13:08.000Z</time>
      </trkpt>
      <trkpt lat="44.17834" lon="5.28105">
        <ele>1735.1</ele>
        <time>2026-05-14T10:13:09.000Z</time>
      </trkpt>
      <trkpt lat="44.17834" lon="5.28104">
        <ele>1735.6</ele>
        <time>2026-05-14T10:13:10.000Z</time>
      </trkpt>
      <trkpt lat="44.17834" lon="5.28102">
        <ele>1735.9</ele>
        <time>2026-05-14T10:13:11.000Z</time>
      </trkpt>
      <trkpt lat="44.17834" lon="5.281">
        <ele>1735.9</ele>
        <time>2026-05-14T10:13:12.000Z</time>
      </trkpt>
      <trkpt lat="44.17835" lon="5.28098">
        <ele>1736.3</ele>
        <time>2026-05-14T10:13:13.000Z</time>
      </trkpt>
      <trkpt lat="44.17835" lon="5.28097">
        <ele>1736</ele>
        <time>2026-05-14T10:13:14.000Z</time>
      </trkpt>
      <trkpt lat="44.17835" lon="5.28095">
        <ele>1736.1</ele>
        <time>2026-05-14T10:13:15.000Z</time>
      </trkpt>
      <trkpt lat="44.17835" lon="5.28093">
        <ele>1736.2</ele>
        <time>2026-05-14T10:13:16.000Z</time>
      </trkpt>
      <trkpt lat="44.17836" lon="5.28092">
        <ele>1736.1</ele>
        <time>2026-05-14T10:13:17.000Z</time>
      </trkpt>
      <trkpt lat="44.17836" lon="5.28092">
        <ele>1736.1</ele>
        <time>2026-05-14T10:13:18.000Z</time>
      </trkpt>
      <trkpt lat="44.17837" lon="5.2809">
        <ele>1736</ele>
        <time>2026-05-14T10:13:19.000Z</time>
      </trkpt>
      <trkpt lat="44.17839" lon="5.28089">
        <ele>1735.6</ele>
        <time>2026-05-14T10:13:20.000Z</time>
      </trkpt>
      <trkpt lat="44.1784" lon="5.28087">
        <ele>1735.3</ele>
        <time>2026-05-14T10:13:21.000Z</time>
      </trkpt>
      <trkpt lat="44.1784" lon="5.28085">
        <ele>1734.9</ele>
        <time>2026-05-14T10:13:22.000Z</time>
      </trkpt>
      <trkpt lat="44.17841" lon="5.28084">
        <ele>1734.8</ele>
        <time>2026-05-14T10:13:23.000Z</time>
      </trkpt>
      <trkpt lat="44.17841" lon="5.28083">
        <ele>1734.7</ele>
        <time>2026-05-14T10:13:24.000Z</time>
      </trkpt>
      <trkpt lat="44.17841" lon="5.28082">
        <ele>1734.5</ele>
        <time>2026-05-14T10:13:25.000Z</time>
      </trkpt>
      <trkpt lat="44.17841" lon="5.28082">
        <ele>1735.1</ele>
        <time>2026-05-14T10:13:26.000Z</time>
      </trkpt>
      <trkpt lat="44.17841" lon="5.28081">
        <ele>1735.2</ele>
        <time>2026-05-14T10:13:27.000Z</time>
      </trkpt>
      <trkpt lat="44.17841" lon="5.2808">
        <ele>1735.3</ele>
        <time>2026-05-14T10:13:28.000Z</time>
      </trkpt>
      <trkpt lat="44.17841" lon="5.28079">
        <ele>1735.6</ele>
        <time>2026-05-14T10:13:29.000Z</time>
      </trkpt>
      <trkpt lat="44.17842" lon="5.28077">
        <ele>1735.5</ele>
        <time>2026-05-14T10:13:30.000Z</time>
      </trkpt>
      <trkpt lat="44.17842" lon="5.28076">
        <ele>1735.7</ele>
        <time>2026-05-14T10:13:31.000Z</time>
      </trkpt>
      <trkpt lat="44.17842" lon="5.28074">
        <ele>1736.5</ele>
        <time>2026-05-14T10:13:32.000Z</time>
      </trkpt>
      <trkpt lat="44.17843" lon="5.28073">
        <ele>1736.7</ele>
        <time>2026-05-14T10:13:33.000Z</time>
      </trkpt>
      <trkpt lat="44.17843" lon="5.28071">
        <ele>1736.5</ele>
        <time>2026-05-14T10:13:34.000Z</time>
      </trkpt>
      <trkpt lat="44.17843" lon="5.2807">
        <ele>1736.4</ele>
        <time>2026-05-14T10:13:35.000Z</time>
      </trkpt>
      <trkpt lat="44.17843" lon="5.28067">
        <ele>1736.4</ele>
        <time>2026-05-14T10:13:36.000Z</time>
      </trkpt>
      <trkpt lat="44.17844" lon="5.28066">
        <ele>1737.1</ele>
        <time>2026-05-14T10:13:37.000Z</time>
      </trkpt>
      <trkpt lat="44.17844" lon="5.28065">
        <ele>1737.1</ele>
        <time>2026-05-14T10:13:38.000Z</time>
      </trkpt>
      <trkpt lat="44.17844" lon="5.28065">
        <ele>1736.7</ele>
        <time>2026-05-14T10:13:39.000Z</time>
      </trkpt>
      <trkpt lat="44.17844" lon="5.28064">
        <ele>1736.4</ele>
        <time>2026-05-14T10:13:40.000Z</time>
      </trkpt>
      <trkpt lat="44.17844" lon="5.28064">
        <ele>1736</ele>
        <time>2026-05-14T10:13:41.000Z</time>
      </trkpt>
      <trkpt lat="44.17844" lon="5.28064">
        <ele>1735.4</ele>
        <time>2026-05-14T10:13:42.000Z</time>
      </trkpt>
      <trkpt lat="44.17844" lon="5.28063">
        <ele>1735.1</ele>
        <time>2026-05-14T10:13:43.000Z</time>
      </trkpt>
      <trkpt lat="44.17844" lon="5.28063">
        <ele>1734.6</ele>
        <time>2026-05-14T10:13:44.000Z</time>
      </trkpt>
      <trkpt lat="44.17844" lon="5.28062">
        <ele>1734.2</ele>
        <time>2026-05-14T10:13:45.000Z</time>
      </trkpt>
      <trkpt lat="44.17844" lon="5.2806">
        <ele>1734.2</ele>
        <time>2026-05-14T10:13:46.000Z</time>
      </trkpt>
      <trkpt lat="44.17844" lon="5.28059">
        <ele>1734.2</ele>
        <time>2026-05-14T10:13:47.000Z</time>
      </trkpt>
      <trkpt lat="44.17844" lon="5.28057">
        <ele>1734.3</ele>
        <time>2026-05-14T10:13:48.000Z</time>
      </trkpt>
      <trkpt lat="44.17844" lon="5.28056">
        <ele>1733.9</ele>
        <time>2026-05-14T10:13:49.000Z</time>
      </trkpt>
      <trkpt lat="44.17844" lon="5.28056">
        <ele>1733.9</ele>
        <time>2026-05-14T10:13:50.000Z</time>
      </trkpt>
      <trkpt lat="44.17844" lon="5.28056">
        <ele>1734</ele>
        <time>2026-05-14T10:13:51.000Z</time>
      </trkpt>
      <trkpt lat="44.17844" lon="5.28056">
        <ele>1734</ele>
        <time>2026-05-14T10:13:52.000Z</time>
      </trkpt>
      <trkpt lat="44.17844" lon="5.28057">
        <ele>1734</ele>
        <time>2026-05-14T10:13:53.000Z</time>
      </trkpt>
      <trkpt lat="44.17843" lon="5.28057">
        <ele>1734</ele>
        <time>2026-05-14T10:13:54.000Z</time>
      </trkpt>
      <trkpt lat="44.17844" lon="5.28058">
        <ele>1734.2</ele>
        <time>2026-05-14T10:13:55.000Z</time>
      </trkpt>
      <trkpt lat="44.17843" lon="5.2806">
        <ele>1733.9</ele>
        <time>2026-05-14T10:13:56.000Z</time>
      </trkpt>
      <trkpt lat="44.17843" lon="5.28062">
        <ele>1733.9</ele>
        <time>2026-05-14T10:13:57.000Z</time>
      </trkpt>
      <trkpt lat="44.17843" lon="5.28062">
        <ele>1733.7</ele>
        <time>2026-05-14T10:13:58.000Z</time>
      </trkpt>
      <trkpt lat="44.17843" lon="5.28063">
        <ele>1733.5</ele>
        <time>2026-05-14T10:13:59.000Z</time>
      </trkpt>
      <trkpt lat="44.17843" lon="5.28062">
        <ele>1733.4</ele>
        <time>2026-05-14T10:14:00.000Z</time>
      </trkpt>
      <trkpt lat="44.17843" lon="5.28062">
        <ele>1732.7</ele>
        <time>2026-05-14T10:14:01.000Z</time>
      </trkpt>
      <trkpt lat="44.17843" lon="5.28062">
        <ele>1732.3</ele>
        <time>2026-05-14T10:14:02.000Z</time>
      </trkpt>
      <trkpt lat="44.17843" lon="5.28063">
        <ele>1732.2</ele>
        <time>2026-05-14T10:14:03.000Z</time>
      </trkpt>
      <trkpt lat="44.17842" lon="5.28062">
        <ele>1732.2</ele>
        <time>2026-05-14T10:14:04.000Z</time>
      </trkpt>
      <trkpt lat="44.17841" lon="5.28063">
        <ele>1732.5</ele>
        <time>2026-05-14T10:14:05.000Z</time>
      </trkpt>
      <trkpt lat="44.17842" lon="5.28065">
        <ele>1732.5</ele>
        <time>2026-05-14T10:14:06.000Z</time>
      </trkpt>
      <trkpt lat="44.17841" lon="5.28066">
        <ele>1732.7</ele>
        <time>2026-05-14T10:14:07.000Z</time>
      </trkpt>
      <trkpt lat="44.17841" lon="5.28068">
        <ele>1732.2</ele>
        <time>2026-05-14T10:14:08.000Z</time>
      </trkpt>
      <trkpt lat="44.17841" lon="5.28069">
        <ele>1731.8</ele>
        <time>2026-05-14T10:14:09.000Z</time>
      </trkpt>
      <trkpt lat="44.17841" lon="5.2807">
        <ele>1731.6</ele>
        <time>2026-05-14T10:14:10.000Z</time>
      </trkpt>
      <trkpt lat="44.17841" lon="5.28072">
        <ele>1731.7</ele>
        <time>2026-05-14T10:14:11.000Z</time>
      </trkpt>
      <trkpt lat="44.17841" lon="5.28072">
        <ele>1731.7</ele>
        <time>2026-05-14T10:14:12.000Z</time>
      </trkpt>
      <trkpt lat="44.17841" lon="5.28073">
        <ele>1731.6</ele>
        <time>2026-05-14T10:14:13.000Z</time>
      </trkpt>
      <trkpt lat="44.1784" lon="5.28074">
        <ele>1731.4</ele>
        <time>2026-05-14T10:14:14.000Z</time>
      </trkpt>
      <trkpt lat="44.17841" lon="5.28075">
        <ele>1731.4</ele>
        <time>2026-05-14T10:14:15.000Z</time>
      </trkpt>
      <trkpt lat="44.1784" lon="5.28075">
        <ele>1730.9</ele>
        <time>2026-05-14T10:14:16.000Z</time>
      </trkpt>
      <trkpt lat="44.1784" lon="5.28076">
        <ele>1730.4</ele>
        <time>2026-05-14T10:14:17.000Z</time>
      </trkpt>
      <trkpt lat="44.17839" lon="5.28076">
        <ele>1730.1</ele>
        <time>2026-05-14T10:14:18.000Z</time>
      </trkpt>
      <trkpt lat="44.17839" lon="5.28077">
        <ele>1729.8</ele>
        <time>2026-05-14T10:14:19.000Z</time>
      </trkpt>
      <trkpt lat="44.17838" lon="5.28078">
        <ele>1729.4</ele>
        <time>2026-05-14T10:14:20.000Z</time>
      </trkpt>
      <trkpt lat="44.17838" lon="5.28078">
        <ele>1729.3</ele>
        <time>2026-05-14T10:14:21.000Z</time>
      </trkpt>
      <trkpt lat="44.17837" lon="5.28078">
        <ele>1729.2</ele>
        <time>2026-05-14T10:14:22.000Z</time>
      </trkpt>
      <trkpt lat="44.17837" lon="5.28079">
        <ele>1729.1</ele>
        <time>2026-05-14T10:14:23.000Z</time>
      </trkpt>
      <trkpt lat="44.17836" lon="5.28079">
        <ele>1729</ele>
        <time>2026-05-14T10:14:24.000Z</time>
      </trkpt>
      <trkpt lat="44.17836" lon="5.2808">
        <ele>1728.8</ele>
        <time>2026-05-14T10:14:25.000Z</time>
      </trkpt>
      <trkpt lat="44.17836" lon="5.28081">
        <ele>1728.7</ele>
        <time>2026-05-14T10:14:26.000Z</time>
      </trkpt>
      <trkpt lat="44.17835" lon="5.28081">
        <ele>1728.7</ele>
        <time>2026-05-14T10:14:27.000Z</time>
      </trkpt>
      <trkpt lat="44.17834" lon="5.28082">
        <ele>1728.5</ele>
        <time>2026-05-14T10:14:28.000Z</time>
      </trkpt>
      <trkpt lat="44.17834" lon="5.28082">
        <ele>1728.5</ele>
        <time>2026-05-14T10:14:29.000Z</time>
      </trkpt>
      <trkpt lat="44.17834" lon="5.28082">
        <ele>1728.5</ele>
        <time>2026-05-14T10:14:30.000Z</time>
      </trkpt>
      <trkpt lat="44.17833" lon="5.28083">
        <ele>1728.5</ele>
        <time>2026-05-14T10:14:31.000Z</time>
      </trkpt>
      <trkpt lat="44.17832" lon="5.28085">
        <ele>1727.8</ele>
        <time>2026-05-14T10:14:32.000Z</time>
      </trkpt>
      <trkpt lat="44.17832" lon="5.28085">
        <ele>1727.5</ele>
        <time>2026-05-14T10:14:33.000Z</time>
      </trkpt>
      <trkpt lat="44.17831" lon="5.28086">
        <ele>1727.1</ele>
        <time>2026-05-14T10:14:34.000Z</time>
      </trkpt>
      <trkpt lat="44.1783" lon="5.28087">
        <ele>1726.9</ele>
        <time>2026-05-14T10:14:35.000Z</time>
      </trkpt>
      <trkpt lat="44.17829" lon="5.28089">
        <ele>1726.9</ele>
        <time>2026-05-14T10:14:36.000Z</time>
      </trkpt>
      <trkpt lat="44.17828" lon="5.2809">
        <ele>1726.8</ele>
        <time>2026-05-14T10:14:37.000Z</time>
      </trkpt>
      <trkpt lat="44.17828" lon="5.28091">
        <ele>1727.3</ele>
        <time>2026-05-14T10:14:38.000Z</time>
      </trkpt>
      <trkpt lat="44.17827" lon="5.28092">
        <ele>1727.3</ele>
        <time>2026-05-14T10:14:39.000Z</time>
      </trkpt>
      <trkpt lat="44.17826" lon="5.28091">
        <ele>1727.1</ele>
        <time>2026-05-14T10:14:40.000Z</time>
      </trkpt>
      <trkpt lat="44.17826" lon="5.28091">
        <ele>1727.2</ele>
        <time>2026-05-14T10:14:41.000Z</time>
      </trkpt>
      <trkpt lat="44.17825" lon="5.28092">
        <ele>1726.9</ele>
        <time>2026-05-14T10:14:42.000Z</time>
      </trkpt>
      <trkpt lat="44.17825" lon="5.28092">
        <ele>1726.8</ele>
        <time>2026-05-14T10:14:43.000Z</time>
      </trkpt>
      <trkpt lat="44.17825" lon="5.28093">
        <ele>1727</ele>
        <time>2026-05-14T10:14:44.000Z</time>
      </trkpt>
      <trkpt lat="44.17825" lon="5.28093">
        <ele>1726.9</ele>
        <time>2026-05-14T10:14:45.000Z</time>
      </trkpt>
      <trkpt lat="44.17824" lon="5.28093">
        <ele>1726.9</ele>
        <time>2026-05-14T10:14:46.000Z</time>
      </trkpt>
      <trkpt lat="44.17824" lon="5.28093">
        <ele>1726.8</ele>
        <time>2026-05-14T10:14:47.000Z</time>
      </trkpt>
      <trkpt lat="44.17824" lon="5.28094">
        <ele>1727.2</ele>
        <time>2026-05-14T10:14:48.000Z</time>
      </trkpt>
      <trkpt lat="44.17824" lon="5.28094">
        <ele>1727</ele>
        <time>2026-05-14T10:14:49.000Z</time>
      </trkpt>
      <trkpt lat="44.17824" lon="5.28094">
        <ele>1727.2</ele>
        <time>2026-05-14T10:14:50.000Z</time>
      </trkpt>
      <trkpt lat="44.17823" lon="5.28095">
        <ele>1727.5</ele>
        <time>2026-05-14T10:14:51.000Z</time>
      </trkpt>
      <trkpt lat="44.17822" lon="5.28096">
        <ele>1727.7</ele>
        <time>2026-05-14T10:14:52.000Z</time>
      </trkpt>
      <trkpt lat="44.17821" lon="5.28098">
        <ele>1728</ele>
        <time>2026-05-14T10:14:53.000Z</time>
      </trkpt>
      <trkpt lat="44.17821" lon="5.28098">
        <ele>1727.7</ele>
        <time>2026-05-14T10:14:54.000Z</time>
      </trkpt>
      <trkpt lat="44.1782" lon="5.28099">
        <ele>1727.2</ele>
        <time>2026-05-14T10:14:55.000Z</time>
      </trkpt>
      <trkpt lat="44.17819" lon="5.28099">
        <ele>1726.8</ele>
        <time>2026-05-14T10:14:56.000Z</time>
      </trkpt>
      <trkpt lat="44.17818" lon="5.281">
        <ele>1726.7</ele>
        <time>2026-05-14T10:14:57.000Z</time>
      </trkpt>
      <trkpt lat="44.17818" lon="5.281">
        <ele>1727</ele>
        <time>2026-05-14T10:14:58.000Z</time>
      </trkpt>
      <trkpt lat="44.17818" lon="5.28101">
        <ele>1727.1</ele>
        <time>2026-05-14T10:14:59.000Z</time>
      </trkpt>
      <trkpt lat="44.17817" lon="5.28102">
        <ele>1726.8</ele>
        <time>2026-05-14T10:15:00.000Z</time>
      </trkpt>
      <trkpt lat="44.17817" lon="5.28104">
        <ele>1726.8</ele>
        <time>2026-05-14T10:15:01.000Z</time>
      </trkpt>
      <trkpt lat="44.17816" lon="5.28104">
        <ele>1727.2</ele>
        <time>2026-05-14T10:15:02.000Z</time>
      </trkpt>
      <trkpt lat="44.17816" lon="5.28104">
        <ele>1727.8</ele>
        <time>2026-05-14T10:15:03.000Z</time>
      </trkpt>
      <trkpt lat="44.17816" lon="5.28104">
        <ele>1728</ele>
        <time>2026-05-14T10:15:04.000Z</time>
      </trkpt>
      <trkpt lat="44.17816" lon="5.28104">
        <ele>1727.9</ele>
        <time>2026-05-14T10:15:05.000Z</time>
      </trkpt>
      <trkpt lat="44.17815" lon="5.28104">
        <ele>1728</ele>
        <time>2026-05-14T10:15:06.000Z</time>
      </trkpt>
      <trkpt lat="44.17815" lon="5.28105">
        <ele>1728.4</ele>
        <time>2026-05-14T10:15:07.000Z</time>
      </trkpt>
      <trkpt lat="44.17815" lon="5.28105">
        <ele>1728.8</ele>
        <time>2026-05-14T10:15:08.000Z</time>
      </trkpt>
      <trkpt lat="44.17815" lon="5.28105">
        <ele>1728.9</ele>
        <time>2026-05-14T10:15:09.000Z</time>
      </trkpt>
      <trkpt lat="44.17815" lon="5.28105">
        <ele>1728.9</ele>
        <time>2026-05-14T10:15:10.000Z</time>
      </trkpt>
      <trkpt lat="44.17815" lon="5.28105">
        <ele>1728.9</ele>
        <time>2026-05-14T10:15:11.000Z</time>
      </trkpt>
      <trkpt lat="44.17815" lon="5.28105">
        <ele>1729.1</ele>
        <time>2026-05-14T10:15:12.000Z</time>
      </trkpt>
      <trkpt lat="44.17815" lon="5.28105">
        <ele>1729.1</ele>
        <time>2026-05-14T10:15:13.000Z</time>
      </trkpt>
      <trkpt lat="44.17815" lon="5.28105">
        <ele>1730.1</ele>
        <time>2026-05-14T10:15:14.000Z</time>
      </trkpt>
      <trkpt lat="44.17815" lon="5.28105">
        <ele>1729.9</ele>
        <time>2026-05-14T10:15:15.000Z</time>
      </trkpt>
      <trkpt lat="44.17815" lon="5.28105">
        <ele>1729.5</ele>
        <time>2026-05-14T10:15:16.000Z</time>
      </trkpt>
      <trkpt lat="44.17815" lon="5.28105">
        <ele>1730.7</ele>
        <time>2026-05-14T10:15:17.000Z</time>
      </trkpt>
      <trkpt lat="44.17815" lon="5.28105">
        <ele>1731.1</ele>
        <time>2026-05-14T10:15:18.000Z</time>
      </trkpt>
      <trkpt lat="44.17815" lon="5.28105">
        <ele>1731.1</ele>
        <time>2026-05-14T10:15:19.000Z</time>
      </trkpt>
      <trkpt lat="44.17815" lon="5.28105">
        <ele>1730.9</ele>
        <time>2026-05-14T10:15:20.000Z</time>
      </trkpt>
      <trkpt lat="44.17815" lon="5.28105">
        <ele>1730.9</ele>
        <time>2026-05-14T10:15:21.000Z</time>
      </trkpt>
      <trkpt lat="44.17815" lon="5.28105">
        <ele>1731.2</ele>
        <time>2026-05-14T10:15:22.000Z</time>
      </trkpt>
      <trkpt lat="44.17814" lon="5.28106">
        <ele>1732.3</ele>
        <time>2026-05-14T10:15:23.000Z</time>
      </trkpt>
      <trkpt lat="44.17814" lon="5.28106">
        <ele>1732.6</ele>
        <time>2026-05-14T10:15:24.000Z</time>
      </trkpt>
      <trkpt lat="44.17814" lon="5.28106">
        <ele>1733.2</ele>
        <time>2026-05-14T10:15:25.000Z</time>
      </trkpt>
      <trkpt lat="44.17814" lon="5.28106">
        <ele>1733.5</ele>
        <time>2026-05-14T10:15:26.000Z</time>
      </trkpt>
      <trkpt lat="44.17814" lon="5.28106">
        <ele>1733.6</ele>
        <time>2026-05-14T10:15:27.000Z</time>
      </trkpt>
      <trkpt lat="44.17814" lon="5.28106">
        <ele>1733.9</ele>
        <time>2026-05-14T10:15:28.000Z</time>
      </trkpt>
      <trkpt lat="44.17814" lon="5.28106">
        <ele>1733.6</ele>
        <time>2026-05-14T10:15:29.000Z</time>
      </trkpt>
      <trkpt lat="44.17814" lon="5.28106">
        <ele>1733.3</ele>
        <time>2026-05-14T10:15:30.000Z</time>
      </trkpt>
      <trkpt lat="44.17814" lon="5.28106">
        <ele>1733.1</ele>
        <time>2026-05-14T10:15:31.000Z</time>
      </trkpt>
      <trkpt lat="44.17814" lon="5.28106">
        <ele>1733.1</ele>
        <time>2026-05-14T10:15:32.000Z</time>
      </trkpt>
      <trkpt lat="44.17814" lon="5.28106">
        <ele>1733.3</ele>
        <time>2026-05-14T10:15:33.000Z</time>
      </trkpt>
      <trkpt lat="44.17814" lon="5.28106">
        <ele>1733.2</ele>
        <time>2026-05-14T10:15:34.000Z</time>
      </trkpt>
      <trkpt lat="44.17814" lon="5.28107">
        <ele>1733.1</ele>
        <time>2026-05-14T10:15:35.000Z</time>
      </trkpt>
      <trkpt lat="44.17814" lon="5.28108">
        <ele>1732.9</ele>
        <time>2026-05-14T10:15:36.000Z</time>
      </trkpt>
      <trkpt lat="44.17814" lon="5.28108">
        <ele>1732.7</ele>
        <time>2026-05-14T10:15:37.000Z</time>
      </trkpt>
      <trkpt lat="44.17813" lon="5.28108">
        <ele>1732.5</ele>
        <time>2026-05-14T10:15:38.000Z</time>
      </trkpt>
      <trkpt lat="44.17813" lon="5.28108">
        <ele>1732.5</ele>
        <time>2026-05-14T10:15:39.000Z</time>
      </trkpt>
      <trkpt lat="44.17811" lon="5.28108">
        <ele>1733.5</ele>
        <time>2026-05-14T10:15:40.000Z</time>
      </trkpt>
      <trkpt lat="44.17811" lon="5.2811">
        <ele>1733.5</ele>
        <time>2026-05-14T10:15:41.000Z</time>
      </trkpt>
      <trkpt lat="44.17811" lon="5.28112">
        <ele>1733.7</ele>
        <time>2026-05-14T10:15:42.000Z</time>
      </trkpt>
      <trkpt lat="44.1781" lon="5.28115">
        <ele>1734.6</ele>
        <time>2026-05-14T10:15:43.000Z</time>
      </trkpt>
      <trkpt lat="44.17809" lon="5.28116">
        <ele>1734.8</ele>
        <time>2026-05-14T10:15:44.000Z</time>
      </trkpt>
      <trkpt lat="44.17809" lon="5.28117">
        <ele>1734.7</ele>
        <time>2026-05-14T10:15:45.000Z</time>
      </trkpt>
      <trkpt lat="44.17808" lon="5.28118">
        <ele>1734.8</ele>
        <time>2026-05-14T10:15:46.000Z</time>
      </trkpt>
      <trkpt lat="44.17808" lon="5.28118">
        <ele>1734.6</ele>
        <time>2026-05-14T10:15:47.000Z</time>
      </trkpt>
      <trkpt lat="44.17808" lon="5.28119">
        <ele>1734.4</ele>
        <time>2026-05-14T10:15:48.000Z</time>
      </trkpt>
      <trkpt lat="44.17808" lon="5.2812">
        <ele>1734.1</ele>
        <time>2026-05-14T10:15:49.000Z</time>
      </trkpt>
      <trkpt lat="44.17807" lon="5.28122">
        <ele>1734</ele>
        <time>2026-05-14T10:15:50.000Z</time>
      </trkpt>
      <trkpt lat="44.17807" lon="5.28122">
        <ele>1733.9</ele>
        <time>2026-05-14T10:15:51.000Z</time>
      </trkpt>
      <trkpt lat="44.17806" lon="5.28123">
        <ele>1734</ele>
        <time>2026-05-14T10:15:52.000Z</time>
      </trkpt>
      <trkpt lat="44.17806" lon="5.28123">
        <ele>1734.1</ele>
        <time>2026-05-14T10:15:53.000Z</time>
      </trkpt>
      <trkpt lat="44.17805" lon="5.28124">
        <ele>1734</ele>
        <time>2026-05-14T10:15:54.000Z</time>
      </trkpt>
      <trkpt lat="44.17805" lon="5.28126">
        <ele>1733.7</ele>
        <time>2026-05-14T10:15:55.000Z</time>
      </trkpt>
      <trkpt lat="44.17804" lon="5.28127">
        <ele>1733.6</ele>
        <time>2026-05-14T10:15:56.000Z</time>
      </trkpt>
      <trkpt lat="44.17804" lon="5.28128">
        <ele>1733.4</ele>
        <time>2026-05-14T10:15:57.000Z</time>
      </trkpt>
      <trkpt lat="44.17804" lon="5.28129">
        <ele>1733.3</ele>
        <time>2026-05-14T10:15:58.000Z</time>
      </trkpt>
      <trkpt lat="44.17803" lon="5.2813">
        <ele>1733.4</ele>
        <time>2026-05-14T10:15:59.000Z</time>
      </trkpt>
      <trkpt lat="44.17803" lon="5.28131">
        <ele>1733.6</ele>
        <time>2026-05-14T10:16:00.000Z</time>
      </trkpt>
      <trkpt lat="44.17802" lon="5.28132">
        <ele>1733.4</ele>
        <time>2026-05-14T10:16:01.000Z</time>
      </trkpt>
      <trkpt lat="44.17802" lon="5.28134">
        <ele>1733.5</ele>
        <time>2026-05-14T10:16:02.000Z</time>
      </trkpt>
      <trkpt lat="44.17802" lon="5.28134">
        <ele>1733</ele>
        <time>2026-05-14T10:16:03.000Z</time>
      </trkpt>
      <trkpt lat="44.17802" lon="5.28134">
        <ele>1732.6</ele>
        <time>2026-05-14T10:16:04.000Z</time>
      </trkpt>
      <trkpt lat="44.17802" lon="5.28134">
        <ele>1732.6</ele>
        <time>2026-05-14T10:16:05.000Z</time>
      </trkpt>
      <trkpt lat="44.17802" lon="5.28134">
        <ele>1732.8</ele>
        <time>2026-05-14T10:16:06.000Z</time>
      </trkpt>
      <trkpt lat="44.17801" lon="5.28135">
        <ele>1732.9</ele>
        <time>2026-05-14T10:16:07.000Z</time>
      </trkpt>
      <trkpt lat="44.178" lon="5.28135">
        <ele>1732.8</ele>
        <time>2026-05-14T10:16:08.000Z</time>
      </trkpt>
      <trkpt lat="44.178" lon="5.28136">
        <ele>1732.8</ele>
        <time>2026-05-14T10:16:09.000Z</time>
      </trkpt>
      <trkpt lat="44.178" lon="5.28136">
        <ele>1732.7</ele>
        <time>2026-05-14T10:16:10.000Z</time>
      </trkpt>
      <trkpt lat="44.17799" lon="5.28137">
        <ele>1732.4</ele>
        <time>2026-05-14T10:16:11.000Z</time>
      </trkpt>
      <trkpt lat="44.17799" lon="5.28137">
        <ele>1732.1</ele>
        <time>2026-05-14T10:16:12.000Z</time>
      </trkpt>
      <trkpt lat="44.17798" lon="5.28137">
        <ele>1731.8</ele>
        <time>2026-05-14T10:16:13.000Z</time>
      </trkpt>
      <trkpt lat="44.17797" lon="5.28138">
        <ele>1731.3</ele>
        <time>2026-05-14T10:16:14.000Z</time>
      </trkpt>
      <trkpt lat="44.17796" lon="5.28138">
        <ele>1731.1</ele>
        <time>2026-05-14T10:16:15.000Z</time>
      </trkpt>
      <trkpt lat="44.17796" lon="5.28138">
        <ele>1730.9</ele>
        <time>2026-05-14T10:16:16.000Z</time>
      </trkpt>
      <trkpt lat="44.17795" lon="5.28139">
        <ele>1730.7</ele>
        <time>2026-05-14T10:16:17.000Z</time>
      </trkpt>
      <trkpt lat="44.17795" lon="5.2814">
        <ele>1730.6</ele>
        <time>2026-05-14T10:16:18.000Z</time>
      </trkpt>
      <trkpt lat="44.17794" lon="5.2814">
        <ele>1730.5</ele>
        <time>2026-05-14T10:16:19.000Z</time>
      </trkpt>
      <trkpt lat="44.17794" lon="5.2814">
        <ele>1730.4</ele>
        <time>2026-05-14T10:16:20.000Z</time>
      </trkpt>
      <trkpt lat="44.17795" lon="5.2814">
        <ele>1730.5</ele>
        <time>2026-05-14T10:16:21.000Z</time>
      </trkpt>
      <trkpt lat="44.17795" lon="5.28139">
        <ele>1730.6</ele>
        <time>2026-05-14T10:16:22.000Z</time>
      </trkpt>
      <trkpt lat="44.17795" lon="5.28139">
        <ele>1730.9</ele>
        <time>2026-05-14T10:16:23.000Z</time>
      </trkpt>
      <trkpt lat="44.17795" lon="5.28139">
        <ele>1730.8</ele>
        <time>2026-05-14T10:16:24.000Z</time>
      </trkpt>
      <trkpt lat="44.17795" lon="5.28139">
        <ele>1730.8</ele>
        <time>2026-05-14T10:16:25.000Z</time>
      </trkpt>
      <trkpt lat="44.17795" lon="5.2814">
        <ele>1730.8</ele>
        <time>2026-05-14T10:16:26.000Z</time>
      </trkpt>
      <trkpt lat="44.17795" lon="5.2814">
        <ele>1730.9</ele>
        <time>2026-05-14T10:16:27.000Z</time>
      </trkpt>
      <trkpt lat="44.17795" lon="5.2814">
        <ele>1730.9</ele>
        <time>2026-05-14T10:16:28.000Z</time>
      </trkpt>
      <trkpt lat="44.17795" lon="5.2814">
        <ele>1731</ele>
        <time>2026-05-14T10:16:29.000Z</time>
      </trkpt>
      <trkpt lat="44.17795" lon="5.28139">
        <ele>1730.9</ele>
        <time>2026-05-14T10:16:30.000Z</time>
      </trkpt>
      <trkpt lat="44.17795" lon="5.28139">
        <ele>1730.8</ele>
        <time>2026-05-14T10:16:31.000Z</time>
      </trkpt>
      <trkpt lat="44.17795" lon="5.28139">
        <ele>1730.6</ele>
        <time>2026-05-14T10:16:32.000Z</time>
      </trkpt>
      <trkpt lat="44.17795" lon="5.28139">
        <ele>1730.4</ele>
        <time>2026-05-14T10:16:33.000Z</time>
      </trkpt>
      <trkpt lat="44.17795" lon="5.28139">
        <ele>1730.2</ele>
        <time>2026-05-14T10:16:34.000Z</time>
      </trkpt>
      <trkpt lat="44.17795" lon="5.28139">
        <ele>1730.1</ele>
        <time>2026-05-14T10:16:35.000Z</time>
      </trkpt>
      <trkpt lat="44.17795" lon="5.28139">
        <ele>1730.1</ele>
        <time>2026-05-14T10:16:36.000Z</time>
      </trkpt>
      <trkpt lat="44.17795" lon="5.28139">
        <ele>1730</ele>
        <time>2026-05-14T10:16:37.000Z</time>
      </trkpt>
      <trkpt lat="44.17795" lon="5.28139">
        <ele>1730.2</ele>
        <time>2026-05-14T10:16:38.000Z</time>
      </trkpt>
      <trkpt lat="44.17795" lon="5.28139">
        <ele>1730.2</ele>
        <time>2026-05-14T10:16:39.000Z</time>
      </trkpt>
      <trkpt lat="44.17795" lon="5.28139">
        <ele>1730.4</ele>
        <time>2026-05-14T10:16:40.000Z</time>
      </trkpt>
      <trkpt lat="44.17795" lon="5.28139">
        <ele>1730.8</ele>
        <time>2026-05-14T10:16:41.000Z</time>
      </trkpt>
      <trkpt lat="44.17795" lon="5.28139">
        <ele>1731</ele>
        <time>2026-05-14T10:16:42.000Z</time>
      </trkpt>
      <trkpt lat="44.17795" lon="5.28139">
        <ele>1731.3</ele>
        <time>2026-05-14T10:16:43.000Z</time>
      </trkpt>
      <trkpt lat="44.17794" lon="5.2814">
        <ele>1731.3</ele>
        <time>2026-05-14T10:16:44.000Z</time>
      </trkpt>
      <trkpt lat="44.17793" lon="5.28141">
        <ele>1731.3</ele>
        <time>2026-05-14T10:16:45.000Z</time>
      </trkpt>
      <trkpt lat="44.17793" lon="5.28141">
        <ele>1731.4</ele>
        <time>2026-05-14T10:16:46.000Z</time>
      </trkpt>
      <trkpt lat="44.17793" lon="5.28142">
        <ele>1731.3</ele>
        <time>2026-05-14T10:16:47.000Z</time>
      </trkpt>
      <trkpt lat="44.17793" lon="5.28143">
        <ele>1731.3</ele>
        <time>2026-05-14T10:16:48.000Z</time>
      </trkpt>
      <trkpt lat="44.17792" lon="5.28144">
        <ele>1731.3</ele>
        <time>2026-05-14T10:16:49.000Z</time>
      </trkpt>
      <trkpt lat="44.17792" lon="5.28145">
        <ele>1731.3</ele>
        <time>2026-05-14T10:16:50.000Z</time>
      </trkpt>
      <trkpt lat="44.17791" lon="5.28146">
        <ele>1731.3</ele>
        <time>2026-05-14T10:16:51.000Z</time>
      </trkpt>
      <trkpt lat="44.17791" lon="5.28147">
        <ele>1731.2</ele>
        <time>2026-05-14T10:16:52.000Z</time>
      </trkpt>
      <trkpt lat="44.17791" lon="5.28147">
        <ele>1731.3</ele>
        <time>2026-05-14T10:16:53.000Z</time>
      </trkpt>
      <trkpt lat="44.17791" lon="5.28147">
        <ele>1730.8</ele>
        <time>2026-05-14T10:16:54.000Z</time>
      </trkpt>
      <trkpt lat="44.17791" lon="5.28147">
        <ele>1730.9</ele>
        <time>2026-05-14T10:16:55.000Z</time>
      </trkpt>
      <trkpt lat="44.17791" lon="5.28147">
        <ele>1730.9</ele>
        <time>2026-05-14T10:16:56.000Z</time>
      </trkpt>
      <trkpt lat="44.1779" lon="5.28148">
        <ele>1730.8</ele>
        <time>2026-05-14T10:16:57.000Z</time>
      </trkpt>
      <trkpt lat="44.1779" lon="5.28148">
        <ele>1730.7</ele>
        <time>2026-05-14T10:16:58.000Z</time>
      </trkpt>
      <trkpt lat="44.1779" lon="5.28148">
        <ele>1730.7</ele>
        <time>2026-05-14T10:16:59.000Z</time>
      </trkpt>
      <trkpt lat="44.1779" lon="5.28148">
        <ele>1731.5</ele>
        <time>2026-05-14T10:17:00.000Z</time>
      </trkpt>
      <trkpt lat="44.1779" lon="5.28148">
        <ele>1732.5</ele>
        <time>2026-05-14T10:17:01.000Z</time>
      </trkpt>
      <trkpt lat="44.1779" lon="5.28148">
        <ele>1733.1</ele>
        <time>2026-05-14T10:17:02.000Z</time>
      </trkpt>
      <trkpt lat="44.1779" lon="5.28148">
        <ele>1734.8</ele>
        <time>2026-05-14T10:17:04.000Z</time>
      </trkpt>
      <trkpt lat="44.1779" lon="5.28147">
        <ele>1734.8</ele>
        <time>2026-05-14T10:17:05.000Z</time>
      </trkpt>
      <trkpt lat="44.1779" lon="5.28147">
        <ele>1735.2</ele>
        <time>2026-05-14T10:17:06.000Z</time>
      </trkpt>
      <trkpt lat="44.1779" lon="5.28147">
        <ele>1735.5</ele>
        <time>2026-05-14T10:17:07.000Z</time>
      </trkpt>
      <trkpt lat="44.1779" lon="5.28147">
        <ele>1736.3</ele>
        <time>2026-05-14T10:17:08.000Z</time>
      </trkpt>
      <trkpt lat="44.1779" lon="5.28148">
        <ele>1736.7</ele>
        <time>2026-05-14T10:17:09.000Z</time>
      </trkpt>
      <trkpt lat="44.1779" lon="5.28148">
        <ele>1736.7</ele>
        <time>2026-05-14T10:17:10.000Z</time>
      </trkpt>
      <trkpt lat="44.1779" lon="5.28148">
        <ele>1736.7</ele>
        <time>2026-05-14T10:17:11.000Z</time>
      </trkpt>
      <trkpt lat="44.1779" lon="5.28148">
        <ele>1736.8</ele>
        <time>2026-05-14T10:17:12.000Z</time>
      </trkpt>
      <trkpt lat="44.1779" lon="5.28148">
        <ele>1736.9</ele>
        <time>2026-05-14T10:17:13.000Z</time>
      </trkpt>
      <trkpt lat="44.1779" lon="5.28148">
        <ele>1737</ele>
        <time>2026-05-14T10:17:14.000Z</time>
      </trkpt>
      <trkpt lat="44.1779" lon="5.28148">
        <ele>1737.3</ele>
        <time>2026-05-14T10:17:15.000Z</time>
      </trkpt>
      <trkpt lat="44.1779" lon="5.28147">
        <ele>1737.6</ele>
        <time>2026-05-14T10:17:16.000Z</time>
      </trkpt>
      <trkpt lat="44.1779" lon="5.28148">
        <ele>1737.9</ele>
        <time>2026-05-14T10:17:17.000Z</time>
      </trkpt>
      <trkpt lat="44.1779" lon="5.28147">
        <ele>1738.1</ele>
        <time>2026-05-14T10:17:18.000Z</time>
      </trkpt>
      <trkpt lat="44.17789" lon="5.28148">
        <ele>1738.3</ele>
        <time>2026-05-14T10:17:19.000Z</time>
      </trkpt>
      <trkpt lat="44.17789" lon="5.28149">
        <ele>1738.5</ele>
        <time>2026-05-14T10:17:20.000Z</time>
      </trkpt>
      <trkpt lat="44.17789" lon="5.2815">
        <ele>1738.8</ele>
        <time>2026-05-14T10:17:21.000Z</time>
      </trkpt>
      <trkpt lat="44.17789" lon="5.28151">
        <ele>1738.8</ele>
        <time>2026-05-14T10:17:22.000Z</time>
      </trkpt>
      <trkpt lat="44.17789" lon="5.28151">
        <ele>1739</ele>
        <time>2026-05-14T10:17:23.000Z</time>
      </trkpt>
      <trkpt lat="44.17789" lon="5.28152">
        <ele>1739.3</ele>
        <time>2026-05-14T10:17:24.000Z</time>
      </trkpt>
      <trkpt lat="44.17788" lon="5.28152">
        <ele>1739.8</ele>
        <time>2026-05-14T10:17:25.000Z</time>
      </trkpt>
      <trkpt lat="44.17787" lon="5.28154">
        <ele>1740</ele>
        <time>2026-05-14T10:17:26.000Z</time>
      </trkpt>
      <trkpt lat="44.17787" lon="5.28154">
        <ele>1740.6</ele>
        <time>2026-05-14T10:17:27.000Z</time>
      </trkpt>
      <trkpt lat="44.17788" lon="5.28154">
        <ele>1740.8</ele>
        <time>2026-05-14T10:17:28.000Z</time>
      </trkpt>
      <trkpt lat="44.17788" lon="5.28156">
        <ele>1740.5</ele>
        <time>2026-05-14T10:17:29.000Z</time>
      </trkpt>
      <trkpt lat="44.17788" lon="5.28158">
        <ele>1740.4</ele>
        <time>2026-05-14T10:17:30.000Z</time>
      </trkpt>
      <trkpt lat="44.17787" lon="5.2816">
        <ele>1740.5</ele>
        <time>2026-05-14T10:17:31.000Z</time>
      </trkpt>
      <trkpt lat="44.17787" lon="5.28162">
        <ele>1740.4</ele>
        <time>2026-05-14T10:17:32.000Z</time>
      </trkpt>
      <trkpt lat="44.17786" lon="5.28163">
        <ele>1740.5</ele>
        <time>2026-05-14T10:17:33.000Z</time>
      </trkpt>
      <trkpt lat="44.17785" lon="5.28164">
        <ele>1740.6</ele>
        <time>2026-05-14T10:17:34.000Z</time>
      </trkpt>
      <trkpt lat="44.17785" lon="5.28163">
        <ele>1740.5</ele>
        <time>2026-05-14T10:17:35.000Z</time>
      </trkpt>
      <trkpt lat="44.17785" lon="5.28163">
        <ele>1740.3</ele>
        <time>2026-05-14T10:17:36.000Z</time>
      </trkpt>
      <trkpt lat="44.17785" lon="5.28163">
        <ele>1740.2</ele>
        <time>2026-05-14T10:17:37.000Z</time>
      </trkpt>
      <trkpt lat="44.17785" lon="5.28163">
        <ele>1740.3</ele>
        <time>2026-05-14T10:17:38.000Z</time>
      </trkpt>
      <trkpt lat="44.17785" lon="5.28163">
        <ele>1741.4</ele>
        <time>2026-05-14T10:17:39.000Z</time>
      </trkpt>
      <trkpt lat="44.17785" lon="5.28163">
        <ele>1741.7</ele>
        <time>2026-05-14T10:17:40.000Z</time>
      </trkpt>
      <trkpt lat="44.17785" lon="5.28163">
        <ele>1741.9</ele>
        <time>2026-05-14T10:17:41.000Z</time>
      </trkpt>
      <trkpt lat="44.17784" lon="5.28163">
        <ele>1741.9</ele>
        <time>2026-05-14T10:17:42.000Z</time>
      </trkpt>
      <trkpt lat="44.17784" lon="5.28163">
        <ele>1741.8</ele>
        <time>2026-05-14T10:17:43.000Z</time>
      </trkpt>
      <trkpt lat="44.17784" lon="5.28163">
        <ele>1741.7</ele>
        <time>2026-05-14T10:17:44.000Z</time>
      </trkpt>
      <trkpt lat="44.17784" lon="5.28163">
        <ele>1741.8</ele>
        <time>2026-05-14T10:17:45.000Z</time>
      </trkpt>
      <trkpt lat="44.17784" lon="5.28163">
        <ele>1741.9</ele>
        <time>2026-05-14T10:17:46.000Z</time>
      </trkpt>
      <trkpt lat="44.17784" lon="5.28163">
        <ele>1741.9</ele>
        <time>2026-05-14T10:17:47.000Z</time>
      </trkpt>
      <trkpt lat="44.17784" lon="5.28163">
        <ele>1741.9</ele>
        <time>2026-05-14T10:17:48.000Z</time>
      </trkpt>
      <trkpt lat="44.17784" lon="5.28163">
        <ele>1742</ele>
        <time>2026-05-14T10:17:49.000Z</time>
      </trkpt>
      <trkpt lat="44.17784" lon="5.28163">
        <ele>1741.9</ele>
        <time>2026-05-14T10:17:50.000Z</time>
      </trkpt>
      <trkpt lat="44.17784" lon="5.28163">
        <ele>1741.9</ele>
        <time>2026-05-14T10:17:51.000Z</time>
      </trkpt>
      <trkpt lat="44.17784" lon="5.28163">
        <ele>1741.8</ele>
        <time>2026-05-14T10:17:52.000Z</time>
      </trkpt>
      <trkpt lat="44.17784" lon="5.28163">
        <ele>1741.9</ele>
        <time>2026-05-14T10:17:53.000Z</time>
      </trkpt>
      <trkpt lat="44.17784" lon="5.28163">
        <ele>1742.1</ele>
        <time>2026-05-14T10:17:54.000Z</time>
      </trkpt>
      <trkpt lat="44.17784" lon="5.28163">
        <ele>1742.3</ele>
        <time>2026-05-14T10:17:55.000Z</time>
      </trkpt>
      <trkpt lat="44.17784" lon="5.28163">
        <ele>1742.3</ele>
        <time>2026-05-14T10:17:56.000Z</time>
      </trkpt>
      <trkpt lat="44.17784" lon="5.28163">
        <ele>1742.1</ele>
        <time>2026-05-14T10:17:57.000Z</time>
      </trkpt>
      <trkpt lat="44.17784" lon="5.28163">
        <ele>1741.8</ele>
        <time>2026-05-14T10:17:58.000Z</time>
      </trkpt>
      <trkpt lat="44.17784" lon="5.28162">
        <ele>1741.6</ele>
        <time>2026-05-14T10:17:59.000Z</time>
      </trkpt>
      <trkpt lat="44.17784" lon="5.28162">
        <ele>1741.4</ele>
        <time>2026-05-14T10:18:00.000Z</time>
      </trkpt>
      <trkpt lat="44.17784" lon="5.28162">
        <ele>1741.5</ele>
        <time>2026-05-14T10:18:01.000Z</time>
      </trkpt>
      <trkpt lat="44.17784" lon="5.28162">
        <ele>1741.3</ele>
        <time>2026-05-14T10:18:02.000Z</time>
      </trkpt>
      <trkpt lat="44.17784" lon="5.28162">
        <ele>1741.5</ele>
        <time>2026-05-14T10:18:03.000Z</time>
      </trkpt>
      <trkpt lat="44.17784" lon="5.28162">
        <ele>1741.4</ele>
        <time>2026-05-14T10:18:04.000Z</time>
      </trkpt>
      <trkpt lat="44.17785" lon="5.28162">
        <ele>1741.5</ele>
        <time>2026-05-14T10:18:05.000Z</time>
      </trkpt>
      <trkpt lat="44.17785" lon="5.28162">
        <ele>1741.4</ele>
        <time>2026-05-14T10:18:06.000Z</time>
      </trkpt>
      <trkpt lat="44.17785" lon="5.28162">
        <ele>1741.7</ele>
        <time>2026-05-14T10:18:07.000Z</time>
      </trkpt>
      <trkpt lat="44.17785" lon="5.28162">
        <ele>1741.6</ele>
        <time>2026-05-14T10:18:08.000Z</time>
      </trkpt>
      <trkpt lat="44.17785" lon="5.28162">
        <ele>1741.6</ele>
        <time>2026-05-14T10:18:09.000Z</time>
      </trkpt>
      <trkpt lat="44.17785" lon="5.28162">
        <ele>1742.4</ele>
        <time>2026-05-14T10:18:10.000Z</time>
      </trkpt>
      <trkpt lat="44.17785" lon="5.28162">
        <ele>1742.5</ele>
        <time>2026-05-14T10:18:11.000Z</time>
      </trkpt>
      <trkpt lat="44.17785" lon="5.28162">
        <ele>1742.5</ele>
        <time>2026-05-14T10:18:12.000Z</time>
      </trkpt>
      <trkpt lat="44.17785" lon="5.28163">
        <ele>1742.6</ele>
        <time>2026-05-14T10:18:13.000Z</time>
      </trkpt>
      <trkpt lat="44.17785" lon="5.28164">
        <ele>1742.6</ele>
        <time>2026-05-14T10:18:14.000Z</time>
      </trkpt>
      <trkpt lat="44.17785" lon="5.28166">
        <ele>1742.5</ele>
        <time>2026-05-14T10:18:15.000Z</time>
      </trkpt>
      <trkpt lat="44.17786" lon="5.28167">
        <ele>1742.6</ele>
        <time>2026-05-14T10:18:16.000Z</time>
      </trkpt>
      <trkpt lat="44.17786" lon="5.2817">
        <ele>1742.5</ele>
        <time>2026-05-14T10:18:18.000Z</time>
      </trkpt>
      <trkpt lat="44.17785" lon="5.28171">
        <ele>1742.6</ele>
        <time>2026-05-14T10:18:19.000Z</time>
      </trkpt>
      <trkpt lat="44.17785" lon="5.28173">
        <ele>1742.9</ele>
        <time>2026-05-14T10:18:20.000Z</time>
      </trkpt>
      <trkpt lat="44.17785" lon="5.28175">
        <ele>1743.3</ele>
        <time>2026-05-14T10:18:21.000Z</time>
      </trkpt>
      <trkpt lat="44.17784" lon="5.28177">
        <ele>1743.5</ele>
        <time>2026-05-14T10:18:22.000Z</time>
      </trkpt>
      <trkpt lat="44.17783" lon="5.28178">
        <ele>1742.7</ele>
        <time>2026-05-14T10:18:23.000Z</time>
      </trkpt>
      <trkpt lat="44.17783" lon="5.28177">
        <ele>1742.4</ele>
        <time>2026-05-14T10:18:24.000Z</time>
      </trkpt>
      <trkpt lat="44.17783" lon="5.28177">
        <ele>1742</ele>
        <time>2026-05-14T10:18:25.000Z</time>
      </trkpt>
      <trkpt lat="44.17783" lon="5.28177">
        <ele>1742.1</ele>
        <time>2026-05-14T10:18:26.000Z</time>
      </trkpt>
      <trkpt lat="44.17783" lon="5.28177">
        <ele>1742.2</ele>
        <time>2026-05-14T10:18:27.000Z</time>
      </trkpt>
      <trkpt lat="44.17783" lon="5.28177">
        <ele>1742.3</ele>
        <time>2026-05-14T10:18:28.000Z</time>
      </trkpt>
      <trkpt lat="44.17783" lon="5.28177">
        <ele>1742.6</ele>
        <time>2026-05-14T10:18:29.000Z</time>
      </trkpt>
      <trkpt lat="44.17783" lon="5.28176">
        <ele>1742.6</ele>
        <time>2026-05-14T10:18:30.000Z</time>
      </trkpt>
      <trkpt lat="44.17783" lon="5.28175">
        <ele>1742.9</ele>
        <time>2026-05-14T10:18:31.000Z</time>
      </trkpt>
      <trkpt lat="44.17783" lon="5.28174">
        <ele>1743.5</ele>
        <time>2026-05-14T10:18:32.000Z</time>
      </trkpt>
      <trkpt lat="44.17783" lon="5.28173">
        <ele>1744.2</ele>
        <time>2026-05-14T10:18:33.000Z</time>
      </trkpt>
      <trkpt lat="44.17783" lon="5.28172">
        <ele>1745.1</ele>
        <time>2026-05-14T10:18:34.000Z</time>
      </trkpt>
      <trkpt lat="44.17783" lon="5.28172">
        <ele>1746.1</ele>
        <time>2026-05-14T10:18:35.000Z</time>
      </trkpt>
      <trkpt lat="44.17783" lon="5.28172">
        <ele>1746.7</ele>
        <time>2026-05-14T10:18:36.000Z</time>
      </trkpt>
      <trkpt lat="44.17783" lon="5.28172">
        <ele>1747.3</ele>
        <time>2026-05-14T10:18:37.000Z</time>
      </trkpt>
      <trkpt lat="44.17783" lon="5.28172">
        <ele>1747.9</ele>
        <time>2026-05-14T10:18:38.000Z</time>
      </trkpt>
      <trkpt lat="44.17783" lon="5.28172">
        <ele>1748.1</ele>
        <time>2026-05-14T10:18:39.000Z</time>
      </trkpt>
      <trkpt lat="44.17783" lon="5.28172">
        <ele>1748.5</ele>
        <time>2026-05-14T10:18:40.000Z</time>
      </trkpt>
      <trkpt lat="44.17783" lon="5.28172">
        <ele>1749</ele>
        <time>2026-05-14T10:18:41.000Z</time>
      </trkpt>
      <trkpt lat="44.17783" lon="5.28172">
        <ele>1749.4</ele>
        <time>2026-05-14T10:18:42.000Z</time>
      </trkpt>
      <trkpt lat="44.17783" lon="5.28172">
        <ele>1749.9</ele>
        <time>2026-05-14T10:18:43.000Z</time>
      </trkpt>
      <trkpt lat="44.17783" lon="5.28172">
        <ele>1750.4</ele>
        <time>2026-05-14T10:18:44.000Z</time>
      </trkpt>
      <trkpt lat="44.17783" lon="5.28172">
        <ele>1750.4</ele>
        <time>2026-05-14T10:18:45.000Z</time>
      </trkpt>
      <trkpt lat="44.17783" lon="5.28172">
        <ele>1750.3</ele>
        <time>2026-05-14T10:18:46.000Z</time>
      </trkpt>
      <trkpt lat="44.17783" lon="5.28175">
        <ele>1750.5</ele>
        <time>2026-05-14T10:18:48.000Z</time>
      </trkpt>
      <trkpt lat="44.17782" lon="5.28176">
        <ele>1751</ele>
        <time>2026-05-14T10:18:49.000Z</time>
      </trkpt>
      <trkpt lat="44.17782" lon="5.28178">
        <ele>1751</ele>
        <time>2026-05-14T10:18:50.000Z</time>
      </trkpt>
      <trkpt lat="44.17781" lon="5.2818">
        <ele>1751.2</ele>
        <time>2026-05-14T10:18:51.000Z</time>
      </trkpt>
      <trkpt lat="44.1778" lon="5.28182">
        <ele>1751.9</ele>
        <time>2026-05-14T10:18:52.000Z</time>
      </trkpt>
      <trkpt lat="44.17778" lon="5.28183">
        <ele>1751.5</ele>
        <time>2026-05-14T10:18:53.000Z</time>
      </trkpt>
      <trkpt lat="44.17778" lon="5.28184">
        <ele>1751.3</ele>
        <time>2026-05-14T10:18:54.000Z</time>
      </trkpt>
      <trkpt lat="44.17778" lon="5.28185">
        <ele>1750.8</ele>
        <time>2026-05-14T10:18:55.000Z</time>
      </trkpt>
      <trkpt lat="44.17778" lon="5.28187">
        <ele>1751.3</ele>
        <time>2026-05-14T10:18:56.000Z</time>
      </trkpt>
      <trkpt lat="44.17778" lon="5.28187">
        <ele>1750.8</ele>
        <time>2026-05-14T10:18:57.000Z</time>
      </trkpt>
      <trkpt lat="44.17777" lon="5.28188">
        <ele>1750.1</ele>
        <time>2026-05-14T10:18:58.000Z</time>
      </trkpt>
      <trkpt lat="44.17776" lon="5.28189">
        <ele>1749.5</ele>
        <time>2026-05-14T10:18:59.000Z</time>
      </trkpt>
      <trkpt lat="44.17776" lon="5.2819">
        <ele>1749</ele>
        <time>2026-05-14T10:19:00.000Z</time>
      </trkpt>
      <trkpt lat="44.17776" lon="5.2819">
        <ele>1749.4</ele>
        <time>2026-05-14T10:19:01.000Z</time>
      </trkpt>
      <trkpt lat="44.17776" lon="5.2819">
        <ele>1749.1</ele>
        <time>2026-05-14T10:19:02.000Z</time>
      </trkpt>
      <trkpt lat="44.17776" lon="5.28191">
        <ele>1748.8</ele>
        <time>2026-05-14T10:19:03.000Z</time>
      </trkpt>
      <trkpt lat="44.17777" lon="5.28192">
        <ele>1749.1</ele>
        <time>2026-05-14T10:19:04.000Z</time>
      </trkpt>
      <trkpt lat="44.17777" lon="5.28193">
        <ele>1749.3</ele>
        <time>2026-05-14T10:19:05.000Z</time>
      </trkpt>
      <trkpt lat="44.17777" lon="5.28194">
        <ele>1749</ele>
        <time>2026-05-14T10:19:06.000Z</time>
      </trkpt>
      <trkpt lat="44.17777" lon="5.28195">
        <ele>1749.1</ele>
        <time>2026-05-14T10:19:07.000Z</time>
      </trkpt>
      <trkpt lat="44.17778" lon="5.28196">
        <ele>1749.4</ele>
        <time>2026-05-14T10:19:08.000Z</time>
      </trkpt>
      <trkpt lat="44.17778" lon="5.28197">
        <ele>1749.2</ele>
        <time>2026-05-14T10:19:09.000Z</time>
      </trkpt>
      <trkpt lat="44.17778" lon="5.28199">
        <ele>1749.2</ele>
        <time>2026-05-14T10:19:10.000Z</time>
      </trkpt>
      <trkpt lat="44.17779" lon="5.28199">
        <ele>1749.5</ele>
        <time>2026-05-14T10:19:11.000Z</time>
      </trkpt>
      <trkpt lat="44.1778" lon="5.282">
        <ele>1749.8</ele>
        <time>2026-05-14T10:19:12.000Z</time>
      </trkpt>
      <trkpt lat="44.17781" lon="5.282">
        <ele>1750.8</ele>
        <time>2026-05-14T10:19:13.000Z</time>
      </trkpt>
      <trkpt lat="44.17781" lon="5.28201">
        <ele>1751.3</ele>
        <time>2026-05-14T10:19:14.000Z</time>
      </trkpt>
      <trkpt lat="44.17781" lon="5.28202">
        <ele>1752</ele>
        <time>2026-05-14T10:19:15.000Z</time>
      </trkpt>
      <trkpt lat="44.17781" lon="5.28202">
        <ele>1752.9</ele>
        <time>2026-05-14T10:19:16.000Z</time>
      </trkpt>
      <trkpt lat="44.17781" lon="5.28203">
        <ele>1753.4</ele>
        <time>2026-05-14T10:19:17.000Z</time>
      </trkpt>
      <trkpt lat="44.17781" lon="5.28204">
        <ele>1753.4</ele>
        <time>2026-05-14T10:19:18.000Z</time>
      </trkpt>
      <trkpt lat="44.17781" lon="5.28205">
        <ele>1752.7</ele>
        <time>2026-05-14T10:19:19.000Z</time>
      </trkpt>
      <trkpt lat="44.17781" lon="5.28205">
        <ele>1752</ele>
        <time>2026-05-14T10:19:20.000Z</time>
      </trkpt>
      <trkpt lat="44.17781" lon="5.28206">
        <ele>1752</ele>
        <time>2026-05-14T10:19:21.000Z</time>
      </trkpt>
      <trkpt lat="44.17781" lon="5.28207">
        <ele>1751.7</ele>
        <time>2026-05-14T10:19:22.000Z</time>
      </trkpt>
      <trkpt lat="44.1778" lon="5.28208">
        <ele>1751.5</ele>
        <time>2026-05-14T10:19:23.000Z</time>
      </trkpt>
      <trkpt lat="44.1778" lon="5.2821">
        <ele>1751.1</ele>
        <time>2026-05-14T10:19:24.000Z</time>
      </trkpt>
      <trkpt lat="44.1778" lon="5.28211">
        <ele>1751</ele>
        <time>2026-05-14T10:19:25.000Z</time>
      </trkpt>
      <trkpt lat="44.1778" lon="5.28213">
        <ele>1750.5</ele>
        <time>2026-05-14T10:19:26.000Z</time>
      </trkpt>
      <trkpt lat="44.17779" lon="5.28214">
        <ele>1750.3</ele>
        <time>2026-05-14T10:19:27.000Z</time>
      </trkpt>
      <trkpt lat="44.17779" lon="5.28215">
        <ele>1750</ele>
        <time>2026-05-14T10:19:28.000Z</time>
      </trkpt>
      <trkpt lat="44.17778" lon="5.28216">
        <ele>1749.4</ele>
        <time>2026-05-14T10:19:29.000Z</time>
      </trkpt>
      <trkpt lat="44.17778" lon="5.28217">
        <ele>1749.7</ele>
        <time>2026-05-14T10:19:30.000Z</time>
      </trkpt>
      <trkpt lat="44.17778" lon="5.28218">
        <ele>1749.9</ele>
        <time>2026-05-14T10:19:31.000Z</time>
      </trkpt>
      <trkpt lat="44.17778" lon="5.28218">
        <ele>1750.1</ele>
        <time>2026-05-14T10:19:32.000Z</time>
      </trkpt>
      <trkpt lat="44.17778" lon="5.2822">
        <ele>1750.1</ele>
        <time>2026-05-14T10:19:33.000Z</time>
      </trkpt>
      <trkpt lat="44.17778" lon="5.28222">
        <ele>1750.1</ele>
        <time>2026-05-14T10:19:34.000Z</time>
      </trkpt>
      <trkpt lat="44.17778" lon="5.28225">
        <ele>1750.3</ele>
        <time>2026-05-14T10:19:35.000Z</time>
      </trkpt>
      <trkpt lat="44.17778" lon="5.28227">
        <ele>1750.4</ele>
        <time>2026-05-14T10:19:36.000Z</time>
      </trkpt>
      <trkpt lat="44.17777" lon="5.28229">
        <ele>1750.7</ele>
        <time>2026-05-14T10:19:37.000Z</time>
      </trkpt>
      <trkpt lat="44.17777" lon="5.2823">
        <ele>1751</ele>
        <time>2026-05-14T10:19:38.000Z</time>
      </trkpt>
      <trkpt lat="44.17777" lon="5.28231">
        <ele>1750.9</ele>
        <time>2026-05-14T10:19:39.000Z</time>
      </trkpt>
      <trkpt lat="44.17776" lon="5.28232">
        <ele>1750.9</ele>
        <time>2026-05-14T10:19:40.000Z</time>
      </trkpt>
      <trkpt lat="44.17776" lon="5.28233">
        <ele>1750.7</ele>
        <time>2026-05-14T10:19:41.000Z</time>
      </trkpt>
      <trkpt lat="44.17776" lon="5.28234">
        <ele>1750.8</ele>
        <time>2026-05-14T10:19:42.000Z</time>
      </trkpt>
      <trkpt lat="44.17776" lon="5.28236">
        <ele>1750.6</ele>
        <time>2026-05-14T10:19:43.000Z</time>
      </trkpt>
      <trkpt lat="44.17776" lon="5.28237">
        <ele>1750.9</ele>
        <time>2026-05-14T10:19:44.000Z</time>
      </trkpt>
      <trkpt lat="44.17776" lon="5.28238">
        <ele>1750.6</ele>
        <time>2026-05-14T10:19:45.000Z</time>
      </trkpt>
      <trkpt lat="44.17776" lon="5.28239">
        <ele>1750.4</ele>
        <time>2026-05-14T10:19:46.000Z</time>
      </trkpt>
      <trkpt lat="44.17775" lon="5.2824">
        <ele>1750.3</ele>
        <time>2026-05-14T10:19:47.000Z</time>
      </trkpt>
      <trkpt lat="44.17775" lon="5.28242">
        <ele>1750.1</ele>
        <time>2026-05-14T10:19:48.000Z</time>
      </trkpt>
      <trkpt lat="44.17774" lon="5.28243">
        <ele>1749.8</ele>
        <time>2026-05-14T10:19:49.000Z</time>
      </trkpt>
      <trkpt lat="44.17774" lon="5.28245">
        <ele>1749.7</ele>
        <time>2026-05-14T10:19:50.000Z</time>
      </trkpt>
      <trkpt lat="44.17774" lon="5.28246">
        <ele>1749.2</ele>
        <time>2026-05-14T10:19:51.000Z</time>
      </trkpt>
      <trkpt lat="44.17774" lon="5.28247">
        <ele>1749.3</ele>
        <time>2026-05-14T10:19:52.000Z</time>
      </trkpt>
      <trkpt lat="44.17773" lon="5.28248">
        <ele>1749.1</ele>
        <time>2026-05-14T10:19:53.000Z</time>
      </trkpt>
      <trkpt lat="44.17773" lon="5.28249">
        <ele>1748.8</ele>
        <time>2026-05-14T10:19:54.000Z</time>
      </trkpt>
      <trkpt lat="44.17773" lon="5.28248">
        <ele>1748.8</ele>
        <time>2026-05-14T10:19:55.000Z</time>
      </trkpt>
      <trkpt lat="44.17773" lon="5.28248">
        <ele>1748.9</ele>
        <time>2026-05-14T10:19:56.000Z</time>
      </trkpt>
      <trkpt lat="44.17773" lon="5.28248">
        <ele>1749.3</ele>
        <time>2026-05-14T10:19:57.000Z</time>
      </trkpt>
      <trkpt lat="44.17773" lon="5.28247">
        <ele>1749.7</ele>
        <time>2026-05-14T10:19:58.000Z</time>
      </trkpt>
      <trkpt lat="44.17773" lon="5.28246">
        <ele>1750</ele>
        <time>2026-05-14T10:19:59.000Z</time>
      </trkpt>
      <trkpt lat="44.17774" lon="5.28245">
        <ele>1750.2</ele>
        <time>2026-05-14T10:20:00.000Z</time>
      </trkpt>
      <trkpt lat="44.17774" lon="5.28244">
        <ele>1750.2</ele>
        <time>2026-05-14T10:20:01.000Z</time>
      </trkpt>
      <trkpt lat="44.17774" lon="5.28243">
        <ele>1750.3</ele>
        <time>2026-05-14T10:20:02.000Z</time>
      </trkpt>
      <trkpt lat="44.17774" lon="5.28243">
        <ele>1750.5</ele>
        <time>2026-05-14T10:20:03.000Z</time>
      </trkpt>
      <trkpt lat="44.17774" lon="5.28242">
        <ele>1750.6</ele>
        <time>2026-05-14T10:20:04.000Z</time>
      </trkpt>
      <trkpt lat="44.17773" lon="5.28242">
        <ele>1750.6</ele>
        <time>2026-05-14T10:20:05.000Z</time>
      </trkpt>
      <trkpt lat="44.17773" lon="5.28241">
        <ele>1750.7</ele>
        <time>2026-05-14T10:20:06.000Z</time>
      </trkpt>
      <trkpt lat="44.17773" lon="5.2824">
        <ele>1750.7</ele>
        <time>2026-05-14T10:20:07.000Z</time>
      </trkpt>
      <trkpt lat="44.17773" lon="5.2824">
        <ele>1750.9</ele>
        <time>2026-05-14T10:20:08.000Z</time>
      </trkpt>
      <trkpt lat="44.17773" lon="5.2824">
        <ele>1750.9</ele>
        <time>2026-05-14T10:20:09.000Z</time>
      </trkpt>
      <trkpt lat="44.17773" lon="5.2824">
        <ele>1751.1</ele>
        <time>2026-05-14T10:20:10.000Z</time>
      </trkpt>
      <trkpt lat="44.17773" lon="5.2824">
        <ele>1751.3</ele>
        <time>2026-05-14T10:20:11.000Z</time>
      </trkpt>
      <trkpt lat="44.17773" lon="5.2824">
        <ele>1751.6</ele>
        <time>2026-05-14T10:20:12.000Z</time>
      </trkpt>
      <trkpt lat="44.17773" lon="5.2824">
        <ele>1751.8</ele>
        <time>2026-05-14T10:20:13.000Z</time>
      </trkpt>
      <trkpt lat="44.17773" lon="5.2824">
        <ele>1752</ele>
        <time>2026-05-14T10:20:14.000Z</time>
      </trkpt>
      <trkpt lat="44.17773" lon="5.2824">
        <ele>1752.2</ele>
        <time>2026-05-14T10:20:15.000Z</time>
      </trkpt>
      <trkpt lat="44.17773" lon="5.2824">
        <ele>1752.3</ele>
        <time>2026-05-14T10:20:16.000Z</time>
      </trkpt>
      <trkpt lat="44.17773" lon="5.2824">
        <ele>1752.6</ele>
        <time>2026-05-14T10:20:17.000Z</time>
      </trkpt>
      <trkpt lat="44.17773" lon="5.28239">
        <ele>1753.1</ele>
        <time>2026-05-14T10:20:18.000Z</time>
      </trkpt>
      <trkpt lat="44.17773" lon="5.28238">
        <ele>1753.3</ele>
        <time>2026-05-14T10:20:19.000Z</time>
      </trkpt>
      <trkpt lat="44.17773" lon="5.28236">
        <ele>1753.5</ele>
        <time>2026-05-14T10:20:20.000Z</time>
      </trkpt>
      <trkpt lat="44.17773" lon="5.28235">
        <ele>1753.7</ele>
        <time>2026-05-14T10:20:21.000Z</time>
      </trkpt>
      <trkpt lat="44.17772" lon="5.28234">
        <ele>1753.9</ele>
        <time>2026-05-14T10:20:22.000Z</time>
      </trkpt>
      <trkpt lat="44.17772" lon="5.28233">
        <ele>1754.1</ele>
        <time>2026-05-14T10:20:23.000Z</time>
      </trkpt>
      <trkpt lat="44.17773" lon="5.28233">
        <ele>1754.2</ele>
        <time>2026-05-14T10:20:24.000Z</time>
      </trkpt>
      <trkpt lat="44.17773" lon="5.28233">
        <ele>1754.1</ele>
        <time>2026-05-14T10:20:25.000Z</time>
      </trkpt>
      <trkpt lat="44.17773" lon="5.28233">
        <ele>1754.1</ele>
        <time>2026-05-14T10:20:26.000Z</time>
      </trkpt>
      <trkpt lat="44.17773" lon="5.28233">
        <ele>1754</ele>
        <time>2026-05-14T10:20:27.000Z</time>
      </trkpt>
      <trkpt lat="44.17773" lon="5.28233">
        <ele>1753.6</ele>
        <time>2026-05-14T10:20:28.000Z</time>
      </trkpt>
      <trkpt lat="44.17773" lon="5.28233">
        <ele>1753.1</ele>
        <time>2026-05-14T10:20:29.000Z</time>
      </trkpt>
      <trkpt lat="44.17773" lon="5.28232">
        <ele>1752.8</ele>
        <time>2026-05-14T10:20:30.000Z</time>
      </trkpt>
      <trkpt lat="44.17773" lon="5.28232">
        <ele>1752.9</ele>
        <time>2026-05-14T10:20:31.000Z</time>
      </trkpt>
      <trkpt lat="44.17773" lon="5.28232">
        <ele>1752.9</ele>
        <time>2026-05-14T10:20:32.000Z</time>
      </trkpt>
      <trkpt lat="44.17773" lon="5.28231">
        <ele>1753</ele>
        <time>2026-05-14T10:20:33.000Z</time>
      </trkpt>
      <trkpt lat="44.17773" lon="5.2823">
        <ele>1753.1</ele>
        <time>2026-05-14T10:20:34.000Z</time>
      </trkpt>
      <trkpt lat="44.17773" lon="5.28229">
        <ele>1753.3</ele>
        <time>2026-05-14T10:20:35.000Z</time>
      </trkpt>
      <trkpt lat="44.17772" lon="5.28229">
        <ele>1753.6</ele>
        <time>2026-05-14T10:20:36.000Z</time>
      </trkpt>
      <trkpt lat="44.17772" lon="5.28229">
        <ele>1753.7</ele>
        <time>2026-05-14T10:20:37.000Z</time>
      </trkpt>
      <trkpt lat="44.17772" lon="5.28228">
        <ele>1753.8</ele>
        <time>2026-05-14T10:20:38.000Z</time>
      </trkpt>
      <trkpt lat="44.17771" lon="5.28228">
        <ele>1754</ele>
        <time>2026-05-14T10:20:39.000Z</time>
      </trkpt>
      <trkpt lat="44.17771" lon="5.28226">
        <ele>1754.1</ele>
        <time>2026-05-14T10:20:40.000Z</time>
      </trkpt>
      <trkpt lat="44.17771" lon="5.28225">
        <ele>1754.7</ele>
        <time>2026-05-14T10:20:41.000Z</time>
      </trkpt>
      <trkpt lat="44.17772" lon="5.28224">
        <ele>1755.1</ele>
        <time>2026-05-14T10:20:42.000Z</time>
      </trkpt>
      <trkpt lat="44.17772" lon="5.28223">
        <ele>1755.6</ele>
        <time>2026-05-14T10:20:43.000Z</time>
      </trkpt>
      <trkpt lat="44.17772" lon="5.28222">
        <ele>1756.1</ele>
        <time>2026-05-14T10:20:44.000Z</time>
      </trkpt>
      <trkpt lat="44.17772" lon="5.28221">
        <ele>1756.5</ele>
        <time>2026-05-14T10:20:45.000Z</time>
      </trkpt>
      <trkpt lat="44.17772" lon="5.2822">
        <ele>1756.7</ele>
        <time>2026-05-14T10:20:46.000Z</time>
      </trkpt>
      <trkpt lat="44.17772" lon="5.28219">
        <ele>1756.9</ele>
        <time>2026-05-14T10:20:47.000Z</time>
      </trkpt>
      <trkpt lat="44.17772" lon="5.28218">
        <ele>1757.1</ele>
        <time>2026-05-14T10:20:48.000Z</time>
      </trkpt>
      <trkpt lat="44.17772" lon="5.28217">
        <ele>1757.2</ele>
        <time>2026-05-14T10:20:49.000Z</time>
      </trkpt>
      <trkpt lat="44.17772" lon="5.28215">
        <ele>1757.2</ele>
        <time>2026-05-14T10:20:50.000Z</time>
      </trkpt>
      <trkpt lat="44.17772" lon="5.28214">
        <ele>1757.3</ele>
        <time>2026-05-14T10:20:51.000Z</time>
      </trkpt>
      <trkpt lat="44.17772" lon="5.28213">
        <ele>1757.6</ele>
        <time>2026-05-14T10:20:52.000Z</time>
      </trkpt>
      <trkpt lat="44.17771" lon="5.28212">
        <ele>1758</ele>
        <time>2026-05-14T10:20:53.000Z</time>
      </trkpt>
      <trkpt lat="44.1777" lon="5.28211">
        <ele>1758.4</ele>
        <time>2026-05-14T10:20:54.000Z</time>
      </trkpt>
      <trkpt lat="44.1777" lon="5.2821">
        <ele>1758.6</ele>
        <time>2026-05-14T10:20:55.000Z</time>
      </trkpt>
      <trkpt lat="44.1777" lon="5.28209">
        <ele>1758.8</ele>
        <time>2026-05-14T10:20:56.000Z</time>
      </trkpt>
      <trkpt lat="44.1777" lon="5.28208">
        <ele>1758.8</ele>
        <time>2026-05-14T10:20:57.000Z</time>
      </trkpt>
      <trkpt lat="44.1777" lon="5.28207">
        <ele>1758.8</ele>
        <time>2026-05-14T10:20:58.000Z</time>
      </trkpt>
      <trkpt lat="44.1777" lon="5.28205">
        <ele>1758.7</ele>
        <time>2026-05-14T10:20:59.000Z</time>
      </trkpt>
      <trkpt lat="44.1777" lon="5.28204">
        <ele>1759.2</ele>
        <time>2026-05-14T10:21:00.000Z</time>
      </trkpt>
      <trkpt lat="44.1777" lon="5.28203">
        <ele>1759.5</ele>
        <time>2026-05-14T10:21:01.000Z</time>
      </trkpt>
      <trkpt lat="44.1777" lon="5.28203">
        <ele>1759.6</ele>
        <time>2026-05-14T10:21:02.000Z</time>
      </trkpt>
      <trkpt lat="44.17769" lon="5.28204">
        <ele>1759.7</ele>
        <time>2026-05-14T10:21:03.000Z</time>
      </trkpt>
      <trkpt lat="44.17769" lon="5.28205">
        <ele>1759.6</ele>
        <time>2026-05-14T10:21:04.000Z</time>
      </trkpt>
      <trkpt lat="44.17769" lon="5.28205">
        <ele>1758.8</ele>
        <time>2026-05-14T10:21:05.000Z</time>
      </trkpt>
      <trkpt lat="44.17769" lon="5.28205">
        <ele>1759.1</ele>
        <time>2026-05-14T10:21:06.000Z</time>
      </trkpt>
      <trkpt lat="44.17769" lon="5.28205">
        <ele>1759.1</ele>
        <time>2026-05-14T10:21:07.000Z</time>
      </trkpt>
      <trkpt lat="44.17769" lon="5.28205">
        <ele>1759.6</ele>
        <time>2026-05-14T10:21:08.000Z</time>
      </trkpt>
      <trkpt lat="44.17769" lon="5.28205">
        <ele>1759.9</ele>
        <time>2026-05-14T10:21:09.000Z</time>
      </trkpt>
      <trkpt lat="44.17769" lon="5.28204">
        <ele>1760.5</ele>
        <time>2026-05-14T10:21:10.000Z</time>
      </trkpt>
      <trkpt lat="44.17769" lon="5.28202">
        <ele>1760.7</ele>
        <time>2026-05-14T10:21:11.000Z</time>
      </trkpt>
      <trkpt lat="44.17769" lon="5.28201">
        <ele>1760.8</ele>
        <time>2026-05-14T10:21:12.000Z</time>
      </trkpt>
      <trkpt lat="44.1777" lon="5.282">
        <ele>1760.9</ele>
        <time>2026-05-14T10:21:13.000Z</time>
      </trkpt>
      <trkpt lat="44.1777" lon="5.28198">
        <ele>1761.2</ele>
        <time>2026-05-14T10:21:14.000Z</time>
      </trkpt>
      <trkpt lat="44.1777" lon="5.28196">
        <ele>1761.4</ele>
        <time>2026-05-14T10:21:15.000Z</time>
      </trkpt>
      <trkpt lat="44.1777" lon="5.28195">
        <ele>1761.7</ele>
        <time>2026-05-14T10:21:16.000Z</time>
      </trkpt>
      <trkpt lat="44.17769" lon="5.28195">
        <ele>1761.7</ele>
        <time>2026-05-14T10:21:17.000Z</time>
      </trkpt>
      <trkpt lat="44.17769" lon="5.28194">
        <ele>1762</ele>
        <time>2026-05-14T10:21:18.000Z</time>
      </trkpt>
      <trkpt lat="44.17769" lon="5.28193">
        <ele>1762.4</ele>
        <time>2026-05-14T10:21:19.000Z</time>
      </trkpt>
      <trkpt lat="44.17768" lon="5.28192">
        <ele>1762.5</ele>
        <time>2026-05-14T10:21:20.000Z</time>
      </trkpt>
      <trkpt lat="44.17768" lon="5.28192">
        <ele>1762.8</ele>
        <time>2026-05-14T10:21:21.000Z</time>
      </trkpt>
      <trkpt lat="44.17768" lon="5.28191">
        <ele>1763</ele>
        <time>2026-05-14T10:21:22.000Z</time>
      </trkpt>
      <trkpt lat="44.17768" lon="5.28191">
        <ele>1763.4</ele>
        <time>2026-05-14T10:21:23.000Z</time>
      </trkpt>
      <trkpt lat="44.17768" lon="5.2819">
        <ele>1761.7</ele>
        <time>2026-05-14T10:21:24.000Z</time>
      </trkpt>
      <trkpt lat="44.17768" lon="5.2819">
        <ele>1761.9</ele>
        <time>2026-05-14T10:21:25.000Z</time>
      </trkpt>
      <trkpt lat="44.17768" lon="5.28191">
        <ele>1762</ele>
        <time>2026-05-14T10:21:26.000Z</time>
      </trkpt>
      <trkpt lat="44.17768" lon="5.28191">
        <ele>1762.3</ele>
        <time>2026-05-14T10:21:27.000Z</time>
      </trkpt>
      <trkpt lat="44.17767" lon="5.28191">
        <ele>1762.5</ele>
        <time>2026-05-14T10:21:28.000Z</time>
      </trkpt>
      <trkpt lat="44.17767" lon="5.28191">
        <ele>1762.9</ele>
        <time>2026-05-14T10:21:29.000Z</time>
      </trkpt>
      <trkpt lat="44.17767" lon="5.28191">
        <ele>1763.1</ele>
        <time>2026-05-14T10:21:30.000Z</time>
      </trkpt>
      <trkpt lat="44.17767" lon="5.28191">
        <ele>1763.4</ele>
        <time>2026-05-14T10:21:31.000Z</time>
      </trkpt>
      <trkpt lat="44.17767" lon="5.28191">
        <ele>1763.9</ele>
        <time>2026-05-14T10:21:32.000Z</time>
      </trkpt>
      <trkpt lat="44.17767" lon="5.2819">
        <ele>1764.6</ele>
        <time>2026-05-14T10:21:33.000Z</time>
      </trkpt>
      <trkpt lat="44.17767" lon="5.2819">
        <ele>1764.6</ele>
        <time>2026-05-14T10:21:34.000Z</time>
      </trkpt>
      <trkpt lat="44.17767" lon="5.28189">
        <ele>1765.1</ele>
        <time>2026-05-14T10:21:35.000Z</time>
      </trkpt>
      <trkpt lat="44.17767" lon="5.28189">
        <ele>1765.2</ele>
        <time>2026-05-14T10:21:36.000Z</time>
      </trkpt>
      <trkpt lat="44.17767" lon="5.28189">
        <ele>1765.6</ele>
        <time>2026-05-14T10:21:37.000Z</time>
      </trkpt>
      <trkpt lat="44.17767" lon="5.28189">
        <ele>1766.4</ele>
        <time>2026-05-14T10:21:38.000Z</time>
      </trkpt>
      <trkpt lat="44.17767" lon="5.28188">
        <ele>1766.3</ele>
        <time>2026-05-14T10:21:39.000Z</time>
      </trkpt>
      <trkpt lat="44.17767" lon="5.28187">
        <ele>1766.3</ele>
        <time>2026-05-14T10:21:40.000Z</time>
      </trkpt>
      <trkpt lat="44.17767" lon="5.28185">
        <ele>1766.4</ele>
        <time>2026-05-14T10:21:41.000Z</time>
      </trkpt>
      <trkpt lat="44.17766" lon="5.28184">
        <ele>1766.4</ele>
        <time>2026-05-14T10:21:42.000Z</time>
      </trkpt>
      <trkpt lat="44.17765" lon="5.28184">
        <ele>1766.5</ele>
        <time>2026-05-14T10:21:43.000Z</time>
      </trkpt>
      <trkpt lat="44.17765" lon="5.28183">
        <ele>1766.8</ele>
        <time>2026-05-14T10:21:44.000Z</time>
      </trkpt>
      <trkpt lat="44.17765" lon="5.28182">
        <ele>1766.5</ele>
        <time>2026-05-14T10:21:45.000Z</time>
      </trkpt>
      <trkpt lat="44.17764" lon="5.28181">
        <ele>1766.7</ele>
        <time>2026-05-14T10:21:46.000Z</time>
      </trkpt>
      <trkpt lat="44.17763" lon="5.28182">
        <ele>1767</ele>
        <time>2026-05-14T10:21:47.000Z</time>
      </trkpt>
      <trkpt lat="44.17763" lon="5.28182">
        <ele>1767.3</ele>
        <time>2026-05-14T10:21:48.000Z</time>
      </trkpt>
      <trkpt lat="44.17762" lon="5.28182">
        <ele>1767.5</ele>
        <time>2026-05-14T10:21:49.000Z</time>
      </trkpt>
      <trkpt lat="44.17762" lon="5.28182">
        <ele>1767.2</ele>
        <time>2026-05-14T10:21:50.000Z</time>
      </trkpt>
      <trkpt lat="44.17763" lon="5.28183">
        <ele>1766.8</ele>
        <time>2026-05-14T10:21:51.000Z</time>
      </trkpt>
      <trkpt lat="44.17763" lon="5.28183">
        <ele>1766.5</ele>
        <time>2026-05-14T10:21:52.000Z</time>
      </trkpt>
      <trkpt lat="44.17762" lon="5.28182">
        <ele>1766.1</ele>
        <time>2026-05-14T10:21:53.000Z</time>
      </trkpt>
      <trkpt lat="44.17762" lon="5.2818">
        <ele>1766</ele>
        <time>2026-05-14T10:21:54.000Z</time>
      </trkpt>
      <trkpt lat="44.17762" lon="5.28178">
        <ele>1766</ele>
        <time>2026-05-14T10:21:55.000Z</time>
      </trkpt>
      <trkpt lat="44.17762" lon="5.28178">
        <ele>1766</ele>
        <time>2026-05-14T10:21:56.000Z</time>
      </trkpt>
      <trkpt lat="44.17762" lon="5.28176">
        <ele>1766</ele>
        <time>2026-05-14T10:21:57.000Z</time>
      </trkpt>
      <trkpt lat="44.17761" lon="5.28174">
        <ele>1765.9</ele>
        <time>2026-05-14T10:21:58.000Z</time>
      </trkpt>
      <trkpt lat="44.1776" lon="5.28172">
        <ele>1766.4</ele>
        <time>2026-05-14T10:21:59.000Z</time>
      </trkpt>
      <trkpt lat="44.1776" lon="5.28171">
        <ele>1765.8</ele>
        <time>2026-05-14T10:22:00.000Z</time>
      </trkpt>
      <trkpt lat="44.1776" lon="5.2817">
        <ele>1766</ele>
        <time>2026-05-14T10:22:01.000Z</time>
      </trkpt>
      <trkpt lat="44.1776" lon="5.28168">
        <ele>1766.2</ele>
        <time>2026-05-14T10:22:02.000Z</time>
      </trkpt>
      <trkpt lat="44.1776" lon="5.28166">
        <ele>1766.8</ele>
        <time>2026-05-14T10:22:03.000Z</time>
      </trkpt>
      <trkpt lat="44.1776" lon="5.28164">
        <ele>1767.2</ele>
        <time>2026-05-14T10:22:04.000Z</time>
      </trkpt>
      <trkpt lat="44.17759" lon="5.28162">
        <ele>1767.7</ele>
        <time>2026-05-14T10:22:05.000Z</time>
      </trkpt>
      <trkpt lat="44.17759" lon="5.28161">
        <ele>1767.7</ele>
        <time>2026-05-14T10:22:06.000Z</time>
      </trkpt>
      <trkpt lat="44.17759" lon="5.2816">
        <ele>1768.2</ele>
        <time>2026-05-14T10:22:07.000Z</time>
      </trkpt>
      <trkpt lat="44.17759" lon="5.28159">
        <ele>1768.4</ele>
        <time>2026-05-14T10:22:08.000Z</time>
      </trkpt>
      <trkpt lat="44.17758" lon="5.28158">
        <ele>1768.6</ele>
        <time>2026-05-14T10:22:09.000Z</time>
      </trkpt>
      <trkpt lat="44.17758" lon="5.28156">
        <ele>1769.1</ele>
        <time>2026-05-14T10:22:10.000Z</time>
      </trkpt>
      <trkpt lat="44.17757" lon="5.28155">
        <ele>1769.5</ele>
        <time>2026-05-14T10:22:11.000Z</time>
      </trkpt>
      <trkpt lat="44.17757" lon="5.28154">
        <ele>1769.7</ele>
        <time>2026-05-14T10:22:12.000Z</time>
      </trkpt>
      <trkpt lat="44.17758" lon="5.28153">
        <ele>1769.7</ele>
        <time>2026-05-14T10:22:13.000Z</time>
      </trkpt>
      <trkpt lat="44.17758" lon="5.28153">
        <ele>1769.9</ele>
        <time>2026-05-14T10:22:14.000Z</time>
      </trkpt>
      <trkpt lat="44.17757" lon="5.28151">
        <ele>1770.1</ele>
        <time>2026-05-14T10:22:15.000Z</time>
      </trkpt>
      <trkpt lat="44.17757" lon="5.2815">
        <ele>1770</ele>
        <time>2026-05-14T10:22:16.000Z</time>
      </trkpt>
      <trkpt lat="44.17757" lon="5.2815">
        <ele>1770.3</ele>
        <time>2026-05-14T10:22:17.000Z</time>
      </trkpt>
      <trkpt lat="44.17758" lon="5.28149">
        <ele>1770.4</ele>
        <time>2026-05-14T10:22:18.000Z</time>
      </trkpt>
      <trkpt lat="44.17757" lon="5.28149">
        <ele>1770.7</ele>
        <time>2026-05-14T10:22:19.000Z</time>
      </trkpt>
      <trkpt lat="44.17757" lon="5.28149">
        <ele>1771.2</ele>
        <time>2026-05-14T10:22:20.000Z</time>
      </trkpt>
      <trkpt lat="44.17757" lon="5.28148">
        <ele>1771</ele>
        <time>2026-05-14T10:22:21.000Z</time>
      </trkpt>
      <trkpt lat="44.17757" lon="5.28147">
        <ele>1771.6</ele>
        <time>2026-05-14T10:22:22.000Z</time>
      </trkpt>
      <trkpt lat="44.17757" lon="5.28147">
        <ele>1771.9</ele>
        <time>2026-05-14T10:22:23.000Z</time>
      </trkpt>
      <trkpt lat="44.17757" lon="5.28147">
        <ele>1772.2</ele>
        <time>2026-05-14T10:22:24.000Z</time>
      </trkpt>
      <trkpt lat="44.17757" lon="5.28147">
        <ele>1772.1</ele>
        <time>2026-05-14T10:22:25.000Z</time>
      </trkpt>
      <trkpt lat="44.17757" lon="5.28147">
        <ele>1772.1</ele>
        <time>2026-05-14T10:22:26.000Z</time>
      </trkpt>
      <trkpt lat="44.17757" lon="5.28147">
        <ele>1772</ele>
        <time>2026-05-14T10:22:27.000Z</time>
      </trkpt>
      <trkpt lat="44.17758" lon="5.28146">
        <ele>1772.2</ele>
        <time>2026-05-14T10:22:28.000Z</time>
      </trkpt>
      <trkpt lat="44.17757" lon="5.28145">
        <ele>1772.3</ele>
        <time>2026-05-14T10:22:29.000Z</time>
      </trkpt>
      <trkpt lat="44.17758" lon="5.28144">
        <ele>1772.7</ele>
        <time>2026-05-14T10:22:30.000Z</time>
      </trkpt>
      <trkpt lat="44.17757" lon="5.28143">
        <ele>1773.1</ele>
        <time>2026-05-14T10:22:31.000Z</time>
      </trkpt>
      <trkpt lat="44.17757" lon="5.28141">
        <ele>1773.1</ele>
        <time>2026-05-14T10:22:32.000Z</time>
      </trkpt>
      <trkpt lat="44.17758" lon="5.28139">
        <ele>1773.3</ele>
        <time>2026-05-14T10:22:33.000Z</time>
      </trkpt>
      <trkpt lat="44.17758" lon="5.28138">
        <ele>1773.2</ele>
        <time>2026-05-14T10:22:34.000Z</time>
      </trkpt>
      <trkpt lat="44.17757" lon="5.28137">
        <ele>1773.3</ele>
        <time>2026-05-14T10:22:35.000Z</time>
      </trkpt>
      <trkpt lat="44.17757" lon="5.28136">
        <ele>1773.4</ele>
        <time>2026-05-14T10:22:36.000Z</time>
      </trkpt>
      <trkpt lat="44.17757" lon="5.28135">
        <ele>1773.5</ele>
        <time>2026-05-14T10:22:37.000Z</time>
      </trkpt>
      <trkpt lat="44.17758" lon="5.28134">
        <ele>1773.6</ele>
        <time>2026-05-14T10:22:38.000Z</time>
      </trkpt>
      <trkpt lat="44.17758" lon="5.28132">
        <ele>1774.1</ele>
        <time>2026-05-14T10:22:39.000Z</time>
      </trkpt>
      <trkpt lat="44.17759" lon="5.28131">
        <ele>1774.3</ele>
        <time>2026-05-14T10:22:40.000Z</time>
      </trkpt>
      <trkpt lat="44.17759" lon="5.28129">
        <ele>1774.6</ele>
        <time>2026-05-14T10:22:41.000Z</time>
      </trkpt>
      <trkpt lat="44.1776" lon="5.28128">
        <ele>1775</ele>
        <time>2026-05-14T10:22:42.000Z</time>
      </trkpt>
      <trkpt lat="44.1776" lon="5.28127">
        <ele>1775.2</ele>
        <time>2026-05-14T10:22:43.000Z</time>
      </trkpt>
      <trkpt lat="44.17761" lon="5.28126">
        <ele>1775.4</ele>
        <time>2026-05-14T10:22:44.000Z</time>
      </trkpt>
      <trkpt lat="44.17761" lon="5.28125">
        <ele>1775.7</ele>
        <time>2026-05-14T10:22:45.000Z</time>
      </trkpt>
      <trkpt lat="44.17762" lon="5.28124">
        <ele>1775.3</ele>
        <time>2026-05-14T10:22:46.000Z</time>
      </trkpt>
      <trkpt lat="44.17763" lon="5.28122">
        <ele>1774.9</ele>
        <time>2026-05-14T10:22:47.000Z</time>
      </trkpt>
      <trkpt lat="44.17763" lon="5.28122">
        <ele>1774.8</ele>
        <time>2026-05-14T10:22:48.000Z</time>
      </trkpt>
      <trkpt lat="44.17764" lon="5.28121">
        <ele>1774.8</ele>
        <time>2026-05-14T10:22:49.000Z</time>
      </trkpt>
      <trkpt lat="44.17764" lon="5.28122">
        <ele>1775</ele>
        <time>2026-05-14T10:22:50.000Z</time>
      </trkpt>
      <trkpt lat="44.17764" lon="5.28121">
        <ele>1775</ele>
        <time>2026-05-14T10:22:51.000Z</time>
      </trkpt>
      <trkpt lat="44.17763" lon="5.28121">
        <ele>1774.7</ele>
        <time>2026-05-14T10:22:52.000Z</time>
      </trkpt>
      <trkpt lat="44.17762" lon="5.28121">
        <ele>1774.4</ele>
        <time>2026-05-14T10:22:53.000Z</time>
      </trkpt>
      <trkpt lat="44.17762" lon="5.28121">
        <ele>1773.9</ele>
        <time>2026-05-14T10:22:54.000Z</time>
      </trkpt>
      <trkpt lat="44.17762" lon="5.28121">
        <ele>1773.3</ele>
        <time>2026-05-14T10:22:55.000Z</time>
      </trkpt>
      <trkpt lat="44.17762" lon="5.28122">
        <ele>1773.3</ele>
        <time>2026-05-14T10:22:56.000Z</time>
      </trkpt>
      <trkpt lat="44.17762" lon="5.28121">
        <ele>1772.8</ele>
        <time>2026-05-14T10:22:57.000Z</time>
      </trkpt>
      <trkpt lat="44.17762" lon="5.28122">
        <ele>1772.3</ele>
        <time>2026-05-14T10:22:58.000Z</time>
      </trkpt>
      <trkpt lat="44.17762" lon="5.28122">
        <ele>1771.7</ele>
        <time>2026-05-14T10:22:59.000Z</time>
      </trkpt>
      <trkpt lat="44.17762" lon="5.28122">
        <ele>1771.4</ele>
        <time>2026-05-14T10:23:00.000Z</time>
      </trkpt>
      <trkpt lat="44.17762" lon="5.28122">
        <ele>1771.1</ele>
        <time>2026-05-14T10:23:01.000Z</time>
      </trkpt>
      <trkpt lat="44.17762" lon="5.28122">
        <ele>1771</ele>
        <time>2026-05-14T10:23:02.000Z</time>
      </trkpt>
      <trkpt lat="44.17762" lon="5.28122">
        <ele>1770.9</ele>
        <time>2026-05-14T10:23:03.000Z</time>
      </trkpt>
      <trkpt lat="44.17762" lon="5.28122">
        <ele>1770.8</ele>
        <time>2026-05-14T10:23:04.000Z</time>
      </trkpt>
      <trkpt lat="44.17762" lon="5.28122">
        <ele>1771</ele>
        <time>2026-05-14T10:23:05.000Z</time>
      </trkpt>
      <trkpt lat="44.17762" lon="5.28122">
        <ele>1771</ele>
        <time>2026-05-14T10:23:06.000Z</time>
      </trkpt>
      <trkpt lat="44.17762" lon="5.28122">
        <ele>1770.8</ele>
        <time>2026-05-14T10:23:07.000Z</time>
      </trkpt>
      <trkpt lat="44.17761" lon="5.28122">
        <ele>1770.4</ele>
        <time>2026-05-14T10:23:08.000Z</time>
      </trkpt>
      <trkpt lat="44.17761" lon="5.28122">
        <ele>1770</ele>
        <time>2026-05-14T10:23:09.000Z</time>
      </trkpt>
      <trkpt lat="44.17761" lon="5.28122">
        <ele>1769.7</ele>
        <time>2026-05-14T10:23:10.000Z</time>
      </trkpt>
      <trkpt lat="44.17762" lon="5.28122">
        <ele>1769.6</ele>
        <time>2026-05-14T10:23:11.000Z</time>
      </trkpt>
      <trkpt lat="44.17762" lon="5.28122">
        <ele>1769.4</ele>
        <time>2026-05-14T10:23:12.000Z</time>
      </trkpt>
      <trkpt lat="44.17762" lon="5.28122">
        <ele>1769.2</ele>
        <time>2026-05-14T10:23:13.000Z</time>
      </trkpt>
      <trkpt lat="44.17762" lon="5.28122">
        <ele>1768.8</ele>
        <time>2026-05-14T10:23:14.000Z</time>
      </trkpt>
      <trkpt lat="44.17762" lon="5.28122">
        <ele>1768.6</ele>
        <time>2026-05-14T10:23:15.000Z</time>
      </trkpt>
      <trkpt lat="44.17762" lon="5.28122">
        <ele>1768.3</ele>
        <time>2026-05-14T10:23:16.000Z</time>
      </trkpt>
      <trkpt lat="44.17762" lon="5.28122">
        <ele>1768.2</ele>
        <time>2026-05-14T10:23:17.000Z</time>
      </trkpt>
      <trkpt lat="44.17762" lon="5.28122">
        <ele>1768.2</ele>
        <time>2026-05-14T10:23:18.000Z</time>
      </trkpt>
      <trkpt lat="44.17762" lon="5.28122">
        <ele>1768.3</ele>
        <time>2026-05-14T10:23:19.000Z</time>
      </trkpt>
      <trkpt lat="44.17762" lon="5.28122">
        <ele>1768.1</ele>
        <time>2026-05-14T10:23:20.000Z</time>
      </trkpt>
      <trkpt lat="44.17762" lon="5.28122">
        <ele>1768</ele>
        <time>2026-05-14T10:23:21.000Z</time>
      </trkpt>
      <trkpt lat="44.17762" lon="5.28122">
        <ele>1767.9</ele>
        <time>2026-05-14T10:23:22.000Z</time>
      </trkpt>
      <trkpt lat="44.17762" lon="5.28122">
        <ele>1767.9</ele>
        <time>2026-05-14T10:23:23.000Z</time>
      </trkpt>
      <trkpt lat="44.17762" lon="5.28122">
        <ele>1768.1</ele>
        <time>2026-05-14T10:23:24.000Z</time>
      </trkpt>
      <trkpt lat="44.17762" lon="5.28122">
        <ele>1768.2</ele>
        <time>2026-05-14T10:23:25.000Z</time>
      </trkpt>
      <trkpt lat="44.17762" lon="5.28122">
        <ele>1768.4</ele>
        <time>2026-05-14T10:23:26.000Z</time>
      </trkpt>
      <trkpt lat="44.17762" lon="5.28122">
        <ele>1768.7</ele>
        <time>2026-05-14T10:23:27.000Z</time>
      </trkpt>
      <trkpt lat="44.17762" lon="5.28122">
        <ele>1768.8</ele>
        <time>2026-05-14T10:23:28.000Z</time>
      </trkpt>
      <trkpt lat="44.17762" lon="5.28122">
        <ele>1769</ele>
        <time>2026-05-14T10:23:29.000Z</time>
      </trkpt>
      <trkpt lat="44.17762" lon="5.28122">
        <ele>1769.1</ele>
        <time>2026-05-14T10:23:30.000Z</time>
      </trkpt>
      <trkpt lat="44.17762" lon="5.28122">
        <ele>1769.3</ele>
        <time>2026-05-14T10:23:31.000Z</time>
      </trkpt>
      <trkpt lat="44.17762" lon="5.28122">
        <ele>1769.4</ele>
        <time>2026-05-14T10:23:32.000Z</time>
      </trkpt>
      <trkpt lat="44.17763" lon="5.2812">
        <ele>1769.6</ele>
        <time>2026-05-14T10:23:33.000Z</time>
      </trkpt>
      <trkpt lat="44.17763" lon="5.28118">
        <ele>1769.6</ele>
        <time>2026-05-14T10:23:34.000Z</time>
      </trkpt>
      <trkpt lat="44.17763" lon="5.28116">
        <ele>1769.5</ele>
        <time>2026-05-14T10:23:35.000Z</time>
      </trkpt>
      <trkpt lat="44.17764" lon="5.28111">
        <ele>1770.2</ele>
        <time>2026-05-14T10:23:37.000Z</time>
      </trkpt>
      <trkpt lat="44.17764" lon="5.28109">
        <ele>1770.6</ele>
        <time>2026-05-14T10:23:38.000Z</time>
      </trkpt>
      <trkpt lat="44.17764" lon="5.28109">
        <ele>1770.8</ele>
        <time>2026-05-14T10:23:39.000Z</time>
      </trkpt>
      <trkpt lat="44.17764" lon="5.28108">
        <ele>1770.2</ele>
        <time>2026-05-14T10:23:40.000Z</time>
      </trkpt>
      <trkpt lat="44.17764" lon="5.28106">
        <ele>1770.4</ele>
        <time>2026-05-14T10:23:41.000Z</time>
      </trkpt>
      <trkpt lat="44.17764" lon="5.28103">
        <ele>1770.5</ele>
        <time>2026-05-14T10:23:42.000Z</time>
      </trkpt>
      <trkpt lat="44.17764" lon="5.28101">
        <ele>1770.8</ele>
        <time>2026-05-14T10:23:43.000Z</time>
      </trkpt>
      <trkpt lat="44.17764" lon="5.28099">
        <ele>1771</ele>
        <time>2026-05-14T10:23:44.000Z</time>
      </trkpt>
      <trkpt lat="44.17763" lon="5.28098">
        <ele>1771.5</ele>
        <time>2026-05-14T10:23:45.000Z</time>
      </trkpt>
      <trkpt lat="44.17763" lon="5.28097">
        <ele>1771.7</ele>
        <time>2026-05-14T10:23:46.000Z</time>
      </trkpt>
      <trkpt lat="44.17764" lon="5.28096">
        <ele>1771.9</ele>
        <time>2026-05-14T10:23:47.000Z</time>
      </trkpt>
      <trkpt lat="44.17764" lon="5.28095">
        <ele>1772.1</ele>
        <time>2026-05-14T10:23:48.000Z</time>
      </trkpt>
      <trkpt lat="44.17764" lon="5.28093">
        <ele>1772.9</ele>
        <time>2026-05-14T10:23:49.000Z</time>
      </trkpt>
      <trkpt lat="44.17764" lon="5.28093">
        <ele>1773.1</ele>
        <time>2026-05-14T10:23:50.000Z</time>
      </trkpt>
      <trkpt lat="44.17763" lon="5.28092">
        <ele>1773.3</ele>
        <time>2026-05-14T10:23:51.000Z</time>
      </trkpt>
      <trkpt lat="44.17763" lon="5.28091">
        <ele>1773.3</ele>
        <time>2026-05-14T10:23:52.000Z</time>
      </trkpt>
      <trkpt lat="44.17763" lon="5.28091">
        <ele>1773.4</ele>
        <time>2026-05-14T10:23:53.000Z</time>
      </trkpt>
      <trkpt lat="44.17763" lon="5.2809">
        <ele>1773.7</ele>
        <time>2026-05-14T10:23:54.000Z</time>
      </trkpt>
      <trkpt lat="44.17762" lon="5.28088">
        <ele>1773.8</ele>
        <time>2026-05-14T10:23:55.000Z</time>
      </trkpt>
      <trkpt lat="44.17762" lon="5.28088">
        <ele>1773.9</ele>
        <time>2026-05-14T10:23:56.000Z</time>
      </trkpt>
      <trkpt lat="44.17762" lon="5.28087">
        <ele>1774</ele>
        <time>2026-05-14T10:23:57.000Z</time>
      </trkpt>
      <trkpt lat="44.17762" lon="5.28086">
        <ele>1773.5</ele>
        <time>2026-05-14T10:23:58.000Z</time>
      </trkpt>
      <trkpt lat="44.17761" lon="5.28084">
        <ele>1773.5</ele>
        <time>2026-05-14T10:23:59.000Z</time>
      </trkpt>
      <trkpt lat="44.17761" lon="5.28082">
        <ele>1773.6</ele>
        <time>2026-05-14T10:24:00.000Z</time>
      </trkpt>
      <trkpt lat="44.17759" lon="5.2808">
        <ele>1774.5</ele>
        <time>2026-05-14T10:24:01.000Z</time>
      </trkpt>
      <trkpt lat="44.17758" lon="5.2808">
        <ele>1774.8</ele>
        <time>2026-05-14T10:24:02.000Z</time>
      </trkpt>
      <trkpt lat="44.17757" lon="5.28079">
        <ele>1775.2</ele>
        <time>2026-05-14T10:24:03.000Z</time>
      </trkpt>
      <trkpt lat="44.17756" lon="5.28077">
        <ele>1775.6</ele>
        <time>2026-05-14T10:24:04.000Z</time>
      </trkpt>
      <trkpt lat="44.17756" lon="5.28077">
        <ele>1775.6</ele>
        <time>2026-05-14T10:24:05.000Z</time>
      </trkpt>
      <trkpt lat="44.17756" lon="5.28075">
        <ele>1775.9</ele>
        <time>2026-05-14T10:24:06.000Z</time>
      </trkpt>
      <trkpt lat="44.17756" lon="5.28075">
        <ele>1776</ele>
        <time>2026-05-14T10:24:07.000Z</time>
      </trkpt>
      <trkpt lat="44.17756" lon="5.28074">
        <ele>1775.9</ele>
        <time>2026-05-14T10:24:08.000Z</time>
      </trkpt>
      <trkpt lat="44.17757" lon="5.28073">
        <ele>1775.6</ele>
        <time>2026-05-14T10:24:09.000Z</time>
      </trkpt>
      <trkpt lat="44.17758" lon="5.28073">
        <ele>1775.9</ele>
        <time>2026-05-14T10:24:10.000Z</time>
      </trkpt>
      <trkpt lat="44.17758" lon="5.28073">
        <ele>1776.3</ele>
        <time>2026-05-14T10:24:11.000Z</time>
      </trkpt>
      <trkpt lat="44.17758" lon="5.28073">
        <ele>1776.5</ele>
        <time>2026-05-14T10:24:12.000Z</time>
      </trkpt>
      <trkpt lat="44.17758" lon="5.28072">
        <ele>1776.7</ele>
        <time>2026-05-14T10:24:13.000Z</time>
      </trkpt>
      <trkpt lat="44.17758" lon="5.28071">
        <ele>1776.6</ele>
        <time>2026-05-14T10:24:14.000Z</time>
      </trkpt>
      <trkpt lat="44.17759" lon="5.28069">
        <ele>1776.5</ele>
        <time>2026-05-14T10:24:15.000Z</time>
      </trkpt>
      <trkpt lat="44.17759" lon="5.28068">
        <ele>1776.8</ele>
        <time>2026-05-14T10:24:16.000Z</time>
      </trkpt>
      <trkpt lat="44.17759" lon="5.28066">
        <ele>1776.8</ele>
        <time>2026-05-14T10:24:17.000Z</time>
      </trkpt>
      <trkpt lat="44.17759" lon="5.28065">
        <ele>1776.7</ele>
        <time>2026-05-14T10:24:18.000Z</time>
      </trkpt>
      <trkpt lat="44.17758" lon="5.28063">
        <ele>1776.6</ele>
        <time>2026-05-14T10:24:19.000Z</time>
      </trkpt>
      <trkpt lat="44.17758" lon="5.28061">
        <ele>1776.7</ele>
        <time>2026-05-14T10:24:20.000Z</time>
      </trkpt>
      <trkpt lat="44.17758" lon="5.2806">
        <ele>1776.8</ele>
        <time>2026-05-14T10:24:21.000Z</time>
      </trkpt>
      <trkpt lat="44.17757" lon="5.2806">
        <ele>1776.6</ele>
        <time>2026-05-14T10:24:22.000Z</time>
      </trkpt>
      <trkpt lat="44.17757" lon="5.28061">
        <ele>1776.3</ele>
        <time>2026-05-14T10:24:23.000Z</time>
      </trkpt>
      <trkpt lat="44.17757" lon="5.28061">
        <ele>1775.9</ele>
        <time>2026-05-14T10:24:24.000Z</time>
      </trkpt>
      <trkpt lat="44.17756" lon="5.28062">
        <ele>1775.7</ele>
        <time>2026-05-14T10:24:25.000Z</time>
      </trkpt>
      <trkpt lat="44.17756" lon="5.28062">
        <ele>1775.6</ele>
        <time>2026-05-14T10:24:26.000Z</time>
      </trkpt>
      <trkpt lat="44.17756" lon="5.28064">
        <ele>1775.3</ele>
        <time>2026-05-14T10:24:27.000Z</time>
      </trkpt>
      <trkpt lat="44.17756" lon="5.28064">
        <ele>1774.9</ele>
        <time>2026-05-14T10:24:28.000Z</time>
      </trkpt>
      <trkpt lat="44.17755" lon="5.28065">
        <ele>1774.8</ele>
        <time>2026-05-14T10:24:29.000Z</time>
      </trkpt>
      <trkpt lat="44.17754" lon="5.28066">
        <ele>1774.5</ele>
        <time>2026-05-14T10:24:30.000Z</time>
      </trkpt>
      <trkpt lat="44.17754" lon="5.28067">
        <ele>1774.4</ele>
        <time>2026-05-14T10:24:31.000Z</time>
      </trkpt>
      <trkpt lat="44.17754" lon="5.28069">
        <ele>1774.2</ele>
        <time>2026-05-14T10:24:32.000Z</time>
      </trkpt>
      <trkpt lat="44.17754" lon="5.2807">
        <ele>1774.3</ele>
        <time>2026-05-14T10:24:33.000Z</time>
      </trkpt>
      <trkpt lat="44.17754" lon="5.28071">
        <ele>1774.3</ele>
        <time>2026-05-14T10:24:34.000Z</time>
      </trkpt>
      <trkpt lat="44.17754" lon="5.28072">
        <ele>1774.2</ele>
        <time>2026-05-14T10:24:35.000Z</time>
      </trkpt>
      <trkpt lat="44.17754" lon="5.28074">
        <ele>1774.1</ele>
        <time>2026-05-14T10:24:36.000Z</time>
      </trkpt>
      <trkpt lat="44.17754" lon="5.28075">
        <ele>1774.3</ele>
        <time>2026-05-14T10:24:37.000Z</time>
      </trkpt>
      <trkpt lat="44.17753" lon="5.28076">
        <ele>1774.3</ele>
        <time>2026-05-14T10:24:38.000Z</time>
      </trkpt>
      <trkpt lat="44.17753" lon="5.28078">
        <ele>1774.6</ele>
        <time>2026-05-14T10:24:39.000Z</time>
      </trkpt>
      <trkpt lat="44.17753" lon="5.28079">
        <ele>1774.8</ele>
        <time>2026-05-14T10:24:40.000Z</time>
      </trkpt>
      <trkpt lat="44.17752" lon="5.2808">
        <ele>1775.2</ele>
        <time>2026-05-14T10:24:41.000Z</time>
      </trkpt>
      <trkpt lat="44.17752" lon="5.28081">
        <ele>1775</ele>
        <time>2026-05-14T10:24:42.000Z</time>
      </trkpt>
      <trkpt lat="44.17751" lon="5.28082">
        <ele>1774.5</ele>
        <time>2026-05-14T10:24:43.000Z</time>
      </trkpt>
      <trkpt lat="44.1775" lon="5.28083">
        <ele>1773.9</ele>
        <time>2026-05-14T10:24:44.000Z</time>
      </trkpt>
      <trkpt lat="44.1775" lon="5.28084">
        <ele>1773.7</ele>
        <time>2026-05-14T10:24:45.000Z</time>
      </trkpt>
      <trkpt lat="44.1775" lon="5.28085">
        <ele>1773.5</ele>
        <time>2026-05-14T10:24:46.000Z</time>
      </trkpt>
      <trkpt lat="44.17749" lon="5.28087">
        <ele>1773.6</ele>
        <time>2026-05-14T10:24:47.000Z</time>
      </trkpt>
      <trkpt lat="44.17749" lon="5.28087">
        <ele>1774.5</ele>
        <time>2026-05-14T10:24:48.000Z</time>
      </trkpt>
      <trkpt lat="44.17749" lon="5.28087">
        <ele>1775.3</ele>
        <time>2026-05-14T10:24:49.000Z</time>
      </trkpt>
      <trkpt lat="44.17749" lon="5.28087">
        <ele>1774.9</ele>
        <time>2026-05-14T10:24:50.000Z</time>
      </trkpt>
      <trkpt lat="44.17748" lon="5.28088">
        <ele>1775</ele>
        <time>2026-05-14T10:24:51.000Z</time>
      </trkpt>
      <trkpt lat="44.17748" lon="5.28089">
        <ele>1775.2</ele>
        <time>2026-05-14T10:24:52.000Z</time>
      </trkpt>
      <trkpt lat="44.17749" lon="5.28089">
        <ele>1775</ele>
        <time>2026-05-14T10:24:53.000Z</time>
      </trkpt>
      <trkpt lat="44.17749" lon="5.28089">
        <ele>1775</ele>
        <time>2026-05-14T10:24:54.000Z</time>
      </trkpt>
      <trkpt lat="44.17749" lon="5.28089">
        <ele>1774.8</ele>
        <time>2026-05-14T10:24:55.000Z</time>
      </trkpt>
      <trkpt lat="44.17749" lon="5.28089">
        <ele>1775.1</ele>
        <time>2026-05-14T10:24:56.000Z</time>
      </trkpt>
      <trkpt lat="44.17749" lon="5.28089">
        <ele>1775</ele>
        <time>2026-05-14T10:24:57.000Z</time>
      </trkpt>
      <trkpt lat="44.17749" lon="5.28089">
        <ele>1774.6</ele>
        <time>2026-05-14T10:24:58.000Z</time>
      </trkpt>
      <trkpt lat="44.17749" lon="5.28089">
        <ele>1774</ele>
        <time>2026-05-14T10:24:59.000Z</time>
      </trkpt>
      <trkpt lat="44.17749" lon="5.28089">
        <ele>1774.1</ele>
        <time>2026-05-14T10:25:00.000Z</time>
      </trkpt>
      <trkpt lat="44.17749" lon="5.28089">
        <ele>1774.1</ele>
        <time>2026-05-14T10:25:01.000Z</time>
      </trkpt>
      <trkpt lat="44.17749" lon="5.28089">
        <ele>1774.1</ele>
        <time>2026-05-14T10:25:02.000Z</time>
      </trkpt>
      <trkpt lat="44.17749" lon="5.28089">
        <ele>1775</ele>
        <time>2026-05-14T10:25:03.000Z</time>
      </trkpt>
      <trkpt lat="44.17749" lon="5.28089">
        <ele>1775.7</ele>
        <time>2026-05-14T10:25:04.000Z</time>
      </trkpt>
      <trkpt lat="44.17749" lon="5.28089">
        <ele>1776</ele>
        <time>2026-05-14T10:25:05.000Z</time>
      </trkpt>
      <trkpt lat="44.17749" lon="5.28089">
        <ele>1776.3</ele>
        <time>2026-05-14T10:25:06.000Z</time>
      </trkpt>
      <trkpt lat="44.17749" lon="5.28089">
        <ele>1776.9</ele>
        <time>2026-05-14T10:25:07.000Z</time>
      </trkpt>
      <trkpt lat="44.17749" lon="5.28089">
        <ele>1777.2</ele>
        <time>2026-05-14T10:25:08.000Z</time>
      </trkpt>
      <trkpt lat="44.17748" lon="5.2809">
        <ele>1777.7</ele>
        <time>2026-05-14T10:25:09.000Z</time>
      </trkpt>
      <trkpt lat="44.17748" lon="5.28091">
        <ele>1777.7</ele>
        <time>2026-05-14T10:25:10.000Z</time>
      </trkpt>
      <trkpt lat="44.17748" lon="5.28092">
        <ele>1777.7</ele>
        <time>2026-05-14T10:25:11.000Z</time>
      </trkpt>
      <trkpt lat="44.17748" lon="5.28093">
        <ele>1777.6</ele>
        <time>2026-05-14T10:25:12.000Z</time>
      </trkpt>
      <trkpt lat="44.17748" lon="5.28093">
        <ele>1777.2</ele>
        <time>2026-05-14T10:25:13.000Z</time>
      </trkpt>
      <trkpt lat="44.17748" lon="5.28093">
        <ele>1777</ele>
        <time>2026-05-14T10:25:14.000Z</time>
      </trkpt>
      <trkpt lat="44.17748" lon="5.28093">
        <ele>1776.8</ele>
        <time>2026-05-14T10:25:15.000Z</time>
      </trkpt>
      <trkpt lat="44.17748" lon="5.28094">
        <ele>1776.7</ele>
        <time>2026-05-14T10:25:16.000Z</time>
      </trkpt>
      <trkpt lat="44.17747" lon="5.28094">
        <ele>1776.7</ele>
        <time>2026-05-14T10:25:17.000Z</time>
      </trkpt>
      <trkpt lat="44.17747" lon="5.28094">
        <ele>1777</ele>
        <time>2026-05-14T10:25:18.000Z</time>
      </trkpt>
      <trkpt lat="44.17747" lon="5.28096">
        <ele>1777.5</ele>
        <time>2026-05-14T10:25:19.000Z</time>
      </trkpt>
      <trkpt lat="44.17746" lon="5.28097">
        <ele>1777.7</ele>
        <time>2026-05-14T10:25:20.000Z</time>
      </trkpt>
      <trkpt lat="44.17746" lon="5.28099">
        <ele>1778</ele>
        <time>2026-05-14T10:25:21.000Z</time>
      </trkpt>
      <trkpt lat="44.17745" lon="5.28101">
        <ele>1778.2</ele>
        <time>2026-05-14T10:25:22.000Z</time>
      </trkpt>
      <trkpt lat="44.17745" lon="5.28103">
        <ele>1778.4</ele>
        <time>2026-05-14T10:25:23.000Z</time>
      </trkpt>
      <trkpt lat="44.17744" lon="5.28104">
        <ele>1778.2</ele>
        <time>2026-05-14T10:25:24.000Z</time>
      </trkpt>
      <trkpt lat="44.17743" lon="5.28107">
        <ele>1778.2</ele>
        <time>2026-05-14T10:25:25.000Z</time>
      </trkpt>
      <trkpt lat="44.17743" lon="5.28108">
        <ele>1778.5</ele>
        <time>2026-05-14T10:25:26.000Z</time>
      </trkpt>
      <trkpt lat="44.17743" lon="5.28109">
        <ele>1778.5</ele>
        <time>2026-05-14T10:25:27.000Z</time>
      </trkpt>
      <trkpt lat="44.17743" lon="5.2811">
        <ele>1778.4</ele>
        <time>2026-05-14T10:25:28.000Z</time>
      </trkpt>
      <trkpt lat="44.17743" lon="5.28111">
        <ele>1778.2</ele>
        <time>2026-05-14T10:25:29.000Z</time>
      </trkpt>
      <trkpt lat="44.17743" lon="5.28112">
        <ele>1777.8</ele>
        <time>2026-05-14T10:25:30.000Z</time>
      </trkpt>
      <trkpt lat="44.17742" lon="5.28114">
        <ele>1778.1</ele>
        <time>2026-05-14T10:25:31.000Z</time>
      </trkpt>
      <trkpt lat="44.17741" lon="5.28116">
        <ele>1777.7</ele>
        <time>2026-05-14T10:25:32.000Z</time>
      </trkpt>
      <trkpt lat="44.17741" lon="5.28117">
        <ele>1777.3</ele>
        <time>2026-05-14T10:25:33.000Z</time>
      </trkpt>
      <trkpt lat="44.1774" lon="5.28117">
        <ele>1776.4</ele>
        <time>2026-05-14T10:25:34.000Z</time>
      </trkpt>
      <trkpt lat="44.1774" lon="5.28118">
        <ele>1775.9</ele>
        <time>2026-05-14T10:25:35.000Z</time>
      </trkpt>
      <trkpt lat="44.17739" lon="5.28119">
        <ele>1776.1</ele>
        <time>2026-05-14T10:25:36.000Z</time>
      </trkpt>
      <trkpt lat="44.17738" lon="5.2812">
        <ele>1776.5</ele>
        <time>2026-05-14T10:25:37.000Z</time>
      </trkpt>
      <trkpt lat="44.17737" lon="5.28121">
        <ele>1776.8</ele>
        <time>2026-05-14T10:25:38.000Z</time>
      </trkpt>
      <trkpt lat="44.17737" lon="5.28122">
        <ele>1777</ele>
        <time>2026-05-14T10:25:39.000Z</time>
      </trkpt>
      <trkpt lat="44.17736" lon="5.28122">
        <ele>1776.5</ele>
        <time>2026-05-14T10:25:40.000Z</time>
      </trkpt>
      <trkpt lat="44.17735" lon="5.28123">
        <ele>1776.2</ele>
        <time>2026-05-14T10:25:41.000Z</time>
      </trkpt>
      <trkpt lat="44.17735" lon="5.28124">
        <ele>1776.1</ele>
        <time>2026-05-14T10:25:42.000Z</time>
      </trkpt>
      <trkpt lat="44.17735" lon="5.28125">
        <ele>1775.7</ele>
        <time>2026-05-14T10:25:43.000Z</time>
      </trkpt>
      <trkpt lat="44.17734" lon="5.28126">
        <ele>1775.3</ele>
        <time>2026-05-14T10:25:44.000Z</time>
      </trkpt>
      <trkpt lat="44.17734" lon="5.28128">
        <ele>1774.9</ele>
        <time>2026-05-14T10:25:45.000Z</time>
      </trkpt>
      <trkpt lat="44.17733" lon="5.28129">
        <ele>1774.8</ele>
        <time>2026-05-14T10:25:46.000Z</time>
      </trkpt>
      <trkpt lat="44.17733" lon="5.2813">
        <ele>1774.3</ele>
        <time>2026-05-14T10:25:47.000Z</time>
      </trkpt>
      <trkpt lat="44.17733" lon="5.28131">
        <ele>1773.9</ele>
        <time>2026-05-14T10:25:48.000Z</time>
      </trkpt>
      <trkpt lat="44.17733" lon="5.28133">
        <ele>1774.2</ele>
        <time>2026-05-14T10:25:49.000Z</time>
      </trkpt>
      <trkpt lat="44.17733" lon="5.28134">
        <ele>1774</ele>
        <time>2026-05-14T10:25:50.000Z</time>
      </trkpt>
      <trkpt lat="44.17733" lon="5.28135">
        <ele>1774.6</ele>
        <time>2026-05-14T10:25:51.000Z</time>
      </trkpt>
      <trkpt lat="44.17733" lon="5.28137">
        <ele>1775.3</ele>
        <time>2026-05-14T10:25:52.000Z</time>
      </trkpt>
      <trkpt lat="44.17732" lon="5.28138">
        <ele>1774.8</ele>
        <time>2026-05-14T10:25:53.000Z</time>
      </trkpt>
      <trkpt lat="44.17732" lon="5.2814">
        <ele>1775.1</ele>
        <time>2026-05-14T10:25:54.000Z</time>
      </trkpt>
      <trkpt lat="44.17732" lon="5.28141">
        <ele>1774.7</ele>
        <time>2026-05-14T10:25:55.000Z</time>
      </trkpt>
      <trkpt lat="44.17732" lon="5.28141">
        <ele>1774.5</ele>
        <time>2026-05-14T10:25:56.000Z</time>
      </trkpt>
      <trkpt lat="44.17732" lon="5.28141">
        <ele>1774.3</ele>
        <time>2026-05-14T10:25:57.000Z</time>
      </trkpt>
      <trkpt lat="44.17732" lon="5.28141">
        <ele>1774.3</ele>
        <time>2026-05-14T10:25:58.000Z</time>
      </trkpt>
      <trkpt lat="44.17731" lon="5.28142">
        <ele>1773.8</ele>
        <time>2026-05-14T10:25:59.000Z</time>
      </trkpt>
      <trkpt lat="44.17731" lon="5.28143">
        <ele>1773.4</ele>
        <time>2026-05-14T10:26:00.000Z</time>
      </trkpt>
      <trkpt lat="44.1773" lon="5.28144">
        <ele>1773.2</ele>
        <time>2026-05-14T10:26:01.000Z</time>
      </trkpt>
      <trkpt lat="44.1773" lon="5.28146">
        <ele>1773.3</ele>
        <time>2026-05-14T10:26:02.000Z</time>
      </trkpt>
      <trkpt lat="44.1773" lon="5.28147">
        <ele>1773.1</ele>
        <time>2026-05-14T10:26:03.000Z</time>
      </trkpt>
      <trkpt lat="44.17729" lon="5.28149">
        <ele>1773.6</ele>
        <time>2026-05-14T10:26:04.000Z</time>
      </trkpt>
      <trkpt lat="44.17729" lon="5.2815">
        <ele>1774</ele>
        <time>2026-05-14T10:26:05.000Z</time>
      </trkpt>
      <trkpt lat="44.17729" lon="5.28152">
        <ele>1774.2</ele>
        <time>2026-05-14T10:26:06.000Z</time>
      </trkpt>
      <trkpt lat="44.17728" lon="5.28153">
        <ele>1774.3</ele>
        <time>2026-05-14T10:26:07.000Z</time>
      </trkpt>
      <trkpt lat="44.17728" lon="5.28155">
        <ele>1774.3</ele>
        <time>2026-05-14T10:26:08.000Z</time>
      </trkpt>
      <trkpt lat="44.17727" lon="5.28156">
        <ele>1774.1</ele>
        <time>2026-05-14T10:26:09.000Z</time>
      </trkpt>
      <trkpt lat="44.17727" lon="5.28158">
        <ele>1774</ele>
        <time>2026-05-14T10:26:10.000Z</time>
      </trkpt>
      <trkpt lat="44.17727" lon="5.28159">
        <ele>1774.8</ele>
        <time>2026-05-14T10:26:11.000Z</time>
      </trkpt>
      <trkpt lat="44.17727" lon="5.28161">
        <ele>1775.6</ele>
        <time>2026-05-14T10:26:12.000Z</time>
      </trkpt>
      <trkpt lat="44.17726" lon="5.28162">
        <ele>1775.5</ele>
        <time>2026-05-14T10:26:13.000Z</time>
      </trkpt>
      <trkpt lat="44.17726" lon="5.28164">
        <ele>1775.3</ele>
        <time>2026-05-14T10:26:14.000Z</time>
      </trkpt>
      <trkpt lat="44.17725" lon="5.28166">
        <ele>1775.3</ele>
        <time>2026-05-14T10:26:15.000Z</time>
      </trkpt>
      <trkpt lat="44.17725" lon="5.28168">
        <ele>1775.3</ele>
        <time>2026-05-14T10:26:16.000Z</time>
      </trkpt>
      <trkpt lat="44.17725" lon="5.2817">
        <ele>1775.5</ele>
        <time>2026-05-14T10:26:17.000Z</time>
      </trkpt>
      <trkpt lat="44.17725" lon="5.28172">
        <ele>1775.4</ele>
        <time>2026-05-14T10:26:18.000Z</time>
      </trkpt>
      <trkpt lat="44.17724" lon="5.28174">
        <ele>1775.4</ele>
        <time>2026-05-14T10:26:19.000Z</time>
      </trkpt>
      <trkpt lat="44.17724" lon="5.28175">
        <ele>1775.4</ele>
        <time>2026-05-14T10:26:20.000Z</time>
      </trkpt>
      <trkpt lat="44.17723" lon="5.28176">
        <ele>1775.3</ele>
        <time>2026-05-14T10:26:21.000Z</time>
      </trkpt>
      <trkpt lat="44.17723" lon="5.28177">
        <ele>1775.4</ele>
        <time>2026-05-14T10:26:22.000Z</time>
      </trkpt>
      <trkpt lat="44.17723" lon="5.28177">
        <ele>1775.6</ele>
        <time>2026-05-14T10:26:23.000Z</time>
      </trkpt>
      <trkpt lat="44.17722" lon="5.28177">
        <ele>1775.8</ele>
        <time>2026-05-14T10:26:24.000Z</time>
      </trkpt>
      <trkpt lat="44.17722" lon="5.28178">
        <ele>1776.1</ele>
        <time>2026-05-14T10:26:25.000Z</time>
      </trkpt>
      <trkpt lat="44.17721" lon="5.28179">
        <ele>1777.8</ele>
        <time>2026-05-14T10:26:26.000Z</time>
      </trkpt>
      <trkpt lat="44.17721" lon="5.2818">
        <ele>1778.2</ele>
        <time>2026-05-14T10:26:27.000Z</time>
      </trkpt>
      <trkpt lat="44.1772" lon="5.28181">
        <ele>1778.7</ele>
        <time>2026-05-14T10:26:28.000Z</time>
      </trkpt>
      <trkpt lat="44.1772" lon="5.28181">
        <ele>1779.1</ele>
        <time>2026-05-14T10:26:29.000Z</time>
      </trkpt>
      <trkpt lat="44.1772" lon="5.28182">
        <ele>1779.2</ele>
        <time>2026-05-14T10:26:30.000Z</time>
      </trkpt>
      <trkpt lat="44.17719" lon="5.28184">
        <ele>1779.3</ele>
        <time>2026-05-14T10:26:31.000Z</time>
      </trkpt>
      <trkpt lat="44.17718" lon="5.28186">
        <ele>1779.2</ele>
        <time>2026-05-14T10:26:32.000Z</time>
      </trkpt>
      <trkpt lat="44.17718" lon="5.28187">
        <ele>1779.6</ele>
        <time>2026-05-14T10:26:33.000Z</time>
      </trkpt>
      <trkpt lat="44.17717" lon="5.28189">
        <ele>1780.1</ele>
        <time>2026-05-14T10:26:34.000Z</time>
      </trkpt>
      <trkpt lat="44.17717" lon="5.2819">
        <ele>1780.6</ele>
        <time>2026-05-14T10:26:35.000Z</time>
      </trkpt>
      <trkpt lat="44.17716" lon="5.28191">
        <ele>1781.1</ele>
        <time>2026-05-14T10:26:36.000Z</time>
      </trkpt>
      <trkpt lat="44.17715" lon="5.28192">
        <ele>1781.4</ele>
        <time>2026-05-14T10:26:37.000Z</time>
      </trkpt>
      <trkpt lat="44.17714" lon="5.28193">
        <ele>1781.5</ele>
        <time>2026-05-14T10:26:38.000Z</time>
      </trkpt>
      <trkpt lat="44.17714" lon="5.28193">
        <ele>1781.4</ele>
        <time>2026-05-14T10:26:39.000Z</time>
      </trkpt>
      <trkpt lat="44.17713" lon="5.28194">
        <ele>1781.5</ele>
        <time>2026-05-14T10:26:40.000Z</time>
      </trkpt>
      <trkpt lat="44.17712" lon="5.28195">
        <ele>1781.6</ele>
        <time>2026-05-14T10:26:41.000Z</time>
      </trkpt>
      <trkpt lat="44.17711" lon="5.28197">
        <ele>1781.3</ele>
        <time>2026-05-14T10:26:42.000Z</time>
      </trkpt>
      <trkpt lat="44.1771" lon="5.28199">
        <ele>1781.4</ele>
        <time>2026-05-14T10:26:43.000Z</time>
      </trkpt>
      <trkpt lat="44.1771" lon="5.28199">
        <ele>1781.4</ele>
        <time>2026-05-14T10:26:44.000Z</time>
      </trkpt>
      <trkpt lat="44.1771" lon="5.282">
        <ele>1781.7</ele>
        <time>2026-05-14T10:26:45.000Z</time>
      </trkpt>
      <trkpt lat="44.1771" lon="5.28201">
        <ele>1781.5</ele>
        <time>2026-05-14T10:26:46.000Z</time>
      </trkpt>
      <trkpt lat="44.17709" lon="5.28202">
        <ele>1781.5</ele>
        <time>2026-05-14T10:26:47.000Z</time>
      </trkpt>
      <trkpt lat="44.17709" lon="5.28202">
        <ele>1781.6</ele>
        <time>2026-05-14T10:26:48.000Z</time>
      </trkpt>
      <trkpt lat="44.17709" lon="5.28202">
        <ele>1781.5</ele>
        <time>2026-05-14T10:26:49.000Z</time>
      </trkpt>
      <trkpt lat="44.17708" lon="5.28203">
        <ele>1781.2</ele>
        <time>2026-05-14T10:26:50.000Z</time>
      </trkpt>
      <trkpt lat="44.17708" lon="5.28203">
        <ele>1780.9</ele>
        <time>2026-05-14T10:26:51.000Z</time>
      </trkpt>
      <trkpt lat="44.17708" lon="5.28203">
        <ele>1780.6</ele>
        <time>2026-05-14T10:26:52.000Z</time>
      </trkpt>
      <trkpt lat="44.17708" lon="5.28205">
        <ele>1780.9</ele>
        <time>2026-05-14T10:26:53.000Z</time>
      </trkpt>
      <trkpt lat="44.17708" lon="5.28206">
        <ele>1781.1</ele>
        <time>2026-05-14T10:26:54.000Z</time>
      </trkpt>
      <trkpt lat="44.17707" lon="5.28207">
        <ele>1781.4</ele>
        <time>2026-05-14T10:26:55.000Z</time>
      </trkpt>
      <trkpt lat="44.17706" lon="5.28209">
        <ele>1781.8</ele>
        <time>2026-05-14T10:26:56.000Z</time>
      </trkpt>
      <trkpt lat="44.17706" lon="5.2821">
        <ele>1781.8</ele>
        <time>2026-05-14T10:26:57.000Z</time>
      </trkpt>
      <trkpt lat="44.17705" lon="5.2821">
        <ele>1781.6</ele>
        <time>2026-05-14T10:26:58.000Z</time>
      </trkpt>
      <trkpt lat="44.17704" lon="5.28211">
        <ele>1781.3</ele>
        <time>2026-05-14T10:26:59.000Z</time>
      </trkpt>
      <trkpt lat="44.17704" lon="5.28211">
        <ele>1781.3</ele>
        <time>2026-05-14T10:27:00.000Z</time>
      </trkpt>
      <trkpt lat="44.17704" lon="5.28212">
        <ele>1781.3</ele>
        <time>2026-05-14T10:27:01.000Z</time>
      </trkpt>
      <trkpt lat="44.17704" lon="5.28212">
        <ele>1781.3</ele>
        <time>2026-05-14T10:27:02.000Z</time>
      </trkpt>
      <trkpt lat="44.17703" lon="5.28211">
        <ele>1781.6</ele>
        <time>2026-05-14T10:27:03.000Z</time>
      </trkpt>
      <trkpt lat="44.17704" lon="5.28211">
        <ele>1782.2</ele>
        <time>2026-05-14T10:27:04.000Z</time>
      </trkpt>
      <trkpt lat="44.17704" lon="5.2821">
        <ele>1782.5</ele>
        <time>2026-05-14T10:27:05.000Z</time>
      </trkpt>
      <trkpt lat="44.17705" lon="5.2821">
        <ele>1782.8</ele>
        <time>2026-05-14T10:27:06.000Z</time>
      </trkpt>
      <trkpt lat="44.17706" lon="5.28209">
        <ele>1783</ele>
        <time>2026-05-14T10:27:07.000Z</time>
      </trkpt>
      <trkpt lat="44.17704" lon="5.28208">
        <ele>1785.4</ele>
        <time>2026-05-14T10:27:08.000Z</time>
      </trkpt>
      <trkpt lat="44.17705" lon="5.28207">
        <ele>1785.6</ele>
        <time>2026-05-14T10:27:09.000Z</time>
      </trkpt>
      <trkpt lat="44.17703" lon="5.28207">
        <ele>1786.9</ele>
        <time>2026-05-14T10:27:10.000Z</time>
      </trkpt>
      <trkpt lat="44.17702" lon="5.28206">
        <ele>1788</ele>
        <time>2026-05-14T10:27:11.000Z</time>
      </trkpt>
      <trkpt lat="44.17703" lon="5.28204">
        <ele>1789.6</ele>
        <time>2026-05-14T10:27:12.000Z</time>
      </trkpt>
      <trkpt lat="44.17703" lon="5.28203">
        <ele>1789.6</ele>
        <time>2026-05-14T10:27:13.000Z</time>
      </trkpt>
      <trkpt lat="44.17703" lon="5.28202">
        <ele>1789.3</ele>
        <time>2026-05-14T10:27:14.000Z</time>
      </trkpt>
      <trkpt lat="44.17703" lon="5.28202">
        <ele>1789.1</ele>
        <time>2026-05-14T10:27:15.000Z</time>
      </trkpt>
      <trkpt lat="44.17703" lon="5.28201">
        <ele>1788.8</ele>
        <time>2026-05-14T10:27:16.000Z</time>
      </trkpt>
      <trkpt lat="44.17702" lon="5.282">
        <ele>1790.2</ele>
        <time>2026-05-14T10:27:17.000Z</time>
      </trkpt>
      <trkpt lat="44.17702" lon="5.28199">
        <ele>1790.8</ele>
        <time>2026-05-14T10:27:18.000Z</time>
      </trkpt>
      <trkpt lat="44.17701" lon="5.28197">
        <ele>1793.2</ele>
        <time>2026-05-14T10:27:19.000Z</time>
      </trkpt>
      <trkpt lat="44.177" lon="5.28197">
        <ele>1794.6</ele>
        <time>2026-05-14T10:27:20.000Z</time>
      </trkpt>
      <trkpt lat="44.177" lon="5.28197">
        <ele>1796.3</ele>
        <time>2026-05-14T10:27:21.000Z</time>
      </trkpt>
      <trkpt lat="44.17699" lon="5.28198">
        <ele>1797.4</ele>
        <time>2026-05-14T10:27:22.000Z</time>
      </trkpt>
      <trkpt lat="44.17699" lon="5.28199">
        <ele>1798.6</ele>
        <time>2026-05-14T10:27:23.000Z</time>
      </trkpt>
      <trkpt lat="44.17699" lon="5.28199">
        <ele>1800.6</ele>
        <time>2026-05-14T10:27:24.000Z</time>
      </trkpt>
      <trkpt lat="44.17699" lon="5.28199">
        <ele>1801.1</ele>
        <time>2026-05-14T10:27:25.000Z</time>
      </trkpt>
      <trkpt lat="44.17699" lon="5.28199">
        <ele>1801.7</ele>
        <time>2026-05-14T10:27:26.000Z</time>
      </trkpt>
      <trkpt lat="44.17699" lon="5.28198">
        <ele>1802.1</ele>
        <time>2026-05-14T10:27:27.000Z</time>
      </trkpt>
      <trkpt lat="44.177" lon="5.28196">
        <ele>1802.3</ele>
        <time>2026-05-14T10:27:28.000Z</time>
      </trkpt>
      <trkpt lat="44.17701" lon="5.28194">
        <ele>1801.8</ele>
        <time>2026-05-14T10:27:29.000Z</time>
      </trkpt>
      <trkpt lat="44.17701" lon="5.28193">
        <ele>1801.8</ele>
        <time>2026-05-14T10:27:30.000Z</time>
      </trkpt>
      <trkpt lat="44.17701" lon="5.28192">
        <ele>1802.2</ele>
        <time>2026-05-14T10:27:31.000Z</time>
      </trkpt>
      <trkpt lat="44.17702" lon="5.28191">
        <ele>1802.7</ele>
        <time>2026-05-14T10:27:32.000Z</time>
      </trkpt>
      <trkpt lat="44.17702" lon="5.28189">
        <ele>1803.1</ele>
        <time>2026-05-14T10:27:33.000Z</time>
      </trkpt>
      <trkpt lat="44.17702" lon="5.28188">
        <ele>1802.8</ele>
        <time>2026-05-14T10:27:34.000Z</time>
      </trkpt>
      <trkpt lat="44.17702" lon="5.28186">
        <ele>1802.7</ele>
        <time>2026-05-14T10:27:35.000Z</time>
      </trkpt>
      <trkpt lat="44.17703" lon="5.28185">
        <ele>1802.8</ele>
        <time>2026-05-14T10:27:36.000Z</time>
      </trkpt>
      <trkpt lat="44.17703" lon="5.28184">
        <ele>1803.2</ele>
        <time>2026-05-14T10:27:37.000Z</time>
      </trkpt>
      <trkpt lat="44.17703" lon="5.28183">
        <ele>1803.7</ele>
        <time>2026-05-14T10:27:38.000Z</time>
      </trkpt>
      <trkpt lat="44.17703" lon="5.28181">
        <ele>1804.1</ele>
        <time>2026-05-14T10:27:39.000Z</time>
      </trkpt>
      <trkpt lat="44.17703" lon="5.2818">
        <ele>1804.4</ele>
        <time>2026-05-14T10:27:40.000Z</time>
      </trkpt>
      <trkpt lat="44.17703" lon="5.28179">
        <ele>1804.8</ele>
        <time>2026-05-14T10:27:41.000Z</time>
      </trkpt>
      <trkpt lat="44.17703" lon="5.28178">
        <ele>1804.9</ele>
        <time>2026-05-14T10:27:42.000Z</time>
      </trkpt>
      <trkpt lat="44.17703" lon="5.28178">
        <ele>1804.8</ele>
        <time>2026-05-14T10:27:43.000Z</time>
      </trkpt>
      <trkpt lat="44.17703" lon="5.28177">
        <ele>1805</ele>
        <time>2026-05-14T10:27:44.000Z</time>
      </trkpt>
      <trkpt lat="44.17703" lon="5.28176">
        <ele>1805.8</ele>
        <time>2026-05-14T10:27:45.000Z</time>
      </trkpt>
      <trkpt lat="44.17703" lon="5.28175">
        <ele>1806.5</ele>
        <time>2026-05-14T10:27:46.000Z</time>
      </trkpt>
      <trkpt lat="44.17703" lon="5.28174">
        <ele>1806.7</ele>
        <time>2026-05-14T10:27:47.000Z</time>
      </trkpt>
      <trkpt lat="44.17703" lon="5.28172">
        <ele>1806.9</ele>
        <time>2026-05-14T10:27:48.000Z</time>
      </trkpt>
      <trkpt lat="44.17703" lon="5.28169">
        <ele>1807.4</ele>
        <time>2026-05-14T10:27:49.000Z</time>
      </trkpt>
      <trkpt lat="44.17703" lon="5.28168">
        <ele>1807.9</ele>
        <time>2026-05-14T10:27:50.000Z</time>
      </trkpt>
      <trkpt lat="44.17702" lon="5.28167">
        <ele>1808.4</ele>
        <time>2026-05-14T10:27:51.000Z</time>
      </trkpt>
      <trkpt lat="44.17703" lon="5.28167">
        <ele>1807.9</ele>
        <time>2026-05-14T10:27:52.000Z</time>
      </trkpt>
      <trkpt lat="44.17703" lon="5.28166">
        <ele>1807.1</ele>
        <time>2026-05-14T10:27:53.000Z</time>
      </trkpt>
      <trkpt lat="44.17703" lon="5.28165">
        <ele>1806.3</ele>
        <time>2026-05-14T10:27:54.000Z</time>
      </trkpt>
      <trkpt lat="44.17703" lon="5.28165">
        <ele>1805.1</ele>
        <time>2026-05-14T10:27:55.000Z</time>
      </trkpt>
      <trkpt lat="44.17703" lon="5.28165">
        <ele>1804.4</ele>
        <time>2026-05-14T10:27:56.000Z</time>
      </trkpt>
      <trkpt lat="44.17703" lon="5.28165">
        <ele>1804.9</ele>
        <time>2026-05-14T10:27:57.000Z</time>
      </trkpt>
      <trkpt lat="44.17703" lon="5.28165">
        <ele>1805.3</ele>
        <time>2026-05-14T10:27:58.000Z</time>
      </trkpt>
      <trkpt lat="44.17703" lon="5.28165">
        <ele>1805.7</ele>
        <time>2026-05-14T10:27:59.000Z</time>
      </trkpt>
      <trkpt lat="44.17703" lon="5.28165">
        <ele>1805.9</ele>
        <time>2026-05-14T10:28:00.000Z</time>
      </trkpt>
      <trkpt lat="44.17703" lon="5.28165">
        <ele>1806</ele>
        <time>2026-05-14T10:28:01.000Z</time>
      </trkpt>
      <trkpt lat="44.17703" lon="5.28165">
        <ele>1805.8</ele>
        <time>2026-05-14T10:28:02.000Z</time>
      </trkpt>
      <trkpt lat="44.17703" lon="5.28165">
        <ele>1805.4</ele>
        <time>2026-05-14T10:28:03.000Z</time>
      </trkpt>
      <trkpt lat="44.17703" lon="5.28165">
        <ele>1805.1</ele>
        <time>2026-05-14T10:28:04.000Z</time>
      </trkpt>
      <trkpt lat="44.17703" lon="5.28165">
        <ele>1805.3</ele>
        <time>2026-05-14T10:28:05.000Z</time>
      </trkpt>
      <trkpt lat="44.17703" lon="5.28165">
        <ele>1805.4</ele>
        <time>2026-05-14T10:28:06.000Z</time>
      </trkpt>
      <trkpt lat="44.17703" lon="5.28165">
        <ele>1805.5</ele>
        <time>2026-05-14T10:28:07.000Z</time>
      </trkpt>
      <trkpt lat="44.17703" lon="5.28165">
        <ele>1805.6</ele>
        <time>2026-05-14T10:28:08.000Z</time>
      </trkpt>
      <trkpt lat="44.17703" lon="5.28165">
        <ele>1805.3</ele>
        <time>2026-05-14T10:28:09.000Z</time>
      </trkpt>
      <trkpt lat="44.17703" lon="5.28165">
        <ele>1805.1</ele>
        <time>2026-05-14T10:28:10.000Z</time>
      </trkpt>
      <trkpt lat="44.17703" lon="5.28165">
        <ele>1805</ele>
        <time>2026-05-14T10:28:11.000Z</time>
      </trkpt>
      <trkpt lat="44.17703" lon="5.28163">
        <ele>1804.8</ele>
        <time>2026-05-14T10:28:12.000Z</time>
      </trkpt>
      <trkpt lat="44.17703" lon="5.28162">
        <ele>1805.3</ele>
        <time>2026-05-14T10:28:13.000Z</time>
      </trkpt>
      <trkpt lat="44.17704" lon="5.2816">
        <ele>1805.7</ele>
        <time>2026-05-14T10:28:14.000Z</time>
      </trkpt>
      <trkpt lat="44.17704" lon="5.28158">
        <ele>1805.6</ele>
        <time>2026-05-14T10:28:15.000Z</time>
      </trkpt>
      <trkpt lat="44.17704" lon="5.28155">
        <ele>1806.5</ele>
        <time>2026-05-14T10:28:16.000Z</time>
      </trkpt>
      <trkpt lat="44.17703" lon="5.28153">
        <ele>1806.9</ele>
        <time>2026-05-14T10:28:17.000Z</time>
      </trkpt>
      <trkpt lat="44.17703" lon="5.28152">
        <ele>1807.1</ele>
        <time>2026-05-14T10:28:18.000Z</time>
      </trkpt>
      <trkpt lat="44.17704" lon="5.2815">
        <ele>1806.9</ele>
        <time>2026-05-14T10:28:19.000Z</time>
      </trkpt>
      <trkpt lat="44.17704" lon="5.28149">
        <ele>1807.3</ele>
        <time>2026-05-14T10:28:20.000Z</time>
      </trkpt>
      <trkpt lat="44.17704" lon="5.28148">
        <ele>1807.6</ele>
        <time>2026-05-14T10:28:21.000Z</time>
      </trkpt>
      <trkpt lat="44.17704" lon="5.28147">
        <ele>1808</ele>
        <time>2026-05-14T10:28:22.000Z</time>
      </trkpt>
      <trkpt lat="44.17704" lon="5.28146">
        <ele>1808.3</ele>
        <time>2026-05-14T10:28:23.000Z</time>
      </trkpt>
      <trkpt lat="44.17704" lon="5.28144">
        <ele>1808.5</ele>
        <time>2026-05-14T10:28:24.000Z</time>
      </trkpt>
      <trkpt lat="44.17704" lon="5.28142">
        <ele>1808.7</ele>
        <time>2026-05-14T10:28:25.000Z</time>
      </trkpt>
      <trkpt lat="44.17705" lon="5.28141">
        <ele>1808.1</ele>
        <time>2026-05-14T10:28:26.000Z</time>
      </trkpt>
      <trkpt lat="44.17705" lon="5.28141">
        <ele>1807.7</ele>
        <time>2026-05-14T10:28:27.000Z</time>
      </trkpt>
      <trkpt lat="44.17705" lon="5.28139">
        <ele>1807.5</ele>
        <time>2026-05-14T10:28:28.000Z</time>
      </trkpt>
      <trkpt lat="44.17704" lon="5.28137">
        <ele>1807.6</ele>
        <time>2026-05-14T10:28:29.000Z</time>
      </trkpt>
      <trkpt lat="44.17704" lon="5.28134">
        <ele>1807.7</ele>
        <time>2026-05-14T10:28:30.000Z</time>
      </trkpt>
      <trkpt lat="44.17705" lon="5.28132">
        <ele>1807.8</ele>
        <time>2026-05-14T10:28:31.000Z</time>
      </trkpt>
      <trkpt lat="44.17705" lon="5.28131">
        <ele>1807.9</ele>
        <time>2026-05-14T10:28:32.000Z</time>
      </trkpt>
      <trkpt lat="44.17704" lon="5.2813">
        <ele>1808.2</ele>
        <time>2026-05-14T10:28:33.000Z</time>
      </trkpt>
      <trkpt lat="44.17704" lon="5.28129">
        <ele>1808.3</ele>
        <time>2026-05-14T10:28:34.000Z</time>
      </trkpt>
      <trkpt lat="44.17704" lon="5.28127">
        <ele>1808.3</ele>
        <time>2026-05-14T10:28:35.000Z</time>
      </trkpt>
      <trkpt lat="44.17703" lon="5.28125">
        <ele>1808.5</ele>
        <time>2026-05-14T10:28:36.000Z</time>
      </trkpt>
      <trkpt lat="44.17703" lon="5.28123">
        <ele>1809.1</ele>
        <time>2026-05-14T10:28:37.000Z</time>
      </trkpt>
      <trkpt lat="44.17703" lon="5.28122">
        <ele>1809</ele>
        <time>2026-05-14T10:28:38.000Z</time>
      </trkpt>
      <trkpt lat="44.17703" lon="5.28121">
        <ele>1808.8</ele>
        <time>2026-05-14T10:28:39.000Z</time>
      </trkpt>
      <trkpt lat="44.17703" lon="5.28121">
        <ele>1808.6</ele>
        <time>2026-05-14T10:28:40.000Z</time>
      </trkpt>
      <trkpt lat="44.17703" lon="5.28119">
        <ele>1809.2</ele>
        <time>2026-05-14T10:28:41.000Z</time>
      </trkpt>
      <trkpt lat="44.17702" lon="5.28118">
        <ele>1809.7</ele>
        <time>2026-05-14T10:28:42.000Z</time>
      </trkpt>
      <trkpt lat="44.17702" lon="5.28115">
        <ele>1810.5</ele>
        <time>2026-05-14T10:28:43.000Z</time>
      </trkpt>
      <trkpt lat="44.17702" lon="5.28113">
        <ele>1811</ele>
        <time>2026-05-14T10:28:44.000Z</time>
      </trkpt>
      <trkpt lat="44.17702" lon="5.28111">
        <ele>1811.9</ele>
        <time>2026-05-14T10:28:45.000Z</time>
      </trkpt>
      <trkpt lat="44.17702" lon="5.28109">
        <ele>1812.4</ele>
        <time>2026-05-14T10:28:46.000Z</time>
      </trkpt>
      <trkpt lat="44.17702" lon="5.28108">
        <ele>1813</ele>
        <time>2026-05-14T10:28:47.000Z</time>
      </trkpt>
      <trkpt lat="44.17701" lon="5.28106">
        <ele>1813.7</ele>
        <time>2026-05-14T10:28:48.000Z</time>
      </trkpt>
      <trkpt lat="44.17701" lon="5.28105">
        <ele>1814.5</ele>
        <time>2026-05-14T10:28:49.000Z</time>
      </trkpt>
      <trkpt lat="44.17701" lon="5.28105">
        <ele>1814.7</ele>
        <time>2026-05-14T10:28:50.000Z</time>
      </trkpt>
      <trkpt lat="44.17701" lon="5.28104">
        <ele>1814.5</ele>
        <time>2026-05-14T10:28:51.000Z</time>
      </trkpt>
      <trkpt lat="44.17701" lon="5.28103">
        <ele>1814.9</ele>
        <time>2026-05-14T10:28:52.000Z</time>
      </trkpt>
      <trkpt lat="44.17701" lon="5.28103">
        <ele>1814.9</ele>
        <time>2026-05-14T10:28:53.000Z</time>
      </trkpt>
      <trkpt lat="44.17701" lon="5.28102">
        <ele>1814.6</ele>
        <time>2026-05-14T10:28:54.000Z</time>
      </trkpt>
      <trkpt lat="44.17701" lon="5.28102">
        <ele>1814.6</ele>
        <time>2026-05-14T10:28:55.000Z</time>
      </trkpt>
      <trkpt lat="44.17701" lon="5.28102">
        <ele>1814.7</ele>
        <time>2026-05-14T10:28:56.000Z</time>
      </trkpt>
      <trkpt lat="44.17701" lon="5.28102">
        <ele>1814.6</ele>
        <time>2026-05-14T10:28:57.000Z</time>
      </trkpt>
      <trkpt lat="44.17701" lon="5.28102">
        <ele>1814.4</ele>
        <time>2026-05-14T10:28:58.000Z</time>
      </trkpt>
      <trkpt lat="44.17701" lon="5.28102">
        <ele>1814.2</ele>
        <time>2026-05-14T10:28:59.000Z</time>
      </trkpt>
      <trkpt lat="44.17701" lon="5.28102">
        <ele>1814</ele>
        <time>2026-05-14T10:29:00.000Z</time>
      </trkpt>
      <trkpt lat="44.17701" lon="5.28102">
        <ele>1813.8</ele>
        <time>2026-05-14T10:29:01.000Z</time>
      </trkpt>
      <trkpt lat="44.17701" lon="5.28102">
        <ele>1813.5</ele>
        <time>2026-05-14T10:29:02.000Z</time>
      </trkpt>
      <trkpt lat="44.17701" lon="5.28103">
        <ele>1813.4</ele>
        <time>2026-05-14T10:29:03.000Z</time>
      </trkpt>
      <trkpt lat="44.17701" lon="5.28103">
        <ele>1813.5</ele>
        <time>2026-05-14T10:29:04.000Z</time>
      </trkpt>
      <trkpt lat="44.17701" lon="5.28103">
        <ele>1813.1</ele>
        <time>2026-05-14T10:29:05.000Z</time>
      </trkpt>
      <trkpt lat="44.17701" lon="5.28103">
        <ele>1812.8</ele>
        <time>2026-05-14T10:29:06.000Z</time>
      </trkpt>
      <trkpt lat="44.17701" lon="5.28103">
        <ele>1812.4</ele>
        <time>2026-05-14T10:29:07.000Z</time>
      </trkpt>
      <trkpt lat="44.17701" lon="5.28103">
        <ele>1812.3</ele>
        <time>2026-05-14T10:29:08.000Z</time>
      </trkpt>
      <trkpt lat="44.17701" lon="5.28103">
        <ele>1812.1</ele>
        <time>2026-05-14T10:29:09.000Z</time>
      </trkpt>
      <trkpt lat="44.17701" lon="5.28103">
        <ele>1811.7</ele>
        <time>2026-05-14T10:29:10.000Z</time>
      </trkpt>
      <trkpt lat="44.17701" lon="5.28101">
        <ele>1811.8</ele>
        <time>2026-05-14T10:29:11.000Z</time>
      </trkpt>
      <trkpt lat="44.17702" lon="5.281">
        <ele>1811.9</ele>
        <time>2026-05-14T10:29:12.000Z</time>
      </trkpt>
      <trkpt lat="44.17702" lon="5.28099">
        <ele>1811.9</ele>
        <time>2026-05-14T10:29:13.000Z</time>
      </trkpt>
      <trkpt lat="44.17702" lon="5.28097">
        <ele>1812</ele>
        <time>2026-05-14T10:29:14.000Z</time>
      </trkpt>
      <trkpt lat="44.17703" lon="5.28093">
        <ele>1813.2</ele>
        <time>2026-05-14T10:29:16.000Z</time>
      </trkpt>
      <trkpt lat="44.17703" lon="5.28092">
        <ele>1813.5</ele>
        <time>2026-05-14T10:29:17.000Z</time>
      </trkpt>
      <trkpt lat="44.17703" lon="5.28091">
        <ele>1813.6</ele>
        <time>2026-05-14T10:29:18.000Z</time>
      </trkpt>
      <trkpt lat="44.17702" lon="5.2809">
        <ele>1813.6</ele>
        <time>2026-05-14T10:29:19.000Z</time>
      </trkpt>
      <trkpt lat="44.17702" lon="5.28088">
        <ele>1813.9</ele>
        <time>2026-05-14T10:29:20.000Z</time>
      </trkpt>
      <trkpt lat="44.17703" lon="5.28087">
        <ele>1814.3</ele>
        <time>2026-05-14T10:29:21.000Z</time>
      </trkpt>
      <trkpt lat="44.17703" lon="5.28086">
        <ele>1814.6</ele>
        <time>2026-05-14T10:29:22.000Z</time>
      </trkpt>
      <trkpt lat="44.17703" lon="5.28085">
        <ele>1815.1</ele>
        <time>2026-05-14T10:29:23.000Z</time>
      </trkpt>
      <trkpt lat="44.17703" lon="5.28084">
        <ele>1815.3</ele>
        <time>2026-05-14T10:29:24.000Z</time>
      </trkpt>
      <trkpt lat="44.17703" lon="5.28083">
        <ele>1815.4</ele>
        <time>2026-05-14T10:29:25.000Z</time>
      </trkpt>
      <trkpt lat="44.17704" lon="5.28082">
        <ele>1815.7</ele>
        <time>2026-05-14T10:29:26.000Z</time>
      </trkpt>
      <trkpt lat="44.17704" lon="5.28081">
        <ele>1815.6</ele>
        <time>2026-05-14T10:29:27.000Z</time>
      </trkpt>
      <trkpt lat="44.17703" lon="5.2808">
        <ele>1815.6</ele>
        <time>2026-05-14T10:29:28.000Z</time>
      </trkpt>
      <trkpt lat="44.17704" lon="5.28078">
        <ele>1815.3</ele>
        <time>2026-05-14T10:29:29.000Z</time>
      </trkpt>
      <trkpt lat="44.17703" lon="5.28076">
        <ele>1814.9</ele>
        <time>2026-05-14T10:29:30.000Z</time>
      </trkpt>
      <trkpt lat="44.17703" lon="5.28075">
        <ele>1814.4</ele>
        <time>2026-05-14T10:29:31.000Z</time>
      </trkpt>
      <trkpt lat="44.17703" lon="5.28073">
        <ele>1813.9</ele>
        <time>2026-05-14T10:29:32.000Z</time>
      </trkpt>
      <trkpt lat="44.17703" lon="5.28072">
        <ele>1814.1</ele>
        <time>2026-05-14T10:29:33.000Z</time>
      </trkpt>
      <trkpt lat="44.17703" lon="5.2807">
        <ele>1814.1</ele>
        <time>2026-05-14T10:29:34.000Z</time>
      </trkpt>
      <trkpt lat="44.17703" lon="5.28069">
        <ele>1814.3</ele>
        <time>2026-05-14T10:29:35.000Z</time>
      </trkpt>
      <trkpt lat="44.17702" lon="5.28068">
        <ele>1814.1</ele>
        <time>2026-05-14T10:29:36.000Z</time>
      </trkpt>
      <trkpt lat="44.17702" lon="5.28066">
        <ele>1813.9</ele>
        <time>2026-05-14T10:29:37.000Z</time>
      </trkpt>
      <trkpt lat="44.17702" lon="5.28065">
        <ele>1813.8</ele>
        <time>2026-05-14T10:29:38.000Z</time>
      </trkpt>
      <trkpt lat="44.17702" lon="5.28063">
        <ele>1813.7</ele>
        <time>2026-05-14T10:29:39.000Z</time>
      </trkpt>
      <trkpt lat="44.17702" lon="5.28062">
        <ele>1813.5</ele>
        <time>2026-05-14T10:29:40.000Z</time>
      </trkpt>
      <trkpt lat="44.17702" lon="5.28061">
        <ele>1813.9</ele>
        <time>2026-05-14T10:29:41.000Z</time>
      </trkpt>
      <trkpt lat="44.17701" lon="5.2806">
        <ele>1814.2</ele>
        <time>2026-05-14T10:29:42.000Z</time>
      </trkpt>
      <trkpt lat="44.17701" lon="5.28058">
        <ele>1814.6</ele>
        <time>2026-05-14T10:29:43.000Z</time>
      </trkpt>
      <trkpt lat="44.17701" lon="5.28057">
        <ele>1814.8</ele>
        <time>2026-05-14T10:29:44.000Z</time>
      </trkpt>
      <trkpt lat="44.17701" lon="5.28055">
        <ele>1815.3</ele>
        <time>2026-05-14T10:29:45.000Z</time>
      </trkpt>
      <trkpt lat="44.177" lon="5.28054">
        <ele>1816.2</ele>
        <time>2026-05-14T10:29:46.000Z</time>
      </trkpt>
      <trkpt lat="44.177" lon="5.28052">
        <ele>1817</ele>
        <time>2026-05-14T10:29:47.000Z</time>
      </trkpt>
      <trkpt lat="44.17699" lon="5.2805">
        <ele>1817.7</ele>
        <time>2026-05-14T10:29:48.000Z</time>
      </trkpt>
      <trkpt lat="44.17699" lon="5.28049">
        <ele>1817.6</ele>
        <time>2026-05-14T10:29:49.000Z</time>
      </trkpt>
      <trkpt lat="44.17698" lon="5.28049">
        <ele>1817.5</ele>
        <time>2026-05-14T10:29:50.000Z</time>
      </trkpt>
      <trkpt lat="44.17697" lon="5.2805">
        <ele>1816.9</ele>
        <time>2026-05-14T10:29:51.000Z</time>
      </trkpt>
      <trkpt lat="44.17697" lon="5.2805">
        <ele>1816.2</ele>
        <time>2026-05-14T10:29:52.000Z</time>
      </trkpt>
      <trkpt lat="44.17697" lon="5.2805">
        <ele>1815.6</ele>
        <time>2026-05-14T10:29:53.000Z</time>
      </trkpt>
      <trkpt lat="44.17697" lon="5.28051">
        <ele>1815.4</ele>
        <time>2026-05-14T10:29:54.000Z</time>
      </trkpt>
      <trkpt lat="44.17697" lon="5.28052">
        <ele>1814.8</ele>
        <time>2026-05-14T10:29:55.000Z</time>
      </trkpt>
      <trkpt lat="44.17697" lon="5.28052">
        <ele>1814.1</ele>
        <time>2026-05-14T10:29:56.000Z</time>
      </trkpt>
      <trkpt lat="44.17697" lon="5.28053">
        <ele>1813.6</ele>
        <time>2026-05-14T10:29:57.000Z</time>
      </trkpt>
      <trkpt lat="44.17696" lon="5.28055">
        <ele>1812.5</ele>
        <time>2026-05-14T10:29:58.999Z</time>
      </trkpt>
      <trkpt lat="44.17696" lon="5.28056">
        <ele>1811.9</ele>
        <time>2026-05-14T10:29:59.999Z</time>
      </trkpt>
      <trkpt lat="44.17697" lon="5.28057">
        <ele>1811.6</ele>
        <time>2026-05-14T10:30:00.999Z</time>
      </trkpt>
      <trkpt lat="44.17696" lon="5.28059">
        <ele>1811.1</ele>
        <time>2026-05-14T10:30:01.999Z</time>
      </trkpt>
      <trkpt lat="44.17696" lon="5.2806">
        <ele>1810.8</ele>
        <time>2026-05-14T10:30:02.999Z</time>
      </trkpt>
      <trkpt lat="44.17695" lon="5.28062">
        <ele>1811</ele>
        <time>2026-05-14T10:30:03.999Z</time>
      </trkpt>
      <trkpt lat="44.17695" lon="5.28064">
        <ele>1811.2</ele>
        <time>2026-05-14T10:30:04.999Z</time>
      </trkpt>
      <trkpt lat="44.17695" lon="5.28066">
        <ele>1811.6</ele>
        <time>2026-05-14T10:30:05.999Z</time>
      </trkpt>
      <trkpt lat="44.17694" lon="5.28067">
        <ele>1812.2</ele>
        <time>2026-05-14T10:30:06.999Z</time>
      </trkpt>
      <trkpt lat="44.17694" lon="5.28069">
        <ele>1812.1</ele>
        <time>2026-05-14T10:30:07.999Z</time>
      </trkpt>
      <trkpt lat="44.17694" lon="5.2807">
        <ele>1811.9</ele>
        <time>2026-05-14T10:30:08.999Z</time>
      </trkpt>
      <trkpt lat="44.17694" lon="5.28071">
        <ele>1811.6</ele>
        <time>2026-05-14T10:30:09.999Z</time>
      </trkpt>
      <trkpt lat="44.17693" lon="5.28072">
        <ele>1811.4</ele>
        <time>2026-05-14T10:30:10.999Z</time>
      </trkpt>
      <trkpt lat="44.17693" lon="5.28073">
        <ele>1811</ele>
        <time>2026-05-14T10:30:11.999Z</time>
      </trkpt>
      <trkpt lat="44.17693" lon="5.28075">
        <ele>1810.7</ele>
        <time>2026-05-14T10:30:12.999Z</time>
      </trkpt>
      <trkpt lat="44.17693" lon="5.28076">
        <ele>1810.6</ele>
        <time>2026-05-14T10:30:13.999Z</time>
      </trkpt>
      <trkpt lat="44.17693" lon="5.28076">
        <ele>1810.1</ele>
        <time>2026-05-14T10:30:14.999Z</time>
      </trkpt>
      <trkpt lat="44.17693" lon="5.28077">
        <ele>1809.5</ele>
        <time>2026-05-14T10:30:15.999Z</time>
      </trkpt>
      <trkpt lat="44.17693" lon="5.28078">
        <ele>1809.1</ele>
        <time>2026-05-14T10:30:16.999Z</time>
      </trkpt>
      <trkpt lat="44.17693" lon="5.28079">
        <ele>1808.8</ele>
        <time>2026-05-14T10:30:17.999Z</time>
      </trkpt>
      <trkpt lat="44.17693" lon="5.2808">
        <ele>1808.9</ele>
        <time>2026-05-14T10:30:18.999Z</time>
      </trkpt>
      <trkpt lat="44.17693" lon="5.28081">
        <ele>1808.7</ele>
        <time>2026-05-14T10:30:19.999Z</time>
      </trkpt>
      <trkpt lat="44.17693" lon="5.28083">
        <ele>1808.5</ele>
        <time>2026-05-14T10:30:20.999Z</time>
      </trkpt>
      <trkpt lat="44.17693" lon="5.28084">
        <ele>1808.3</ele>
        <time>2026-05-14T10:30:21.999Z</time>
      </trkpt>
      <trkpt lat="44.17693" lon="5.28085">
        <ele>1808.2</ele>
        <time>2026-05-14T10:30:22.999Z</time>
      </trkpt>
      <trkpt lat="44.17692" lon="5.28086">
        <ele>1807.8</ele>
        <time>2026-05-14T10:30:23.999Z</time>
      </trkpt>
      <trkpt lat="44.17692" lon="5.28087">
        <ele>1807.5</ele>
        <time>2026-05-14T10:30:24.999Z</time>
      </trkpt>
      <trkpt lat="44.17692" lon="5.28088">
        <ele>1807.3</ele>
        <time>2026-05-14T10:30:25.999Z</time>
      </trkpt>
      <trkpt lat="44.17692" lon="5.2809">
        <ele>1807.2</ele>
        <time>2026-05-14T10:30:26.999Z</time>
      </trkpt>
      <trkpt lat="44.17692" lon="5.28092">
        <ele>1807.5</ele>
        <time>2026-05-14T10:30:27.999Z</time>
      </trkpt>
      <trkpt lat="44.17692" lon="5.28093">
        <ele>1807.3</ele>
        <time>2026-05-14T10:30:28.999Z</time>
      </trkpt>
      <trkpt lat="44.17691" lon="5.28094">
        <ele>1807.1</ele>
        <time>2026-05-14T10:30:29.999Z</time>
      </trkpt>
      <trkpt lat="44.17691" lon="5.28094">
        <ele>1806.9</ele>
        <time>2026-05-14T10:30:30.999Z</time>
      </trkpt>
      <trkpt lat="44.17691" lon="5.28095">
        <ele>1806.9</ele>
        <time>2026-05-14T10:30:31.999Z</time>
      </trkpt>
      <trkpt lat="44.17691" lon="5.28096">
        <ele>1806.7</ele>
        <time>2026-05-14T10:30:32.999Z</time>
      </trkpt>
      <trkpt lat="44.17691" lon="5.28099">
        <ele>1807.4</ele>
        <time>2026-05-14T10:30:33.999Z</time>
      </trkpt>
      <trkpt lat="44.1769" lon="5.28101">
        <ele>1807.8</ele>
        <time>2026-05-14T10:30:34.999Z</time>
      </trkpt>
      <trkpt lat="44.1769" lon="5.28102">
        <ele>1807.6</ele>
        <time>2026-05-14T10:30:35.999Z</time>
      </trkpt>
      <trkpt lat="44.17689" lon="5.28105">
        <ele>1808.2</ele>
        <time>2026-05-14T10:30:36.999Z</time>
      </trkpt>
      <trkpt lat="44.17688" lon="5.28106">
        <ele>1808</ele>
        <time>2026-05-14T10:30:37.999Z</time>
      </trkpt>
      <trkpt lat="44.17687" lon="5.28107">
        <ele>1808</ele>
        <time>2026-05-14T10:30:38.999Z</time>
      </trkpt>
      <trkpt lat="44.17687" lon="5.28108">
        <ele>1807.6</ele>
        <time>2026-05-14T10:30:39.999Z</time>
      </trkpt>
      <trkpt lat="44.17687" lon="5.28109">
        <ele>1807.3</ele>
        <time>2026-05-14T10:30:40.999Z</time>
      </trkpt>
      <trkpt lat="44.17687" lon="5.2811">
        <ele>1807.4</ele>
        <time>2026-05-14T10:30:41.999Z</time>
      </trkpt>
      <trkpt lat="44.17686" lon="5.28112">
        <ele>1807.8</ele>
        <time>2026-05-14T10:30:42.999Z</time>
      </trkpt>
      <trkpt lat="44.17686" lon="5.28112">
        <ele>1808.4</ele>
        <time>2026-05-14T10:30:43.999Z</time>
      </trkpt>
      <trkpt lat="44.17686" lon="5.28114">
        <ele>1808.8</ele>
        <time>2026-05-14T10:30:44.999Z</time>
      </trkpt>
      <trkpt lat="44.17685" lon="5.28115">
        <ele>1808.4</ele>
        <time>2026-05-14T10:30:45.999Z</time>
      </trkpt>
      <trkpt lat="44.17685" lon="5.28116">
        <ele>1808.2</ele>
        <time>2026-05-14T10:30:46.999Z</time>
      </trkpt>
      <trkpt lat="44.17684" lon="5.28117">
        <ele>1808.2</ele>
        <time>2026-05-14T10:30:47.999Z</time>
      </trkpt>
      <trkpt lat="44.17684" lon="5.28118">
        <ele>1807.7</ele>
        <time>2026-05-14T10:30:48.999Z</time>
      </trkpt>
      <trkpt lat="44.17684" lon="5.28119">
        <ele>1807.3</ele>
        <time>2026-05-14T10:30:49.999Z</time>
      </trkpt>
      <trkpt lat="44.17684" lon="5.2812">
        <ele>1807</ele>
        <time>2026-05-14T10:30:50.999Z</time>
      </trkpt>
      <trkpt lat="44.17684" lon="5.2812">
        <ele>1807.4</ele>
        <time>2026-05-14T10:30:51.999Z</time>
      </trkpt>
      <trkpt lat="44.17683" lon="5.28121">
        <ele>1807.8</ele>
        <time>2026-05-14T10:30:52.999Z</time>
      </trkpt>
      <trkpt lat="44.17683" lon="5.28123">
        <ele>1807.5</ele>
        <time>2026-05-14T10:30:53.999Z</time>
      </trkpt>
      <trkpt lat="44.17682" lon="5.28124">
        <ele>1807.5</ele>
        <time>2026-05-14T10:30:54.999Z</time>
      </trkpt>
      <trkpt lat="44.17682" lon="5.28125">
        <ele>1807.6</ele>
        <time>2026-05-14T10:30:55.999Z</time>
      </trkpt>
      <trkpt lat="44.17682" lon="5.28126">
        <ele>1807.6</ele>
        <time>2026-05-14T10:30:56.999Z</time>
      </trkpt>
      <trkpt lat="44.17682" lon="5.28128">
        <ele>1808.4</ele>
        <time>2026-05-14T10:30:57.999Z</time>
      </trkpt>
      <trkpt lat="44.17681" lon="5.28129">
        <ele>1808.3</ele>
        <time>2026-05-14T10:30:58.999Z</time>
      </trkpt>
      <trkpt lat="44.17681" lon="5.2813">
        <ele>1808.5</ele>
        <time>2026-05-14T10:30:59.999Z</time>
      </trkpt>
      <trkpt lat="44.1768" lon="5.28131">
        <ele>1808.4</ele>
        <time>2026-05-14T10:31:00.999Z</time>
      </trkpt>
      <trkpt lat="44.1768" lon="5.28132">
        <ele>1808.3</ele>
        <time>2026-05-14T10:31:01.999Z</time>
      </trkpt>
      <trkpt lat="44.17679" lon="5.28133">
        <ele>1808.4</ele>
        <time>2026-05-14T10:31:02.999Z</time>
      </trkpt>
      <trkpt lat="44.17679" lon="5.28135">
        <ele>1808.5</ele>
        <time>2026-05-14T10:31:03.999Z</time>
      </trkpt>
      <trkpt lat="44.17679" lon="5.28136">
        <ele>1808.4</ele>
        <time>2026-05-14T10:31:04.999Z</time>
      </trkpt>
      <trkpt lat="44.17678" lon="5.28137">
        <ele>1808.7</ele>
        <time>2026-05-14T10:31:05.999Z</time>
      </trkpt>
      <trkpt lat="44.17677" lon="5.28138">
        <ele>1808.7</ele>
        <time>2026-05-14T10:31:06.999Z</time>
      </trkpt>
      <trkpt lat="44.17677" lon="5.28138">
        <ele>1808.8</ele>
        <time>2026-05-14T10:31:07.999Z</time>
      </trkpt>
      <trkpt lat="44.17676" lon="5.28139">
        <ele>1808.6</ele>
        <time>2026-05-14T10:31:08.999Z</time>
      </trkpt>
      <trkpt lat="44.17675" lon="5.2814">
        <ele>1808.1</ele>
        <time>2026-05-14T10:31:09.999Z</time>
      </trkpt>
      <trkpt lat="44.17675" lon="5.28142">
        <ele>1807.8</ele>
        <time>2026-05-14T10:31:10.999Z</time>
      </trkpt>
      <trkpt lat="44.17674" lon="5.28143">
        <ele>1807.4</ele>
        <time>2026-05-14T10:31:11.999Z</time>
      </trkpt>
      <trkpt lat="44.17674" lon="5.28144">
        <ele>1806.9</ele>
        <time>2026-05-14T10:31:12.999Z</time>
      </trkpt>
      <trkpt lat="44.17673" lon="5.28145">
        <ele>1806.8</ele>
        <time>2026-05-14T10:31:13.999Z</time>
      </trkpt>
      <trkpt lat="44.17672" lon="5.28147">
        <ele>1806.4</ele>
        <time>2026-05-14T10:31:14.999Z</time>
      </trkpt>
      <trkpt lat="44.17672" lon="5.28147">
        <ele>1806.3</ele>
        <time>2026-05-14T10:31:15.999Z</time>
      </trkpt>
      <trkpt lat="44.17671" lon="5.28149">
        <ele>1806.2</ele>
        <time>2026-05-14T10:31:16.999Z</time>
      </trkpt>
      <trkpt lat="44.17672" lon="5.2815">
        <ele>1805.9</ele>
        <time>2026-05-14T10:31:17.999Z</time>
      </trkpt>
      <trkpt lat="44.17672" lon="5.2815">
        <ele>1805.6</ele>
        <time>2026-05-14T10:31:18.999Z</time>
      </trkpt>
      <trkpt lat="44.17671" lon="5.28151">
        <ele>1806</ele>
        <time>2026-05-14T10:31:19.999Z</time>
      </trkpt>
      <trkpt lat="44.17671" lon="5.28151">
        <ele>1806.1</ele>
        <time>2026-05-14T10:31:20.999Z</time>
      </trkpt>
      <trkpt lat="44.17671" lon="5.28151">
        <ele>1806.4</ele>
        <time>2026-05-14T10:31:21.999Z</time>
      </trkpt>
      <trkpt lat="44.17671" lon="5.28152">
        <ele>1806.4</ele>
        <time>2026-05-14T10:31:22.999Z</time>
      </trkpt>
      <trkpt lat="44.1767" lon="5.28152">
        <ele>1806.6</ele>
        <time>2026-05-14T10:31:23.999Z</time>
      </trkpt>
      <trkpt lat="44.1767" lon="5.28152">
        <ele>1806.8</ele>
        <time>2026-05-14T10:31:24.999Z</time>
      </trkpt>
      <trkpt lat="44.1767" lon="5.28152">
        <ele>1806.9</ele>
        <time>2026-05-14T10:31:25.999Z</time>
      </trkpt>
      <trkpt lat="44.1767" lon="5.28153">
        <ele>1807</ele>
        <time>2026-05-14T10:31:26.999Z</time>
      </trkpt>
      <trkpt lat="44.17669" lon="5.28153">
        <ele>1807.4</ele>
        <time>2026-05-14T10:31:27.999Z</time>
      </trkpt>
      <trkpt lat="44.17669" lon="5.28153">
        <ele>1807.8</ele>
        <time>2026-05-14T10:31:28.999Z</time>
      </trkpt>
      <trkpt lat="44.17668" lon="5.28154">
        <ele>1808.6</ele>
        <time>2026-05-14T10:31:29.999Z</time>
      </trkpt>
      <trkpt lat="44.17668" lon="5.28154">
        <ele>1808.8</ele>
        <time>2026-05-14T10:31:30.999Z</time>
      </trkpt>
      <trkpt lat="44.17667" lon="5.28154">
        <ele>1809.2</ele>
        <time>2026-05-14T10:31:31.999Z</time>
      </trkpt>
      <trkpt lat="44.17667" lon="5.28153">
        <ele>1808.9</ele>
        <time>2026-05-14T10:31:32.999Z</time>
      </trkpt>
      <trkpt lat="44.17666" lon="5.28153">
        <ele>1808.6</ele>
        <time>2026-05-14T10:31:33.999Z</time>
      </trkpt>
      <trkpt lat="44.17666" lon="5.28153">
        <ele>1808.6</ele>
        <time>2026-05-14T10:31:34.999Z</time>
      </trkpt>
      <trkpt lat="44.17666" lon="5.28153">
        <ele>1808.7</ele>
        <time>2026-05-14T10:31:35.999Z</time>
      </trkpt>
      <trkpt lat="44.17666" lon="5.28153">
        <ele>1808.6</ele>
        <time>2026-05-14T10:31:36.999Z</time>
      </trkpt>
      <trkpt lat="44.17666" lon="5.28153">
        <ele>1808.4</ele>
        <time>2026-05-14T10:31:37.999Z</time>
      </trkpt>
      <trkpt lat="44.17666" lon="5.28153">
        <ele>1808.1</ele>
        <time>2026-05-14T10:31:38.999Z</time>
      </trkpt>
      <trkpt lat="44.17666" lon="5.28154">
        <ele>1807.8</ele>
        <time>2026-05-14T10:31:39.999Z</time>
      </trkpt>
      <trkpt lat="44.17666" lon="5.28154">
        <ele>1807.9</ele>
        <time>2026-05-14T10:31:40.999Z</time>
      </trkpt>
      <trkpt lat="44.17666" lon="5.28154">
        <ele>1807.9</ele>
        <time>2026-05-14T10:31:41.999Z</time>
      </trkpt>
      <trkpt lat="44.17666" lon="5.28154">
        <ele>1808.2</ele>
        <time>2026-05-14T10:31:42.999Z</time>
      </trkpt>
      <trkpt lat="44.17666" lon="5.28154">
        <ele>1808.2</ele>
        <time>2026-05-14T10:31:43.999Z</time>
      </trkpt>
      <trkpt lat="44.17666" lon="5.28154">
        <ele>1808.1</ele>
        <time>2026-05-14T10:31:44.999Z</time>
      </trkpt>
      <trkpt lat="44.17666" lon="5.28154">
        <ele>1807.8</ele>
        <time>2026-05-14T10:31:45.999Z</time>
      </trkpt>
      <trkpt lat="44.17666" lon="5.28153">
        <ele>1808</ele>
        <time>2026-05-14T10:31:46.999Z</time>
      </trkpt>
      <trkpt lat="44.17666" lon="5.28151">
        <ele>1807.8</ele>
        <time>2026-05-14T10:31:47.999Z</time>
      </trkpt>
      <trkpt lat="44.17665" lon="5.28151">
        <ele>1807.4</ele>
        <time>2026-05-14T10:31:48.999Z</time>
      </trkpt>
      <trkpt lat="44.17665" lon="5.28151">
        <ele>1807.1</ele>
        <time>2026-05-14T10:31:49.999Z</time>
      </trkpt>
      <trkpt lat="44.17665" lon="5.28151">
        <ele>1807.3</ele>
        <time>2026-05-14T10:31:50.999Z</time>
      </trkpt>
      <trkpt lat="44.17665" lon="5.28151">
        <ele>1807.6</ele>
        <time>2026-05-14T10:31:51.999Z</time>
      </trkpt>
      <trkpt lat="44.17665" lon="5.28151">
        <ele>1807.9</ele>
        <time>2026-05-14T10:31:52.999Z</time>
      </trkpt>
      <trkpt lat="44.17665" lon="5.28151">
        <ele>1808</ele>
        <time>2026-05-14T10:31:53.999Z</time>
      </trkpt>
      <trkpt lat="44.17665" lon="5.28151">
        <ele>1808.1</ele>
        <time>2026-05-14T10:31:54.999Z</time>
      </trkpt>
      <trkpt lat="44.17665" lon="5.28151">
        <ele>1808.4</ele>
        <time>2026-05-14T10:31:55.999Z</time>
      </trkpt>
      <trkpt lat="44.17665" lon="5.28151">
        <ele>1808.7</ele>
        <time>2026-05-14T10:31:56.999Z</time>
      </trkpt>
      <trkpt lat="44.17665" lon="5.28151">
        <ele>1808.9</ele>
        <time>2026-05-14T10:31:57.999Z</time>
      </trkpt>
      <trkpt lat="44.17665" lon="5.2815">
        <ele>1809.9</ele>
        <time>2026-05-14T10:31:58.999Z</time>
      </trkpt>
      <trkpt lat="44.17665" lon="5.28149">
        <ele>1810.4</ele>
        <time>2026-05-14T10:31:59.999Z</time>
      </trkpt>
      <trkpt lat="44.17665" lon="5.28149">
        <ele>1810.4</ele>
        <time>2026-05-14T10:32:00.999Z</time>
      </trkpt>
      <trkpt lat="44.17665" lon="5.28149">
        <ele>1810.9</ele>
        <time>2026-05-14T10:32:01.999Z</time>
      </trkpt>
      <trkpt lat="44.17665" lon="5.28149">
        <ele>1811.4</ele>
        <time>2026-05-14T10:32:02.999Z</time>
      </trkpt>
      <trkpt lat="44.17666" lon="5.28149">
        <ele>1812.8</ele>
        <time>2026-05-14T10:32:03.999Z</time>
      </trkpt>
      <trkpt lat="44.17666" lon="5.28149">
        <ele>1813.9</ele>
        <time>2026-05-14T10:32:04.999Z</time>
      </trkpt>
      <trkpt lat="44.17667" lon="5.28149">
        <ele>1814.8</ele>
        <time>2026-05-14T10:32:05.999Z</time>
      </trkpt>
      <trkpt lat="44.17667" lon="5.28148">
        <ele>1815.9</ele>
        <time>2026-05-14T10:32:06.999Z</time>
      </trkpt>
      <trkpt lat="44.17668" lon="5.28149">
        <ele>1817</ele>
        <time>2026-05-14T10:32:07.999Z</time>
      </trkpt>
      <trkpt lat="44.17668" lon="5.28149">
        <ele>1817.4</ele>
        <time>2026-05-14T10:32:08.999Z</time>
      </trkpt>
      <trkpt lat="44.17667" lon="5.28149">
        <ele>1818.2</ele>
        <time>2026-05-14T10:32:09.999Z</time>
      </trkpt>
      <trkpt lat="44.17668" lon="5.28148">
        <ele>1818.5</ele>
        <time>2026-05-14T10:32:10.999Z</time>
      </trkpt>
      <trkpt lat="44.17668" lon="5.28146">
        <ele>1819.1</ele>
        <time>2026-05-14T10:32:11.999Z</time>
      </trkpt>
      <trkpt lat="44.17669" lon="5.28145">
        <ele>1819.4</ele>
        <time>2026-05-14T10:32:12.999Z</time>
      </trkpt>
      <trkpt lat="44.17668" lon="5.28145">
        <ele>1819.6</ele>
        <time>2026-05-14T10:32:13.999Z</time>
      </trkpt>
      <trkpt lat="44.17668" lon="5.28144">
        <ele>1819.9</ele>
        <time>2026-05-14T10:32:14.999Z</time>
      </trkpt>
      <trkpt lat="44.17667" lon="5.28143">
        <ele>1820.2</ele>
        <time>2026-05-14T10:32:15.999Z</time>
      </trkpt>
      <trkpt lat="44.17667" lon="5.28142">
        <ele>1821</ele>
        <time>2026-05-14T10:32:16.999Z</time>
      </trkpt>
      <trkpt lat="44.17666" lon="5.2814">
        <ele>1821.8</ele>
        <time>2026-05-14T10:32:17.999Z</time>
      </trkpt>
      <trkpt lat="44.17666" lon="5.28139">
        <ele>1822.5</ele>
        <time>2026-05-14T10:32:18.999Z</time>
      </trkpt>
      <trkpt lat="44.17666" lon="5.28138">
        <ele>1823.1</ele>
        <time>2026-05-14T10:32:19.999Z</time>
      </trkpt>
      <trkpt lat="44.17666" lon="5.28136">
        <ele>1823.7</ele>
        <time>2026-05-14T10:32:20.999Z</time>
      </trkpt>
      <trkpt lat="44.17666" lon="5.28135">
        <ele>1824.3</ele>
        <time>2026-05-14T10:32:21.999Z</time>
      </trkpt>
      <trkpt lat="44.17666" lon="5.28134">
        <ele>1825.2</ele>
        <time>2026-05-14T10:32:22.999Z</time>
      </trkpt>
      <trkpt lat="44.17665" lon="5.28133">
        <ele>1825.8</ele>
        <time>2026-05-14T10:32:23.999Z</time>
      </trkpt>
      <trkpt lat="44.17665" lon="5.28132">
        <ele>1826.3</ele>
        <time>2026-05-14T10:32:24.999Z</time>
      </trkpt>
      <trkpt lat="44.17665" lon="5.28132">
        <ele>1826.4</ele>
        <time>2026-05-14T10:32:25.999Z</time>
      </trkpt>
      <trkpt lat="44.17664" lon="5.2813">
        <ele>1826.9</ele>
        <time>2026-05-14T10:32:26.999Z</time>
      </trkpt>
      <trkpt lat="44.17664" lon="5.28129">
        <ele>1827.6</ele>
        <time>2026-05-14T10:32:27.999Z</time>
      </trkpt>
      <trkpt lat="44.17664" lon="5.28128">
        <ele>1827.7</ele>
        <time>2026-05-14T10:32:28.999Z</time>
      </trkpt>
      <trkpt lat="44.17664" lon="5.28127">
        <ele>1827.8</ele>
        <time>2026-05-14T10:32:29.999Z</time>
      </trkpt>
      <trkpt lat="44.17663" lon="5.28126">
        <ele>1828.5</ele>
        <time>2026-05-14T10:32:30.999Z</time>
      </trkpt>
      <trkpt lat="44.17664" lon="5.28124">
        <ele>1828.9</ele>
        <time>2026-05-14T10:32:31.999Z</time>
      </trkpt>
      <trkpt lat="44.17663" lon="5.28124">
        <ele>1829.6</ele>
        <time>2026-05-14T10:32:32.999Z</time>
      </trkpt>
      <trkpt lat="44.17663" lon="5.28124">
        <ele>1830</ele>
        <time>2026-05-14T10:32:33.999Z</time>
      </trkpt>
      <trkpt lat="44.17662" lon="5.28123">
        <ele>1829.9</ele>
        <time>2026-05-14T10:32:34.999Z</time>
      </trkpt>
      <trkpt lat="44.17662" lon="5.28123">
        <ele>1829.7</ele>
        <time>2026-05-14T10:32:35.999Z</time>
      </trkpt>
      <trkpt lat="44.17663" lon="5.28122">
        <ele>1829.7</ele>
        <time>2026-05-14T10:32:36.999Z</time>
      </trkpt>
      <trkpt lat="44.17663" lon="5.28121">
        <ele>1829.9</ele>
        <time>2026-05-14T10:32:37.999Z</time>
      </trkpt>
      <trkpt lat="44.17663" lon="5.2812">
        <ele>1830.2</ele>
        <time>2026-05-14T10:32:38.999Z</time>
      </trkpt>
      <trkpt lat="44.17663" lon="5.28118">
        <ele>1829.9</ele>
        <time>2026-05-14T10:32:39.999Z</time>
      </trkpt>
      <trkpt lat="44.17663" lon="5.28117">
        <ele>1829.9</ele>
        <time>2026-05-14T10:32:40.999Z</time>
      </trkpt>
      <trkpt lat="44.17664" lon="5.28116">
        <ele>1829.9</ele>
        <time>2026-05-14T10:32:41.999Z</time>
      </trkpt>
      <trkpt lat="44.17664" lon="5.28115">
        <ele>1829.8</ele>
        <time>2026-05-14T10:32:42.999Z</time>
      </trkpt>
      <trkpt lat="44.17664" lon="5.28115">
        <ele>1829.8</ele>
        <time>2026-05-14T10:32:43.999Z</time>
      </trkpt>
      <trkpt lat="44.17663" lon="5.28114">
        <ele>1830</ele>
        <time>2026-05-14T10:32:44.999Z</time>
      </trkpt>
      <trkpt lat="44.17663" lon="5.28113">
        <ele>1830.2</ele>
        <time>2026-05-14T10:32:45.999Z</time>
      </trkpt>
      <trkpt lat="44.17662" lon="5.28112">
        <ele>1830.5</ele>
        <time>2026-05-14T10:32:46.999Z</time>
      </trkpt>
      <trkpt lat="44.17662" lon="5.28111">
        <ele>1830.8</ele>
        <time>2026-05-14T10:32:47.999Z</time>
      </trkpt>
      <trkpt lat="44.17662" lon="5.2811">
        <ele>1831.1</ele>
        <time>2026-05-14T10:32:48.999Z</time>
      </trkpt>
      <trkpt lat="44.17662" lon="5.28109">
        <ele>1831.1</ele>
        <time>2026-05-14T10:32:49.999Z</time>
      </trkpt>
      <trkpt lat="44.17663" lon="5.28109">
        <ele>1831.2</ele>
        <time>2026-05-14T10:32:50.999Z</time>
      </trkpt>
      <trkpt lat="44.17662" lon="5.28108">
        <ele>1831.5</ele>
        <time>2026-05-14T10:32:51.999Z</time>
      </trkpt>
      <trkpt lat="44.17662" lon="5.28107">
        <ele>1832</ele>
        <time>2026-05-14T10:32:52.999Z</time>
      </trkpt>
      <trkpt lat="44.17662" lon="5.28107">
        <ele>1832.4</ele>
        <time>2026-05-14T10:32:53.999Z</time>
      </trkpt>
      <trkpt lat="44.17662" lon="5.28106">
        <ele>1832.6</ele>
        <time>2026-05-14T10:32:54.999Z</time>
      </trkpt>
      <trkpt lat="44.17662" lon="5.28106">
        <ele>1832.6</ele>
        <time>2026-05-14T10:32:55.999Z</time>
      </trkpt>
      <trkpt lat="44.17662" lon="5.28105">
        <ele>1832.4</ele>
        <time>2026-05-14T10:32:56.999Z</time>
      </trkpt>
      <trkpt lat="44.17662" lon="5.28104">
        <ele>1832.4</ele>
        <time>2026-05-14T10:32:57.999Z</time>
      </trkpt>
      <trkpt lat="44.17663" lon="5.28103">
        <ele>1832.3</ele>
        <time>2026-05-14T10:32:58.999Z</time>
      </trkpt>
      <trkpt lat="44.17663" lon="5.28101">
        <ele>1832.3</ele>
        <time>2026-05-14T10:32:59.999Z</time>
      </trkpt>
      <trkpt lat="44.17663" lon="5.28101">
        <ele>1832.5</ele>
        <time>2026-05-14T10:33:00.999Z</time>
      </trkpt>
      <trkpt lat="44.17663" lon="5.281">
        <ele>1833.2</ele>
        <time>2026-05-14T10:33:01.999Z</time>
      </trkpt>
      <trkpt lat="44.17663" lon="5.281">
        <ele>1833.4</ele>
        <time>2026-05-14T10:33:02.999Z</time>
      </trkpt>
      <trkpt lat="44.17663" lon="5.28099">
        <ele>1833.2</ele>
        <time>2026-05-14T10:33:03.999Z</time>
      </trkpt>
      <trkpt lat="44.17662" lon="5.28099">
        <ele>1833.2</ele>
        <time>2026-05-14T10:33:04.999Z</time>
      </trkpt>
      <trkpt lat="44.17661" lon="5.28098">
        <ele>1833.3</ele>
        <time>2026-05-14T10:33:05.999Z</time>
      </trkpt>
      <trkpt lat="44.17661" lon="5.28097">
        <ele>1833.2</ele>
        <time>2026-05-14T10:33:06.999Z</time>
      </trkpt>
      <trkpt lat="44.1766" lon="5.28097">
        <ele>1833.3</ele>
        <time>2026-05-14T10:33:07.999Z</time>
      </trkpt>
      <trkpt lat="44.1766" lon="5.28095">
        <ele>1833.7</ele>
        <time>2026-05-14T10:33:08.999Z</time>
      </trkpt>
      <trkpt lat="44.17659" lon="5.28094">
        <ele>1834</ele>
        <time>2026-05-14T10:33:09.999Z</time>
      </trkpt>
      <trkpt lat="44.17659" lon="5.28094">
        <ele>1833.7</ele>
        <time>2026-05-14T10:33:10.999Z</time>
      </trkpt>
      <trkpt lat="44.17659" lon="5.28093">
        <ele>1833.4</ele>
        <time>2026-05-14T10:33:11.999Z</time>
      </trkpt>
      <trkpt lat="44.17659" lon="5.28092">
        <ele>1833.5</ele>
        <time>2026-05-14T10:33:12.999Z</time>
      </trkpt>
      <trkpt lat="44.17659" lon="5.28092">
        <ele>1833.7</ele>
        <time>2026-05-14T10:33:13.999Z</time>
      </trkpt>
      <trkpt lat="44.17658" lon="5.28091">
        <ele>1833.8</ele>
        <time>2026-05-14T10:33:14.999Z</time>
      </trkpt>
      <trkpt lat="44.17658" lon="5.2809">
        <ele>1834.4</ele>
        <time>2026-05-14T10:33:15.999Z</time>
      </trkpt>
      <trkpt lat="44.17657" lon="5.28089">
        <ele>1835.2</ele>
        <time>2026-05-14T10:33:16.999Z</time>
      </trkpt>
      <trkpt lat="44.17657" lon="5.28089">
        <ele>1835.3</ele>
        <time>2026-05-14T10:33:17.999Z</time>
      </trkpt>
      <trkpt lat="44.17657" lon="5.28089">
        <ele>1835.1</ele>
        <time>2026-05-14T10:33:18.999Z</time>
      </trkpt>
      <trkpt lat="44.17657" lon="5.28089">
        <ele>1834.8</ele>
        <time>2026-05-14T10:33:19.999Z</time>
      </trkpt>
      <trkpt lat="44.17657" lon="5.28089">
        <ele>1834.8</ele>
        <time>2026-05-14T10:33:20.999Z</time>
      </trkpt>
      <trkpt lat="44.17657" lon="5.28089">
        <ele>1834.9</ele>
        <time>2026-05-14T10:33:21.999Z</time>
      </trkpt>
      <trkpt lat="44.17658" lon="5.28088">
        <ele>1835.1</ele>
        <time>2026-05-14T10:33:22.999Z</time>
      </trkpt>
      <trkpt lat="44.17657" lon="5.28088">
        <ele>1835.2</ele>
        <time>2026-05-14T10:33:23.999Z</time>
      </trkpt>
      <trkpt lat="44.17657" lon="5.28087">
        <ele>1835.2</ele>
        <time>2026-05-14T10:33:24.999Z</time>
      </trkpt>
      <trkpt lat="44.17656" lon="5.28087">
        <ele>1835.1</ele>
        <time>2026-05-14T10:33:25.999Z</time>
      </trkpt>
      <trkpt lat="44.17656" lon="5.28086">
        <ele>1835.1</ele>
        <time>2026-05-14T10:33:26.999Z</time>
      </trkpt>
      <trkpt lat="44.17656" lon="5.28085">
        <ele>1835</ele>
        <time>2026-05-14T10:33:27.999Z</time>
      </trkpt>
      <trkpt lat="44.17656" lon="5.28084">
        <ele>1834.8</ele>
        <time>2026-05-14T10:33:28.999Z</time>
      </trkpt>
      <trkpt lat="44.17655" lon="5.28083">
        <ele>1834.9</ele>
        <time>2026-05-14T10:33:29.999Z</time>
      </trkpt>
      <trkpt lat="44.17654" lon="5.2808">
        <ele>1834.7</ele>
        <time>2026-05-14T10:33:30.999Z</time>
      </trkpt>
      <trkpt lat="44.17654" lon="5.28078">
        <ele>1834.6</ele>
        <time>2026-05-14T10:33:31.999Z</time>
      </trkpt>
      <trkpt lat="44.17654" lon="5.28077">
        <ele>1834.4</ele>
        <time>2026-05-14T10:33:32.999Z</time>
      </trkpt>
      <trkpt lat="44.17654" lon="5.28075">
        <ele>1834.3</ele>
        <time>2026-05-14T10:33:33.999Z</time>
      </trkpt>
      <trkpt lat="44.17655" lon="5.28076">
        <ele>1833.7</ele>
        <time>2026-05-14T10:33:34.999Z</time>
      </trkpt>
      <trkpt lat="44.17654" lon="5.28076">
        <ele>1833.8</ele>
        <time>2026-05-14T10:33:35.999Z</time>
      </trkpt>
      <trkpt lat="44.17654" lon="5.28075">
        <ele>1834.6</ele>
        <time>2026-05-14T10:33:36.999Z</time>
      </trkpt>
      <trkpt lat="44.17653" lon="5.28075">
        <ele>1834.7</ele>
        <time>2026-05-14T10:33:37.999Z</time>
      </trkpt>
      <trkpt lat="44.17653" lon="5.28073">
        <ele>1835</ele>
        <time>2026-05-14T10:33:38.999Z</time>
      </trkpt>
      <trkpt lat="44.17652" lon="5.28071">
        <ele>1835.2</ele>
        <time>2026-05-14T10:33:39.999Z</time>
      </trkpt>
      <trkpt lat="44.17651" lon="5.2807">
        <ele>1835.7</ele>
        <time>2026-05-14T10:33:40.999Z</time>
      </trkpt>
      <trkpt lat="44.17651" lon="5.28068">
        <ele>1836.3</ele>
        <time>2026-05-14T10:33:41.999Z</time>
      </trkpt>
      <trkpt lat="44.17651" lon="5.28066">
        <ele>1837.2</ele>
        <time>2026-05-14T10:33:42.999Z</time>
      </trkpt>
      <trkpt lat="44.1765" lon="5.28065">
        <ele>1837.5</ele>
        <time>2026-05-14T10:33:43.999Z</time>
      </trkpt>
      <trkpt lat="44.1765" lon="5.28064">
        <ele>1837.8</ele>
        <time>2026-05-14T10:33:44.999Z</time>
      </trkpt>
      <trkpt lat="44.1765" lon="5.28064">
        <ele>1838.5</ele>
        <time>2026-05-14T10:33:45.999Z</time>
      </trkpt>
      <trkpt lat="44.1765" lon="5.28063">
        <ele>1839.2</ele>
        <time>2026-05-14T10:33:46.999Z</time>
      </trkpt>
      <trkpt lat="44.17649" lon="5.28062">
        <ele>1840.2</ele>
        <time>2026-05-14T10:33:47.999Z</time>
      </trkpt>
      <trkpt lat="44.17649" lon="5.28061">
        <ele>1840.7</ele>
        <time>2026-05-14T10:33:48.999Z</time>
      </trkpt>
      <trkpt lat="44.17649" lon="5.2806">
        <ele>1840.8</ele>
        <time>2026-05-14T10:33:49.999Z</time>
      </trkpt>
      <trkpt lat="44.17648" lon="5.28059">
        <ele>1841.2</ele>
        <time>2026-05-14T10:33:50.999Z</time>
      </trkpt>
      <trkpt lat="44.17647" lon="5.28059">
        <ele>1841.4</ele>
        <time>2026-05-14T10:33:51.999Z</time>
      </trkpt>
      <trkpt lat="44.17647" lon="5.28058">
        <ele>1841.7</ele>
        <time>2026-05-14T10:33:52.999Z</time>
      </trkpt>
      <trkpt lat="44.17646" lon="5.28056">
        <ele>1842</ele>
        <time>2026-05-14T10:33:53.999Z</time>
      </trkpt>
      <trkpt lat="44.17646" lon="5.28056">
        <ele>1842.6</ele>
        <time>2026-05-14T10:33:54.999Z</time>
      </trkpt>
      <trkpt lat="44.17645" lon="5.28055">
        <ele>1843.5</ele>
        <time>2026-05-14T10:33:55.999Z</time>
      </trkpt>
      <trkpt lat="44.17645" lon="5.28054">
        <ele>1844.1</ele>
        <time>2026-05-14T10:33:56.999Z</time>
      </trkpt>
      <trkpt lat="44.17644" lon="5.28054">
        <ele>1844.2</ele>
        <time>2026-05-14T10:33:57.999Z</time>
      </trkpt>
      <trkpt lat="44.17644" lon="5.28053">
        <ele>1845.1</ele>
        <time>2026-05-14T10:33:58.999Z</time>
      </trkpt>
      <trkpt lat="44.17643" lon="5.28051">
        <ele>1845.5</ele>
        <time>2026-05-14T10:33:59.999Z</time>
      </trkpt>
      <trkpt lat="44.17643" lon="5.2805">
        <ele>1845.4</ele>
        <time>2026-05-14T10:34:00.999Z</time>
      </trkpt>
      <trkpt lat="44.17642" lon="5.28049">
        <ele>1845.8</ele>
        <time>2026-05-14T10:34:01.999Z</time>
      </trkpt>
      <trkpt lat="44.17642" lon="5.28048">
        <ele>1846.2</ele>
        <time>2026-05-14T10:34:02.999Z</time>
      </trkpt>
      <trkpt lat="44.17642" lon="5.28048">
        <ele>1846.6</ele>
        <time>2026-05-14T10:34:03.999Z</time>
      </trkpt>
      <trkpt lat="44.17642" lon="5.28047">
        <ele>1846.8</ele>
        <time>2026-05-14T10:34:04.999Z</time>
      </trkpt>
      <trkpt lat="44.17642" lon="5.28046">
        <ele>1847.1</ele>
        <time>2026-05-14T10:34:05.999Z</time>
      </trkpt>
      <trkpt lat="44.17641" lon="5.28045">
        <ele>1847.2</ele>
        <time>2026-05-14T10:34:06.999Z</time>
      </trkpt>
      <trkpt lat="44.17641" lon="5.28044">
        <ele>1847.2</ele>
        <time>2026-05-14T10:34:07.999Z</time>
      </trkpt>
      <trkpt lat="44.1764" lon="5.28043">
        <ele>1847.3</ele>
        <time>2026-05-14T10:34:08.999Z</time>
      </trkpt>
      <trkpt lat="44.1764" lon="5.28043">
        <ele>1847.3</ele>
        <time>2026-05-14T10:34:09.999Z</time>
      </trkpt>
      <trkpt lat="44.1764" lon="5.28043">
        <ele>1847.6</ele>
        <time>2026-05-14T10:34:10.999Z</time>
      </trkpt>
      <trkpt lat="44.1764" lon="5.28042">
        <ele>1848.1</ele>
        <time>2026-05-14T10:34:11.999Z</time>
      </trkpt>
      <trkpt lat="44.1764" lon="5.28042">
        <ele>1848.2</ele>
        <time>2026-05-14T10:34:12.999Z</time>
      </trkpt>
      <trkpt lat="44.1764" lon="5.28041">
        <ele>1848.6</ele>
        <time>2026-05-14T10:34:13.999Z</time>
      </trkpt>
      <trkpt lat="44.1764" lon="5.28039">
        <ele>1849.4</ele>
        <time>2026-05-14T10:34:14.999Z</time>
      </trkpt>
      <trkpt lat="44.17639" lon="5.28039">
        <ele>1850.1</ele>
        <time>2026-05-14T10:34:15.999Z</time>
      </trkpt>
      <trkpt lat="44.17639" lon="5.28038">
        <ele>1850.6</ele>
        <time>2026-05-14T10:34:16.999Z</time>
      </trkpt>
      <trkpt lat="44.17639" lon="5.28037">
        <ele>1850.6</ele>
        <time>2026-05-14T10:34:17.999Z</time>
      </trkpt>
      <trkpt lat="44.1764" lon="5.28036">
        <ele>1850.6</ele>
        <time>2026-05-14T10:34:18.999Z</time>
      </trkpt>
      <trkpt lat="44.17639" lon="5.28034">
        <ele>1851.6</ele>
        <time>2026-05-14T10:34:19.999Z</time>
      </trkpt>
      <trkpt lat="44.17638" lon="5.28034">
        <ele>1852</ele>
        <time>2026-05-14T10:34:20.999Z</time>
      </trkpt>
      <trkpt lat="44.17638" lon="5.28033">
        <ele>1852.5</ele>
        <time>2026-05-14T10:34:21.999Z</time>
      </trkpt>
      <trkpt lat="44.17637" lon="5.28032">
        <ele>1853.2</ele>
        <time>2026-05-14T10:34:22.999Z</time>
      </trkpt>
      <trkpt lat="44.17637" lon="5.28031">
        <ele>1853.4</ele>
        <time>2026-05-14T10:34:23.999Z</time>
      </trkpt>
      <trkpt lat="44.17636" lon="5.28031">
        <ele>1853.5</ele>
        <time>2026-05-14T10:34:24.999Z</time>
      </trkpt>
      <trkpt lat="44.17636" lon="5.2803">
        <ele>1853.4</ele>
        <time>2026-05-14T10:34:25.999Z</time>
      </trkpt>
      <trkpt lat="44.17637" lon="5.2803">
        <ele>1853.1</ele>
        <time>2026-05-14T10:34:26.999Z</time>
      </trkpt>
      <trkpt lat="44.17637" lon="5.28029">
        <ele>1853</ele>
        <time>2026-05-14T10:34:27.999Z</time>
      </trkpt>
      <trkpt lat="44.17637" lon="5.28029">
        <ele>1853</ele>
        <time>2026-05-14T10:34:28.999Z</time>
      </trkpt>
      <trkpt lat="44.17637" lon="5.28028">
        <ele>1853</ele>
        <time>2026-05-14T10:34:29.999Z</time>
      </trkpt>
      <trkpt lat="44.17637" lon="5.28026">
        <ele>1853.1</ele>
        <time>2026-05-14T10:34:30.999Z</time>
      </trkpt>
      <trkpt lat="44.17637" lon="5.28026">
        <ele>1853.2</ele>
        <time>2026-05-14T10:34:31.999Z</time>
      </trkpt>
      <trkpt lat="44.17636" lon="5.28023">
        <ele>1853.7</ele>
        <time>2026-05-14T10:34:32.999Z</time>
      </trkpt>
      <trkpt lat="44.17636" lon="5.28022">
        <ele>1854</ele>
        <time>2026-05-14T10:34:33.999Z</time>
      </trkpt>
      <trkpt lat="44.17635" lon="5.28021">
        <ele>1854.5</ele>
        <time>2026-05-14T10:34:34.999Z</time>
      </trkpt>
      <trkpt lat="44.17634" lon="5.28019">
        <ele>1855</ele>
        <time>2026-05-14T10:34:35.999Z</time>
      </trkpt>
      <trkpt lat="44.17633" lon="5.28018">
        <ele>1855.2</ele>
        <time>2026-05-14T10:34:36.999Z</time>
      </trkpt>
      <trkpt lat="44.17632" lon="5.28018">
        <ele>1855.3</ele>
        <time>2026-05-14T10:34:37.999Z</time>
      </trkpt>
      <trkpt lat="44.17632" lon="5.28017">
        <ele>1855.3</ele>
        <time>2026-05-14T10:34:38.999Z</time>
      </trkpt>
      <trkpt lat="44.17631" lon="5.28016">
        <ele>1855.4</ele>
        <time>2026-05-14T10:34:39.999Z</time>
      </trkpt>
      <trkpt lat="44.1763" lon="5.28015">
        <ele>1855.4</ele>
        <time>2026-05-14T10:34:40.999Z</time>
      </trkpt>
      <trkpt lat="44.1763" lon="5.28015">
        <ele>1854.8</ele>
        <time>2026-05-14T10:34:41.999Z</time>
      </trkpt>
      <trkpt lat="44.1763" lon="5.28015">
        <ele>1854.5</ele>
        <time>2026-05-14T10:34:42.999Z</time>
      </trkpt>
      <trkpt lat="44.1763" lon="5.28014">
        <ele>1854.3</ele>
        <time>2026-05-14T10:34:43.999Z</time>
      </trkpt>
      <trkpt lat="44.1763" lon="5.28013">
        <ele>1854.1</ele>
        <time>2026-05-14T10:34:44.999Z</time>
      </trkpt>
      <trkpt lat="44.1763" lon="5.28013">
        <ele>1853.7</ele>
        <time>2026-05-14T10:34:45.999Z</time>
      </trkpt>
      <trkpt lat="44.1763" lon="5.28013">
        <ele>1853.6</ele>
        <time>2026-05-14T10:34:46.999Z</time>
      </trkpt>
      <trkpt lat="44.1763" lon="5.28013">
        <ele>1853.4</ele>
        <time>2026-05-14T10:34:47.999Z</time>
      </trkpt>
      <trkpt lat="44.1763" lon="5.28013">
        <ele>1853.4</ele>
        <time>2026-05-14T10:34:48.999Z</time>
      </trkpt>
      <trkpt lat="44.1763" lon="5.28013">
        <ele>1853.2</ele>
        <time>2026-05-14T10:34:49.999Z</time>
      </trkpt>
      <trkpt lat="44.1763" lon="5.28013">
        <ele>1852.4</ele>
        <time>2026-05-14T10:34:50.999Z</time>
      </trkpt>
      <trkpt lat="44.1763" lon="5.28014">
        <ele>1851.7</ele>
        <time>2026-05-14T10:34:51.999Z</time>
      </trkpt>
      <trkpt lat="44.1763" lon="5.28014">
        <ele>1851.4</ele>
        <time>2026-05-14T10:34:52.999Z</time>
      </trkpt>
      <trkpt lat="44.1763" lon="5.28013">
        <ele>1851.2</ele>
        <time>2026-05-14T10:34:53.999Z</time>
      </trkpt>
      <trkpt lat="44.17631" lon="5.28011">
        <ele>1851.2</ele>
        <time>2026-05-14T10:34:54.999Z</time>
      </trkpt>
      <trkpt lat="44.17631" lon="5.28011">
        <ele>1852.2</ele>
        <time>2026-05-14T10:34:55.999Z</time>
      </trkpt>
      <trkpt lat="44.17631" lon="5.2801">
        <ele>1852.6</ele>
        <time>2026-05-14T10:34:56.999Z</time>
      </trkpt>
      <trkpt lat="44.1763" lon="5.28009">
        <ele>1852.9</ele>
        <time>2026-05-14T10:34:57.999Z</time>
      </trkpt>
      <trkpt lat="44.1763" lon="5.28007">
        <ele>1853.4</ele>
        <time>2026-05-14T10:34:58.999Z</time>
      </trkpt>
      <trkpt lat="44.1763" lon="5.28006">
        <ele>1853.9</ele>
        <time>2026-05-14T10:34:59.999Z</time>
      </trkpt>
      <trkpt lat="44.17629" lon="5.28005">
        <ele>1854.2</ele>
        <time>2026-05-14T10:35:00.999Z</time>
      </trkpt>
      <trkpt lat="44.17629" lon="5.28004">
        <ele>1854.4</ele>
        <time>2026-05-14T10:35:01.999Z</time>
      </trkpt>
      <trkpt lat="44.17629" lon="5.28002">
        <ele>1854.5</ele>
        <time>2026-05-14T10:35:02.999Z</time>
      </trkpt>
      <trkpt lat="44.17628" lon="5.28001">
        <ele>1854.3</ele>
        <time>2026-05-14T10:35:03.999Z</time>
      </trkpt>
      <trkpt lat="44.17628" lon="5.28">
        <ele>1854.2</ele>
        <time>2026-05-14T10:35:04.999Z</time>
      </trkpt>
      <trkpt lat="44.17628" lon="5.27999">
        <ele>1854.1</ele>
        <time>2026-05-14T10:35:05.999Z</time>
      </trkpt>
      <trkpt lat="44.17628" lon="5.27998">
        <ele>1854</ele>
        <time>2026-05-14T10:35:06.999Z</time>
      </trkpt>
      <trkpt lat="44.17627" lon="5.27997">
        <ele>1854.5</ele>
        <time>2026-05-14T10:35:07.999Z</time>
      </trkpt>
      <trkpt lat="44.17627" lon="5.27997">
        <ele>1854.6</ele>
        <time>2026-05-14T10:35:08.999Z</time>
      </trkpt>
      <trkpt lat="44.17627" lon="5.27996">
        <ele>1855</ele>
        <time>2026-05-14T10:35:09.999Z</time>
      </trkpt>
      <trkpt lat="44.17626" lon="5.27996">
        <ele>1855.1</ele>
        <time>2026-05-14T10:35:10.999Z</time>
      </trkpt>
      <trkpt lat="44.17626" lon="5.27995">
        <ele>1855.1</ele>
        <time>2026-05-14T10:35:11.999Z</time>
      </trkpt>
      <trkpt lat="44.17626" lon="5.27994">
        <ele>1855.3</ele>
        <time>2026-05-14T10:35:12.999Z</time>
      </trkpt>
      <trkpt lat="44.17625" lon="5.27992">
        <ele>1855.8</ele>
        <time>2026-05-14T10:35:13.999Z</time>
      </trkpt>
      <trkpt lat="44.17624" lon="5.27992">
        <ele>1856</ele>
        <time>2026-05-14T10:35:14.999Z</time>
      </trkpt>
      <trkpt lat="44.17624" lon="5.27992">
        <ele>1856.2</ele>
        <time>2026-05-14T10:35:15.999Z</time>
      </trkpt>
      <trkpt lat="44.17624" lon="5.27992">
        <ele>1856.2</ele>
        <time>2026-05-14T10:35:16.999Z</time>
      </trkpt>
      <trkpt lat="44.17624" lon="5.27992">
        <ele>1856.3</ele>
        <time>2026-05-14T10:35:17.999Z</time>
      </trkpt>
      <trkpt lat="44.17624" lon="5.27991">
        <ele>1856.1</ele>
        <time>2026-05-14T10:35:18.999Z</time>
      </trkpt>
      <trkpt lat="44.17624" lon="5.27991">
        <ele>1856.1</ele>
        <time>2026-05-14T10:35:19.999Z</time>
      </trkpt>
      <trkpt lat="44.17623" lon="5.27991">
        <ele>1855.9</ele>
        <time>2026-05-14T10:35:20.999Z</time>
      </trkpt>
      <trkpt lat="44.17623" lon="5.2799">
        <ele>1855.7</ele>
        <time>2026-05-14T10:35:21.999Z</time>
      </trkpt>
      <trkpt lat="44.17623" lon="5.2799">
        <ele>1855.5</ele>
        <time>2026-05-14T10:35:22.999Z</time>
      </trkpt>
      <trkpt lat="44.17622" lon="5.27989">
        <ele>1855.6</ele>
        <time>2026-05-14T10:35:23.999Z</time>
      </trkpt>
      <trkpt lat="44.17622" lon="5.27988">
        <ele>1855.9</ele>
        <time>2026-05-14T10:35:24.999Z</time>
      </trkpt>
      <trkpt lat="44.17621" lon="5.27987">
        <ele>1856.1</ele>
        <time>2026-05-14T10:35:25.999Z</time>
      </trkpt>
      <trkpt lat="44.17621" lon="5.27986">
        <ele>1856.2</ele>
        <time>2026-05-14T10:35:26.999Z</time>
      </trkpt>
      <trkpt lat="44.17621" lon="5.27985">
        <ele>1856.1</ele>
        <time>2026-05-14T10:35:27.999Z</time>
      </trkpt>
      <trkpt lat="44.1762" lon="5.27985">
        <ele>1856.5</ele>
        <time>2026-05-14T10:35:28.999Z</time>
      </trkpt>
      <trkpt lat="44.1762" lon="5.27984">
        <ele>1856.9</ele>
        <time>2026-05-14T10:35:29.999Z</time>
      </trkpt>
      <trkpt lat="44.17619" lon="5.27982">
        <ele>1857.5</ele>
        <time>2026-05-14T10:35:30.999Z</time>
      </trkpt>
      <trkpt lat="44.17619" lon="5.27982">
        <ele>1857.8</ele>
        <time>2026-05-14T10:35:31.999Z</time>
      </trkpt>
      <trkpt lat="44.17619" lon="5.27982">
        <ele>1858</ele>
        <time>2026-05-14T10:35:32.999Z</time>
      </trkpt>
      <trkpt lat="44.17618" lon="5.27982">
        <ele>1858.1</ele>
        <time>2026-05-14T10:35:33.999Z</time>
      </trkpt>
      <trkpt lat="44.17618" lon="5.27982">
        <ele>1857.9</ele>
        <time>2026-05-14T10:35:34.999Z</time>
      </trkpt>
      <trkpt lat="44.17618" lon="5.27982">
        <ele>1857.9</ele>
        <time>2026-05-14T10:35:35.999Z</time>
      </trkpt>
      <trkpt lat="44.17618" lon="5.27981">
        <ele>1858.2</ele>
        <time>2026-05-14T10:35:36.999Z</time>
      </trkpt>
      <trkpt lat="44.17617" lon="5.27979">
        <ele>1858.7</ele>
        <time>2026-05-14T10:35:37.999Z</time>
      </trkpt>
      <trkpt lat="44.17616" lon="5.27979">
        <ele>1858.9</ele>
        <time>2026-05-14T10:35:38.999Z</time>
      </trkpt>
      <trkpt lat="44.17616" lon="5.27979">
        <ele>1859</ele>
        <time>2026-05-14T10:35:39.999Z</time>
      </trkpt>
      <trkpt lat="44.17615" lon="5.27977">
        <ele>1859.3</ele>
        <time>2026-05-14T10:35:40.999Z</time>
      </trkpt>
      <trkpt lat="44.17615" lon="5.27975">
        <ele>1859.9</ele>
        <time>2026-05-14T10:35:41.999Z</time>
      </trkpt>
      <trkpt lat="44.17614" lon="5.27974">
        <ele>1860.2</ele>
        <time>2026-05-14T10:35:42.999Z</time>
      </trkpt>
      <trkpt lat="44.17614" lon="5.27973">
        <ele>1860.5</ele>
        <time>2026-05-14T10:35:43.999Z</time>
      </trkpt>
      <trkpt lat="44.17614" lon="5.27972">
        <ele>1860.6</ele>
        <time>2026-05-14T10:35:44.999Z</time>
      </trkpt>
      <trkpt lat="44.17614" lon="5.27972">
        <ele>1860.9</ele>
        <time>2026-05-14T10:35:45.999Z</time>
      </trkpt>
      <trkpt lat="44.17614" lon="5.27971">
        <ele>1861</ele>
        <time>2026-05-14T10:35:46.999Z</time>
      </trkpt>
      <trkpt lat="44.17613" lon="5.27969">
        <ele>1861.8</ele>
        <time>2026-05-14T10:35:47.999Z</time>
      </trkpt>
      <trkpt lat="44.17613" lon="5.27969">
        <ele>1862</ele>
        <time>2026-05-14T10:35:48.999Z</time>
      </trkpt>
      <trkpt lat="44.17613" lon="5.27967">
        <ele>1862.3</ele>
        <time>2026-05-14T10:35:49.999Z</time>
      </trkpt>
      <trkpt lat="44.17612" lon="5.27967">
        <ele>1862.4</ele>
        <time>2026-05-14T10:35:50.999Z</time>
      </trkpt>
      <trkpt lat="44.17611" lon="5.27966">
        <ele>1862.4</ele>
        <time>2026-05-14T10:35:51.999Z</time>
      </trkpt>
      <trkpt lat="44.1761" lon="5.27966">
        <ele>1862.3</ele>
        <time>2026-05-14T10:35:52.999Z</time>
      </trkpt>
      <trkpt lat="44.1761" lon="5.27965">
        <ele>1862.5</ele>
        <time>2026-05-14T10:35:53.999Z</time>
      </trkpt>
      <trkpt lat="44.1761" lon="5.27965">
        <ele>1862.5</ele>
        <time>2026-05-14T10:35:54.999Z</time>
      </trkpt>
      <trkpt lat="44.1761" lon="5.27964">
        <ele>1862.4</ele>
        <time>2026-05-14T10:35:55.999Z</time>
      </trkpt>
      <trkpt lat="44.17609" lon="5.27964">
        <ele>1862.4</ele>
        <time>2026-05-14T10:35:56.999Z</time>
      </trkpt>
      <trkpt lat="44.17609" lon="5.27963">
        <ele>1862.6</ele>
        <time>2026-05-14T10:35:57.999Z</time>
      </trkpt>
      <trkpt lat="44.17609" lon="5.27963">
        <ele>1862.7</ele>
        <time>2026-05-14T10:35:58.999Z</time>
      </trkpt>
      <trkpt lat="44.17608" lon="5.27963">
        <ele>1862.9</ele>
        <time>2026-05-14T10:35:59.999Z</time>
      </trkpt>
      <trkpt lat="44.17608" lon="5.27962">
        <ele>1862.6</ele>
        <time>2026-05-14T10:36:00.999Z</time>
      </trkpt>
      <trkpt lat="44.17608" lon="5.27962">
        <ele>1862.2</ele>
        <time>2026-05-14T10:36:01.999Z</time>
      </trkpt>
      <trkpt lat="44.17608" lon="5.2796">
        <ele>1862.4</ele>
        <time>2026-05-14T10:36:02.999Z</time>
      </trkpt>
      <trkpt lat="44.17607" lon="5.27959">
        <ele>1862.6</ele>
        <time>2026-05-14T10:36:03.999Z</time>
      </trkpt>
      <trkpt lat="44.17607" lon="5.27958">
        <ele>1862.6</ele>
        <time>2026-05-14T10:36:04.999Z</time>
      </trkpt>
      <trkpt lat="44.17607" lon="5.27958">
        <ele>1862.5</ele>
        <time>2026-05-14T10:36:05.999Z</time>
      </trkpt>
      <trkpt lat="44.17607" lon="5.27957">
        <ele>1862.7</ele>
        <time>2026-05-14T10:36:06.999Z</time>
      </trkpt>
      <trkpt lat="44.17607" lon="5.27957">
        <ele>1862.8</ele>
        <time>2026-05-14T10:36:07.999Z</time>
      </trkpt>
      <trkpt lat="44.17607" lon="5.27957">
        <ele>1863</ele>
        <time>2026-05-14T10:36:08.999Z</time>
      </trkpt>
      <trkpt lat="44.17607" lon="5.27957">
        <ele>1862.8</ele>
        <time>2026-05-14T10:36:09.999Z</time>
      </trkpt>
      <trkpt lat="44.17606" lon="5.27957">
        <ele>1862.8</ele>
        <time>2026-05-14T10:36:10.999Z</time>
      </trkpt>
      <trkpt lat="44.17606" lon="5.27955">
        <ele>1862.7</ele>
        <time>2026-05-14T10:36:11.999Z</time>
      </trkpt>
      <trkpt lat="44.17605" lon="5.27953">
        <ele>1863</ele>
        <time>2026-05-14T10:36:12.999Z</time>
      </trkpt>
      <trkpt lat="44.17604" lon="5.27951">
        <ele>1863.7</ele>
        <time>2026-05-14T10:36:13.999Z</time>
      </trkpt>
      <trkpt lat="44.17603" lon="5.27949">
        <ele>1864.5</ele>
        <time>2026-05-14T10:36:14.999Z</time>
      </trkpt>
      <trkpt lat="44.17603" lon="5.27947">
        <ele>1865</ele>
        <time>2026-05-14T10:36:15.999Z</time>
      </trkpt>
      <trkpt lat="44.17602" lon="5.27946">
        <ele>1865.3</ele>
        <time>2026-05-14T10:36:16.999Z</time>
      </trkpt>
      <trkpt lat="44.17602" lon="5.27946">
        <ele>1865.9</ele>
        <time>2026-05-14T10:36:17.999Z</time>
      </trkpt>
      <trkpt lat="44.17602" lon="5.27945">
        <ele>1866.3</ele>
        <time>2026-05-14T10:36:18.999Z</time>
      </trkpt>
      <trkpt lat="44.17601" lon="5.27945">
        <ele>1866.8</ele>
        <time>2026-05-14T10:36:19.999Z</time>
      </trkpt>
      <trkpt lat="44.17601" lon="5.27945">
        <ele>1866.7</ele>
        <time>2026-05-14T10:36:20.999Z</time>
      </trkpt>
      <trkpt lat="44.17601" lon="5.27944">
        <ele>1867.2</ele>
        <time>2026-05-14T10:36:21.999Z</time>
      </trkpt>
      <trkpt lat="44.176" lon="5.27944">
        <ele>1867.4</ele>
        <time>2026-05-14T10:36:22.999Z</time>
      </trkpt>
      <trkpt lat="44.17599" lon="5.27943">
        <ele>1867.4</ele>
        <time>2026-05-14T10:36:23.999Z</time>
      </trkpt>
      <trkpt lat="44.17599" lon="5.27943">
        <ele>1867.8</ele>
        <time>2026-05-14T10:36:24.999Z</time>
      </trkpt>
      <trkpt lat="44.17599" lon="5.27942">
        <ele>1867.7</ele>
        <time>2026-05-14T10:36:25.999Z</time>
      </trkpt>
      <trkpt lat="44.17598" lon="5.27942">
        <ele>1868.3</ele>
        <time>2026-05-14T10:36:26.999Z</time>
      </trkpt>
      <trkpt lat="44.17598" lon="5.27941">
        <ele>1869.2</ele>
        <time>2026-05-14T10:36:27.999Z</time>
      </trkpt>
      <trkpt lat="44.17597" lon="5.27941">
        <ele>1869.6</ele>
        <time>2026-05-14T10:36:28.999Z</time>
      </trkpt>
      <trkpt lat="44.17597" lon="5.2794">
        <ele>1869.7</ele>
        <time>2026-05-14T10:36:29.999Z</time>
      </trkpt>
      <trkpt lat="44.17597" lon="5.2794">
        <ele>1869.3</ele>
        <time>2026-05-14T10:36:30.999Z</time>
      </trkpt>
      <trkpt lat="44.17596" lon="5.27939">
        <ele>1869</ele>
        <time>2026-05-14T10:36:31.999Z</time>
      </trkpt>
      <trkpt lat="44.17596" lon="5.27939">
        <ele>1869.1</ele>
        <time>2026-05-14T10:36:32.999Z</time>
      </trkpt>
      <trkpt lat="44.17595" lon="5.27938">
        <ele>1869.3</ele>
        <time>2026-05-14T10:36:33.999Z</time>
      </trkpt>
      <trkpt lat="44.17595" lon="5.27937">
        <ele>1869.2</ele>
        <time>2026-05-14T10:36:34.999Z</time>
      </trkpt>
      <trkpt lat="44.17594" lon="5.27936">
        <ele>1869.6</ele>
        <time>2026-05-14T10:36:35.999Z</time>
      </trkpt>
      <trkpt lat="44.17594" lon="5.27935">
        <ele>1870.6</ele>
        <time>2026-05-14T10:36:36.999Z</time>
      </trkpt>
      <trkpt lat="44.17593" lon="5.27934">
        <ele>1871.9</ele>
        <time>2026-05-14T10:36:37.999Z</time>
      </trkpt>
      <trkpt lat="44.17592" lon="5.27933">
        <ele>1872.5</ele>
        <time>2026-05-14T10:36:38.999Z</time>
      </trkpt>
      <trkpt lat="44.17592" lon="5.27933">
        <ele>1872.9</ele>
        <time>2026-05-14T10:36:39.999Z</time>
      </trkpt>
      <trkpt lat="44.17591" lon="5.27932">
        <ele>1872.8</ele>
        <time>2026-05-14T10:36:40.999Z</time>
      </trkpt>
      <trkpt lat="44.1759" lon="5.27931">
        <ele>1873.1</ele>
        <time>2026-05-14T10:36:41.999Z</time>
      </trkpt>
      <trkpt lat="44.1759" lon="5.2793">
        <ele>1873.3</ele>
        <time>2026-05-14T10:36:42.999Z</time>
      </trkpt>
      <trkpt lat="44.1759" lon="5.27929">
        <ele>1873.3</ele>
        <time>2026-05-14T10:36:43.999Z</time>
      </trkpt>
      <trkpt lat="44.1759" lon="5.27928">
        <ele>1872.7</ele>
        <time>2026-05-14T10:36:44.999Z</time>
      </trkpt>
      <trkpt lat="44.17589" lon="5.27928">
        <ele>1872.7</ele>
        <time>2026-05-14T10:36:45.999Z</time>
      </trkpt>
      <trkpt lat="44.17588" lon="5.27928">
        <ele>1872.4</ele>
        <time>2026-05-14T10:36:46.999Z</time>
      </trkpt>
      <trkpt lat="44.17588" lon="5.27927">
        <ele>1871.9</ele>
        <time>2026-05-14T10:36:47.999Z</time>
      </trkpt>
      <trkpt lat="44.17588" lon="5.27927">
        <ele>1871.6</ele>
        <time>2026-05-14T10:36:48.999Z</time>
      </trkpt>
      <trkpt lat="44.17588" lon="5.27926">
        <ele>1871.7</ele>
        <time>2026-05-14T10:36:49.999Z</time>
      </trkpt>
      <trkpt lat="44.17588" lon="5.27925">
        <ele>1871.6</ele>
        <time>2026-05-14T10:36:50.999Z</time>
      </trkpt>
      <trkpt lat="44.17587" lon="5.27924">
        <ele>1871.7</ele>
        <time>2026-05-14T10:36:51.999Z</time>
      </trkpt>
      <trkpt lat="44.17587" lon="5.27924">
        <ele>1871.2</ele>
        <time>2026-05-14T10:36:52.999Z</time>
      </trkpt>
      <trkpt lat="44.17586" lon="5.27925">
        <ele>1870.4</ele>
        <time>2026-05-14T10:36:53.999Z</time>
      </trkpt>
      <trkpt lat="44.17585" lon="5.27925">
        <ele>1869.9</ele>
        <time>2026-05-14T10:36:54.999Z</time>
      </trkpt>
      <trkpt lat="44.17585" lon="5.27926">
        <ele>1869.4</ele>
        <time>2026-05-14T10:36:55.999Z</time>
      </trkpt>
      <trkpt lat="44.17585" lon="5.27926">
        <ele>1869.1</ele>
        <time>2026-05-14T10:36:56.999Z</time>
      </trkpt>
      <trkpt lat="44.17586" lon="5.27926">
        <ele>1868.8</ele>
        <time>2026-05-14T10:36:57.999Z</time>
      </trkpt>
      <trkpt lat="44.17586" lon="5.27926">
        <ele>1868.8</ele>
        <time>2026-05-14T10:36:58.999Z</time>
      </trkpt>
      <trkpt lat="44.17586" lon="5.27926">
        <ele>1868.8</ele>
        <time>2026-05-14T10:36:59.999Z</time>
      </trkpt>
      <trkpt lat="44.17586" lon="5.27926">
        <ele>1869.2</ele>
        <time>2026-05-14T10:37:00.999Z</time>
      </trkpt>
      <trkpt lat="44.17586" lon="5.27926">
        <ele>1869.1</ele>
        <time>2026-05-14T10:37:01.999Z</time>
      </trkpt>
      <trkpt lat="44.17586" lon="5.27926">
        <ele>1868.2</ele>
        <time>2026-05-14T10:37:02.999Z</time>
      </trkpt>
      <trkpt lat="44.17586" lon="5.27926">
        <ele>1867.8</ele>
        <time>2026-05-14T10:37:03.999Z</time>
      </trkpt>
      <trkpt lat="44.17586" lon="5.27926">
        <ele>1867.6</ele>
        <time>2026-05-14T10:37:04.999Z</time>
      </trkpt>
      <trkpt lat="44.17586" lon="5.27926">
        <ele>1867.1</ele>
        <time>2026-05-14T10:37:05.999Z</time>
      </trkpt>
      <trkpt lat="44.17586" lon="5.27926">
        <ele>1866.8</ele>
        <time>2026-05-14T10:37:06.999Z</time>
      </trkpt>
      <trkpt lat="44.17585" lon="5.27926">
        <ele>1866.4</ele>
        <time>2026-05-14T10:37:07.999Z</time>
      </trkpt>
      <trkpt lat="44.17585" lon="5.27926">
        <ele>1866.1</ele>
        <time>2026-05-14T10:37:08.999Z</time>
      </trkpt>
      <trkpt lat="44.17586" lon="5.27927">
        <ele>1865.4</ele>
        <time>2026-05-14T10:37:09.999Z</time>
      </trkpt>
      <trkpt lat="44.17586" lon="5.27927">
        <ele>1865.1</ele>
        <time>2026-05-14T10:37:10.999Z</time>
      </trkpt>
      <trkpt lat="44.17586" lon="5.27928">
        <ele>1865.1</ele>
        <time>2026-05-14T10:37:11.999Z</time>
      </trkpt>
      <trkpt lat="44.17585" lon="5.27929">
        <ele>1865</ele>
        <time>2026-05-14T10:37:12.999Z</time>
      </trkpt>
      <trkpt lat="44.17585" lon="5.2793">
        <ele>1865.1</ele>
        <time>2026-05-14T10:37:13.999Z</time>
      </trkpt>
      <trkpt lat="44.17585" lon="5.27932">
        <ele>1864.9</ele>
        <time>2026-05-14T10:37:14.999Z</time>
      </trkpt>
      <trkpt lat="44.17585" lon="5.27933">
        <ele>1864.7</ele>
        <time>2026-05-14T10:37:15.999Z</time>
      </trkpt>
      <trkpt lat="44.17584" lon="5.27935">
        <ele>1864.6</ele>
        <time>2026-05-14T10:37:16.999Z</time>
      </trkpt>
      <trkpt lat="44.17584" lon="5.27936">
        <ele>1864.6</ele>
        <time>2026-05-14T10:37:17.999Z</time>
      </trkpt>
      <trkpt lat="44.17583" lon="5.27937">
        <ele>1864.7</ele>
        <time>2026-05-14T10:37:18.999Z</time>
      </trkpt>
      <trkpt lat="44.17583" lon="5.27938">
        <ele>1864.6</ele>
        <time>2026-05-14T10:37:19.999Z</time>
      </trkpt>
      <trkpt lat="44.17582" lon="5.27938">
        <ele>1864.3</ele>
        <time>2026-05-14T10:37:20.999Z</time>
      </trkpt>
      <trkpt lat="44.17582" lon="5.27939">
        <ele>1864.3</ele>
        <time>2026-05-14T10:37:21.999Z</time>
      </trkpt>
      <trkpt lat="44.17581" lon="5.2794">
        <ele>1864.6</ele>
        <time>2026-05-14T10:37:22.999Z</time>
      </trkpt>
      <trkpt lat="44.17581" lon="5.27941">
        <ele>1864.7</ele>
        <time>2026-05-14T10:37:23.999Z</time>
      </trkpt>
      <trkpt lat="44.1758" lon="5.27941">
        <ele>1864.2</ele>
        <time>2026-05-14T10:37:24.999Z</time>
      </trkpt>
      <trkpt lat="44.1758" lon="5.27941">
        <ele>1864.1</ele>
        <time>2026-05-14T10:37:25.999Z</time>
      </trkpt>
      <trkpt lat="44.1758" lon="5.27942">
        <ele>1864.1</ele>
        <time>2026-05-14T10:37:26.999Z</time>
      </trkpt>
      <trkpt lat="44.17579" lon="5.27943">
        <ele>1864.1</ele>
        <time>2026-05-14T10:37:27.999Z</time>
      </trkpt>
      <trkpt lat="44.17579" lon="5.27943">
        <ele>1863.8</ele>
        <time>2026-05-14T10:37:28.999Z</time>
      </trkpt>
      <trkpt lat="44.17579" lon="5.27944">
        <ele>1863.4</ele>
        <time>2026-05-14T10:37:29.999Z</time>
      </trkpt>
      <trkpt lat="44.17579" lon="5.27945">
        <ele>1863.2</ele>
        <time>2026-05-14T10:37:30.999Z</time>
      </trkpt>
      <trkpt lat="44.17579" lon="5.27945">
        <ele>1862.9</ele>
        <time>2026-05-14T10:37:31.999Z</time>
      </trkpt>
      <trkpt lat="44.17579" lon="5.27946">
        <ele>1862.7</ele>
        <time>2026-05-14T10:37:32.999Z</time>
      </trkpt>
      <trkpt lat="44.17579" lon="5.27947">
        <ele>1862.8</ele>
        <time>2026-05-14T10:37:33.999Z</time>
      </trkpt>
      <trkpt lat="44.17579" lon="5.27947">
        <ele>1862.8</ele>
        <time>2026-05-14T10:37:34.999Z</time>
      </trkpt>
      <trkpt lat="44.17578" lon="5.27948">
        <ele>1862.9</ele>
        <time>2026-05-14T10:37:35.999Z</time>
      </trkpt>
      <trkpt lat="44.17578" lon="5.27948">
        <ele>1863</ele>
        <time>2026-05-14T10:37:36.999Z</time>
      </trkpt>
      <trkpt lat="44.17578" lon="5.27949">
        <ele>1863.1</ele>
        <time>2026-05-14T10:37:37.999Z</time>
      </trkpt>
      <trkpt lat="44.17577" lon="5.2795">
        <ele>1863.5</ele>
        <time>2026-05-14T10:37:38.999Z</time>
      </trkpt>
      <trkpt lat="44.17577" lon="5.27951">
        <ele>1863.8</ele>
        <time>2026-05-14T10:37:39.999Z</time>
      </trkpt>
      <trkpt lat="44.17576" lon="5.27952">
        <ele>1864.1</ele>
        <time>2026-05-14T10:37:40.999Z</time>
      </trkpt>
      <trkpt lat="44.17576" lon="5.27952">
        <ele>1864.3</ele>
        <time>2026-05-14T10:37:41.999Z</time>
      </trkpt>
      <trkpt lat="44.17576" lon="5.27952">
        <ele>1864.2</ele>
        <time>2026-05-14T10:37:42.999Z</time>
      </trkpt>
      <trkpt lat="44.17575" lon="5.27952">
        <ele>1864.3</ele>
        <time>2026-05-14T10:37:43.999Z</time>
      </trkpt>
      <trkpt lat="44.17576" lon="5.27952">
        <ele>1864.5</ele>
        <time>2026-05-14T10:37:44.999Z</time>
      </trkpt>
      <trkpt lat="44.17576" lon="5.27952">
        <ele>1864.7</ele>
        <time>2026-05-14T10:37:45.999Z</time>
      </trkpt>
      <trkpt lat="44.17576" lon="5.27953">
        <ele>1865.1</ele>
        <time>2026-05-14T10:37:46.999Z</time>
      </trkpt>
      <trkpt lat="44.17576" lon="5.27953">
        <ele>1864.9</ele>
        <time>2026-05-14T10:37:47.999Z</time>
      </trkpt>
      <trkpt lat="44.17576" lon="5.27953">
        <ele>1864.7</ele>
        <time>2026-05-14T10:37:48.999Z</time>
      </trkpt>
      <trkpt lat="44.17576" lon="5.27954">
        <ele>1864.5</ele>
        <time>2026-05-14T10:37:49.999Z</time>
      </trkpt>
      <trkpt lat="44.17576" lon="5.27955">
        <ele>1865.5</ele>
        <time>2026-05-14T10:37:50.999Z</time>
      </trkpt>
      <trkpt lat="44.17575" lon="5.27956">
        <ele>1866</ele>
        <time>2026-05-14T10:37:51.999Z</time>
      </trkpt>
      <trkpt lat="44.17575" lon="5.27957">
        <ele>1866.8</ele>
        <time>2026-05-14T10:37:52.999Z</time>
      </trkpt>
      <trkpt lat="44.17574" lon="5.27958">
        <ele>1867.1</ele>
        <time>2026-05-14T10:37:53.999Z</time>
      </trkpt>
      <trkpt lat="44.17574" lon="5.27958">
        <ele>1867.1</ele>
        <time>2026-05-14T10:37:54.999Z</time>
      </trkpt>
      <trkpt lat="44.17574" lon="5.27959">
        <ele>1867.2</ele>
        <time>2026-05-14T10:37:55.999Z</time>
      </trkpt>
      <trkpt lat="44.17574" lon="5.27959">
        <ele>1867.6</ele>
        <time>2026-05-14T10:37:56.999Z</time>
      </trkpt>
      <trkpt lat="44.17574" lon="5.2796">
        <ele>1867.6</ele>
        <time>2026-05-14T10:37:57.999Z</time>
      </trkpt>
      <trkpt lat="44.17574" lon="5.27961">
        <ele>1867.4</ele>
        <time>2026-05-14T10:37:58.999Z</time>
      </trkpt>
      <trkpt lat="44.17574" lon="5.27962">
        <ele>1867.1</ele>
        <time>2026-05-14T10:37:59.999Z</time>
      </trkpt>
      <trkpt lat="44.17574" lon="5.27962">
        <ele>1867</ele>
        <time>2026-05-14T10:38:00.999Z</time>
      </trkpt>
      <trkpt lat="44.17574" lon="5.27962">
        <ele>1867.2</ele>
        <time>2026-05-14T10:38:01.999Z</time>
      </trkpt>
      <trkpt lat="44.17574" lon="5.27962">
        <ele>1867.3</ele>
        <time>2026-05-14T10:38:02.999Z</time>
      </trkpt>
      <trkpt lat="44.17574" lon="5.27962">
        <ele>1867.3</ele>
        <time>2026-05-14T10:38:03.999Z</time>
      </trkpt>
      <trkpt lat="44.17574" lon="5.27963">
        <ele>1867.5</ele>
        <time>2026-05-14T10:38:04.999Z</time>
      </trkpt>
      <trkpt lat="44.17573" lon="5.27964">
        <ele>1867.3</ele>
        <time>2026-05-14T10:38:05.999Z</time>
      </trkpt>
      <trkpt lat="44.17573" lon="5.27965">
        <ele>1867.1</ele>
        <time>2026-05-14T10:38:06.999Z</time>
      </trkpt>
      <trkpt lat="44.17573" lon="5.27966">
        <ele>1866.9</ele>
        <time>2026-05-14T10:38:07.999Z</time>
      </trkpt>
      <trkpt lat="44.17572" lon="5.27967">
        <ele>1866.7</ele>
        <time>2026-05-14T10:38:08.999Z</time>
      </trkpt>
      <trkpt lat="44.17572" lon="5.27968">
        <ele>1866.6</ele>
        <time>2026-05-14T10:38:09.999Z</time>
      </trkpt>
      <trkpt lat="44.17572" lon="5.27968">
        <ele>1866.5</ele>
        <time>2026-05-14T10:38:10.999Z</time>
      </trkpt>
      <trkpt lat="44.17571" lon="5.27969">
        <ele>1866.4</ele>
        <time>2026-05-14T10:38:11.999Z</time>
      </trkpt>
      <trkpt lat="44.17571" lon="5.27969">
        <ele>1866.2</ele>
        <time>2026-05-14T10:38:12.999Z</time>
      </trkpt>
      <trkpt lat="44.17571" lon="5.27969">
        <ele>1866.3</ele>
        <time>2026-05-14T10:38:13.999Z</time>
      </trkpt>
      <trkpt lat="44.17571" lon="5.27969">
        <ele>1866.2</ele>
        <time>2026-05-14T10:38:14.999Z</time>
      </trkpt>
      <trkpt lat="44.17571" lon="5.2797">
        <ele>1866</ele>
        <time>2026-05-14T10:38:15.999Z</time>
      </trkpt>
      <trkpt lat="44.17571" lon="5.27971">
        <ele>1865.8</ele>
        <time>2026-05-14T10:38:16.999Z</time>
      </trkpt>
      <trkpt lat="44.17571" lon="5.27971">
        <ele>1866</ele>
        <time>2026-05-14T10:38:17.999Z</time>
      </trkpt>
      <trkpt lat="44.17571" lon="5.27971">
        <ele>1866</ele>
        <time>2026-05-14T10:38:18.999Z</time>
      </trkpt>
      <trkpt lat="44.17571" lon="5.27972">
        <ele>1866.3</ele>
        <time>2026-05-14T10:38:19.999Z</time>
      </trkpt>
      <trkpt lat="44.17571" lon="5.27973">
        <ele>1866.6</ele>
        <time>2026-05-14T10:38:20.999Z</time>
      </trkpt>
      <trkpt lat="44.1757" lon="5.27974">
        <ele>1866.7</ele>
        <time>2026-05-14T10:38:21.999Z</time>
      </trkpt>
      <trkpt lat="44.1757" lon="5.27975">
        <ele>1866.8</ele>
        <time>2026-05-14T10:38:22.999Z</time>
      </trkpt>
      <trkpt lat="44.1757" lon="5.27976">
        <ele>1867</ele>
        <time>2026-05-14T10:38:23.999Z</time>
      </trkpt>
      <trkpt lat="44.1757" lon="5.27977">
        <ele>1867</ele>
        <time>2026-05-14T10:38:24.999Z</time>
      </trkpt>
      <trkpt lat="44.17569" lon="5.27978">
        <ele>1867.1</ele>
        <time>2026-05-14T10:38:25.999Z</time>
      </trkpt>
      <trkpt lat="44.17569" lon="5.27979">
        <ele>1867.3</ele>
        <time>2026-05-14T10:38:26.999Z</time>
      </trkpt>
      <trkpt lat="44.17568" lon="5.2798">
        <ele>1867.3</ele>
        <time>2026-05-14T10:38:27.999Z</time>
      </trkpt>
      <trkpt lat="44.17568" lon="5.27981">
        <ele>1867.2</ele>
        <time>2026-05-14T10:38:28.999Z</time>
      </trkpt>
      <trkpt lat="44.17567" lon="5.27982">
        <ele>1867.1</ele>
        <time>2026-05-14T10:38:29.999Z</time>
      </trkpt>
      <trkpt lat="44.17567" lon="5.27982">
        <ele>1867</ele>
        <time>2026-05-14T10:38:30.999Z</time>
      </trkpt>
      <trkpt lat="44.17567" lon="5.27983">
        <ele>1866.9</ele>
        <time>2026-05-14T10:38:31.999Z</time>
      </trkpt>
      <trkpt lat="44.17567" lon="5.27983">
        <ele>1866.8</ele>
        <time>2026-05-14T10:38:32.999Z</time>
      </trkpt>
      <trkpt lat="44.17566" lon="5.27983">
        <ele>1866.5</ele>
        <time>2026-05-14T10:38:33.999Z</time>
      </trkpt>
      <trkpt lat="44.17566" lon="5.27983">
        <ele>1866.3</ele>
        <time>2026-05-14T10:38:34.999Z</time>
      </trkpt>
      <trkpt lat="44.17565" lon="5.27983">
        <ele>1866.2</ele>
        <time>2026-05-14T10:38:35.999Z</time>
      </trkpt>
      <trkpt lat="44.17565" lon="5.27984">
        <ele>1866.5</ele>
        <time>2026-05-14T10:38:36.999Z</time>
      </trkpt>
      <trkpt lat="44.17564" lon="5.27985">
        <ele>1866.4</ele>
        <time>2026-05-14T10:38:37.999Z</time>
      </trkpt>
      <trkpt lat="44.17564" lon="5.27985">
        <ele>1866.4</ele>
        <time>2026-05-14T10:38:38.999Z</time>
      </trkpt>
      <trkpt lat="44.17564" lon="5.27985">
        <ele>1866.5</ele>
        <time>2026-05-14T10:38:39.999Z</time>
      </trkpt>
      <trkpt lat="44.17564" lon="5.27986">
        <ele>1866.6</ele>
        <time>2026-05-14T10:38:40.999Z</time>
      </trkpt>
      <trkpt lat="44.17564" lon="5.27987">
        <ele>1866.5</ele>
        <time>2026-05-14T10:38:41.999Z</time>
      </trkpt>
      <trkpt lat="44.17563" lon="5.27988">
        <ele>1866.1</ele>
        <time>2026-05-14T10:38:42.999Z</time>
      </trkpt>
      <trkpt lat="44.17563" lon="5.27989">
        <ele>1866</ele>
        <time>2026-05-14T10:38:43.999Z</time>
      </trkpt>
      <trkpt lat="44.17562" lon="5.2799">
        <ele>1866.2</ele>
        <time>2026-05-14T10:38:44.999Z</time>
      </trkpt>
      <trkpt lat="44.17562" lon="5.27991">
        <ele>1866.4</ele>
        <time>2026-05-14T10:38:45.999Z</time>
      </trkpt>
      <trkpt lat="44.17561" lon="5.27991">
        <ele>1866.5</ele>
        <time>2026-05-14T10:38:46.999Z</time>
      </trkpt>
      <trkpt lat="44.17561" lon="5.27992">
        <ele>1866.5</ele>
        <time>2026-05-14T10:38:47.999Z</time>
      </trkpt>
      <trkpt lat="44.17561" lon="5.27992">
        <ele>1866.7</ele>
        <time>2026-05-14T10:38:48.999Z</time>
      </trkpt>
      <trkpt lat="44.1756" lon="5.27992">
        <ele>1866.8</ele>
        <time>2026-05-14T10:38:49.999Z</time>
      </trkpt>
      <trkpt lat="44.1756" lon="5.27993">
        <ele>1866.8</ele>
        <time>2026-05-14T10:38:50.999Z</time>
      </trkpt>
      <trkpt lat="44.1756" lon="5.27994">
        <ele>1867.2</ele>
        <time>2026-05-14T10:38:51.999Z</time>
      </trkpt>
      <trkpt lat="44.1756" lon="5.27994">
        <ele>1867</ele>
        <time>2026-05-14T10:38:52.999Z</time>
      </trkpt>
      <trkpt lat="44.1756" lon="5.27994">
        <ele>1866.5</ele>
        <time>2026-05-14T10:38:53.999Z</time>
      </trkpt>
      <trkpt lat="44.1756" lon="5.27995">
        <ele>1866.5</ele>
        <time>2026-05-14T10:38:54.999Z</time>
      </trkpt>
      <trkpt lat="44.1756" lon="5.27996">
        <ele>1866.5</ele>
        <time>2026-05-14T10:38:55.999Z</time>
      </trkpt>
      <trkpt lat="44.17559" lon="5.27998">
        <ele>1866.5</ele>
        <time>2026-05-14T10:38:56.999Z</time>
      </trkpt>
      <trkpt lat="44.17559" lon="5.27999">
        <ele>1866.8</ele>
        <time>2026-05-14T10:38:57.999Z</time>
      </trkpt>
      <trkpt lat="44.17559" lon="5.27999">
        <ele>1866.9</ele>
        <time>2026-05-14T10:38:58.999Z</time>
      </trkpt>
      <trkpt lat="44.17559" lon="5.27999">
        <ele>1867.1</ele>
        <time>2026-05-14T10:38:59.999Z</time>
      </trkpt>
      <trkpt lat="44.17559" lon="5.27999">
        <ele>1867.3</ele>
        <time>2026-05-14T10:39:00.999Z</time>
      </trkpt>
      <trkpt lat="44.17559" lon="5.27999">
        <ele>1867.5</ele>
        <time>2026-05-14T10:39:01.999Z</time>
      </trkpt>
      <trkpt lat="44.17559" lon="5.27999">
        <ele>1867.8</ele>
        <time>2026-05-14T10:39:02.999Z</time>
      </trkpt>
      <trkpt lat="44.17559" lon="5.27999">
        <ele>1867.7</ele>
        <time>2026-05-14T10:39:03.999Z</time>
      </trkpt>
      <trkpt lat="44.17558" lon="5.28001">
        <ele>1868.9</ele>
        <time>2026-05-14T10:39:04.999Z</time>
      </trkpt>
      <trkpt lat="44.17558" lon="5.28001">
        <ele>1870</ele>
        <time>2026-05-14T10:39:05.999Z</time>
      </trkpt>
      <trkpt lat="44.17558" lon="5.28001">
        <ele>1871.3</ele>
        <time>2026-05-14T10:39:06.999Z</time>
      </trkpt>
      <trkpt lat="44.17558" lon="5.28001">
        <ele>1872.4</ele>
        <time>2026-05-14T10:39:07.999Z</time>
      </trkpt>
      <trkpt lat="44.17558" lon="5.28002">
        <ele>1873.2</ele>
        <time>2026-05-14T10:39:08.999Z</time>
      </trkpt>
      <trkpt lat="44.17557" lon="5.28003">
        <ele>1873.9</ele>
        <time>2026-05-14T10:39:09.999Z</time>
      </trkpt>
      <trkpt lat="44.17557" lon="5.28005">
        <ele>1874.5</ele>
        <time>2026-05-14T10:39:10.999Z</time>
      </trkpt>
      <trkpt lat="44.17556" lon="5.28005">
        <ele>1875.2</ele>
        <time>2026-05-14T10:39:11.999Z</time>
      </trkpt>
      <trkpt lat="44.17556" lon="5.28006">
        <ele>1875.6</ele>
        <time>2026-05-14T10:39:12.999Z</time>
      </trkpt>
      <trkpt lat="44.17556" lon="5.28006">
        <ele>1876.2</ele>
        <time>2026-05-14T10:39:13.999Z</time>
      </trkpt>
      <trkpt lat="44.17556" lon="5.28007">
        <ele>1876.9</ele>
        <time>2026-05-14T10:39:14.999Z</time>
      </trkpt>
      <trkpt lat="44.17556" lon="5.28008">
        <ele>1877.7</ele>
        <time>2026-05-14T10:39:15.999Z</time>
      </trkpt>
      <trkpt lat="44.17555" lon="5.28009">
        <ele>1878.4</ele>
        <time>2026-05-14T10:39:16.999Z</time>
      </trkpt>
      <trkpt lat="44.17554" lon="5.2801">
        <ele>1878.8</ele>
        <time>2026-05-14T10:39:17.999Z</time>
      </trkpt>
      <trkpt lat="44.17554" lon="5.28011">
        <ele>1879.1</ele>
        <time>2026-05-14T10:39:18.999Z</time>
      </trkpt>
      <trkpt lat="44.17554" lon="5.28012">
        <ele>1879.3</ele>
        <time>2026-05-14T10:39:19.999Z</time>
      </trkpt>
      <trkpt lat="44.17553" lon="5.28013">
        <ele>1879.4</ele>
        <time>2026-05-14T10:39:20.999Z</time>
      </trkpt>
      <trkpt lat="44.17553" lon="5.28014">
        <ele>1879.6</ele>
        <time>2026-05-14T10:39:21.999Z</time>
      </trkpt>
      <trkpt lat="44.17553" lon="5.28015">
        <ele>1879.8</ele>
        <time>2026-05-14T10:39:22.999Z</time>
      </trkpt>
      <trkpt lat="44.17553" lon="5.28015">
        <ele>1879.6</ele>
        <time>2026-05-14T10:39:23.999Z</time>
      </trkpt>
      <trkpt lat="44.17552" lon="5.28015">
        <ele>1879.6</ele>
        <time>2026-05-14T10:39:24.999Z</time>
      </trkpt>
      <trkpt lat="44.17552" lon="5.28015">
        <ele>1879.3</ele>
        <time>2026-05-14T10:39:25.999Z</time>
      </trkpt>
      <trkpt lat="44.17551" lon="5.28016">
        <ele>1879.1</ele>
        <time>2026-05-14T10:39:26.999Z</time>
      </trkpt>
      <trkpt lat="44.1755" lon="5.28016">
        <ele>1879.2</ele>
        <time>2026-05-14T10:39:27.999Z</time>
      </trkpt>
      <trkpt lat="44.17549" lon="5.28016">
        <ele>1879.3</ele>
        <time>2026-05-14T10:39:28.999Z</time>
      </trkpt>
      <trkpt lat="44.17548" lon="5.28016">
        <ele>1879.5</ele>
        <time>2026-05-14T10:39:29.999Z</time>
      </trkpt>
      <trkpt lat="44.17548" lon="5.28016">
        <ele>1879.4</ele>
        <time>2026-05-14T10:39:30.999Z</time>
      </trkpt>
      <trkpt lat="44.17548" lon="5.28017">
        <ele>1879.4</ele>
        <time>2026-05-14T10:39:31.999Z</time>
      </trkpt>
      <trkpt lat="44.17548" lon="5.28017">
        <ele>1879.3</ele>
        <time>2026-05-14T10:39:32.999Z</time>
      </trkpt>
      <trkpt lat="44.17548" lon="5.28018">
        <ele>1879.5</ele>
        <time>2026-05-14T10:39:33.999Z</time>
      </trkpt>
      <trkpt lat="44.17547" lon="5.28018">
        <ele>1879.7</ele>
        <time>2026-05-14T10:39:34.999Z</time>
      </trkpt>
      <trkpt lat="44.17547" lon="5.28018">
        <ele>1879.7</ele>
        <time>2026-05-14T10:39:35.999Z</time>
      </trkpt>
      <trkpt lat="44.17548" lon="5.28018">
        <ele>1879.9</ele>
        <time>2026-05-14T10:39:36.999Z</time>
      </trkpt>
      <trkpt lat="44.17547" lon="5.28018">
        <ele>1880.3</ele>
        <time>2026-05-14T10:39:37.999Z</time>
      </trkpt>
      <trkpt lat="44.17548" lon="5.28018">
        <ele>1881</ele>
        <time>2026-05-14T10:39:38.999Z</time>
      </trkpt>
      <trkpt lat="44.17548" lon="5.28018">
        <ele>1881.4</ele>
        <time>2026-05-14T10:39:39.999Z</time>
      </trkpt>
      <trkpt lat="44.17548" lon="5.28018">
        <ele>1881.2</ele>
        <time>2026-05-14T10:39:40.999Z</time>
      </trkpt>
      <trkpt lat="44.17548" lon="5.28019">
        <ele>1881.4</ele>
        <time>2026-05-14T10:39:41.999Z</time>
      </trkpt>
      <trkpt lat="44.17547" lon="5.2802">
        <ele>1881.4</ele>
        <time>2026-05-14T10:39:42.999Z</time>
      </trkpt>
      <trkpt lat="44.17547" lon="5.28021">
        <ele>1881.5</ele>
        <time>2026-05-14T10:39:43.999Z</time>
      </trkpt>
      <trkpt lat="44.17546" lon="5.28021">
        <ele>1881.9</ele>
        <time>2026-05-14T10:39:44.999Z</time>
      </trkpt>
      <trkpt lat="44.17546" lon="5.28021">
        <ele>1882</ele>
        <time>2026-05-14T10:39:45.999Z</time>
      </trkpt>
      <trkpt lat="44.17546" lon="5.28021">
        <ele>1881.9</ele>
        <time>2026-05-14T10:39:46.999Z</time>
      </trkpt>
      <trkpt lat="44.17546" lon="5.28021">
        <ele>1881.9</ele>
        <time>2026-05-14T10:39:47.999Z</time>
      </trkpt>
      <trkpt lat="44.17545" lon="5.28022">
        <ele>1881.8</ele>
        <time>2026-05-14T10:39:48.999Z</time>
      </trkpt>
      <trkpt lat="44.17544" lon="5.28023">
        <ele>1881.9</ele>
        <time>2026-05-14T10:39:49.999Z</time>
      </trkpt>
      <trkpt lat="44.17544" lon="5.28023">
        <ele>1881.9</ele>
        <time>2026-05-14T10:39:50.999Z</time>
      </trkpt>
      <trkpt lat="44.17544" lon="5.28024">
        <ele>1882</ele>
        <time>2026-05-14T10:39:51.999Z</time>
      </trkpt>
      <trkpt lat="44.17544" lon="5.28025">
        <ele>1881.9</ele>
        <time>2026-05-14T10:39:52.999Z</time>
      </trkpt>
      <trkpt lat="44.17544" lon="5.28026">
        <ele>1881.7</ele>
        <time>2026-05-14T10:39:53.999Z</time>
      </trkpt>
      <trkpt lat="44.17543" lon="5.28027">
        <ele>1881.8</ele>
        <time>2026-05-14T10:39:54.999Z</time>
      </trkpt>
      <trkpt lat="44.17543" lon="5.28028">
        <ele>1881.9</ele>
        <time>2026-05-14T10:39:55.999Z</time>
      </trkpt>
      <trkpt lat="44.17543" lon="5.28029">
        <ele>1882</ele>
        <time>2026-05-14T10:39:56.999Z</time>
      </trkpt>
      <trkpt lat="44.17542" lon="5.28031">
        <ele>1881.9</ele>
        <time>2026-05-14T10:39:57.999Z</time>
      </trkpt>
      <trkpt lat="44.17542" lon="5.28031">
        <ele>1881.6</ele>
        <time>2026-05-14T10:39:58.999Z</time>
      </trkpt>
      <trkpt lat="44.17542" lon="5.28031">
        <ele>1881.8</ele>
        <time>2026-05-14T10:39:59.999Z</time>
      </trkpt>
      <trkpt lat="44.17542" lon="5.28032">
        <ele>1882.2</ele>
        <time>2026-05-14T10:40:00.999Z</time>
      </trkpt>
      <trkpt lat="44.17542" lon="5.28032">
        <ele>1882.8</ele>
        <time>2026-05-14T10:40:01.999Z</time>
      </trkpt>
      <trkpt lat="44.17542" lon="5.28032">
        <ele>1882.9</ele>
        <time>2026-05-14T10:40:02.999Z</time>
      </trkpt>
      <trkpt lat="44.17541" lon="5.28033">
        <ele>1882.7</ele>
        <time>2026-05-14T10:40:03.999Z</time>
      </trkpt>
      <trkpt lat="44.17541" lon="5.28034">
        <ele>1883.2</ele>
        <time>2026-05-14T10:40:04.999Z</time>
      </trkpt>
      <trkpt lat="44.17541" lon="5.28034">
        <ele>1883.2</ele>
        <time>2026-05-14T10:40:05.999Z</time>
      </trkpt>
      <trkpt lat="44.1754" lon="5.28034">
        <ele>1883.3</ele>
        <time>2026-05-14T10:40:06.999Z</time>
      </trkpt>
      <trkpt lat="44.1754" lon="5.28033">
        <ele>1883.3</ele>
        <time>2026-05-14T10:40:07.999Z</time>
      </trkpt>
      <trkpt lat="44.1754" lon="5.28033">
        <ele>1884.2</ele>
        <time>2026-05-14T10:40:08.999Z</time>
      </trkpt>
      <trkpt lat="44.1754" lon="5.28034">
        <ele>1884.5</ele>
        <time>2026-05-14T10:40:09.999Z</time>
      </trkpt>
      <trkpt lat="44.1754" lon="5.28034">
        <ele>1884.9</ele>
        <time>2026-05-14T10:40:10.999Z</time>
      </trkpt>
      <trkpt lat="44.1754" lon="5.28034">
        <ele>1885.2</ele>
        <time>2026-05-14T10:40:11.999Z</time>
      </trkpt>
      <trkpt lat="44.1754" lon="5.28034">
        <ele>1885.5</ele>
        <time>2026-05-14T10:40:12.999Z</time>
      </trkpt>
      <trkpt lat="44.1754" lon="5.28034">
        <ele>1886.1</ele>
        <time>2026-05-14T10:40:13.999Z</time>
      </trkpt>
      <trkpt lat="44.1754" lon="5.28034">
        <ele>1886.8</ele>
        <time>2026-05-14T10:40:14.999Z</time>
      </trkpt>
      <trkpt lat="44.1754" lon="5.28033">
        <ele>1886.9</ele>
        <time>2026-05-14T10:40:15.999Z</time>
      </trkpt>
      <trkpt lat="44.1754" lon="5.28033">
        <ele>1887.5</ele>
        <time>2026-05-14T10:40:16.999Z</time>
      </trkpt>
      <trkpt lat="44.1754" lon="5.28033">
        <ele>1888.3</ele>
        <time>2026-05-14T10:40:17.999Z</time>
      </trkpt>
      <trkpt lat="44.1754" lon="5.28033">
        <ele>1889.2</ele>
        <time>2026-05-14T10:40:18.999Z</time>
      </trkpt>
      <trkpt lat="44.1754" lon="5.28033">
        <ele>1889.7</ele>
        <time>2026-05-14T10:40:19.999Z</time>
      </trkpt>
      <trkpt lat="44.17539" lon="5.28033">
        <ele>1890</ele>
        <time>2026-05-14T10:40:20.999Z</time>
      </trkpt>
      <trkpt lat="44.17539" lon="5.28034">
        <ele>1890.7</ele>
        <time>2026-05-14T10:40:21.999Z</time>
      </trkpt>
      <trkpt lat="44.17539" lon="5.28034">
        <ele>1891.7</ele>
        <time>2026-05-14T10:40:22.999Z</time>
      </trkpt>
      <trkpt lat="44.17538" lon="5.28035">
        <ele>1893</ele>
        <time>2026-05-14T10:40:23.999Z</time>
      </trkpt>
      <trkpt lat="44.17537" lon="5.28036">
        <ele>1893.4</ele>
        <time>2026-05-14T10:40:24.999Z</time>
      </trkpt>
      <trkpt lat="44.17536" lon="5.28036">
        <ele>1893.6</ele>
        <time>2026-05-14T10:40:25.999Z</time>
      </trkpt>
      <trkpt lat="44.17536" lon="5.28036">
        <ele>1893.7</ele>
        <time>2026-05-14T10:40:26.999Z</time>
      </trkpt>
      <trkpt lat="44.17536" lon="5.28036">
        <ele>1893.9</ele>
        <time>2026-05-14T10:40:27.999Z</time>
      </trkpt>
      <trkpt lat="44.17536" lon="5.28036">
        <ele>1894.2</ele>
        <time>2026-05-14T10:40:28.999Z</time>
      </trkpt>
      <trkpt lat="44.17536" lon="5.28036">
        <ele>1894.1</ele>
        <time>2026-05-14T10:40:29.999Z</time>
      </trkpt>
      <trkpt lat="44.17535" lon="5.28037">
        <ele>1894</ele>
        <time>2026-05-14T10:40:30.999Z</time>
      </trkpt>
      <trkpt lat="44.17534" lon="5.28037">
        <ele>1893.9</ele>
        <time>2026-05-14T10:40:31.999Z</time>
      </trkpt>
      <trkpt lat="44.17533" lon="5.28038">
        <ele>1893.7</ele>
        <time>2026-05-14T10:40:32.999Z</time>
      </trkpt>
      <trkpt lat="44.17533" lon="5.28038">
        <ele>1893.9</ele>
        <time>2026-05-14T10:40:33.999Z</time>
      </trkpt>
      <trkpt lat="44.17533" lon="5.28038">
        <ele>1894</ele>
        <time>2026-05-14T10:40:34.999Z</time>
      </trkpt>
      <trkpt lat="44.17532" lon="5.28038">
        <ele>1894.2</ele>
        <time>2026-05-14T10:40:35.999Z</time>
      </trkpt>
      <trkpt lat="44.17531" lon="5.28038">
        <ele>1894.7</ele>
        <time>2026-05-14T10:40:36.999Z</time>
      </trkpt>
      <trkpt lat="44.17531" lon="5.28038">
        <ele>1894.9</ele>
        <time>2026-05-14T10:40:37.999Z</time>
      </trkpt>
      <trkpt lat="44.1753" lon="5.28038">
        <ele>1894.9</ele>
        <time>2026-05-14T10:40:38.999Z</time>
      </trkpt>
      <trkpt lat="44.17529" lon="5.28038">
        <ele>1895.2</ele>
        <time>2026-05-14T10:40:39.999Z</time>
      </trkpt>
      <trkpt lat="44.17529" lon="5.28039">
        <ele>1895.2</ele>
        <time>2026-05-14T10:40:40.999Z</time>
      </trkpt>
      <trkpt lat="44.17529" lon="5.28039">
        <ele>1895.3</ele>
        <time>2026-05-14T10:40:41.999Z</time>
      </trkpt>
      <trkpt lat="44.17529" lon="5.2804">
        <ele>1895.7</ele>
        <time>2026-05-14T10:40:42.999Z</time>
      </trkpt>
      <trkpt lat="44.17528" lon="5.2804">
        <ele>1895.8</ele>
        <time>2026-05-14T10:40:43.999Z</time>
      </trkpt>
      <trkpt lat="44.17528" lon="5.2804">
        <ele>1895.7</ele>
        <time>2026-05-14T10:40:44.999Z</time>
      </trkpt>
      <trkpt lat="44.17527" lon="5.2804">
        <ele>1895.4</ele>
        <time>2026-05-14T10:40:45.999Z</time>
      </trkpt>
      <trkpt lat="44.17527" lon="5.2804">
        <ele>1895.2</ele>
        <time>2026-05-14T10:40:46.999Z</time>
      </trkpt>
      <trkpt lat="44.17527" lon="5.28041">
        <ele>1894.8</ele>
        <time>2026-05-14T10:40:47.999Z</time>
      </trkpt>
      <trkpt lat="44.17526" lon="5.28041">
        <ele>1894.4</ele>
        <time>2026-05-14T10:40:48.999Z</time>
      </trkpt>
      <trkpt lat="44.17526" lon="5.28042">
        <ele>1894.3</ele>
        <time>2026-05-14T10:40:49.999Z</time>
      </trkpt>
      <trkpt lat="44.17526" lon="5.28042">
        <ele>1894.7</ele>
        <time>2026-05-14T10:40:50.999Z</time>
      </trkpt>
      <trkpt lat="44.17526" lon="5.28043">
        <ele>1895.3</ele>
        <time>2026-05-14T10:40:51.999Z</time>
      </trkpt>
      <trkpt lat="44.17525" lon="5.28043">
        <ele>1895.6</ele>
        <time>2026-05-14T10:40:52.999Z</time>
      </trkpt>
      <trkpt lat="44.17525" lon="5.28043">
        <ele>1895.8</ele>
        <time>2026-05-14T10:40:53.999Z</time>
      </trkpt>
      <trkpt lat="44.17525" lon="5.28043">
        <ele>1895.9</ele>
        <time>2026-05-14T10:40:54.999Z</time>
      </trkpt>
      <trkpt lat="44.17524" lon="5.28042">
        <ele>1895.9</ele>
        <time>2026-05-14T10:40:55.999Z</time>
      </trkpt>
      <trkpt lat="44.17524" lon="5.28043">
        <ele>1895.9</ele>
        <time>2026-05-14T10:40:56.999Z</time>
      </trkpt>
      <trkpt lat="44.17524" lon="5.28043">
        <ele>1895.6</ele>
        <time>2026-05-14T10:40:57.999Z</time>
      </trkpt>
      <trkpt lat="44.17524" lon="5.28044">
        <ele>1895.7</ele>
        <time>2026-05-14T10:40:58.999Z</time>
      </trkpt>
      <trkpt lat="44.17523" lon="5.28045">
        <ele>1895.8</ele>
        <time>2026-05-14T10:40:59.999Z</time>
      </trkpt>
      <trkpt lat="44.17523" lon="5.28045">
        <ele>1895.9</ele>
        <time>2026-05-14T10:41:00.999Z</time>
      </trkpt>
      <trkpt lat="44.17523" lon="5.28046">
        <ele>1895.9</ele>
        <time>2026-05-14T10:41:01.999Z</time>
      </trkpt>
      <trkpt lat="44.17523" lon="5.28046">
        <ele>1895</ele>
        <time>2026-05-14T10:41:02.999Z</time>
      </trkpt>
      <trkpt lat="44.17523" lon="5.28046">
        <ele>1894.9</ele>
        <time>2026-05-14T10:41:03.999Z</time>
      </trkpt>
      <trkpt lat="44.17522" lon="5.28046">
        <ele>1894.7</ele>
        <time>2026-05-14T10:41:04.999Z</time>
      </trkpt>
      <trkpt lat="44.17522" lon="5.28046">
        <ele>1894.5</ele>
        <time>2026-05-14T10:41:05.999Z</time>
      </trkpt>
      <trkpt lat="44.17522" lon="5.28046">
        <ele>1894.5</ele>
        <time>2026-05-14T10:41:06.999Z</time>
      </trkpt>
      <trkpt lat="44.17522" lon="5.28046">
        <ele>1894.4</ele>
        <time>2026-05-14T10:41:07.999Z</time>
      </trkpt>
      <trkpt lat="44.17522" lon="5.28046">
        <ele>1894.9</ele>
        <time>2026-05-14T10:41:08.999Z</time>
      </trkpt>
      <trkpt lat="44.17522" lon="5.28046">
        <ele>1895</ele>
        <time>2026-05-14T10:41:09.999Z</time>
      </trkpt>
      <trkpt lat="44.17522" lon="5.28047">
        <ele>1895.4</ele>
        <time>2026-05-14T10:41:10.999Z</time>
      </trkpt>
      <trkpt lat="44.17522" lon="5.28047">
        <ele>1895.8</ele>
        <time>2026-05-14T10:41:11.999Z</time>
      </trkpt>
      <trkpt lat="44.17522" lon="5.28047">
        <ele>1896.2</ele>
        <time>2026-05-14T10:41:12.999Z</time>
      </trkpt>
      <trkpt lat="44.17522" lon="5.28047">
        <ele>1896.5</ele>
        <time>2026-05-14T10:41:13.999Z</time>
      </trkpt>
      <trkpt lat="44.17522" lon="5.28048">
        <ele>1896.5</ele>
        <time>2026-05-14T10:41:14.999Z</time>
      </trkpt>
      <trkpt lat="44.17522" lon="5.28048">
        <ele>1896.7</ele>
        <time>2026-05-14T10:41:15.999Z</time>
      </trkpt>
      <trkpt lat="44.17521" lon="5.28049">
        <ele>1897.4</ele>
        <time>2026-05-14T10:41:16.999Z</time>
      </trkpt>
      <trkpt lat="44.17521" lon="5.28049">
        <ele>1898</ele>
        <time>2026-05-14T10:41:17.999Z</time>
      </trkpt>
      <trkpt lat="44.1752" lon="5.28051">
        <ele>1898.5</ele>
        <time>2026-05-14T10:41:18.999Z</time>
      </trkpt>
      <trkpt lat="44.1752" lon="5.28053">
        <ele>1898.9</ele>
        <time>2026-05-14T10:41:19.999Z</time>
      </trkpt>
      <trkpt lat="44.17519" lon="5.28054">
        <ele>1899.3</ele>
        <time>2026-05-14T10:41:20.999Z</time>
      </trkpt>
      <trkpt lat="44.17518" lon="5.28055">
        <ele>1899.2</ele>
        <time>2026-05-14T10:41:21.999Z</time>
      </trkpt>
      <trkpt lat="44.17518" lon="5.28055">
        <ele>1898.9</ele>
        <time>2026-05-14T10:41:22.999Z</time>
      </trkpt>
      <trkpt lat="44.17517" lon="5.28055">
        <ele>1898.9</ele>
        <time>2026-05-14T10:41:23.999Z</time>
      </trkpt>
      <trkpt lat="44.17517" lon="5.28055">
        <ele>1898.9</ele>
        <time>2026-05-14T10:41:24.999Z</time>
      </trkpt>
      <trkpt lat="44.17516" lon="5.28055">
        <ele>1898.7</ele>
        <time>2026-05-14T10:41:25.999Z</time>
      </trkpt>
      <trkpt lat="44.17516" lon="5.28054">
        <ele>1898.5</ele>
        <time>2026-05-14T10:41:26.999Z</time>
      </trkpt>
      <trkpt lat="44.17516" lon="5.28053">
        <ele>1898.5</ele>
        <time>2026-05-14T10:41:27.999Z</time>
      </trkpt>
      <trkpt lat="44.17516" lon="5.28053">
        <ele>1898.5</ele>
        <time>2026-05-14T10:41:28.999Z</time>
      </trkpt>
      <trkpt lat="44.17516" lon="5.28053">
        <ele>1898.3</ele>
        <time>2026-05-14T10:41:29.999Z</time>
      </trkpt>
      <trkpt lat="44.17516" lon="5.28053">
        <ele>1898.5</ele>
        <time>2026-05-14T10:41:30.999Z</time>
      </trkpt>
      <trkpt lat="44.17516" lon="5.28053">
        <ele>1898.9</ele>
        <time>2026-05-14T10:41:31.999Z</time>
      </trkpt>
      <trkpt lat="44.17516" lon="5.28053">
        <ele>1898.7</ele>
        <time>2026-05-14T10:41:32.999Z</time>
      </trkpt>
      <trkpt lat="44.17516" lon="5.28053">
        <ele>1898.8</ele>
        <time>2026-05-14T10:41:33.999Z</time>
      </trkpt>
      <trkpt lat="44.17516" lon="5.28053">
        <ele>1899</ele>
        <time>2026-05-14T10:41:34.999Z</time>
      </trkpt>
      <trkpt lat="44.17515" lon="5.28053">
        <ele>1899.2</ele>
        <time>2026-05-14T10:41:35.999Z</time>
      </trkpt>
      <trkpt lat="44.17515" lon="5.28053">
        <ele>1899.2</ele>
        <time>2026-05-14T10:41:36.999Z</time>
      </trkpt>
      <trkpt lat="44.17515" lon="5.28053">
        <ele>1899.2</ele>
        <time>2026-05-14T10:41:37.999Z</time>
      </trkpt>
      <trkpt lat="44.17515" lon="5.28053">
        <ele>1899.3</ele>
        <time>2026-05-14T10:41:38.999Z</time>
      </trkpt>
      <trkpt lat="44.17515" lon="5.28053">
        <ele>1899.3</ele>
        <time>2026-05-14T10:41:39.999Z</time>
      </trkpt>
      <trkpt lat="44.17515" lon="5.28053">
        <ele>1899.1</ele>
        <time>2026-05-14T10:41:40.999Z</time>
      </trkpt>
      <trkpt lat="44.17515" lon="5.28053">
        <ele>1898.9</ele>
        <time>2026-05-14T10:41:41.999Z</time>
      </trkpt>
      <trkpt lat="44.17515" lon="5.28053">
        <ele>1898.5</ele>
        <time>2026-05-14T10:41:42.999Z</time>
      </trkpt>
      <trkpt lat="44.17515" lon="5.28054">
        <ele>1898.2</ele>
        <time>2026-05-14T10:41:43.999Z</time>
      </trkpt>
      <trkpt lat="44.17515" lon="5.28055">
        <ele>1897.9</ele>
        <time>2026-05-14T10:41:44.999Z</time>
      </trkpt>
      <trkpt lat="44.17515" lon="5.28056">
        <ele>1898.1</ele>
        <time>2026-05-14T10:41:45.999Z</time>
      </trkpt>
      <trkpt lat="44.17515" lon="5.28056">
        <ele>1898.6</ele>
        <time>2026-05-14T10:41:46.999Z</time>
      </trkpt>
      <trkpt lat="44.17515" lon="5.28056">
        <ele>1899</ele>
        <time>2026-05-14T10:41:47.999Z</time>
      </trkpt>
      <trkpt lat="44.17515" lon="5.28056">
        <ele>1899.5</ele>
        <time>2026-05-14T10:41:48.999Z</time>
      </trkpt>
      <trkpt lat="44.17515" lon="5.28057">
        <ele>1900</ele>
        <time>2026-05-14T10:41:49.999Z</time>
      </trkpt>
      <trkpt lat="44.17514" lon="5.28057">
        <ele>1900.6</ele>
        <time>2026-05-14T10:41:50.999Z</time>
      </trkpt>
      <trkpt lat="44.17514" lon="5.28057">
        <ele>1901.2</ele>
        <time>2026-05-14T10:41:51.999Z</time>
      </trkpt>
      <trkpt lat="44.17513" lon="5.28057">
        <ele>1901.6</ele>
        <time>2026-05-14T10:41:52.999Z</time>
      </trkpt>
      <trkpt lat="44.17513" lon="5.28057">
        <ele>1901.9</ele>
        <time>2026-05-14T10:41:53.999Z</time>
      </trkpt>
      <trkpt lat="44.17513" lon="5.28057">
        <ele>1902.3</ele>
        <time>2026-05-14T10:41:54.999Z</time>
      </trkpt>
      <trkpt lat="44.17513" lon="5.28057">
        <ele>1902.7</ele>
        <time>2026-05-14T10:41:55.999Z</time>
      </trkpt>
      <trkpt lat="44.17513" lon="5.28058">
        <ele>1903.4</ele>
        <time>2026-05-14T10:41:56.999Z</time>
      </trkpt>
      <trkpt lat="44.17514" lon="5.28058">
        <ele>1904.5</ele>
        <time>2026-05-14T10:41:57.999Z</time>
      </trkpt>
      <trkpt lat="44.17515" lon="5.28059">
        <ele>1905.5</ele>
        <time>2026-05-14T10:41:58.999Z</time>
      </trkpt>
      <trkpt lat="44.17515" lon="5.28059">
        <ele>1906.2</ele>
        <time>2026-05-14T10:41:59.999Z</time>
      </trkpt>
      <trkpt lat="44.17515" lon="5.28059">
        <ele>1906.9</ele>
        <time>2026-05-14T10:42:00.999Z</time>
      </trkpt>
      <trkpt lat="44.17515" lon="5.28059">
        <ele>1907.4</ele>
        <time>2026-05-14T10:42:01.999Z</time>
      </trkpt>
      <trkpt lat="44.17515" lon="5.28058">
        <ele>1907.9</ele>
        <time>2026-05-14T10:42:02.999Z</time>
      </trkpt>
      <trkpt lat="44.17515" lon="5.28058">
        <ele>1908.1</ele>
        <time>2026-05-14T10:42:03.999Z</time>
      </trkpt>
      <trkpt lat="44.17515" lon="5.28058">
        <ele>1908.4</ele>
        <time>2026-05-14T10:42:04.999Z</time>
      </trkpt>
      <trkpt lat="44.17515" lon="5.28058">
        <ele>1908.7</ele>
        <time>2026-05-14T10:42:05.999Z</time>
      </trkpt>
      <trkpt lat="44.17515" lon="5.28059">
        <ele>1909.1</ele>
        <time>2026-05-14T10:42:06.999Z</time>
      </trkpt>
      <trkpt lat="44.17515" lon="5.28059">
        <ele>1909.5</ele>
        <time>2026-05-14T10:42:07.999Z</time>
      </trkpt>
      <trkpt lat="44.17515" lon="5.28059">
        <ele>1909.8</ele>
        <time>2026-05-14T10:42:08.999Z</time>
      </trkpt>
      <trkpt lat="44.17515" lon="5.28059">
        <ele>1910</ele>
        <time>2026-05-14T10:42:09.999Z</time>
      </trkpt>
      <trkpt lat="44.17515" lon="5.28059">
        <ele>1910.5</ele>
        <time>2026-05-14T10:42:10.999Z</time>
      </trkpt>
      <trkpt lat="44.17515" lon="5.28059">
        <ele>1910.7</ele>
        <time>2026-05-14T10:42:11.999Z</time>
      </trkpt>
      <trkpt lat="44.17515" lon="5.28059">
        <ele>1910.9</ele>
        <time>2026-05-14T10:42:12.999Z</time>
      </trkpt>
      <trkpt lat="44.17515" lon="5.28059">
        <ele>1911.3</ele>
        <time>2026-05-14T10:42:13.999Z</time>
      </trkpt>
      <trkpt lat="44.17515" lon="5.28058">
        <ele>1911.6</ele>
        <time>2026-05-14T10:42:14.999Z</time>
      </trkpt>
      <trkpt lat="44.17515" lon="5.28058">
        <ele>1911.9</ele>
        <time>2026-05-14T10:42:15.999Z</time>
      </trkpt>
      <trkpt lat="44.17515" lon="5.28058">
        <ele>1912</ele>
        <time>2026-05-14T10:42:16.999Z</time>
      </trkpt>
      <trkpt lat="44.17515" lon="5.28058">
        <ele>1912.3</ele>
        <time>2026-05-14T10:42:17.999Z</time>
      </trkpt>
      <trkpt lat="44.17515" lon="5.28058">
        <ele>1912.6</ele>
        <time>2026-05-14T10:42:18.999Z</time>
      </trkpt>
      <trkpt lat="44.17515" lon="5.28058">
        <ele>1912.9</ele>
        <time>2026-05-14T10:42:19.999Z</time>
      </trkpt>
      <trkpt lat="44.17515" lon="5.28058">
        <ele>1913.1</ele>
        <time>2026-05-14T10:42:20.999Z</time>
      </trkpt>
      <trkpt lat="44.17515" lon="5.28058">
        <ele>1913.1</ele>
        <time>2026-05-14T10:42:21.999Z</time>
      </trkpt>
      <trkpt lat="44.17515" lon="5.28058">
        <ele>1913</ele>
        <time>2026-05-14T10:42:22.999Z</time>
      </trkpt>
      <trkpt lat="44.17515" lon="5.28057">
        <ele>1913.4</ele>
        <time>2026-05-14T10:42:23.999Z</time>
      </trkpt>
      <trkpt lat="44.17516" lon="5.28057">
        <ele>1913.7</ele>
        <time>2026-05-14T10:42:24.999Z</time>
      </trkpt>
      <trkpt lat="44.17516" lon="5.28056">
        <ele>1913.7</ele>
        <time>2026-05-14T10:42:25.999Z</time>
      </trkpt>
      <trkpt lat="44.17516" lon="5.28056">
        <ele>1913.9</ele>
        <time>2026-05-14T10:42:26.999Z</time>
      </trkpt>
      <trkpt lat="44.17516" lon="5.28056">
        <ele>1914</ele>
        <time>2026-05-14T10:42:27.999Z</time>
      </trkpt>
      <trkpt lat="44.17516" lon="5.28056">
        <ele>1914.2</ele>
        <time>2026-05-14T10:42:28.999Z</time>
      </trkpt>
      <trkpt lat="44.17516" lon="5.28056">
        <ele>1914.4</ele>
        <time>2026-05-14T10:42:29.999Z</time>
      </trkpt>
      <trkpt lat="44.17516" lon="5.28056">
        <ele>1914.7</ele>
        <time>2026-05-14T10:42:30.999Z</time>
      </trkpt>
      <trkpt lat="44.17516" lon="5.28056">
        <ele>1914.9</ele>
        <time>2026-05-14T10:42:31.999Z</time>
      </trkpt>
      <trkpt lat="44.17516" lon="5.28056">
        <ele>1915.3</ele>
        <time>2026-05-14T10:42:32.999Z</time>
      </trkpt>
      <trkpt lat="44.17516" lon="5.28056">
        <ele>1915.6</ele>
        <time>2026-05-14T10:42:33.999Z</time>
      </trkpt>
      <trkpt lat="44.17516" lon="5.28056">
        <ele>1915.7</ele>
        <time>2026-05-14T10:42:34.999Z</time>
      </trkpt>
      <trkpt lat="44.17516" lon="5.28056">
        <ele>1916</ele>
        <time>2026-05-14T10:42:35.999Z</time>
      </trkpt>
      <trkpt lat="44.17516" lon="5.28056">
        <ele>1915.9</ele>
        <time>2026-05-14T10:42:36.999Z</time>
      </trkpt>
      <trkpt lat="44.17516" lon="5.28056">
        <ele>1915.8</ele>
        <time>2026-05-14T10:42:37.999Z</time>
      </trkpt>
      <trkpt lat="44.17516" lon="5.28056">
        <ele>1915.6</ele>
        <time>2026-05-14T10:42:38.999Z</time>
      </trkpt>
      <trkpt lat="44.17516" lon="5.28056">
        <ele>1915.7</ele>
        <time>2026-05-14T10:42:39.999Z</time>
      </trkpt>
      <trkpt lat="44.17516" lon="5.28056">
        <ele>1915.8</ele>
        <time>2026-05-14T10:42:40.999Z</time>
      </trkpt>
      <trkpt lat="44.17516" lon="5.28056">
        <ele>1915.8</ele>
        <time>2026-05-14T10:42:41.999Z</time>
      </trkpt>
      <trkpt lat="44.17516" lon="5.28056">
        <ele>1916.1</ele>
        <time>2026-05-14T10:42:42.999Z</time>
      </trkpt>
      <trkpt lat="44.17515" lon="5.28057">
        <ele>1916.5</ele>
        <time>2026-05-14T10:42:43.999Z</time>
      </trkpt>
      <trkpt lat="44.17514" lon="5.28058">
        <ele>1916.6</ele>
        <time>2026-05-14T10:42:44.999Z</time>
      </trkpt>
      <trkpt lat="44.17513" lon="5.28059">
        <ele>1916.6</ele>
        <time>2026-05-14T10:42:45.999Z</time>
      </trkpt>
      <trkpt lat="44.17512" lon="5.2806">
        <ele>1916.5</ele>
        <time>2026-05-14T10:42:46.999Z</time>
      </trkpt>
      <trkpt lat="44.17512" lon="5.2806">
        <ele>1916.2</ele>
        <time>2026-05-14T10:42:47.999Z</time>
      </trkpt>
      <trkpt lat="44.17511" lon="5.28061">
        <ele>1916.2</ele>
        <time>2026-05-14T10:42:48.999Z</time>
      </trkpt>
      <trkpt lat="44.1751" lon="5.28061">
        <ele>1916.1</ele>
        <time>2026-05-14T10:42:49.999Z</time>
      </trkpt>
      <trkpt lat="44.17509" lon="5.28062">
        <ele>1916.1</ele>
        <time>2026-05-14T10:42:50.999Z</time>
      </trkpt>
      <trkpt lat="44.17508" lon="5.28063">
        <ele>1916.1</ele>
        <time>2026-05-14T10:42:51.999Z</time>
      </trkpt>
      <trkpt lat="44.17507" lon="5.28064">
        <ele>1915.9</ele>
        <time>2026-05-14T10:42:53.999Z</time>
      </trkpt>
      <trkpt lat="44.17507" lon="5.28064">
        <ele>1915.4</ele>
        <time>2026-05-14T10:42:54.999Z</time>
      </trkpt>
      <trkpt lat="44.17506" lon="5.28064">
        <ele>1914.5</ele>
        <time>2026-05-14T10:42:55.999Z</time>
      </trkpt>
      <trkpt lat="44.17506" lon="5.28064">
        <ele>1914.3</ele>
        <time>2026-05-14T10:42:56.999Z</time>
      </trkpt>
      <trkpt lat="44.17506" lon="5.28064">
        <ele>1914</ele>
        <time>2026-05-14T10:42:57.999Z</time>
      </trkpt>
      <trkpt lat="44.17506" lon="5.28064">
        <ele>1913.9</ele>
        <time>2026-05-14T10:42:58.999Z</time>
      </trkpt>
      <trkpt lat="44.17506" lon="5.28064">
        <ele>1913.6</ele>
        <time>2026-05-14T10:42:59.999Z</time>
      </trkpt>
      <trkpt lat="44.17506" lon="5.28064">
        <ele>1913.2</ele>
        <time>2026-05-14T10:43:00.999Z</time>
      </trkpt>
      <trkpt lat="44.17506" lon="5.28064">
        <ele>1912.8</ele>
        <time>2026-05-14T10:43:01.999Z</time>
      </trkpt>
      <trkpt lat="44.17506" lon="5.28064">
        <ele>1912.7</ele>
        <time>2026-05-14T10:43:02.999Z</time>
      </trkpt>
      <trkpt lat="44.17506" lon="5.28064">
        <ele>1912.3</ele>
        <time>2026-05-14T10:43:03.999Z</time>
      </trkpt>
      <trkpt lat="44.17506" lon="5.28064">
        <ele>1911.9</ele>
        <time>2026-05-14T10:43:04.999Z</time>
      </trkpt>
      <trkpt lat="44.17506" lon="5.28063">
        <ele>1911.8</ele>
        <time>2026-05-14T10:43:05.999Z</time>
      </trkpt>
      <trkpt lat="44.17506" lon="5.28063">
        <ele>1911.6</ele>
        <time>2026-05-14T10:43:06.999Z</time>
      </trkpt>
      <trkpt lat="44.17506" lon="5.28063">
        <ele>1911.6</ele>
        <time>2026-05-14T10:43:07.999Z</time>
      </trkpt>
      <trkpt lat="44.17506" lon="5.28063">
        <ele>1911.2</ele>
        <time>2026-05-14T10:43:08.999Z</time>
      </trkpt>
      <trkpt lat="44.17506" lon="5.28063">
        <ele>1911.1</ele>
        <time>2026-05-14T10:43:09.999Z</time>
      </trkpt>
      <trkpt lat="44.17506" lon="5.28063">
        <ele>1911.1</ele>
        <time>2026-05-14T10:43:10.999Z</time>
      </trkpt>
      <trkpt lat="44.17506" lon="5.28063">
        <ele>1910.9</ele>
        <time>2026-05-14T10:43:11.999Z</time>
      </trkpt>
      <trkpt lat="44.17506" lon="5.28063">
        <ele>1910.9</ele>
        <time>2026-05-14T10:43:12.999Z</time>
      </trkpt>
      <trkpt lat="44.17506" lon="5.28063">
        <ele>1910.8</ele>
        <time>2026-05-14T10:43:13.999Z</time>
      </trkpt>
      <trkpt lat="44.17506" lon="5.28063">
        <ele>1910.8</ele>
        <time>2026-05-14T10:43:14.999Z</time>
      </trkpt>
      <trkpt lat="44.17506" lon="5.28063">
        <ele>1910.6</ele>
        <time>2026-05-14T10:43:15.999Z</time>
      </trkpt>
      <trkpt lat="44.17506" lon="5.28063">
        <ele>1910.4</ele>
        <time>2026-05-14T10:43:16.999Z</time>
      </trkpt>
      <trkpt lat="44.17506" lon="5.28063">
        <ele>1910.4</ele>
        <time>2026-05-14T10:43:17.999Z</time>
      </trkpt>
      <trkpt lat="44.17506" lon="5.28064">
        <ele>1910.4</ele>
        <time>2026-05-14T10:43:18.999Z</time>
      </trkpt>
      <trkpt lat="44.17506" lon="5.28064">
        <ele>1910.5</ele>
        <time>2026-05-14T10:43:19.999Z</time>
      </trkpt>
      <trkpt lat="44.17506" lon="5.28064">
        <ele>1910.5</ele>
        <time>2026-05-14T10:43:20.999Z</time>
      </trkpt>
      <trkpt lat="44.17506" lon="5.28064">
        <ele>1910.2</ele>
        <time>2026-05-14T10:43:21.999Z</time>
      </trkpt>
      <trkpt lat="44.17506" lon="5.28064">
        <ele>1910.1</ele>
        <time>2026-05-14T10:43:22.999Z</time>
      </trkpt>
      <trkpt lat="44.17506" lon="5.28064">
        <ele>1910.2</ele>
        <time>2026-05-14T10:43:23.999Z</time>
      </trkpt>
      <trkpt lat="44.17506" lon="5.28064">
        <ele>1910.3</ele>
        <time>2026-05-14T10:43:24.999Z</time>
      </trkpt>
      <trkpt lat="44.17506" lon="5.28064">
        <ele>1910.7</ele>
        <time>2026-05-14T10:43:25.999Z</time>
      </trkpt>
      <trkpt lat="44.17506" lon="5.28064">
        <ele>1911</ele>
        <time>2026-05-14T10:43:26.999Z</time>
      </trkpt>
      <trkpt lat="44.17506" lon="5.28064">
        <ele>1911.4</ele>
        <time>2026-05-14T10:43:27.999Z</time>
      </trkpt>
      <trkpt lat="44.17506" lon="5.28063">
        <ele>1911.6</ele>
        <time>2026-05-14T10:43:28.999Z</time>
      </trkpt>
      <trkpt lat="44.17506" lon="5.28063">
        <ele>1911.6</ele>
        <time>2026-05-14T10:43:29.999Z</time>
      </trkpt>
      <trkpt lat="44.17506" lon="5.28064">
        <ele>1911.5</ele>
        <time>2026-05-14T10:43:30.999Z</time>
      </trkpt>
      <trkpt lat="44.17506" lon="5.28064">
        <ele>1911.4</ele>
        <time>2026-05-14T10:43:31.999Z</time>
      </trkpt>
      <trkpt lat="44.17506" lon="5.28064">
        <ele>1911.5</ele>
        <time>2026-05-14T10:43:32.999Z</time>
      </trkpt>
      <trkpt lat="44.17506" lon="5.28064">
        <ele>1912</ele>
        <time>2026-05-14T10:43:33.999Z</time>
      </trkpt>
      <trkpt lat="44.17506" lon="5.28064">
        <ele>1912.7</ele>
        <time>2026-05-14T10:43:34.999Z</time>
      </trkpt>
      <trkpt lat="44.17506" lon="5.28064">
        <ele>1913.3</ele>
        <time>2026-05-14T10:43:35.999Z</time>
      </trkpt>
      <trkpt lat="44.17506" lon="5.28064">
        <ele>1914.1</ele>
        <time>2026-05-14T10:43:36.999Z</time>
      </trkpt>
      <trkpt lat="44.17506" lon="5.28064">
        <ele>1913.8</ele>
        <time>2026-05-14T10:43:37.999Z</time>
      </trkpt>
      <trkpt lat="44.17506" lon="5.28064">
        <ele>1913.6</ele>
        <time>2026-05-14T10:43:38.999Z</time>
      </trkpt>
      <trkpt lat="44.17506" lon="5.28064">
        <ele>1913.4</ele>
        <time>2026-05-14T10:43:39.999Z</time>
      </trkpt>
      <trkpt lat="44.17506" lon="5.28064">
        <ele>1913.5</ele>
        <time>2026-05-14T10:43:40.999Z</time>
      </trkpt>
      <trkpt lat="44.17506" lon="5.28064">
        <ele>1914</ele>
        <time>2026-05-14T10:43:41.999Z</time>
      </trkpt>
      <trkpt lat="44.17506" lon="5.28064">
        <ele>1914.6</ele>
        <time>2026-05-14T10:43:42.999Z</time>
      </trkpt>
      <trkpt lat="44.17506" lon="5.28064">
        <ele>1914.9</ele>
        <time>2026-05-14T10:43:43.999Z</time>
      </trkpt>
      <trkpt lat="44.17506" lon="5.28064">
        <ele>1914.8</ele>
        <time>2026-05-14T10:43:44.999Z</time>
      </trkpt>
      <trkpt lat="44.17506" lon="5.28064">
        <ele>1914.8</ele>
        <time>2026-05-14T10:43:45.999Z</time>
      </trkpt>
      <trkpt lat="44.17506" lon="5.28064">
        <ele>1915</ele>
        <time>2026-05-14T10:43:46.999Z</time>
      </trkpt>
      <trkpt lat="44.17506" lon="5.28064">
        <ele>1914.9</ele>
        <time>2026-05-14T10:43:47.999Z</time>
      </trkpt>
      <trkpt lat="44.17506" lon="5.28064">
        <ele>1914.9</ele>
        <time>2026-05-14T10:43:48.999Z</time>
      </trkpt>
      <trkpt lat="44.17506" lon="5.28064">
        <ele>1914.7</ele>
        <time>2026-05-14T10:43:49.999Z</time>
      </trkpt>
      <trkpt lat="44.17506" lon="5.28064">
        <ele>1914.7</ele>
        <time>2026-05-14T10:43:50.999Z</time>
      </trkpt>
      <trkpt lat="44.17506" lon="5.28064">
        <ele>1915.3</ele>
        <time>2026-05-14T10:43:51.999Z</time>
      </trkpt>
      <trkpt lat="44.17506" lon="5.28064">
        <ele>1915.6</ele>
        <time>2026-05-14T10:43:52.999Z</time>
      </trkpt>
      <trkpt lat="44.17506" lon="5.28064">
        <ele>1915.9</ele>
        <time>2026-05-14T10:43:53.999Z</time>
      </trkpt>
      <trkpt lat="44.17506" lon="5.28064">
        <ele>1916</ele>
        <time>2026-05-14T10:43:54.999Z</time>
      </trkpt>
      <trkpt lat="44.17506" lon="5.28064">
        <ele>1915.8</ele>
        <time>2026-05-14T10:43:55.999Z</time>
      </trkpt>
      <trkpt lat="44.17506" lon="5.28064">
        <ele>1915.8</ele>
        <time>2026-05-14T10:43:56.999Z</time>
      </trkpt>
      <trkpt lat="44.17506" lon="5.28064">
        <ele>1916.1</ele>
        <time>2026-05-14T10:43:57.999Z</time>
      </trkpt>
      <trkpt lat="44.17506" lon="5.28064">
        <ele>1916.5</ele>
        <time>2026-05-14T10:43:58.999Z</time>
      </trkpt>
      <trkpt lat="44.17506" lon="5.28064">
        <ele>1916.7</ele>
        <time>2026-05-14T10:43:59.999Z</time>
      </trkpt>
      <trkpt lat="44.17506" lon="5.28064">
        <ele>1917</ele>
        <time>2026-05-14T10:44:00.999Z</time>
      </trkpt>
      <trkpt lat="44.17506" lon="5.28064">
        <ele>1917</ele>
        <time>2026-05-14T10:44:01.999Z</time>
      </trkpt>
      <trkpt lat="44.17506" lon="5.28064">
        <ele>1917.1</ele>
        <time>2026-05-14T10:44:02.999Z</time>
      </trkpt>
      <trkpt lat="44.17506" lon="5.28064">
        <ele>1917.1</ele>
        <time>2026-05-14T10:44:03.999Z</time>
      </trkpt>
      <trkpt lat="44.17506" lon="5.28064">
        <ele>1917.2</ele>
        <time>2026-05-14T10:44:04.999Z</time>
      </trkpt>
      <trkpt lat="44.17506" lon="5.28064">
        <ele>1917.5</ele>
        <time>2026-05-14T10:44:05.999Z</time>
      </trkpt>
      <trkpt lat="44.17506" lon="5.28064">
        <ele>1917.7</ele>
        <time>2026-05-14T10:44:06.999Z</time>
      </trkpt>
      <trkpt lat="44.17506" lon="5.28064">
        <ele>1918.2</ele>
        <time>2026-05-14T10:44:07.999Z</time>
      </trkpt>
      <trkpt lat="44.17506" lon="5.28064">
        <ele>1918.4</ele>
        <time>2026-05-14T10:44:08.999Z</time>
      </trkpt>
      <trkpt lat="44.17506" lon="5.28064">
        <ele>1918.7</ele>
        <time>2026-05-14T10:44:09.999Z</time>
      </trkpt>
      <trkpt lat="44.17506" lon="5.28064">
        <ele>1918.8</ele>
        <time>2026-05-14T10:44:10.999Z</time>
      </trkpt>
      <trkpt lat="44.17506" lon="5.28064">
        <ele>1919</ele>
        <time>2026-05-14T10:44:11.999Z</time>
      </trkpt>
      <trkpt lat="44.17506" lon="5.28064">
        <ele>1919.1</ele>
        <time>2026-05-14T10:44:12.999Z</time>
      </trkpt>
      <trkpt lat="44.17506" lon="5.28064">
        <ele>1919.5</ele>
        <time>2026-05-14T10:44:13.999Z</time>
      </trkpt>
      <trkpt lat="44.17506" lon="5.28064">
        <ele>1919.7</ele>
        <time>2026-05-14T10:44:14.999Z</time>
      </trkpt>
      <trkpt lat="44.17506" lon="5.28064">
        <ele>1919.6</ele>
        <time>2026-05-14T10:44:15.999Z</time>
      </trkpt>
      <trkpt lat="44.17506" lon="5.28064">
        <ele>1919.5</ele>
        <time>2026-05-14T10:44:16.999Z</time>
      </trkpt>
      <trkpt lat="44.17506" lon="5.28064">
        <ele>1919.1</ele>
        <time>2026-05-14T10:44:17.999Z</time>
      </trkpt>
      <trkpt lat="44.17506" lon="5.28064">
        <ele>1918.8</ele>
        <time>2026-05-14T10:44:18.999Z</time>
      </trkpt>
      <trkpt lat="44.17506" lon="5.28064">
        <ele>1918.6</ele>
        <time>2026-05-14T10:44:19.999Z</time>
      </trkpt>
      <trkpt lat="44.17506" lon="5.28064">
        <ele>1918.6</ele>
        <time>2026-05-14T10:44:20.999Z</time>
      </trkpt>
      <trkpt lat="44.17506" lon="5.28064">
        <ele>1918.9</ele>
        <time>2026-05-14T10:44:21.999Z</time>
      </trkpt>
      <trkpt lat="44.17506" lon="5.28064">
        <ele>1919.1</ele>
        <time>2026-05-14T10:44:22.999Z</time>
      </trkpt>
      <trkpt lat="44.17506" lon="5.28064">
        <ele>1919.1</ele>
        <time>2026-05-14T10:44:23.999Z</time>
      </trkpt>
      <trkpt lat="44.17506" lon="5.28064">
        <ele>1919.1</ele>
        <time>2026-05-14T10:44:24.999Z</time>
      </trkpt>
      <trkpt lat="44.17506" lon="5.28064">
        <ele>1919.1</ele>
        <time>2026-05-14T10:44:25.999Z</time>
      </trkpt>
      <trkpt lat="44.17506" lon="5.28064">
        <ele>1919.3</ele>
        <time>2026-05-14T10:44:26.999Z</time>
      </trkpt>
      <trkpt lat="44.17506" lon="5.28064">
        <ele>1919.5</ele>
        <time>2026-05-14T10:44:27.999Z</time>
      </trkpt>
      <trkpt lat="44.17505" lon="5.28064">
        <ele>1919.8</ele>
        <time>2026-05-14T10:44:28.999Z</time>
      </trkpt>
      <trkpt lat="44.17506" lon="5.28064">
        <ele>1920</ele>
        <time>2026-05-14T10:44:29.999Z</time>
      </trkpt>
      <trkpt lat="44.17506" lon="5.28064">
        <ele>1920.2</ele>
        <time>2026-05-14T10:44:30.999Z</time>
      </trkpt>
      <trkpt lat="44.17506" lon="5.28064">
        <ele>1920.2</ele>
        <time>2026-05-14T10:44:31.999Z</time>
      </trkpt>
      <trkpt lat="44.17506" lon="5.28064">
        <ele>1920.3</ele>
        <time>2026-05-14T10:44:32.999Z</time>
      </trkpt>
      <trkpt lat="44.17506" lon="5.28064">
        <ele>1920</ele>
        <time>2026-05-14T10:44:33.999Z</time>
      </trkpt>
      <trkpt lat="44.17506" lon="5.28064">
        <ele>1920.1</ele>
        <time>2026-05-14T10:44:34.999Z</time>
      </trkpt>
      <trkpt lat="44.17506" lon="5.28064">
        <ele>1919.9</ele>
        <time>2026-05-14T10:44:35.999Z</time>
      </trkpt>
      <trkpt lat="44.17506" lon="5.28064">
        <ele>1920</ele>
        <time>2026-05-14T10:44:36.999Z</time>
      </trkpt>
      <trkpt lat="44.17506" lon="5.28063">
        <ele>1920</ele>
        <time>2026-05-14T10:44:37.999Z</time>
      </trkpt>
      <trkpt lat="44.17506" lon="5.28063">
        <ele>1920.1</ele>
        <time>2026-05-14T10:44:38.999Z</time>
      </trkpt>
      <trkpt lat="44.17507" lon="5.28061">
        <ele>1920.1</ele>
        <time>2026-05-14T10:44:39.999Z</time>
      </trkpt>
      <trkpt lat="44.17507" lon="5.2806">
        <ele>1920.2</ele>
        <time>2026-05-14T10:44:40.999Z</time>
      </trkpt>
      <trkpt lat="44.17507" lon="5.28059">
        <ele>1920.3</ele>
        <time>2026-05-14T10:44:41.999Z</time>
      </trkpt>
      <trkpt lat="44.17508" lon="5.28058">
        <ele>1920.3</ele>
        <time>2026-05-14T10:44:42.999Z</time>
      </trkpt>
      <trkpt lat="44.17508" lon="5.28058">
        <ele>1920.3</ele>
        <time>2026-05-14T10:44:43.999Z</time>
      </trkpt>
      <trkpt lat="44.17508" lon="5.28058">
        <ele>1920.4</ele>
        <time>2026-05-14T10:44:44.999Z</time>
      </trkpt>
      <trkpt lat="44.17507" lon="5.28058">
        <ele>1920.4</ele>
        <time>2026-05-14T10:44:45.999Z</time>
      </trkpt>
      <trkpt lat="44.17507" lon="5.28058">
        <ele>1920.6</ele>
        <time>2026-05-14T10:44:46.999Z</time>
      </trkpt>
      <trkpt lat="44.17507" lon="5.28058">
        <ele>1920.7</ele>
        <time>2026-05-14T10:44:47.999Z</time>
      </trkpt>
      <trkpt lat="44.17508" lon="5.28058">
        <ele>1920.8</ele>
        <time>2026-05-14T10:44:48.999Z</time>
      </trkpt>
      <trkpt lat="44.17508" lon="5.28057">
        <ele>1921</ele>
        <time>2026-05-14T10:44:49.999Z</time>
      </trkpt>
      <trkpt lat="44.17508" lon="5.28057">
        <ele>1921</ele>
        <time>2026-05-14T10:44:50.999Z</time>
      </trkpt>
      <trkpt lat="44.17508" lon="5.28056">
        <ele>1921.1</ele>
        <time>2026-05-14T10:44:51.999Z</time>
      </trkpt>
      <trkpt lat="44.17508" lon="5.28056">
        <ele>1921</ele>
        <time>2026-05-14T10:44:52.999Z</time>
      </trkpt>
      <trkpt lat="44.17508" lon="5.28056">
        <ele>1920.6</ele>
        <time>2026-05-14T10:44:53.999Z</time>
      </trkpt>
      <trkpt lat="44.17508" lon="5.28056">
        <ele>1920.6</ele>
        <time>2026-05-14T10:44:54.999Z</time>
      </trkpt>
      <trkpt lat="44.17508" lon="5.28056">
        <ele>1920.6</ele>
        <time>2026-05-14T10:44:55.999Z</time>
      </trkpt>
      <trkpt lat="44.17508" lon="5.28056">
        <ele>1920.6</ele>
        <time>2026-05-14T10:44:56.999Z</time>
      </trkpt>
      <trkpt lat="44.17507" lon="5.28057">
        <ele>1920.6</ele>
        <time>2026-05-14T10:44:57.999Z</time>
      </trkpt>
      <trkpt lat="44.17507" lon="5.28058">
        <ele>1920.6</ele>
        <time>2026-05-14T10:44:58.999Z</time>
      </trkpt>
      <trkpt lat="44.17506" lon="5.2806">
        <ele>1920.7</ele>
        <time>2026-05-14T10:44:59.999Z</time>
      </trkpt>
      <trkpt lat="44.17506" lon="5.28061">
        <ele>1920.8</ele>
        <time>2026-05-14T10:45:00.999Z</time>
      </trkpt>
      <trkpt lat="44.17505" lon="5.28062">
        <ele>1920.8</ele>
        <time>2026-05-14T10:45:01.999Z</time>
      </trkpt>
      <trkpt lat="44.17504" lon="5.28064">
        <ele>1920.9</ele>
        <time>2026-05-14T10:45:02.999Z</time>
      </trkpt>
      <trkpt lat="44.17504" lon="5.28065">
        <ele>1920.9</ele>
        <time>2026-05-14T10:45:03.999Z</time>
      </trkpt>
      <trkpt lat="44.17503" lon="5.28066">
        <ele>1920.5</ele>
        <time>2026-05-14T10:45:04.999Z</time>
      </trkpt>
      <trkpt lat="44.17503" lon="5.28067">
        <ele>1920.2</ele>
        <time>2026-05-14T10:45:05.999Z</time>
      </trkpt>
      <trkpt lat="44.17502" lon="5.28068">
        <ele>1919.7</ele>
        <time>2026-05-14T10:45:06.999Z</time>
      </trkpt>
      <trkpt lat="44.17502" lon="5.28069">
        <ele>1919.2</ele>
        <time>2026-05-14T10:45:07.999Z</time>
      </trkpt>
      <trkpt lat="44.17502" lon="5.28069">
        <ele>1919.3</ele>
        <time>2026-05-14T10:45:08.999Z</time>
      </trkpt>
      <trkpt lat="44.17502" lon="5.2807">
        <ele>1919</ele>
        <time>2026-05-14T10:45:09.999Z</time>
      </trkpt>
      <trkpt lat="44.17502" lon="5.28072">
        <ele>1918.7</ele>
        <time>2026-05-14T10:45:10.999Z</time>
      </trkpt>
      <trkpt lat="44.17502" lon="5.28073">
        <ele>1918.6</ele>
        <time>2026-05-14T10:45:11.999Z</time>
      </trkpt>
      <trkpt lat="44.17502" lon="5.28074">
        <ele>1918.7</ele>
        <time>2026-05-14T10:45:12.999Z</time>
      </trkpt>
      <trkpt lat="44.17502" lon="5.28074">
        <ele>1918.4</ele>
        <time>2026-05-14T10:45:13.999Z</time>
      </trkpt>
      <trkpt lat="44.17501" lon="5.28075">
        <ele>1918.4</ele>
        <time>2026-05-14T10:45:14.999Z</time>
      </trkpt>
      <trkpt lat="44.17501" lon="5.28075">
        <ele>1918.5</ele>
        <time>2026-05-14T10:45:15.999Z</time>
      </trkpt>
      <trkpt lat="44.17501" lon="5.28076">
        <ele>1918.6</ele>
        <time>2026-05-14T10:45:16.999Z</time>
      </trkpt>
      <trkpt lat="44.175" lon="5.28076">
        <ele>1918.6</ele>
        <time>2026-05-14T10:45:17.999Z</time>
      </trkpt>
      <trkpt lat="44.175" lon="5.28076">
        <ele>1918.3</ele>
        <time>2026-05-14T10:45:18.999Z</time>
      </trkpt>
      <trkpt lat="44.17501" lon="5.28076">
        <ele>1918.5</ele>
        <time>2026-05-14T10:45:19.999Z</time>
      </trkpt>
      <trkpt lat="44.17501" lon="5.28076">
        <ele>1918.5</ele>
        <time>2026-05-14T10:45:20.999Z</time>
      </trkpt>
      <trkpt lat="44.17501" lon="5.28076">
        <ele>1918.3</ele>
        <time>2026-05-14T10:45:21.999Z</time>
      </trkpt>
      <trkpt lat="44.17501" lon="5.28076">
        <ele>1918.1</ele>
        <time>2026-05-14T10:45:22.999Z</time>
      </trkpt>
      <trkpt lat="44.17501" lon="5.28076">
        <ele>1918.1</ele>
        <time>2026-05-14T10:45:23.999Z</time>
      </trkpt>
      <trkpt lat="44.17501" lon="5.28076">
        <ele>1917.6</ele>
        <time>2026-05-14T10:45:24.999Z</time>
      </trkpt>
      <trkpt lat="44.17501" lon="5.28076">
        <ele>1917.4</ele>
        <time>2026-05-14T10:45:25.999Z</time>
      </trkpt>
      <trkpt lat="44.17501" lon="5.28076">
        <ele>1917.2</ele>
        <time>2026-05-14T10:45:26.999Z</time>
      </trkpt>
      <trkpt lat="44.17501" lon="5.28076">
        <ele>1917</ele>
        <time>2026-05-14T10:45:27.999Z</time>
      </trkpt>
      <trkpt lat="44.17501" lon="5.28076">
        <ele>1916.9</ele>
        <time>2026-05-14T10:45:28.999Z</time>
      </trkpt>
      <trkpt lat="44.17501" lon="5.28076">
        <ele>1917</ele>
        <time>2026-05-14T10:45:29.999Z</time>
      </trkpt>
      <trkpt lat="44.17501" lon="5.28076">
        <ele>1916.8</ele>
        <time>2026-05-14T10:45:30.999Z</time>
      </trkpt>
      <trkpt lat="44.17501" lon="5.28076">
        <ele>1916.7</ele>
        <time>2026-05-14T10:45:31.999Z</time>
      </trkpt>
      <trkpt lat="44.17501" lon="5.28076">
        <ele>1916.8</ele>
        <time>2026-05-14T10:45:32.999Z</time>
      </trkpt>
      <trkpt lat="44.17501" lon="5.28076">
        <ele>1916.7</ele>
        <time>2026-05-14T10:45:33.999Z</time>
      </trkpt>
      <trkpt lat="44.17501" lon="5.28076">
        <ele>1916.3</ele>
        <time>2026-05-14T10:45:34.999Z</time>
      </trkpt>
      <trkpt lat="44.17501" lon="5.28076">
        <ele>1916</ele>
        <time>2026-05-14T10:45:35.999Z</time>
      </trkpt>
      <trkpt lat="44.17501" lon="5.28076">
        <ele>1915.8</ele>
        <time>2026-05-14T10:45:36.999Z</time>
      </trkpt>
      <trkpt lat="44.17501" lon="5.28077">
        <ele>1915.4</ele>
        <time>2026-05-14T10:45:37.999Z</time>
      </trkpt>
      <trkpt lat="44.17501" lon="5.28077">
        <ele>1915.1</ele>
        <time>2026-05-14T10:45:38.999Z</time>
      </trkpt>
      <trkpt lat="44.17501" lon="5.28077">
        <ele>1915.2</ele>
        <time>2026-05-14T10:45:39.999Z</time>
      </trkpt>
      <trkpt lat="44.17501" lon="5.28077">
        <ele>1915.4</ele>
        <time>2026-05-14T10:45:40.999Z</time>
      </trkpt>
      <trkpt lat="44.17501" lon="5.28077">
        <ele>1915.5</ele>
        <time>2026-05-14T10:45:41.999Z</time>
      </trkpt>
      <trkpt lat="44.17501" lon="5.28077">
        <ele>1915.3</ele>
        <time>2026-05-14T10:45:42.999Z</time>
      </trkpt>
      <trkpt lat="44.17501" lon="5.28077">
        <ele>1915.5</ele>
        <time>2026-05-14T10:45:43.999Z</time>
      </trkpt>
      <trkpt lat="44.17501" lon="5.28077">
        <ele>1915.6</ele>
        <time>2026-05-14T10:45:44.999Z</time>
      </trkpt>
      <trkpt lat="44.175" lon="5.28077">
        <ele>1915.4</ele>
        <time>2026-05-14T10:45:45.999Z</time>
      </trkpt>
      <trkpt lat="44.175" lon="5.28077">
        <ele>1915.6</ele>
        <time>2026-05-14T10:45:46.999Z</time>
      </trkpt>
      <trkpt lat="44.175" lon="5.28076">
        <ele>1915.5</ele>
        <time>2026-05-14T10:45:47.999Z</time>
      </trkpt>
      <trkpt lat="44.175" lon="5.28076">
        <ele>1915.6</ele>
        <time>2026-05-14T10:45:48.999Z</time>
      </trkpt>
      <trkpt lat="44.175" lon="5.28076">
        <ele>1915.9</ele>
        <time>2026-05-14T10:45:49.999Z</time>
      </trkpt>
      <trkpt lat="44.175" lon="5.28076">
        <ele>1916</ele>
        <time>2026-05-14T10:45:50.999Z</time>
      </trkpt>
      <trkpt lat="44.175" lon="5.28076">
        <ele>1916.1</ele>
        <time>2026-05-14T10:45:51.999Z</time>
      </trkpt>
      <trkpt lat="44.17499" lon="5.28075">
        <ele>1916</ele>
        <time>2026-05-14T10:45:52.999Z</time>
      </trkpt>
      <trkpt lat="44.17498" lon="5.28075">
        <ele>1916</ele>
        <time>2026-05-14T10:45:53.999Z</time>
      </trkpt>
      <trkpt lat="44.17497" lon="5.28074">
        <ele>1916</ele>
        <time>2026-05-14T10:45:54.999Z</time>
      </trkpt>
      <trkpt lat="44.17496" lon="5.28073">
        <ele>1915.7</ele>
        <time>2026-05-14T10:45:55.999Z</time>
      </trkpt>
      <trkpt lat="44.17496" lon="5.28073">
        <ele>1915.5</ele>
        <time>2026-05-14T10:45:56.999Z</time>
      </trkpt>
      <trkpt lat="44.17495" lon="5.28072">
        <ele>1915.5</ele>
        <time>2026-05-14T10:45:57.999Z</time>
      </trkpt>
      <trkpt lat="44.17494" lon="5.28071">
        <ele>1915.3</ele>
        <time>2026-05-14T10:45:58.999Z</time>
      </trkpt>
      <trkpt lat="44.17494" lon="5.2807">
        <ele>1915.4</ele>
        <time>2026-05-14T10:45:59.999Z</time>
      </trkpt>
      <trkpt lat="44.17493" lon="5.28069">
        <ele>1915.8</ele>
        <time>2026-05-14T10:46:00.999Z</time>
      </trkpt>
      <trkpt lat="44.17493" lon="5.28069">
        <ele>1915.5</ele>
        <time>2026-05-14T10:46:01.999Z</time>
      </trkpt>
      <trkpt lat="44.17493" lon="5.28068">
        <ele>1915.6</ele>
        <time>2026-05-14T10:46:02.999Z</time>
      </trkpt>
      <trkpt lat="44.17492" lon="5.28066">
        <ele>1916.2</ele>
        <time>2026-05-14T10:46:03.999Z</time>
      </trkpt>
      <trkpt lat="44.17492" lon="5.28065">
        <ele>1916.7</ele>
        <time>2026-05-14T10:46:04.999Z</time>
      </trkpt>
      <trkpt lat="44.17491" lon="5.28065">
        <ele>1916.7</ele>
        <time>2026-05-14T10:46:05.999Z</time>
      </trkpt>
      <trkpt lat="44.1749" lon="5.28065">
        <ele>1917.1</ele>
        <time>2026-05-14T10:46:06.999Z</time>
      </trkpt>
      <trkpt lat="44.1749" lon="5.28064">
        <ele>1917.5</ele>
        <time>2026-05-14T10:46:07.999Z</time>
      </trkpt>
      <trkpt lat="44.17488" lon="5.28063">
        <ele>1917.6</ele>
        <time>2026-05-14T10:46:08.999Z</time>
      </trkpt>
      <trkpt lat="44.17487" lon="5.28062">
        <ele>1917.4</ele>
        <time>2026-05-14T10:46:09.999Z</time>
      </trkpt>
      <trkpt lat="44.17486" lon="5.2806">
        <ele>1916.9</ele>
        <time>2026-05-14T10:46:10.999Z</time>
      </trkpt>
      <trkpt lat="44.17485" lon="5.28059">
        <ele>1916.7</ele>
        <time>2026-05-14T10:46:11.999Z</time>
      </trkpt>
      <trkpt lat="44.17485" lon="5.28058">
        <ele>1916.9</ele>
        <time>2026-05-14T10:46:12.999Z</time>
      </trkpt>
      <trkpt lat="44.17485" lon="5.28058">
        <ele>1916.9</ele>
        <time>2026-05-14T10:46:13.999Z</time>
      </trkpt>
      <trkpt lat="44.17485" lon="5.28057">
        <ele>1917.2</ele>
        <time>2026-05-14T10:46:14.999Z</time>
      </trkpt>
      <trkpt lat="44.17484" lon="5.28056">
        <ele>1917.3</ele>
        <time>2026-05-14T10:46:15.999Z</time>
      </trkpt>
      <trkpt lat="44.17484" lon="5.28055">
        <ele>1917.5</ele>
        <time>2026-05-14T10:46:16.999Z</time>
      </trkpt>
      <trkpt lat="44.17483" lon="5.28055">
        <ele>1917.8</ele>
        <time>2026-05-14T10:46:17.999Z</time>
      </trkpt>
      <trkpt lat="44.17482" lon="5.28054">
        <ele>1917.8</ele>
        <time>2026-05-14T10:46:18.999Z</time>
      </trkpt>
      <trkpt lat="44.17482" lon="5.28052">
        <ele>1918.3</ele>
        <time>2026-05-14T10:46:19.999Z</time>
      </trkpt>
      <trkpt lat="44.17481" lon="5.28051">
        <ele>1918.8</ele>
        <time>2026-05-14T10:46:20.999Z</time>
      </trkpt>
      <trkpt lat="44.17481" lon="5.28051">
        <ele>1918.7</ele>
        <time>2026-05-14T10:46:21.999Z</time>
      </trkpt>
      <trkpt lat="44.1748" lon="5.2805">
        <ele>1918.9</ele>
        <time>2026-05-14T10:46:22.999Z</time>
      </trkpt>
      <trkpt lat="44.1748" lon="5.2805">
        <ele>1918.8</ele>
        <time>2026-05-14T10:46:23.999Z</time>
      </trkpt>
      <trkpt lat="44.17479" lon="5.2805">
        <ele>1919</ele>
        <time>2026-05-14T10:46:24.999Z</time>
      </trkpt>
      <trkpt lat="44.17478" lon="5.2805">
        <ele>1918.9</ele>
        <time>2026-05-14T10:46:25.999Z</time>
      </trkpt>
      <trkpt lat="44.17478" lon="5.2805">
        <ele>1918.6</ele>
        <time>2026-05-14T10:46:26.999Z</time>
      </trkpt>
      <trkpt lat="44.17478" lon="5.28049">
        <ele>1918.2</ele>
        <time>2026-05-14T10:46:27.999Z</time>
      </trkpt>
      <trkpt lat="44.17478" lon="5.2805">
        <ele>1917.6</ele>
        <time>2026-05-14T10:46:28.999Z</time>
      </trkpt>
      <trkpt lat="44.17478" lon="5.2805">
        <ele>1917.2</ele>
        <time>2026-05-14T10:46:29.999Z</time>
      </trkpt>
      <trkpt lat="44.17478" lon="5.2805">
        <ele>1916.6</ele>
        <time>2026-05-14T10:46:30.999Z</time>
      </trkpt>
      <trkpt lat="44.17478" lon="5.2805">
        <ele>1916.5</ele>
        <time>2026-05-14T10:46:31.999Z</time>
      </trkpt>
      <trkpt lat="44.17478" lon="5.2805">
        <ele>1916.6</ele>
        <time>2026-05-14T10:46:32.999Z</time>
      </trkpt>
      <trkpt lat="44.17478" lon="5.2805">
        <ele>1916.5</ele>
        <time>2026-05-14T10:46:33.999Z</time>
      </trkpt>
      <trkpt lat="44.17478" lon="5.2805">
        <ele>1916.3</ele>
        <time>2026-05-14T10:46:34.999Z</time>
      </trkpt>
      <trkpt lat="44.17478" lon="5.2805">
        <ele>1916</ele>
        <time>2026-05-14T10:46:35.999Z</time>
      </trkpt>
      <trkpt lat="44.17478" lon="5.2805">
        <ele>1915.7</ele>
        <time>2026-05-14T10:46:36.999Z</time>
      </trkpt>
      <trkpt lat="44.17478" lon="5.28049">
        <ele>1915.7</ele>
        <time>2026-05-14T10:46:37.999Z</time>
      </trkpt>
      <trkpt lat="44.17478" lon="5.28049">
        <ele>1916</ele>
        <time>2026-05-14T10:46:38.999Z</time>
      </trkpt>
      <trkpt lat="44.17478" lon="5.28049">
        <ele>1915.5</ele>
        <time>2026-05-14T10:46:39.999Z</time>
      </trkpt>
      <trkpt lat="44.17477" lon="5.28049">
        <ele>1915.4</ele>
        <time>2026-05-14T10:46:40.999Z</time>
      </trkpt>
      <trkpt lat="44.17477" lon="5.28048">
        <ele>1915.6</ele>
        <time>2026-05-14T10:46:41.999Z</time>
      </trkpt>
      <trkpt lat="44.17476" lon="5.28048">
        <ele>1915.5</ele>
        <time>2026-05-14T10:46:42.999Z</time>
      </trkpt>
      <trkpt lat="44.17475" lon="5.28046">
        <ele>1915.7</ele>
        <time>2026-05-14T10:46:43.999Z</time>
      </trkpt>
      <trkpt lat="44.17475" lon="5.28044">
        <ele>1915.7</ele>
        <time>2026-05-14T10:46:44.999Z</time>
      </trkpt>
      <trkpt lat="44.17475" lon="5.28043">
        <ele>1916</ele>
        <time>2026-05-14T10:46:45.999Z</time>
      </trkpt>
      <trkpt lat="44.17474" lon="5.28041">
        <ele>1916.2</ele>
        <time>2026-05-14T10:46:46.999Z</time>
      </trkpt>
      <trkpt lat="44.17474" lon="5.2804">
        <ele>1916.3</ele>
        <time>2026-05-14T10:46:47.999Z</time>
      </trkpt>
      <trkpt lat="44.17474" lon="5.28039">
        <ele>1916.5</ele>
        <time>2026-05-14T10:46:48.999Z</time>
      </trkpt>
      <trkpt lat="44.17473" lon="5.28037">
        <ele>1916.5</ele>
        <time>2026-05-14T10:46:49.999Z</time>
      </trkpt>
      <trkpt lat="44.17472" lon="5.28036">
        <ele>1916.7</ele>
        <time>2026-05-14T10:46:50.999Z</time>
      </trkpt>
      <trkpt lat="44.17472" lon="5.28034">
        <ele>1916.9</ele>
        <time>2026-05-14T10:46:51.999Z</time>
      </trkpt>
      <trkpt lat="44.17471" lon="5.28034">
        <ele>1917.1</ele>
        <time>2026-05-14T10:46:52.999Z</time>
      </trkpt>
      <trkpt lat="44.17471" lon="5.28033">
        <ele>1917.2</ele>
        <time>2026-05-14T10:46:53.999Z</time>
      </trkpt>
      <trkpt lat="44.1747" lon="5.28031">
        <ele>1918</ele>
        <time>2026-05-14T10:46:54.999Z</time>
      </trkpt>
      <trkpt lat="44.17468" lon="5.28032">
        <ele>1919.9</ele>
        <time>2026-05-14T10:46:55.999Z</time>
      </trkpt>
      <trkpt lat="44.17468" lon="5.2803">
        <ele>1920.7</ele>
        <time>2026-05-14T10:46:56.999Z</time>
      </trkpt>
      <trkpt lat="44.17469" lon="5.28028">
        <ele>1921.3</ele>
        <time>2026-05-14T10:46:57.999Z</time>
      </trkpt>
      <trkpt lat="44.17468" lon="5.28025">
        <ele>1922</ele>
        <time>2026-05-14T10:46:58.999Z</time>
      </trkpt>
      <trkpt lat="44.17466" lon="5.28024">
        <ele>1922.9</ele>
        <time>2026-05-14T10:46:59.999Z</time>
      </trkpt>
      <trkpt lat="44.17465" lon="5.28023">
        <ele>1923.5</ele>
        <time>2026-05-14T10:47:00.999Z</time>
      </trkpt>
      <trkpt lat="44.17465" lon="5.28022">
        <ele>1923.9</ele>
        <time>2026-05-14T10:47:01.999Z</time>
      </trkpt>
      <trkpt lat="44.17464" lon="5.28022">
        <ele>1924.1</ele>
        <time>2026-05-14T10:47:02.999Z</time>
      </trkpt>
      <trkpt lat="44.17464" lon="5.28021">
        <ele>1924.3</ele>
        <time>2026-05-14T10:47:03.999Z</time>
      </trkpt>
      <trkpt lat="44.17463" lon="5.28021">
        <ele>1924.7</ele>
        <time>2026-05-14T10:47:04.999Z</time>
      </trkpt>
      <trkpt lat="44.17463" lon="5.2802">
        <ele>1924.7</ele>
        <time>2026-05-14T10:47:05.999Z</time>
      </trkpt>
      <trkpt lat="44.17462" lon="5.28018">
        <ele>1925</ele>
        <time>2026-05-14T10:47:06.999Z</time>
      </trkpt>
      <trkpt lat="44.1746" lon="5.28017">
        <ele>1924.9</ele>
        <time>2026-05-14T10:47:07.999Z</time>
      </trkpt>
      <trkpt lat="44.1746" lon="5.28017">
        <ele>1924.4</ele>
        <time>2026-05-14T10:47:08.999Z</time>
      </trkpt>
      <trkpt lat="44.1746" lon="5.28015">
        <ele>1924.4</ele>
        <time>2026-05-14T10:47:09.999Z</time>
      </trkpt>
      <trkpt lat="44.17459" lon="5.28014">
        <ele>1924.5</ele>
        <time>2026-05-14T10:47:10.999Z</time>
      </trkpt>
      <trkpt lat="44.17459" lon="5.28013">
        <ele>1924.9</ele>
        <time>2026-05-14T10:47:11.999Z</time>
      </trkpt>
      <trkpt lat="44.17459" lon="5.28012">
        <ele>1925</ele>
        <time>2026-05-14T10:47:12.999Z</time>
      </trkpt>
      <trkpt lat="44.17459" lon="5.28011">
        <ele>1924.9</ele>
        <time>2026-05-14T10:47:13.999Z</time>
      </trkpt>
      <trkpt lat="44.17458" lon="5.2801">
        <ele>1924.4</ele>
        <time>2026-05-14T10:47:14.999Z</time>
      </trkpt>
      <trkpt lat="44.17458" lon="5.2801">
        <ele>1924</ele>
        <time>2026-05-14T10:47:15.999Z</time>
      </trkpt>
      <trkpt lat="44.17457" lon="5.28009">
        <ele>1923.6</ele>
        <time>2026-05-14T10:47:16.999Z</time>
      </trkpt>
      <trkpt lat="44.17457" lon="5.28009">
        <ele>1923.4</ele>
        <time>2026-05-14T10:47:17.999Z</time>
      </trkpt>
      <trkpt lat="44.17457" lon="5.28008">
        <ele>1923.4</ele>
        <time>2026-05-14T10:47:18.999Z</time>
      </trkpt>
      <trkpt lat="44.17456" lon="5.28007">
        <ele>1923.3</ele>
        <time>2026-05-14T10:47:20.000Z</time>
      </trkpt>
      <trkpt lat="44.17455" lon="5.28006">
        <ele>1923.1</ele>
        <time>2026-05-14T10:47:21.000Z</time>
      </trkpt>
      <trkpt lat="44.17455" lon="5.28005">
        <ele>1923.1</ele>
        <time>2026-05-14T10:47:22.000Z</time>
      </trkpt>
      <trkpt lat="44.17455" lon="5.28004">
        <ele>1923.2</ele>
        <time>2026-05-14T10:47:23.000Z</time>
      </trkpt>
      <trkpt lat="44.17455" lon="5.28002">
        <ele>1923</ele>
        <time>2026-05-14T10:47:24.000Z</time>
      </trkpt>
      <trkpt lat="44.17455" lon="5.28">
        <ele>1923.2</ele>
        <time>2026-05-14T10:47:25.000Z</time>
      </trkpt>
      <trkpt lat="44.17455" lon="5.27998">
        <ele>1923.6</ele>
        <time>2026-05-14T10:47:26.000Z</time>
      </trkpt>
      <trkpt lat="44.17455" lon="5.27996">
        <ele>1924</ele>
        <time>2026-05-14T10:47:27.000Z</time>
      </trkpt>
      <trkpt lat="44.17456" lon="5.27995">
        <ele>1924.6</ele>
        <time>2026-05-14T10:47:28.000Z</time>
      </trkpt>
      <trkpt lat="44.17456" lon="5.27993">
        <ele>1925.1</ele>
        <time>2026-05-14T10:47:29.000Z</time>
      </trkpt>
      <trkpt lat="44.17457" lon="5.27991">
        <ele>1925.6</ele>
        <time>2026-05-14T10:47:30.000Z</time>
      </trkpt>
      <trkpt lat="44.17457" lon="5.2799">
        <ele>1926</ele>
        <time>2026-05-14T10:47:31.000Z</time>
      </trkpt>
      <trkpt lat="44.17457" lon="5.27989">
        <ele>1926.3</ele>
        <time>2026-05-14T10:47:32.000Z</time>
      </trkpt>
      <trkpt lat="44.17457" lon="5.27989">
        <ele>1926.4</ele>
        <time>2026-05-14T10:47:33.000Z</time>
      </trkpt>
      <trkpt lat="44.17458" lon="5.27988">
        <ele>1926.5</ele>
        <time>2026-05-14T10:47:34.000Z</time>
      </trkpt>
      <trkpt lat="44.17458" lon="5.27987">
        <ele>1926.7</ele>
        <time>2026-05-14T10:47:35.000Z</time>
      </trkpt>
      <trkpt lat="44.17458" lon="5.27985">
        <ele>1926.5</ele>
        <time>2026-05-14T10:47:36.000Z</time>
      </trkpt>
      <trkpt lat="44.17458" lon="5.27984">
        <ele>1926.5</ele>
        <time>2026-05-14T10:47:37.000Z</time>
      </trkpt>
      <trkpt lat="44.17457" lon="5.27983">
        <ele>1926.9</ele>
        <time>2026-05-14T10:47:38.000Z</time>
      </trkpt>
      <trkpt lat="44.17456" lon="5.27984">
        <ele>1927.5</ele>
        <time>2026-05-14T10:47:39.000Z</time>
      </trkpt>
      <trkpt lat="44.17455" lon="5.27985">
        <ele>1928.1</ele>
        <time>2026-05-14T10:47:40.000Z</time>
      </trkpt>
      <trkpt lat="44.17455" lon="5.27985">
        <ele>1927.6</ele>
        <time>2026-05-14T10:47:41.000Z</time>
      </trkpt>
      <trkpt lat="44.17455" lon="5.27985">
        <ele>1927.6</ele>
        <time>2026-05-14T10:47:42.000Z</time>
      </trkpt>
      <trkpt lat="44.17455" lon="5.27985">
        <ele>1927.5</ele>
        <time>2026-05-14T10:47:43.000Z</time>
      </trkpt>
      <trkpt lat="44.17455" lon="5.27985">
        <ele>1927.4</ele>
        <time>2026-05-14T10:47:44.000Z</time>
      </trkpt>
      <trkpt lat="44.17455" lon="5.27985">
        <ele>1927.4</ele>
        <time>2026-05-14T10:47:45.000Z</time>
      </trkpt>
      <trkpt lat="44.17455" lon="5.27985">
        <ele>1927.3</ele>
        <time>2026-05-14T10:47:46.000Z</time>
      </trkpt>
      <trkpt lat="44.17455" lon="5.27984">
        <ele>1927.3</ele>
        <time>2026-05-14T10:47:47.000Z</time>
      </trkpt>
      <trkpt lat="44.17455" lon="5.27982">
        <ele>1927.2</ele>
        <time>2026-05-14T10:47:48.000Z</time>
      </trkpt>
      <trkpt lat="44.17455" lon="5.2798">
        <ele>1927</ele>
        <time>2026-05-14T10:47:49.000Z</time>
      </trkpt>
      <trkpt lat="44.17455" lon="5.27979">
        <ele>1926.6</ele>
        <time>2026-05-14T10:47:50.000Z</time>
      </trkpt>
      <trkpt lat="44.17455" lon="5.27979">
        <ele>1926.1</ele>
        <time>2026-05-14T10:47:51.000Z</time>
      </trkpt>
      <trkpt lat="44.17455" lon="5.27978">
        <ele>1925.8</ele>
        <time>2026-05-14T10:47:52.000Z</time>
      </trkpt>
      <trkpt lat="44.17455" lon="5.27977">
        <ele>1925.5</ele>
        <time>2026-05-14T10:47:53.000Z</time>
      </trkpt>
      <trkpt lat="44.17455" lon="5.27977">
        <ele>1925.6</ele>
        <time>2026-05-14T10:47:54.000Z</time>
      </trkpt>
      <trkpt lat="44.17455" lon="5.27977">
        <ele>1926.1</ele>
        <time>2026-05-14T10:47:55.000Z</time>
      </trkpt>
      <trkpt lat="44.17455" lon="5.27976">
        <ele>1925.7</ele>
        <time>2026-05-14T10:47:56.000Z</time>
      </trkpt>
      <trkpt lat="44.17455" lon="5.27976">
        <ele>1925.8</ele>
        <time>2026-05-14T10:47:57.000Z</time>
      </trkpt>
      <trkpt lat="44.17455" lon="5.27976">
        <ele>1925.7</ele>
        <time>2026-05-14T10:47:58.000Z</time>
      </trkpt>
      <trkpt lat="44.17455" lon="5.27976">
        <ele>1925.5</ele>
        <time>2026-05-14T10:47:59.000Z</time>
      </trkpt>
      <trkpt lat="44.17456" lon="5.27976">
        <ele>1925.9</ele>
        <time>2026-05-14T10:48:00.000Z</time>
      </trkpt>
      <trkpt lat="44.17456" lon="5.27976">
        <ele>1925.7</ele>
        <time>2026-05-14T10:48:01.000Z</time>
      </trkpt>
      <trkpt lat="44.17456" lon="5.27976">
        <ele>1925.6</ele>
        <time>2026-05-14T10:48:02.000Z</time>
      </trkpt>
      <trkpt lat="44.17456" lon="5.27975">
        <ele>1925.5</ele>
        <time>2026-05-14T10:48:03.000Z</time>
      </trkpt>
      <trkpt lat="44.17456" lon="5.27975">
        <ele>1925.2</ele>
        <time>2026-05-14T10:48:04.000Z</time>
      </trkpt>
      <trkpt lat="44.17456" lon="5.27974">
        <ele>1925</ele>
        <time>2026-05-14T10:48:05.000Z</time>
      </trkpt>
      <trkpt lat="44.17456" lon="5.27974">
        <ele>1925</ele>
        <time>2026-05-14T10:48:06.000Z</time>
      </trkpt>
      <trkpt lat="44.17456" lon="5.27974">
        <ele>1925.2</ele>
        <time>2026-05-14T10:48:07.000Z</time>
      </trkpt>
      <trkpt lat="44.17456" lon="5.27973">
        <ele>1925.2</ele>
        <time>2026-05-14T10:48:08.000Z</time>
      </trkpt>
      <trkpt lat="44.17456" lon="5.27973">
        <ele>1925.3</ele>
        <time>2026-05-14T10:48:09.000Z</time>
      </trkpt>
      <trkpt lat="44.17456" lon="5.27973">
        <ele>1925.7</ele>
        <time>2026-05-14T10:48:10.000Z</time>
      </trkpt>
      <trkpt lat="44.17456" lon="5.27973">
        <ele>1926</ele>
        <time>2026-05-14T10:48:11.000Z</time>
      </trkpt>
      <trkpt lat="44.17456" lon="5.27973">
        <ele>1926.4</ele>
        <time>2026-05-14T10:48:12.000Z</time>
      </trkpt>
      <trkpt lat="44.17456" lon="5.27973">
        <ele>1926.4</ele>
        <time>2026-05-14T10:48:13.000Z</time>
      </trkpt>
      <trkpt lat="44.17456" lon="5.27973">
        <ele>1926.6</ele>
        <time>2026-05-14T10:48:14.000Z</time>
      </trkpt>
      <trkpt lat="44.17456" lon="5.27973">
        <ele>1926.4</ele>
        <time>2026-05-14T10:48:15.000Z</time>
      </trkpt>
      <trkpt lat="44.17455" lon="5.27973">
        <ele>1926.2</ele>
        <time>2026-05-14T10:48:16.000Z</time>
      </trkpt>
      <trkpt lat="44.17455" lon="5.27973">
        <ele>1925.9</ele>
        <time>2026-05-14T10:48:17.000Z</time>
      </trkpt>
      <trkpt lat="44.17455" lon="5.27972">
        <ele>1925.5</ele>
        <time>2026-05-14T10:48:18.000Z</time>
      </trkpt>
      <trkpt lat="44.17454" lon="5.27971">
        <ele>1925.6</ele>
        <time>2026-05-14T10:48:19.000Z</time>
      </trkpt>
      <trkpt lat="44.17454" lon="5.2797">
        <ele>1925.7</ele>
        <time>2026-05-14T10:48:20.000Z</time>
      </trkpt>
      <trkpt lat="44.17454" lon="5.2797">
        <ele>1925.9</ele>
        <time>2026-05-14T10:48:21.000Z</time>
      </trkpt>
      <trkpt lat="44.17454" lon="5.2797">
        <ele>1926.1</ele>
        <time>2026-05-14T10:48:22.000Z</time>
      </trkpt>
      <trkpt lat="44.17454" lon="5.2797">
        <ele>1926.2</ele>
        <time>2026-05-14T10:48:23.000Z</time>
      </trkpt>
      <trkpt lat="44.17454" lon="5.2797">
        <ele>1926.3</ele>
        <time>2026-05-14T10:48:24.000Z</time>
      </trkpt>
      <trkpt lat="44.17454" lon="5.2797">
        <ele>1926.4</ele>
        <time>2026-05-14T10:48:25.000Z</time>
      </trkpt>
      <trkpt lat="44.17454" lon="5.27969">
        <ele>1926.7</ele>
        <time>2026-05-14T10:48:26.000Z</time>
      </trkpt>
      <trkpt lat="44.17454" lon="5.27969">
        <ele>1926.9</ele>
        <time>2026-05-14T10:48:27.000Z</time>
      </trkpt>
      <trkpt lat="44.17454" lon="5.27969">
        <ele>1926.9</ele>
        <time>2026-05-14T10:48:28.000Z</time>
      </trkpt>
      <trkpt lat="44.17454" lon="5.27968">
        <ele>1926.9</ele>
        <time>2026-05-14T10:48:29.000Z</time>
      </trkpt>
      <trkpt lat="44.17454" lon="5.27968">
        <ele>1927</ele>
        <time>2026-05-14T10:48:30.000Z</time>
      </trkpt>
      <trkpt lat="44.17454" lon="5.27968">
        <ele>1927</ele>
        <time>2026-05-14T10:48:31.000Z</time>
      </trkpt>
      <trkpt lat="44.17453" lon="5.27968">
        <ele>1927</ele>
        <time>2026-05-14T10:48:32.000Z</time>
      </trkpt>
      <trkpt lat="44.17453" lon="5.27967">
        <ele>1926.9</ele>
        <time>2026-05-14T10:48:33.000Z</time>
      </trkpt>
      <trkpt lat="44.17453" lon="5.27966">
        <ele>1927</ele>
        <time>2026-05-14T10:48:34.000Z</time>
      </trkpt>
      <trkpt lat="44.17453" lon="5.27966">
        <ele>1927</ele>
        <time>2026-05-14T10:48:35.000Z</time>
      </trkpt>
      <trkpt lat="44.17452" lon="5.27966">
        <ele>1927.1</ele>
        <time>2026-05-14T10:48:36.000Z</time>
      </trkpt>
      <trkpt lat="44.17452" lon="5.27965">
        <ele>1926.7</ele>
        <time>2026-05-14T10:48:37.000Z</time>
      </trkpt>
      <trkpt lat="44.17452" lon="5.27965">
        <ele>1926.5</ele>
        <time>2026-05-14T10:48:38.000Z</time>
      </trkpt>
      <trkpt lat="44.17452" lon="5.27965">
        <ele>1926.7</ele>
        <time>2026-05-14T10:48:39.000Z</time>
      </trkpt>
      <trkpt lat="44.17452" lon="5.27964">
        <ele>1926.8</ele>
        <time>2026-05-14T10:48:40.000Z</time>
      </trkpt>
      <trkpt lat="44.17451" lon="5.27963">
        <ele>1926.6</ele>
        <time>2026-05-14T10:48:41.000Z</time>
      </trkpt>
      <trkpt lat="44.17451" lon="5.27961">
        <ele>1926.5</ele>
        <time>2026-05-14T10:48:42.000Z</time>
      </trkpt>
      <trkpt lat="44.1745" lon="5.2796">
        <ele>1926.4</ele>
        <time>2026-05-14T10:48:43.000Z</time>
      </trkpt>
      <trkpt lat="44.1745" lon="5.27959">
        <ele>1926.4</ele>
        <time>2026-05-14T10:48:44.000Z</time>
      </trkpt>
      <trkpt lat="44.1745" lon="5.27959">
        <ele>1926.3</ele>
        <time>2026-05-14T10:48:45.000Z</time>
      </trkpt>
      <trkpt lat="44.17449" lon="5.27958">
        <ele>1926.2</ele>
        <time>2026-05-14T10:48:46.000Z</time>
      </trkpt>
      <trkpt lat="44.17449" lon="5.27957">
        <ele>1926.2</ele>
        <time>2026-05-14T10:48:47.000Z</time>
      </trkpt>
      <trkpt lat="44.17448" lon="5.27956">
        <ele>1926.1</ele>
        <time>2026-05-14T10:48:48.000Z</time>
      </trkpt>
      <trkpt lat="44.17448" lon="5.27956">
        <ele>1926.1</ele>
        <time>2026-05-14T10:48:49.000Z</time>
      </trkpt>
      <trkpt lat="44.17448" lon="5.27956">
        <ele>1926.5</ele>
        <time>2026-05-14T10:48:50.000Z</time>
      </trkpt>
      <trkpt lat="44.17448" lon="5.27956">
        <ele>1926.8</ele>
        <time>2026-05-14T10:48:51.000Z</time>
      </trkpt>
      <trkpt lat="44.17448" lon="5.27956">
        <ele>1926.9</ele>
        <time>2026-05-14T10:48:52.000Z</time>
      </trkpt>
      <trkpt lat="44.17448" lon="5.27956">
        <ele>1927</ele>
        <time>2026-05-14T10:48:53.000Z</time>
      </trkpt>
      <trkpt lat="44.17448" lon="5.27956">
        <ele>1927.2</ele>
        <time>2026-05-14T10:48:54.000Z</time>
      </trkpt>
      <trkpt lat="44.17448" lon="5.27956">
        <ele>1927.3</ele>
        <time>2026-05-14T10:48:55.000Z</time>
      </trkpt>
      <trkpt lat="44.17448" lon="5.27956">
        <ele>1927.2</ele>
        <time>2026-05-14T10:48:56.000Z</time>
      </trkpt>
      <trkpt lat="44.17448" lon="5.27956">
        <ele>1927.4</ele>
        <time>2026-05-14T10:48:57.000Z</time>
      </trkpt>
      <trkpt lat="44.17448" lon="5.27955">
        <ele>1927.1</ele>
        <time>2026-05-14T10:48:58.000Z</time>
      </trkpt>
      <trkpt lat="44.17448" lon="5.27955">
        <ele>1926.9</ele>
        <time>2026-05-14T10:48:59.000Z</time>
      </trkpt>
      <trkpt lat="44.17448" lon="5.27955">
        <ele>1926.8</ele>
        <time>2026-05-14T10:49:00.000Z</time>
      </trkpt>
      <trkpt lat="44.17448" lon="5.27955">
        <ele>1926.9</ele>
        <time>2026-05-14T10:49:01.000Z</time>
      </trkpt>
      <trkpt lat="44.17448" lon="5.27955">
        <ele>1926.9</ele>
        <time>2026-05-14T10:49:02.000Z</time>
      </trkpt>
      <trkpt lat="44.17448" lon="5.27955">
        <ele>1926.9</ele>
        <time>2026-05-14T10:49:03.000Z</time>
      </trkpt>
      <trkpt lat="44.17448" lon="5.27955">
        <ele>1926.8</ele>
        <time>2026-05-14T10:49:04.000Z</time>
      </trkpt>
      <trkpt lat="44.17448" lon="5.27955">
        <ele>1926.7</ele>
        <time>2026-05-14T10:49:05.000Z</time>
      </trkpt>
      <trkpt lat="44.17448" lon="5.27955">
        <ele>1926.7</ele>
        <time>2026-05-14T10:49:06.000Z</time>
      </trkpt>
      <trkpt lat="44.17448" lon="5.27955">
        <ele>1926.5</ele>
        <time>2026-05-14T10:49:07.000Z</time>
      </trkpt>
      <trkpt lat="44.17448" lon="5.27954">
        <ele>1926.3</ele>
        <time>2026-05-14T10:49:08.000Z</time>
      </trkpt>
      <trkpt lat="44.17448" lon="5.27954">
        <ele>1926</ele>
        <time>2026-05-14T10:49:09.000Z</time>
      </trkpt>
      <trkpt lat="44.17448" lon="5.27954">
        <ele>1926</ele>
        <time>2026-05-14T10:49:10.000Z</time>
      </trkpt>
      <trkpt lat="44.17448" lon="5.27954">
        <ele>1925.9</ele>
        <time>2026-05-14T10:49:11.000Z</time>
      </trkpt>
      <trkpt lat="44.17448" lon="5.27954">
        <ele>1925.7</ele>
        <time>2026-05-14T10:49:12.000Z</time>
      </trkpt>
      <trkpt lat="44.17448" lon="5.27954">
        <ele>1925.6</ele>
        <time>2026-05-14T10:49:13.000Z</time>
      </trkpt>
      <trkpt lat="44.17448" lon="5.27954">
        <ele>1925.4</ele>
        <time>2026-05-14T10:49:14.000Z</time>
      </trkpt>
      <trkpt lat="44.17447" lon="5.27952">
        <ele>1925.2</ele>
        <time>2026-05-14T10:49:15.000Z</time>
      </trkpt>
      <trkpt lat="44.17446" lon="5.27951">
        <ele>1925</ele>
        <time>2026-05-14T10:49:16.000Z</time>
      </trkpt>
      <trkpt lat="44.17445" lon="5.2795">
        <ele>1924.9</ele>
        <time>2026-05-14T10:49:17.000Z</time>
      </trkpt>
      <trkpt lat="44.17445" lon="5.27949">
        <ele>1924.8</ele>
        <time>2026-05-14T10:49:18.000Z</time>
      </trkpt>
      <trkpt lat="44.17443" lon="5.27948">
        <ele>1924.7</ele>
        <time>2026-05-14T10:49:19.000Z</time>
      </trkpt>
      <trkpt lat="44.17442" lon="5.27947">
        <ele>1924.5</ele>
        <time>2026-05-14T10:49:20.000Z</time>
      </trkpt>
      <trkpt lat="44.17442" lon="5.27947">
        <ele>1924.4</ele>
        <time>2026-05-14T10:49:21.000Z</time>
      </trkpt>
      <trkpt lat="44.17441" lon="5.27946">
        <ele>1924.4</ele>
        <time>2026-05-14T10:49:22.000Z</time>
      </trkpt>
      <trkpt lat="44.1744" lon="5.27944">
        <ele>1924.4</ele>
        <time>2026-05-14T10:49:23.000Z</time>
      </trkpt>
      <trkpt lat="44.17439" lon="5.27943">
        <ele>1924.5</ele>
        <time>2026-05-14T10:49:24.000Z</time>
      </trkpt>
      <trkpt lat="44.17438" lon="5.27942">
        <ele>1924.6</ele>
        <time>2026-05-14T10:49:25.000Z</time>
      </trkpt>
      <trkpt lat="44.17438" lon="5.2794">
        <ele>1925.1</ele>
        <time>2026-05-14T10:49:26.000Z</time>
      </trkpt>
      <trkpt lat="44.17437" lon="5.27938">
        <ele>1925.3</ele>
        <time>2026-05-14T10:49:27.000Z</time>
      </trkpt>
      <trkpt lat="44.17436" lon="5.27937">
        <ele>1925.4</ele>
        <time>2026-05-14T10:49:28.000Z</time>
      </trkpt>
      <trkpt lat="44.17436" lon="5.27935">
        <ele>1925.6</ele>
        <time>2026-05-14T10:49:29.000Z</time>
      </trkpt>
      <trkpt lat="44.17435" lon="5.27935">
        <ele>1925.5</ele>
        <time>2026-05-14T10:49:30.000Z</time>
      </trkpt>
      <trkpt lat="44.17435" lon="5.27934">
        <ele>1925.5</ele>
        <time>2026-05-14T10:49:31.000Z</time>
      </trkpt>
      <trkpt lat="44.17435" lon="5.27933">
        <ele>1925.7</ele>
        <time>2026-05-14T10:49:32.000Z</time>
      </trkpt>
      <trkpt lat="44.17434" lon="5.27933">
        <ele>1925.9</ele>
        <time>2026-05-14T10:49:33.000Z</time>
      </trkpt>
      <trkpt lat="44.17434" lon="5.27932">
        <ele>1925.8</ele>
        <time>2026-05-14T10:49:34.000Z</time>
      </trkpt>
      <trkpt lat="44.17434" lon="5.27931">
        <ele>1925.8</ele>
        <time>2026-05-14T10:49:35.000Z</time>
      </trkpt>
      <trkpt lat="44.17433" lon="5.27931">
        <ele>1925.9</ele>
        <time>2026-05-14T10:49:36.000Z</time>
      </trkpt>
      <trkpt lat="44.17432" lon="5.2793">
        <ele>1925.7</ele>
        <time>2026-05-14T10:49:37.000Z</time>
      </trkpt>
      <trkpt lat="44.17432" lon="5.2793">
        <ele>1926.1</ele>
        <time>2026-05-14T10:49:38.000Z</time>
      </trkpt>
      <trkpt lat="44.17432" lon="5.27929">
        <ele>1926.4</ele>
        <time>2026-05-14T10:49:39.000Z</time>
      </trkpt>
      <trkpt lat="44.17432" lon="5.27928">
        <ele>1926.7</ele>
        <time>2026-05-14T10:49:40.000Z</time>
      </trkpt>
      <trkpt lat="44.17431" lon="5.27928">
        <ele>1926.8</ele>
        <time>2026-05-14T10:49:41.000Z</time>
      </trkpt>
      <trkpt lat="44.17431" lon="5.27926">
        <ele>1927.3</ele>
        <time>2026-05-14T10:49:42.000Z</time>
      </trkpt>
      <trkpt lat="44.1743" lon="5.27925">
        <ele>1926.6</ele>
        <time>2026-05-14T10:49:43.000Z</time>
      </trkpt>
      <trkpt lat="44.17429" lon="5.27924">
        <ele>1926.2</ele>
        <time>2026-05-14T10:49:44.000Z</time>
      </trkpt>
      <trkpt lat="44.17428" lon="5.27923">
        <ele>1926.1</ele>
        <time>2026-05-14T10:49:45.000Z</time>
      </trkpt>
      <trkpt lat="44.17428" lon="5.27922">
        <ele>1926</ele>
        <time>2026-05-14T10:49:46.000Z</time>
      </trkpt>
      <trkpt lat="44.17426" lon="5.27921">
        <ele>1926.2</ele>
        <time>2026-05-14T10:49:47.000Z</time>
      </trkpt>
      <trkpt lat="44.17426" lon="5.27921">
        <ele>1926.7</ele>
        <time>2026-05-14T10:49:48.000Z</time>
      </trkpt>
      <trkpt lat="44.17425" lon="5.2792">
        <ele>1926.8</ele>
        <time>2026-05-14T10:49:49.000Z</time>
      </trkpt>
      <trkpt lat="44.17424" lon="5.27919">
        <ele>1927.1</ele>
        <time>2026-05-14T10:49:50.000Z</time>
      </trkpt>
      <trkpt lat="44.17424" lon="5.27918">
        <ele>1927.8</ele>
        <time>2026-05-14T10:49:51.000Z</time>
      </trkpt>
      <trkpt lat="44.17423" lon="5.27917">
        <ele>1928</ele>
        <time>2026-05-14T10:49:52.000Z</time>
      </trkpt>
      <trkpt lat="44.17423" lon="5.27917">
        <ele>1928.3</ele>
        <time>2026-05-14T10:49:53.000Z</time>
      </trkpt>
      <trkpt lat="44.17423" lon="5.27916">
        <ele>1928.6</ele>
        <time>2026-05-14T10:49:54.000Z</time>
      </trkpt>
      <trkpt lat="44.17423" lon="5.27915">
        <ele>1928.7</ele>
        <time>2026-05-14T10:49:55.000Z</time>
      </trkpt>
      <trkpt lat="44.17422" lon="5.27914">
        <ele>1928.2</ele>
        <time>2026-05-14T10:49:56.000Z</time>
      </trkpt>
      <trkpt lat="44.17422" lon="5.27913">
        <ele>1928</ele>
        <time>2026-05-14T10:49:57.000Z</time>
      </trkpt>
      <trkpt lat="44.17422" lon="5.27912">
        <ele>1927.6</ele>
        <time>2026-05-14T10:49:58.000Z</time>
      </trkpt>
      <trkpt lat="44.17421" lon="5.27912">
        <ele>1927.5</ele>
        <time>2026-05-14T10:49:59.000Z</time>
      </trkpt>
      <trkpt lat="44.1742" lon="5.27912">
        <ele>1927.8</ele>
        <time>2026-05-14T10:50:00.000Z</time>
      </trkpt>
      <trkpt lat="44.1742" lon="5.27912">
        <ele>1928.5</ele>
        <time>2026-05-14T10:50:01.000Z</time>
      </trkpt>
      <trkpt lat="44.17419" lon="5.27911">
        <ele>1929</ele>
        <time>2026-05-14T10:50:02.000Z</time>
      </trkpt>
      <trkpt lat="44.17418" lon="5.2791">
        <ele>1929.5</ele>
        <time>2026-05-14T10:50:03.000Z</time>
      </trkpt>
      <trkpt lat="44.17418" lon="5.2791">
        <ele>1929.6</ele>
        <time>2026-05-14T10:50:04.000Z</time>
      </trkpt>
      <trkpt lat="44.17418" lon="5.2791">
        <ele>1929.6</ele>
        <time>2026-05-14T10:50:05.000Z</time>
      </trkpt>
      <trkpt lat="44.17418" lon="5.2791">
        <ele>1929.8</ele>
        <time>2026-05-14T10:50:06.000Z</time>
      </trkpt>
      <trkpt lat="44.17418" lon="5.2791">
        <ele>1930</ele>
        <time>2026-05-14T10:50:07.000Z</time>
      </trkpt>
      <trkpt lat="44.17418" lon="5.2791">
        <ele>1930.3</ele>
        <time>2026-05-14T10:50:08.000Z</time>
      </trkpt>
      <trkpt lat="44.17418" lon="5.2791">
        <ele>1930.6</ele>
        <time>2026-05-14T10:50:09.000Z</time>
      </trkpt>
      <trkpt lat="44.17418" lon="5.2791">
        <ele>1930.8</ele>
        <time>2026-05-14T10:50:10.000Z</time>
      </trkpt>
      <trkpt lat="44.17418" lon="5.2791">
        <ele>1930.9</ele>
        <time>2026-05-14T10:50:11.000Z</time>
      </trkpt>
      <trkpt lat="44.17418" lon="5.2791">
        <ele>1931.4</ele>
        <time>2026-05-14T10:50:12.000Z</time>
      </trkpt>
      <trkpt lat="44.17418" lon="5.2791">
        <ele>1931.7</ele>
        <time>2026-05-14T10:50:13.000Z</time>
      </trkpt>
      <trkpt lat="44.17418" lon="5.2791">
        <ele>1932.2</ele>
        <time>2026-05-14T10:50:14.000Z</time>
      </trkpt>
      <trkpt lat="44.17417" lon="5.2791">
        <ele>1932.6</ele>
        <time>2026-05-14T10:50:15.000Z</time>
      </trkpt>
      <trkpt lat="44.17417" lon="5.2791">
        <ele>1932.4</ele>
        <time>2026-05-14T10:50:16.000Z</time>
      </trkpt>
      <trkpt lat="44.17416" lon="5.2791">
        <ele>1932.4</ele>
        <time>2026-05-14T10:50:17.000Z</time>
      </trkpt>
      <trkpt lat="44.17416" lon="5.2791">
        <ele>1932.2</ele>
        <time>2026-05-14T10:50:18.000Z</time>
      </trkpt>
      <trkpt lat="44.17416" lon="5.2791">
        <ele>1932.3</ele>
        <time>2026-05-14T10:50:19.000Z</time>
      </trkpt>
      <trkpt lat="44.17416" lon="5.2791">
        <ele>1932.3</ele>
        <time>2026-05-14T10:50:20.000Z</time>
      </trkpt>
      <trkpt lat="44.17416" lon="5.27909">
        <ele>1932.4</ele>
        <time>2026-05-14T10:50:21.000Z</time>
      </trkpt>
      <trkpt lat="44.17415" lon="5.27909">
        <ele>1932.6</ele>
        <time>2026-05-14T10:50:22.000Z</time>
      </trkpt>
      <trkpt lat="44.17415" lon="5.2791">
        <ele>1933</ele>
        <time>2026-05-14T10:50:23.000Z</time>
      </trkpt>
      <trkpt lat="44.17414" lon="5.27909">
        <ele>1932.9</ele>
        <time>2026-05-14T10:50:24.000Z</time>
      </trkpt>
      <trkpt lat="44.17413" lon="5.27908">
        <ele>1932.8</ele>
        <time>2026-05-14T10:50:25.000Z</time>
      </trkpt>
      <trkpt lat="44.17413" lon="5.27907">
        <ele>1932.6</ele>
        <time>2026-05-14T10:50:26.000Z</time>
      </trkpt>
      <trkpt lat="44.17412" lon="5.27907">
        <ele>1932.8</ele>
        <time>2026-05-14T10:50:27.000Z</time>
      </trkpt>
      <trkpt lat="44.17412" lon="5.27907">
        <ele>1932.9</ele>
        <time>2026-05-14T10:50:28.000Z</time>
      </trkpt>
      <trkpt lat="44.17411" lon="5.27906">
        <ele>1933.2</ele>
        <time>2026-05-14T10:50:29.000Z</time>
      </trkpt>
      <trkpt lat="44.17411" lon="5.27905">
        <ele>1933.4</ele>
        <time>2026-05-14T10:50:30.000Z</time>
      </trkpt>
      <trkpt lat="44.1741" lon="5.27904">
        <ele>1933.5</ele>
        <time>2026-05-14T10:50:31.000Z</time>
      </trkpt>
      <trkpt lat="44.1741" lon="5.27905">
        <ele>1933.6</ele>
        <time>2026-05-14T10:50:32.000Z</time>
      </trkpt>
      <trkpt lat="44.17409" lon="5.27905">
        <ele>1933.5</ele>
        <time>2026-05-14T10:50:33.000Z</time>
      </trkpt>
      <trkpt lat="44.17409" lon="5.27905">
        <ele>1933.5</ele>
        <time>2026-05-14T10:50:34.000Z</time>
      </trkpt>
      <trkpt lat="44.17409" lon="5.27906">
        <ele>1933.2</ele>
        <time>2026-05-14T10:50:35.000Z</time>
      </trkpt>
      <trkpt lat="44.17408" lon="5.27905">
        <ele>1933.2</ele>
        <time>2026-05-14T10:50:36.000Z</time>
      </trkpt>
      <trkpt lat="44.17407" lon="5.27905">
        <ele>1933</ele>
        <time>2026-05-14T10:50:37.000Z</time>
      </trkpt>
      <trkpt lat="44.17406" lon="5.27904">
        <ele>1932.6</ele>
        <time>2026-05-14T10:50:38.000Z</time>
      </trkpt>
      <trkpt lat="44.17405" lon="5.27904">
        <ele>1932.5</ele>
        <time>2026-05-14T10:50:39.000Z</time>
      </trkpt>
      <trkpt lat="44.17404" lon="5.27904">
        <ele>1932.2</ele>
        <time>2026-05-14T10:50:40.000Z</time>
      </trkpt>
      <trkpt lat="44.17403" lon="5.27904">
        <ele>1932.5</ele>
        <time>2026-05-14T10:50:41.000Z</time>
      </trkpt>
      <trkpt lat="44.17402" lon="5.27904">
        <ele>1932.7</ele>
        <time>2026-05-14T10:50:42.000Z</time>
      </trkpt>
      <trkpt lat="44.17402" lon="5.27903">
        <ele>1932.5</ele>
        <time>2026-05-14T10:50:43.000Z</time>
      </trkpt>
      <trkpt lat="44.17401" lon="5.27902">
        <ele>1932.1</ele>
        <time>2026-05-14T10:50:44.000Z</time>
      </trkpt>
      <trkpt lat="44.174" lon="5.27902">
        <ele>1931.9</ele>
        <time>2026-05-14T10:50:45.000Z</time>
      </trkpt>
      <trkpt lat="44.17399" lon="5.27902">
        <ele>1931.6</ele>
        <time>2026-05-14T10:50:46.000Z</time>
      </trkpt>
      <trkpt lat="44.17399" lon="5.27901">
        <ele>1931.7</ele>
        <time>2026-05-14T10:50:47.000Z</time>
      </trkpt>
      <trkpt lat="44.17398" lon="5.27901">
        <ele>1931.8</ele>
        <time>2026-05-14T10:50:48.000Z</time>
      </trkpt>
      <trkpt lat="44.17397" lon="5.27901">
        <ele>1932</ele>
        <time>2026-05-14T10:50:49.000Z</time>
      </trkpt>
      <trkpt lat="44.17397" lon="5.279">
        <ele>1932</ele>
        <time>2026-05-14T10:50:50.000Z</time>
      </trkpt>
      <trkpt lat="44.17397" lon="5.27901">
        <ele>1931.7</ele>
        <time>2026-05-14T10:50:51.000Z</time>
      </trkpt>
      <trkpt lat="44.17397" lon="5.27901">
        <ele>1931.3</ele>
        <time>2026-05-14T10:50:52.000Z</time>
      </trkpt>
      <trkpt lat="44.17396" lon="5.279">
        <ele>1930.9</ele>
        <time>2026-05-14T10:50:53.000Z</time>
      </trkpt>
      <trkpt lat="44.17396" lon="5.279">
        <ele>1930.5</ele>
        <time>2026-05-14T10:50:54.000Z</time>
      </trkpt>
      <trkpt lat="44.17395" lon="5.27899">
        <ele>1930.2</ele>
        <time>2026-05-14T10:50:55.000Z</time>
      </trkpt>
      <trkpt lat="44.17394" lon="5.27898">
        <ele>1930</ele>
        <time>2026-05-14T10:50:56.000Z</time>
      </trkpt>
      <trkpt lat="44.17394" lon="5.27897">
        <ele>1929.9</ele>
        <time>2026-05-14T10:50:57.000Z</time>
      </trkpt>
      <trkpt lat="44.17393" lon="5.27897">
        <ele>1929.9</ele>
        <time>2026-05-14T10:50:58.000Z</time>
      </trkpt>
      <trkpt lat="44.17393" lon="5.27897">
        <ele>1930</ele>
        <time>2026-05-14T10:50:59.000Z</time>
      </trkpt>
      <trkpt lat="44.17393" lon="5.27897">
        <ele>1930.2</ele>
        <time>2026-05-14T10:51:00.000Z</time>
      </trkpt>
      <trkpt lat="44.17392" lon="5.27897">
        <ele>1930.1</ele>
        <time>2026-05-14T10:51:01.000Z</time>
      </trkpt>
      <trkpt lat="44.17392" lon="5.27898">
        <ele>1929.7</ele>
        <time>2026-05-14T10:51:02.000Z</time>
      </trkpt>
      <trkpt lat="44.17391" lon="5.27898">
        <ele>1929.6</ele>
        <time>2026-05-14T10:51:03.000Z</time>
      </trkpt>
      <trkpt lat="44.1739" lon="5.27899">
        <ele>1929.5</ele>
        <time>2026-05-14T10:51:04.000Z</time>
      </trkpt>
      <trkpt lat="44.1739" lon="5.27897">
        <ele>1929.2</ele>
        <time>2026-05-14T10:51:05.000Z</time>
      </trkpt>
      <trkpt lat="44.17389" lon="5.27897">
        <ele>1928.8</ele>
        <time>2026-05-14T10:51:06.000Z</time>
      </trkpt>
      <trkpt lat="44.17389" lon="5.27897">
        <ele>1928.2</ele>
        <time>2026-05-14T10:51:07.000Z</time>
      </trkpt>
      <trkpt lat="44.17388" lon="5.27897">
        <ele>1927.6</ele>
        <time>2026-05-14T10:51:08.000Z</time>
      </trkpt>
      <trkpt lat="44.17388" lon="5.27897">
        <ele>1927.2</ele>
        <time>2026-05-14T10:51:09.000Z</time>
      </trkpt>
      <trkpt lat="44.17388" lon="5.27897">
        <ele>1927.1</ele>
        <time>2026-05-14T10:51:10.000Z</time>
      </trkpt>
      <trkpt lat="44.17388" lon="5.27897">
        <ele>1927.1</ele>
        <time>2026-05-14T10:51:11.000Z</time>
      </trkpt>
      <trkpt lat="44.17388" lon="5.27897">
        <ele>1927</ele>
        <time>2026-05-14T10:51:12.000Z</time>
      </trkpt>
      <trkpt lat="44.17387" lon="5.27897">
        <ele>1926.9</ele>
        <time>2026-05-14T10:51:13.000Z</time>
      </trkpt>
      <trkpt lat="44.17387" lon="5.27897">
        <ele>1926.9</ele>
        <time>2026-05-14T10:51:14.000Z</time>
      </trkpt>
      <trkpt lat="44.17387" lon="5.27898">
        <ele>1926.9</ele>
        <time>2026-05-14T10:51:15.000Z</time>
      </trkpt>
      <trkpt lat="44.17387" lon="5.27898">
        <ele>1926.6</ele>
        <time>2026-05-14T10:51:16.000Z</time>
      </trkpt>
      <trkpt lat="44.17386" lon="5.27898">
        <ele>1926.3</ele>
        <time>2026-05-14T10:51:17.000Z</time>
      </trkpt>
      <trkpt lat="44.17386" lon="5.27898">
        <ele>1926.3</ele>
        <time>2026-05-14T10:51:18.000Z</time>
      </trkpt>
      <trkpt lat="44.17385" lon="5.27898">
        <ele>1926.2</ele>
        <time>2026-05-14T10:51:19.000Z</time>
      </trkpt>
      <trkpt lat="44.17384" lon="5.27898">
        <ele>1926.1</ele>
        <time>2026-05-14T10:51:20.000Z</time>
      </trkpt>
      <trkpt lat="44.17383" lon="5.27898">
        <ele>1926.1</ele>
        <time>2026-05-14T10:51:21.000Z</time>
      </trkpt>
      <trkpt lat="44.17382" lon="5.27898">
        <ele>1925.8</ele>
        <time>2026-05-14T10:51:22.000Z</time>
      </trkpt>
      <trkpt lat="44.17382" lon="5.27898">
        <ele>1925.9</ele>
        <time>2026-05-14T10:51:23.000Z</time>
      </trkpt>
      <trkpt lat="44.17381" lon="5.27898">
        <ele>1925.8</ele>
        <time>2026-05-14T10:51:24.000Z</time>
      </trkpt>
      <trkpt lat="44.1738" lon="5.27898">
        <ele>1926.2</ele>
        <time>2026-05-14T10:51:25.000Z</time>
      </trkpt>
      <trkpt lat="44.17379" lon="5.27898">
        <ele>1926.1</ele>
        <time>2026-05-14T10:51:26.000Z</time>
      </trkpt>
      <trkpt lat="44.17379" lon="5.27898">
        <ele>1926</ele>
        <time>2026-05-14T10:51:27.000Z</time>
      </trkpt>
      <trkpt lat="44.17378" lon="5.27898">
        <ele>1925.9</ele>
        <time>2026-05-14T10:51:28.000Z</time>
      </trkpt>
      <trkpt lat="44.17378" lon="5.27897">
        <ele>1925.9</ele>
        <time>2026-05-14T10:51:29.000Z</time>
      </trkpt>
      <trkpt lat="44.17377" lon="5.27897">
        <ele>1925.9</ele>
        <time>2026-05-14T10:51:30.000Z</time>
      </trkpt>
      <trkpt lat="44.17377" lon="5.27897">
        <ele>1925.8</ele>
        <time>2026-05-14T10:51:31.000Z</time>
      </trkpt>
      <trkpt lat="44.17376" lon="5.27897">
        <ele>1925.5</ele>
        <time>2026-05-14T10:51:32.000Z</time>
      </trkpt>
      <trkpt lat="44.17375" lon="5.27896">
        <ele>1924.7</ele>
        <time>2026-05-14T10:51:33.000Z</time>
      </trkpt>
      <trkpt lat="44.17375" lon="5.27895">
        <ele>1924.1</ele>
        <time>2026-05-14T10:51:34.000Z</time>
      </trkpt>
      <trkpt lat="44.17375" lon="5.27894">
        <ele>1924.1</ele>
        <time>2026-05-14T10:51:35.000Z</time>
      </trkpt>
      <trkpt lat="44.17374" lon="5.27892">
        <ele>1924.1</ele>
        <time>2026-05-14T10:51:36.000Z</time>
      </trkpt>
      <trkpt lat="44.17373" lon="5.27891">
        <ele>1924</ele>
        <time>2026-05-14T10:51:37.000Z</time>
      </trkpt>
      <trkpt lat="44.17373" lon="5.27889">
        <ele>1924.2</ele>
        <time>2026-05-14T10:51:38.000Z</time>
      </trkpt>
      <trkpt lat="44.17372" lon="5.27888">
        <ele>1924.6</ele>
        <time>2026-05-14T10:51:39.000Z</time>
      </trkpt>
      <trkpt lat="44.17371" lon="5.27887">
        <ele>1924.8</ele>
        <time>2026-05-14T10:51:40.000Z</time>
      </trkpt>
      <trkpt lat="44.17371" lon="5.27885">
        <ele>1925.2</ele>
        <time>2026-05-14T10:51:41.000Z</time>
      </trkpt>
      <trkpt lat="44.1737" lon="5.27884">
        <ele>1925.6</ele>
        <time>2026-05-14T10:51:42.000Z</time>
      </trkpt>
      <trkpt lat="44.1737" lon="5.27884">
        <ele>1925.2</ele>
        <time>2026-05-14T10:51:43.000Z</time>
      </trkpt>
      <trkpt lat="44.1737" lon="5.27883">
        <ele>1925.4</ele>
        <time>2026-05-14T10:51:44.000Z</time>
      </trkpt>
      <trkpt lat="44.1737" lon="5.27883">
        <ele>1925.8</ele>
        <time>2026-05-14T10:51:45.000Z</time>
      </trkpt>
      <trkpt lat="44.1737" lon="5.27883">
        <ele>1925.4</ele>
        <time>2026-05-14T10:51:46.000Z</time>
      </trkpt>
      <trkpt lat="44.1737" lon="5.27883">
        <ele>1925.5</ele>
        <time>2026-05-14T10:51:47.000Z</time>
      </trkpt>
      <trkpt lat="44.1737" lon="5.27883">
        <ele>1925.8</ele>
        <time>2026-05-14T10:51:48.000Z</time>
      </trkpt>
      <trkpt lat="44.1737" lon="5.27883">
        <ele>1926.1</ele>
        <time>2026-05-14T10:51:49.000Z</time>
      </trkpt>
      <trkpt lat="44.1737" lon="5.27883">
        <ele>1926.7</ele>
        <time>2026-05-14T10:51:50.000Z</time>
      </trkpt>
      <trkpt lat="44.1737" lon="5.27883">
        <ele>1926.4</ele>
        <time>2026-05-14T10:51:51.000Z</time>
      </trkpt>
      <trkpt lat="44.1737" lon="5.27883">
        <ele>1926.4</ele>
        <time>2026-05-14T10:51:52.000Z</time>
      </trkpt>
      <trkpt lat="44.1737" lon="5.27883">
        <ele>1926.8</ele>
        <time>2026-05-14T10:51:53.000Z</time>
      </trkpt>
      <trkpt lat="44.1737" lon="5.27883">
        <ele>1927.5</ele>
        <time>2026-05-14T10:51:54.000Z</time>
      </trkpt>
      <trkpt lat="44.17369" lon="5.27883">
        <ele>1928.4</ele>
        <time>2026-05-14T10:51:55.000Z</time>
      </trkpt>
      <trkpt lat="44.17369" lon="5.27882">
        <ele>1928.4</ele>
        <time>2026-05-14T10:51:56.000Z</time>
      </trkpt>
      <trkpt lat="44.17369" lon="5.27882">
        <ele>1928.4</ele>
        <time>2026-05-14T10:51:57.000Z</time>
      </trkpt>
      <trkpt lat="44.17369" lon="5.27882">
        <ele>1928.2</ele>
        <time>2026-05-14T10:51:58.000Z</time>
      </trkpt>
      <trkpt lat="44.17369" lon="5.27882">
        <ele>1928.2</ele>
        <time>2026-05-14T10:51:59.000Z</time>
      </trkpt>
      <trkpt lat="44.17369" lon="5.27882">
        <ele>1927.7</ele>
        <time>2026-05-14T10:52:00.000Z</time>
      </trkpt>
      <trkpt lat="44.17369" lon="5.27882">
        <ele>1927.4</ele>
        <time>2026-05-14T10:52:01.000Z</time>
      </trkpt>
      <trkpt lat="44.17369" lon="5.27882">
        <ele>1927.3</ele>
        <time>2026-05-14T10:52:02.000Z</time>
      </trkpt>
      <trkpt lat="44.17369" lon="5.27882">
        <ele>1927.1</ele>
        <time>2026-05-14T10:52:03.000Z</time>
      </trkpt>
      <trkpt lat="44.17369" lon="5.27882">
        <ele>1927.1</ele>
        <time>2026-05-14T10:52:04.000Z</time>
      </trkpt>
      <trkpt lat="44.17369" lon="5.2788">
        <ele>1927.1</ele>
        <time>2026-05-14T10:52:05.000Z</time>
      </trkpt>
      <trkpt lat="44.17368" lon="5.27878">
        <ele>1927.1</ele>
        <time>2026-05-14T10:52:06.000Z</time>
      </trkpt>
      <trkpt lat="44.17367" lon="5.27876">
        <ele>1927.2</ele>
        <time>2026-05-14T10:52:07.000Z</time>
      </trkpt>
      <trkpt lat="44.17367" lon="5.27874">
        <ele>1927.3</ele>
        <time>2026-05-14T10:52:08.000Z</time>
      </trkpt>
      <trkpt lat="44.17366" lon="5.27873">
        <ele>1927.6</ele>
        <time>2026-05-14T10:52:09.000Z</time>
      </trkpt>
      <trkpt lat="44.17365" lon="5.27871">
        <ele>1928</ele>
        <time>2026-05-14T10:52:10.000Z</time>
      </trkpt>
      <trkpt lat="44.17364" lon="5.27869">
        <ele>1928.4</ele>
        <time>2026-05-14T10:52:11.000Z</time>
      </trkpt>
      <trkpt lat="44.17363" lon="5.27867">
        <ele>1929.1</ele>
        <time>2026-05-14T10:52:12.000Z</time>
      </trkpt>
      <trkpt lat="44.17362" lon="5.27867">
        <ele>1929.8</ele>
        <time>2026-05-14T10:52:13.000Z</time>
      </trkpt>
      <trkpt lat="44.17362" lon="5.27865">
        <ele>1930.8</ele>
        <time>2026-05-14T10:52:14.000Z</time>
      </trkpt>
      <trkpt lat="44.17361" lon="5.27864">
        <ele>1931.6</ele>
        <time>2026-05-14T10:52:15.000Z</time>
      </trkpt>
      <trkpt lat="44.17361" lon="5.27863">
        <ele>1932</ele>
        <time>2026-05-14T10:52:16.000Z</time>
      </trkpt>
      <trkpt lat="44.17361" lon="5.27861">
        <ele>1932.5</ele>
        <time>2026-05-14T10:52:17.000Z</time>
      </trkpt>
      <trkpt lat="44.1736" lon="5.27861">
        <ele>1932.7</ele>
        <time>2026-05-14T10:52:18.000Z</time>
      </trkpt>
      <trkpt lat="44.1736" lon="5.27859">
        <ele>1932.8</ele>
        <time>2026-05-14T10:52:19.000Z</time>
      </trkpt>
      <trkpt lat="44.17361" lon="5.27858">
        <ele>1932.7</ele>
        <time>2026-05-14T10:52:20.000Z</time>
      </trkpt>
      <trkpt lat="44.1736" lon="5.27857">
        <ele>1932.8</ele>
        <time>2026-05-14T10:52:21.000Z</time>
      </trkpt>
      <trkpt lat="44.1736" lon="5.27857">
        <ele>1933.3</ele>
        <time>2026-05-14T10:52:22.000Z</time>
      </trkpt>
      <trkpt lat="44.1736" lon="5.27857">
        <ele>1933.8</ele>
        <time>2026-05-14T10:52:23.000Z</time>
      </trkpt>
      <trkpt lat="44.17359" lon="5.27857">
        <ele>1933.9</ele>
        <time>2026-05-14T10:52:24.000Z</time>
      </trkpt>
      <trkpt lat="44.17359" lon="5.27857">
        <ele>1934.2</ele>
        <time>2026-05-14T10:52:25.000Z</time>
      </trkpt>
      <trkpt lat="44.17359" lon="5.27857">
        <ele>1934.3</ele>
        <time>2026-05-14T10:52:26.000Z</time>
      </trkpt>
      <trkpt lat="44.17359" lon="5.27857">
        <ele>1934.5</ele>
        <time>2026-05-14T10:52:27.000Z</time>
      </trkpt>
      <trkpt lat="44.17359" lon="5.27857">
        <ele>1934.5</ele>
        <time>2026-05-14T10:52:28.000Z</time>
      </trkpt>
      <trkpt lat="44.17359" lon="5.27857">
        <ele>1934.4</ele>
        <time>2026-05-14T10:52:29.000Z</time>
      </trkpt>
      <trkpt lat="44.17359" lon="5.27857">
        <ele>1934.5</ele>
        <time>2026-05-14T10:52:30.000Z</time>
      </trkpt>
      <trkpt lat="44.17359" lon="5.27857">
        <ele>1934.6</ele>
        <time>2026-05-14T10:52:31.000Z</time>
      </trkpt>
      <trkpt lat="44.17359" lon="5.27856">
        <ele>1934.8</ele>
        <time>2026-05-14T10:52:32.000Z</time>
      </trkpt>
      <trkpt lat="44.17359" lon="5.27855">
        <ele>1935</ele>
        <time>2026-05-14T10:52:33.000Z</time>
      </trkpt>
      <trkpt lat="44.17359" lon="5.27854">
        <ele>1935.3</ele>
        <time>2026-05-14T10:52:34.000Z</time>
      </trkpt>
      <trkpt lat="44.17359" lon="5.27852">
        <ele>1935.8</ele>
        <time>2026-05-14T10:52:35.000Z</time>
      </trkpt>
      <trkpt lat="44.17359" lon="5.2785">
        <ele>1936.1</ele>
        <time>2026-05-14T10:52:36.000Z</time>
      </trkpt>
      <trkpt lat="44.17358" lon="5.2785">
        <ele>1936.2</ele>
        <time>2026-05-14T10:52:37.000Z</time>
      </trkpt>
      <trkpt lat="44.17358" lon="5.27849">
        <ele>1936.5</ele>
        <time>2026-05-14T10:52:38.000Z</time>
      </trkpt>
      <trkpt lat="44.17358" lon="5.27848">
        <ele>1936.9</ele>
        <time>2026-05-14T10:52:39.000Z</time>
      </trkpt>
      <trkpt lat="44.17357" lon="5.27848">
        <ele>1937.1</ele>
        <time>2026-05-14T10:52:40.000Z</time>
      </trkpt>
      <trkpt lat="44.17357" lon="5.27848">
        <ele>1937.3</ele>
        <time>2026-05-14T10:52:41.000Z</time>
      </trkpt>
      <trkpt lat="44.17356" lon="5.27848">
        <ele>1937.6</ele>
        <time>2026-05-14T10:52:42.000Z</time>
      </trkpt>
      <trkpt lat="44.17356" lon="5.27847">
        <ele>1937.4</ele>
        <time>2026-05-14T10:52:43.000Z</time>
      </trkpt>
      <trkpt lat="44.17355" lon="5.27846">
        <ele>1937.1</ele>
        <time>2026-05-14T10:52:44.000Z</time>
      </trkpt>
      <trkpt lat="44.17354" lon="5.27845">
        <ele>1937.1</ele>
        <time>2026-05-14T10:52:45.000Z</time>
      </trkpt>
      <trkpt lat="44.17353" lon="5.27846">
        <ele>1937.2</ele>
        <time>2026-05-14T10:52:46.000Z</time>
      </trkpt>
      <trkpt lat="44.17351" lon="5.27846">
        <ele>1937.3</ele>
        <time>2026-05-14T10:52:47.000Z</time>
      </trkpt>
      <trkpt lat="44.17351" lon="5.27847">
        <ele>1937.3</ele>
        <time>2026-05-14T10:52:48.000Z</time>
      </trkpt>
      <trkpt lat="44.1735" lon="5.27846">
        <ele>1937.5</ele>
        <time>2026-05-14T10:52:49.000Z</time>
      </trkpt>
      <trkpt lat="44.1735" lon="5.27847">
        <ele>1937.5</ele>
        <time>2026-05-14T10:52:50.000Z</time>
      </trkpt>
      <trkpt lat="44.1735" lon="5.27847">
        <ele>1937</ele>
        <time>2026-05-14T10:52:51.000Z</time>
      </trkpt>
      <trkpt lat="44.17349" lon="5.27848">
        <ele>1936.5</ele>
        <time>2026-05-14T10:52:52.000Z</time>
      </trkpt>
      <trkpt lat="44.17349" lon="5.27848">
        <ele>1936.6</ele>
        <time>2026-05-14T10:52:53.000Z</time>
      </trkpt>
      <trkpt lat="44.17349" lon="5.27848">
        <ele>1936.5</ele>
        <time>2026-05-14T10:52:54.000Z</time>
      </trkpt>
      <trkpt lat="44.17349" lon="5.27848">
        <ele>1936.2</ele>
        <time>2026-05-14T10:52:55.000Z</time>
      </trkpt>
      <trkpt lat="44.17349" lon="5.27848">
        <ele>1935.8</ele>
        <time>2026-05-14T10:52:56.000Z</time>
      </trkpt>
      <trkpt lat="44.17349" lon="5.27848">
        <ele>1935.5</ele>
        <time>2026-05-14T10:52:57.000Z</time>
      </trkpt>
      <trkpt lat="44.17349" lon="5.27848">
        <ele>1935.3</ele>
        <time>2026-05-14T10:52:58.000Z</time>
      </trkpt>
      <trkpt lat="44.17349" lon="5.27848">
        <ele>1935</ele>
        <time>2026-05-14T10:52:59.000Z</time>
      </trkpt>
      <trkpt lat="44.17349" lon="5.27848">
        <ele>1934.8</ele>
        <time>2026-05-14T10:53:00.000Z</time>
      </trkpt>
      <trkpt lat="44.17349" lon="5.27848">
        <ele>1934.3</ele>
        <time>2026-05-14T10:53:01.000Z</time>
      </trkpt>
      <trkpt lat="44.17349" lon="5.27848">
        <ele>1933.8</ele>
        <time>2026-05-14T10:53:02.000Z</time>
      </trkpt>
      <trkpt lat="44.17349" lon="5.27848">
        <ele>1933.4</ele>
        <time>2026-05-14T10:53:03.000Z</time>
      </trkpt>
      <trkpt lat="44.17349" lon="5.27848">
        <ele>1933.5</ele>
        <time>2026-05-14T10:53:04.000Z</time>
      </trkpt>
      <trkpt lat="44.17349" lon="5.27848">
        <ele>1933.7</ele>
        <time>2026-05-14T10:53:05.000Z</time>
      </trkpt>
      <trkpt lat="44.17349" lon="5.27848">
        <ele>1933.7</ele>
        <time>2026-05-14T10:53:06.000Z</time>
      </trkpt>
      <trkpt lat="44.17349" lon="5.27848">
        <ele>1933.8</ele>
        <time>2026-05-14T10:53:07.000Z</time>
      </trkpt>
      <trkpt lat="44.17349" lon="5.27848">
        <ele>1933.8</ele>
        <time>2026-05-14T10:53:08.000Z</time>
      </trkpt>
      <trkpt lat="44.17349" lon="5.27848">
        <ele>1933.7</ele>
        <time>2026-05-14T10:53:09.000Z</time>
      </trkpt>
      <trkpt lat="44.17349" lon="5.27848">
        <ele>1933.8</ele>
        <time>2026-05-14T10:53:10.000Z</time>
      </trkpt>
      <trkpt lat="44.17349" lon="5.27848">
        <ele>1933.8</ele>
        <time>2026-05-14T10:53:11.000Z</time>
      </trkpt>
      <trkpt lat="44.17349" lon="5.27848">
        <ele>1934.1</ele>
        <time>2026-05-14T10:53:12.000Z</time>
      </trkpt>
      <trkpt lat="44.17349" lon="5.27848">
        <ele>1934.3</ele>
        <time>2026-05-14T10:53:13.000Z</time>
      </trkpt>
      <trkpt lat="44.17349" lon="5.27848">
        <ele>1934.4</ele>
        <time>2026-05-14T10:53:14.000Z</time>
      </trkpt>
      <trkpt lat="44.17349" lon="5.27848">
        <ele>1934.5</ele>
        <time>2026-05-14T10:53:15.000Z</time>
      </trkpt>
      <trkpt lat="44.17349" lon="5.27848">
        <ele>1934.5</ele>
        <time>2026-05-14T10:53:16.000Z</time>
      </trkpt>
      <trkpt lat="44.17349" lon="5.27848">
        <ele>1934.4</ele>
        <time>2026-05-14T10:53:17.000Z</time>
      </trkpt>
      <trkpt lat="44.17349" lon="5.27848">
        <ele>1934.6</ele>
        <time>2026-05-14T10:53:18.000Z</time>
      </trkpt>
      <trkpt lat="44.17349" lon="5.27848">
        <ele>1934.5</ele>
        <time>2026-05-14T10:53:19.000Z</time>
      </trkpt>
      <trkpt lat="44.17349" lon="5.27848">
        <ele>1934.3</ele>
        <time>2026-05-14T10:53:20.000Z</time>
      </trkpt>
      <trkpt lat="44.17349" lon="5.27848">
        <ele>1934.1</ele>
        <time>2026-05-14T10:53:21.000Z</time>
      </trkpt>
      <trkpt lat="44.17349" lon="5.27848">
        <ele>1933.9</ele>
        <time>2026-05-14T10:53:22.000Z</time>
      </trkpt>
      <trkpt lat="44.17349" lon="5.27848">
        <ele>1933.7</ele>
        <time>2026-05-14T10:53:23.000Z</time>
      </trkpt>
      <trkpt lat="44.17349" lon="5.27848">
        <ele>1933.5</ele>
        <time>2026-05-14T10:53:24.000Z</time>
      </trkpt>
      <trkpt lat="44.17349" lon="5.27848">
        <ele>1933.5</ele>
        <time>2026-05-14T10:53:25.000Z</time>
      </trkpt>
      <trkpt lat="44.17349" lon="5.27848">
        <ele>1933.6</ele>
        <time>2026-05-14T10:53:26.000Z</time>
      </trkpt>
      <trkpt lat="44.17349" lon="5.27848">
        <ele>1933.4</ele>
        <time>2026-05-14T10:53:27.000Z</time>
      </trkpt>
      <trkpt lat="44.17349" lon="5.27848">
        <ele>1933.5</ele>
        <time>2026-05-14T10:53:28.000Z</time>
      </trkpt>
      <trkpt lat="44.17349" lon="5.27848">
        <ele>1933.7</ele>
        <time>2026-05-14T10:53:29.000Z</time>
      </trkpt>
      <trkpt lat="44.17349" lon="5.27848">
        <ele>1933.7</ele>
        <time>2026-05-14T10:53:30.000Z</time>
      </trkpt>
      <trkpt lat="44.17349" lon="5.27848">
        <ele>1933.6</ele>
        <time>2026-05-14T10:53:31.000Z</time>
      </trkpt>
      <trkpt lat="44.17349" lon="5.27848">
        <ele>1933.6</ele>
        <time>2026-05-14T10:53:32.000Z</time>
      </trkpt>
      <trkpt lat="44.17349" lon="5.27848">
        <ele>1933.6</ele>
        <time>2026-05-14T10:53:33.000Z</time>
      </trkpt>
      <trkpt lat="44.17349" lon="5.27848">
        <ele>1933.4</ele>
        <time>2026-05-14T10:53:34.000Z</time>
      </trkpt>
      <trkpt lat="44.1735" lon="5.27848">
        <ele>1933.3</ele>
        <time>2026-05-14T10:53:35.000Z</time>
      </trkpt>
      <trkpt lat="44.1735" lon="5.27848">
        <ele>1933</ele>
        <time>2026-05-14T10:53:36.000Z</time>
      </trkpt>
      <trkpt lat="44.1735" lon="5.27848">
        <ele>1933</ele>
        <time>2026-05-14T10:53:37.000Z</time>
      </trkpt>
      <trkpt lat="44.1735" lon="5.27848">
        <ele>1932.8</ele>
        <time>2026-05-14T10:53:38.000Z</time>
      </trkpt>
      <trkpt lat="44.1735" lon="5.27848">
        <ele>1932.7</ele>
        <time>2026-05-14T10:53:39.000Z</time>
      </trkpt>
      <trkpt lat="44.1735" lon="5.27848">
        <ele>1932.5</ele>
        <time>2026-05-14T10:53:40.000Z</time>
      </trkpt>
      <trkpt lat="44.1735" lon="5.27848">
        <ele>1932.5</ele>
        <time>2026-05-14T10:53:41.000Z</time>
      </trkpt>
      <trkpt lat="44.1735" lon="5.27848">
        <ele>1932.7</ele>
        <time>2026-05-14T10:53:42.000Z</time>
      </trkpt>
      <trkpt lat="44.1735" lon="5.27848">
        <ele>1932.8</ele>
        <time>2026-05-14T10:53:43.000Z</time>
      </trkpt>
      <trkpt lat="44.1735" lon="5.27849">
        <ele>1933</ele>
        <time>2026-05-14T10:53:44.000Z</time>
      </trkpt>
      <trkpt lat="44.1735" lon="5.2785">
        <ele>1933.2</ele>
        <time>2026-05-14T10:53:45.000Z</time>
      </trkpt>
      <trkpt lat="44.1735" lon="5.2785">
        <ele>1933.6</ele>
        <time>2026-05-14T10:53:46.000Z</time>
      </trkpt>
      <trkpt lat="44.1735" lon="5.2785">
        <ele>1934</ele>
        <time>2026-05-14T10:53:47.000Z</time>
      </trkpt>
      <trkpt lat="44.1735" lon="5.2785">
        <ele>1934.2</ele>
        <time>2026-05-14T10:53:48.000Z</time>
      </trkpt>
      <trkpt lat="44.1735" lon="5.2785">
        <ele>1934.4</ele>
        <time>2026-05-14T10:53:49.000Z</time>
      </trkpt>
      <trkpt lat="44.1735" lon="5.2785">
        <ele>1934.4</ele>
        <time>2026-05-14T10:53:50.000Z</time>
      </trkpt>
      <trkpt lat="44.1735" lon="5.2785">
        <ele>1934.4</ele>
        <time>2026-05-14T10:53:51.000Z</time>
      </trkpt>
      <trkpt lat="44.1735" lon="5.2785">
        <ele>1934.5</ele>
        <time>2026-05-14T10:53:52.000Z</time>
      </trkpt>
      <trkpt lat="44.1735" lon="5.2785">
        <ele>1934.8</ele>
        <time>2026-05-14T10:53:53.000Z</time>
      </trkpt>
      <trkpt lat="44.1735" lon="5.2785">
        <ele>1935</ele>
        <time>2026-05-14T10:53:54.000Z</time>
      </trkpt>
      <trkpt lat="44.1735" lon="5.2785">
        <ele>1935.1</ele>
        <time>2026-05-14T10:53:55.000Z</time>
      </trkpt>
      <trkpt lat="44.1735" lon="5.2785">
        <ele>1935.1</ele>
        <time>2026-05-14T10:53:56.000Z</time>
      </trkpt>
      <trkpt lat="44.1735" lon="5.2785">
        <ele>1935.1</ele>
        <time>2026-05-14T10:53:57.000Z</time>
      </trkpt>
      <trkpt lat="44.1735" lon="5.2785">
        <ele>1935.2</ele>
        <time>2026-05-14T10:53:58.000Z</time>
      </trkpt>
      <trkpt lat="44.1735" lon="5.2785">
        <ele>1935.2</ele>
        <time>2026-05-14T10:53:59.000Z</time>
      </trkpt>
      <trkpt lat="44.1735" lon="5.2785">
        <ele>1935.1</ele>
        <time>2026-05-14T10:54:00.000Z</time>
      </trkpt>
      <trkpt lat="44.1735" lon="5.2785">
        <ele>1935</ele>
        <time>2026-05-14T10:54:01.000Z</time>
      </trkpt>
      <trkpt lat="44.1735" lon="5.2785">
        <ele>1934.8</ele>
        <time>2026-05-14T10:54:02.000Z</time>
      </trkpt>
      <trkpt lat="44.1735" lon="5.2785">
        <ele>1934.8</ele>
        <time>2026-05-14T10:54:03.000Z</time>
      </trkpt>
      <trkpt lat="44.1735" lon="5.2785">
        <ele>1935</ele>
        <time>2026-05-14T10:54:04.000Z</time>
      </trkpt>
      <trkpt lat="44.1735" lon="5.2785">
        <ele>1935.1</ele>
        <time>2026-05-14T10:54:05.000Z</time>
      </trkpt>
      <trkpt lat="44.1735" lon="5.2785">
        <ele>1935.3</ele>
        <time>2026-05-14T10:54:06.000Z</time>
      </trkpt>
      <trkpt lat="44.1735" lon="5.2785">
        <ele>1935.4</ele>
        <time>2026-05-14T10:54:07.000Z</time>
      </trkpt>
      <trkpt lat="44.1735" lon="5.2785">
        <ele>1935.8</ele>
        <time>2026-05-14T10:54:08.000Z</time>
      </trkpt>
      <trkpt lat="44.1735" lon="5.2785">
        <ele>1936.1</ele>
        <time>2026-05-14T10:54:09.000Z</time>
      </trkpt>
      <trkpt lat="44.1735" lon="5.2785">
        <ele>1937.7</ele>
        <time>2026-05-14T10:54:10.000Z</time>
      </trkpt>
      <trkpt lat="44.1735" lon="5.2785">
        <ele>1938.8</ele>
        <time>2026-05-14T10:54:11.000Z</time>
      </trkpt>
      <trkpt lat="44.1735" lon="5.2785">
        <ele>1939.2</ele>
        <time>2026-05-14T10:54:12.000Z</time>
      </trkpt>
      <trkpt lat="44.1735" lon="5.27849">
        <ele>1939.9</ele>
        <time>2026-05-14T10:54:13.000Z</time>
      </trkpt>
      <trkpt lat="44.1735" lon="5.2785">
        <ele>1940.1</ele>
        <time>2026-05-14T10:54:14.000Z</time>
      </trkpt>
      <trkpt lat="44.1735" lon="5.2785">
        <ele>1940.3</ele>
        <time>2026-05-14T10:54:15.000Z</time>
      </trkpt>
      <trkpt lat="44.1735" lon="5.2785">
        <ele>1940.6</ele>
        <time>2026-05-14T10:54:16.000Z</time>
      </trkpt>
      <trkpt lat="44.1735" lon="5.2785">
        <ele>1940.8</ele>
        <time>2026-05-14T10:54:17.000Z</time>
      </trkpt>
      <trkpt lat="44.1735" lon="5.2785">
        <ele>1941.1</ele>
        <time>2026-05-14T10:54:18.000Z</time>
      </trkpt>
      <trkpt lat="44.1735" lon="5.2785">
        <ele>1941.4</ele>
        <time>2026-05-14T10:54:19.000Z</time>
      </trkpt>
      <trkpt lat="44.1735" lon="5.2785">
        <ele>1941.7</ele>
        <time>2026-05-14T10:54:20.000Z</time>
      </trkpt>
      <trkpt lat="44.1735" lon="5.2785">
        <ele>1942.1</ele>
        <time>2026-05-14T10:54:21.000Z</time>
      </trkpt>
      <trkpt lat="44.1735" lon="5.2785">
        <ele>1942.4</ele>
        <time>2026-05-14T10:54:22.000Z</time>
      </trkpt>
      <trkpt lat="44.1735" lon="5.2785">
        <ele>1942.8</ele>
        <time>2026-05-14T10:54:23.000Z</time>
      </trkpt>
      <trkpt lat="44.1735" lon="5.2785">
        <ele>1943.3</ele>
        <time>2026-05-14T10:54:24.000Z</time>
      </trkpt>
      <trkpt lat="44.1735" lon="5.2785">
        <ele>1944.2</ele>
        <time>2026-05-14T10:54:25.000Z</time>
      </trkpt>
      <trkpt lat="44.1735" lon="5.27849">
        <ele>1944.6</ele>
        <time>2026-05-14T10:54:26.000Z</time>
      </trkpt>
      <trkpt lat="44.1735" lon="5.27849">
        <ele>1945.2</ele>
        <time>2026-05-14T10:54:27.000Z</time>
      </trkpt>
      <trkpt lat="44.1735" lon="5.27849">
        <ele>1945.7</ele>
        <time>2026-05-14T10:54:28.000Z</time>
      </trkpt>
      <trkpt lat="44.1735" lon="5.27849">
        <ele>1946.4</ele>
        <time>2026-05-14T10:54:29.000Z</time>
      </trkpt>
      <trkpt lat="44.1735" lon="5.27849">
        <ele>1946.6</ele>
        <time>2026-05-14T10:54:30.000Z</time>
      </trkpt>
      <trkpt lat="44.1735" lon="5.27849">
        <ele>1946.7</ele>
        <time>2026-05-14T10:54:31.000Z</time>
      </trkpt>
      <trkpt lat="44.1735" lon="5.27849">
        <ele>1946.8</ele>
        <time>2026-05-14T10:54:32.000Z</time>
      </trkpt>
      <trkpt lat="44.1735" lon="5.27849">
        <ele>1946.7</ele>
        <time>2026-05-14T10:54:33.000Z</time>
      </trkpt>
      <trkpt lat="44.17349" lon="5.27849">
        <ele>1947.4</ele>
        <time>2026-05-14T10:54:34.000Z</time>
      </trkpt>
      <trkpt lat="44.17349" lon="5.27849">
        <ele>1947.9</ele>
        <time>2026-05-14T10:54:35.000Z</time>
      </trkpt>
      <trkpt lat="44.17349" lon="5.27849">
        <ele>1948.2</ele>
        <time>2026-05-14T10:54:36.000Z</time>
      </trkpt>
      <trkpt lat="44.17349" lon="5.27849">
        <ele>1948.6</ele>
        <time>2026-05-14T10:54:37.000Z</time>
      </trkpt>
      <trkpt lat="44.17349" lon="5.27849">
        <ele>1948.9</ele>
        <time>2026-05-14T10:54:38.000Z</time>
      </trkpt>
      <trkpt lat="44.17349" lon="5.27849">
        <ele>1949.4</ele>
        <time>2026-05-14T10:54:39.000Z</time>
      </trkpt>
      <trkpt lat="44.17349" lon="5.27849">
        <ele>1949.8</ele>
        <time>2026-05-14T10:54:40.000Z</time>
      </trkpt>
      <trkpt lat="44.17349" lon="5.27849">
        <ele>1950.2</ele>
        <time>2026-05-14T10:54:41.000Z</time>
      </trkpt>
      <trkpt lat="44.17349" lon="5.27849">
        <ele>1950.5</ele>
        <time>2026-05-14T10:54:42.000Z</time>
      </trkpt>
      <trkpt lat="44.17349" lon="5.27849">
        <ele>1950.6</ele>
        <time>2026-05-14T10:54:43.000Z</time>
      </trkpt>
      <trkpt lat="44.17349" lon="5.27849">
        <ele>1950.8</ele>
        <time>2026-05-14T10:54:44.000Z</time>
      </trkpt>
      <trkpt lat="44.17349" lon="5.27849">
        <ele>1950.9</ele>
        <time>2026-05-14T10:54:45.000Z</time>
      </trkpt>
      <trkpt lat="44.17349" lon="5.2785">
        <ele>1950.8</ele>
        <time>2026-05-14T10:54:46.000Z</time>
      </trkpt>
      <trkpt lat="44.17349" lon="5.2785">
        <ele>1950.8</ele>
        <time>2026-05-14T10:54:47.000Z</time>
      </trkpt>
      <trkpt lat="44.17349" lon="5.2785">
        <ele>1951.1</ele>
        <time>2026-05-14T10:54:48.000Z</time>
      </trkpt>
      <trkpt lat="44.17349" lon="5.2785">
        <ele>1951.4</ele>
        <time>2026-05-14T10:54:49.000Z</time>
      </trkpt>
      <trkpt lat="44.17349" lon="5.27851">
        <ele>1951.4</ele>
        <time>2026-05-14T10:54:50.000Z</time>
      </trkpt>
      <trkpt lat="44.17349" lon="5.27851">
        <ele>1951.5</ele>
        <time>2026-05-14T10:54:51.000Z</time>
      </trkpt>
      <trkpt lat="44.17349" lon="5.27851">
        <ele>1951.6</ele>
        <time>2026-05-14T10:54:52.000Z</time>
      </trkpt>
      <trkpt lat="44.17349" lon="5.27851">
        <ele>1951.5</ele>
        <time>2026-05-14T10:54:53.000Z</time>
      </trkpt>
      <trkpt lat="44.17349" lon="5.27852">
        <ele>1951.5</ele>
        <time>2026-05-14T10:54:54.000Z</time>
      </trkpt>
      <trkpt lat="44.1735" lon="5.27851">
        <ele>1951</ele>
        <time>2026-05-14T10:54:55.000Z</time>
      </trkpt>
      <trkpt lat="44.1735" lon="5.2785">
        <ele>1950.5</ele>
        <time>2026-05-14T10:54:56.000Z</time>
      </trkpt>
      <trkpt lat="44.1735" lon="5.2785">
        <ele>1950.1</ele>
        <time>2026-05-14T10:54:57.000Z</time>
      </trkpt>
      <trkpt lat="44.1735" lon="5.27849">
        <ele>1949.4</ele>
        <time>2026-05-14T10:54:58.000Z</time>
      </trkpt>
      <trkpt lat="44.1735" lon="5.27849">
        <ele>1949.3</ele>
        <time>2026-05-14T10:54:59.000Z</time>
      </trkpt>
      <trkpt lat="44.17351" lon="5.27848">
        <ele>1949.3</ele>
        <time>2026-05-14T10:55:00.000Z</time>
      </trkpt>
      <trkpt lat="44.17352" lon="5.27847">
        <ele>1948.9</ele>
        <time>2026-05-14T10:55:01.000Z</time>
      </trkpt>
      <trkpt lat="44.17352" lon="5.27846">
        <ele>1948.4</ele>
        <time>2026-05-14T10:55:02.000Z</time>
      </trkpt>
      <trkpt lat="44.17353" lon="5.27845">
        <ele>1948.4</ele>
        <time>2026-05-14T10:55:03.000Z</time>
      </trkpt>
      <trkpt lat="44.17353" lon="5.27844">
        <ele>1948.5</ele>
        <time>2026-05-14T10:55:04.000Z</time>
      </trkpt>
      <trkpt lat="44.17353" lon="5.27842">
        <ele>1948.3</ele>
        <time>2026-05-14T10:55:05.000Z</time>
      </trkpt>
      <trkpt lat="44.17354" lon="5.27842">
        <ele>1948.1</ele>
        <time>2026-05-14T10:55:06.000Z</time>
      </trkpt>
      <trkpt lat="44.17354" lon="5.27841">
        <ele>1947.9</ele>
        <time>2026-05-14T10:55:07.000Z</time>
      </trkpt>
      <trkpt lat="44.17354" lon="5.2784">
        <ele>1947.6</ele>
        <time>2026-05-14T10:55:08.000Z</time>
      </trkpt>
      <trkpt lat="44.17354" lon="5.27839">
        <ele>1947.4</ele>
        <time>2026-05-14T10:55:09.000Z</time>
      </trkpt>
      <trkpt lat="44.17355" lon="5.27839">
        <ele>1947.5</ele>
        <time>2026-05-14T10:55:10.000Z</time>
      </trkpt>
      <trkpt lat="44.17355" lon="5.27839">
        <ele>1947.3</ele>
        <time>2026-05-14T10:55:11.000Z</time>
      </trkpt>
      <trkpt lat="44.17355" lon="5.27838">
        <ele>1947.1</ele>
        <time>2026-05-14T10:55:12.000Z</time>
      </trkpt>
      <trkpt lat="44.17355" lon="5.27839">
        <ele>1947</ele>
        <time>2026-05-14T10:55:13.000Z</time>
      </trkpt>
      <trkpt lat="44.17355" lon="5.27839">
        <ele>1946.9</ele>
        <time>2026-05-14T10:55:14.000Z</time>
      </trkpt>
      <trkpt lat="44.17355" lon="5.27839">
        <ele>1946.8</ele>
        <time>2026-05-14T10:55:15.000Z</time>
      </trkpt>
      <trkpt lat="44.17355" lon="5.27839">
        <ele>1946.6</ele>
        <time>2026-05-14T10:55:16.000Z</time>
      </trkpt>
      <trkpt lat="44.17355" lon="5.27839">
        <ele>1946.5</ele>
        <time>2026-05-14T10:55:17.000Z</time>
      </trkpt>
      <trkpt lat="44.17355" lon="5.27839">
        <ele>1946.3</ele>
        <time>2026-05-14T10:55:18.000Z</time>
      </trkpt>
      <trkpt lat="44.17355" lon="5.27838">
        <ele>1946.1</ele>
        <time>2026-05-14T10:55:19.000Z</time>
      </trkpt>
      <trkpt lat="44.17355" lon="5.27838">
        <ele>1945.8</ele>
        <time>2026-05-14T10:55:20.000Z</time>
      </trkpt>
      <trkpt lat="44.17356" lon="5.27837">
        <ele>1945.5</ele>
        <time>2026-05-14T10:55:21.000Z</time>
      </trkpt>
      <trkpt lat="44.17356" lon="5.27835">
        <ele>1945.4</ele>
        <time>2026-05-14T10:55:22.000Z</time>
      </trkpt>
      <trkpt lat="44.17356" lon="5.27835">
        <ele>1945.4</ele>
        <time>2026-05-14T10:55:23.000Z</time>
      </trkpt>
      <trkpt lat="44.17356" lon="5.27834">
        <ele>1945.4</ele>
        <time>2026-05-14T10:55:24.000Z</time>
      </trkpt>
      <trkpt lat="44.17357" lon="5.27834">
        <ele>1945.3</ele>
        <time>2026-05-14T10:55:25.000Z</time>
      </trkpt>
      <trkpt lat="44.17357" lon="5.27834">
        <ele>1945.3</ele>
        <time>2026-05-14T10:55:26.000Z</time>
      </trkpt>
      <trkpt lat="44.17357" lon="5.27835">
        <ele>1945.2</ele>
        <time>2026-05-14T10:55:27.000Z</time>
      </trkpt>
      <trkpt lat="44.17357" lon="5.27834">
        <ele>1945.2</ele>
        <time>2026-05-14T10:55:28.000Z</time>
      </trkpt>
      <trkpt lat="44.17357" lon="5.27834">
        <ele>1945.3</ele>
        <time>2026-05-14T10:55:29.000Z</time>
      </trkpt>
      <trkpt lat="44.17357" lon="5.27834">
        <ele>1945.3</ele>
        <time>2026-05-14T10:55:30.000Z</time>
      </trkpt>
      <trkpt lat="44.17357" lon="5.27834">
        <ele>1945.3</ele>
        <time>2026-05-14T10:55:31.000Z</time>
      </trkpt>
      <trkpt lat="44.17357" lon="5.27834">
        <ele>1945.2</ele>
        <time>2026-05-14T10:55:32.000Z</time>
      </trkpt>
      <trkpt lat="44.17357" lon="5.27834">
        <ele>1945.1</ele>
        <time>2026-05-14T10:55:33.000Z</time>
      </trkpt>
      <trkpt lat="44.17357" lon="5.27834">
        <ele>1945</ele>
        <time>2026-05-14T10:55:34.000Z</time>
      </trkpt>
      <trkpt lat="44.17357" lon="5.27834">
        <ele>1944.9</ele>
        <time>2026-05-14T10:55:35.000Z</time>
      </trkpt>
      <trkpt lat="44.17357" lon="5.27834">
        <ele>1944.8</ele>
        <time>2026-05-14T10:55:36.000Z</time>
      </trkpt>
      <trkpt lat="44.17357" lon="5.27834">
        <ele>1944.2</ele>
        <time>2026-05-14T10:55:37.000Z</time>
      </trkpt>
      <trkpt lat="44.17357" lon="5.27834">
        <ele>1943.8</ele>
        <time>2026-05-14T10:55:38.000Z</time>
      </trkpt>
      <trkpt lat="44.17357" lon="5.27834">
        <ele>1943.4</ele>
        <time>2026-05-14T10:55:39.000Z</time>
      </trkpt>
      <trkpt lat="44.17357" lon="5.27834">
        <ele>1943</ele>
        <time>2026-05-14T10:55:40.000Z</time>
      </trkpt>
      <trkpt lat="44.17357" lon="5.27835">
        <ele>1942.6</ele>
        <time>2026-05-14T10:55:41.000Z</time>
      </trkpt>
      <trkpt lat="44.17357" lon="5.27835">
        <ele>1942.2</ele>
        <time>2026-05-14T10:55:42.000Z</time>
      </trkpt>
      <trkpt lat="44.17357" lon="5.27836">
        <ele>1941.8</ele>
        <time>2026-05-14T10:55:43.000Z</time>
      </trkpt>
      <trkpt lat="44.17358" lon="5.27837">
        <ele>1941.3</ele>
        <time>2026-05-14T10:55:44.000Z</time>
      </trkpt>
      <trkpt lat="44.17358" lon="5.27837">
        <ele>1940.9</ele>
        <time>2026-05-14T10:55:45.000Z</time>
      </trkpt>
      <trkpt lat="44.17358" lon="5.27837">
        <ele>1940.5</ele>
        <time>2026-05-14T10:55:46.000Z</time>
      </trkpt>
      <trkpt lat="44.17358" lon="5.27837">
        <ele>1939.9</ele>
        <time>2026-05-14T10:55:47.000Z</time>
      </trkpt>
      <trkpt lat="44.17358" lon="5.27837">
        <ele>1939.6</ele>
        <time>2026-05-14T10:55:48.000Z</time>
      </trkpt>
      <trkpt lat="44.17358" lon="5.27838">
        <ele>1939.1</ele>
        <time>2026-05-14T10:55:49.000Z</time>
      </trkpt>
      <trkpt lat="44.17359" lon="5.27837">
        <ele>1938.5</ele>
        <time>2026-05-14T10:55:50.000Z</time>
      </trkpt>
      <trkpt lat="44.17359" lon="5.27838">
        <ele>1938</ele>
        <time>2026-05-14T10:55:51.000Z</time>
      </trkpt>
      <trkpt lat="44.17359" lon="5.27838">
        <ele>1937.6</ele>
        <time>2026-05-14T10:55:52.000Z</time>
      </trkpt>
      <trkpt lat="44.1736" lon="5.27837">
        <ele>1937.2</ele>
        <time>2026-05-14T10:55:53.000Z</time>
      </trkpt>
      <trkpt lat="44.1736" lon="5.27837">
        <ele>1936.9</ele>
        <time>2026-05-14T10:55:54.000Z</time>
      </trkpt>
      <trkpt lat="44.1736" lon="5.27837">
        <ele>1936.6</ele>
        <time>2026-05-14T10:55:55.000Z</time>
      </trkpt>
      <trkpt lat="44.17361" lon="5.27838">
        <ele>1936.3</ele>
        <time>2026-05-14T10:55:56.000Z</time>
      </trkpt>
      <trkpt lat="44.17361" lon="5.27838">
        <ele>1935.9</ele>
        <time>2026-05-14T10:55:57.000Z</time>
      </trkpt>
      <trkpt lat="44.17361" lon="5.27838">
        <ele>1935.5</ele>
        <time>2026-05-14T10:55:58.000Z</time>
      </trkpt>
      <trkpt lat="44.17361" lon="5.27838">
        <ele>1935.5</ele>
        <time>2026-05-14T10:55:59.000Z</time>
      </trkpt>
      <trkpt lat="44.17361" lon="5.27838">
        <ele>1935.5</ele>
        <time>2026-05-14T10:56:00.000Z</time>
      </trkpt>
      <trkpt lat="44.17361" lon="5.27838">
        <ele>1935.8</ele>
        <time>2026-05-14T10:56:01.000Z</time>
      </trkpt>
      <trkpt lat="44.17361" lon="5.27838">
        <ele>1935.8</ele>
        <time>2026-05-14T10:56:02.000Z</time>
      </trkpt>
      <trkpt lat="44.17362" lon="5.27839">
        <ele>1935.7</ele>
        <time>2026-05-14T10:56:03.000Z</time>
      </trkpt>
      <trkpt lat="44.17362" lon="5.27838">
        <ele>1935.6</ele>
        <time>2026-05-14T10:56:04.000Z</time>
      </trkpt>
      <trkpt lat="44.17362" lon="5.27839">
        <ele>1935.5</ele>
        <time>2026-05-14T10:56:05.000Z</time>
      </trkpt>
      <trkpt lat="44.17362" lon="5.27839">
        <ele>1935.6</ele>
        <time>2026-05-14T10:56:06.000Z</time>
      </trkpt>
      <trkpt lat="44.17362" lon="5.27839">
        <ele>1935.7</ele>
        <time>2026-05-14T10:56:07.000Z</time>
      </trkpt>
      <trkpt lat="44.17362" lon="5.27839">
        <ele>1935.8</ele>
        <time>2026-05-14T10:56:08.000Z</time>
      </trkpt>
      <trkpt lat="44.17362" lon="5.27839">
        <ele>1935.9</ele>
        <time>2026-05-14T10:56:09.000Z</time>
      </trkpt>
      <trkpt lat="44.17362" lon="5.27839">
        <ele>1936</ele>
        <time>2026-05-14T10:56:10.000Z</time>
      </trkpt>
      <trkpt lat="44.17362" lon="5.27839">
        <ele>1936.1</ele>
        <time>2026-05-14T10:56:11.000Z</time>
      </trkpt>
      <trkpt lat="44.17362" lon="5.27839">
        <ele>1935.9</ele>
        <time>2026-05-14T10:56:12.000Z</time>
      </trkpt>
      <trkpt lat="44.17362" lon="5.27839">
        <ele>1935.6</ele>
        <time>2026-05-14T10:56:13.000Z</time>
      </trkpt>
      <trkpt lat="44.17362" lon="5.27839">
        <ele>1935.5</ele>
        <time>2026-05-14T10:56:14.000Z</time>
      </trkpt>
      <trkpt lat="44.17362" lon="5.27839">
        <ele>1935.4</ele>
        <time>2026-05-14T10:56:15.000Z</time>
      </trkpt>
      <trkpt lat="44.17362" lon="5.27839">
        <ele>1935.5</ele>
        <time>2026-05-14T10:56:16.000Z</time>
      </trkpt>
      <trkpt lat="44.17362" lon="5.27839">
        <ele>1935.6</ele>
        <time>2026-05-14T10:56:17.000Z</time>
      </trkpt>
      <trkpt lat="44.17362" lon="5.27839">
        <ele>1935.8</ele>
        <time>2026-05-14T10:56:18.000Z</time>
      </trkpt>
      <trkpt lat="44.17362" lon="5.2784">
        <ele>1935.9</ele>
        <time>2026-05-14T10:56:19.000Z</time>
      </trkpt>
      <trkpt lat="44.17362" lon="5.2784">
        <ele>1936.2</ele>
        <time>2026-05-14T10:56:20.000Z</time>
      </trkpt>
      <trkpt lat="44.17361" lon="5.2784">
        <ele>1936.3</ele>
        <time>2026-05-14T10:56:21.000Z</time>
      </trkpt>
      <trkpt lat="44.17361" lon="5.2784">
        <ele>1935.9</ele>
        <time>2026-05-14T10:56:22.000Z</time>
      </trkpt>
      <trkpt lat="44.17361" lon="5.2784">
        <ele>1936</ele>
        <time>2026-05-14T10:56:23.000Z</time>
      </trkpt>
      <trkpt lat="44.17362" lon="5.2784">
        <ele>1936.3</ele>
        <time>2026-05-14T10:56:24.000Z</time>
      </trkpt>
      <trkpt lat="44.17362" lon="5.2784">
        <ele>1936.4</ele>
        <time>2026-05-14T10:56:25.000Z</time>
      </trkpt>
      <trkpt lat="44.17362" lon="5.2784">
        <ele>1936.2</ele>
        <time>2026-05-14T10:56:26.000Z</time>
      </trkpt>
      <trkpt lat="44.17362" lon="5.2784">
        <ele>1936.3</ele>
        <time>2026-05-14T10:56:27.000Z</time>
      </trkpt>
      <trkpt lat="44.17362" lon="5.2784">
        <ele>1936.4</ele>
        <time>2026-05-14T10:56:28.000Z</time>
      </trkpt>
      <trkpt lat="44.17362" lon="5.27841">
        <ele>1936.3</ele>
        <time>2026-05-14T10:56:29.000Z</time>
      </trkpt>
      <trkpt lat="44.17362" lon="5.27841">
        <ele>1935.9</ele>
        <time>2026-05-14T10:56:30.000Z</time>
      </trkpt>
      <trkpt lat="44.17362" lon="5.27841">
        <ele>1936.2</ele>
        <time>2026-05-14T10:56:31.000Z</time>
      </trkpt>
      <trkpt lat="44.17362" lon="5.27841">
        <ele>1936.1</ele>
        <time>2026-05-14T10:56:32.000Z</time>
      </trkpt>
      <trkpt lat="44.17362" lon="5.27841">
        <ele>1936.1</ele>
        <time>2026-05-14T10:56:33.000Z</time>
      </trkpt>
      <trkpt lat="44.17361" lon="5.27841">
        <ele>1936.1</ele>
        <time>2026-05-14T10:56:34.000Z</time>
      </trkpt>
      <trkpt lat="44.17361" lon="5.27841">
        <ele>1936.4</ele>
        <time>2026-05-14T10:56:35.000Z</time>
      </trkpt>
      <trkpt lat="44.17361" lon="5.27841">
        <ele>1936.4</ele>
        <time>2026-05-14T10:56:36.000Z</time>
      </trkpt>
      <trkpt lat="44.17361" lon="5.27841">
        <ele>1936.6</ele>
        <time>2026-05-14T10:56:37.000Z</time>
      </trkpt>
      <trkpt lat="44.17361" lon="5.27841">
        <ele>1936.8</ele>
        <time>2026-05-14T10:56:38.000Z</time>
      </trkpt>
      <trkpt lat="44.17361" lon="5.27841">
        <ele>1937.1</ele>
        <time>2026-05-14T10:56:39.000Z</time>
      </trkpt>
      <trkpt lat="44.17361" lon="5.27841">
        <ele>1937.4</ele>
        <time>2026-05-14T10:56:40.000Z</time>
      </trkpt>
      <trkpt lat="44.17361" lon="5.27841">
        <ele>1937.2</ele>
        <time>2026-05-14T10:56:41.000Z</time>
      </trkpt>
      <trkpt lat="44.17361" lon="5.27841">
        <ele>1937.2</ele>
        <time>2026-05-14T10:56:42.000Z</time>
      </trkpt>
      <trkpt lat="44.17361" lon="5.27841">
        <ele>1937.3</ele>
        <time>2026-05-14T10:56:43.000Z</time>
      </trkpt>
      <trkpt lat="44.17361" lon="5.27841">
        <ele>1937.4</ele>
        <time>2026-05-14T10:56:44.000Z</time>
      </trkpt>
      <trkpt lat="44.17361" lon="5.27841">
        <ele>1937.3</ele>
        <time>2026-05-14T10:56:45.000Z</time>
      </trkpt>
      <trkpt lat="44.17361" lon="5.27841">
        <ele>1937.2</ele>
        <time>2026-05-14T10:56:46.000Z</time>
      </trkpt>
      <trkpt lat="44.17361" lon="5.27842">
        <ele>1937</ele>
        <time>2026-05-14T10:56:47.000Z</time>
      </trkpt>
      <trkpt lat="44.17361" lon="5.27842">
        <ele>1937</ele>
        <time>2026-05-14T10:56:48.000Z</time>
      </trkpt>
      <trkpt lat="44.17361" lon="5.27841">
        <ele>1937.2</ele>
        <time>2026-05-14T10:56:49.000Z</time>
      </trkpt>
      <trkpt lat="44.17361" lon="5.27841">
        <ele>1937.3</ele>
        <time>2026-05-14T10:56:50.000Z</time>
      </trkpt>
      <trkpt lat="44.17361" lon="5.27841">
        <ele>1937.5</ele>
        <time>2026-05-14T10:56:51.000Z</time>
      </trkpt>
      <trkpt lat="44.17361" lon="5.27841">
        <ele>1937.5</ele>
        <time>2026-05-14T10:56:52.000Z</time>
      </trkpt>
      <trkpt lat="44.17361" lon="5.27841">
        <ele>1937.4</ele>
        <time>2026-05-14T10:56:53.000Z</time>
      </trkpt>
      <trkpt lat="44.17361" lon="5.27841">
        <ele>1937.3</ele>
        <time>2026-05-14T10:56:54.000Z</time>
      </trkpt>
      <trkpt lat="44.17361" lon="5.27841">
        <ele>1937.7</ele>
        <time>2026-05-14T10:56:55.000Z</time>
      </trkpt>
      <trkpt lat="44.17361" lon="5.27841">
        <ele>1938</ele>
        <time>2026-05-14T10:56:56.000Z</time>
      </trkpt>
      <trkpt lat="44.17361" lon="5.27842">
        <ele>1938.2</ele>
        <time>2026-05-14T10:56:57.000Z</time>
      </trkpt>
      <trkpt lat="44.1736" lon="5.27844">
        <ele>1938.2</ele>
        <time>2026-05-14T10:56:58.000Z</time>
      </trkpt>
      <trkpt lat="44.1736" lon="5.27845">
        <ele>1938.1</ele>
        <time>2026-05-14T10:56:59.000Z</time>
      </trkpt>
      <trkpt lat="44.1736" lon="5.27847">
        <ele>1937.9</ele>
        <time>2026-05-14T10:57:00.000Z</time>
      </trkpt>
      <trkpt lat="44.1736" lon="5.27849">
        <ele>1938</ele>
        <time>2026-05-14T10:57:01.000Z</time>
      </trkpt>
      <trkpt lat="44.1736" lon="5.2785">
        <ele>1938</ele>
        <time>2026-05-14T10:57:02.000Z</time>
      </trkpt>
      <trkpt lat="44.1736" lon="5.27851">
        <ele>1938</ele>
        <time>2026-05-14T10:57:03.000Z</time>
      </trkpt>
      <trkpt lat="44.1736" lon="5.27852">
        <ele>1937.7</ele>
        <time>2026-05-14T10:57:05.000Z</time>
      </trkpt>
      <trkpt lat="44.1736" lon="5.27852">
        <ele>1937.3</ele>
        <time>2026-05-14T10:57:06.000Z</time>
      </trkpt>
      <trkpt lat="44.1736" lon="5.27852">
        <ele>1936.8</ele>
        <time>2026-05-14T10:57:07.000Z</time>
      </trkpt>
      <trkpt lat="44.1736" lon="5.27853">
        <ele>1936.3</ele>
        <time>2026-05-14T10:57:08.000Z</time>
      </trkpt>
      <trkpt lat="44.1736" lon="5.27855">
        <ele>1936.3</ele>
        <time>2026-05-14T10:57:09.000Z</time>
      </trkpt>
      <trkpt lat="44.17359" lon="5.27858">
        <ele>1935.8</ele>
        <time>2026-05-14T10:57:10.000Z</time>
      </trkpt>
      <trkpt lat="44.17359" lon="5.27859">
        <ele>1935.6</ele>
        <time>2026-05-14T10:57:11.000Z</time>
      </trkpt>
      <trkpt lat="44.17358" lon="5.2786">
        <ele>1935.5</ele>
        <time>2026-05-14T10:57:12.000Z</time>
      </trkpt>
      <trkpt lat="44.17358" lon="5.27861">
        <ele>1935.4</ele>
        <time>2026-05-14T10:57:13.000Z</time>
      </trkpt>
      <trkpt lat="44.17358" lon="5.27861">
        <ele>1935</ele>
        <time>2026-05-14T10:57:14.000Z</time>
      </trkpt>
      <trkpt lat="44.17358" lon="5.27862">
        <ele>1934.9</ele>
        <time>2026-05-14T10:57:15.000Z</time>
      </trkpt>
      <trkpt lat="44.17358" lon="5.27863">
        <ele>1935.1</ele>
        <time>2026-05-14T10:57:16.000Z</time>
      </trkpt>
      <trkpt lat="44.17358" lon="5.27865">
        <ele>1935.3</ele>
        <time>2026-05-14T10:57:17.000Z</time>
      </trkpt>
      <trkpt lat="44.17358" lon="5.27866">
        <ele>1935.3</ele>
        <time>2026-05-14T10:57:18.000Z</time>
      </trkpt>
      <trkpt lat="44.17358" lon="5.27867">
        <ele>1935.2</ele>
        <time>2026-05-14T10:57:19.000Z</time>
      </trkpt>
      <trkpt lat="44.17358" lon="5.27868">
        <ele>1934.6</ele>
        <time>2026-05-14T10:57:20.000Z</time>
      </trkpt>
      <trkpt lat="44.17359" lon="5.27869">
        <ele>1934.2</ele>
        <time>2026-05-14T10:57:21.000Z</time>
      </trkpt>
      <trkpt lat="44.17359" lon="5.2787">
        <ele>1934</ele>
        <time>2026-05-14T10:57:22.000Z</time>
      </trkpt>
      <trkpt lat="44.17359" lon="5.27871">
        <ele>1933.9</ele>
        <time>2026-05-14T10:57:23.000Z</time>
      </trkpt>
      <trkpt lat="44.17359" lon="5.27872">
        <ele>1934.1</ele>
        <time>2026-05-14T10:57:24.000Z</time>
      </trkpt>
      <trkpt lat="44.17359" lon="5.27872">
        <ele>1934.1</ele>
        <time>2026-05-14T10:57:25.000Z</time>
      </trkpt>
      <trkpt lat="44.17359" lon="5.27873">
        <ele>1934.1</ele>
        <time>2026-05-14T10:57:26.000Z</time>
      </trkpt>
      <trkpt lat="44.17359" lon="5.27873">
        <ele>1934.4</ele>
        <time>2026-05-14T10:57:27.000Z</time>
      </trkpt>
      <trkpt lat="44.17359" lon="5.27873">
        <ele>1934.4</ele>
        <time>2026-05-14T10:57:28.000Z</time>
      </trkpt>
      <trkpt lat="44.17359" lon="5.27873">
        <ele>1934.5</ele>
        <time>2026-05-14T10:57:29.000Z</time>
      </trkpt>
      <trkpt lat="44.17359" lon="5.27873">
        <ele>1934.9</ele>
        <time>2026-05-14T10:57:30.000Z</time>
      </trkpt>
      <trkpt lat="44.17359" lon="5.27873">
        <ele>1935.5</ele>
        <time>2026-05-14T10:57:31.000Z</time>
      </trkpt>
      <trkpt lat="44.17359" lon="5.27873">
        <ele>1936.3</ele>
        <time>2026-05-14T10:57:32.000Z</time>
      </trkpt>
      <trkpt lat="44.17359" lon="5.27873">
        <ele>1936.7</ele>
        <time>2026-05-14T10:57:33.000Z</time>
      </trkpt>
      <trkpt lat="44.17359" lon="5.27875">
        <ele>1936.9</ele>
        <time>2026-05-14T10:57:34.000Z</time>
      </trkpt>
      <trkpt lat="44.17359" lon="5.27876">
        <ele>1937</ele>
        <time>2026-05-14T10:57:35.000Z</time>
      </trkpt>
      <trkpt lat="44.17359" lon="5.27877">
        <ele>1937</ele>
        <time>2026-05-14T10:57:36.000Z</time>
      </trkpt>
      <trkpt lat="44.17359" lon="5.27879">
        <ele>1937.1</ele>
        <time>2026-05-14T10:57:37.000Z</time>
      </trkpt>
      <trkpt lat="44.1736" lon="5.2788">
        <ele>1937.2</ele>
        <time>2026-05-14T10:57:38.000Z</time>
      </trkpt>
      <trkpt lat="44.1736" lon="5.27881">
        <ele>1937.5</ele>
        <time>2026-05-14T10:57:39.000Z</time>
      </trkpt>
      <trkpt lat="44.1736" lon="5.27882">
        <ele>1937.5</ele>
        <time>2026-05-14T10:57:40.000Z</time>
      </trkpt>
      <trkpt lat="44.1736" lon="5.27883">
        <ele>1937.5</ele>
        <time>2026-05-14T10:57:41.000Z</time>
      </trkpt>
      <trkpt lat="44.1736" lon="5.27884">
        <ele>1937.6</ele>
        <time>2026-05-14T10:57:42.000Z</time>
      </trkpt>
      <trkpt lat="44.1736" lon="5.27885">
        <ele>1937.3</ele>
        <time>2026-05-14T10:57:43.000Z</time>
      </trkpt>
      <trkpt lat="44.1736" lon="5.27885">
        <ele>1937.7</ele>
        <time>2026-05-14T10:57:44.000Z</time>
      </trkpt>
      <trkpt lat="44.17361" lon="5.27886">
        <ele>1937.9</ele>
        <time>2026-05-14T10:57:45.000Z</time>
      </trkpt>
      <trkpt lat="44.17361" lon="5.27887">
        <ele>1938</ele>
        <time>2026-05-14T10:57:46.000Z</time>
      </trkpt>
      <trkpt lat="44.17361" lon="5.27888">
        <ele>1937.8</ele>
        <time>2026-05-14T10:57:47.000Z</time>
      </trkpt>
      <trkpt lat="44.17361" lon="5.2789">
        <ele>1938.1</ele>
        <time>2026-05-14T10:57:48.000Z</time>
      </trkpt>
      <trkpt lat="44.17361" lon="5.27891">
        <ele>1938.6</ele>
        <time>2026-05-14T10:57:49.000Z</time>
      </trkpt>
      <trkpt lat="44.17362" lon="5.27893">
        <ele>1939.1</ele>
        <time>2026-05-14T10:57:50.000Z</time>
      </trkpt>
      <trkpt lat="44.17362" lon="5.27894">
        <ele>1939</ele>
        <time>2026-05-14T10:57:51.000Z</time>
      </trkpt>
      <trkpt lat="44.17363" lon="5.27895">
        <ele>1939</ele>
        <time>2026-05-14T10:57:52.000Z</time>
      </trkpt>
      <trkpt lat="44.17363" lon="5.27895">
        <ele>1939.2</ele>
        <time>2026-05-14T10:57:53.000Z</time>
      </trkpt>
      <trkpt lat="44.17363" lon="5.27897">
        <ele>1938.3</ele>
        <time>2026-05-14T10:57:54.000Z</time>
      </trkpt>
      <trkpt lat="44.17364" lon="5.27897">
        <ele>1937.6</ele>
        <time>2026-05-14T10:57:55.000Z</time>
      </trkpt>
      <trkpt lat="44.17364" lon="5.27898">
        <ele>1937.5</ele>
        <time>2026-05-14T10:57:56.000Z</time>
      </trkpt>
      <trkpt lat="44.17365" lon="5.27899">
        <ele>1937.6</ele>
        <time>2026-05-14T10:57:57.000Z</time>
      </trkpt>
      <trkpt lat="44.17366" lon="5.279">
        <ele>1937.8</ele>
        <time>2026-05-14T10:57:58.000Z</time>
      </trkpt>
      <trkpt lat="44.17367" lon="5.27901">
        <ele>1937.6</ele>
        <time>2026-05-14T10:57:59.000Z</time>
      </trkpt>
      <trkpt lat="44.17368" lon="5.27902">
        <ele>1936.9</ele>
        <time>2026-05-14T10:58:00.000Z</time>
      </trkpt>
      <trkpt lat="44.17368" lon="5.27902">
        <ele>1936.6</ele>
        <time>2026-05-14T10:58:01.000Z</time>
      </trkpt>
      <trkpt lat="44.17369" lon="5.27903">
        <ele>1936.4</ele>
        <time>2026-05-14T10:58:02.000Z</time>
      </trkpt>
      <trkpt lat="44.1737" lon="5.27904">
        <ele>1936.1</ele>
        <time>2026-05-14T10:58:03.000Z</time>
      </trkpt>
      <trkpt lat="44.17371" lon="5.27904">
        <ele>1935.5</ele>
        <time>2026-05-14T10:58:04.000Z</time>
      </trkpt>
      <trkpt lat="44.17372" lon="5.27904">
        <ele>1934.8</ele>
        <time>2026-05-14T10:58:05.000Z</time>
      </trkpt>
      <trkpt lat="44.17372" lon="5.27904">
        <ele>1934.3</ele>
        <time>2026-05-14T10:58:06.000Z</time>
      </trkpt>
      <trkpt lat="44.17373" lon="5.27904">
        <ele>1933.9</ele>
        <time>2026-05-14T10:58:07.000Z</time>
      </trkpt>
      <trkpt lat="44.17374" lon="5.27905">
        <ele>1933.5</ele>
        <time>2026-05-14T10:58:08.000Z</time>
      </trkpt>
      <trkpt lat="44.17375" lon="5.27906">
        <ele>1933</ele>
        <time>2026-05-14T10:58:09.000Z</time>
      </trkpt>
      <trkpt lat="44.17376" lon="5.27906">
        <ele>1932.5</ele>
        <time>2026-05-14T10:58:10.000Z</time>
      </trkpt>
      <trkpt lat="44.17376" lon="5.27906">
        <ele>1932.1</ele>
        <time>2026-05-14T10:58:11.000Z</time>
      </trkpt>
      <trkpt lat="44.17377" lon="5.27906">
        <ele>1931.5</ele>
        <time>2026-05-14T10:58:12.000Z</time>
      </trkpt>
      <trkpt lat="44.17377" lon="5.27907">
        <ele>1930.9</ele>
        <time>2026-05-14T10:58:13.000Z</time>
      </trkpt>
      <trkpt lat="44.17378" lon="5.27908">
        <ele>1930.3</ele>
        <time>2026-05-14T10:58:14.000Z</time>
      </trkpt>
      <trkpt lat="44.17379" lon="5.27908">
        <ele>1929.8</ele>
        <time>2026-05-14T10:58:15.000Z</time>
      </trkpt>
      <trkpt lat="44.1738" lon="5.27909">
        <ele>1929.4</ele>
        <time>2026-05-14T10:58:16.000Z</time>
      </trkpt>
      <trkpt lat="44.17381" lon="5.2791">
        <ele>1929.1</ele>
        <time>2026-05-14T10:58:17.000Z</time>
      </trkpt>
      <trkpt lat="44.17382" lon="5.2791">
        <ele>1928.5</ele>
        <time>2026-05-14T10:58:18.000Z</time>
      </trkpt>
      <trkpt lat="44.17383" lon="5.2791">
        <ele>1928</ele>
        <time>2026-05-14T10:58:19.000Z</time>
      </trkpt>
      <trkpt lat="44.17384" lon="5.27911">
        <ele>1927.6</ele>
        <time>2026-05-14T10:58:20.000Z</time>
      </trkpt>
      <trkpt lat="44.17385" lon="5.27912">
        <ele>1927.3</ele>
        <time>2026-05-14T10:58:21.000Z</time>
      </trkpt>
      <trkpt lat="44.17385" lon="5.27912">
        <ele>1927.2</ele>
        <time>2026-05-14T10:58:22.000Z</time>
      </trkpt>
      <trkpt lat="44.17386" lon="5.27913">
        <ele>1927.1</ele>
        <time>2026-05-14T10:58:23.000Z</time>
      </trkpt>
      <trkpt lat="44.17386" lon="5.27914">
        <ele>1926.9</ele>
        <time>2026-05-14T10:58:24.000Z</time>
      </trkpt>
      <trkpt lat="44.17387" lon="5.27915">
        <ele>1926.6</ele>
        <time>2026-05-14T10:58:25.000Z</time>
      </trkpt>
      <trkpt lat="44.17388" lon="5.27915">
        <ele>1926.1</ele>
        <time>2026-05-14T10:58:26.000Z</time>
      </trkpt>
      <trkpt lat="44.17389" lon="5.27916">
        <ele>1925.8</ele>
        <time>2026-05-14T10:58:27.000Z</time>
      </trkpt>
      <trkpt lat="44.17389" lon="5.27917">
        <ele>1925.3</ele>
        <time>2026-05-14T10:58:28.000Z</time>
      </trkpt>
      <trkpt lat="44.1739" lon="5.27918">
        <ele>1925.2</ele>
        <time>2026-05-14T10:58:29.000Z</time>
      </trkpt>
      <trkpt lat="44.17391" lon="5.27918">
        <ele>1925.2</ele>
        <time>2026-05-14T10:58:30.000Z</time>
      </trkpt>
      <trkpt lat="44.17391" lon="5.27919">
        <ele>1924.9</ele>
        <time>2026-05-14T10:58:31.000Z</time>
      </trkpt>
      <trkpt lat="44.17392" lon="5.2792">
        <ele>1924.4</ele>
        <time>2026-05-14T10:58:32.000Z</time>
      </trkpt>
      <trkpt lat="44.17393" lon="5.2792">
        <ele>1924</ele>
        <time>2026-05-14T10:58:33.000Z</time>
      </trkpt>
      <trkpt lat="44.17394" lon="5.27921">
        <ele>1923.9</ele>
        <time>2026-05-14T10:58:34.000Z</time>
      </trkpt>
      <trkpt lat="44.17395" lon="5.27921">
        <ele>1923.9</ele>
        <time>2026-05-14T10:58:35.000Z</time>
      </trkpt>
      <trkpt lat="44.17396" lon="5.27922">
        <ele>1923.9</ele>
        <time>2026-05-14T10:58:36.000Z</time>
      </trkpt>
      <trkpt lat="44.17397" lon="5.27923">
        <ele>1923.4</ele>
        <time>2026-05-14T10:58:37.000Z</time>
      </trkpt>
      <trkpt lat="44.17398" lon="5.27924">
        <ele>1923.1</ele>
        <time>2026-05-14T10:58:38.000Z</time>
      </trkpt>
      <trkpt lat="44.17398" lon="5.27925">
        <ele>1922.6</ele>
        <time>2026-05-14T10:58:39.000Z</time>
      </trkpt>
      <trkpt lat="44.17399" lon="5.27926">
        <ele>1922.4</ele>
        <time>2026-05-14T10:58:40.000Z</time>
      </trkpt>
      <trkpt lat="44.17399" lon="5.27927">
        <ele>1922.1</ele>
        <time>2026-05-14T10:58:41.000Z</time>
      </trkpt>
      <trkpt lat="44.174" lon="5.27928">
        <ele>1921.5</ele>
        <time>2026-05-14T10:58:42.000Z</time>
      </trkpt>
      <trkpt lat="44.174" lon="5.27929">
        <ele>1921.1</ele>
        <time>2026-05-14T10:58:43.000Z</time>
      </trkpt>
      <trkpt lat="44.17401" lon="5.27929">
        <ele>1920.6</ele>
        <time>2026-05-14T10:58:44.000Z</time>
      </trkpt>
      <trkpt lat="44.17402" lon="5.27929">
        <ele>1920.3</ele>
        <time>2026-05-14T10:58:45.000Z</time>
      </trkpt>
      <trkpt lat="44.17402" lon="5.2793">
        <ele>1920.1</ele>
        <time>2026-05-14T10:58:46.000Z</time>
      </trkpt>
      <trkpt lat="44.17403" lon="5.2793">
        <ele>1920.2</ele>
        <time>2026-05-14T10:58:47.000Z</time>
      </trkpt>
      <trkpt lat="44.17404" lon="5.27931">
        <ele>1920.3</ele>
        <time>2026-05-14T10:58:48.000Z</time>
      </trkpt>
      <trkpt lat="44.17405" lon="5.27931">
        <ele>1920.2</ele>
        <time>2026-05-14T10:58:49.000Z</time>
      </trkpt>
      <trkpt lat="44.17405" lon="5.27932">
        <ele>1919.9</ele>
        <time>2026-05-14T10:58:50.000Z</time>
      </trkpt>
      <trkpt lat="44.17406" lon="5.27932">
        <ele>1919.3</ele>
        <time>2026-05-14T10:58:51.000Z</time>
      </trkpt>
      <trkpt lat="44.17407" lon="5.27933">
        <ele>1918.6</ele>
        <time>2026-05-14T10:58:52.000Z</time>
      </trkpt>
      <trkpt lat="44.17408" lon="5.27934">
        <ele>1918.1</ele>
        <time>2026-05-14T10:58:53.000Z</time>
      </trkpt>
      <trkpt lat="44.17409" lon="5.27935">
        <ele>1917.5</ele>
        <time>2026-05-14T10:58:54.000Z</time>
      </trkpt>
      <trkpt lat="44.1741" lon="5.27936">
        <ele>1917.1</ele>
        <time>2026-05-14T10:58:55.000Z</time>
      </trkpt>
      <trkpt lat="44.1741" lon="5.27938">
        <ele>1916.4</ele>
        <time>2026-05-14T10:58:56.000Z</time>
      </trkpt>
      <trkpt lat="44.17411" lon="5.27939">
        <ele>1916</ele>
        <time>2026-05-14T10:58:57.000Z</time>
      </trkpt>
      <trkpt lat="44.17411" lon="5.27939">
        <ele>1915.8</ele>
        <time>2026-05-14T10:58:58.000Z</time>
      </trkpt>
      <trkpt lat="44.17411" lon="5.2794">
        <ele>1915.5</ele>
        <time>2026-05-14T10:58:59.000Z</time>
      </trkpt>
      <trkpt lat="44.17413" lon="5.2794">
        <ele>1915.3</ele>
        <time>2026-05-14T10:59:00.000Z</time>
      </trkpt>
      <trkpt lat="44.17414" lon="5.27941">
        <ele>1914.9</ele>
        <time>2026-05-14T10:59:01.000Z</time>
      </trkpt>
      <trkpt lat="44.17415" lon="5.27941">
        <ele>1914.7</ele>
        <time>2026-05-14T10:59:02.000Z</time>
      </trkpt>
      <trkpt lat="44.17416" lon="5.27941">
        <ele>1914.3</ele>
        <time>2026-05-14T10:59:03.000Z</time>
      </trkpt>
      <trkpt lat="44.17416" lon="5.27941">
        <ele>1913.8</ele>
        <time>2026-05-14T10:59:04.000Z</time>
      </trkpt>
      <trkpt lat="44.17417" lon="5.27941">
        <ele>1913.7</ele>
        <time>2026-05-14T10:59:05.000Z</time>
      </trkpt>
      <trkpt lat="44.17418" lon="5.27942">
        <ele>1913.5</ele>
        <time>2026-05-14T10:59:06.000Z</time>
      </trkpt>
      <trkpt lat="44.17419" lon="5.27943">
        <ele>1913.2</ele>
        <time>2026-05-14T10:59:07.000Z</time>
      </trkpt>
      <trkpt lat="44.17421" lon="5.27944">
        <ele>1912.7</ele>
        <time>2026-05-14T10:59:08.000Z</time>
      </trkpt>
      <trkpt lat="44.17421" lon="5.27945">
        <ele>1912.4</ele>
        <time>2026-05-14T10:59:09.000Z</time>
      </trkpt>
      <trkpt lat="44.17421" lon="5.27946">
        <ele>1912.3</ele>
        <time>2026-05-14T10:59:10.000Z</time>
      </trkpt>
      <trkpt lat="44.17422" lon="5.27946">
        <ele>1912.4</ele>
        <time>2026-05-14T10:59:11.000Z</time>
      </trkpt>
      <trkpt lat="44.17423" lon="5.27947">
        <ele>1912.4</ele>
        <time>2026-05-14T10:59:12.000Z</time>
      </trkpt>
      <trkpt lat="44.17424" lon="5.27948">
        <ele>1912</ele>
        <time>2026-05-14T10:59:13.000Z</time>
      </trkpt>
      <trkpt lat="44.17426" lon="5.27948">
        <ele>1911.9</ele>
        <time>2026-05-14T10:59:14.000Z</time>
      </trkpt>
      <trkpt lat="44.17427" lon="5.27948">
        <ele>1911.4</ele>
        <time>2026-05-14T10:59:15.000Z</time>
      </trkpt>
      <trkpt lat="44.17428" lon="5.27948">
        <ele>1911.2</ele>
        <time>2026-05-14T10:59:16.000Z</time>
      </trkpt>
      <trkpt lat="44.17428" lon="5.27948">
        <ele>1910.9</ele>
        <time>2026-05-14T10:59:17.000Z</time>
      </trkpt>
      <trkpt lat="44.17429" lon="5.27949">
        <ele>1910.8</ele>
        <time>2026-05-14T10:59:18.000Z</time>
      </trkpt>
      <trkpt lat="44.1743" lon="5.2795">
        <ele>1910.3</ele>
        <time>2026-05-14T10:59:19.000Z</time>
      </trkpt>
      <trkpt lat="44.1743" lon="5.27951">
        <ele>1910</ele>
        <time>2026-05-14T10:59:20.000Z</time>
      </trkpt>
      <trkpt lat="44.17431" lon="5.27951">
        <ele>1910</ele>
        <time>2026-05-14T10:59:21.000Z</time>
      </trkpt>
      <trkpt lat="44.17432" lon="5.27952">
        <ele>1910.1</ele>
        <time>2026-05-14T10:59:22.000Z</time>
      </trkpt>
      <trkpt lat="44.17432" lon="5.27952">
        <ele>1910.1</ele>
        <time>2026-05-14T10:59:23.000Z</time>
      </trkpt>
      <trkpt lat="44.17433" lon="5.27953">
        <ele>1910</ele>
        <time>2026-05-14T10:59:24.000Z</time>
      </trkpt>
      <trkpt lat="44.17434" lon="5.27954">
        <ele>1909.7</ele>
        <time>2026-05-14T10:59:25.000Z</time>
      </trkpt>
      <trkpt lat="44.17435" lon="5.27954">
        <ele>1909.5</ele>
        <time>2026-05-14T10:59:26.000Z</time>
      </trkpt>
      <trkpt lat="44.17435" lon="5.27955">
        <ele>1909.5</ele>
        <time>2026-05-14T10:59:27.000Z</time>
      </trkpt>
      <trkpt lat="44.17436" lon="5.27955">
        <ele>1909.5</ele>
        <time>2026-05-14T10:59:28.000Z</time>
      </trkpt>
      <trkpt lat="44.17438" lon="5.27956">
        <ele>1909.5</ele>
        <time>2026-05-14T10:59:29.000Z</time>
      </trkpt>
      <trkpt lat="44.17439" lon="5.27957">
        <ele>1909.5</ele>
        <time>2026-05-14T10:59:30.000Z</time>
      </trkpt>
      <trkpt lat="44.1744" lon="5.27958">
        <ele>1909.6</ele>
        <time>2026-05-14T10:59:31.000Z</time>
      </trkpt>
      <trkpt lat="44.17442" lon="5.27959">
        <ele>1909.5</ele>
        <time>2026-05-14T10:59:32.000Z</time>
      </trkpt>
      <trkpt lat="44.17442" lon="5.27959">
        <ele>1909.3</ele>
        <time>2026-05-14T10:59:33.000Z</time>
      </trkpt>
      <trkpt lat="44.17443" lon="5.2796">
        <ele>1908.9</ele>
        <time>2026-05-14T10:59:34.000Z</time>
      </trkpt>
      <trkpt lat="44.17443" lon="5.27961">
        <ele>1908.5</ele>
        <time>2026-05-14T10:59:35.000Z</time>
      </trkpt>
      <trkpt lat="44.17444" lon="5.27961">
        <ele>1908.3</ele>
        <time>2026-05-14T10:59:36.000Z</time>
      </trkpt>
      <trkpt lat="44.17445" lon="5.27962">
        <ele>1908.1</ele>
        <time>2026-05-14T10:59:37.000Z</time>
      </trkpt>
      <trkpt lat="44.17447" lon="5.27962">
        <ele>1907.9</ele>
        <time>2026-05-14T10:59:38.000Z</time>
      </trkpt>
      <trkpt lat="44.17448" lon="5.27963">
        <ele>1907.7</ele>
        <time>2026-05-14T10:59:39.000Z</time>
      </trkpt>
      <trkpt lat="44.17449" lon="5.27964">
        <ele>1907.4</ele>
        <time>2026-05-14T10:59:40.000Z</time>
      </trkpt>
      <trkpt lat="44.17449" lon="5.27965">
        <ele>1907.3</ele>
        <time>2026-05-14T10:59:41.000Z</time>
      </trkpt>
      <trkpt lat="44.17449" lon="5.27966">
        <ele>1907.2</ele>
        <time>2026-05-14T10:59:42.000Z</time>
      </trkpt>
      <trkpt lat="44.1745" lon="5.27966">
        <ele>1906.8</ele>
        <time>2026-05-14T10:59:43.000Z</time>
      </trkpt>
      <trkpt lat="44.1745" lon="5.27967">
        <ele>1906</ele>
        <time>2026-05-14T10:59:44.000Z</time>
      </trkpt>
      <trkpt lat="44.1745" lon="5.27969">
        <ele>1906</ele>
        <time>2026-05-14T10:59:45.000Z</time>
      </trkpt>
      <trkpt lat="44.17451" lon="5.27971">
        <ele>1906</ele>
        <time>2026-05-14T10:59:46.000Z</time>
      </trkpt>
      <trkpt lat="44.17451" lon="5.27971">
        <ele>1905.6</ele>
        <time>2026-05-14T10:59:47.000Z</time>
      </trkpt>
      <trkpt lat="44.17452" lon="5.27972">
        <ele>1905</ele>
        <time>2026-05-14T10:59:48.000Z</time>
      </trkpt>
      <trkpt lat="44.17453" lon="5.27974">
        <ele>1904.3</ele>
        <time>2026-05-14T10:59:49.000Z</time>
      </trkpt>
      <trkpt lat="44.17454" lon="5.27974">
        <ele>1903.9</ele>
        <time>2026-05-14T10:59:50.000Z</time>
      </trkpt>
      <trkpt lat="44.17455" lon="5.27974">
        <ele>1903.8</ele>
        <time>2026-05-14T10:59:51.000Z</time>
      </trkpt>
      <trkpt lat="44.17456" lon="5.27975">
        <ele>1903.6</ele>
        <time>2026-05-14T10:59:52.000Z</time>
      </trkpt>
      <trkpt lat="44.17456" lon="5.27976">
        <ele>1903.2</ele>
        <time>2026-05-14T10:59:53.000Z</time>
      </trkpt>
      <trkpt lat="44.17456" lon="5.27978">
        <ele>1902.4</ele>
        <time>2026-05-14T10:59:54.000Z</time>
      </trkpt>
      <trkpt lat="44.17457" lon="5.2798">
        <ele>1902.2</ele>
        <time>2026-05-14T10:59:55.000Z</time>
      </trkpt>
      <trkpt lat="44.17457" lon="5.27982">
        <ele>1901.9</ele>
        <time>2026-05-14T10:59:56.000Z</time>
      </trkpt>
      <trkpt lat="44.17458" lon="5.27984">
        <ele>1901.7</ele>
        <time>2026-05-14T10:59:57.000Z</time>
      </trkpt>
      <trkpt lat="44.17458" lon="5.27986">
        <ele>1902</ele>
        <time>2026-05-14T10:59:58.000Z</time>
      </trkpt>
      <trkpt lat="44.17459" lon="5.27987">
        <ele>1902.7</ele>
        <time>2026-05-14T10:59:59.000Z</time>
      </trkpt>
      <trkpt lat="44.1746" lon="5.27988">
        <ele>1902.5</ele>
        <time>2026-05-14T11:00:00.000Z</time>
      </trkpt>
      <trkpt lat="44.17461" lon="5.2799">
        <ele>1902.5</ele>
        <time>2026-05-14T11:00:01.000Z</time>
      </trkpt>
      <trkpt lat="44.17461" lon="5.27992">
        <ele>1902.4</ele>
        <time>2026-05-14T11:00:02.000Z</time>
      </trkpt>
      <trkpt lat="44.17461" lon="5.27994">
        <ele>1902.2</ele>
        <time>2026-05-14T11:00:03.000Z</time>
      </trkpt>
      <trkpt lat="44.17462" lon="5.27995">
        <ele>1902.2</ele>
        <time>2026-05-14T11:00:04.000Z</time>
      </trkpt>
      <trkpt lat="44.17462" lon="5.27996">
        <ele>1902.5</ele>
        <time>2026-05-14T11:00:05.000Z</time>
      </trkpt>
      <trkpt lat="44.17462" lon="5.27996">
        <ele>1902.2</ele>
        <time>2026-05-14T11:00:06.000Z</time>
      </trkpt>
      <trkpt lat="44.17463" lon="5.27997">
        <ele>1902</ele>
        <time>2026-05-14T11:00:07.000Z</time>
      </trkpt>
      <trkpt lat="44.17463" lon="5.27998">
        <ele>1902.1</ele>
        <time>2026-05-14T11:00:08.000Z</time>
      </trkpt>
      <trkpt lat="44.17464" lon="5.27998">
        <ele>1902.3</ele>
        <time>2026-05-14T11:00:09.000Z</time>
      </trkpt>
      <trkpt lat="44.17465" lon="5.27999">
        <ele>1902.3</ele>
        <time>2026-05-14T11:00:10.000Z</time>
      </trkpt>
      <trkpt lat="44.17465" lon="5.28">
        <ele>1902.1</ele>
        <time>2026-05-14T11:00:11.000Z</time>
      </trkpt>
      <trkpt lat="44.17466" lon="5.28001">
        <ele>1901.8</ele>
        <time>2026-05-14T11:00:12.000Z</time>
      </trkpt>
      <trkpt lat="44.17466" lon="5.28002">
        <ele>1901.8</ele>
        <time>2026-05-14T11:00:13.000Z</time>
      </trkpt>
      <trkpt lat="44.17467" lon="5.28004">
        <ele>1902</ele>
        <time>2026-05-14T11:00:14.000Z</time>
      </trkpt>
      <trkpt lat="44.17468" lon="5.28006">
        <ele>1902</ele>
        <time>2026-05-14T11:00:15.000Z</time>
      </trkpt>
      <trkpt lat="44.17469" lon="5.28008">
        <ele>1902.4</ele>
        <time>2026-05-14T11:00:16.000Z</time>
      </trkpt>
      <trkpt lat="44.1747" lon="5.2801">
        <ele>1902.7</ele>
        <time>2026-05-14T11:00:17.000Z</time>
      </trkpt>
      <trkpt lat="44.1747" lon="5.28011">
        <ele>1902.4</ele>
        <time>2026-05-14T11:00:18.000Z</time>
      </trkpt>
      <trkpt lat="44.1747" lon="5.28011">
        <ele>1901.8</ele>
        <time>2026-05-14T11:00:19.000Z</time>
      </trkpt>
      <trkpt lat="44.1747" lon="5.28012">
        <ele>1901.6</ele>
        <time>2026-05-14T11:00:20.000Z</time>
      </trkpt>
      <trkpt lat="44.17471" lon="5.28013">
        <ele>1901.5</ele>
        <time>2026-05-14T11:00:21.000Z</time>
      </trkpt>
      <trkpt lat="44.17472" lon="5.28015">
        <ele>1901.9</ele>
        <time>2026-05-14T11:00:22.000Z</time>
      </trkpt>
      <trkpt lat="44.17472" lon="5.28017">
        <ele>1901.6</ele>
        <time>2026-05-14T11:00:23.000Z</time>
      </trkpt>
      <trkpt lat="44.17472" lon="5.28019">
        <ele>1901.4</ele>
        <time>2026-05-14T11:00:24.000Z</time>
      </trkpt>
      <trkpt lat="44.17473" lon="5.2802">
        <ele>1901.5</ele>
        <time>2026-05-14T11:00:25.000Z</time>
      </trkpt>
      <trkpt lat="44.17473" lon="5.28022">
        <ele>1901.5</ele>
        <time>2026-05-14T11:00:26.000Z</time>
      </trkpt>
      <trkpt lat="44.17473" lon="5.28024">
        <ele>1901.7</ele>
        <time>2026-05-14T11:00:27.000Z</time>
      </trkpt>
      <trkpt lat="44.17472" lon="5.28026">
        <ele>1902.3</ele>
        <time>2026-05-14T11:00:28.000Z</time>
      </trkpt>
      <trkpt lat="44.17471" lon="5.28028">
        <ele>1903</ele>
        <time>2026-05-14T11:00:29.000Z</time>
      </trkpt>
      <trkpt lat="44.17471" lon="5.28029">
        <ele>1903.4</ele>
        <time>2026-05-14T11:00:30.000Z</time>
      </trkpt>
      <trkpt lat="44.1747" lon="5.2803">
        <ele>1903</ele>
        <time>2026-05-14T11:00:31.000Z</time>
      </trkpt>
      <trkpt lat="44.1747" lon="5.28032">
        <ele>1903.5</ele>
        <time>2026-05-14T11:00:32.000Z</time>
      </trkpt>
      <trkpt lat="44.1747" lon="5.28034">
        <ele>1904</ele>
        <time>2026-05-14T11:00:33.000Z</time>
      </trkpt>
      <trkpt lat="44.17471" lon="5.28036">
        <ele>1904.2</ele>
        <time>2026-05-14T11:00:34.000Z</time>
      </trkpt>
      <trkpt lat="44.17471" lon="5.28037">
        <ele>1904.6</ele>
        <time>2026-05-14T11:00:35.000Z</time>
      </trkpt>
      <trkpt lat="44.17472" lon="5.28037">
        <ele>1904.8</ele>
        <time>2026-05-14T11:00:36.000Z</time>
      </trkpt>
      <trkpt lat="44.17472" lon="5.28038">
        <ele>1904.9</ele>
        <time>2026-05-14T11:00:37.000Z</time>
      </trkpt>
      <trkpt lat="44.17473" lon="5.28038">
        <ele>1904.9</ele>
        <time>2026-05-14T11:00:38.000Z</time>
      </trkpt>
      <trkpt lat="44.17473" lon="5.2804">
        <ele>1905.5</ele>
        <time>2026-05-14T11:00:39.000Z</time>
      </trkpt>
      <trkpt lat="44.17474" lon="5.28042">
        <ele>1905.6</ele>
        <time>2026-05-14T11:00:40.000Z</time>
      </trkpt>
      <trkpt lat="44.17475" lon="5.28044">
        <ele>1906.4</ele>
        <time>2026-05-14T11:00:41.000Z</time>
      </trkpt>
      <trkpt lat="44.17475" lon="5.28045">
        <ele>1906.4</ele>
        <time>2026-05-14T11:00:42.000Z</time>
      </trkpt>
      <trkpt lat="44.17475" lon="5.28046">
        <ele>1906.7</ele>
        <time>2026-05-14T11:00:43.000Z</time>
      </trkpt>
      <trkpt lat="44.17476" lon="5.28046">
        <ele>1906.6</ele>
        <time>2026-05-14T11:00:44.000Z</time>
      </trkpt>
      <trkpt lat="44.17476" lon="5.28047">
        <ele>1907.1</ele>
        <time>2026-05-14T11:00:45.000Z</time>
      </trkpt>
      <trkpt lat="44.17477" lon="5.28047">
        <ele>1907.6</ele>
        <time>2026-05-14T11:00:46.000Z</time>
      </trkpt>
      <trkpt lat="44.17478" lon="5.28048">
        <ele>1907.9</ele>
        <time>2026-05-14T11:00:47.000Z</time>
      </trkpt>
      <trkpt lat="44.17479" lon="5.28048">
        <ele>1907.9</ele>
        <time>2026-05-14T11:00:48.000Z</time>
      </trkpt>
      <trkpt lat="44.17479" lon="5.28049">
        <ele>1907.4</ele>
        <time>2026-05-14T11:00:49.000Z</time>
      </trkpt>
      <trkpt lat="44.1748" lon="5.28049">
        <ele>1906.5</ele>
        <time>2026-05-14T11:00:50.000Z</time>
      </trkpt>
      <trkpt lat="44.17481" lon="5.2805">
        <ele>1906.4</ele>
        <time>2026-05-14T11:00:51.000Z</time>
      </trkpt>
      <trkpt lat="44.17482" lon="5.2805">
        <ele>1906.5</ele>
        <time>2026-05-14T11:00:52.000Z</time>
      </trkpt>
      <trkpt lat="44.17482" lon="5.28052">
        <ele>1906.2</ele>
        <time>2026-05-14T11:00:53.000Z</time>
      </trkpt>
      <trkpt lat="44.17483" lon="5.28053">
        <ele>1905.8</ele>
        <time>2026-05-14T11:00:54.000Z</time>
      </trkpt>
      <trkpt lat="44.17483" lon="5.28054">
        <ele>1905.3</ele>
        <time>2026-05-14T11:00:55.000Z</time>
      </trkpt>
      <trkpt lat="44.17484" lon="5.28054">
        <ele>1904.9</ele>
        <time>2026-05-14T11:00:56.000Z</time>
      </trkpt>
      <trkpt lat="44.17484" lon="5.28054">
        <ele>1904.5</ele>
        <time>2026-05-14T11:00:57.000Z</time>
      </trkpt>
      <trkpt lat="44.17485" lon="5.28055">
        <ele>1904</ele>
        <time>2026-05-14T11:00:58.000Z</time>
      </trkpt>
      <trkpt lat="44.17486" lon="5.28056">
        <ele>1903.6</ele>
        <time>2026-05-14T11:00:59.000Z</time>
      </trkpt>
      <trkpt lat="44.17487" lon="5.28057">
        <ele>1903.4</ele>
        <time>2026-05-14T11:01:00.000Z</time>
      </trkpt>
      <trkpt lat="44.17488" lon="5.28058">
        <ele>1903</ele>
        <time>2026-05-14T11:01:01.000Z</time>
      </trkpt>
      <trkpt lat="44.17489" lon="5.28058">
        <ele>1902.3</ele>
        <time>2026-05-14T11:01:02.000Z</time>
      </trkpt>
      <trkpt lat="44.1749" lon="5.28059">
        <ele>1901.8</ele>
        <time>2026-05-14T11:01:03.000Z</time>
      </trkpt>
      <trkpt lat="44.17491" lon="5.28059">
        <ele>1901.5</ele>
        <time>2026-05-14T11:01:04.000Z</time>
      </trkpt>
      <trkpt lat="44.17492" lon="5.2806">
        <ele>1901.3</ele>
        <time>2026-05-14T11:01:05.000Z</time>
      </trkpt>
      <trkpt lat="44.17493" lon="5.2806">
        <ele>1901</ele>
        <time>2026-05-14T11:01:06.000Z</time>
      </trkpt>
      <trkpt lat="44.17494" lon="5.28061">
        <ele>1900.7</ele>
        <time>2026-05-14T11:01:07.000Z</time>
      </trkpt>
      <trkpt lat="44.17496" lon="5.28061">
        <ele>1900.9</ele>
        <time>2026-05-14T11:01:08.000Z</time>
      </trkpt>
      <trkpt lat="44.17497" lon="5.28062">
        <ele>1901.3</ele>
        <time>2026-05-14T11:01:09.000Z</time>
      </trkpt>
      <trkpt lat="44.17498" lon="5.28062">
        <ele>1901.9</ele>
        <time>2026-05-14T11:01:10.000Z</time>
      </trkpt>
      <trkpt lat="44.17499" lon="5.28062">
        <ele>1902.4</ele>
        <time>2026-05-14T11:01:11.000Z</time>
      </trkpt>
      <trkpt lat="44.175" lon="5.28063">
        <ele>1902.8</ele>
        <time>2026-05-14T11:01:12.000Z</time>
      </trkpt>
      <trkpt lat="44.175" lon="5.28063">
        <ele>1903.4</ele>
        <time>2026-05-14T11:01:13.000Z</time>
      </trkpt>
      <trkpt lat="44.17501" lon="5.28063">
        <ele>1904.1</ele>
        <time>2026-05-14T11:01:14.000Z</time>
      </trkpt>
      <trkpt lat="44.17502" lon="5.28063">
        <ele>1905.2</ele>
        <time>2026-05-14T11:01:15.000Z</time>
      </trkpt>
      <trkpt lat="44.17503" lon="5.28063">
        <ele>1906</ele>
        <time>2026-05-14T11:01:16.000Z</time>
      </trkpt>
      <trkpt lat="44.17504" lon="5.28062">
        <ele>1906.7</ele>
        <time>2026-05-14T11:01:17.000Z</time>
      </trkpt>
      <trkpt lat="44.17504" lon="5.28062">
        <ele>1907.4</ele>
        <time>2026-05-14T11:01:18.000Z</time>
      </trkpt>
      <trkpt lat="44.17505" lon="5.28062">
        <ele>1908</ele>
        <time>2026-05-14T11:01:19.000Z</time>
      </trkpt>
      <trkpt lat="44.17505" lon="5.28061">
        <ele>1908.4</ele>
        <time>2026-05-14T11:01:20.000Z</time>
      </trkpt>
      <trkpt lat="44.17506" lon="5.2806">
        <ele>1909.1</ele>
        <time>2026-05-14T11:01:21.000Z</time>
      </trkpt>
      <trkpt lat="44.17506" lon="5.28058">
        <ele>1909.9</ele>
        <time>2026-05-14T11:01:22.000Z</time>
      </trkpt>
      <trkpt lat="44.17507" lon="5.28058">
        <ele>1911.7</ele>
        <time>2026-05-14T11:01:23.000Z</time>
      </trkpt>
      <trkpt lat="44.17507" lon="5.28057">
        <ele>1912.5</ele>
        <time>2026-05-14T11:01:24.000Z</time>
      </trkpt>
      <trkpt lat="44.17507" lon="5.28057">
        <ele>1913.7</ele>
        <time>2026-05-14T11:01:25.000Z</time>
      </trkpt>
      <trkpt lat="44.17507" lon="5.28057">
        <ele>1913.9</ele>
        <time>2026-05-14T11:01:26.000Z</time>
      </trkpt>
      <trkpt lat="44.17507" lon="5.28058">
        <ele>1915.5</ele>
        <time>2026-05-14T11:01:27.000Z</time>
      </trkpt>
      <trkpt lat="44.17507" lon="5.28059">
        <ele>1916.4</ele>
        <time>2026-05-14T11:01:28.000Z</time>
      </trkpt>
      <trkpt lat="44.17507" lon="5.28059">
        <ele>1917.8</ele>
        <time>2026-05-14T11:01:29.000Z</time>
      </trkpt>
      <trkpt lat="44.17507" lon="5.28059">
        <ele>1918.2</ele>
        <time>2026-05-14T11:01:30.000Z</time>
      </trkpt>
      <trkpt lat="44.17507" lon="5.28059">
        <ele>1918.9</ele>
        <time>2026-05-14T11:01:31.000Z</time>
      </trkpt>
      <trkpt lat="44.17507" lon="5.28059">
        <ele>1919.2</ele>
        <time>2026-05-14T11:01:32.000Z</time>
      </trkpt>
      <trkpt lat="44.17508" lon="5.28058">
        <ele>1919.1</ele>
        <time>2026-05-14T11:01:33.000Z</time>
      </trkpt>
      <trkpt lat="44.17508" lon="5.28058">
        <ele>1918.7</ele>
        <time>2026-05-14T11:01:34.000Z</time>
      </trkpt>
      <trkpt lat="44.17508" lon="5.28057">
        <ele>1918.1</ele>
        <time>2026-05-14T11:01:35.000Z</time>
      </trkpt>
      <trkpt lat="44.17508" lon="5.28057">
        <ele>1917.8</ele>
        <time>2026-05-14T11:01:36.000Z</time>
      </trkpt>
      <trkpt lat="44.17508" lon="5.28056">
        <ele>1917.5</ele>
        <time>2026-05-14T11:01:37.000Z</time>
      </trkpt>
      <trkpt lat="44.17507" lon="5.28055">
        <ele>1917.2</ele>
        <time>2026-05-14T11:01:38.000Z</time>
      </trkpt>
      <trkpt lat="44.17507" lon="5.28054">
        <ele>1917.6</ele>
        <time>2026-05-14T11:01:39.000Z</time>
      </trkpt>
      <trkpt lat="44.17507" lon="5.28053">
        <ele>1917.7</ele>
        <time>2026-05-14T11:01:40.000Z</time>
      </trkpt>
      <trkpt lat="44.17507" lon="5.28053">
        <ele>1918.2</ele>
        <time>2026-05-14T11:01:41.000Z</time>
      </trkpt>
      <trkpt lat="44.17507" lon="5.28052">
        <ele>1918.4</ele>
        <time>2026-05-14T11:01:42.000Z</time>
      </trkpt>
      <trkpt lat="44.17507" lon="5.28051">
        <ele>1918.6</ele>
        <time>2026-05-14T11:01:43.000Z</time>
      </trkpt>
      <trkpt lat="44.17507" lon="5.28051">
        <ele>1918.5</ele>
        <time>2026-05-14T11:01:44.000Z</time>
      </trkpt>
      <trkpt lat="44.17507" lon="5.28051">
        <ele>1918.1</ele>
        <time>2026-05-14T11:01:45.000Z</time>
      </trkpt>
      <trkpt lat="44.17507" lon="5.28051">
        <ele>1918.1</ele>
        <time>2026-05-14T11:01:46.000Z</time>
      </trkpt>
      <trkpt lat="44.17507" lon="5.28052">
        <ele>1917.8</ele>
        <time>2026-05-14T11:01:47.000Z</time>
      </trkpt>
      <trkpt lat="44.17507" lon="5.28052">
        <ele>1917.7</ele>
        <time>2026-05-14T11:01:48.000Z</time>
      </trkpt>
      <trkpt lat="44.17507" lon="5.28052">
        <ele>1917.3</ele>
        <time>2026-05-14T11:01:49.000Z</time>
      </trkpt>
      <trkpt lat="44.17507" lon="5.28052">
        <ele>1917.2</ele>
        <time>2026-05-14T11:01:50.000Z</time>
      </trkpt>
      <trkpt lat="44.17507" lon="5.28052">
        <ele>1917</ele>
        <time>2026-05-14T11:01:51.000Z</time>
      </trkpt>
      <trkpt lat="44.17507" lon="5.28052">
        <ele>1916.8</ele>
        <time>2026-05-14T11:01:52.000Z</time>
      </trkpt>
      <trkpt lat="44.17507" lon="5.28052">
        <ele>1916.8</ele>
        <time>2026-05-14T11:01:53.000Z</time>
      </trkpt>
      <trkpt lat="44.17507" lon="5.28052">
        <ele>1917.1</ele>
        <time>2026-05-14T11:01:54.000Z</time>
      </trkpt>
      <trkpt lat="44.17507" lon="5.28052">
        <ele>1917.2</ele>
        <time>2026-05-14T11:01:55.000Z</time>
      </trkpt>
      <trkpt lat="44.17507" lon="5.28052">
        <ele>1917.2</ele>
        <time>2026-05-14T11:01:56.000Z</time>
      </trkpt>
      <trkpt lat="44.17507" lon="5.28052">
        <ele>1917.1</ele>
        <time>2026-05-14T11:01:57.000Z</time>
      </trkpt>
      <trkpt lat="44.17507" lon="5.28051">
        <ele>1917.1</ele>
        <time>2026-05-14T11:01:58.000Z</time>
      </trkpt>
      <trkpt lat="44.17508" lon="5.2805">
        <ele>1917.4</ele>
        <time>2026-05-14T11:01:59.000Z</time>
      </trkpt>
      <trkpt lat="44.17508" lon="5.28049">
        <ele>1917.5</ele>
        <time>2026-05-14T11:02:00.000Z</time>
      </trkpt>
      <trkpt lat="44.17508" lon="5.28048">
        <ele>1917.5</ele>
        <time>2026-05-14T11:02:01.000Z</time>
      </trkpt>
      <trkpt lat="44.17508" lon="5.28048">
        <ele>1917.8</ele>
        <time>2026-05-14T11:02:02.000Z</time>
      </trkpt>
      <trkpt lat="44.17508" lon="5.28047">
        <ele>1918</ele>
        <time>2026-05-14T11:02:03.000Z</time>
      </trkpt>
      <trkpt lat="44.17508" lon="5.28046">
        <ele>1918.2</ele>
        <time>2026-05-14T11:02:04.000Z</time>
      </trkpt>
      <trkpt lat="44.17508" lon="5.28045">
        <ele>1918.4</ele>
        <time>2026-05-14T11:02:05.000Z</time>
      </trkpt>
      <trkpt lat="44.17509" lon="5.28045">
        <ele>1918.7</ele>
        <time>2026-05-14T11:02:06.000Z</time>
      </trkpt>
      <trkpt lat="44.17509" lon="5.28044">
        <ele>1918.9</ele>
        <time>2026-05-14T11:02:07.000Z</time>
      </trkpt>
      <trkpt lat="44.17509" lon="5.28044">
        <ele>1918.8</ele>
        <time>2026-05-14T11:02:08.000Z</time>
      </trkpt>
      <trkpt lat="44.17509" lon="5.28044">
        <ele>1918.9</ele>
        <time>2026-05-14T11:02:09.000Z</time>
      </trkpt>
      <trkpt lat="44.17509" lon="5.28044">
        <ele>1918.9</ele>
        <time>2026-05-14T11:02:10.000Z</time>
      </trkpt>
      <trkpt lat="44.17509" lon="5.28044">
        <ele>1919</ele>
        <time>2026-05-14T11:02:11.000Z</time>
      </trkpt>
      <trkpt lat="44.17509" lon="5.28044">
        <ele>1919</ele>
        <time>2026-05-14T11:02:12.000Z</time>
      </trkpt>
      <trkpt lat="44.17509" lon="5.28044">
        <ele>1919</ele>
        <time>2026-05-14T11:02:13.000Z</time>
      </trkpt>
      <trkpt lat="44.17509" lon="5.28043">
        <ele>1919</ele>
        <time>2026-05-14T11:02:14.000Z</time>
      </trkpt>
      <trkpt lat="44.1751" lon="5.28043">
        <ele>1919</ele>
        <time>2026-05-14T11:02:15.000Z</time>
      </trkpt>
      <trkpt lat="44.1751" lon="5.28042">
        <ele>1919</ele>
        <time>2026-05-14T11:02:16.000Z</time>
      </trkpt>
      <trkpt lat="44.1751" lon="5.28042">
        <ele>1919.1</ele>
        <time>2026-05-14T11:02:17.000Z</time>
      </trkpt>
      <trkpt lat="44.17511" lon="5.28041">
        <ele>1919.1</ele>
        <time>2026-05-14T11:02:18.000Z</time>
      </trkpt>
      <trkpt lat="44.17512" lon="5.2804">
        <ele>1919.2</ele>
        <time>2026-05-14T11:02:19.000Z</time>
      </trkpt>
      <trkpt lat="44.17513" lon="5.2804">
        <ele>1919.3</ele>
        <time>2026-05-14T11:02:20.000Z</time>
      </trkpt>
      <trkpt lat="44.17514" lon="5.28039">
        <ele>1919.4</ele>
        <time>2026-05-14T11:02:21.000Z</time>
      </trkpt>
      <trkpt lat="44.17515" lon="5.28039">
        <ele>1919.4</ele>
        <time>2026-05-14T11:02:22.000Z</time>
      </trkpt>
      <trkpt lat="44.17515" lon="5.28038">
        <ele>1919.4</ele>
        <time>2026-05-14T11:02:23.000Z</time>
      </trkpt>
      <trkpt lat="44.17516" lon="5.28038">
        <ele>1919.2</ele>
        <time>2026-05-14T11:02:24.000Z</time>
      </trkpt>
      <trkpt lat="44.17516" lon="5.28038">
        <ele>1918.8</ele>
        <time>2026-05-14T11:02:25.000Z</time>
      </trkpt>
      <trkpt lat="44.17517" lon="5.28038">
        <ele>1918.8</ele>
        <time>2026-05-14T11:02:26.000Z</time>
      </trkpt>
      <trkpt lat="44.17517" lon="5.28037">
        <ele>1918.7</ele>
        <time>2026-05-14T11:02:27.000Z</time>
      </trkpt>
      <trkpt lat="44.17518" lon="5.28037">
        <ele>1918.6</ele>
        <time>2026-05-14T11:02:28.000Z</time>
      </trkpt>
      <trkpt lat="44.17518" lon="5.28036">
        <ele>1918.6</ele>
        <time>2026-05-14T11:02:29.000Z</time>
      </trkpt>
      <trkpt lat="44.17519" lon="5.28035">
        <ele>1918.5</ele>
        <time>2026-05-14T11:02:30.000Z</time>
      </trkpt>
      <trkpt lat="44.17519" lon="5.28035">
        <ele>1918.4</ele>
        <time>2026-05-14T11:02:31.000Z</time>
      </trkpt>
      <trkpt lat="44.1752" lon="5.28035">
        <ele>1918.6</ele>
        <time>2026-05-14T11:02:32.000Z</time>
      </trkpt>
      <trkpt lat="44.17521" lon="5.28035">
        <ele>1918.5</ele>
        <time>2026-05-14T11:02:33.000Z</time>
      </trkpt>
      <trkpt lat="44.17521" lon="5.28035">
        <ele>1918.4</ele>
        <time>2026-05-14T11:02:34.000Z</time>
      </trkpt>
      <trkpt lat="44.17521" lon="5.28035">
        <ele>1918.4</ele>
        <time>2026-05-14T11:02:35.000Z</time>
      </trkpt>
      <trkpt lat="44.17522" lon="5.28035">
        <ele>1918</ele>
        <time>2026-05-14T11:02:36.000Z</time>
      </trkpt>
      <trkpt lat="44.17522" lon="5.28035">
        <ele>1917.7</ele>
        <time>2026-05-14T11:02:37.000Z</time>
      </trkpt>
      <trkpt lat="44.17522" lon="5.28034">
        <ele>1917.6</ele>
        <time>2026-05-14T11:02:38.000Z</time>
      </trkpt>
      <trkpt lat="44.17522" lon="5.28033">
        <ele>1917.5</ele>
        <time>2026-05-14T11:02:39.000Z</time>
      </trkpt>
      <trkpt lat="44.17522" lon="5.28033">
        <ele>1917.4</ele>
        <time>2026-05-14T11:02:40.000Z</time>
      </trkpt>
      <trkpt lat="44.17522" lon="5.28033">
        <ele>1917.1</ele>
        <time>2026-05-14T11:02:41.000Z</time>
      </trkpt>
      <trkpt lat="44.17523" lon="5.28032">
        <ele>1917.2</ele>
        <time>2026-05-14T11:02:42.000Z</time>
      </trkpt>
      <trkpt lat="44.17523" lon="5.28032">
        <ele>1917.2</ele>
        <time>2026-05-14T11:02:43.000Z</time>
      </trkpt>
      <trkpt lat="44.17523" lon="5.28032">
        <ele>1916.7</ele>
        <time>2026-05-14T11:02:44.000Z</time>
      </trkpt>
      <trkpt lat="44.17523" lon="5.28032">
        <ele>1916.2</ele>
        <time>2026-05-14T11:02:45.000Z</time>
      </trkpt>
      <trkpt lat="44.17523" lon="5.28032">
        <ele>1915.7</ele>
        <time>2026-05-14T11:02:46.000Z</time>
      </trkpt>
      <trkpt lat="44.17523" lon="5.28032">
        <ele>1915.5</ele>
        <time>2026-05-14T11:02:47.000Z</time>
      </trkpt>
      <trkpt lat="44.17523" lon="5.28032">
        <ele>1915.4</ele>
        <time>2026-05-14T11:02:48.000Z</time>
      </trkpt>
      <trkpt lat="44.17523" lon="5.28032">
        <ele>1915.4</ele>
        <time>2026-05-14T11:02:49.000Z</time>
      </trkpt>
      <trkpt lat="44.17523" lon="5.28032">
        <ele>1915.4</ele>
        <time>2026-05-14T11:02:50.000Z</time>
      </trkpt>
      <trkpt lat="44.17524" lon="5.28033">
        <ele>1915</ele>
        <time>2026-05-14T11:02:51.000Z</time>
      </trkpt>
      <trkpt lat="44.17524" lon="5.28034">
        <ele>1915</ele>
        <time>2026-05-14T11:02:52.000Z</time>
      </trkpt>
      <trkpt lat="44.17525" lon="5.28035">
        <ele>1914.9</ele>
        <time>2026-05-14T11:02:53.000Z</time>
      </trkpt>
      <trkpt lat="44.17526" lon="5.28035">
        <ele>1914.7</ele>
        <time>2026-05-14T11:02:54.000Z</time>
      </trkpt>
      <trkpt lat="44.17527" lon="5.28035">
        <ele>1914.6</ele>
        <time>2026-05-14T11:02:55.000Z</time>
      </trkpt>
      <trkpt lat="44.17528" lon="5.28035">
        <ele>1914.7</ele>
        <time>2026-05-14T11:02:56.000Z</time>
      </trkpt>
      <trkpt lat="44.17529" lon="5.28034">
        <ele>1914.4</ele>
        <time>2026-05-14T11:02:57.000Z</time>
      </trkpt>
      <trkpt lat="44.1753" lon="5.28034">
        <ele>1914.4</ele>
        <time>2026-05-14T11:02:58.000Z</time>
      </trkpt>
      <trkpt lat="44.1753" lon="5.28033">
        <ele>1914.4</ele>
        <time>2026-05-14T11:02:59.000Z</time>
      </trkpt>
      <trkpt lat="44.1753" lon="5.28032">
        <ele>1914.1</ele>
        <time>2026-05-14T11:03:00.000Z</time>
      </trkpt>
      <trkpt lat="44.1753" lon="5.28031">
        <ele>1913.8</ele>
        <time>2026-05-14T11:03:01.000Z</time>
      </trkpt>
      <trkpt lat="44.17531" lon="5.2803">
        <ele>1913.5</ele>
        <time>2026-05-14T11:03:02.000Z</time>
      </trkpt>
      <trkpt lat="44.17531" lon="5.28029">
        <ele>1913.3</ele>
        <time>2026-05-14T11:03:03.000Z</time>
      </trkpt>
      <trkpt lat="44.17531" lon="5.28028">
        <ele>1912.9</ele>
        <time>2026-05-14T11:03:04.000Z</time>
      </trkpt>
      <trkpt lat="44.17531" lon="5.28028">
        <ele>1912.2</ele>
        <time>2026-05-14T11:03:05.000Z</time>
      </trkpt>
      <trkpt lat="44.17532" lon="5.28028">
        <ele>1911.6</ele>
        <time>2026-05-14T11:03:06.000Z</time>
      </trkpt>
      <trkpt lat="44.17532" lon="5.28028">
        <ele>1911.4</ele>
        <time>2026-05-14T11:03:07.000Z</time>
      </trkpt>
      <trkpt lat="44.17532" lon="5.28028">
        <ele>1911.5</ele>
        <time>2026-05-14T11:03:08.000Z</time>
      </trkpt>
      <trkpt lat="44.17532" lon="5.28028">
        <ele>1911.3</ele>
        <time>2026-05-14T11:03:09.000Z</time>
      </trkpt>
      <trkpt lat="44.17532" lon="5.28027">
        <ele>1911.2</ele>
        <time>2026-05-14T11:03:10.000Z</time>
      </trkpt>
      <trkpt lat="44.17532" lon="5.28027">
        <ele>1911.1</ele>
        <time>2026-05-14T11:03:11.000Z</time>
      </trkpt>
      <trkpt lat="44.17533" lon="5.28026">
        <ele>1911</ele>
        <time>2026-05-14T11:03:12.000Z</time>
      </trkpt>
      <trkpt lat="44.17533" lon="5.28025">
        <ele>1910.6</ele>
        <time>2026-05-14T11:03:13.000Z</time>
      </trkpt>
      <trkpt lat="44.17533" lon="5.28024">
        <ele>1910.6</ele>
        <time>2026-05-14T11:03:14.000Z</time>
      </trkpt>
      <trkpt lat="44.17534" lon="5.28023">
        <ele>1910.5</ele>
        <time>2026-05-14T11:03:15.000Z</time>
      </trkpt>
      <trkpt lat="44.17534" lon="5.28022">
        <ele>1910.4</ele>
        <time>2026-05-14T11:03:16.000Z</time>
      </trkpt>
      <trkpt lat="44.17535" lon="5.28022">
        <ele>1910.1</ele>
        <time>2026-05-14T11:03:17.000Z</time>
      </trkpt>
      <trkpt lat="44.17536" lon="5.28021">
        <ele>1910</ele>
        <time>2026-05-14T11:03:18.000Z</time>
      </trkpt>
      <trkpt lat="44.17536" lon="5.2802">
        <ele>1910</ele>
        <time>2026-05-14T11:03:19.000Z</time>
      </trkpt>
      <trkpt lat="44.17537" lon="5.28018">
        <ele>1909.7</ele>
        <time>2026-05-14T11:03:20.000Z</time>
      </trkpt>
      <trkpt lat="44.17538" lon="5.28017">
        <ele>1909.3</ele>
        <time>2026-05-14T11:03:21.000Z</time>
      </trkpt>
      <trkpt lat="44.17538" lon="5.28017">
        <ele>1909.2</ele>
        <time>2026-05-14T11:03:22.000Z</time>
      </trkpt>
      <trkpt lat="44.17539" lon="5.28016">
        <ele>1909</ele>
        <time>2026-05-14T11:03:23.000Z</time>
      </trkpt>
      <trkpt lat="44.1754" lon="5.28015">
        <ele>1908.9</ele>
        <time>2026-05-14T11:03:24.000Z</time>
      </trkpt>
      <trkpt lat="44.17541" lon="5.28015">
        <ele>1908.8</ele>
        <time>2026-05-14T11:03:25.000Z</time>
      </trkpt>
      <trkpt lat="44.17542" lon="5.28014">
        <ele>1908.9</ele>
        <time>2026-05-14T11:03:26.000Z</time>
      </trkpt>
      <trkpt lat="44.17543" lon="5.28013">
        <ele>1909.1</ele>
        <time>2026-05-14T11:03:27.000Z</time>
      </trkpt>
      <trkpt lat="44.17543" lon="5.28012">
        <ele>1909</ele>
        <time>2026-05-14T11:03:28.000Z</time>
      </trkpt>
      <trkpt lat="44.17544" lon="5.28012">
        <ele>1908.7</ele>
        <time>2026-05-14T11:03:29.000Z</time>
      </trkpt>
      <trkpt lat="44.17544" lon="5.28011">
        <ele>1908.3</ele>
        <time>2026-05-14T11:03:30.000Z</time>
      </trkpt>
      <trkpt lat="44.17545" lon="5.28011">
        <ele>1907.7</ele>
        <time>2026-05-14T11:03:31.000Z</time>
      </trkpt>
      <trkpt lat="44.17545" lon="5.28011">
        <ele>1907.3</ele>
        <time>2026-05-14T11:03:32.000Z</time>
      </trkpt>
      <trkpt lat="44.17545" lon="5.28011">
        <ele>1907.2</ele>
        <time>2026-05-14T11:03:33.000Z</time>
      </trkpt>
      <trkpt lat="44.17545" lon="5.28011">
        <ele>1907</ele>
        <time>2026-05-14T11:03:34.000Z</time>
      </trkpt>
      <trkpt lat="44.17545" lon="5.28011">
        <ele>1906.7</ele>
        <time>2026-05-14T11:03:35.000Z</time>
      </trkpt>
      <trkpt lat="44.17545" lon="5.2801">
        <ele>1906.4</ele>
        <time>2026-05-14T11:03:36.000Z</time>
      </trkpt>
      <trkpt lat="44.17546" lon="5.28009">
        <ele>1906.3</ele>
        <time>2026-05-14T11:03:37.000Z</time>
      </trkpt>
      <trkpt lat="44.17546" lon="5.28008">
        <ele>1906.5</ele>
        <time>2026-05-14T11:03:38.000Z</time>
      </trkpt>
      <trkpt lat="44.17546" lon="5.28008">
        <ele>1906.4</ele>
        <time>2026-05-14T11:03:39.000Z</time>
      </trkpt>
      <trkpt lat="44.17547" lon="5.28007">
        <ele>1906.2</ele>
        <time>2026-05-14T11:03:40.000Z</time>
      </trkpt>
      <trkpt lat="44.17547" lon="5.28006">
        <ele>1905.7</ele>
        <time>2026-05-14T11:03:41.000Z</time>
      </trkpt>
      <trkpt lat="44.17547" lon="5.28005">
        <ele>1905.2</ele>
        <time>2026-05-14T11:03:42.000Z</time>
      </trkpt>
      <trkpt lat="44.17547" lon="5.28004">
        <ele>1904.7</ele>
        <time>2026-05-14T11:03:43.000Z</time>
      </trkpt>
      <trkpt lat="44.17547" lon="5.28004">
        <ele>1904.7</ele>
        <time>2026-05-14T11:03:44.000Z</time>
      </trkpt>
      <trkpt lat="44.17548" lon="5.28002">
        <ele>1904.5</ele>
        <time>2026-05-14T11:03:45.000Z</time>
      </trkpt>
      <trkpt lat="44.17548" lon="5.28001">
        <ele>1904.5</ele>
        <time>2026-05-14T11:03:46.000Z</time>
      </trkpt>
      <trkpt lat="44.17549" lon="5.27999">
        <ele>1904.7</ele>
        <time>2026-05-14T11:03:47.000Z</time>
      </trkpt>
      <trkpt lat="44.1755" lon="5.27998">
        <ele>1904.5</ele>
        <time>2026-05-14T11:03:48.000Z</time>
      </trkpt>
      <trkpt lat="44.1755" lon="5.27997">
        <ele>1904.6</ele>
        <time>2026-05-14T11:03:49.000Z</time>
      </trkpt>
      <trkpt lat="44.1755" lon="5.27996">
        <ele>1904.5</ele>
        <time>2026-05-14T11:03:50.000Z</time>
      </trkpt>
      <trkpt lat="44.1755" lon="5.27995">
        <ele>1904.2</ele>
        <time>2026-05-14T11:03:51.000Z</time>
      </trkpt>
      <trkpt lat="44.17551" lon="5.27995">
        <ele>1903.9</ele>
        <time>2026-05-14T11:03:52.000Z</time>
      </trkpt>
      <trkpt lat="44.17551" lon="5.27994">
        <ele>1903.8</ele>
        <time>2026-05-14T11:03:53.000Z</time>
      </trkpt>
      <trkpt lat="44.17551" lon="5.27994">
        <ele>1903.8</ele>
        <time>2026-05-14T11:03:54.000Z</time>
      </trkpt>
      <trkpt lat="44.17551" lon="5.27992">
        <ele>1903.7</ele>
        <time>2026-05-14T11:03:55.000Z</time>
      </trkpt>
      <trkpt lat="44.17552" lon="5.27991">
        <ele>1903.7</ele>
        <time>2026-05-14T11:03:56.000Z</time>
      </trkpt>
      <trkpt lat="44.17552" lon="5.2799">
        <ele>1903.7</ele>
        <time>2026-05-14T11:03:57.000Z</time>
      </trkpt>
      <trkpt lat="44.17552" lon="5.2799">
        <ele>1904.1</ele>
        <time>2026-05-14T11:03:58.000Z</time>
      </trkpt>
      <trkpt lat="44.17553" lon="5.27989">
        <ele>1904.4</ele>
        <time>2026-05-14T11:03:59.000Z</time>
      </trkpt>
      <trkpt lat="44.17553" lon="5.27989">
        <ele>1904.7</ele>
        <time>2026-05-14T11:04:00.000Z</time>
      </trkpt>
      <trkpt lat="44.17553" lon="5.27989">
        <ele>1904.8</ele>
        <time>2026-05-14T11:04:01.000Z</time>
      </trkpt>
      <trkpt lat="44.17554" lon="5.27987">
        <ele>1904.4</ele>
        <time>2026-05-14T11:04:02.000Z</time>
      </trkpt>
      <trkpt lat="44.17554" lon="5.27986">
        <ele>1903.8</ele>
        <time>2026-05-14T11:04:03.000Z</time>
      </trkpt>
      <trkpt lat="44.17554" lon="5.27985">
        <ele>1903.1</ele>
        <time>2026-05-14T11:04:04.000Z</time>
      </trkpt>
      <trkpt lat="44.17554" lon="5.27984">
        <ele>1902.4</ele>
        <time>2026-05-14T11:04:05.000Z</time>
      </trkpt>
      <trkpt lat="44.17554" lon="5.27983">
        <ele>1902.2</ele>
        <time>2026-05-14T11:04:06.000Z</time>
      </trkpt>
      <trkpt lat="44.17554" lon="5.27982">
        <ele>1901.8</ele>
        <time>2026-05-14T11:04:07.000Z</time>
      </trkpt>
      <trkpt lat="44.17554" lon="5.27981">
        <ele>1901.7</ele>
        <time>2026-05-14T11:04:08.000Z</time>
      </trkpt>
      <trkpt lat="44.17554" lon="5.2798">
        <ele>1901.6</ele>
        <time>2026-05-14T11:04:09.000Z</time>
      </trkpt>
      <trkpt lat="44.17555" lon="5.27979">
        <ele>1901.4</ele>
        <time>2026-05-14T11:04:10.000Z</time>
      </trkpt>
      <trkpt lat="44.17555" lon="5.27979">
        <ele>1901.1</ele>
        <time>2026-05-14T11:04:11.000Z</time>
      </trkpt>
      <trkpt lat="44.17555" lon="5.27979">
        <ele>1900.8</ele>
        <time>2026-05-14T11:04:12.000Z</time>
      </trkpt>
      <trkpt lat="44.17555" lon="5.27979">
        <ele>1900.8</ele>
        <time>2026-05-14T11:04:13.000Z</time>
      </trkpt>
      <trkpt lat="44.17556" lon="5.27979">
        <ele>1900.5</ele>
        <time>2026-05-14T11:04:14.000Z</time>
      </trkpt>
      <trkpt lat="44.17556" lon="5.27979">
        <ele>1900.1</ele>
        <time>2026-05-14T11:04:15.000Z</time>
      </trkpt>
      <trkpt lat="44.17556" lon="5.27979">
        <ele>1899.8</ele>
        <time>2026-05-14T11:04:16.000Z</time>
      </trkpt>
      <trkpt lat="44.17556" lon="5.27978">
        <ele>1899.2</ele>
        <time>2026-05-14T11:04:17.000Z</time>
      </trkpt>
      <trkpt lat="44.17556" lon="5.27977">
        <ele>1898.6</ele>
        <time>2026-05-14T11:04:18.000Z</time>
      </trkpt>
      <trkpt lat="44.17557" lon="5.27976">
        <ele>1898.3</ele>
        <time>2026-05-14T11:04:19.000Z</time>
      </trkpt>
      <trkpt lat="44.17557" lon="5.27975">
        <ele>1898.2</ele>
        <time>2026-05-14T11:04:20.000Z</time>
      </trkpt>
      <trkpt lat="44.17558" lon="5.27974">
        <ele>1898</ele>
        <time>2026-05-14T11:04:21.000Z</time>
      </trkpt>
      <trkpt lat="44.17558" lon="5.27973">
        <ele>1897.7</ele>
        <time>2026-05-14T11:04:22.000Z</time>
      </trkpt>
      <trkpt lat="44.17559" lon="5.27972">
        <ele>1897.6</ele>
        <time>2026-05-14T11:04:23.000Z</time>
      </trkpt>
      <trkpt lat="44.1756" lon="5.2797">
        <ele>1897.5</ele>
        <time>2026-05-14T11:04:24.000Z</time>
      </trkpt>
      <trkpt lat="44.1756" lon="5.2797">
        <ele>1897.2</ele>
        <time>2026-05-14T11:04:25.000Z</time>
      </trkpt>
      <trkpt lat="44.1756" lon="5.27969">
        <ele>1896.9</ele>
        <time>2026-05-14T11:04:26.000Z</time>
      </trkpt>
      <trkpt lat="44.17561" lon="5.27968">
        <ele>1896.6</ele>
        <time>2026-05-14T11:04:27.000Z</time>
      </trkpt>
      <trkpt lat="44.17561" lon="5.27967">
        <ele>1896.7</ele>
        <time>2026-05-14T11:04:28.000Z</time>
      </trkpt>
      <trkpt lat="44.17562" lon="5.27965">
        <ele>1896.8</ele>
        <time>2026-05-14T11:04:29.000Z</time>
      </trkpt>
      <trkpt lat="44.17562" lon="5.27964">
        <ele>1896.6</ele>
        <time>2026-05-14T11:04:30.000Z</time>
      </trkpt>
      <trkpt lat="44.17562" lon="5.27963">
        <ele>1896.2</ele>
        <time>2026-05-14T11:04:31.000Z</time>
      </trkpt>
      <trkpt lat="44.17563" lon="5.27963">
        <ele>1895.9</ele>
        <time>2026-05-14T11:04:32.000Z</time>
      </trkpt>
      <trkpt lat="44.17563" lon="5.27962">
        <ele>1895.8</ele>
        <time>2026-05-14T11:04:33.000Z</time>
      </trkpt>
      <trkpt lat="44.17564" lon="5.27961">
        <ele>1895.5</ele>
        <time>2026-05-14T11:04:34.000Z</time>
      </trkpt>
      <trkpt lat="44.17564" lon="5.2796">
        <ele>1895.1</ele>
        <time>2026-05-14T11:04:35.000Z</time>
      </trkpt>
      <trkpt lat="44.17564" lon="5.27959">
        <ele>1894.7</ele>
        <time>2026-05-14T11:04:36.000Z</time>
      </trkpt>
      <trkpt lat="44.17564" lon="5.27958">
        <ele>1894.5</ele>
        <time>2026-05-14T11:04:37.000Z</time>
      </trkpt>
      <trkpt lat="44.17565" lon="5.27957">
        <ele>1894.7</ele>
        <time>2026-05-14T11:04:38.000Z</time>
      </trkpt>
      <trkpt lat="44.17565" lon="5.27957">
        <ele>1894.7</ele>
        <time>2026-05-14T11:04:39.000Z</time>
      </trkpt>
      <trkpt lat="44.17565" lon="5.27957">
        <ele>1894.7</ele>
        <time>2026-05-14T11:04:40.000Z</time>
      </trkpt>
      <trkpt lat="44.17566" lon="5.27957">
        <ele>1894.6</ele>
        <time>2026-05-14T11:04:41.000Z</time>
      </trkpt>
      <trkpt lat="44.17566" lon="5.27955">
        <ele>1894.4</ele>
        <time>2026-05-14T11:04:42.000Z</time>
      </trkpt>
      <trkpt lat="44.17567" lon="5.27953">
        <ele>1894.1</ele>
        <time>2026-05-14T11:04:43.000Z</time>
      </trkpt>
      <trkpt lat="44.17568" lon="5.27951">
        <ele>1893.9</ele>
        <time>2026-05-14T11:04:44.000Z</time>
      </trkpt>
      <trkpt lat="44.17568" lon="5.27949">
        <ele>1893.7</ele>
        <time>2026-05-14T11:04:45.000Z</time>
      </trkpt>
      <trkpt lat="44.17569" lon="5.27947">
        <ele>1893.3</ele>
        <time>2026-05-14T11:04:46.000Z</time>
      </trkpt>
      <trkpt lat="44.17569" lon="5.27946">
        <ele>1893</ele>
        <time>2026-05-14T11:04:47.000Z</time>
      </trkpt>
      <trkpt lat="44.1757" lon="5.27945">
        <ele>1892.6</ele>
        <time>2026-05-14T11:04:48.000Z</time>
      </trkpt>
      <trkpt lat="44.1757" lon="5.27944">
        <ele>1892.3</ele>
        <time>2026-05-14T11:04:49.000Z</time>
      </trkpt>
      <trkpt lat="44.17572" lon="5.27942">
        <ele>1891.6</ele>
        <time>2026-05-14T11:04:50.999Z</time>
      </trkpt>
      <trkpt lat="44.17572" lon="5.27941">
        <ele>1891</ele>
        <time>2026-05-14T11:04:51.999Z</time>
      </trkpt>
      <trkpt lat="44.17572" lon="5.27941">
        <ele>1890.9</ele>
        <time>2026-05-14T11:04:52.999Z</time>
      </trkpt>
      <trkpt lat="44.17573" lon="5.2794">
        <ele>1890.4</ele>
        <time>2026-05-14T11:04:53.999Z</time>
      </trkpt>
      <trkpt lat="44.17573" lon="5.27939">
        <ele>1889.7</ele>
        <time>2026-05-14T11:04:54.999Z</time>
      </trkpt>
      <trkpt lat="44.17573" lon="5.27938">
        <ele>1889.3</ele>
        <time>2026-05-14T11:04:55.999Z</time>
      </trkpt>
      <trkpt lat="44.17574" lon="5.27936">
        <ele>1889.1</ele>
        <time>2026-05-14T11:04:56.999Z</time>
      </trkpt>
      <trkpt lat="44.17574" lon="5.27934">
        <ele>1888.8</ele>
        <time>2026-05-14T11:04:57.999Z</time>
      </trkpt>
      <trkpt lat="44.17574" lon="5.27933">
        <ele>1888.8</ele>
        <time>2026-05-14T11:04:58.999Z</time>
      </trkpt>
      <trkpt lat="44.17574" lon="5.27932">
        <ele>1888.7</ele>
        <time>2026-05-14T11:04:59.999Z</time>
      </trkpt>
      <trkpt lat="44.17575" lon="5.2793">
        <ele>1888.6</ele>
        <time>2026-05-14T11:05:00.999Z</time>
      </trkpt>
      <trkpt lat="44.17575" lon="5.27929">
        <ele>1888.4</ele>
        <time>2026-05-14T11:05:01.999Z</time>
      </trkpt>
      <trkpt lat="44.17575" lon="5.27928">
        <ele>1888.1</ele>
        <time>2026-05-14T11:05:02.999Z</time>
      </trkpt>
      <trkpt lat="44.17576" lon="5.27928">
        <ele>1887.7</ele>
        <time>2026-05-14T11:05:03.999Z</time>
      </trkpt>
      <trkpt lat="44.17576" lon="5.27928">
        <ele>1887.4</ele>
        <time>2026-05-14T11:05:04.999Z</time>
      </trkpt>
      <trkpt lat="44.17577" lon="5.27929">
        <ele>1886.9</ele>
        <time>2026-05-14T11:05:05.999Z</time>
      </trkpt>
      <trkpt lat="44.17577" lon="5.27931">
        <ele>1886.7</ele>
        <time>2026-05-14T11:05:06.999Z</time>
      </trkpt>
      <trkpt lat="44.17578" lon="5.27932">
        <ele>1886.5</ele>
        <time>2026-05-14T11:05:07.999Z</time>
      </trkpt>
      <trkpt lat="44.17579" lon="5.27933">
        <ele>1885.9</ele>
        <time>2026-05-14T11:05:08.999Z</time>
      </trkpt>
      <trkpt lat="44.17579" lon="5.27934">
        <ele>1885.6</ele>
        <time>2026-05-14T11:05:09.999Z</time>
      </trkpt>
      <trkpt lat="44.1758" lon="5.27935">
        <ele>1885.2</ele>
        <time>2026-05-14T11:05:10.999Z</time>
      </trkpt>
      <trkpt lat="44.1758" lon="5.27935">
        <ele>1884.6</ele>
        <time>2026-05-14T11:05:11.999Z</time>
      </trkpt>
      <trkpt lat="44.1758" lon="5.27936">
        <ele>1883.9</ele>
        <time>2026-05-14T11:05:12.999Z</time>
      </trkpt>
      <trkpt lat="44.17581" lon="5.27937">
        <ele>1883.4</ele>
        <time>2026-05-14T11:05:13.999Z</time>
      </trkpt>
      <trkpt lat="44.17582" lon="5.27938">
        <ele>1883.1</ele>
        <time>2026-05-14T11:05:14.999Z</time>
      </trkpt>
      <trkpt lat="44.17583" lon="5.27939">
        <ele>1882.6</ele>
        <time>2026-05-14T11:05:15.999Z</time>
      </trkpt>
      <trkpt lat="44.17584" lon="5.2794">
        <ele>1882</ele>
        <time>2026-05-14T11:05:16.999Z</time>
      </trkpt>
      <trkpt lat="44.17584" lon="5.27942">
        <ele>1881.5</ele>
        <time>2026-05-14T11:05:17.999Z</time>
      </trkpt>
      <trkpt lat="44.17585" lon="5.27942">
        <ele>1880.8</ele>
        <time>2026-05-14T11:05:18.999Z</time>
      </trkpt>
      <trkpt lat="44.17585" lon="5.27943">
        <ele>1880.4</ele>
        <time>2026-05-14T11:05:19.999Z</time>
      </trkpt>
      <trkpt lat="44.17585" lon="5.27943">
        <ele>1879.8</ele>
        <time>2026-05-14T11:05:20.999Z</time>
      </trkpt>
      <trkpt lat="44.17586" lon="5.27944">
        <ele>1879.5</ele>
        <time>2026-05-14T11:05:21.999Z</time>
      </trkpt>
      <trkpt lat="44.17586" lon="5.27945">
        <ele>1879.2</ele>
        <time>2026-05-14T11:05:22.999Z</time>
      </trkpt>
      <trkpt lat="44.17587" lon="5.27947">
        <ele>1878.8</ele>
        <time>2026-05-14T11:05:23.999Z</time>
      </trkpt>
      <trkpt lat="44.17588" lon="5.27948">
        <ele>1878.2</ele>
        <time>2026-05-14T11:05:24.999Z</time>
      </trkpt>
      <trkpt lat="44.17588" lon="5.2795">
        <ele>1877.7</ele>
        <time>2026-05-14T11:05:25.999Z</time>
      </trkpt>
      <trkpt lat="44.17589" lon="5.2795">
        <ele>1877.5</ele>
        <time>2026-05-14T11:05:26.999Z</time>
      </trkpt>
      <trkpt lat="44.1759" lon="5.27951">
        <ele>1877.6</ele>
        <time>2026-05-14T11:05:27.999Z</time>
      </trkpt>
      <trkpt lat="44.1759" lon="5.27951">
        <ele>1877.2</ele>
        <time>2026-05-14T11:05:28.999Z</time>
      </trkpt>
      <trkpt lat="44.1759" lon="5.27951">
        <ele>1876.9</ele>
        <time>2026-05-14T11:05:29.999Z</time>
      </trkpt>
      <trkpt lat="44.17591" lon="5.27952">
        <ele>1876.6</ele>
        <time>2026-05-14T11:05:30.999Z</time>
      </trkpt>
      <trkpt lat="44.17591" lon="5.27953">
        <ele>1876.3</ele>
        <time>2026-05-14T11:05:31.999Z</time>
      </trkpt>
      <trkpt lat="44.17592" lon="5.27954">
        <ele>1876</ele>
        <time>2026-05-14T11:05:32.999Z</time>
      </trkpt>
      <trkpt lat="44.17592" lon="5.27955">
        <ele>1875.5</ele>
        <time>2026-05-14T11:05:33.999Z</time>
      </trkpt>
      <trkpt lat="44.17593" lon="5.27957">
        <ele>1874.8</ele>
        <time>2026-05-14T11:05:34.999Z</time>
      </trkpt>
      <trkpt lat="44.17593" lon="5.27958">
        <ele>1874.2</ele>
        <time>2026-05-14T11:05:35.999Z</time>
      </trkpt>
      <trkpt lat="44.17594" lon="5.27958">
        <ele>1873.9</ele>
        <time>2026-05-14T11:05:36.999Z</time>
      </trkpt>
      <trkpt lat="44.17594" lon="5.27959">
        <ele>1874.2</ele>
        <time>2026-05-14T11:05:37.999Z</time>
      </trkpt>
      <trkpt lat="44.17594" lon="5.2796">
        <ele>1874.1</ele>
        <time>2026-05-14T11:05:38.999Z</time>
      </trkpt>
      <trkpt lat="44.17594" lon="5.27961">
        <ele>1873.9</ele>
        <time>2026-05-14T11:05:39.999Z</time>
      </trkpt>
      <trkpt lat="44.17595" lon="5.27961">
        <ele>1873.3</ele>
        <time>2026-05-14T11:05:40.999Z</time>
      </trkpt>
      <trkpt lat="44.17595" lon="5.27962">
        <ele>1872.9</ele>
        <time>2026-05-14T11:05:41.999Z</time>
      </trkpt>
      <trkpt lat="44.17596" lon="5.27963">
        <ele>1872.5</ele>
        <time>2026-05-14T11:05:42.999Z</time>
      </trkpt>
      <trkpt lat="44.17597" lon="5.27964">
        <ele>1872.2</ele>
        <time>2026-05-14T11:05:43.999Z</time>
      </trkpt>
      <trkpt lat="44.17598" lon="5.27965">
        <ele>1872.1</ele>
        <time>2026-05-14T11:05:44.999Z</time>
      </trkpt>
      <trkpt lat="44.17599" lon="5.27966">
        <ele>1871.7</ele>
        <time>2026-05-14T11:05:45.999Z</time>
      </trkpt>
      <trkpt lat="44.176" lon="5.27968">
        <ele>1871.3</ele>
        <time>2026-05-14T11:05:46.999Z</time>
      </trkpt>
      <trkpt lat="44.176" lon="5.27968">
        <ele>1871.1</ele>
        <time>2026-05-14T11:05:47.999Z</time>
      </trkpt>
      <trkpt lat="44.176" lon="5.27969">
        <ele>1870.6</ele>
        <time>2026-05-14T11:05:48.999Z</time>
      </trkpt>
      <trkpt lat="44.176" lon="5.2797">
        <ele>1869.7</ele>
        <time>2026-05-14T11:05:49.999Z</time>
      </trkpt>
      <trkpt lat="44.17601" lon="5.27971">
        <ele>1869.1</ele>
        <time>2026-05-14T11:05:50.999Z</time>
      </trkpt>
      <trkpt lat="44.17601" lon="5.27972">
        <ele>1868.3</ele>
        <time>2026-05-14T11:05:51.999Z</time>
      </trkpt>
      <trkpt lat="44.17602" lon="5.27973">
        <ele>1868.9</ele>
        <time>2026-05-14T11:05:52.999Z</time>
      </trkpt>
      <trkpt lat="44.17602" lon="5.27974">
        <ele>1869.4</ele>
        <time>2026-05-14T11:05:53.999Z</time>
      </trkpt>
      <trkpt lat="44.17602" lon="5.27974">
        <ele>1870.2</ele>
        <time>2026-05-14T11:05:54.999Z</time>
      </trkpt>
      <trkpt lat="44.17603" lon="5.27976">
        <ele>1870.6</ele>
        <time>2026-05-14T11:05:55.999Z</time>
      </trkpt>
      <trkpt lat="44.17603" lon="5.27977">
        <ele>1870.4</ele>
        <time>2026-05-14T11:05:56.999Z</time>
      </trkpt>
      <trkpt lat="44.17604" lon="5.2798">
        <ele>1870.5</ele>
        <time>2026-05-14T11:05:57.999Z</time>
      </trkpt>
      <trkpt lat="44.17605" lon="5.27981">
        <ele>1870.6</ele>
        <time>2026-05-14T11:05:58.999Z</time>
      </trkpt>
      <trkpt lat="44.17605" lon="5.27983">
        <ele>1871.1</ele>
        <time>2026-05-14T11:05:59.999Z</time>
      </trkpt>
      <trkpt lat="44.17606" lon="5.27984">
        <ele>1871.4</ele>
        <time>2026-05-14T11:06:00.999Z</time>
      </trkpt>
      <trkpt lat="44.17606" lon="5.27985">
        <ele>1871.2</ele>
        <time>2026-05-14T11:06:01.999Z</time>
      </trkpt>
      <trkpt lat="44.17607" lon="5.27986">
        <ele>1871.3</ele>
        <time>2026-05-14T11:06:02.999Z</time>
      </trkpt>
      <trkpt lat="44.17608" lon="5.27987">
        <ele>1871.6</ele>
        <time>2026-05-14T11:06:03.999Z</time>
      </trkpt>
      <trkpt lat="44.17608" lon="5.27988">
        <ele>1871.7</ele>
        <time>2026-05-14T11:06:04.999Z</time>
      </trkpt>
      <trkpt lat="44.17609" lon="5.27989">
        <ele>1871.5</ele>
        <time>2026-05-14T11:06:05.999Z</time>
      </trkpt>
      <trkpt lat="44.17609" lon="5.2799">
        <ele>1871.5</ele>
        <time>2026-05-14T11:06:06.999Z</time>
      </trkpt>
      <trkpt lat="44.1761" lon="5.27991">
        <ele>1871.7</ele>
        <time>2026-05-14T11:06:07.999Z</time>
      </trkpt>
      <trkpt lat="44.17611" lon="5.27994">
        <ele>1872.2</ele>
        <time>2026-05-14T11:06:08.999Z</time>
      </trkpt>
      <trkpt lat="44.17612" lon="5.27995">
        <ele>1872.4</ele>
        <time>2026-05-14T11:06:09.999Z</time>
      </trkpt>
      <trkpt lat="44.17612" lon="5.27997">
        <ele>1872.5</ele>
        <time>2026-05-14T11:06:10.999Z</time>
      </trkpt>
      <trkpt lat="44.17612" lon="5.27998">
        <ele>1872.5</ele>
        <time>2026-05-14T11:06:11.999Z</time>
      </trkpt>
      <trkpt lat="44.17613" lon="5.27998">
        <ele>1871.9</ele>
        <time>2026-05-14T11:06:12.999Z</time>
      </trkpt>
      <trkpt lat="44.17614" lon="5.28">
        <ele>1871.8</ele>
        <time>2026-05-14T11:06:13.999Z</time>
      </trkpt>
      <trkpt lat="44.17614" lon="5.28001">
        <ele>1871.6</ele>
        <time>2026-05-14T11:06:14.999Z</time>
      </trkpt>
      <trkpt lat="44.17614" lon="5.28002">
        <ele>1871.5</ele>
        <time>2026-05-14T11:06:15.999Z</time>
      </trkpt>
      <trkpt lat="44.17614" lon="5.28002">
        <ele>1870.8</ele>
        <time>2026-05-14T11:06:16.999Z</time>
      </trkpt>
      <trkpt lat="44.17614" lon="5.28002">
        <ele>1870</ele>
        <time>2026-05-14T11:06:17.999Z</time>
      </trkpt>
      <trkpt lat="44.17614" lon="5.28002">
        <ele>1869.7</ele>
        <time>2026-05-14T11:06:18.999Z</time>
      </trkpt>
      <trkpt lat="44.17614" lon="5.28002">
        <ele>1869.3</ele>
        <time>2026-05-14T11:06:19.999Z</time>
      </trkpt>
      <trkpt lat="44.17614" lon="5.28003">
        <ele>1869</ele>
        <time>2026-05-14T11:06:20.999Z</time>
      </trkpt>
      <trkpt lat="44.17614" lon="5.28004">
        <ele>1868.6</ele>
        <time>2026-05-14T11:06:21.999Z</time>
      </trkpt>
      <trkpt lat="44.17614" lon="5.28005">
        <ele>1868.1</ele>
        <time>2026-05-14T11:06:22.999Z</time>
      </trkpt>
      <trkpt lat="44.17615" lon="5.28006">
        <ele>1867.8</ele>
        <time>2026-05-14T11:06:23.999Z</time>
      </trkpt>
      <trkpt lat="44.17616" lon="5.28007">
        <ele>1867.8</ele>
        <time>2026-05-14T11:06:24.999Z</time>
      </trkpt>
      <trkpt lat="44.17616" lon="5.28008">
        <ele>1867.8</ele>
        <time>2026-05-14T11:06:25.999Z</time>
      </trkpt>
      <trkpt lat="44.17616" lon="5.28009">
        <ele>1867.2</ele>
        <time>2026-05-14T11:06:26.999Z</time>
      </trkpt>
      <trkpt lat="44.17617" lon="5.28011">
        <ele>1866.8</ele>
        <time>2026-05-14T11:06:27.999Z</time>
      </trkpt>
      <trkpt lat="44.17617" lon="5.28012">
        <ele>1866.8</ele>
        <time>2026-05-14T11:06:28.999Z</time>
      </trkpt>
      <trkpt lat="44.17617" lon="5.28013">
        <ele>1866.6</ele>
        <time>2026-05-14T11:06:29.999Z</time>
      </trkpt>
      <trkpt lat="44.17618" lon="5.28014">
        <ele>1866.2</ele>
        <time>2026-05-14T11:06:30.999Z</time>
      </trkpt>
      <trkpt lat="44.17618" lon="5.28015">
        <ele>1865.7</ele>
        <time>2026-05-14T11:06:31.999Z</time>
      </trkpt>
      <trkpt lat="44.17618" lon="5.28017">
        <ele>1865.5</ele>
        <time>2026-05-14T11:06:32.999Z</time>
      </trkpt>
      <trkpt lat="44.17618" lon="5.28018">
        <ele>1865.4</ele>
        <time>2026-05-14T11:06:33.999Z</time>
      </trkpt>
      <trkpt lat="44.17619" lon="5.28018">
        <ele>1865.5</ele>
        <time>2026-05-14T11:06:34.999Z</time>
      </trkpt>
      <trkpt lat="44.1762" lon="5.28019">
        <ele>1865.6</ele>
        <time>2026-05-14T11:06:35.999Z</time>
      </trkpt>
      <trkpt lat="44.1762" lon="5.2802">
        <ele>1865.2</ele>
        <time>2026-05-14T11:06:36.999Z</time>
      </trkpt>
      <trkpt lat="44.17621" lon="5.28021">
        <ele>1864.5</ele>
        <time>2026-05-14T11:06:37.999Z</time>
      </trkpt>
      <trkpt lat="44.1762" lon="5.28022">
        <ele>1864</ele>
        <time>2026-05-14T11:06:38.999Z</time>
      </trkpt>
      <trkpt lat="44.17621" lon="5.28024">
        <ele>1863.4</ele>
        <time>2026-05-14T11:06:39.999Z</time>
      </trkpt>
      <trkpt lat="44.17621" lon="5.28025">
        <ele>1862.7</ele>
        <time>2026-05-14T11:06:40.999Z</time>
      </trkpt>
      <trkpt lat="44.17621" lon="5.28026">
        <ele>1862.3</ele>
        <time>2026-05-14T11:06:41.999Z</time>
      </trkpt>
      <trkpt lat="44.17622" lon="5.28027">
        <ele>1862</ele>
        <time>2026-05-14T11:06:42.999Z</time>
      </trkpt>
      <trkpt lat="44.17622" lon="5.28029">
        <ele>1861.6</ele>
        <time>2026-05-14T11:06:43.999Z</time>
      </trkpt>
      <trkpt lat="44.17623" lon="5.28031">
        <ele>1861.7</ele>
        <time>2026-05-14T11:06:44.999Z</time>
      </trkpt>
      <trkpt lat="44.17624" lon="5.28032">
        <ele>1861.4</ele>
        <time>2026-05-14T11:06:45.999Z</time>
      </trkpt>
      <trkpt lat="44.17625" lon="5.28033">
        <ele>1861.3</ele>
        <time>2026-05-14T11:06:46.999Z</time>
      </trkpt>
      <trkpt lat="44.17625" lon="5.28034">
        <ele>1860.8</ele>
        <time>2026-05-14T11:06:47.999Z</time>
      </trkpt>
      <trkpt lat="44.17626" lon="5.28034">
        <ele>1860.8</ele>
        <time>2026-05-14T11:06:48.999Z</time>
      </trkpt>
      <trkpt lat="44.17626" lon="5.28036">
        <ele>1860.4</ele>
        <time>2026-05-14T11:06:49.999Z</time>
      </trkpt>
      <trkpt lat="44.17627" lon="5.28038">
        <ele>1860</ele>
        <time>2026-05-14T11:06:50.999Z</time>
      </trkpt>
      <trkpt lat="44.17627" lon="5.28041">
        <ele>1859.8</ele>
        <time>2026-05-14T11:06:51.999Z</time>
      </trkpt>
      <trkpt lat="44.17628" lon="5.28043">
        <ele>1859.7</ele>
        <time>2026-05-14T11:06:52.999Z</time>
      </trkpt>
      <trkpt lat="44.17629" lon="5.28043">
        <ele>1859.2</ele>
        <time>2026-05-14T11:06:53.999Z</time>
      </trkpt>
      <trkpt lat="44.17629" lon="5.28045">
        <ele>1859.3</ele>
        <time>2026-05-14T11:06:54.999Z</time>
      </trkpt>
      <trkpt lat="44.1763" lon="5.28046">
        <ele>1858.9</ele>
        <time>2026-05-14T11:06:55.999Z</time>
      </trkpt>
      <trkpt lat="44.1763" lon="5.28048">
        <ele>1858.4</ele>
        <time>2026-05-14T11:06:56.999Z</time>
      </trkpt>
      <trkpt lat="44.1763" lon="5.28049">
        <ele>1858</ele>
        <time>2026-05-14T11:06:57.999Z</time>
      </trkpt>
      <trkpt lat="44.1763" lon="5.2805">
        <ele>1858</ele>
        <time>2026-05-14T11:06:58.999Z</time>
      </trkpt>
      <trkpt lat="44.1763" lon="5.2805">
        <ele>1857.7</ele>
        <time>2026-05-14T11:06:59.999Z</time>
      </trkpt>
      <trkpt lat="44.1763" lon="5.28051">
        <ele>1857.3</ele>
        <time>2026-05-14T11:07:00.999Z</time>
      </trkpt>
      <trkpt lat="44.1763" lon="5.28052">
        <ele>1857</ele>
        <time>2026-05-14T11:07:01.999Z</time>
      </trkpt>
      <trkpt lat="44.17631" lon="5.28054">
        <ele>1856.8</ele>
        <time>2026-05-14T11:07:02.999Z</time>
      </trkpt>
      <trkpt lat="44.17631" lon="5.28055">
        <ele>1856.9</ele>
        <time>2026-05-14T11:07:03.999Z</time>
      </trkpt>
      <trkpt lat="44.17631" lon="5.28055">
        <ele>1856.6</ele>
        <time>2026-05-14T11:07:04.999Z</time>
      </trkpt>
      <trkpt lat="44.17632" lon="5.28056">
        <ele>1855.8</ele>
        <time>2026-05-14T11:07:05.999Z</time>
      </trkpt>
      <trkpt lat="44.17632" lon="5.28057">
        <ele>1855.5</ele>
        <time>2026-05-14T11:07:06.999Z</time>
      </trkpt>
      <trkpt lat="44.17632" lon="5.28057">
        <ele>1855</ele>
        <time>2026-05-14T11:07:07.999Z</time>
      </trkpt>
      <trkpt lat="44.17633" lon="5.28058">
        <ele>1854.7</ele>
        <time>2026-05-14T11:07:08.999Z</time>
      </trkpt>
      <trkpt lat="44.17634" lon="5.28059">
        <ele>1854.2</ele>
        <time>2026-05-14T11:07:09.999Z</time>
      </trkpt>
      <trkpt lat="44.17634" lon="5.28061">
        <ele>1853.9</ele>
        <time>2026-05-14T11:07:10.999Z</time>
      </trkpt>
      <trkpt lat="44.17635" lon="5.28062">
        <ele>1853.5</ele>
        <time>2026-05-14T11:07:11.999Z</time>
      </trkpt>
      <trkpt lat="44.17636" lon="5.28063">
        <ele>1853.4</ele>
        <time>2026-05-14T11:07:12.999Z</time>
      </trkpt>
      <trkpt lat="44.17636" lon="5.28064">
        <ele>1852.6</ele>
        <time>2026-05-14T11:07:13.999Z</time>
      </trkpt>
      <trkpt lat="44.17636" lon="5.28066">
        <ele>1852.4</ele>
        <time>2026-05-14T11:07:14.999Z</time>
      </trkpt>
      <trkpt lat="44.17636" lon="5.28067">
        <ele>1852.6</ele>
        <time>2026-05-14T11:07:15.999Z</time>
      </trkpt>
      <trkpt lat="44.17637" lon="5.28068">
        <ele>1852.6</ele>
        <time>2026-05-14T11:07:16.999Z</time>
      </trkpt>
      <trkpt lat="44.17637" lon="5.28069">
        <ele>1852.4</ele>
        <time>2026-05-14T11:07:17.999Z</time>
      </trkpt>
      <trkpt lat="44.17638" lon="5.2807">
        <ele>1852.7</ele>
        <time>2026-05-14T11:07:18.999Z</time>
      </trkpt>
      <trkpt lat="44.17638" lon="5.28071">
        <ele>1852.2</ele>
        <time>2026-05-14T11:07:19.999Z</time>
      </trkpt>
      <trkpt lat="44.17639" lon="5.28072">
        <ele>1851.7</ele>
        <time>2026-05-14T11:07:20.999Z</time>
      </trkpt>
      <trkpt lat="44.17639" lon="5.28072">
        <ele>1850.8</ele>
        <time>2026-05-14T11:07:21.999Z</time>
      </trkpt>
      <trkpt lat="44.17639" lon="5.28074">
        <ele>1850.2</ele>
        <time>2026-05-14T11:07:22.999Z</time>
      </trkpt>
      <trkpt lat="44.1764" lon="5.28075">
        <ele>1850</ele>
        <time>2026-05-14T11:07:23.999Z</time>
      </trkpt>
      <trkpt lat="44.1764" lon="5.28076">
        <ele>1849.7</ele>
        <time>2026-05-14T11:07:24.999Z</time>
      </trkpt>
      <trkpt lat="44.1764" lon="5.28077">
        <ele>1849.6</ele>
        <time>2026-05-14T11:07:25.999Z</time>
      </trkpt>
      <trkpt lat="44.17641" lon="5.28078">
        <ele>1849.3</ele>
        <time>2026-05-14T11:07:26.999Z</time>
      </trkpt>
      <trkpt lat="44.17641" lon="5.28079">
        <ele>1848.6</ele>
        <time>2026-05-14T11:07:27.999Z</time>
      </trkpt>
      <trkpt lat="44.17641" lon="5.28079">
        <ele>1848.2</ele>
        <time>2026-05-14T11:07:28.999Z</time>
      </trkpt>
      <trkpt lat="44.17641" lon="5.28081">
        <ele>1847.8</ele>
        <time>2026-05-14T11:07:29.999Z</time>
      </trkpt>
      <trkpt lat="44.17641" lon="5.28082">
        <ele>1847.8</ele>
        <time>2026-05-14T11:07:30.999Z</time>
      </trkpt>
      <trkpt lat="44.17641" lon="5.28083">
        <ele>1847.4</ele>
        <time>2026-05-14T11:07:31.999Z</time>
      </trkpt>
      <trkpt lat="44.17641" lon="5.28084">
        <ele>1847.4</ele>
        <time>2026-05-14T11:07:32.999Z</time>
      </trkpt>
      <trkpt lat="44.17641" lon="5.28084">
        <ele>1846.5</ele>
        <time>2026-05-14T11:07:33.999Z</time>
      </trkpt>
      <trkpt lat="44.17641" lon="5.28084">
        <ele>1846.4</ele>
        <time>2026-05-14T11:07:34.999Z</time>
      </trkpt>
      <trkpt lat="44.17641" lon="5.28084">
        <ele>1847.2</ele>
        <time>2026-05-14T11:07:35.999Z</time>
      </trkpt>
      <trkpt lat="44.17641" lon="5.28084">
        <ele>1847.3</ele>
        <time>2026-05-14T11:07:36.999Z</time>
      </trkpt>
      <trkpt lat="44.17641" lon="5.28084">
        <ele>1847.2</ele>
        <time>2026-05-14T11:07:37.999Z</time>
      </trkpt>
      <trkpt lat="44.17641" lon="5.28084">
        <ele>1847.2</ele>
        <time>2026-05-14T11:07:38.999Z</time>
      </trkpt>
      <trkpt lat="44.17641" lon="5.28084">
        <ele>1847.1</ele>
        <time>2026-05-14T11:07:39.999Z</time>
      </trkpt>
      <trkpt lat="44.17641" lon="5.28084">
        <ele>1847.1</ele>
        <time>2026-05-14T11:07:40.999Z</time>
      </trkpt>
      <trkpt lat="44.17641" lon="5.28085">
        <ele>1847.1</ele>
        <time>2026-05-14T11:07:41.999Z</time>
      </trkpt>
      <trkpt lat="44.17642" lon="5.28085">
        <ele>1846.9</ele>
        <time>2026-05-14T11:07:42.999Z</time>
      </trkpt>
      <trkpt lat="44.17642" lon="5.28086">
        <ele>1846.8</ele>
        <time>2026-05-14T11:07:43.999Z</time>
      </trkpt>
      <trkpt lat="44.17643" lon="5.28086">
        <ele>1846.6</ele>
        <time>2026-05-14T11:07:44.999Z</time>
      </trkpt>
      <trkpt lat="44.17643" lon="5.28087">
        <ele>1846.4</ele>
        <time>2026-05-14T11:07:45.999Z</time>
      </trkpt>
      <trkpt lat="44.17643" lon="5.28088">
        <ele>1846.2</ele>
        <time>2026-05-14T11:07:46.999Z</time>
      </trkpt>
      <trkpt lat="44.17644" lon="5.2809">
        <ele>1845.8</ele>
        <time>2026-05-14T11:07:47.999Z</time>
      </trkpt>
      <trkpt lat="44.17644" lon="5.28091">
        <ele>1845.4</ele>
        <time>2026-05-14T11:07:48.999Z</time>
      </trkpt>
      <trkpt lat="44.17645" lon="5.28093">
        <ele>1845.1</ele>
        <time>2026-05-14T11:07:49.999Z</time>
      </trkpt>
      <trkpt lat="44.17645" lon="5.28093">
        <ele>1844.6</ele>
        <time>2026-05-14T11:07:50.999Z</time>
      </trkpt>
      <trkpt lat="44.17645" lon="5.28094">
        <ele>1844.3</ele>
        <time>2026-05-14T11:07:51.999Z</time>
      </trkpt>
      <trkpt lat="44.17646" lon="5.28094">
        <ele>1843.7</ele>
        <time>2026-05-14T11:07:52.999Z</time>
      </trkpt>
      <trkpt lat="44.17646" lon="5.28095">
        <ele>1843.7</ele>
        <time>2026-05-14T11:07:53.999Z</time>
      </trkpt>
      <trkpt lat="44.17647" lon="5.28097">
        <ele>1843.5</ele>
        <time>2026-05-14T11:07:54.999Z</time>
      </trkpt>
      <trkpt lat="44.17648" lon="5.28098">
        <ele>1843.2</ele>
        <time>2026-05-14T11:07:55.999Z</time>
      </trkpt>
      <trkpt lat="44.17648" lon="5.281">
        <ele>1843.2</ele>
        <time>2026-05-14T11:07:56.999Z</time>
      </trkpt>
      <trkpt lat="44.17648" lon="5.28101">
        <ele>1843.1</ele>
        <time>2026-05-14T11:07:57.999Z</time>
      </trkpt>
      <trkpt lat="44.17648" lon="5.28101">
        <ele>1842.9</ele>
        <time>2026-05-14T11:07:58.999Z</time>
      </trkpt>
      <trkpt lat="44.17648" lon="5.28102">
        <ele>1843</ele>
        <time>2026-05-14T11:07:59.999Z</time>
      </trkpt>
      <trkpt lat="44.17648" lon="5.28104">
        <ele>1842.5</ele>
        <time>2026-05-14T11:08:00.999Z</time>
      </trkpt>
      <trkpt lat="44.17648" lon="5.28104">
        <ele>1842.3</ele>
        <time>2026-05-14T11:08:01.999Z</time>
      </trkpt>
      <trkpt lat="44.17648" lon="5.28105">
        <ele>1841.8</ele>
        <time>2026-05-14T11:08:02.999Z</time>
      </trkpt>
      <trkpt lat="44.17649" lon="5.28106">
        <ele>1841.9</ele>
        <time>2026-05-14T11:08:03.999Z</time>
      </trkpt>
      <trkpt lat="44.17649" lon="5.28107">
        <ele>1841.8</ele>
        <time>2026-05-14T11:08:04.999Z</time>
      </trkpt>
      <trkpt lat="44.17649" lon="5.28108">
        <ele>1841.8</ele>
        <time>2026-05-14T11:08:05.999Z</time>
      </trkpt>
      <trkpt lat="44.1765" lon="5.2811">
        <ele>1841.7</ele>
        <time>2026-05-14T11:08:06.999Z</time>
      </trkpt>
      <trkpt lat="44.1765" lon="5.28111">
        <ele>1841.4</ele>
        <time>2026-05-14T11:08:07.999Z</time>
      </trkpt>
      <trkpt lat="44.1765" lon="5.28112">
        <ele>1841.2</ele>
        <time>2026-05-14T11:08:08.999Z</time>
      </trkpt>
      <trkpt lat="44.1765" lon="5.28113">
        <ele>1841</ele>
        <time>2026-05-14T11:08:09.999Z</time>
      </trkpt>
      <trkpt lat="44.1765" lon="5.28114">
        <ele>1841</ele>
        <time>2026-05-14T11:08:10.999Z</time>
      </trkpt>
      <trkpt lat="44.17651" lon="5.28116">
        <ele>1840.9</ele>
        <time>2026-05-14T11:08:11.999Z</time>
      </trkpt>
      <trkpt lat="44.17651" lon="5.28118">
        <ele>1841</ele>
        <time>2026-05-14T11:08:12.999Z</time>
      </trkpt>
      <trkpt lat="44.17652" lon="5.2812">
        <ele>1841</ele>
        <time>2026-05-14T11:08:13.999Z</time>
      </trkpt>
      <trkpt lat="44.17652" lon="5.28121">
        <ele>1840.5</ele>
        <time>2026-05-14T11:08:14.999Z</time>
      </trkpt>
      <trkpt lat="44.17652" lon="5.28123">
        <ele>1840.4</ele>
        <time>2026-05-14T11:08:15.999Z</time>
      </trkpt>
      <trkpt lat="44.17652" lon="5.28124">
        <ele>1840.4</ele>
        <time>2026-05-14T11:08:16.999Z</time>
      </trkpt>
      <trkpt lat="44.17652" lon="5.28125">
        <ele>1840.1</ele>
        <time>2026-05-14T11:08:17.999Z</time>
      </trkpt>
      <trkpt lat="44.17653" lon="5.28126">
        <ele>1840.3</ele>
        <time>2026-05-14T11:08:18.999Z</time>
      </trkpt>
      <trkpt lat="44.17653" lon="5.28127">
        <ele>1840.4</ele>
        <time>2026-05-14T11:08:19.999Z</time>
      </trkpt>
      <trkpt lat="44.17653" lon="5.28128">
        <ele>1840.4</ele>
        <time>2026-05-14T11:08:20.999Z</time>
      </trkpt>
      <trkpt lat="44.17653" lon="5.28128">
        <ele>1840.4</ele>
        <time>2026-05-14T11:08:21.999Z</time>
      </trkpt>
      <trkpt lat="44.17653" lon="5.28129">
        <ele>1840.3</ele>
        <time>2026-05-14T11:08:22.999Z</time>
      </trkpt>
      <trkpt lat="44.17653" lon="5.2813">
        <ele>1840.1</ele>
        <time>2026-05-14T11:08:23.999Z</time>
      </trkpt>
      <trkpt lat="44.17653" lon="5.28131">
        <ele>1839.9</ele>
        <time>2026-05-14T11:08:24.999Z</time>
      </trkpt>
      <trkpt lat="44.17654" lon="5.28133">
        <ele>1839.6</ele>
        <time>2026-05-14T11:08:25.999Z</time>
      </trkpt>
      <trkpt lat="44.17654" lon="5.28134">
        <ele>1839.8</ele>
        <time>2026-05-14T11:08:26.999Z</time>
      </trkpt>
      <trkpt lat="44.17655" lon="5.28136">
        <ele>1839.4</ele>
        <time>2026-05-14T11:08:27.999Z</time>
      </trkpt>
      <trkpt lat="44.17655" lon="5.28137">
        <ele>1839</ele>
        <time>2026-05-14T11:08:28.999Z</time>
      </trkpt>
      <trkpt lat="44.17655" lon="5.28139">
        <ele>1838.7</ele>
        <time>2026-05-14T11:08:29.999Z</time>
      </trkpt>
      <trkpt lat="44.17655" lon="5.28141">
        <ele>1838.5</ele>
        <time>2026-05-14T11:08:30.999Z</time>
      </trkpt>
      <trkpt lat="44.17656" lon="5.28143">
        <ele>1838</ele>
        <time>2026-05-14T11:08:31.999Z</time>
      </trkpt>
      <trkpt lat="44.17656" lon="5.28145">
        <ele>1837.9</ele>
        <time>2026-05-14T11:08:32.999Z</time>
      </trkpt>
      <trkpt lat="44.17656" lon="5.28147">
        <ele>1837.6</ele>
        <time>2026-05-14T11:08:33.999Z</time>
      </trkpt>
      <trkpt lat="44.17656" lon="5.28148">
        <ele>1837.5</ele>
        <time>2026-05-14T11:08:34.999Z</time>
      </trkpt>
      <trkpt lat="44.17656" lon="5.28149">
        <ele>1837.6</ele>
        <time>2026-05-14T11:08:35.999Z</time>
      </trkpt>
      <trkpt lat="44.17656" lon="5.28149">
        <ele>1837.5</ele>
        <time>2026-05-14T11:08:36.999Z</time>
      </trkpt>
      <trkpt lat="44.17656" lon="5.2815">
        <ele>1837.3</ele>
        <time>2026-05-14T11:08:37.999Z</time>
      </trkpt>
      <trkpt lat="44.17656" lon="5.28151">
        <ele>1837.2</ele>
        <time>2026-05-14T11:08:38.999Z</time>
      </trkpt>
      <trkpt lat="44.17656" lon="5.28152">
        <ele>1836.6</ele>
        <time>2026-05-14T11:08:39.999Z</time>
      </trkpt>
      <trkpt lat="44.17657" lon="5.28152">
        <ele>1836.4</ele>
        <time>2026-05-14T11:08:40.999Z</time>
      </trkpt>
      <trkpt lat="44.17656" lon="5.28152">
        <ele>1835.8</ele>
        <time>2026-05-14T11:08:41.999Z</time>
      </trkpt>
      <trkpt lat="44.17656" lon="5.28152">
        <ele>1835.4</ele>
        <time>2026-05-14T11:08:42.999Z</time>
      </trkpt>
      <trkpt lat="44.17656" lon="5.28153">
        <ele>1835.1</ele>
        <time>2026-05-14T11:08:43.999Z</time>
      </trkpt>
      <trkpt lat="44.17656" lon="5.28153">
        <ele>1835.2</ele>
        <time>2026-05-14T11:08:44.999Z</time>
      </trkpt>
      <trkpt lat="44.17656" lon="5.28153">
        <ele>1835.3</ele>
        <time>2026-05-14T11:08:45.999Z</time>
      </trkpt>
      <trkpt lat="44.17656" lon="5.28153">
        <ele>1835.9</ele>
        <time>2026-05-14T11:08:46.999Z</time>
      </trkpt>
      <trkpt lat="44.17656" lon="5.28153">
        <ele>1836.2</ele>
        <time>2026-05-14T11:08:47.999Z</time>
      </trkpt>
      <trkpt lat="44.17656" lon="5.28153">
        <ele>1836.5</ele>
        <time>2026-05-14T11:08:48.999Z</time>
      </trkpt>
      <trkpt lat="44.17656" lon="5.28153">
        <ele>1836.7</ele>
        <time>2026-05-14T11:08:49.999Z</time>
      </trkpt>
      <trkpt lat="44.17656" lon="5.28153">
        <ele>1836.9</ele>
        <time>2026-05-14T11:08:50.999Z</time>
      </trkpt>
      <trkpt lat="44.17656" lon="5.28153">
        <ele>1836.9</ele>
        <time>2026-05-14T11:08:51.999Z</time>
      </trkpt>
      <trkpt lat="44.17656" lon="5.28153">
        <ele>1837.1</ele>
        <time>2026-05-14T11:08:52.999Z</time>
      </trkpt>
      <trkpt lat="44.17656" lon="5.28153">
        <ele>1837.1</ele>
        <time>2026-05-14T11:08:53.999Z</time>
      </trkpt>
      <trkpt lat="44.17656" lon="5.28153">
        <ele>1837.1</ele>
        <time>2026-05-14T11:08:54.999Z</time>
      </trkpt>
      <trkpt lat="44.17656" lon="5.28153">
        <ele>1837.1</ele>
        <time>2026-05-14T11:08:55.999Z</time>
      </trkpt>
      <trkpt lat="44.17656" lon="5.28153">
        <ele>1836.6</ele>
        <time>2026-05-14T11:08:56.999Z</time>
      </trkpt>
      <trkpt lat="44.17656" lon="5.28153">
        <ele>1836.3</ele>
        <time>2026-05-14T11:08:57.999Z</time>
      </trkpt>
      <trkpt lat="44.17656" lon="5.28153">
        <ele>1836.4</ele>
        <time>2026-05-14T11:08:58.999Z</time>
      </trkpt>
      <trkpt lat="44.17656" lon="5.28153">
        <ele>1836.2</ele>
        <time>2026-05-14T11:08:59.999Z</time>
      </trkpt>
      <trkpt lat="44.17656" lon="5.28153">
        <ele>1836.3</ele>
        <time>2026-05-14T11:09:00.999Z</time>
      </trkpt>
      <trkpt lat="44.17656" lon="5.28153">
        <ele>1836.8</ele>
        <time>2026-05-14T11:09:01.999Z</time>
      </trkpt>
      <trkpt lat="44.17656" lon="5.28153">
        <ele>1837.1</ele>
        <time>2026-05-14T11:09:02.999Z</time>
      </trkpt>
      <trkpt lat="44.17656" lon="5.28153">
        <ele>1837.4</ele>
        <time>2026-05-14T11:09:03.999Z</time>
      </trkpt>
      <trkpt lat="44.17656" lon="5.28153">
        <ele>1837.7</ele>
        <time>2026-05-14T11:09:04.999Z</time>
      </trkpt>
      <trkpt lat="44.17656" lon="5.28153">
        <ele>1837.7</ele>
        <time>2026-05-14T11:09:05.999Z</time>
      </trkpt>
      <trkpt lat="44.17656" lon="5.28153">
        <ele>1837.5</ele>
        <time>2026-05-14T11:09:06.999Z</time>
      </trkpt>
      <trkpt lat="44.17656" lon="5.28153">
        <ele>1837</ele>
        <time>2026-05-14T11:09:07.999Z</time>
      </trkpt>
      <trkpt lat="44.17656" lon="5.28153">
        <ele>1837.2</ele>
        <time>2026-05-14T11:09:08.999Z</time>
      </trkpt>
      <trkpt lat="44.17656" lon="5.28153">
        <ele>1837.1</ele>
        <time>2026-05-14T11:09:09.999Z</time>
      </trkpt>
      <trkpt lat="44.17656" lon="5.28153">
        <ele>1837.1</ele>
        <time>2026-05-14T11:09:10.999Z</time>
      </trkpt>
      <trkpt lat="44.17656" lon="5.28153">
        <ele>1837</ele>
        <time>2026-05-14T11:09:11.999Z</time>
      </trkpt>
      <trkpt lat="44.17656" lon="5.28153">
        <ele>1837</ele>
        <time>2026-05-14T11:09:12.999Z</time>
      </trkpt>
      <trkpt lat="44.17656" lon="5.28153">
        <ele>1837</ele>
        <time>2026-05-14T11:09:13.999Z</time>
      </trkpt>
      <trkpt lat="44.17656" lon="5.28153">
        <ele>1836.9</ele>
        <time>2026-05-14T11:09:14.999Z</time>
      </trkpt>
      <trkpt lat="44.17656" lon="5.28153">
        <ele>1837</ele>
        <time>2026-05-14T11:09:15.999Z</time>
      </trkpt>
      <trkpt lat="44.17656" lon="5.28153">
        <ele>1837.1</ele>
        <time>2026-05-14T11:09:16.999Z</time>
      </trkpt>
      <trkpt lat="44.17656" lon="5.28153">
        <ele>1837.1</ele>
        <time>2026-05-14T11:09:17.999Z</time>
      </trkpt>
      <trkpt lat="44.17656" lon="5.28153">
        <ele>1837</ele>
        <time>2026-05-14T11:09:18.999Z</time>
      </trkpt>
      <trkpt lat="44.17656" lon="5.28153">
        <ele>1837</ele>
        <time>2026-05-14T11:09:19.999Z</time>
      </trkpt>
      <trkpt lat="44.17656" lon="5.28153">
        <ele>1836.9</ele>
        <time>2026-05-14T11:09:20.999Z</time>
      </trkpt>
      <trkpt lat="44.17656" lon="5.28153">
        <ele>1837.5</ele>
        <time>2026-05-14T11:09:21.999Z</time>
      </trkpt>
      <trkpt lat="44.17656" lon="5.28153">
        <ele>1838.2</ele>
        <time>2026-05-14T11:09:22.999Z</time>
      </trkpt>
      <trkpt lat="44.17656" lon="5.28153">
        <ele>1838.8</ele>
        <time>2026-05-14T11:09:23.999Z</time>
      </trkpt>
      <trkpt lat="44.17656" lon="5.28154">
        <ele>1839.2</ele>
        <time>2026-05-14T11:09:24.999Z</time>
      </trkpt>
      <trkpt lat="44.17656" lon="5.28154">
        <ele>1839.3</ele>
        <time>2026-05-14T11:09:25.999Z</time>
      </trkpt>
      <trkpt lat="44.17655" lon="5.28154">
        <ele>1839</ele>
        <time>2026-05-14T11:09:26.999Z</time>
      </trkpt>
      <trkpt lat="44.17655" lon="5.28154">
        <ele>1838.7</ele>
        <time>2026-05-14T11:09:27.999Z</time>
      </trkpt>
      <trkpt lat="44.17655" lon="5.28153">
        <ele>1838.2</ele>
        <time>2026-05-14T11:09:28.999Z</time>
      </trkpt>
      <trkpt lat="44.17655" lon="5.28153">
        <ele>1837.8</ele>
        <time>2026-05-14T11:09:29.999Z</time>
      </trkpt>
      <trkpt lat="44.17655" lon="5.28153">
        <ele>1837.8</ele>
        <time>2026-05-14T11:09:30.999Z</time>
      </trkpt>
      <trkpt lat="44.17655" lon="5.28153">
        <ele>1837.7</ele>
        <time>2026-05-14T11:09:31.999Z</time>
      </trkpt>
      <trkpt lat="44.17655" lon="5.28153">
        <ele>1837.7</ele>
        <time>2026-05-14T11:09:32.999Z</time>
      </trkpt>
      <trkpt lat="44.17655" lon="5.28153">
        <ele>1837.7</ele>
        <time>2026-05-14T11:09:33.999Z</time>
      </trkpt>
      <trkpt lat="44.17655" lon="5.28153">
        <ele>1837.9</ele>
        <time>2026-05-14T11:09:34.999Z</time>
      </trkpt>
      <trkpt lat="44.17655" lon="5.28153">
        <ele>1838.1</ele>
        <time>2026-05-14T11:09:35.999Z</time>
      </trkpt>
      <trkpt lat="44.17655" lon="5.28153">
        <ele>1838.3</ele>
        <time>2026-05-14T11:09:36.999Z</time>
      </trkpt>
      <trkpt lat="44.17655" lon="5.28153">
        <ele>1838.4</ele>
        <time>2026-05-14T11:09:37.999Z</time>
      </trkpt>
      <trkpt lat="44.17655" lon="5.28153">
        <ele>1838.4</ele>
        <time>2026-05-14T11:09:38.999Z</time>
      </trkpt>
      <trkpt lat="44.17655" lon="5.28153">
        <ele>1838.3</ele>
        <time>2026-05-14T11:09:39.999Z</time>
      </trkpt>
      <trkpt lat="44.17655" lon="5.28153">
        <ele>1838.1</ele>
        <time>2026-05-14T11:09:40.999Z</time>
      </trkpt>
      <trkpt lat="44.17654" lon="5.28153">
        <ele>1838.1</ele>
        <time>2026-05-14T11:09:41.999Z</time>
      </trkpt>
      <trkpt lat="44.17654" lon="5.28153">
        <ele>1838.1</ele>
        <time>2026-05-14T11:09:42.999Z</time>
      </trkpt>
      <trkpt lat="44.17654" lon="5.28153">
        <ele>1838.2</ele>
        <time>2026-05-14T11:09:43.999Z</time>
      </trkpt>
      <trkpt lat="44.17654" lon="5.28153">
        <ele>1838.2</ele>
        <time>2026-05-14T11:09:44.999Z</time>
      </trkpt>
      <trkpt lat="44.17654" lon="5.28153">
        <ele>1838</ele>
        <time>2026-05-14T11:09:45.999Z</time>
      </trkpt>
      <trkpt lat="44.17654" lon="5.28153">
        <ele>1838.2</ele>
        <time>2026-05-14T11:09:46.999Z</time>
      </trkpt>
      <trkpt lat="44.17654" lon="5.28153">
        <ele>1838.5</ele>
        <time>2026-05-14T11:09:47.999Z</time>
      </trkpt>
      <trkpt lat="44.17654" lon="5.28153">
        <ele>1838.9</ele>
        <time>2026-05-14T11:09:48.999Z</time>
      </trkpt>
      <trkpt lat="44.17654" lon="5.28153">
        <ele>1838.9</ele>
        <time>2026-05-14T11:09:49.999Z</time>
      </trkpt>
      <trkpt lat="44.17654" lon="5.28153">
        <ele>1839</ele>
        <time>2026-05-14T11:09:50.999Z</time>
      </trkpt>
      <trkpt lat="44.17654" lon="5.28153">
        <ele>1839.2</ele>
        <time>2026-05-14T11:09:51.999Z</time>
      </trkpt>
      <trkpt lat="44.17654" lon="5.28153">
        <ele>1838.9</ele>
        <time>2026-05-14T11:09:52.999Z</time>
      </trkpt>
      <trkpt lat="44.17654" lon="5.28153">
        <ele>1838.9</ele>
        <time>2026-05-14T11:09:53.999Z</time>
      </trkpt>
      <trkpt lat="44.17654" lon="5.28153">
        <ele>1838.8</ele>
        <time>2026-05-14T11:09:54.999Z</time>
      </trkpt>
      <trkpt lat="44.17654" lon="5.28153">
        <ele>1838.6</ele>
        <time>2026-05-14T11:09:55.999Z</time>
      </trkpt>
      <trkpt lat="44.17654" lon="5.28154">
        <ele>1838.4</ele>
        <time>2026-05-14T11:09:56.999Z</time>
      </trkpt>
      <trkpt lat="44.17654" lon="5.28154">
        <ele>1838.5</ele>
        <time>2026-05-14T11:09:57.999Z</time>
      </trkpt>
      <trkpt lat="44.17654" lon="5.28154">
        <ele>1838.7</ele>
        <time>2026-05-14T11:09:58.999Z</time>
      </trkpt>
      <trkpt lat="44.17654" lon="5.28154">
        <ele>1839.1</ele>
        <time>2026-05-14T11:09:59.999Z</time>
      </trkpt>
      <trkpt lat="44.17654" lon="5.28154">
        <ele>1839.2</ele>
        <time>2026-05-14T11:10:00.999Z</time>
      </trkpt>
      <trkpt lat="44.17654" lon="5.28154">
        <ele>1839.3</ele>
        <time>2026-05-14T11:10:01.999Z</time>
      </trkpt>
      <trkpt lat="44.17654" lon="5.28154">
        <ele>1839.4</ele>
        <time>2026-05-14T11:10:02.999Z</time>
      </trkpt>
      <trkpt lat="44.17654" lon="5.28155">
        <ele>1839.4</ele>
        <time>2026-05-14T11:10:04.999Z</time>
      </trkpt>
      <trkpt lat="44.17654" lon="5.28155">
        <ele>1839.2</ele>
        <time>2026-05-14T11:10:05.999Z</time>
      </trkpt>
      <trkpt lat="44.17654" lon="5.28155">
        <ele>1839.1</ele>
        <time>2026-05-14T11:10:06.999Z</time>
      </trkpt>
      <trkpt lat="44.17654" lon="5.28155">
        <ele>1839.2</ele>
        <time>2026-05-14T11:10:07.999Z</time>
      </trkpt>
      <trkpt lat="44.17654" lon="5.28156">
        <ele>1839.3</ele>
        <time>2026-05-14T11:10:08.999Z</time>
      </trkpt>
      <trkpt lat="44.17654" lon="5.28156">
        <ele>1839.2</ele>
        <time>2026-05-14T11:10:09.999Z</time>
      </trkpt>
      <trkpt lat="44.17654" lon="5.28155">
        <ele>1838.9</ele>
        <time>2026-05-14T11:10:10.999Z</time>
      </trkpt>
      <trkpt lat="44.17654" lon="5.28156">
        <ele>1839.1</ele>
        <time>2026-05-14T11:10:11.999Z</time>
      </trkpt>
      <trkpt lat="44.17654" lon="5.28156">
        <ele>1839.2</ele>
        <time>2026-05-14T11:10:12.999Z</time>
      </trkpt>
      <trkpt lat="44.17654" lon="5.28156">
        <ele>1839.2</ele>
        <time>2026-05-14T11:10:13.999Z</time>
      </trkpt>
      <trkpt lat="44.17654" lon="5.28156">
        <ele>1839.2</ele>
        <time>2026-05-14T11:10:14.999Z</time>
      </trkpt>
      <trkpt lat="44.17654" lon="5.28156">
        <ele>1838.8</ele>
        <time>2026-05-14T11:10:15.999Z</time>
      </trkpt>
      <trkpt lat="44.17654" lon="5.28156">
        <ele>1838.2</ele>
        <time>2026-05-14T11:10:16.999Z</time>
      </trkpt>
      <trkpt lat="44.17654" lon="5.28156">
        <ele>1837.9</ele>
        <time>2026-05-14T11:10:17.999Z</time>
      </trkpt>
      <trkpt lat="44.17654" lon="5.28156">
        <ele>1837.9</ele>
        <time>2026-05-14T11:10:18.999Z</time>
      </trkpt>
      <trkpt lat="44.17653" lon="5.28156">
        <ele>1837.7</ele>
        <time>2026-05-14T11:10:19.999Z</time>
      </trkpt>
      <trkpt lat="44.17653" lon="5.28156">
        <ele>1837.5</ele>
        <time>2026-05-14T11:10:20.999Z</time>
      </trkpt>
      <trkpt lat="44.17653" lon="5.28156">
        <ele>1837.2</ele>
        <time>2026-05-14T11:10:21.999Z</time>
      </trkpt>
      <trkpt lat="44.17653" lon="5.28156">
        <ele>1837.1</ele>
        <time>2026-05-14T11:10:22.999Z</time>
      </trkpt>
      <trkpt lat="44.17653" lon="5.28156">
        <ele>1837.1</ele>
        <time>2026-05-14T11:10:23.999Z</time>
      </trkpt>
      <trkpt lat="44.17653" lon="5.28157">
        <ele>1837.2</ele>
        <time>2026-05-14T11:10:24.999Z</time>
      </trkpt>
      <trkpt lat="44.17653" lon="5.28157">
        <ele>1837.2</ele>
        <time>2026-05-14T11:10:25.999Z</time>
      </trkpt>
      <trkpt lat="44.17653" lon="5.28157">
        <ele>1837.5</ele>
        <time>2026-05-14T11:10:26.999Z</time>
      </trkpt>
      <trkpt lat="44.17653" lon="5.28157">
        <ele>1837.5</ele>
        <time>2026-05-14T11:10:27.999Z</time>
      </trkpt>
      <trkpt lat="44.17653" lon="5.28157">
        <ele>1837.5</ele>
        <time>2026-05-14T11:10:28.999Z</time>
      </trkpt>
      <trkpt lat="44.17653" lon="5.28157">
        <ele>1837.5</ele>
        <time>2026-05-14T11:10:29.999Z</time>
      </trkpt>
      <trkpt lat="44.17653" lon="5.28157">
        <ele>1837.3</ele>
        <time>2026-05-14T11:10:30.999Z</time>
      </trkpt>
      <trkpt lat="44.17653" lon="5.28157">
        <ele>1837.5</ele>
        <time>2026-05-14T11:10:31.999Z</time>
      </trkpt>
      <trkpt lat="44.17653" lon="5.28157">
        <ele>1837.5</ele>
        <time>2026-05-14T11:10:32.999Z</time>
      </trkpt>
      <trkpt lat="44.17652" lon="5.28157">
        <ele>1837.4</ele>
        <time>2026-05-14T11:10:33.999Z</time>
      </trkpt>
      <trkpt lat="44.17652" lon="5.28157">
        <ele>1837.6</ele>
        <time>2026-05-14T11:10:34.999Z</time>
      </trkpt>
      <trkpt lat="44.17652" lon="5.28156">
        <ele>1837.3</ele>
        <time>2026-05-14T11:10:35.999Z</time>
      </trkpt>
      <trkpt lat="44.17652" lon="5.28156">
        <ele>1837.1</ele>
        <time>2026-05-14T11:10:36.999Z</time>
      </trkpt>
      <trkpt lat="44.17652" lon="5.28157">
        <ele>1837</ele>
        <time>2026-05-14T11:10:37.999Z</time>
      </trkpt>
      <trkpt lat="44.17652" lon="5.28158">
        <ele>1837</ele>
        <time>2026-05-14T11:10:38.999Z</time>
      </trkpt>
      <trkpt lat="44.17652" lon="5.28158">
        <ele>1837.2</ele>
        <time>2026-05-14T11:10:39.999Z</time>
      </trkpt>
      <trkpt lat="44.17652" lon="5.28158">
        <ele>1837.1</ele>
        <time>2026-05-14T11:10:40.999Z</time>
      </trkpt>
      <trkpt lat="44.17652" lon="5.28158">
        <ele>1837.1</ele>
        <time>2026-05-14T11:10:41.999Z</time>
      </trkpt>
      <trkpt lat="44.17652" lon="5.28158">
        <ele>1837.1</ele>
        <time>2026-05-14T11:10:42.999Z</time>
      </trkpt>
      <trkpt lat="44.17652" lon="5.28158">
        <ele>1837.3</ele>
        <time>2026-05-14T11:10:43.999Z</time>
      </trkpt>
      <trkpt lat="44.17652" lon="5.28158">
        <ele>1837.5</ele>
        <time>2026-05-14T11:10:44.999Z</time>
      </trkpt>
      <trkpt lat="44.17652" lon="5.28158">
        <ele>1837.6</ele>
        <time>2026-05-14T11:10:45.999Z</time>
      </trkpt>
      <trkpt lat="44.17652" lon="5.28158">
        <ele>1837.5</ele>
        <time>2026-05-14T11:10:46.999Z</time>
      </trkpt>
      <trkpt lat="44.17652" lon="5.28158">
        <ele>1837.5</ele>
        <time>2026-05-14T11:10:47.999Z</time>
      </trkpt>
      <trkpt lat="44.17652" lon="5.28158">
        <ele>1837.6</ele>
        <time>2026-05-14T11:10:48.999Z</time>
      </trkpt>
      <trkpt lat="44.17652" lon="5.28158">
        <ele>1837.7</ele>
        <time>2026-05-14T11:10:49.999Z</time>
      </trkpt>
      <trkpt lat="44.17652" lon="5.28158">
        <ele>1837.8</ele>
        <time>2026-05-14T11:10:50.999Z</time>
      </trkpt>
      <trkpt lat="44.17652" lon="5.28158">
        <ele>1837.4</ele>
        <time>2026-05-14T11:10:51.999Z</time>
      </trkpt>
      <trkpt lat="44.17652" lon="5.28158">
        <ele>1837.5</ele>
        <time>2026-05-14T11:10:52.999Z</time>
      </trkpt>
      <trkpt lat="44.17652" lon="5.28158">
        <ele>1837.6</ele>
        <time>2026-05-14T11:10:53.999Z</time>
      </trkpt>
      <trkpt lat="44.17652" lon="5.28158">
        <ele>1837.7</ele>
        <time>2026-05-14T11:10:54.999Z</time>
      </trkpt>
      <trkpt lat="44.17652" lon="5.28158">
        <ele>1837.9</ele>
        <time>2026-05-14T11:10:55.999Z</time>
      </trkpt>
      <trkpt lat="44.17652" lon="5.28158">
        <ele>1838.3</ele>
        <time>2026-05-14T11:10:56.999Z</time>
      </trkpt>
      <trkpt lat="44.17652" lon="5.28158">
        <ele>1838.3</ele>
        <time>2026-05-14T11:10:57.999Z</time>
      </trkpt>
      <trkpt lat="44.17651" lon="5.28158">
        <ele>1838.4</ele>
        <time>2026-05-14T11:10:58.999Z</time>
      </trkpt>
      <trkpt lat="44.17651" lon="5.28158">
        <ele>1838.7</ele>
        <time>2026-05-14T11:10:59.999Z</time>
      </trkpt>
      <trkpt lat="44.17651" lon="5.28158">
        <ele>1838.8</ele>
        <time>2026-05-14T11:11:00.999Z</time>
      </trkpt>
      <trkpt lat="44.17651" lon="5.28159">
        <ele>1838.7</ele>
        <time>2026-05-14T11:11:01.999Z</time>
      </trkpt>
      <trkpt lat="44.17651" lon="5.28159">
        <ele>1838.6</ele>
        <time>2026-05-14T11:11:02.999Z</time>
      </trkpt>
      <trkpt lat="44.17652" lon="5.28159">
        <ele>1838.6</ele>
        <time>2026-05-14T11:11:03.999Z</time>
      </trkpt>
      <trkpt lat="44.17652" lon="5.28159">
        <ele>1838.4</ele>
        <time>2026-05-14T11:11:04.999Z</time>
      </trkpt>
      <trkpt lat="44.17652" lon="5.2816">
        <ele>1838.4</ele>
        <time>2026-05-14T11:11:05.999Z</time>
      </trkpt>
      <trkpt lat="44.17652" lon="5.2816">
        <ele>1838.4</ele>
        <time>2026-05-14T11:11:06.999Z</time>
      </trkpt>
      <trkpt lat="44.17653" lon="5.2816">
        <ele>1838.4</ele>
        <time>2026-05-14T11:11:07.999Z</time>
      </trkpt>
      <trkpt lat="44.17652" lon="5.2816">
        <ele>1838.1</ele>
        <time>2026-05-14T11:11:08.999Z</time>
      </trkpt>
      <trkpt lat="44.17651" lon="5.28159">
        <ele>1837.8</ele>
        <time>2026-05-14T11:11:09.999Z</time>
      </trkpt>
      <trkpt lat="44.17651" lon="5.28159">
        <ele>1837.6</ele>
        <time>2026-05-14T11:11:10.999Z</time>
      </trkpt>
      <trkpt lat="44.17651" lon="5.28159">
        <ele>1837.5</ele>
        <time>2026-05-14T11:11:11.999Z</time>
      </trkpt>
      <trkpt lat="44.17651" lon="5.28159">
        <ele>1837</ele>
        <time>2026-05-14T11:11:12.999Z</time>
      </trkpt>
      <trkpt lat="44.17651" lon="5.28159">
        <ele>1836.8</ele>
        <time>2026-05-14T11:11:13.999Z</time>
      </trkpt>
      <trkpt lat="44.17651" lon="5.28159">
        <ele>1837</ele>
        <time>2026-05-14T11:11:14.999Z</time>
      </trkpt>
      <trkpt lat="44.17651" lon="5.28158">
        <ele>1837.4</ele>
        <time>2026-05-14T11:11:15.999Z</time>
      </trkpt>
      <trkpt lat="44.17651" lon="5.28158">
        <ele>1837.9</ele>
        <time>2026-05-14T11:11:16.999Z</time>
      </trkpt>
      <trkpt lat="44.17651" lon="5.28158">
        <ele>1838.3</ele>
        <time>2026-05-14T11:11:17.999Z</time>
      </trkpt>
      <trkpt lat="44.17651" lon="5.28158">
        <ele>1838.5</ele>
        <time>2026-05-14T11:11:18.999Z</time>
      </trkpt>
      <trkpt lat="44.17651" lon="5.28158">
        <ele>1838.6</ele>
        <time>2026-05-14T11:11:19.999Z</time>
      </trkpt>
      <trkpt lat="44.17651" lon="5.28158">
        <ele>1838.7</ele>
        <time>2026-05-14T11:11:20.999Z</time>
      </trkpt>
      <trkpt lat="44.17651" lon="5.28158">
        <ele>1838.8</ele>
        <time>2026-05-14T11:11:21.999Z</time>
      </trkpt>
      <trkpt lat="44.17651" lon="5.28158">
        <ele>1838.6</ele>
        <time>2026-05-14T11:11:22.999Z</time>
      </trkpt>
      <trkpt lat="44.17651" lon="5.28158">
        <ele>1838.8</ele>
        <time>2026-05-14T11:11:23.999Z</time>
      </trkpt>
      <trkpt lat="44.17651" lon="5.28158">
        <ele>1838.9</ele>
        <time>2026-05-14T11:11:24.999Z</time>
      </trkpt>
      <trkpt lat="44.17651" lon="5.28158">
        <ele>1838.9</ele>
        <time>2026-05-14T11:11:25.999Z</time>
      </trkpt>
      <trkpt lat="44.17651" lon="5.28158">
        <ele>1839.1</ele>
        <time>2026-05-14T11:11:26.999Z</time>
      </trkpt>
      <trkpt lat="44.1765" lon="5.28158">
        <ele>1839.4</ele>
        <time>2026-05-14T11:11:27.999Z</time>
      </trkpt>
      <trkpt lat="44.1765" lon="5.28158">
        <ele>1839.5</ele>
        <time>2026-05-14T11:11:28.999Z</time>
      </trkpt>
      <trkpt lat="44.1765" lon="5.28158">
        <ele>1839.3</ele>
        <time>2026-05-14T11:11:29.999Z</time>
      </trkpt>
      <trkpt lat="44.1765" lon="5.28158">
        <ele>1839.3</ele>
        <time>2026-05-14T11:11:30.999Z</time>
      </trkpt>
      <trkpt lat="44.1765" lon="5.28158">
        <ele>1839.2</ele>
        <time>2026-05-14T11:11:31.999Z</time>
      </trkpt>
      <trkpt lat="44.1765" lon="5.28158">
        <ele>1839.4</ele>
        <time>2026-05-14T11:11:32.999Z</time>
      </trkpt>
      <trkpt lat="44.1765" lon="5.28158">
        <ele>1839.8</ele>
        <time>2026-05-14T11:11:33.999Z</time>
      </trkpt>
      <trkpt lat="44.1765" lon="5.28158">
        <ele>1840.2</ele>
        <time>2026-05-14T11:11:34.999Z</time>
      </trkpt>
      <trkpt lat="44.1765" lon="5.28158">
        <ele>1840.4</ele>
        <time>2026-05-14T11:11:35.999Z</time>
      </trkpt>
      <trkpt lat="44.1765" lon="5.28158">
        <ele>1840.7</ele>
        <time>2026-05-14T11:11:36.999Z</time>
      </trkpt>
      <trkpt lat="44.1765" lon="5.28158">
        <ele>1841.1</ele>
        <time>2026-05-14T11:11:37.999Z</time>
      </trkpt>
      <trkpt lat="44.1765" lon="5.28158">
        <ele>1841.3</ele>
        <time>2026-05-14T11:11:38.999Z</time>
      </trkpt>
      <trkpt lat="44.1765" lon="5.28158">
        <ele>1841.6</ele>
        <time>2026-05-14T11:11:39.999Z</time>
      </trkpt>
      <trkpt lat="44.1765" lon="5.28158">
        <ele>1841.8</ele>
        <time>2026-05-14T11:11:40.999Z</time>
      </trkpt>
      <trkpt lat="44.1765" lon="5.28157">
        <ele>1841.8</ele>
        <time>2026-05-14T11:11:41.999Z</time>
      </trkpt>
      <trkpt lat="44.1765" lon="5.28157">
        <ele>1841.9</ele>
        <time>2026-05-14T11:11:42.999Z</time>
      </trkpt>
      <trkpt lat="44.1765" lon="5.28157">
        <ele>1841.6</ele>
        <time>2026-05-14T11:11:43.999Z</time>
      </trkpt>
      <trkpt lat="44.1765" lon="5.28157">
        <ele>1841.3</ele>
        <time>2026-05-14T11:11:44.999Z</time>
      </trkpt>
      <trkpt lat="44.1765" lon="5.28158">
        <ele>1841.3</ele>
        <time>2026-05-14T11:11:45.999Z</time>
      </trkpt>
      <trkpt lat="44.1765" lon="5.28158">
        <ele>1841.2</ele>
        <time>2026-05-14T11:11:46.999Z</time>
      </trkpt>
      <trkpt lat="44.1765" lon="5.28159">
        <ele>1841</ele>
        <time>2026-05-14T11:11:47.999Z</time>
      </trkpt>
      <trkpt lat="44.1765" lon="5.28159">
        <ele>1840.9</ele>
        <time>2026-05-14T11:11:48.999Z</time>
      </trkpt>
      <trkpt lat="44.1765" lon="5.28159">
        <ele>1841</ele>
        <time>2026-05-14T11:11:49.999Z</time>
      </trkpt>
      <trkpt lat="44.1765" lon="5.28158">
        <ele>1841.6</ele>
        <time>2026-05-14T11:11:50.999Z</time>
      </trkpt>
      <trkpt lat="44.1765" lon="5.28158">
        <ele>1842.1</ele>
        <time>2026-05-14T11:11:51.999Z</time>
      </trkpt>
      <trkpt lat="44.17651" lon="5.28157">
        <ele>1842.2</ele>
        <time>2026-05-14T11:11:52.999Z</time>
      </trkpt>
      <trkpt lat="44.17651" lon="5.28156">
        <ele>1841.9</ele>
        <time>2026-05-14T11:11:53.999Z</time>
      </trkpt>
      <trkpt lat="44.17652" lon="5.28157">
        <ele>1842.5</ele>
        <time>2026-05-14T11:11:54.999Z</time>
      </trkpt>
      <trkpt lat="44.17652" lon="5.28158">
        <ele>1843</ele>
        <time>2026-05-14T11:11:55.999Z</time>
      </trkpt>
      <trkpt lat="44.17653" lon="5.28158">
        <ele>1843.3</ele>
        <time>2026-05-14T11:11:56.999Z</time>
      </trkpt>
      <trkpt lat="44.17653" lon="5.28158">
        <ele>1843.5</ele>
        <time>2026-05-14T11:11:57.999Z</time>
      </trkpt>
      <trkpt lat="44.17653" lon="5.28158">
        <ele>1843.2</ele>
        <time>2026-05-14T11:11:58.999Z</time>
      </trkpt>
      <trkpt lat="44.17653" lon="5.28158">
        <ele>1842.9</ele>
        <time>2026-05-14T11:11:59.999Z</time>
      </trkpt>
      <trkpt lat="44.17653" lon="5.28158">
        <ele>1842.6</ele>
        <time>2026-05-14T11:12:00.999Z</time>
      </trkpt>
      <trkpt lat="44.17653" lon="5.28158">
        <ele>1842.3</ele>
        <time>2026-05-14T11:12:01.999Z</time>
      </trkpt>
      <trkpt lat="44.17653" lon="5.28158">
        <ele>1842.1</ele>
        <time>2026-05-14T11:12:02.999Z</time>
      </trkpt>
      <trkpt lat="44.17653" lon="5.28158">
        <ele>1841.8</ele>
        <time>2026-05-14T11:12:03.999Z</time>
      </trkpt>
      <trkpt lat="44.17653" lon="5.28158">
        <ele>1841.6</ele>
        <time>2026-05-14T11:12:04.999Z</time>
      </trkpt>
      <trkpt lat="44.17653" lon="5.28158">
        <ele>1841.9</ele>
        <time>2026-05-14T11:12:05.999Z</time>
      </trkpt>
      <trkpt lat="44.17653" lon="5.28158">
        <ele>1842.2</ele>
        <time>2026-05-14T11:12:06.999Z</time>
      </trkpt>
      <trkpt lat="44.17653" lon="5.28158">
        <ele>1842.5</ele>
        <time>2026-05-14T11:12:07.999Z</time>
      </trkpt>
      <trkpt lat="44.17653" lon="5.28158">
        <ele>1842.4</ele>
        <time>2026-05-14T11:12:08.999Z</time>
      </trkpt>
      <trkpt lat="44.17653" lon="5.28158">
        <ele>1842.5</ele>
        <time>2026-05-14T11:12:09.999Z</time>
      </trkpt>
      <trkpt lat="44.17653" lon="5.28158">
        <ele>1842.3</ele>
        <time>2026-05-14T11:12:10.999Z</time>
      </trkpt>
      <trkpt lat="44.17654" lon="5.28158">
        <ele>1842.1</ele>
        <time>2026-05-14T11:12:11.999Z</time>
      </trkpt>
      <trkpt lat="44.17653" lon="5.28158">
        <ele>1842</ele>
        <time>2026-05-14T11:12:12.999Z</time>
      </trkpt>
      <trkpt lat="44.17654" lon="5.28158">
        <ele>1841.8</ele>
        <time>2026-05-14T11:12:13.999Z</time>
      </trkpt>
      <trkpt lat="44.17654" lon="5.28158">
        <ele>1841.5</ele>
        <time>2026-05-14T11:12:14.999Z</time>
      </trkpt>
      <trkpt lat="44.17654" lon="5.28158">
        <ele>1841.3</ele>
        <time>2026-05-14T11:12:15.999Z</time>
      </trkpt>
      <trkpt lat="44.17654" lon="5.28158">
        <ele>1841.1</ele>
        <time>2026-05-14T11:12:16.999Z</time>
      </trkpt>
      <trkpt lat="44.17654" lon="5.28158">
        <ele>1840.6</ele>
        <time>2026-05-14T11:12:17.999Z</time>
      </trkpt>
      <trkpt lat="44.17654" lon="5.28158">
        <ele>1840.3</ele>
        <time>2026-05-14T11:12:18.999Z</time>
      </trkpt>
      <trkpt lat="44.17654" lon="5.28158">
        <ele>1840.2</ele>
        <time>2026-05-14T11:12:19.999Z</time>
      </trkpt>
      <trkpt lat="44.17654" lon="5.28158">
        <ele>1840</ele>
        <time>2026-05-14T11:12:20.999Z</time>
      </trkpt>
      <trkpt lat="44.17654" lon="5.28158">
        <ele>1839.9</ele>
        <time>2026-05-14T11:12:21.999Z</time>
      </trkpt>
      <trkpt lat="44.17654" lon="5.28158">
        <ele>1839.8</ele>
        <time>2026-05-14T11:12:22.999Z</time>
      </trkpt>
      <trkpt lat="44.17654" lon="5.28157">
        <ele>1839.9</ele>
        <time>2026-05-14T11:12:23.999Z</time>
      </trkpt>
      <trkpt lat="44.17654" lon="5.28157">
        <ele>1839.9</ele>
        <time>2026-05-14T11:12:24.999Z</time>
      </trkpt>
      <trkpt lat="44.17654" lon="5.28157">
        <ele>1839.7</ele>
        <time>2026-05-14T11:12:25.999Z</time>
      </trkpt>
      <trkpt lat="44.17654" lon="5.28157">
        <ele>1839.9</ele>
        <time>2026-05-14T11:12:26.999Z</time>
      </trkpt>
      <trkpt lat="44.17654" lon="5.28157">
        <ele>1840</ele>
        <time>2026-05-14T11:12:27.999Z</time>
      </trkpt>
      <trkpt lat="44.17654" lon="5.28157">
        <ele>1840.2</ele>
        <time>2026-05-14T11:12:28.999Z</time>
      </trkpt>
      <trkpt lat="44.17654" lon="5.28157">
        <ele>1840.3</ele>
        <time>2026-05-14T11:12:29.999Z</time>
      </trkpt>
      <trkpt lat="44.17654" lon="5.28157">
        <ele>1840.3</ele>
        <time>2026-05-14T11:12:30.999Z</time>
      </trkpt>
      <trkpt lat="44.17654" lon="5.28157">
        <ele>1840.1</ele>
        <time>2026-05-14T11:12:31.999Z</time>
      </trkpt>
      <trkpt lat="44.17654" lon="5.28157">
        <ele>1839.8</ele>
        <time>2026-05-14T11:12:32.999Z</time>
      </trkpt>
      <trkpt lat="44.17654" lon="5.28157">
        <ele>1839.8</ele>
        <time>2026-05-14T11:12:33.999Z</time>
      </trkpt>
      <trkpt lat="44.17654" lon="5.28157">
        <ele>1839.9</ele>
        <time>2026-05-14T11:12:34.999Z</time>
      </trkpt>
      <trkpt lat="44.17654" lon="5.28157">
        <ele>1840</ele>
        <time>2026-05-14T11:12:35.999Z</time>
      </trkpt>
      <trkpt lat="44.17654" lon="5.28157">
        <ele>1840</ele>
        <time>2026-05-14T11:12:36.999Z</time>
      </trkpt>
      <trkpt lat="44.17654" lon="5.28157">
        <ele>1839.9</ele>
        <time>2026-05-14T11:12:37.999Z</time>
      </trkpt>
      <trkpt lat="44.17654" lon="5.28157">
        <ele>1839.6</ele>
        <time>2026-05-14T11:12:38.999Z</time>
      </trkpt>
      <trkpt lat="44.17654" lon="5.28157">
        <ele>1839.4</ele>
        <time>2026-05-14T11:12:39.999Z</time>
      </trkpt>
      <trkpt lat="44.17654" lon="5.28157">
        <ele>1839.4</ele>
        <time>2026-05-14T11:12:40.999Z</time>
      </trkpt>
      <trkpt lat="44.17654" lon="5.28156">
        <ele>1839.6</ele>
        <time>2026-05-14T11:12:41.999Z</time>
      </trkpt>
      <trkpt lat="44.17654" lon="5.28156">
        <ele>1839.7</ele>
        <time>2026-05-14T11:12:42.999Z</time>
      </trkpt>
      <trkpt lat="44.17654" lon="5.28156">
        <ele>1839.5</ele>
        <time>2026-05-14T11:12:43.999Z</time>
      </trkpt>
      <trkpt lat="44.17654" lon="5.28156">
        <ele>1839.1</ele>
        <time>2026-05-14T11:12:44.999Z</time>
      </trkpt>
      <trkpt lat="44.17654" lon="5.28156">
        <ele>1838.8</ele>
        <time>2026-05-14T11:12:45.999Z</time>
      </trkpt>
      <trkpt lat="44.17654" lon="5.28156">
        <ele>1838.5</ele>
        <time>2026-05-14T11:12:46.999Z</time>
      </trkpt>
      <trkpt lat="44.17654" lon="5.28156">
        <ele>1838.7</ele>
        <time>2026-05-14T11:12:47.999Z</time>
      </trkpt>
      <trkpt lat="44.17654" lon="5.28156">
        <ele>1838.9</ele>
        <time>2026-05-14T11:12:48.999Z</time>
      </trkpt>
      <trkpt lat="44.17654" lon="5.28156">
        <ele>1839.2</ele>
        <time>2026-05-14T11:12:49.999Z</time>
      </trkpt>
      <trkpt lat="44.17654" lon="5.28156">
        <ele>1839.6</ele>
        <time>2026-05-14T11:12:50.999Z</time>
      </trkpt>
      <trkpt lat="44.17654" lon="5.28156">
        <ele>1839.7</ele>
        <time>2026-05-14T11:12:51.999Z</time>
      </trkpt>
      <trkpt lat="44.17655" lon="5.28156">
        <ele>1839.2</ele>
        <time>2026-05-14T11:12:52.999Z</time>
      </trkpt>
      <trkpt lat="44.17654" lon="5.28156">
        <ele>1838.7</ele>
        <time>2026-05-14T11:12:53.999Z</time>
      </trkpt>
      <trkpt lat="44.17654" lon="5.28155">
        <ele>1839</ele>
        <time>2026-05-14T11:12:54.999Z</time>
      </trkpt>
      <trkpt lat="44.17655" lon="5.28155">
        <ele>1839.2</ele>
        <time>2026-05-14T11:12:55.999Z</time>
      </trkpt>
      <trkpt lat="44.17654" lon="5.28155">
        <ele>1839.1</ele>
        <time>2026-05-14T11:12:56.999Z</time>
      </trkpt>
      <trkpt lat="44.17654" lon="5.28155">
        <ele>1839</ele>
        <time>2026-05-14T11:12:57.999Z</time>
      </trkpt>
      <trkpt lat="44.17654" lon="5.28155">
        <ele>1838.9</ele>
        <time>2026-05-14T11:12:58.999Z</time>
      </trkpt>
      <trkpt lat="44.17654" lon="5.28155">
        <ele>1838.8</ele>
        <time>2026-05-14T11:12:59.999Z</time>
      </trkpt>
      <trkpt lat="44.17654" lon="5.28155">
        <ele>1838.8</ele>
        <time>2026-05-14T11:13:00.999Z</time>
      </trkpt>
      <trkpt lat="44.17654" lon="5.28155">
        <ele>1838.8</ele>
        <time>2026-05-14T11:13:01.999Z</time>
      </trkpt>
      <trkpt lat="44.17654" lon="5.28155">
        <ele>1838.6</ele>
        <time>2026-05-14T11:13:02.999Z</time>
      </trkpt>
      <trkpt lat="44.17654" lon="5.28155">
        <ele>1838.5</ele>
        <time>2026-05-14T11:13:03.999Z</time>
      </trkpt>
      <trkpt lat="44.17654" lon="5.28155">
        <ele>1838.5</ele>
        <time>2026-05-14T11:13:04.999Z</time>
      </trkpt>
      <trkpt lat="44.17654" lon="5.28155">
        <ele>1838.4</ele>
        <time>2026-05-14T11:13:05.999Z</time>
      </trkpt>
      <trkpt lat="44.17654" lon="5.28155">
        <ele>1838.1</ele>
        <time>2026-05-14T11:13:06.999Z</time>
      </trkpt>
      <trkpt lat="44.17654" lon="5.28155">
        <ele>1837.8</ele>
        <time>2026-05-14T11:13:07.999Z</time>
      </trkpt>
      <trkpt lat="44.17654" lon="5.28155">
        <ele>1837.2</ele>
        <time>2026-05-14T11:13:08.999Z</time>
      </trkpt>
      <trkpt lat="44.17654" lon="5.28155">
        <ele>1837.1</ele>
        <time>2026-05-14T11:13:09.999Z</time>
      </trkpt>
      <trkpt lat="44.17654" lon="5.28155">
        <ele>1836.9</ele>
        <time>2026-05-14T11:13:10.999Z</time>
      </trkpt>
      <trkpt lat="44.17654" lon="5.28155">
        <ele>1836.6</ele>
        <time>2026-05-14T11:13:11.999Z</time>
      </trkpt>
      <trkpt lat="44.17654" lon="5.28155">
        <ele>1836.5</ele>
        <time>2026-05-14T11:13:12.999Z</time>
      </trkpt>
      <trkpt lat="44.17654" lon="5.28155">
        <ele>1836.7</ele>
        <time>2026-05-14T11:13:13.999Z</time>
      </trkpt>
      <trkpt lat="44.17654" lon="5.28155">
        <ele>1836.8</ele>
        <time>2026-05-14T11:13:14.999Z</time>
      </trkpt>
      <trkpt lat="44.17654" lon="5.28155">
        <ele>1836.5</ele>
        <time>2026-05-14T11:13:15.999Z</time>
      </trkpt>
      <trkpt lat="44.17654" lon="5.28155">
        <ele>1836.4</ele>
        <time>2026-05-14T11:13:16.999Z</time>
      </trkpt>
      <trkpt lat="44.17654" lon="5.28155">
        <ele>1835.9</ele>
        <time>2026-05-14T11:13:17.999Z</time>
      </trkpt>
      <trkpt lat="44.17654" lon="5.28155">
        <ele>1835.5</ele>
        <time>2026-05-14T11:13:18.999Z</time>
      </trkpt>
      <trkpt lat="44.17654" lon="5.28155">
        <ele>1835.5</ele>
        <time>2026-05-14T11:13:19.999Z</time>
      </trkpt>
      <trkpt lat="44.17654" lon="5.28156">
        <ele>1835.4</ele>
        <time>2026-05-14T11:13:20.999Z</time>
      </trkpt>
      <trkpt lat="44.17654" lon="5.28156">
        <ele>1835.2</ele>
        <time>2026-05-14T11:13:21.999Z</time>
      </trkpt>
      <trkpt lat="44.17654" lon="5.28156">
        <ele>1835.7</ele>
        <time>2026-05-14T11:13:22.999Z</time>
      </trkpt>
      <trkpt lat="44.17654" lon="5.28156">
        <ele>1835.8</ele>
        <time>2026-05-14T11:13:23.999Z</time>
      </trkpt>
      <trkpt lat="44.17654" lon="5.28156">
        <ele>1835.7</ele>
        <time>2026-05-14T11:13:24.999Z</time>
      </trkpt>
      <trkpt lat="44.17654" lon="5.28156">
        <ele>1835.8</ele>
        <time>2026-05-14T11:13:25.999Z</time>
      </trkpt>
      <trkpt lat="44.17654" lon="5.28156">
        <ele>1835.9</ele>
        <time>2026-05-14T11:13:26.999Z</time>
      </trkpt>
      <trkpt lat="44.17654" lon="5.28156">
        <ele>1836</ele>
        <time>2026-05-14T11:13:27.999Z</time>
      </trkpt>
      <trkpt lat="44.17654" lon="5.28156">
        <ele>1836.1</ele>
        <time>2026-05-14T11:13:28.999Z</time>
      </trkpt>
      <trkpt lat="44.17654" lon="5.28156">
        <ele>1836.2</ele>
        <time>2026-05-14T11:13:29.999Z</time>
      </trkpt>
      <trkpt lat="44.17654" lon="5.28156">
        <ele>1836.2</ele>
        <time>2026-05-14T11:13:30.999Z</time>
      </trkpt>
      <trkpt lat="44.17654" lon="5.28156">
        <ele>1836</ele>
        <time>2026-05-14T11:13:31.999Z</time>
      </trkpt>
      <trkpt lat="44.17654" lon="5.28156">
        <ele>1836</ele>
        <time>2026-05-14T11:13:32.999Z</time>
      </trkpt>
      <trkpt lat="44.17654" lon="5.28156">
        <ele>1835.8</ele>
        <time>2026-05-14T11:13:33.999Z</time>
      </trkpt>
      <trkpt lat="44.17654" lon="5.28156">
        <ele>1835.8</ele>
        <time>2026-05-14T11:13:34.999Z</time>
      </trkpt>
      <trkpt lat="44.17654" lon="5.28156">
        <ele>1835.8</ele>
        <time>2026-05-14T11:13:35.999Z</time>
      </trkpt>
      <trkpt lat="44.17654" lon="5.28156">
        <ele>1835.8</ele>
        <time>2026-05-14T11:13:36.999Z</time>
      </trkpt>
      <trkpt lat="44.17655" lon="5.28156">
        <ele>1835.8</ele>
        <time>2026-05-14T11:13:37.999Z</time>
      </trkpt>
      <trkpt lat="44.17655" lon="5.28156">
        <ele>1835.7</ele>
        <time>2026-05-14T11:13:38.999Z</time>
      </trkpt>
      <trkpt lat="44.17655" lon="5.28156">
        <ele>1835.6</ele>
        <time>2026-05-14T11:13:39.999Z</time>
      </trkpt>
      <trkpt lat="44.17655" lon="5.28156">
        <ele>1835.6</ele>
        <time>2026-05-14T11:13:40.999Z</time>
      </trkpt>
      <trkpt lat="44.17655" lon="5.28156">
        <ele>1835.5</ele>
        <time>2026-05-14T11:13:41.999Z</time>
      </trkpt>
      <trkpt lat="44.17655" lon="5.28156">
        <ele>1835.5</ele>
        <time>2026-05-14T11:13:42.999Z</time>
      </trkpt>
      <trkpt lat="44.17655" lon="5.28156">
        <ele>1835.7</ele>
        <time>2026-05-14T11:13:43.999Z</time>
      </trkpt>
      <trkpt lat="44.17655" lon="5.28156">
        <ele>1835.8</ele>
        <time>2026-05-14T11:13:44.999Z</time>
      </trkpt>
      <trkpt lat="44.17655" lon="5.28156">
        <ele>1835.8</ele>
        <time>2026-05-14T11:13:45.999Z</time>
      </trkpt>
      <trkpt lat="44.17655" lon="5.28156">
        <ele>1835.9</ele>
        <time>2026-05-14T11:13:46.999Z</time>
      </trkpt>
      <trkpt lat="44.17655" lon="5.28156">
        <ele>1836.1</ele>
        <time>2026-05-14T11:13:47.999Z</time>
      </trkpt>
      <trkpt lat="44.17655" lon="5.28157">
        <ele>1836.2</ele>
        <time>2026-05-14T11:13:48.999Z</time>
      </trkpt>
      <trkpt lat="44.17655" lon="5.28157">
        <ele>1836.1</ele>
        <time>2026-05-14T11:13:49.999Z</time>
      </trkpt>
      <trkpt lat="44.17655" lon="5.28157">
        <ele>1835.9</ele>
        <time>2026-05-14T11:13:50.999Z</time>
      </trkpt>
      <trkpt lat="44.17655" lon="5.28157">
        <ele>1835.9</ele>
        <time>2026-05-14T11:13:51.999Z</time>
      </trkpt>
      <trkpt lat="44.17655" lon="5.28157">
        <ele>1835.9</ele>
        <time>2026-05-14T11:13:52.999Z</time>
      </trkpt>
      <trkpt lat="44.17655" lon="5.28157">
        <ele>1835.6</ele>
        <time>2026-05-14T11:13:53.999Z</time>
      </trkpt>
      <trkpt lat="44.17655" lon="5.28157">
        <ele>1835.4</ele>
        <time>2026-05-14T11:13:54.999Z</time>
      </trkpt>
      <trkpt lat="44.17655" lon="5.28157">
        <ele>1835.2</ele>
        <time>2026-05-14T11:13:55.999Z</time>
      </trkpt>
      <trkpt lat="44.17655" lon="5.28157">
        <ele>1835.1</ele>
        <time>2026-05-14T11:13:56.999Z</time>
      </trkpt>
      <trkpt lat="44.17655" lon="5.28157">
        <ele>1834.9</ele>
        <time>2026-05-14T11:13:57.999Z</time>
      </trkpt>
      <trkpt lat="44.17655" lon="5.28157">
        <ele>1834.7</ele>
        <time>2026-05-14T11:13:58.999Z</time>
      </trkpt>
      <trkpt lat="44.17655" lon="5.28157">
        <ele>1834.7</ele>
        <time>2026-05-14T11:13:59.999Z</time>
      </trkpt>
      <trkpt lat="44.17655" lon="5.28157">
        <ele>1834.9</ele>
        <time>2026-05-14T11:14:00.999Z</time>
      </trkpt>
      <trkpt lat="44.17655" lon="5.28157">
        <ele>1834.9</ele>
        <time>2026-05-14T11:14:01.999Z</time>
      </trkpt>
      <trkpt lat="44.17655" lon="5.28157">
        <ele>1835</ele>
        <time>2026-05-14T11:14:02.999Z</time>
      </trkpt>
      <trkpt lat="44.17655" lon="5.28157">
        <ele>1834.8</ele>
        <time>2026-05-14T11:14:03.999Z</time>
      </trkpt>
      <trkpt lat="44.17655" lon="5.28157">
        <ele>1834.9</ele>
        <time>2026-05-14T11:14:04.999Z</time>
      </trkpt>
      <trkpt lat="44.17655" lon="5.28157">
        <ele>1835</ele>
        <time>2026-05-14T11:14:05.999Z</time>
      </trkpt>
      <trkpt lat="44.17655" lon="5.28157">
        <ele>1835.3</ele>
        <time>2026-05-14T11:14:06.999Z</time>
      </trkpt>
      <trkpt lat="44.17655" lon="5.28157">
        <ele>1835.4</ele>
        <time>2026-05-14T11:14:07.999Z</time>
      </trkpt>
      <trkpt lat="44.17655" lon="5.28157">
        <ele>1835.8</ele>
        <time>2026-05-14T11:14:08.999Z</time>
      </trkpt>
      <trkpt lat="44.17655" lon="5.28157">
        <ele>1835.8</ele>
        <time>2026-05-14T11:14:09.999Z</time>
      </trkpt>
      <trkpt lat="44.17655" lon="5.28157">
        <ele>1835.8</ele>
        <time>2026-05-14T11:14:10.999Z</time>
      </trkpt>
      <trkpt lat="44.17655" lon="5.28157">
        <ele>1835.4</ele>
        <time>2026-05-14T11:14:11.999Z</time>
      </trkpt>
      <trkpt lat="44.17655" lon="5.28158">
        <ele>1835.1</ele>
        <time>2026-05-14T11:14:12.999Z</time>
      </trkpt>
      <trkpt lat="44.17655" lon="5.28158">
        <ele>1834.7</ele>
        <time>2026-05-14T11:14:13.999Z</time>
      </trkpt>
      <trkpt lat="44.17655" lon="5.28158">
        <ele>1834.7</ele>
        <time>2026-05-14T11:14:14.999Z</time>
      </trkpt>
      <trkpt lat="44.17656" lon="5.28159">
        <ele>1834.6</ele>
        <time>2026-05-14T11:14:15.999Z</time>
      </trkpt>
      <trkpt lat="44.17656" lon="5.28159">
        <ele>1834.7</ele>
        <time>2026-05-14T11:14:16.999Z</time>
      </trkpt>
      <trkpt lat="44.17656" lon="5.28159">
        <ele>1834.8</ele>
        <time>2026-05-14T11:14:17.999Z</time>
      </trkpt>
      <trkpt lat="44.17656" lon="5.28159">
        <ele>1835</ele>
        <time>2026-05-14T11:14:18.999Z</time>
      </trkpt>
      <trkpt lat="44.17656" lon="5.28159">
        <ele>1834.8</ele>
        <time>2026-05-14T11:14:19.999Z</time>
      </trkpt>
      <trkpt lat="44.17656" lon="5.28159">
        <ele>1834.8</ele>
        <time>2026-05-14T11:14:20.999Z</time>
      </trkpt>
      <trkpt lat="44.17656" lon="5.28159">
        <ele>1834.6</ele>
        <time>2026-05-14T11:14:21.999Z</time>
      </trkpt>
      <trkpt lat="44.17656" lon="5.28159">
        <ele>1834.4</ele>
        <time>2026-05-14T11:14:22.999Z</time>
      </trkpt>
      <trkpt lat="44.17656" lon="5.28159">
        <ele>1834.1</ele>
        <time>2026-05-14T11:14:23.999Z</time>
      </trkpt>
      <trkpt lat="44.17656" lon="5.28159">
        <ele>1833.7</ele>
        <time>2026-05-14T11:14:24.999Z</time>
      </trkpt>
      <trkpt lat="44.17656" lon="5.28159">
        <ele>1833.5</ele>
        <time>2026-05-14T11:14:25.999Z</time>
      </trkpt>
      <trkpt lat="44.17656" lon="5.28159">
        <ele>1833.3</ele>
        <time>2026-05-14T11:14:26.999Z</time>
      </trkpt>
      <trkpt lat="44.17656" lon="5.28159">
        <ele>1833.1</ele>
        <time>2026-05-14T11:14:27.999Z</time>
      </trkpt>
      <trkpt lat="44.17656" lon="5.28159">
        <ele>1833</ele>
        <time>2026-05-14T11:14:28.999Z</time>
      </trkpt>
      <trkpt lat="44.17656" lon="5.28159">
        <ele>1832.9</ele>
        <time>2026-05-14T11:14:29.999Z</time>
      </trkpt>
      <trkpt lat="44.17656" lon="5.28159">
        <ele>1833</ele>
        <time>2026-05-14T11:14:30.999Z</time>
      </trkpt>
      <trkpt lat="44.17656" lon="5.28159">
        <ele>1833.1</ele>
        <time>2026-05-14T11:14:31.999Z</time>
      </trkpt>
      <trkpt lat="44.17656" lon="5.28159">
        <ele>1833.1</ele>
        <time>2026-05-14T11:14:32.999Z</time>
      </trkpt>
      <trkpt lat="44.17656" lon="5.28159">
        <ele>1833.1</ele>
        <time>2026-05-14T11:14:33.999Z</time>
      </trkpt>
      <trkpt lat="44.17656" lon="5.28159">
        <ele>1833</ele>
        <time>2026-05-14T11:14:34.999Z</time>
      </trkpt>
      <trkpt lat="44.17656" lon="5.28159">
        <ele>1832.7</ele>
        <time>2026-05-14T11:14:35.999Z</time>
      </trkpt>
      <trkpt lat="44.17656" lon="5.28159">
        <ele>1832.5</ele>
        <time>2026-05-14T11:14:36.999Z</time>
      </trkpt>
      <trkpt lat="44.17656" lon="5.28158">
        <ele>1832.2</ele>
        <time>2026-05-14T11:14:37.999Z</time>
      </trkpt>
      <trkpt lat="44.17655" lon="5.28158">
        <ele>1832</ele>
        <time>2026-05-14T11:14:38.999Z</time>
      </trkpt>
      <trkpt lat="44.17655" lon="5.28158">
        <ele>1832.3</ele>
        <time>2026-05-14T11:14:39.999Z</time>
      </trkpt>
      <trkpt lat="44.17655" lon="5.28158">
        <ele>1832.5</ele>
        <time>2026-05-14T11:14:40.999Z</time>
      </trkpt>
      <trkpt lat="44.17655" lon="5.28158">
        <ele>1832.2</ele>
        <time>2026-05-14T11:14:41.999Z</time>
      </trkpt>
      <trkpt lat="44.17655" lon="5.28158">
        <ele>1832.7</ele>
        <time>2026-05-14T11:14:42.999Z</time>
      </trkpt>
      <trkpt lat="44.17656" lon="5.28158">
        <ele>1833</ele>
        <time>2026-05-14T11:14:43.999Z</time>
      </trkpt>
      <trkpt lat="44.17656" lon="5.28158">
        <ele>1833.3</ele>
        <time>2026-05-14T11:14:44.999Z</time>
      </trkpt>
      <trkpt lat="44.17656" lon="5.28158">
        <ele>1833.2</ele>
        <time>2026-05-14T11:14:45.999Z</time>
      </trkpt>
      <trkpt lat="44.17655" lon="5.28158">
        <ele>1833.2</ele>
        <time>2026-05-14T11:14:46.999Z</time>
      </trkpt>
      <trkpt lat="44.17655" lon="5.28158">
        <ele>1833.3</ele>
        <time>2026-05-14T11:14:48.999Z</time>
      </trkpt>
      <trkpt lat="44.17655" lon="5.28158">
        <ele>1833.3</ele>
        <time>2026-05-14T11:14:49.999Z</time>
      </trkpt>
      <trkpt lat="44.17655" lon="5.28158">
        <ele>1833.1</ele>
        <time>2026-05-14T11:14:50.999Z</time>
      </trkpt>
      <trkpt lat="44.17655" lon="5.28158">
        <ele>1832.9</ele>
        <time>2026-05-14T11:14:51.999Z</time>
      </trkpt>
      <trkpt lat="44.17655" lon="5.28158">
        <ele>1832.9</ele>
        <time>2026-05-14T11:14:52.999Z</time>
      </trkpt>
      <trkpt lat="44.17656" lon="5.28158">
        <ele>1832.7</ele>
        <time>2026-05-14T11:14:53.999Z</time>
      </trkpt>
      <trkpt lat="44.17656" lon="5.28158">
        <ele>1832.7</ele>
        <time>2026-05-14T11:14:54.999Z</time>
      </trkpt>
      <trkpt lat="44.17656" lon="5.28158">
        <ele>1832.6</ele>
        <time>2026-05-14T11:14:55.999Z</time>
      </trkpt>
      <trkpt lat="44.17656" lon="5.28158">
        <ele>1832.6</ele>
        <time>2026-05-14T11:14:56.999Z</time>
      </trkpt>
      <trkpt lat="44.17656" lon="5.28159">
        <ele>1832.6</ele>
        <time>2026-05-14T11:14:57.999Z</time>
      </trkpt>
      <trkpt lat="44.17656" lon="5.28159">
        <ele>1832.6</ele>
        <time>2026-05-14T11:14:58.999Z</time>
      </trkpt>
      <trkpt lat="44.17657" lon="5.28159">
        <ele>1832.6</ele>
        <time>2026-05-14T11:14:59.999Z</time>
      </trkpt>
      <trkpt lat="44.17657" lon="5.28159">
        <ele>1832.5</ele>
        <time>2026-05-14T11:15:00.999Z</time>
      </trkpt>
      <trkpt lat="44.17657" lon="5.28159">
        <ele>1832.7</ele>
        <time>2026-05-14T11:15:01.999Z</time>
      </trkpt>
      <trkpt lat="44.17656" lon="5.2816">
        <ele>1832.7</ele>
        <time>2026-05-14T11:15:02.999Z</time>
      </trkpt>
      <trkpt lat="44.17656" lon="5.2816">
        <ele>1832.7</ele>
        <time>2026-05-14T11:15:03.999Z</time>
      </trkpt>
      <trkpt lat="44.17657" lon="5.2816">
        <ele>1832.7</ele>
        <time>2026-05-14T11:15:04.999Z</time>
      </trkpt>
      <trkpt lat="44.17657" lon="5.2816">
        <ele>1832.3</ele>
        <time>2026-05-14T11:15:05.999Z</time>
      </trkpt>
      <trkpt lat="44.17657" lon="5.28161">
        <ele>1832.3</ele>
        <time>2026-05-14T11:15:06.999Z</time>
      </trkpt>
      <trkpt lat="44.17657" lon="5.28162">
        <ele>1832.3</ele>
        <time>2026-05-14T11:15:07.999Z</time>
      </trkpt>
      <trkpt lat="44.17657" lon="5.28162">
        <ele>1832.3</ele>
        <time>2026-05-14T11:15:08.999Z</time>
      </trkpt>
      <trkpt lat="44.17657" lon="5.28163">
        <ele>1832.3</ele>
        <time>2026-05-14T11:15:09.999Z</time>
      </trkpt>
      <trkpt lat="44.17657" lon="5.28163">
        <ele>1832.3</ele>
        <time>2026-05-14T11:15:10.999Z</time>
      </trkpt>
      <trkpt lat="44.17657" lon="5.28163">
        <ele>1832.3</ele>
        <time>2026-05-14T11:15:11.999Z</time>
      </trkpt>
      <trkpt lat="44.17657" lon="5.28163">
        <ele>1832.1</ele>
        <time>2026-05-14T11:15:12.999Z</time>
      </trkpt>
      <trkpt lat="44.17657" lon="5.28162">
        <ele>1831.9</ele>
        <time>2026-05-14T11:15:13.999Z</time>
      </trkpt>
      <trkpt lat="44.17657" lon="5.28163">
        <ele>1831.8</ele>
        <time>2026-05-14T11:15:14.999Z</time>
      </trkpt>
      <trkpt lat="44.17658" lon="5.28164">
        <ele>1831.8</ele>
        <time>2026-05-14T11:15:15.999Z</time>
      </trkpt>
      <trkpt lat="44.17657" lon="5.28164">
        <ele>1831.6</ele>
        <time>2026-05-14T11:15:16.999Z</time>
      </trkpt>
      <trkpt lat="44.17658" lon="5.28163">
        <ele>1831.2</ele>
        <time>2026-05-14T11:15:17.999Z</time>
      </trkpt>
      <trkpt lat="44.17659" lon="5.28164">
        <ele>1830.8</ele>
        <time>2026-05-14T11:15:18.999Z</time>
      </trkpt>
      <trkpt lat="44.17659" lon="5.28164">
        <ele>1831</ele>
        <time>2026-05-14T11:15:19.999Z</time>
      </trkpt>
      <trkpt lat="44.17659" lon="5.28164">
        <ele>1831</ele>
        <time>2026-05-14T11:15:20.999Z</time>
      </trkpt>
      <trkpt lat="44.17659" lon="5.28164">
        <ele>1830.8</ele>
        <time>2026-05-14T11:15:21.999Z</time>
      </trkpt>
      <trkpt lat="44.17659" lon="5.28164">
        <ele>1830.9</ele>
        <time>2026-05-14T11:15:22.999Z</time>
      </trkpt>
      <trkpt lat="44.17659" lon="5.28164">
        <ele>1830.5</ele>
        <time>2026-05-14T11:15:23.999Z</time>
      </trkpt>
      <trkpt lat="44.17659" lon="5.28164">
        <ele>1830.4</ele>
        <time>2026-05-14T11:15:24.999Z</time>
      </trkpt>
      <trkpt lat="44.17659" lon="5.28164">
        <ele>1830.3</ele>
        <time>2026-05-14T11:15:25.999Z</time>
      </trkpt>
      <trkpt lat="44.17659" lon="5.28164">
        <ele>1830.4</ele>
        <time>2026-05-14T11:15:26.999Z</time>
      </trkpt>
      <trkpt lat="44.17659" lon="5.28164">
        <ele>1830.7</ele>
        <time>2026-05-14T11:15:27.999Z</time>
      </trkpt>
      <trkpt lat="44.17659" lon="5.28164">
        <ele>1830.8</ele>
        <time>2026-05-14T11:15:28.999Z</time>
      </trkpt>
      <trkpt lat="44.17659" lon="5.28164">
        <ele>1830.9</ele>
        <time>2026-05-14T11:15:29.999Z</time>
      </trkpt>
      <trkpt lat="44.17659" lon="5.28164">
        <ele>1831.1</ele>
        <time>2026-05-14T11:15:30.999Z</time>
      </trkpt>
      <trkpt lat="44.17659" lon="5.28164">
        <ele>1831.2</ele>
        <time>2026-05-14T11:15:31.999Z</time>
      </trkpt>
      <trkpt lat="44.17659" lon="5.28164">
        <ele>1831.3</ele>
        <time>2026-05-14T11:15:32.999Z</time>
      </trkpt>
      <trkpt lat="44.17659" lon="5.28164">
        <ele>1831.4</ele>
        <time>2026-05-14T11:15:33.999Z</time>
      </trkpt>
      <trkpt lat="44.17659" lon="5.28164">
        <ele>1831.4</ele>
        <time>2026-05-14T11:15:34.999Z</time>
      </trkpt>
      <trkpt lat="44.17659" lon="5.28164">
        <ele>1831.5</ele>
        <time>2026-05-14T11:15:35.999Z</time>
      </trkpt>
      <trkpt lat="44.17659" lon="5.28164">
        <ele>1831.8</ele>
        <time>2026-05-14T11:15:36.999Z</time>
      </trkpt>
      <trkpt lat="44.17659" lon="5.28164">
        <ele>1832</ele>
        <time>2026-05-14T11:15:37.999Z</time>
      </trkpt>
      <trkpt lat="44.17659" lon="5.28164">
        <ele>1832.2</ele>
        <time>2026-05-14T11:15:38.999Z</time>
      </trkpt>
      <trkpt lat="44.17659" lon="5.28164">
        <ele>1832.2</ele>
        <time>2026-05-14T11:15:39.999Z</time>
      </trkpt>
      <trkpt lat="44.17658" lon="5.28163">
        <ele>1832.4</ele>
        <time>2026-05-14T11:15:40.999Z</time>
      </trkpt>
      <trkpt lat="44.17658" lon="5.28163">
        <ele>1832.4</ele>
        <time>2026-05-14T11:15:41.999Z</time>
      </trkpt>
      <trkpt lat="44.17658" lon="5.28163">
        <ele>1832.1</ele>
        <time>2026-05-14T11:15:42.999Z</time>
      </trkpt>
      <trkpt lat="44.17658" lon="5.28163">
        <ele>1832.1</ele>
        <time>2026-05-14T11:15:43.999Z</time>
      </trkpt>
      <trkpt lat="44.17658" lon="5.28163">
        <ele>1832.1</ele>
        <time>2026-05-14T11:15:44.999Z</time>
      </trkpt>
      <trkpt lat="44.17658" lon="5.28163">
        <ele>1832.2</ele>
        <time>2026-05-14T11:15:45.999Z</time>
      </trkpt>
      <trkpt lat="44.17658" lon="5.28163">
        <ele>1832.2</ele>
        <time>2026-05-14T11:15:46.999Z</time>
      </trkpt>
      <trkpt lat="44.17658" lon="5.28163">
        <ele>1832.2</ele>
        <time>2026-05-14T11:15:47.999Z</time>
      </trkpt>
      <trkpt lat="44.17658" lon="5.28163">
        <ele>1832.4</ele>
        <time>2026-05-14T11:15:48.999Z</time>
      </trkpt>
      <trkpt lat="44.17658" lon="5.28163">
        <ele>1832.5</ele>
        <time>2026-05-14T11:15:49.999Z</time>
      </trkpt>
      <trkpt lat="44.17658" lon="5.28163">
        <ele>1832.4</ele>
        <time>2026-05-14T11:15:50.999Z</time>
      </trkpt>
      <trkpt lat="44.17658" lon="5.28163">
        <ele>1832.5</ele>
        <time>2026-05-14T11:15:51.999Z</time>
      </trkpt>
      <trkpt lat="44.17658" lon="5.28163">
        <ele>1832.5</ele>
        <time>2026-05-14T11:15:52.999Z</time>
      </trkpt>
      <trkpt lat="44.17658" lon="5.28163">
        <ele>1832.5</ele>
        <time>2026-05-14T11:15:53.999Z</time>
      </trkpt>
      <trkpt lat="44.17658" lon="5.28163">
        <ele>1832.6</ele>
        <time>2026-05-14T11:15:54.999Z</time>
      </trkpt>
      <trkpt lat="44.17658" lon="5.28163">
        <ele>1832.5</ele>
        <time>2026-05-14T11:15:55.999Z</time>
      </trkpt>
      <trkpt lat="44.17658" lon="5.28163">
        <ele>1832.4</ele>
        <time>2026-05-14T11:15:56.999Z</time>
      </trkpt>
      <trkpt lat="44.17658" lon="5.28163">
        <ele>1832.4</ele>
        <time>2026-05-14T11:15:57.999Z</time>
      </trkpt>
      <trkpt lat="44.17658" lon="5.28163">
        <ele>1832.4</ele>
        <time>2026-05-14T11:15:58.999Z</time>
      </trkpt>
      <trkpt lat="44.17658" lon="5.28163">
        <ele>1832.3</ele>
        <time>2026-05-14T11:15:59.999Z</time>
      </trkpt>
      <trkpt lat="44.17658" lon="5.28163">
        <ele>1832.3</ele>
        <time>2026-05-14T11:16:00.999Z</time>
      </trkpt>
      <trkpt lat="44.17658" lon="5.28163">
        <ele>1832.2</ele>
        <time>2026-05-14T11:16:01.999Z</time>
      </trkpt>
      <trkpt lat="44.17658" lon="5.28163">
        <ele>1832.1</ele>
        <time>2026-05-14T11:16:02.999Z</time>
      </trkpt>
      <trkpt lat="44.17658" lon="5.28163">
        <ele>1832.2</ele>
        <time>2026-05-14T11:16:03.999Z</time>
      </trkpt>
      <trkpt lat="44.17658" lon="5.28163">
        <ele>1832.3</ele>
        <time>2026-05-14T11:16:04.999Z</time>
      </trkpt>
      <trkpt lat="44.17658" lon="5.28163">
        <ele>1832.3</ele>
        <time>2026-05-14T11:16:05.999Z</time>
      </trkpt>
      <trkpt lat="44.17658" lon="5.28163">
        <ele>1832.4</ele>
        <time>2026-05-14T11:16:06.999Z</time>
      </trkpt>
      <trkpt lat="44.17658" lon="5.28163">
        <ele>1832.3</ele>
        <time>2026-05-14T11:16:07.999Z</time>
      </trkpt>
      <trkpt lat="44.17658" lon="5.28163">
        <ele>1832.2</ele>
        <time>2026-05-14T11:16:08.999Z</time>
      </trkpt>
      <trkpt lat="44.17658" lon="5.28163">
        <ele>1832.2</ele>
        <time>2026-05-14T11:16:09.999Z</time>
      </trkpt>
      <trkpt lat="44.17658" lon="5.28163">
        <ele>1832.1</ele>
        <time>2026-05-14T11:16:10.999Z</time>
      </trkpt>
      <trkpt lat="44.17658" lon="5.28163">
        <ele>1832.3</ele>
        <time>2026-05-14T11:16:11.999Z</time>
      </trkpt>
      <trkpt lat="44.17658" lon="5.28163">
        <ele>1832.4</ele>
        <time>2026-05-14T11:16:12.999Z</time>
      </trkpt>
      <trkpt lat="44.17658" lon="5.28163">
        <ele>1832.5</ele>
        <time>2026-05-14T11:16:13.999Z</time>
      </trkpt>
      <trkpt lat="44.17658" lon="5.28163">
        <ele>1832.4</ele>
        <time>2026-05-14T11:16:14.999Z</time>
      </trkpt>
      <trkpt lat="44.17658" lon="5.28163">
        <ele>1832.1</ele>
        <time>2026-05-14T11:16:15.999Z</time>
      </trkpt>
      <trkpt lat="44.17658" lon="5.28163">
        <ele>1832</ele>
        <time>2026-05-14T11:16:16.999Z</time>
      </trkpt>
      <trkpt lat="44.17658" lon="5.28163">
        <ele>1831.8</ele>
        <time>2026-05-14T11:16:17.999Z</time>
      </trkpt>
      <trkpt lat="44.17658" lon="5.28163">
        <ele>1831.7</ele>
        <time>2026-05-14T11:16:18.999Z</time>
      </trkpt>
      <trkpt lat="44.17658" lon="5.28163">
        <ele>1831.5</ele>
        <time>2026-05-14T11:16:19.999Z</time>
      </trkpt>
      <trkpt lat="44.17658" lon="5.28163">
        <ele>1831.5</ele>
        <time>2026-05-14T11:16:20.999Z</time>
      </trkpt>
      <trkpt lat="44.17658" lon="5.28163">
        <ele>1831.6</ele>
        <time>2026-05-14T11:16:21.999Z</time>
      </trkpt>
      <trkpt lat="44.17658" lon="5.28163">
        <ele>1831.6</ele>
        <time>2026-05-14T11:16:22.999Z</time>
      </trkpt>
      <trkpt lat="44.17658" lon="5.28163">
        <ele>1831.7</ele>
        <time>2026-05-14T11:16:23.999Z</time>
      </trkpt>
      <trkpt lat="44.17658" lon="5.28163">
        <ele>1831.5</ele>
        <time>2026-05-14T11:16:24.999Z</time>
      </trkpt>
      <trkpt lat="44.17658" lon="5.28163">
        <ele>1831.4</ele>
        <time>2026-05-14T11:16:25.999Z</time>
      </trkpt>
      <trkpt lat="44.17658" lon="5.28163">
        <ele>1831.3</ele>
        <time>2026-05-14T11:16:26.999Z</time>
      </trkpt>
      <trkpt lat="44.17658" lon="5.28163">
        <ele>1831.1</ele>
        <time>2026-05-14T11:16:27.999Z</time>
      </trkpt>
      <trkpt lat="44.17658" lon="5.28163">
        <ele>1830.8</ele>
        <time>2026-05-14T11:16:28.999Z</time>
      </trkpt>
      <trkpt lat="44.17658" lon="5.28163">
        <ele>1830.6</ele>
        <time>2026-05-14T11:16:29.999Z</time>
      </trkpt>
      <trkpt lat="44.17658" lon="5.28163">
        <ele>1830.3</ele>
        <time>2026-05-14T11:16:30.999Z</time>
      </trkpt>
      <trkpt lat="44.17658" lon="5.28163">
        <ele>1830.2</ele>
        <time>2026-05-14T11:16:31.999Z</time>
      </trkpt>
      <trkpt lat="44.17658" lon="5.28163">
        <ele>1830</ele>
        <time>2026-05-14T11:16:32.999Z</time>
      </trkpt>
      <trkpt lat="44.17658" lon="5.28163">
        <ele>1829.9</ele>
        <time>2026-05-14T11:16:33.999Z</time>
      </trkpt>
      <trkpt lat="44.17658" lon="5.28163">
        <ele>1829.9</ele>
        <time>2026-05-14T11:16:34.999Z</time>
      </trkpt>
      <trkpt lat="44.17658" lon="5.28163">
        <ele>1829.9</ele>
        <time>2026-05-14T11:16:35.999Z</time>
      </trkpt>
      <trkpt lat="44.17658" lon="5.28163">
        <ele>1829.7</ele>
        <time>2026-05-14T11:16:36.999Z</time>
      </trkpt>
      <trkpt lat="44.17658" lon="5.28163">
        <ele>1829.7</ele>
        <time>2026-05-14T11:16:37.999Z</time>
      </trkpt>
      <trkpt lat="44.17658" lon="5.28163">
        <ele>1829.7</ele>
        <time>2026-05-14T11:16:38.999Z</time>
      </trkpt>
      <trkpt lat="44.17658" lon="5.28163">
        <ele>1829.7</ele>
        <time>2026-05-14T11:16:39.999Z</time>
      </trkpt>
      <trkpt lat="44.17658" lon="5.28163">
        <ele>1829.5</ele>
        <time>2026-05-14T11:16:40.999Z</time>
      </trkpt>
      <trkpt lat="44.17658" lon="5.28163">
        <ele>1829.5</ele>
        <time>2026-05-14T11:16:41.999Z</time>
      </trkpt>
      <trkpt lat="44.17658" lon="5.28163">
        <ele>1829.4</ele>
        <time>2026-05-14T11:16:42.999Z</time>
      </trkpt>
      <trkpt lat="44.17658" lon="5.28163">
        <ele>1829.5</ele>
        <time>2026-05-14T11:16:43.999Z</time>
      </trkpt>
      <trkpt lat="44.17658" lon="5.28163">
        <ele>1829.4</ele>
        <time>2026-05-14T11:16:44.999Z</time>
      </trkpt>
      <trkpt lat="44.17658" lon="5.28163">
        <ele>1830</ele>
        <time>2026-05-14T11:16:45.999Z</time>
      </trkpt>
      <trkpt lat="44.17659" lon="5.28162">
        <ele>1830.6</ele>
        <time>2026-05-14T11:16:46.999Z</time>
      </trkpt>
      <trkpt lat="44.17659" lon="5.28162">
        <ele>1831</ele>
        <time>2026-05-14T11:16:47.999Z</time>
      </trkpt>
      <trkpt lat="44.17659" lon="5.28162">
        <ele>1831</ele>
        <time>2026-05-14T11:16:48.999Z</time>
      </trkpt>
      <trkpt lat="44.17659" lon="5.28162">
        <ele>1831.2</ele>
        <time>2026-05-14T11:16:49.999Z</time>
      </trkpt>
      <trkpt lat="44.17659" lon="5.28162">
        <ele>1831.2</ele>
        <time>2026-05-14T11:16:50.999Z</time>
      </trkpt>
      <trkpt lat="44.17659" lon="5.28162">
        <ele>1831.2</ele>
        <time>2026-05-14T11:16:51.999Z</time>
      </trkpt>
      <trkpt lat="44.17659" lon="5.28162">
        <ele>1831.4</ele>
        <time>2026-05-14T11:16:52.999Z</time>
      </trkpt>
      <trkpt lat="44.17659" lon="5.28162">
        <ele>1831.4</ele>
        <time>2026-05-14T11:16:53.999Z</time>
      </trkpt>
      <trkpt lat="44.17659" lon="5.28162">
        <ele>1831.3</ele>
        <time>2026-05-14T11:16:54.999Z</time>
      </trkpt>
      <trkpt lat="44.17659" lon="5.28162">
        <ele>1831.3</ele>
        <time>2026-05-14T11:16:55.999Z</time>
      </trkpt>
      <trkpt lat="44.17659" lon="5.28162">
        <ele>1831.1</ele>
        <time>2026-05-14T11:16:56.999Z</time>
      </trkpt>
      <trkpt lat="44.17659" lon="5.28162">
        <ele>1831</ele>
        <time>2026-05-14T11:16:57.999Z</time>
      </trkpt>
      <trkpt lat="44.17659" lon="5.28161">
        <ele>1830.9</ele>
        <time>2026-05-14T11:16:58.999Z</time>
      </trkpt>
      <trkpt lat="44.17659" lon="5.28161">
        <ele>1831.1</ele>
        <time>2026-05-14T11:16:59.999Z</time>
      </trkpt>
      <trkpt lat="44.17659" lon="5.28161">
        <ele>1831.2</ele>
        <time>2026-05-14T11:17:00.999Z</time>
      </trkpt>
      <trkpt lat="44.17659" lon="5.28161">
        <ele>1831.4</ele>
        <time>2026-05-14T11:17:01.999Z</time>
      </trkpt>
      <trkpt lat="44.17659" lon="5.28161">
        <ele>1831.8</ele>
        <time>2026-05-14T11:17:02.999Z</time>
      </trkpt>
      <trkpt lat="44.17659" lon="5.28161">
        <ele>1831.8</ele>
        <time>2026-05-14T11:17:03.999Z</time>
      </trkpt>
      <trkpt lat="44.17659" lon="5.28161">
        <ele>1831.8</ele>
        <time>2026-05-14T11:17:04.999Z</time>
      </trkpt>
      <trkpt lat="44.17659" lon="5.28161">
        <ele>1831.9</ele>
        <time>2026-05-14T11:17:05.999Z</time>
      </trkpt>
      <trkpt lat="44.17659" lon="5.28161">
        <ele>1831.9</ele>
        <time>2026-05-14T11:17:06.999Z</time>
      </trkpt>
      <trkpt lat="44.17659" lon="5.28161">
        <ele>1831.8</ele>
        <time>2026-05-14T11:17:07.999Z</time>
      </trkpt>
      <trkpt lat="44.17659" lon="5.28161">
        <ele>1831.7</ele>
        <time>2026-05-14T11:17:08.999Z</time>
      </trkpt>
      <trkpt lat="44.17659" lon="5.28161">
        <ele>1831.5</ele>
        <time>2026-05-14T11:17:09.999Z</time>
      </trkpt>
      <trkpt lat="44.17659" lon="5.28161">
        <ele>1831.4</ele>
        <time>2026-05-14T11:17:10.999Z</time>
      </trkpt>
      <trkpt lat="44.17659" lon="5.28161">
        <ele>1831.3</ele>
        <time>2026-05-14T11:17:11.999Z</time>
      </trkpt>
      <trkpt lat="44.17659" lon="5.28161">
        <ele>1831.1</ele>
        <time>2026-05-14T11:17:12.999Z</time>
      </trkpt>
      <trkpt lat="44.17659" lon="5.28161">
        <ele>1831</ele>
        <time>2026-05-14T11:17:13.999Z</time>
      </trkpt>
      <trkpt lat="44.17659" lon="5.28161">
        <ele>1831.1</ele>
        <time>2026-05-14T11:17:14.999Z</time>
      </trkpt>
      <trkpt lat="44.17659" lon="5.28161">
        <ele>1830.9</ele>
        <time>2026-05-14T11:17:15.999Z</time>
      </trkpt>
      <trkpt lat="44.17659" lon="5.28161">
        <ele>1830.9</ele>
        <time>2026-05-14T11:17:16.999Z</time>
      </trkpt>
      <trkpt lat="44.17659" lon="5.28161">
        <ele>1830.8</ele>
        <time>2026-05-14T11:17:17.999Z</time>
      </trkpt>
      <trkpt lat="44.17659" lon="5.2816">
        <ele>1830.8</ele>
        <time>2026-05-14T11:17:18.999Z</time>
      </trkpt>
      <trkpt lat="44.17659" lon="5.28161">
        <ele>1830.8</ele>
        <time>2026-05-14T11:17:19.999Z</time>
      </trkpt>
      <trkpt lat="44.17659" lon="5.28161">
        <ele>1830.8</ele>
        <time>2026-05-14T11:17:20.999Z</time>
      </trkpt>
      <trkpt lat="44.17659" lon="5.28161">
        <ele>1830.6</ele>
        <time>2026-05-14T11:17:21.999Z</time>
      </trkpt>
      <trkpt lat="44.17659" lon="5.28161">
        <ele>1830.6</ele>
        <time>2026-05-14T11:17:22.999Z</time>
      </trkpt>
      <trkpt lat="44.17659" lon="5.28161">
        <ele>1830.6</ele>
        <time>2026-05-14T11:17:23.999Z</time>
      </trkpt>
      <trkpt lat="44.17659" lon="5.28161">
        <ele>1830.6</ele>
        <time>2026-05-14T11:17:24.999Z</time>
      </trkpt>
      <trkpt lat="44.17659" lon="5.28161">
        <ele>1830.6</ele>
        <time>2026-05-14T11:17:25.999Z</time>
      </trkpt>
      <trkpt lat="44.17659" lon="5.28161">
        <ele>1830.3</ele>
        <time>2026-05-14T11:17:26.999Z</time>
      </trkpt>
      <trkpt lat="44.17659" lon="5.28161">
        <ele>1830.3</ele>
        <time>2026-05-14T11:17:27.999Z</time>
      </trkpt>
      <trkpt lat="44.17659" lon="5.28161">
        <ele>1830.2</ele>
        <time>2026-05-14T11:17:28.999Z</time>
      </trkpt>
      <trkpt lat="44.17659" lon="5.28161">
        <ele>1830.1</ele>
        <time>2026-05-14T11:17:29.999Z</time>
      </trkpt>
      <trkpt lat="44.17659" lon="5.28161">
        <ele>1830.1</ele>
        <time>2026-05-14T11:17:30.999Z</time>
      </trkpt>
      <trkpt lat="44.17659" lon="5.28161">
        <ele>1830</ele>
        <time>2026-05-14T11:17:31.999Z</time>
      </trkpt>
      <trkpt lat="44.17659" lon="5.28161">
        <ele>1829.9</ele>
        <time>2026-05-14T11:17:32.999Z</time>
      </trkpt>
      <trkpt lat="44.17659" lon="5.28161">
        <ele>1830</ele>
        <time>2026-05-14T11:17:33.999Z</time>
      </trkpt>
      <trkpt lat="44.17659" lon="5.28161">
        <ele>1830</ele>
        <time>2026-05-14T11:17:34.999Z</time>
      </trkpt>
      <trkpt lat="44.17659" lon="5.28161">
        <ele>1829.9</ele>
        <time>2026-05-14T11:17:35.999Z</time>
      </trkpt>
      <trkpt lat="44.17659" lon="5.28161">
        <ele>1830</ele>
        <time>2026-05-14T11:17:36.999Z</time>
      </trkpt>
      <trkpt lat="44.17659" lon="5.28161">
        <ele>1830</ele>
        <time>2026-05-14T11:17:37.999Z</time>
      </trkpt>
      <trkpt lat="44.17659" lon="5.28161">
        <ele>1830</ele>
        <time>2026-05-14T11:17:38.999Z</time>
      </trkpt>
      <trkpt lat="44.17659" lon="5.28161">
        <ele>1829.8</ele>
        <time>2026-05-14T11:17:39.999Z</time>
      </trkpt>
      <trkpt lat="44.17659" lon="5.28161">
        <ele>1829.7</ele>
        <time>2026-05-14T11:17:40.999Z</time>
      </trkpt>
      <trkpt lat="44.17659" lon="5.28161">
        <ele>1829.7</ele>
        <time>2026-05-14T11:17:41.999Z</time>
      </trkpt>
      <trkpt lat="44.17659" lon="5.28162">
        <ele>1829.9</ele>
        <time>2026-05-14T11:17:42.999Z</time>
      </trkpt>
      <trkpt lat="44.17659" lon="5.28162">
        <ele>1829.9</ele>
        <time>2026-05-14T11:17:43.999Z</time>
      </trkpt>
      <trkpt lat="44.17659" lon="5.28162">
        <ele>1829.8</ele>
        <time>2026-05-14T11:17:44.999Z</time>
      </trkpt>
      <trkpt lat="44.17659" lon="5.28162">
        <ele>1829.8</ele>
        <time>2026-05-14T11:17:45.999Z</time>
      </trkpt>
      <trkpt lat="44.17658" lon="5.28162">
        <ele>1829.7</ele>
        <time>2026-05-14T11:17:46.999Z</time>
      </trkpt>
      <trkpt lat="44.17658" lon="5.28162">
        <ele>1829.9</ele>
        <time>2026-05-14T11:17:47.999Z</time>
      </trkpt>
      <trkpt lat="44.17658" lon="5.28162">
        <ele>1830.1</ele>
        <time>2026-05-14T11:17:48.999Z</time>
      </trkpt>
      <trkpt lat="44.17658" lon="5.28162">
        <ele>1830.1</ele>
        <time>2026-05-14T11:17:49.999Z</time>
      </trkpt>
      <trkpt lat="44.17658" lon="5.28162">
        <ele>1830.1</ele>
        <time>2026-05-14T11:17:50.999Z</time>
      </trkpt>
      <trkpt lat="44.17658" lon="5.28162">
        <ele>1830</ele>
        <time>2026-05-14T11:17:51.999Z</time>
      </trkpt>
      <trkpt lat="44.17658" lon="5.28161">
        <ele>1829.9</ele>
        <time>2026-05-14T11:17:52.999Z</time>
      </trkpt>
      <trkpt lat="44.17658" lon="5.28161">
        <ele>1829.9</ele>
        <time>2026-05-14T11:17:53.999Z</time>
      </trkpt>
      <trkpt lat="44.17658" lon="5.28161">
        <ele>1829.9</ele>
        <time>2026-05-14T11:17:54.999Z</time>
      </trkpt>
      <trkpt lat="44.17658" lon="5.28161">
        <ele>1830</ele>
        <time>2026-05-14T11:17:55.999Z</time>
      </trkpt>
      <trkpt lat="44.17658" lon="5.28161">
        <ele>1830</ele>
        <time>2026-05-14T11:17:56.999Z</time>
      </trkpt>
      <trkpt lat="44.17658" lon="5.28161">
        <ele>1829.9</ele>
        <time>2026-05-14T11:17:57.999Z</time>
      </trkpt>
      <trkpt lat="44.17658" lon="5.28161">
        <ele>1829.9</ele>
        <time>2026-05-14T11:17:58.999Z</time>
      </trkpt>
      <trkpt lat="44.17658" lon="5.28161">
        <ele>1829.9</ele>
        <time>2026-05-14T11:17:59.999Z</time>
      </trkpt>
      <trkpt lat="44.17658" lon="5.28161">
        <ele>1829.5</ele>
        <time>2026-05-14T11:18:00.999Z</time>
      </trkpt>
      <trkpt lat="44.17658" lon="5.28161">
        <ele>1829.5</ele>
        <time>2026-05-14T11:18:01.999Z</time>
      </trkpt>
      <trkpt lat="44.17658" lon="5.28161">
        <ele>1829.6</ele>
        <time>2026-05-14T11:18:02.999Z</time>
      </trkpt>
      <trkpt lat="44.17658" lon="5.28161">
        <ele>1829.5</ele>
        <time>2026-05-14T11:18:03.999Z</time>
      </trkpt>
      <trkpt lat="44.17658" lon="5.28161">
        <ele>1829.6</ele>
        <time>2026-05-14T11:18:04.999Z</time>
      </trkpt>
      <trkpt lat="44.17658" lon="5.28161">
        <ele>1829.5</ele>
        <time>2026-05-14T11:18:05.999Z</time>
      </trkpt>
      <trkpt lat="44.17658" lon="5.28161">
        <ele>1829.5</ele>
        <time>2026-05-14T11:18:06.999Z</time>
      </trkpt>
      <trkpt lat="44.17657" lon="5.28161">
        <ele>1829.3</ele>
        <time>2026-05-14T11:18:07.999Z</time>
      </trkpt>
      <trkpt lat="44.17657" lon="5.28161">
        <ele>1829.2</ele>
        <time>2026-05-14T11:18:08.999Z</time>
      </trkpt>
      <trkpt lat="44.17657" lon="5.28161">
        <ele>1829.1</ele>
        <time>2026-05-14T11:18:09.999Z</time>
      </trkpt>
      <trkpt lat="44.17657" lon="5.28161">
        <ele>1829.2</ele>
        <time>2026-05-14T11:18:10.999Z</time>
      </trkpt>
      <trkpt lat="44.17657" lon="5.28161">
        <ele>1829.3</ele>
        <time>2026-05-14T11:18:11.999Z</time>
      </trkpt>
      <trkpt lat="44.17657" lon="5.28161">
        <ele>1829.3</ele>
        <time>2026-05-14T11:18:12.999Z</time>
      </trkpt>
      <trkpt lat="44.17657" lon="5.28161">
        <ele>1829.4</ele>
        <time>2026-05-14T11:18:13.999Z</time>
      </trkpt>
      <trkpt lat="44.17657" lon="5.28161">
        <ele>1829.3</ele>
        <time>2026-05-14T11:18:14.999Z</time>
      </trkpt>
      <trkpt lat="44.17657" lon="5.28161">
        <ele>1829.1</ele>
        <time>2026-05-14T11:18:15.999Z</time>
      </trkpt>
      <trkpt lat="44.17657" lon="5.28161">
        <ele>1828.9</ele>
        <time>2026-05-14T11:18:16.999Z</time>
      </trkpt>
      <trkpt lat="44.17657" lon="5.28161">
        <ele>1829.1</ele>
        <time>2026-05-14T11:18:17.999Z</time>
      </trkpt>
      <trkpt lat="44.17657" lon="5.28161">
        <ele>1829.1</ele>
        <time>2026-05-14T11:18:18.999Z</time>
      </trkpt>
      <trkpt lat="44.17657" lon="5.28161">
        <ele>1829.3</ele>
        <time>2026-05-14T11:18:19.999Z</time>
      </trkpt>
      <trkpt lat="44.17657" lon="5.28161">
        <ele>1829.1</ele>
        <time>2026-05-14T11:18:20.999Z</time>
      </trkpt>
      <trkpt lat="44.17657" lon="5.28161">
        <ele>1829.2</ele>
        <time>2026-05-14T11:18:21.999Z</time>
      </trkpt>
      <trkpt lat="44.17657" lon="5.28161">
        <ele>1829.1</ele>
        <time>2026-05-14T11:18:22.999Z</time>
      </trkpt>
      <trkpt lat="44.17657" lon="5.28161">
        <ele>1829.2</ele>
        <time>2026-05-14T11:18:23.999Z</time>
      </trkpt>
      <trkpt lat="44.17657" lon="5.28161">
        <ele>1829.3</ele>
        <time>2026-05-14T11:18:24.999Z</time>
      </trkpt>
      <trkpt lat="44.17657" lon="5.28161">
        <ele>1829.3</ele>
        <time>2026-05-14T11:18:25.999Z</time>
      </trkpt>
      <trkpt lat="44.17657" lon="5.28161">
        <ele>1829.2</ele>
        <time>2026-05-14T11:18:26.999Z</time>
      </trkpt>
      <trkpt lat="44.17657" lon="5.28161">
        <ele>1829.4</ele>
        <time>2026-05-14T11:18:27.999Z</time>
      </trkpt>
      <trkpt lat="44.17657" lon="5.28161">
        <ele>1829.5</ele>
        <time>2026-05-14T11:18:28.999Z</time>
      </trkpt>
      <trkpt lat="44.17657" lon="5.28161">
        <ele>1829.7</ele>
        <time>2026-05-14T11:18:29.999Z</time>
      </trkpt>
      <trkpt lat="44.17657" lon="5.28161">
        <ele>1829.7</ele>
        <time>2026-05-14T11:18:30.999Z</time>
      </trkpt>
      <trkpt lat="44.17657" lon="5.28161">
        <ele>1829.8</ele>
        <time>2026-05-14T11:18:31.999Z</time>
      </trkpt>
      <trkpt lat="44.17657" lon="5.28161">
        <ele>1829.8</ele>
        <time>2026-05-14T11:18:32.999Z</time>
      </trkpt>
      <trkpt lat="44.17657" lon="5.28161">
        <ele>1829.8</ele>
        <time>2026-05-14T11:18:33.999Z</time>
      </trkpt>
      <trkpt lat="44.17657" lon="5.28161">
        <ele>1829.6</ele>
        <time>2026-05-14T11:18:34.999Z</time>
      </trkpt>
      <trkpt lat="44.17657" lon="5.28161">
        <ele>1829.6</ele>
        <time>2026-05-14T11:18:35.999Z</time>
      </trkpt>
      <trkpt lat="44.17657" lon="5.28161">
        <ele>1829.6</ele>
        <time>2026-05-14T11:18:36.999Z</time>
      </trkpt>
      <trkpt lat="44.17657" lon="5.28161">
        <ele>1829.6</ele>
        <time>2026-05-14T11:18:37.999Z</time>
      </trkpt>
      <trkpt lat="44.17657" lon="5.28161">
        <ele>1829.8</ele>
        <time>2026-05-14T11:18:38.999Z</time>
      </trkpt>
      <trkpt lat="44.17657" lon="5.28161">
        <ele>1830</ele>
        <time>2026-05-14T11:18:39.999Z</time>
      </trkpt>
      <trkpt lat="44.17657" lon="5.28161">
        <ele>1830.1</ele>
        <time>2026-05-14T11:18:40.999Z</time>
      </trkpt>
      <trkpt lat="44.17657" lon="5.28161">
        <ele>1830.2</ele>
        <time>2026-05-14T11:18:41.999Z</time>
      </trkpt>
      <trkpt lat="44.17657" lon="5.28161">
        <ele>1830.3</ele>
        <time>2026-05-14T11:18:42.999Z</time>
      </trkpt>
      <trkpt lat="44.17657" lon="5.28161">
        <ele>1830.2</ele>
        <time>2026-05-14T11:18:43.999Z</time>
      </trkpt>
      <trkpt lat="44.17657" lon="5.28161">
        <ele>1830.4</ele>
        <time>2026-05-14T11:18:44.999Z</time>
      </trkpt>
      <trkpt lat="44.17657" lon="5.28161">
        <ele>1830.6</ele>
        <time>2026-05-14T11:18:45.999Z</time>
      </trkpt>
      <trkpt lat="44.17657" lon="5.28161">
        <ele>1830.6</ele>
        <time>2026-05-14T11:18:46.999Z</time>
      </trkpt>
      <trkpt lat="44.17657" lon="5.28161">
        <ele>1830.6</ele>
        <time>2026-05-14T11:18:47.999Z</time>
      </trkpt>
      <trkpt lat="44.17657" lon="5.28161">
        <ele>1830.5</ele>
        <time>2026-05-14T11:18:48.999Z</time>
      </trkpt>
      <trkpt lat="44.17657" lon="5.28161">
        <ele>1830.3</ele>
        <time>2026-05-14T11:18:49.999Z</time>
      </trkpt>
      <trkpt lat="44.17657" lon="5.28161">
        <ele>1830.3</ele>
        <time>2026-05-14T11:18:50.999Z</time>
      </trkpt>
      <trkpt lat="44.17657" lon="5.28161">
        <ele>1830.3</ele>
        <time>2026-05-14T11:18:51.999Z</time>
      </trkpt>
      <trkpt lat="44.17657" lon="5.28161">
        <ele>1830.3</ele>
        <time>2026-05-14T11:18:52.999Z</time>
      </trkpt>
      <trkpt lat="44.17657" lon="5.28161">
        <ele>1830.4</ele>
        <time>2026-05-14T11:18:53.999Z</time>
      </trkpt>
      <trkpt lat="44.17657" lon="5.28161">
        <ele>1830.6</ele>
        <time>2026-05-14T11:18:54.999Z</time>
      </trkpt>
      <trkpt lat="44.17658" lon="5.28161">
        <ele>1830.8</ele>
        <time>2026-05-14T11:18:55.999Z</time>
      </trkpt>
      <trkpt lat="44.17658" lon="5.28162">
        <ele>1830.9</ele>
        <time>2026-05-14T11:18:56.999Z</time>
      </trkpt>
      <trkpt lat="44.17658" lon="5.28162">
        <ele>1831</ele>
        <time>2026-05-14T11:18:57.999Z</time>
      </trkpt>
      <trkpt lat="44.17658" lon="5.28162">
        <ele>1830.9</ele>
        <time>2026-05-14T11:18:58.999Z</time>
      </trkpt>
      <trkpt lat="44.17658" lon="5.28162">
        <ele>1831</ele>
        <time>2026-05-14T11:18:59.999Z</time>
      </trkpt>
      <trkpt lat="44.17658" lon="5.28162">
        <ele>1830.8</ele>
        <time>2026-05-14T11:19:00.999Z</time>
      </trkpt>
      <trkpt lat="44.17658" lon="5.28162">
        <ele>1830.8</ele>
        <time>2026-05-14T11:19:01.999Z</time>
      </trkpt>
      <trkpt lat="44.17658" lon="5.28162">
        <ele>1830.8</ele>
        <time>2026-05-14T11:19:02.999Z</time>
      </trkpt>
      <trkpt lat="44.17658" lon="5.28162">
        <ele>1830.8</ele>
        <time>2026-05-14T11:19:03.999Z</time>
      </trkpt>
      <trkpt lat="44.17658" lon="5.28162">
        <ele>1830.8</ele>
        <time>2026-05-14T11:19:04.999Z</time>
      </trkpt>
      <trkpt lat="44.17658" lon="5.28162">
        <ele>1830.6</ele>
        <time>2026-05-14T11:19:05.999Z</time>
      </trkpt>
      <trkpt lat="44.17658" lon="5.28162">
        <ele>1830.5</ele>
        <time>2026-05-14T11:19:06.999Z</time>
      </trkpt>
      <trkpt lat="44.17658" lon="5.28162">
        <ele>1830.3</ele>
        <time>2026-05-14T11:19:07.999Z</time>
      </trkpt>
      <trkpt lat="44.17658" lon="5.28162">
        <ele>1830.2</ele>
        <time>2026-05-14T11:19:08.999Z</time>
      </trkpt>
      <trkpt lat="44.17658" lon="5.28162">
        <ele>1830.2</ele>
        <time>2026-05-14T11:19:09.999Z</time>
      </trkpt>
      <trkpt lat="44.17658" lon="5.28162">
        <ele>1830.3</ele>
        <time>2026-05-14T11:19:10.999Z</time>
      </trkpt>
      <trkpt lat="44.17658" lon="5.28162">
        <ele>1830.3</ele>
        <time>2026-05-14T11:19:11.999Z</time>
      </trkpt>
      <trkpt lat="44.17658" lon="5.28162">
        <ele>1830.2</ele>
        <time>2026-05-14T11:19:12.999Z</time>
      </trkpt>
      <trkpt lat="44.17658" lon="5.28162">
        <ele>1830.2</ele>
        <time>2026-05-14T11:19:13.999Z</time>
      </trkpt>
      <trkpt lat="44.17658" lon="5.28162">
        <ele>1830.2</ele>
        <time>2026-05-14T11:19:14.999Z</time>
      </trkpt>
      <trkpt lat="44.17658" lon="5.28162">
        <ele>1830.8</ele>
        <time>2026-05-14T11:19:15.999Z</time>
      </trkpt>
      <trkpt lat="44.17658" lon="5.28162">
        <ele>1831.3</ele>
        <time>2026-05-14T11:19:16.999Z</time>
      </trkpt>
      <trkpt lat="44.17658" lon="5.28162">
        <ele>1831.5</ele>
        <time>2026-05-14T11:19:17.999Z</time>
      </trkpt>
      <trkpt lat="44.17658" lon="5.28162">
        <ele>1831.7</ele>
        <time>2026-05-14T11:19:18.999Z</time>
      </trkpt>
      <trkpt lat="44.17658" lon="5.28162">
        <ele>1831.6</ele>
        <time>2026-05-14T11:19:19.999Z</time>
      </trkpt>
      <trkpt lat="44.17658" lon="5.28162">
        <ele>1831.5</ele>
        <time>2026-05-14T11:19:20.999Z</time>
      </trkpt>
      <trkpt lat="44.17658" lon="5.28162">
        <ele>1831.3</ele>
        <time>2026-05-14T11:19:21.999Z</time>
      </trkpt>
      <trkpt lat="44.17658" lon="5.28162">
        <ele>1831.2</ele>
        <time>2026-05-14T11:19:22.999Z</time>
      </trkpt>
      <trkpt lat="44.17658" lon="5.28162">
        <ele>1831</ele>
        <time>2026-05-14T11:19:23.999Z</time>
      </trkpt>
      <trkpt lat="44.17658" lon="5.28162">
        <ele>1830.8</ele>
        <time>2026-05-14T11:19:24.999Z</time>
      </trkpt>
      <trkpt lat="44.17658" lon="5.28162">
        <ele>1830.7</ele>
        <time>2026-05-14T11:19:25.999Z</time>
      </trkpt>
      <trkpt lat="44.17658" lon="5.28162">
        <ele>1830.5</ele>
        <time>2026-05-14T11:19:26.999Z</time>
      </trkpt>
      <trkpt lat="44.17658" lon="5.28162">
        <ele>1830.5</ele>
        <time>2026-05-14T11:19:27.999Z</time>
      </trkpt>
      <trkpt lat="44.17658" lon="5.28162">
        <ele>1830.6</ele>
        <time>2026-05-14T11:19:28.999Z</time>
      </trkpt>
      <trkpt lat="44.17658" lon="5.28162">
        <ele>1830.7</ele>
        <time>2026-05-14T11:19:29.999Z</time>
      </trkpt>
      <trkpt lat="44.17658" lon="5.28162">
        <ele>1830.7</ele>
        <time>2026-05-14T11:19:30.999Z</time>
      </trkpt>
      <trkpt lat="44.17658" lon="5.28162">
        <ele>1830.7</ele>
        <time>2026-05-14T11:19:31.999Z</time>
      </trkpt>
      <trkpt lat="44.17658" lon="5.28162">
        <ele>1830.5</ele>
        <time>2026-05-14T11:19:32.999Z</time>
      </trkpt>
      <trkpt lat="44.17658" lon="5.28161">
        <ele>1830.3</ele>
        <time>2026-05-14T11:19:33.999Z</time>
      </trkpt>
      <trkpt lat="44.17658" lon="5.28161">
        <ele>1830.1</ele>
        <time>2026-05-14T11:19:34.999Z</time>
      </trkpt>
      <trkpt lat="44.17658" lon="5.28161">
        <ele>1830</ele>
        <time>2026-05-14T11:19:35.999Z</time>
      </trkpt>
      <trkpt lat="44.17658" lon="5.28161">
        <ele>1830.2</ele>
        <time>2026-05-14T11:19:36.999Z</time>
      </trkpt>
      <trkpt lat="44.17658" lon="5.28161">
        <ele>1830.3</ele>
        <time>2026-05-14T11:19:37.999Z</time>
      </trkpt>
      <trkpt lat="44.17658" lon="5.28161">
        <ele>1830.3</ele>
        <time>2026-05-14T11:19:38.999Z</time>
      </trkpt>
      <trkpt lat="44.17658" lon="5.28161">
        <ele>1830.6</ele>
        <time>2026-05-14T11:19:39.999Z</time>
      </trkpt>
      <trkpt lat="44.17658" lon="5.28161">
        <ele>1831</ele>
        <time>2026-05-14T11:19:40.999Z</time>
      </trkpt>
      <trkpt lat="44.17658" lon="5.28161">
        <ele>1831.3</ele>
        <time>2026-05-14T11:19:41.999Z</time>
      </trkpt>
      <trkpt lat="44.17658" lon="5.28161">
        <ele>1831.6</ele>
        <time>2026-05-14T11:19:42.999Z</time>
      </trkpt>
      <trkpt lat="44.17658" lon="5.28161">
        <ele>1831.9</ele>
        <time>2026-05-14T11:19:43.999Z</time>
      </trkpt>
      <trkpt lat="44.17658" lon="5.28161">
        <ele>1832.1</ele>
        <time>2026-05-14T11:19:44.999Z</time>
      </trkpt>
      <trkpt lat="44.17658" lon="5.28161">
        <ele>1832.1</ele>
        <time>2026-05-14T11:19:45.999Z</time>
      </trkpt>
      <trkpt lat="44.17658" lon="5.28161">
        <ele>1832.2</ele>
        <time>2026-05-14T11:19:46.999Z</time>
      </trkpt>
      <trkpt lat="44.17658" lon="5.28161">
        <ele>1832.3</ele>
        <time>2026-05-14T11:19:47.999Z</time>
      </trkpt>
      <trkpt lat="44.17658" lon="5.28161">
        <ele>1832.3</ele>
        <time>2026-05-14T11:19:48.999Z</time>
      </trkpt>
      <trkpt lat="44.17658" lon="5.28161">
        <ele>1832.5</ele>
        <time>2026-05-14T11:19:49.999Z</time>
      </trkpt>
      <trkpt lat="44.17658" lon="5.2816">
        <ele>1832.6</ele>
        <time>2026-05-14T11:19:50.999Z</time>
      </trkpt>
      <trkpt lat="44.17658" lon="5.2816">
        <ele>1832.4</ele>
        <time>2026-05-14T11:19:51.999Z</time>
      </trkpt>
      <trkpt lat="44.17658" lon="5.2816">
        <ele>1832.3</ele>
        <time>2026-05-14T11:19:52.999Z</time>
      </trkpt>
      <trkpt lat="44.17658" lon="5.2816">
        <ele>1832</ele>
        <time>2026-05-14T11:19:53.999Z</time>
      </trkpt>
      <trkpt lat="44.17658" lon="5.2816">
        <ele>1831.8</ele>
        <time>2026-05-14T11:19:54.999Z</time>
      </trkpt>
      <trkpt lat="44.17658" lon="5.2816">
        <ele>1831.8</ele>
        <time>2026-05-14T11:19:55.999Z</time>
      </trkpt>
      <trkpt lat="44.17658" lon="5.2816">
        <ele>1831.6</ele>
        <time>2026-05-14T11:19:56.999Z</time>
      </trkpt>
      <trkpt lat="44.17658" lon="5.2816">
        <ele>1831.5</ele>
        <time>2026-05-14T11:19:57.999Z</time>
      </trkpt>
      <trkpt lat="44.17658" lon="5.2816">
        <ele>1831.4</ele>
        <time>2026-05-14T11:19:58.999Z</time>
      </trkpt>
      <trkpt lat="44.17658" lon="5.2816">
        <ele>1831.3</ele>
        <time>2026-05-14T11:19:59.999Z</time>
      </trkpt>
      <trkpt lat="44.17658" lon="5.2816">
        <ele>1831.2</ele>
        <time>2026-05-14T11:20:00.999Z</time>
      </trkpt>
      <trkpt lat="44.17658" lon="5.2816">
        <ele>1831</ele>
        <time>2026-05-14T11:20:01.999Z</time>
      </trkpt>
      <trkpt lat="44.17658" lon="5.2816">
        <ele>1830.8</ele>
        <time>2026-05-14T11:20:02.999Z</time>
      </trkpt>
      <trkpt lat="44.17658" lon="5.2816">
        <ele>1830.7</ele>
        <time>2026-05-14T11:20:03.999Z</time>
      </trkpt>
      <trkpt lat="44.17658" lon="5.2816">
        <ele>1830.5</ele>
        <time>2026-05-14T11:20:04.999Z</time>
      </trkpt>
      <trkpt lat="44.17658" lon="5.2816">
        <ele>1830.5</ele>
        <time>2026-05-14T11:20:05.999Z</time>
      </trkpt>
      <trkpt lat="44.17658" lon="5.2816">
        <ele>1830.7</ele>
        <time>2026-05-14T11:20:06.999Z</time>
      </trkpt>
      <trkpt lat="44.17658" lon="5.2816">
        <ele>1830.8</ele>
        <time>2026-05-14T11:20:07.999Z</time>
      </trkpt>
      <trkpt lat="44.17658" lon="5.28161">
        <ele>1831</ele>
        <time>2026-05-14T11:20:08.999Z</time>
      </trkpt>
      <trkpt lat="44.17658" lon="5.28161">
        <ele>1831.1</ele>
        <time>2026-05-14T11:20:09.999Z</time>
      </trkpt>
      <trkpt lat="44.17658" lon="5.28161">
        <ele>1831.1</ele>
        <time>2026-05-14T11:20:10.999Z</time>
      </trkpt>
      <trkpt lat="44.17658" lon="5.28161">
        <ele>1831.3</ele>
        <time>2026-05-14T11:20:11.999Z</time>
      </trkpt>
      <trkpt lat="44.17658" lon="5.28161">
        <ele>1831.3</ele>
        <time>2026-05-14T11:20:12.999Z</time>
      </trkpt>
      <trkpt lat="44.17658" lon="5.28161">
        <ele>1831.4</ele>
        <time>2026-05-14T11:20:13.999Z</time>
      </trkpt>
      <trkpt lat="44.17658" lon="5.28161">
        <ele>1831.3</ele>
        <time>2026-05-14T11:20:14.999Z</time>
      </trkpt>
      <trkpt lat="44.17658" lon="5.28161">
        <ele>1831.2</ele>
        <time>2026-05-14T11:20:15.999Z</time>
      </trkpt>
      <trkpt lat="44.17658" lon="5.28161">
        <ele>1831.2</ele>
        <time>2026-05-14T11:20:16.999Z</time>
      </trkpt>
      <trkpt lat="44.17658" lon="5.28161">
        <ele>1831.2</ele>
        <time>2026-05-14T11:20:17.999Z</time>
      </trkpt>
      <trkpt lat="44.17658" lon="5.28161">
        <ele>1831.2</ele>
        <time>2026-05-14T11:20:18.999Z</time>
      </trkpt>
      <trkpt lat="44.17658" lon="5.28161">
        <ele>1831.2</ele>
        <time>2026-05-14T11:20:19.999Z</time>
      </trkpt>
      <trkpt lat="44.17658" lon="5.28161">
        <ele>1831.1</ele>
        <time>2026-05-14T11:20:20.999Z</time>
      </trkpt>
      <trkpt lat="44.17658" lon="5.28161">
        <ele>1830.9</ele>
        <time>2026-05-14T11:20:21.999Z</time>
      </trkpt>
      <trkpt lat="44.17658" lon="5.28161">
        <ele>1830.8</ele>
        <time>2026-05-14T11:20:22.999Z</time>
      </trkpt>
      <trkpt lat="44.17658" lon="5.28161">
        <ele>1830.5</ele>
        <time>2026-05-14T11:20:23.999Z</time>
      </trkpt>
      <trkpt lat="44.17658" lon="5.28161">
        <ele>1830.3</ele>
        <time>2026-05-14T11:20:24.999Z</time>
      </trkpt>
      <trkpt lat="44.17658" lon="5.28161">
        <ele>1830.2</ele>
        <time>2026-05-14T11:20:25.999Z</time>
      </trkpt>
      <trkpt lat="44.17658" lon="5.28161">
        <ele>1830.5</ele>
        <time>2026-05-14T11:20:26.999Z</time>
      </trkpt>
      <trkpt lat="44.17658" lon="5.28161">
        <ele>1830.7</ele>
        <time>2026-05-14T11:20:27.999Z</time>
      </trkpt>
      <trkpt lat="44.17658" lon="5.28161">
        <ele>1830.9</ele>
        <time>2026-05-14T11:20:28.999Z</time>
      </trkpt>
      <trkpt lat="44.17658" lon="5.28161">
        <ele>1831</ele>
        <time>2026-05-14T11:20:29.999Z</time>
      </trkpt>
      <trkpt lat="44.17658" lon="5.28161">
        <ele>1831.1</ele>
        <time>2026-05-14T11:20:30.999Z</time>
      </trkpt>
      <trkpt lat="44.17658" lon="5.28161">
        <ele>1831.2</ele>
        <time>2026-05-14T11:20:31.999Z</time>
      </trkpt>
      <trkpt lat="44.17658" lon="5.28161">
        <ele>1831.2</ele>
        <time>2026-05-14T11:20:32.999Z</time>
      </trkpt>
      <trkpt lat="44.17658" lon="5.28161">
        <ele>1831.2</ele>
        <time>2026-05-14T11:20:33.999Z</time>
      </trkpt>
      <trkpt lat="44.17658" lon="5.28161">
        <ele>1831.2</ele>
        <time>2026-05-14T11:20:34.999Z</time>
      </trkpt>
      <trkpt lat="44.17658" lon="5.28161">
        <ele>1831.3</ele>
        <time>2026-05-14T11:20:35.999Z</time>
      </trkpt>
      <trkpt lat="44.17659" lon="5.28161">
        <ele>1831.2</ele>
        <time>2026-05-14T11:20:36.999Z</time>
      </trkpt>
      <trkpt lat="44.17659" lon="5.28161">
        <ele>1831</ele>
        <time>2026-05-14T11:20:37.999Z</time>
      </trkpt>
      <trkpt lat="44.17659" lon="5.28161">
        <ele>1830.7</ele>
        <time>2026-05-14T11:20:38.999Z</time>
      </trkpt>
      <trkpt lat="44.17659" lon="5.28161">
        <ele>1830.7</ele>
        <time>2026-05-14T11:20:39.999Z</time>
      </trkpt>
      <trkpt lat="44.17659" lon="5.28161">
        <ele>1830.7</ele>
        <time>2026-05-14T11:20:40.999Z</time>
      </trkpt>
      <trkpt lat="44.17659" lon="5.28161">
        <ele>1830.6</ele>
        <time>2026-05-14T11:20:41.999Z</time>
      </trkpt>
      <trkpt lat="44.17659" lon="5.28161">
        <ele>1830.5</ele>
        <time>2026-05-14T11:20:42.999Z</time>
      </trkpt>
      <trkpt lat="44.17659" lon="5.28161">
        <ele>1830.3</ele>
        <time>2026-05-14T11:20:43.999Z</time>
      </trkpt>
      <trkpt lat="44.17659" lon="5.28161">
        <ele>1830.1</ele>
        <time>2026-05-14T11:20:44.999Z</time>
      </trkpt>
      <trkpt lat="44.17659" lon="5.28161">
        <ele>1829.9</ele>
        <time>2026-05-14T11:20:45.999Z</time>
      </trkpt>
      <trkpt lat="44.17659" lon="5.28161">
        <ele>1829.7</ele>
        <time>2026-05-14T11:20:46.999Z</time>
      </trkpt>
      <trkpt lat="44.17659" lon="5.28161">
        <ele>1829.5</ele>
        <time>2026-05-14T11:20:47.999Z</time>
      </trkpt>
      <trkpt lat="44.17659" lon="5.28161">
        <ele>1829.2</ele>
        <time>2026-05-14T11:20:48.999Z</time>
      </trkpt>
      <trkpt lat="44.17659" lon="5.28161">
        <ele>1829</ele>
        <time>2026-05-14T11:20:49.999Z</time>
      </trkpt>
      <trkpt lat="44.17659" lon="5.28161">
        <ele>1829</ele>
        <time>2026-05-14T11:20:50.999Z</time>
      </trkpt>
      <trkpt lat="44.17659" lon="5.28161">
        <ele>1828.8</ele>
        <time>2026-05-14T11:20:51.999Z</time>
      </trkpt>
      <trkpt lat="44.17659" lon="5.28161">
        <ele>1828.7</ele>
        <time>2026-05-14T11:20:52.999Z</time>
      </trkpt>
      <trkpt lat="44.17659" lon="5.28161">
        <ele>1828.6</ele>
        <time>2026-05-14T11:20:53.999Z</time>
      </trkpt>
      <trkpt lat="44.17658" lon="5.28161">
        <ele>1828.6</ele>
        <time>2026-05-14T11:20:54.999Z</time>
      </trkpt>
      <trkpt lat="44.17658" lon="5.28161">
        <ele>1828.8</ele>
        <time>2026-05-14T11:20:55.999Z</time>
      </trkpt>
      <trkpt lat="44.17658" lon="5.28161">
        <ele>1828.8</ele>
        <time>2026-05-14T11:20:56.999Z</time>
      </trkpt>
      <trkpt lat="44.17658" lon="5.28161">
        <ele>1828.8</ele>
        <time>2026-05-14T11:20:57.999Z</time>
      </trkpt>
      <trkpt lat="44.17658" lon="5.28161">
        <ele>1828.8</ele>
        <time>2026-05-14T11:20:58.999Z</time>
      </trkpt>
      <trkpt lat="44.17658" lon="5.28161">
        <ele>1828.9</ele>
        <time>2026-05-14T11:20:59.999Z</time>
      </trkpt>
      <trkpt lat="44.17658" lon="5.28161">
        <ele>1828.9</ele>
        <time>2026-05-14T11:21:00.999Z</time>
      </trkpt>
      <trkpt lat="44.17658" lon="5.28161">
        <ele>1829.1</ele>
        <time>2026-05-14T11:21:01.999Z</time>
      </trkpt>
      <trkpt lat="44.17658" lon="5.28161">
        <ele>1829.1</ele>
        <time>2026-05-14T11:21:02.999Z</time>
      </trkpt>
      <trkpt lat="44.17658" lon="5.28161">
        <ele>1829.3</ele>
        <time>2026-05-14T11:21:03.999Z</time>
      </trkpt>
      <trkpt lat="44.17658" lon="5.28161">
        <ele>1829.4</ele>
        <time>2026-05-14T11:21:04.999Z</time>
      </trkpt>
      <trkpt lat="44.17658" lon="5.28161">
        <ele>1829.4</ele>
        <time>2026-05-14T11:21:05.999Z</time>
      </trkpt>
      <trkpt lat="44.17658" lon="5.28161">
        <ele>1829.4</ele>
        <time>2026-05-14T11:21:06.999Z</time>
      </trkpt>
      <trkpt lat="44.17658" lon="5.28161">
        <ele>1829.4</ele>
        <time>2026-05-14T11:21:07.999Z</time>
      </trkpt>
      <trkpt lat="44.17658" lon="5.28161">
        <ele>1829.6</ele>
        <time>2026-05-14T11:21:08.999Z</time>
      </trkpt>
      <trkpt lat="44.17658" lon="5.28161">
        <ele>1829.9</ele>
        <time>2026-05-14T11:21:09.999Z</time>
      </trkpt>
      <trkpt lat="44.17658" lon="5.28161">
        <ele>1830</ele>
        <time>2026-05-14T11:21:10.999Z</time>
      </trkpt>
      <trkpt lat="44.17658" lon="5.28161">
        <ele>1830.4</ele>
        <time>2026-05-14T11:21:11.999Z</time>
      </trkpt>
      <trkpt lat="44.17658" lon="5.28161">
        <ele>1830.5</ele>
        <time>2026-05-14T11:21:12.999Z</time>
      </trkpt>
      <trkpt lat="44.17658" lon="5.28161">
        <ele>1830.9</ele>
        <time>2026-05-14T11:21:13.999Z</time>
      </trkpt>
      <trkpt lat="44.17659" lon="5.28161">
        <ele>1831.1</ele>
        <time>2026-05-14T11:21:14.999Z</time>
      </trkpt>
      <trkpt lat="44.17659" lon="5.28161">
        <ele>1831.3</ele>
        <time>2026-05-14T11:21:15.999Z</time>
      </trkpt>
      <trkpt lat="44.17659" lon="5.28161">
        <ele>1831.2</ele>
        <time>2026-05-14T11:21:16.999Z</time>
      </trkpt>
      <trkpt lat="44.17659" lon="5.28161">
        <ele>1831</ele>
        <time>2026-05-14T11:21:17.999Z</time>
      </trkpt>
      <trkpt lat="44.17659" lon="5.28161">
        <ele>1831.1</ele>
        <time>2026-05-14T11:21:18.999Z</time>
      </trkpt>
      <trkpt lat="44.17659" lon="5.28161">
        <ele>1831</ele>
        <time>2026-05-14T11:21:19.999Z</time>
      </trkpt>
      <trkpt lat="44.17659" lon="5.28161">
        <ele>1830.9</ele>
        <time>2026-05-14T11:21:20.999Z</time>
      </trkpt>
      <trkpt lat="44.17659" lon="5.28161">
        <ele>1831</ele>
        <time>2026-05-14T11:21:21.999Z</time>
      </trkpt>
      <trkpt lat="44.17659" lon="5.28161">
        <ele>1831</ele>
        <time>2026-05-14T11:21:22.999Z</time>
      </trkpt>
      <trkpt lat="44.17659" lon="5.28162">
        <ele>1830.8</ele>
        <time>2026-05-14T11:21:23.999Z</time>
      </trkpt>
      <trkpt lat="44.17659" lon="5.28161">
        <ele>1830.6</ele>
        <time>2026-05-14T11:21:24.999Z</time>
      </trkpt>
      <trkpt lat="44.17659" lon="5.2816">
        <ele>1830.6</ele>
        <time>2026-05-14T11:21:25.999Z</time>
      </trkpt>
      <trkpt lat="44.17659" lon="5.2816">
        <ele>1830.8</ele>
        <time>2026-05-14T11:21:26.999Z</time>
      </trkpt>
      <trkpt lat="44.17659" lon="5.2816">
        <ele>1831</ele>
        <time>2026-05-14T11:21:27.999Z</time>
      </trkpt>
      <trkpt lat="44.17659" lon="5.2816">
        <ele>1831.4</ele>
        <time>2026-05-14T11:21:28.999Z</time>
      </trkpt>
      <trkpt lat="44.17659" lon="5.2816">
        <ele>1831.4</ele>
        <time>2026-05-14T11:21:29.999Z</time>
      </trkpt>
      <trkpt lat="44.17659" lon="5.28161">
        <ele>1831.3</ele>
        <time>2026-05-14T11:21:30.999Z</time>
      </trkpt>
      <trkpt lat="44.17659" lon="5.28161">
        <ele>1831.2</ele>
        <time>2026-05-14T11:21:31.999Z</time>
      </trkpt>
      <trkpt lat="44.17659" lon="5.28161">
        <ele>1831.2</ele>
        <time>2026-05-14T11:21:32.999Z</time>
      </trkpt>
      <trkpt lat="44.17659" lon="5.28161">
        <ele>1831</ele>
        <time>2026-05-14T11:21:33.999Z</time>
      </trkpt>
      <trkpt lat="44.17659" lon="5.28161">
        <ele>1831.1</ele>
        <time>2026-05-14T11:21:34.999Z</time>
      </trkpt>
      <trkpt lat="44.17659" lon="5.28161">
        <ele>1831.1</ele>
        <time>2026-05-14T11:21:35.999Z</time>
      </trkpt>
      <trkpt lat="44.17659" lon="5.2816">
        <ele>1831.2</ele>
        <time>2026-05-14T11:21:36.999Z</time>
      </trkpt>
      <trkpt lat="44.17659" lon="5.2816">
        <ele>1831.2</ele>
        <time>2026-05-14T11:21:37.999Z</time>
      </trkpt>
      <trkpt lat="44.17659" lon="5.2816">
        <ele>1831.2</ele>
        <time>2026-05-14T11:21:38.999Z</time>
      </trkpt>
      <trkpt lat="44.17659" lon="5.2816">
        <ele>1831.2</ele>
        <time>2026-05-14T11:21:39.999Z</time>
      </trkpt>
      <trkpt lat="44.17659" lon="5.2816">
        <ele>1831.4</ele>
        <time>2026-05-14T11:21:41.999Z</time>
      </trkpt>
      <trkpt lat="44.17659" lon="5.2816">
        <ele>1831.8</ele>
        <time>2026-05-14T11:21:42.999Z</time>
      </trkpt>
      <trkpt lat="44.17659" lon="5.2816">
        <ele>1831.9</ele>
        <time>2026-05-14T11:21:43.999Z</time>
      </trkpt>
      <trkpt lat="44.17659" lon="5.2816">
        <ele>1832</ele>
        <time>2026-05-14T11:21:44.999Z</time>
      </trkpt>
      <trkpt lat="44.17659" lon="5.2816">
        <ele>1832.1</ele>
        <time>2026-05-14T11:21:45.999Z</time>
      </trkpt>
      <trkpt lat="44.17659" lon="5.2816">
        <ele>1832.3</ele>
        <time>2026-05-14T11:21:46.999Z</time>
      </trkpt>
      <trkpt lat="44.17659" lon="5.2816">
        <ele>1832.5</ele>
        <time>2026-05-14T11:21:47.999Z</time>
      </trkpt>
      <trkpt lat="44.17659" lon="5.2816">
        <ele>1832.5</ele>
        <time>2026-05-14T11:21:48.999Z</time>
      </trkpt>
      <trkpt lat="44.17659" lon="5.2816">
        <ele>1832.5</ele>
        <time>2026-05-14T11:21:49.999Z</time>
      </trkpt>
      <trkpt lat="44.17659" lon="5.2816">
        <ele>1832.5</ele>
        <time>2026-05-14T11:21:50.999Z</time>
      </trkpt>
      <trkpt lat="44.17658" lon="5.2816">
        <ele>1832.4</ele>
        <time>2026-05-14T11:21:51.999Z</time>
      </trkpt>
      <trkpt lat="44.17658" lon="5.2816">
        <ele>1832.4</ele>
        <time>2026-05-14T11:21:52.999Z</time>
      </trkpt>
      <trkpt lat="44.17658" lon="5.2816">
        <ele>1832.4</ele>
        <time>2026-05-14T11:21:53.999Z</time>
      </trkpt>
      <trkpt lat="44.17658" lon="5.2816">
        <ele>1832.2</ele>
        <time>2026-05-14T11:21:54.999Z</time>
      </trkpt>
      <trkpt lat="44.17658" lon="5.2816">
        <ele>1832.2</ele>
        <time>2026-05-14T11:21:55.999Z</time>
      </trkpt>
      <trkpt lat="44.17658" lon="5.2816">
        <ele>1832.1</ele>
        <time>2026-05-14T11:21:56.999Z</time>
      </trkpt>
      <trkpt lat="44.17658" lon="5.2816">
        <ele>1832.5</ele>
        <time>2026-05-14T11:21:57.999Z</time>
      </trkpt>
      <trkpt lat="44.17658" lon="5.2816">
        <ele>1832.5</ele>
        <time>2026-05-14T11:21:58.999Z</time>
      </trkpt>
      <trkpt lat="44.17658" lon="5.2816">
        <ele>1832.5</ele>
        <time>2026-05-14T11:21:59.999Z</time>
      </trkpt>
      <trkpt lat="44.17658" lon="5.2816">
        <ele>1832.5</ele>
        <time>2026-05-14T11:22:00.999Z</time>
      </trkpt>
      <trkpt lat="44.17658" lon="5.2816">
        <ele>1832.4</ele>
        <time>2026-05-14T11:22:01.999Z</time>
      </trkpt>
      <trkpt lat="44.17658" lon="5.2816">
        <ele>1832.4</ele>
        <time>2026-05-14T11:22:02.999Z</time>
      </trkpt>
      <trkpt lat="44.17658" lon="5.2816">
        <ele>1832.2</ele>
        <time>2026-05-14T11:22:03.999Z</time>
      </trkpt>
      <trkpt lat="44.17658" lon="5.2816">
        <ele>1832.1</ele>
        <time>2026-05-14T11:22:04.999Z</time>
      </trkpt>
      <trkpt lat="44.17658" lon="5.2816">
        <ele>1832.1</ele>
        <time>2026-05-14T11:22:05.999Z</time>
      </trkpt>
      <trkpt lat="44.17658" lon="5.2816">
        <ele>1832</ele>
        <time>2026-05-14T11:22:06.999Z</time>
      </trkpt>
      <trkpt lat="44.17658" lon="5.2816">
        <ele>1832.2</ele>
        <time>2026-05-14T11:22:07.999Z</time>
      </trkpt>
      <trkpt lat="44.17658" lon="5.2816">
        <ele>1832.3</ele>
        <time>2026-05-14T11:22:08.999Z</time>
      </trkpt>
      <trkpt lat="44.17658" lon="5.2816">
        <ele>1832.3</ele>
        <time>2026-05-14T11:22:09.999Z</time>
      </trkpt>
      <trkpt lat="44.17658" lon="5.2816">
        <ele>1832.4</ele>
        <time>2026-05-14T11:22:11.000Z</time>
      </trkpt>
      <trkpt lat="44.17658" lon="5.2816">
        <ele>1832.5</ele>
        <time>2026-05-14T11:22:12.000Z</time>
      </trkpt>
      <trkpt lat="44.17658" lon="5.2816">
        <ele>1832.7</ele>
        <time>2026-05-14T11:22:13.000Z</time>
      </trkpt>
      <trkpt lat="44.17658" lon="5.2816">
        <ele>1832.7</ele>
        <time>2026-05-14T11:22:14.000Z</time>
      </trkpt>
      <trkpt lat="44.17658" lon="5.28159">
        <ele>1832.6</ele>
        <time>2026-05-14T11:22:15.000Z</time>
      </trkpt>
      <trkpt lat="44.17658" lon="5.28159">
        <ele>1832.6</ele>
        <time>2026-05-14T11:22:16.000Z</time>
      </trkpt>
      <trkpt lat="44.17658" lon="5.28159">
        <ele>1832.6</ele>
        <time>2026-05-14T11:22:17.000Z</time>
      </trkpt>
      <trkpt lat="44.17658" lon="5.28159">
        <ele>1832.6</ele>
        <time>2026-05-14T11:22:18.000Z</time>
      </trkpt>
      <trkpt lat="44.17658" lon="5.28159">
        <ele>1832.5</ele>
        <time>2026-05-14T11:22:19.000Z</time>
      </trkpt>
      <trkpt lat="44.17658" lon="5.28159">
        <ele>1832.4</ele>
        <time>2026-05-14T11:22:20.000Z</time>
      </trkpt>
      <trkpt lat="44.17658" lon="5.28159">
        <ele>1832.5</ele>
        <time>2026-05-14T11:22:21.000Z</time>
      </trkpt>
      <trkpt lat="44.17658" lon="5.28159">
        <ele>1832.4</ele>
        <time>2026-05-14T11:22:22.000Z</time>
      </trkpt>
      <trkpt lat="44.17658" lon="5.28159">
        <ele>1832.2</ele>
        <time>2026-05-14T11:22:23.000Z</time>
      </trkpt>
      <trkpt lat="44.17658" lon="5.28159">
        <ele>1832</ele>
        <time>2026-05-14T11:22:24.000Z</time>
      </trkpt>
      <trkpt lat="44.17658" lon="5.28159">
        <ele>1831.9</ele>
        <time>2026-05-14T11:22:25.000Z</time>
      </trkpt>
      <trkpt lat="44.17658" lon="5.28159">
        <ele>1831.9</ele>
        <time>2026-05-14T11:22:26.000Z</time>
      </trkpt>
      <trkpt lat="44.17658" lon="5.28159">
        <ele>1831.9</ele>
        <time>2026-05-14T11:22:27.000Z</time>
      </trkpt>
      <trkpt lat="44.17659" lon="5.28158">
        <ele>1831.8</ele>
        <time>2026-05-14T11:22:28.000Z</time>
      </trkpt>
      <trkpt lat="44.17659" lon="5.28158">
        <ele>1831.8</ele>
        <time>2026-05-14T11:22:29.000Z</time>
      </trkpt>
      <trkpt lat="44.17659" lon="5.28158">
        <ele>1831.8</ele>
        <time>2026-05-14T11:22:30.000Z</time>
      </trkpt>
      <trkpt lat="44.17659" lon="5.28158">
        <ele>1832</ele>
        <time>2026-05-14T11:22:31.000Z</time>
      </trkpt>
      <trkpt lat="44.17659" lon="5.28158">
        <ele>1832</ele>
        <time>2026-05-14T11:22:32.000Z</time>
      </trkpt>
      <trkpt lat="44.17659" lon="5.28158">
        <ele>1832.4</ele>
        <time>2026-05-14T11:22:33.000Z</time>
      </trkpt>
      <trkpt lat="44.17659" lon="5.28158">
        <ele>1832.8</ele>
        <time>2026-05-14T11:22:34.000Z</time>
      </trkpt>
      <trkpt lat="44.17659" lon="5.28158">
        <ele>1833.3</ele>
        <time>2026-05-14T11:22:35.000Z</time>
      </trkpt>
      <trkpt lat="44.17659" lon="5.28158">
        <ele>1834.3</ele>
        <time>2026-05-14T11:22:36.000Z</time>
      </trkpt>
      <trkpt lat="44.17659" lon="5.28158">
        <ele>1835.3</ele>
        <time>2026-05-14T11:22:37.000Z</time>
      </trkpt>
      <trkpt lat="44.17659" lon="5.28158">
        <ele>1835.8</ele>
        <time>2026-05-14T11:22:38.000Z</time>
      </trkpt>
      <trkpt lat="44.17659" lon="5.28158">
        <ele>1836.2</ele>
        <time>2026-05-14T11:22:39.000Z</time>
      </trkpt>
      <trkpt lat="44.17659" lon="5.28158">
        <ele>1836.2</ele>
        <time>2026-05-14T11:22:40.000Z</time>
      </trkpt>
      <trkpt lat="44.17659" lon="5.28158">
        <ele>1836.3</ele>
        <time>2026-05-14T11:22:41.000Z</time>
      </trkpt>
      <trkpt lat="44.17659" lon="5.28158">
        <ele>1836.6</ele>
        <time>2026-05-14T11:22:42.000Z</time>
      </trkpt>
      <trkpt lat="44.17659" lon="5.28158">
        <ele>1836.7</ele>
        <time>2026-05-14T11:22:43.000Z</time>
      </trkpt>
      <trkpt lat="44.17659" lon="5.28158">
        <ele>1836.7</ele>
        <time>2026-05-14T11:22:44.000Z</time>
      </trkpt>
      <trkpt lat="44.17659" lon="5.28158">
        <ele>1836.7</ele>
        <time>2026-05-14T11:22:45.000Z</time>
      </trkpt>
      <trkpt lat="44.17659" lon="5.28158">
        <ele>1836.8</ele>
        <time>2026-05-14T11:22:46.000Z</time>
      </trkpt>
      <trkpt lat="44.17659" lon="5.28158">
        <ele>1837</ele>
        <time>2026-05-14T11:22:47.000Z</time>
      </trkpt>
      <trkpt lat="44.17659" lon="5.28158">
        <ele>1837</ele>
        <time>2026-05-14T11:22:48.000Z</time>
      </trkpt>
      <trkpt lat="44.17659" lon="5.28158">
        <ele>1837.3</ele>
        <time>2026-05-14T11:22:49.000Z</time>
      </trkpt>
      <trkpt lat="44.17659" lon="5.28158">
        <ele>1837.4</ele>
        <time>2026-05-14T11:22:50.000Z</time>
      </trkpt>
      <trkpt lat="44.17659" lon="5.28158">
        <ele>1837.7</ele>
        <time>2026-05-14T11:22:51.000Z</time>
      </trkpt>
      <trkpt lat="44.17659" lon="5.28158">
        <ele>1838.2</ele>
        <time>2026-05-14T11:22:52.000Z</time>
      </trkpt>
      <trkpt lat="44.17659" lon="5.28158">
        <ele>1838.4</ele>
        <time>2026-05-14T11:22:53.000Z</time>
      </trkpt>
      <trkpt lat="44.17659" lon="5.28158">
        <ele>1838.6</ele>
        <time>2026-05-14T11:22:54.000Z</time>
      </trkpt>
      <trkpt lat="44.17659" lon="5.28158">
        <ele>1838.9</ele>
        <time>2026-05-14T11:22:55.000Z</time>
      </trkpt>
      <trkpt lat="44.17659" lon="5.28158">
        <ele>1839.3</ele>
        <time>2026-05-14T11:22:56.000Z</time>
      </trkpt>
      <trkpt lat="44.17659" lon="5.28158">
        <ele>1839.5</ele>
        <time>2026-05-14T11:22:57.000Z</time>
      </trkpt>
      <trkpt lat="44.17659" lon="5.28158">
        <ele>1839.9</ele>
        <time>2026-05-14T11:22:58.000Z</time>
      </trkpt>
      <trkpt lat="44.17659" lon="5.28158">
        <ele>1840.1</ele>
        <time>2026-05-14T11:22:59.000Z</time>
      </trkpt>
      <trkpt lat="44.17659" lon="5.28158">
        <ele>1840.3</ele>
        <time>2026-05-14T11:23:00.000Z</time>
      </trkpt>
      <trkpt lat="44.17659" lon="5.28157">
        <ele>1840.6</ele>
        <time>2026-05-14T11:23:01.000Z</time>
      </trkpt>
      <trkpt lat="44.17659" lon="5.28157">
        <ele>1840.8</ele>
        <time>2026-05-14T11:23:02.000Z</time>
      </trkpt>
      <trkpt lat="44.17659" lon="5.28158">
        <ele>1840.9</ele>
        <time>2026-05-14T11:23:03.000Z</time>
      </trkpt>
      <trkpt lat="44.17659" lon="5.28158">
        <ele>1840.9</ele>
        <time>2026-05-14T11:23:04.000Z</time>
      </trkpt>
      <trkpt lat="44.17659" lon="5.28158">
        <ele>1840.8</ele>
        <time>2026-05-14T11:23:05.000Z</time>
      </trkpt>
      <trkpt lat="44.17659" lon="5.28158">
        <ele>1840.6</ele>
        <time>2026-05-14T11:23:06.000Z</time>
      </trkpt>
      <trkpt lat="44.17659" lon="5.28158">
        <ele>1840.4</ele>
        <time>2026-05-14T11:23:07.000Z</time>
      </trkpt>
      <trkpt lat="44.17659" lon="5.28158">
        <ele>1840.3</ele>
        <time>2026-05-14T11:23:08.000Z</time>
      </trkpt>
      <trkpt lat="44.17659" lon="5.28158">
        <ele>1840.4</ele>
        <time>2026-05-14T11:23:09.000Z</time>
      </trkpt>
      <trkpt lat="44.17659" lon="5.28158">
        <ele>1840.3</ele>
        <time>2026-05-14T11:23:10.000Z</time>
      </trkpt>
      <trkpt lat="44.17659" lon="5.28158">
        <ele>1840.3</ele>
        <time>2026-05-14T11:23:11.000Z</time>
      </trkpt>
      <trkpt lat="44.17659" lon="5.28158">
        <ele>1840.1</ele>
        <time>2026-05-14T11:23:12.000Z</time>
      </trkpt>
      <trkpt lat="44.17659" lon="5.28158">
        <ele>1840.1</ele>
        <time>2026-05-14T11:23:13.000Z</time>
      </trkpt>
      <trkpt lat="44.17659" lon="5.28158">
        <ele>1840</ele>
        <time>2026-05-14T11:23:14.000Z</time>
      </trkpt>
      <trkpt lat="44.17659" lon="5.28158">
        <ele>1839.8</ele>
        <time>2026-05-14T11:23:15.000Z</time>
      </trkpt>
      <trkpt lat="44.17659" lon="5.28158">
        <ele>1839.8</ele>
        <time>2026-05-14T11:23:16.000Z</time>
      </trkpt>
      <trkpt lat="44.17659" lon="5.28158">
        <ele>1839.9</ele>
        <time>2026-05-14T11:23:17.000Z</time>
      </trkpt>
      <trkpt lat="44.17659" lon="5.28158">
        <ele>1840</ele>
        <time>2026-05-14T11:23:18.000Z</time>
      </trkpt>
      <trkpt lat="44.17659" lon="5.28158">
        <ele>1839.7</ele>
        <time>2026-05-14T11:23:19.000Z</time>
      </trkpt>
      <trkpt lat="44.17659" lon="5.28158">
        <ele>1839.6</ele>
        <time>2026-05-14T11:23:20.000Z</time>
      </trkpt>
      <trkpt lat="44.17659" lon="5.28158">
        <ele>1839.6</ele>
        <time>2026-05-14T11:23:21.000Z</time>
      </trkpt>
      <trkpt lat="44.17659" lon="5.28158">
        <ele>1839.6</ele>
        <time>2026-05-14T11:23:22.000Z</time>
      </trkpt>
      <trkpt lat="44.17659" lon="5.28158">
        <ele>1839.6</ele>
        <time>2026-05-14T11:23:23.000Z</time>
      </trkpt>
      <trkpt lat="44.17659" lon="5.28157">
        <ele>1839.6</ele>
        <time>2026-05-14T11:23:24.000Z</time>
      </trkpt>
      <trkpt lat="44.17659" lon="5.28157">
        <ele>1839.7</ele>
        <time>2026-05-14T11:23:25.000Z</time>
      </trkpt>
      <trkpt lat="44.17659" lon="5.28157">
        <ele>1839.8</ele>
        <time>2026-05-14T11:23:26.000Z</time>
      </trkpt>
      <trkpt lat="44.17659" lon="5.28157">
        <ele>1840</ele>
        <time>2026-05-14T11:23:27.000Z</time>
      </trkpt>
      <trkpt lat="44.17659" lon="5.28157">
        <ele>1840.1</ele>
        <time>2026-05-14T11:23:28.000Z</time>
      </trkpt>
      <trkpt lat="44.17659" lon="5.28158">
        <ele>1839.9</ele>
        <time>2026-05-14T11:23:29.000Z</time>
      </trkpt>
      <trkpt lat="44.17659" lon="5.28158">
        <ele>1839.9</ele>
        <time>2026-05-14T11:23:30.000Z</time>
      </trkpt>
      <trkpt lat="44.17659" lon="5.28158">
        <ele>1839.8</ele>
        <time>2026-05-14T11:23:31.000Z</time>
      </trkpt>
      <trkpt lat="44.17659" lon="5.28158">
        <ele>1839.9</ele>
        <time>2026-05-14T11:23:32.000Z</time>
      </trkpt>
      <trkpt lat="44.17659" lon="5.28158">
        <ele>1840.2</ele>
        <time>2026-05-14T11:23:33.000Z</time>
      </trkpt>
      <trkpt lat="44.17659" lon="5.28158">
        <ele>1840.5</ele>
        <time>2026-05-14T11:23:34.000Z</time>
      </trkpt>
      <trkpt lat="44.17659" lon="5.28158">
        <ele>1840.6</ele>
        <time>2026-05-14T11:23:35.000Z</time>
      </trkpt>
      <trkpt lat="44.17659" lon="5.28158">
        <ele>1840.6</ele>
        <time>2026-05-14T11:23:36.000Z</time>
      </trkpt>
      <trkpt lat="44.17659" lon="5.28158">
        <ele>1840.7</ele>
        <time>2026-05-14T11:23:37.000Z</time>
      </trkpt>
      <trkpt lat="44.17659" lon="5.28158">
        <ele>1840.7</ele>
        <time>2026-05-14T11:23:38.000Z</time>
      </trkpt>
      <trkpt lat="44.17659" lon="5.28158">
        <ele>1840.7</ele>
        <time>2026-05-14T11:23:39.000Z</time>
      </trkpt>
      <trkpt lat="44.17659" lon="5.28158">
        <ele>1840.7</ele>
        <time>2026-05-14T11:23:40.000Z</time>
      </trkpt>
      <trkpt lat="44.17659" lon="5.28158">
        <ele>1840.6</ele>
        <time>2026-05-14T11:23:41.000Z</time>
      </trkpt>
      <trkpt lat="44.17659" lon="5.28158">
        <ele>1840.6</ele>
        <time>2026-05-14T11:23:42.000Z</time>
      </trkpt>
      <trkpt lat="44.17659" lon="5.28158">
        <ele>1840.5</ele>
        <time>2026-05-14T11:23:43.000Z</time>
      </trkpt>
      <trkpt lat="44.17659" lon="5.28158">
        <ele>1840.4</ele>
        <time>2026-05-14T11:23:44.000Z</time>
      </trkpt>
      <trkpt lat="44.17659" lon="5.28158">
        <ele>1840.5</ele>
        <time>2026-05-14T11:23:45.000Z</time>
      </trkpt>
      <trkpt lat="44.17659" lon="5.28158">
        <ele>1840.5</ele>
        <time>2026-05-14T11:23:46.000Z</time>
      </trkpt>
      <trkpt lat="44.17659" lon="5.28158">
        <ele>1840.2</ele>
        <time>2026-05-14T11:23:47.000Z</time>
      </trkpt>
      <trkpt lat="44.17659" lon="5.28158">
        <ele>1839.8</ele>
        <time>2026-05-14T11:23:48.000Z</time>
      </trkpt>
      <trkpt lat="44.17659" lon="5.28158">
        <ele>1839.5</ele>
        <time>2026-05-14T11:23:49.000Z</time>
      </trkpt>
      <trkpt lat="44.17659" lon="5.28158">
        <ele>1839.2</ele>
        <time>2026-05-14T11:23:50.000Z</time>
      </trkpt>
      <trkpt lat="44.17659" lon="5.28158">
        <ele>1838.8</ele>
        <time>2026-05-14T11:23:51.000Z</time>
      </trkpt>
      <trkpt lat="44.17659" lon="5.28158">
        <ele>1838.6</ele>
        <time>2026-05-14T11:23:52.000Z</time>
      </trkpt>
      <trkpt lat="44.17659" lon="5.28159">
        <ele>1838.3</ele>
        <time>2026-05-14T11:23:53.000Z</time>
      </trkpt>
      <trkpt lat="44.17659" lon="5.28159">
        <ele>1838.1</ele>
        <time>2026-05-14T11:23:54.000Z</time>
      </trkpt>
      <trkpt lat="44.17659" lon="5.28159">
        <ele>1837.9</ele>
        <time>2026-05-14T11:23:55.000Z</time>
      </trkpt>
      <trkpt lat="44.17659" lon="5.28159">
        <ele>1837.6</ele>
        <time>2026-05-14T11:23:56.000Z</time>
      </trkpt>
      <trkpt lat="44.17659" lon="5.28159">
        <ele>1837.4</ele>
        <time>2026-05-14T11:23:57.000Z</time>
      </trkpt>
      <trkpt lat="44.17659" lon="5.28159">
        <ele>1837</ele>
        <time>2026-05-14T11:23:58.000Z</time>
      </trkpt>
      <trkpt lat="44.17659" lon="5.28159">
        <ele>1836.8</ele>
        <time>2026-05-14T11:23:59.000Z</time>
      </trkpt>
      <trkpt lat="44.17659" lon="5.28159">
        <ele>1836.6</ele>
        <time>2026-05-14T11:24:00.000Z</time>
      </trkpt>
      <trkpt lat="44.17659" lon="5.28159">
        <ele>1836.4</ele>
        <time>2026-05-14T11:24:01.000Z</time>
      </trkpt>
      <trkpt lat="44.17659" lon="5.28159">
        <ele>1836.1</ele>
        <time>2026-05-14T11:24:02.000Z</time>
      </trkpt>
      <trkpt lat="44.17659" lon="5.28159">
        <ele>1835.9</ele>
        <time>2026-05-14T11:24:03.000Z</time>
      </trkpt>
      <trkpt lat="44.17659" lon="5.28159">
        <ele>1835.9</ele>
        <time>2026-05-14T11:24:04.000Z</time>
      </trkpt>
      <trkpt lat="44.17659" lon="5.28159">
        <ele>1835.9</ele>
        <time>2026-05-14T11:24:05.000Z</time>
      </trkpt>
      <trkpt lat="44.17659" lon="5.28159">
        <ele>1835.8</ele>
        <time>2026-05-14T11:24:06.000Z</time>
      </trkpt>
      <trkpt lat="44.17659" lon="5.28159">
        <ele>1835.6</ele>
        <time>2026-05-14T11:24:07.000Z</time>
      </trkpt>
      <trkpt lat="44.17659" lon="5.28159">
        <ele>1835.4</ele>
        <time>2026-05-14T11:24:08.000Z</time>
      </trkpt>
      <trkpt lat="44.17659" lon="5.28159">
        <ele>1835.1</ele>
        <time>2026-05-14T11:24:09.000Z</time>
      </trkpt>
      <trkpt lat="44.17659" lon="5.28159">
        <ele>1834.9</ele>
        <time>2026-05-14T11:24:10.000Z</time>
      </trkpt>
      <trkpt lat="44.17659" lon="5.28159">
        <ele>1834.7</ele>
        <time>2026-05-14T11:24:11.000Z</time>
      </trkpt>
      <trkpt lat="44.17659" lon="5.28159">
        <ele>1834.8</ele>
        <time>2026-05-14T11:24:12.000Z</time>
      </trkpt>
      <trkpt lat="44.17659" lon="5.28159">
        <ele>1834.7</ele>
        <time>2026-05-14T11:24:13.000Z</time>
      </trkpt>
      <trkpt lat="44.17659" lon="5.28159">
        <ele>1834.6</ele>
        <time>2026-05-14T11:24:14.000Z</time>
      </trkpt>
      <trkpt lat="44.17659" lon="5.28159">
        <ele>1834.7</ele>
        <time>2026-05-14T11:24:15.000Z</time>
      </trkpt>
      <trkpt lat="44.17659" lon="5.28159">
        <ele>1834.6</ele>
        <time>2026-05-14T11:24:16.000Z</time>
      </trkpt>
      <trkpt lat="44.17659" lon="5.28159">
        <ele>1834.5</ele>
        <time>2026-05-14T11:24:17.000Z</time>
      </trkpt>
      <trkpt lat="44.17659" lon="5.28159">
        <ele>1834.4</ele>
        <time>2026-05-14T11:24:18.000Z</time>
      </trkpt>
      <trkpt lat="44.17659" lon="5.28159">
        <ele>1834.3</ele>
        <time>2026-05-14T11:24:19.000Z</time>
      </trkpt>
      <trkpt lat="44.17659" lon="5.28159">
        <ele>1834.2</ele>
        <time>2026-05-14T11:24:20.000Z</time>
      </trkpt>
      <trkpt lat="44.17659" lon="5.28159">
        <ele>1834</ele>
        <time>2026-05-14T11:24:21.000Z</time>
      </trkpt>
      <trkpt lat="44.17659" lon="5.28159">
        <ele>1833.9</ele>
        <time>2026-05-14T11:24:22.000Z</time>
      </trkpt>
      <trkpt lat="44.17659" lon="5.28159">
        <ele>1833.7</ele>
        <time>2026-05-14T11:24:23.000Z</time>
      </trkpt>
      <trkpt lat="44.17659" lon="5.28159">
        <ele>1833.6</ele>
        <time>2026-05-14T11:24:24.000Z</time>
      </trkpt>
      <trkpt lat="44.17659" lon="5.28159">
        <ele>1833.6</ele>
        <time>2026-05-14T11:24:25.000Z</time>
      </trkpt>
      <trkpt lat="44.17659" lon="5.28159">
        <ele>1833.6</ele>
        <time>2026-05-14T11:24:26.000Z</time>
      </trkpt>
      <trkpt lat="44.17659" lon="5.28159">
        <ele>1832.9</ele>
        <time>2026-05-14T11:24:28.000Z</time>
      </trkpt>
      <trkpt lat="44.17658" lon="5.28159">
        <ele>1832.8</ele>
        <time>2026-05-14T11:24:29.000Z</time>
      </trkpt>
      <trkpt lat="44.17658" lon="5.28159">
        <ele>1833.1</ele>
        <time>2026-05-14T11:24:30.000Z</time>
      </trkpt>
      <trkpt lat="44.17658" lon="5.28159">
        <ele>1833.3</ele>
        <time>2026-05-14T11:24:31.000Z</time>
      </trkpt>
      <trkpt lat="44.17658" lon="5.28159">
        <ele>1833.4</ele>
        <time>2026-05-14T11:24:32.000Z</time>
      </trkpt>
      <trkpt lat="44.17658" lon="5.28159">
        <ele>1833.1</ele>
        <time>2026-05-14T11:24:33.000Z</time>
      </trkpt>
      <trkpt lat="44.17658" lon="5.28159">
        <ele>1833.4</ele>
        <time>2026-05-14T11:24:34.000Z</time>
      </trkpt>
      <trkpt lat="44.17658" lon="5.28159">
        <ele>1834.1</ele>
        <time>2026-05-14T11:24:35.000Z</time>
      </trkpt>
      <trkpt lat="44.17658" lon="5.28158">
        <ele>1834.4</ele>
        <time>2026-05-14T11:24:36.000Z</time>
      </trkpt>
      <trkpt lat="44.17658" lon="5.28158">
        <ele>1835</ele>
        <time>2026-05-14T11:24:37.000Z</time>
      </trkpt>
      <trkpt lat="44.17658" lon="5.28158">
        <ele>1835.3</ele>
        <time>2026-05-14T11:24:38.000Z</time>
      </trkpt>
      <trkpt lat="44.17657" lon="5.28158">
        <ele>1835.3</ele>
        <time>2026-05-14T11:24:39.000Z</time>
      </trkpt>
      <trkpt lat="44.17657" lon="5.28158">
        <ele>1835.8</ele>
        <time>2026-05-14T11:24:40.000Z</time>
      </trkpt>
      <trkpt lat="44.17657" lon="5.28158">
        <ele>1835.9</ele>
        <time>2026-05-14T11:24:41.000Z</time>
      </trkpt>
      <trkpt lat="44.17657" lon="5.28158">
        <ele>1836.2</ele>
        <time>2026-05-14T11:24:42.000Z</time>
      </trkpt>
      <trkpt lat="44.17657" lon="5.28158">
        <ele>1836.7</ele>
        <time>2026-05-14T11:24:43.000Z</time>
      </trkpt>
      <trkpt lat="44.17657" lon="5.28158">
        <ele>1836.8</ele>
        <time>2026-05-14T11:24:44.000Z</time>
      </trkpt>
      <trkpt lat="44.17657" lon="5.28158">
        <ele>1837.1</ele>
        <time>2026-05-14T11:24:45.000Z</time>
      </trkpt>
      <trkpt lat="44.17657" lon="5.28158">
        <ele>1837.2</ele>
        <time>2026-05-14T11:24:46.000Z</time>
      </trkpt>
      <trkpt lat="44.17657" lon="5.28158">
        <ele>1837.6</ele>
        <time>2026-05-14T11:24:47.000Z</time>
      </trkpt>
      <trkpt lat="44.17657" lon="5.28158">
        <ele>1837.6</ele>
        <time>2026-05-14T11:24:48.000Z</time>
      </trkpt>
      <trkpt lat="44.17656" lon="5.28158">
        <ele>1837.1</ele>
        <time>2026-05-14T11:24:49.000Z</time>
      </trkpt>
      <trkpt lat="44.17656" lon="5.28158">
        <ele>1837</ele>
        <time>2026-05-14T11:24:50.000Z</time>
      </trkpt>
      <trkpt lat="44.17656" lon="5.28158">
        <ele>1836.8</ele>
        <time>2026-05-14T11:24:51.000Z</time>
      </trkpt>
      <trkpt lat="44.17656" lon="5.28158">
        <ele>1837</ele>
        <time>2026-05-14T11:24:52.000Z</time>
      </trkpt>
      <trkpt lat="44.17656" lon="5.28158">
        <ele>1836.8</ele>
        <time>2026-05-14T11:24:53.000Z</time>
      </trkpt>
      <trkpt lat="44.17656" lon="5.28157">
        <ele>1837</ele>
        <time>2026-05-14T11:24:54.000Z</time>
      </trkpt>
      <trkpt lat="44.17656" lon="5.28157">
        <ele>1837.3</ele>
        <time>2026-05-14T11:24:55.000Z</time>
      </trkpt>
      <trkpt lat="44.17656" lon="5.28157">
        <ele>1837.4</ele>
        <time>2026-05-14T11:24:56.000Z</time>
      </trkpt>
      <trkpt lat="44.17656" lon="5.28157">
        <ele>1837.5</ele>
        <time>2026-05-14T11:24:57.000Z</time>
      </trkpt>
      <trkpt lat="44.17656" lon="5.28157">
        <ele>1837.6</ele>
        <time>2026-05-14T11:24:58.000Z</time>
      </trkpt>
      <trkpt lat="44.17656" lon="5.28157">
        <ele>1837.7</ele>
        <time>2026-05-14T11:24:59.000Z</time>
      </trkpt>
      <trkpt lat="44.17656" lon="5.28157">
        <ele>1837.8</ele>
        <time>2026-05-14T11:25:00.000Z</time>
      </trkpt>
      <trkpt lat="44.17656" lon="5.28157">
        <ele>1838</ele>
        <time>2026-05-14T11:25:01.000Z</time>
      </trkpt>
      <trkpt lat="44.17656" lon="5.28157">
        <ele>1837.9</ele>
        <time>2026-05-14T11:25:02.000Z</time>
      </trkpt>
      <trkpt lat="44.17656" lon="5.28157">
        <ele>1837.9</ele>
        <time>2026-05-14T11:25:03.000Z</time>
      </trkpt>
      <trkpt lat="44.17656" lon="5.28157">
        <ele>1837.8</ele>
        <time>2026-05-14T11:25:04.000Z</time>
      </trkpt>
      <trkpt lat="44.17656" lon="5.28157">
        <ele>1838.1</ele>
        <time>2026-05-14T11:25:05.000Z</time>
      </trkpt>
      <trkpt lat="44.17656" lon="5.28156">
        <ele>1838.1</ele>
        <time>2026-05-14T11:25:06.000Z</time>
      </trkpt>
      <trkpt lat="44.17656" lon="5.28156">
        <ele>1838</ele>
        <time>2026-05-14T11:25:07.000Z</time>
      </trkpt>
      <trkpt lat="44.17656" lon="5.28156">
        <ele>1838.2</ele>
        <time>2026-05-14T11:25:08.000Z</time>
      </trkpt>
      <trkpt lat="44.17656" lon="5.28156">
        <ele>1838.4</ele>
        <time>2026-05-14T11:25:09.000Z</time>
      </trkpt>
      <trkpt lat="44.17656" lon="5.28156">
        <ele>1838.7</ele>
        <time>2026-05-14T11:25:10.000Z</time>
      </trkpt>
      <trkpt lat="44.17656" lon="5.28156">
        <ele>1839.1</ele>
        <time>2026-05-14T11:25:11.000Z</time>
      </trkpt>
      <trkpt lat="44.17656" lon="5.28156">
        <ele>1839.6</ele>
        <time>2026-05-14T11:25:12.000Z</time>
      </trkpt>
      <trkpt lat="44.17656" lon="5.28156">
        <ele>1840.1</ele>
        <time>2026-05-14T11:25:13.000Z</time>
      </trkpt>
      <trkpt lat="44.17656" lon="5.28156">
        <ele>1840.7</ele>
        <time>2026-05-14T11:25:14.000Z</time>
      </trkpt>
      <trkpt lat="44.17656" lon="5.28156">
        <ele>1841</ele>
        <time>2026-05-14T11:25:15.000Z</time>
      </trkpt>
      <trkpt lat="44.17657" lon="5.28156">
        <ele>1841</ele>
        <time>2026-05-14T11:25:16.000Z</time>
      </trkpt>
      <trkpt lat="44.17657" lon="5.28156">
        <ele>1841.3</ele>
        <time>2026-05-14T11:25:17.000Z</time>
      </trkpt>
      <trkpt lat="44.17657" lon="5.28156">
        <ele>1841.2</ele>
        <time>2026-05-14T11:25:18.000Z</time>
      </trkpt>
      <trkpt lat="44.17657" lon="5.28156">
        <ele>1841.2</ele>
        <time>2026-05-14T11:25:19.000Z</time>
      </trkpt>
      <trkpt lat="44.17657" lon="5.28156">
        <ele>1841.4</ele>
        <time>2026-05-14T11:25:20.000Z</time>
      </trkpt>
      <trkpt lat="44.17657" lon="5.28156">
        <ele>1841.8</ele>
        <time>2026-05-14T11:25:21.000Z</time>
      </trkpt>
      <trkpt lat="44.17657" lon="5.28156">
        <ele>1842.3</ele>
        <time>2026-05-14T11:25:22.000Z</time>
      </trkpt>
      <trkpt lat="44.17656" lon="5.28156">
        <ele>1842.2</ele>
        <time>2026-05-14T11:25:23.000Z</time>
      </trkpt>
      <trkpt lat="44.17656" lon="5.28156">
        <ele>1841.9</ele>
        <time>2026-05-14T11:25:24.000Z</time>
      </trkpt>
      <trkpt lat="44.17657" lon="5.28156">
        <ele>1841.6</ele>
        <time>2026-05-14T11:25:25.000Z</time>
      </trkpt>
      <trkpt lat="44.17657" lon="5.28156">
        <ele>1841.2</ele>
        <time>2026-05-14T11:25:26.000Z</time>
      </trkpt>
      <trkpt lat="44.17657" lon="5.28156">
        <ele>1841</ele>
        <time>2026-05-14T11:25:27.000Z</time>
      </trkpt>
      <trkpt lat="44.17657" lon="5.28156">
        <ele>1841.2</ele>
        <time>2026-05-14T11:25:28.000Z</time>
      </trkpt>
      <trkpt lat="44.17657" lon="5.28156">
        <ele>1841.4</ele>
        <time>2026-05-14T11:25:29.000Z</time>
      </trkpt>
      <trkpt lat="44.17657" lon="5.28156">
        <ele>1841.4</ele>
        <time>2026-05-14T11:25:30.000Z</time>
      </trkpt>
      <trkpt lat="44.17657" lon="5.28156">
        <ele>1841.6</ele>
        <time>2026-05-14T11:25:31.000Z</time>
      </trkpt>
      <trkpt lat="44.17657" lon="5.28156">
        <ele>1841.7</ele>
        <time>2026-05-14T11:25:32.000Z</time>
      </trkpt>
      <trkpt lat="44.17657" lon="5.28156">
        <ele>1841.6</ele>
        <time>2026-05-14T11:25:33.000Z</time>
      </trkpt>
      <trkpt lat="44.17657" lon="5.28156">
        <ele>1841.6</ele>
        <time>2026-05-14T11:25:34.000Z</time>
      </trkpt>
      <trkpt lat="44.17657" lon="5.28155">
        <ele>1841.5</ele>
        <time>2026-05-14T11:25:35.000Z</time>
      </trkpt>
      <trkpt lat="44.17657" lon="5.28155">
        <ele>1841.2</ele>
        <time>2026-05-14T11:25:36.000Z</time>
      </trkpt>
      <trkpt lat="44.17657" lon="5.28155">
        <ele>1841.1</ele>
        <time>2026-05-14T11:25:37.000Z</time>
      </trkpt>
      <trkpt lat="44.17657" lon="5.28155">
        <ele>1841</ele>
        <time>2026-05-14T11:25:38.000Z</time>
      </trkpt>
      <trkpt lat="44.17657" lon="5.28155">
        <ele>1840.8</ele>
        <time>2026-05-14T11:25:39.000Z</time>
      </trkpt>
      <trkpt lat="44.17657" lon="5.28155">
        <ele>1840.8</ele>
        <time>2026-05-14T11:25:40.000Z</time>
      </trkpt>
      <trkpt lat="44.17657" lon="5.28155">
        <ele>1840.9</ele>
        <time>2026-05-14T11:25:41.000Z</time>
      </trkpt>
      <trkpt lat="44.17657" lon="5.28155">
        <ele>1840.6</ele>
        <time>2026-05-14T11:25:42.000Z</time>
      </trkpt>
      <trkpt lat="44.17657" lon="5.28155">
        <ele>1840.6</ele>
        <time>2026-05-14T11:25:43.000Z</time>
      </trkpt>
      <trkpt lat="44.17657" lon="5.28155">
        <ele>1840.3</ele>
        <time>2026-05-14T11:25:44.000Z</time>
      </trkpt>
      <trkpt lat="44.17657" lon="5.28155">
        <ele>1840.5</ele>
        <time>2026-05-14T11:25:45.000Z</time>
      </trkpt>
      <trkpt lat="44.17657" lon="5.28155">
        <ele>1840.5</ele>
        <time>2026-05-14T11:25:46.000Z</time>
      </trkpt>
      <trkpt lat="44.17657" lon="5.28155">
        <ele>1840.7</ele>
        <time>2026-05-14T11:25:47.000Z</time>
      </trkpt>
      <trkpt lat="44.17656" lon="5.28155">
        <ele>1840.7</ele>
        <time>2026-05-14T11:25:48.000Z</time>
      </trkpt>
      <trkpt lat="44.17656" lon="5.28155">
        <ele>1840.7</ele>
        <time>2026-05-14T11:25:49.000Z</time>
      </trkpt>
      <trkpt lat="44.17657" lon="5.28155">
        <ele>1840.8</ele>
        <time>2026-05-14T11:25:50.000Z</time>
      </trkpt>
      <trkpt lat="44.17656" lon="5.28156">
        <ele>1841.3</ele>
        <time>2026-05-14T11:25:51.000Z</time>
      </trkpt>
      <trkpt lat="44.17656" lon="5.28155">
        <ele>1841.9</ele>
        <time>2026-05-14T11:25:52.000Z</time>
      </trkpt>
      <trkpt lat="44.17655" lon="5.28154">
        <ele>1842.6</ele>
        <time>2026-05-14T11:25:53.000Z</time>
      </trkpt>
      <trkpt lat="44.17655" lon="5.28154">
        <ele>1843</ele>
        <time>2026-05-14T11:25:54.000Z</time>
      </trkpt>
      <trkpt lat="44.17655" lon="5.28154">
        <ele>1843.1</ele>
        <time>2026-05-14T11:25:55.000Z</time>
      </trkpt>
      <trkpt lat="44.17655" lon="5.28154">
        <ele>1842.9</ele>
        <time>2026-05-14T11:25:56.000Z</time>
      </trkpt>
      <trkpt lat="44.17655" lon="5.28154">
        <ele>1843.2</ele>
        <time>2026-05-14T11:25:57.000Z</time>
      </trkpt>
      <trkpt lat="44.17655" lon="5.28154">
        <ele>1843.3</ele>
        <time>2026-05-14T11:25:58.000Z</time>
      </trkpt>
      <trkpt lat="44.17655" lon="5.28154">
        <ele>1843.6</ele>
        <time>2026-05-14T11:25:59.000Z</time>
      </trkpt>
      <trkpt lat="44.17655" lon="5.28154">
        <ele>1843.8</ele>
        <time>2026-05-14T11:26:00.000Z</time>
      </trkpt>
      <trkpt lat="44.17655" lon="5.28154">
        <ele>1844</ele>
        <time>2026-05-14T11:26:01.000Z</time>
      </trkpt>
      <trkpt lat="44.17655" lon="5.28154">
        <ele>1844.4</ele>
        <time>2026-05-14T11:26:02.000Z</time>
      </trkpt>
      <trkpt lat="44.17655" lon="5.28154">
        <ele>1844.5</ele>
        <time>2026-05-14T11:26:03.000Z</time>
      </trkpt>
      <trkpt lat="44.17655" lon="5.28154">
        <ele>1844.5</ele>
        <time>2026-05-14T11:26:04.000Z</time>
      </trkpt>
      <trkpt lat="44.17655" lon="5.28154">
        <ele>1844.9</ele>
        <time>2026-05-14T11:26:05.000Z</time>
      </trkpt>
      <trkpt lat="44.17655" lon="5.28154">
        <ele>1845.1</ele>
        <time>2026-05-14T11:26:06.000Z</time>
      </trkpt>
      <trkpt lat="44.17655" lon="5.28154">
        <ele>1845.6</ele>
        <time>2026-05-14T11:26:07.000Z</time>
      </trkpt>
      <trkpt lat="44.17655" lon="5.28154">
        <ele>1845.7</ele>
        <time>2026-05-14T11:26:08.000Z</time>
      </trkpt>
      <trkpt lat="44.17655" lon="5.28154">
        <ele>1845.7</ele>
        <time>2026-05-14T11:26:09.000Z</time>
      </trkpt>
      <trkpt lat="44.17655" lon="5.28154">
        <ele>1845.5</ele>
        <time>2026-05-14T11:26:10.000Z</time>
      </trkpt>
      <trkpt lat="44.17655" lon="5.28154">
        <ele>1845.1</ele>
        <time>2026-05-14T11:26:11.000Z</time>
      </trkpt>
      <trkpt lat="44.17655" lon="5.28154">
        <ele>1844.8</ele>
        <time>2026-05-14T11:26:12.000Z</time>
      </trkpt>
      <trkpt lat="44.17655" lon="5.28154">
        <ele>1844.5</ele>
        <time>2026-05-14T11:26:13.000Z</time>
      </trkpt>
      <trkpt lat="44.17655" lon="5.28154">
        <ele>1844.2</ele>
        <time>2026-05-14T11:26:14.000Z</time>
      </trkpt>
      <trkpt lat="44.17655" lon="5.28154">
        <ele>1844</ele>
        <time>2026-05-14T11:26:15.000Z</time>
      </trkpt>
      <trkpt lat="44.17655" lon="5.28154">
        <ele>1843.8</ele>
        <time>2026-05-14T11:26:16.000Z</time>
      </trkpt>
      <trkpt lat="44.17655" lon="5.28154">
        <ele>1843.6</ele>
        <time>2026-05-14T11:26:17.000Z</time>
      </trkpt>
      <trkpt lat="44.17655" lon="5.28154">
        <ele>1843.7</ele>
        <time>2026-05-14T11:26:18.000Z</time>
      </trkpt>
      <trkpt lat="44.17655" lon="5.28154">
        <ele>1843.5</ele>
        <time>2026-05-14T11:26:19.000Z</time>
      </trkpt>
      <trkpt lat="44.17655" lon="5.28154">
        <ele>1843.3</ele>
        <time>2026-05-14T11:26:20.000Z</time>
      </trkpt>
      <trkpt lat="44.17655" lon="5.28154">
        <ele>1843.3</ele>
        <time>2026-05-14T11:26:21.000Z</time>
      </trkpt>
      <trkpt lat="44.17655" lon="5.28154">
        <ele>1843.3</ele>
        <time>2026-05-14T11:26:22.000Z</time>
      </trkpt>
      <trkpt lat="44.17655" lon="5.28154">
        <ele>1843.6</ele>
        <time>2026-05-14T11:26:23.000Z</time>
      </trkpt>
      <trkpt lat="44.17655" lon="5.28154">
        <ele>1843.9</ele>
        <time>2026-05-14T11:26:24.000Z</time>
      </trkpt>
      <trkpt lat="44.17655" lon="5.28154">
        <ele>1843.9</ele>
        <time>2026-05-14T11:26:25.000Z</time>
      </trkpt>
      <trkpt lat="44.17655" lon="5.28154">
        <ele>1843.7</ele>
        <time>2026-05-14T11:26:26.000Z</time>
      </trkpt>
      <trkpt lat="44.17655" lon="5.28154">
        <ele>1843.4</ele>
        <time>2026-05-14T11:26:27.000Z</time>
      </trkpt>
      <trkpt lat="44.17655" lon="5.28154">
        <ele>1843.3</ele>
        <time>2026-05-14T11:26:28.000Z</time>
      </trkpt>
      <trkpt lat="44.17655" lon="5.28154">
        <ele>1843.2</ele>
        <time>2026-05-14T11:26:29.000Z</time>
      </trkpt>
      <trkpt lat="44.17655" lon="5.28154">
        <ele>1843.2</ele>
        <time>2026-05-14T11:26:30.000Z</time>
      </trkpt>
      <trkpt lat="44.17655" lon="5.28154">
        <ele>1843.1</ele>
        <time>2026-05-14T11:26:31.000Z</time>
      </trkpt>
      <trkpt lat="44.17655" lon="5.28154">
        <ele>1843</ele>
        <time>2026-05-14T11:26:32.000Z</time>
      </trkpt>
      <trkpt lat="44.17655" lon="5.28154">
        <ele>1843</ele>
        <time>2026-05-14T11:26:33.000Z</time>
      </trkpt>
      <trkpt lat="44.17655" lon="5.28154">
        <ele>1843.3</ele>
        <time>2026-05-14T11:26:34.000Z</time>
      </trkpt>
      <trkpt lat="44.17655" lon="5.28154">
        <ele>1843.4</ele>
        <time>2026-05-14T11:26:35.000Z</time>
      </trkpt>
      <trkpt lat="44.17655" lon="5.28154">
        <ele>1843.6</ele>
        <time>2026-05-14T11:26:36.000Z</time>
      </trkpt>
      <trkpt lat="44.17655" lon="5.28154">
        <ele>1843.9</ele>
        <time>2026-05-14T11:26:37.000Z</time>
      </trkpt>
      <trkpt lat="44.17655" lon="5.28154">
        <ele>1844.1</ele>
        <time>2026-05-14T11:26:38.000Z</time>
      </trkpt>
      <trkpt lat="44.17655" lon="5.28154">
        <ele>1844.1</ele>
        <time>2026-05-14T11:26:39.000Z</time>
      </trkpt>
      <trkpt lat="44.17655" lon="5.28154">
        <ele>1844.4</ele>
        <time>2026-05-14T11:26:40.000Z</time>
      </trkpt>
      <trkpt lat="44.17655" lon="5.28154">
        <ele>1844.7</ele>
        <time>2026-05-14T11:26:41.000Z</time>
      </trkpt>
      <trkpt lat="44.17655" lon="5.28154">
        <ele>1845.4</ele>
        <time>2026-05-14T11:26:42.000Z</time>
      </trkpt>
      <trkpt lat="44.17655" lon="5.28154">
        <ele>1845.6</ele>
        <time>2026-05-14T11:26:43.000Z</time>
      </trkpt>
      <trkpt lat="44.17655" lon="5.28154">
        <ele>1845.8</ele>
        <time>2026-05-14T11:26:44.000Z</time>
      </trkpt>
      <trkpt lat="44.17655" lon="5.28154">
        <ele>1845.9</ele>
        <time>2026-05-14T11:26:45.000Z</time>
      </trkpt>
      <trkpt lat="44.17655" lon="5.28154">
        <ele>1845.9</ele>
        <time>2026-05-14T11:26:46.000Z</time>
      </trkpt>
      <trkpt lat="44.17655" lon="5.28154">
        <ele>1845.8</ele>
        <time>2026-05-14T11:26:47.000Z</time>
      </trkpt>
      <trkpt lat="44.17655" lon="5.28154">
        <ele>1845.8</ele>
        <time>2026-05-14T11:26:48.000Z</time>
      </trkpt>
      <trkpt lat="44.17655" lon="5.28154">
        <ele>1845.7</ele>
        <time>2026-05-14T11:26:49.000Z</time>
      </trkpt>
      <trkpt lat="44.17655" lon="5.28154">
        <ele>1845.4</ele>
        <time>2026-05-14T11:26:50.000Z</time>
      </trkpt>
      <trkpt lat="44.17655" lon="5.28154">
        <ele>1845.1</ele>
        <time>2026-05-14T11:26:51.000Z</time>
      </trkpt>
      <trkpt lat="44.17655" lon="5.28154">
        <ele>1844.9</ele>
        <time>2026-05-14T11:26:52.000Z</time>
      </trkpt>
      <trkpt lat="44.17655" lon="5.28154">
        <ele>1844.8</ele>
        <time>2026-05-14T11:26:53.000Z</time>
      </trkpt>
      <trkpt lat="44.17655" lon="5.28154">
        <ele>1844.9</ele>
        <time>2026-05-14T11:26:54.000Z</time>
      </trkpt>
      <trkpt lat="44.17655" lon="5.28154">
        <ele>1845.2</ele>
        <time>2026-05-14T11:26:55.000Z</time>
      </trkpt>
      <trkpt lat="44.17655" lon="5.28154">
        <ele>1845.5</ele>
        <time>2026-05-14T11:26:56.000Z</time>
      </trkpt>
      <trkpt lat="44.17655" lon="5.28154">
        <ele>1845.7</ele>
        <time>2026-05-14T11:26:57.000Z</time>
      </trkpt>
      <trkpt lat="44.17655" lon="5.28154">
        <ele>1845.7</ele>
        <time>2026-05-14T11:26:58.000Z</time>
      </trkpt>
      <trkpt lat="44.17655" lon="5.28154">
        <ele>1845.9</ele>
        <time>2026-05-14T11:26:59.000Z</time>
      </trkpt>
      <trkpt lat="44.17655" lon="5.28154">
        <ele>1845.7</ele>
        <time>2026-05-14T11:27:00.000Z</time>
      </trkpt>
      <trkpt lat="44.17655" lon="5.28154">
        <ele>1845.5</ele>
        <time>2026-05-14T11:27:01.000Z</time>
      </trkpt>
      <trkpt lat="44.17655" lon="5.28154">
        <ele>1845.5</ele>
        <time>2026-05-14T11:27:02.000Z</time>
      </trkpt>
      <trkpt lat="44.17655" lon="5.28154">
        <ele>1845.4</ele>
        <time>2026-05-14T11:27:03.000Z</time>
      </trkpt>
      <trkpt lat="44.17655" lon="5.28154">
        <ele>1845.3</ele>
        <time>2026-05-14T11:27:04.000Z</time>
      </trkpt>
      <trkpt lat="44.17655" lon="5.28154">
        <ele>1845.3</ele>
        <time>2026-05-14T11:27:05.000Z</time>
      </trkpt>
      <trkpt lat="44.17655" lon="5.28154">
        <ele>1845.5</ele>
        <time>2026-05-14T11:27:06.000Z</time>
      </trkpt>
      <trkpt lat="44.17655" lon="5.28154">
        <ele>1845.5</ele>
        <time>2026-05-14T11:27:07.000Z</time>
      </trkpt>
      <trkpt lat="44.17655" lon="5.28154">
        <ele>1845.5</ele>
        <time>2026-05-14T11:27:08.000Z</time>
      </trkpt>
      <trkpt lat="44.17655" lon="5.28154">
        <ele>1845.5</ele>
        <time>2026-05-14T11:27:09.000Z</time>
      </trkpt>
      <trkpt lat="44.17655" lon="5.28154">
        <ele>1845.7</ele>
        <time>2026-05-14T11:27:10.000Z</time>
      </trkpt>
      <trkpt lat="44.17655" lon="5.28154">
        <ele>1846</ele>
        <time>2026-05-14T11:27:11.000Z</time>
      </trkpt>
      <trkpt lat="44.17655" lon="5.28154">
        <ele>1846.2</ele>
        <time>2026-05-14T11:27:12.000Z</time>
      </trkpt>
      <trkpt lat="44.17655" lon="5.28154">
        <ele>1846.5</ele>
        <time>2026-05-14T11:27:13.000Z</time>
      </trkpt>
      <trkpt lat="44.17655" lon="5.28155">
        <ele>1846.4</ele>
        <time>2026-05-14T11:27:14.000Z</time>
      </trkpt>
      <trkpt lat="44.17655" lon="5.28155">
        <ele>1846.5</ele>
        <time>2026-05-14T11:27:15.000Z</time>
      </trkpt>
      <trkpt lat="44.17655" lon="5.28155">
        <ele>1846.5</ele>
        <time>2026-05-14T11:27:16.000Z</time>
      </trkpt>
      <trkpt lat="44.17655" lon="5.28155">
        <ele>1846.6</ele>
        <time>2026-05-14T11:27:17.000Z</time>
      </trkpt>
      <trkpt lat="44.17655" lon="5.28155">
        <ele>1846.8</ele>
        <time>2026-05-14T11:27:18.000Z</time>
      </trkpt>
      <trkpt lat="44.17655" lon="5.28155">
        <ele>1846.9</ele>
        <time>2026-05-14T11:27:19.000Z</time>
      </trkpt>
      <trkpt lat="44.17655" lon="5.28155">
        <ele>1847</ele>
        <time>2026-05-14T11:27:20.000Z</time>
      </trkpt>
      <trkpt lat="44.17655" lon="5.28155">
        <ele>1846.9</ele>
        <time>2026-05-14T11:27:21.000Z</time>
      </trkpt>
      <trkpt lat="44.17655" lon="5.28155">
        <ele>1846.9</ele>
        <time>2026-05-14T11:27:22.000Z</time>
      </trkpt>
      <trkpt lat="44.17655" lon="5.28155">
        <ele>1846.9</ele>
        <time>2026-05-14T11:27:23.000Z</time>
      </trkpt>
      <trkpt lat="44.17655" lon="5.28155">
        <ele>1847</ele>
        <time>2026-05-14T11:27:24.000Z</time>
      </trkpt>
      <trkpt lat="44.17655" lon="5.28155">
        <ele>1847.1</ele>
        <time>2026-05-14T11:27:25.000Z</time>
      </trkpt>
      <trkpt lat="44.17655" lon="5.28155">
        <ele>1847.5</ele>
        <time>2026-05-14T11:27:26.000Z</time>
      </trkpt>
      <trkpt lat="44.17655" lon="5.28155">
        <ele>1847.9</ele>
        <time>2026-05-14T11:27:27.000Z</time>
      </trkpt>
      <trkpt lat="44.17655" lon="5.28155">
        <ele>1848</ele>
        <time>2026-05-14T11:27:28.000Z</time>
      </trkpt>
      <trkpt lat="44.17655" lon="5.28155">
        <ele>1848</ele>
        <time>2026-05-14T11:27:29.000Z</time>
      </trkpt>
      <trkpt lat="44.17655" lon="5.28155">
        <ele>1848</ele>
        <time>2026-05-14T11:27:30.000Z</time>
      </trkpt>
      <trkpt lat="44.17655" lon="5.28155">
        <ele>1848</ele>
        <time>2026-05-14T11:27:31.000Z</time>
      </trkpt>
      <trkpt lat="44.17655" lon="5.28155">
        <ele>1848</ele>
        <time>2026-05-14T11:27:32.000Z</time>
      </trkpt>
      <trkpt lat="44.17655" lon="5.28155">
        <ele>1848.1</ele>
        <time>2026-05-14T11:27:33.000Z</time>
      </trkpt>
      <trkpt lat="44.17655" lon="5.28155">
        <ele>1848.1</ele>
        <time>2026-05-14T11:27:34.000Z</time>
      </trkpt>
      <trkpt lat="44.17655" lon="5.28155">
        <ele>1848</ele>
        <time>2026-05-14T11:27:35.000Z</time>
      </trkpt>
      <trkpt lat="44.17655" lon="5.28154">
        <ele>1847.8</ele>
        <time>2026-05-14T11:27:36.000Z</time>
      </trkpt>
      <trkpt lat="44.17655" lon="5.28154">
        <ele>1847.7</ele>
        <time>2026-05-14T11:27:37.000Z</time>
      </trkpt>
      <trkpt lat="44.17655" lon="5.28154">
        <ele>1847.7</ele>
        <time>2026-05-14T11:27:38.000Z</time>
      </trkpt>
      <trkpt lat="44.17655" lon="5.28154">
        <ele>1847.6</ele>
        <time>2026-05-14T11:27:39.000Z</time>
      </trkpt>
      <trkpt lat="44.17655" lon="5.28154">
        <ele>1847.5</ele>
        <time>2026-05-14T11:27:40.000Z</time>
      </trkpt>
      <trkpt lat="44.17655" lon="5.28154">
        <ele>1847.3</ele>
        <time>2026-05-14T11:27:41.000Z</time>
      </trkpt>
      <trkpt lat="44.17655" lon="5.28154">
        <ele>1847.2</ele>
        <time>2026-05-14T11:27:42.000Z</time>
      </trkpt>
      <trkpt lat="44.17655" lon="5.28154">
        <ele>1847.1</ele>
        <time>2026-05-14T11:27:43.000Z</time>
      </trkpt>
      <trkpt lat="44.17655" lon="5.28154">
        <ele>1847</ele>
        <time>2026-05-14T11:27:44.000Z</time>
      </trkpt>
      <trkpt lat="44.17655" lon="5.28154">
        <ele>1846.9</ele>
        <time>2026-05-14T11:27:45.000Z</time>
      </trkpt>
      <trkpt lat="44.17655" lon="5.28154">
        <ele>1847</ele>
        <time>2026-05-14T11:27:46.000Z</time>
      </trkpt>
      <trkpt lat="44.17655" lon="5.28154">
        <ele>1847</ele>
        <time>2026-05-14T11:27:47.000Z</time>
      </trkpt>
      <trkpt lat="44.17655" lon="5.28154">
        <ele>1846.9</ele>
        <time>2026-05-14T11:27:48.000Z</time>
      </trkpt>
      <trkpt lat="44.17655" lon="5.28154">
        <ele>1846.9</ele>
        <time>2026-05-14T11:27:49.000Z</time>
      </trkpt>
      <trkpt lat="44.17655" lon="5.28154">
        <ele>1846.9</ele>
        <time>2026-05-14T11:27:50.000Z</time>
      </trkpt>
      <trkpt lat="44.17655" lon="5.28154">
        <ele>1846.8</ele>
        <time>2026-05-14T11:27:51.000Z</time>
      </trkpt>
      <trkpt lat="44.17655" lon="5.28154">
        <ele>1846.8</ele>
        <time>2026-05-14T11:27:52.000Z</time>
      </trkpt>
      <trkpt lat="44.17655" lon="5.28154">
        <ele>1846.8</ele>
        <time>2026-05-14T11:27:53.000Z</time>
      </trkpt>
      <trkpt lat="44.17655" lon="5.28154">
        <ele>1846.8</ele>
        <time>2026-05-14T11:27:54.000Z</time>
      </trkpt>
      <trkpt lat="44.17655" lon="5.28154">
        <ele>1846.6</ele>
        <time>2026-05-14T11:27:55.000Z</time>
      </trkpt>
      <trkpt lat="44.17655" lon="5.28154">
        <ele>1846.7</ele>
        <time>2026-05-14T11:27:56.000Z</time>
      </trkpt>
      <trkpt lat="44.17655" lon="5.28154">
        <ele>1846.8</ele>
        <time>2026-05-14T11:27:57.000Z</time>
      </trkpt>
      <trkpt lat="44.17655" lon="5.28154">
        <ele>1846.5</ele>
        <time>2026-05-14T11:27:58.000Z</time>
      </trkpt>
      <trkpt lat="44.17655" lon="5.28154">
        <ele>1846.3</ele>
        <time>2026-05-14T11:27:59.000Z</time>
      </trkpt>
      <trkpt lat="44.17655" lon="5.28154">
        <ele>1846.2</ele>
        <time>2026-05-14T11:28:00.000Z</time>
      </trkpt>
      <trkpt lat="44.17655" lon="5.28154">
        <ele>1845.9</ele>
        <time>2026-05-14T11:28:01.000Z</time>
      </trkpt>
      <trkpt lat="44.17655" lon="5.28154">
        <ele>1845.7</ele>
        <time>2026-05-14T11:28:02.000Z</time>
      </trkpt>
      <trkpt lat="44.17655" lon="5.28154">
        <ele>1845.5</ele>
        <time>2026-05-14T11:28:03.000Z</time>
      </trkpt>
      <trkpt lat="44.17655" lon="5.28154">
        <ele>1845.2</ele>
        <time>2026-05-14T11:28:04.000Z</time>
      </trkpt>
      <trkpt lat="44.17655" lon="5.28154">
        <ele>1845.3</ele>
        <time>2026-05-14T11:28:05.000Z</time>
      </trkpt>
      <trkpt lat="44.17655" lon="5.28154">
        <ele>1845.2</ele>
        <time>2026-05-14T11:28:06.000Z</time>
      </trkpt>
      <trkpt lat="44.17655" lon="5.28154">
        <ele>1845.1</ele>
        <time>2026-05-14T11:28:07.000Z</time>
      </trkpt>
      <trkpt lat="44.17655" lon="5.28154">
        <ele>1844.4</ele>
        <time>2026-05-14T11:28:08.000Z</time>
      </trkpt>
      <trkpt lat="44.17655" lon="5.28155">
        <ele>1843.9</ele>
        <time>2026-05-14T11:28:09.000Z</time>
      </trkpt>
      <trkpt lat="44.17655" lon="5.28155">
        <ele>1843.2</ele>
        <time>2026-05-14T11:28:10.000Z</time>
      </trkpt>
      <trkpt lat="44.17655" lon="5.28155">
        <ele>1842.8</ele>
        <time>2026-05-14T11:28:11.000Z</time>
      </trkpt>
      <trkpt lat="44.17655" lon="5.28155">
        <ele>1842.5</ele>
        <time>2026-05-14T11:28:12.000Z</time>
      </trkpt>
      <trkpt lat="44.17655" lon="5.28155">
        <ele>1842.5</ele>
        <time>2026-05-14T11:28:13.000Z</time>
      </trkpt>
      <trkpt lat="44.17655" lon="5.28155">
        <ele>1842.6</ele>
        <time>2026-05-14T11:28:14.000Z</time>
      </trkpt>
      <trkpt lat="44.17655" lon="5.28155">
        <ele>1842.7</ele>
        <time>2026-05-14T11:28:15.000Z</time>
      </trkpt>
      <trkpt lat="44.17655" lon="5.28155">
        <ele>1842.7</ele>
        <time>2026-05-14T11:28:16.000Z</time>
      </trkpt>
      <trkpt lat="44.17655" lon="5.28155">
        <ele>1842.6</ele>
        <time>2026-05-14T11:28:17.000Z</time>
      </trkpt>
      <trkpt lat="44.17655" lon="5.28155">
        <ele>1842.4</ele>
        <time>2026-05-14T11:28:18.000Z</time>
      </trkpt>
      <trkpt lat="44.17655" lon="5.28155">
        <ele>1842.3</ele>
        <time>2026-05-14T11:28:19.000Z</time>
      </trkpt>
      <trkpt lat="44.17655" lon="5.28155">
        <ele>1842.3</ele>
        <time>2026-05-14T11:28:20.000Z</time>
      </trkpt>
      <trkpt lat="44.17655" lon="5.28155">
        <ele>1842.5</ele>
        <time>2026-05-14T11:28:21.000Z</time>
      </trkpt>
      <trkpt lat="44.17655" lon="5.28155">
        <ele>1842.7</ele>
        <time>2026-05-14T11:28:22.000Z</time>
      </trkpt>
      <trkpt lat="44.17655" lon="5.28155">
        <ele>1843.1</ele>
        <time>2026-05-14T11:28:23.000Z</time>
      </trkpt>
      <trkpt lat="44.17655" lon="5.28155">
        <ele>1843.2</ele>
        <time>2026-05-14T11:28:24.000Z</time>
      </trkpt>
      <trkpt lat="44.17655" lon="5.28155">
        <ele>1843.3</ele>
        <time>2026-05-14T11:28:25.000Z</time>
      </trkpt>
      <trkpt lat="44.17655" lon="5.28155">
        <ele>1843.2</ele>
        <time>2026-05-14T11:28:26.000Z</time>
      </trkpt>
      <trkpt lat="44.17655" lon="5.28155">
        <ele>1843.3</ele>
        <time>2026-05-14T11:28:27.000Z</time>
      </trkpt>
      <trkpt lat="44.17655" lon="5.28155">
        <ele>1843.5</ele>
        <time>2026-05-14T11:28:28.000Z</time>
      </trkpt>
      <trkpt lat="44.17655" lon="5.28155">
        <ele>1843.5</ele>
        <time>2026-05-14T11:28:29.000Z</time>
      </trkpt>
      <trkpt lat="44.17655" lon="5.28155">
        <ele>1843.1</ele>
        <time>2026-05-14T11:28:30.000Z</time>
      </trkpt>
      <trkpt lat="44.17655" lon="5.28155">
        <ele>1843.1</ele>
        <time>2026-05-14T11:28:31.000Z</time>
      </trkpt>
      <trkpt lat="44.17655" lon="5.28155">
        <ele>1843.1</ele>
        <time>2026-05-14T11:28:32.000Z</time>
      </trkpt>
      <trkpt lat="44.17655" lon="5.28155">
        <ele>1842.7</ele>
        <time>2026-05-14T11:28:33.000Z</time>
      </trkpt>
      <trkpt lat="44.17655" lon="5.28155">
        <ele>1842.6</ele>
        <time>2026-05-14T11:28:34.000Z</time>
      </trkpt>
      <trkpt lat="44.17655" lon="5.28155">
        <ele>1842.8</ele>
        <time>2026-05-14T11:28:35.000Z</time>
      </trkpt>
      <trkpt lat="44.17655" lon="5.28155">
        <ele>1843.2</ele>
        <time>2026-05-14T11:28:36.000Z</time>
      </trkpt>
      <trkpt lat="44.17655" lon="5.28155">
        <ele>1843.5</ele>
        <time>2026-05-14T11:28:37.000Z</time>
      </trkpt>
      <trkpt lat="44.17655" lon="5.28155">
        <ele>1843.7</ele>
        <time>2026-05-14T11:28:38.000Z</time>
      </trkpt>
      <trkpt lat="44.17655" lon="5.28155">
        <ele>1844</ele>
        <time>2026-05-14T11:28:39.000Z</time>
      </trkpt>
      <trkpt lat="44.17655" lon="5.28155">
        <ele>1844.1</ele>
        <time>2026-05-14T11:28:40.000Z</time>
      </trkpt>
      <trkpt lat="44.17654" lon="5.28155">
        <ele>1844</ele>
        <time>2026-05-14T11:28:41.000Z</time>
      </trkpt>
      <trkpt lat="44.17654" lon="5.28154">
        <ele>1843.5</ele>
        <time>2026-05-14T11:28:42.000Z</time>
      </trkpt>
      <trkpt lat="44.17654" lon="5.28154">
        <ele>1843.2</ele>
        <time>2026-05-14T11:28:43.000Z</time>
      </trkpt>
      <trkpt lat="44.17654" lon="5.28154">
        <ele>1843</ele>
        <time>2026-05-14T11:28:44.000Z</time>
      </trkpt>
      <trkpt lat="44.17654" lon="5.28154">
        <ele>1842.7</ele>
        <time>2026-05-14T11:28:45.000Z</time>
      </trkpt>
      <trkpt lat="44.17654" lon="5.28154">
        <ele>1842.4</ele>
        <time>2026-05-14T11:28:46.000Z</time>
      </trkpt>
      <trkpt lat="44.17654" lon="5.28154">
        <ele>1842</ele>
        <time>2026-05-14T11:28:47.000Z</time>
      </trkpt>
      <trkpt lat="44.17654" lon="5.28155">
        <ele>1842.1</ele>
        <time>2026-05-14T11:28:48.000Z</time>
      </trkpt>
      <trkpt lat="44.17654" lon="5.28155">
        <ele>1842.4</ele>
        <time>2026-05-14T11:28:49.000Z</time>
      </trkpt>
      <trkpt lat="44.17654" lon="5.28155">
        <ele>1842.6</ele>
        <time>2026-05-14T11:28:50.000Z</time>
      </trkpt>
      <trkpt lat="44.17654" lon="5.28154">
        <ele>1842.9</ele>
        <time>2026-05-14T11:28:51.000Z</time>
      </trkpt>
      <trkpt lat="44.17654" lon="5.28154">
        <ele>1843</ele>
        <time>2026-05-14T11:28:52.000Z</time>
      </trkpt>
      <trkpt lat="44.17654" lon="5.28154">
        <ele>1842.9</ele>
        <time>2026-05-14T11:28:53.000Z</time>
      </trkpt>
      <trkpt lat="44.17654" lon="5.28154">
        <ele>1842.8</ele>
        <time>2026-05-14T11:28:54.000Z</time>
      </trkpt>
      <trkpt lat="44.17654" lon="5.28154">
        <ele>1842.7</ele>
        <time>2026-05-14T11:28:55.000Z</time>
      </trkpt>
      <trkpt lat="44.17654" lon="5.28154">
        <ele>1842.5</ele>
        <time>2026-05-14T11:28:56.000Z</time>
      </trkpt>
      <trkpt lat="44.17654" lon="5.28154">
        <ele>1842.1</ele>
        <time>2026-05-14T11:28:57.000Z</time>
      </trkpt>
      <trkpt lat="44.17654" lon="5.28154">
        <ele>1842.1</ele>
        <time>2026-05-14T11:28:58.000Z</time>
      </trkpt>
      <trkpt lat="44.17654" lon="5.28154">
        <ele>1841.9</ele>
        <time>2026-05-14T11:28:59.000Z</time>
      </trkpt>
      <trkpt lat="44.17654" lon="5.28154">
        <ele>1841.6</ele>
        <time>2026-05-14T11:29:00.000Z</time>
      </trkpt>
      <trkpt lat="44.17654" lon="5.28154">
        <ele>1841.5</ele>
        <time>2026-05-14T11:29:01.000Z</time>
      </trkpt>
      <trkpt lat="44.17654" lon="5.28154">
        <ele>1841.3</ele>
        <time>2026-05-14T11:29:02.000Z</time>
      </trkpt>
      <trkpt lat="44.17654" lon="5.28155">
        <ele>1841.2</ele>
        <time>2026-05-14T11:29:03.000Z</time>
      </trkpt>
      <trkpt lat="44.17654" lon="5.28155">
        <ele>1841.1</ele>
        <time>2026-05-14T11:29:04.000Z</time>
      </trkpt>
      <trkpt lat="44.17654" lon="5.28155">
        <ele>1841</ele>
        <time>2026-05-14T11:29:05.000Z</time>
      </trkpt>
      <trkpt lat="44.17654" lon="5.28155">
        <ele>1840.9</ele>
        <time>2026-05-14T11:29:06.000Z</time>
      </trkpt>
      <trkpt lat="44.17654" lon="5.28154">
        <ele>1840.8</ele>
        <time>2026-05-14T11:29:07.000Z</time>
      </trkpt>
      <trkpt lat="44.17654" lon="5.28154">
        <ele>1841.1</ele>
        <time>2026-05-14T11:29:08.000Z</time>
      </trkpt>
      <trkpt lat="44.17654" lon="5.28154">
        <ele>1841.1</ele>
        <time>2026-05-14T11:29:09.000Z</time>
      </trkpt>
      <trkpt lat="44.17654" lon="5.28154">
        <ele>1840.7</ele>
        <time>2026-05-14T11:29:10.000Z</time>
      </trkpt>
      <trkpt lat="44.17654" lon="5.28154">
        <ele>1840.9</ele>
        <time>2026-05-14T11:29:11.000Z</time>
      </trkpt>
      <trkpt lat="44.17654" lon="5.28155">
        <ele>1841.1</ele>
        <time>2026-05-14T11:29:12.000Z</time>
      </trkpt>
      <trkpt lat="44.17654" lon="5.28155">
        <ele>1841</ele>
        <time>2026-05-14T11:29:13.000Z</time>
      </trkpt>
      <trkpt lat="44.17654" lon="5.28155">
        <ele>1841.2</ele>
        <time>2026-05-14T11:29:14.000Z</time>
      </trkpt>
      <trkpt lat="44.17654" lon="5.28155">
        <ele>1841.3</ele>
        <time>2026-05-14T11:29:15.000Z</time>
      </trkpt>
      <trkpt lat="44.17654" lon="5.28155">
        <ele>1841.1</ele>
        <time>2026-05-14T11:29:16.000Z</time>
      </trkpt>
      <trkpt lat="44.17654" lon="5.28155">
        <ele>1840.8</ele>
        <time>2026-05-14T11:29:17.000Z</time>
      </trkpt>
      <trkpt lat="44.17654" lon="5.28155">
        <ele>1840.6</ele>
        <time>2026-05-14T11:29:18.000Z</time>
      </trkpt>
      <trkpt lat="44.17654" lon="5.28155">
        <ele>1840.3</ele>
        <time>2026-05-14T11:29:19.000Z</time>
      </trkpt>
      <trkpt lat="44.17654" lon="5.28155">
        <ele>1839.8</ele>
        <time>2026-05-14T11:29:20.000Z</time>
      </trkpt>
      <trkpt lat="44.17654" lon="5.28155">
        <ele>1839.6</ele>
        <time>2026-05-14T11:29:21.000Z</time>
      </trkpt>
      <trkpt lat="44.17654" lon="5.28155">
        <ele>1839.5</ele>
        <time>2026-05-14T11:29:22.000Z</time>
      </trkpt>
      <trkpt lat="44.17654" lon="5.28155">
        <ele>1839.3</ele>
        <time>2026-05-14T11:29:23.000Z</time>
      </trkpt>
      <trkpt lat="44.17654" lon="5.28155">
        <ele>1839.5</ele>
        <time>2026-05-14T11:29:24.000Z</time>
      </trkpt>
      <trkpt lat="44.17654" lon="5.28155">
        <ele>1839.6</ele>
        <time>2026-05-14T11:29:25.000Z</time>
      </trkpt>
      <trkpt lat="44.17654" lon="5.28155">
        <ele>1839.3</ele>
        <time>2026-05-14T11:29:26.000Z</time>
      </trkpt>
      <trkpt lat="44.17654" lon="5.28155">
        <ele>1839.3</ele>
        <time>2026-05-14T11:29:27.000Z</time>
      </trkpt>
      <trkpt lat="44.17654" lon="5.28155">
        <ele>1839.4</ele>
        <time>2026-05-14T11:29:28.000Z</time>
      </trkpt>
      <trkpt lat="44.17654" lon="5.28155">
        <ele>1839.5</ele>
        <time>2026-05-14T11:29:29.000Z</time>
      </trkpt>
      <trkpt lat="44.17654" lon="5.28155">
        <ele>1839.5</ele>
        <time>2026-05-14T11:29:30.000Z</time>
      </trkpt>
      <trkpt lat="44.17654" lon="5.28155">
        <ele>1839.2</ele>
        <time>2026-05-14T11:29:31.000Z</time>
      </trkpt>
      <trkpt lat="44.17654" lon="5.28155">
        <ele>1838.8</ele>
        <time>2026-05-14T11:29:32.000Z</time>
      </trkpt>
      <trkpt lat="44.17654" lon="5.28155">
        <ele>1838.3</ele>
        <time>2026-05-14T11:29:33.000Z</time>
      </trkpt>
      <trkpt lat="44.17654" lon="5.28155">
        <ele>1838</ele>
        <time>2026-05-14T11:29:34.000Z</time>
      </trkpt>
      <trkpt lat="44.17654" lon="5.28155">
        <ele>1837.5</ele>
        <time>2026-05-14T11:29:35.000Z</time>
      </trkpt>
      <trkpt lat="44.17654" lon="5.28155">
        <ele>1837.2</ele>
        <time>2026-05-14T11:29:36.000Z</time>
      </trkpt>
      <trkpt lat="44.17654" lon="5.28155">
        <ele>1836.9</ele>
        <time>2026-05-14T11:29:37.000Z</time>
      </trkpt>
      <trkpt lat="44.17654" lon="5.28156">
        <ele>1836.9</ele>
        <time>2026-05-14T11:29:38.000Z</time>
      </trkpt>
      <trkpt lat="44.17654" lon="5.28156">
        <ele>1837</ele>
        <time>2026-05-14T11:29:39.000Z</time>
      </trkpt>
      <trkpt lat="44.17654" lon="5.28156">
        <ele>1837</ele>
        <time>2026-05-14T11:29:40.000Z</time>
      </trkpt>
      <trkpt lat="44.17654" lon="5.28156">
        <ele>1836.9</ele>
        <time>2026-05-14T11:29:41.000Z</time>
      </trkpt>
      <trkpt lat="44.17654" lon="5.28156">
        <ele>1836.9</ele>
        <time>2026-05-14T11:29:42.000Z</time>
      </trkpt>
      <trkpt lat="44.17654" lon="5.28156">
        <ele>1837.1</ele>
        <time>2026-05-14T11:29:43.000Z</time>
      </trkpt>
      <trkpt lat="44.17654" lon="5.28156">
        <ele>1837.1</ele>
        <time>2026-05-14T11:29:44.000Z</time>
      </trkpt>
      <trkpt lat="44.17654" lon="5.28156">
        <ele>1837.2</ele>
        <time>2026-05-14T11:29:45.000Z</time>
      </trkpt>
      <trkpt lat="44.17654" lon="5.28156">
        <ele>1837</ele>
        <time>2026-05-14T11:29:46.000Z</time>
      </trkpt>
      <trkpt lat="44.17654" lon="5.28156">
        <ele>1837</ele>
        <time>2026-05-14T11:29:47.000Z</time>
      </trkpt>
      <trkpt lat="44.17654" lon="5.28156">
        <ele>1837.3</ele>
        <time>2026-05-14T11:29:48.000Z</time>
      </trkpt>
      <trkpt lat="44.17654" lon="5.28156">
        <ele>1837.5</ele>
        <time>2026-05-14T11:29:49.000Z</time>
      </trkpt>
      <trkpt lat="44.17654" lon="5.28156">
        <ele>1837.4</ele>
        <time>2026-05-14T11:29:50.000Z</time>
      </trkpt>
      <trkpt lat="44.17654" lon="5.28156">
        <ele>1837.3</ele>
        <time>2026-05-14T11:29:51.000Z</time>
      </trkpt>
      <trkpt lat="44.17655" lon="5.28156">
        <ele>1837.3</ele>
        <time>2026-05-14T11:29:52.000Z</time>
      </trkpt>
      <trkpt lat="44.17655" lon="5.28156">
        <ele>1837.4</ele>
        <time>2026-05-14T11:29:53.000Z</time>
      </trkpt>
      <trkpt lat="44.17655" lon="5.28156">
        <ele>1837.5</ele>
        <time>2026-05-14T11:29:54.000Z</time>
      </trkpt>
      <trkpt lat="44.17655" lon="5.28156">
        <ele>1837.5</ele>
        <time>2026-05-14T11:29:55.000Z</time>
      </trkpt>
      <trkpt lat="44.17655" lon="5.28156">
        <ele>1837.6</ele>
        <time>2026-05-14T11:29:56.000Z</time>
      </trkpt>
      <trkpt lat="44.17655" lon="5.28156">
        <ele>1837.7</ele>
        <time>2026-05-14T11:29:57.000Z</time>
      </trkpt>
      <trkpt lat="44.17655" lon="5.28156">
        <ele>1837.7</ele>
        <time>2026-05-14T11:29:58.000Z</time>
      </trkpt>
      <trkpt lat="44.17655" lon="5.28156">
        <ele>1837.8</ele>
        <time>2026-05-14T11:29:59.000Z</time>
      </trkpt>
      <trkpt lat="44.17655" lon="5.28156">
        <ele>1837.9</ele>
        <time>2026-05-14T11:30:00.000Z</time>
      </trkpt>
      <trkpt lat="44.17655" lon="5.28156">
        <ele>1838.1</ele>
        <time>2026-05-14T11:30:01.000Z</time>
      </trkpt>
      <trkpt lat="44.17655" lon="5.28156">
        <ele>1838.1</ele>
        <time>2026-05-14T11:30:02.000Z</time>
      </trkpt>
      <trkpt lat="44.17654" lon="5.28156">
        <ele>1837.9</ele>
        <time>2026-05-14T11:30:03.000Z</time>
      </trkpt>
      <trkpt lat="44.17654" lon="5.28156">
        <ele>1837.8</ele>
        <time>2026-05-14T11:30:04.000Z</time>
      </trkpt>
      <trkpt lat="44.17654" lon="5.28156">
        <ele>1837.8</ele>
        <time>2026-05-14T11:30:05.000Z</time>
      </trkpt>
      <trkpt lat="44.17654" lon="5.28156">
        <ele>1837.9</ele>
        <time>2026-05-14T11:30:06.000Z</time>
      </trkpt>
      <trkpt lat="44.17655" lon="5.28156">
        <ele>1838</ele>
        <time>2026-05-14T11:30:07.000Z</time>
      </trkpt>
      <trkpt lat="44.17655" lon="5.28156">
        <ele>1838.1</ele>
        <time>2026-05-14T11:30:08.000Z</time>
      </trkpt>
      <trkpt lat="44.17655" lon="5.28156">
        <ele>1838.4</ele>
        <time>2026-05-14T11:30:09.000Z</time>
      </trkpt>
      <trkpt lat="44.17655" lon="5.28156">
        <ele>1838.6</ele>
        <time>2026-05-14T11:30:10.000Z</time>
      </trkpt>
      <trkpt lat="44.17655" lon="5.28156">
        <ele>1838.4</ele>
        <time>2026-05-14T11:30:11.000Z</time>
      </trkpt>
      <trkpt lat="44.17655" lon="5.28156">
        <ele>1838.3</ele>
        <time>2026-05-14T11:30:12.000Z</time>
      </trkpt>
      <trkpt lat="44.17655" lon="5.28156">
        <ele>1838.5</ele>
        <time>2026-05-14T11:30:13.000Z</time>
      </trkpt>
      <trkpt lat="44.17655" lon="5.28156">
        <ele>1838.7</ele>
        <time>2026-05-14T11:30:14.000Z</time>
      </trkpt>
      <trkpt lat="44.17655" lon="5.28156">
        <ele>1838.3</ele>
        <time>2026-05-14T11:30:15.000Z</time>
      </trkpt>
      <trkpt lat="44.17655" lon="5.28156">
        <ele>1838.2</ele>
        <time>2026-05-14T11:30:16.000Z</time>
      </trkpt>
      <trkpt lat="44.17655" lon="5.28157">
        <ele>1838</ele>
        <time>2026-05-14T11:30:17.000Z</time>
      </trkpt>
      <trkpt lat="44.17655" lon="5.28157">
        <ele>1837.7</ele>
        <time>2026-05-14T11:30:18.000Z</time>
      </trkpt>
      <trkpt lat="44.17655" lon="5.28157">
        <ele>1837.7</ele>
        <time>2026-05-14T11:30:19.000Z</time>
      </trkpt>
      <trkpt lat="44.17655" lon="5.28157">
        <ele>1837.6</ele>
        <time>2026-05-14T11:30:20.000Z</time>
      </trkpt>
      <trkpt lat="44.17655" lon="5.28157">
        <ele>1837.5</ele>
        <time>2026-05-14T11:30:21.000Z</time>
      </trkpt>
      <trkpt lat="44.17655" lon="5.28157">
        <ele>1837.7</ele>
        <time>2026-05-14T11:30:22.000Z</time>
      </trkpt>
      <trkpt lat="44.17655" lon="5.28157">
        <ele>1837.7</ele>
        <time>2026-05-14T11:30:23.000Z</time>
      </trkpt>
      <trkpt lat="44.17655" lon="5.28157">
        <ele>1837.8</ele>
        <time>2026-05-14T11:30:24.000Z</time>
      </trkpt>
      <trkpt lat="44.17655" lon="5.28157">
        <ele>1838</ele>
        <time>2026-05-14T11:30:25.000Z</time>
      </trkpt>
      <trkpt lat="44.17655" lon="5.28157">
        <ele>1837.9</ele>
        <time>2026-05-14T11:30:26.000Z</time>
      </trkpt>
      <trkpt lat="44.17655" lon="5.28157">
        <ele>1837.7</ele>
        <time>2026-05-14T11:30:27.000Z</time>
      </trkpt>
      <trkpt lat="44.17655" lon="5.28157">
        <ele>1837.6</ele>
        <time>2026-05-14T11:30:28.000Z</time>
      </trkpt>
      <trkpt lat="44.17655" lon="5.28157">
        <ele>1837.5</ele>
        <time>2026-05-14T11:30:29.000Z</time>
      </trkpt>
      <trkpt lat="44.17655" lon="5.28157">
        <ele>1837.5</ele>
        <time>2026-05-14T11:30:30.000Z</time>
      </trkpt>
      <trkpt lat="44.17655" lon="5.28157">
        <ele>1837.7</ele>
        <time>2026-05-14T11:30:31.000Z</time>
      </trkpt>
      <trkpt lat="44.17655" lon="5.28157">
        <ele>1837.8</ele>
        <time>2026-05-14T11:30:32.000Z</time>
      </trkpt>
      <trkpt lat="44.17655" lon="5.28157">
        <ele>1837.6</ele>
        <time>2026-05-14T11:30:33.000Z</time>
      </trkpt>
      <trkpt lat="44.17655" lon="5.28157">
        <ele>1837.2</ele>
        <time>2026-05-14T11:30:34.000Z</time>
      </trkpt>
      <trkpt lat="44.17655" lon="5.28157">
        <ele>1837</ele>
        <time>2026-05-14T11:30:35.000Z</time>
      </trkpt>
      <trkpt lat="44.17655" lon="5.28157">
        <ele>1836.8</ele>
        <time>2026-05-14T11:30:36.000Z</time>
      </trkpt>
      <trkpt lat="44.17656" lon="5.28157">
        <ele>1836.7</ele>
        <time>2026-05-14T11:30:37.000Z</time>
      </trkpt>
      <trkpt lat="44.17656" lon="5.28157">
        <ele>1836.7</ele>
        <time>2026-05-14T11:30:38.000Z</time>
      </trkpt>
      <trkpt lat="44.17656" lon="5.28157">
        <ele>1836.7</ele>
        <time>2026-05-14T11:30:39.000Z</time>
      </trkpt>
      <trkpt lat="44.17656" lon="5.28157">
        <ele>1836.5</ele>
        <time>2026-05-14T11:30:40.000Z</time>
      </trkpt>
      <trkpt lat="44.17656" lon="5.28157">
        <ele>1836.4</ele>
        <time>2026-05-14T11:30:41.000Z</time>
      </trkpt>
      <trkpt lat="44.17656" lon="5.28157">
        <ele>1836.4</ele>
        <time>2026-05-14T11:30:42.000Z</time>
      </trkpt>
      <trkpt lat="44.17656" lon="5.28157">
        <ele>1836.6</ele>
        <time>2026-05-14T11:30:43.000Z</time>
      </trkpt>
      <trkpt lat="44.17656" lon="5.28157">
        <ele>1836.6</ele>
        <time>2026-05-14T11:30:44.000Z</time>
      </trkpt>
      <trkpt lat="44.17656" lon="5.28157">
        <ele>1836.7</ele>
        <time>2026-05-14T11:30:45.000Z</time>
      </trkpt>
      <trkpt lat="44.17656" lon="5.28157">
        <ele>1836.7</ele>
        <time>2026-05-14T11:30:46.000Z</time>
      </trkpt>
      <trkpt lat="44.17656" lon="5.28157">
        <ele>1836.6</ele>
        <time>2026-05-14T11:30:47.000Z</time>
      </trkpt>
      <trkpt lat="44.17656" lon="5.28157">
        <ele>1836.2</ele>
        <time>2026-05-14T11:30:48.000Z</time>
      </trkpt>
      <trkpt lat="44.17656" lon="5.28157">
        <ele>1836</ele>
        <time>2026-05-14T11:30:49.000Z</time>
      </trkpt>
      <trkpt lat="44.17656" lon="5.28157">
        <ele>1835.9</ele>
        <time>2026-05-14T11:30:50.000Z</time>
      </trkpt>
      <trkpt lat="44.17656" lon="5.28157">
        <ele>1835.9</ele>
        <time>2026-05-14T11:30:51.000Z</time>
      </trkpt>
      <trkpt lat="44.17656" lon="5.28157">
        <ele>1836.1</ele>
        <time>2026-05-14T11:30:52.000Z</time>
      </trkpt>
      <trkpt lat="44.17656" lon="5.28157">
        <ele>1836.2</ele>
        <time>2026-05-14T11:30:53.000Z</time>
      </trkpt>
      <trkpt lat="44.17656" lon="5.28157">
        <ele>1836</ele>
        <time>2026-05-14T11:30:54.000Z</time>
      </trkpt>
      <trkpt lat="44.17656" lon="5.28157">
        <ele>1835.8</ele>
        <time>2026-05-14T11:30:55.000Z</time>
      </trkpt>
      <trkpt lat="44.17656" lon="5.28157">
        <ele>1835.6</ele>
        <time>2026-05-14T11:30:56.000Z</time>
      </trkpt>
      <trkpt lat="44.17656" lon="5.28157">
        <ele>1835.4</ele>
        <time>2026-05-14T11:30:57.000Z</time>
      </trkpt>
      <trkpt lat="44.17656" lon="5.28157">
        <ele>1835.3</ele>
        <time>2026-05-14T11:30:58.000Z</time>
      </trkpt>
      <trkpt lat="44.17656" lon="5.28157">
        <ele>1835.3</ele>
        <time>2026-05-14T11:30:59.000Z</time>
      </trkpt>
      <trkpt lat="44.17655" lon="5.28157">
        <ele>1835.2</ele>
        <time>2026-05-14T11:31:00.000Z</time>
      </trkpt>
      <trkpt lat="44.17655" lon="5.28157">
        <ele>1835.1</ele>
        <time>2026-05-14T11:31:01.000Z</time>
      </trkpt>
      <trkpt lat="44.17655" lon="5.28157">
        <ele>1835</ele>
        <time>2026-05-14T11:31:02.000Z</time>
      </trkpt>
      <trkpt lat="44.17655" lon="5.28157">
        <ele>1835.2</ele>
        <time>2026-05-14T11:31:03.000Z</time>
      </trkpt>
      <trkpt lat="44.17655" lon="5.28157">
        <ele>1835.2</ele>
        <time>2026-05-14T11:31:04.000Z</time>
      </trkpt>
      <trkpt lat="44.17655" lon="5.28157">
        <ele>1835.4</ele>
        <time>2026-05-14T11:31:05.000Z</time>
      </trkpt>
      <trkpt lat="44.17655" lon="5.28157">
        <ele>1835.3</ele>
        <time>2026-05-14T11:31:06.000Z</time>
      </trkpt>
      <trkpt lat="44.17655" lon="5.28157">
        <ele>1835.2</ele>
        <time>2026-05-14T11:31:07.000Z</time>
      </trkpt>
      <trkpt lat="44.17655" lon="5.28157">
        <ele>1835</ele>
        <time>2026-05-14T11:31:08.000Z</time>
      </trkpt>
      <trkpt lat="44.17655" lon="5.28157">
        <ele>1835</ele>
        <time>2026-05-14T11:31:09.000Z</time>
      </trkpt>
      <trkpt lat="44.17655" lon="5.28157">
        <ele>1834.9</ele>
        <time>2026-05-14T11:31:10.000Z</time>
      </trkpt>
      <trkpt lat="44.17655" lon="5.28157">
        <ele>1834.9</ele>
        <time>2026-05-14T11:31:11.000Z</time>
      </trkpt>
      <trkpt lat="44.17655" lon="5.28157">
        <ele>1834.9</ele>
        <time>2026-05-14T11:31:12.000Z</time>
      </trkpt>
      <trkpt lat="44.17655" lon="5.28157">
        <ele>1834.4</ele>
        <time>2026-05-14T11:31:13.000Z</time>
      </trkpt>
      <trkpt lat="44.17655" lon="5.28157">
        <ele>1833.9</ele>
        <time>2026-05-14T11:31:14.000Z</time>
      </trkpt>
      <trkpt lat="44.17655" lon="5.28157">
        <ele>1833.9</ele>
        <time>2026-05-14T11:31:15.000Z</time>
      </trkpt>
      <trkpt lat="44.17655" lon="5.28157">
        <ele>1834.4</ele>
        <time>2026-05-14T11:31:16.000Z</time>
      </trkpt>
      <trkpt lat="44.17655" lon="5.28157">
        <ele>1834.3</ele>
        <time>2026-05-14T11:31:17.000Z</time>
      </trkpt>
      <trkpt lat="44.17655" lon="5.28157">
        <ele>1834.2</ele>
        <time>2026-05-14T11:31:18.000Z</time>
      </trkpt>
      <trkpt lat="44.17656" lon="5.28157">
        <ele>1834.2</ele>
        <time>2026-05-14T11:31:19.000Z</time>
      </trkpt>
      <trkpt lat="44.17656" lon="5.28157">
        <ele>1834.2</ele>
        <time>2026-05-14T11:31:20.000Z</time>
      </trkpt>
      <trkpt lat="44.17656" lon="5.28157">
        <ele>1834.5</ele>
        <time>2026-05-14T11:31:21.000Z</time>
      </trkpt>
      <trkpt lat="44.17656" lon="5.28157">
        <ele>1834.7</ele>
        <time>2026-05-14T11:31:22.000Z</time>
      </trkpt>
      <trkpt lat="44.17656" lon="5.28157">
        <ele>1834.8</ele>
        <time>2026-05-14T11:31:23.000Z</time>
      </trkpt>
      <trkpt lat="44.17656" lon="5.28157">
        <ele>1835</ele>
        <time>2026-05-14T11:31:24.000Z</time>
      </trkpt>
      <trkpt lat="44.17656" lon="5.28157">
        <ele>1835.5</ele>
        <time>2026-05-14T11:31:25.000Z</time>
      </trkpt>
      <trkpt lat="44.17656" lon="5.28157">
        <ele>1835.6</ele>
        <time>2026-05-14T11:31:26.000Z</time>
      </trkpt>
      <trkpt lat="44.17656" lon="5.28157">
        <ele>1835.6</ele>
        <time>2026-05-14T11:31:27.000Z</time>
      </trkpt>
      <trkpt lat="44.17656" lon="5.28157">
        <ele>1835.6</ele>
        <time>2026-05-14T11:31:28.000Z</time>
      </trkpt>
      <trkpt lat="44.17656" lon="5.28157">
        <ele>1835.6</ele>
        <time>2026-05-14T11:31:29.000Z</time>
      </trkpt>
      <trkpt lat="44.17656" lon="5.28157">
        <ele>1835.6</ele>
        <time>2026-05-14T11:31:30.000Z</time>
      </trkpt>
      <trkpt lat="44.17656" lon="5.28157">
        <ele>1835.7</ele>
        <time>2026-05-14T11:31:31.000Z</time>
      </trkpt>
      <trkpt lat="44.17656" lon="5.28157">
        <ele>1835.8</ele>
        <time>2026-05-14T11:31:32.000Z</time>
      </trkpt>
      <trkpt lat="44.17656" lon="5.28157">
        <ele>1835.7</ele>
        <time>2026-05-14T11:31:33.000Z</time>
      </trkpt>
      <trkpt lat="44.17656" lon="5.28157">
        <ele>1836</ele>
        <time>2026-05-14T11:31:34.000Z</time>
      </trkpt>
      <trkpt lat="44.17656" lon="5.28157">
        <ele>1836.1</ele>
        <time>2026-05-14T11:31:35.000Z</time>
      </trkpt>
      <trkpt lat="44.17656" lon="5.28157">
        <ele>1836.1</ele>
        <time>2026-05-14T11:31:36.000Z</time>
      </trkpt>
      <trkpt lat="44.17656" lon="5.28157">
        <ele>1836.4</ele>
        <time>2026-05-14T11:31:37.000Z</time>
      </trkpt>
      <trkpt lat="44.17656" lon="5.28157">
        <ele>1836.8</ele>
        <time>2026-05-14T11:31:38.000Z</time>
      </trkpt>
      <trkpt lat="44.17656" lon="5.28157">
        <ele>1837.1</ele>
        <time>2026-05-14T11:31:39.000Z</time>
      </trkpt>
      <trkpt lat="44.17656" lon="5.28157">
        <ele>1837.4</ele>
        <time>2026-05-14T11:31:40.000Z</time>
      </trkpt>
      <trkpt lat="44.17656" lon="5.28157">
        <ele>1837.5</ele>
        <time>2026-05-14T11:31:41.000Z</time>
      </trkpt>
      <trkpt lat="44.17656" lon="5.28157">
        <ele>1837.2</ele>
        <time>2026-05-14T11:31:42.000Z</time>
      </trkpt>
      <trkpt lat="44.17656" lon="5.28157">
        <ele>1837.2</ele>
        <time>2026-05-14T11:31:43.000Z</time>
      </trkpt>
      <trkpt lat="44.17656" lon="5.28157">
        <ele>1837.5</ele>
        <time>2026-05-14T11:31:44.000Z</time>
      </trkpt>
      <trkpt lat="44.17656" lon="5.28157">
        <ele>1837.7</ele>
        <time>2026-05-14T11:31:45.000Z</time>
      </trkpt>
      <trkpt lat="44.17656" lon="5.28157">
        <ele>1837.9</ele>
        <time>2026-05-14T11:31:46.000Z</time>
      </trkpt>
      <trkpt lat="44.17656" lon="5.28157">
        <ele>1838.2</ele>
        <time>2026-05-14T11:31:47.000Z</time>
      </trkpt>
      <trkpt lat="44.17655" lon="5.28157">
        <ele>1838.3</ele>
        <time>2026-05-14T11:31:48.000Z</time>
      </trkpt>
      <trkpt lat="44.17655" lon="5.28157">
        <ele>1838.3</ele>
        <time>2026-05-14T11:31:49.000Z</time>
      </trkpt>
      <trkpt lat="44.17655" lon="5.28157">
        <ele>1838.4</ele>
        <time>2026-05-14T11:31:50.000Z</time>
      </trkpt>
      <trkpt lat="44.17655" lon="5.28157">
        <ele>1838.3</ele>
        <time>2026-05-14T11:31:51.000Z</time>
      </trkpt>
      <trkpt lat="44.17655" lon="5.28157">
        <ele>1838.3</ele>
        <time>2026-05-14T11:31:52.000Z</time>
      </trkpt>
      <trkpt lat="44.17655" lon="5.28157">
        <ele>1838.2</ele>
        <time>2026-05-14T11:31:53.000Z</time>
      </trkpt>
      <trkpt lat="44.17655" lon="5.28157">
        <ele>1838.4</ele>
        <time>2026-05-14T11:31:54.000Z</time>
      </trkpt>
      <trkpt lat="44.17655" lon="5.28157">
        <ele>1838.5</ele>
        <time>2026-05-14T11:31:55.000Z</time>
      </trkpt>
      <trkpt lat="44.17655" lon="5.28157">
        <ele>1838.4</ele>
        <time>2026-05-14T11:31:56.000Z</time>
      </trkpt>
      <trkpt lat="44.17656" lon="5.28157">
        <ele>1838.5</ele>
        <time>2026-05-14T11:31:57.000Z</time>
      </trkpt>
      <trkpt lat="44.17656" lon="5.28157">
        <ele>1838.4</ele>
        <time>2026-05-14T11:31:58.000Z</time>
      </trkpt>
      <trkpt lat="44.17656" lon="5.28157">
        <ele>1838.4</ele>
        <time>2026-05-14T11:31:59.000Z</time>
      </trkpt>
      <trkpt lat="44.17656" lon="5.28156">
        <ele>1838.4</ele>
        <time>2026-05-14T11:32:00.000Z</time>
      </trkpt>
      <trkpt lat="44.17656" lon="5.28156">
        <ele>1838.3</ele>
        <time>2026-05-14T11:32:01.000Z</time>
      </trkpt>
      <trkpt lat="44.17656" lon="5.28156">
        <ele>1838.5</ele>
        <time>2026-05-14T11:32:02.000Z</time>
      </trkpt>
      <trkpt lat="44.17656" lon="5.28156">
        <ele>1838.4</ele>
        <time>2026-05-14T11:32:03.000Z</time>
      </trkpt>
      <trkpt lat="44.17656" lon="5.28156">
        <ele>1838.3</ele>
        <time>2026-05-14T11:32:04.000Z</time>
      </trkpt>
      <trkpt lat="44.17656" lon="5.28156">
        <ele>1838.1</ele>
        <time>2026-05-14T11:32:05.000Z</time>
      </trkpt>
      <trkpt lat="44.17656" lon="5.28156">
        <ele>1838.1</ele>
        <time>2026-05-14T11:32:06.000Z</time>
      </trkpt>
      <trkpt lat="44.17656" lon="5.28156">
        <ele>1838</ele>
        <time>2026-05-14T11:32:07.000Z</time>
      </trkpt>
      <trkpt lat="44.17656" lon="5.28156">
        <ele>1837.6</ele>
        <time>2026-05-14T11:32:08.000Z</time>
      </trkpt>
      <trkpt lat="44.17656" lon="5.28156">
        <ele>1837.4</ele>
        <time>2026-05-14T11:32:09.000Z</time>
      </trkpt>
      <trkpt lat="44.17656" lon="5.28155">
        <ele>1837</ele>
        <time>2026-05-14T11:32:10.000Z</time>
      </trkpt>
      <trkpt lat="44.17656" lon="5.28155">
        <ele>1836.9</ele>
        <time>2026-05-14T11:32:11.000Z</time>
      </trkpt>
      <trkpt lat="44.17656" lon="5.28155">
        <ele>1836.9</ele>
        <time>2026-05-14T11:32:12.000Z</time>
      </trkpt>
      <trkpt lat="44.17656" lon="5.28155">
        <ele>1836.6</ele>
        <time>2026-05-14T11:32:13.000Z</time>
      </trkpt>
      <trkpt lat="44.17656" lon="5.28155">
        <ele>1836.6</ele>
        <time>2026-05-14T11:32:14.000Z</time>
      </trkpt>
      <trkpt lat="44.17656" lon="5.28155">
        <ele>1836.4</ele>
        <time>2026-05-14T11:32:15.000Z</time>
      </trkpt>
      <trkpt lat="44.17656" lon="5.28155">
        <ele>1836.3</ele>
        <time>2026-05-14T11:32:16.000Z</time>
      </trkpt>
      <trkpt lat="44.17656" lon="5.28156">
        <ele>1836.3</ele>
        <time>2026-05-14T11:32:17.000Z</time>
      </trkpt>
      <trkpt lat="44.17656" lon="5.28156">
        <ele>1836.3</ele>
        <time>2026-05-14T11:32:18.000Z</time>
      </trkpt>
      <trkpt lat="44.17656" lon="5.28156">
        <ele>1836.4</ele>
        <time>2026-05-14T11:32:19.000Z</time>
      </trkpt>
      <trkpt lat="44.17656" lon="5.28156">
        <ele>1836.4</ele>
        <time>2026-05-14T11:32:20.000Z</time>
      </trkpt>
      <trkpt lat="44.17656" lon="5.28156">
        <ele>1836.4</ele>
        <time>2026-05-14T11:32:21.000Z</time>
      </trkpt>
      <trkpt lat="44.17656" lon="5.28156">
        <ele>1836.4</ele>
        <time>2026-05-14T11:32:22.000Z</time>
      </trkpt>
      <trkpt lat="44.17656" lon="5.28156">
        <ele>1836.2</ele>
        <time>2026-05-14T11:32:23.000Z</time>
      </trkpt>
      <trkpt lat="44.17656" lon="5.28156">
        <ele>1836</ele>
        <time>2026-05-14T11:32:24.000Z</time>
      </trkpt>
      <trkpt lat="44.17656" lon="5.28156">
        <ele>1836.1</ele>
        <time>2026-05-14T11:32:25.000Z</time>
      </trkpt>
      <trkpt lat="44.17656" lon="5.28156">
        <ele>1836.2</ele>
        <time>2026-05-14T11:32:26.000Z</time>
      </trkpt>
      <trkpt lat="44.17656" lon="5.28156">
        <ele>1835.9</ele>
        <time>2026-05-14T11:32:27.000Z</time>
      </trkpt>
      <trkpt lat="44.17656" lon="5.28156">
        <ele>1835.7</ele>
        <time>2026-05-14T11:32:28.000Z</time>
      </trkpt>
      <trkpt lat="44.17656" lon="5.28156">
        <ele>1835.6</ele>
        <time>2026-05-14T11:32:29.000Z</time>
      </trkpt>
      <trkpt lat="44.17656" lon="5.28156">
        <ele>1835.4</ele>
        <time>2026-05-14T11:32:30.000Z</time>
      </trkpt>
      <trkpt lat="44.17656" lon="5.28156">
        <ele>1835.3</ele>
        <time>2026-05-14T11:32:31.000Z</time>
      </trkpt>
      <trkpt lat="44.17656" lon="5.28156">
        <ele>1835.1</ele>
        <time>2026-05-14T11:32:32.000Z</time>
      </trkpt>
      <trkpt lat="44.17656" lon="5.28156">
        <ele>1834.6</ele>
        <time>2026-05-14T11:32:33.000Z</time>
      </trkpt>
      <trkpt lat="44.17656" lon="5.28156">
        <ele>1834.3</ele>
        <time>2026-05-14T11:32:34.000Z</time>
      </trkpt>
      <trkpt lat="44.17656" lon="5.28156">
        <ele>1834.1</ele>
        <time>2026-05-14T11:32:35.000Z</time>
      </trkpt>
      <trkpt lat="44.17656" lon="5.28156">
        <ele>1834.3</ele>
        <time>2026-05-14T11:32:36.000Z</time>
      </trkpt>
      <trkpt lat="44.17656" lon="5.28156">
        <ele>1834.9</ele>
        <time>2026-05-14T11:32:37.000Z</time>
      </trkpt>
      <trkpt lat="44.17656" lon="5.28156">
        <ele>1835.2</ele>
        <time>2026-05-14T11:32:38.000Z</time>
      </trkpt>
      <trkpt lat="44.17656" lon="5.28156">
        <ele>1835.1</ele>
        <time>2026-05-14T11:32:39.000Z</time>
      </trkpt>
      <trkpt lat="44.17656" lon="5.28156">
        <ele>1834.8</ele>
        <time>2026-05-14T11:32:40.000Z</time>
      </trkpt>
      <trkpt lat="44.17656" lon="5.28156">
        <ele>1834.7</ele>
        <time>2026-05-14T11:32:41.000Z</time>
      </trkpt>
      <trkpt lat="44.17656" lon="5.28156">
        <ele>1834.4</ele>
        <time>2026-05-14T11:32:42.000Z</time>
      </trkpt>
      <trkpt lat="44.17656" lon="5.28156">
        <ele>1834.2</ele>
        <time>2026-05-14T11:32:43.000Z</time>
      </trkpt>
      <trkpt lat="44.17656" lon="5.28156">
        <ele>1834.1</ele>
        <time>2026-05-14T11:32:44.000Z</time>
      </trkpt>
      <trkpt lat="44.17656" lon="5.28156">
        <ele>1833.9</ele>
        <time>2026-05-14T11:32:45.000Z</time>
      </trkpt>
      <trkpt lat="44.17656" lon="5.28156">
        <ele>1833.6</ele>
        <time>2026-05-14T11:32:46.000Z</time>
      </trkpt>
      <trkpt lat="44.17656" lon="5.28156">
        <ele>1833.6</ele>
        <time>2026-05-14T11:32:47.000Z</time>
      </trkpt>
      <trkpt lat="44.17656" lon="5.28156">
        <ele>1833.7</ele>
        <time>2026-05-14T11:32:48.000Z</time>
      </trkpt>
      <trkpt lat="44.17656" lon="5.28156">
        <ele>1833.7</ele>
        <time>2026-05-14T11:32:49.000Z</time>
      </trkpt>
      <trkpt lat="44.17656" lon="5.28156">
        <ele>1833.6</ele>
        <time>2026-05-14T11:32:50.000Z</time>
      </trkpt>
      <trkpt lat="44.17656" lon="5.28156">
        <ele>1833.5</ele>
        <time>2026-05-14T11:32:51.000Z</time>
      </trkpt>
      <trkpt lat="44.17656" lon="5.28156">
        <ele>1833.5</ele>
        <time>2026-05-14T11:32:52.000Z</time>
      </trkpt>
      <trkpt lat="44.17656" lon="5.28156">
        <ele>1833.4</ele>
        <time>2026-05-14T11:32:53.000Z</time>
      </trkpt>
      <trkpt lat="44.17656" lon="5.28156">
        <ele>1833.1</ele>
        <time>2026-05-14T11:32:54.000Z</time>
      </trkpt>
      <trkpt lat="44.17656" lon="5.28156">
        <ele>1833.2</ele>
        <time>2026-05-14T11:32:55.000Z</time>
      </trkpt>
      <trkpt lat="44.17656" lon="5.28156">
        <ele>1833.4</ele>
        <time>2026-05-14T11:32:56.000Z</time>
      </trkpt>
      <trkpt lat="44.17656" lon="5.28156">
        <ele>1833.9</ele>
        <time>2026-05-14T11:32:57.000Z</time>
      </trkpt>
      <trkpt lat="44.17656" lon="5.28156">
        <ele>1834.6</ele>
        <time>2026-05-14T11:32:58.000Z</time>
      </trkpt>
      <trkpt lat="44.17656" lon="5.28156">
        <ele>1835.2</ele>
        <time>2026-05-14T11:32:59.000Z</time>
      </trkpt>
      <trkpt lat="44.17656" lon="5.28156">
        <ele>1835.7</ele>
        <time>2026-05-14T11:33:00.000Z</time>
      </trkpt>
      <trkpt lat="44.17656" lon="5.28156">
        <ele>1836</ele>
        <time>2026-05-14T11:33:01.000Z</time>
      </trkpt>
      <trkpt lat="44.17656" lon="5.28156">
        <ele>1836.3</ele>
        <time>2026-05-14T11:33:02.000Z</time>
      </trkpt>
      <trkpt lat="44.17656" lon="5.28156">
        <ele>1836.5</ele>
        <time>2026-05-14T11:33:03.000Z</time>
      </trkpt>
      <trkpt lat="44.17656" lon="5.28156">
        <ele>1836.8</ele>
        <time>2026-05-14T11:33:04.000Z</time>
      </trkpt>
      <trkpt lat="44.17656" lon="5.28156">
        <ele>1836.9</ele>
        <time>2026-05-14T11:33:05.000Z</time>
      </trkpt>
      <trkpt lat="44.17656" lon="5.28156">
        <ele>1837.3</ele>
        <time>2026-05-14T11:33:06.000Z</time>
      </trkpt>
      <trkpt lat="44.17656" lon="5.28156">
        <ele>1837.6</ele>
        <time>2026-05-14T11:33:07.000Z</time>
      </trkpt>
      <trkpt lat="44.17656" lon="5.28156">
        <ele>1837.8</ele>
        <time>2026-05-14T11:33:08.000Z</time>
      </trkpt>
      <trkpt lat="44.17656" lon="5.28156">
        <ele>1837.8</ele>
        <time>2026-05-14T11:33:09.000Z</time>
      </trkpt>
      <trkpt lat="44.17656" lon="5.28156">
        <ele>1837.7</ele>
        <time>2026-05-14T11:33:10.000Z</time>
      </trkpt>
      <trkpt lat="44.17656" lon="5.28156">
        <ele>1837.6</ele>
        <time>2026-05-14T11:33:11.000Z</time>
      </trkpt>
      <trkpt lat="44.17656" lon="5.28156">
        <ele>1837.8</ele>
        <time>2026-05-14T11:33:12.000Z</time>
      </trkpt>
      <trkpt lat="44.17656" lon="5.28156">
        <ele>1837.7</ele>
        <time>2026-05-14T11:33:13.000Z</time>
      </trkpt>
      <trkpt lat="44.17656" lon="5.28156">
        <ele>1837.7</ele>
        <time>2026-05-14T11:33:14.000Z</time>
      </trkpt>
      <trkpt lat="44.17656" lon="5.28156">
        <ele>1837.5</ele>
        <time>2026-05-14T11:33:15.000Z</time>
      </trkpt>
      <trkpt lat="44.17656" lon="5.28156">
        <ele>1837.3</ele>
        <time>2026-05-14T11:33:16.000Z</time>
      </trkpt>
      <trkpt lat="44.17656" lon="5.28156">
        <ele>1837.4</ele>
        <time>2026-05-14T11:33:17.000Z</time>
      </trkpt>
      <trkpt lat="44.17656" lon="5.28156">
        <ele>1837.5</ele>
        <time>2026-05-14T11:33:18.000Z</time>
      </trkpt>
      <trkpt lat="44.17656" lon="5.28156">
        <ele>1837.6</ele>
        <time>2026-05-14T11:33:19.000Z</time>
      </trkpt>
      <trkpt lat="44.17656" lon="5.28156">
        <ele>1837.7</ele>
        <time>2026-05-14T11:33:20.000Z</time>
      </trkpt>
      <trkpt lat="44.17656" lon="5.28156">
        <ele>1837.9</ele>
        <time>2026-05-14T11:33:21.000Z</time>
      </trkpt>
      <trkpt lat="44.17656" lon="5.28156">
        <ele>1837.8</ele>
        <time>2026-05-14T11:33:22.000Z</time>
      </trkpt>
      <trkpt lat="44.17656" lon="5.28156">
        <ele>1837.9</ele>
        <time>2026-05-14T11:33:23.000Z</time>
      </trkpt>
      <trkpt lat="44.17656" lon="5.28156">
        <ele>1837.9</ele>
        <time>2026-05-14T11:33:24.000Z</time>
      </trkpt>
      <trkpt lat="44.17656" lon="5.28156">
        <ele>1838</ele>
        <time>2026-05-14T11:33:25.000Z</time>
      </trkpt>
      <trkpt lat="44.17656" lon="5.28156">
        <ele>1837.9</ele>
        <time>2026-05-14T11:33:26.000Z</time>
      </trkpt>
      <trkpt lat="44.17656" lon="5.28156">
        <ele>1837.7</ele>
        <time>2026-05-14T11:33:27.000Z</time>
      </trkpt>
      <trkpt lat="44.17656" lon="5.28156">
        <ele>1837.8</ele>
        <time>2026-05-14T11:33:28.000Z</time>
      </trkpt>
      <trkpt lat="44.17656" lon="5.28156">
        <ele>1837.9</ele>
        <time>2026-05-14T11:33:29.000Z</time>
      </trkpt>
      <trkpt lat="44.17656" lon="5.28156">
        <ele>1838</ele>
        <time>2026-05-14T11:33:30.000Z</time>
      </trkpt>
      <trkpt lat="44.17656" lon="5.28156">
        <ele>1838.1</ele>
        <time>2026-05-14T11:33:31.000Z</time>
      </trkpt>
      <trkpt lat="44.17656" lon="5.28156">
        <ele>1838.2</ele>
        <time>2026-05-14T11:33:32.000Z</time>
      </trkpt>
      <trkpt lat="44.17656" lon="5.28156">
        <ele>1838.2</ele>
        <time>2026-05-14T11:33:33.000Z</time>
      </trkpt>
      <trkpt lat="44.17656" lon="5.28156">
        <ele>1838</ele>
        <time>2026-05-14T11:33:34.000Z</time>
      </trkpt>
      <trkpt lat="44.17656" lon="5.28156">
        <ele>1837.7</ele>
        <time>2026-05-14T11:33:35.000Z</time>
      </trkpt>
      <trkpt lat="44.17656" lon="5.28156">
        <ele>1837.7</ele>
        <time>2026-05-14T11:33:36.000Z</time>
      </trkpt>
      <trkpt lat="44.17656" lon="5.28156">
        <ele>1837.8</ele>
        <time>2026-05-14T11:33:37.000Z</time>
      </trkpt>
      <trkpt lat="44.17657" lon="5.28156">
        <ele>1837.8</ele>
        <time>2026-05-14T11:33:38.000Z</time>
      </trkpt>
      <trkpt lat="44.17657" lon="5.28156">
        <ele>1838</ele>
        <time>2026-05-14T11:33:39.000Z</time>
      </trkpt>
      <trkpt lat="44.17657" lon="5.28156">
        <ele>1838.4</ele>
        <time>2026-05-14T11:33:40.000Z</time>
      </trkpt>
      <trkpt lat="44.17657" lon="5.28156">
        <ele>1838.5</ele>
        <time>2026-05-14T11:33:41.000Z</time>
      </trkpt>
      <trkpt lat="44.17657" lon="5.28156">
        <ele>1838.6</ele>
        <time>2026-05-14T11:33:42.000Z</time>
      </trkpt>
      <trkpt lat="44.17657" lon="5.28156">
        <ele>1838.8</ele>
        <time>2026-05-14T11:33:43.000Z</time>
      </trkpt>
      <trkpt lat="44.17657" lon="5.28156">
        <ele>1838.7</ele>
        <time>2026-05-14T11:33:44.000Z</time>
      </trkpt>
      <trkpt lat="44.17656" lon="5.28156">
        <ele>1838.4</ele>
        <time>2026-05-14T11:33:45.000Z</time>
      </trkpt>
      <trkpt lat="44.17656" lon="5.28156">
        <ele>1838.2</ele>
        <time>2026-05-14T11:33:46.000Z</time>
      </trkpt>
      <trkpt lat="44.17656" lon="5.28156">
        <ele>1838</ele>
        <time>2026-05-14T11:33:47.000Z</time>
      </trkpt>
      <trkpt lat="44.17656" lon="5.28156">
        <ele>1837.8</ele>
        <time>2026-05-14T11:33:48.000Z</time>
      </trkpt>
      <trkpt lat="44.17656" lon="5.28157">
        <ele>1837.8</ele>
        <time>2026-05-14T11:33:49.000Z</time>
      </trkpt>
      <trkpt lat="44.17656" lon="5.28157">
        <ele>1837.7</ele>
        <time>2026-05-14T11:33:50.000Z</time>
      </trkpt>
      <trkpt lat="44.17656" lon="5.28157">
        <ele>1837.8</ele>
        <time>2026-05-14T11:33:51.000Z</time>
      </trkpt>
      <trkpt lat="44.17656" lon="5.28157">
        <ele>1837.9</ele>
        <time>2026-05-14T11:33:52.000Z</time>
      </trkpt>
      <trkpt lat="44.17656" lon="5.28157">
        <ele>1838</ele>
        <time>2026-05-14T11:33:53.000Z</time>
      </trkpt>
      <trkpt lat="44.17656" lon="5.28157">
        <ele>1838.1</ele>
        <time>2026-05-14T11:33:54.000Z</time>
      </trkpt>
      <trkpt lat="44.17656" lon="5.28157">
        <ele>1838.1</ele>
        <time>2026-05-14T11:33:55.000Z</time>
      </trkpt>
      <trkpt lat="44.17656" lon="5.28157">
        <ele>1838.1</ele>
        <time>2026-05-14T11:33:56.000Z</time>
      </trkpt>
      <trkpt lat="44.17656" lon="5.28157">
        <ele>1837.8</ele>
        <time>2026-05-14T11:33:57.000Z</time>
      </trkpt>
      <trkpt lat="44.17656" lon="5.28157">
        <ele>1837.6</ele>
        <time>2026-05-14T11:33:58.000Z</time>
      </trkpt>
      <trkpt lat="44.17656" lon="5.28157">
        <ele>1837.3</ele>
        <time>2026-05-14T11:33:59.000Z</time>
      </trkpt>
      <trkpt lat="44.17656" lon="5.28157">
        <ele>1837.2</ele>
        <time>2026-05-14T11:34:00.000Z</time>
      </trkpt>
      <trkpt lat="44.17656" lon="5.28157">
        <ele>1836.9</ele>
        <time>2026-05-14T11:34:01.000Z</time>
      </trkpt>
      <trkpt lat="44.17656" lon="5.28157">
        <ele>1836.5</ele>
        <time>2026-05-14T11:34:02.000Z</time>
      </trkpt>
      <trkpt lat="44.17656" lon="5.28157">
        <ele>1836.3</ele>
        <time>2026-05-14T11:34:03.000Z</time>
      </trkpt>
      <trkpt lat="44.17656" lon="5.28157">
        <ele>1836.4</ele>
        <time>2026-05-14T11:34:04.000Z</time>
      </trkpt>
      <trkpt lat="44.17656" lon="5.28157">
        <ele>1836.7</ele>
        <time>2026-05-14T11:34:05.000Z</time>
      </trkpt>
      <trkpt lat="44.17656" lon="5.28157">
        <ele>1836.7</ele>
        <time>2026-05-14T11:34:06.000Z</time>
      </trkpt>
      <trkpt lat="44.17656" lon="5.28157">
        <ele>1836.6</ele>
        <time>2026-05-14T11:34:07.000Z</time>
      </trkpt>
      <trkpt lat="44.17656" lon="5.28157">
        <ele>1836.6</ele>
        <time>2026-05-14T11:34:08.000Z</time>
      </trkpt>
      <trkpt lat="44.17656" lon="5.28157">
        <ele>1836.6</ele>
        <time>2026-05-14T11:34:09.000Z</time>
      </trkpt>
      <trkpt lat="44.17656" lon="5.28157">
        <ele>1837</ele>
        <time>2026-05-14T11:34:10.000Z</time>
      </trkpt>
      <trkpt lat="44.17656" lon="5.28157">
        <ele>1837</ele>
        <time>2026-05-14T11:34:11.000Z</time>
      </trkpt>
      <trkpt lat="44.17656" lon="5.28157">
        <ele>1837.4</ele>
        <time>2026-05-14T11:34:12.000Z</time>
      </trkpt>
      <trkpt lat="44.17657" lon="5.28158">
        <ele>1837.6</ele>
        <time>2026-05-14T11:34:13.000Z</time>
      </trkpt>
      <trkpt lat="44.17657" lon="5.28158">
        <ele>1837.9</ele>
        <time>2026-05-14T11:34:14.000Z</time>
      </trkpt>
      <trkpt lat="44.17657" lon="5.28158">
        <ele>1838.2</ele>
        <time>2026-05-14T11:34:15.000Z</time>
      </trkpt>
      <trkpt lat="44.17657" lon="5.28158">
        <ele>1838.4</ele>
        <time>2026-05-14T11:34:16.000Z</time>
      </trkpt>
      <trkpt lat="44.17657" lon="5.28158">
        <ele>1838.4</ele>
        <time>2026-05-14T11:34:17.000Z</time>
      </trkpt>
      <trkpt lat="44.17658" lon="5.28158">
        <ele>1838.1</ele>
        <time>2026-05-14T11:34:18.000Z</time>
      </trkpt>
      <trkpt lat="44.17657" lon="5.28158">
        <ele>1837.8</ele>
        <time>2026-05-14T11:34:19.000Z</time>
      </trkpt>
      <trkpt lat="44.17657" lon="5.28158">
        <ele>1837.4</ele>
        <time>2026-05-14T11:34:20.000Z</time>
      </trkpt>
      <trkpt lat="44.17657" lon="5.28158">
        <ele>1837.2</ele>
        <time>2026-05-14T11:34:21.000Z</time>
      </trkpt>
      <trkpt lat="44.17656" lon="5.28158">
        <ele>1837.3</ele>
        <time>2026-05-14T11:34:22.000Z</time>
      </trkpt>
      <trkpt lat="44.17656" lon="5.28158">
        <ele>1837.3</ele>
        <time>2026-05-14T11:34:23.000Z</time>
      </trkpt>
      <trkpt lat="44.17656" lon="5.28158">
        <ele>1837.1</ele>
        <time>2026-05-14T11:34:24.000Z</time>
      </trkpt>
      <trkpt lat="44.17656" lon="5.28158">
        <ele>1837</ele>
        <time>2026-05-14T11:34:25.000Z</time>
      </trkpt>
      <trkpt lat="44.17657" lon="5.28158">
        <ele>1837.4</ele>
        <time>2026-05-14T11:34:26.000Z</time>
      </trkpt>
      <trkpt lat="44.17657" lon="5.28158">
        <ele>1837.5</ele>
        <time>2026-05-14T11:34:27.000Z</time>
      </trkpt>
      <trkpt lat="44.17657" lon="5.28158">
        <ele>1837.6</ele>
        <time>2026-05-14T11:34:28.000Z</time>
      </trkpt>
      <trkpt lat="44.17657" lon="5.28158">
        <ele>1837.6</ele>
        <time>2026-05-14T11:34:29.000Z</time>
      </trkpt>
      <trkpt lat="44.17657" lon="5.28158">
        <ele>1837.7</ele>
        <time>2026-05-14T11:34:30.000Z</time>
      </trkpt>
      <trkpt lat="44.17657" lon="5.28158">
        <ele>1837.9</ele>
        <time>2026-05-14T11:34:31.000Z</time>
      </trkpt>
      <trkpt lat="44.17657" lon="5.28158">
        <ele>1838.2</ele>
        <time>2026-05-14T11:34:32.000Z</time>
      </trkpt>
      <trkpt lat="44.17657" lon="5.28158">
        <ele>1838.4</ele>
        <time>2026-05-14T11:34:33.000Z</time>
      </trkpt>
      <trkpt lat="44.17657" lon="5.28158">
        <ele>1838.6</ele>
        <time>2026-05-14T11:34:34.000Z</time>
      </trkpt>
      <trkpt lat="44.17657" lon="5.28158">
        <ele>1839.2</ele>
        <time>2026-05-14T11:34:35.000Z</time>
      </trkpt>
      <trkpt lat="44.17657" lon="5.28158">
        <ele>1839.3</ele>
        <time>2026-05-14T11:34:36.000Z</time>
      </trkpt>
      <trkpt lat="44.17657" lon="5.28158">
        <ele>1839.4</ele>
        <time>2026-05-14T11:34:37.000Z</time>
      </trkpt>
      <trkpt lat="44.17657" lon="5.28158">
        <ele>1839.3</ele>
        <time>2026-05-14T11:34:38.000Z</time>
      </trkpt>
      <trkpt lat="44.17657" lon="5.28158">
        <ele>1839.1</ele>
        <time>2026-05-14T11:34:39.000Z</time>
      </trkpt>
      <trkpt lat="44.17657" lon="5.28158">
        <ele>1839.2</ele>
        <time>2026-05-14T11:34:40.000Z</time>
      </trkpt>
      <trkpt lat="44.17657" lon="5.28158">
        <ele>1839.2</ele>
        <time>2026-05-14T11:34:41.000Z</time>
      </trkpt>
      <trkpt lat="44.17657" lon="5.28158">
        <ele>1839.2</ele>
        <time>2026-05-14T11:34:42.000Z</time>
      </trkpt>
      <trkpt lat="44.17657" lon="5.28158">
        <ele>1839.1</ele>
        <time>2026-05-14T11:34:43.000Z</time>
      </trkpt>
      <trkpt lat="44.17657" lon="5.28158">
        <ele>1839.2</ele>
        <time>2026-05-14T11:34:44.000Z</time>
      </trkpt>
      <trkpt lat="44.17657" lon="5.28158">
        <ele>1839.2</ele>
        <time>2026-05-14T11:34:45.000Z</time>
      </trkpt>
      <trkpt lat="44.17657" lon="5.28158">
        <ele>1839.2</ele>
        <time>2026-05-14T11:34:46.000Z</time>
      </trkpt>
      <trkpt lat="44.17657" lon="5.28157">
        <ele>1839.2</ele>
        <time>2026-05-14T11:34:47.000Z</time>
      </trkpt>
      <trkpt lat="44.17657" lon="5.28157">
        <ele>1839.1</ele>
        <time>2026-05-14T11:34:48.000Z</time>
      </trkpt>
      <trkpt lat="44.17657" lon="5.28157">
        <ele>1839.2</ele>
        <time>2026-05-14T11:34:49.000Z</time>
      </trkpt>
      <trkpt lat="44.17657" lon="5.28157">
        <ele>1839.1</ele>
        <time>2026-05-14T11:34:50.000Z</time>
      </trkpt>
      <trkpt lat="44.17657" lon="5.28157">
        <ele>1838.9</ele>
        <time>2026-05-14T11:34:51.000Z</time>
      </trkpt>
      <trkpt lat="44.17657" lon="5.28157">
        <ele>1838.9</ele>
        <time>2026-05-14T11:34:52.000Z</time>
      </trkpt>
      <trkpt lat="44.17657" lon="5.28157">
        <ele>1838.9</ele>
        <time>2026-05-14T11:34:53.000Z</time>
      </trkpt>
      <trkpt lat="44.17657" lon="5.28157">
        <ele>1838.8</ele>
        <time>2026-05-14T11:34:54.000Z</time>
      </trkpt>
      <trkpt lat="44.17657" lon="5.28157">
        <ele>1838.6</ele>
        <time>2026-05-14T11:34:55.000Z</time>
      </trkpt>
      <trkpt lat="44.17657" lon="5.28157">
        <ele>1838.4</ele>
        <time>2026-05-14T11:34:56.000Z</time>
      </trkpt>
      <trkpt lat="44.17657" lon="5.28157">
        <ele>1838.5</ele>
        <time>2026-05-14T11:34:57.000Z</time>
      </trkpt>
      <trkpt lat="44.17657" lon="5.28158">
        <ele>1838.7</ele>
        <time>2026-05-14T11:34:58.000Z</time>
      </trkpt>
      <trkpt lat="44.17657" lon="5.28158">
        <ele>1838.7</ele>
        <time>2026-05-14T11:34:59.000Z</time>
      </trkpt>
      <trkpt lat="44.17657" lon="5.28158">
        <ele>1839.1</ele>
        <time>2026-05-14T11:35:00.000Z</time>
      </trkpt>
      <trkpt lat="44.17657" lon="5.28158">
        <ele>1839.5</ele>
        <time>2026-05-14T11:35:01.000Z</time>
      </trkpt>
      <trkpt lat="44.17657" lon="5.28157">
        <ele>1840</ele>
        <time>2026-05-14T11:35:02.000Z</time>
      </trkpt>
      <trkpt lat="44.17657" lon="5.28157">
        <ele>1840.3</ele>
        <time>2026-05-14T11:35:03.000Z</time>
      </trkpt>
      <trkpt lat="44.17657" lon="5.28157">
        <ele>1840.4</ele>
        <time>2026-05-14T11:35:04.000Z</time>
      </trkpt>
      <trkpt lat="44.17657" lon="5.28157">
        <ele>1840.3</ele>
        <time>2026-05-14T11:35:05.000Z</time>
      </trkpt>
      <trkpt lat="44.17657" lon="5.28157">
        <ele>1840.1</ele>
        <time>2026-05-14T11:35:06.000Z</time>
      </trkpt>
      <trkpt lat="44.17657" lon="5.28157">
        <ele>1840</ele>
        <time>2026-05-14T11:35:07.000Z</time>
      </trkpt>
      <trkpt lat="44.17657" lon="5.28157">
        <ele>1840.1</ele>
        <time>2026-05-14T11:35:08.000Z</time>
      </trkpt>
      <trkpt lat="44.17657" lon="5.28157">
        <ele>1840</ele>
        <time>2026-05-14T11:35:09.000Z</time>
      </trkpt>
      <trkpt lat="44.17657" lon="5.28158">
        <ele>1839.9</ele>
        <time>2026-05-14T11:35:10.000Z</time>
      </trkpt>
      <trkpt lat="44.17657" lon="5.28158">
        <ele>1839.7</ele>
        <time>2026-05-14T11:35:11.000Z</time>
      </trkpt>
      <trkpt lat="44.17657" lon="5.28158">
        <ele>1840</ele>
        <time>2026-05-14T11:35:12.000Z</time>
      </trkpt>
      <trkpt lat="44.17657" lon="5.28158">
        <ele>1840.1</ele>
        <time>2026-05-14T11:35:13.000Z</time>
      </trkpt>
      <trkpt lat="44.17657" lon="5.28158">
        <ele>1840.2</ele>
        <time>2026-05-14T11:35:14.000Z</time>
      </trkpt>
      <trkpt lat="44.17657" lon="5.28158">
        <ele>1840</ele>
        <time>2026-05-14T11:35:15.000Z</time>
      </trkpt>
      <trkpt lat="44.17657" lon="5.28158">
        <ele>1839.8</ele>
        <time>2026-05-14T11:35:16.000Z</time>
      </trkpt>
      <trkpt lat="44.17657" lon="5.28158">
        <ele>1839.5</ele>
        <time>2026-05-14T11:35:17.000Z</time>
      </trkpt>
      <trkpt lat="44.17656" lon="5.28158">
        <ele>1839.3</ele>
        <time>2026-05-14T11:35:18.000Z</time>
      </trkpt>
      <trkpt lat="44.17656" lon="5.28158">
        <ele>1839.1</ele>
        <time>2026-05-14T11:35:19.000Z</time>
      </trkpt>
      <trkpt lat="44.17656" lon="5.28158">
        <ele>1838.7</ele>
        <time>2026-05-14T11:35:20.000Z</time>
      </trkpt>
      <trkpt lat="44.17656" lon="5.28158">
        <ele>1838.1</ele>
        <time>2026-05-14T11:35:21.000Z</time>
      </trkpt>
      <trkpt lat="44.17656" lon="5.28158">
        <ele>1837.7</ele>
        <time>2026-05-14T11:35:22.000Z</time>
      </trkpt>
      <trkpt lat="44.17656" lon="5.28158">
        <ele>1837.8</ele>
        <time>2026-05-14T11:35:23.000Z</time>
      </trkpt>
      <trkpt lat="44.17656" lon="5.28158">
        <ele>1837.7</ele>
        <time>2026-05-14T11:35:24.000Z</time>
      </trkpt>
      <trkpt lat="44.17656" lon="5.28158">
        <ele>1837.7</ele>
        <time>2026-05-14T11:35:25.000Z</time>
      </trkpt>
      <trkpt lat="44.17656" lon="5.28158">
        <ele>1837.5</ele>
        <time>2026-05-14T11:35:26.000Z</time>
      </trkpt>
      <trkpt lat="44.17656" lon="5.28158">
        <ele>1837.7</ele>
        <time>2026-05-14T11:35:27.000Z</time>
      </trkpt>
      <trkpt lat="44.17656" lon="5.28158">
        <ele>1837.5</ele>
        <time>2026-05-14T11:35:28.000Z</time>
      </trkpt>
      <trkpt lat="44.17656" lon="5.28158">
        <ele>1837.5</ele>
        <time>2026-05-14T11:35:29.000Z</time>
      </trkpt>
      <trkpt lat="44.17656" lon="5.28157">
        <ele>1837.5</ele>
        <time>2026-05-14T11:35:30.000Z</time>
      </trkpt>
      <trkpt lat="44.17656" lon="5.28157">
        <ele>1837.6</ele>
        <time>2026-05-14T11:35:31.000Z</time>
      </trkpt>
      <trkpt lat="44.17656" lon="5.28157">
        <ele>1837.6</ele>
        <time>2026-05-14T11:35:32.000Z</time>
      </trkpt>
      <trkpt lat="44.17656" lon="5.28157">
        <ele>1837.7</ele>
        <time>2026-05-14T11:35:33.000Z</time>
      </trkpt>
      <trkpt lat="44.17656" lon="5.28157">
        <ele>1837.9</ele>
        <time>2026-05-14T11:35:34.000Z</time>
      </trkpt>
      <trkpt lat="44.17656" lon="5.28157">
        <ele>1838.1</ele>
        <time>2026-05-14T11:35:35.000Z</time>
      </trkpt>
      <trkpt lat="44.17656" lon="5.28157">
        <ele>1838.4</ele>
        <time>2026-05-14T11:35:36.000Z</time>
      </trkpt>
      <trkpt lat="44.17656" lon="5.28157">
        <ele>1838.7</ele>
        <time>2026-05-14T11:35:37.000Z</time>
      </trkpt>
      <trkpt lat="44.17656" lon="5.28157">
        <ele>1839</ele>
        <time>2026-05-14T11:35:38.000Z</time>
      </trkpt>
      <trkpt lat="44.17656" lon="5.28157">
        <ele>1839.1</ele>
        <time>2026-05-14T11:35:39.000Z</time>
      </trkpt>
      <trkpt lat="44.17656" lon="5.28157">
        <ele>1839</ele>
        <time>2026-05-14T11:35:40.000Z</time>
      </trkpt>
      <trkpt lat="44.17656" lon="5.28157">
        <ele>1839</ele>
        <time>2026-05-14T11:35:41.000Z</time>
      </trkpt>
      <trkpt lat="44.17656" lon="5.28157">
        <ele>1839.2</ele>
        <time>2026-05-14T11:35:42.000Z</time>
      </trkpt>
      <trkpt lat="44.17656" lon="5.28157">
        <ele>1839.4</ele>
        <time>2026-05-14T11:35:43.000Z</time>
      </trkpt>
      <trkpt lat="44.17656" lon="5.28157">
        <ele>1839.9</ele>
        <time>2026-05-14T11:35:44.000Z</time>
      </trkpt>
      <trkpt lat="44.17656" lon="5.28157">
        <ele>1840.2</ele>
        <time>2026-05-14T11:35:45.000Z</time>
      </trkpt>
      <trkpt lat="44.17656" lon="5.28157">
        <ele>1840.5</ele>
        <time>2026-05-14T11:35:46.000Z</time>
      </trkpt>
      <trkpt lat="44.17656" lon="5.28157">
        <ele>1840.7</ele>
        <time>2026-05-14T11:35:47.000Z</time>
      </trkpt>
      <trkpt lat="44.17656" lon="5.28157">
        <ele>1840.8</ele>
        <time>2026-05-14T11:35:48.000Z</time>
      </trkpt>
      <trkpt lat="44.17656" lon="5.28157">
        <ele>1840.8</ele>
        <time>2026-05-14T11:35:49.000Z</time>
      </trkpt>
      <trkpt lat="44.17656" lon="5.28157">
        <ele>1840.9</ele>
        <time>2026-05-14T11:35:50.000Z</time>
      </trkpt>
      <trkpt lat="44.17656" lon="5.28157">
        <ele>1841.1</ele>
        <time>2026-05-14T11:35:51.000Z</time>
      </trkpt>
      <trkpt lat="44.17656" lon="5.28157">
        <ele>1841</ele>
        <time>2026-05-14T11:35:52.000Z</time>
      </trkpt>
      <trkpt lat="44.17656" lon="5.28157">
        <ele>1841.1</ele>
        <time>2026-05-14T11:35:53.000Z</time>
      </trkpt>
      <trkpt lat="44.17656" lon="5.28158">
        <ele>1841.1</ele>
        <time>2026-05-14T11:35:54.000Z</time>
      </trkpt>
      <trkpt lat="44.17656" lon="5.28158">
        <ele>1841.1</ele>
        <time>2026-05-14T11:35:55.000Z</time>
      </trkpt>
      <trkpt lat="44.17656" lon="5.28158">
        <ele>1840.9</ele>
        <time>2026-05-14T11:35:56.000Z</time>
      </trkpt>
      <trkpt lat="44.17656" lon="5.28158">
        <ele>1840.8</ele>
        <time>2026-05-14T11:35:57.000Z</time>
      </trkpt>
      <trkpt lat="44.17656" lon="5.28158">
        <ele>1840.5</ele>
        <time>2026-05-14T11:35:58.000Z</time>
      </trkpt>
      <trkpt lat="44.17656" lon="5.28158">
        <ele>1840.2</ele>
        <time>2026-05-14T11:35:59.000Z</time>
      </trkpt>
      <trkpt lat="44.17656" lon="5.28158">
        <ele>1840</ele>
        <time>2026-05-14T11:36:00.000Z</time>
      </trkpt>
      <trkpt lat="44.17656" lon="5.28158">
        <ele>1840.2</ele>
        <time>2026-05-14T11:36:01.000Z</time>
      </trkpt>
      <trkpt lat="44.17656" lon="5.28158">
        <ele>1840.2</ele>
        <time>2026-05-14T11:36:02.000Z</time>
      </trkpt>
      <trkpt lat="44.17656" lon="5.28158">
        <ele>1840.1</ele>
        <time>2026-05-14T11:36:03.000Z</time>
      </trkpt>
      <trkpt lat="44.17656" lon="5.28158">
        <ele>1840.3</ele>
        <time>2026-05-14T11:36:04.000Z</time>
      </trkpt>
      <trkpt lat="44.17656" lon="5.28158">
        <ele>1840.4</ele>
        <time>2026-05-14T11:36:05.000Z</time>
      </trkpt>
      <trkpt lat="44.17656" lon="5.28158">
        <ele>1840.4</ele>
        <time>2026-05-14T11:36:06.000Z</time>
      </trkpt>
      <trkpt lat="44.17656" lon="5.28158">
        <ele>1840.2</ele>
        <time>2026-05-14T11:36:07.000Z</time>
      </trkpt>
      <trkpt lat="44.17656" lon="5.28158">
        <ele>1840.2</ele>
        <time>2026-05-14T11:36:08.000Z</time>
      </trkpt>
      <trkpt lat="44.17656" lon="5.28158">
        <ele>1840.2</ele>
        <time>2026-05-14T11:36:09.000Z</time>
      </trkpt>
      <trkpt lat="44.17656" lon="5.28158">
        <ele>1840.2</ele>
        <time>2026-05-14T11:36:10.000Z</time>
      </trkpt>
      <trkpt lat="44.17656" lon="5.28158">
        <ele>1840.2</ele>
        <time>2026-05-14T11:36:11.000Z</time>
      </trkpt>
      <trkpt lat="44.17656" lon="5.28158">
        <ele>1840.2</ele>
        <time>2026-05-14T11:36:12.000Z</time>
      </trkpt>
      <trkpt lat="44.17656" lon="5.28157">
        <ele>1840.1</ele>
        <time>2026-05-14T11:36:13.000Z</time>
      </trkpt>
      <trkpt lat="44.17656" lon="5.28157">
        <ele>1840</ele>
        <time>2026-05-14T11:36:14.000Z</time>
      </trkpt>
      <trkpt lat="44.17656" lon="5.28157">
        <ele>1839.8</ele>
        <time>2026-05-14T11:36:15.000Z</time>
      </trkpt>
      <trkpt lat="44.17656" lon="5.28157">
        <ele>1839.6</ele>
        <time>2026-05-14T11:36:16.000Z</time>
      </trkpt>
      <trkpt lat="44.17656" lon="5.28157">
        <ele>1839.4</ele>
        <time>2026-05-14T11:36:17.000Z</time>
      </trkpt>
      <trkpt lat="44.17656" lon="5.28158">
        <ele>1838.9</ele>
        <time>2026-05-14T11:36:18.000Z</time>
      </trkpt>
      <trkpt lat="44.17656" lon="5.28158">
        <ele>1838.5</ele>
        <time>2026-05-14T11:36:19.000Z</time>
      </trkpt>
      <trkpt lat="44.17656" lon="5.28158">
        <ele>1838.1</ele>
        <time>2026-05-14T11:36:20.000Z</time>
      </trkpt>
      <trkpt lat="44.17656" lon="5.28158">
        <ele>1837.9</ele>
        <time>2026-05-14T11:36:21.000Z</time>
      </trkpt>
      <trkpt lat="44.17656" lon="5.28158">
        <ele>1837.7</ele>
        <time>2026-05-14T11:36:22.000Z</time>
      </trkpt>
      <trkpt lat="44.17656" lon="5.28158">
        <ele>1837.6</ele>
        <time>2026-05-14T11:36:23.000Z</time>
      </trkpt>
      <trkpt lat="44.17656" lon="5.28158">
        <ele>1837.3</ele>
        <time>2026-05-14T11:36:24.000Z</time>
      </trkpt>
      <trkpt lat="44.17656" lon="5.28158">
        <ele>1837.1</ele>
        <time>2026-05-14T11:36:25.000Z</time>
      </trkpt>
      <trkpt lat="44.17656" lon="5.28158">
        <ele>1837.3</ele>
        <time>2026-05-14T11:36:26.000Z</time>
      </trkpt>
      <trkpt lat="44.17656" lon="5.28158">
        <ele>1837.2</ele>
        <time>2026-05-14T11:36:27.000Z</time>
      </trkpt>
      <trkpt lat="44.17656" lon="5.28158">
        <ele>1837</ele>
        <time>2026-05-14T11:36:28.000Z</time>
      </trkpt>
      <trkpt lat="44.17656" lon="5.28158">
        <ele>1836.9</ele>
        <time>2026-05-14T11:36:29.000Z</time>
      </trkpt>
      <trkpt lat="44.17656" lon="5.28158">
        <ele>1836.6</ele>
        <time>2026-05-14T11:36:30.000Z</time>
      </trkpt>
      <trkpt lat="44.17656" lon="5.28158">
        <ele>1836.6</ele>
        <time>2026-05-14T11:36:31.000Z</time>
      </trkpt>
      <trkpt lat="44.17656" lon="5.28158">
        <ele>1836.5</ele>
        <time>2026-05-14T11:36:32.000Z</time>
      </trkpt>
      <trkpt lat="44.17656" lon="5.28158">
        <ele>1836.5</ele>
        <time>2026-05-14T11:36:33.000Z</time>
      </trkpt>
      <trkpt lat="44.17656" lon="5.28158">
        <ele>1836.6</ele>
        <time>2026-05-14T11:36:34.000Z</time>
      </trkpt>
      <trkpt lat="44.17656" lon="5.28158">
        <ele>1837</ele>
        <time>2026-05-14T11:36:35.000Z</time>
      </trkpt>
      <trkpt lat="44.17656" lon="5.28158">
        <ele>1837.1</ele>
        <time>2026-05-14T11:36:36.000Z</time>
      </trkpt>
      <trkpt lat="44.17656" lon="5.28158">
        <ele>1837.1</ele>
        <time>2026-05-14T11:36:37.000Z</time>
      </trkpt>
      <trkpt lat="44.17656" lon="5.28158">
        <ele>1836.9</ele>
        <time>2026-05-14T11:36:38.000Z</time>
      </trkpt>
      <trkpt lat="44.17656" lon="5.28157">
        <ele>1836.7</ele>
        <time>2026-05-14T11:36:39.000Z</time>
      </trkpt>
      <trkpt lat="44.17656" lon="5.28157">
        <ele>1836.6</ele>
        <time>2026-05-14T11:36:40.000Z</time>
      </trkpt>
      <trkpt lat="44.17656" lon="5.28157">
        <ele>1836.5</ele>
        <time>2026-05-14T11:36:41.000Z</time>
      </trkpt>
      <trkpt lat="44.17656" lon="5.28157">
        <ele>1836.2</ele>
        <time>2026-05-14T11:36:42.000Z</time>
      </trkpt>
      <trkpt lat="44.17656" lon="5.28157">
        <ele>1836.1</ele>
        <time>2026-05-14T11:36:43.000Z</time>
      </trkpt>
      <trkpt lat="44.17656" lon="5.28157">
        <ele>1836.3</ele>
        <time>2026-05-14T11:36:44.000Z</time>
      </trkpt>
      <trkpt lat="44.17656" lon="5.28157">
        <ele>1836.5</ele>
        <time>2026-05-14T11:36:45.000Z</time>
      </trkpt>
      <trkpt lat="44.17656" lon="5.28157">
        <ele>1836.6</ele>
        <time>2026-05-14T11:36:46.000Z</time>
      </trkpt>
      <trkpt lat="44.17656" lon="5.28157">
        <ele>1836.6</ele>
        <time>2026-05-14T11:36:47.000Z</time>
      </trkpt>
      <trkpt lat="44.17656" lon="5.28157">
        <ele>1836.6</ele>
        <time>2026-05-14T11:36:48.000Z</time>
      </trkpt>
      <trkpt lat="44.17656" lon="5.28157">
        <ele>1836.9</ele>
        <time>2026-05-14T11:36:49.000Z</time>
      </trkpt>
      <trkpt lat="44.17655" lon="5.28157">
        <ele>1836.9</ele>
        <time>2026-05-14T11:36:50.000Z</time>
      </trkpt>
      <trkpt lat="44.17655" lon="5.28157">
        <ele>1837</ele>
        <time>2026-05-14T11:36:51.000Z</time>
      </trkpt>
      <trkpt lat="44.17655" lon="5.28157">
        <ele>1837.2</ele>
        <time>2026-05-14T11:36:52.000Z</time>
      </trkpt>
      <trkpt lat="44.17655" lon="5.28157">
        <ele>1837.4</ele>
        <time>2026-05-14T11:36:53.000Z</time>
      </trkpt>
      <trkpt lat="44.17655" lon="5.28157">
        <ele>1837.5</ele>
        <time>2026-05-14T11:36:54.000Z</time>
      </trkpt>
      <trkpt lat="44.17655" lon="5.28157">
        <ele>1837.3</ele>
        <time>2026-05-14T11:36:55.000Z</time>
      </trkpt>
      <trkpt lat="44.17655" lon="5.28157">
        <ele>1837.1</ele>
        <time>2026-05-14T11:36:56.000Z</time>
      </trkpt>
      <trkpt lat="44.17655" lon="5.28157">
        <ele>1836.9</ele>
        <time>2026-05-14T11:36:57.000Z</time>
      </trkpt>
      <trkpt lat="44.17655" lon="5.28157">
        <ele>1836.7</ele>
        <time>2026-05-14T11:36:58.000Z</time>
      </trkpt>
      <trkpt lat="44.17655" lon="5.28157">
        <ele>1836.5</ele>
        <time>2026-05-14T11:36:59.000Z</time>
      </trkpt>
      <trkpt lat="44.17655" lon="5.28157">
        <ele>1836.2</ele>
        <time>2026-05-14T11:37:00.000Z</time>
      </trkpt>
      <trkpt lat="44.17655" lon="5.28157">
        <ele>1836.1</ele>
        <time>2026-05-14T11:37:01.000Z</time>
      </trkpt>
      <trkpt lat="44.17655" lon="5.28157">
        <ele>1836</ele>
        <time>2026-05-14T11:37:02.000Z</time>
      </trkpt>
      <trkpt lat="44.17655" lon="5.28157">
        <ele>1836.2</ele>
        <time>2026-05-14T11:37:03.000Z</time>
      </trkpt>
      <trkpt lat="44.17655" lon="5.28157">
        <ele>1836.2</ele>
        <time>2026-05-14T11:37:04.000Z</time>
      </trkpt>
      <trkpt lat="44.17655" lon="5.28157">
        <ele>1836.4</ele>
        <time>2026-05-14T11:37:05.000Z</time>
      </trkpt>
      <trkpt lat="44.17655" lon="5.28157">
        <ele>1836.7</ele>
        <time>2026-05-14T11:37:06.000Z</time>
      </trkpt>
      <trkpt lat="44.17655" lon="5.28157">
        <ele>1837</ele>
        <time>2026-05-14T11:37:07.000Z</time>
      </trkpt>
      <trkpt lat="44.17655" lon="5.28157">
        <ele>1837.2</ele>
        <time>2026-05-14T11:37:08.000Z</time>
      </trkpt>
      <trkpt lat="44.17655" lon="5.28157">
        <ele>1837.5</ele>
        <time>2026-05-14T11:37:09.000Z</time>
      </trkpt>
      <trkpt lat="44.17655" lon="5.28157">
        <ele>1837.8</ele>
        <time>2026-05-14T11:37:10.000Z</time>
      </trkpt>
      <trkpt lat="44.17655" lon="5.28157">
        <ele>1838.1</ele>
        <time>2026-05-14T11:37:11.000Z</time>
      </trkpt>
      <trkpt lat="44.17655" lon="5.28157">
        <ele>1838.4</ele>
        <time>2026-05-14T11:37:12.000Z</time>
      </trkpt>
      <trkpt lat="44.17655" lon="5.28157">
        <ele>1838.4</ele>
        <time>2026-05-14T11:37:13.000Z</time>
      </trkpt>
      <trkpt lat="44.17655" lon="5.28157">
        <ele>1838.4</ele>
        <time>2026-05-14T11:37:14.000Z</time>
      </trkpt>
      <trkpt lat="44.17655" lon="5.28157">
        <ele>1838.7</ele>
        <time>2026-05-14T11:37:15.000Z</time>
      </trkpt>
      <trkpt lat="44.17655" lon="5.28157">
        <ele>1838.8</ele>
        <time>2026-05-14T11:37:16.000Z</time>
      </trkpt>
      <trkpt lat="44.17655" lon="5.28157">
        <ele>1839</ele>
        <time>2026-05-14T11:37:17.000Z</time>
      </trkpt>
      <trkpt lat="44.17655" lon="5.28157">
        <ele>1838.9</ele>
        <time>2026-05-14T11:37:18.000Z</time>
      </trkpt>
      <trkpt lat="44.17655" lon="5.28157">
        <ele>1838.8</ele>
        <time>2026-05-14T11:37:19.000Z</time>
      </trkpt>
      <trkpt lat="44.17655" lon="5.28157">
        <ele>1838.9</ele>
        <time>2026-05-14T11:37:20.000Z</time>
      </trkpt>
      <trkpt lat="44.17655" lon="5.28157">
        <ele>1838.9</ele>
        <time>2026-05-14T11:37:21.000Z</time>
      </trkpt>
      <trkpt lat="44.17655" lon="5.28157">
        <ele>1838.9</ele>
        <time>2026-05-14T11:37:22.000Z</time>
      </trkpt>
      <trkpt lat="44.17655" lon="5.28157">
        <ele>1838.8</ele>
        <time>2026-05-14T11:37:23.000Z</time>
      </trkpt>
      <trkpt lat="44.17655" lon="5.28157">
        <ele>1838.8</ele>
        <time>2026-05-14T11:37:24.000Z</time>
      </trkpt>
      <trkpt lat="44.17655" lon="5.28157">
        <ele>1838.9</ele>
        <time>2026-05-14T11:37:25.000Z</time>
      </trkpt>
      <trkpt lat="44.17655" lon="5.28157">
        <ele>1838.7</ele>
        <time>2026-05-14T11:37:26.000Z</time>
      </trkpt>
      <trkpt lat="44.17655" lon="5.28157">
        <ele>1839</ele>
        <time>2026-05-14T11:37:27.000Z</time>
      </trkpt>
      <trkpt lat="44.17655" lon="5.28157">
        <ele>1838.8</ele>
        <time>2026-05-14T11:37:28.000Z</time>
      </trkpt>
      <trkpt lat="44.17655" lon="5.28157">
        <ele>1838.8</ele>
        <time>2026-05-14T11:37:29.000Z</time>
      </trkpt>
      <trkpt lat="44.17655" lon="5.28157">
        <ele>1839</ele>
        <time>2026-05-14T11:37:30.000Z</time>
      </trkpt>
      <trkpt lat="44.17655" lon="5.28157">
        <ele>1839</ele>
        <time>2026-05-14T11:37:31.000Z</time>
      </trkpt>
      <trkpt lat="44.17655" lon="5.28157">
        <ele>1838.9</ele>
        <time>2026-05-14T11:37:32.000Z</time>
      </trkpt>
      <trkpt lat="44.17655" lon="5.28157">
        <ele>1838.9</ele>
        <time>2026-05-14T11:37:33.000Z</time>
      </trkpt>
      <trkpt lat="44.17655" lon="5.28157">
        <ele>1838.9</ele>
        <time>2026-05-14T11:37:34.000Z</time>
      </trkpt>
      <trkpt lat="44.17655" lon="5.28157">
        <ele>1839.1</ele>
        <time>2026-05-14T11:37:35.000Z</time>
      </trkpt>
      <trkpt lat="44.17655" lon="5.28157">
        <ele>1839.2</ele>
        <time>2026-05-14T11:37:36.000Z</time>
      </trkpt>
      <trkpt lat="44.17655" lon="5.28158">
        <ele>1839.3</ele>
        <time>2026-05-14T11:37:37.000Z</time>
      </trkpt>
      <trkpt lat="44.17655" lon="5.28158">
        <ele>1839.4</ele>
        <time>2026-05-14T11:37:38.000Z</time>
      </trkpt>
      <trkpt lat="44.17655" lon="5.28158">
        <ele>1839.6</ele>
        <time>2026-05-14T11:37:39.000Z</time>
      </trkpt>
      <trkpt lat="44.17655" lon="5.28158">
        <ele>1839.7</ele>
        <time>2026-05-14T11:37:40.000Z</time>
      </trkpt>
      <trkpt lat="44.17655" lon="5.28158">
        <ele>1839.7</ele>
        <time>2026-05-14T11:37:41.000Z</time>
      </trkpt>
      <trkpt lat="44.17655" lon="5.28158">
        <ele>1839.6</ele>
        <time>2026-05-14T11:37:42.000Z</time>
      </trkpt>
      <trkpt lat="44.17655" lon="5.28158">
        <ele>1839.7</ele>
        <time>2026-05-14T11:37:43.000Z</time>
      </trkpt>
      <trkpt lat="44.17655" lon="5.28158">
        <ele>1839.6</ele>
        <time>2026-05-14T11:37:44.000Z</time>
      </trkpt>
      <trkpt lat="44.17655" lon="5.28158">
        <ele>1839.6</ele>
        <time>2026-05-14T11:37:45.000Z</time>
      </trkpt>
      <trkpt lat="44.17655" lon="5.28158">
        <ele>1839.5</ele>
        <time>2026-05-14T11:37:46.000Z</time>
      </trkpt>
      <trkpt lat="44.17655" lon="5.28158">
        <ele>1839.4</ele>
        <time>2026-05-14T11:37:47.000Z</time>
      </trkpt>
      <trkpt lat="44.17656" lon="5.28158">
        <ele>1839.3</ele>
        <time>2026-05-14T11:37:48.000Z</time>
      </trkpt>
      <trkpt lat="44.17656" lon="5.28158">
        <ele>1839.4</ele>
        <time>2026-05-14T11:37:49.000Z</time>
      </trkpt>
      <trkpt lat="44.17656" lon="5.28158">
        <ele>1839.2</ele>
        <time>2026-05-14T11:37:50.000Z</time>
      </trkpt>
      <trkpt lat="44.17656" lon="5.28158">
        <ele>1839.1</ele>
        <time>2026-05-14T11:37:51.000Z</time>
      </trkpt>
      <trkpt lat="44.17656" lon="5.28158">
        <ele>1839.3</ele>
        <time>2026-05-14T11:37:52.000Z</time>
      </trkpt>
      <trkpt lat="44.17656" lon="5.28158">
        <ele>1839.4</ele>
        <time>2026-05-14T11:37:53.000Z</time>
      </trkpt>
      <trkpt lat="44.17656" lon="5.28158">
        <ele>1839.5</ele>
        <time>2026-05-14T11:37:54.000Z</time>
      </trkpt>
      <trkpt lat="44.17656" lon="5.28158">
        <ele>1839.6</ele>
        <time>2026-05-14T11:37:55.000Z</time>
      </trkpt>
      <trkpt lat="44.17656" lon="5.28157">
        <ele>1839.8</ele>
        <time>2026-05-14T11:37:56.000Z</time>
      </trkpt>
      <trkpt lat="44.17656" lon="5.28157">
        <ele>1839.7</ele>
        <time>2026-05-14T11:37:57.000Z</time>
      </trkpt>
      <trkpt lat="44.17656" lon="5.28157">
        <ele>1839.7</ele>
        <time>2026-05-14T11:37:58.000Z</time>
      </trkpt>
      <trkpt lat="44.17656" lon="5.28157">
        <ele>1839.7</ele>
        <time>2026-05-14T11:37:59.000Z</time>
      </trkpt>
      <trkpt lat="44.17656" lon="5.28157">
        <ele>1839.8</ele>
        <time>2026-05-14T11:38:00.000Z</time>
      </trkpt>
      <trkpt lat="44.17656" lon="5.28157">
        <ele>1839.5</ele>
        <time>2026-05-14T11:38:01.000Z</time>
      </trkpt>
      <trkpt lat="44.17656" lon="5.28158">
        <ele>1839.6</ele>
        <time>2026-05-14T11:38:02.000Z</time>
      </trkpt>
      <trkpt lat="44.17656" lon="5.28158">
        <ele>1839.6</ele>
        <time>2026-05-14T11:38:03.000Z</time>
      </trkpt>
      <trkpt lat="44.17656" lon="5.28158">
        <ele>1839.5</ele>
        <time>2026-05-14T11:38:04.000Z</time>
      </trkpt>
      <trkpt lat="44.17656" lon="5.28157">
        <ele>1839.6</ele>
        <time>2026-05-14T11:38:05.000Z</time>
      </trkpt>
      <trkpt lat="44.17656" lon="5.28157">
        <ele>1839.7</ele>
        <time>2026-05-14T11:38:06.000Z</time>
      </trkpt>
      <trkpt lat="44.17656" lon="5.28157">
        <ele>1839.9</ele>
        <time>2026-05-14T11:38:07.000Z</time>
      </trkpt>
      <trkpt lat="44.17656" lon="5.28157">
        <ele>1840.2</ele>
        <time>2026-05-14T11:38:08.000Z</time>
      </trkpt>
      <trkpt lat="44.17656" lon="5.28158">
        <ele>1840.4</ele>
        <time>2026-05-14T11:38:09.000Z</time>
      </trkpt>
      <trkpt lat="44.17656" lon="5.28158">
        <ele>1840.6</ele>
        <time>2026-05-14T11:38:10.000Z</time>
      </trkpt>
      <trkpt lat="44.17656" lon="5.28157">
        <ele>1840.8</ele>
        <time>2026-05-14T11:38:11.000Z</time>
      </trkpt>
      <trkpt lat="44.17656" lon="5.28157">
        <ele>1840.9</ele>
        <time>2026-05-14T11:38:12.000Z</time>
      </trkpt>
      <trkpt lat="44.17656" lon="5.28157">
        <ele>1841</ele>
        <time>2026-05-14T11:38:13.000Z</time>
      </trkpt>
      <trkpt lat="44.17656" lon="5.28157">
        <ele>1841.3</ele>
        <time>2026-05-14T11:38:14.000Z</time>
      </trkpt>
      <trkpt lat="44.17656" lon="5.28157">
        <ele>1841.6</ele>
        <time>2026-05-14T11:38:15.000Z</time>
      </trkpt>
      <trkpt lat="44.17656" lon="5.28157">
        <ele>1841.7</ele>
        <time>2026-05-14T11:38:16.000Z</time>
      </trkpt>
      <trkpt lat="44.17656" lon="5.28157">
        <ele>1841.8</ele>
        <time>2026-05-14T11:38:17.000Z</time>
      </trkpt>
      <trkpt lat="44.17656" lon="5.28157">
        <ele>1841.5</ele>
        <time>2026-05-14T11:38:18.000Z</time>
      </trkpt>
      <trkpt lat="44.17656" lon="5.28157">
        <ele>1841.6</ele>
        <time>2026-05-14T11:38:19.000Z</time>
      </trkpt>
      <trkpt lat="44.17656" lon="5.28157">
        <ele>1841.7</ele>
        <time>2026-05-14T11:38:20.000Z</time>
      </trkpt>
      <trkpt lat="44.17656" lon="5.28157">
        <ele>1841.8</ele>
        <time>2026-05-14T11:38:21.000Z</time>
      </trkpt>
      <trkpt lat="44.17656" lon="5.28157">
        <ele>1842</ele>
        <time>2026-05-14T11:38:22.000Z</time>
      </trkpt>
      <trkpt lat="44.17656" lon="5.28157">
        <ele>1842</ele>
        <time>2026-05-14T11:38:23.000Z</time>
      </trkpt>
      <trkpt lat="44.17656" lon="5.28157">
        <ele>1842</ele>
        <time>2026-05-14T11:38:24.000Z</time>
      </trkpt>
      <trkpt lat="44.17655" lon="5.28157">
        <ele>1842</ele>
        <time>2026-05-14T11:38:25.000Z</time>
      </trkpt>
      <trkpt lat="44.17655" lon="5.28157">
        <ele>1842.3</ele>
        <time>2026-05-14T11:38:26.000Z</time>
      </trkpt>
      <trkpt lat="44.17655" lon="5.28157">
        <ele>1842.4</ele>
        <time>2026-05-14T11:38:27.000Z</time>
      </trkpt>
      <trkpt lat="44.17656" lon="5.28156">
        <ele>1842.3</ele>
        <time>2026-05-14T11:38:28.000Z</time>
      </trkpt>
      <trkpt lat="44.17656" lon="5.28156">
        <ele>1842.1</ele>
        <time>2026-05-14T11:38:29.000Z</time>
      </trkpt>
      <trkpt lat="44.17656" lon="5.28156">
        <ele>1841.4</ele>
        <time>2026-05-14T11:38:30.999Z</time>
      </trkpt>
      <trkpt lat="44.17656" lon="5.28156">
        <ele>1841.3</ele>
        <time>2026-05-14T11:38:31.999Z</time>
      </trkpt>
      <trkpt lat="44.17656" lon="5.28156">
        <ele>1841</ele>
        <time>2026-05-14T11:38:32.999Z</time>
      </trkpt>
      <trkpt lat="44.17656" lon="5.28156">
        <ele>1840.8</ele>
        <time>2026-05-14T11:38:33.999Z</time>
      </trkpt>
      <trkpt lat="44.17656" lon="5.28156">
        <ele>1840.6</ele>
        <time>2026-05-14T11:38:34.999Z</time>
      </trkpt>
      <trkpt lat="44.17656" lon="5.28156">
        <ele>1840.5</ele>
        <time>2026-05-14T11:38:35.999Z</time>
      </trkpt>
      <trkpt lat="44.17656" lon="5.28157">
        <ele>1840.4</ele>
        <time>2026-05-14T11:38:36.999Z</time>
      </trkpt>
      <trkpt lat="44.17656" lon="5.28157">
        <ele>1840.4</ele>
        <time>2026-05-14T11:38:37.999Z</time>
      </trkpt>
      <trkpt lat="44.17656" lon="5.28157">
        <ele>1840.6</ele>
        <time>2026-05-14T11:38:38.999Z</time>
      </trkpt>
      <trkpt lat="44.17656" lon="5.28157">
        <ele>1840.8</ele>
        <time>2026-05-14T11:38:39.999Z</time>
      </trkpt>
      <trkpt lat="44.17656" lon="5.28157">
        <ele>1841.1</ele>
        <time>2026-05-14T11:38:40.999Z</time>
      </trkpt>
      <trkpt lat="44.17656" lon="5.28157">
        <ele>1841</ele>
        <time>2026-05-14T11:38:41.999Z</time>
      </trkpt>
      <trkpt lat="44.17656" lon="5.28157">
        <ele>1840.8</ele>
        <time>2026-05-14T11:38:42.999Z</time>
      </trkpt>
      <trkpt lat="44.17655" lon="5.28157">
        <ele>1840.7</ele>
        <time>2026-05-14T11:38:43.999Z</time>
      </trkpt>
      <trkpt lat="44.17655" lon="5.28157">
        <ele>1840.6</ele>
        <time>2026-05-14T11:38:44.999Z</time>
      </trkpt>
      <trkpt lat="44.17655" lon="5.28157">
        <ele>1840.4</ele>
        <time>2026-05-14T11:38:45.999Z</time>
      </trkpt>
      <trkpt lat="44.17655" lon="5.28157">
        <ele>1840.2</ele>
        <time>2026-05-14T11:38:46.999Z</time>
      </trkpt>
      <trkpt lat="44.17655" lon="5.28157">
        <ele>1839.9</ele>
        <time>2026-05-14T11:38:47.999Z</time>
      </trkpt>
      <trkpt lat="44.17655" lon="5.28157">
        <ele>1839.7</ele>
        <time>2026-05-14T11:38:48.999Z</time>
      </trkpt>
      <trkpt lat="44.17655" lon="5.28157">
        <ele>1839.7</ele>
        <time>2026-05-14T11:38:49.999Z</time>
      </trkpt>
      <trkpt lat="44.17655" lon="5.28157">
        <ele>1839.5</ele>
        <time>2026-05-14T11:38:50.999Z</time>
      </trkpt>
      <trkpt lat="44.17655" lon="5.28157">
        <ele>1839.5</ele>
        <time>2026-05-14T11:38:51.999Z</time>
      </trkpt>
      <trkpt lat="44.17655" lon="5.28157">
        <ele>1839.5</ele>
        <time>2026-05-14T11:38:52.999Z</time>
      </trkpt>
      <trkpt lat="44.17655" lon="5.28157">
        <ele>1839.7</ele>
        <time>2026-05-14T11:38:53.999Z</time>
      </trkpt>
      <trkpt lat="44.17655" lon="5.28157">
        <ele>1839.9</ele>
        <time>2026-05-14T11:38:54.999Z</time>
      </trkpt>
      <trkpt lat="44.17655" lon="5.28157">
        <ele>1840.3</ele>
        <time>2026-05-14T11:38:55.999Z</time>
      </trkpt>
      <trkpt lat="44.17655" lon="5.28157">
        <ele>1840.4</ele>
        <time>2026-05-14T11:38:56.999Z</time>
      </trkpt>
      <trkpt lat="44.17655" lon="5.28156">
        <ele>1840.8</ele>
        <time>2026-05-14T11:38:57.999Z</time>
      </trkpt>
      <trkpt lat="44.17655" lon="5.28156">
        <ele>1841</ele>
        <time>2026-05-14T11:38:58.999Z</time>
      </trkpt>
      <trkpt lat="44.17655" lon="5.28156">
        <ele>1841.2</ele>
        <time>2026-05-14T11:38:59.999Z</time>
      </trkpt>
      <trkpt lat="44.17656" lon="5.28156">
        <ele>1841.2</ele>
        <time>2026-05-14T11:39:00.999Z</time>
      </trkpt>
      <trkpt lat="44.17656" lon="5.28156">
        <ele>1841.3</ele>
        <time>2026-05-14T11:39:01.999Z</time>
      </trkpt>
      <trkpt lat="44.17656" lon="5.28156">
        <ele>1841.1</ele>
        <time>2026-05-14T11:39:02.999Z</time>
      </trkpt>
      <trkpt lat="44.17656" lon="5.28156">
        <ele>1841.1</ele>
        <time>2026-05-14T11:39:03.999Z</time>
      </trkpt>
      <trkpt lat="44.17656" lon="5.28156">
        <ele>1841.1</ele>
        <time>2026-05-14T11:39:04.999Z</time>
      </trkpt>
      <trkpt lat="44.17656" lon="5.28156">
        <ele>1841.1</ele>
        <time>2026-05-14T11:39:05.999Z</time>
      </trkpt>
      <trkpt lat="44.17656" lon="5.28156">
        <ele>1841.2</ele>
        <time>2026-05-14T11:39:06.999Z</time>
      </trkpt>
      <trkpt lat="44.17656" lon="5.28156">
        <ele>1841.1</ele>
        <time>2026-05-14T11:39:07.999Z</time>
      </trkpt>
      <trkpt lat="44.17656" lon="5.28155">
        <ele>1840.6</ele>
        <time>2026-05-14T11:39:08.999Z</time>
      </trkpt>
      <trkpt lat="44.17656" lon="5.28155">
        <ele>1840.4</ele>
        <time>2026-05-14T11:39:09.999Z</time>
      </trkpt>
      <trkpt lat="44.17656" lon="5.28155">
        <ele>1840.1</ele>
        <time>2026-05-14T11:39:10.999Z</time>
      </trkpt>
      <trkpt lat="44.17655" lon="5.28155">
        <ele>1840</ele>
        <time>2026-05-14T11:39:11.999Z</time>
      </trkpt>
      <trkpt lat="44.17655" lon="5.28155">
        <ele>1839.8</ele>
        <time>2026-05-14T11:39:12.999Z</time>
      </trkpt>
      <trkpt lat="44.17655" lon="5.28155">
        <ele>1839.6</ele>
        <time>2026-05-14T11:39:13.999Z</time>
      </trkpt>
      <trkpt lat="44.17654" lon="5.28155">
        <ele>1839.5</ele>
        <time>2026-05-14T11:39:14.999Z</time>
      </trkpt>
      <trkpt lat="44.17654" lon="5.28155">
        <ele>1839.5</ele>
        <time>2026-05-14T11:39:15.999Z</time>
      </trkpt>
      <trkpt lat="44.17654" lon="5.28155">
        <ele>1839.3</ele>
        <time>2026-05-14T11:39:16.999Z</time>
      </trkpt>
      <trkpt lat="44.17654" lon="5.28155">
        <ele>1839.2</ele>
        <time>2026-05-14T11:39:17.999Z</time>
      </trkpt>
      <trkpt lat="44.17654" lon="5.28155">
        <ele>1839.4</ele>
        <time>2026-05-14T11:39:18.999Z</time>
      </trkpt>
      <trkpt lat="44.17654" lon="5.28155">
        <ele>1839.3</ele>
        <time>2026-05-14T11:39:19.999Z</time>
      </trkpt>
      <trkpt lat="44.17654" lon="5.28155">
        <ele>1839.4</ele>
        <time>2026-05-14T11:39:20.999Z</time>
      </trkpt>
      <trkpt lat="44.17654" lon="5.28155">
        <ele>1839.3</ele>
        <time>2026-05-14T11:39:21.999Z</time>
      </trkpt>
      <trkpt lat="44.17654" lon="5.28155">
        <ele>1839.2</ele>
        <time>2026-05-14T11:39:22.999Z</time>
      </trkpt>
      <trkpt lat="44.17655" lon="5.28155">
        <ele>1839.1</ele>
        <time>2026-05-14T11:39:23.999Z</time>
      </trkpt>
      <trkpt lat="44.17655" lon="5.28155">
        <ele>1838.9</ele>
        <time>2026-05-14T11:39:24.999Z</time>
      </trkpt>
      <trkpt lat="44.17655" lon="5.28155">
        <ele>1838.7</ele>
        <time>2026-05-14T11:39:25.999Z</time>
      </trkpt>
      <trkpt lat="44.17655" lon="5.28155">
        <ele>1838.7</ele>
        <time>2026-05-14T11:39:26.999Z</time>
      </trkpt>
      <trkpt lat="44.17655" lon="5.28155">
        <ele>1838.6</ele>
        <time>2026-05-14T11:39:27.999Z</time>
      </trkpt>
      <trkpt lat="44.17655" lon="5.28154">
        <ele>1838.3</ele>
        <time>2026-05-14T11:39:28.999Z</time>
      </trkpt>
      <trkpt lat="44.17655" lon="5.28154">
        <ele>1838.3</ele>
        <time>2026-05-14T11:39:29.999Z</time>
      </trkpt>
      <trkpt lat="44.17655" lon="5.28154">
        <ele>1838.2</ele>
        <time>2026-05-14T11:39:30.999Z</time>
      </trkpt>
      <trkpt lat="44.17655" lon="5.28154">
        <ele>1838.1</ele>
        <time>2026-05-14T11:39:31.999Z</time>
      </trkpt>
      <trkpt lat="44.17655" lon="5.28154">
        <ele>1838.1</ele>
        <time>2026-05-14T11:39:32.999Z</time>
      </trkpt>
      <trkpt lat="44.17655" lon="5.28154">
        <ele>1838.1</ele>
        <time>2026-05-14T11:39:33.999Z</time>
      </trkpt>
      <trkpt lat="44.17655" lon="5.28154">
        <ele>1838.4</ele>
        <time>2026-05-14T11:39:34.999Z</time>
      </trkpt>
      <trkpt lat="44.17655" lon="5.28154">
        <ele>1838.6</ele>
        <time>2026-05-14T11:39:35.999Z</time>
      </trkpt>
      <trkpt lat="44.17655" lon="5.28154">
        <ele>1838.6</ele>
        <time>2026-05-14T11:39:36.999Z</time>
      </trkpt>
      <trkpt lat="44.17655" lon="5.28154">
        <ele>1838.7</ele>
        <time>2026-05-14T11:39:37.999Z</time>
      </trkpt>
      <trkpt lat="44.17655" lon="5.28154">
        <ele>1838.5</ele>
        <time>2026-05-14T11:39:38.999Z</time>
      </trkpt>
      <trkpt lat="44.17655" lon="5.28154">
        <ele>1838.4</ele>
        <time>2026-05-14T11:39:39.999Z</time>
      </trkpt>
      <trkpt lat="44.17655" lon="5.28155">
        <ele>1838.4</ele>
        <time>2026-05-14T11:39:40.999Z</time>
      </trkpt>
      <trkpt lat="44.17655" lon="5.28155">
        <ele>1838.4</ele>
        <time>2026-05-14T11:39:41.999Z</time>
      </trkpt>
      <trkpt lat="44.17655" lon="5.28155">
        <ele>1838.5</ele>
        <time>2026-05-14T11:39:42.999Z</time>
      </trkpt>
      <trkpt lat="44.17655" lon="5.28155">
        <ele>1838.5</ele>
        <time>2026-05-14T11:39:43.999Z</time>
      </trkpt>
      <trkpt lat="44.17655" lon="5.28155">
        <ele>1838.5</ele>
        <time>2026-05-14T11:39:44.999Z</time>
      </trkpt>
      <trkpt lat="44.17655" lon="5.28155">
        <ele>1838.3</ele>
        <time>2026-05-14T11:39:45.999Z</time>
      </trkpt>
      <trkpt lat="44.17655" lon="5.28155">
        <ele>1838.2</ele>
        <time>2026-05-14T11:39:46.999Z</time>
      </trkpt>
      <trkpt lat="44.17655" lon="5.28155">
        <ele>1838</ele>
        <time>2026-05-14T11:39:47.999Z</time>
      </trkpt>
      <trkpt lat="44.17655" lon="5.28155">
        <ele>1837.6</ele>
        <time>2026-05-14T11:39:48.999Z</time>
      </trkpt>
      <trkpt lat="44.17655" lon="5.28155">
        <ele>1837.4</ele>
        <time>2026-05-14T11:39:49.999Z</time>
      </trkpt>
      <trkpt lat="44.17655" lon="5.28155">
        <ele>1837.4</ele>
        <time>2026-05-14T11:39:50.999Z</time>
      </trkpt>
      <trkpt lat="44.17655" lon="5.28155">
        <ele>1837.4</ele>
        <time>2026-05-14T11:39:51.999Z</time>
      </trkpt>
      <trkpt lat="44.17655" lon="5.28155">
        <ele>1837.3</ele>
        <time>2026-05-14T11:39:52.999Z</time>
      </trkpt>
      <trkpt lat="44.17655" lon="5.28155">
        <ele>1837.4</ele>
        <time>2026-05-14T11:39:53.999Z</time>
      </trkpt>
      <trkpt lat="44.17656" lon="5.28155">
        <ele>1837.3</ele>
        <time>2026-05-14T11:39:54.999Z</time>
      </trkpt>
      <trkpt lat="44.17656" lon="5.28155">
        <ele>1837.3</ele>
        <time>2026-05-14T11:39:55.999Z</time>
      </trkpt>
      <trkpt lat="44.17656" lon="5.28155">
        <ele>1837.3</ele>
        <time>2026-05-14T11:39:56.999Z</time>
      </trkpt>
      <trkpt lat="44.17656" lon="5.28155">
        <ele>1837.6</ele>
        <time>2026-05-14T11:39:57.999Z</time>
      </trkpt>
      <trkpt lat="44.17656" lon="5.28155">
        <ele>1837.7</ele>
        <time>2026-05-14T11:39:58.999Z</time>
      </trkpt>
      <trkpt lat="44.17656" lon="5.28155">
        <ele>1837.7</ele>
        <time>2026-05-14T11:39:59.999Z</time>
      </trkpt>
      <trkpt lat="44.17656" lon="5.28155">
        <ele>1837.6</ele>
        <time>2026-05-14T11:40:00.999Z</time>
      </trkpt>
      <trkpt lat="44.17656" lon="5.28155">
        <ele>1837.4</ele>
        <time>2026-05-14T11:40:01.999Z</time>
      </trkpt>
      <trkpt lat="44.17656" lon="5.28155">
        <ele>1837.3</ele>
        <time>2026-05-14T11:40:02.999Z</time>
      </trkpt>
      <trkpt lat="44.17656" lon="5.28155">
        <ele>1837.4</ele>
        <time>2026-05-14T11:40:03.999Z</time>
      </trkpt>
      <trkpt lat="44.17656" lon="5.28154">
        <ele>1837.7</ele>
        <time>2026-05-14T11:40:04.999Z</time>
      </trkpt>
      <trkpt lat="44.17656" lon="5.28154">
        <ele>1838.1</ele>
        <time>2026-05-14T11:40:05.999Z</time>
      </trkpt>
      <trkpt lat="44.17656" lon="5.28154">
        <ele>1837.9</ele>
        <time>2026-05-14T11:40:06.999Z</time>
      </trkpt>
      <trkpt lat="44.17656" lon="5.28154">
        <ele>1838</ele>
        <time>2026-05-14T11:40:07.999Z</time>
      </trkpt>
      <trkpt lat="44.17656" lon="5.28154">
        <ele>1838.1</ele>
        <time>2026-05-14T11:40:08.999Z</time>
      </trkpt>
      <trkpt lat="44.17656" lon="5.28154">
        <ele>1838.1</ele>
        <time>2026-05-14T11:40:09.999Z</time>
      </trkpt>
      <trkpt lat="44.17656" lon="5.28154">
        <ele>1837.8</ele>
        <time>2026-05-14T11:40:10.999Z</time>
      </trkpt>
      <trkpt lat="44.17656" lon="5.28155">
        <ele>1837.3</ele>
        <time>2026-05-14T11:40:11.999Z</time>
      </trkpt>
      <trkpt lat="44.17656" lon="5.28155">
        <ele>1837.1</ele>
        <time>2026-05-14T11:40:12.999Z</time>
      </trkpt>
      <trkpt lat="44.17656" lon="5.28155">
        <ele>1836.7</ele>
        <time>2026-05-14T11:40:13.999Z</time>
      </trkpt>
      <trkpt lat="44.17656" lon="5.28155">
        <ele>1836.5</ele>
        <time>2026-05-14T11:40:14.999Z</time>
      </trkpt>
      <trkpt lat="44.17656" lon="5.28155">
        <ele>1836.5</ele>
        <time>2026-05-14T11:40:15.999Z</time>
      </trkpt>
      <trkpt lat="44.17656" lon="5.28155">
        <ele>1836.5</ele>
        <time>2026-05-14T11:40:16.999Z</time>
      </trkpt>
      <trkpt lat="44.17656" lon="5.28155">
        <ele>1836.5</ele>
        <time>2026-05-14T11:40:17.999Z</time>
      </trkpt>
      <trkpt lat="44.17656" lon="5.28155">
        <ele>1836.5</ele>
        <time>2026-05-14T11:40:18.999Z</time>
      </trkpt>
      <trkpt lat="44.17656" lon="5.28154">
        <ele>1836.6</ele>
        <time>2026-05-14T11:40:19.999Z</time>
      </trkpt>
      <trkpt lat="44.17656" lon="5.28154">
        <ele>1836.4</ele>
        <time>2026-05-14T11:40:20.999Z</time>
      </trkpt>
      <trkpt lat="44.17656" lon="5.28154">
        <ele>1836.2</ele>
        <time>2026-05-14T11:40:21.999Z</time>
      </trkpt>
      <trkpt lat="44.17656" lon="5.28154">
        <ele>1836.4</ele>
        <time>2026-05-14T11:40:22.999Z</time>
      </trkpt>
      <trkpt lat="44.17656" lon="5.28154">
        <ele>1836.4</ele>
        <time>2026-05-14T11:40:23.999Z</time>
      </trkpt>
      <trkpt lat="44.17656" lon="5.28154">
        <ele>1836.4</ele>
        <time>2026-05-14T11:40:24.999Z</time>
      </trkpt>
      <trkpt lat="44.17656" lon="5.28154">
        <ele>1836.7</ele>
        <time>2026-05-14T11:40:25.999Z</time>
      </trkpt>
      <trkpt lat="44.17656" lon="5.28154">
        <ele>1837.1</ele>
        <time>2026-05-14T11:40:26.999Z</time>
      </trkpt>
      <trkpt lat="44.17656" lon="5.28154">
        <ele>1837.4</ele>
        <time>2026-05-14T11:40:27.999Z</time>
      </trkpt>
      <trkpt lat="44.17657" lon="5.28154">
        <ele>1837.5</ele>
        <time>2026-05-14T11:40:28.999Z</time>
      </trkpt>
      <trkpt lat="44.17657" lon="5.28154">
        <ele>1837.5</ele>
        <time>2026-05-14T11:40:29.999Z</time>
      </trkpt>
      <trkpt lat="44.17657" lon="5.28154">
        <ele>1837.7</ele>
        <time>2026-05-14T11:40:30.999Z</time>
      </trkpt>
      <trkpt lat="44.17657" lon="5.28154">
        <ele>1838</ele>
        <time>2026-05-14T11:40:31.999Z</time>
      </trkpt>
      <trkpt lat="44.17657" lon="5.28155">
        <ele>1838.2</ele>
        <time>2026-05-14T11:40:32.999Z</time>
      </trkpt>
      <trkpt lat="44.17657" lon="5.28155">
        <ele>1838.1</ele>
        <time>2026-05-14T11:40:33.999Z</time>
      </trkpt>
      <trkpt lat="44.17657" lon="5.28155">
        <ele>1837.9</ele>
        <time>2026-05-14T11:40:34.999Z</time>
      </trkpt>
      <trkpt lat="44.17657" lon="5.28155">
        <ele>1837.8</ele>
        <time>2026-05-14T11:40:35.999Z</time>
      </trkpt>
      <trkpt lat="44.17657" lon="5.28155">
        <ele>1837.5</ele>
        <time>2026-05-14T11:40:36.999Z</time>
      </trkpt>
      <trkpt lat="44.17657" lon="5.28155">
        <ele>1837.5</ele>
        <time>2026-05-14T11:40:37.999Z</time>
      </trkpt>
      <trkpt lat="44.17657" lon="5.28155">
        <ele>1837.4</ele>
        <time>2026-05-14T11:40:38.999Z</time>
      </trkpt>
      <trkpt lat="44.17657" lon="5.28155">
        <ele>1837.4</ele>
        <time>2026-05-14T11:40:39.999Z</time>
      </trkpt>
      <trkpt lat="44.17657" lon="5.28155">
        <ele>1837.5</ele>
        <time>2026-05-14T11:40:40.999Z</time>
      </trkpt>
      <trkpt lat="44.17657" lon="5.28155">
        <ele>1837.5</ele>
        <time>2026-05-14T11:40:41.999Z</time>
      </trkpt>
      <trkpt lat="44.17657" lon="5.28155">
        <ele>1837.5</ele>
        <time>2026-05-14T11:40:42.999Z</time>
      </trkpt>
      <trkpt lat="44.17657" lon="5.28155">
        <ele>1837.6</ele>
        <time>2026-05-14T11:40:43.999Z</time>
      </trkpt>
      <trkpt lat="44.17657" lon="5.28155">
        <ele>1837.7</ele>
        <time>2026-05-14T11:40:44.999Z</time>
      </trkpt>
      <trkpt lat="44.17657" lon="5.28155">
        <ele>1837.6</ele>
        <time>2026-05-14T11:40:45.999Z</time>
      </trkpt>
      <trkpt lat="44.17657" lon="5.28155">
        <ele>1837.5</ele>
        <time>2026-05-14T11:40:46.999Z</time>
      </trkpt>
      <trkpt lat="44.17657" lon="5.28155">
        <ele>1837.3</ele>
        <time>2026-05-14T11:40:47.999Z</time>
      </trkpt>
      <trkpt lat="44.17657" lon="5.28155">
        <ele>1837.2</ele>
        <time>2026-05-14T11:40:48.999Z</time>
      </trkpt>
      <trkpt lat="44.17657" lon="5.28155">
        <ele>1837.3</ele>
        <time>2026-05-14T11:40:49.999Z</time>
      </trkpt>
      <trkpt lat="44.17657" lon="5.28155">
        <ele>1837.5</ele>
        <time>2026-05-14T11:40:50.999Z</time>
      </trkpt>
      <trkpt lat="44.17657" lon="5.28155">
        <ele>1837.5</ele>
        <time>2026-05-14T11:40:51.999Z</time>
      </trkpt>
      <trkpt lat="44.17657" lon="5.28155">
        <ele>1837.5</ele>
        <time>2026-05-14T11:40:52.999Z</time>
      </trkpt>
      <trkpt lat="44.17657" lon="5.28155">
        <ele>1837.5</ele>
        <time>2026-05-14T11:40:53.999Z</time>
      </trkpt>
      <trkpt lat="44.17657" lon="5.28155">
        <ele>1837.4</ele>
        <time>2026-05-14T11:40:54.999Z</time>
      </trkpt>
      <trkpt lat="44.17657" lon="5.28155">
        <ele>1837.4</ele>
        <time>2026-05-14T11:40:55.999Z</time>
      </trkpt>
      <trkpt lat="44.17657" lon="5.28155">
        <ele>1837.6</ele>
        <time>2026-05-14T11:40:56.999Z</time>
      </trkpt>
      <trkpt lat="44.17657" lon="5.28155">
        <ele>1837.7</ele>
        <time>2026-05-14T11:40:57.999Z</time>
      </trkpt>
      <trkpt lat="44.17657" lon="5.28155">
        <ele>1837.8</ele>
        <time>2026-05-14T11:40:58.999Z</time>
      </trkpt>
      <trkpt lat="44.17657" lon="5.28155">
        <ele>1837.9</ele>
        <time>2026-05-14T11:40:59.999Z</time>
      </trkpt>
      <trkpt lat="44.17657" lon="5.28155">
        <ele>1837.9</ele>
        <time>2026-05-14T11:41:00.999Z</time>
      </trkpt>
      <trkpt lat="44.17657" lon="5.28155">
        <ele>1838.1</ele>
        <time>2026-05-14T11:41:01.999Z</time>
      </trkpt>
      <trkpt lat="44.17657" lon="5.28155">
        <ele>1838.3</ele>
        <time>2026-05-14T11:41:02.999Z</time>
      </trkpt>
      <trkpt lat="44.17657" lon="5.28155">
        <ele>1838.2</ele>
        <time>2026-05-14T11:41:03.999Z</time>
      </trkpt>
      <trkpt lat="44.17657" lon="5.28155">
        <ele>1838.5</ele>
        <time>2026-05-14T11:41:04.999Z</time>
      </trkpt>
      <trkpt lat="44.17657" lon="5.28155">
        <ele>1838.5</ele>
        <time>2026-05-14T11:41:05.999Z</time>
      </trkpt>
      <trkpt lat="44.17657" lon="5.28154">
        <ele>1838.6</ele>
        <time>2026-05-14T11:41:06.999Z</time>
      </trkpt>
      <trkpt lat="44.17657" lon="5.28154">
        <ele>1838.4</ele>
        <time>2026-05-14T11:41:07.999Z</time>
      </trkpt>
      <trkpt lat="44.17657" lon="5.28154">
        <ele>1838.2</ele>
        <time>2026-05-14T11:41:08.999Z</time>
      </trkpt>
      <trkpt lat="44.17657" lon="5.28154">
        <ele>1838.3</ele>
        <time>2026-05-14T11:41:09.999Z</time>
      </trkpt>
      <trkpt lat="44.17657" lon="5.28154">
        <ele>1838.6</ele>
        <time>2026-05-14T11:41:10.999Z</time>
      </trkpt>
      <trkpt lat="44.17657" lon="5.28154">
        <ele>1838.6</ele>
        <time>2026-05-14T11:41:11.999Z</time>
      </trkpt>
      <trkpt lat="44.17657" lon="5.28154">
        <ele>1838.5</ele>
        <time>2026-05-14T11:41:12.999Z</time>
      </trkpt>
      <trkpt lat="44.17657" lon="5.28154">
        <ele>1838</ele>
        <time>2026-05-14T11:41:13.999Z</time>
      </trkpt>
      <trkpt lat="44.17657" lon="5.28154">
        <ele>1837.7</ele>
        <time>2026-05-14T11:41:14.999Z</time>
      </trkpt>
      <trkpt lat="44.17657" lon="5.28154">
        <ele>1837.8</ele>
        <time>2026-05-14T11:41:15.999Z</time>
      </trkpt>
      <trkpt lat="44.17657" lon="5.28154">
        <ele>1837.9</ele>
        <time>2026-05-14T11:41:16.999Z</time>
      </trkpt>
      <trkpt lat="44.17657" lon="5.28154">
        <ele>1838</ele>
        <time>2026-05-14T11:41:17.999Z</time>
      </trkpt>
      <trkpt lat="44.17657" lon="5.28154">
        <ele>1838.4</ele>
        <time>2026-05-14T11:41:18.999Z</time>
      </trkpt>
      <trkpt lat="44.17657" lon="5.28154">
        <ele>1838.5</ele>
        <time>2026-05-14T11:41:19.999Z</time>
      </trkpt>
      <trkpt lat="44.17657" lon="5.28154">
        <ele>1838.5</ele>
        <time>2026-05-14T11:41:20.999Z</time>
      </trkpt>
      <trkpt lat="44.17657" lon="5.28154">
        <ele>1838.1</ele>
        <time>2026-05-14T11:41:21.999Z</time>
      </trkpt>
      <trkpt lat="44.17657" lon="5.28154">
        <ele>1837.7</ele>
        <time>2026-05-14T11:41:22.999Z</time>
      </trkpt>
      <trkpt lat="44.17658" lon="5.28154">
        <ele>1837.5</ele>
        <time>2026-05-14T11:41:23.999Z</time>
      </trkpt>
      <trkpt lat="44.17658" lon="5.28154">
        <ele>1837.1</ele>
        <time>2026-05-14T11:41:24.999Z</time>
      </trkpt>
      <trkpt lat="44.17658" lon="5.28154">
        <ele>1837.2</ele>
        <time>2026-05-14T11:41:25.999Z</time>
      </trkpt>
      <trkpt lat="44.17658" lon="5.28154">
        <ele>1836.9</ele>
        <time>2026-05-14T11:41:26.999Z</time>
      </trkpt>
      <trkpt lat="44.17658" lon="5.28154">
        <ele>1837</ele>
        <time>2026-05-14T11:41:27.999Z</time>
      </trkpt>
      <trkpt lat="44.17658" lon="5.28154">
        <ele>1837.1</ele>
        <time>2026-05-14T11:41:28.999Z</time>
      </trkpt>
      <trkpt lat="44.17658" lon="5.28154">
        <ele>1837.2</ele>
        <time>2026-05-14T11:41:29.999Z</time>
      </trkpt>
      <trkpt lat="44.17658" lon="5.28154">
        <ele>1837.2</ele>
        <time>2026-05-14T11:41:30.999Z</time>
      </trkpt>
      <trkpt lat="44.17658" lon="5.28154">
        <ele>1837.3</ele>
        <time>2026-05-14T11:41:31.999Z</time>
      </trkpt>
      <trkpt lat="44.17658" lon="5.28154">
        <ele>1837.5</ele>
        <time>2026-05-14T11:41:32.999Z</time>
      </trkpt>
      <trkpt lat="44.17658" lon="5.28154">
        <ele>1837.7</ele>
        <time>2026-05-14T11:41:33.999Z</time>
      </trkpt>
      <trkpt lat="44.17658" lon="5.28154">
        <ele>1838</ele>
        <time>2026-05-14T11:41:34.999Z</time>
      </trkpt>
      <trkpt lat="44.17658" lon="5.28154">
        <ele>1838</ele>
        <time>2026-05-14T11:41:35.999Z</time>
      </trkpt>
      <trkpt lat="44.17658" lon="5.28154">
        <ele>1838</ele>
        <time>2026-05-14T11:41:36.999Z</time>
      </trkpt>
      <trkpt lat="44.17658" lon="5.28154">
        <ele>1838</ele>
        <time>2026-05-14T11:41:37.999Z</time>
      </trkpt>
      <trkpt lat="44.17658" lon="5.28154">
        <ele>1837.7</ele>
        <time>2026-05-14T11:41:38.999Z</time>
      </trkpt>
      <trkpt lat="44.17658" lon="5.28154">
        <ele>1837.5</ele>
        <time>2026-05-14T11:41:39.999Z</time>
      </trkpt>
      <trkpt lat="44.17658" lon="5.28154">
        <ele>1837.5</ele>
        <time>2026-05-14T11:41:40.999Z</time>
      </trkpt>
      <trkpt lat="44.17658" lon="5.28154">
        <ele>1837.4</ele>
        <time>2026-05-14T11:41:41.999Z</time>
      </trkpt>
      <trkpt lat="44.17658" lon="5.28154">
        <ele>1837.4</ele>
        <time>2026-05-14T11:41:42.999Z</time>
      </trkpt>
      <trkpt lat="44.17658" lon="5.28154">
        <ele>1837.4</ele>
        <time>2026-05-14T11:41:43.999Z</time>
      </trkpt>
      <trkpt lat="44.17658" lon="5.28154">
        <ele>1837.5</ele>
        <time>2026-05-14T11:41:44.999Z</time>
      </trkpt>
      <trkpt lat="44.17658" lon="5.28154">
        <ele>1837.5</ele>
        <time>2026-05-14T11:41:45.999Z</time>
      </trkpt>
      <trkpt lat="44.17658" lon="5.28154">
        <ele>1837.2</ele>
        <time>2026-05-14T11:41:46.999Z</time>
      </trkpt>
      <trkpt lat="44.17658" lon="5.28154">
        <ele>1836.9</ele>
        <time>2026-05-14T11:41:47.999Z</time>
      </trkpt>
      <trkpt lat="44.17658" lon="5.28154">
        <ele>1836.6</ele>
        <time>2026-05-14T11:41:48.999Z</time>
      </trkpt>
      <trkpt lat="44.17658" lon="5.28154">
        <ele>1836.4</ele>
        <time>2026-05-14T11:41:49.999Z</time>
      </trkpt>
      <trkpt lat="44.17658" lon="5.28154">
        <ele>1836.3</ele>
        <time>2026-05-14T11:41:50.999Z</time>
      </trkpt>
      <trkpt lat="44.17658" lon="5.28154">
        <ele>1836.1</ele>
        <time>2026-05-14T11:41:51.999Z</time>
      </trkpt>
      <trkpt lat="44.17658" lon="5.28154">
        <ele>1836</ele>
        <time>2026-05-14T11:41:52.999Z</time>
      </trkpt>
      <trkpt lat="44.17658" lon="5.28154">
        <ele>1835.9</ele>
        <time>2026-05-14T11:41:53.999Z</time>
      </trkpt>
      <trkpt lat="44.17658" lon="5.28153">
        <ele>1835.9</ele>
        <time>2026-05-14T11:41:54.999Z</time>
      </trkpt>
      <trkpt lat="44.17658" lon="5.28153">
        <ele>1835.9</ele>
        <time>2026-05-14T11:41:55.999Z</time>
      </trkpt>
      <trkpt lat="44.17658" lon="5.28153">
        <ele>1835.8</ele>
        <time>2026-05-14T11:41:56.999Z</time>
      </trkpt>
      <trkpt lat="44.17658" lon="5.28153">
        <ele>1835.8</ele>
        <time>2026-05-14T11:41:57.999Z</time>
      </trkpt>
      <trkpt lat="44.17658" lon="5.28153">
        <ele>1835.7</ele>
        <time>2026-05-14T11:41:58.999Z</time>
      </trkpt>
      <trkpt lat="44.17658" lon="5.28153">
        <ele>1835.5</ele>
        <time>2026-05-14T11:41:59.999Z</time>
      </trkpt>
      <trkpt lat="44.17658" lon="5.28153">
        <ele>1835.4</ele>
        <time>2026-05-14T11:42:00.999Z</time>
      </trkpt>
      <trkpt lat="44.17658" lon="5.28153">
        <ele>1835.3</ele>
        <time>2026-05-14T11:42:01.999Z</time>
      </trkpt>
      <trkpt lat="44.17658" lon="5.28153">
        <ele>1835.5</ele>
        <time>2026-05-14T11:42:02.999Z</time>
      </trkpt>
      <trkpt lat="44.17658" lon="5.28153">
        <ele>1835.8</ele>
        <time>2026-05-14T11:42:03.999Z</time>
      </trkpt>
      <trkpt lat="44.17658" lon="5.28153">
        <ele>1835.9</ele>
        <time>2026-05-14T11:42:04.999Z</time>
      </trkpt>
      <trkpt lat="44.17658" lon="5.28152">
        <ele>1836</ele>
        <time>2026-05-14T11:42:05.999Z</time>
      </trkpt>
      <trkpt lat="44.17658" lon="5.28152">
        <ele>1836.2</ele>
        <time>2026-05-14T11:42:06.999Z</time>
      </trkpt>
      <trkpt lat="44.17658" lon="5.28152">
        <ele>1836.4</ele>
        <time>2026-05-14T11:42:07.999Z</time>
      </trkpt>
      <trkpt lat="44.17659" lon="5.28151">
        <ele>1836.4</ele>
        <time>2026-05-14T11:42:08.999Z</time>
      </trkpt>
      <trkpt lat="44.17659" lon="5.28151">
        <ele>1836.8</ele>
        <time>2026-05-14T11:42:09.999Z</time>
      </trkpt>
      <trkpt lat="44.1766" lon="5.28149">
        <ele>1837.1</ele>
        <time>2026-05-14T11:42:10.999Z</time>
      </trkpt>
      <trkpt lat="44.1766" lon="5.28149">
        <ele>1837.2</ele>
        <time>2026-05-14T11:42:11.999Z</time>
      </trkpt>
      <trkpt lat="44.17661" lon="5.28148">
        <ele>1837.4</ele>
        <time>2026-05-14T11:42:12.999Z</time>
      </trkpt>
      <trkpt lat="44.17661" lon="5.28146">
        <ele>1837.5</ele>
        <time>2026-05-14T11:42:13.999Z</time>
      </trkpt>
      <trkpt lat="44.17662" lon="5.28144">
        <ele>1837.5</ele>
        <time>2026-05-14T11:42:14.999Z</time>
      </trkpt>
      <trkpt lat="44.17662" lon="5.28142">
        <ele>1837.4</ele>
        <time>2026-05-14T11:42:15.999Z</time>
      </trkpt>
      <trkpt lat="44.17663" lon="5.28141">
        <ele>1837.5</ele>
        <time>2026-05-14T11:42:16.999Z</time>
      </trkpt>
      <trkpt lat="44.17663" lon="5.2814">
        <ele>1837.5</ele>
        <time>2026-05-14T11:42:17.999Z</time>
      </trkpt>
      <trkpt lat="44.17664" lon="5.28139">
        <ele>1837.3</ele>
        <time>2026-05-14T11:42:18.999Z</time>
      </trkpt>
      <trkpt lat="44.17664" lon="5.28137">
        <ele>1837.3</ele>
        <time>2026-05-14T11:42:19.999Z</time>
      </trkpt>
      <trkpt lat="44.17665" lon="5.28135">
        <ele>1837.6</ele>
        <time>2026-05-14T11:42:20.999Z</time>
      </trkpt>
      <trkpt lat="44.17666" lon="5.28133">
        <ele>1837.6</ele>
        <time>2026-05-14T11:42:21.999Z</time>
      </trkpt>
      <trkpt lat="44.17667" lon="5.28131">
        <ele>1837.2</ele>
        <time>2026-05-14T11:42:22.999Z</time>
      </trkpt>
      <trkpt lat="44.17667" lon="5.2813">
        <ele>1836.9</ele>
        <time>2026-05-14T11:42:23.999Z</time>
      </trkpt>
      <trkpt lat="44.17668" lon="5.28129">
        <ele>1836.5</ele>
        <time>2026-05-14T11:42:24.999Z</time>
      </trkpt>
      <trkpt lat="44.17669" lon="5.28127">
        <ele>1836.5</ele>
        <time>2026-05-14T11:42:25.999Z</time>
      </trkpt>
      <trkpt lat="44.17669" lon="5.28126">
        <ele>1836.3</ele>
        <time>2026-05-14T11:42:26.999Z</time>
      </trkpt>
      <trkpt lat="44.1767" lon="5.28124">
        <ele>1836.1</ele>
        <time>2026-05-14T11:42:27.999Z</time>
      </trkpt>
      <trkpt lat="44.17671" lon="5.28123">
        <ele>1835.8</ele>
        <time>2026-05-14T11:42:28.999Z</time>
      </trkpt>
      <trkpt lat="44.17671" lon="5.28122">
        <ele>1835.7</ele>
        <time>2026-05-14T11:42:29.999Z</time>
      </trkpt>
      <trkpt lat="44.17671" lon="5.28121">
        <ele>1835.7</ele>
        <time>2026-05-14T11:42:30.999Z</time>
      </trkpt>
      <trkpt lat="44.17671" lon="5.2812">
        <ele>1835.5</ele>
        <time>2026-05-14T11:42:31.999Z</time>
      </trkpt>
      <trkpt lat="44.17671" lon="5.28119">
        <ele>1835.5</ele>
        <time>2026-05-14T11:42:32.999Z</time>
      </trkpt>
      <trkpt lat="44.17671" lon="5.28118">
        <ele>1835.7</ele>
        <time>2026-05-14T11:42:33.999Z</time>
      </trkpt>
      <trkpt lat="44.17671" lon="5.28118">
        <ele>1835.8</ele>
        <time>2026-05-14T11:42:34.999Z</time>
      </trkpt>
      <trkpt lat="44.17671" lon="5.28118">
        <ele>1835.8</ele>
        <time>2026-05-14T11:42:35.999Z</time>
      </trkpt>
      <trkpt lat="44.17672" lon="5.28117">
        <ele>1836</ele>
        <time>2026-05-14T11:42:36.999Z</time>
      </trkpt>
      <trkpt lat="44.17672" lon="5.28117">
        <ele>1836.4</ele>
        <time>2026-05-14T11:42:37.999Z</time>
      </trkpt>
      <trkpt lat="44.17672" lon="5.28117">
        <ele>1836.6</ele>
        <time>2026-05-14T11:42:38.999Z</time>
      </trkpt>
      <trkpt lat="44.17672" lon="5.28117">
        <ele>1836.4</ele>
        <time>2026-05-14T11:42:39.999Z</time>
      </trkpt>
      <trkpt lat="44.17672" lon="5.28117">
        <ele>1836.2</ele>
        <time>2026-05-14T11:42:40.999Z</time>
      </trkpt>
      <trkpt lat="44.17673" lon="5.28116">
        <ele>1835.8</ele>
        <time>2026-05-14T11:42:41.999Z</time>
      </trkpt>
      <trkpt lat="44.17674" lon="5.28115">
        <ele>1835.5</ele>
        <time>2026-05-14T11:42:42.999Z</time>
      </trkpt>
      <trkpt lat="44.17675" lon="5.28114">
        <ele>1835.3</ele>
        <time>2026-05-14T11:42:43.999Z</time>
      </trkpt>
      <trkpt lat="44.17675" lon="5.28112">
        <ele>1835</ele>
        <time>2026-05-14T11:42:44.999Z</time>
      </trkpt>
      <trkpt lat="44.17676" lon="5.2811">
        <ele>1835.3</ele>
        <time>2026-05-14T11:42:45.999Z</time>
      </trkpt>
      <trkpt lat="44.17677" lon="5.28109">
        <ele>1835.1</ele>
        <time>2026-05-14T11:42:46.999Z</time>
      </trkpt>
      <trkpt lat="44.17677" lon="5.28108">
        <ele>1834.9</ele>
        <time>2026-05-14T11:42:47.999Z</time>
      </trkpt>
      <trkpt lat="44.17678" lon="5.28107">
        <ele>1834.4</ele>
        <time>2026-05-14T11:42:48.999Z</time>
      </trkpt>
      <trkpt lat="44.17679" lon="5.28105">
        <ele>1833.9</ele>
        <time>2026-05-14T11:42:49.999Z</time>
      </trkpt>
      <trkpt lat="44.17679" lon="5.28103">
        <ele>1833.4</ele>
        <time>2026-05-14T11:42:50.999Z</time>
      </trkpt>
      <trkpt lat="44.17679" lon="5.28102">
        <ele>1833.3</ele>
        <time>2026-05-14T11:42:51.999Z</time>
      </trkpt>
      <trkpt lat="44.17678" lon="5.281">
        <ele>1832.9</ele>
        <time>2026-05-14T11:42:52.999Z</time>
      </trkpt>
      <trkpt lat="44.17678" lon="5.28098">
        <ele>1832.6</ele>
        <time>2026-05-14T11:42:53.999Z</time>
      </trkpt>
      <trkpt lat="44.17678" lon="5.28098">
        <ele>1832.4</ele>
        <time>2026-05-14T11:42:54.999Z</time>
      </trkpt>
      <trkpt lat="44.17677" lon="5.28097">
        <ele>1831.9</ele>
        <time>2026-05-14T11:42:55.999Z</time>
      </trkpt>
      <trkpt lat="44.17677" lon="5.28096">
        <ele>1831.5</ele>
        <time>2026-05-14T11:42:56.999Z</time>
      </trkpt>
      <trkpt lat="44.17677" lon="5.28094">
        <ele>1831.5</ele>
        <time>2026-05-14T11:42:57.999Z</time>
      </trkpt>
      <trkpt lat="44.17678" lon="5.28093">
        <ele>1831.3</ele>
        <time>2026-05-14T11:42:58.999Z</time>
      </trkpt>
      <trkpt lat="44.17679" lon="5.28092">
        <ele>1831.7</ele>
        <time>2026-05-14T11:42:59.999Z</time>
      </trkpt>
      <trkpt lat="44.1768" lon="5.28091">
        <ele>1831.8</ele>
        <time>2026-05-14T11:43:00.999Z</time>
      </trkpt>
      <trkpt lat="44.17681" lon="5.2809">
        <ele>1832.2</ele>
        <time>2026-05-14T11:43:01.999Z</time>
      </trkpt>
      <trkpt lat="44.17682" lon="5.28089">
        <ele>1831.9</ele>
        <time>2026-05-14T11:43:02.999Z</time>
      </trkpt>
      <trkpt lat="44.17683" lon="5.28087">
        <ele>1831.7</ele>
        <time>2026-05-14T11:43:03.999Z</time>
      </trkpt>
      <trkpt lat="44.17683" lon="5.28086">
        <ele>1831.2</ele>
        <time>2026-05-14T11:43:04.999Z</time>
      </trkpt>
      <trkpt lat="44.17684" lon="5.28084">
        <ele>1830.9</ele>
        <time>2026-05-14T11:43:05.999Z</time>
      </trkpt>
      <trkpt lat="44.17684" lon="5.28083">
        <ele>1830.9</ele>
        <time>2026-05-14T11:43:06.999Z</time>
      </trkpt>
      <trkpt lat="44.17684" lon="5.28081">
        <ele>1831</ele>
        <time>2026-05-14T11:43:07.999Z</time>
      </trkpt>
      <trkpt lat="44.17684" lon="5.28081">
        <ele>1830.7</ele>
        <time>2026-05-14T11:43:08.999Z</time>
      </trkpt>
      <trkpt lat="44.17684" lon="5.2808">
        <ele>1830.5</ele>
        <time>2026-05-14T11:43:09.999Z</time>
      </trkpt>
      <trkpt lat="44.17684" lon="5.2808">
        <ele>1830.5</ele>
        <time>2026-05-14T11:43:10.999Z</time>
      </trkpt>
      <trkpt lat="44.17684" lon="5.2808">
        <ele>1830.3</ele>
        <time>2026-05-14T11:43:11.999Z</time>
      </trkpt>
      <trkpt lat="44.17685" lon="5.28079">
        <ele>1829.9</ele>
        <time>2026-05-14T11:43:12.999Z</time>
      </trkpt>
      <trkpt lat="44.17685" lon="5.28077">
        <ele>1829.2</ele>
        <time>2026-05-14T11:43:13.999Z</time>
      </trkpt>
      <trkpt lat="44.17686" lon="5.28076">
        <ele>1829</ele>
        <time>2026-05-14T11:43:14.999Z</time>
      </trkpt>
      <trkpt lat="44.17686" lon="5.28075">
        <ele>1828.7</ele>
        <time>2026-05-14T11:43:15.999Z</time>
      </trkpt>
      <trkpt lat="44.17686" lon="5.28073">
        <ele>1828.6</ele>
        <time>2026-05-14T11:43:16.999Z</time>
      </trkpt>
      <trkpt lat="44.17687" lon="5.28072">
        <ele>1828.5</ele>
        <time>2026-05-14T11:43:17.999Z</time>
      </trkpt>
      <trkpt lat="44.17687" lon="5.28071">
        <ele>1828.4</ele>
        <time>2026-05-14T11:43:18.999Z</time>
      </trkpt>
      <trkpt lat="44.17688" lon="5.28069">
        <ele>1828.2</ele>
        <time>2026-05-14T11:43:19.999Z</time>
      </trkpt>
      <trkpt lat="44.17688" lon="5.28068">
        <ele>1828</ele>
        <time>2026-05-14T11:43:20.999Z</time>
      </trkpt>
      <trkpt lat="44.17688" lon="5.28066">
        <ele>1827.9</ele>
        <time>2026-05-14T11:43:21.999Z</time>
      </trkpt>
      <trkpt lat="44.17688" lon="5.28065">
        <ele>1828.2</ele>
        <time>2026-05-14T11:43:22.999Z</time>
      </trkpt>
      <trkpt lat="44.17689" lon="5.28064">
        <ele>1828.1</ele>
        <time>2026-05-14T11:43:23.999Z</time>
      </trkpt>
      <trkpt lat="44.17689" lon="5.28063">
        <ele>1828.4</ele>
        <time>2026-05-14T11:43:24.999Z</time>
      </trkpt>
      <trkpt lat="44.1769" lon="5.28062">
        <ele>1828.3</ele>
        <time>2026-05-14T11:43:25.999Z</time>
      </trkpt>
      <trkpt lat="44.1769" lon="5.28061">
        <ele>1828</ele>
        <time>2026-05-14T11:43:26.999Z</time>
      </trkpt>
      <trkpt lat="44.1769" lon="5.2806">
        <ele>1827.6</ele>
        <time>2026-05-14T11:43:27.999Z</time>
      </trkpt>
      <trkpt lat="44.1769" lon="5.28058">
        <ele>1827.1</ele>
        <time>2026-05-14T11:43:28.999Z</time>
      </trkpt>
      <trkpt lat="44.1769" lon="5.28057">
        <ele>1827.5</ele>
        <time>2026-05-14T11:43:29.999Z</time>
      </trkpt>
      <trkpt lat="44.17691" lon="5.28056">
        <ele>1827.3</ele>
        <time>2026-05-14T11:43:30.999Z</time>
      </trkpt>
      <trkpt lat="44.17691" lon="5.28055">
        <ele>1827.6</ele>
        <time>2026-05-14T11:43:31.999Z</time>
      </trkpt>
      <trkpt lat="44.17692" lon="5.28054">
        <ele>1827.6</ele>
        <time>2026-05-14T11:43:32.999Z</time>
      </trkpt>
      <trkpt lat="44.17693" lon="5.28054">
        <ele>1828</ele>
        <time>2026-05-14T11:43:33.999Z</time>
      </trkpt>
      <trkpt lat="44.17693" lon="5.28053">
        <ele>1827.7</ele>
        <time>2026-05-14T11:43:34.999Z</time>
      </trkpt>
      <trkpt lat="44.17693" lon="5.28052">
        <ele>1827.5</ele>
        <time>2026-05-14T11:43:35.999Z</time>
      </trkpt>
      <trkpt lat="44.17694" lon="5.28051">
        <ele>1827.4</ele>
        <time>2026-05-14T11:43:36.999Z</time>
      </trkpt>
      <trkpt lat="44.17694" lon="5.2805">
        <ele>1827.5</ele>
        <time>2026-05-14T11:43:37.999Z</time>
      </trkpt>
      <trkpt lat="44.17694" lon="5.2805">
        <ele>1827.5</ele>
        <time>2026-05-14T11:43:38.999Z</time>
      </trkpt>
      <trkpt lat="44.17694" lon="5.28051">
        <ele>1827.7</ele>
        <time>2026-05-14T11:43:39.999Z</time>
      </trkpt>
      <trkpt lat="44.17694" lon="5.2805">
        <ele>1828</ele>
        <time>2026-05-14T11:43:40.999Z</time>
      </trkpt>
      <trkpt lat="44.17694" lon="5.2805">
        <ele>1827.9</ele>
        <time>2026-05-14T11:43:41.999Z</time>
      </trkpt>
      <trkpt lat="44.17694" lon="5.2805">
        <ele>1827.9</ele>
        <time>2026-05-14T11:43:42.999Z</time>
      </trkpt>
      <trkpt lat="44.17694" lon="5.2805">
        <ele>1827.7</ele>
        <time>2026-05-14T11:43:43.999Z</time>
      </trkpt>
      <trkpt lat="44.17694" lon="5.2805">
        <ele>1827.5</ele>
        <time>2026-05-14T11:43:44.999Z</time>
      </trkpt>
      <trkpt lat="44.17694" lon="5.2805">
        <ele>1827.4</ele>
        <time>2026-05-14T11:43:45.999Z</time>
      </trkpt>
      <trkpt lat="44.17694" lon="5.2805">
        <ele>1827.3</ele>
        <time>2026-05-14T11:43:46.999Z</time>
      </trkpt>
      <trkpt lat="44.17694" lon="5.2805">
        <ele>1827.3</ele>
        <time>2026-05-14T11:43:47.999Z</time>
      </trkpt>
      <trkpt lat="44.17694" lon="5.2805">
        <ele>1827.5</ele>
        <time>2026-05-14T11:43:48.999Z</time>
      </trkpt>
      <trkpt lat="44.17694" lon="5.2805">
        <ele>1827.8</ele>
        <time>2026-05-14T11:43:49.999Z</time>
      </trkpt>
      <trkpt lat="44.17694" lon="5.2805">
        <ele>1828</ele>
        <time>2026-05-14T11:43:50.999Z</time>
      </trkpt>
      <trkpt lat="44.17694" lon="5.2805">
        <ele>1828.1</ele>
        <time>2026-05-14T11:43:51.999Z</time>
      </trkpt>
      <trkpt lat="44.17694" lon="5.2805">
        <ele>1828.1</ele>
        <time>2026-05-14T11:43:52.999Z</time>
      </trkpt>
      <trkpt lat="44.17694" lon="5.2805">
        <ele>1828.4</ele>
        <time>2026-05-14T11:43:53.999Z</time>
      </trkpt>
      <trkpt lat="44.17694" lon="5.2805">
        <ele>1828.5</ele>
        <time>2026-05-14T11:43:54.999Z</time>
      </trkpt>
      <trkpt lat="44.17694" lon="5.2805">
        <ele>1828.5</ele>
        <time>2026-05-14T11:43:55.999Z</time>
      </trkpt>
      <trkpt lat="44.17694" lon="5.2805">
        <ele>1828.9</ele>
        <time>2026-05-14T11:43:56.999Z</time>
      </trkpt>
      <trkpt lat="44.17694" lon="5.2805">
        <ele>1828.9</ele>
        <time>2026-05-14T11:43:57.999Z</time>
      </trkpt>
      <trkpt lat="44.17694" lon="5.2805">
        <ele>1829</ele>
        <time>2026-05-14T11:43:58.999Z</time>
      </trkpt>
      <trkpt lat="44.17694" lon="5.2805">
        <ele>1829.1</ele>
        <time>2026-05-14T11:43:59.999Z</time>
      </trkpt>
      <trkpt lat="44.17694" lon="5.28052">
        <ele>1829.1</ele>
        <time>2026-05-14T11:44:00.999Z</time>
      </trkpt>
      <trkpt lat="44.17693" lon="5.28053">
        <ele>1829</ele>
        <time>2026-05-14T11:44:01.999Z</time>
      </trkpt>
      <trkpt lat="44.17693" lon="5.28054">
        <ele>1828.6</ele>
        <time>2026-05-14T11:44:02.999Z</time>
      </trkpt>
      <trkpt lat="44.17693" lon="5.28054">
        <ele>1828.3</ele>
        <time>2026-05-14T11:44:03.999Z</time>
      </trkpt>
      <trkpt lat="44.17693" lon="5.28055">
        <ele>1828.2</ele>
        <time>2026-05-14T11:44:04.999Z</time>
      </trkpt>
      <trkpt lat="44.17694" lon="5.28055">
        <ele>1828</ele>
        <time>2026-05-14T11:44:05.999Z</time>
      </trkpt>
      <trkpt lat="44.17694" lon="5.28056">
        <ele>1827.9</ele>
        <time>2026-05-14T11:44:06.999Z</time>
      </trkpt>
      <trkpt lat="44.17694" lon="5.28058">
        <ele>1827.5</ele>
        <time>2026-05-14T11:44:07.999Z</time>
      </trkpt>
      <trkpt lat="44.17694" lon="5.28059">
        <ele>1827</ele>
        <time>2026-05-14T11:44:08.999Z</time>
      </trkpt>
      <trkpt lat="44.17694" lon="5.28059">
        <ele>1826.7</ele>
        <time>2026-05-14T11:44:09.999Z</time>
      </trkpt>
      <trkpt lat="44.17694" lon="5.2806">
        <ele>1826.5</ele>
        <time>2026-05-14T11:44:10.999Z</time>
      </trkpt>
      <trkpt lat="44.17694" lon="5.28061">
        <ele>1826.2</ele>
        <time>2026-05-14T11:44:11.999Z</time>
      </trkpt>
      <trkpt lat="44.17694" lon="5.28063">
        <ele>1826.1</ele>
        <time>2026-05-14T11:44:12.999Z</time>
      </trkpt>
      <trkpt lat="44.17694" lon="5.28065">
        <ele>1826.1</ele>
        <time>2026-05-14T11:44:13.999Z</time>
      </trkpt>
      <trkpt lat="44.17694" lon="5.28066">
        <ele>1825.9</ele>
        <time>2026-05-14T11:44:14.999Z</time>
      </trkpt>
      <trkpt lat="44.17694" lon="5.28068">
        <ele>1825.8</ele>
        <time>2026-05-14T11:44:15.999Z</time>
      </trkpt>
      <trkpt lat="44.17694" lon="5.28069">
        <ele>1825.7</ele>
        <time>2026-05-14T11:44:16.999Z</time>
      </trkpt>
      <trkpt lat="44.17695" lon="5.28069">
        <ele>1825.8</ele>
        <time>2026-05-14T11:44:17.999Z</time>
      </trkpt>
      <trkpt lat="44.17695" lon="5.28071">
        <ele>1825.6</ele>
        <time>2026-05-14T11:44:18.999Z</time>
      </trkpt>
      <trkpt lat="44.17695" lon="5.28073">
        <ele>1824.9</ele>
        <time>2026-05-14T11:44:19.999Z</time>
      </trkpt>
      <trkpt lat="44.17695" lon="5.28075">
        <ele>1824.7</ele>
        <time>2026-05-14T11:44:20.999Z</time>
      </trkpt>
      <trkpt lat="44.17695" lon="5.28077">
        <ele>1824.1</ele>
        <time>2026-05-14T11:44:21.999Z</time>
      </trkpt>
      <trkpt lat="44.17695" lon="5.28079">
        <ele>1824.1</ele>
        <time>2026-05-14T11:44:22.999Z</time>
      </trkpt>
      <trkpt lat="44.17695" lon="5.2808">
        <ele>1823.9</ele>
        <time>2026-05-14T11:44:23.999Z</time>
      </trkpt>
      <trkpt lat="44.17695" lon="5.28082">
        <ele>1823.8</ele>
        <time>2026-05-14T11:44:24.999Z</time>
      </trkpt>
      <trkpt lat="44.17695" lon="5.28084">
        <ele>1823.9</ele>
        <time>2026-05-14T11:44:25.999Z</time>
      </trkpt>
      <trkpt lat="44.17695" lon="5.28086">
        <ele>1824.2</ele>
        <time>2026-05-14T11:44:26.999Z</time>
      </trkpt>
      <trkpt lat="44.17695" lon="5.28087">
        <ele>1824</ele>
        <time>2026-05-14T11:44:27.999Z</time>
      </trkpt>
      <trkpt lat="44.17695" lon="5.28088">
        <ele>1823.5</ele>
        <time>2026-05-14T11:44:28.999Z</time>
      </trkpt>
      <trkpt lat="44.17695" lon="5.28089">
        <ele>1823.7</ele>
        <time>2026-05-14T11:44:29.999Z</time>
      </trkpt>
      <trkpt lat="44.17695" lon="5.2809">
        <ele>1824.1</ele>
        <time>2026-05-14T11:44:30.999Z</time>
      </trkpt>
      <trkpt lat="44.17696" lon="5.28092">
        <ele>1824</ele>
        <time>2026-05-14T11:44:31.999Z</time>
      </trkpt>
      <trkpt lat="44.17695" lon="5.28094">
        <ele>1824</ele>
        <time>2026-05-14T11:44:32.999Z</time>
      </trkpt>
      <trkpt lat="44.17695" lon="5.28096">
        <ele>1824.1</ele>
        <time>2026-05-14T11:44:33.999Z</time>
      </trkpt>
      <trkpt lat="44.17695" lon="5.28098">
        <ele>1824.1</ele>
        <time>2026-05-14T11:44:34.999Z</time>
      </trkpt>
      <trkpt lat="44.17695" lon="5.281">
        <ele>1824.4</ele>
        <time>2026-05-14T11:44:35.999Z</time>
      </trkpt>
      <trkpt lat="44.17695" lon="5.28102">
        <ele>1824.6</ele>
        <time>2026-05-14T11:44:36.999Z</time>
      </trkpt>
      <trkpt lat="44.17695" lon="5.28103">
        <ele>1824.4</ele>
        <time>2026-05-14T11:44:37.999Z</time>
      </trkpt>
      <trkpt lat="44.17695" lon="5.28105">
        <ele>1824.5</ele>
        <time>2026-05-14T11:44:38.999Z</time>
      </trkpt>
      <trkpt lat="44.17695" lon="5.28106">
        <ele>1824.9</ele>
        <time>2026-05-14T11:44:39.999Z</time>
      </trkpt>
      <trkpt lat="44.17695" lon="5.28108">
        <ele>1825</ele>
        <time>2026-05-14T11:44:40.999Z</time>
      </trkpt>
      <trkpt lat="44.17696" lon="5.28109">
        <ele>1824.9</ele>
        <time>2026-05-14T11:44:41.999Z</time>
      </trkpt>
      <trkpt lat="44.17696" lon="5.28109">
        <ele>1824.7</ele>
        <time>2026-05-14T11:44:42.999Z</time>
      </trkpt>
      <trkpt lat="44.17696" lon="5.2811">
        <ele>1824.5</ele>
        <time>2026-05-14T11:44:43.999Z</time>
      </trkpt>
      <trkpt lat="44.17696" lon="5.28111">
        <ele>1824.3</ele>
        <time>2026-05-14T11:44:44.999Z</time>
      </trkpt>
      <trkpt lat="44.17696" lon="5.28112">
        <ele>1824.6</ele>
        <time>2026-05-14T11:44:45.999Z</time>
      </trkpt>
      <trkpt lat="44.17696" lon="5.28114">
        <ele>1824.6</ele>
        <time>2026-05-14T11:44:46.999Z</time>
      </trkpt>
      <trkpt lat="44.17696" lon="5.28115">
        <ele>1824.6</ele>
        <time>2026-05-14T11:44:47.999Z</time>
      </trkpt>
      <trkpt lat="44.17696" lon="5.28117">
        <ele>1824.4</ele>
        <time>2026-05-14T11:44:48.999Z</time>
      </trkpt>
      <trkpt lat="44.17697" lon="5.28118">
        <ele>1824.1</ele>
        <time>2026-05-14T11:44:49.999Z</time>
      </trkpt>
      <trkpt lat="44.17697" lon="5.28119">
        <ele>1823.9</ele>
        <time>2026-05-14T11:44:50.999Z</time>
      </trkpt>
      <trkpt lat="44.17697" lon="5.2812">
        <ele>1823.6</ele>
        <time>2026-05-14T11:44:51.999Z</time>
      </trkpt>
      <trkpt lat="44.17697" lon="5.28122">
        <ele>1823.5</ele>
        <time>2026-05-14T11:44:52.999Z</time>
      </trkpt>
      <trkpt lat="44.17697" lon="5.28125">
        <ele>1823.3</ele>
        <time>2026-05-14T11:44:53.999Z</time>
      </trkpt>
      <trkpt lat="44.17697" lon="5.28127">
        <ele>1823.7</ele>
        <time>2026-05-14T11:44:54.999Z</time>
      </trkpt>
      <trkpt lat="44.17697" lon="5.28129">
        <ele>1823.8</ele>
        <time>2026-05-14T11:44:55.999Z</time>
      </trkpt>
      <trkpt lat="44.17697" lon="5.28131">
        <ele>1823.7</ele>
        <time>2026-05-14T11:44:56.999Z</time>
      </trkpt>
      <trkpt lat="44.17697" lon="5.28132">
        <ele>1823.7</ele>
        <time>2026-05-14T11:44:57.999Z</time>
      </trkpt>
      <trkpt lat="44.17697" lon="5.28134">
        <ele>1823.4</ele>
        <time>2026-05-14T11:44:58.999Z</time>
      </trkpt>
      <trkpt lat="44.17697" lon="5.28135">
        <ele>1823.5</ele>
        <time>2026-05-14T11:44:59.999Z</time>
      </trkpt>
      <trkpt lat="44.17697" lon="5.28136">
        <ele>1823.4</ele>
        <time>2026-05-14T11:45:00.999Z</time>
      </trkpt>
      <trkpt lat="44.17698" lon="5.28138">
        <ele>1823.1</ele>
        <time>2026-05-14T11:45:01.999Z</time>
      </trkpt>
      <trkpt lat="44.17698" lon="5.2814">
        <ele>1822.9</ele>
        <time>2026-05-14T11:45:02.999Z</time>
      </trkpt>
      <trkpt lat="44.17698" lon="5.28142">
        <ele>1822.7</ele>
        <time>2026-05-14T11:45:03.999Z</time>
      </trkpt>
      <trkpt lat="44.17698" lon="5.28143">
        <ele>1822.5</ele>
        <time>2026-05-14T11:45:04.999Z</time>
      </trkpt>
      <trkpt lat="44.17698" lon="5.28145">
        <ele>1822.1</ele>
        <time>2026-05-14T11:45:05.999Z</time>
      </trkpt>
      <trkpt lat="44.17698" lon="5.28146">
        <ele>1821.5</ele>
        <time>2026-05-14T11:45:06.999Z</time>
      </trkpt>
      <trkpt lat="44.17697" lon="5.28146">
        <ele>1820.8</ele>
        <time>2026-05-14T11:45:07.999Z</time>
      </trkpt>
      <trkpt lat="44.17697" lon="5.28148">
        <ele>1820.4</ele>
        <time>2026-05-14T11:45:08.999Z</time>
      </trkpt>
      <trkpt lat="44.17697" lon="5.28149">
        <ele>1820.4</ele>
        <time>2026-05-14T11:45:09.999Z</time>
      </trkpt>
      <trkpt lat="44.17697" lon="5.28151">
        <ele>1820</ele>
        <time>2026-05-14T11:45:10.999Z</time>
      </trkpt>
      <trkpt lat="44.17697" lon="5.28153">
        <ele>1819.6</ele>
        <time>2026-05-14T11:45:11.999Z</time>
      </trkpt>
      <trkpt lat="44.17697" lon="5.28155">
        <ele>1819.2</ele>
        <time>2026-05-14T11:45:12.999Z</time>
      </trkpt>
      <trkpt lat="44.17696" lon="5.28156">
        <ele>1818.9</ele>
        <time>2026-05-14T11:45:13.999Z</time>
      </trkpt>
      <trkpt lat="44.17696" lon="5.28156">
        <ele>1818.5</ele>
        <time>2026-05-14T11:45:14.999Z</time>
      </trkpt>
      <trkpt lat="44.17696" lon="5.28157">
        <ele>1818</ele>
        <time>2026-05-14T11:45:15.999Z</time>
      </trkpt>
      <trkpt lat="44.17696" lon="5.28157">
        <ele>1817.4</ele>
        <time>2026-05-14T11:45:16.999Z</time>
      </trkpt>
      <trkpt lat="44.17696" lon="5.28157">
        <ele>1817.8</ele>
        <time>2026-05-14T11:45:17.999Z</time>
      </trkpt>
      <trkpt lat="44.17696" lon="5.28157">
        <ele>1817.6</ele>
        <time>2026-05-14T11:45:18.999Z</time>
      </trkpt>
      <trkpt lat="44.17696" lon="5.28157">
        <ele>1817.4</ele>
        <time>2026-05-14T11:45:19.999Z</time>
      </trkpt>
      <trkpt lat="44.17696" lon="5.28157">
        <ele>1817.3</ele>
        <time>2026-05-14T11:45:20.999Z</time>
      </trkpt>
      <trkpt lat="44.17696" lon="5.28157">
        <ele>1817.3</ele>
        <time>2026-05-14T11:45:21.999Z</time>
      </trkpt>
      <trkpt lat="44.17696" lon="5.28157">
        <ele>1817.3</ele>
        <time>2026-05-14T11:45:22.999Z</time>
      </trkpt>
      <trkpt lat="44.17696" lon="5.28157">
        <ele>1817.3</ele>
        <time>2026-05-14T11:45:23.999Z</time>
      </trkpt>
      <trkpt lat="44.17696" lon="5.28157">
        <ele>1817.4</ele>
        <time>2026-05-14T11:45:24.999Z</time>
      </trkpt>
      <trkpt lat="44.17696" lon="5.28157">
        <ele>1817.2</ele>
        <time>2026-05-14T11:45:25.999Z</time>
      </trkpt>
      <trkpt lat="44.17696" lon="5.28157">
        <ele>1817</ele>
        <time>2026-05-14T11:45:26.999Z</time>
      </trkpt>
      <trkpt lat="44.17696" lon="5.28157">
        <ele>1816.8</ele>
        <time>2026-05-14T11:45:27.999Z</time>
      </trkpt>
      <trkpt lat="44.17696" lon="5.28158">
        <ele>1816.6</ele>
        <time>2026-05-14T11:45:28.999Z</time>
      </trkpt>
      <trkpt lat="44.17696" lon="5.2816">
        <ele>1816.4</ele>
        <time>2026-05-14T11:45:29.999Z</time>
      </trkpt>
      <trkpt lat="44.17696" lon="5.28163">
        <ele>1816.7</ele>
        <time>2026-05-14T11:45:30.999Z</time>
      </trkpt>
      <trkpt lat="44.17696" lon="5.28164">
        <ele>1816.9</ele>
        <time>2026-05-14T11:45:31.999Z</time>
      </trkpt>
      <trkpt lat="44.17696" lon="5.28166">
        <ele>1816.8</ele>
        <time>2026-05-14T11:45:32.999Z</time>
      </trkpt>
      <trkpt lat="44.17696" lon="5.28168">
        <ele>1816.6</ele>
        <time>2026-05-14T11:45:33.999Z</time>
      </trkpt>
      <trkpt lat="44.17696" lon="5.28169">
        <ele>1816.5</ele>
        <time>2026-05-14T11:45:34.999Z</time>
      </trkpt>
      <trkpt lat="44.17696" lon="5.2817">
        <ele>1816.1</ele>
        <time>2026-05-14T11:45:35.999Z</time>
      </trkpt>
      <trkpt lat="44.17696" lon="5.28171">
        <ele>1816</ele>
        <time>2026-05-14T11:45:36.999Z</time>
      </trkpt>
      <trkpt lat="44.17696" lon="5.28172">
        <ele>1815.9</ele>
        <time>2026-05-14T11:45:37.999Z</time>
      </trkpt>
      <trkpt lat="44.17696" lon="5.28173">
        <ele>1815.9</ele>
        <time>2026-05-14T11:45:38.999Z</time>
      </trkpt>
      <trkpt lat="44.17696" lon="5.28174">
        <ele>1815.8</ele>
        <time>2026-05-14T11:45:39.999Z</time>
      </trkpt>
      <trkpt lat="44.17695" lon="5.28176">
        <ele>1815.6</ele>
        <time>2026-05-14T11:45:40.999Z</time>
      </trkpt>
      <trkpt lat="44.17695" lon="5.28178">
        <ele>1815.5</ele>
        <time>2026-05-14T11:45:41.999Z</time>
      </trkpt>
      <trkpt lat="44.17695" lon="5.2818">
        <ele>1815.4</ele>
        <time>2026-05-14T11:45:42.999Z</time>
      </trkpt>
      <trkpt lat="44.17696" lon="5.28182">
        <ele>1815.4</ele>
        <time>2026-05-14T11:45:43.999Z</time>
      </trkpt>
      <trkpt lat="44.17696" lon="5.28183">
        <ele>1815.6</ele>
        <time>2026-05-14T11:45:44.999Z</time>
      </trkpt>
      <trkpt lat="44.17696" lon="5.28184">
        <ele>1815.9</ele>
        <time>2026-05-14T11:45:45.999Z</time>
      </trkpt>
      <trkpt lat="44.17696" lon="5.28185">
        <ele>1816.3</ele>
        <time>2026-05-14T11:45:46.999Z</time>
      </trkpt>
      <trkpt lat="44.17695" lon="5.28186">
        <ele>1816.6</ele>
        <time>2026-05-14T11:45:47.999Z</time>
      </trkpt>
      <trkpt lat="44.17695" lon="5.28188">
        <ele>1816.7</ele>
        <time>2026-05-14T11:45:48.999Z</time>
      </trkpt>
      <trkpt lat="44.17695" lon="5.28189">
        <ele>1817.4</ele>
        <time>2026-05-14T11:45:49.999Z</time>
      </trkpt>
      <trkpt lat="44.17694" lon="5.2819">
        <ele>1818.4</ele>
        <time>2026-05-14T11:45:50.999Z</time>
      </trkpt>
      <trkpt lat="44.17694" lon="5.28191">
        <ele>1818.4</ele>
        <time>2026-05-14T11:45:51.999Z</time>
      </trkpt>
      <trkpt lat="44.17694" lon="5.28193">
        <ele>1818.8</ele>
        <time>2026-05-14T11:45:52.999Z</time>
      </trkpt>
      <trkpt lat="44.17693" lon="5.28194">
        <ele>1817.9</ele>
        <time>2026-05-14T11:45:53.999Z</time>
      </trkpt>
      <trkpt lat="44.17692" lon="5.28195">
        <ele>1817.1</ele>
        <time>2026-05-14T11:45:54.999Z</time>
      </trkpt>
      <trkpt lat="44.17692" lon="5.28196">
        <ele>1817</ele>
        <time>2026-05-14T11:45:55.999Z</time>
      </trkpt>
      <trkpt lat="44.17692" lon="5.28197">
        <ele>1816.8</ele>
        <time>2026-05-14T11:45:56.999Z</time>
      </trkpt>
      <trkpt lat="44.17692" lon="5.28199">
        <ele>1816.7</ele>
        <time>2026-05-14T11:45:57.999Z</time>
      </trkpt>
      <trkpt lat="44.17691" lon="5.282">
        <ele>1816.6</ele>
        <time>2026-05-14T11:45:58.999Z</time>
      </trkpt>
      <trkpt lat="44.17691" lon="5.28201">
        <ele>1816.1</ele>
        <time>2026-05-14T11:45:59.999Z</time>
      </trkpt>
      <trkpt lat="44.17692" lon="5.28201">
        <ele>1815.7</ele>
        <time>2026-05-14T11:46:00.999Z</time>
      </trkpt>
      <trkpt lat="44.17693" lon="5.28201">
        <ele>1815.2</ele>
        <time>2026-05-14T11:46:01.999Z</time>
      </trkpt>
      <trkpt lat="44.17694" lon="5.28201">
        <ele>1815.2</ele>
        <time>2026-05-14T11:46:02.999Z</time>
      </trkpt>
      <trkpt lat="44.17696" lon="5.282">
        <ele>1815.6</ele>
        <time>2026-05-14T11:46:03.999Z</time>
      </trkpt>
      <trkpt lat="44.17697" lon="5.28198">
        <ele>1815.6</ele>
        <time>2026-05-14T11:46:04.999Z</time>
      </trkpt>
      <trkpt lat="44.17699" lon="5.28197">
        <ele>1815.6</ele>
        <time>2026-05-14T11:46:05.999Z</time>
      </trkpt>
      <trkpt lat="44.177" lon="5.28195">
        <ele>1815</ele>
        <time>2026-05-14T11:46:06.999Z</time>
      </trkpt>
      <trkpt lat="44.17701" lon="5.28193">
        <ele>1814.5</ele>
        <time>2026-05-14T11:46:07.999Z</time>
      </trkpt>
      <trkpt lat="44.17701" lon="5.28192">
        <ele>1813.8</ele>
        <time>2026-05-14T11:46:08.999Z</time>
      </trkpt>
      <trkpt lat="44.17702" lon="5.28191">
        <ele>1813.3</ele>
        <time>2026-05-14T11:46:09.999Z</time>
      </trkpt>
      <trkpt lat="44.17703" lon="5.2819">
        <ele>1812.9</ele>
        <time>2026-05-14T11:46:10.999Z</time>
      </trkpt>
      <trkpt lat="44.17704" lon="5.28189">
        <ele>1812.6</ele>
        <time>2026-05-14T11:46:11.999Z</time>
      </trkpt>
      <trkpt lat="44.17705" lon="5.28188">
        <ele>1812.2</ele>
        <time>2026-05-14T11:46:12.999Z</time>
      </trkpt>
      <trkpt lat="44.17705" lon="5.28186">
        <ele>1812.2</ele>
        <time>2026-05-14T11:46:13.999Z</time>
      </trkpt>
      <trkpt lat="44.17706" lon="5.28184">
        <ele>1812.1</ele>
        <time>2026-05-14T11:46:14.999Z</time>
      </trkpt>
      <trkpt lat="44.17706" lon="5.28182">
        <ele>1812.2</ele>
        <time>2026-05-14T11:46:15.999Z</time>
      </trkpt>
      <trkpt lat="44.17706" lon="5.28181">
        <ele>1812.4</ele>
        <time>2026-05-14T11:46:16.999Z</time>
      </trkpt>
      <trkpt lat="44.17706" lon="5.2818">
        <ele>1812.3</ele>
        <time>2026-05-14T11:46:17.999Z</time>
      </trkpt>
      <trkpt lat="44.17706" lon="5.2818">
        <ele>1811.9</ele>
        <time>2026-05-14T11:46:18.999Z</time>
      </trkpt>
      <trkpt lat="44.17707" lon="5.28179">
        <ele>1811.9</ele>
        <time>2026-05-14T11:46:19.999Z</time>
      </trkpt>
      <trkpt lat="44.17707" lon="5.28178">
        <ele>1811.8</ele>
        <time>2026-05-14T11:46:20.999Z</time>
      </trkpt>
      <trkpt lat="44.17708" lon="5.28176">
        <ele>1811.6</ele>
        <time>2026-05-14T11:46:21.999Z</time>
      </trkpt>
      <trkpt lat="44.17708" lon="5.28174">
        <ele>1811.4</ele>
        <time>2026-05-14T11:46:22.999Z</time>
      </trkpt>
      <trkpt lat="44.17709" lon="5.28171">
        <ele>1811.2</ele>
        <time>2026-05-14T11:46:23.999Z</time>
      </trkpt>
      <trkpt lat="44.17709" lon="5.28169">
        <ele>1811.3</ele>
        <time>2026-05-14T11:46:24.999Z</time>
      </trkpt>
      <trkpt lat="44.1771" lon="5.28168">
        <ele>1811.4</ele>
        <time>2026-05-14T11:46:25.999Z</time>
      </trkpt>
      <trkpt lat="44.17711" lon="5.28166">
        <ele>1811.2</ele>
        <time>2026-05-14T11:46:26.999Z</time>
      </trkpt>
      <trkpt lat="44.17711" lon="5.28166">
        <ele>1811.2</ele>
        <time>2026-05-14T11:46:27.999Z</time>
      </trkpt>
      <trkpt lat="44.17711" lon="5.28165">
        <ele>1810.7</ele>
        <time>2026-05-14T11:46:28.999Z</time>
      </trkpt>
      <trkpt lat="44.17711" lon="5.28164">
        <ele>1810.2</ele>
        <time>2026-05-14T11:46:29.999Z</time>
      </trkpt>
      <trkpt lat="44.17711" lon="5.28163">
        <ele>1809.7</ele>
        <time>2026-05-14T11:46:30.999Z</time>
      </trkpt>
      <trkpt lat="44.17712" lon="5.28162">
        <ele>1809.4</ele>
        <time>2026-05-14T11:46:31.999Z</time>
      </trkpt>
      <trkpt lat="44.17712" lon="5.28161">
        <ele>1809.3</ele>
        <time>2026-05-14T11:46:32.999Z</time>
      </trkpt>
      <trkpt lat="44.17713" lon="5.2816">
        <ele>1809.2</ele>
        <time>2026-05-14T11:46:33.999Z</time>
      </trkpt>
      <trkpt lat="44.17713" lon="5.28158">
        <ele>1808.9</ele>
        <time>2026-05-14T11:46:34.999Z</time>
      </trkpt>
      <trkpt lat="44.17714" lon="5.28156">
        <ele>1808.9</ele>
        <time>2026-05-14T11:46:35.999Z</time>
      </trkpt>
      <trkpt lat="44.17714" lon="5.28155">
        <ele>1808.4</ele>
        <time>2026-05-14T11:46:36.999Z</time>
      </trkpt>
      <trkpt lat="44.17714" lon="5.28154">
        <ele>1807.9</ele>
        <time>2026-05-14T11:46:37.999Z</time>
      </trkpt>
      <trkpt lat="44.17715" lon="5.28153">
        <ele>1807.7</ele>
        <time>2026-05-14T11:46:38.999Z</time>
      </trkpt>
      <trkpt lat="44.17715" lon="5.28153">
        <ele>1807.5</ele>
        <time>2026-05-14T11:46:39.999Z</time>
      </trkpt>
      <trkpt lat="44.17715" lon="5.28151">
        <ele>1807.4</ele>
        <time>2026-05-14T11:46:40.999Z</time>
      </trkpt>
      <trkpt lat="44.17716" lon="5.2815">
        <ele>1807</ele>
        <time>2026-05-14T11:46:41.999Z</time>
      </trkpt>
      <trkpt lat="44.17715" lon="5.28149">
        <ele>1807</ele>
        <time>2026-05-14T11:46:42.999Z</time>
      </trkpt>
      <trkpt lat="44.17715" lon="5.28148">
        <ele>1806.9</ele>
        <time>2026-05-14T11:46:43.999Z</time>
      </trkpt>
      <trkpt lat="44.17715" lon="5.28148">
        <ele>1806.5</ele>
        <time>2026-05-14T11:46:44.999Z</time>
      </trkpt>
      <trkpt lat="44.17715" lon="5.28148">
        <ele>1806.5</ele>
        <time>2026-05-14T11:46:45.999Z</time>
      </trkpt>
      <trkpt lat="44.17715" lon="5.28148">
        <ele>1806.5</ele>
        <time>2026-05-14T11:46:46.999Z</time>
      </trkpt>
      <trkpt lat="44.17715" lon="5.28148">
        <ele>1806.1</ele>
        <time>2026-05-14T11:46:47.999Z</time>
      </trkpt>
      <trkpt lat="44.17716" lon="5.28148">
        <ele>1805.8</ele>
        <time>2026-05-14T11:46:48.999Z</time>
      </trkpt>
      <trkpt lat="44.17716" lon="5.28147">
        <ele>1805.8</ele>
        <time>2026-05-14T11:46:49.999Z</time>
      </trkpt>
      <trkpt lat="44.17717" lon="5.28146">
        <ele>1806</ele>
        <time>2026-05-14T11:46:50.999Z</time>
      </trkpt>
      <trkpt lat="44.17718" lon="5.28145">
        <ele>1805.7</ele>
        <time>2026-05-14T11:46:51.999Z</time>
      </trkpt>
      <trkpt lat="44.17718" lon="5.28143">
        <ele>1805.3</ele>
        <time>2026-05-14T11:46:52.999Z</time>
      </trkpt>
      <trkpt lat="44.17719" lon="5.28143">
        <ele>1805.1</ele>
        <time>2026-05-14T11:46:53.999Z</time>
      </trkpt>
      <trkpt lat="44.17719" lon="5.28143">
        <ele>1804.6</ele>
        <time>2026-05-14T11:46:54.999Z</time>
      </trkpt>
      <trkpt lat="44.17719" lon="5.28142">
        <ele>1804.3</ele>
        <time>2026-05-14T11:46:55.999Z</time>
      </trkpt>
      <trkpt lat="44.1772" lon="5.2814">
        <ele>1804</ele>
        <time>2026-05-14T11:46:56.999Z</time>
      </trkpt>
      <trkpt lat="44.1772" lon="5.28138">
        <ele>1804</ele>
        <time>2026-05-14T11:46:57.999Z</time>
      </trkpt>
      <trkpt lat="44.17721" lon="5.28137">
        <ele>1804</ele>
        <time>2026-05-14T11:46:58.999Z</time>
      </trkpt>
      <trkpt lat="44.17721" lon="5.28137">
        <ele>1803.9</ele>
        <time>2026-05-14T11:46:59.999Z</time>
      </trkpt>
      <trkpt lat="44.17722" lon="5.28136">
        <ele>1803.1</ele>
        <time>2026-05-14T11:47:00.999Z</time>
      </trkpt>
      <trkpt lat="44.17723" lon="5.28135">
        <ele>1803</ele>
        <time>2026-05-14T11:47:01.999Z</time>
      </trkpt>
      <trkpt lat="44.17723" lon="5.28133">
        <ele>1802.9</ele>
        <time>2026-05-14T11:47:02.999Z</time>
      </trkpt>
      <trkpt lat="44.17723" lon="5.28131">
        <ele>1802.7</ele>
        <time>2026-05-14T11:47:03.999Z</time>
      </trkpt>
      <trkpt lat="44.17724" lon="5.28129">
        <ele>1802.6</ele>
        <time>2026-05-14T11:47:04.999Z</time>
      </trkpt>
      <trkpt lat="44.17724" lon="5.28126">
        <ele>1802.6</ele>
        <time>2026-05-14T11:47:05.999Z</time>
      </trkpt>
      <trkpt lat="44.17724" lon="5.28125">
        <ele>1802.5</ele>
        <time>2026-05-14T11:47:06.999Z</time>
      </trkpt>
      <trkpt lat="44.17725" lon="5.28124">
        <ele>1802.4</ele>
        <time>2026-05-14T11:47:07.999Z</time>
      </trkpt>
      <trkpt lat="44.17726" lon="5.28123">
        <ele>1802</ele>
        <time>2026-05-14T11:47:08.999Z</time>
      </trkpt>
      <trkpt lat="44.17726" lon="5.28122">
        <ele>1801.5</ele>
        <time>2026-05-14T11:47:09.999Z</time>
      </trkpt>
      <trkpt lat="44.17727" lon="5.2812">
        <ele>1801.4</ele>
        <time>2026-05-14T11:47:10.999Z</time>
      </trkpt>
      <trkpt lat="44.17728" lon="5.2812">
        <ele>1801.1</ele>
        <time>2026-05-14T11:47:11.999Z</time>
      </trkpt>
      <trkpt lat="44.17729" lon="5.28118">
        <ele>1800.8</ele>
        <time>2026-05-14T11:47:12.999Z</time>
      </trkpt>
      <trkpt lat="44.1773" lon="5.28116">
        <ele>1800.7</ele>
        <time>2026-05-14T11:47:13.999Z</time>
      </trkpt>
      <trkpt lat="44.1773" lon="5.28114">
        <ele>1800.6</ele>
        <time>2026-05-14T11:47:14.999Z</time>
      </trkpt>
      <trkpt lat="44.1773" lon="5.28113">
        <ele>1800.4</ele>
        <time>2026-05-14T11:47:15.999Z</time>
      </trkpt>
      <trkpt lat="44.17731" lon="5.2811">
        <ele>1800.5</ele>
        <time>2026-05-14T11:47:16.999Z</time>
      </trkpt>
      <trkpt lat="44.17731" lon="5.28109">
        <ele>1800.2</ele>
        <time>2026-05-14T11:47:17.999Z</time>
      </trkpt>
      <trkpt lat="44.17732" lon="5.28107">
        <ele>1800.1</ele>
        <time>2026-05-14T11:47:18.999Z</time>
      </trkpt>
      <trkpt lat="44.17732" lon="5.28106">
        <ele>1800</ele>
        <time>2026-05-14T11:47:19.999Z</time>
      </trkpt>
      <trkpt lat="44.17732" lon="5.28104">
        <ele>1800</ele>
        <time>2026-05-14T11:47:20.999Z</time>
      </trkpt>
      <trkpt lat="44.17732" lon="5.28103">
        <ele>1799.8</ele>
        <time>2026-05-14T11:47:21.999Z</time>
      </trkpt>
      <trkpt lat="44.17733" lon="5.28102">
        <ele>1799.5</ele>
        <time>2026-05-14T11:47:22.999Z</time>
      </trkpt>
      <trkpt lat="44.17733" lon="5.28101">
        <ele>1799.1</ele>
        <time>2026-05-14T11:47:23.999Z</time>
      </trkpt>
      <trkpt lat="44.17734" lon="5.281">
        <ele>1799.2</ele>
        <time>2026-05-14T11:47:24.999Z</time>
      </trkpt>
      <trkpt lat="44.17734" lon="5.28099">
        <ele>1799.3</ele>
        <time>2026-05-14T11:47:25.999Z</time>
      </trkpt>
      <trkpt lat="44.17735" lon="5.28097">
        <ele>1799.6</ele>
        <time>2026-05-14T11:47:26.999Z</time>
      </trkpt>
      <trkpt lat="44.17736" lon="5.28095">
        <ele>1799.7</ele>
        <time>2026-05-14T11:47:27.999Z</time>
      </trkpt>
      <trkpt lat="44.17736" lon="5.28092">
        <ele>1800</ele>
        <time>2026-05-14T11:47:28.999Z</time>
      </trkpt>
      <trkpt lat="44.17737" lon="5.2809">
        <ele>1800.3</ele>
        <time>2026-05-14T11:47:29.999Z</time>
      </trkpt>
      <trkpt lat="44.17737" lon="5.28089">
        <ele>1800.7</ele>
        <time>2026-05-14T11:47:30.999Z</time>
      </trkpt>
      <trkpt lat="44.17738" lon="5.28087">
        <ele>1801.1</ele>
        <time>2026-05-14T11:47:31.999Z</time>
      </trkpt>
      <trkpt lat="44.17738" lon="5.28087">
        <ele>1800.7</ele>
        <time>2026-05-14T11:47:32.999Z</time>
      </trkpt>
      <trkpt lat="44.17738" lon="5.28086">
        <ele>1800.4</ele>
        <time>2026-05-14T11:47:33.999Z</time>
      </trkpt>
      <trkpt lat="44.17739" lon="5.28085">
        <ele>1799.8</ele>
        <time>2026-05-14T11:47:34.999Z</time>
      </trkpt>
      <trkpt lat="44.17739" lon="5.28084">
        <ele>1799.3</ele>
        <time>2026-05-14T11:47:35.999Z</time>
      </trkpt>
      <trkpt lat="44.1774" lon="5.28082">
        <ele>1799</ele>
        <time>2026-05-14T11:47:36.999Z</time>
      </trkpt>
      <trkpt lat="44.17741" lon="5.2808">
        <ele>1799.2</ele>
        <time>2026-05-14T11:47:37.999Z</time>
      </trkpt>
      <trkpt lat="44.17742" lon="5.28078">
        <ele>1799.2</ele>
        <time>2026-05-14T11:47:38.999Z</time>
      </trkpt>
      <trkpt lat="44.17742" lon="5.28076">
        <ele>1799</ele>
        <time>2026-05-14T11:47:39.999Z</time>
      </trkpt>
      <trkpt lat="44.17742" lon="5.28075">
        <ele>1798.9</ele>
        <time>2026-05-14T11:47:40.999Z</time>
      </trkpt>
      <trkpt lat="44.17742" lon="5.28074">
        <ele>1798.6</ele>
        <time>2026-05-14T11:47:41.999Z</time>
      </trkpt>
      <trkpt lat="44.17742" lon="5.28073">
        <ele>1798.3</ele>
        <time>2026-05-14T11:47:42.999Z</time>
      </trkpt>
      <trkpt lat="44.17742" lon="5.28073">
        <ele>1798</ele>
        <time>2026-05-14T11:47:43.999Z</time>
      </trkpt>
      <trkpt lat="44.17743" lon="5.28072">
        <ele>1797.9</ele>
        <time>2026-05-14T11:47:44.999Z</time>
      </trkpt>
      <trkpt lat="44.17743" lon="5.28071">
        <ele>1797.4</ele>
        <time>2026-05-14T11:47:45.999Z</time>
      </trkpt>
      <trkpt lat="44.17744" lon="5.28069">
        <ele>1796.9</ele>
        <time>2026-05-14T11:47:46.999Z</time>
      </trkpt>
      <trkpt lat="44.17745" lon="5.28068">
        <ele>1796.5</ele>
        <time>2026-05-14T11:47:47.999Z</time>
      </trkpt>
      <trkpt lat="44.17745" lon="5.28066">
        <ele>1796.6</ele>
        <time>2026-05-14T11:47:48.999Z</time>
      </trkpt>
      <trkpt lat="44.17746" lon="5.28065">
        <ele>1796.4</ele>
        <time>2026-05-14T11:47:49.999Z</time>
      </trkpt>
      <trkpt lat="44.17746" lon="5.28064">
        <ele>1796.3</ele>
        <time>2026-05-14T11:47:50.999Z</time>
      </trkpt>
      <trkpt lat="44.17746" lon="5.28063">
        <ele>1796.2</ele>
        <time>2026-05-14T11:47:51.999Z</time>
      </trkpt>
      <trkpt lat="44.17746" lon="5.28062">
        <ele>1796</ele>
        <time>2026-05-14T11:47:52.999Z</time>
      </trkpt>
      <trkpt lat="44.17745" lon="5.28061">
        <ele>1795.8</ele>
        <time>2026-05-14T11:47:53.999Z</time>
      </trkpt>
      <trkpt lat="44.17745" lon="5.28059">
        <ele>1795.7</ele>
        <time>2026-05-14T11:47:54.999Z</time>
      </trkpt>
      <trkpt lat="44.17745" lon="5.2806">
        <ele>1795.6</ele>
        <time>2026-05-14T11:47:55.999Z</time>
      </trkpt>
      <trkpt lat="44.17744" lon="5.28058">
        <ele>1795.6</ele>
        <time>2026-05-14T11:47:56.999Z</time>
      </trkpt>
      <trkpt lat="44.17744" lon="5.28057">
        <ele>1795.5</ele>
        <time>2026-05-14T11:47:57.999Z</time>
      </trkpt>
      <trkpt lat="44.17744" lon="5.28055">
        <ele>1795.6</ele>
        <time>2026-05-14T11:47:58.999Z</time>
      </trkpt>
      <trkpt lat="44.17744" lon="5.28054">
        <ele>1795.6</ele>
        <time>2026-05-14T11:47:59.999Z</time>
      </trkpt>
      <trkpt lat="44.17745" lon="5.28054">
        <ele>1795.7</ele>
        <time>2026-05-14T11:48:00.999Z</time>
      </trkpt>
      <trkpt lat="44.17746" lon="5.28053">
        <ele>1795.9</ele>
        <time>2026-05-14T11:48:01.999Z</time>
      </trkpt>
      <trkpt lat="44.17747" lon="5.28052">
        <ele>1796.1</ele>
        <time>2026-05-14T11:48:02.999Z</time>
      </trkpt>
      <trkpt lat="44.17748" lon="5.28052">
        <ele>1796.3</ele>
        <time>2026-05-14T11:48:03.999Z</time>
      </trkpt>
      <trkpt lat="44.1775" lon="5.2805">
        <ele>1796.7</ele>
        <time>2026-05-14T11:48:04.999Z</time>
      </trkpt>
      <trkpt lat="44.17751" lon="5.28049">
        <ele>1796.8</ele>
        <time>2026-05-14T11:48:05.999Z</time>
      </trkpt>
      <trkpt lat="44.17752" lon="5.28047">
        <ele>1796.7</ele>
        <time>2026-05-14T11:48:06.999Z</time>
      </trkpt>
      <trkpt lat="44.17752" lon="5.28046">
        <ele>1796.7</ele>
        <time>2026-05-14T11:48:07.999Z</time>
      </trkpt>
      <trkpt lat="44.17753" lon="5.28046">
        <ele>1796.5</ele>
        <time>2026-05-14T11:48:08.999Z</time>
      </trkpt>
      <trkpt lat="44.17753" lon="5.28046">
        <ele>1796.1</ele>
        <time>2026-05-14T11:48:09.999Z</time>
      </trkpt>
      <trkpt lat="44.17754" lon="5.28046">
        <ele>1795.6</ele>
        <time>2026-05-14T11:48:10.999Z</time>
      </trkpt>
      <trkpt lat="44.17754" lon="5.28045">
        <ele>1795.6</ele>
        <time>2026-05-14T11:48:11.999Z</time>
      </trkpt>
      <trkpt lat="44.17756" lon="5.28043">
        <ele>1795.4</ele>
        <time>2026-05-14T11:48:12.999Z</time>
      </trkpt>
      <trkpt lat="44.17757" lon="5.28041">
        <ele>1795.5</ele>
        <time>2026-05-14T11:48:13.999Z</time>
      </trkpt>
      <trkpt lat="44.17758" lon="5.2804">
        <ele>1795.6</ele>
        <time>2026-05-14T11:48:14.999Z</time>
      </trkpt>
      <trkpt lat="44.17759" lon="5.28039">
        <ele>1795.4</ele>
        <time>2026-05-14T11:48:15.999Z</time>
      </trkpt>
      <trkpt lat="44.17759" lon="5.28038">
        <ele>1795.1</ele>
        <time>2026-05-14T11:48:16.999Z</time>
      </trkpt>
      <trkpt lat="44.17758" lon="5.28037">
        <ele>1794.6</ele>
        <time>2026-05-14T11:48:17.999Z</time>
      </trkpt>
      <trkpt lat="44.17759" lon="5.28036">
        <ele>1794.5</ele>
        <time>2026-05-14T11:48:18.999Z</time>
      </trkpt>
      <trkpt lat="44.1776" lon="5.28034">
        <ele>1794.3</ele>
        <time>2026-05-14T11:48:19.999Z</time>
      </trkpt>
      <trkpt lat="44.17761" lon="5.28034">
        <ele>1794</ele>
        <time>2026-05-14T11:48:20.999Z</time>
      </trkpt>
      <trkpt lat="44.17761" lon="5.28032">
        <ele>1793.7</ele>
        <time>2026-05-14T11:48:21.999Z</time>
      </trkpt>
      <trkpt lat="44.17761" lon="5.2803">
        <ele>1793.3</ele>
        <time>2026-05-14T11:48:22.999Z</time>
      </trkpt>
      <trkpt lat="44.17761" lon="5.28027">
        <ele>1793</ele>
        <time>2026-05-14T11:48:23.999Z</time>
      </trkpt>
      <trkpt lat="44.17761" lon="5.28026">
        <ele>1792.4</ele>
        <time>2026-05-14T11:48:24.999Z</time>
      </trkpt>
      <trkpt lat="44.17761" lon="5.28024">
        <ele>1792.2</ele>
        <time>2026-05-14T11:48:25.999Z</time>
      </trkpt>
      <trkpt lat="44.17761" lon="5.28023">
        <ele>1792.2</ele>
        <time>2026-05-14T11:48:26.999Z</time>
      </trkpt>
      <trkpt lat="44.17761" lon="5.28022">
        <ele>1791.5</ele>
        <time>2026-05-14T11:48:27.999Z</time>
      </trkpt>
      <trkpt lat="44.17761" lon="5.28021">
        <ele>1791</ele>
        <time>2026-05-14T11:48:28.999Z</time>
      </trkpt>
      <trkpt lat="44.17762" lon="5.28019">
        <ele>1790.5</ele>
        <time>2026-05-14T11:48:29.999Z</time>
      </trkpt>
      <trkpt lat="44.17761" lon="5.28018">
        <ele>1790.5</ele>
        <time>2026-05-14T11:48:30.999Z</time>
      </trkpt>
      <trkpt lat="44.1776" lon="5.28018">
        <ele>1789.9</ele>
        <time>2026-05-14T11:48:31.999Z</time>
      </trkpt>
      <trkpt lat="44.1776" lon="5.28018">
        <ele>1789.7</ele>
        <time>2026-05-14T11:48:32.999Z</time>
      </trkpt>
      <trkpt lat="44.17759" lon="5.28018">
        <ele>1789.6</ele>
        <time>2026-05-14T11:48:33.999Z</time>
      </trkpt>
      <trkpt lat="44.1776" lon="5.28016">
        <ele>1789.7</ele>
        <time>2026-05-14T11:48:34.999Z</time>
      </trkpt>
      <trkpt lat="44.1776" lon="5.28014">
        <ele>1789.4</ele>
        <time>2026-05-14T11:48:35.999Z</time>
      </trkpt>
      <trkpt lat="44.17761" lon="5.28012">
        <ele>1789.4</ele>
        <time>2026-05-14T11:48:36.999Z</time>
      </trkpt>
      <trkpt lat="44.17761" lon="5.28011">
        <ele>1789.1</ele>
        <time>2026-05-14T11:48:37.999Z</time>
      </trkpt>
      <trkpt lat="44.1776" lon="5.28009">
        <ele>1788.6</ele>
        <time>2026-05-14T11:48:38.999Z</time>
      </trkpt>
      <trkpt lat="44.1776" lon="5.28007">
        <ele>1788.2</ele>
        <time>2026-05-14T11:48:39.999Z</time>
      </trkpt>
      <trkpt lat="44.1776" lon="5.28006">
        <ele>1787.9</ele>
        <time>2026-05-14T11:48:40.999Z</time>
      </trkpt>
      <trkpt lat="44.1776" lon="5.28005">
        <ele>1787.6</ele>
        <time>2026-05-14T11:48:41.999Z</time>
      </trkpt>
      <trkpt lat="44.17759" lon="5.28004">
        <ele>1787.7</ele>
        <time>2026-05-14T11:48:42.999Z</time>
      </trkpt>
      <trkpt lat="44.1776" lon="5.28002">
        <ele>1787.3</ele>
        <time>2026-05-14T11:48:43.999Z</time>
      </trkpt>
      <trkpt lat="44.1776" lon="5.28">
        <ele>1787</ele>
        <time>2026-05-14T11:48:44.999Z</time>
      </trkpt>
      <trkpt lat="44.1776" lon="5.27997">
        <ele>1786.4</ele>
        <time>2026-05-14T11:48:45.999Z</time>
      </trkpt>
      <trkpt lat="44.17761" lon="5.27994">
        <ele>1786</ele>
        <time>2026-05-14T11:48:46.999Z</time>
      </trkpt>
      <trkpt lat="44.17761" lon="5.27991">
        <ele>1786.2</ele>
        <time>2026-05-14T11:48:47.999Z</time>
      </trkpt>
      <trkpt lat="44.17761" lon="5.27989">
        <ele>1786.3</ele>
        <time>2026-05-14T11:48:48.999Z</time>
      </trkpt>
      <trkpt lat="44.17761" lon="5.27987">
        <ele>1786.5</ele>
        <time>2026-05-14T11:48:49.999Z</time>
      </trkpt>
      <trkpt lat="44.17761" lon="5.27986">
        <ele>1786.7</ele>
        <time>2026-05-14T11:48:50.999Z</time>
      </trkpt>
      <trkpt lat="44.17761" lon="5.27985">
        <ele>1786.9</ele>
        <time>2026-05-14T11:48:51.999Z</time>
      </trkpt>
      <trkpt lat="44.17762" lon="5.27984">
        <ele>1786.9</ele>
        <time>2026-05-14T11:48:52.999Z</time>
      </trkpt>
      <trkpt lat="44.17762" lon="5.27983">
        <ele>1787</ele>
        <time>2026-05-14T11:48:53.999Z</time>
      </trkpt>
      <trkpt lat="44.17763" lon="5.27981">
        <ele>1787.2</ele>
        <time>2026-05-14T11:48:54.999Z</time>
      </trkpt>
      <trkpt lat="44.17763" lon="5.2798">
        <ele>1787.1</ele>
        <time>2026-05-14T11:48:55.999Z</time>
      </trkpt>
      <trkpt lat="44.17764" lon="5.27979">
        <ele>1787</ele>
        <time>2026-05-14T11:48:56.999Z</time>
      </trkpt>
      <trkpt lat="44.17765" lon="5.27977">
        <ele>1787.1</ele>
        <time>2026-05-14T11:48:57.999Z</time>
      </trkpt>
      <trkpt lat="44.17765" lon="5.27975">
        <ele>1786.8</ele>
        <time>2026-05-14T11:48:58.999Z</time>
      </trkpt>
      <trkpt lat="44.17765" lon="5.27973">
        <ele>1786.7</ele>
        <time>2026-05-14T11:48:59.999Z</time>
      </trkpt>
      <trkpt lat="44.17765" lon="5.27971">
        <ele>1786.6</ele>
        <time>2026-05-14T11:49:00.999Z</time>
      </trkpt>
      <trkpt lat="44.17766" lon="5.27969">
        <ele>1786.7</ele>
        <time>2026-05-14T11:49:01.999Z</time>
      </trkpt>
      <trkpt lat="44.17766" lon="5.27966">
        <ele>1786.8</ele>
        <time>2026-05-14T11:49:02.999Z</time>
      </trkpt>
      <trkpt lat="44.17766" lon="5.27965">
        <ele>1786.6</ele>
        <time>2026-05-14T11:49:03.999Z</time>
      </trkpt>
      <trkpt lat="44.17767" lon="5.27964">
        <ele>1786.3</ele>
        <time>2026-05-14T11:49:04.999Z</time>
      </trkpt>
      <trkpt lat="44.17767" lon="5.27963">
        <ele>1786</ele>
        <time>2026-05-14T11:49:05.999Z</time>
      </trkpt>
      <trkpt lat="44.17767" lon="5.27962">
        <ele>1785.8</ele>
        <time>2026-05-14T11:49:06.999Z</time>
      </trkpt>
      <trkpt lat="44.17768" lon="5.2796">
        <ele>1785.2</ele>
        <time>2026-05-14T11:49:07.999Z</time>
      </trkpt>
      <trkpt lat="44.17768" lon="5.27958">
        <ele>1784.9</ele>
        <time>2026-05-14T11:49:08.999Z</time>
      </trkpt>
      <trkpt lat="44.17768" lon="5.27957">
        <ele>1784.8</ele>
        <time>2026-05-14T11:49:09.999Z</time>
      </trkpt>
      <trkpt lat="44.17768" lon="5.27955">
        <ele>1784.5</ele>
        <time>2026-05-14T11:49:10.999Z</time>
      </trkpt>
      <trkpt lat="44.17768" lon="5.27953">
        <ele>1784.3</ele>
        <time>2026-05-14T11:49:11.999Z</time>
      </trkpt>
      <trkpt lat="44.17768" lon="5.2795">
        <ele>1784.4</ele>
        <time>2026-05-14T11:49:12.999Z</time>
      </trkpt>
      <trkpt lat="44.17769" lon="5.27947">
        <ele>1784.9</ele>
        <time>2026-05-14T11:49:13.999Z</time>
      </trkpt>
      <trkpt lat="44.17769" lon="5.27945">
        <ele>1785.2</ele>
        <time>2026-05-14T11:49:14.999Z</time>
      </trkpt>
      <trkpt lat="44.17769" lon="5.27944">
        <ele>1785.2</ele>
        <time>2026-05-14T11:49:15.999Z</time>
      </trkpt>
      <trkpt lat="44.17769" lon="5.27943">
        <ele>1785.1</ele>
        <time>2026-05-14T11:49:16.999Z</time>
      </trkpt>
      <trkpt lat="44.17769" lon="5.27942">
        <ele>1784.7</ele>
        <time>2026-05-14T11:49:17.999Z</time>
      </trkpt>
      <trkpt lat="44.1777" lon="5.27941">
        <ele>1784.2</ele>
        <time>2026-05-14T11:49:18.999Z</time>
      </trkpt>
      <trkpt lat="44.1777" lon="5.2794">
        <ele>1784</ele>
        <time>2026-05-14T11:49:19.999Z</time>
      </trkpt>
      <trkpt lat="44.1777" lon="5.27938">
        <ele>1783.9</ele>
        <time>2026-05-14T11:49:20.999Z</time>
      </trkpt>
      <trkpt lat="44.1777" lon="5.27936">
        <ele>1783.7</ele>
        <time>2026-05-14T11:49:21.999Z</time>
      </trkpt>
      <trkpt lat="44.1777" lon="5.27934">
        <ele>1783.4</ele>
        <time>2026-05-14T11:49:22.999Z</time>
      </trkpt>
      <trkpt lat="44.1777" lon="5.27931">
        <ele>1783.5</ele>
        <time>2026-05-14T11:49:23.999Z</time>
      </trkpt>
      <trkpt lat="44.1777" lon="5.27928">
        <ele>1783.7</ele>
        <time>2026-05-14T11:49:24.999Z</time>
      </trkpt>
      <trkpt lat="44.1777" lon="5.27926">
        <ele>1784</ele>
        <time>2026-05-14T11:49:25.999Z</time>
      </trkpt>
      <trkpt lat="44.1777" lon="5.27924">
        <ele>1784.1</ele>
        <time>2026-05-14T11:49:26.999Z</time>
      </trkpt>
      <trkpt lat="44.17771" lon="5.27923">
        <ele>1784.1</ele>
        <time>2026-05-14T11:49:27.999Z</time>
      </trkpt>
      <trkpt lat="44.1777" lon="5.27921">
        <ele>1784.1</ele>
        <time>2026-05-14T11:49:28.999Z</time>
      </trkpt>
      <trkpt lat="44.1777" lon="5.27921">
        <ele>1783.9</ele>
        <time>2026-05-14T11:49:29.999Z</time>
      </trkpt>
      <trkpt lat="44.1777" lon="5.2792">
        <ele>1783.8</ele>
        <time>2026-05-14T11:49:30.999Z</time>
      </trkpt>
      <trkpt lat="44.1777" lon="5.27918">
        <ele>1783.4</ele>
        <time>2026-05-14T11:49:31.999Z</time>
      </trkpt>
      <trkpt lat="44.1777" lon="5.27917">
        <ele>1783</ele>
        <time>2026-05-14T11:49:32.999Z</time>
      </trkpt>
      <trkpt lat="44.1777" lon="5.27916">
        <ele>1782.7</ele>
        <time>2026-05-14T11:49:33.999Z</time>
      </trkpt>
      <trkpt lat="44.1777" lon="5.27914">
        <ele>1782.4</ele>
        <time>2026-05-14T11:49:34.999Z</time>
      </trkpt>
      <trkpt lat="44.1777" lon="5.27912">
        <ele>1782.4</ele>
        <time>2026-05-14T11:49:35.999Z</time>
      </trkpt>
      <trkpt lat="44.17771" lon="5.2791">
        <ele>1782.2</ele>
        <time>2026-05-14T11:49:36.999Z</time>
      </trkpt>
      <trkpt lat="44.17771" lon="5.27909">
        <ele>1782.2</ele>
        <time>2026-05-14T11:49:37.999Z</time>
      </trkpt>
      <trkpt lat="44.17771" lon="5.27907">
        <ele>1782</ele>
        <time>2026-05-14T11:49:38.999Z</time>
      </trkpt>
      <trkpt lat="44.17771" lon="5.27907">
        <ele>1781.8</ele>
        <time>2026-05-14T11:49:39.999Z</time>
      </trkpt>
      <trkpt lat="44.17771" lon="5.27906">
        <ele>1781.4</ele>
        <time>2026-05-14T11:49:40.999Z</time>
      </trkpt>
      <trkpt lat="44.17771" lon="5.27904">
        <ele>1781.1</ele>
        <time>2026-05-14T11:49:41.999Z</time>
      </trkpt>
      <trkpt lat="44.17772" lon="5.27902">
        <ele>1780.8</ele>
        <time>2026-05-14T11:49:42.999Z</time>
      </trkpt>
      <trkpt lat="44.17771" lon="5.279">
        <ele>1780.7</ele>
        <time>2026-05-14T11:49:43.999Z</time>
      </trkpt>
      <trkpt lat="44.17771" lon="5.27898">
        <ele>1780.5</ele>
        <time>2026-05-14T11:49:44.999Z</time>
      </trkpt>
      <trkpt lat="44.17771" lon="5.27896">
        <ele>1780.5</ele>
        <time>2026-05-14T11:49:45.999Z</time>
      </trkpt>
      <trkpt lat="44.17771" lon="5.27895">
        <ele>1780.3</ele>
        <time>2026-05-14T11:49:46.999Z</time>
      </trkpt>
      <trkpt lat="44.17772" lon="5.27894">
        <ele>1779.5</ele>
        <time>2026-05-14T11:49:47.999Z</time>
      </trkpt>
      <trkpt lat="44.17772" lon="5.27892">
        <ele>1779.1</ele>
        <time>2026-05-14T11:49:48.999Z</time>
      </trkpt>
      <trkpt lat="44.17771" lon="5.27891">
        <ele>1778.9</ele>
        <time>2026-05-14T11:49:49.999Z</time>
      </trkpt>
      <trkpt lat="44.17771" lon="5.2789">
        <ele>1778.4</ele>
        <time>2026-05-14T11:49:50.999Z</time>
      </trkpt>
      <trkpt lat="44.17771" lon="5.27889">
        <ele>1778.3</ele>
        <time>2026-05-14T11:49:51.999Z</time>
      </trkpt>
      <trkpt lat="44.17771" lon="5.27887">
        <ele>1778.5</ele>
        <time>2026-05-14T11:49:52.999Z</time>
      </trkpt>
      <trkpt lat="44.17771" lon="5.27884">
        <ele>1778.5</ele>
        <time>2026-05-14T11:49:53.999Z</time>
      </trkpt>
      <trkpt lat="44.17771" lon="5.27881">
        <ele>1778.6</ele>
        <time>2026-05-14T11:49:54.999Z</time>
      </trkpt>
      <trkpt lat="44.17771" lon="5.27879">
        <ele>1778.8</ele>
        <time>2026-05-14T11:49:55.999Z</time>
      </trkpt>
      <trkpt lat="44.17771" lon="5.27878">
        <ele>1778.6</ele>
        <time>2026-05-14T11:49:56.999Z</time>
      </trkpt>
      <trkpt lat="44.17771" lon="5.27876">
        <ele>1778.4</ele>
        <time>2026-05-14T11:49:57.999Z</time>
      </trkpt>
      <trkpt lat="44.17771" lon="5.27875">
        <ele>1778.3</ele>
        <time>2026-05-14T11:49:58.999Z</time>
      </trkpt>
      <trkpt lat="44.17771" lon="5.27873">
        <ele>1778</ele>
        <time>2026-05-14T11:49:59.999Z</time>
      </trkpt>
      <trkpt lat="44.17771" lon="5.27872">
        <ele>1777.9</ele>
        <time>2026-05-14T11:50:00.999Z</time>
      </trkpt>
      <trkpt lat="44.17772" lon="5.27871">
        <ele>1777.7</ele>
        <time>2026-05-14T11:50:01.999Z</time>
      </trkpt>
      <trkpt lat="44.17772" lon="5.27869">
        <ele>1777.7</ele>
        <time>2026-05-14T11:50:02.999Z</time>
      </trkpt>
      <trkpt lat="44.17773" lon="5.27866">
        <ele>1777.9</ele>
        <time>2026-05-14T11:50:03.999Z</time>
      </trkpt>
      <trkpt lat="44.17773" lon="5.27864">
        <ele>1778.2</ele>
        <time>2026-05-14T11:50:04.999Z</time>
      </trkpt>
      <trkpt lat="44.17773" lon="5.27863">
        <ele>1778.2</ele>
        <time>2026-05-14T11:50:05.999Z</time>
      </trkpt>
      <trkpt lat="44.17773" lon="5.27862">
        <ele>1778.1</ele>
        <time>2026-05-14T11:50:06.999Z</time>
      </trkpt>
      <trkpt lat="44.17773" lon="5.27862">
        <ele>1777.9</ele>
        <time>2026-05-14T11:50:07.999Z</time>
      </trkpt>
      <trkpt lat="44.17773" lon="5.27861">
        <ele>1777.7</ele>
        <time>2026-05-14T11:50:08.999Z</time>
      </trkpt>
      <trkpt lat="44.17773" lon="5.27859">
        <ele>1777.6</ele>
        <time>2026-05-14T11:50:09.999Z</time>
      </trkpt>
      <trkpt lat="44.17773" lon="5.27858">
        <ele>1777.9</ele>
        <time>2026-05-14T11:50:10.999Z</time>
      </trkpt>
      <trkpt lat="44.17773" lon="5.27856">
        <ele>1777.8</ele>
        <time>2026-05-14T11:50:11.999Z</time>
      </trkpt>
      <trkpt lat="44.17773" lon="5.27854">
        <ele>1777.7</ele>
        <time>2026-05-14T11:50:12.999Z</time>
      </trkpt>
      <trkpt lat="44.17773" lon="5.27852">
        <ele>1777.3</ele>
        <time>2026-05-14T11:50:13.999Z</time>
      </trkpt>
      <trkpt lat="44.17773" lon="5.27851">
        <ele>1777.3</ele>
        <time>2026-05-14T11:50:14.999Z</time>
      </trkpt>
      <trkpt lat="44.17773" lon="5.2785">
        <ele>1777.3</ele>
        <time>2026-05-14T11:50:15.999Z</time>
      </trkpt>
      <trkpt lat="44.17773" lon="5.27849">
        <ele>1777.2</ele>
        <time>2026-05-14T11:50:16.999Z</time>
      </trkpt>
      <trkpt lat="44.17772" lon="5.27847">
        <ele>1776.8</ele>
        <time>2026-05-14T11:50:17.999Z</time>
      </trkpt>
      <trkpt lat="44.17772" lon="5.27845">
        <ele>1776.6</ele>
        <time>2026-05-14T11:50:18.999Z</time>
      </trkpt>
      <trkpt lat="44.17773" lon="5.27843">
        <ele>1776.5</ele>
        <time>2026-05-14T11:50:19.999Z</time>
      </trkpt>
      <trkpt lat="44.17773" lon="5.27841">
        <ele>1776.4</ele>
        <time>2026-05-14T11:50:20.999Z</time>
      </trkpt>
      <trkpt lat="44.17773" lon="5.27839">
        <ele>1776.4</ele>
        <time>2026-05-14T11:50:21.999Z</time>
      </trkpt>
      <trkpt lat="44.17773" lon="5.27838">
        <ele>1776.3</ele>
        <time>2026-05-14T11:50:22.999Z</time>
      </trkpt>
      <trkpt lat="44.17773" lon="5.27837">
        <ele>1775.9</ele>
        <time>2026-05-14T11:50:23.999Z</time>
      </trkpt>
      <trkpt lat="44.17773" lon="5.27835">
        <ele>1775.7</ele>
        <time>2026-05-14T11:50:24.999Z</time>
      </trkpt>
      <trkpt lat="44.17773" lon="5.27834">
        <ele>1775.5</ele>
        <time>2026-05-14T11:50:25.999Z</time>
      </trkpt>
      <trkpt lat="44.17773" lon="5.27833">
        <ele>1775.2</ele>
        <time>2026-05-14T11:50:26.999Z</time>
      </trkpt>
      <trkpt lat="44.17774" lon="5.27831">
        <ele>1775.3</ele>
        <time>2026-05-14T11:50:27.999Z</time>
      </trkpt>
      <trkpt lat="44.17774" lon="5.27828">
        <ele>1775</ele>
        <time>2026-05-14T11:50:28.999Z</time>
      </trkpt>
      <trkpt lat="44.17775" lon="5.27826">
        <ele>1775</ele>
        <time>2026-05-14T11:50:29.999Z</time>
      </trkpt>
      <trkpt lat="44.17774" lon="5.27824">
        <ele>1775.1</ele>
        <time>2026-05-14T11:50:30.999Z</time>
      </trkpt>
      <trkpt lat="44.17775" lon="5.27823">
        <ele>1775</ele>
        <time>2026-05-14T11:50:31.999Z</time>
      </trkpt>
      <trkpt lat="44.17775" lon="5.27821">
        <ele>1774.9</ele>
        <time>2026-05-14T11:50:32.999Z</time>
      </trkpt>
      <trkpt lat="44.17775" lon="5.27821">
        <ele>1774.5</ele>
        <time>2026-05-14T11:50:33.999Z</time>
      </trkpt>
      <trkpt lat="44.17776" lon="5.2782">
        <ele>1774.4</ele>
        <time>2026-05-14T11:50:34.999Z</time>
      </trkpt>
      <trkpt lat="44.17776" lon="5.27819">
        <ele>1774.4</ele>
        <time>2026-05-14T11:50:35.999Z</time>
      </trkpt>
      <trkpt lat="44.17776" lon="5.27817">
        <ele>1774.5</ele>
        <time>2026-05-14T11:50:36.999Z</time>
      </trkpt>
      <trkpt lat="44.17776" lon="5.27815">
        <ele>1774.6</ele>
        <time>2026-05-14T11:50:37.999Z</time>
      </trkpt>
      <trkpt lat="44.17776" lon="5.27814">
        <ele>1774.5</ele>
        <time>2026-05-14T11:50:38.999Z</time>
      </trkpt>
      <trkpt lat="44.17777" lon="5.27812">
        <ele>1774.3</ele>
        <time>2026-05-14T11:50:39.999Z</time>
      </trkpt>
      <trkpt lat="44.17777" lon="5.2781">
        <ele>1773.8</ele>
        <time>2026-05-14T11:50:40.999Z</time>
      </trkpt>
      <trkpt lat="44.17777" lon="5.27809">
        <ele>1773.7</ele>
        <time>2026-05-14T11:50:41.999Z</time>
      </trkpt>
      <trkpt lat="44.17776" lon="5.27808">
        <ele>1773.6</ele>
        <time>2026-05-14T11:50:42.999Z</time>
      </trkpt>
      <trkpt lat="44.17776" lon="5.27806">
        <ele>1773.5</ele>
        <time>2026-05-14T11:50:43.999Z</time>
      </trkpt>
      <trkpt lat="44.17776" lon="5.27804">
        <ele>1773.4</ele>
        <time>2026-05-14T11:50:44.999Z</time>
      </trkpt>
      <trkpt lat="44.17776" lon="5.27802">
        <ele>1773.4</ele>
        <time>2026-05-14T11:50:45.999Z</time>
      </trkpt>
      <trkpt lat="44.17776" lon="5.278">
        <ele>1773.3</ele>
        <time>2026-05-14T11:50:46.999Z</time>
      </trkpt>
      <trkpt lat="44.17776" lon="5.27798">
        <ele>1773.1</ele>
        <time>2026-05-14T11:50:47.999Z</time>
      </trkpt>
      <trkpt lat="44.17776" lon="5.27797">
        <ele>1772.5</ele>
        <time>2026-05-14T11:50:48.999Z</time>
      </trkpt>
      <trkpt lat="44.17776" lon="5.27796">
        <ele>1772</ele>
        <time>2026-05-14T11:50:49.999Z</time>
      </trkpt>
      <trkpt lat="44.17776" lon="5.27794">
        <ele>1771.6</ele>
        <time>2026-05-14T11:50:50.999Z</time>
      </trkpt>
      <trkpt lat="44.17777" lon="5.27793">
        <ele>1771.8</ele>
        <time>2026-05-14T11:50:51.999Z</time>
      </trkpt>
      <trkpt lat="44.17777" lon="5.27792">
        <ele>1771.7</ele>
        <time>2026-05-14T11:50:52.999Z</time>
      </trkpt>
      <trkpt lat="44.17777" lon="5.2779">
        <ele>1771.9</ele>
        <time>2026-05-14T11:50:53.999Z</time>
      </trkpt>
      <trkpt lat="44.17777" lon="5.27788">
        <ele>1771.8</ele>
        <time>2026-05-14T11:50:54.999Z</time>
      </trkpt>
      <trkpt lat="44.17778" lon="5.27786">
        <ele>1772</ele>
        <time>2026-05-14T11:50:55.999Z</time>
      </trkpt>
      <trkpt lat="44.17778" lon="5.27783">
        <ele>1772.1</ele>
        <time>2026-05-14T11:50:56.999Z</time>
      </trkpt>
      <trkpt lat="44.17778" lon="5.2778">
        <ele>1772.4</ele>
        <time>2026-05-14T11:50:57.999Z</time>
      </trkpt>
      <trkpt lat="44.17778" lon="5.27778">
        <ele>1772.4</ele>
        <time>2026-05-14T11:50:58.999Z</time>
      </trkpt>
      <trkpt lat="44.17778" lon="5.27777">
        <ele>1772.5</ele>
        <time>2026-05-14T11:50:59.999Z</time>
      </trkpt>
      <trkpt lat="44.17778" lon="5.27775">
        <ele>1772.7</ele>
        <time>2026-05-14T11:51:00.999Z</time>
      </trkpt>
      <trkpt lat="44.17778" lon="5.27773">
        <ele>1772.5</ele>
        <time>2026-05-14T11:51:01.999Z</time>
      </trkpt>
      <trkpt lat="44.17778" lon="5.27772">
        <ele>1772.4</ele>
        <time>2026-05-14T11:51:02.999Z</time>
      </trkpt>
      <trkpt lat="44.17777" lon="5.2777">
        <ele>1772.6</ele>
        <time>2026-05-14T11:51:03.999Z</time>
      </trkpt>
      <trkpt lat="44.17777" lon="5.27769">
        <ele>1772</ele>
        <time>2026-05-14T11:51:04.999Z</time>
      </trkpt>
      <trkpt lat="44.17778" lon="5.27768">
        <ele>1771.6</ele>
        <time>2026-05-14T11:51:05.999Z</time>
      </trkpt>
      <trkpt lat="44.17778" lon="5.27766">
        <ele>1771.4</ele>
        <time>2026-05-14T11:51:06.999Z</time>
      </trkpt>
      <trkpt lat="44.17779" lon="5.27764">
        <ele>1771.4</ele>
        <time>2026-05-14T11:51:07.999Z</time>
      </trkpt>
      <trkpt lat="44.17779" lon="5.27762">
        <ele>1771.6</ele>
        <time>2026-05-14T11:51:08.999Z</time>
      </trkpt>
      <trkpt lat="44.1778" lon="5.2776">
        <ele>1771.4</ele>
        <time>2026-05-14T11:51:09.999Z</time>
      </trkpt>
      <trkpt lat="44.1778" lon="5.27759">
        <ele>1771.3</ele>
        <time>2026-05-14T11:51:10.999Z</time>
      </trkpt>
      <trkpt lat="44.1778" lon="5.27757">
        <ele>1771.5</ele>
        <time>2026-05-14T11:51:11.999Z</time>
      </trkpt>
      <trkpt lat="44.17779" lon="5.27756">
        <ele>1771.6</ele>
        <time>2026-05-14T11:51:12.999Z</time>
      </trkpt>
      <trkpt lat="44.1778" lon="5.27754">
        <ele>1771.3</ele>
        <time>2026-05-14T11:51:13.999Z</time>
      </trkpt>
      <trkpt lat="44.1778" lon="5.27753">
        <ele>1770.9</ele>
        <time>2026-05-14T11:51:14.999Z</time>
      </trkpt>
      <trkpt lat="44.1778" lon="5.27751">
        <ele>1770.6</ele>
        <time>2026-05-14T11:51:15.999Z</time>
      </trkpt>
      <trkpt lat="44.17781" lon="5.2775">
        <ele>1770.4</ele>
        <time>2026-05-14T11:51:16.999Z</time>
      </trkpt>
      <trkpt lat="44.17781" lon="5.27748">
        <ele>1770.1</ele>
        <time>2026-05-14T11:51:17.999Z</time>
      </trkpt>
      <trkpt lat="44.17781" lon="5.27746">
        <ele>1770</ele>
        <time>2026-05-14T11:51:18.999Z</time>
      </trkpt>
      <trkpt lat="44.17781" lon="5.27744">
        <ele>1770</ele>
        <time>2026-05-14T11:51:19.999Z</time>
      </trkpt>
      <trkpt lat="44.17781" lon="5.27742">
        <ele>1769.8</ele>
        <time>2026-05-14T11:51:20.999Z</time>
      </trkpt>
      <trkpt lat="44.1778" lon="5.2774">
        <ele>1769.5</ele>
        <time>2026-05-14T11:51:21.999Z</time>
      </trkpt>
      <trkpt lat="44.17781" lon="5.27738">
        <ele>1769.4</ele>
        <time>2026-05-14T11:51:22.999Z</time>
      </trkpt>
      <trkpt lat="44.17781" lon="5.27736">
        <ele>1769.5</ele>
        <time>2026-05-14T11:51:23.999Z</time>
      </trkpt>
      <trkpt lat="44.17781" lon="5.27733">
        <ele>1769.4</ele>
        <time>2026-05-14T11:51:24.999Z</time>
      </trkpt>
      <trkpt lat="44.17781" lon="5.27732">
        <ele>1769.4</ele>
        <time>2026-05-14T11:51:25.999Z</time>
      </trkpt>
      <trkpt lat="44.1778" lon="5.2773">
        <ele>1769.1</ele>
        <time>2026-05-14T11:51:26.999Z</time>
      </trkpt>
      <trkpt lat="44.1778" lon="5.27729">
        <ele>1769.3</ele>
        <time>2026-05-14T11:51:27.999Z</time>
      </trkpt>
      <trkpt lat="44.1778" lon="5.27728">
        <ele>1769</ele>
        <time>2026-05-14T11:51:28.999Z</time>
      </trkpt>
      <trkpt lat="44.1778" lon="5.27727">
        <ele>1768.7</ele>
        <time>2026-05-14T11:51:29.999Z</time>
      </trkpt>
      <trkpt lat="44.1778" lon="5.27725">
        <ele>1768.4</ele>
        <time>2026-05-14T11:51:30.999Z</time>
      </trkpt>
      <trkpt lat="44.1778" lon="5.27724">
        <ele>1768</ele>
        <time>2026-05-14T11:51:31.999Z</time>
      </trkpt>
      <trkpt lat="44.1778" lon="5.27723">
        <ele>1767.8</ele>
        <time>2026-05-14T11:51:32.999Z</time>
      </trkpt>
      <trkpt lat="44.17779" lon="5.27721">
        <ele>1767.6</ele>
        <time>2026-05-14T11:51:33.999Z</time>
      </trkpt>
      <trkpt lat="44.17779" lon="5.27718">
        <ele>1767.5</ele>
        <time>2026-05-14T11:51:34.999Z</time>
      </trkpt>
      <trkpt lat="44.17779" lon="5.27715">
        <ele>1767.4</ele>
        <time>2026-05-14T11:51:35.999Z</time>
      </trkpt>
      <trkpt lat="44.17778" lon="5.27713">
        <ele>1767.4</ele>
        <time>2026-05-14T11:51:36.999Z</time>
      </trkpt>
      <trkpt lat="44.17778" lon="5.27711">
        <ele>1767.4</ele>
        <time>2026-05-14T11:51:37.999Z</time>
      </trkpt>
      <trkpt lat="44.17778" lon="5.27709">
        <ele>1767.1</ele>
        <time>2026-05-14T11:51:38.999Z</time>
      </trkpt>
      <trkpt lat="44.17777" lon="5.27707">
        <ele>1766.8</ele>
        <time>2026-05-14T11:51:39.999Z</time>
      </trkpt>
      <trkpt lat="44.17777" lon="5.27706">
        <ele>1766.3</ele>
        <time>2026-05-14T11:51:40.999Z</time>
      </trkpt>
      <trkpt lat="44.17777" lon="5.27705">
        <ele>1766.1</ele>
        <time>2026-05-14T11:51:41.999Z</time>
      </trkpt>
      <trkpt lat="44.17777" lon="5.27704">
        <ele>1765.8</ele>
        <time>2026-05-14T11:51:42.999Z</time>
      </trkpt>
      <trkpt lat="44.17777" lon="5.27703">
        <ele>1765.6</ele>
        <time>2026-05-14T11:51:43.999Z</time>
      </trkpt>
      <trkpt lat="44.17777" lon="5.27701">
        <ele>1765.7</ele>
        <time>2026-05-14T11:51:44.999Z</time>
      </trkpt>
      <trkpt lat="44.17776" lon="5.27699">
        <ele>1765.7</ele>
        <time>2026-05-14T11:51:45.999Z</time>
      </trkpt>
      <trkpt lat="44.17776" lon="5.27698">
        <ele>1765.6</ele>
        <time>2026-05-14T11:51:46.999Z</time>
      </trkpt>
      <trkpt lat="44.17776" lon="5.27696">
        <ele>1765.3</ele>
        <time>2026-05-14T11:51:47.999Z</time>
      </trkpt>
      <trkpt lat="44.17776" lon="5.27693">
        <ele>1765.2</ele>
        <time>2026-05-14T11:51:48.999Z</time>
      </trkpt>
      <trkpt lat="44.17776" lon="5.27691">
        <ele>1764.9</ele>
        <time>2026-05-14T11:51:49.999Z</time>
      </trkpt>
      <trkpt lat="44.17775" lon="5.2769">
        <ele>1764.7</ele>
        <time>2026-05-14T11:51:50.999Z</time>
      </trkpt>
      <trkpt lat="44.17775" lon="5.27689">
        <ele>1764.5</ele>
        <time>2026-05-14T11:51:51.999Z</time>
      </trkpt>
      <trkpt lat="44.17775" lon="5.27687">
        <ele>1764.3</ele>
        <time>2026-05-14T11:51:52.999Z</time>
      </trkpt>
      <trkpt lat="44.17775" lon="5.27686">
        <ele>1764.1</ele>
        <time>2026-05-14T11:51:53.999Z</time>
      </trkpt>
      <trkpt lat="44.17775" lon="5.27685">
        <ele>1763.9</ele>
        <time>2026-05-14T11:51:54.999Z</time>
      </trkpt>
      <trkpt lat="44.17775" lon="5.27684">
        <ele>1763.9</ele>
        <time>2026-05-14T11:51:55.999Z</time>
      </trkpt>
      <trkpt lat="44.17775" lon="5.27682">
        <ele>1763.8</ele>
        <time>2026-05-14T11:51:56.999Z</time>
      </trkpt>
      <trkpt lat="44.17775" lon="5.27679">
        <ele>1763.7</ele>
        <time>2026-05-14T11:51:57.999Z</time>
      </trkpt>
      <trkpt lat="44.17774" lon="5.27678">
        <ele>1763.8</ele>
        <time>2026-05-14T11:51:58.999Z</time>
      </trkpt>
      <trkpt lat="44.17774" lon="5.27676">
        <ele>1763.9</ele>
        <time>2026-05-14T11:51:59.999Z</time>
      </trkpt>
      <trkpt lat="44.17773" lon="5.27674">
        <ele>1763.7</ele>
        <time>2026-05-14T11:52:00.999Z</time>
      </trkpt>
      <trkpt lat="44.17773" lon="5.27672">
        <ele>1763.7</ele>
        <time>2026-05-14T11:52:01.999Z</time>
      </trkpt>
      <trkpt lat="44.17773" lon="5.27671">
        <ele>1763.5</ele>
        <time>2026-05-14T11:52:02.999Z</time>
      </trkpt>
      <trkpt lat="44.17774" lon="5.2767">
        <ele>1763.3</ele>
        <time>2026-05-14T11:52:03.999Z</time>
      </trkpt>
      <trkpt lat="44.17774" lon="5.27669">
        <ele>1763.4</ele>
        <time>2026-05-14T11:52:04.999Z</time>
      </trkpt>
      <trkpt lat="44.17774" lon="5.27667">
        <ele>1763.2</ele>
        <time>2026-05-14T11:52:05.999Z</time>
      </trkpt>
      <trkpt lat="44.17774" lon="5.27665">
        <ele>1763.1</ele>
        <time>2026-05-14T11:52:06.999Z</time>
      </trkpt>
      <trkpt lat="44.17774" lon="5.27664">
        <ele>1763.2</ele>
        <time>2026-05-14T11:52:07.999Z</time>
      </trkpt>
      <trkpt lat="44.17773" lon="5.27662">
        <ele>1763.2</ele>
        <time>2026-05-14T11:52:08.999Z</time>
      </trkpt>
      <trkpt lat="44.17773" lon="5.2766">
        <ele>1763.2</ele>
        <time>2026-05-14T11:52:09.999Z</time>
      </trkpt>
      <trkpt lat="44.17772" lon="5.27659">
        <ele>1763</ele>
        <time>2026-05-14T11:52:10.999Z</time>
      </trkpt>
      <trkpt lat="44.17772" lon="5.27657">
        <ele>1762.7</ele>
        <time>2026-05-14T11:52:11.999Z</time>
      </trkpt>
      <trkpt lat="44.17772" lon="5.27656">
        <ele>1762.3</ele>
        <time>2026-05-14T11:52:12.999Z</time>
      </trkpt>
      <trkpt lat="44.17772" lon="5.27654">
        <ele>1761.9</ele>
        <time>2026-05-14T11:52:13.999Z</time>
      </trkpt>
      <trkpt lat="44.17773" lon="5.27653">
        <ele>1761.6</ele>
        <time>2026-05-14T11:52:14.999Z</time>
      </trkpt>
      <trkpt lat="44.17773" lon="5.27651">
        <ele>1761.5</ele>
        <time>2026-05-14T11:52:15.999Z</time>
      </trkpt>
      <trkpt lat="44.17773" lon="5.27648">
        <ele>1761.5</ele>
        <time>2026-05-14T11:52:16.999Z</time>
      </trkpt>
      <trkpt lat="44.17772" lon="5.27646">
        <ele>1761.5</ele>
        <time>2026-05-14T11:52:17.999Z</time>
      </trkpt>
      <trkpt lat="44.17772" lon="5.27644">
        <ele>1761.4</ele>
        <time>2026-05-14T11:52:18.999Z</time>
      </trkpt>
      <trkpt lat="44.17771" lon="5.27643">
        <ele>1761.2</ele>
        <time>2026-05-14T11:52:19.999Z</time>
      </trkpt>
      <trkpt lat="44.17771" lon="5.27641">
        <ele>1761</ele>
        <time>2026-05-14T11:52:20.999Z</time>
      </trkpt>
      <trkpt lat="44.1777" lon="5.2764">
        <ele>1760.8</ele>
        <time>2026-05-14T11:52:21.999Z</time>
      </trkpt>
      <trkpt lat="44.17769" lon="5.27639">
        <ele>1760.6</ele>
        <time>2026-05-14T11:52:22.999Z</time>
      </trkpt>
      <trkpt lat="44.17769" lon="5.27638">
        <ele>1760.3</ele>
        <time>2026-05-14T11:52:23.999Z</time>
      </trkpt>
      <trkpt lat="44.17769" lon="5.27637">
        <ele>1760.1</ele>
        <time>2026-05-14T11:52:24.999Z</time>
      </trkpt>
      <trkpt lat="44.17768" lon="5.27635">
        <ele>1759.9</ele>
        <time>2026-05-14T11:52:25.999Z</time>
      </trkpt>
      <trkpt lat="44.17767" lon="5.27633">
        <ele>1759.9</ele>
        <time>2026-05-14T11:52:26.999Z</time>
      </trkpt>
      <trkpt lat="44.17766" lon="5.2763">
        <ele>1760</ele>
        <time>2026-05-14T11:52:27.999Z</time>
      </trkpt>
      <trkpt lat="44.17765" lon="5.27628">
        <ele>1760</ele>
        <time>2026-05-14T11:52:28.999Z</time>
      </trkpt>
      <trkpt lat="44.17764" lon="5.27627">
        <ele>1760</ele>
        <time>2026-05-14T11:52:29.999Z</time>
      </trkpt>
      <trkpt lat="44.17764" lon="5.27625">
        <ele>1759.7</ele>
        <time>2026-05-14T11:52:30.999Z</time>
      </trkpt>
      <trkpt lat="44.17764" lon="5.27624">
        <ele>1759.5</ele>
        <time>2026-05-14T11:52:31.999Z</time>
      </trkpt>
      <trkpt lat="44.17764" lon="5.27623">
        <ele>1759.2</ele>
        <time>2026-05-14T11:52:32.999Z</time>
      </trkpt>
      <trkpt lat="44.17764" lon="5.27622">
        <ele>1759</ele>
        <time>2026-05-14T11:52:33.999Z</time>
      </trkpt>
      <trkpt lat="44.17764" lon="5.27621">
        <ele>1758.9</ele>
        <time>2026-05-14T11:52:34.999Z</time>
      </trkpt>
      <trkpt lat="44.17764" lon="5.2762">
        <ele>1758.8</ele>
        <time>2026-05-14T11:52:35.999Z</time>
      </trkpt>
      <trkpt lat="44.17763" lon="5.27618">
        <ele>1758.7</ele>
        <time>2026-05-14T11:52:36.999Z</time>
      </trkpt>
      <trkpt lat="44.17763" lon="5.27615">
        <ele>1758.6</ele>
        <time>2026-05-14T11:52:37.999Z</time>
      </trkpt>
      <trkpt lat="44.17763" lon="5.27613">
        <ele>1758.7</ele>
        <time>2026-05-14T11:52:38.999Z</time>
      </trkpt>
      <trkpt lat="44.17762" lon="5.27611">
        <ele>1758.7</ele>
        <time>2026-05-14T11:52:39.999Z</time>
      </trkpt>
      <trkpt lat="44.17762" lon="5.27608">
        <ele>1758.9</ele>
        <time>2026-05-14T11:52:40.999Z</time>
      </trkpt>
      <trkpt lat="44.17762" lon="5.27607">
        <ele>1758.6</ele>
        <time>2026-05-14T11:52:41.999Z</time>
      </trkpt>
      <trkpt lat="44.17762" lon="5.27605">
        <ele>1758.7</ele>
        <time>2026-05-14T11:52:42.999Z</time>
      </trkpt>
      <trkpt lat="44.17762" lon="5.27604">
        <ele>1758.7</ele>
        <time>2026-05-14T11:52:43.999Z</time>
      </trkpt>
      <trkpt lat="44.17762" lon="5.27603">
        <ele>1758.3</ele>
        <time>2026-05-14T11:52:44.999Z</time>
      </trkpt>
      <trkpt lat="44.17762" lon="5.27601">
        <ele>1758</ele>
        <time>2026-05-14T11:52:45.999Z</time>
      </trkpt>
      <trkpt lat="44.17762" lon="5.276">
        <ele>1757.4</ele>
        <time>2026-05-14T11:52:46.999Z</time>
      </trkpt>
      <trkpt lat="44.17762" lon="5.27598">
        <ele>1757.3</ele>
        <time>2026-05-14T11:52:47.999Z</time>
      </trkpt>
      <trkpt lat="44.17761" lon="5.27597">
        <ele>1757.3</ele>
        <time>2026-05-14T11:52:48.999Z</time>
      </trkpt>
      <trkpt lat="44.17759" lon="5.27595">
        <ele>1757.4</ele>
        <time>2026-05-14T11:52:49.999Z</time>
      </trkpt>
      <trkpt lat="44.17758" lon="5.27595">
        <ele>1757.4</ele>
        <time>2026-05-14T11:52:50.999Z</time>
      </trkpt>
      <trkpt lat="44.17757" lon="5.27593">
        <ele>1757.6</ele>
        <time>2026-05-14T11:52:51.999Z</time>
      </trkpt>
      <trkpt lat="44.17756" lon="5.27593">
        <ele>1757.7</ele>
        <time>2026-05-14T11:52:52.999Z</time>
      </trkpt>
      <trkpt lat="44.17755" lon="5.27593">
        <ele>1757.5</ele>
        <time>2026-05-14T11:52:53.999Z</time>
      </trkpt>
      <trkpt lat="44.17753" lon="5.27592">
        <ele>1757.3</ele>
        <time>2026-05-14T11:52:54.999Z</time>
      </trkpt>
      <trkpt lat="44.17752" lon="5.27591">
        <ele>1756.8</ele>
        <time>2026-05-14T11:52:55.999Z</time>
      </trkpt>
      <trkpt lat="44.1775" lon="5.27591">
        <ele>1756.4</ele>
        <time>2026-05-14T11:52:56.999Z</time>
      </trkpt>
      <trkpt lat="44.17749" lon="5.27591">
        <ele>1756</ele>
        <time>2026-05-14T11:52:57.999Z</time>
      </trkpt>
      <trkpt lat="44.17748" lon="5.2759">
        <ele>1756</ele>
        <time>2026-05-14T11:52:58.999Z</time>
      </trkpt>
      <trkpt lat="44.17747" lon="5.27589">
        <ele>1756</ele>
        <time>2026-05-14T11:52:59.999Z</time>
      </trkpt>
      <trkpt lat="44.17747" lon="5.27588">
        <ele>1756</ele>
        <time>2026-05-14T11:53:00.999Z</time>
      </trkpt>
      <trkpt lat="44.17747" lon="5.27587">
        <ele>1755.8</ele>
        <time>2026-05-14T11:53:01.999Z</time>
      </trkpt>
      <trkpt lat="44.17746" lon="5.27586">
        <ele>1755.7</ele>
        <time>2026-05-14T11:53:02.999Z</time>
      </trkpt>
      <trkpt lat="44.17746" lon="5.27584">
        <ele>1755.7</ele>
        <time>2026-05-14T11:53:03.999Z</time>
      </trkpt>
      <trkpt lat="44.17745" lon="5.27583">
        <ele>1755.7</ele>
        <time>2026-05-14T11:53:04.999Z</time>
      </trkpt>
      <trkpt lat="44.17744" lon="5.27582">
        <ele>1755.4</ele>
        <time>2026-05-14T11:53:05.999Z</time>
      </trkpt>
      <trkpt lat="44.17743" lon="5.27581">
        <ele>1755.3</ele>
        <time>2026-05-14T11:53:06.999Z</time>
      </trkpt>
      <trkpt lat="44.17743" lon="5.27579">
        <ele>1755.1</ele>
        <time>2026-05-14T11:53:07.999Z</time>
      </trkpt>
      <trkpt lat="44.17742" lon="5.27577">
        <ele>1755.3</ele>
        <time>2026-05-14T11:53:08.999Z</time>
      </trkpt>
      <trkpt lat="44.17742" lon="5.27575">
        <ele>1755.2</ele>
        <time>2026-05-14T11:53:09.999Z</time>
      </trkpt>
      <trkpt lat="44.17742" lon="5.27574">
        <ele>1754.8</ele>
        <time>2026-05-14T11:53:10.999Z</time>
      </trkpt>
      <trkpt lat="44.17742" lon="5.27573">
        <ele>1754.8</ele>
        <time>2026-05-14T11:53:11.999Z</time>
      </trkpt>
      <trkpt lat="44.17742" lon="5.27571">
        <ele>1754.3</ele>
        <time>2026-05-14T11:53:12.999Z</time>
      </trkpt>
      <trkpt lat="44.17741" lon="5.2757">
        <ele>1754.3</ele>
        <time>2026-05-14T11:53:13.999Z</time>
      </trkpt>
      <trkpt lat="44.17739" lon="5.27568">
        <ele>1754.2</ele>
        <time>2026-05-14T11:53:14.999Z</time>
      </trkpt>
      <trkpt lat="44.17739" lon="5.27566">
        <ele>1754</ele>
        <time>2026-05-14T11:53:15.999Z</time>
      </trkpt>
      <trkpt lat="44.17738" lon="5.27564">
        <ele>1753.8</ele>
        <time>2026-05-14T11:53:16.999Z</time>
      </trkpt>
      <trkpt lat="44.17737" lon="5.27561">
        <ele>1753.8</ele>
        <time>2026-05-14T11:53:17.999Z</time>
      </trkpt>
      <trkpt lat="44.17736" lon="5.2756">
        <ele>1753.6</ele>
        <time>2026-05-14T11:53:18.999Z</time>
      </trkpt>
      <trkpt lat="44.17736" lon="5.27558">
        <ele>1753.2</ele>
        <time>2026-05-14T11:53:19.999Z</time>
      </trkpt>
      <trkpt lat="44.17736" lon="5.27557">
        <ele>1753.2</ele>
        <time>2026-05-14T11:53:20.999Z</time>
      </trkpt>
      <trkpt lat="44.17735" lon="5.27556">
        <ele>1753.1</ele>
        <time>2026-05-14T11:53:21.999Z</time>
      </trkpt>
      <trkpt lat="44.17735" lon="5.27555">
        <ele>1752.9</ele>
        <time>2026-05-14T11:53:22.999Z</time>
      </trkpt>
      <trkpt lat="44.17735" lon="5.27554">
        <ele>1752.7</ele>
        <time>2026-05-14T11:53:23.999Z</time>
      </trkpt>
      <trkpt lat="44.17735" lon="5.27553">
        <ele>1752.4</ele>
        <time>2026-05-14T11:53:24.999Z</time>
      </trkpt>
      <trkpt lat="44.17735" lon="5.27552">
        <ele>1752</ele>
        <time>2026-05-14T11:53:25.999Z</time>
      </trkpt>
      <trkpt lat="44.17735" lon="5.27549">
        <ele>1751.8</ele>
        <time>2026-05-14T11:53:26.999Z</time>
      </trkpt>
      <trkpt lat="44.17735" lon="5.27547">
        <ele>1751.6</ele>
        <time>2026-05-14T11:53:27.999Z</time>
      </trkpt>
      <trkpt lat="44.17734" lon="5.27545">
        <ele>1751.5</ele>
        <time>2026-05-14T11:53:28.999Z</time>
      </trkpt>
      <trkpt lat="44.17733" lon="5.27544">
        <ele>1751.5</ele>
        <time>2026-05-14T11:53:29.999Z</time>
      </trkpt>
      <trkpt lat="44.17733" lon="5.27543">
        <ele>1751.6</ele>
        <time>2026-05-14T11:53:30.999Z</time>
      </trkpt>
      <trkpt lat="44.17732" lon="5.27541">
        <ele>1751.3</ele>
        <time>2026-05-14T11:53:31.999Z</time>
      </trkpt>
      <trkpt lat="44.17731" lon="5.2754">
        <ele>1751.2</ele>
        <time>2026-05-14T11:53:32.999Z</time>
      </trkpt>
      <trkpt lat="44.1773" lon="5.27539">
        <ele>1751.3</ele>
        <time>2026-05-14T11:53:33.999Z</time>
      </trkpt>
      <trkpt lat="44.17729" lon="5.27538">
        <ele>1751.2</ele>
        <time>2026-05-14T11:53:34.999Z</time>
      </trkpt>
      <trkpt lat="44.17729" lon="5.27537">
        <ele>1751.2</ele>
        <time>2026-05-14T11:53:35.999Z</time>
      </trkpt>
      <trkpt lat="44.17728" lon="5.27535">
        <ele>1751.1</ele>
        <time>2026-05-14T11:53:36.999Z</time>
      </trkpt>
      <trkpt lat="44.17728" lon="5.27534">
        <ele>1750.9</ele>
        <time>2026-05-14T11:53:37.999Z</time>
      </trkpt>
      <trkpt lat="44.17729" lon="5.27532">
        <ele>1750.7</ele>
        <time>2026-05-14T11:53:38.999Z</time>
      </trkpt>
      <trkpt lat="44.17728" lon="5.27531">
        <ele>1750.6</ele>
        <time>2026-05-14T11:53:39.999Z</time>
      </trkpt>
      <trkpt lat="44.17727" lon="5.27529">
        <ele>1750.6</ele>
        <time>2026-05-14T11:53:40.999Z</time>
      </trkpt>
      <trkpt lat="44.17726" lon="5.27527">
        <ele>1750.4</ele>
        <time>2026-05-14T11:53:41.999Z</time>
      </trkpt>
      <trkpt lat="44.17725" lon="5.27526">
        <ele>1750.3</ele>
        <time>2026-05-14T11:53:42.999Z</time>
      </trkpt>
      <trkpt lat="44.17724" lon="5.27524">
        <ele>1750.2</ele>
        <time>2026-05-14T11:53:43.999Z</time>
      </trkpt>
      <trkpt lat="44.17723" lon="5.27524">
        <ele>1749.9</ele>
        <time>2026-05-14T11:53:44.999Z</time>
      </trkpt>
      <trkpt lat="44.17722" lon="5.27523">
        <ele>1749.4</ele>
        <time>2026-05-14T11:53:45.999Z</time>
      </trkpt>
      <trkpt lat="44.17722" lon="5.27523">
        <ele>1749</ele>
        <time>2026-05-14T11:53:46.999Z</time>
      </trkpt>
      <trkpt lat="44.17721" lon="5.27522">
        <ele>1748.8</ele>
        <time>2026-05-14T11:53:47.999Z</time>
      </trkpt>
      <trkpt lat="44.1772" lon="5.27521">
        <ele>1748.6</ele>
        <time>2026-05-14T11:53:48.999Z</time>
      </trkpt>
      <trkpt lat="44.1772" lon="5.2752">
        <ele>1748.5</ele>
        <time>2026-05-14T11:53:49.999Z</time>
      </trkpt>
      <trkpt lat="44.17719" lon="5.27519">
        <ele>1748.4</ele>
        <time>2026-05-14T11:53:50.999Z</time>
      </trkpt>
      <trkpt lat="44.17718" lon="5.27518">
        <ele>1748.1</ele>
        <time>2026-05-14T11:53:51.999Z</time>
      </trkpt>
      <trkpt lat="44.17717" lon="5.27517">
        <ele>1748.1</ele>
        <time>2026-05-14T11:53:52.999Z</time>
      </trkpt>
      <trkpt lat="44.17716" lon="5.27515">
        <ele>1748.1</ele>
        <time>2026-05-14T11:53:53.999Z</time>
      </trkpt>
      <trkpt lat="44.17715" lon="5.27513">
        <ele>1747.9</ele>
        <time>2026-05-14T11:53:54.999Z</time>
      </trkpt>
      <trkpt lat="44.17714" lon="5.27511">
        <ele>1747.9</ele>
        <time>2026-05-14T11:53:55.999Z</time>
      </trkpt>
      <trkpt lat="44.17713" lon="5.2751">
        <ele>1747.6</ele>
        <time>2026-05-14T11:53:56.999Z</time>
      </trkpt>
      <trkpt lat="44.17712" lon="5.27509">
        <ele>1747.2</ele>
        <time>2026-05-14T11:53:57.999Z</time>
      </trkpt>
      <trkpt lat="44.17711" lon="5.27508">
        <ele>1747.1</ele>
        <time>2026-05-14T11:53:58.999Z</time>
      </trkpt>
      <trkpt lat="44.17711" lon="5.27507">
        <ele>1747.2</ele>
        <time>2026-05-14T11:53:59.999Z</time>
      </trkpt>
      <trkpt lat="44.1771" lon="5.27505">
        <ele>1747.4</ele>
        <time>2026-05-14T11:54:00.999Z</time>
      </trkpt>
      <trkpt lat="44.1771" lon="5.27504">
        <ele>1747.3</ele>
        <time>2026-05-14T11:54:01.999Z</time>
      </trkpt>
      <trkpt lat="44.17709" lon="5.27502">
        <ele>1747</ele>
        <time>2026-05-14T11:54:02.999Z</time>
      </trkpt>
      <trkpt lat="44.17708" lon="5.27501">
        <ele>1746.8</ele>
        <time>2026-05-14T11:54:03.999Z</time>
      </trkpt>
      <trkpt lat="44.17707" lon="5.27499">
        <ele>1746.7</ele>
        <time>2026-05-14T11:54:04.999Z</time>
      </trkpt>
      <trkpt lat="44.17705" lon="5.27498">
        <ele>1747</ele>
        <time>2026-05-14T11:54:05.999Z</time>
      </trkpt>
      <trkpt lat="44.17704" lon="5.27497">
        <ele>1746.7</ele>
        <time>2026-05-14T11:54:06.999Z</time>
      </trkpt>
      <trkpt lat="44.17703" lon="5.27495">
        <ele>1746.4</ele>
        <time>2026-05-14T11:54:07.999Z</time>
      </trkpt>
      <trkpt lat="44.17702" lon="5.27494">
        <ele>1746</ele>
        <time>2026-05-14T11:54:08.999Z</time>
      </trkpt>
      <trkpt lat="44.17701" lon="5.27493">
        <ele>1745.7</ele>
        <time>2026-05-14T11:54:09.999Z</time>
      </trkpt>
      <trkpt lat="44.177" lon="5.27493">
        <ele>1745.8</ele>
        <time>2026-05-14T11:54:10.999Z</time>
      </trkpt>
      <trkpt lat="44.17699" lon="5.27492">
        <ele>1745.7</ele>
        <time>2026-05-14T11:54:11.999Z</time>
      </trkpt>
      <trkpt lat="44.17698" lon="5.27491">
        <ele>1745.4</ele>
        <time>2026-05-14T11:54:12.999Z</time>
      </trkpt>
      <trkpt lat="44.17697" lon="5.27491">
        <ele>1745.5</ele>
        <time>2026-05-14T11:54:13.999Z</time>
      </trkpt>
      <trkpt lat="44.17696" lon="5.27489">
        <ele>1745.5</ele>
        <time>2026-05-14T11:54:14.999Z</time>
      </trkpt>
      <trkpt lat="44.17694" lon="5.27487">
        <ele>1745.4</ele>
        <time>2026-05-14T11:54:15.999Z</time>
      </trkpt>
      <trkpt lat="44.17694" lon="5.27486">
        <ele>1745.5</ele>
        <time>2026-05-14T11:54:16.999Z</time>
      </trkpt>
      <trkpt lat="44.17693" lon="5.27484">
        <ele>1745.6</ele>
        <time>2026-05-14T11:54:17.999Z</time>
      </trkpt>
      <trkpt lat="44.17691" lon="5.27483">
        <ele>1745.6</ele>
        <time>2026-05-14T11:54:18.999Z</time>
      </trkpt>
      <trkpt lat="44.1769" lon="5.27482">
        <ele>1745.2</ele>
        <time>2026-05-14T11:54:19.999Z</time>
      </trkpt>
      <trkpt lat="44.17688" lon="5.27482">
        <ele>1745</ele>
        <time>2026-05-14T11:54:20.999Z</time>
      </trkpt>
      <trkpt lat="44.17687" lon="5.27481">
        <ele>1744.8</ele>
        <time>2026-05-14T11:54:21.999Z</time>
      </trkpt>
      <trkpt lat="44.17686" lon="5.2748">
        <ele>1744.6</ele>
        <time>2026-05-14T11:54:22.999Z</time>
      </trkpt>
      <trkpt lat="44.17685" lon="5.27479">
        <ele>1744.1</ele>
        <time>2026-05-14T11:54:23.999Z</time>
      </trkpt>
      <trkpt lat="44.17684" lon="5.27479">
        <ele>1743.8</ele>
        <time>2026-05-14T11:54:24.999Z</time>
      </trkpt>
      <trkpt lat="44.17684" lon="5.27478">
        <ele>1743.7</ele>
        <time>2026-05-14T11:54:25.999Z</time>
      </trkpt>
      <trkpt lat="44.17684" lon="5.27477">
        <ele>1743.7</ele>
        <time>2026-05-14T11:54:26.999Z</time>
      </trkpt>
      <trkpt lat="44.17683" lon="5.27476">
        <ele>1743.8</ele>
        <time>2026-05-14T11:54:27.999Z</time>
      </trkpt>
      <trkpt lat="44.17682" lon="5.27475">
        <ele>1744.1</ele>
        <time>2026-05-14T11:54:28.999Z</time>
      </trkpt>
      <trkpt lat="44.17681" lon="5.27474">
        <ele>1744</ele>
        <time>2026-05-14T11:54:29.999Z</time>
      </trkpt>
      <trkpt lat="44.1768" lon="5.27474">
        <ele>1744.1</ele>
        <time>2026-05-14T11:54:30.999Z</time>
      </trkpt>
      <trkpt lat="44.17679" lon="5.27474">
        <ele>1743.7</ele>
        <time>2026-05-14T11:54:31.999Z</time>
      </trkpt>
      <trkpt lat="44.17678" lon="5.27473">
        <ele>1743.7</ele>
        <time>2026-05-14T11:54:32.999Z</time>
      </trkpt>
      <trkpt lat="44.17677" lon="5.27473">
        <ele>1743.7</ele>
        <time>2026-05-14T11:54:33.999Z</time>
      </trkpt>
      <trkpt lat="44.17676" lon="5.27472">
        <ele>1743.6</ele>
        <time>2026-05-14T11:54:34.999Z</time>
      </trkpt>
      <trkpt lat="44.17675" lon="5.27472">
        <ele>1743.3</ele>
        <time>2026-05-14T11:54:35.999Z</time>
      </trkpt>
      <trkpt lat="44.17674" lon="5.27471">
        <ele>1742.9</ele>
        <time>2026-05-14T11:54:36.999Z</time>
      </trkpt>
      <trkpt lat="44.17673" lon="5.27471">
        <ele>1742.5</ele>
        <time>2026-05-14T11:54:37.999Z</time>
      </trkpt>
      <trkpt lat="44.17673" lon="5.27471">
        <ele>1742.3</ele>
        <time>2026-05-14T11:54:38.999Z</time>
      </trkpt>
      <trkpt lat="44.17672" lon="5.2747">
        <ele>1741.9</ele>
        <time>2026-05-14T11:54:39.999Z</time>
      </trkpt>
      <trkpt lat="44.1767" lon="5.27471">
        <ele>1741.5</ele>
        <time>2026-05-14T11:54:40.999Z</time>
      </trkpt>
      <trkpt lat="44.17669" lon="5.27471">
        <ele>1741.1</ele>
        <time>2026-05-14T11:54:41.999Z</time>
      </trkpt>
      <trkpt lat="44.17668" lon="5.27471">
        <ele>1740.8</ele>
        <time>2026-05-14T11:54:42.999Z</time>
      </trkpt>
      <trkpt lat="44.17666" lon="5.27471">
        <ele>1740.6</ele>
        <time>2026-05-14T11:54:43.999Z</time>
      </trkpt>
      <trkpt lat="44.17665" lon="5.2747">
        <ele>1740.4</ele>
        <time>2026-05-14T11:54:44.999Z</time>
      </trkpt>
      <trkpt lat="44.17663" lon="5.27469">
        <ele>1739.8</ele>
        <time>2026-05-14T11:54:45.999Z</time>
      </trkpt>
      <trkpt lat="44.17662" lon="5.27467">
        <ele>1739.2</ele>
        <time>2026-05-14T11:54:46.999Z</time>
      </trkpt>
      <trkpt lat="44.17661" lon="5.27466">
        <ele>1739</ele>
        <time>2026-05-14T11:54:47.999Z</time>
      </trkpt>
      <trkpt lat="44.1766" lon="5.27466">
        <ele>1738.5</ele>
        <time>2026-05-14T11:54:48.999Z</time>
      </trkpt>
      <trkpt lat="44.17658" lon="5.27465">
        <ele>1738.4</ele>
        <time>2026-05-14T11:54:49.999Z</time>
      </trkpt>
      <trkpt lat="44.17657" lon="5.27465">
        <ele>1738</ele>
        <time>2026-05-14T11:54:50.999Z</time>
      </trkpt>
      <trkpt lat="44.17657" lon="5.27465">
        <ele>1737.7</ele>
        <time>2026-05-14T11:54:51.999Z</time>
      </trkpt>
      <trkpt lat="44.17656" lon="5.27465">
        <ele>1737.4</ele>
        <time>2026-05-14T11:54:52.999Z</time>
      </trkpt>
      <trkpt lat="44.17654" lon="5.27465">
        <ele>1737.1</ele>
        <time>2026-05-14T11:54:53.999Z</time>
      </trkpt>
      <trkpt lat="44.17653" lon="5.27466">
        <ele>1736.6</ele>
        <time>2026-05-14T11:54:54.999Z</time>
      </trkpt>
      <trkpt lat="44.17651" lon="5.27466">
        <ele>1736.4</ele>
        <time>2026-05-14T11:54:55.999Z</time>
      </trkpt>
      <trkpt lat="44.1765" lon="5.27466">
        <ele>1736.3</ele>
        <time>2026-05-14T11:54:56.999Z</time>
      </trkpt>
      <trkpt lat="44.17648" lon="5.27465">
        <ele>1736.1</ele>
        <time>2026-05-14T11:54:57.999Z</time>
      </trkpt>
      <trkpt lat="44.17646" lon="5.27463">
        <ele>1736.1</ele>
        <time>2026-05-14T11:54:58.999Z</time>
      </trkpt>
      <trkpt lat="44.17645" lon="5.27462">
        <ele>1736</ele>
        <time>2026-05-14T11:54:59.999Z</time>
      </trkpt>
      <trkpt lat="44.17643" lon="5.27461">
        <ele>1735.8</ele>
        <time>2026-05-14T11:55:00.999Z</time>
      </trkpt>
      <trkpt lat="44.17642" lon="5.2746">
        <ele>1735.7</ele>
        <time>2026-05-14T11:55:01.999Z</time>
      </trkpt>
      <trkpt lat="44.17641" lon="5.27459">
        <ele>1735.7</ele>
        <time>2026-05-14T11:55:02.999Z</time>
      </trkpt>
      <trkpt lat="44.1764" lon="5.27459">
        <ele>1735.4</ele>
        <time>2026-05-14T11:55:03.999Z</time>
      </trkpt>
      <trkpt lat="44.17639" lon="5.27458">
        <ele>1735</ele>
        <time>2026-05-14T11:55:04.999Z</time>
      </trkpt>
      <trkpt lat="44.17638" lon="5.27457">
        <ele>1734.7</ele>
        <time>2026-05-14T11:55:05.999Z</time>
      </trkpt>
      <trkpt lat="44.17637" lon="5.27456">
        <ele>1734.4</ele>
        <time>2026-05-14T11:55:06.999Z</time>
      </trkpt>
      <trkpt lat="44.17636" lon="5.27455">
        <ele>1734</ele>
        <time>2026-05-14T11:55:07.999Z</time>
      </trkpt>
      <trkpt lat="44.17635" lon="5.27455">
        <ele>1733.4</ele>
        <time>2026-05-14T11:55:08.999Z</time>
      </trkpt>
      <trkpt lat="44.17634" lon="5.27453">
        <ele>1733.1</ele>
        <time>2026-05-14T11:55:09.999Z</time>
      </trkpt>
      <trkpt lat="44.17632" lon="5.27451">
        <ele>1732.7</ele>
        <time>2026-05-14T11:55:10.999Z</time>
      </trkpt>
      <trkpt lat="44.17631" lon="5.27449">
        <ele>1732.4</ele>
        <time>2026-05-14T11:55:11.999Z</time>
      </trkpt>
      <trkpt lat="44.17629" lon="5.27447">
        <ele>1732.1</ele>
        <time>2026-05-14T11:55:12.999Z</time>
      </trkpt>
      <trkpt lat="44.17628" lon="5.27446">
        <ele>1731.8</ele>
        <time>2026-05-14T11:55:13.999Z</time>
      </trkpt>
      <trkpt lat="44.17626" lon="5.27445">
        <ele>1731.2</ele>
        <time>2026-05-14T11:55:14.999Z</time>
      </trkpt>
      <trkpt lat="44.17625" lon="5.27444">
        <ele>1730.6</ele>
        <time>2026-05-14T11:55:15.999Z</time>
      </trkpt>
      <trkpt lat="44.17623" lon="5.27442">
        <ele>1730.6</ele>
        <time>2026-05-14T11:55:16.999Z</time>
      </trkpt>
      <trkpt lat="44.17622" lon="5.2744">
        <ele>1730.3</ele>
        <time>2026-05-14T11:55:17.999Z</time>
      </trkpt>
      <trkpt lat="44.17621" lon="5.27439">
        <ele>1729.9</ele>
        <time>2026-05-14T11:55:18.999Z</time>
      </trkpt>
      <trkpt lat="44.1762" lon="5.27437">
        <ele>1729.5</ele>
        <time>2026-05-14T11:55:19.999Z</time>
      </trkpt>
      <trkpt lat="44.17619" lon="5.27436">
        <ele>1729.1</ele>
        <time>2026-05-14T11:55:20.999Z</time>
      </trkpt>
      <trkpt lat="44.17618" lon="5.27434">
        <ele>1728.7</ele>
        <time>2026-05-14T11:55:21.999Z</time>
      </trkpt>
      <trkpt lat="44.17617" lon="5.27433">
        <ele>1728.5</ele>
        <time>2026-05-14T11:55:22.999Z</time>
      </trkpt>
      <trkpt lat="44.17617" lon="5.27432">
        <ele>1728.2</ele>
        <time>2026-05-14T11:55:23.999Z</time>
      </trkpt>
      <trkpt lat="44.17617" lon="5.27431">
        <ele>1727.8</ele>
        <time>2026-05-14T11:55:24.999Z</time>
      </trkpt>
      <trkpt lat="44.17617" lon="5.27431">
        <ele>1728</ele>
        <time>2026-05-14T11:55:25.999Z</time>
      </trkpt>
      <trkpt lat="44.17616" lon="5.2743">
        <ele>1727.7</ele>
        <time>2026-05-14T11:55:26.999Z</time>
      </trkpt>
      <trkpt lat="44.17616" lon="5.27428">
        <ele>1727.8</ele>
        <time>2026-05-14T11:55:27.999Z</time>
      </trkpt>
      <trkpt lat="44.17615" lon="5.27426">
        <ele>1727.8</ele>
        <time>2026-05-14T11:55:28.999Z</time>
      </trkpt>
      <trkpt lat="44.17615" lon="5.27424">
        <ele>1728.2</ele>
        <time>2026-05-14T11:55:29.999Z</time>
      </trkpt>
      <trkpt lat="44.17616" lon="5.27423">
        <ele>1728.7</ele>
        <time>2026-05-14T11:55:30.999Z</time>
      </trkpt>
      <trkpt lat="44.17616" lon="5.27422">
        <ele>1728.9</ele>
        <time>2026-05-14T11:55:31.999Z</time>
      </trkpt>
      <trkpt lat="44.17616" lon="5.27422">
        <ele>1728.8</ele>
        <time>2026-05-14T11:55:32.999Z</time>
      </trkpt>
      <trkpt lat="44.17616" lon="5.27422">
        <ele>1729</ele>
        <time>2026-05-14T11:55:33.999Z</time>
      </trkpt>
      <trkpt lat="44.17617" lon="5.27421">
        <ele>1729.4</ele>
        <time>2026-05-14T11:55:34.999Z</time>
      </trkpt>
      <trkpt lat="44.17617" lon="5.2742">
        <ele>1729.6</ele>
        <time>2026-05-14T11:55:35.999Z</time>
      </trkpt>
      <trkpt lat="44.17618" lon="5.27419">
        <ele>1729.8</ele>
        <time>2026-05-14T11:55:36.999Z</time>
      </trkpt>
      <trkpt lat="44.17618" lon="5.27418">
        <ele>1730</ele>
        <time>2026-05-14T11:55:37.999Z</time>
      </trkpt>
      <trkpt lat="44.17619" lon="5.27418">
        <ele>1730</ele>
        <time>2026-05-14T11:55:38.999Z</time>
      </trkpt>
      <trkpt lat="44.17619" lon="5.27417">
        <ele>1730</ele>
        <time>2026-05-14T11:55:39.999Z</time>
      </trkpt>
      <trkpt lat="44.1762" lon="5.27415">
        <ele>1730.2</ele>
        <time>2026-05-14T11:55:40.999Z</time>
      </trkpt>
      <trkpt lat="44.1762" lon="5.27414">
        <ele>1729.7</ele>
        <time>2026-05-14T11:55:41.999Z</time>
      </trkpt>
      <trkpt lat="44.1762" lon="5.27414">
        <ele>1729.1</ele>
        <time>2026-05-14T11:55:43.000Z</time>
      </trkpt>
      <trkpt lat="44.1762" lon="5.27413">
        <ele>1728.8</ele>
        <time>2026-05-14T11:55:44.000Z</time>
      </trkpt>
      <trkpt lat="44.1762" lon="5.27413">
        <ele>1728.5</ele>
        <time>2026-05-14T11:55:45.000Z</time>
      </trkpt>
      <trkpt lat="44.17619" lon="5.27414">
        <ele>1728.3</ele>
        <time>2026-05-14T11:55:46.000Z</time>
      </trkpt>
      <trkpt lat="44.17619" lon="5.27414">
        <ele>1728.4</ele>
        <time>2026-05-14T11:55:47.000Z</time>
      </trkpt>
      <trkpt lat="44.17619" lon="5.27414">
        <ele>1728.5</ele>
        <time>2026-05-14T11:55:48.000Z</time>
      </trkpt>
      <trkpt lat="44.17619" lon="5.27414">
        <ele>1728.7</ele>
        <time>2026-05-14T11:55:49.000Z</time>
      </trkpt>
      <trkpt lat="44.17619" lon="5.27414">
        <ele>1728.6</ele>
        <time>2026-05-14T11:55:50.000Z</time>
      </trkpt>
      <trkpt lat="44.1762" lon="5.27414">
        <ele>1728.4</ele>
        <time>2026-05-14T11:55:51.000Z</time>
      </trkpt>
      <trkpt lat="44.1762" lon="5.27414">
        <ele>1728.3</ele>
        <time>2026-05-14T11:55:52.000Z</time>
      </trkpt>
      <trkpt lat="44.1762" lon="5.27414">
        <ele>1728.1</ele>
        <time>2026-05-14T11:55:53.000Z</time>
      </trkpt>
      <trkpt lat="44.1762" lon="5.27414">
        <ele>1728.1</ele>
        <time>2026-05-14T11:55:54.000Z</time>
      </trkpt>
      <trkpt lat="44.1762" lon="5.27414">
        <ele>1728.1</ele>
        <time>2026-05-14T11:55:55.000Z</time>
      </trkpt>
      <trkpt lat="44.1762" lon="5.27414">
        <ele>1728.3</ele>
        <time>2026-05-14T11:55:56.000Z</time>
      </trkpt>
      <trkpt lat="44.1762" lon="5.27415">
        <ele>1728.4</ele>
        <time>2026-05-14T11:55:57.000Z</time>
      </trkpt>
      <trkpt lat="44.1762" lon="5.27415">
        <ele>1728.2</ele>
        <time>2026-05-14T11:55:58.000Z</time>
      </trkpt>
      <trkpt lat="44.1762" lon="5.27415">
        <ele>1728</ele>
        <time>2026-05-14T11:55:59.000Z</time>
      </trkpt>
      <trkpt lat="44.1762" lon="5.27414">
        <ele>1727.8</ele>
        <time>2026-05-14T11:56:00.000Z</time>
      </trkpt>
      <trkpt lat="44.1762" lon="5.27414">
        <ele>1727.7</ele>
        <time>2026-05-14T11:56:01.000Z</time>
      </trkpt>
      <trkpt lat="44.1762" lon="5.27414">
        <ele>1727.6</ele>
        <time>2026-05-14T11:56:02.000Z</time>
      </trkpt>
      <trkpt lat="44.1762" lon="5.27414">
        <ele>1727.5</ele>
        <time>2026-05-14T11:56:03.000Z</time>
      </trkpt>
      <trkpt lat="44.1762" lon="5.27414">
        <ele>1727.4</ele>
        <time>2026-05-14T11:56:04.000Z</time>
      </trkpt>
      <trkpt lat="44.17619" lon="5.27414">
        <ele>1727.5</ele>
        <time>2026-05-14T11:56:05.000Z</time>
      </trkpt>
      <trkpt lat="44.17619" lon="5.27414">
        <ele>1727.4</ele>
        <time>2026-05-14T11:56:06.000Z</time>
      </trkpt>
      <trkpt lat="44.17619" lon="5.27415">
        <ele>1727.3</ele>
        <time>2026-05-14T11:56:07.000Z</time>
      </trkpt>
      <trkpt lat="44.17619" lon="5.27415">
        <ele>1727.5</ele>
        <time>2026-05-14T11:56:08.000Z</time>
      </trkpt>
      <trkpt lat="44.17619" lon="5.27415">
        <ele>1727.7</ele>
        <time>2026-05-14T11:56:09.000Z</time>
      </trkpt>
      <trkpt lat="44.17619" lon="5.27414">
        <ele>1728</ele>
        <time>2026-05-14T11:56:10.000Z</time>
      </trkpt>
      <trkpt lat="44.17619" lon="5.27414">
        <ele>1728.2</ele>
        <time>2026-05-14T11:56:11.000Z</time>
      </trkpt>
      <trkpt lat="44.17619" lon="5.27414">
        <ele>1728.4</ele>
        <time>2026-05-14T11:56:12.000Z</time>
      </trkpt>
      <trkpt lat="44.17619" lon="5.27414">
        <ele>1728.7</ele>
        <time>2026-05-14T11:56:13.000Z</time>
      </trkpt>
      <trkpt lat="44.17619" lon="5.27414">
        <ele>1728.6</ele>
        <time>2026-05-14T11:56:14.000Z</time>
      </trkpt>
      <trkpt lat="44.17619" lon="5.27415">
        <ele>1728.5</ele>
        <time>2026-05-14T11:56:15.000Z</time>
      </trkpt>
      <trkpt lat="44.17619" lon="5.27415">
        <ele>1728.5</ele>
        <time>2026-05-14T11:56:16.000Z</time>
      </trkpt>
      <trkpt lat="44.17619" lon="5.27415">
        <ele>1728.6</ele>
        <time>2026-05-14T11:56:17.000Z</time>
      </trkpt>
      <trkpt lat="44.17619" lon="5.27415">
        <ele>1728.7</ele>
        <time>2026-05-14T11:56:18.000Z</time>
      </trkpt>
      <trkpt lat="44.17619" lon="5.27415">
        <ele>1728.6</ele>
        <time>2026-05-14T11:56:19.000Z</time>
      </trkpt>
      <trkpt lat="44.17619" lon="5.27415">
        <ele>1728.3</ele>
        <time>2026-05-14T11:56:20.000Z</time>
      </trkpt>
      <trkpt lat="44.17619" lon="5.27415">
        <ele>1728</ele>
        <time>2026-05-14T11:56:21.000Z</time>
      </trkpt>
      <trkpt lat="44.17619" lon="5.27415">
        <ele>1727.4</ele>
        <time>2026-05-14T11:56:22.000Z</time>
      </trkpt>
      <trkpt lat="44.17619" lon="5.27415">
        <ele>1727</ele>
        <time>2026-05-14T11:56:23.000Z</time>
      </trkpt>
      <trkpt lat="44.17619" lon="5.27415">
        <ele>1726.7</ele>
        <time>2026-05-14T11:56:24.000Z</time>
      </trkpt>
      <trkpt lat="44.17619" lon="5.27415">
        <ele>1726.4</ele>
        <time>2026-05-14T11:56:25.000Z</time>
      </trkpt>
      <trkpt lat="44.17619" lon="5.27415">
        <ele>1726</ele>
        <time>2026-05-14T11:56:26.000Z</time>
      </trkpt>
      <trkpt lat="44.17619" lon="5.27415">
        <ele>1725.8</ele>
        <time>2026-05-14T11:56:27.000Z</time>
      </trkpt>
      <trkpt lat="44.17619" lon="5.27415">
        <ele>1725.7</ele>
        <time>2026-05-14T11:56:28.000Z</time>
      </trkpt>
      <trkpt lat="44.17619" lon="5.27415">
        <ele>1725.5</ele>
        <time>2026-05-14T11:56:29.000Z</time>
      </trkpt>
      <trkpt lat="44.17619" lon="5.27415">
        <ele>1725.3</ele>
        <time>2026-05-14T11:56:30.000Z</time>
      </trkpt>
      <trkpt lat="44.17619" lon="5.27415">
        <ele>1725.3</ele>
        <time>2026-05-14T11:56:31.000Z</time>
      </trkpt>
      <trkpt lat="44.17619" lon="5.27415">
        <ele>1725.6</ele>
        <time>2026-05-14T11:56:32.000Z</time>
      </trkpt>
      <trkpt lat="44.17619" lon="5.27415">
        <ele>1725.7</ele>
        <time>2026-05-14T11:56:33.000Z</time>
      </trkpt>
      <trkpt lat="44.17619" lon="5.27415">
        <ele>1725.3</ele>
        <time>2026-05-14T11:56:34.000Z</time>
      </trkpt>
      <trkpt lat="44.17619" lon="5.27415">
        <ele>1725.2</ele>
        <time>2026-05-14T11:56:35.000Z</time>
      </trkpt>
      <trkpt lat="44.17619" lon="5.27415">
        <ele>1725.3</ele>
        <time>2026-05-14T11:56:36.000Z</time>
      </trkpt>
      <trkpt lat="44.17619" lon="5.27415">
        <ele>1725.5</ele>
        <time>2026-05-14T11:56:37.000Z</time>
      </trkpt>
      <trkpt lat="44.17619" lon="5.27415">
        <ele>1725.9</ele>
        <time>2026-05-14T11:56:38.000Z</time>
      </trkpt>
      <trkpt lat="44.17619" lon="5.27415">
        <ele>1726.4</ele>
        <time>2026-05-14T11:56:39.000Z</time>
      </trkpt>
      <trkpt lat="44.17619" lon="5.27415">
        <ele>1726.9</ele>
        <time>2026-05-14T11:56:40.000Z</time>
      </trkpt>
      <trkpt lat="44.17619" lon="5.27415">
        <ele>1727.2</ele>
        <time>2026-05-14T11:56:41.000Z</time>
      </trkpt>
      <trkpt lat="44.17619" lon="5.27415">
        <ele>1727.4</ele>
        <time>2026-05-14T11:56:42.000Z</time>
      </trkpt>
      <trkpt lat="44.17619" lon="5.27415">
        <ele>1727.9</ele>
        <time>2026-05-14T11:56:43.000Z</time>
      </trkpt>
      <trkpt lat="44.17619" lon="5.27415">
        <ele>1728.1</ele>
        <time>2026-05-14T11:56:44.000Z</time>
      </trkpt>
      <trkpt lat="44.17619" lon="5.27415">
        <ele>1728.2</ele>
        <time>2026-05-14T11:56:45.000Z</time>
      </trkpt>
      <trkpt lat="44.17619" lon="5.27415">
        <ele>1728.3</ele>
        <time>2026-05-14T11:56:46.000Z</time>
      </trkpt>
      <trkpt lat="44.17619" lon="5.27415">
        <ele>1728.3</ele>
        <time>2026-05-14T11:56:47.000Z</time>
      </trkpt>
      <trkpt lat="44.17619" lon="5.27415">
        <ele>1728.3</ele>
        <time>2026-05-14T11:56:48.000Z</time>
      </trkpt>
      <trkpt lat="44.17619" lon="5.27415">
        <ele>1728.3</ele>
        <time>2026-05-14T11:56:49.000Z</time>
      </trkpt>
      <trkpt lat="44.17619" lon="5.27415">
        <ele>1728.2</ele>
        <time>2026-05-14T11:56:50.000Z</time>
      </trkpt>
      <trkpt lat="44.17619" lon="5.27415">
        <ele>1728.2</ele>
        <time>2026-05-14T11:56:51.000Z</time>
      </trkpt>
      <trkpt lat="44.17619" lon="5.27415">
        <ele>1728</ele>
        <time>2026-05-14T11:56:52.000Z</time>
      </trkpt>
      <trkpt lat="44.17619" lon="5.27415">
        <ele>1727.8</ele>
        <time>2026-05-14T11:56:53.000Z</time>
      </trkpt>
      <trkpt lat="44.17619" lon="5.27415">
        <ele>1727.6</ele>
        <time>2026-05-14T11:56:54.000Z</time>
      </trkpt>
      <trkpt lat="44.17619" lon="5.27415">
        <ele>1727.1</ele>
        <time>2026-05-14T11:56:55.000Z</time>
      </trkpt>
      <trkpt lat="44.17619" lon="5.27415">
        <ele>1726.9</ele>
        <time>2026-05-14T11:56:56.000Z</time>
      </trkpt>
      <trkpt lat="44.17619" lon="5.27415">
        <ele>1726.5</ele>
        <time>2026-05-14T11:56:57.000Z</time>
      </trkpt>
      <trkpt lat="44.17619" lon="5.27415">
        <ele>1726.6</ele>
        <time>2026-05-14T11:56:58.000Z</time>
      </trkpt>
      <trkpt lat="44.17619" lon="5.27415">
        <ele>1726.9</ele>
        <time>2026-05-14T11:56:59.000Z</time>
      </trkpt>
      <trkpt lat="44.17619" lon="5.27415">
        <ele>1727.1</ele>
        <time>2026-05-14T11:57:00.000Z</time>
      </trkpt>
      <trkpt lat="44.17619" lon="5.27415">
        <ele>1727.2</ele>
        <time>2026-05-14T11:57:01.000Z</time>
      </trkpt>
      <trkpt lat="44.17619" lon="5.27415">
        <ele>1727.2</ele>
        <time>2026-05-14T11:57:02.000Z</time>
      </trkpt>
      <trkpt lat="44.17619" lon="5.27415">
        <ele>1727</ele>
        <time>2026-05-14T11:57:03.000Z</time>
      </trkpt>
      <trkpt lat="44.17618" lon="5.27416">
        <ele>1727</ele>
        <time>2026-05-14T11:57:04.000Z</time>
      </trkpt>
      <trkpt lat="44.17618" lon="5.27415">
        <ele>1726.9</ele>
        <time>2026-05-14T11:57:05.000Z</time>
      </trkpt>
      <trkpt lat="44.17618" lon="5.27415">
        <ele>1726.9</ele>
        <time>2026-05-14T11:57:06.000Z</time>
      </trkpt>
      <trkpt lat="44.17618" lon="5.27415">
        <ele>1727</ele>
        <time>2026-05-14T11:57:07.000Z</time>
      </trkpt>
      <trkpt lat="44.17618" lon="5.27415">
        <ele>1727.1</ele>
        <time>2026-05-14T11:57:08.000Z</time>
      </trkpt>
      <trkpt lat="44.17618" lon="5.27415">
        <ele>1727.3</ele>
        <time>2026-05-14T11:57:09.000Z</time>
      </trkpt>
      <trkpt lat="44.17618" lon="5.27415">
        <ele>1727.4</ele>
        <time>2026-05-14T11:57:10.000Z</time>
      </trkpt>
      <trkpt lat="44.17618" lon="5.27415">
        <ele>1727.2</ele>
        <time>2026-05-14T11:57:11.000Z</time>
      </trkpt>
      <trkpt lat="44.17618" lon="5.27415">
        <ele>1726.9</ele>
        <time>2026-05-14T11:57:12.000Z</time>
      </trkpt>
      <trkpt lat="44.17618" lon="5.27415">
        <ele>1726.9</ele>
        <time>2026-05-14T11:57:13.000Z</time>
      </trkpt>
      <trkpt lat="44.17618" lon="5.27415">
        <ele>1726.8</ele>
        <time>2026-05-14T11:57:14.000Z</time>
      </trkpt>
      <trkpt lat="44.17618" lon="5.27415">
        <ele>1726.7</ele>
        <time>2026-05-14T11:57:15.000Z</time>
      </trkpt>
      <trkpt lat="44.17618" lon="5.27415">
        <ele>1726.9</ele>
        <time>2026-05-14T11:57:16.000Z</time>
      </trkpt>
      <trkpt lat="44.17618" lon="5.27415">
        <ele>1727.3</ele>
        <time>2026-05-14T11:57:17.000Z</time>
      </trkpt>
      <trkpt lat="44.17618" lon="5.27415">
        <ele>1727.5</ele>
        <time>2026-05-14T11:57:18.000Z</time>
      </trkpt>
      <trkpt lat="44.17618" lon="5.27415">
        <ele>1728</ele>
        <time>2026-05-14T11:57:19.000Z</time>
      </trkpt>
      <trkpt lat="44.17618" lon="5.27415">
        <ele>1728.1</ele>
        <time>2026-05-14T11:57:20.000Z</time>
      </trkpt>
      <trkpt lat="44.17618" lon="5.27415">
        <ele>1728.4</ele>
        <time>2026-05-14T11:57:21.000Z</time>
      </trkpt>
      <trkpt lat="44.17618" lon="5.27415">
        <ele>1728.8</ele>
        <time>2026-05-14T11:57:22.000Z</time>
      </trkpt>
      <trkpt lat="44.17618" lon="5.27415">
        <ele>1729</ele>
        <time>2026-05-14T11:57:23.000Z</time>
      </trkpt>
      <trkpt lat="44.17618" lon="5.27415">
        <ele>1729.3</ele>
        <time>2026-05-14T11:57:24.000Z</time>
      </trkpt>
      <trkpt lat="44.17618" lon="5.27415">
        <ele>1729.8</ele>
        <time>2026-05-14T11:57:25.000Z</time>
      </trkpt>
      <trkpt lat="44.17618" lon="5.27415">
        <ele>1730.2</ele>
        <time>2026-05-14T11:57:26.000Z</time>
      </trkpt>
      <trkpt lat="44.17618" lon="5.27415">
        <ele>1730.4</ele>
        <time>2026-05-14T11:57:27.000Z</time>
      </trkpt>
      <trkpt lat="44.17618" lon="5.27415">
        <ele>1730.5</ele>
        <time>2026-05-14T11:57:28.000Z</time>
      </trkpt>
      <trkpt lat="44.17618" lon="5.27415">
        <ele>1730.8</ele>
        <time>2026-05-14T11:57:29.000Z</time>
      </trkpt>
      <trkpt lat="44.17618" lon="5.27415">
        <ele>1730.8</ele>
        <time>2026-05-14T11:57:30.000Z</time>
      </trkpt>
      <trkpt lat="44.17618" lon="5.27415">
        <ele>1731</ele>
        <time>2026-05-14T11:57:31.000Z</time>
      </trkpt>
      <trkpt lat="44.17618" lon="5.27415">
        <ele>1731.3</ele>
        <time>2026-05-14T11:57:32.000Z</time>
      </trkpt>
      <trkpt lat="44.17618" lon="5.27415">
        <ele>1731.6</ele>
        <time>2026-05-14T11:57:33.000Z</time>
      </trkpt>
      <trkpt lat="44.17618" lon="5.27415">
        <ele>1731.8</ele>
        <time>2026-05-14T11:57:34.000Z</time>
      </trkpt>
      <trkpt lat="44.17618" lon="5.27415">
        <ele>1732</ele>
        <time>2026-05-14T11:57:35.000Z</time>
      </trkpt>
      <trkpt lat="44.17618" lon="5.27415">
        <ele>1731.9</ele>
        <time>2026-05-14T11:57:36.000Z</time>
      </trkpt>
      <trkpt lat="44.17618" lon="5.27415">
        <ele>1732</ele>
        <time>2026-05-14T11:57:37.000Z</time>
      </trkpt>
      <trkpt lat="44.17618" lon="5.27415">
        <ele>1732.1</ele>
        <time>2026-05-14T11:57:38.000Z</time>
      </trkpt>
      <trkpt lat="44.17618" lon="5.27415">
        <ele>1731.8</ele>
        <time>2026-05-14T11:57:39.000Z</time>
      </trkpt>
      <trkpt lat="44.17618" lon="5.27415">
        <ele>1731.4</ele>
        <time>2026-05-14T11:57:40.000Z</time>
      </trkpt>
      <trkpt lat="44.17618" lon="5.27415">
        <ele>1731</ele>
        <time>2026-05-14T11:57:41.000Z</time>
      </trkpt>
      <trkpt lat="44.17618" lon="5.27415">
        <ele>1730.8</ele>
        <time>2026-05-14T11:57:42.000Z</time>
      </trkpt>
      <trkpt lat="44.17618" lon="5.27415">
        <ele>1730.9</ele>
        <time>2026-05-14T11:57:43.000Z</time>
      </trkpt>
      <trkpt lat="44.17618" lon="5.27415">
        <ele>1730.9</ele>
        <time>2026-05-14T11:57:44.000Z</time>
      </trkpt>
      <trkpt lat="44.17618" lon="5.27415">
        <ele>1730.7</ele>
        <time>2026-05-14T11:57:45.000Z</time>
      </trkpt>
      <trkpt lat="44.17618" lon="5.27415">
        <ele>1730.4</ele>
        <time>2026-05-14T11:57:46.000Z</time>
      </trkpt>
      <trkpt lat="44.17618" lon="5.27415">
        <ele>1730.3</ele>
        <time>2026-05-14T11:57:47.000Z</time>
      </trkpt>
      <trkpt lat="44.17618" lon="5.27415">
        <ele>1730.9</ele>
        <time>2026-05-14T11:57:48.000Z</time>
      </trkpt>
      <trkpt lat="44.17618" lon="5.27415">
        <ele>1731.4</ele>
        <time>2026-05-14T11:57:49.000Z</time>
      </trkpt>
      <trkpt lat="44.17618" lon="5.27415">
        <ele>1732.1</ele>
        <time>2026-05-14T11:57:50.000Z</time>
      </trkpt>
      <trkpt lat="44.17618" lon="5.27415">
        <ele>1732.7</ele>
        <time>2026-05-14T11:57:51.000Z</time>
      </trkpt>
      <trkpt lat="44.17618" lon="5.27415">
        <ele>1733.2</ele>
        <time>2026-05-14T11:57:52.000Z</time>
      </trkpt>
      <trkpt lat="44.17618" lon="5.27415">
        <ele>1733.5</ele>
        <time>2026-05-14T11:57:53.000Z</time>
      </trkpt>
      <trkpt lat="44.17617" lon="5.27415">
        <ele>1733.8</ele>
        <time>2026-05-14T11:57:54.000Z</time>
      </trkpt>
      <trkpt lat="44.17617" lon="5.27415">
        <ele>1734.1</ele>
        <time>2026-05-14T11:57:55.000Z</time>
      </trkpt>
      <trkpt lat="44.17617" lon="5.27415">
        <ele>1734.4</ele>
        <time>2026-05-14T11:57:56.000Z</time>
      </trkpt>
      <trkpt lat="44.17617" lon="5.27415">
        <ele>1734.6</ele>
        <time>2026-05-14T11:57:57.000Z</time>
      </trkpt>
      <trkpt lat="44.17617" lon="5.27415">
        <ele>1734.9</ele>
        <time>2026-05-14T11:57:58.000Z</time>
      </trkpt>
      <trkpt lat="44.17617" lon="5.27415">
        <ele>1735.1</ele>
        <time>2026-05-14T11:57:59.000Z</time>
      </trkpt>
      <trkpt lat="44.17617" lon="5.27415">
        <ele>1735</ele>
        <time>2026-05-14T11:58:00.000Z</time>
      </trkpt>
      <trkpt lat="44.17617" lon="5.27415">
        <ele>1734.7</ele>
        <time>2026-05-14T11:58:01.000Z</time>
      </trkpt>
      <trkpt lat="44.17617" lon="5.27415">
        <ele>1734.6</ele>
        <time>2026-05-14T11:58:02.000Z</time>
      </trkpt>
      <trkpt lat="44.17617" lon="5.27415">
        <ele>1734.5</ele>
        <time>2026-05-14T11:58:03.000Z</time>
      </trkpt>
      <trkpt lat="44.17617" lon="5.27415">
        <ele>1734.3</ele>
        <time>2026-05-14T11:58:04.000Z</time>
      </trkpt>
      <trkpt lat="44.17617" lon="5.27415">
        <ele>1734.2</ele>
        <time>2026-05-14T11:58:05.000Z</time>
      </trkpt>
      <trkpt lat="44.17617" lon="5.27415">
        <ele>1734</ele>
        <time>2026-05-14T11:58:06.000Z</time>
      </trkpt>
      <trkpt lat="44.17617" lon="5.27415">
        <ele>1733.8</ele>
        <time>2026-05-14T11:58:07.000Z</time>
      </trkpt>
      <trkpt lat="44.17617" lon="5.27415">
        <ele>1733.8</ele>
        <time>2026-05-14T11:58:08.000Z</time>
      </trkpt>
      <trkpt lat="44.17617" lon="5.27415">
        <ele>1733.8</ele>
        <time>2026-05-14T11:58:09.000Z</time>
      </trkpt>
      <trkpt lat="44.17617" lon="5.27415">
        <ele>1733.8</ele>
        <time>2026-05-14T11:58:10.000Z</time>
      </trkpt>
      <trkpt lat="44.17617" lon="5.27415">
        <ele>1733.6</ele>
        <time>2026-05-14T11:58:11.000Z</time>
      </trkpt>
      <trkpt lat="44.17617" lon="5.27415">
        <ele>1733.4</ele>
        <time>2026-05-14T11:58:12.000Z</time>
      </trkpt>
      <trkpt lat="44.17617" lon="5.27415">
        <ele>1733.1</ele>
        <time>2026-05-14T11:58:13.000Z</time>
      </trkpt>
      <trkpt lat="44.17617" lon="5.27415">
        <ele>1732.8</ele>
        <time>2026-05-14T11:58:14.000Z</time>
      </trkpt>
      <trkpt lat="44.17617" lon="5.27415">
        <ele>1732.5</ele>
        <time>2026-05-14T11:58:15.000Z</time>
      </trkpt>
      <trkpt lat="44.17617" lon="5.27415">
        <ele>1732.2</ele>
        <time>2026-05-14T11:58:16.000Z</time>
      </trkpt>
      <trkpt lat="44.17617" lon="5.27415">
        <ele>1731.9</ele>
        <time>2026-05-14T11:58:17.000Z</time>
      </trkpt>
      <trkpt lat="44.17617" lon="5.27414">
        <ele>1731.6</ele>
        <time>2026-05-14T11:58:18.000Z</time>
      </trkpt>
      <trkpt lat="44.17617" lon="5.27414">
        <ele>1731.3</ele>
        <time>2026-05-14T11:58:19.000Z</time>
      </trkpt>
      <trkpt lat="44.17618" lon="5.27414">
        <ele>1731.1</ele>
        <time>2026-05-14T11:58:20.000Z</time>
      </trkpt>
      <trkpt lat="44.17618" lon="5.27414">
        <ele>1731</ele>
        <time>2026-05-14T11:58:21.000Z</time>
      </trkpt>
      <trkpt lat="44.17618" lon="5.27414">
        <ele>1731.1</ele>
        <time>2026-05-14T11:58:22.000Z</time>
      </trkpt>
      <trkpt lat="44.17618" lon="5.27414">
        <ele>1731.1</ele>
        <time>2026-05-14T11:58:23.000Z</time>
      </trkpt>
      <trkpt lat="44.17618" lon="5.27414">
        <ele>1731.1</ele>
        <time>2026-05-14T11:58:24.000Z</time>
      </trkpt>
      <trkpt lat="44.17618" lon="5.27414">
        <ele>1731.3</ele>
        <time>2026-05-14T11:58:25.000Z</time>
      </trkpt>
      <trkpt lat="44.17618" lon="5.27414">
        <ele>1731.3</ele>
        <time>2026-05-14T11:58:26.000Z</time>
      </trkpt>
      <trkpt lat="44.17618" lon="5.27414">
        <ele>1731.6</ele>
        <time>2026-05-14T11:58:27.000Z</time>
      </trkpt>
      <trkpt lat="44.17618" lon="5.27415">
        <ele>1731.4</ele>
        <time>2026-05-14T11:58:28.000Z</time>
      </trkpt>
      <trkpt lat="44.17618" lon="5.27415">
        <ele>1731.2</ele>
        <time>2026-05-14T11:58:29.000Z</time>
      </trkpt>
      <trkpt lat="44.17618" lon="5.27415">
        <ele>1731</ele>
        <time>2026-05-14T11:58:30.000Z</time>
      </trkpt>
      <trkpt lat="44.17618" lon="5.27415">
        <ele>1730.8</ele>
        <time>2026-05-14T11:58:31.000Z</time>
      </trkpt>
      <trkpt lat="44.17618" lon="5.27415">
        <ele>1730.8</ele>
        <time>2026-05-14T11:58:32.000Z</time>
      </trkpt>
      <trkpt lat="44.17618" lon="5.27415">
        <ele>1730.9</ele>
        <time>2026-05-14T11:58:33.000Z</time>
      </trkpt>
      <trkpt lat="44.17618" lon="5.27415">
        <ele>1730.9</ele>
        <time>2026-05-14T11:58:34.000Z</time>
      </trkpt>
      <trkpt lat="44.17618" lon="5.27415">
        <ele>1731.1</ele>
        <time>2026-05-14T11:58:35.000Z</time>
      </trkpt>
      <trkpt lat="44.17618" lon="5.27415">
        <ele>1731.3</ele>
        <time>2026-05-14T11:58:36.000Z</time>
      </trkpt>
      <trkpt lat="44.17618" lon="5.27415">
        <ele>1731.2</ele>
        <time>2026-05-14T11:58:37.000Z</time>
      </trkpt>
      <trkpt lat="44.17618" lon="5.27415">
        <ele>1731.2</ele>
        <time>2026-05-14T11:58:38.000Z</time>
      </trkpt>
      <trkpt lat="44.17618" lon="5.27415">
        <ele>1731.2</ele>
        <time>2026-05-14T11:58:39.000Z</time>
      </trkpt>
      <trkpt lat="44.17618" lon="5.27415">
        <ele>1731</ele>
        <time>2026-05-14T11:58:40.000Z</time>
      </trkpt>
      <trkpt lat="44.17618" lon="5.27415">
        <ele>1731.1</ele>
        <time>2026-05-14T11:58:41.000Z</time>
      </trkpt>
      <trkpt lat="44.17618" lon="5.27415">
        <ele>1731.3</ele>
        <time>2026-05-14T11:58:42.000Z</time>
      </trkpt>
      <trkpt lat="44.17618" lon="5.27414">
        <ele>1731.6</ele>
        <time>2026-05-14T11:58:43.000Z</time>
      </trkpt>
      <trkpt lat="44.17618" lon="5.27414">
        <ele>1731.8</ele>
        <time>2026-05-14T11:58:44.000Z</time>
      </trkpt>
      <trkpt lat="44.17618" lon="5.27414">
        <ele>1731.8</ele>
        <time>2026-05-14T11:58:45.000Z</time>
      </trkpt>
      <trkpt lat="44.17618" lon="5.27414">
        <ele>1732.2</ele>
        <time>2026-05-14T11:58:46.000Z</time>
      </trkpt>
      <trkpt lat="44.17618" lon="5.27414">
        <ele>1732.2</ele>
        <time>2026-05-14T11:58:47.000Z</time>
      </trkpt>
      <trkpt lat="44.17618" lon="5.27414">
        <ele>1732</ele>
        <time>2026-05-14T11:58:48.000Z</time>
      </trkpt>
      <trkpt lat="44.17618" lon="5.27414">
        <ele>1731.8</ele>
        <time>2026-05-14T11:58:49.000Z</time>
      </trkpt>
      <trkpt lat="44.17618" lon="5.27414">
        <ele>1731.7</ele>
        <time>2026-05-14T11:58:50.000Z</time>
      </trkpt>
      <trkpt lat="44.17618" lon="5.27414">
        <ele>1731.5</ele>
        <time>2026-05-14T11:58:51.000Z</time>
      </trkpt>
      <trkpt lat="44.17618" lon="5.27414">
        <ele>1731.3</ele>
        <time>2026-05-14T11:58:52.000Z</time>
      </trkpt>
      <trkpt lat="44.17618" lon="5.27414">
        <ele>1731.3</ele>
        <time>2026-05-14T11:58:53.000Z</time>
      </trkpt>
      <trkpt lat="44.17618" lon="5.27414">
        <ele>1731.1</ele>
        <time>2026-05-14T11:58:54.000Z</time>
      </trkpt>
      <trkpt lat="44.17618" lon="5.27414">
        <ele>1731</ele>
        <time>2026-05-14T11:58:55.000Z</time>
      </trkpt>
      <trkpt lat="44.17618" lon="5.27414">
        <ele>1731.1</ele>
        <time>2026-05-14T11:58:56.000Z</time>
      </trkpt>
      <trkpt lat="44.17618" lon="5.27414">
        <ele>1731.2</ele>
        <time>2026-05-14T11:58:57.000Z</time>
      </trkpt>
      <trkpt lat="44.17618" lon="5.27414">
        <ele>1731.2</ele>
        <time>2026-05-14T11:58:58.000Z</time>
      </trkpt>
      <trkpt lat="44.17618" lon="5.27414">
        <ele>1731.4</ele>
        <time>2026-05-14T11:58:59.000Z</time>
      </trkpt>
      <trkpt lat="44.17618" lon="5.27414">
        <ele>1731.5</ele>
        <time>2026-05-14T11:59:00.000Z</time>
      </trkpt>
      <trkpt lat="44.17618" lon="5.27414">
        <ele>1731.5</ele>
        <time>2026-05-14T11:59:01.000Z</time>
      </trkpt>
      <trkpt lat="44.17618" lon="5.27414">
        <ele>1731.6</ele>
        <time>2026-05-14T11:59:02.000Z</time>
      </trkpt>
      <trkpt lat="44.17618" lon="5.27414">
        <ele>1731.5</ele>
        <time>2026-05-14T11:59:03.000Z</time>
      </trkpt>
      <trkpt lat="44.17618" lon="5.27414">
        <ele>1731.4</ele>
        <time>2026-05-14T11:59:04.000Z</time>
      </trkpt>
      <trkpt lat="44.17618" lon="5.27414">
        <ele>1731.5</ele>
        <time>2026-05-14T11:59:05.000Z</time>
      </trkpt>
      <trkpt lat="44.17618" lon="5.27414">
        <ele>1731.9</ele>
        <time>2026-05-14T11:59:06.000Z</time>
      </trkpt>
      <trkpt lat="44.17618" lon="5.27414">
        <ele>1731.8</ele>
        <time>2026-05-14T11:59:07.000Z</time>
      </trkpt>
      <trkpt lat="44.17618" lon="5.27414">
        <ele>1731.5</ele>
        <time>2026-05-14T11:59:08.000Z</time>
      </trkpt>
      <trkpt lat="44.17618" lon="5.27414">
        <ele>1731.4</ele>
        <time>2026-05-14T11:59:09.000Z</time>
      </trkpt>
      <trkpt lat="44.17618" lon="5.27414">
        <ele>1731.2</ele>
        <time>2026-05-14T11:59:10.000Z</time>
      </trkpt>
      <trkpt lat="44.17618" lon="5.27414">
        <ele>1731.2</ele>
        <time>2026-05-14T11:59:11.000Z</time>
      </trkpt>
      <trkpt lat="44.17618" lon="5.27414">
        <ele>1731</ele>
        <time>2026-05-14T11:59:12.000Z</time>
      </trkpt>
      <trkpt lat="44.17618" lon="5.27414">
        <ele>1730.7</ele>
        <time>2026-05-14T11:59:13.000Z</time>
      </trkpt>
      <trkpt lat="44.17618" lon="5.27414">
        <ele>1730.6</ele>
        <time>2026-05-14T11:59:14.000Z</time>
      </trkpt>
      <trkpt lat="44.17618" lon="5.27414">
        <ele>1730.5</ele>
        <time>2026-05-14T11:59:15.000Z</time>
      </trkpt>
      <trkpt lat="44.17618" lon="5.27414">
        <ele>1730.5</ele>
        <time>2026-05-14T11:59:16.000Z</time>
      </trkpt>
      <trkpt lat="44.17618" lon="5.27414">
        <ele>1730</ele>
        <time>2026-05-14T11:59:17.000Z</time>
      </trkpt>
      <trkpt lat="44.17618" lon="5.27414">
        <ele>1729.8</ele>
        <time>2026-05-14T11:59:18.000Z</time>
      </trkpt>
      <trkpt lat="44.17618" lon="5.27414">
        <ele>1729.5</ele>
        <time>2026-05-14T11:59:19.000Z</time>
      </trkpt>
      <trkpt lat="44.17618" lon="5.27414">
        <ele>1729</ele>
        <time>2026-05-14T11:59:20.000Z</time>
      </trkpt>
      <trkpt lat="44.17618" lon="5.27414">
        <ele>1728.8</ele>
        <time>2026-05-14T11:59:21.000Z</time>
      </trkpt>
      <trkpt lat="44.17618" lon="5.27414">
        <ele>1728.7</ele>
        <time>2026-05-14T11:59:22.000Z</time>
      </trkpt>
      <trkpt lat="44.17618" lon="5.27414">
        <ele>1728.8</ele>
        <time>2026-05-14T11:59:23.000Z</time>
      </trkpt>
      <trkpt lat="44.17618" lon="5.27414">
        <ele>1728.8</ele>
        <time>2026-05-14T11:59:24.000Z</time>
      </trkpt>
      <trkpt lat="44.17618" lon="5.27414">
        <ele>1728.8</ele>
        <time>2026-05-14T11:59:25.000Z</time>
      </trkpt>
      <trkpt lat="44.17617" lon="5.27414">
        <ele>1728.9</ele>
        <time>2026-05-14T11:59:26.000Z</time>
      </trkpt>
      <trkpt lat="44.17617" lon="5.27414">
        <ele>1729</ele>
        <time>2026-05-14T11:59:27.000Z</time>
      </trkpt>
      <trkpt lat="44.17617" lon="5.27414">
        <ele>1729</ele>
        <time>2026-05-14T11:59:28.000Z</time>
      </trkpt>
      <trkpt lat="44.17617" lon="5.27414">
        <ele>1728.7</ele>
        <time>2026-05-14T11:59:29.000Z</time>
      </trkpt>
      <trkpt lat="44.17617" lon="5.27414">
        <ele>1728.5</ele>
        <time>2026-05-14T11:59:30.000Z</time>
      </trkpt>
      <trkpt lat="44.17617" lon="5.27414">
        <ele>1728.4</ele>
        <time>2026-05-14T11:59:31.000Z</time>
      </trkpt>
      <trkpt lat="44.17617" lon="5.27414">
        <ele>1728.2</ele>
        <time>2026-05-14T11:59:32.000Z</time>
      </trkpt>
      <trkpt lat="44.17617" lon="5.27414">
        <ele>1728.2</ele>
        <time>2026-05-14T11:59:33.000Z</time>
      </trkpt>
      <trkpt lat="44.17617" lon="5.27414">
        <ele>1728.1</ele>
        <time>2026-05-14T11:59:34.000Z</time>
      </trkpt>
      <trkpt lat="44.17617" lon="5.27414">
        <ele>1728</ele>
        <time>2026-05-14T11:59:35.000Z</time>
      </trkpt>
      <trkpt lat="44.17617" lon="5.27414">
        <ele>1728.4</ele>
        <time>2026-05-14T11:59:36.000Z</time>
      </trkpt>
      <trkpt lat="44.17617" lon="5.27415">
        <ele>1728.5</ele>
        <time>2026-05-14T11:59:37.000Z</time>
      </trkpt>
      <trkpt lat="44.17617" lon="5.27415">
        <ele>1728.6</ele>
        <time>2026-05-14T11:59:38.000Z</time>
      </trkpt>
      <trkpt lat="44.17617" lon="5.27415">
        <ele>1728.6</ele>
        <time>2026-05-14T11:59:39.000Z</time>
      </trkpt>
      <trkpt lat="44.17617" lon="5.27415">
        <ele>1728.6</ele>
        <time>2026-05-14T11:59:40.000Z</time>
      </trkpt>
      <trkpt lat="44.17617" lon="5.27415">
        <ele>1728.4</ele>
        <time>2026-05-14T11:59:41.000Z</time>
      </trkpt>
      <trkpt lat="44.17617" lon="5.27415">
        <ele>1728.6</ele>
        <time>2026-05-14T11:59:42.000Z</time>
      </trkpt>
      <trkpt lat="44.17617" lon="5.27415">
        <ele>1728.6</ele>
        <time>2026-05-14T11:59:43.000Z</time>
      </trkpt>
      <trkpt lat="44.17617" lon="5.27414">
        <ele>1728.6</ele>
        <time>2026-05-14T11:59:44.000Z</time>
      </trkpt>
      <trkpt lat="44.17617" lon="5.27414">
        <ele>1729.1</ele>
        <time>2026-05-14T11:59:45.000Z</time>
      </trkpt>
      <trkpt lat="44.17617" lon="5.27414">
        <ele>1729.4</ele>
        <time>2026-05-14T11:59:46.000Z</time>
      </trkpt>
      <trkpt lat="44.17617" lon="5.27414">
        <ele>1730</ele>
        <time>2026-05-14T11:59:47.000Z</time>
      </trkpt>
      <trkpt lat="44.17617" lon="5.27415">
        <ele>1730.3</ele>
        <time>2026-05-14T11:59:48.000Z</time>
      </trkpt>
      <trkpt lat="44.17618" lon="5.27416">
        <ele>1730.6</ele>
        <time>2026-05-14T11:59:49.000Z</time>
      </trkpt>
      <trkpt lat="44.17618" lon="5.27416">
        <ele>1730.9</ele>
        <time>2026-05-14T11:59:50.000Z</time>
      </trkpt>
      <trkpt lat="44.17618" lon="5.27416">
        <ele>1731</ele>
        <time>2026-05-14T11:59:51.000Z</time>
      </trkpt>
      <trkpt lat="44.17617" lon="5.27416">
        <ele>1731</ele>
        <time>2026-05-14T11:59:52.000Z</time>
      </trkpt>
      <trkpt lat="44.17617" lon="5.27416">
        <ele>1730.9</ele>
        <time>2026-05-14T11:59:53.000Z</time>
      </trkpt>
      <trkpt lat="44.17617" lon="5.27416">
        <ele>1731</ele>
        <time>2026-05-14T11:59:54.000Z</time>
      </trkpt>
      <trkpt lat="44.17618" lon="5.27417">
        <ele>1730.9</ele>
        <time>2026-05-14T11:59:55.000Z</time>
      </trkpt>
      <trkpt lat="44.17618" lon="5.27417">
        <ele>1731</ele>
        <time>2026-05-14T11:59:56.000Z</time>
      </trkpt>
      <trkpt lat="44.17618" lon="5.27418">
        <ele>1731</ele>
        <time>2026-05-14T11:59:57.000Z</time>
      </trkpt>
      <trkpt lat="44.17619" lon="5.27419">
        <ele>1731</ele>
        <time>2026-05-14T11:59:58.000Z</time>
      </trkpt>
      <trkpt lat="44.17619" lon="5.27419">
        <ele>1731.3</ele>
        <time>2026-05-14T11:59:59.000Z</time>
      </trkpt>
      <trkpt lat="44.1762" lon="5.2742">
        <ele>1731.5</ele>
        <time>2026-05-14T12:00:00.000Z</time>
      </trkpt>
      <trkpt lat="44.1762" lon="5.2742">
        <ele>1731.6</ele>
        <time>2026-05-14T12:00:01.000Z</time>
      </trkpt>
      <trkpt lat="44.1762" lon="5.2742">
        <ele>1731.6</ele>
        <time>2026-05-14T12:00:02.000Z</time>
      </trkpt>
      <trkpt lat="44.1762" lon="5.2742">
        <ele>1731.8</ele>
        <time>2026-05-14T12:00:03.000Z</time>
      </trkpt>
      <trkpt lat="44.1762" lon="5.2742">
        <ele>1731.8</ele>
        <time>2026-05-14T12:00:04.000Z</time>
      </trkpt>
      <trkpt lat="44.17621" lon="5.2742">
        <ele>1732</ele>
        <time>2026-05-14T12:00:05.000Z</time>
      </trkpt>
      <trkpt lat="44.17622" lon="5.2742">
        <ele>1731.9</ele>
        <time>2026-05-14T12:00:06.000Z</time>
      </trkpt>
      <trkpt lat="44.17622" lon="5.27421">
        <ele>1731.7</ele>
        <time>2026-05-14T12:00:07.000Z</time>
      </trkpt>
      <trkpt lat="44.17622" lon="5.27421">
        <ele>1731.4</ele>
        <time>2026-05-14T12:00:08.000Z</time>
      </trkpt>
      <trkpt lat="44.17622" lon="5.27421">
        <ele>1731</ele>
        <time>2026-05-14T12:00:09.000Z</time>
      </trkpt>
      <trkpt lat="44.17623" lon="5.27421">
        <ele>1730.6</ele>
        <time>2026-05-14T12:00:10.000Z</time>
      </trkpt>
      <trkpt lat="44.17623" lon="5.27421">
        <ele>1730.3</ele>
        <time>2026-05-14T12:00:11.000Z</time>
      </trkpt>
      <trkpt lat="44.17623" lon="5.27421">
        <ele>1729.9</ele>
        <time>2026-05-14T12:00:12.000Z</time>
      </trkpt>
      <trkpt lat="44.17623" lon="5.27421">
        <ele>1729.7</ele>
        <time>2026-05-14T12:00:13.000Z</time>
      </trkpt>
      <trkpt lat="44.17623" lon="5.27421">
        <ele>1729.9</ele>
        <time>2026-05-14T12:00:14.000Z</time>
      </trkpt>
      <trkpt lat="44.17623" lon="5.2742">
        <ele>1730</ele>
        <time>2026-05-14T12:00:15.000Z</time>
      </trkpt>
      <trkpt lat="44.17623" lon="5.27421">
        <ele>1730.1</ele>
        <time>2026-05-14T12:00:16.000Z</time>
      </trkpt>
      <trkpt lat="44.17623" lon="5.27421">
        <ele>1729.9</ele>
        <time>2026-05-14T12:00:17.000Z</time>
      </trkpt>
      <trkpt lat="44.17623" lon="5.2742">
        <ele>1729.7</ele>
        <time>2026-05-14T12:00:18.000Z</time>
      </trkpt>
      <trkpt lat="44.17623" lon="5.2742">
        <ele>1729.7</ele>
        <time>2026-05-14T12:00:19.000Z</time>
      </trkpt>
      <trkpt lat="44.17623" lon="5.2742">
        <ele>1729.6</ele>
        <time>2026-05-14T12:00:20.000Z</time>
      </trkpt>
      <trkpt lat="44.17622" lon="5.2742">
        <ele>1729.7</ele>
        <time>2026-05-14T12:00:21.000Z</time>
      </trkpt>
      <trkpt lat="44.17622" lon="5.2742">
        <ele>1729.9</ele>
        <time>2026-05-14T12:00:22.000Z</time>
      </trkpt>
      <trkpt lat="44.17622" lon="5.2742">
        <ele>1729.9</ele>
        <time>2026-05-14T12:00:23.000Z</time>
      </trkpt>
      <trkpt lat="44.17622" lon="5.2742">
        <ele>1730.1</ele>
        <time>2026-05-14T12:00:24.000Z</time>
      </trkpt>
      <trkpt lat="44.17622" lon="5.2742">
        <ele>1730.2</ele>
        <time>2026-05-14T12:00:25.000Z</time>
      </trkpt>
      <trkpt lat="44.17622" lon="5.2742">
        <ele>1730.3</ele>
        <time>2026-05-14T12:00:26.000Z</time>
      </trkpt>
      <trkpt lat="44.17622" lon="5.27421">
        <ele>1730.3</ele>
        <time>2026-05-14T12:00:27.000Z</time>
      </trkpt>
      <trkpt lat="44.17623" lon="5.27421">
        <ele>1730.2</ele>
        <time>2026-05-14T12:00:28.000Z</time>
      </trkpt>
      <trkpt lat="44.17622" lon="5.27422">
        <ele>1730.2</ele>
        <time>2026-05-14T12:00:29.000Z</time>
      </trkpt>
      <trkpt lat="44.17622" lon="5.27422">
        <ele>1730.3</ele>
        <time>2026-05-14T12:00:30.000Z</time>
      </trkpt>
      <trkpt lat="44.17622" lon="5.27421">
        <ele>1730.2</ele>
        <time>2026-05-14T12:00:31.000Z</time>
      </trkpt>
      <trkpt lat="44.17622" lon="5.27421">
        <ele>1730.1</ele>
        <time>2026-05-14T12:00:32.000Z</time>
      </trkpt>
      <trkpt lat="44.17622" lon="5.27421">
        <ele>1730.1</ele>
        <time>2026-05-14T12:00:33.000Z</time>
      </trkpt>
      <trkpt lat="44.17623" lon="5.27422">
        <ele>1730</ele>
        <time>2026-05-14T12:00:34.000Z</time>
      </trkpt>
      <trkpt lat="44.17624" lon="5.27421">
        <ele>1730.1</ele>
        <time>2026-05-14T12:00:35.000Z</time>
      </trkpt>
      <trkpt lat="44.17625" lon="5.27421">
        <ele>1730</ele>
        <time>2026-05-14T12:00:36.000Z</time>
      </trkpt>
      <trkpt lat="44.17625" lon="5.27421">
        <ele>1729.8</ele>
        <time>2026-05-14T12:00:37.000Z</time>
      </trkpt>
      <trkpt lat="44.17625" lon="5.27421">
        <ele>1729.7</ele>
        <time>2026-05-14T12:00:38.000Z</time>
      </trkpt>
      <trkpt lat="44.17625" lon="5.27421">
        <ele>1730</ele>
        <time>2026-05-14T12:00:39.000Z</time>
      </trkpt>
      <trkpt lat="44.17625" lon="5.27421">
        <ele>1730.5</ele>
        <time>2026-05-14T12:00:40.000Z</time>
      </trkpt>
      <trkpt lat="44.17625" lon="5.2742">
        <ele>1730.7</ele>
        <time>2026-05-14T12:00:41.000Z</time>
      </trkpt>
      <trkpt lat="44.17625" lon="5.2742">
        <ele>1730.5</ele>
        <time>2026-05-14T12:00:42.000Z</time>
      </trkpt>
      <trkpt lat="44.17625" lon="5.2742">
        <ele>1730.3</ele>
        <time>2026-05-14T12:00:43.000Z</time>
      </trkpt>
      <trkpt lat="44.17624" lon="5.2742">
        <ele>1730.3</ele>
        <time>2026-05-14T12:00:44.000Z</time>
      </trkpt>
      <trkpt lat="44.17624" lon="5.2742">
        <ele>1730.3</ele>
        <time>2026-05-14T12:00:45.000Z</time>
      </trkpt>
      <trkpt lat="44.17624" lon="5.2742">
        <ele>1730.6</ele>
        <time>2026-05-14T12:00:46.000Z</time>
      </trkpt>
      <trkpt lat="44.17624" lon="5.2742">
        <ele>1730.7</ele>
        <time>2026-05-14T12:00:47.000Z</time>
      </trkpt>
      <trkpt lat="44.17624" lon="5.2742">
        <ele>1730.8</ele>
        <time>2026-05-14T12:00:48.000Z</time>
      </trkpt>
      <trkpt lat="44.17624" lon="5.2742">
        <ele>1731.1</ele>
        <time>2026-05-14T12:00:49.000Z</time>
      </trkpt>
      <trkpt lat="44.17624" lon="5.2742">
        <ele>1731.2</ele>
        <time>2026-05-14T12:00:50.000Z</time>
      </trkpt>
      <trkpt lat="44.17625" lon="5.2742">
        <ele>1731.4</ele>
        <time>2026-05-14T12:00:51.000Z</time>
      </trkpt>
      <trkpt lat="44.17626" lon="5.2742">
        <ele>1731.2</ele>
        <time>2026-05-14T12:00:52.000Z</time>
      </trkpt>
      <trkpt lat="44.17628" lon="5.27419">
        <ele>1731.1</ele>
        <time>2026-05-14T12:00:53.000Z</time>
      </trkpt>
      <trkpt lat="44.17629" lon="5.27418">
        <ele>1730.9</ele>
        <time>2026-05-14T12:00:54.000Z</time>
      </trkpt>
      <trkpt lat="44.17631" lon="5.27416">
        <ele>1731</ele>
        <time>2026-05-14T12:00:55.000Z</time>
      </trkpt>
      <trkpt lat="44.17631" lon="5.27414">
        <ele>1731.1</ele>
        <time>2026-05-14T12:00:56.000Z</time>
      </trkpt>
      <trkpt lat="44.17631" lon="5.27413">
        <ele>1730.9</ele>
        <time>2026-05-14T12:00:57.000Z</time>
      </trkpt>
      <trkpt lat="44.17631" lon="5.27412">
        <ele>1730.5</ele>
        <time>2026-05-14T12:00:58.000Z</time>
      </trkpt>
      <trkpt lat="44.17632" lon="5.27411">
        <ele>1730.3</ele>
        <time>2026-05-14T12:00:59.000Z</time>
      </trkpt>
      <trkpt lat="44.17632" lon="5.27409">
        <ele>1730</ele>
        <time>2026-05-14T12:01:00.000Z</time>
      </trkpt>
      <trkpt lat="44.17633" lon="5.27408">
        <ele>1729.8</ele>
        <time>2026-05-14T12:01:01.000Z</time>
      </trkpt>
      <trkpt lat="44.17634" lon="5.27406">
        <ele>1729.5</ele>
        <time>2026-05-14T12:01:02.000Z</time>
      </trkpt>
      <trkpt lat="44.17634" lon="5.27406">
        <ele>1729.4</ele>
        <time>2026-05-14T12:01:03.000Z</time>
      </trkpt>
      <trkpt lat="44.17634" lon="5.27405">
        <ele>1729.3</ele>
        <time>2026-05-14T12:01:04.000Z</time>
      </trkpt>
      <trkpt lat="44.17635" lon="5.27404">
        <ele>1729.5</ele>
        <time>2026-05-14T12:01:05.000Z</time>
      </trkpt>
      <trkpt lat="44.17636" lon="5.27404">
        <ele>1729.6</ele>
        <time>2026-05-14T12:01:06.000Z</time>
      </trkpt>
      <trkpt lat="44.17637" lon="5.27403">
        <ele>1729.6</ele>
        <time>2026-05-14T12:01:07.000Z</time>
      </trkpt>
      <trkpt lat="44.17637" lon="5.27403">
        <ele>1729.6</ele>
        <time>2026-05-14T12:01:08.000Z</time>
      </trkpt>
      <trkpt lat="44.17637" lon="5.27403">
        <ele>1730</ele>
        <time>2026-05-14T12:01:09.000Z</time>
      </trkpt>
      <trkpt lat="44.17638" lon="5.27404">
        <ele>1729.9</ele>
        <time>2026-05-14T12:01:10.000Z</time>
      </trkpt>
      <trkpt lat="44.17638" lon="5.27404">
        <ele>1729.7</ele>
        <time>2026-05-14T12:01:11.000Z</time>
      </trkpt>
      <trkpt lat="44.17639" lon="5.27404">
        <ele>1729.3</ele>
        <time>2026-05-14T12:01:12.000Z</time>
      </trkpt>
      <trkpt lat="44.1764" lon="5.27405">
        <ele>1729</ele>
        <time>2026-05-14T12:01:13.000Z</time>
      </trkpt>
      <trkpt lat="44.1764" lon="5.27406">
        <ele>1728.5</ele>
        <time>2026-05-14T12:01:14.000Z</time>
      </trkpt>
      <trkpt lat="44.17641" lon="5.27406">
        <ele>1728.3</ele>
        <time>2026-05-14T12:01:15.000Z</time>
      </trkpt>
      <trkpt lat="44.17641" lon="5.27406">
        <ele>1727.5</ele>
        <time>2026-05-14T12:01:16.000Z</time>
      </trkpt>
      <trkpt lat="44.17642" lon="5.27405">
        <ele>1726.5</ele>
        <time>2026-05-14T12:01:17.000Z</time>
      </trkpt>
      <trkpt lat="44.17642" lon="5.27402">
        <ele>1725.6</ele>
        <time>2026-05-14T12:01:18.000Z</time>
      </trkpt>
      <trkpt lat="44.17643" lon="5.274">
        <ele>1725.2</ele>
        <time>2026-05-14T12:01:19.000Z</time>
      </trkpt>
      <trkpt lat="44.17643" lon="5.27399">
        <ele>1724.6</ele>
        <time>2026-05-14T12:01:20.000Z</time>
      </trkpt>
      <trkpt lat="44.17644" lon="5.27397">
        <ele>1724.3</ele>
        <time>2026-05-14T12:01:21.000Z</time>
      </trkpt>
      <trkpt lat="44.17644" lon="5.27396">
        <ele>1724.4</ele>
        <time>2026-05-14T12:01:22.000Z</time>
      </trkpt>
      <trkpt lat="44.17645" lon="5.27394">
        <ele>1724.2</ele>
        <time>2026-05-14T12:01:23.000Z</time>
      </trkpt>
      <trkpt lat="44.17645" lon="5.27393">
        <ele>1724</ele>
        <time>2026-05-14T12:01:24.000Z</time>
      </trkpt>
      <trkpt lat="44.17646" lon="5.27393">
        <ele>1724</ele>
        <time>2026-05-14T12:01:25.000Z</time>
      </trkpt>
      <trkpt lat="44.17646" lon="5.27392">
        <ele>1724.1</ele>
        <time>2026-05-14T12:01:26.000Z</time>
      </trkpt>
      <trkpt lat="44.17647" lon="5.27392">
        <ele>1723.8</ele>
        <time>2026-05-14T12:01:27.000Z</time>
      </trkpt>
      <trkpt lat="44.17648" lon="5.27392">
        <ele>1723.3</ele>
        <time>2026-05-14T12:01:28.000Z</time>
      </trkpt>
      <trkpt lat="44.17649" lon="5.27392">
        <ele>1723</ele>
        <time>2026-05-14T12:01:29.000Z</time>
      </trkpt>
      <trkpt lat="44.1765" lon="5.27391">
        <ele>1722.7</ele>
        <time>2026-05-14T12:01:30.000Z</time>
      </trkpt>
      <trkpt lat="44.17651" lon="5.27391">
        <ele>1722.3</ele>
        <time>2026-05-14T12:01:31.000Z</time>
      </trkpt>
      <trkpt lat="44.17651" lon="5.27391">
        <ele>1721.8</ele>
        <time>2026-05-14T12:01:32.000Z</time>
      </trkpt>
      <trkpt lat="44.17652" lon="5.27391">
        <ele>1721.2</ele>
        <time>2026-05-14T12:01:33.000Z</time>
      </trkpt>
      <trkpt lat="44.17652" lon="5.27391">
        <ele>1720.9</ele>
        <time>2026-05-14T12:01:34.000Z</time>
      </trkpt>
      <trkpt lat="44.17653" lon="5.27391">
        <ele>1720.4</ele>
        <time>2026-05-14T12:01:35.000Z</time>
      </trkpt>
      <trkpt lat="44.17654" lon="5.2739">
        <ele>1720</ele>
        <time>2026-05-14T12:01:36.000Z</time>
      </trkpt>
      <trkpt lat="44.17655" lon="5.27389">
        <ele>1719.8</ele>
        <time>2026-05-14T12:01:37.000Z</time>
      </trkpt>
      <trkpt lat="44.17656" lon="5.27389">
        <ele>1719.5</ele>
        <time>2026-05-14T12:01:38.000Z</time>
      </trkpt>
      <trkpt lat="44.17657" lon="5.27389">
        <ele>1719.3</ele>
        <time>2026-05-14T12:01:39.000Z</time>
      </trkpt>
      <trkpt lat="44.17658" lon="5.27389">
        <ele>1719.3</ele>
        <time>2026-05-14T12:01:40.000Z</time>
      </trkpt>
      <trkpt lat="44.1766" lon="5.27389">
        <ele>1719.1</ele>
        <time>2026-05-14T12:01:41.000Z</time>
      </trkpt>
      <trkpt lat="44.17661" lon="5.27388">
        <ele>1719.4</ele>
        <time>2026-05-14T12:01:42.000Z</time>
      </trkpt>
      <trkpt lat="44.17662" lon="5.27388">
        <ele>1719.2</ele>
        <time>2026-05-14T12:01:43.000Z</time>
      </trkpt>
      <trkpt lat="44.17662" lon="5.27387">
        <ele>1718.8</ele>
        <time>2026-05-14T12:01:44.000Z</time>
      </trkpt>
      <trkpt lat="44.17663" lon="5.27386">
        <ele>1718.2</ele>
        <time>2026-05-14T12:01:45.000Z</time>
      </trkpt>
      <trkpt lat="44.17664" lon="5.27386">
        <ele>1717.7</ele>
        <time>2026-05-14T12:01:46.000Z</time>
      </trkpt>
      <trkpt lat="44.17664" lon="5.27386">
        <ele>1717.3</ele>
        <time>2026-05-14T12:01:47.000Z</time>
      </trkpt>
      <trkpt lat="44.17666" lon="5.27386">
        <ele>1717</ele>
        <time>2026-05-14T12:01:48.000Z</time>
      </trkpt>
      <trkpt lat="44.17667" lon="5.27386">
        <ele>1716.8</ele>
        <time>2026-05-14T12:01:49.000Z</time>
      </trkpt>
      <trkpt lat="44.17668" lon="5.27385">
        <ele>1716.8</ele>
        <time>2026-05-14T12:01:50.000Z</time>
      </trkpt>
      <trkpt lat="44.17669" lon="5.27384">
        <ele>1716.5</ele>
        <time>2026-05-14T12:01:51.000Z</time>
      </trkpt>
      <trkpt lat="44.1767" lon="5.27383">
        <ele>1716.4</ele>
        <time>2026-05-14T12:01:52.000Z</time>
      </trkpt>
      <trkpt lat="44.1767" lon="5.27381">
        <ele>1716.3</ele>
        <time>2026-05-14T12:01:53.000Z</time>
      </trkpt>
      <trkpt lat="44.17671" lon="5.2738">
        <ele>1716.1</ele>
        <time>2026-05-14T12:01:54.000Z</time>
      </trkpt>
      <trkpt lat="44.17671" lon="5.2738">
        <ele>1715.9</ele>
        <time>2026-05-14T12:01:55.000Z</time>
      </trkpt>
      <trkpt lat="44.17672" lon="5.2738">
        <ele>1715.5</ele>
        <time>2026-05-14T12:01:56.000Z</time>
      </trkpt>
      <trkpt lat="44.17673" lon="5.27379">
        <ele>1715.7</ele>
        <time>2026-05-14T12:01:57.000Z</time>
      </trkpt>
      <trkpt lat="44.17673" lon="5.27379">
        <ele>1715.4</ele>
        <time>2026-05-14T12:01:58.000Z</time>
      </trkpt>
      <trkpt lat="44.17674" lon="5.27378">
        <ele>1715.3</ele>
        <time>2026-05-14T12:01:59.000Z</time>
      </trkpt>
      <trkpt lat="44.17676" lon="5.27379">
        <ele>1714.8</ele>
        <time>2026-05-14T12:02:00.000Z</time>
      </trkpt>
      <trkpt lat="44.17676" lon="5.27379">
        <ele>1714</ele>
        <time>2026-05-14T12:02:01.000Z</time>
      </trkpt>
      <trkpt lat="44.17676" lon="5.2738">
        <ele>1713.4</ele>
        <time>2026-05-14T12:02:02.000Z</time>
      </trkpt>
      <trkpt lat="44.17677" lon="5.27381">
        <ele>1713.2</ele>
        <time>2026-05-14T12:02:03.000Z</time>
      </trkpt>
      <trkpt lat="44.17678" lon="5.27381">
        <ele>1713.2</ele>
        <time>2026-05-14T12:02:04.000Z</time>
      </trkpt>
      <trkpt lat="44.17679" lon="5.27381">
        <ele>1713.3</ele>
        <time>2026-05-14T12:02:05.000Z</time>
      </trkpt>
      <trkpt lat="44.1768" lon="5.2738">
        <ele>1713.1</ele>
        <time>2026-05-14T12:02:06.000Z</time>
      </trkpt>
      <trkpt lat="44.17681" lon="5.2738">
        <ele>1713.1</ele>
        <time>2026-05-14T12:02:07.000Z</time>
      </trkpt>
      <trkpt lat="44.17682" lon="5.2738">
        <ele>1713.1</ele>
        <time>2026-05-14T12:02:08.000Z</time>
      </trkpt>
      <trkpt lat="44.17683" lon="5.2738">
        <ele>1713.2</ele>
        <time>2026-05-14T12:02:09.000Z</time>
      </trkpt>
      <trkpt lat="44.17683" lon="5.27379">
        <ele>1713.3</ele>
        <time>2026-05-14T12:02:10.000Z</time>
      </trkpt>
      <trkpt lat="44.17683" lon="5.27378">
        <ele>1713.1</ele>
        <time>2026-05-14T12:02:11.000Z</time>
      </trkpt>
      <trkpt lat="44.17683" lon="5.27378">
        <ele>1713.2</ele>
        <time>2026-05-14T12:02:12.000Z</time>
      </trkpt>
      <trkpt lat="44.17684" lon="5.27378">
        <ele>1713.2</ele>
        <time>2026-05-14T12:02:13.000Z</time>
      </trkpt>
      <trkpt lat="44.17685" lon="5.27378">
        <ele>1713.4</ele>
        <time>2026-05-14T12:02:14.000Z</time>
      </trkpt>
      <trkpt lat="44.17687" lon="5.27377">
        <ele>1713.8</ele>
        <time>2026-05-14T12:02:15.000Z</time>
      </trkpt>
      <trkpt lat="44.17688" lon="5.27376">
        <ele>1714</ele>
        <time>2026-05-14T12:02:16.000Z</time>
      </trkpt>
      <trkpt lat="44.17689" lon="5.27375">
        <ele>1714.4</ele>
        <time>2026-05-14T12:02:17.000Z</time>
      </trkpt>
      <trkpt lat="44.1769" lon="5.27374">
        <ele>1714.3</ele>
        <time>2026-05-14T12:02:18.000Z</time>
      </trkpt>
      <trkpt lat="44.17691" lon="5.27372">
        <ele>1714.4</ele>
        <time>2026-05-14T12:02:19.000Z</time>
      </trkpt>
      <trkpt lat="44.17691" lon="5.2737">
        <ele>1714.8</ele>
        <time>2026-05-14T12:02:20.000Z</time>
      </trkpt>
      <trkpt lat="44.17692" lon="5.2737">
        <ele>1714.8</ele>
        <time>2026-05-14T12:02:21.000Z</time>
      </trkpt>
      <trkpt lat="44.17693" lon="5.27369">
        <ele>1714.7</ele>
        <time>2026-05-14T12:02:22.000Z</time>
      </trkpt>
      <trkpt lat="44.17694" lon="5.27368">
        <ele>1714.5</ele>
        <time>2026-05-14T12:02:23.000Z</time>
      </trkpt>
      <trkpt lat="44.17695" lon="5.27368">
        <ele>1714</ele>
        <time>2026-05-14T12:02:24.000Z</time>
      </trkpt>
      <trkpt lat="44.17695" lon="5.27368">
        <ele>1713.7</ele>
        <time>2026-05-14T12:02:25.000Z</time>
      </trkpt>
      <trkpt lat="44.17697" lon="5.27367">
        <ele>1713.5</ele>
        <time>2026-05-14T12:02:26.000Z</time>
      </trkpt>
      <trkpt lat="44.17698" lon="5.27366">
        <ele>1713.2</ele>
        <time>2026-05-14T12:02:27.000Z</time>
      </trkpt>
      <trkpt lat="44.177" lon="5.27366">
        <ele>1713</ele>
        <time>2026-05-14T12:02:28.000Z</time>
      </trkpt>
      <trkpt lat="44.17701" lon="5.27366">
        <ele>1712.8</ele>
        <time>2026-05-14T12:02:29.000Z</time>
      </trkpt>
      <trkpt lat="44.17702" lon="5.27365">
        <ele>1712.3</ele>
        <time>2026-05-14T12:02:30.000Z</time>
      </trkpt>
      <trkpt lat="44.17702" lon="5.27364">
        <ele>1711.4</ele>
        <time>2026-05-14T12:02:31.000Z</time>
      </trkpt>
      <trkpt lat="44.17703" lon="5.27364">
        <ele>1710.6</ele>
        <time>2026-05-14T12:02:32.000Z</time>
      </trkpt>
      <trkpt lat="44.17703" lon="5.27364">
        <ele>1710</ele>
        <time>2026-05-14T12:02:33.000Z</time>
      </trkpt>
      <trkpt lat="44.17703" lon="5.27365">
        <ele>1709.2</ele>
        <time>2026-05-14T12:02:34.000Z</time>
      </trkpt>
      <trkpt lat="44.17703" lon="5.27365">
        <ele>1708.9</ele>
        <time>2026-05-14T12:02:35.000Z</time>
      </trkpt>
      <trkpt lat="44.17703" lon="5.27365">
        <ele>1708.2</ele>
        <time>2026-05-14T12:02:36.000Z</time>
      </trkpt>
      <trkpt lat="44.17704" lon="5.27365">
        <ele>1707.6</ele>
        <time>2026-05-14T12:02:37.000Z</time>
      </trkpt>
      <trkpt lat="44.17704" lon="5.27364">
        <ele>1706.7</ele>
        <time>2026-05-14T12:02:38.000Z</time>
      </trkpt>
      <trkpt lat="44.17706" lon="5.27364">
        <ele>1705.9</ele>
        <time>2026-05-14T12:02:39.000Z</time>
      </trkpt>
      <trkpt lat="44.17707" lon="5.27364">
        <ele>1705.1</ele>
        <time>2026-05-14T12:02:40.000Z</time>
      </trkpt>
      <trkpt lat="44.17708" lon="5.27363">
        <ele>1704</ele>
        <time>2026-05-14T12:02:41.000Z</time>
      </trkpt>
      <trkpt lat="44.17709" lon="5.27363">
        <ele>1703.1</ele>
        <time>2026-05-14T12:02:42.000Z</time>
      </trkpt>
      <trkpt lat="44.1771" lon="5.27363">
        <ele>1702.7</ele>
        <time>2026-05-14T12:02:43.000Z</time>
      </trkpt>
      <trkpt lat="44.17711" lon="5.27363">
        <ele>1702.6</ele>
        <time>2026-05-14T12:02:44.000Z</time>
      </trkpt>
      <trkpt lat="44.17712" lon="5.27363">
        <ele>1702.3</ele>
        <time>2026-05-14T12:02:45.000Z</time>
      </trkpt>
      <trkpt lat="44.17712" lon="5.27362">
        <ele>1702.2</ele>
        <time>2026-05-14T12:02:46.000Z</time>
      </trkpt>
      <trkpt lat="44.17713" lon="5.27361">
        <ele>1702.3</ele>
        <time>2026-05-14T12:02:47.000Z</time>
      </trkpt>
      <trkpt lat="44.17713" lon="5.27359">
        <ele>1702.3</ele>
        <time>2026-05-14T12:02:48.000Z</time>
      </trkpt>
      <trkpt lat="44.17713" lon="5.27359">
        <ele>1702.3</ele>
        <time>2026-05-14T12:02:49.000Z</time>
      </trkpt>
      <trkpt lat="44.17714" lon="5.27359">
        <ele>1701.8</ele>
        <time>2026-05-14T12:02:50.000Z</time>
      </trkpt>
      <trkpt lat="44.17715" lon="5.2736">
        <ele>1701.3</ele>
        <time>2026-05-14T12:02:51.000Z</time>
      </trkpt>
      <trkpt lat="44.17716" lon="5.27361">
        <ele>1700.6</ele>
        <time>2026-05-14T12:02:52.000Z</time>
      </trkpt>
      <trkpt lat="44.17716" lon="5.27361">
        <ele>1700.6</ele>
        <time>2026-05-14T12:02:53.000Z</time>
      </trkpt>
      <trkpt lat="44.17717" lon="5.2736">
        <ele>1700.7</ele>
        <time>2026-05-14T12:02:54.000Z</time>
      </trkpt>
      <trkpt lat="44.17717" lon="5.2736">
        <ele>1700.9</ele>
        <time>2026-05-14T12:02:55.000Z</time>
      </trkpt>
      <trkpt lat="44.17718" lon="5.27359">
        <ele>1701.1</ele>
        <time>2026-05-14T12:02:56.000Z</time>
      </trkpt>
      <trkpt lat="44.1772" lon="5.27359">
        <ele>1700.4</ele>
        <time>2026-05-14T12:02:57.000Z</time>
      </trkpt>
      <trkpt lat="44.17721" lon="5.27359">
        <ele>1699.9</ele>
        <time>2026-05-14T12:02:58.000Z</time>
      </trkpt>
      <trkpt lat="44.17721" lon="5.27359">
        <ele>1699.4</ele>
        <time>2026-05-14T12:02:59.000Z</time>
      </trkpt>
      <trkpt lat="44.17722" lon="5.27358">
        <ele>1698.8</ele>
        <time>2026-05-14T12:03:00.000Z</time>
      </trkpt>
      <trkpt lat="44.17723" lon="5.27357">
        <ele>1697.9</ele>
        <time>2026-05-14T12:03:01.000Z</time>
      </trkpt>
      <trkpt lat="44.17723" lon="5.27356">
        <ele>1697.4</ele>
        <time>2026-05-14T12:03:02.000Z</time>
      </trkpt>
      <trkpt lat="44.17724" lon="5.27355">
        <ele>1697.2</ele>
        <time>2026-05-14T12:03:03.000Z</time>
      </trkpt>
      <trkpt lat="44.17724" lon="5.27355">
        <ele>1697</ele>
        <time>2026-05-14T12:03:04.000Z</time>
      </trkpt>
      <trkpt lat="44.17724" lon="5.27354">
        <ele>1696.9</ele>
        <time>2026-05-14T12:03:05.000Z</time>
      </trkpt>
      <trkpt lat="44.17724" lon="5.27353">
        <ele>1696.7</ele>
        <time>2026-05-14T12:03:06.000Z</time>
      </trkpt>
      <trkpt lat="44.17725" lon="5.27354">
        <ele>1696.4</ele>
        <time>2026-05-14T12:03:07.000Z</time>
      </trkpt>
      <trkpt lat="44.17726" lon="5.27354">
        <ele>1696</ele>
        <time>2026-05-14T12:03:08.000Z</time>
      </trkpt>
      <trkpt lat="44.17727" lon="5.27354">
        <ele>1695.4</ele>
        <time>2026-05-14T12:03:09.000Z</time>
      </trkpt>
      <trkpt lat="44.17728" lon="5.27353">
        <ele>1694.7</ele>
        <time>2026-05-14T12:03:10.000Z</time>
      </trkpt>
      <trkpt lat="44.17729" lon="5.27352">
        <ele>1694.4</ele>
        <time>2026-05-14T12:03:11.000Z</time>
      </trkpt>
      <trkpt lat="44.1773" lon="5.27351">
        <ele>1694.2</ele>
        <time>2026-05-14T12:03:12.000Z</time>
      </trkpt>
      <trkpt lat="44.17731" lon="5.2735">
        <ele>1694</ele>
        <time>2026-05-14T12:03:13.000Z</time>
      </trkpt>
      <trkpt lat="44.17733" lon="5.2735">
        <ele>1693.8</ele>
        <time>2026-05-14T12:03:14.000Z</time>
      </trkpt>
      <trkpt lat="44.17734" lon="5.2735">
        <ele>1693.5</ele>
        <time>2026-05-14T12:03:15.000Z</time>
      </trkpt>
      <trkpt lat="44.17736" lon="5.2735">
        <ele>1693.1</ele>
        <time>2026-05-14T12:03:16.000Z</time>
      </trkpt>
      <trkpt lat="44.17737" lon="5.2735">
        <ele>1692.5</ele>
        <time>2026-05-14T12:03:17.000Z</time>
      </trkpt>
      <trkpt lat="44.17738" lon="5.27349">
        <ele>1691.9</ele>
        <time>2026-05-14T12:03:18.000Z</time>
      </trkpt>
      <trkpt lat="44.1774" lon="5.27349">
        <ele>1691.4</ele>
        <time>2026-05-14T12:03:19.000Z</time>
      </trkpt>
      <trkpt lat="44.17741" lon="5.2735">
        <ele>1691.1</ele>
        <time>2026-05-14T12:03:20.000Z</time>
      </trkpt>
      <trkpt lat="44.17742" lon="5.2735">
        <ele>1691.1</ele>
        <time>2026-05-14T12:03:21.000Z</time>
      </trkpt>
      <trkpt lat="44.17743" lon="5.2735">
        <ele>1691.2</ele>
        <time>2026-05-14T12:03:22.000Z</time>
      </trkpt>
      <trkpt lat="44.17744" lon="5.2735">
        <ele>1691.1</ele>
        <time>2026-05-14T12:03:23.000Z</time>
      </trkpt>
      <trkpt lat="44.17745" lon="5.2735">
        <ele>1691.1</ele>
        <time>2026-05-14T12:03:24.000Z</time>
      </trkpt>
      <trkpt lat="44.17746" lon="5.27351">
        <ele>1691</ele>
        <time>2026-05-14T12:03:25.000Z</time>
      </trkpt>
      <trkpt lat="44.17746" lon="5.27351">
        <ele>1691</ele>
        <time>2026-05-14T12:03:26.000Z</time>
      </trkpt>
      <trkpt lat="44.17747" lon="5.2735">
        <ele>1690.7</ele>
        <time>2026-05-14T12:03:27.000Z</time>
      </trkpt>
      <trkpt lat="44.17747" lon="5.2735">
        <ele>1689.9</ele>
        <time>2026-05-14T12:03:28.000Z</time>
      </trkpt>
      <trkpt lat="44.17747" lon="5.2735">
        <ele>1689</ele>
        <time>2026-05-14T12:03:29.000Z</time>
      </trkpt>
      <trkpt lat="44.17748" lon="5.2735">
        <ele>1688.4</ele>
        <time>2026-05-14T12:03:30.000Z</time>
      </trkpt>
      <trkpt lat="44.17749" lon="5.27349">
        <ele>1688.1</ele>
        <time>2026-05-14T12:03:31.000Z</time>
      </trkpt>
      <trkpt lat="44.1775" lon="5.27349">
        <ele>1688.4</ele>
        <time>2026-05-14T12:03:32.000Z</time>
      </trkpt>
      <trkpt lat="44.17751" lon="5.27348">
        <ele>1688.3</ele>
        <time>2026-05-14T12:03:33.000Z</time>
      </trkpt>
      <trkpt lat="44.17752" lon="5.27347">
        <ele>1687.8</ele>
        <time>2026-05-14T12:03:34.000Z</time>
      </trkpt>
      <trkpt lat="44.17753" lon="5.27347">
        <ele>1687.5</ele>
        <time>2026-05-14T12:03:35.000Z</time>
      </trkpt>
      <trkpt lat="44.17753" lon="5.27347">
        <ele>1687.8</ele>
        <time>2026-05-14T12:03:36.000Z</time>
      </trkpt>
      <trkpt lat="44.17754" lon="5.27348">
        <ele>1687.4</ele>
        <time>2026-05-14T12:03:37.000Z</time>
      </trkpt>
      <trkpt lat="44.17755" lon="5.27349">
        <ele>1687.2</ele>
        <time>2026-05-14T12:03:38.000Z</time>
      </trkpt>
      <trkpt lat="44.17756" lon="5.27349">
        <ele>1686.8</ele>
        <time>2026-05-14T12:03:39.000Z</time>
      </trkpt>
      <trkpt lat="44.17757" lon="5.27349">
        <ele>1686.1</ele>
        <time>2026-05-14T12:03:40.000Z</time>
      </trkpt>
      <trkpt lat="44.17758" lon="5.27348">
        <ele>1685.7</ele>
        <time>2026-05-14T12:03:41.000Z</time>
      </trkpt>
      <trkpt lat="44.1776" lon="5.27347">
        <ele>1685.3</ele>
        <time>2026-05-14T12:03:42.000Z</time>
      </trkpt>
      <trkpt lat="44.17761" lon="5.27346">
        <ele>1685.2</ele>
        <time>2026-05-14T12:03:43.000Z</time>
      </trkpt>
      <trkpt lat="44.17762" lon="5.27345">
        <ele>1685.4</ele>
        <time>2026-05-14T12:03:44.000Z</time>
      </trkpt>
      <trkpt lat="44.17763" lon="5.27345">
        <ele>1685.2</ele>
        <time>2026-05-14T12:03:45.000Z</time>
      </trkpt>
      <trkpt lat="44.17764" lon="5.27346">
        <ele>1684.8</ele>
        <time>2026-05-14T12:03:46.000Z</time>
      </trkpt>
      <trkpt lat="44.17764" lon="5.27346">
        <ele>1684.6</ele>
        <time>2026-05-14T12:03:47.000Z</time>
      </trkpt>
      <trkpt lat="44.17765" lon="5.27345">
        <ele>1684.4</ele>
        <time>2026-05-14T12:03:48.000Z</time>
      </trkpt>
      <trkpt lat="44.17765" lon="5.27345">
        <ele>1684.3</ele>
        <time>2026-05-14T12:03:49.000Z</time>
      </trkpt>
      <trkpt lat="44.17766" lon="5.27345">
        <ele>1684.2</ele>
        <time>2026-05-14T12:03:50.000Z</time>
      </trkpt>
      <trkpt lat="44.17767" lon="5.27345">
        <ele>1683.7</ele>
        <time>2026-05-14T12:03:51.000Z</time>
      </trkpt>
      <trkpt lat="44.17768" lon="5.27345">
        <ele>1683.1</ele>
        <time>2026-05-14T12:03:52.000Z</time>
      </trkpt>
      <trkpt lat="44.17768" lon="5.27345">
        <ele>1682.3</ele>
        <time>2026-05-14T12:03:53.000Z</time>
      </trkpt>
      <trkpt lat="44.17768" lon="5.27345">
        <ele>1681.9</ele>
        <time>2026-05-14T12:03:54.000Z</time>
      </trkpt>
      <trkpt lat="44.17769" lon="5.27345">
        <ele>1681.7</ele>
        <time>2026-05-14T12:03:55.000Z</time>
      </trkpt>
      <trkpt lat="44.1777" lon="5.27344">
        <ele>1681.4</ele>
        <time>2026-05-14T12:03:56.000Z</time>
      </trkpt>
      <trkpt lat="44.17772" lon="5.27343">
        <ele>1681.5</ele>
        <time>2026-05-14T12:03:57.000Z</time>
      </trkpt>
      <trkpt lat="44.17773" lon="5.27342">
        <ele>1681.7</ele>
        <time>2026-05-14T12:03:58.000Z</time>
      </trkpt>
      <trkpt lat="44.17775" lon="5.27341">
        <ele>1681.6</ele>
        <time>2026-05-14T12:03:59.000Z</time>
      </trkpt>
      <trkpt lat="44.17776" lon="5.2734">
        <ele>1681.4</ele>
        <time>2026-05-14T12:04:00.000Z</time>
      </trkpt>
      <trkpt lat="44.17777" lon="5.27339">
        <ele>1681.1</ele>
        <time>2026-05-14T12:04:01.000Z</time>
      </trkpt>
      <trkpt lat="44.17778" lon="5.27339">
        <ele>1680.5</ele>
        <time>2026-05-14T12:04:02.000Z</time>
      </trkpt>
      <trkpt lat="44.17779" lon="5.27339">
        <ele>1680.1</ele>
        <time>2026-05-14T12:04:03.000Z</time>
      </trkpt>
      <trkpt lat="44.1778" lon="5.27339">
        <ele>1679.3</ele>
        <time>2026-05-14T12:04:04.000Z</time>
      </trkpt>
      <trkpt lat="44.17781" lon="5.27339">
        <ele>1678.8</ele>
        <time>2026-05-14T12:04:05.000Z</time>
      </trkpt>
      <trkpt lat="44.17782" lon="5.27338">
        <ele>1678.9</ele>
        <time>2026-05-14T12:04:06.000Z</time>
      </trkpt>
      <trkpt lat="44.17783" lon="5.27338">
        <ele>1678.9</ele>
        <time>2026-05-14T12:04:07.000Z</time>
      </trkpt>
      <trkpt lat="44.17784" lon="5.27337">
        <ele>1678.5</ele>
        <time>2026-05-14T12:04:08.000Z</time>
      </trkpt>
      <trkpt lat="44.17785" lon="5.27336">
        <ele>1678.5</ele>
        <time>2026-05-14T12:04:09.000Z</time>
      </trkpt>
      <trkpt lat="44.17786" lon="5.27334">
        <ele>1678.6</ele>
        <time>2026-05-14T12:04:10.000Z</time>
      </trkpt>
      <trkpt lat="44.17787" lon="5.27333">
        <ele>1678.3</ele>
        <time>2026-05-14T12:04:11.000Z</time>
      </trkpt>
      <trkpt lat="44.17788" lon="5.27333">
        <ele>1678</ele>
        <time>2026-05-14T12:04:12.000Z</time>
      </trkpt>
      <trkpt lat="44.17789" lon="5.27333">
        <ele>1677.8</ele>
        <time>2026-05-14T12:04:13.000Z</time>
      </trkpt>
      <trkpt lat="44.17789" lon="5.27334">
        <ele>1677.5</ele>
        <time>2026-05-14T12:04:14.000Z</time>
      </trkpt>
      <trkpt lat="44.1779" lon="5.27334">
        <ele>1677.5</ele>
        <time>2026-05-14T12:04:15.000Z</time>
      </trkpt>
      <trkpt lat="44.17791" lon="5.27334">
        <ele>1677.6</ele>
        <time>2026-05-14T12:04:16.000Z</time>
      </trkpt>
      <trkpt lat="44.17791" lon="5.27334">
        <ele>1677.2</ele>
        <time>2026-05-14T12:04:17.000Z</time>
      </trkpt>
      <trkpt lat="44.17792" lon="5.27334">
        <ele>1676.5</ele>
        <time>2026-05-14T12:04:18.000Z</time>
      </trkpt>
      <trkpt lat="44.17793" lon="5.27334">
        <ele>1676.3</ele>
        <time>2026-05-14T12:04:19.000Z</time>
      </trkpt>
      <trkpt lat="44.17794" lon="5.27334">
        <ele>1675.7</ele>
        <time>2026-05-14T12:04:20.000Z</time>
      </trkpt>
      <trkpt lat="44.17795" lon="5.27333">
        <ele>1675.4</ele>
        <time>2026-05-14T12:04:21.000Z</time>
      </trkpt>
      <trkpt lat="44.17795" lon="5.27332">
        <ele>1675.1</ele>
        <time>2026-05-14T12:04:22.000Z</time>
      </trkpt>
      <trkpt lat="44.17796" lon="5.27331">
        <ele>1675.4</ele>
        <time>2026-05-14T12:04:23.000Z</time>
      </trkpt>
      <trkpt lat="44.17797" lon="5.2733">
        <ele>1675.4</ele>
        <time>2026-05-14T12:04:24.000Z</time>
      </trkpt>
      <trkpt lat="44.17798" lon="5.27329">
        <ele>1675.4</ele>
        <time>2026-05-14T12:04:25.000Z</time>
      </trkpt>
      <trkpt lat="44.17798" lon="5.27329">
        <ele>1675.4</ele>
        <time>2026-05-14T12:04:26.000Z</time>
      </trkpt>
      <trkpt lat="44.17799" lon="5.27329">
        <ele>1675.1</ele>
        <time>2026-05-14T12:04:27.000Z</time>
      </trkpt>
      <trkpt lat="44.17799" lon="5.27329">
        <ele>1675.2</ele>
        <time>2026-05-14T12:04:28.000Z</time>
      </trkpt>
      <trkpt lat="44.178" lon="5.2733">
        <ele>1674.9</ele>
        <time>2026-05-14T12:04:29.000Z</time>
      </trkpt>
      <trkpt lat="44.17801" lon="5.27329">
        <ele>1674.7</ele>
        <time>2026-05-14T12:04:30.000Z</time>
      </trkpt>
      <trkpt lat="44.17802" lon="5.2733">
        <ele>1673.6</ele>
        <time>2026-05-14T12:04:31.000Z</time>
      </trkpt>
      <trkpt lat="44.17803" lon="5.27329">
        <ele>1673.1</ele>
        <time>2026-05-14T12:04:32.000Z</time>
      </trkpt>
      <trkpt lat="44.17803" lon="5.27329">
        <ele>1672.5</ele>
        <time>2026-05-14T12:04:33.000Z</time>
      </trkpt>
      <trkpt lat="44.17805" lon="5.27328">
        <ele>1672</ele>
        <time>2026-05-14T12:04:34.000Z</time>
      </trkpt>
      <trkpt lat="44.17805" lon="5.27328">
        <ele>1670.7</ele>
        <time>2026-05-14T12:04:35.000Z</time>
      </trkpt>
      <trkpt lat="44.17806" lon="5.27329">
        <ele>1670.4</ele>
        <time>2026-05-14T12:04:36.000Z</time>
      </trkpt>
      <trkpt lat="44.17808" lon="5.27329">
        <ele>1669.9</ele>
        <time>2026-05-14T12:04:37.000Z</time>
      </trkpt>
      <trkpt lat="44.17809" lon="5.27328">
        <ele>1669.6</ele>
        <time>2026-05-14T12:04:38.000Z</time>
      </trkpt>
      <trkpt lat="44.1781" lon="5.27327">
        <ele>1669.6</ele>
        <time>2026-05-14T12:04:39.000Z</time>
      </trkpt>
      <trkpt lat="44.17811" lon="5.27326">
        <ele>1669.9</ele>
        <time>2026-05-14T12:04:40.000Z</time>
      </trkpt>
      <trkpt lat="44.17812" lon="5.27325">
        <ele>1670.1</ele>
        <time>2026-05-14T12:04:41.000Z</time>
      </trkpt>
      <trkpt lat="44.17814" lon="5.27325">
        <ele>1670.1</ele>
        <time>2026-05-14T12:04:42.000Z</time>
      </trkpt>
      <trkpt lat="44.17815" lon="5.27324">
        <ele>1669.6</ele>
        <time>2026-05-14T12:04:43.000Z</time>
      </trkpt>
      <trkpt lat="44.17816" lon="5.27322">
        <ele>1669.3</ele>
        <time>2026-05-14T12:04:44.000Z</time>
      </trkpt>
      <trkpt lat="44.17817" lon="5.27321">
        <ele>1668.9</ele>
        <time>2026-05-14T12:04:45.000Z</time>
      </trkpt>
      <trkpt lat="44.17818" lon="5.2732">
        <ele>1668.5</ele>
        <time>2026-05-14T12:04:46.000Z</time>
      </trkpt>
      <trkpt lat="44.17819" lon="5.27319">
        <ele>1668.3</ele>
        <time>2026-05-14T12:04:47.000Z</time>
      </trkpt>
      <trkpt lat="44.1782" lon="5.27318">
        <ele>1668.2</ele>
        <time>2026-05-14T12:04:48.000Z</time>
      </trkpt>
      <trkpt lat="44.17821" lon="5.27319">
        <ele>1667.9</ele>
        <time>2026-05-14T12:04:49.000Z</time>
      </trkpt>
      <trkpt lat="44.17822" lon="5.27319">
        <ele>1667.6</ele>
        <time>2026-05-14T12:04:50.000Z</time>
      </trkpt>
      <trkpt lat="44.17822" lon="5.27319">
        <ele>1666.9</ele>
        <time>2026-05-14T12:04:51.000Z</time>
      </trkpt>
      <trkpt lat="44.17823" lon="5.27319">
        <ele>1666.5</ele>
        <time>2026-05-14T12:04:52.000Z</time>
      </trkpt>
      <trkpt lat="44.17824" lon="5.27319">
        <ele>1665.9</ele>
        <time>2026-05-14T12:04:53.000Z</time>
      </trkpt>
      <trkpt lat="44.17824" lon="5.27318">
        <ele>1665.2</ele>
        <time>2026-05-14T12:04:54.000Z</time>
      </trkpt>
      <trkpt lat="44.17825" lon="5.27318">
        <ele>1664.5</ele>
        <time>2026-05-14T12:04:55.000Z</time>
      </trkpt>
      <trkpt lat="44.17826" lon="5.27317">
        <ele>1664</ele>
        <time>2026-05-14T12:04:56.000Z</time>
      </trkpt>
      <trkpt lat="44.17826" lon="5.27315">
        <ele>1663.7</ele>
        <time>2026-05-14T12:04:57.000Z</time>
      </trkpt>
      <trkpt lat="44.17827" lon="5.27314">
        <ele>1663.3</ele>
        <time>2026-05-14T12:04:58.000Z</time>
      </trkpt>
      <trkpt lat="44.17829" lon="5.27314">
        <ele>1662.9</ele>
        <time>2026-05-14T12:04:59.000Z</time>
      </trkpt>
      <trkpt lat="44.1783" lon="5.27313">
        <ele>1662.5</ele>
        <time>2026-05-14T12:05:00.000Z</time>
      </trkpt>
      <trkpt lat="44.17831" lon="5.27312">
        <ele>1662.2</ele>
        <time>2026-05-14T12:05:01.000Z</time>
      </trkpt>
      <trkpt lat="44.17832" lon="5.27311">
        <ele>1662.2</ele>
        <time>2026-05-14T12:05:02.000Z</time>
      </trkpt>
      <trkpt lat="44.17832" lon="5.2731">
        <ele>1661.5</ele>
        <time>2026-05-14T12:05:03.000Z</time>
      </trkpt>
      <trkpt lat="44.17833" lon="5.27309">
        <ele>1661.1</ele>
        <time>2026-05-14T12:05:04.000Z</time>
      </trkpt>
      <trkpt lat="44.17834" lon="5.27308">
        <ele>1660.8</ele>
        <time>2026-05-14T12:05:05.000Z</time>
      </trkpt>
      <trkpt lat="44.17835" lon="5.27308">
        <ele>1660.3</ele>
        <time>2026-05-14T12:05:06.000Z</time>
      </trkpt>
      <trkpt lat="44.17836" lon="5.27308">
        <ele>1659.7</ele>
        <time>2026-05-14T12:05:07.000Z</time>
      </trkpt>
      <trkpt lat="44.17837" lon="5.27308">
        <ele>1659.3</ele>
        <time>2026-05-14T12:05:08.000Z</time>
      </trkpt>
      <trkpt lat="44.17838" lon="5.27306">
        <ele>1659</ele>
        <time>2026-05-14T12:05:09.000Z</time>
      </trkpt>
      <trkpt lat="44.17839" lon="5.27305">
        <ele>1658.5</ele>
        <time>2026-05-14T12:05:10.000Z</time>
      </trkpt>
      <trkpt lat="44.1784" lon="5.27304">
        <ele>1657.9</ele>
        <time>2026-05-14T12:05:11.000Z</time>
      </trkpt>
      <trkpt lat="44.17842" lon="5.27303">
        <ele>1657.6</ele>
        <time>2026-05-14T12:05:12.000Z</time>
      </trkpt>
      <trkpt lat="44.17844" lon="5.27302">
        <ele>1657.7</ele>
        <time>2026-05-14T12:05:13.000Z</time>
      </trkpt>
      <trkpt lat="44.17845" lon="5.27301">
        <ele>1657.5</ele>
        <time>2026-05-14T12:05:14.000Z</time>
      </trkpt>
      <trkpt lat="44.17846" lon="5.27301">
        <ele>1657.4</ele>
        <time>2026-05-14T12:05:15.000Z</time>
      </trkpt>
      <trkpt lat="44.17847" lon="5.273">
        <ele>1657.6</ele>
        <time>2026-05-14T12:05:16.000Z</time>
      </trkpt>
      <trkpt lat="44.17847" lon="5.27299">
        <ele>1658</ele>
        <time>2026-05-14T12:05:17.000Z</time>
      </trkpt>
      <trkpt lat="44.17847" lon="5.27299">
        <ele>1657.8</ele>
        <time>2026-05-14T12:05:18.000Z</time>
      </trkpt>
      <trkpt lat="44.17847" lon="5.27299">
        <ele>1657.8</ele>
        <time>2026-05-14T12:05:19.000Z</time>
      </trkpt>
      <trkpt lat="44.17847" lon="5.27299">
        <ele>1657.4</ele>
        <time>2026-05-14T12:05:20.000Z</time>
      </trkpt>
      <trkpt lat="44.17848" lon="5.27298">
        <ele>1657.4</ele>
        <time>2026-05-14T12:05:21.000Z</time>
      </trkpt>
      <trkpt lat="44.17848" lon="5.27297">
        <ele>1656.9</ele>
        <time>2026-05-14T12:05:22.000Z</time>
      </trkpt>
      <trkpt lat="44.17849" lon="5.27297">
        <ele>1656.6</ele>
        <time>2026-05-14T12:05:23.000Z</time>
      </trkpt>
      <trkpt lat="44.1785" lon="5.27297">
        <ele>1656.2</ele>
        <time>2026-05-14T12:05:24.000Z</time>
      </trkpt>
      <trkpt lat="44.17851" lon="5.27297">
        <ele>1656.2</ele>
        <time>2026-05-14T12:05:25.000Z</time>
      </trkpt>
      <trkpt lat="44.17853" lon="5.27295">
        <ele>1656.1</ele>
        <time>2026-05-14T12:05:26.000Z</time>
      </trkpt>
      <trkpt lat="44.17855" lon="5.27294">
        <ele>1656</ele>
        <time>2026-05-14T12:05:27.000Z</time>
      </trkpt>
      <trkpt lat="44.17856" lon="5.27293">
        <ele>1655.7</ele>
        <time>2026-05-14T12:05:28.000Z</time>
      </trkpt>
      <trkpt lat="44.17857" lon="5.27292">
        <ele>1655.4</ele>
        <time>2026-05-14T12:05:29.000Z</time>
      </trkpt>
      <trkpt lat="44.17859" lon="5.27292">
        <ele>1655.3</ele>
        <time>2026-05-14T12:05:30.000Z</time>
      </trkpt>
      <trkpt lat="44.1786" lon="5.27292">
        <ele>1654.8</ele>
        <time>2026-05-14T12:05:31.000Z</time>
      </trkpt>
      <trkpt lat="44.1786" lon="5.27292">
        <ele>1654.9</ele>
        <time>2026-05-14T12:05:32.000Z</time>
      </trkpt>
      <trkpt lat="44.17861" lon="5.27292">
        <ele>1654.8</ele>
        <time>2026-05-14T12:05:33.000Z</time>
      </trkpt>
      <trkpt lat="44.17862" lon="5.27292">
        <ele>1654.6</ele>
        <time>2026-05-14T12:05:34.000Z</time>
      </trkpt>
      <trkpt lat="44.17862" lon="5.27291">
        <ele>1654.2</ele>
        <time>2026-05-14T12:05:35.000Z</time>
      </trkpt>
      <trkpt lat="44.17862" lon="5.2729">
        <ele>1653.7</ele>
        <time>2026-05-14T12:05:36.000Z</time>
      </trkpt>
      <trkpt lat="44.17863" lon="5.2729">
        <ele>1653.1</ele>
        <time>2026-05-14T12:05:37.000Z</time>
      </trkpt>
      <trkpt lat="44.17863" lon="5.27288">
        <ele>1652.9</ele>
        <time>2026-05-14T12:05:38.000Z</time>
      </trkpt>
      <trkpt lat="44.17864" lon="5.27288">
        <ele>1652.6</ele>
        <time>2026-05-14T12:05:39.000Z</time>
      </trkpt>
      <trkpt lat="44.17865" lon="5.27287">
        <ele>1653</ele>
        <time>2026-05-14T12:05:40.000Z</time>
      </trkpt>
      <trkpt lat="44.17866" lon="5.27287">
        <ele>1653</ele>
        <time>2026-05-14T12:05:41.000Z</time>
      </trkpt>
      <trkpt lat="44.17866" lon="5.27285">
        <ele>1652.8</ele>
        <time>2026-05-14T12:05:42.000Z</time>
      </trkpt>
      <trkpt lat="44.17867" lon="5.27285">
        <ele>1652.5</ele>
        <time>2026-05-14T12:05:43.000Z</time>
      </trkpt>
      <trkpt lat="44.17868" lon="5.27284">
        <ele>1652.5</ele>
        <time>2026-05-14T12:05:44.000Z</time>
      </trkpt>
      <trkpt lat="44.17869" lon="5.27284">
        <ele>1652.9</ele>
        <time>2026-05-14T12:05:45.000Z</time>
      </trkpt>
      <trkpt lat="44.1787" lon="5.27284">
        <ele>1653</ele>
        <time>2026-05-14T12:05:46.000Z</time>
      </trkpt>
      <trkpt lat="44.17871" lon="5.27284">
        <ele>1652.9</ele>
        <time>2026-05-14T12:05:47.000Z</time>
      </trkpt>
      <trkpt lat="44.17872" lon="5.27284">
        <ele>1652.7</ele>
        <time>2026-05-14T12:05:48.000Z</time>
      </trkpt>
      <trkpt lat="44.17873" lon="5.27283">
        <ele>1652.4</ele>
        <time>2026-05-14T12:05:49.000Z</time>
      </trkpt>
      <trkpt lat="44.17875" lon="5.27282">
        <ele>1652.6</ele>
        <time>2026-05-14T12:05:50.000Z</time>
      </trkpt>
      <trkpt lat="44.17876" lon="5.2728">
        <ele>1652.8</ele>
        <time>2026-05-14T12:05:51.000Z</time>
      </trkpt>
      <trkpt lat="44.17876" lon="5.2728">
        <ele>1653.3</ele>
        <time>2026-05-14T12:05:52.000Z</time>
      </trkpt>
      <trkpt lat="44.17877" lon="5.27279">
        <ele>1652.7</ele>
        <time>2026-05-14T12:05:53.000Z</time>
      </trkpt>
      <trkpt lat="44.17878" lon="5.27278">
        <ele>1652.5</ele>
        <time>2026-05-14T12:05:54.000Z</time>
      </trkpt>
      <trkpt lat="44.1788" lon="5.27278">
        <ele>1652.3</ele>
        <time>2026-05-14T12:05:55.000Z</time>
      </trkpt>
      <trkpt lat="44.17881" lon="5.27276">
        <ele>1651.8</ele>
        <time>2026-05-14T12:05:56.000Z</time>
      </trkpt>
      <trkpt lat="44.17881" lon="5.27276">
        <ele>1651.7</ele>
        <time>2026-05-14T12:05:57.000Z</time>
      </trkpt>
      <trkpt lat="44.17883" lon="5.27275">
        <ele>1651.4</ele>
        <time>2026-05-14T12:05:58.000Z</time>
      </trkpt>
      <trkpt lat="44.17884" lon="5.27274">
        <ele>1651.2</ele>
        <time>2026-05-14T12:05:59.000Z</time>
      </trkpt>
      <trkpt lat="44.17884" lon="5.27274">
        <ele>1651</ele>
        <time>2026-05-14T12:06:00.000Z</time>
      </trkpt>
      <trkpt lat="44.17885" lon="5.27273">
        <ele>1651</ele>
        <time>2026-05-14T12:06:01.000Z</time>
      </trkpt>
      <trkpt lat="44.17885" lon="5.27273">
        <ele>1650.4</ele>
        <time>2026-05-14T12:06:02.000Z</time>
      </trkpt>
      <trkpt lat="44.17886" lon="5.27273">
        <ele>1649.7</ele>
        <time>2026-05-14T12:06:03.000Z</time>
      </trkpt>
      <trkpt lat="44.17887" lon="5.27273">
        <ele>1649.1</ele>
        <time>2026-05-14T12:06:04.000Z</time>
      </trkpt>
      <trkpt lat="44.17889" lon="5.27273">
        <ele>1648.6</ele>
        <time>2026-05-14T12:06:05.000Z</time>
      </trkpt>
      <trkpt lat="44.1789" lon="5.27273">
        <ele>1647.9</ele>
        <time>2026-05-14T12:06:06.000Z</time>
      </trkpt>
      <trkpt lat="44.17891" lon="5.27273">
        <ele>1647</ele>
        <time>2026-05-14T12:06:07.000Z</time>
      </trkpt>
      <trkpt lat="44.17893" lon="5.27274">
        <ele>1646</ele>
        <time>2026-05-14T12:06:08.000Z</time>
      </trkpt>
      <trkpt lat="44.17894" lon="5.27274">
        <ele>1645.2</ele>
        <time>2026-05-14T12:06:09.000Z</time>
      </trkpt>
      <trkpt lat="44.17896" lon="5.27273">
        <ele>1645.1</ele>
        <time>2026-05-14T12:06:10.000Z</time>
      </trkpt>
      <trkpt lat="44.17897" lon="5.27274">
        <ele>1644.7</ele>
        <time>2026-05-14T12:06:11.000Z</time>
      </trkpt>
      <trkpt lat="44.17899" lon="5.27273">
        <ele>1644.2</ele>
        <time>2026-05-14T12:06:12.000Z</time>
      </trkpt>
      <trkpt lat="44.17901" lon="5.27273">
        <ele>1643.3</ele>
        <time>2026-05-14T12:06:13.000Z</time>
      </trkpt>
      <trkpt lat="44.17902" lon="5.27272">
        <ele>1642.2</ele>
        <time>2026-05-14T12:06:14.000Z</time>
      </trkpt>
      <trkpt lat="44.17904" lon="5.27271">
        <ele>1641.4</ele>
        <time>2026-05-14T12:06:15.000Z</time>
      </trkpt>
      <trkpt lat="44.17905" lon="5.27269">
        <ele>1641.1</ele>
        <time>2026-05-14T12:06:16.000Z</time>
      </trkpt>
      <trkpt lat="44.17907" lon="5.27268">
        <ele>1640.4</ele>
        <time>2026-05-14T12:06:17.000Z</time>
      </trkpt>
      <trkpt lat="44.17908" lon="5.27266">
        <ele>1639.9</ele>
        <time>2026-05-14T12:06:18.000Z</time>
      </trkpt>
      <trkpt lat="44.17909" lon="5.27264">
        <ele>1639.4</ele>
        <time>2026-05-14T12:06:19.000Z</time>
      </trkpt>
      <trkpt lat="44.1791" lon="5.27263">
        <ele>1639.1</ele>
        <time>2026-05-14T12:06:20.000Z</time>
      </trkpt>
      <trkpt lat="44.1791" lon="5.27263">
        <ele>1639</ele>
        <time>2026-05-14T12:06:21.000Z</time>
      </trkpt>
      <trkpt lat="44.17911" lon="5.27262">
        <ele>1638.8</ele>
        <time>2026-05-14T12:06:22.000Z</time>
      </trkpt>
      <trkpt lat="44.17911" lon="5.27261">
        <ele>1638</ele>
        <time>2026-05-14T12:06:23.000Z</time>
      </trkpt>
      <trkpt lat="44.17912" lon="5.2726">
        <ele>1637.2</ele>
        <time>2026-05-14T12:06:24.000Z</time>
      </trkpt>
      <trkpt lat="44.17914" lon="5.2726">
        <ele>1636.3</ele>
        <time>2026-05-14T12:06:25.000Z</time>
      </trkpt>
      <trkpt lat="44.17915" lon="5.27259">
        <ele>1635.6</ele>
        <time>2026-05-14T12:06:26.000Z</time>
      </trkpt>
      <trkpt lat="44.17917" lon="5.27258">
        <ele>1634.7</ele>
        <time>2026-05-14T12:06:27.000Z</time>
      </trkpt>
      <trkpt lat="44.17918" lon="5.27257">
        <ele>1633.8</ele>
        <time>2026-05-14T12:06:28.000Z</time>
      </trkpt>
      <trkpt lat="44.17919" lon="5.27256">
        <ele>1632.8</ele>
        <time>2026-05-14T12:06:29.000Z</time>
      </trkpt>
      <trkpt lat="44.1792" lon="5.27255">
        <ele>1631.9</ele>
        <time>2026-05-14T12:06:30.000Z</time>
      </trkpt>
      <trkpt lat="44.17922" lon="5.27253">
        <ele>1631.4</ele>
        <time>2026-05-14T12:06:31.000Z</time>
      </trkpt>
      <trkpt lat="44.17923" lon="5.27252">
        <ele>1630.9</ele>
        <time>2026-05-14T12:06:32.000Z</time>
      </trkpt>
      <trkpt lat="44.17925" lon="5.27251">
        <ele>1630.4</ele>
        <time>2026-05-14T12:06:33.000Z</time>
      </trkpt>
      <trkpt lat="44.17926" lon="5.27251">
        <ele>1629.7</ele>
        <time>2026-05-14T12:06:34.000Z</time>
      </trkpt>
      <trkpt lat="44.17928" lon="5.2725">
        <ele>1629.1</ele>
        <time>2026-05-14T12:06:35.000Z</time>
      </trkpt>
      <trkpt lat="44.17929" lon="5.27249">
        <ele>1628.5</ele>
        <time>2026-05-14T12:06:36.000Z</time>
      </trkpt>
      <trkpt lat="44.17931" lon="5.27248">
        <ele>1628.2</ele>
        <time>2026-05-14T12:06:37.000Z</time>
      </trkpt>
      <trkpt lat="44.17932" lon="5.27247">
        <ele>1627.9</ele>
        <time>2026-05-14T12:06:38.000Z</time>
      </trkpt>
      <trkpt lat="44.17934" lon="5.27246">
        <ele>1627.2</ele>
        <time>2026-05-14T12:06:39.000Z</time>
      </trkpt>
      <trkpt lat="44.17935" lon="5.27246">
        <ele>1626.5</ele>
        <time>2026-05-14T12:06:40.000Z</time>
      </trkpt>
      <trkpt lat="44.17936" lon="5.27246">
        <ele>1625.8</ele>
        <time>2026-05-14T12:06:41.000Z</time>
      </trkpt>
      <trkpt lat="44.17937" lon="5.27246">
        <ele>1625.1</ele>
        <time>2026-05-14T12:06:42.000Z</time>
      </trkpt>
      <trkpt lat="44.17938" lon="5.27246">
        <ele>1624.2</ele>
        <time>2026-05-14T12:06:43.000Z</time>
      </trkpt>
      <trkpt lat="44.17939" lon="5.27245">
        <ele>1623.5</ele>
        <time>2026-05-14T12:06:44.000Z</time>
      </trkpt>
      <trkpt lat="44.1794" lon="5.27244">
        <ele>1622.9</ele>
        <time>2026-05-14T12:06:45.000Z</time>
      </trkpt>
      <trkpt lat="44.17941" lon="5.27244">
        <ele>1622.5</ele>
        <time>2026-05-14T12:06:46.000Z</time>
      </trkpt>
      <trkpt lat="44.17941" lon="5.27244">
        <ele>1622.1</ele>
        <time>2026-05-14T12:06:47.000Z</time>
      </trkpt>
      <trkpt lat="44.17941" lon="5.27244">
        <ele>1621.5</ele>
        <time>2026-05-14T12:06:48.000Z</time>
      </trkpt>
      <trkpt lat="44.17942" lon="5.27244">
        <ele>1621.3</ele>
        <time>2026-05-14T12:06:49.000Z</time>
      </trkpt>
      <trkpt lat="44.17942" lon="5.27243">
        <ele>1621</ele>
        <time>2026-05-14T12:06:50.000Z</time>
      </trkpt>
      <trkpt lat="44.17943" lon="5.27242">
        <ele>1620.4</ele>
        <time>2026-05-14T12:06:51.000Z</time>
      </trkpt>
      <trkpt lat="44.17944" lon="5.27241">
        <ele>1620.1</ele>
        <time>2026-05-14T12:06:52.000Z</time>
      </trkpt>
      <trkpt lat="44.17944" lon="5.27241">
        <ele>1619.6</ele>
        <time>2026-05-14T12:06:53.000Z</time>
      </trkpt>
      <trkpt lat="44.17945" lon="5.2724">
        <ele>1619.3</ele>
        <time>2026-05-14T12:06:54.000Z</time>
      </trkpt>
      <trkpt lat="44.17946" lon="5.2724">
        <ele>1619</ele>
        <time>2026-05-14T12:06:55.000Z</time>
      </trkpt>
      <trkpt lat="44.17947" lon="5.2724">
        <ele>1619</ele>
        <time>2026-05-14T12:06:56.000Z</time>
      </trkpt>
      <trkpt lat="44.17949" lon="5.27239">
        <ele>1618.9</ele>
        <time>2026-05-14T12:06:57.000Z</time>
      </trkpt>
      <trkpt lat="44.17951" lon="5.27239">
        <ele>1618.8</ele>
        <time>2026-05-14T12:06:58.000Z</time>
      </trkpt>
      <trkpt lat="44.17952" lon="5.27239">
        <ele>1618.8</ele>
        <time>2026-05-14T12:06:59.000Z</time>
      </trkpt>
      <trkpt lat="44.17953" lon="5.27237">
        <ele>1618.8</ele>
        <time>2026-05-14T12:07:00.000Z</time>
      </trkpt>
      <trkpt lat="44.17954" lon="5.27237">
        <ele>1618.3</ele>
        <time>2026-05-14T12:07:01.000Z</time>
      </trkpt>
      <trkpt lat="44.17955" lon="5.27237">
        <ele>1618.3</ele>
        <time>2026-05-14T12:07:02.000Z</time>
      </trkpt>
      <trkpt lat="44.17957" lon="5.27237">
        <ele>1618</ele>
        <time>2026-05-14T12:07:03.000Z</time>
      </trkpt>
      <trkpt lat="44.17957" lon="5.27237">
        <ele>1617.3</ele>
        <time>2026-05-14T12:07:04.000Z</time>
      </trkpt>
      <trkpt lat="44.17959" lon="5.27237">
        <ele>1616.7</ele>
        <time>2026-05-14T12:07:05.000Z</time>
      </trkpt>
      <trkpt lat="44.17959" lon="5.27237">
        <ele>1615.9</ele>
        <time>2026-05-14T12:07:06.000Z</time>
      </trkpt>
      <trkpt lat="44.1796" lon="5.27238">
        <ele>1615.1</ele>
        <time>2026-05-14T12:07:07.000Z</time>
      </trkpt>
      <trkpt lat="44.17962" lon="5.27239">
        <ele>1614.5</ele>
        <time>2026-05-14T12:07:08.000Z</time>
      </trkpt>
      <trkpt lat="44.17963" lon="5.27239">
        <ele>1614</ele>
        <time>2026-05-14T12:07:09.000Z</time>
      </trkpt>
      <trkpt lat="44.17965" lon="5.27239">
        <ele>1613.6</ele>
        <time>2026-05-14T12:07:10.000Z</time>
      </trkpt>
      <trkpt lat="44.17966" lon="5.27239">
        <ele>1613.1</ele>
        <time>2026-05-14T12:07:11.000Z</time>
      </trkpt>
      <trkpt lat="44.17966" lon="5.27239">
        <ele>1612.9</ele>
        <time>2026-05-14T12:07:12.000Z</time>
      </trkpt>
      <trkpt lat="44.17967" lon="5.27239">
        <ele>1612.9</ele>
        <time>2026-05-14T12:07:13.000Z</time>
      </trkpt>
      <trkpt lat="44.17968" lon="5.27239">
        <ele>1612.6</ele>
        <time>2026-05-14T12:07:14.000Z</time>
      </trkpt>
      <trkpt lat="44.17968" lon="5.27239">
        <ele>1612.1</ele>
        <time>2026-05-14T12:07:15.000Z</time>
      </trkpt>
      <trkpt lat="44.17969" lon="5.27239">
        <ele>1612.3</ele>
        <time>2026-05-14T12:07:16.000Z</time>
      </trkpt>
      <trkpt lat="44.1797" lon="5.27238">
        <ele>1612</ele>
        <time>2026-05-14T12:07:17.000Z</time>
      </trkpt>
      <trkpt lat="44.17971" lon="5.27238">
        <ele>1611.8</ele>
        <time>2026-05-14T12:07:18.000Z</time>
      </trkpt>
      <trkpt lat="44.17971" lon="5.27237">
        <ele>1611.1</ele>
        <time>2026-05-14T12:07:19.000Z</time>
      </trkpt>
      <trkpt lat="44.17972" lon="5.27237">
        <ele>1610.8</ele>
        <time>2026-05-14T12:07:20.000Z</time>
      </trkpt>
      <trkpt lat="44.17972" lon="5.27237">
        <ele>1610.6</ele>
        <time>2026-05-14T12:07:21.000Z</time>
      </trkpt>
      <trkpt lat="44.17973" lon="5.27236">
        <ele>1610.3</ele>
        <time>2026-05-14T12:07:22.000Z</time>
      </trkpt>
      <trkpt lat="44.17975" lon="5.27236">
        <ele>1609.7</ele>
        <time>2026-05-14T12:07:23.000Z</time>
      </trkpt>
      <trkpt lat="44.17977" lon="5.27237">
        <ele>1609.4</ele>
        <time>2026-05-14T12:07:24.000Z</time>
      </trkpt>
      <trkpt lat="44.17977" lon="5.27237">
        <ele>1608.3</ele>
        <time>2026-05-14T12:07:25.000Z</time>
      </trkpt>
      <trkpt lat="44.17978" lon="5.27239">
        <ele>1607.7</ele>
        <time>2026-05-14T12:07:26.000Z</time>
      </trkpt>
      <trkpt lat="44.17979" lon="5.27239">
        <ele>1607</ele>
        <time>2026-05-14T12:07:27.000Z</time>
      </trkpt>
      <trkpt lat="44.1798" lon="5.2724">
        <ele>1606.7</ele>
        <time>2026-05-14T12:07:28.000Z</time>
      </trkpt>
      <trkpt lat="44.17981" lon="5.2724">
        <ele>1606.1</ele>
        <time>2026-05-14T12:07:29.000Z</time>
      </trkpt>
      <trkpt lat="44.17982" lon="5.2724">
        <ele>1605.6</ele>
        <time>2026-05-14T12:07:30.000Z</time>
      </trkpt>
      <trkpt lat="44.17983" lon="5.2724">
        <ele>1605.1</ele>
        <time>2026-05-14T12:07:31.000Z</time>
      </trkpt>
      <trkpt lat="44.17983" lon="5.2724">
        <ele>1604.7</ele>
        <time>2026-05-14T12:07:32.000Z</time>
      </trkpt>
      <trkpt lat="44.17984" lon="5.27241">
        <ele>1604.1</ele>
        <time>2026-05-14T12:07:33.000Z</time>
      </trkpt>
      <trkpt lat="44.17985" lon="5.27241">
        <ele>1603.5</ele>
        <time>2026-05-14T12:07:34.000Z</time>
      </trkpt>
      <trkpt lat="44.17986" lon="5.27241">
        <ele>1603.1</ele>
        <time>2026-05-14T12:07:35.000Z</time>
      </trkpt>
      <trkpt lat="44.17987" lon="5.27242">
        <ele>1602.7</ele>
        <time>2026-05-14T12:07:36.000Z</time>
      </trkpt>
      <trkpt lat="44.17988" lon="5.27241">
        <ele>1602</ele>
        <time>2026-05-14T12:07:37.000Z</time>
      </trkpt>
      <trkpt lat="44.17989" lon="5.2724">
        <ele>1601.3</ele>
        <time>2026-05-14T12:07:38.000Z</time>
      </trkpt>
      <trkpt lat="44.1799" lon="5.27239">
        <ele>1600.9</ele>
        <time>2026-05-14T12:07:39.000Z</time>
      </trkpt>
      <trkpt lat="44.17991" lon="5.27239">
        <ele>1600.8</ele>
        <time>2026-05-14T12:07:40.000Z</time>
      </trkpt>
      <trkpt lat="44.17992" lon="5.2724">
        <ele>1600.7</ele>
        <time>2026-05-14T12:07:41.000Z</time>
      </trkpt>
      <trkpt lat="44.17993" lon="5.2724">
        <ele>1600.5</ele>
        <time>2026-05-14T12:07:42.000Z</time>
      </trkpt>
      <trkpt lat="44.17994" lon="5.2724">
        <ele>1600.1</ele>
        <time>2026-05-14T12:07:43.000Z</time>
      </trkpt>
      <trkpt lat="44.17995" lon="5.27239">
        <ele>1599.9</ele>
        <time>2026-05-14T12:07:44.000Z</time>
      </trkpt>
      <trkpt lat="44.17995" lon="5.27239">
        <ele>1599.3</ele>
        <time>2026-05-14T12:07:45.000Z</time>
      </trkpt>
      <trkpt lat="44.17996" lon="5.27239">
        <ele>1598.9</ele>
        <time>2026-05-14T12:07:46.000Z</time>
      </trkpt>
      <trkpt lat="44.17997" lon="5.2724">
        <ele>1598.6</ele>
        <time>2026-05-14T12:07:47.000Z</time>
      </trkpt>
      <trkpt lat="44.17997" lon="5.2724">
        <ele>1598.3</ele>
        <time>2026-05-14T12:07:48.000Z</time>
      </trkpt>
      <trkpt lat="44.17999" lon="5.2724">
        <ele>1598.2</ele>
        <time>2026-05-14T12:07:49.000Z</time>
      </trkpt>
      <trkpt lat="44.18" lon="5.27239">
        <ele>1598.1</ele>
        <time>2026-05-14T12:07:50.000Z</time>
      </trkpt>
      <trkpt lat="44.18001" lon="5.27238">
        <ele>1597.8</ele>
        <time>2026-05-14T12:07:51.000Z</time>
      </trkpt>
      <trkpt lat="44.18002" lon="5.27238">
        <ele>1597.6</ele>
        <time>2026-05-14T12:07:52.000Z</time>
      </trkpt>
      <trkpt lat="44.18003" lon="5.27237">
        <ele>1597.6</ele>
        <time>2026-05-14T12:07:53.000Z</time>
      </trkpt>
      <trkpt lat="44.18004" lon="5.27238">
        <ele>1597.3</ele>
        <time>2026-05-14T12:07:54.000Z</time>
      </trkpt>
      <trkpt lat="44.18005" lon="5.27238">
        <ele>1597.4</ele>
        <time>2026-05-14T12:07:55.000Z</time>
      </trkpt>
      <trkpt lat="44.18006" lon="5.27238">
        <ele>1597.5</ele>
        <time>2026-05-14T12:07:56.000Z</time>
      </trkpt>
      <trkpt lat="44.18007" lon="5.27238">
        <ele>1597.2</ele>
        <time>2026-05-14T12:07:57.000Z</time>
      </trkpt>
      <trkpt lat="44.18008" lon="5.27238">
        <ele>1596.8</ele>
        <time>2026-05-14T12:07:58.000Z</time>
      </trkpt>
      <trkpt lat="44.18009" lon="5.27238">
        <ele>1596.2</ele>
        <time>2026-05-14T12:07:59.000Z</time>
      </trkpt>
      <trkpt lat="44.18009" lon="5.27238">
        <ele>1595.8</ele>
        <time>2026-05-14T12:08:00.000Z</time>
      </trkpt>
      <trkpt lat="44.1801" lon="5.27238">
        <ele>1595.8</ele>
        <time>2026-05-14T12:08:01.000Z</time>
      </trkpt>
      <trkpt lat="44.18011" lon="5.27238">
        <ele>1595.8</ele>
        <time>2026-05-14T12:08:02.000Z</time>
      </trkpt>
      <trkpt lat="44.18013" lon="5.27238">
        <ele>1595.6</ele>
        <time>2026-05-14T12:08:03.000Z</time>
      </trkpt>
      <trkpt lat="44.18014" lon="5.27237">
        <ele>1595.1</ele>
        <time>2026-05-14T12:08:04.000Z</time>
      </trkpt>
      <trkpt lat="44.18015" lon="5.27238">
        <ele>1594.6</ele>
        <time>2026-05-14T12:08:05.000Z</time>
      </trkpt>
      <trkpt lat="44.18017" lon="5.27239">
        <ele>1594.3</ele>
        <time>2026-05-14T12:08:06.000Z</time>
      </trkpt>
      <trkpt lat="44.18018" lon="5.2724">
        <ele>1594.4</ele>
        <time>2026-05-14T12:08:07.000Z</time>
      </trkpt>
      <trkpt lat="44.18019" lon="5.27242">
        <ele>1594.5</ele>
        <time>2026-05-14T12:08:08.000Z</time>
      </trkpt>
      <trkpt lat="44.18019" lon="5.27243">
        <ele>1594.4</ele>
        <time>2026-05-14T12:08:09.000Z</time>
      </trkpt>
      <trkpt lat="44.1802" lon="5.27244">
        <ele>1594.2</ele>
        <time>2026-05-14T12:08:10.000Z</time>
      </trkpt>
      <trkpt lat="44.18021" lon="5.27243">
        <ele>1593.7</ele>
        <time>2026-05-14T12:08:11.000Z</time>
      </trkpt>
      <trkpt lat="44.18022" lon="5.27242">
        <ele>1593.3</ele>
        <time>2026-05-14T12:08:12.000Z</time>
      </trkpt>
      <trkpt lat="44.18024" lon="5.27242">
        <ele>1593.3</ele>
        <time>2026-05-14T12:08:13.000Z</time>
      </trkpt>
      <trkpt lat="44.18025" lon="5.27241">
        <ele>1593.3</ele>
        <time>2026-05-14T12:08:14.000Z</time>
      </trkpt>
      <trkpt lat="44.18027" lon="5.27242">
        <ele>1593.4</ele>
        <time>2026-05-14T12:08:15.000Z</time>
      </trkpt>
      <trkpt lat="44.18028" lon="5.27242">
        <ele>1593.3</ele>
        <time>2026-05-14T12:08:16.000Z</time>
      </trkpt>
      <trkpt lat="44.1803" lon="5.27241">
        <ele>1593.2</ele>
        <time>2026-05-14T12:08:17.000Z</time>
      </trkpt>
      <trkpt lat="44.18032" lon="5.27241">
        <ele>1593.2</ele>
        <time>2026-05-14T12:08:18.000Z</time>
      </trkpt>
      <trkpt lat="44.18034" lon="5.27241">
        <ele>1593</ele>
        <time>2026-05-14T12:08:19.000Z</time>
      </trkpt>
      <trkpt lat="44.18036" lon="5.27242">
        <ele>1592.9</ele>
        <time>2026-05-14T12:08:20.000Z</time>
      </trkpt>
      <trkpt lat="44.18037" lon="5.27242">
        <ele>1592.8</ele>
        <time>2026-05-14T12:08:21.000Z</time>
      </trkpt>
      <trkpt lat="44.18037" lon="5.27242">
        <ele>1592.6</ele>
        <time>2026-05-14T12:08:22.000Z</time>
      </trkpt>
      <trkpt lat="44.18038" lon="5.27241">
        <ele>1592.1</ele>
        <time>2026-05-14T12:08:23.000Z</time>
      </trkpt>
      <trkpt lat="44.18038" lon="5.27241">
        <ele>1591.3</ele>
        <time>2026-05-14T12:08:24.000Z</time>
      </trkpt>
      <trkpt lat="44.18038" lon="5.2724">
        <ele>1590.9</ele>
        <time>2026-05-14T12:08:25.000Z</time>
      </trkpt>
      <trkpt lat="44.18039" lon="5.27239">
        <ele>1590.2</ele>
        <time>2026-05-14T12:08:26.000Z</time>
      </trkpt>
      <trkpt lat="44.18039" lon="5.27239">
        <ele>1589.7</ele>
        <time>2026-05-14T12:08:27.000Z</time>
      </trkpt>
      <trkpt lat="44.1804" lon="5.27239">
        <ele>1589.2</ele>
        <time>2026-05-14T12:08:28.000Z</time>
      </trkpt>
      <trkpt lat="44.1804" lon="5.2724">
        <ele>1588.5</ele>
        <time>2026-05-14T12:08:29.000Z</time>
      </trkpt>
      <trkpt lat="44.18041" lon="5.27241">
        <ele>1587.8</ele>
        <time>2026-05-14T12:08:30.000Z</time>
      </trkpt>
      <trkpt lat="44.18043" lon="5.27241">
        <ele>1587.5</ele>
        <time>2026-05-14T12:08:31.000Z</time>
      </trkpt>
      <trkpt lat="44.18044" lon="5.27242">
        <ele>1587.1</ele>
        <time>2026-05-14T12:08:32.000Z</time>
      </trkpt>
      <trkpt lat="44.18045" lon="5.27242">
        <ele>1586.6</ele>
        <time>2026-05-14T12:08:33.000Z</time>
      </trkpt>
      <trkpt lat="44.18046" lon="5.27243">
        <ele>1586.1</ele>
        <time>2026-05-14T12:08:34.000Z</time>
      </trkpt>
      <trkpt lat="44.18047" lon="5.27243">
        <ele>1586.1</ele>
        <time>2026-05-14T12:08:35.000Z</time>
      </trkpt>
      <trkpt lat="44.18048" lon="5.27243">
        <ele>1585.9</ele>
        <time>2026-05-14T12:08:36.000Z</time>
      </trkpt>
      <trkpt lat="44.18049" lon="5.27243">
        <ele>1585.6</ele>
        <time>2026-05-14T12:08:37.000Z</time>
      </trkpt>
      <trkpt lat="44.1805" lon="5.27243">
        <ele>1585.3</ele>
        <time>2026-05-14T12:08:38.000Z</time>
      </trkpt>
      <trkpt lat="44.1805" lon="5.27243">
        <ele>1585.1</ele>
        <time>2026-05-14T12:08:39.000Z</time>
      </trkpt>
      <trkpt lat="44.18051" lon="5.27243">
        <ele>1584.9</ele>
        <time>2026-05-14T12:08:40.000Z</time>
      </trkpt>
      <trkpt lat="44.18052" lon="5.27243">
        <ele>1584.7</ele>
        <time>2026-05-14T12:08:41.000Z</time>
      </trkpt>
      <trkpt lat="44.18053" lon="5.27244">
        <ele>1584.2</ele>
        <time>2026-05-14T12:08:42.000Z</time>
      </trkpt>
      <trkpt lat="44.18054" lon="5.27244">
        <ele>1583.9</ele>
        <time>2026-05-14T12:08:43.000Z</time>
      </trkpt>
      <trkpt lat="44.18055" lon="5.27245">
        <ele>1583.8</ele>
        <time>2026-05-14T12:08:44.000Z</time>
      </trkpt>
      <trkpt lat="44.18056" lon="5.27245">
        <ele>1583.8</ele>
        <time>2026-05-14T12:08:45.000Z</time>
      </trkpt>
      <trkpt lat="44.18057" lon="5.27246">
        <ele>1583.9</ele>
        <time>2026-05-14T12:08:46.000Z</time>
      </trkpt>
      <trkpt lat="44.18058" lon="5.27247">
        <ele>1584.1</ele>
        <time>2026-05-14T12:08:47.000Z</time>
      </trkpt>
      <trkpt lat="44.18059" lon="5.27248">
        <ele>1584</ele>
        <time>2026-05-14T12:08:48.000Z</time>
      </trkpt>
      <trkpt lat="44.1806" lon="5.27248">
        <ele>1583.8</ele>
        <time>2026-05-14T12:08:49.000Z</time>
      </trkpt>
      <trkpt lat="44.18061" lon="5.27248">
        <ele>1583.7</ele>
        <time>2026-05-14T12:08:50.000Z</time>
      </trkpt>
      <trkpt lat="44.18062" lon="5.27248">
        <ele>1583.2</ele>
        <time>2026-05-14T12:08:51.000Z</time>
      </trkpt>
      <trkpt lat="44.18064" lon="5.27248">
        <ele>1582.7</ele>
        <time>2026-05-14T12:08:52.000Z</time>
      </trkpt>
      <trkpt lat="44.18065" lon="5.27249">
        <ele>1582.5</ele>
        <time>2026-05-14T12:08:53.000Z</time>
      </trkpt>
      <trkpt lat="44.18066" lon="5.27249">
        <ele>1582.5</ele>
        <time>2026-05-14T12:08:54.000Z</time>
      </trkpt>
      <trkpt lat="44.18068" lon="5.2725">
        <ele>1582.5</ele>
        <time>2026-05-14T12:08:55.000Z</time>
      </trkpt>
      <trkpt lat="44.18069" lon="5.2725">
        <ele>1582.5</ele>
        <time>2026-05-14T12:08:56.000Z</time>
      </trkpt>
      <trkpt lat="44.1807" lon="5.27251">
        <ele>1582.7</ele>
        <time>2026-05-14T12:08:57.000Z</time>
      </trkpt>
      <trkpt lat="44.18071" lon="5.27251">
        <ele>1582.5</ele>
        <time>2026-05-14T12:08:58.000Z</time>
      </trkpt>
      <trkpt lat="44.18072" lon="5.27251">
        <ele>1582</ele>
        <time>2026-05-14T12:08:59.000Z</time>
      </trkpt>
      <trkpt lat="44.18072" lon="5.27251">
        <ele>1581.4</ele>
        <time>2026-05-14T12:09:00.000Z</time>
      </trkpt>
      <trkpt lat="44.18073" lon="5.27251">
        <ele>1581</ele>
        <time>2026-05-14T12:09:01.000Z</time>
      </trkpt>
      <trkpt lat="44.18074" lon="5.2725">
        <ele>1580.2</ele>
        <time>2026-05-14T12:09:02.000Z</time>
      </trkpt>
      <trkpt lat="44.18074" lon="5.2725">
        <ele>1579.8</ele>
        <time>2026-05-14T12:09:03.000Z</time>
      </trkpt>
      <trkpt lat="44.18075" lon="5.2725">
        <ele>1579.3</ele>
        <time>2026-05-14T12:09:04.000Z</time>
      </trkpt>
      <trkpt lat="44.18077" lon="5.27251">
        <ele>1579.2</ele>
        <time>2026-05-14T12:09:05.000Z</time>
      </trkpt>
      <trkpt lat="44.18078" lon="5.27251">
        <ele>1579</ele>
        <time>2026-05-14T12:09:06.000Z</time>
      </trkpt>
      <trkpt lat="44.1808" lon="5.2725">
        <ele>1578.8</ele>
        <time>2026-05-14T12:09:07.000Z</time>
      </trkpt>
      <trkpt lat="44.18081" lon="5.2725">
        <ele>1578.6</ele>
        <time>2026-05-14T12:09:08.000Z</time>
      </trkpt>
      <trkpt lat="44.18082" lon="5.2725">
        <ele>1578.4</ele>
        <time>2026-05-14T12:09:09.000Z</time>
      </trkpt>
      <trkpt lat="44.18083" lon="5.2725">
        <ele>1578.2</ele>
        <time>2026-05-14T12:09:10.000Z</time>
      </trkpt>
      <trkpt lat="44.18083" lon="5.2725">
        <ele>1577.7</ele>
        <time>2026-05-14T12:09:11.000Z</time>
      </trkpt>
      <trkpt lat="44.18083" lon="5.27249">
        <ele>1577.2</ele>
        <time>2026-05-14T12:09:12.000Z</time>
      </trkpt>
      <trkpt lat="44.18084" lon="5.27249">
        <ele>1577</ele>
        <time>2026-05-14T12:09:13.000Z</time>
      </trkpt>
      <trkpt lat="44.18085" lon="5.27249">
        <ele>1576.9</ele>
        <time>2026-05-14T12:09:14.000Z</time>
      </trkpt>
      <trkpt lat="44.18085" lon="5.27249">
        <ele>1576.7</ele>
        <time>2026-05-14T12:09:15.000Z</time>
      </trkpt>
      <trkpt lat="44.18086" lon="5.27249">
        <ele>1576.6</ele>
        <time>2026-05-14T12:09:16.000Z</time>
      </trkpt>
      <trkpt lat="44.18087" lon="5.2725">
        <ele>1576.3</ele>
        <time>2026-05-14T12:09:17.000Z</time>
      </trkpt>
      <trkpt lat="44.18089" lon="5.27251">
        <ele>1576</ele>
        <time>2026-05-14T12:09:18.000Z</time>
      </trkpt>
      <trkpt lat="44.1809" lon="5.27251">
        <ele>1575.7</ele>
        <time>2026-05-14T12:09:19.000Z</time>
      </trkpt>
      <trkpt lat="44.18091" lon="5.27253">
        <ele>1575</ele>
        <time>2026-05-14T12:09:20.000Z</time>
      </trkpt>
      <trkpt lat="44.18092" lon="5.27253">
        <ele>1574.4</ele>
        <time>2026-05-14T12:09:21.000Z</time>
      </trkpt>
      <trkpt lat="44.18093" lon="5.27254">
        <ele>1573.9</ele>
        <time>2026-05-14T12:09:22.000Z</time>
      </trkpt>
      <trkpt lat="44.18094" lon="5.27254">
        <ele>1573.6</ele>
        <time>2026-05-14T12:09:23.000Z</time>
      </trkpt>
      <trkpt lat="44.18096" lon="5.27253">
        <ele>1573.2</ele>
        <time>2026-05-14T12:09:24.000Z</time>
      </trkpt>
      <trkpt lat="44.18096" lon="5.27253">
        <ele>1572.4</ele>
        <time>2026-05-14T12:09:25.000Z</time>
      </trkpt>
      <trkpt lat="44.18097" lon="5.27254">
        <ele>1571.8</ele>
        <time>2026-05-14T12:09:26.000Z</time>
      </trkpt>
      <trkpt lat="44.18098" lon="5.27253">
        <ele>1571.3</ele>
        <time>2026-05-14T12:09:27.000Z</time>
      </trkpt>
      <trkpt lat="44.18098" lon="5.27253">
        <ele>1571</ele>
        <time>2026-05-14T12:09:28.000Z</time>
      </trkpt>
      <trkpt lat="44.18099" lon="5.27253">
        <ele>1570.8</ele>
        <time>2026-05-14T12:09:29.000Z</time>
      </trkpt>
      <trkpt lat="44.181" lon="5.27253">
        <ele>1570.9</ele>
        <time>2026-05-14T12:09:30.000Z</time>
      </trkpt>
      <trkpt lat="44.18101" lon="5.27252">
        <ele>1570.9</ele>
        <time>2026-05-14T12:09:31.000Z</time>
      </trkpt>
      <trkpt lat="44.18102" lon="5.27252">
        <ele>1571</ele>
        <time>2026-05-14T12:09:32.000Z</time>
      </trkpt>
      <trkpt lat="44.18102" lon="5.27252">
        <ele>1571</ele>
        <time>2026-05-14T12:09:33.000Z</time>
      </trkpt>
      <trkpt lat="44.18102" lon="5.27252">
        <ele>1571.2</ele>
        <time>2026-05-14T12:09:34.000Z</time>
      </trkpt>
      <trkpt lat="44.18102" lon="5.27252">
        <ele>1571.3</ele>
        <time>2026-05-14T12:09:35.000Z</time>
      </trkpt>
      <trkpt lat="44.18102" lon="5.27252">
        <ele>1571.4</ele>
        <time>2026-05-14T12:09:36.000Z</time>
      </trkpt>
      <trkpt lat="44.18102" lon="5.27253">
        <ele>1571.5</ele>
        <time>2026-05-14T12:09:37.000Z</time>
      </trkpt>
      <trkpt lat="44.18102" lon="5.27253">
        <ele>1571.7</ele>
        <time>2026-05-14T12:09:38.000Z</time>
      </trkpt>
      <trkpt lat="44.18103" lon="5.27254">
        <ele>1571.8</ele>
        <time>2026-05-14T12:09:39.000Z</time>
      </trkpt>
      <trkpt lat="44.18103" lon="5.27255">
        <ele>1571.7</ele>
        <time>2026-05-14T12:09:40.000Z</time>
      </trkpt>
      <trkpt lat="44.18104" lon="5.27255">
        <ele>1571.4</ele>
        <time>2026-05-14T12:09:41.000Z</time>
      </trkpt>
      <trkpt lat="44.18105" lon="5.27255">
        <ele>1570.9</ele>
        <time>2026-05-14T12:09:42.000Z</time>
      </trkpt>
      <trkpt lat="44.18106" lon="5.27255">
        <ele>1570.5</ele>
        <time>2026-05-14T12:09:43.000Z</time>
      </trkpt>
      <trkpt lat="44.18107" lon="5.27255">
        <ele>1570.4</ele>
        <time>2026-05-14T12:09:44.000Z</time>
      </trkpt>
      <trkpt lat="44.18108" lon="5.27254">
        <ele>1570.4</ele>
        <time>2026-05-14T12:09:45.000Z</time>
      </trkpt>
      <trkpt lat="44.18109" lon="5.27253">
        <ele>1570.4</ele>
        <time>2026-05-14T12:09:46.000Z</time>
      </trkpt>
      <trkpt lat="44.18109" lon="5.27253">
        <ele>1570.5</ele>
        <time>2026-05-14T12:09:47.000Z</time>
      </trkpt>
      <trkpt lat="44.18109" lon="5.27253">
        <ele>1570.6</ele>
        <time>2026-05-14T12:09:48.000Z</time>
      </trkpt>
      <trkpt lat="44.1811" lon="5.27255">
        <ele>1570.7</ele>
        <time>2026-05-14T12:09:49.000Z</time>
      </trkpt>
      <trkpt lat="44.1811" lon="5.27255">
        <ele>1570.6</ele>
        <time>2026-05-14T12:09:50.000Z</time>
      </trkpt>
      <trkpt lat="44.1811" lon="5.27255">
        <ele>1570.4</ele>
        <time>2026-05-14T12:09:51.000Z</time>
      </trkpt>
      <trkpt lat="44.18111" lon="5.27256">
        <ele>1570.2</ele>
        <time>2026-05-14T12:09:52.000Z</time>
      </trkpt>
      <trkpt lat="44.18112" lon="5.27256">
        <ele>1569.7</ele>
        <time>2026-05-14T12:09:53.000Z</time>
      </trkpt>
      <trkpt lat="44.18113" lon="5.27256">
        <ele>1569.3</ele>
        <time>2026-05-14T12:09:54.000Z</time>
      </trkpt>
      <trkpt lat="44.18114" lon="5.27256">
        <ele>1568.9</ele>
        <time>2026-05-14T12:09:55.000Z</time>
      </trkpt>
      <trkpt lat="44.18115" lon="5.27255">
        <ele>1568.6</ele>
        <time>2026-05-14T12:09:56.000Z</time>
      </trkpt>
      <trkpt lat="44.18116" lon="5.27256">
        <ele>1568.3</ele>
        <time>2026-05-14T12:09:57.000Z</time>
      </trkpt>
      <trkpt lat="44.18116" lon="5.27256">
        <ele>1567.8</ele>
        <time>2026-05-14T12:09:58.000Z</time>
      </trkpt>
      <trkpt lat="44.18116" lon="5.27257">
        <ele>1567.8</ele>
        <time>2026-05-14T12:09:59.000Z</time>
      </trkpt>
      <trkpt lat="44.18116" lon="5.27257">
        <ele>1567.2</ele>
        <time>2026-05-14T12:10:00.000Z</time>
      </trkpt>
      <trkpt lat="44.18116" lon="5.27257">
        <ele>1566.6</ele>
        <time>2026-05-14T12:10:01.000Z</time>
      </trkpt>
      <trkpt lat="44.18116" lon="5.27257">
        <ele>1566.1</ele>
        <time>2026-05-14T12:10:02.000Z</time>
      </trkpt>
      <trkpt lat="44.18116" lon="5.27257">
        <ele>1565.6</ele>
        <time>2026-05-14T12:10:03.000Z</time>
      </trkpt>
      <trkpt lat="44.18117" lon="5.27257">
        <ele>1565.6</ele>
        <time>2026-05-14T12:10:04.000Z</time>
      </trkpt>
      <trkpt lat="44.18118" lon="5.27258">
        <ele>1565.5</ele>
        <time>2026-05-14T12:10:05.000Z</time>
      </trkpt>
      <trkpt lat="44.18119" lon="5.27258">
        <ele>1565.2</ele>
        <time>2026-05-14T12:10:06.000Z</time>
      </trkpt>
      <trkpt lat="44.1812" lon="5.27257">
        <ele>1565</ele>
        <time>2026-05-14T12:10:07.000Z</time>
      </trkpt>
      <trkpt lat="44.1812" lon="5.27256">
        <ele>1564.4</ele>
        <time>2026-05-14T12:10:08.000Z</time>
      </trkpt>
      <trkpt lat="44.1812" lon="5.27257">
        <ele>1564.1</ele>
        <time>2026-05-14T12:10:09.000Z</time>
      </trkpt>
      <trkpt lat="44.1812" lon="5.27258">
        <ele>1563.9</ele>
        <time>2026-05-14T12:10:10.000Z</time>
      </trkpt>
      <trkpt lat="44.18121" lon="5.27259">
        <ele>1563.6</ele>
        <time>2026-05-14T12:10:11.000Z</time>
      </trkpt>
      <trkpt lat="44.18121" lon="5.2726">
        <ele>1563.7</ele>
        <time>2026-05-14T12:10:12.000Z</time>
      </trkpt>
      <trkpt lat="44.18122" lon="5.27259">
        <ele>1563.6</ele>
        <time>2026-05-14T12:10:13.000Z</time>
      </trkpt>
      <trkpt lat="44.18123" lon="5.27259">
        <ele>1563.2</ele>
        <time>2026-05-14T12:10:14.000Z</time>
      </trkpt>
      <trkpt lat="44.18123" lon="5.27257">
        <ele>1563.1</ele>
        <time>2026-05-14T12:10:15.000Z</time>
      </trkpt>
      <trkpt lat="44.18124" lon="5.27256">
        <ele>1562.9</ele>
        <time>2026-05-14T12:10:16.000Z</time>
      </trkpt>
      <trkpt lat="44.18124" lon="5.27256">
        <ele>1562.7</ele>
        <time>2026-05-14T12:10:17.000Z</time>
      </trkpt>
      <trkpt lat="44.18125" lon="5.27256">
        <ele>1562.3</ele>
        <time>2026-05-14T12:10:18.000Z</time>
      </trkpt>
      <trkpt lat="44.18125" lon="5.27256">
        <ele>1562</ele>
        <time>2026-05-14T12:10:19.000Z</time>
      </trkpt>
      <trkpt lat="44.18126" lon="5.27256">
        <ele>1561.6</ele>
        <time>2026-05-14T12:10:20.000Z</time>
      </trkpt>
      <trkpt lat="44.18127" lon="5.27256">
        <ele>1561.2</ele>
        <time>2026-05-14T12:10:21.000Z</time>
      </trkpt>
      <trkpt lat="44.18127" lon="5.27256">
        <ele>1560.6</ele>
        <time>2026-05-14T12:10:22.000Z</time>
      </trkpt>
      <trkpt lat="44.18129" lon="5.27257">
        <ele>1560.4</ele>
        <time>2026-05-14T12:10:23.000Z</time>
      </trkpt>
      <trkpt lat="44.1813" lon="5.27257">
        <ele>1560.1</ele>
        <time>2026-05-14T12:10:24.000Z</time>
      </trkpt>
      <trkpt lat="44.1813" lon="5.27258">
        <ele>1560.1</ele>
        <time>2026-05-14T12:10:25.000Z</time>
      </trkpt>
      <trkpt lat="44.18131" lon="5.27259">
        <ele>1560</ele>
        <time>2026-05-14T12:10:26.000Z</time>
      </trkpt>
      <trkpt lat="44.18132" lon="5.2726">
        <ele>1560.1</ele>
        <time>2026-05-14T12:10:27.000Z</time>
      </trkpt>
      <trkpt lat="44.18133" lon="5.27261">
        <ele>1560.3</ele>
        <time>2026-05-14T12:10:28.000Z</time>
      </trkpt>
      <trkpt lat="44.18134" lon="5.2726">
        <ele>1559.9</ele>
        <time>2026-05-14T12:10:29.000Z</time>
      </trkpt>
      <trkpt lat="44.18134" lon="5.27261">
        <ele>1558.9</ele>
        <time>2026-05-14T12:10:30.000Z</time>
      </trkpt>
      <trkpt lat="44.18135" lon="5.2726">
        <ele>1558.7</ele>
        <time>2026-05-14T12:10:31.000Z</time>
      </trkpt>
      <trkpt lat="44.18136" lon="5.2726">
        <ele>1558.4</ele>
        <time>2026-05-14T12:10:32.000Z</time>
      </trkpt>
      <trkpt lat="44.18136" lon="5.2726">
        <ele>1558.3</ele>
        <time>2026-05-14T12:10:33.000Z</time>
      </trkpt>
      <trkpt lat="44.18136" lon="5.27261">
        <ele>1558.2</ele>
        <time>2026-05-14T12:10:34.000Z</time>
      </trkpt>
      <trkpt lat="44.18136" lon="5.2726">
        <ele>1557.9</ele>
        <time>2026-05-14T12:10:35.000Z</time>
      </trkpt>
      <trkpt lat="44.18137" lon="5.2726">
        <ele>1557.4</ele>
        <time>2026-05-14T12:10:36.000Z</time>
      </trkpt>
      <trkpt lat="44.18138" lon="5.2726">
        <ele>1557.1</ele>
        <time>2026-05-14T12:10:37.000Z</time>
      </trkpt>
      <trkpt lat="44.18138" lon="5.27261">
        <ele>1556.6</ele>
        <time>2026-05-14T12:10:38.000Z</time>
      </trkpt>
      <trkpt lat="44.18139" lon="5.27261">
        <ele>1555.9</ele>
        <time>2026-05-14T12:10:39.000Z</time>
      </trkpt>
      <trkpt lat="44.1814" lon="5.27261">
        <ele>1555.4</ele>
        <time>2026-05-14T12:10:40.000Z</time>
      </trkpt>
      <trkpt lat="44.18142" lon="5.2726">
        <ele>1555</ele>
        <time>2026-05-14T12:10:41.000Z</time>
      </trkpt>
      <trkpt lat="44.18143" lon="5.2726">
        <ele>1554.7</ele>
        <time>2026-05-14T12:10:42.000Z</time>
      </trkpt>
      <trkpt lat="44.18144" lon="5.27261">
        <ele>1554</ele>
        <time>2026-05-14T12:10:43.000Z</time>
      </trkpt>
      <trkpt lat="44.18145" lon="5.27262">
        <ele>1554</ele>
        <time>2026-05-14T12:10:44.000Z</time>
      </trkpt>
      <trkpt lat="44.18145" lon="5.27263">
        <ele>1554.6</ele>
        <time>2026-05-14T12:10:45.000Z</time>
      </trkpt>
      <trkpt lat="44.18145" lon="5.27265">
        <ele>1554.4</ele>
        <time>2026-05-14T12:10:46.000Z</time>
      </trkpt>
      <trkpt lat="44.18146" lon="5.27266">
        <ele>1554.2</ele>
        <time>2026-05-14T12:10:47.000Z</time>
      </trkpt>
      <trkpt lat="44.18146" lon="5.27266">
        <ele>1554.3</ele>
        <time>2026-05-14T12:10:48.000Z</time>
      </trkpt>
      <trkpt lat="44.18147" lon="5.27266">
        <ele>1554.7</ele>
        <time>2026-05-14T12:10:49.000Z</time>
      </trkpt>
      <trkpt lat="44.18148" lon="5.27267">
        <ele>1554.8</ele>
        <time>2026-05-14T12:10:50.000Z</time>
      </trkpt>
      <trkpt lat="44.1815" lon="5.27267">
        <ele>1555.2</ele>
        <time>2026-05-14T12:10:51.000Z</time>
      </trkpt>
      <trkpt lat="44.18151" lon="5.27267">
        <ele>1555.3</ele>
        <time>2026-05-14T12:10:52.000Z</time>
      </trkpt>
      <trkpt lat="44.18151" lon="5.27267">
        <ele>1555.2</ele>
        <time>2026-05-14T12:10:53.000Z</time>
      </trkpt>
      <trkpt lat="44.18152" lon="5.27267">
        <ele>1554.9</ele>
        <time>2026-05-14T12:10:54.000Z</time>
      </trkpt>
      <trkpt lat="44.18153" lon="5.27268">
        <ele>1554.1</ele>
        <time>2026-05-14T12:10:55.000Z</time>
      </trkpt>
      <trkpt lat="44.18154" lon="5.27268">
        <ele>1553.4</ele>
        <time>2026-05-14T12:10:56.000Z</time>
      </trkpt>
      <trkpt lat="44.18154" lon="5.27268">
        <ele>1553.3</ele>
        <time>2026-05-14T12:10:57.000Z</time>
      </trkpt>
      <trkpt lat="44.18155" lon="5.27269">
        <ele>1552.9</ele>
        <time>2026-05-14T12:10:58.000Z</time>
      </trkpt>
      <trkpt lat="44.18156" lon="5.27269">
        <ele>1552.4</ele>
        <time>2026-05-14T12:10:59.000Z</time>
      </trkpt>
      <trkpt lat="44.18157" lon="5.2727">
        <ele>1552.1</ele>
        <time>2026-05-14T12:11:00.000Z</time>
      </trkpt>
      <trkpt lat="44.18158" lon="5.27271">
        <ele>1551.8</ele>
        <time>2026-05-14T12:11:01.000Z</time>
      </trkpt>
      <trkpt lat="44.18159" lon="5.27272">
        <ele>1551.5</ele>
        <time>2026-05-14T12:11:02.000Z</time>
      </trkpt>
      <trkpt lat="44.1816" lon="5.27273">
        <ele>1551.3</ele>
        <time>2026-05-14T12:11:03.000Z</time>
      </trkpt>
      <trkpt lat="44.18161" lon="5.27273">
        <ele>1551.1</ele>
        <time>2026-05-14T12:11:04.000Z</time>
      </trkpt>
      <trkpt lat="44.18162" lon="5.27272">
        <ele>1551.1</ele>
        <time>2026-05-14T12:11:05.000Z</time>
      </trkpt>
      <trkpt lat="44.18162" lon="5.27273">
        <ele>1550.8</ele>
        <time>2026-05-14T12:11:06.000Z</time>
      </trkpt>
      <trkpt lat="44.18163" lon="5.27273">
        <ele>1550.4</ele>
        <time>2026-05-14T12:11:07.000Z</time>
      </trkpt>
      <trkpt lat="44.18163" lon="5.27274">
        <ele>1550.1</ele>
        <time>2026-05-14T12:11:08.000Z</time>
      </trkpt>
      <trkpt lat="44.18164" lon="5.27275">
        <ele>1549.7</ele>
        <time>2026-05-14T12:11:09.000Z</time>
      </trkpt>
      <trkpt lat="44.18164" lon="5.27276">
        <ele>1549.2</ele>
        <time>2026-05-14T12:11:10.000Z</time>
      </trkpt>
      <trkpt lat="44.18166" lon="5.27276">
        <ele>1549</ele>
        <time>2026-05-14T12:11:11.000Z</time>
      </trkpt>
      <trkpt lat="44.18167" lon="5.27277">
        <ele>1548.8</ele>
        <time>2026-05-14T12:11:12.000Z</time>
      </trkpt>
      <trkpt lat="44.18168" lon="5.27277">
        <ele>1548.6</ele>
        <time>2026-05-14T12:11:13.000Z</time>
      </trkpt>
      <trkpt lat="44.18169" lon="5.27277">
        <ele>1548.5</ele>
        <time>2026-05-14T12:11:14.000Z</time>
      </trkpt>
      <trkpt lat="44.18169" lon="5.27278">
        <ele>1548</ele>
        <time>2026-05-14T12:11:15.000Z</time>
      </trkpt>
      <trkpt lat="44.1817" lon="5.27278">
        <ele>1547.6</ele>
        <time>2026-05-14T12:11:16.000Z</time>
      </trkpt>
      <trkpt lat="44.18171" lon="5.27278">
        <ele>1547.4</ele>
        <time>2026-05-14T12:11:17.000Z</time>
      </trkpt>
      <trkpt lat="44.18172" lon="5.27278">
        <ele>1547.4</ele>
        <time>2026-05-14T12:11:18.000Z</time>
      </trkpt>
      <trkpt lat="44.18172" lon="5.27279">
        <ele>1547.1</ele>
        <time>2026-05-14T12:11:19.000Z</time>
      </trkpt>
      <trkpt lat="44.18173" lon="5.27279">
        <ele>1546.6</ele>
        <time>2026-05-14T12:11:20.000Z</time>
      </trkpt>
      <trkpt lat="44.18173" lon="5.27279">
        <ele>1546.3</ele>
        <time>2026-05-14T12:11:21.000Z</time>
      </trkpt>
      <trkpt lat="44.18173" lon="5.27279">
        <ele>1546.1</ele>
        <time>2026-05-14T12:11:22.000Z</time>
      </trkpt>
      <trkpt lat="44.18174" lon="5.27279">
        <ele>1546</ele>
        <time>2026-05-14T12:11:23.000Z</time>
      </trkpt>
      <trkpt lat="44.18175" lon="5.27279">
        <ele>1545.6</ele>
        <time>2026-05-14T12:11:24.000Z</time>
      </trkpt>
      <trkpt lat="44.18176" lon="5.27278">
        <ele>1545.3</ele>
        <time>2026-05-14T12:11:25.000Z</time>
      </trkpt>
      <trkpt lat="44.18177" lon="5.27277">
        <ele>1545</ele>
        <time>2026-05-14T12:11:26.000Z</time>
      </trkpt>
      <trkpt lat="44.18178" lon="5.27277">
        <ele>1544.5</ele>
        <time>2026-05-14T12:11:27.000Z</time>
      </trkpt>
      <trkpt lat="44.18178" lon="5.27277">
        <ele>1544.1</ele>
        <time>2026-05-14T12:11:28.000Z</time>
      </trkpt>
      <trkpt lat="44.18178" lon="5.27278">
        <ele>1543.9</ele>
        <time>2026-05-14T12:11:29.000Z</time>
      </trkpt>
      <trkpt lat="44.18179" lon="5.27278">
        <ele>1543.8</ele>
        <time>2026-05-14T12:11:30.000Z</time>
      </trkpt>
      <trkpt lat="44.18179" lon="5.27279">
        <ele>1543.4</ele>
        <time>2026-05-14T12:11:31.000Z</time>
      </trkpt>
      <trkpt lat="44.1818" lon="5.2728">
        <ele>1543</ele>
        <time>2026-05-14T12:11:32.000Z</time>
      </trkpt>
      <trkpt lat="44.1818" lon="5.2728">
        <ele>1542.8</ele>
        <time>2026-05-14T12:11:33.000Z</time>
      </trkpt>
      <trkpt lat="44.18181" lon="5.27279">
        <ele>1542.4</ele>
        <time>2026-05-14T12:11:34.000Z</time>
      </trkpt>
      <trkpt lat="44.18181" lon="5.27278">
        <ele>1542</ele>
        <time>2026-05-14T12:11:35.000Z</time>
      </trkpt>
      <trkpt lat="44.18182" lon="5.27277">
        <ele>1541.7</ele>
        <time>2026-05-14T12:11:36.000Z</time>
      </trkpt>
      <trkpt lat="44.18182" lon="5.27277">
        <ele>1541.3</ele>
        <time>2026-05-14T12:11:37.000Z</time>
      </trkpt>
      <trkpt lat="44.18183" lon="5.27276">
        <ele>1541</ele>
        <time>2026-05-14T12:11:38.000Z</time>
      </trkpt>
      <trkpt lat="44.18183" lon="5.27275">
        <ele>1540.7</ele>
        <time>2026-05-14T12:11:39.000Z</time>
      </trkpt>
      <trkpt lat="44.18184" lon="5.27275">
        <ele>1540.4</ele>
        <time>2026-05-14T12:11:40.000Z</time>
      </trkpt>
      <trkpt lat="44.18186" lon="5.27276">
        <ele>1540</ele>
        <time>2026-05-14T12:11:41.000Z</time>
      </trkpt>
      <trkpt lat="44.18187" lon="5.27277">
        <ele>1539.7</ele>
        <time>2026-05-14T12:11:42.000Z</time>
      </trkpt>
      <trkpt lat="44.18189" lon="5.27278">
        <ele>1539.4</ele>
        <time>2026-05-14T12:11:43.000Z</time>
      </trkpt>
      <trkpt lat="44.1819" lon="5.27279">
        <ele>1538.9</ele>
        <time>2026-05-14T12:11:44.000Z</time>
      </trkpt>
      <trkpt lat="44.18191" lon="5.2728">
        <ele>1538.4</ele>
        <time>2026-05-14T12:11:45.000Z</time>
      </trkpt>
      <trkpt lat="44.18192" lon="5.27281">
        <ele>1538.3</ele>
        <time>2026-05-14T12:11:46.000Z</time>
      </trkpt>
      <trkpt lat="44.18193" lon="5.27281">
        <ele>1538.7</ele>
        <time>2026-05-14T12:11:47.000Z</time>
      </trkpt>
      <trkpt lat="44.18195" lon="5.27282">
        <ele>1538.6</ele>
        <time>2026-05-14T12:11:48.000Z</time>
      </trkpt>
      <trkpt lat="44.18196" lon="5.27283">
        <ele>1538.6</ele>
        <time>2026-05-14T12:11:49.000Z</time>
      </trkpt>
      <trkpt lat="44.18196" lon="5.27285">
        <ele>1538.2</ele>
        <time>2026-05-14T12:11:50.000Z</time>
      </trkpt>
      <trkpt lat="44.18197" lon="5.27286">
        <ele>1537.9</ele>
        <time>2026-05-14T12:11:51.000Z</time>
      </trkpt>
      <trkpt lat="44.18197" lon="5.27287">
        <ele>1537.5</ele>
        <time>2026-05-14T12:11:52.000Z</time>
      </trkpt>
      <trkpt lat="44.18197" lon="5.27288">
        <ele>1537.2</ele>
        <time>2026-05-14T12:11:53.000Z</time>
      </trkpt>
      <trkpt lat="44.18197" lon="5.27289">
        <ele>1536.9</ele>
        <time>2026-05-14T12:11:54.000Z</time>
      </trkpt>
      <trkpt lat="44.18198" lon="5.2729">
        <ele>1536.8</ele>
        <time>2026-05-14T12:11:55.000Z</time>
      </trkpt>
      <trkpt lat="44.18198" lon="5.27291">
        <ele>1536.6</ele>
        <time>2026-05-14T12:11:56.000Z</time>
      </trkpt>
      <trkpt lat="44.18199" lon="5.27292">
        <ele>1536.1</ele>
        <time>2026-05-14T12:11:57.000Z</time>
      </trkpt>
      <trkpt lat="44.182" lon="5.27292">
        <ele>1535.7</ele>
        <time>2026-05-14T12:11:58.000Z</time>
      </trkpt>
      <trkpt lat="44.182" lon="5.27293">
        <ele>1535.3</ele>
        <time>2026-05-14T12:11:59.000Z</time>
      </trkpt>
      <trkpt lat="44.18201" lon="5.27293">
        <ele>1534.8</ele>
        <time>2026-05-14T12:12:00.000Z</time>
      </trkpt>
      <trkpt lat="44.18202" lon="5.27293">
        <ele>1534.9</ele>
        <time>2026-05-14T12:12:01.000Z</time>
      </trkpt>
      <trkpt lat="44.18202" lon="5.27293">
        <ele>1534.9</ele>
        <time>2026-05-14T12:12:02.000Z</time>
      </trkpt>
      <trkpt lat="44.18203" lon="5.27292">
        <ele>1534.6</ele>
        <time>2026-05-14T12:12:03.000Z</time>
      </trkpt>
      <trkpt lat="44.18203" lon="5.27292">
        <ele>1534</ele>
        <time>2026-05-14T12:12:04.000Z</time>
      </trkpt>
      <trkpt lat="44.18204" lon="5.27292">
        <ele>1533.8</ele>
        <time>2026-05-14T12:12:05.000Z</time>
      </trkpt>
      <trkpt lat="44.18205" lon="5.27292">
        <ele>1533.5</ele>
        <time>2026-05-14T12:12:06.000Z</time>
      </trkpt>
      <trkpt lat="44.18206" lon="5.27293">
        <ele>1533.3</ele>
        <time>2026-05-14T12:12:07.000Z</time>
      </trkpt>
      <trkpt lat="44.18207" lon="5.27293">
        <ele>1533.4</ele>
        <time>2026-05-14T12:12:08.000Z</time>
      </trkpt>
      <trkpt lat="44.18207" lon="5.27293">
        <ele>1533</ele>
        <time>2026-05-14T12:12:09.000Z</time>
      </trkpt>
      <trkpt lat="44.18208" lon="5.27294">
        <ele>1532.8</ele>
        <time>2026-05-14T12:12:10.000Z</time>
      </trkpt>
      <trkpt lat="44.18209" lon="5.27294">
        <ele>1532.5</ele>
        <time>2026-05-14T12:12:11.000Z</time>
      </trkpt>
      <trkpt lat="44.1821" lon="5.27294">
        <ele>1532.1</ele>
        <time>2026-05-14T12:12:12.000Z</time>
      </trkpt>
      <trkpt lat="44.18211" lon="5.27294">
        <ele>1531.8</ele>
        <time>2026-05-14T12:12:13.000Z</time>
      </trkpt>
      <trkpt lat="44.18211" lon="5.27294">
        <ele>1531.6</ele>
        <time>2026-05-14T12:12:14.000Z</time>
      </trkpt>
      <trkpt lat="44.18212" lon="5.27293">
        <ele>1531.4</ele>
        <time>2026-05-14T12:12:15.000Z</time>
      </trkpt>
      <trkpt lat="44.18213" lon="5.27293">
        <ele>1530.9</ele>
        <time>2026-05-14T12:12:16.000Z</time>
      </trkpt>
      <trkpt lat="44.18213" lon="5.27293">
        <ele>1530.6</ele>
        <time>2026-05-14T12:12:17.000Z</time>
      </trkpt>
      <trkpt lat="44.18214" lon="5.27293">
        <ele>1530.3</ele>
        <time>2026-05-14T12:12:18.000Z</time>
      </trkpt>
      <trkpt lat="44.18215" lon="5.27293">
        <ele>1530</ele>
        <time>2026-05-14T12:12:19.000Z</time>
      </trkpt>
      <trkpt lat="44.18216" lon="5.27293">
        <ele>1529.9</ele>
        <time>2026-05-14T12:12:20.000Z</time>
      </trkpt>
      <trkpt lat="44.18217" lon="5.27293">
        <ele>1529.8</ele>
        <time>2026-05-14T12:12:21.000Z</time>
      </trkpt>
      <trkpt lat="44.18218" lon="5.27294">
        <ele>1529.8</ele>
        <time>2026-05-14T12:12:22.000Z</time>
      </trkpt>
      <trkpt lat="44.18218" lon="5.27295">
        <ele>1529.5</ele>
        <time>2026-05-14T12:12:23.000Z</time>
      </trkpt>
      <trkpt lat="44.18218" lon="5.27296">
        <ele>1529.2</ele>
        <time>2026-05-14T12:12:24.000Z</time>
      </trkpt>
      <trkpt lat="44.18219" lon="5.27298">
        <ele>1529.1</ele>
        <time>2026-05-14T12:12:25.000Z</time>
      </trkpt>
      <trkpt lat="44.18219" lon="5.27298">
        <ele>1529</ele>
        <time>2026-05-14T12:12:26.000Z</time>
      </trkpt>
      <trkpt lat="44.1822" lon="5.27299">
        <ele>1528.6</ele>
        <time>2026-05-14T12:12:27.000Z</time>
      </trkpt>
      <trkpt lat="44.18222" lon="5.27299">
        <ele>1528.5</ele>
        <time>2026-05-14T12:12:28.000Z</time>
      </trkpt>
      <trkpt lat="44.18223" lon="5.27299">
        <ele>1528.1</ele>
        <time>2026-05-14T12:12:29.000Z</time>
      </trkpt>
      <trkpt lat="44.18224" lon="5.27299">
        <ele>1527.9</ele>
        <time>2026-05-14T12:12:30.000Z</time>
      </trkpt>
      <trkpt lat="44.18225" lon="5.27299">
        <ele>1527.9</ele>
        <time>2026-05-14T12:12:31.000Z</time>
      </trkpt>
      <trkpt lat="44.18225" lon="5.27298">
        <ele>1527.8</ele>
        <time>2026-05-14T12:12:32.000Z</time>
      </trkpt>
      <trkpt lat="44.18226" lon="5.27299">
        <ele>1527.6</ele>
        <time>2026-05-14T12:12:33.000Z</time>
      </trkpt>
      <trkpt lat="44.18227" lon="5.27299">
        <ele>1527.6</ele>
        <time>2026-05-14T12:12:34.000Z</time>
      </trkpt>
      <trkpt lat="44.18228" lon="5.27299">
        <ele>1527.1</ele>
        <time>2026-05-14T12:12:35.000Z</time>
      </trkpt>
      <trkpt lat="44.18229" lon="5.27299">
        <ele>1526.7</ele>
        <time>2026-05-14T12:12:36.000Z</time>
      </trkpt>
      <trkpt lat="44.18229" lon="5.27299">
        <ele>1526.8</ele>
        <time>2026-05-14T12:12:37.000Z</time>
      </trkpt>
      <trkpt lat="44.1823" lon="5.27299">
        <ele>1526.8</ele>
        <time>2026-05-14T12:12:38.000Z</time>
      </trkpt>
      <trkpt lat="44.18231" lon="5.27299">
        <ele>1526.7</ele>
        <time>2026-05-14T12:12:39.000Z</time>
      </trkpt>
      <trkpt lat="44.18232" lon="5.273">
        <ele>1526.6</ele>
        <time>2026-05-14T12:12:40.000Z</time>
      </trkpt>
      <trkpt lat="44.18233" lon="5.27301">
        <ele>1526.4</ele>
        <time>2026-05-14T12:12:41.000Z</time>
      </trkpt>
      <trkpt lat="44.18233" lon="5.27302">
        <ele>1526</ele>
        <time>2026-05-14T12:12:42.000Z</time>
      </trkpt>
      <trkpt lat="44.18234" lon="5.27303">
        <ele>1525.7</ele>
        <time>2026-05-14T12:12:43.000Z</time>
      </trkpt>
      <trkpt lat="44.18235" lon="5.27303">
        <ele>1525.5</ele>
        <time>2026-05-14T12:12:44.000Z</time>
      </trkpt>
      <trkpt lat="44.18236" lon="5.27304">
        <ele>1525.1</ele>
        <time>2026-05-14T12:12:45.000Z</time>
      </trkpt>
      <trkpt lat="44.18236" lon="5.27304">
        <ele>1524.8</ele>
        <time>2026-05-14T12:12:46.000Z</time>
      </trkpt>
      <trkpt lat="44.18237" lon="5.27305">
        <ele>1524.4</ele>
        <time>2026-05-14T12:12:47.000Z</time>
      </trkpt>
      <trkpt lat="44.18238" lon="5.27304">
        <ele>1524.2</ele>
        <time>2026-05-14T12:12:48.000Z</time>
      </trkpt>
      <trkpt lat="44.18239" lon="5.27304">
        <ele>1524.1</ele>
        <time>2026-05-14T12:12:49.000Z</time>
      </trkpt>
      <trkpt lat="44.1824" lon="5.27304">
        <ele>1524.1</ele>
        <time>2026-05-14T12:12:50.000Z</time>
      </trkpt>
      <trkpt lat="44.1824" lon="5.27304">
        <ele>1524</ele>
        <time>2026-05-14T12:12:51.000Z</time>
      </trkpt>
      <trkpt lat="44.18241" lon="5.27304">
        <ele>1523.8</ele>
        <time>2026-05-14T12:12:52.000Z</time>
      </trkpt>
      <trkpt lat="44.18242" lon="5.27304">
        <ele>1523.4</ele>
        <time>2026-05-14T12:12:53.000Z</time>
      </trkpt>
      <trkpt lat="44.18243" lon="5.27305">
        <ele>1523</ele>
        <time>2026-05-14T12:12:54.000Z</time>
      </trkpt>
      <trkpt lat="44.18244" lon="5.27306">
        <ele>1522.5</ele>
        <time>2026-05-14T12:12:55.000Z</time>
      </trkpt>
      <trkpt lat="44.18245" lon="5.27306">
        <ele>1522</ele>
        <time>2026-05-14T12:12:56.000Z</time>
      </trkpt>
      <trkpt lat="44.18246" lon="5.27306">
        <ele>1521.7</ele>
        <time>2026-05-14T12:12:57.000Z</time>
      </trkpt>
      <trkpt lat="44.18247" lon="5.27307">
        <ele>1521.3</ele>
        <time>2026-05-14T12:12:58.000Z</time>
      </trkpt>
      <trkpt lat="44.18247" lon="5.27307">
        <ele>1520.7</ele>
        <time>2026-05-14T12:12:59.000Z</time>
      </trkpt>
      <trkpt lat="44.18248" lon="5.27308">
        <ele>1520.1</ele>
        <time>2026-05-14T12:13:00.000Z</time>
      </trkpt>
      <trkpt lat="44.1825" lon="5.2731">
        <ele>1519.5</ele>
        <time>2026-05-14T12:13:01.999Z</time>
      </trkpt>
      <trkpt lat="44.1825" lon="5.27311">
        <ele>1519.5</ele>
        <time>2026-05-14T12:13:02.999Z</time>
      </trkpt>
      <trkpt lat="44.18251" lon="5.27311">
        <ele>1519.5</ele>
        <time>2026-05-14T12:13:03.999Z</time>
      </trkpt>
      <trkpt lat="44.18251" lon="5.27311">
        <ele>1519.4</ele>
        <time>2026-05-14T12:13:04.999Z</time>
      </trkpt>
      <trkpt lat="44.18252" lon="5.27311">
        <ele>1518.9</ele>
        <time>2026-05-14T12:13:05.999Z</time>
      </trkpt>
      <trkpt lat="44.18253" lon="5.27311">
        <ele>1518.8</ele>
        <time>2026-05-14T12:13:06.999Z</time>
      </trkpt>
      <trkpt lat="44.18254" lon="5.2731">
        <ele>1518.6</ele>
        <time>2026-05-14T12:13:07.999Z</time>
      </trkpt>
      <trkpt lat="44.18255" lon="5.27309">
        <ele>1518.5</ele>
        <time>2026-05-14T12:13:08.999Z</time>
      </trkpt>
      <trkpt lat="44.18256" lon="5.27309">
        <ele>1518.3</ele>
        <time>2026-05-14T12:13:09.999Z</time>
      </trkpt>
      <trkpt lat="44.18257" lon="5.27309">
        <ele>1517.9</ele>
        <time>2026-05-14T12:13:10.999Z</time>
      </trkpt>
      <trkpt lat="44.18258" lon="5.2731">
        <ele>1517.6</ele>
        <time>2026-05-14T12:13:11.999Z</time>
      </trkpt>
      <trkpt lat="44.18258" lon="5.2731">
        <ele>1517.4</ele>
        <time>2026-05-14T12:13:12.999Z</time>
      </trkpt>
      <trkpt lat="44.18259" lon="5.2731">
        <ele>1517.2</ele>
        <time>2026-05-14T12:13:13.999Z</time>
      </trkpt>
      <trkpt lat="44.1826" lon="5.2731">
        <ele>1517.3</ele>
        <time>2026-05-14T12:13:14.999Z</time>
      </trkpt>
      <trkpt lat="44.1826" lon="5.2731">
        <ele>1517</ele>
        <time>2026-05-14T12:13:15.999Z</time>
      </trkpt>
      <trkpt lat="44.18261" lon="5.2731">
        <ele>1516.6</ele>
        <time>2026-05-14T12:13:16.999Z</time>
      </trkpt>
      <trkpt lat="44.18262" lon="5.2731">
        <ele>1516.2</ele>
        <time>2026-05-14T12:13:17.999Z</time>
      </trkpt>
      <trkpt lat="44.18263" lon="5.27309">
        <ele>1515.7</ele>
        <time>2026-05-14T12:13:18.999Z</time>
      </trkpt>
      <trkpt lat="44.18264" lon="5.27307">
        <ele>1515.2</ele>
        <time>2026-05-14T12:13:19.999Z</time>
      </trkpt>
      <trkpt lat="44.18265" lon="5.27306">
        <ele>1514.6</ele>
        <time>2026-05-14T12:13:20.999Z</time>
      </trkpt>
      <trkpt lat="44.18265" lon="5.27306">
        <ele>1514</ele>
        <time>2026-05-14T12:13:21.999Z</time>
      </trkpt>
      <trkpt lat="44.18266" lon="5.27306">
        <ele>1513.6</ele>
        <time>2026-05-14T12:13:22.999Z</time>
      </trkpt>
      <trkpt lat="44.18267" lon="5.27307">
        <ele>1513.3</ele>
        <time>2026-05-14T12:13:23.999Z</time>
      </trkpt>
      <trkpt lat="44.18267" lon="5.27308">
        <ele>1513</ele>
        <time>2026-05-14T12:13:24.999Z</time>
      </trkpt>
      <trkpt lat="44.18268" lon="5.27309">
        <ele>1512.5</ele>
        <time>2026-05-14T12:13:25.999Z</time>
      </trkpt>
      <trkpt lat="44.18269" lon="5.27309">
        <ele>1512.2</ele>
        <time>2026-05-14T12:13:26.999Z</time>
      </trkpt>
      <trkpt lat="44.18269" lon="5.2731">
        <ele>1511.8</ele>
        <time>2026-05-14T12:13:27.999Z</time>
      </trkpt>
      <trkpt lat="44.18271" lon="5.2731">
        <ele>1511.6</ele>
        <time>2026-05-14T12:13:28.999Z</time>
      </trkpt>
      <trkpt lat="44.18272" lon="5.27311">
        <ele>1511.5</ele>
        <time>2026-05-14T12:13:29.999Z</time>
      </trkpt>
      <trkpt lat="44.18273" lon="5.27311">
        <ele>1511.3</ele>
        <time>2026-05-14T12:13:30.999Z</time>
      </trkpt>
      <trkpt lat="44.18274" lon="5.27311">
        <ele>1510.9</ele>
        <time>2026-05-14T12:13:31.999Z</time>
      </trkpt>
      <trkpt lat="44.18275" lon="5.2731">
        <ele>1510.2</ele>
        <time>2026-05-14T12:13:32.999Z</time>
      </trkpt>
      <trkpt lat="44.18276" lon="5.2731">
        <ele>1509.8</ele>
        <time>2026-05-14T12:13:33.999Z</time>
      </trkpt>
      <trkpt lat="44.18277" lon="5.27311">
        <ele>1509.6</ele>
        <time>2026-05-14T12:13:34.999Z</time>
      </trkpt>
      <trkpt lat="44.18278" lon="5.2731">
        <ele>1509.4</ele>
        <time>2026-05-14T12:13:35.999Z</time>
      </trkpt>
      <trkpt lat="44.18279" lon="5.2731">
        <ele>1509</ele>
        <time>2026-05-14T12:13:36.999Z</time>
      </trkpt>
      <trkpt lat="44.18279" lon="5.27311">
        <ele>1508.7</ele>
        <time>2026-05-14T12:13:37.999Z</time>
      </trkpt>
      <trkpt lat="44.1828" lon="5.27312">
        <ele>1508.6</ele>
        <time>2026-05-14T12:13:38.999Z</time>
      </trkpt>
      <trkpt lat="44.1828" lon="5.27312">
        <ele>1508.6</ele>
        <time>2026-05-14T12:13:39.999Z</time>
      </trkpt>
      <trkpt lat="44.18281" lon="5.27313">
        <ele>1508.6</ele>
        <time>2026-05-14T12:13:40.999Z</time>
      </trkpt>
      <trkpt lat="44.18282" lon="5.27314">
        <ele>1508.2</ele>
        <time>2026-05-14T12:13:41.999Z</time>
      </trkpt>
      <trkpt lat="44.18283" lon="5.27315">
        <ele>1507.8</ele>
        <time>2026-05-14T12:13:42.999Z</time>
      </trkpt>
      <trkpt lat="44.18284" lon="5.27315">
        <ele>1507.2</ele>
        <time>2026-05-14T12:13:43.999Z</time>
      </trkpt>
      <trkpt lat="44.18284" lon="5.27315">
        <ele>1506.8</ele>
        <time>2026-05-14T12:13:44.999Z</time>
      </trkpt>
      <trkpt lat="44.18285" lon="5.27315">
        <ele>1506.6</ele>
        <time>2026-05-14T12:13:45.999Z</time>
      </trkpt>
      <trkpt lat="44.18286" lon="5.27315">
        <ele>1506.2</ele>
        <time>2026-05-14T12:13:46.999Z</time>
      </trkpt>
      <trkpt lat="44.18287" lon="5.27315">
        <ele>1505.9</ele>
        <time>2026-05-14T12:13:47.999Z</time>
      </trkpt>
      <trkpt lat="44.18288" lon="5.27315">
        <ele>1505.2</ele>
        <time>2026-05-14T12:13:48.999Z</time>
      </trkpt>
      <trkpt lat="44.18289" lon="5.27315">
        <ele>1504.5</ele>
        <time>2026-05-14T12:13:49.999Z</time>
      </trkpt>
      <trkpt lat="44.1829" lon="5.27315">
        <ele>1504</ele>
        <time>2026-05-14T12:13:50.999Z</time>
      </trkpt>
      <trkpt lat="44.18291" lon="5.27315">
        <ele>1503.7</ele>
        <time>2026-05-14T12:13:51.999Z</time>
      </trkpt>
      <trkpt lat="44.18292" lon="5.27315">
        <ele>1503.6</ele>
        <time>2026-05-14T12:13:52.999Z</time>
      </trkpt>
      <trkpt lat="44.18293" lon="5.27316">
        <ele>1503.5</ele>
        <time>2026-05-14T12:13:53.999Z</time>
      </trkpt>
      <trkpt lat="44.18293" lon="5.27316">
        <ele>1503.2</ele>
        <time>2026-05-14T12:13:54.999Z</time>
      </trkpt>
      <trkpt lat="44.18294" lon="5.27316">
        <ele>1502.8</ele>
        <time>2026-05-14T12:13:55.999Z</time>
      </trkpt>
      <trkpt lat="44.18295" lon="5.27316">
        <ele>1502.6</ele>
        <time>2026-05-14T12:13:56.999Z</time>
      </trkpt>
      <trkpt lat="44.18296" lon="5.27316">
        <ele>1502.3</ele>
        <time>2026-05-14T12:13:57.999Z</time>
      </trkpt>
      <trkpt lat="44.18296" lon="5.27317">
        <ele>1502.3</ele>
        <time>2026-05-14T12:13:58.999Z</time>
      </trkpt>
      <trkpt lat="44.18297" lon="5.27317">
        <ele>1502.3</ele>
        <time>2026-05-14T12:13:59.999Z</time>
      </trkpt>
      <trkpt lat="44.18297" lon="5.27319">
        <ele>1502.3</ele>
        <time>2026-05-14T12:14:00.999Z</time>
      </trkpt>
      <trkpt lat="44.18298" lon="5.2732">
        <ele>1502.2</ele>
        <time>2026-05-14T12:14:01.999Z</time>
      </trkpt>
      <trkpt lat="44.18299" lon="5.27321">
        <ele>1502.1</ele>
        <time>2026-05-14T12:14:02.999Z</time>
      </trkpt>
      <trkpt lat="44.18299" lon="5.27322">
        <ele>1501.9</ele>
        <time>2026-05-14T12:14:03.999Z</time>
      </trkpt>
      <trkpt lat="44.183" lon="5.27322">
        <ele>1501.9</ele>
        <time>2026-05-14T12:14:04.999Z</time>
      </trkpt>
      <trkpt lat="44.18301" lon="5.27322">
        <ele>1501.7</ele>
        <time>2026-05-14T12:14:05.999Z</time>
      </trkpt>
      <trkpt lat="44.18301" lon="5.27322">
        <ele>1501.4</ele>
        <time>2026-05-14T12:14:06.999Z</time>
      </trkpt>
      <trkpt lat="44.18302" lon="5.27322">
        <ele>1501.2</ele>
        <time>2026-05-14T12:14:07.999Z</time>
      </trkpt>
      <trkpt lat="44.18303" lon="5.27322">
        <ele>1501</ele>
        <time>2026-05-14T12:14:08.999Z</time>
      </trkpt>
      <trkpt lat="44.18304" lon="5.27321">
        <ele>1501.1</ele>
        <time>2026-05-14T12:14:09.999Z</time>
      </trkpt>
      <trkpt lat="44.18304" lon="5.27321">
        <ele>1501.1</ele>
        <time>2026-05-14T12:14:10.999Z</time>
      </trkpt>
      <trkpt lat="44.18305" lon="5.27322">
        <ele>1501.3</ele>
        <time>2026-05-14T12:14:11.999Z</time>
      </trkpt>
      <trkpt lat="44.18305" lon="5.27322">
        <ele>1501.4</ele>
        <time>2026-05-14T12:14:12.999Z</time>
      </trkpt>
      <trkpt lat="44.18306" lon="5.27322">
        <ele>1501.5</ele>
        <time>2026-05-14T12:14:13.999Z</time>
      </trkpt>
      <trkpt lat="44.18307" lon="5.27321">
        <ele>1501.3</ele>
        <time>2026-05-14T12:14:14.999Z</time>
      </trkpt>
      <trkpt lat="44.18307" lon="5.2732">
        <ele>1501.2</ele>
        <time>2026-05-14T12:14:15.999Z</time>
      </trkpt>
      <trkpt lat="44.18308" lon="5.2732">
        <ele>1501</ele>
        <time>2026-05-14T12:14:16.999Z</time>
      </trkpt>
      <trkpt lat="44.18309" lon="5.27319">
        <ele>1501</ele>
        <time>2026-05-14T12:14:17.999Z</time>
      </trkpt>
      <trkpt lat="44.1831" lon="5.27319">
        <ele>1500.9</ele>
        <time>2026-05-14T12:14:18.999Z</time>
      </trkpt>
      <trkpt lat="44.18311" lon="5.27319">
        <ele>1500.7</ele>
        <time>2026-05-14T12:14:19.999Z</time>
      </trkpt>
      <trkpt lat="44.18311" lon="5.2732">
        <ele>1500.2</ele>
        <time>2026-05-14T12:14:20.999Z</time>
      </trkpt>
      <trkpt lat="44.18312" lon="5.27321">
        <ele>1499.8</ele>
        <time>2026-05-14T12:14:21.999Z</time>
      </trkpt>
      <trkpt lat="44.18313" lon="5.27321">
        <ele>1499.3</ele>
        <time>2026-05-14T12:14:22.999Z</time>
      </trkpt>
      <trkpt lat="44.18314" lon="5.27322">
        <ele>1499.4</ele>
        <time>2026-05-14T12:14:23.999Z</time>
      </trkpt>
      <trkpt lat="44.18315" lon="5.27323">
        <ele>1499.3</ele>
        <time>2026-05-14T12:14:24.999Z</time>
      </trkpt>
      <trkpt lat="44.18315" lon="5.27324">
        <ele>1499</ele>
        <time>2026-05-14T12:14:25.999Z</time>
      </trkpt>
      <trkpt lat="44.18316" lon="5.27325">
        <ele>1498.7</ele>
        <time>2026-05-14T12:14:26.999Z</time>
      </trkpt>
      <trkpt lat="44.18316" lon="5.27327">
        <ele>1498.4</ele>
        <time>2026-05-14T12:14:27.999Z</time>
      </trkpt>
      <trkpt lat="44.18317" lon="5.27328">
        <ele>1498.3</ele>
        <time>2026-05-14T12:14:28.999Z</time>
      </trkpt>
      <trkpt lat="44.18318" lon="5.27328">
        <ele>1498.3</ele>
        <time>2026-05-14T12:14:29.999Z</time>
      </trkpt>
      <trkpt lat="44.18319" lon="5.27328">
        <ele>1497.9</ele>
        <time>2026-05-14T12:14:30.999Z</time>
      </trkpt>
      <trkpt lat="44.1832" lon="5.27328">
        <ele>1497.8</ele>
        <time>2026-05-14T12:14:31.999Z</time>
      </trkpt>
      <trkpt lat="44.18321" lon="5.27329">
        <ele>1497.5</ele>
        <time>2026-05-14T12:14:32.999Z</time>
      </trkpt>
      <trkpt lat="44.18322" lon="5.27329">
        <ele>1497.4</ele>
        <time>2026-05-14T12:14:33.999Z</time>
      </trkpt>
      <trkpt lat="44.18323" lon="5.2733">
        <ele>1497.1</ele>
        <time>2026-05-14T12:14:34.999Z</time>
      </trkpt>
      <trkpt lat="44.18324" lon="5.2733">
        <ele>1496.6</ele>
        <time>2026-05-14T12:14:35.999Z</time>
      </trkpt>
      <trkpt lat="44.18324" lon="5.2733">
        <ele>1496.3</ele>
        <time>2026-05-14T12:14:36.999Z</time>
      </trkpt>
      <trkpt lat="44.18325" lon="5.2733">
        <ele>1496</ele>
        <time>2026-05-14T12:14:37.999Z</time>
      </trkpt>
      <trkpt lat="44.18325" lon="5.27331">
        <ele>1495.7</ele>
        <time>2026-05-14T12:14:38.999Z</time>
      </trkpt>
      <trkpt lat="44.18326" lon="5.27332">
        <ele>1495.5</ele>
        <time>2026-05-14T12:14:39.999Z</time>
      </trkpt>
      <trkpt lat="44.18327" lon="5.27332">
        <ele>1495.3</ele>
        <time>2026-05-14T12:14:40.999Z</time>
      </trkpt>
      <trkpt lat="44.18328" lon="5.27332">
        <ele>1495</ele>
        <time>2026-05-14T12:14:41.999Z</time>
      </trkpt>
      <trkpt lat="44.18329" lon="5.27332">
        <ele>1494.8</ele>
        <time>2026-05-14T12:14:42.999Z</time>
      </trkpt>
      <trkpt lat="44.1833" lon="5.27332">
        <ele>1494.5</ele>
        <time>2026-05-14T12:14:43.999Z</time>
      </trkpt>
      <trkpt lat="44.1833" lon="5.27332">
        <ele>1494.3</ele>
        <time>2026-05-14T12:14:44.999Z</time>
      </trkpt>
      <trkpt lat="44.18332" lon="5.27331">
        <ele>1494.1</ele>
        <time>2026-05-14T12:14:45.999Z</time>
      </trkpt>
      <trkpt lat="44.18333" lon="5.27331">
        <ele>1493.9</ele>
        <time>2026-05-14T12:14:46.999Z</time>
      </trkpt>
      <trkpt lat="44.18334" lon="5.27331">
        <ele>1493.8</ele>
        <time>2026-05-14T12:14:47.999Z</time>
      </trkpt>
      <trkpt lat="44.18335" lon="5.27331">
        <ele>1493.4</ele>
        <time>2026-05-14T12:14:48.999Z</time>
      </trkpt>
      <trkpt lat="44.18336" lon="5.27332">
        <ele>1493.1</ele>
        <time>2026-05-14T12:14:49.999Z</time>
      </trkpt>
      <trkpt lat="44.18337" lon="5.27333">
        <ele>1493.2</ele>
        <time>2026-05-14T12:14:50.999Z</time>
      </trkpt>
      <trkpt lat="44.18338" lon="5.27333">
        <ele>1493</ele>
        <time>2026-05-14T12:14:51.999Z</time>
      </trkpt>
      <trkpt lat="44.18338" lon="5.27333">
        <ele>1492.7</ele>
        <time>2026-05-14T12:14:52.999Z</time>
      </trkpt>
      <trkpt lat="44.18339" lon="5.27335">
        <ele>1492.3</ele>
        <time>2026-05-14T12:14:53.999Z</time>
      </trkpt>
      <trkpt lat="44.18339" lon="5.27335">
        <ele>1491.8</ele>
        <time>2026-05-14T12:14:54.999Z</time>
      </trkpt>
      <trkpt lat="44.18341" lon="5.27337">
        <ele>1491.6</ele>
        <time>2026-05-14T12:14:55.999Z</time>
      </trkpt>
      <trkpt lat="44.18341" lon="5.27337">
        <ele>1491.6</ele>
        <time>2026-05-14T12:14:56.999Z</time>
      </trkpt>
      <trkpt lat="44.18342" lon="5.27338">
        <ele>1491.7</ele>
        <time>2026-05-14T12:14:57.999Z</time>
      </trkpt>
      <trkpt lat="44.18343" lon="5.27339">
        <ele>1492</ele>
        <time>2026-05-14T12:14:58.999Z</time>
      </trkpt>
      <trkpt lat="44.18343" lon="5.2734">
        <ele>1491.8</ele>
        <time>2026-05-14T12:14:59.999Z</time>
      </trkpt>
      <trkpt lat="44.18344" lon="5.27341">
        <ele>1491.9</ele>
        <time>2026-05-14T12:15:00.999Z</time>
      </trkpt>
      <trkpt lat="44.18345" lon="5.27342">
        <ele>1491.3</ele>
        <time>2026-05-14T12:15:01.999Z</time>
      </trkpt>
      <trkpt lat="44.18347" lon="5.27343">
        <ele>1490.8</ele>
        <time>2026-05-14T12:15:02.999Z</time>
      </trkpt>
      <trkpt lat="44.18348" lon="5.27344">
        <ele>1490.6</ele>
        <time>2026-05-14T12:15:03.999Z</time>
      </trkpt>
      <trkpt lat="44.18349" lon="5.27343">
        <ele>1490.3</ele>
        <time>2026-05-14T12:15:04.999Z</time>
      </trkpt>
      <trkpt lat="44.1835" lon="5.27343">
        <ele>1489.9</ele>
        <time>2026-05-14T12:15:05.999Z</time>
      </trkpt>
      <trkpt lat="44.1835" lon="5.27343">
        <ele>1489.5</ele>
        <time>2026-05-14T12:15:06.999Z</time>
      </trkpt>
      <trkpt lat="44.18351" lon="5.27343">
        <ele>1489.3</ele>
        <time>2026-05-14T12:15:07.999Z</time>
      </trkpt>
      <trkpt lat="44.18351" lon="5.27344">
        <ele>1489.2</ele>
        <time>2026-05-14T12:15:08.999Z</time>
      </trkpt>
      <trkpt lat="44.18352" lon="5.27345">
        <ele>1489.4</ele>
        <time>2026-05-14T12:15:09.999Z</time>
      </trkpt>
      <trkpt lat="44.18353" lon="5.27345">
        <ele>1489.5</ele>
        <time>2026-05-14T12:15:10.999Z</time>
      </trkpt>
      <trkpt lat="44.18353" lon="5.27347">
        <ele>1489</ele>
        <time>2026-05-14T12:15:11.999Z</time>
      </trkpt>
      <trkpt lat="44.18354" lon="5.27347">
        <ele>1488.5</ele>
        <time>2026-05-14T12:15:12.999Z</time>
      </trkpt>
      <trkpt lat="44.18355" lon="5.27348">
        <ele>1488.3</ele>
        <time>2026-05-14T12:15:13.999Z</time>
      </trkpt>
      <trkpt lat="44.18356" lon="5.27349">
        <ele>1488.1</ele>
        <time>2026-05-14T12:15:14.999Z</time>
      </trkpt>
      <trkpt lat="44.18357" lon="5.2735">
        <ele>1488.1</ele>
        <time>2026-05-14T12:15:15.999Z</time>
      </trkpt>
      <trkpt lat="44.18358" lon="5.27351">
        <ele>1488.1</ele>
        <time>2026-05-14T12:15:16.999Z</time>
      </trkpt>
      <trkpt lat="44.18359" lon="5.27352">
        <ele>1487.5</ele>
        <time>2026-05-14T12:15:17.999Z</time>
      </trkpt>
      <trkpt lat="44.18359" lon="5.27353">
        <ele>1487.4</ele>
        <time>2026-05-14T12:15:18.999Z</time>
      </trkpt>
      <trkpt lat="44.1836" lon="5.27353">
        <ele>1487</ele>
        <time>2026-05-14T12:15:19.999Z</time>
      </trkpt>
      <trkpt lat="44.18361" lon="5.27354">
        <ele>1487.2</ele>
        <time>2026-05-14T12:15:20.999Z</time>
      </trkpt>
      <trkpt lat="44.18362" lon="5.27354">
        <ele>1487.4</ele>
        <time>2026-05-14T12:15:21.999Z</time>
      </trkpt>
      <trkpt lat="44.18363" lon="5.27354">
        <ele>1487.5</ele>
        <time>2026-05-14T12:15:22.999Z</time>
      </trkpt>
      <trkpt lat="44.18363" lon="5.27355">
        <ele>1487.4</ele>
        <time>2026-05-14T12:15:23.999Z</time>
      </trkpt>
      <trkpt lat="44.18364" lon="5.27356">
        <ele>1487.1</ele>
        <time>2026-05-14T12:15:24.999Z</time>
      </trkpt>
      <trkpt lat="44.18365" lon="5.27356">
        <ele>1486.7</ele>
        <time>2026-05-14T12:15:25.999Z</time>
      </trkpt>
      <trkpt lat="44.18366" lon="5.27357">
        <ele>1486.5</ele>
        <time>2026-05-14T12:15:26.999Z</time>
      </trkpt>
      <trkpt lat="44.18367" lon="5.27357">
        <ele>1486.3</ele>
        <time>2026-05-14T12:15:27.999Z</time>
      </trkpt>
      <trkpt lat="44.18368" lon="5.27357">
        <ele>1486.2</ele>
        <time>2026-05-14T12:15:28.999Z</time>
      </trkpt>
      <trkpt lat="44.18368" lon="5.27357">
        <ele>1485.9</ele>
        <time>2026-05-14T12:15:29.999Z</time>
      </trkpt>
      <trkpt lat="44.18369" lon="5.27358">
        <ele>1485.7</ele>
        <time>2026-05-14T12:15:30.999Z</time>
      </trkpt>
      <trkpt lat="44.1837" lon="5.27358">
        <ele>1485.4</ele>
        <time>2026-05-14T12:15:31.999Z</time>
      </trkpt>
      <trkpt lat="44.1837" lon="5.27358">
        <ele>1485.1</ele>
        <time>2026-05-14T12:15:32.999Z</time>
      </trkpt>
      <trkpt lat="44.18371" lon="5.2736">
        <ele>1485.2</ele>
        <time>2026-05-14T12:15:33.999Z</time>
      </trkpt>
      <trkpt lat="44.18372" lon="5.2736">
        <ele>1484.8</ele>
        <time>2026-05-14T12:15:34.999Z</time>
      </trkpt>
      <trkpt lat="44.18372" lon="5.2736">
        <ele>1484.6</ele>
        <time>2026-05-14T12:15:35.999Z</time>
      </trkpt>
      <trkpt lat="44.18373" lon="5.27361">
        <ele>1484.1</ele>
        <time>2026-05-14T12:15:36.999Z</time>
      </trkpt>
      <trkpt lat="44.18374" lon="5.27362">
        <ele>1483.9</ele>
        <time>2026-05-14T12:15:37.999Z</time>
      </trkpt>
      <trkpt lat="44.18374" lon="5.27362">
        <ele>1483.6</ele>
        <time>2026-05-14T12:15:38.999Z</time>
      </trkpt>
      <trkpt lat="44.18375" lon="5.27364">
        <ele>1483.4</ele>
        <time>2026-05-14T12:15:39.999Z</time>
      </trkpt>
      <trkpt lat="44.18376" lon="5.27365">
        <ele>1483.3</ele>
        <time>2026-05-14T12:15:40.999Z</time>
      </trkpt>
      <trkpt lat="44.18378" lon="5.27367">
        <ele>1482.7</ele>
        <time>2026-05-14T12:15:41.999Z</time>
      </trkpt>
      <trkpt lat="44.18379" lon="5.27367">
        <ele>1482.7</ele>
        <time>2026-05-14T12:15:42.999Z</time>
      </trkpt>
      <trkpt lat="44.1838" lon="5.27369">
        <ele>1482.7</ele>
        <time>2026-05-14T12:15:43.999Z</time>
      </trkpt>
      <trkpt lat="44.18381" lon="5.2737">
        <ele>1482.6</ele>
        <time>2026-05-14T12:15:44.999Z</time>
      </trkpt>
      <trkpt lat="44.18381" lon="5.27371">
        <ele>1482.5</ele>
        <time>2026-05-14T12:15:45.999Z</time>
      </trkpt>
      <trkpt lat="44.18382" lon="5.27372">
        <ele>1482.4</ele>
        <time>2026-05-14T12:15:46.999Z</time>
      </trkpt>
      <trkpt lat="44.18383" lon="5.27372">
        <ele>1482.1</ele>
        <time>2026-05-14T12:15:47.999Z</time>
      </trkpt>
      <trkpt lat="44.18384" lon="5.27373">
        <ele>1481.6</ele>
        <time>2026-05-14T12:15:48.999Z</time>
      </trkpt>
      <trkpt lat="44.18385" lon="5.27375">
        <ele>1481.2</ele>
        <time>2026-05-14T12:15:49.999Z</time>
      </trkpt>
      <trkpt lat="44.18386" lon="5.27376">
        <ele>1480.8</ele>
        <time>2026-05-14T12:15:50.999Z</time>
      </trkpt>
      <trkpt lat="44.18387" lon="5.27377">
        <ele>1480.4</ele>
        <time>2026-05-14T12:15:51.999Z</time>
      </trkpt>
      <trkpt lat="44.18388" lon="5.27378">
        <ele>1480.3</ele>
        <time>2026-05-14T12:15:52.999Z</time>
      </trkpt>
      <trkpt lat="44.18388" lon="5.27378">
        <ele>1480.3</ele>
        <time>2026-05-14T12:15:53.999Z</time>
      </trkpt>
      <trkpt lat="44.18389" lon="5.27378">
        <ele>1480</ele>
        <time>2026-05-14T12:15:54.999Z</time>
      </trkpt>
      <trkpt lat="44.1839" lon="5.27379">
        <ele>1479.6</ele>
        <time>2026-05-14T12:15:55.999Z</time>
      </trkpt>
      <trkpt lat="44.18391" lon="5.27379">
        <ele>1479.5</ele>
        <time>2026-05-14T12:15:56.999Z</time>
      </trkpt>
      <trkpt lat="44.18393" lon="5.2738">
        <ele>1479.6</ele>
        <time>2026-05-14T12:15:57.999Z</time>
      </trkpt>
      <trkpt lat="44.18394" lon="5.2738">
        <ele>1479.5</ele>
        <time>2026-05-14T12:15:58.999Z</time>
      </trkpt>
      <trkpt lat="44.18395" lon="5.2738">
        <ele>1479.4</ele>
        <time>2026-05-14T12:15:59.999Z</time>
      </trkpt>
      <trkpt lat="44.18396" lon="5.27381">
        <ele>1479.1</ele>
        <time>2026-05-14T12:16:00.999Z</time>
      </trkpt>
      <trkpt lat="44.18397" lon="5.27383">
        <ele>1478.8</ele>
        <time>2026-05-14T12:16:01.999Z</time>
      </trkpt>
      <trkpt lat="44.18398" lon="5.27384">
        <ele>1478.9</ele>
        <time>2026-05-14T12:16:02.999Z</time>
      </trkpt>
      <trkpt lat="44.18399" lon="5.27384">
        <ele>1478.6</ele>
        <time>2026-05-14T12:16:03.999Z</time>
      </trkpt>
      <trkpt lat="44.184" lon="5.27384">
        <ele>1478.6</ele>
        <time>2026-05-14T12:16:04.999Z</time>
      </trkpt>
      <trkpt lat="44.18401" lon="5.27385">
        <ele>1478.4</ele>
        <time>2026-05-14T12:16:05.999Z</time>
      </trkpt>
      <trkpt lat="44.18402" lon="5.27386">
        <ele>1478.1</ele>
        <time>2026-05-14T12:16:06.999Z</time>
      </trkpt>
      <trkpt lat="44.18404" lon="5.27385">
        <ele>1478</ele>
        <time>2026-05-14T12:16:07.999Z</time>
      </trkpt>
      <trkpt lat="44.18405" lon="5.27385">
        <ele>1477.7</ele>
        <time>2026-05-14T12:16:08.999Z</time>
      </trkpt>
      <trkpt lat="44.18407" lon="5.27386">
        <ele>1477.6</ele>
        <time>2026-05-14T12:16:09.999Z</time>
      </trkpt>
      <trkpt lat="44.18409" lon="5.27386">
        <ele>1477.4</ele>
        <time>2026-05-14T12:16:10.999Z</time>
      </trkpt>
      <trkpt lat="44.18411" lon="5.27386">
        <ele>1477</ele>
        <time>2026-05-14T12:16:11.999Z</time>
      </trkpt>
      <trkpt lat="44.18412" lon="5.27387">
        <ele>1476.6</ele>
        <time>2026-05-14T12:16:12.999Z</time>
      </trkpt>
      <trkpt lat="44.18413" lon="5.27387">
        <ele>1476.6</ele>
        <time>2026-05-14T12:16:13.999Z</time>
      </trkpt>
      <trkpt lat="44.18413" lon="5.27388">
        <ele>1476.8</ele>
        <time>2026-05-14T12:16:14.999Z</time>
      </trkpt>
      <trkpt lat="44.18414" lon="5.27388">
        <ele>1476.8</ele>
        <time>2026-05-14T12:16:15.999Z</time>
      </trkpt>
      <trkpt lat="44.18415" lon="5.27389">
        <ele>1476.6</ele>
        <time>2026-05-14T12:16:16.999Z</time>
      </trkpt>
      <trkpt lat="44.18415" lon="5.27389">
        <ele>1476.7</ele>
        <time>2026-05-14T12:16:17.999Z</time>
      </trkpt>
      <trkpt lat="44.18416" lon="5.27391">
        <ele>1476.8</ele>
        <time>2026-05-14T12:16:18.999Z</time>
      </trkpt>
      <trkpt lat="44.18417" lon="5.27391">
        <ele>1477</ele>
        <time>2026-05-14T12:16:19.999Z</time>
      </trkpt>
      <trkpt lat="44.18418" lon="5.27391">
        <ele>1476.7</ele>
        <time>2026-05-14T12:16:20.999Z</time>
      </trkpt>
      <trkpt lat="44.18419" lon="5.27391">
        <ele>1476.5</ele>
        <time>2026-05-14T12:16:21.999Z</time>
      </trkpt>
      <trkpt lat="44.1842" lon="5.27392">
        <ele>1476.1</ele>
        <time>2026-05-14T12:16:22.999Z</time>
      </trkpt>
      <trkpt lat="44.18421" lon="5.27391">
        <ele>1475.8</ele>
        <time>2026-05-14T12:16:23.999Z</time>
      </trkpt>
      <trkpt lat="44.18422" lon="5.27392">
        <ele>1475.6</ele>
        <time>2026-05-14T12:16:24.999Z</time>
      </trkpt>
      <trkpt lat="44.18423" lon="5.27392">
        <ele>1475.4</ele>
        <time>2026-05-14T12:16:25.999Z</time>
      </trkpt>
      <trkpt lat="44.18423" lon="5.27392">
        <ele>1474.9</ele>
        <time>2026-05-14T12:16:26.999Z</time>
      </trkpt>
      <trkpt lat="44.18424" lon="5.27394">
        <ele>1474.5</ele>
        <time>2026-05-14T12:16:27.999Z</time>
      </trkpt>
      <trkpt lat="44.18426" lon="5.27395">
        <ele>1474.1</ele>
        <time>2026-05-14T12:16:28.999Z</time>
      </trkpt>
      <trkpt lat="44.18427" lon="5.27395">
        <ele>1473.8</ele>
        <time>2026-05-14T12:16:29.999Z</time>
      </trkpt>
      <trkpt lat="44.18427" lon="5.27397">
        <ele>1473.2</ele>
        <time>2026-05-14T12:16:30.999Z</time>
      </trkpt>
      <trkpt lat="44.18428" lon="5.27398">
        <ele>1472.9</ele>
        <time>2026-05-14T12:16:31.999Z</time>
      </trkpt>
      <trkpt lat="44.18428" lon="5.274">
        <ele>1472.8</ele>
        <time>2026-05-14T12:16:32.999Z</time>
      </trkpt>
      <trkpt lat="44.18429" lon="5.274">
        <ele>1473</ele>
        <time>2026-05-14T12:16:33.999Z</time>
      </trkpt>
      <trkpt lat="44.1843" lon="5.27401">
        <ele>1472.6</ele>
        <time>2026-05-14T12:16:34.999Z</time>
      </trkpt>
      <trkpt lat="44.18431" lon="5.27401">
        <ele>1472.6</ele>
        <time>2026-05-14T12:16:35.999Z</time>
      </trkpt>
      <trkpt lat="44.18431" lon="5.27402">
        <ele>1472.5</ele>
        <time>2026-05-14T12:16:36.999Z</time>
      </trkpt>
      <trkpt lat="44.18433" lon="5.27402">
        <ele>1472.5</ele>
        <time>2026-05-14T12:16:37.999Z</time>
      </trkpt>
      <trkpt lat="44.18433" lon="5.27402">
        <ele>1472.7</ele>
        <time>2026-05-14T12:16:38.999Z</time>
      </trkpt>
      <trkpt lat="44.18434" lon="5.27403">
        <ele>1473</ele>
        <time>2026-05-14T12:16:39.999Z</time>
      </trkpt>
      <trkpt lat="44.18435" lon="5.27403">
        <ele>1473.2</ele>
        <time>2026-05-14T12:16:40.999Z</time>
      </trkpt>
      <trkpt lat="44.18436" lon="5.27404">
        <ele>1473.5</ele>
        <time>2026-05-14T12:16:41.999Z</time>
      </trkpt>
      <trkpt lat="44.18438" lon="5.27406">
        <ele>1473.5</ele>
        <time>2026-05-14T12:16:42.999Z</time>
      </trkpt>
      <trkpt lat="44.18439" lon="5.27407">
        <ele>1473.8</ele>
        <time>2026-05-14T12:16:43.999Z</time>
      </trkpt>
      <trkpt lat="44.18441" lon="5.27408">
        <ele>1474</ele>
        <time>2026-05-14T12:16:44.999Z</time>
      </trkpt>
      <trkpt lat="44.18442" lon="5.27409">
        <ele>1474.3</ele>
        <time>2026-05-14T12:16:45.999Z</time>
      </trkpt>
      <trkpt lat="44.18443" lon="5.2741">
        <ele>1474</ele>
        <time>2026-05-14T12:16:46.999Z</time>
      </trkpt>
      <trkpt lat="44.18444" lon="5.2741">
        <ele>1474.2</ele>
        <time>2026-05-14T12:16:47.999Z</time>
      </trkpt>
      <trkpt lat="44.18444" lon="5.2741">
        <ele>1474.7</ele>
        <time>2026-05-14T12:16:48.999Z</time>
      </trkpt>
      <trkpt lat="44.18445" lon="5.27411">
        <ele>1474.8</ele>
        <time>2026-05-14T12:16:49.999Z</time>
      </trkpt>
      <trkpt lat="44.18446" lon="5.27412">
        <ele>1474.7</ele>
        <time>2026-05-14T12:16:50.999Z</time>
      </trkpt>
      <trkpt lat="44.18447" lon="5.27414">
        <ele>1474.6</ele>
        <time>2026-05-14T12:16:51.999Z</time>
      </trkpt>
      <trkpt lat="44.18448" lon="5.27416">
        <ele>1474</ele>
        <time>2026-05-14T12:16:52.999Z</time>
      </trkpt>
      <trkpt lat="44.18449" lon="5.27417">
        <ele>1474</ele>
        <time>2026-05-14T12:16:53.999Z</time>
      </trkpt>
      <trkpt lat="44.1845" lon="5.27417">
        <ele>1474.3</ele>
        <time>2026-05-14T12:16:54.999Z</time>
      </trkpt>
      <trkpt lat="44.1845" lon="5.27418">
        <ele>1474.5</ele>
        <time>2026-05-14T12:16:55.999Z</time>
      </trkpt>
      <trkpt lat="44.1845" lon="5.27419">
        <ele>1474.6</ele>
        <time>2026-05-14T12:16:56.999Z</time>
      </trkpt>
      <trkpt lat="44.18451" lon="5.2742">
        <ele>1474.7</ele>
        <time>2026-05-14T12:16:57.999Z</time>
      </trkpt>
      <trkpt lat="44.18452" lon="5.27421">
        <ele>1474.5</ele>
        <time>2026-05-14T12:16:58.999Z</time>
      </trkpt>
      <trkpt lat="44.18453" lon="5.27423">
        <ele>1474.6</ele>
        <time>2026-05-14T12:16:59.999Z</time>
      </trkpt>
      <trkpt lat="44.18453" lon="5.27424">
        <ele>1474.5</ele>
        <time>2026-05-14T12:17:00.999Z</time>
      </trkpt>
      <trkpt lat="44.18453" lon="5.27424">
        <ele>1474.4</ele>
        <time>2026-05-14T12:17:01.999Z</time>
      </trkpt>
      <trkpt lat="44.18454" lon="5.27425">
        <ele>1474</ele>
        <time>2026-05-14T12:17:02.999Z</time>
      </trkpt>
      <trkpt lat="44.18454" lon="5.27425">
        <ele>1473.9</ele>
        <time>2026-05-14T12:17:03.999Z</time>
      </trkpt>
      <trkpt lat="44.18455" lon="5.27425">
        <ele>1474.3</ele>
        <time>2026-05-14T12:17:04.999Z</time>
      </trkpt>
      <trkpt lat="44.18457" lon="5.27424">
        <ele>1474.7</ele>
        <time>2026-05-14T12:17:05.999Z</time>
      </trkpt>
      <trkpt lat="44.18459" lon="5.27424">
        <ele>1475</ele>
        <time>2026-05-14T12:17:06.999Z</time>
      </trkpt>
      <trkpt lat="44.1846" lon="5.27422">
        <ele>1475.6</ele>
        <time>2026-05-14T12:17:07.999Z</time>
      </trkpt>
      <trkpt lat="44.1846" lon="5.27421">
        <ele>1476</ele>
        <time>2026-05-14T12:17:08.999Z</time>
      </trkpt>
      <trkpt lat="44.18461" lon="5.2742">
        <ele>1475.9</ele>
        <time>2026-05-14T12:17:09.999Z</time>
      </trkpt>
      <trkpt lat="44.18462" lon="5.27419">
        <ele>1475.4</ele>
        <time>2026-05-14T12:17:10.999Z</time>
      </trkpt>
      <trkpt lat="44.18463" lon="5.27417">
        <ele>1474.9</ele>
        <time>2026-05-14T12:17:11.999Z</time>
      </trkpt>
      <trkpt lat="44.18465" lon="5.27415">
        <ele>1474.5</ele>
        <time>2026-05-14T12:17:12.999Z</time>
      </trkpt>
      <trkpt lat="44.18467" lon="5.27411">
        <ele>1473.9</ele>
        <time>2026-05-14T12:17:13.999Z</time>
      </trkpt>
      <trkpt lat="44.18468" lon="5.27409">
        <ele>1473.8</ele>
        <time>2026-05-14T12:17:14.999Z</time>
      </trkpt>
      <trkpt lat="44.1847" lon="5.27406">
        <ele>1473.7</ele>
        <time>2026-05-14T12:17:15.999Z</time>
      </trkpt>
      <trkpt lat="44.18471" lon="5.27404">
        <ele>1473.5</ele>
        <time>2026-05-14T12:17:16.999Z</time>
      </trkpt>
      <trkpt lat="44.18473" lon="5.27401">
        <ele>1473.5</ele>
        <time>2026-05-14T12:17:17.999Z</time>
      </trkpt>
      <trkpt lat="44.18474" lon="5.27398">
        <ele>1473</ele>
        <time>2026-05-14T12:17:18.999Z</time>
      </trkpt>
      <trkpt lat="44.18475" lon="5.27396">
        <ele>1472.9</ele>
        <time>2026-05-14T12:17:19.999Z</time>
      </trkpt>
      <trkpt lat="44.18476" lon="5.27394">
        <ele>1472.8</ele>
        <time>2026-05-14T12:17:20.999Z</time>
      </trkpt>
      <trkpt lat="44.18477" lon="5.27391">
        <ele>1472.8</ele>
        <time>2026-05-14T12:17:21.999Z</time>
      </trkpt>
      <trkpt lat="44.18478" lon="5.27389">
        <ele>1472.4</ele>
        <time>2026-05-14T12:17:22.999Z</time>
      </trkpt>
      <trkpt lat="44.18478" lon="5.27386">
        <ele>1472.1</ele>
        <time>2026-05-14T12:17:23.999Z</time>
      </trkpt>
      <trkpt lat="44.18479" lon="5.27384">
        <ele>1472.2</ele>
        <time>2026-05-14T12:17:24.999Z</time>
      </trkpt>
      <trkpt lat="44.18478" lon="5.27382">
        <ele>1472.1</ele>
        <time>2026-05-14T12:17:25.999Z</time>
      </trkpt>
      <trkpt lat="44.18476" lon="5.2738">
        <ele>1471.4</ele>
        <time>2026-05-14T12:17:26.999Z</time>
      </trkpt>
      <trkpt lat="44.18475" lon="5.27379">
        <ele>1470.9</ele>
        <time>2026-05-14T12:17:27.999Z</time>
      </trkpt>
      <trkpt lat="44.18472" lon="5.27378">
        <ele>1470.3</ele>
        <time>2026-05-14T12:17:28.999Z</time>
      </trkpt>
      <trkpt lat="44.1847" lon="5.27378">
        <ele>1469.9</ele>
        <time>2026-05-14T12:17:29.999Z</time>
      </trkpt>
      <trkpt lat="44.1847" lon="5.27378">
        <ele>1470.2</ele>
        <time>2026-05-14T12:17:30.999Z</time>
      </trkpt>
      <trkpt lat="44.18471" lon="5.27379">
        <ele>1469.5</ele>
        <time>2026-05-14T12:17:31.999Z</time>
      </trkpt>
      <trkpt lat="44.18471" lon="5.27379">
        <ele>1469</ele>
        <time>2026-05-14T12:17:32.999Z</time>
      </trkpt>
      <trkpt lat="44.18471" lon="5.27379">
        <ele>1469</ele>
        <time>2026-05-14T12:17:33.999Z</time>
      </trkpt>
      <trkpt lat="44.18471" lon="5.27379">
        <ele>1468.7</ele>
        <time>2026-05-14T12:17:34.999Z</time>
      </trkpt>
      <trkpt lat="44.18471" lon="5.27379">
        <ele>1468.7</ele>
        <time>2026-05-14T12:17:35.999Z</time>
      </trkpt>
      <trkpt lat="44.18471" lon="5.27379">
        <ele>1468.6</ele>
        <time>2026-05-14T12:17:36.999Z</time>
      </trkpt>
      <trkpt lat="44.18471" lon="5.27379">
        <ele>1467.5</ele>
        <time>2026-05-14T12:17:38.999Z</time>
      </trkpt>
      <trkpt lat="44.18471" lon="5.27379">
        <ele>1467.2</ele>
        <time>2026-05-14T12:17:39.999Z</time>
      </trkpt>
      <trkpt lat="44.18471" lon="5.27379">
        <ele>1466.8</ele>
        <time>2026-05-14T12:17:40.999Z</time>
      </trkpt>
      <trkpt lat="44.18471" lon="5.27379">
        <ele>1466.3</ele>
        <time>2026-05-14T12:17:41.999Z</time>
      </trkpt>
      <trkpt lat="44.18471" lon="5.27379">
        <ele>1466.2</ele>
        <time>2026-05-14T12:17:42.999Z</time>
      </trkpt>
      <trkpt lat="44.18471" lon="5.2738">
        <ele>1466.2</ele>
        <time>2026-05-14T12:17:43.999Z</time>
      </trkpt>
      <trkpt lat="44.18471" lon="5.2738">
        <ele>1465.9</ele>
        <time>2026-05-14T12:17:45.999Z</time>
      </trkpt>
      <trkpt lat="44.18471" lon="5.2738">
        <ele>1466</ele>
        <time>2026-05-14T12:17:46.999Z</time>
      </trkpt>
      <trkpt lat="44.18471" lon="5.2738">
        <ele>1466.1</ele>
        <time>2026-05-14T12:17:47.999Z</time>
      </trkpt>
      <trkpt lat="44.18471" lon="5.2738">
        <ele>1466.2</ele>
        <time>2026-05-14T12:17:48.999Z</time>
      </trkpt>
      <trkpt lat="44.18471" lon="5.2738">
        <ele>1466</ele>
        <time>2026-05-14T12:17:49.999Z</time>
      </trkpt>
      <trkpt lat="44.18471" lon="5.2738">
        <ele>1466</ele>
        <time>2026-05-14T12:17:50.999Z</time>
      </trkpt>
      <trkpt lat="44.18471" lon="5.2738">
        <ele>1465.8</ele>
        <time>2026-05-14T12:17:51.999Z</time>
      </trkpt>
      <trkpt lat="44.18471" lon="5.2738">
        <ele>1465.7</ele>
        <time>2026-05-14T12:17:52.999Z</time>
      </trkpt>
      <trkpt lat="44.18471" lon="5.2738">
        <ele>1465.7</ele>
        <time>2026-05-14T12:17:53.999Z</time>
      </trkpt>
      <trkpt lat="44.18471" lon="5.2738">
        <ele>1465.6</ele>
        <time>2026-05-14T12:17:54.999Z</time>
      </trkpt>
      <trkpt lat="44.18471" lon="5.2738">
        <ele>1465.4</ele>
        <time>2026-05-14T12:17:55.999Z</time>
      </trkpt>
      <trkpt lat="44.18471" lon="5.2738">
        <ele>1465.3</ele>
        <time>2026-05-14T12:17:56.999Z</time>
      </trkpt>
      <trkpt lat="44.18472" lon="5.27381">
        <ele>1465.3</ele>
        <time>2026-05-14T12:17:57.999Z</time>
      </trkpt>
      <trkpt lat="44.18472" lon="5.27381">
        <ele>1465.2</ele>
        <time>2026-05-14T12:17:58.999Z</time>
      </trkpt>
      <trkpt lat="44.18472" lon="5.27381">
        <ele>1465.3</ele>
        <time>2026-05-14T12:17:59.999Z</time>
      </trkpt>
      <trkpt lat="44.18471" lon="5.2738">
        <ele>1465.4</ele>
        <time>2026-05-14T12:18:00.999Z</time>
      </trkpt>
      <trkpt lat="44.18471" lon="5.2738">
        <ele>1465.4</ele>
        <time>2026-05-14T12:18:01.999Z</time>
      </trkpt>
      <trkpt lat="44.1847" lon="5.27381">
        <ele>1465.3</ele>
        <time>2026-05-14T12:18:02.999Z</time>
      </trkpt>
      <trkpt lat="44.1847" lon="5.27381">
        <ele>1465.4</ele>
        <time>2026-05-14T12:18:03.999Z</time>
      </trkpt>
      <trkpt lat="44.1847" lon="5.27381">
        <ele>1465.5</ele>
        <time>2026-05-14T12:18:04.999Z</time>
      </trkpt>
      <trkpt lat="44.1847" lon="5.27381">
        <ele>1465.6</ele>
        <time>2026-05-14T12:18:05.999Z</time>
      </trkpt>
      <trkpt lat="44.1847" lon="5.27381">
        <ele>1465.6</ele>
        <time>2026-05-14T12:18:06.999Z</time>
      </trkpt>
      <trkpt lat="44.1847" lon="5.27381">
        <ele>1465.6</ele>
        <time>2026-05-14T12:18:07.999Z</time>
      </trkpt>
      <trkpt lat="44.1847" lon="5.27381">
        <ele>1465.6</ele>
        <time>2026-05-14T12:18:08.999Z</time>
      </trkpt>
      <trkpt lat="44.1847" lon="5.27381">
        <ele>1465.6</ele>
        <time>2026-05-14T12:18:09.999Z</time>
      </trkpt>
      <trkpt lat="44.1847" lon="5.27381">
        <ele>1465.7</ele>
        <time>2026-05-14T12:18:10.999Z</time>
      </trkpt>
      <trkpt lat="44.1847" lon="5.27381">
        <ele>1465.7</ele>
        <time>2026-05-14T12:18:11.999Z</time>
      </trkpt>
      <trkpt lat="44.1847" lon="5.27381">
        <ele>1465.7</ele>
        <time>2026-05-14T12:18:12.999Z</time>
      </trkpt>
      <trkpt lat="44.1847" lon="5.27381">
        <ele>1465.6</ele>
        <time>2026-05-14T12:18:13.999Z</time>
      </trkpt>
      <trkpt lat="44.1847" lon="5.27381">
        <ele>1465.5</ele>
        <time>2026-05-14T12:18:14.999Z</time>
      </trkpt>
      <trkpt lat="44.1847" lon="5.27381">
        <ele>1465.5</ele>
        <time>2026-05-14T12:18:15.999Z</time>
      </trkpt>
      <trkpt lat="44.1847" lon="5.27381">
        <ele>1465.4</ele>
        <time>2026-05-14T12:18:16.999Z</time>
      </trkpt>
      <trkpt lat="44.1847" lon="5.27381">
        <ele>1465.3</ele>
        <time>2026-05-14T12:18:17.999Z</time>
      </trkpt>
      <trkpt lat="44.1847" lon="5.27381">
        <ele>1465.3</ele>
        <time>2026-05-14T12:18:18.999Z</time>
      </trkpt>
      <trkpt lat="44.18469" lon="5.27381">
        <ele>1465.2</ele>
        <time>2026-05-14T12:18:19.999Z</time>
      </trkpt>
      <trkpt lat="44.18469" lon="5.27381">
        <ele>1465</ele>
        <time>2026-05-14T12:18:20.999Z</time>
      </trkpt>
      <trkpt lat="44.18469" lon="5.27381">
        <ele>1464.7</ele>
        <time>2026-05-14T12:18:21.999Z</time>
      </trkpt>
      <trkpt lat="44.18469" lon="5.27381">
        <ele>1464.5</ele>
        <time>2026-05-14T12:18:22.999Z</time>
      </trkpt>
      <trkpt lat="44.18469" lon="5.27381">
        <ele>1464.4</ele>
        <time>2026-05-14T12:18:23.999Z</time>
      </trkpt>
      <trkpt lat="44.18469" lon="5.27381">
        <ele>1464.2</ele>
        <time>2026-05-14T12:18:24.999Z</time>
      </trkpt>
      <trkpt lat="44.18469" lon="5.27381">
        <ele>1464.1</ele>
        <time>2026-05-14T12:18:25.999Z</time>
      </trkpt>
      <trkpt lat="44.18469" lon="5.27381">
        <ele>1464</ele>
        <time>2026-05-14T12:18:26.999Z</time>
      </trkpt>
      <trkpt lat="44.18469" lon="5.27381">
        <ele>1463.9</ele>
        <time>2026-05-14T12:18:27.999Z</time>
      </trkpt>
      <trkpt lat="44.18469" lon="5.27381">
        <ele>1463.8</ele>
        <time>2026-05-14T12:18:28.999Z</time>
      </trkpt>
      <trkpt lat="44.18469" lon="5.27381">
        <ele>1463.7</ele>
        <time>2026-05-14T12:18:29.999Z</time>
      </trkpt>
      <trkpt lat="44.18469" lon="5.27381">
        <ele>1463.6</ele>
        <time>2026-05-14T12:18:30.999Z</time>
      </trkpt>
      <trkpt lat="44.18469" lon="5.27381">
        <ele>1463.6</ele>
        <time>2026-05-14T12:18:31.999Z</time>
      </trkpt>
      <trkpt lat="44.18469" lon="5.27381">
        <ele>1463.4</ele>
        <time>2026-05-14T12:18:32.999Z</time>
      </trkpt>
      <trkpt lat="44.18469" lon="5.27381">
        <ele>1463.2</ele>
        <time>2026-05-14T12:18:33.999Z</time>
      </trkpt>
      <trkpt lat="44.18469" lon="5.27381">
        <ele>1463</ele>
        <time>2026-05-14T12:18:34.999Z</time>
      </trkpt>
      <trkpt lat="44.18469" lon="5.27381">
        <ele>1462.9</ele>
        <time>2026-05-14T12:18:35.999Z</time>
      </trkpt>
      <trkpt lat="44.18469" lon="5.27381">
        <ele>1462.7</ele>
        <time>2026-05-14T12:18:36.999Z</time>
      </trkpt>
      <trkpt lat="44.18469" lon="5.27381">
        <ele>1462.6</ele>
        <time>2026-05-14T12:18:37.999Z</time>
      </trkpt>
      <trkpt lat="44.18469" lon="5.27381">
        <ele>1462.5</ele>
        <time>2026-05-14T12:18:38.999Z</time>
      </trkpt>
      <trkpt lat="44.18469" lon="5.27381">
        <ele>1462.3</ele>
        <time>2026-05-14T12:18:39.999Z</time>
      </trkpt>
      <trkpt lat="44.18469" lon="5.27381">
        <ele>1462.1</ele>
        <time>2026-05-14T12:18:40.999Z</time>
      </trkpt>
      <trkpt lat="44.18469" lon="5.27381">
        <ele>1461.9</ele>
        <time>2026-05-14T12:18:41.999Z</time>
      </trkpt>
      <trkpt lat="44.18469" lon="5.27381">
        <ele>1462</ele>
        <time>2026-05-14T12:18:42.999Z</time>
      </trkpt>
      <trkpt lat="44.18469" lon="5.27381">
        <ele>1462.4</ele>
        <time>2026-05-14T12:18:43.999Z</time>
      </trkpt>
      <trkpt lat="44.18469" lon="5.27381">
        <ele>1462.6</ele>
        <time>2026-05-14T12:18:44.999Z</time>
      </trkpt>
      <trkpt lat="44.18469" lon="5.27381">
        <ele>1462.2</ele>
        <time>2026-05-14T12:18:45.999Z</time>
      </trkpt>
      <trkpt lat="44.18469" lon="5.27381">
        <ele>1462</ele>
        <time>2026-05-14T12:18:46.999Z</time>
      </trkpt>
      <trkpt lat="44.18469" lon="5.27381">
        <ele>1462.1</ele>
        <time>2026-05-14T12:18:47.999Z</time>
      </trkpt>
      <trkpt lat="44.18468" lon="5.27381">
        <ele>1462.1</ele>
        <time>2026-05-14T12:18:48.999Z</time>
      </trkpt>
      <trkpt lat="44.18468" lon="5.27381">
        <ele>1461.9</ele>
        <time>2026-05-14T12:18:49.999Z</time>
      </trkpt>
      <trkpt lat="44.18468" lon="5.27381">
        <ele>1461.6</ele>
        <time>2026-05-14T12:18:50.999Z</time>
      </trkpt>
      <trkpt lat="44.18468" lon="5.27381">
        <ele>1461.3</ele>
        <time>2026-05-14T12:18:51.999Z</time>
      </trkpt>
      <trkpt lat="44.18468" lon="5.27381">
        <ele>1460.9</ele>
        <time>2026-05-14T12:18:52.999Z</time>
      </trkpt>
      <trkpt lat="44.18467" lon="5.27381">
        <ele>1460.6</ele>
        <time>2026-05-14T12:18:53.999Z</time>
      </trkpt>
      <trkpt lat="44.18467" lon="5.27381">
        <ele>1460.3</ele>
        <time>2026-05-14T12:18:54.999Z</time>
      </trkpt>
      <trkpt lat="44.18467" lon="5.27381">
        <ele>1459.9</ele>
        <time>2026-05-14T12:18:55.999Z</time>
      </trkpt>
      <trkpt lat="44.18468" lon="5.27381">
        <ele>1459.7</ele>
        <time>2026-05-14T12:18:56.999Z</time>
      </trkpt>
      <trkpt lat="44.18468" lon="5.27381">
        <ele>1459.4</ele>
        <time>2026-05-14T12:18:57.999Z</time>
      </trkpt>
      <trkpt lat="44.18468" lon="5.27381">
        <ele>1459.1</ele>
        <time>2026-05-14T12:18:58.999Z</time>
      </trkpt>
      <trkpt lat="44.18468" lon="5.27381">
        <ele>1459.1</ele>
        <time>2026-05-14T12:18:59.999Z</time>
      </trkpt>
      <trkpt lat="44.18468" lon="5.27381">
        <ele>1459.1</ele>
        <time>2026-05-14T12:19:00.999Z</time>
      </trkpt>
      <trkpt lat="44.18468" lon="5.27381">
        <ele>1459.2</ele>
        <time>2026-05-14T12:19:01.999Z</time>
      </trkpt>
      <trkpt lat="44.18468" lon="5.27381">
        <ele>1459.3</ele>
        <time>2026-05-14T12:19:02.999Z</time>
      </trkpt>
      <trkpt lat="44.18468" lon="5.27381">
        <ele>1459.3</ele>
        <time>2026-05-14T12:19:03.999Z</time>
      </trkpt>
      <trkpt lat="44.18468" lon="5.27381">
        <ele>1459.3</ele>
        <time>2026-05-14T12:19:04.999Z</time>
      </trkpt>
      <trkpt lat="44.18468" lon="5.27381">
        <ele>1459.2</ele>
        <time>2026-05-14T12:19:05.999Z</time>
      </trkpt>
      <trkpt lat="44.18468" lon="5.27381">
        <ele>1459.1</ele>
        <time>2026-05-14T12:19:06.999Z</time>
      </trkpt>
      <trkpt lat="44.18468" lon="5.27381">
        <ele>1458.9</ele>
        <time>2026-05-14T12:19:07.999Z</time>
      </trkpt>
      <trkpt lat="44.18468" lon="5.27381">
        <ele>1458.3</ele>
        <time>2026-05-14T12:19:08.999Z</time>
      </trkpt>
      <trkpt lat="44.18468" lon="5.27381">
        <ele>1457.8</ele>
        <time>2026-05-14T12:19:09.999Z</time>
      </trkpt>
      <trkpt lat="44.18468" lon="5.27381">
        <ele>1457.2</ele>
        <time>2026-05-14T12:19:10.999Z</time>
      </trkpt>
      <trkpt lat="44.18468" lon="5.27381">
        <ele>1457.1</ele>
        <time>2026-05-14T12:19:11.999Z</time>
      </trkpt>
      <trkpt lat="44.18469" lon="5.27381">
        <ele>1456.8</ele>
        <time>2026-05-14T12:19:12.999Z</time>
      </trkpt>
      <trkpt lat="44.18469" lon="5.27381">
        <ele>1456.7</ele>
        <time>2026-05-14T12:19:13.999Z</time>
      </trkpt>
      <trkpt lat="44.18469" lon="5.27381">
        <ele>1456.3</ele>
        <time>2026-05-14T12:19:14.999Z</time>
      </trkpt>
      <trkpt lat="44.18469" lon="5.27381">
        <ele>1456.2</ele>
        <time>2026-05-14T12:19:15.999Z</time>
      </trkpt>
      <trkpt lat="44.18469" lon="5.27382">
        <ele>1456</ele>
        <time>2026-05-14T12:19:16.999Z</time>
      </trkpt>
      <trkpt lat="44.18469" lon="5.27382">
        <ele>1455.8</ele>
        <time>2026-05-14T12:19:17.999Z</time>
      </trkpt>
      <trkpt lat="44.18469" lon="5.27382">
        <ele>1455.9</ele>
        <time>2026-05-14T12:19:18.999Z</time>
      </trkpt>
      <trkpt lat="44.18469" lon="5.27382">
        <ele>1456.2</ele>
        <time>2026-05-14T12:19:19.999Z</time>
      </trkpt>
      <trkpt lat="44.18469" lon="5.27382">
        <ele>1456.4</ele>
        <time>2026-05-14T12:19:20.999Z</time>
      </trkpt>
      <trkpt lat="44.18469" lon="5.27382">
        <ele>1456.4</ele>
        <time>2026-05-14T12:19:21.999Z</time>
      </trkpt>
      <trkpt lat="44.18469" lon="5.27382">
        <ele>1456.4</ele>
        <time>2026-05-14T12:19:22.999Z</time>
      </trkpt>
      <trkpt lat="44.18469" lon="5.27382">
        <ele>1456.4</ele>
        <time>2026-05-14T12:19:23.999Z</time>
      </trkpt>
      <trkpt lat="44.18469" lon="5.27382">
        <ele>1456.4</ele>
        <time>2026-05-14T12:19:24.999Z</time>
      </trkpt>
      <trkpt lat="44.18469" lon="5.27382">
        <ele>1456.6</ele>
        <time>2026-05-14T12:19:25.999Z</time>
      </trkpt>
      <trkpt lat="44.18469" lon="5.27382">
        <ele>1456.5</ele>
        <time>2026-05-14T12:19:26.999Z</time>
      </trkpt>
      <trkpt lat="44.18469" lon="5.27382">
        <ele>1456.6</ele>
        <time>2026-05-14T12:19:27.999Z</time>
      </trkpt>
      <trkpt lat="44.18469" lon="5.27382">
        <ele>1457</ele>
        <time>2026-05-14T12:19:28.999Z</time>
      </trkpt>
      <trkpt lat="44.18469" lon="5.27382">
        <ele>1457.2</ele>
        <time>2026-05-14T12:19:29.999Z</time>
      </trkpt>
      <trkpt lat="44.18469" lon="5.27382">
        <ele>1457.1</ele>
        <time>2026-05-14T12:19:30.999Z</time>
      </trkpt>
      <trkpt lat="44.18469" lon="5.27382">
        <ele>1456.7</ele>
        <time>2026-05-14T12:19:31.999Z</time>
      </trkpt>
      <trkpt lat="44.18469" lon="5.27382">
        <ele>1456.7</ele>
        <time>2026-05-14T12:19:32.999Z</time>
      </trkpt>
      <trkpt lat="44.18469" lon="5.27382">
        <ele>1456.6</ele>
        <time>2026-05-14T12:19:33.999Z</time>
      </trkpt>
      <trkpt lat="44.18469" lon="5.27382">
        <ele>1456.4</ele>
        <time>2026-05-14T12:19:34.999Z</time>
      </trkpt>
      <trkpt lat="44.18469" lon="5.27382">
        <ele>1456.1</ele>
        <time>2026-05-14T12:19:35.999Z</time>
      </trkpt>
      <trkpt lat="44.18469" lon="5.27382">
        <ele>1456.2</ele>
        <time>2026-05-14T12:19:36.999Z</time>
      </trkpt>
      <trkpt lat="44.18469" lon="5.27382">
        <ele>1456.1</ele>
        <time>2026-05-14T12:19:37.999Z</time>
      </trkpt>
      <trkpt lat="44.18469" lon="5.27382">
        <ele>1455.9</ele>
        <time>2026-05-14T12:19:38.999Z</time>
      </trkpt>
      <trkpt lat="44.18469" lon="5.27382">
        <ele>1455.1</ele>
        <time>2026-05-14T12:19:39.999Z</time>
      </trkpt>
      <trkpt lat="44.18469" lon="5.27382">
        <ele>1455.3</ele>
        <time>2026-05-14T12:19:40.999Z</time>
      </trkpt>
      <trkpt lat="44.18469" lon="5.27382">
        <ele>1455.2</ele>
        <time>2026-05-14T12:19:41.999Z</time>
      </trkpt>
      <trkpt lat="44.18469" lon="5.27382">
        <ele>1455.2</ele>
        <time>2026-05-14T12:19:42.999Z</time>
      </trkpt>
      <trkpt lat="44.18469" lon="5.27382">
        <ele>1455.3</ele>
        <time>2026-05-14T12:19:43.999Z</time>
      </trkpt>
      <trkpt lat="44.18469" lon="5.27382">
        <ele>1455.6</ele>
        <time>2026-05-14T12:19:44.999Z</time>
      </trkpt>
      <trkpt lat="44.18469" lon="5.27382">
        <ele>1455.2</ele>
        <time>2026-05-14T12:19:45.999Z</time>
      </trkpt>
      <trkpt lat="44.18469" lon="5.27382">
        <ele>1455.3</ele>
        <time>2026-05-14T12:19:46.999Z</time>
      </trkpt>
      <trkpt lat="44.18469" lon="5.27382">
        <ele>1455.5</ele>
        <time>2026-05-14T12:19:47.999Z</time>
      </trkpt>
      <trkpt lat="44.18469" lon="5.27382">
        <ele>1455.4</ele>
        <time>2026-05-14T12:19:48.999Z</time>
      </trkpt>
      <trkpt lat="44.18469" lon="5.27382">
        <ele>1455.6</ele>
        <time>2026-05-14T12:19:49.999Z</time>
      </trkpt>
      <trkpt lat="44.18469" lon="5.27382">
        <ele>1455.5</ele>
        <time>2026-05-14T12:19:50.999Z</time>
      </trkpt>
      <trkpt lat="44.18469" lon="5.27382">
        <ele>1455.5</ele>
        <time>2026-05-14T12:19:51.999Z</time>
      </trkpt>
      <trkpt lat="44.18469" lon="5.27382">
        <ele>1455.4</ele>
        <time>2026-05-14T12:19:52.999Z</time>
      </trkpt>
      <trkpt lat="44.18469" lon="5.27382">
        <ele>1455</ele>
        <time>2026-05-14T12:19:53.999Z</time>
      </trkpt>
      <trkpt lat="44.18469" lon="5.27381">
        <ele>1454.7</ele>
        <time>2026-05-14T12:19:54.999Z</time>
      </trkpt>
      <trkpt lat="44.18469" lon="5.27381">
        <ele>1454.7</ele>
        <time>2026-05-14T12:19:55.999Z</time>
      </trkpt>
      <trkpt lat="44.18469" lon="5.27381">
        <ele>1454.2</ele>
        <time>2026-05-14T12:19:56.999Z</time>
      </trkpt>
      <trkpt lat="44.18469" lon="5.27381">
        <ele>1453.4</ele>
        <time>2026-05-14T12:19:57.999Z</time>
      </trkpt>
      <trkpt lat="44.18469" lon="5.27381">
        <ele>1452.8</ele>
        <time>2026-05-14T12:19:58.999Z</time>
      </trkpt>
      <trkpt lat="44.18469" lon="5.27381">
        <ele>1452.2</ele>
        <time>2026-05-14T12:19:59.999Z</time>
      </trkpt>
      <trkpt lat="44.18469" lon="5.27381">
        <ele>1451.4</ele>
        <time>2026-05-14T12:20:00.999Z</time>
      </trkpt>
      <trkpt lat="44.18469" lon="5.27382">
        <ele>1451</ele>
        <time>2026-05-14T12:20:01.999Z</time>
      </trkpt>
      <trkpt lat="44.18469" lon="5.27382">
        <ele>1450.6</ele>
        <time>2026-05-14T12:20:02.999Z</time>
      </trkpt>
      <trkpt lat="44.18468" lon="5.27382">
        <ele>1450.1</ele>
        <time>2026-05-14T12:20:03.999Z</time>
      </trkpt>
      <trkpt lat="44.18468" lon="5.27382">
        <ele>1449.6</ele>
        <time>2026-05-14T12:20:04.999Z</time>
      </trkpt>
      <trkpt lat="44.18468" lon="5.27383">
        <ele>1449.7</ele>
        <time>2026-05-14T12:20:05.999Z</time>
      </trkpt>
      <trkpt lat="44.18468" lon="5.27383">
        <ele>1450.4</ele>
        <time>2026-05-14T12:20:06.999Z</time>
      </trkpt>
      <trkpt lat="44.18468" lon="5.27383">
        <ele>1451</ele>
        <time>2026-05-14T12:20:07.999Z</time>
      </trkpt>
      <trkpt lat="44.18468" lon="5.27383">
        <ele>1451.5</ele>
        <time>2026-05-14T12:20:08.999Z</time>
      </trkpt>
      <trkpt lat="44.18468" lon="5.27383">
        <ele>1451.7</ele>
        <time>2026-05-14T12:20:09.999Z</time>
      </trkpt>
      <trkpt lat="44.18468" lon="5.27383">
        <ele>1452</ele>
        <time>2026-05-14T12:20:10.999Z</time>
      </trkpt>
      <trkpt lat="44.18468" lon="5.27383">
        <ele>1452.3</ele>
        <time>2026-05-14T12:20:11.999Z</time>
      </trkpt>
      <trkpt lat="44.18468" lon="5.27383">
        <ele>1452.4</ele>
        <time>2026-05-14T12:20:12.999Z</time>
      </trkpt>
      <trkpt lat="44.18468" lon="5.27383">
        <ele>1452.7</ele>
        <time>2026-05-14T12:20:13.999Z</time>
      </trkpt>
      <trkpt lat="44.18468" lon="5.27383">
        <ele>1453.1</ele>
        <time>2026-05-14T12:20:14.999Z</time>
      </trkpt>
      <trkpt lat="44.18468" lon="5.27383">
        <ele>1453.5</ele>
        <time>2026-05-14T12:20:15.999Z</time>
      </trkpt>
      <trkpt lat="44.18468" lon="5.27383">
        <ele>1453.9</ele>
        <time>2026-05-14T12:20:16.999Z</time>
      </trkpt>
      <trkpt lat="44.18468" lon="5.27383">
        <ele>1454.4</ele>
        <time>2026-05-14T12:20:17.999Z</time>
      </trkpt>
      <trkpt lat="44.18468" lon="5.27383">
        <ele>1454.6</ele>
        <time>2026-05-14T12:20:18.999Z</time>
      </trkpt>
      <trkpt lat="44.18468" lon="5.27383">
        <ele>1454.7</ele>
        <time>2026-05-14T12:20:19.999Z</time>
      </trkpt>
      <trkpt lat="44.18469" lon="5.27383">
        <ele>1454.9</ele>
        <time>2026-05-14T12:20:20.999Z</time>
      </trkpt>
      <trkpt lat="44.18469" lon="5.27383">
        <ele>1455.1</ele>
        <time>2026-05-14T12:20:21.999Z</time>
      </trkpt>
      <trkpt lat="44.18469" lon="5.27383">
        <ele>1455.5</ele>
        <time>2026-05-14T12:20:22.999Z</time>
      </trkpt>
      <trkpt lat="44.18469" lon="5.27383">
        <ele>1455.9</ele>
        <time>2026-05-14T12:20:23.999Z</time>
      </trkpt>
      <trkpt lat="44.18469" lon="5.27383">
        <ele>1456.4</ele>
        <time>2026-05-14T12:20:24.999Z</time>
      </trkpt>
      <trkpt lat="44.18469" lon="5.27383">
        <ele>1456.5</ele>
        <time>2026-05-14T12:20:25.999Z</time>
      </trkpt>
      <trkpt lat="44.18468" lon="5.27383">
        <ele>1456.5</ele>
        <time>2026-05-14T12:20:26.999Z</time>
      </trkpt>
      <trkpt lat="44.18468" lon="5.27383">
        <ele>1456.8</ele>
        <time>2026-05-14T12:20:27.999Z</time>
      </trkpt>
      <trkpt lat="44.18468" lon="5.27383">
        <ele>1457</ele>
        <time>2026-05-14T12:20:28.999Z</time>
      </trkpt>
      <trkpt lat="44.18468" lon="5.27383">
        <ele>1457</ele>
        <time>2026-05-14T12:20:29.999Z</time>
      </trkpt>
      <trkpt lat="44.18468" lon="5.27383">
        <ele>1457</ele>
        <time>2026-05-14T12:20:30.999Z</time>
      </trkpt>
      <trkpt lat="44.18468" lon="5.27383">
        <ele>1456.8</ele>
        <time>2026-05-14T12:20:31.999Z</time>
      </trkpt>
      <trkpt lat="44.18468" lon="5.27383">
        <ele>1456.6</ele>
        <time>2026-05-14T12:20:32.999Z</time>
      </trkpt>
      <trkpt lat="44.18468" lon="5.27383">
        <ele>1456.6</ele>
        <time>2026-05-14T12:20:33.999Z</time>
      </trkpt>
      <trkpt lat="44.18468" lon="5.27383">
        <ele>1456.6</ele>
        <time>2026-05-14T12:20:34.999Z</time>
      </trkpt>
      <trkpt lat="44.18468" lon="5.27383">
        <ele>1456.6</ele>
        <time>2026-05-14T12:20:35.999Z</time>
      </trkpt>
      <trkpt lat="44.18468" lon="5.27383">
        <ele>1456.8</ele>
        <time>2026-05-14T12:20:36.999Z</time>
      </trkpt>
      <trkpt lat="44.18468" lon="5.27383">
        <ele>1456.8</ele>
        <time>2026-05-14T12:20:37.999Z</time>
      </trkpt>
      <trkpt lat="44.18468" lon="5.27383">
        <ele>1456.8</ele>
        <time>2026-05-14T12:20:38.999Z</time>
      </trkpt>
      <trkpt lat="44.18468" lon="5.27383">
        <ele>1456.7</ele>
        <time>2026-05-14T12:20:39.999Z</time>
      </trkpt>
      <trkpt lat="44.18468" lon="5.27383">
        <ele>1456.9</ele>
        <time>2026-05-14T12:20:40.999Z</time>
      </trkpt>
      <trkpt lat="44.18468" lon="5.27383">
        <ele>1456.9</ele>
        <time>2026-05-14T12:20:41.999Z</time>
      </trkpt>
      <trkpt lat="44.18468" lon="5.27383">
        <ele>1456.8</ele>
        <time>2026-05-14T12:20:42.999Z</time>
      </trkpt>
      <trkpt lat="44.18468" lon="5.27383">
        <ele>1456.7</ele>
        <time>2026-05-14T12:20:43.999Z</time>
      </trkpt>
      <trkpt lat="44.18468" lon="5.27383">
        <ele>1456.9</ele>
        <time>2026-05-14T12:20:44.999Z</time>
      </trkpt>
      <trkpt lat="44.18468" lon="5.27383">
        <ele>1457.3</ele>
        <time>2026-05-14T12:20:45.999Z</time>
      </trkpt>
      <trkpt lat="44.18468" lon="5.27383">
        <ele>1457.5</ele>
        <time>2026-05-14T12:20:46.999Z</time>
      </trkpt>
      <trkpt lat="44.18468" lon="5.27383">
        <ele>1457.7</ele>
        <time>2026-05-14T12:20:47.999Z</time>
      </trkpt>
      <trkpt lat="44.18468" lon="5.27383">
        <ele>1457.8</ele>
        <time>2026-05-14T12:20:48.999Z</time>
      </trkpt>
      <trkpt lat="44.18468" lon="5.27383">
        <ele>1457.9</ele>
        <time>2026-05-14T12:20:49.999Z</time>
      </trkpt>
      <trkpt lat="44.18468" lon="5.27383">
        <ele>1457.9</ele>
        <time>2026-05-14T12:20:50.999Z</time>
      </trkpt>
      <trkpt lat="44.18468" lon="5.27383">
        <ele>1457.8</ele>
        <time>2026-05-14T12:20:51.999Z</time>
      </trkpt>
      <trkpt lat="44.18469" lon="5.27383">
        <ele>1457.7</ele>
        <time>2026-05-14T12:20:52.999Z</time>
      </trkpt>
      <trkpt lat="44.18469" lon="5.27382">
        <ele>1457.6</ele>
        <time>2026-05-14T12:20:53.999Z</time>
      </trkpt>
      <trkpt lat="44.1847" lon="5.27382">
        <ele>1457.6</ele>
        <time>2026-05-14T12:20:54.999Z</time>
      </trkpt>
      <trkpt lat="44.18471" lon="5.27382">
        <ele>1457.9</ele>
        <time>2026-05-14T12:20:55.999Z</time>
      </trkpt>
      <trkpt lat="44.18471" lon="5.27382">
        <ele>1458</ele>
        <time>2026-05-14T12:20:56.999Z</time>
      </trkpt>
      <trkpt lat="44.18471" lon="5.27382">
        <ele>1458.2</ele>
        <time>2026-05-14T12:20:57.999Z</time>
      </trkpt>
      <trkpt lat="44.1847" lon="5.27379">
        <ele>1458.9</ele>
        <time>2026-05-14T12:20:58.999Z</time>
      </trkpt>
      <trkpt lat="44.1847" lon="5.27379">
        <ele>1459.4</ele>
        <time>2026-05-14T12:20:59.999Z</time>
      </trkpt>
      <trkpt lat="44.1847" lon="5.2738">
        <ele>1460.2</ele>
        <time>2026-05-14T12:21:00.999Z</time>
      </trkpt>
      <trkpt lat="44.1847" lon="5.2738">
        <ele>1461</ele>
        <time>2026-05-14T12:21:01.999Z</time>
      </trkpt>
      <trkpt lat="44.1847" lon="5.27381">
        <ele>1461.6</ele>
        <time>2026-05-14T12:21:02.999Z</time>
      </trkpt>
      <trkpt lat="44.18471" lon="5.27383">
        <ele>1461.8</ele>
        <time>2026-05-14T12:21:03.999Z</time>
      </trkpt>
      <trkpt lat="44.18471" lon="5.27383">
        <ele>1461.7</ele>
        <time>2026-05-14T12:21:04.999Z</time>
      </trkpt>
      <trkpt lat="44.1847" lon="5.27384">
        <ele>1461.9</ele>
        <time>2026-05-14T12:21:05.999Z</time>
      </trkpt>
      <trkpt lat="44.1847" lon="5.27383">
        <ele>1462.2</ele>
        <time>2026-05-14T12:21:06.999Z</time>
      </trkpt>
      <trkpt lat="44.1847" lon="5.27383">
        <ele>1462.4</ele>
        <time>2026-05-14T12:21:07.999Z</time>
      </trkpt>
      <trkpt lat="44.1847" lon="5.27383">
        <ele>1462.7</ele>
        <time>2026-05-14T12:21:08.999Z</time>
      </trkpt>
      <trkpt lat="44.1847" lon="5.27383">
        <ele>1462.8</ele>
        <time>2026-05-14T12:21:09.999Z</time>
      </trkpt>
      <trkpt lat="44.1847" lon="5.27383">
        <ele>1462.9</ele>
        <time>2026-05-14T12:21:10.999Z</time>
      </trkpt>
      <trkpt lat="44.18471" lon="5.27384">
        <ele>1463</ele>
        <time>2026-05-14T12:21:11.999Z</time>
      </trkpt>
      <trkpt lat="44.18471" lon="5.27385">
        <ele>1463.2</ele>
        <time>2026-05-14T12:21:12.999Z</time>
      </trkpt>
      <trkpt lat="44.1847" lon="5.27386">
        <ele>1463.3</ele>
        <time>2026-05-14T12:21:13.999Z</time>
      </trkpt>
      <trkpt lat="44.18471" lon="5.27386">
        <ele>1463.4</ele>
        <time>2026-05-14T12:21:14.999Z</time>
      </trkpt>
      <trkpt lat="44.1847" lon="5.27386">
        <ele>1463.3</ele>
        <time>2026-05-14T12:21:15.999Z</time>
      </trkpt>
      <trkpt lat="44.1847" lon="5.27386">
        <ele>1463.2</ele>
        <time>2026-05-14T12:21:16.999Z</time>
      </trkpt>
      <trkpt lat="44.1847" lon="5.27386">
        <ele>1463.3</ele>
        <time>2026-05-14T12:21:17.999Z</time>
      </trkpt>
      <trkpt lat="44.1847" lon="5.27386">
        <ele>1463.6</ele>
        <time>2026-05-14T12:21:18.999Z</time>
      </trkpt>
      <trkpt lat="44.1847" lon="5.27386">
        <ele>1463.7</ele>
        <time>2026-05-14T12:21:19.999Z</time>
      </trkpt>
      <trkpt lat="44.1847" lon="5.27386">
        <ele>1463.8</ele>
        <time>2026-05-14T12:21:20.999Z</time>
      </trkpt>
      <trkpt lat="44.1847" lon="5.27386">
        <ele>1463.9</ele>
        <time>2026-05-14T12:21:21.999Z</time>
      </trkpt>
      <trkpt lat="44.1847" lon="5.27386">
        <ele>1464</ele>
        <time>2026-05-14T12:21:22.999Z</time>
      </trkpt>
      <trkpt lat="44.1847" lon="5.27386">
        <ele>1464</ele>
        <time>2026-05-14T12:21:23.999Z</time>
      </trkpt>
      <trkpt lat="44.1847" lon="5.27386">
        <ele>1464.3</ele>
        <time>2026-05-14T12:21:24.999Z</time>
      </trkpt>
      <trkpt lat="44.1847" lon="5.27385">
        <ele>1464.7</ele>
        <time>2026-05-14T12:21:25.999Z</time>
      </trkpt>
      <trkpt lat="44.1847" lon="5.27385">
        <ele>1464.9</ele>
        <time>2026-05-14T12:21:26.999Z</time>
      </trkpt>
      <trkpt lat="44.1847" lon="5.27385">
        <ele>1464.8</ele>
        <time>2026-05-14T12:21:27.999Z</time>
      </trkpt>
      <trkpt lat="44.1847" lon="5.27384">
        <ele>1464.8</ele>
        <time>2026-05-14T12:21:28.999Z</time>
      </trkpt>
      <trkpt lat="44.18471" lon="5.27384">
        <ele>1464.8</ele>
        <time>2026-05-14T12:21:29.999Z</time>
      </trkpt>
      <trkpt lat="44.18471" lon="5.27384">
        <ele>1464.7</ele>
        <time>2026-05-14T12:21:30.999Z</time>
      </trkpt>
      <trkpt lat="44.18471" lon="5.27384">
        <ele>1464.6</ele>
        <time>2026-05-14T12:21:31.999Z</time>
      </trkpt>
      <trkpt lat="44.18471" lon="5.27384">
        <ele>1464.3</ele>
        <time>2026-05-14T12:21:32.999Z</time>
      </trkpt>
      <trkpt lat="44.18471" lon="5.27383">
        <ele>1464.2</ele>
        <time>2026-05-14T12:21:34.999Z</time>
      </trkpt>
      <trkpt lat="44.18472" lon="5.27382">
        <ele>1464.4</ele>
        <time>2026-05-14T12:21:35.999Z</time>
      </trkpt>
      <trkpt lat="44.18472" lon="5.27382">
        <ele>1464.4</ele>
        <time>2026-05-14T12:21:36.999Z</time>
      </trkpt>
      <trkpt lat="44.18472" lon="5.27382">
        <ele>1464.2</ele>
        <time>2026-05-14T12:21:37.999Z</time>
      </trkpt>
      <trkpt lat="44.18472" lon="5.27382">
        <ele>1464.1</ele>
        <time>2026-05-14T12:21:38.999Z</time>
      </trkpt>
      <trkpt lat="44.18472" lon="5.27382">
        <ele>1464</ele>
        <time>2026-05-14T12:21:39.999Z</time>
      </trkpt>
      <trkpt lat="44.18472" lon="5.27382">
        <ele>1463.7</ele>
        <time>2026-05-14T12:21:40.999Z</time>
      </trkpt>
      <trkpt lat="44.18472" lon="5.27382">
        <ele>1463.7</ele>
        <time>2026-05-14T12:21:41.999Z</time>
      </trkpt>
      <trkpt lat="44.18472" lon="5.27382">
        <ele>1463.8</ele>
        <time>2026-05-14T12:21:42.999Z</time>
      </trkpt>
      <trkpt lat="44.18472" lon="5.27382">
        <ele>1463.8</ele>
        <time>2026-05-14T12:21:43.999Z</time>
      </trkpt>
      <trkpt lat="44.18472" lon="5.27381">
        <ele>1463.8</ele>
        <time>2026-05-14T12:21:44.999Z</time>
      </trkpt>
      <trkpt lat="44.18473" lon="5.27381">
        <ele>1463.9</ele>
        <time>2026-05-14T12:21:45.999Z</time>
      </trkpt>
      <trkpt lat="44.18474" lon="5.2738">
        <ele>1463.9</ele>
        <time>2026-05-14T12:21:46.999Z</time>
      </trkpt>
      <trkpt lat="44.18475" lon="5.27379">
        <ele>1464.1</ele>
        <time>2026-05-14T12:21:47.999Z</time>
      </trkpt>
      <trkpt lat="44.18475" lon="5.27379">
        <ele>1464.2</ele>
        <time>2026-05-14T12:21:48.999Z</time>
      </trkpt>
      <trkpt lat="44.18475" lon="5.27379">
        <ele>1464.2</ele>
        <time>2026-05-14T12:21:49.999Z</time>
      </trkpt>
      <trkpt lat="44.18475" lon="5.27379">
        <ele>1464.4</ele>
        <time>2026-05-14T12:21:50.999Z</time>
      </trkpt>
      <trkpt lat="44.18475" lon="5.27379">
        <ele>1464.6</ele>
        <time>2026-05-14T12:21:51.999Z</time>
      </trkpt>
      <trkpt lat="44.18475" lon="5.27379">
        <ele>1464.6</ele>
        <time>2026-05-14T12:21:52.999Z</time>
      </trkpt>
      <trkpt lat="44.18475" lon="5.27378">
        <ele>1464.9</ele>
        <time>2026-05-14T12:21:53.999Z</time>
      </trkpt>
      <trkpt lat="44.18475" lon="5.27377">
        <ele>1465.2</ele>
        <time>2026-05-14T12:21:54.999Z</time>
      </trkpt>
      <trkpt lat="44.18475" lon="5.27377">
        <ele>1465.2</ele>
        <time>2026-05-14T12:21:55.999Z</time>
      </trkpt>
      <trkpt lat="44.18475" lon="5.27376">
        <ele>1465.3</ele>
        <time>2026-05-14T12:21:56.999Z</time>
      </trkpt>
      <trkpt lat="44.18475" lon="5.27375">
        <ele>1465.6</ele>
        <time>2026-05-14T12:21:57.999Z</time>
      </trkpt>
      <trkpt lat="44.18475" lon="5.27375">
        <ele>1465.6</ele>
        <time>2026-05-14T12:21:58.999Z</time>
      </trkpt>
      <trkpt lat="44.18475" lon="5.27375">
        <ele>1465.5</ele>
        <time>2026-05-14T12:21:59.999Z</time>
      </trkpt>
      <trkpt lat="44.18475" lon="5.27375">
        <ele>1465.5</ele>
        <time>2026-05-14T12:22:00.999Z</time>
      </trkpt>
      <trkpt lat="44.18475" lon="5.27375">
        <ele>1465.5</ele>
        <time>2026-05-14T12:22:01.999Z</time>
      </trkpt>
      <trkpt lat="44.18475" lon="5.27375">
        <ele>1465.6</ele>
        <time>2026-05-14T12:22:02.999Z</time>
      </trkpt>
      <trkpt lat="44.18475" lon="5.27375">
        <ele>1465.6</ele>
        <time>2026-05-14T12:22:03.999Z</time>
      </trkpt>
      <trkpt lat="44.18475" lon="5.27374">
        <ele>1465.7</ele>
        <time>2026-05-14T12:22:04.999Z</time>
      </trkpt>
      <trkpt lat="44.18474" lon="5.27374">
        <ele>1465.9</ele>
        <time>2026-05-14T12:22:05.999Z</time>
      </trkpt>
      <trkpt lat="44.18474" lon="5.27374">
        <ele>1466.1</ele>
        <time>2026-05-14T12:22:06.999Z</time>
      </trkpt>
      <trkpt lat="44.18474" lon="5.27374">
        <ele>1466.1</ele>
        <time>2026-05-14T12:22:07.999Z</time>
      </trkpt>
      <trkpt lat="44.18474" lon="5.27374">
        <ele>1466.3</ele>
        <time>2026-05-14T12:22:08.999Z</time>
      </trkpt>
      <trkpt lat="44.18474" lon="5.27375">
        <ele>1466.5</ele>
        <time>2026-05-14T12:22:09.999Z</time>
      </trkpt>
      <trkpt lat="44.18474" lon="5.27375">
        <ele>1466.8</ele>
        <time>2026-05-14T12:22:10.999Z</time>
      </trkpt>
      <trkpt lat="44.18474" lon="5.27375">
        <ele>1467</ele>
        <time>2026-05-14T12:22:11.999Z</time>
      </trkpt>
      <trkpt lat="44.18474" lon="5.27375">
        <ele>1467.5</ele>
        <time>2026-05-14T12:22:12.999Z</time>
      </trkpt>
      <trkpt lat="44.18474" lon="5.27375">
        <ele>1467.9</ele>
        <time>2026-05-14T12:22:13.999Z</time>
      </trkpt>
      <trkpt lat="44.18474" lon="5.27375">
        <ele>1468.2</ele>
        <time>2026-05-14T12:22:14.999Z</time>
      </trkpt>
      <trkpt lat="44.18474" lon="5.27375">
        <ele>1468.5</ele>
        <time>2026-05-14T12:22:15.999Z</time>
      </trkpt>
      <trkpt lat="44.18474" lon="5.27375">
        <ele>1468.7</ele>
        <time>2026-05-14T12:22:16.999Z</time>
      </trkpt>
      <trkpt lat="44.18474" lon="5.27375">
        <ele>1469.1</ele>
        <time>2026-05-14T12:22:17.999Z</time>
      </trkpt>
      <trkpt lat="44.18474" lon="5.27375">
        <ele>1469.5</ele>
        <time>2026-05-14T12:22:18.999Z</time>
      </trkpt>
      <trkpt lat="44.18474" lon="5.27375">
        <ele>1469.5</ele>
        <time>2026-05-14T12:22:19.999Z</time>
      </trkpt>
      <trkpt lat="44.18474" lon="5.27376">
        <ele>1469.5</ele>
        <time>2026-05-14T12:22:20.999Z</time>
      </trkpt>
      <trkpt lat="44.18474" lon="5.27376">
        <ele>1469.4</ele>
        <time>2026-05-14T12:22:21.999Z</time>
      </trkpt>
      <trkpt lat="44.18474" lon="5.27376">
        <ele>1469.3</ele>
        <time>2026-05-14T12:22:22.999Z</time>
      </trkpt>
      <trkpt lat="44.18474" lon="5.27377">
        <ele>1469.2</ele>
        <time>2026-05-14T12:22:23.999Z</time>
      </trkpt>
      <trkpt lat="44.18475" lon="5.27377">
        <ele>1469.1</ele>
        <time>2026-05-14T12:22:24.999Z</time>
      </trkpt>
      <trkpt lat="44.18475" lon="5.27378">
        <ele>1469.1</ele>
        <time>2026-05-14T12:22:25.999Z</time>
      </trkpt>
      <trkpt lat="44.18475" lon="5.27379">
        <ele>1469.3</ele>
        <time>2026-05-14T12:22:26.999Z</time>
      </trkpt>
      <trkpt lat="44.18473" lon="5.27381">
        <ele>1469.2</ele>
        <time>2026-05-14T12:22:27.999Z</time>
      </trkpt>
      <trkpt lat="44.18473" lon="5.27382">
        <ele>1469</ele>
        <time>2026-05-14T12:22:28.999Z</time>
      </trkpt>
      <trkpt lat="44.18472" lon="5.27383">
        <ele>1468.9</ele>
        <time>2026-05-14T12:22:29.999Z</time>
      </trkpt>
      <trkpt lat="44.18471" lon="5.27384">
        <ele>1468.7</ele>
        <time>2026-05-14T12:22:30.999Z</time>
      </trkpt>
      <trkpt lat="44.1847" lon="5.27385">
        <ele>1468.6</ele>
        <time>2026-05-14T12:22:31.999Z</time>
      </trkpt>
      <trkpt lat="44.1847" lon="5.27386">
        <ele>1468.5</ele>
        <time>2026-05-14T12:22:32.999Z</time>
      </trkpt>
      <trkpt lat="44.1847" lon="5.27386">
        <ele>1468.4</ele>
        <time>2026-05-14T12:22:33.999Z</time>
      </trkpt>
      <trkpt lat="44.1847" lon="5.27387">
        <ele>1468.4</ele>
        <time>2026-05-14T12:22:34.999Z</time>
      </trkpt>
      <trkpt lat="44.18469" lon="5.27387">
        <ele>1468.6</ele>
        <time>2026-05-14T12:22:35.999Z</time>
      </trkpt>
      <trkpt lat="44.18469" lon="5.27388">
        <ele>1468.4</ele>
        <time>2026-05-14T12:22:36.999Z</time>
      </trkpt>
      <trkpt lat="44.18469" lon="5.27388">
        <ele>1468.5</ele>
        <time>2026-05-14T12:22:37.999Z</time>
      </trkpt>
      <trkpt lat="44.18469" lon="5.27388">
        <ele>1468.4</ele>
        <time>2026-05-14T12:22:38.999Z</time>
      </trkpt>
      <trkpt lat="44.18469" lon="5.27387">
        <ele>1468.6</ele>
        <time>2026-05-14T12:22:39.999Z</time>
      </trkpt>
      <trkpt lat="44.18469" lon="5.27386">
        <ele>1468.9</ele>
        <time>2026-05-14T12:22:40.999Z</time>
      </trkpt>
      <trkpt lat="44.18469" lon="5.27386">
        <ele>1469.4</ele>
        <time>2026-05-14T12:22:41.999Z</time>
      </trkpt>
      <trkpt lat="44.18469" lon="5.27386">
        <ele>1469.8</ele>
        <time>2026-05-14T12:22:42.999Z</time>
      </trkpt>
      <trkpt lat="44.18469" lon="5.27386">
        <ele>1469.9</ele>
        <time>2026-05-14T12:22:43.999Z</time>
      </trkpt>
      <trkpt lat="44.18469" lon="5.27386">
        <ele>1470.1</ele>
        <time>2026-05-14T12:22:44.999Z</time>
      </trkpt>
      <trkpt lat="44.18469" lon="5.27387">
        <ele>1469.9</ele>
        <time>2026-05-14T12:22:45.999Z</time>
      </trkpt>
      <trkpt lat="44.18469" lon="5.27386">
        <ele>1470</ele>
        <time>2026-05-14T12:22:46.999Z</time>
      </trkpt>
      <trkpt lat="44.18469" lon="5.27386">
        <ele>1470.1</ele>
        <time>2026-05-14T12:22:47.999Z</time>
      </trkpt>
      <trkpt lat="44.18469" lon="5.27386">
        <ele>1470.2</ele>
        <time>2026-05-14T12:22:48.999Z</time>
      </trkpt>
      <trkpt lat="44.18469" lon="5.27387">
        <ele>1470.2</ele>
        <time>2026-05-14T12:22:49.999Z</time>
      </trkpt>
      <trkpt lat="44.18469" lon="5.27387">
        <ele>1470.2</ele>
        <time>2026-05-14T12:22:50.999Z</time>
      </trkpt>
      <trkpt lat="44.18469" lon="5.27387">
        <ele>1470.1</ele>
        <time>2026-05-14T12:22:51.999Z</time>
      </trkpt>
      <trkpt lat="44.18469" lon="5.27387">
        <ele>1470.1</ele>
        <time>2026-05-14T12:22:52.999Z</time>
      </trkpt>
      <trkpt lat="44.18469" lon="5.27387">
        <ele>1470.1</ele>
        <time>2026-05-14T12:22:53.999Z</time>
      </trkpt>
      <trkpt lat="44.18468" lon="5.27387">
        <ele>1469.9</ele>
        <time>2026-05-14T12:22:54.999Z</time>
      </trkpt>
      <trkpt lat="44.18468" lon="5.27387">
        <ele>1469.8</ele>
        <time>2026-05-14T12:22:55.999Z</time>
      </trkpt>
      <trkpt lat="44.18468" lon="5.27387">
        <ele>1469.5</ele>
        <time>2026-05-14T12:22:56.999Z</time>
      </trkpt>
      <trkpt lat="44.18468" lon="5.27387">
        <ele>1469.3</ele>
        <time>2026-05-14T12:22:57.999Z</time>
      </trkpt>
      <trkpt lat="44.18468" lon="5.27388">
        <ele>1469</ele>
        <time>2026-05-14T12:22:58.999Z</time>
      </trkpt>
      <trkpt lat="44.18468" lon="5.27388">
        <ele>1469</ele>
        <time>2026-05-14T12:22:59.999Z</time>
      </trkpt>
      <trkpt lat="44.18468" lon="5.27388">
        <ele>1469.1</ele>
        <time>2026-05-14T12:23:00.999Z</time>
      </trkpt>
      <trkpt lat="44.18468" lon="5.27388">
        <ele>1469.3</ele>
        <time>2026-05-14T12:23:01.999Z</time>
      </trkpt>
      <trkpt lat="44.18468" lon="5.27388">
        <ele>1469.5</ele>
        <time>2026-05-14T12:23:02.999Z</time>
      </trkpt>
      <trkpt lat="44.18468" lon="5.27388">
        <ele>1469.7</ele>
        <time>2026-05-14T12:23:03.999Z</time>
      </trkpt>
      <trkpt lat="44.18468" lon="5.27388">
        <ele>1469.8</ele>
        <time>2026-05-14T12:23:04.999Z</time>
      </trkpt>
      <trkpt lat="44.18468" lon="5.27388">
        <ele>1470</ele>
        <time>2026-05-14T12:23:05.999Z</time>
      </trkpt>
      <trkpt lat="44.18468" lon="5.27388">
        <ele>1470.4</ele>
        <time>2026-05-14T12:23:06.999Z</time>
      </trkpt>
      <trkpt lat="44.18468" lon="5.27388">
        <ele>1470.3</ele>
        <time>2026-05-14T12:23:07.999Z</time>
      </trkpt>
      <trkpt lat="44.18468" lon="5.27388">
        <ele>1469.9</ele>
        <time>2026-05-14T12:23:08.999Z</time>
      </trkpt>
      <trkpt lat="44.18468" lon="5.27388">
        <ele>1469.4</ele>
        <time>2026-05-14T12:23:09.999Z</time>
      </trkpt>
      <trkpt lat="44.18468" lon="5.27388">
        <ele>1468.9</ele>
        <time>2026-05-14T12:23:10.999Z</time>
      </trkpt>
      <trkpt lat="44.18468" lon="5.27389">
        <ele>1468.5</ele>
        <time>2026-05-14T12:23:11.999Z</time>
      </trkpt>
      <trkpt lat="44.18469" lon="5.27389">
        <ele>1468.3</ele>
        <time>2026-05-14T12:23:12.999Z</time>
      </trkpt>
      <trkpt lat="44.18469" lon="5.2739">
        <ele>1468.4</ele>
        <time>2026-05-14T12:23:13.999Z</time>
      </trkpt>
      <trkpt lat="44.18469" lon="5.27392">
        <ele>1468.5</ele>
        <time>2026-05-14T12:23:14.999Z</time>
      </trkpt>
      <trkpt lat="44.18469" lon="5.27393">
        <ele>1468.2</ele>
        <time>2026-05-14T12:23:15.999Z</time>
      </trkpt>
      <trkpt lat="44.18469" lon="5.27393">
        <ele>1468.6</ele>
        <time>2026-05-14T12:23:16.999Z</time>
      </trkpt>
      <trkpt lat="44.18469" lon="5.27393">
        <ele>1468.6</ele>
        <time>2026-05-14T12:23:17.999Z</time>
      </trkpt>
      <trkpt lat="44.18469" lon="5.27393">
        <ele>1468.6</ele>
        <time>2026-05-14T12:23:18.999Z</time>
      </trkpt>
      <trkpt lat="44.18469" lon="5.27393">
        <ele>1468.8</ele>
        <time>2026-05-14T12:23:19.999Z</time>
      </trkpt>
      <trkpt lat="44.18469" lon="5.27394">
        <ele>1468.8</ele>
        <time>2026-05-14T12:23:20.999Z</time>
      </trkpt>
      <trkpt lat="44.18469" lon="5.27393">
        <ele>1469</ele>
        <time>2026-05-14T12:23:21.999Z</time>
      </trkpt>
      <trkpt lat="44.18469" lon="5.27392">
        <ele>1468.9</ele>
        <time>2026-05-14T12:23:22.999Z</time>
      </trkpt>
      <trkpt lat="44.18468" lon="5.27392">
        <ele>1468.9</ele>
        <time>2026-05-14T12:23:23.999Z</time>
      </trkpt>
      <trkpt lat="44.18468" lon="5.27392">
        <ele>1468.9</ele>
        <time>2026-05-14T12:23:24.999Z</time>
      </trkpt>
      <trkpt lat="44.18468" lon="5.27392">
        <ele>1468.9</ele>
        <time>2026-05-14T12:23:25.999Z</time>
      </trkpt>
      <trkpt lat="44.18468" lon="5.27392">
        <ele>1468.7</ele>
        <time>2026-05-14T12:23:26.999Z</time>
      </trkpt>
      <trkpt lat="44.18468" lon="5.27392">
        <ele>1468.8</ele>
        <time>2026-05-14T12:23:27.999Z</time>
      </trkpt>
      <trkpt lat="44.18468" lon="5.27392">
        <ele>1468.8</ele>
        <time>2026-05-14T12:23:28.999Z</time>
      </trkpt>
      <trkpt lat="44.18468" lon="5.27391">
        <ele>1469</ele>
        <time>2026-05-14T12:23:29.999Z</time>
      </trkpt>
      <trkpt lat="44.18468" lon="5.27391">
        <ele>1469</ele>
        <time>2026-05-14T12:23:30.999Z</time>
      </trkpt>
      <trkpt lat="44.18468" lon="5.27391">
        <ele>1468.7</ele>
        <time>2026-05-14T12:23:31.999Z</time>
      </trkpt>
      <trkpt lat="44.18468" lon="5.27391">
        <ele>1468.2</ele>
        <time>2026-05-14T12:23:32.999Z</time>
      </trkpt>
      <trkpt lat="44.18469" lon="5.27391">
        <ele>1467.8</ele>
        <time>2026-05-14T12:23:33.999Z</time>
      </trkpt>
      <trkpt lat="44.18469" lon="5.27391">
        <ele>1468</ele>
        <time>2026-05-14T12:23:34.999Z</time>
      </trkpt>
      <trkpt lat="44.18469" lon="5.27391">
        <ele>1468.2</ele>
        <time>2026-05-14T12:23:35.999Z</time>
      </trkpt>
      <trkpt lat="44.18469" lon="5.27391">
        <ele>1468.1</ele>
        <time>2026-05-14T12:23:36.999Z</time>
      </trkpt>
      <trkpt lat="44.18469" lon="5.27391">
        <ele>1468.6</ele>
        <time>2026-05-14T12:23:38.999Z</time>
      </trkpt>
      <trkpt lat="44.18469" lon="5.2739">
        <ele>1468.5</ele>
        <time>2026-05-14T12:23:39.999Z</time>
      </trkpt>
      <trkpt lat="44.18469" lon="5.2739">
        <ele>1468.2</ele>
        <time>2026-05-14T12:23:40.999Z</time>
      </trkpt>
      <trkpt lat="44.18469" lon="5.27389">
        <ele>1468</ele>
        <time>2026-05-14T12:23:41.999Z</time>
      </trkpt>
      <trkpt lat="44.18469" lon="5.27389">
        <ele>1467.5</ele>
        <time>2026-05-14T12:23:42.999Z</time>
      </trkpt>
      <trkpt lat="44.1847" lon="5.27389">
        <ele>1467.3</ele>
        <time>2026-05-14T12:23:43.999Z</time>
      </trkpt>
      <trkpt lat="44.1847" lon="5.27389">
        <ele>1467.3</ele>
        <time>2026-05-14T12:23:44.999Z</time>
      </trkpt>
      <trkpt lat="44.18471" lon="5.2739">
        <ele>1467.3</ele>
        <time>2026-05-14T12:23:45.999Z</time>
      </trkpt>
      <trkpt lat="44.18472" lon="5.27391">
        <ele>1467.1</ele>
        <time>2026-05-14T12:23:46.999Z</time>
      </trkpt>
      <trkpt lat="44.18473" lon="5.27392">
        <ele>1467.1</ele>
        <time>2026-05-14T12:23:47.999Z</time>
      </trkpt>
      <trkpt lat="44.18474" lon="5.27393">
        <ele>1467.1</ele>
        <time>2026-05-14T12:23:48.999Z</time>
      </trkpt>
      <trkpt lat="44.18474" lon="5.27393">
        <ele>1467</ele>
        <time>2026-05-14T12:23:49.999Z</time>
      </trkpt>
      <trkpt lat="44.18474" lon="5.27394">
        <ele>1467</ele>
        <time>2026-05-14T12:23:50.999Z</time>
      </trkpt>
      <trkpt lat="44.18475" lon="5.27395">
        <ele>1466.7</ele>
        <time>2026-05-14T12:23:51.999Z</time>
      </trkpt>
      <trkpt lat="44.18474" lon="5.27396">
        <ele>1466.8</ele>
        <time>2026-05-14T12:23:52.999Z</time>
      </trkpt>
      <trkpt lat="44.18474" lon="5.27398">
        <ele>1467.1</ele>
        <time>2026-05-14T12:23:53.999Z</time>
      </trkpt>
      <trkpt lat="44.18474" lon="5.274">
        <ele>1466.9</ele>
        <time>2026-05-14T12:23:54.999Z</time>
      </trkpt>
      <trkpt lat="44.18473" lon="5.27402">
        <ele>1466.6</ele>
        <time>2026-05-14T12:23:55.999Z</time>
      </trkpt>
      <trkpt lat="44.18473" lon="5.27403">
        <ele>1466.2</ele>
        <time>2026-05-14T12:23:56.999Z</time>
      </trkpt>
      <trkpt lat="44.18473" lon="5.27404">
        <ele>1465.9</ele>
        <time>2026-05-14T12:23:57.999Z</time>
      </trkpt>
      <trkpt lat="44.18473" lon="5.27406">
        <ele>1465.4</ele>
        <time>2026-05-14T12:23:58.999Z</time>
      </trkpt>
      <trkpt lat="44.18473" lon="5.27407">
        <ele>1465.2</ele>
        <time>2026-05-14T12:23:59.999Z</time>
      </trkpt>
      <trkpt lat="44.18474" lon="5.27408">
        <ele>1465.2</ele>
        <time>2026-05-14T12:24:00.999Z</time>
      </trkpt>
      <trkpt lat="44.18475" lon="5.2741">
        <ele>1465.1</ele>
        <time>2026-05-14T12:24:01.999Z</time>
      </trkpt>
      <trkpt lat="44.18475" lon="5.27412">
        <ele>1465.3</ele>
        <time>2026-05-14T12:24:02.999Z</time>
      </trkpt>
      <trkpt lat="44.18476" lon="5.27414">
        <ele>1465.7</ele>
        <time>2026-05-14T12:24:03.999Z</time>
      </trkpt>
      <trkpt lat="44.18477" lon="5.27416">
        <ele>1465.6</ele>
        <time>2026-05-14T12:24:04.999Z</time>
      </trkpt>
      <trkpt lat="44.18477" lon="5.27418">
        <ele>1465.1</ele>
        <time>2026-05-14T12:24:05.999Z</time>
      </trkpt>
      <trkpt lat="44.18478" lon="5.27421">
        <ele>1464.9</ele>
        <time>2026-05-14T12:24:06.999Z</time>
      </trkpt>
      <trkpt lat="44.18478" lon="5.27423">
        <ele>1464.6</ele>
        <time>2026-05-14T12:24:07.999Z</time>
      </trkpt>
      <trkpt lat="44.18479" lon="5.27424">
        <ele>1464.7</ele>
        <time>2026-05-14T12:24:08.999Z</time>
      </trkpt>
      <trkpt lat="44.18479" lon="5.27424">
        <ele>1465</ele>
        <time>2026-05-14T12:24:09.999Z</time>
      </trkpt>
      <trkpt lat="44.18479" lon="5.27425">
        <ele>1465</ele>
        <time>2026-05-14T12:24:10.999Z</time>
      </trkpt>
      <trkpt lat="44.18479" lon="5.27427">
        <ele>1464.7</ele>
        <time>2026-05-14T12:24:11.999Z</time>
      </trkpt>
      <trkpt lat="44.1848" lon="5.27428">
        <ele>1464.3</ele>
        <time>2026-05-14T12:24:12.999Z</time>
      </trkpt>
      <trkpt lat="44.18481" lon="5.27429">
        <ele>1464</ele>
        <time>2026-05-14T12:24:13.999Z</time>
      </trkpt>
      <trkpt lat="44.18482" lon="5.27431">
        <ele>1463.3</ele>
        <time>2026-05-14T12:24:14.999Z</time>
      </trkpt>
      <trkpt lat="44.18482" lon="5.27432">
        <ele>1463</ele>
        <time>2026-05-14T12:24:15.999Z</time>
      </trkpt>
      <trkpt lat="44.18483" lon="5.27434">
        <ele>1462.7</ele>
        <time>2026-05-14T12:24:16.999Z</time>
      </trkpt>
      <trkpt lat="44.18483" lon="5.27437">
        <ele>1462.4</ele>
        <time>2026-05-14T12:24:17.999Z</time>
      </trkpt>
      <trkpt lat="44.18484" lon="5.2744">
        <ele>1462.1</ele>
        <time>2026-05-14T12:24:18.999Z</time>
      </trkpt>
      <trkpt lat="44.18484" lon="5.27443">
        <ele>1461.7</ele>
        <time>2026-05-14T12:24:19.999Z</time>
      </trkpt>
      <trkpt lat="44.18484" lon="5.27446">
        <ele>1461.7</ele>
        <time>2026-05-14T12:24:20.999Z</time>
      </trkpt>
      <trkpt lat="44.18485" lon="5.27448">
        <ele>1461.6</ele>
        <time>2026-05-14T12:24:21.999Z</time>
      </trkpt>
      <trkpt lat="44.18486" lon="5.2745">
        <ele>1461.3</ele>
        <time>2026-05-14T12:24:22.999Z</time>
      </trkpt>
      <trkpt lat="44.18487" lon="5.27452">
        <ele>1460.8</ele>
        <time>2026-05-14T12:24:23.999Z</time>
      </trkpt>
      <trkpt lat="44.18488" lon="5.27454">
        <ele>1461.3</ele>
        <time>2026-05-14T12:24:24.999Z</time>
      </trkpt>
      <trkpt lat="44.18488" lon="5.27455">
        <ele>1461</ele>
        <time>2026-05-14T12:24:25.999Z</time>
      </trkpt>
      <trkpt lat="44.18488" lon="5.27457">
        <ele>1460.9</ele>
        <time>2026-05-14T12:24:26.999Z</time>
      </trkpt>
      <trkpt lat="44.18488" lon="5.27459">
        <ele>1460.8</ele>
        <time>2026-05-14T12:24:27.999Z</time>
      </trkpt>
      <trkpt lat="44.18488" lon="5.27461">
        <ele>1460.9</ele>
        <time>2026-05-14T12:24:28.999Z</time>
      </trkpt>
      <trkpt lat="44.18488" lon="5.27462">
        <ele>1461.2</ele>
        <time>2026-05-14T12:24:29.999Z</time>
      </trkpt>
      <trkpt lat="44.18488" lon="5.27463">
        <ele>1461.3</ele>
        <time>2026-05-14T12:24:30.999Z</time>
      </trkpt>
      <trkpt lat="44.18488" lon="5.27464">
        <ele>1461.6</ele>
        <time>2026-05-14T12:24:31.999Z</time>
      </trkpt>
      <trkpt lat="44.18487" lon="5.27466">
        <ele>1462.4</ele>
        <time>2026-05-14T12:24:32.999Z</time>
      </trkpt>
      <trkpt lat="44.18487" lon="5.27468">
        <ele>1462.7</ele>
        <time>2026-05-14T12:24:33.999Z</time>
      </trkpt>
      <trkpt lat="44.18487" lon="5.2747">
        <ele>1462.9</ele>
        <time>2026-05-14T12:24:34.999Z</time>
      </trkpt>
      <trkpt lat="44.18486" lon="5.27471">
        <ele>1463.3</ele>
        <time>2026-05-14T12:24:35.999Z</time>
      </trkpt>
      <trkpt lat="44.18486" lon="5.27472">
        <ele>1463.5</ele>
        <time>2026-05-14T12:24:36.999Z</time>
      </trkpt>
      <trkpt lat="44.18486" lon="5.27473">
        <ele>1463.5</ele>
        <time>2026-05-14T12:24:37.999Z</time>
      </trkpt>
      <trkpt lat="44.18486" lon="5.27475">
        <ele>1463.4</ele>
        <time>2026-05-14T12:24:38.999Z</time>
      </trkpt>
      <trkpt lat="44.18486" lon="5.27476">
        <ele>1463.9</ele>
        <time>2026-05-14T12:24:39.999Z</time>
      </trkpt>
      <trkpt lat="44.18485" lon="5.27478">
        <ele>1464.2</ele>
        <time>2026-05-14T12:24:40.999Z</time>
      </trkpt>
      <trkpt lat="44.18485" lon="5.27481">
        <ele>1464.6</ele>
        <time>2026-05-14T12:24:41.999Z</time>
      </trkpt>
      <trkpt lat="44.18485" lon="5.27484">
        <ele>1464.7</ele>
        <time>2026-05-14T12:24:42.999Z</time>
      </trkpt>
      <trkpt lat="44.18485" lon="5.27486">
        <ele>1465</ele>
        <time>2026-05-14T12:24:43.999Z</time>
      </trkpt>
      <trkpt lat="44.18485" lon="5.27489">
        <ele>1464.7</ele>
        <time>2026-05-14T12:24:44.999Z</time>
      </trkpt>
      <trkpt lat="44.18484" lon="5.27491">
        <ele>1464.1</ele>
        <time>2026-05-14T12:24:45.999Z</time>
      </trkpt>
      <trkpt lat="44.18484" lon="5.27493">
        <ele>1463.5</ele>
        <time>2026-05-14T12:24:46.999Z</time>
      </trkpt>
      <trkpt lat="44.18484" lon="5.27494">
        <ele>1462.8</ele>
        <time>2026-05-14T12:24:47.999Z</time>
      </trkpt>
      <trkpt lat="44.18483" lon="5.27496">
        <ele>1462.6</ele>
        <time>2026-05-14T12:24:48.999Z</time>
      </trkpt>
      <trkpt lat="44.18482" lon="5.27497">
        <ele>1462.4</ele>
        <time>2026-05-14T12:24:49.999Z</time>
      </trkpt>
      <trkpt lat="44.18482" lon="5.27498">
        <ele>1462.3</ele>
        <time>2026-05-14T12:24:50.999Z</time>
      </trkpt>
      <trkpt lat="44.18481" lon="5.27499">
        <ele>1462.3</ele>
        <time>2026-05-14T12:24:51.999Z</time>
      </trkpt>
      <trkpt lat="44.18481" lon="5.27501">
        <ele>1462.5</ele>
        <time>2026-05-14T12:24:52.999Z</time>
      </trkpt>
      <trkpt lat="44.18481" lon="5.27503">
        <ele>1462.9</ele>
        <time>2026-05-14T12:24:53.999Z</time>
      </trkpt>
      <trkpt lat="44.18481" lon="5.27504">
        <ele>1463.5</ele>
        <time>2026-05-14T12:24:54.999Z</time>
      </trkpt>
      <trkpt lat="44.18481" lon="5.27506">
        <ele>1463.8</ele>
        <time>2026-05-14T12:24:55.999Z</time>
      </trkpt>
      <trkpt lat="44.18481" lon="5.27508">
        <ele>1464.1</ele>
        <time>2026-05-14T12:24:56.999Z</time>
      </trkpt>
      <trkpt lat="44.18481" lon="5.27509">
        <ele>1464.2</ele>
        <time>2026-05-14T12:24:57.999Z</time>
      </trkpt>
      <trkpt lat="44.18481" lon="5.27512">
        <ele>1464.4</ele>
        <time>2026-05-14T12:24:58.999Z</time>
      </trkpt>
      <trkpt lat="44.18481" lon="5.27515">
        <ele>1464.7</ele>
        <time>2026-05-14T12:24:59.999Z</time>
      </trkpt>
      <trkpt lat="44.18481" lon="5.27517">
        <ele>1464.8</ele>
        <time>2026-05-14T12:25:00.999Z</time>
      </trkpt>
      <trkpt lat="44.18482" lon="5.2752">
        <ele>1464.6</ele>
        <time>2026-05-14T12:25:01.999Z</time>
      </trkpt>
      <trkpt lat="44.18482" lon="5.27522">
        <ele>1464.6</ele>
        <time>2026-05-14T12:25:02.999Z</time>
      </trkpt>
      <trkpt lat="44.18482" lon="5.27524">
        <ele>1464.5</ele>
        <time>2026-05-14T12:25:03.999Z</time>
      </trkpt>
      <trkpt lat="44.18482" lon="5.27526">
        <ele>1464.1</ele>
        <time>2026-05-14T12:25:04.999Z</time>
      </trkpt>
      <trkpt lat="44.18482" lon="5.27527">
        <ele>1463.8</ele>
        <time>2026-05-14T12:25:05.999Z</time>
      </trkpt>
      <trkpt lat="44.18481" lon="5.27528">
        <ele>1463.8</ele>
        <time>2026-05-14T12:25:06.999Z</time>
      </trkpt>
      <trkpt lat="44.18482" lon="5.27529">
        <ele>1463.6</ele>
        <time>2026-05-14T12:25:07.999Z</time>
      </trkpt>
      <trkpt lat="44.18482" lon="5.2753">
        <ele>1463.6</ele>
        <time>2026-05-14T12:25:08.999Z</time>
      </trkpt>
      <trkpt lat="44.18482" lon="5.2753">
        <ele>1463.7</ele>
        <time>2026-05-14T12:25:09.999Z</time>
      </trkpt>
      <trkpt lat="44.18482" lon="5.2753">
        <ele>1463.9</ele>
        <time>2026-05-14T12:25:10.999Z</time>
      </trkpt>
      <trkpt lat="44.18482" lon="5.2753">
        <ele>1464</ele>
        <time>2026-05-14T12:25:11.999Z</time>
      </trkpt>
      <trkpt lat="44.18482" lon="5.2753">
        <ele>1464</ele>
        <time>2026-05-14T12:25:12.999Z</time>
      </trkpt>
      <trkpt lat="44.18482" lon="5.2753">
        <ele>1464</ele>
        <time>2026-05-14T12:25:13.999Z</time>
      </trkpt>
      <trkpt lat="44.18482" lon="5.2753">
        <ele>1463.9</ele>
        <time>2026-05-14T12:25:14.999Z</time>
      </trkpt>
      <trkpt lat="44.18482" lon="5.2753">
        <ele>1463.5</ele>
        <time>2026-05-14T12:25:15.999Z</time>
      </trkpt>
      <trkpt lat="44.18482" lon="5.2753">
        <ele>1463.2</ele>
        <time>2026-05-14T12:25:16.999Z</time>
      </trkpt>
      <trkpt lat="44.18482" lon="5.2753">
        <ele>1462.9</ele>
        <time>2026-05-14T12:25:17.999Z</time>
      </trkpt>
      <trkpt lat="44.18482" lon="5.27531">
        <ele>1462.7</ele>
        <time>2026-05-14T12:25:18.999Z</time>
      </trkpt>
      <trkpt lat="44.18482" lon="5.27531">
        <ele>1462.6</ele>
        <time>2026-05-14T12:25:19.999Z</time>
      </trkpt>
      <trkpt lat="44.18481" lon="5.27531">
        <ele>1462.6</ele>
        <time>2026-05-14T12:25:20.999Z</time>
      </trkpt>
      <trkpt lat="44.1848" lon="5.27531">
        <ele>1462.4</ele>
        <time>2026-05-14T12:25:21.999Z</time>
      </trkpt>
      <trkpt lat="44.18479" lon="5.27531">
        <ele>1462.1</ele>
        <time>2026-05-14T12:25:22.999Z</time>
      </trkpt>
      <trkpt lat="44.18479" lon="5.27531">
        <ele>1461.7</ele>
        <time>2026-05-14T12:25:23.999Z</time>
      </trkpt>
      <trkpt lat="44.18479" lon="5.27532">
        <ele>1461.3</ele>
        <time>2026-05-14T12:25:24.999Z</time>
      </trkpt>
      <trkpt lat="44.18478" lon="5.27532">
        <ele>1461.1</ele>
        <time>2026-05-14T12:25:25.999Z</time>
      </trkpt>
      <trkpt lat="44.18478" lon="5.27532">
        <ele>1461</ele>
        <time>2026-05-14T12:25:26.999Z</time>
      </trkpt>
      <trkpt lat="44.18478" lon="5.27532">
        <ele>1460.9</ele>
        <time>2026-05-14T12:25:27.999Z</time>
      </trkpt>
      <trkpt lat="44.18478" lon="5.27532">
        <ele>1460.9</ele>
        <time>2026-05-14T12:25:28.999Z</time>
      </trkpt>
      <trkpt lat="44.18477" lon="5.27532">
        <ele>1461</ele>
        <time>2026-05-14T12:25:29.999Z</time>
      </trkpt>
      <trkpt lat="44.18476" lon="5.27532">
        <ele>1460.7</ele>
        <time>2026-05-14T12:25:30.999Z</time>
      </trkpt>
      <trkpt lat="44.18476" lon="5.27533">
        <ele>1460.6</ele>
        <time>2026-05-14T12:25:31.999Z</time>
      </trkpt>
      <trkpt lat="44.18476" lon="5.27533">
        <ele>1460.3</ele>
        <time>2026-05-14T12:25:32.999Z</time>
      </trkpt>
      <trkpt lat="44.18476" lon="5.27532">
        <ele>1460</ele>
        <time>2026-05-14T12:25:33.999Z</time>
      </trkpt>
      <trkpt lat="44.18476" lon="5.27532">
        <ele>1459.5</ele>
        <time>2026-05-14T12:25:34.999Z</time>
      </trkpt>
      <trkpt lat="44.18476" lon="5.27532">
        <ele>1459.2</ele>
        <time>2026-05-14T12:25:35.999Z</time>
      </trkpt>
      <trkpt lat="44.18475" lon="5.27532">
        <ele>1459</ele>
        <time>2026-05-14T12:25:36.999Z</time>
      </trkpt>
      <trkpt lat="44.18475" lon="5.27533">
        <ele>1459.1</ele>
        <time>2026-05-14T12:25:37.999Z</time>
      </trkpt>
      <trkpt lat="44.18475" lon="5.27533">
        <ele>1459.3</ele>
        <time>2026-05-14T12:25:38.999Z</time>
      </trkpt>
      <trkpt lat="44.18475" lon="5.27533">
        <ele>1459.6</ele>
        <time>2026-05-14T12:25:39.999Z</time>
      </trkpt>
      <trkpt lat="44.18475" lon="5.27533">
        <ele>1460.1</ele>
        <time>2026-05-14T12:25:40.999Z</time>
      </trkpt>
      <trkpt lat="44.18475" lon="5.27533">
        <ele>1460.6</ele>
        <time>2026-05-14T12:25:41.999Z</time>
      </trkpt>
      <trkpt lat="44.18475" lon="5.27533">
        <ele>1460.7</ele>
        <time>2026-05-14T12:25:42.999Z</time>
      </trkpt>
      <trkpt lat="44.18475" lon="5.27533">
        <ele>1460.6</ele>
        <time>2026-05-14T12:25:43.999Z</time>
      </trkpt>
      <trkpt lat="44.18475" lon="5.27533">
        <ele>1460.5</ele>
        <time>2026-05-14T12:25:44.999Z</time>
      </trkpt>
      <trkpt lat="44.18475" lon="5.27533">
        <ele>1460.5</ele>
        <time>2026-05-14T12:25:45.999Z</time>
      </trkpt>
      <trkpt lat="44.18475" lon="5.27533">
        <ele>1460.5</ele>
        <time>2026-05-14T12:25:46.999Z</time>
      </trkpt>
      <trkpt lat="44.18475" lon="5.27533">
        <ele>1460.5</ele>
        <time>2026-05-14T12:25:47.999Z</time>
      </trkpt>
      <trkpt lat="44.18475" lon="5.27532">
        <ele>1460.6</ele>
        <time>2026-05-14T12:25:48.999Z</time>
      </trkpt>
      <trkpt lat="44.18475" lon="5.27532">
        <ele>1460.6</ele>
        <time>2026-05-14T12:25:49.999Z</time>
      </trkpt>
      <trkpt lat="44.18475" lon="5.27532">
        <ele>1460.6</ele>
        <time>2026-05-14T12:25:50.999Z</time>
      </trkpt>
      <trkpt lat="44.18475" lon="5.27532">
        <ele>1459.6</ele>
        <time>2026-05-14T12:25:51.999Z</time>
      </trkpt>
      <trkpt lat="44.18475" lon="5.27532">
        <ele>1459.2</ele>
        <time>2026-05-14T12:25:52.999Z</time>
      </trkpt>
      <trkpt lat="44.18475" lon="5.27531">
        <ele>1459.5</ele>
        <time>2026-05-14T12:25:53.999Z</time>
      </trkpt>
      <trkpt lat="44.18475" lon="5.27531">
        <ele>1459.4</ele>
        <time>2026-05-14T12:25:54.999Z</time>
      </trkpt>
      <trkpt lat="44.18475" lon="5.27531">
        <ele>1459.4</ele>
        <time>2026-05-14T12:25:55.999Z</time>
      </trkpt>
      <trkpt lat="44.18476" lon="5.27531">
        <ele>1459.9</ele>
        <time>2026-05-14T12:25:56.999Z</time>
      </trkpt>
      <trkpt lat="44.18476" lon="5.27531">
        <ele>1460.2</ele>
        <time>2026-05-14T12:25:57.999Z</time>
      </trkpt>
      <trkpt lat="44.18476" lon="5.27531">
        <ele>1460.5</ele>
        <time>2026-05-14T12:25:58.999Z</time>
      </trkpt>
      <trkpt lat="44.18476" lon="5.27531">
        <ele>1460.4</ele>
        <time>2026-05-14T12:25:59.999Z</time>
      </trkpt>
      <trkpt lat="44.18476" lon="5.27531">
        <ele>1460.7</ele>
        <time>2026-05-14T12:26:00.999Z</time>
      </trkpt>
      <trkpt lat="44.18476" lon="5.27531">
        <ele>1460.7</ele>
        <time>2026-05-14T12:26:01.999Z</time>
      </trkpt>
      <trkpt lat="44.18476" lon="5.2753">
        <ele>1460.8</ele>
        <time>2026-05-14T12:26:02.999Z</time>
      </trkpt>
      <trkpt lat="44.18477" lon="5.2753">
        <ele>1460.7</ele>
        <time>2026-05-14T12:26:03.999Z</time>
      </trkpt>
      <trkpt lat="44.18477" lon="5.2753">
        <ele>1460.7</ele>
        <time>2026-05-14T12:26:04.999Z</time>
      </trkpt>
      <trkpt lat="44.18477" lon="5.2753">
        <ele>1460.7</ele>
        <time>2026-05-14T12:26:05.999Z</time>
      </trkpt>
      <trkpt lat="44.18477" lon="5.2753">
        <ele>1460.7</ele>
        <time>2026-05-14T12:26:06.999Z</time>
      </trkpt>
      <trkpt lat="44.18477" lon="5.2753">
        <ele>1460.9</ele>
        <time>2026-05-14T12:26:07.999Z</time>
      </trkpt>
      <trkpt lat="44.18477" lon="5.2753">
        <ele>1460.9</ele>
        <time>2026-05-14T12:26:08.999Z</time>
      </trkpt>
      <trkpt lat="44.18477" lon="5.2753">
        <ele>1461</ele>
        <time>2026-05-14T12:26:09.999Z</time>
      </trkpt>
      <trkpt lat="44.18477" lon="5.2753">
        <ele>1461</ele>
        <time>2026-05-14T12:26:10.999Z</time>
      </trkpt>
      <trkpt lat="44.18477" lon="5.2753">
        <ele>1460.8</ele>
        <time>2026-05-14T12:26:11.999Z</time>
      </trkpt>
      <trkpt lat="44.18477" lon="5.2753">
        <ele>1460.8</ele>
        <time>2026-05-14T12:26:12.999Z</time>
      </trkpt>
      <trkpt lat="44.18477" lon="5.27529">
        <ele>1460.7</ele>
        <time>2026-05-14T12:26:13.999Z</time>
      </trkpt>
      <trkpt lat="44.18477" lon="5.27529">
        <ele>1460.6</ele>
        <time>2026-05-14T12:26:14.999Z</time>
      </trkpt>
      <trkpt lat="44.18477" lon="5.27529">
        <ele>1460.4</ele>
        <time>2026-05-14T12:26:15.999Z</time>
      </trkpt>
      <trkpt lat="44.18477" lon="5.27529">
        <ele>1460.4</ele>
        <time>2026-05-14T12:26:16.999Z</time>
      </trkpt>
      <trkpt lat="44.18477" lon="5.27529">
        <ele>1460.6</ele>
        <time>2026-05-14T12:26:17.999Z</time>
      </trkpt>
      <trkpt lat="44.18477" lon="5.27528">
        <ele>1460.9</ele>
        <time>2026-05-14T12:26:18.999Z</time>
      </trkpt>
      <trkpt lat="44.18477" lon="5.27528">
        <ele>1460.6</ele>
        <time>2026-05-14T12:26:19.999Z</time>
      </trkpt>
      <trkpt lat="44.18477" lon="5.27528">
        <ele>1461.3</ele>
        <time>2026-05-14T12:26:20.999Z</time>
      </trkpt>
      <trkpt lat="44.18477" lon="5.27528">
        <ele>1461.7</ele>
        <time>2026-05-14T12:26:21.999Z</time>
      </trkpt>
      <trkpt lat="44.18477" lon="5.27528">
        <ele>1461.8</ele>
        <time>2026-05-14T12:26:22.999Z</time>
      </trkpt>
      <trkpt lat="44.18477" lon="5.27528">
        <ele>1461.9</ele>
        <time>2026-05-14T12:26:23.999Z</time>
      </trkpt>
      <trkpt lat="44.18477" lon="5.27528">
        <ele>1462</ele>
        <time>2026-05-14T12:26:24.999Z</time>
      </trkpt>
      <trkpt lat="44.18477" lon="5.27528">
        <ele>1462</ele>
        <time>2026-05-14T12:26:25.999Z</time>
      </trkpt>
      <trkpt lat="44.18477" lon="5.27528">
        <ele>1461.7</ele>
        <time>2026-05-14T12:26:26.999Z</time>
      </trkpt>
      <trkpt lat="44.18478" lon="5.27528">
        <ele>1461.8</ele>
        <time>2026-05-14T12:26:27.999Z</time>
      </trkpt>
      <trkpt lat="44.18478" lon="5.27528">
        <ele>1461.7</ele>
        <time>2026-05-14T12:26:28.999Z</time>
      </trkpt>
      <trkpt lat="44.18478" lon="5.27528">
        <ele>1461.7</ele>
        <time>2026-05-14T12:26:29.999Z</time>
      </trkpt>
      <trkpt lat="44.18478" lon="5.27528">
        <ele>1461.5</ele>
        <time>2026-05-14T12:26:30.999Z</time>
      </trkpt>
      <trkpt lat="44.18478" lon="5.27528">
        <ele>1461.3</ele>
        <time>2026-05-14T12:26:31.999Z</time>
      </trkpt>
      <trkpt lat="44.18478" lon="5.27528">
        <ele>1461.6</ele>
        <time>2026-05-14T12:26:32.999Z</time>
      </trkpt>
      <trkpt lat="44.18478" lon="5.27528">
        <ele>1461.7</ele>
        <time>2026-05-14T12:26:33.999Z</time>
      </trkpt>
      <trkpt lat="44.18478" lon="5.27528">
        <ele>1461.8</ele>
        <time>2026-05-14T12:26:34.999Z</time>
      </trkpt>
      <trkpt lat="44.18478" lon="5.27528">
        <ele>1461.9</ele>
        <time>2026-05-14T12:26:35.999Z</time>
      </trkpt>
      <trkpt lat="44.18478" lon="5.27528">
        <ele>1461.8</ele>
        <time>2026-05-14T12:26:36.999Z</time>
      </trkpt>
      <trkpt lat="44.18478" lon="5.27528">
        <ele>1461.9</ele>
        <time>2026-05-14T12:26:37.999Z</time>
      </trkpt>
      <trkpt lat="44.18478" lon="5.27528">
        <ele>1461.9</ele>
        <time>2026-05-14T12:26:38.999Z</time>
      </trkpt>
      <trkpt lat="44.18478" lon="5.27529">
        <ele>1462.1</ele>
        <time>2026-05-14T12:26:39.999Z</time>
      </trkpt>
      <trkpt lat="44.18478" lon="5.27529">
        <ele>1462.3</ele>
        <time>2026-05-14T12:26:40.999Z</time>
      </trkpt>
      <trkpt lat="44.18478" lon="5.27529">
        <ele>1462.3</ele>
        <time>2026-05-14T12:26:41.999Z</time>
      </trkpt>
      <trkpt lat="44.18478" lon="5.27529">
        <ele>1462.5</ele>
        <time>2026-05-14T12:26:42.999Z</time>
      </trkpt>
      <trkpt lat="44.18478" lon="5.27529">
        <ele>1462.7</ele>
        <time>2026-05-14T12:26:43.999Z</time>
      </trkpt>
      <trkpt lat="44.18478" lon="5.27529">
        <ele>1463.2</ele>
        <time>2026-05-14T12:26:44.999Z</time>
      </trkpt>
      <trkpt lat="44.18478" lon="5.27529">
        <ele>1463.4</ele>
        <time>2026-05-14T12:26:45.999Z</time>
      </trkpt>
      <trkpt lat="44.18478" lon="5.27529">
        <ele>1463.7</ele>
        <time>2026-05-14T12:26:46.999Z</time>
      </trkpt>
      <trkpt lat="44.18478" lon="5.27529">
        <ele>1464</ele>
        <time>2026-05-14T12:26:47.999Z</time>
      </trkpt>
      <trkpt lat="44.18478" lon="5.27529">
        <ele>1464.1</ele>
        <time>2026-05-14T12:26:48.999Z</time>
      </trkpt>
      <trkpt lat="44.18478" lon="5.27529">
        <ele>1464.3</ele>
        <time>2026-05-14T12:26:49.999Z</time>
      </trkpt>
      <trkpt lat="44.18478" lon="5.27529">
        <ele>1464.3</ele>
        <time>2026-05-14T12:26:50.999Z</time>
      </trkpt>
      <trkpt lat="44.18477" lon="5.27528">
        <ele>1464.7</ele>
        <time>2026-05-14T12:26:51.999Z</time>
      </trkpt>
      <trkpt lat="44.18478" lon="5.27528">
        <ele>1465.1</ele>
        <time>2026-05-14T12:26:52.999Z</time>
      </trkpt>
      <trkpt lat="44.18477" lon="5.27527">
        <ele>1465.2</ele>
        <time>2026-05-14T12:26:53.999Z</time>
      </trkpt>
      <trkpt lat="44.18478" lon="5.27527">
        <ele>1465.4</ele>
        <time>2026-05-14T12:26:54.999Z</time>
      </trkpt>
      <trkpt lat="44.18478" lon="5.27529">
        <ele>1465.5</ele>
        <time>2026-05-14T12:26:55.999Z</time>
      </trkpt>
      <trkpt lat="44.18478" lon="5.2753">
        <ele>1465.5</ele>
        <time>2026-05-14T12:26:56.999Z</time>
      </trkpt>
      <trkpt lat="44.18478" lon="5.2753">
        <ele>1465.5</ele>
        <time>2026-05-14T12:26:57.999Z</time>
      </trkpt>
      <trkpt lat="44.18478" lon="5.2753">
        <ele>1465.4</ele>
        <time>2026-05-14T12:26:58.999Z</time>
      </trkpt>
      <trkpt lat="44.18478" lon="5.2753">
        <ele>1465.6</ele>
        <time>2026-05-14T12:26:59.999Z</time>
      </trkpt>
      <trkpt lat="44.18478" lon="5.2753">
        <ele>1465.8</ele>
        <time>2026-05-14T12:27:00.999Z</time>
      </trkpt>
      <trkpt lat="44.18478" lon="5.2753">
        <ele>1465.8</ele>
        <time>2026-05-14T12:27:01.999Z</time>
      </trkpt>
      <trkpt lat="44.18478" lon="5.2753">
        <ele>1465.8</ele>
        <time>2026-05-14T12:27:02.999Z</time>
      </trkpt>
      <trkpt lat="44.18478" lon="5.2753">
        <ele>1466</ele>
        <time>2026-05-14T12:27:03.999Z</time>
      </trkpt>
      <trkpt lat="44.18478" lon="5.2753">
        <ele>1466.1</ele>
        <time>2026-05-14T12:27:04.999Z</time>
      </trkpt>
      <trkpt lat="44.18478" lon="5.2753">
        <ele>1466</ele>
        <time>2026-05-14T12:27:05.999Z</time>
      </trkpt>
      <trkpt lat="44.18478" lon="5.2753">
        <ele>1465.8</ele>
        <time>2026-05-14T12:27:06.999Z</time>
      </trkpt>
      <trkpt lat="44.18478" lon="5.2753">
        <ele>1465.6</ele>
        <time>2026-05-14T12:27:07.999Z</time>
      </trkpt>
      <trkpt lat="44.18478" lon="5.2753">
        <ele>1465.5</ele>
        <time>2026-05-14T12:27:08.999Z</time>
      </trkpt>
      <trkpt lat="44.18478" lon="5.2753">
        <ele>1465.3</ele>
        <time>2026-05-14T12:27:09.999Z</time>
      </trkpt>
      <trkpt lat="44.18478" lon="5.2753">
        <ele>1465.1</ele>
        <time>2026-05-14T12:27:10.999Z</time>
      </trkpt>
      <trkpt lat="44.18478" lon="5.2753">
        <ele>1464.9</ele>
        <time>2026-05-14T12:27:11.999Z</time>
      </trkpt>
      <trkpt lat="44.18478" lon="5.2753">
        <ele>1464.6</ele>
        <time>2026-05-14T12:27:12.999Z</time>
      </trkpt>
      <trkpt lat="44.18478" lon="5.2753">
        <ele>1464.4</ele>
        <time>2026-05-14T12:27:13.999Z</time>
      </trkpt>
      <trkpt lat="44.18478" lon="5.2753">
        <ele>1464.2</ele>
        <time>2026-05-14T12:27:14.999Z</time>
      </trkpt>
      <trkpt lat="44.18478" lon="5.2753">
        <ele>1463.9</ele>
        <time>2026-05-14T12:27:15.999Z</time>
      </trkpt>
      <trkpt lat="44.18479" lon="5.2753">
        <ele>1464</ele>
        <time>2026-05-14T12:27:16.999Z</time>
      </trkpt>
      <trkpt lat="44.18478" lon="5.2753">
        <ele>1463.8</ele>
        <time>2026-05-14T12:27:17.999Z</time>
      </trkpt>
      <trkpt lat="44.18478" lon="5.27531">
        <ele>1463.6</ele>
        <time>2026-05-14T12:27:18.999Z</time>
      </trkpt>
      <trkpt lat="44.18478" lon="5.27531">
        <ele>1463.5</ele>
        <time>2026-05-14T12:27:19.999Z</time>
      </trkpt>
      <trkpt lat="44.18478" lon="5.27531">
        <ele>1463.5</ele>
        <time>2026-05-14T12:27:20.999Z</time>
      </trkpt>
      <trkpt lat="44.18478" lon="5.27531">
        <ele>1463.5</ele>
        <time>2026-05-14T12:27:21.999Z</time>
      </trkpt>
      <trkpt lat="44.18478" lon="5.27531">
        <ele>1463.6</ele>
        <time>2026-05-14T12:27:22.999Z</time>
      </trkpt>
      <trkpt lat="44.18478" lon="5.27531">
        <ele>1463.7</ele>
        <time>2026-05-14T12:27:23.999Z</time>
      </trkpt>
      <trkpt lat="44.18478" lon="5.27531">
        <ele>1463.8</ele>
        <time>2026-05-14T12:27:24.999Z</time>
      </trkpt>
      <trkpt lat="44.18478" lon="5.27531">
        <ele>1463.7</ele>
        <time>2026-05-14T12:27:25.999Z</time>
      </trkpt>
      <trkpt lat="44.18478" lon="5.27532">
        <ele>1463.6</ele>
        <time>2026-05-14T12:27:26.999Z</time>
      </trkpt>
      <trkpt lat="44.18478" lon="5.27533">
        <ele>1463.5</ele>
        <time>2026-05-14T12:27:27.999Z</time>
      </trkpt>
      <trkpt lat="44.18478" lon="5.27533">
        <ele>1463.5</ele>
        <time>2026-05-14T12:27:28.999Z</time>
      </trkpt>
      <trkpt lat="44.18477" lon="5.27533">
        <ele>1463.7</ele>
        <time>2026-05-14T12:27:29.999Z</time>
      </trkpt>
      <trkpt lat="44.18477" lon="5.27533">
        <ele>1463.8</ele>
        <time>2026-05-14T12:27:30.999Z</time>
      </trkpt>
      <trkpt lat="44.18477" lon="5.27534">
        <ele>1464.1</ele>
        <time>2026-05-14T12:27:31.999Z</time>
      </trkpt>
      <trkpt lat="44.18477" lon="5.27534">
        <ele>1464.3</ele>
        <time>2026-05-14T12:27:32.999Z</time>
      </trkpt>
      <trkpt lat="44.18477" lon="5.27534">
        <ele>1464.5</ele>
        <time>2026-05-14T12:27:33.999Z</time>
      </trkpt>
      <trkpt lat="44.18477" lon="5.27534">
        <ele>1464.6</ele>
        <time>2026-05-14T12:27:34.999Z</time>
      </trkpt>
      <trkpt lat="44.18477" lon="5.27535">
        <ele>1464.7</ele>
        <time>2026-05-14T12:27:35.999Z</time>
      </trkpt>
      <trkpt lat="44.18477" lon="5.27535">
        <ele>1464.7</ele>
        <time>2026-05-14T12:27:36.999Z</time>
      </trkpt>
      <trkpt lat="44.18477" lon="5.27535">
        <ele>1464.7</ele>
        <time>2026-05-14T12:27:37.999Z</time>
      </trkpt>
      <trkpt lat="44.18477" lon="5.27535">
        <ele>1464.7</ele>
        <time>2026-05-14T12:27:38.999Z</time>
      </trkpt>
      <trkpt lat="44.18477" lon="5.27535">
        <ele>1464.8</ele>
        <time>2026-05-14T12:27:39.999Z</time>
      </trkpt>
      <trkpt lat="44.18477" lon="5.27535">
        <ele>1464.9</ele>
        <time>2026-05-14T12:27:40.999Z</time>
      </trkpt>
      <trkpt lat="44.18477" lon="5.27535">
        <ele>1464.7</ele>
        <time>2026-05-14T12:27:41.999Z</time>
      </trkpt>
      <trkpt lat="44.18477" lon="5.27535">
        <ele>1464.5</ele>
        <time>2026-05-14T12:27:42.999Z</time>
      </trkpt>
      <trkpt lat="44.18477" lon="5.27535">
        <ele>1464.4</ele>
        <time>2026-05-14T12:27:43.999Z</time>
      </trkpt>
      <trkpt lat="44.18477" lon="5.27535">
        <ele>1464.3</ele>
        <time>2026-05-14T12:27:44.999Z</time>
      </trkpt>
      <trkpt lat="44.18477" lon="5.27535">
        <ele>1464.3</ele>
        <time>2026-05-14T12:27:45.999Z</time>
      </trkpt>
      <trkpt lat="44.18477" lon="5.27535">
        <ele>1464.2</ele>
        <time>2026-05-14T12:27:46.999Z</time>
      </trkpt>
      <trkpt lat="44.18477" lon="5.27535">
        <ele>1464.2</ele>
        <time>2026-05-14T12:27:47.999Z</time>
      </trkpt>
      <trkpt lat="44.18477" lon="5.27535">
        <ele>1464</ele>
        <time>2026-05-14T12:27:48.999Z</time>
      </trkpt>
      <trkpt lat="44.18477" lon="5.27535">
        <ele>1464.2</ele>
        <time>2026-05-14T12:27:49.999Z</time>
      </trkpt>
      <trkpt lat="44.18477" lon="5.27535">
        <ele>1464</ele>
        <time>2026-05-14T12:27:50.999Z</time>
      </trkpt>
      <trkpt lat="44.18477" lon="5.27536">
        <ele>1464.1</ele>
        <time>2026-05-14T12:27:51.999Z</time>
      </trkpt>
      <trkpt lat="44.18477" lon="5.27536">
        <ele>1464</ele>
        <time>2026-05-14T12:27:52.999Z</time>
      </trkpt>
      <trkpt lat="44.18477" lon="5.27536">
        <ele>1464.1</ele>
        <time>2026-05-14T12:27:53.999Z</time>
      </trkpt>
      <trkpt lat="44.18477" lon="5.27536">
        <ele>1464.4</ele>
        <time>2026-05-14T12:27:54.999Z</time>
      </trkpt>
      <trkpt lat="44.18477" lon="5.27536">
        <ele>1464.7</ele>
        <time>2026-05-14T12:27:55.999Z</time>
      </trkpt>
      <trkpt lat="44.18477" lon="5.27536">
        <ele>1465.1</ele>
        <time>2026-05-14T12:27:56.999Z</time>
      </trkpt>
      <trkpt lat="44.18477" lon="5.27536">
        <ele>1465.3</ele>
        <time>2026-05-14T12:27:57.999Z</time>
      </trkpt>
      <trkpt lat="44.18477" lon="5.27536">
        <ele>1465.2</ele>
        <time>2026-05-14T12:27:58.999Z</time>
      </trkpt>
      <trkpt lat="44.18477" lon="5.27536">
        <ele>1465.2</ele>
        <time>2026-05-14T12:27:59.999Z</time>
      </trkpt>
      <trkpt lat="44.18477" lon="5.27536">
        <ele>1465.3</ele>
        <time>2026-05-14T12:28:00.999Z</time>
      </trkpt>
      <trkpt lat="44.18477" lon="5.27536">
        <ele>1465.2</ele>
        <time>2026-05-14T12:28:01.999Z</time>
      </trkpt>
      <trkpt lat="44.18477" lon="5.27536">
        <ele>1465.3</ele>
        <time>2026-05-14T12:28:02.999Z</time>
      </trkpt>
      <trkpt lat="44.18477" lon="5.27536">
        <ele>1465.4</ele>
        <time>2026-05-14T12:28:03.999Z</time>
      </trkpt>
      <trkpt lat="44.18477" lon="5.27536">
        <ele>1465.6</ele>
        <time>2026-05-14T12:28:04.999Z</time>
      </trkpt>
      <trkpt lat="44.18477" lon="5.27536">
        <ele>1465.8</ele>
        <time>2026-05-14T12:28:05.999Z</time>
      </trkpt>
      <trkpt lat="44.18477" lon="5.27536">
        <ele>1465.9</ele>
        <time>2026-05-14T12:28:06.999Z</time>
      </trkpt>
      <trkpt lat="44.18477" lon="5.27536">
        <ele>1465.9</ele>
        <time>2026-05-14T12:28:07.999Z</time>
      </trkpt>
      <trkpt lat="44.18477" lon="5.27535">
        <ele>1465.9</ele>
        <time>2026-05-14T12:28:08.999Z</time>
      </trkpt>
      <trkpt lat="44.18478" lon="5.27535">
        <ele>1466.2</ele>
        <time>2026-05-14T12:28:09.999Z</time>
      </trkpt>
      <trkpt lat="44.18478" lon="5.27534">
        <ele>1466.3</ele>
        <time>2026-05-14T12:28:10.999Z</time>
      </trkpt>
      <trkpt lat="44.18478" lon="5.27534">
        <ele>1466.6</ele>
        <time>2026-05-14T12:28:11.999Z</time>
      </trkpt>
      <trkpt lat="44.18478" lon="5.27534">
        <ele>1466.9</ele>
        <time>2026-05-14T12:28:12.999Z</time>
      </trkpt>
      <trkpt lat="44.18478" lon="5.27534">
        <ele>1467.1</ele>
        <time>2026-05-14T12:28:13.999Z</time>
      </trkpt>
      <trkpt lat="44.18478" lon="5.27534">
        <ele>1467.5</ele>
        <time>2026-05-14T12:28:14.999Z</time>
      </trkpt>
      <trkpt lat="44.18478" lon="5.27533">
        <ele>1467.6</ele>
        <time>2026-05-14T12:28:15.999Z</time>
      </trkpt>
      <trkpt lat="44.18479" lon="5.27533">
        <ele>1467.5</ele>
        <time>2026-05-14T12:28:16.999Z</time>
      </trkpt>
      <trkpt lat="44.18479" lon="5.27533">
        <ele>1467.5</ele>
        <time>2026-05-14T12:28:17.999Z</time>
      </trkpt>
      <trkpt lat="44.18479" lon="5.27533">
        <ele>1467.5</ele>
        <time>2026-05-14T12:28:18.999Z</time>
      </trkpt>
      <trkpt lat="44.18478" lon="5.27533">
        <ele>1467.4</ele>
        <time>2026-05-14T12:28:19.999Z</time>
      </trkpt>
      <trkpt lat="44.18478" lon="5.27533">
        <ele>1467.3</ele>
        <time>2026-05-14T12:28:20.999Z</time>
      </trkpt>
      <trkpt lat="44.18478" lon="5.27533">
        <ele>1467.1</ele>
        <time>2026-05-14T12:28:21.999Z</time>
      </trkpt>
      <trkpt lat="44.18479" lon="5.27533">
        <ele>1467</ele>
        <time>2026-05-14T12:28:22.999Z</time>
      </trkpt>
      <trkpt lat="44.18479" lon="5.27533">
        <ele>1466.7</ele>
        <time>2026-05-14T12:28:23.999Z</time>
      </trkpt>
      <trkpt lat="44.18478" lon="5.27533">
        <ele>1466.6</ele>
        <time>2026-05-14T12:28:24.999Z</time>
      </trkpt>
      <trkpt lat="44.18478" lon="5.27533">
        <ele>1466.3</ele>
        <time>2026-05-14T12:28:25.999Z</time>
      </trkpt>
      <trkpt lat="44.18478" lon="5.27533">
        <ele>1466.1</ele>
        <time>2026-05-14T12:28:26.999Z</time>
      </trkpt>
      <trkpt lat="44.18478" lon="5.27533">
        <ele>1465.9</ele>
        <time>2026-05-14T12:28:27.999Z</time>
      </trkpt>
      <trkpt lat="44.18478" lon="5.27533">
        <ele>1465.7</ele>
        <time>2026-05-14T12:28:28.999Z</time>
      </trkpt>
      <trkpt lat="44.18478" lon="5.27533">
        <ele>1465.7</ele>
        <time>2026-05-14T12:28:29.999Z</time>
      </trkpt>
      <trkpt lat="44.18478" lon="5.27533">
        <ele>1465.7</ele>
        <time>2026-05-14T12:28:30.999Z</time>
      </trkpt>
      <trkpt lat="44.18478" lon="5.27533">
        <ele>1465.9</ele>
        <time>2026-05-14T12:28:31.999Z</time>
      </trkpt>
      <trkpt lat="44.18478" lon="5.27533">
        <ele>1465.7</ele>
        <time>2026-05-14T12:28:32.999Z</time>
      </trkpt>
      <trkpt lat="44.18478" lon="5.27533">
        <ele>1465.6</ele>
        <time>2026-05-14T12:28:33.999Z</time>
      </trkpt>
      <trkpt lat="44.18478" lon="5.27533">
        <ele>1465.9</ele>
        <time>2026-05-14T12:28:34.999Z</time>
      </trkpt>
      <trkpt lat="44.18478" lon="5.27533">
        <ele>1466</ele>
        <time>2026-05-14T12:28:35.999Z</time>
      </trkpt>
      <trkpt lat="44.18478" lon="5.27533">
        <ele>1466</ele>
        <time>2026-05-14T12:28:36.999Z</time>
      </trkpt>
      <trkpt lat="44.18478" lon="5.27533">
        <ele>1466</ele>
        <time>2026-05-14T12:28:37.999Z</time>
      </trkpt>
      <trkpt lat="44.18478" lon="5.27533">
        <ele>1466.2</ele>
        <time>2026-05-14T12:28:38.999Z</time>
      </trkpt>
      <trkpt lat="44.18478" lon="5.27533">
        <ele>1466.3</ele>
        <time>2026-05-14T12:28:39.999Z</time>
      </trkpt>
      <trkpt lat="44.18478" lon="5.27533">
        <ele>1466.4</ele>
        <time>2026-05-14T12:28:40.999Z</time>
      </trkpt>
      <trkpt lat="44.18478" lon="5.27533">
        <ele>1466.7</ele>
        <time>2026-05-14T12:28:41.999Z</time>
      </trkpt>
      <trkpt lat="44.18478" lon="5.27533">
        <ele>1467.2</ele>
        <time>2026-05-14T12:28:42.999Z</time>
      </trkpt>
      <trkpt lat="44.18478" lon="5.27533">
        <ele>1467.4</ele>
        <time>2026-05-14T12:28:43.999Z</time>
      </trkpt>
      <trkpt lat="44.18478" lon="5.27532">
        <ele>1467.7</ele>
        <time>2026-05-14T12:28:44.999Z</time>
      </trkpt>
      <trkpt lat="44.18478" lon="5.27533">
        <ele>1468</ele>
        <time>2026-05-14T12:28:45.999Z</time>
      </trkpt>
      <trkpt lat="44.18478" lon="5.27533">
        <ele>1468.7</ele>
        <time>2026-05-14T12:28:46.999Z</time>
      </trkpt>
      <trkpt lat="44.18478" lon="5.27533">
        <ele>1469.2</ele>
        <time>2026-05-14T12:28:47.999Z</time>
      </trkpt>
      <trkpt lat="44.18478" lon="5.27533">
        <ele>1469.6</ele>
        <time>2026-05-14T12:28:48.999Z</time>
      </trkpt>
      <trkpt lat="44.18478" lon="5.27533">
        <ele>1469.9</ele>
        <time>2026-05-14T12:28:49.999Z</time>
      </trkpt>
      <trkpt lat="44.18478" lon="5.27533">
        <ele>1470.1</ele>
        <time>2026-05-14T12:28:50.999Z</time>
      </trkpt>
      <trkpt lat="44.18478" lon="5.27533">
        <ele>1470.2</ele>
        <time>2026-05-14T12:28:51.999Z</time>
      </trkpt>
      <trkpt lat="44.18477" lon="5.27532">
        <ele>1470.2</ele>
        <time>2026-05-14T12:28:52.999Z</time>
      </trkpt>
      <trkpt lat="44.18477" lon="5.27532">
        <ele>1470.4</ele>
        <time>2026-05-14T12:28:53.999Z</time>
      </trkpt>
      <trkpt lat="44.18477" lon="5.27532">
        <ele>1470.3</ele>
        <time>2026-05-14T12:28:54.999Z</time>
      </trkpt>
      <trkpt lat="44.18477" lon="5.27532">
        <ele>1470.3</ele>
        <time>2026-05-14T12:28:55.999Z</time>
      </trkpt>
      <trkpt lat="44.18477" lon="5.27532">
        <ele>1470.4</ele>
        <time>2026-05-14T12:28:56.999Z</time>
      </trkpt>
      <trkpt lat="44.18477" lon="5.27532">
        <ele>1470.5</ele>
        <time>2026-05-14T12:28:57.999Z</time>
      </trkpt>
      <trkpt lat="44.18477" lon="5.27532">
        <ele>1470.5</ele>
        <time>2026-05-14T12:28:58.999Z</time>
      </trkpt>
      <trkpt lat="44.18477" lon="5.27532">
        <ele>1470.8</ele>
        <time>2026-05-14T12:28:59.999Z</time>
      </trkpt>
      <trkpt lat="44.18477" lon="5.27532">
        <ele>1470.9</ele>
        <time>2026-05-14T12:29:00.999Z</time>
      </trkpt>
      <trkpt lat="44.18477" lon="5.27532">
        <ele>1471</ele>
        <time>2026-05-14T12:29:01.999Z</time>
      </trkpt>
      <trkpt lat="44.18477" lon="5.27532">
        <ele>1471</ele>
        <time>2026-05-14T12:29:02.999Z</time>
      </trkpt>
      <trkpt lat="44.18477" lon="5.27532">
        <ele>1471</ele>
        <time>2026-05-14T12:29:03.999Z</time>
      </trkpt>
      <trkpt lat="44.18477" lon="5.27532">
        <ele>1470.9</ele>
        <time>2026-05-14T12:29:04.999Z</time>
      </trkpt>
      <trkpt lat="44.18477" lon="5.27532">
        <ele>1470.9</ele>
        <time>2026-05-14T12:29:05.999Z</time>
      </trkpt>
      <trkpt lat="44.18477" lon="5.27532">
        <ele>1471</ele>
        <time>2026-05-14T12:29:06.999Z</time>
      </trkpt>
      <trkpt lat="44.18477" lon="5.27533">
        <ele>1471</ele>
        <time>2026-05-14T12:29:07.999Z</time>
      </trkpt>
      <trkpt lat="44.18477" lon="5.27533">
        <ele>1471.3</ele>
        <time>2026-05-14T12:29:08.999Z</time>
      </trkpt>
      <trkpt lat="44.18477" lon="5.27533">
        <ele>1471.6</ele>
        <time>2026-05-14T12:29:09.999Z</time>
      </trkpt>
      <trkpt lat="44.18476" lon="5.27533">
        <ele>1471.6</ele>
        <time>2026-05-14T12:29:10.999Z</time>
      </trkpt>
      <trkpt lat="44.18476" lon="5.27533">
        <ele>1471.7</ele>
        <time>2026-05-14T12:29:11.999Z</time>
      </trkpt>
      <trkpt lat="44.18476" lon="5.27533">
        <ele>1471.6</ele>
        <time>2026-05-14T12:29:12.999Z</time>
      </trkpt>
      <trkpt lat="44.18476" lon="5.27533">
        <ele>1471.5</ele>
        <time>2026-05-14T12:29:13.999Z</time>
      </trkpt>
      <trkpt lat="44.18476" lon="5.27533">
        <ele>1471.5</ele>
        <time>2026-05-14T12:29:14.999Z</time>
      </trkpt>
      <trkpt lat="44.18476" lon="5.27533">
        <ele>1471.6</ele>
        <time>2026-05-14T12:29:15.999Z</time>
      </trkpt>
      <trkpt lat="44.18476" lon="5.27533">
        <ele>1471.5</ele>
        <time>2026-05-14T12:29:16.999Z</time>
      </trkpt>
      <trkpt lat="44.18476" lon="5.27533">
        <ele>1471.2</ele>
        <time>2026-05-14T12:29:17.999Z</time>
      </trkpt>
      <trkpt lat="44.18476" lon="5.27533">
        <ele>1471</ele>
        <time>2026-05-14T12:29:18.999Z</time>
      </trkpt>
      <trkpt lat="44.18476" lon="5.27533">
        <ele>1470.7</ele>
        <time>2026-05-14T12:29:19.999Z</time>
      </trkpt>
      <trkpt lat="44.18476" lon="5.27533">
        <ele>1470.2</ele>
        <time>2026-05-14T12:29:20.999Z</time>
      </trkpt>
      <trkpt lat="44.18476" lon="5.27533">
        <ele>1470</ele>
        <time>2026-05-14T12:29:21.999Z</time>
      </trkpt>
      <trkpt lat="44.18475" lon="5.27534">
        <ele>1469.9</ele>
        <time>2026-05-14T12:29:22.999Z</time>
      </trkpt>
      <trkpt lat="44.18475" lon="5.27535">
        <ele>1469.8</ele>
        <time>2026-05-14T12:29:23.999Z</time>
      </trkpt>
      <trkpt lat="44.18475" lon="5.27535">
        <ele>1469.7</ele>
        <time>2026-05-14T12:29:25.999Z</time>
      </trkpt>
      <trkpt lat="44.18475" lon="5.27535">
        <ele>1469.3</ele>
        <time>2026-05-14T12:29:26.999Z</time>
      </trkpt>
      <trkpt lat="44.18475" lon="5.27535">
        <ele>1469.1</ele>
        <time>2026-05-14T12:29:27.999Z</time>
      </trkpt>
      <trkpt lat="44.18475" lon="5.27535">
        <ele>1468.9</ele>
        <time>2026-05-14T12:29:28.999Z</time>
      </trkpt>
      <trkpt lat="44.18475" lon="5.27533">
        <ele>1469</ele>
        <time>2026-05-14T12:29:29.999Z</time>
      </trkpt>
      <trkpt lat="44.18475" lon="5.27532">
        <ele>1468.9</ele>
        <time>2026-05-14T12:29:30.999Z</time>
      </trkpt>
      <trkpt lat="44.18475" lon="5.27533">
        <ele>1468.3</ele>
        <time>2026-05-14T12:29:31.999Z</time>
      </trkpt>
      <trkpt lat="44.18475" lon="5.27533">
        <ele>1468.1</ele>
        <time>2026-05-14T12:29:32.999Z</time>
      </trkpt>
      <trkpt lat="44.18475" lon="5.27533">
        <ele>1467.9</ele>
        <time>2026-05-14T12:29:33.999Z</time>
      </trkpt>
      <trkpt lat="44.18475" lon="5.27533">
        <ele>1467.8</ele>
        <time>2026-05-14T12:29:34.999Z</time>
      </trkpt>
      <trkpt lat="44.18475" lon="5.27533">
        <ele>1467.6</ele>
        <time>2026-05-14T12:29:35.999Z</time>
      </trkpt>
      <trkpt lat="44.18476" lon="5.27533">
        <ele>1467.6</ele>
        <time>2026-05-14T12:29:36.999Z</time>
      </trkpt>
      <trkpt lat="44.18476" lon="5.27533">
        <ele>1467.6</ele>
        <time>2026-05-14T12:29:37.999Z</time>
      </trkpt>
      <trkpt lat="44.18476" lon="5.27533">
        <ele>1467.6</ele>
        <time>2026-05-14T12:29:38.999Z</time>
      </trkpt>
      <trkpt lat="44.18476" lon="5.27533">
        <ele>1467.5</ele>
        <time>2026-05-14T12:29:39.999Z</time>
      </trkpt>
      <trkpt lat="44.18476" lon="5.27533">
        <ele>1467.2</ele>
        <time>2026-05-14T12:29:40.999Z</time>
      </trkpt>
      <trkpt lat="44.18476" lon="5.27533">
        <ele>1467.1</ele>
        <time>2026-05-14T12:29:41.999Z</time>
      </trkpt>
      <trkpt lat="44.18476" lon="5.27533">
        <ele>1467.2</ele>
        <time>2026-05-14T12:29:42.999Z</time>
      </trkpt>
      <trkpt lat="44.18476" lon="5.27533">
        <ele>1467.3</ele>
        <time>2026-05-14T12:29:43.999Z</time>
      </trkpt>
      <trkpt lat="44.18476" lon="5.27533">
        <ele>1467.5</ele>
        <time>2026-05-14T12:29:44.999Z</time>
      </trkpt>
      <trkpt lat="44.18476" lon="5.27533">
        <ele>1467.8</ele>
        <time>2026-05-14T12:29:45.999Z</time>
      </trkpt>
      <trkpt lat="44.18476" lon="5.27533">
        <ele>1468</ele>
        <time>2026-05-14T12:29:46.999Z</time>
      </trkpt>
      <trkpt lat="44.18476" lon="5.27534">
        <ele>1468.3</ele>
        <time>2026-05-14T12:29:47.999Z</time>
      </trkpt>
      <trkpt lat="44.18476" lon="5.27534">
        <ele>1468.5</ele>
        <time>2026-05-14T12:29:48.999Z</time>
      </trkpt>
      <trkpt lat="44.18476" lon="5.27534">
        <ele>1468.3</ele>
        <time>2026-05-14T12:29:49.999Z</time>
      </trkpt>
      <trkpt lat="44.18476" lon="5.27534">
        <ele>1468.2</ele>
        <time>2026-05-14T12:29:50.999Z</time>
      </trkpt>
      <trkpt lat="44.18476" lon="5.27534">
        <ele>1468</ele>
        <time>2026-05-14T12:29:51.999Z</time>
      </trkpt>
      <trkpt lat="44.18476" lon="5.27534">
        <ele>1467.8</ele>
        <time>2026-05-14T12:29:52.999Z</time>
      </trkpt>
      <trkpt lat="44.18476" lon="5.27534">
        <ele>1467.7</ele>
        <time>2026-05-14T12:29:53.999Z</time>
      </trkpt>
      <trkpt lat="44.18476" lon="5.27534">
        <ele>1467.8</ele>
        <time>2026-05-14T12:29:54.999Z</time>
      </trkpt>
      <trkpt lat="44.18477" lon="5.27534">
        <ele>1467.6</ele>
        <time>2026-05-14T12:29:55.999Z</time>
      </trkpt>
      <trkpt lat="44.18477" lon="5.27535">
        <ele>1467.5</ele>
        <time>2026-05-14T12:29:56.999Z</time>
      </trkpt>
      <trkpt lat="44.18477" lon="5.27535">
        <ele>1467.7</ele>
        <time>2026-05-14T12:29:57.999Z</time>
      </trkpt>
      <trkpt lat="44.18477" lon="5.27535">
        <ele>1468.2</ele>
        <time>2026-05-14T12:29:58.999Z</time>
      </trkpt>
      <trkpt lat="44.18478" lon="5.27535">
        <ele>1468.4</ele>
        <time>2026-05-14T12:29:59.999Z</time>
      </trkpt>
      <trkpt lat="44.18478" lon="5.27534">
        <ele>1468.5</ele>
        <time>2026-05-14T12:30:00.999Z</time>
      </trkpt>
      <trkpt lat="44.18478" lon="5.27534">
        <ele>1468.8</ele>
        <time>2026-05-14T12:30:01.999Z</time>
      </trkpt>
      <trkpt lat="44.18479" lon="5.27534">
        <ele>1468.9</ele>
        <time>2026-05-14T12:30:02.999Z</time>
      </trkpt>
      <trkpt lat="44.18478" lon="5.27534">
        <ele>1468.9</ele>
        <time>2026-05-14T12:30:03.999Z</time>
      </trkpt>
      <trkpt lat="44.18478" lon="5.27534">
        <ele>1468.8</ele>
        <time>2026-05-14T12:30:04.999Z</time>
      </trkpt>
      <trkpt lat="44.18478" lon="5.27534">
        <ele>1468.8</ele>
        <time>2026-05-14T12:30:05.999Z</time>
      </trkpt>
      <trkpt lat="44.18477" lon="5.27534">
        <ele>1468.9</ele>
        <time>2026-05-14T12:30:06.999Z</time>
      </trkpt>
      <trkpt lat="44.18477" lon="5.27534">
        <ele>1468.6</ele>
        <time>2026-05-14T12:30:07.999Z</time>
      </trkpt>
      <trkpt lat="44.18475" lon="5.27534">
        <ele>1468.3</ele>
        <time>2026-05-14T12:30:08.999Z</time>
      </trkpt>
      <trkpt lat="44.18475" lon="5.27534">
        <ele>1468.3</ele>
        <time>2026-05-14T12:30:09.999Z</time>
      </trkpt>
      <trkpt lat="44.18475" lon="5.27534">
        <ele>1468</ele>
        <time>2026-05-14T12:30:10.999Z</time>
      </trkpt>
      <trkpt lat="44.18475" lon="5.27534">
        <ele>1468</ele>
        <time>2026-05-14T12:30:11.999Z</time>
      </trkpt>
      <trkpt lat="44.18475" lon="5.27534">
        <ele>1468.1</ele>
        <time>2026-05-14T12:30:13.000Z</time>
      </trkpt>
      <trkpt lat="44.18475" lon="5.27533">
        <ele>1468.3</ele>
        <time>2026-05-14T12:30:14.000Z</time>
      </trkpt>
      <trkpt lat="44.18475" lon="5.27533">
        <ele>1468.5</ele>
        <time>2026-05-14T12:30:15.000Z</time>
      </trkpt>
      <trkpt lat="44.18475" lon="5.27533">
        <ele>1468.6</ele>
        <time>2026-05-14T12:30:16.000Z</time>
      </trkpt>
      <trkpt lat="44.18475" lon="5.27533">
        <ele>1469</ele>
        <time>2026-05-14T12:30:17.000Z</time>
      </trkpt>
      <trkpt lat="44.18475" lon="5.27533">
        <ele>1468.9</ele>
        <time>2026-05-14T12:30:18.000Z</time>
      </trkpt>
      <trkpt lat="44.18475" lon="5.27533">
        <ele>1468.9</ele>
        <time>2026-05-14T12:30:19.000Z</time>
      </trkpt>
      <trkpt lat="44.18475" lon="5.27533">
        <ele>1468.5</ele>
        <time>2026-05-14T12:30:20.000Z</time>
      </trkpt>
      <trkpt lat="44.18475" lon="5.27533">
        <ele>1468.5</ele>
        <time>2026-05-14T12:30:21.000Z</time>
      </trkpt>
      <trkpt lat="44.18475" lon="5.27533">
        <ele>1468.6</ele>
        <time>2026-05-14T12:30:22.000Z</time>
      </trkpt>
      <trkpt lat="44.18475" lon="5.27533">
        <ele>1468.6</ele>
        <time>2026-05-14T12:30:23.000Z</time>
      </trkpt>
      <trkpt lat="44.18476" lon="5.27533">
        <ele>1468.5</ele>
        <time>2026-05-14T12:30:24.000Z</time>
      </trkpt>
      <trkpt lat="44.18476" lon="5.27533">
        <ele>1468.4</ele>
        <time>2026-05-14T12:30:25.000Z</time>
      </trkpt>
      <trkpt lat="44.18476" lon="5.27533">
        <ele>1468.4</ele>
        <time>2026-05-14T12:30:26.000Z</time>
      </trkpt>
      <trkpt lat="44.18477" lon="5.27533">
        <ele>1468.4</ele>
        <time>2026-05-14T12:30:27.000Z</time>
      </trkpt>
      <trkpt lat="44.18477" lon="5.27533">
        <ele>1468.2</ele>
        <time>2026-05-14T12:30:28.000Z</time>
      </trkpt>
      <trkpt lat="44.18477" lon="5.27533">
        <ele>1468.4</ele>
        <time>2026-05-14T12:30:29.000Z</time>
      </trkpt>
      <trkpt lat="44.18477" lon="5.27533">
        <ele>1468.3</ele>
        <time>2026-05-14T12:30:30.000Z</time>
      </trkpt>
      <trkpt lat="44.18477" lon="5.27533">
        <ele>1468.3</ele>
        <time>2026-05-14T12:30:31.000Z</time>
      </trkpt>
      <trkpt lat="44.18477" lon="5.27533">
        <ele>1468.1</ele>
        <time>2026-05-14T12:30:32.000Z</time>
      </trkpt>
      <trkpt lat="44.18477" lon="5.27533">
        <ele>1468</ele>
        <time>2026-05-14T12:30:33.000Z</time>
      </trkpt>
      <trkpt lat="44.18477" lon="5.27534">
        <ele>1468</ele>
        <time>2026-05-14T12:30:34.000Z</time>
      </trkpt>
      <trkpt lat="44.18476" lon="5.27534">
        <ele>1467.9</ele>
        <time>2026-05-14T12:30:35.000Z</time>
      </trkpt>
      <trkpt lat="44.18476" lon="5.27534">
        <ele>1467.8</ele>
        <time>2026-05-14T12:30:36.000Z</time>
      </trkpt>
      <trkpt lat="44.18476" lon="5.27534">
        <ele>1467.9</ele>
        <time>2026-05-14T12:30:37.000Z</time>
      </trkpt>
      <trkpt lat="44.18476" lon="5.27534">
        <ele>1468.1</ele>
        <time>2026-05-14T12:30:38.000Z</time>
      </trkpt>
      <trkpt lat="44.18476" lon="5.27534">
        <ele>1468.3</ele>
        <time>2026-05-14T12:30:39.000Z</time>
      </trkpt>
      <trkpt lat="44.18476" lon="5.27534">
        <ele>1468.3</ele>
        <time>2026-05-14T12:30:40.000Z</time>
      </trkpt>
      <trkpt lat="44.18476" lon="5.27533">
        <ele>1468.2</ele>
        <time>2026-05-14T12:30:41.000Z</time>
      </trkpt>
      <trkpt lat="44.18476" lon="5.27533">
        <ele>1468.3</ele>
        <time>2026-05-14T12:30:42.000Z</time>
      </trkpt>
      <trkpt lat="44.18476" lon="5.27533">
        <ele>1468.1</ele>
        <time>2026-05-14T12:30:43.000Z</time>
      </trkpt>
      <trkpt lat="44.18476" lon="5.27533">
        <ele>1467.9</ele>
        <time>2026-05-14T12:30:44.000Z</time>
      </trkpt>
      <trkpt lat="44.18476" lon="5.27533">
        <ele>1467.7</ele>
        <time>2026-05-14T12:30:45.000Z</time>
      </trkpt>
      <trkpt lat="44.18476" lon="5.27532">
        <ele>1467.8</ele>
        <time>2026-05-14T12:30:46.000Z</time>
      </trkpt>
      <trkpt lat="44.18476" lon="5.27532">
        <ele>1468.3</ele>
        <time>2026-05-14T12:30:47.000Z</time>
      </trkpt>
      <trkpt lat="44.18476" lon="5.27532">
        <ele>1468.5</ele>
        <time>2026-05-14T12:30:48.000Z</time>
      </trkpt>
      <trkpt lat="44.18476" lon="5.27532">
        <ele>1468.6</ele>
        <time>2026-05-14T12:30:49.000Z</time>
      </trkpt>
      <trkpt lat="44.18476" lon="5.27532">
        <ele>1468.5</ele>
        <time>2026-05-14T12:30:50.000Z</time>
      </trkpt>
      <trkpt lat="44.18476" lon="5.27532">
        <ele>1468.6</ele>
        <time>2026-05-14T12:30:51.000Z</time>
      </trkpt>
      <trkpt lat="44.18476" lon="5.27532">
        <ele>1468.6</ele>
        <time>2026-05-14T12:30:52.000Z</time>
      </trkpt>
      <trkpt lat="44.18476" lon="5.27532">
        <ele>1468.9</ele>
        <time>2026-05-14T12:30:53.000Z</time>
      </trkpt>
      <trkpt lat="44.18476" lon="5.27532">
        <ele>1469.3</ele>
        <time>2026-05-14T12:30:54.000Z</time>
      </trkpt>
      <trkpt lat="44.18476" lon="5.27532">
        <ele>1469.5</ele>
        <time>2026-05-14T12:30:55.000Z</time>
      </trkpt>
      <trkpt lat="44.18476" lon="5.27532">
        <ele>1469.8</ele>
        <time>2026-05-14T12:30:56.000Z</time>
      </trkpt>
      <trkpt lat="44.18476" lon="5.27532">
        <ele>1470</ele>
        <time>2026-05-14T12:30:57.000Z</time>
      </trkpt>
      <trkpt lat="44.18476" lon="5.27532">
        <ele>1470.2</ele>
        <time>2026-05-14T12:30:58.000Z</time>
      </trkpt>
      <trkpt lat="44.18476" lon="5.27532">
        <ele>1470.1</ele>
        <time>2026-05-14T12:30:59.000Z</time>
      </trkpt>
      <trkpt lat="44.18476" lon="5.27532">
        <ele>1469.8</ele>
        <time>2026-05-14T12:31:00.000Z</time>
      </trkpt>
      <trkpt lat="44.18476" lon="5.27532">
        <ele>1469.7</ele>
        <time>2026-05-14T12:31:01.000Z</time>
      </trkpt>
      <trkpt lat="44.18476" lon="5.27532">
        <ele>1469.7</ele>
        <time>2026-05-14T12:31:02.000Z</time>
      </trkpt>
      <trkpt lat="44.18476" lon="5.27532">
        <ele>1469.6</ele>
        <time>2026-05-14T12:31:03.000Z</time>
      </trkpt>
      <trkpt lat="44.18476" lon="5.27532">
        <ele>1469.4</ele>
        <time>2026-05-14T12:31:04.000Z</time>
      </trkpt>
      <trkpt lat="44.18476" lon="5.27532">
        <ele>1469.5</ele>
        <time>2026-05-14T12:31:05.000Z</time>
      </trkpt>
      <trkpt lat="44.18476" lon="5.27532">
        <ele>1469.5</ele>
        <time>2026-05-14T12:31:06.000Z</time>
      </trkpt>
      <trkpt lat="44.18476" lon="5.27532">
        <ele>1469.3</ele>
        <time>2026-05-14T12:31:07.000Z</time>
      </trkpt>
      <trkpt lat="44.18476" lon="5.27532">
        <ele>1468.6</ele>
        <time>2026-05-14T12:31:09.000Z</time>
      </trkpt>
      <trkpt lat="44.18476" lon="5.27532">
        <ele>1468.2</ele>
        <time>2026-05-14T12:31:10.000Z</time>
      </trkpt>
      <trkpt lat="44.18476" lon="5.27532">
        <ele>1468.2</ele>
        <time>2026-05-14T12:31:11.000Z</time>
      </trkpt>
      <trkpt lat="44.18476" lon="5.27532">
        <ele>1468.2</ele>
        <time>2026-05-14T12:31:12.000Z</time>
      </trkpt>
      <trkpt lat="44.18476" lon="5.27532">
        <ele>1468.1</ele>
        <time>2026-05-14T12:31:13.000Z</time>
      </trkpt>
      <trkpt lat="44.18476" lon="5.27531">
        <ele>1467.9</ele>
        <time>2026-05-14T12:31:14.000Z</time>
      </trkpt>
      <trkpt lat="44.18476" lon="5.27531">
        <ele>1467.7</ele>
        <time>2026-05-14T12:31:15.000Z</time>
      </trkpt>
      <trkpt lat="44.18476" lon="5.27531">
        <ele>1467.7</ele>
        <time>2026-05-14T12:31:16.000Z</time>
      </trkpt>
      <trkpt lat="44.18476" lon="5.27531">
        <ele>1467.8</ele>
        <time>2026-05-14T12:31:17.000Z</time>
      </trkpt>
      <trkpt lat="44.18476" lon="5.27531">
        <ele>1467.8</ele>
        <time>2026-05-14T12:31:18.000Z</time>
      </trkpt>
      <trkpt lat="44.18476" lon="5.27531">
        <ele>1467.8</ele>
        <time>2026-05-14T12:31:19.000Z</time>
      </trkpt>
      <trkpt lat="44.18476" lon="5.27531">
        <ele>1468</ele>
        <time>2026-05-14T12:31:20.000Z</time>
      </trkpt>
      <trkpt lat="44.18476" lon="5.27531">
        <ele>1468.3</ele>
        <time>2026-05-14T12:31:22.000Z</time>
      </trkpt>
      <trkpt lat="44.18476" lon="5.27531">
        <ele>1468.3</ele>
        <time>2026-05-14T12:31:23.000Z</time>
      </trkpt>
      <trkpt lat="44.18476" lon="5.27531">
        <ele>1468.2</ele>
        <time>2026-05-14T12:31:24.000Z</time>
      </trkpt>
      <trkpt lat="44.18476" lon="5.27531">
        <ele>1468.3</ele>
        <time>2026-05-14T12:31:25.000Z</time>
      </trkpt>
      <trkpt lat="44.18476" lon="5.27531">
        <ele>1468.4</ele>
        <time>2026-05-14T12:31:26.000Z</time>
      </trkpt>
      <trkpt lat="44.18476" lon="5.27531">
        <ele>1468.4</ele>
        <time>2026-05-14T12:31:27.000Z</time>
      </trkpt>
      <trkpt lat="44.18476" lon="5.27531">
        <ele>1468.4</ele>
        <time>2026-05-14T12:31:28.000Z</time>
      </trkpt>
      <trkpt lat="44.18476" lon="5.27531">
        <ele>1468.2</ele>
        <time>2026-05-14T12:31:29.000Z</time>
      </trkpt>
      <trkpt lat="44.18476" lon="5.27531">
        <ele>1468</ele>
        <time>2026-05-14T12:31:30.000Z</time>
      </trkpt>
      <trkpt lat="44.18477" lon="5.2753">
        <ele>1467.8</ele>
        <time>2026-05-14T12:31:31.000Z</time>
      </trkpt>
      <trkpt lat="44.18478" lon="5.2753">
        <ele>1467.7</ele>
        <time>2026-05-14T12:31:32.000Z</time>
      </trkpt>
      <trkpt lat="44.18478" lon="5.2753">
        <ele>1467.6</ele>
        <time>2026-05-14T12:31:33.000Z</time>
      </trkpt>
      <trkpt lat="44.18478" lon="5.2753">
        <ele>1467.3</ele>
        <time>2026-05-14T12:31:34.000Z</time>
      </trkpt>
      <trkpt lat="44.18478" lon="5.2753">
        <ele>1467.2</ele>
        <time>2026-05-14T12:31:35.000Z</time>
      </trkpt>
      <trkpt lat="44.18479" lon="5.2753">
        <ele>1467.1</ele>
        <time>2026-05-14T12:31:36.000Z</time>
      </trkpt>
      <trkpt lat="44.18478" lon="5.2753">
        <ele>1466.7</ele>
        <time>2026-05-14T12:31:37.000Z</time>
      </trkpt>
      <trkpt lat="44.18478" lon="5.2753">
        <ele>1466.6</ele>
        <time>2026-05-14T12:31:38.000Z</time>
      </trkpt>
      <trkpt lat="44.18479" lon="5.2753">
        <ele>1466.8</ele>
        <time>2026-05-14T12:31:39.000Z</time>
      </trkpt>
      <trkpt lat="44.18479" lon="5.2753">
        <ele>1466.7</ele>
        <time>2026-05-14T12:31:40.000Z</time>
      </trkpt>
      <trkpt lat="44.18478" lon="5.2753">
        <ele>1466.5</ele>
        <time>2026-05-14T12:31:41.000Z</time>
      </trkpt>
      <trkpt lat="44.18478" lon="5.2753">
        <ele>1466.1</ele>
        <time>2026-05-14T12:31:42.000Z</time>
      </trkpt>
      <trkpt lat="44.18478" lon="5.2753">
        <ele>1466.1</ele>
        <time>2026-05-14T12:31:43.000Z</time>
      </trkpt>
      <trkpt lat="44.18477" lon="5.2753">
        <ele>1466.2</ele>
        <time>2026-05-14T12:31:44.000Z</time>
      </trkpt>
      <trkpt lat="44.18476" lon="5.2753">
        <ele>1466.1</ele>
        <time>2026-05-14T12:31:45.000Z</time>
      </trkpt>
      <trkpt lat="44.18476" lon="5.2753">
        <ele>1466</ele>
        <time>2026-05-14T12:31:46.000Z</time>
      </trkpt>
      <trkpt lat="44.18476" lon="5.27529">
        <ele>1465.8</ele>
        <time>2026-05-14T12:31:47.000Z</time>
      </trkpt>
      <trkpt lat="44.18476" lon="5.27529">
        <ele>1465.6</ele>
        <time>2026-05-14T12:31:48.000Z</time>
      </trkpt>
      <trkpt lat="44.18476" lon="5.27529">
        <ele>1464.9</ele>
        <time>2026-05-14T12:31:50.000Z</time>
      </trkpt>
      <trkpt lat="44.18476" lon="5.27529">
        <ele>1464.9</ele>
        <time>2026-05-14T12:31:51.000Z</time>
      </trkpt>
      <trkpt lat="44.18477" lon="5.27529">
        <ele>1464.9</ele>
        <time>2026-05-14T12:31:52.000Z</time>
      </trkpt>
      <trkpt lat="44.18477" lon="5.27529">
        <ele>1464.8</ele>
        <time>2026-05-14T12:31:53.000Z</time>
      </trkpt>
      <trkpt lat="44.18477" lon="5.27529">
        <ele>1464.7</ele>
        <time>2026-05-14T12:31:54.000Z</time>
      </trkpt>
      <trkpt lat="44.18477" lon="5.27529">
        <ele>1464.5</ele>
        <time>2026-05-14T12:31:55.000Z</time>
      </trkpt>
      <trkpt lat="44.18477" lon="5.27529">
        <ele>1464.6</ele>
        <time>2026-05-14T12:31:56.000Z</time>
      </trkpt>
      <trkpt lat="44.18477" lon="5.27529">
        <ele>1464.5</ele>
        <time>2026-05-14T12:31:57.000Z</time>
      </trkpt>
      <trkpt lat="44.18477" lon="5.27529">
        <ele>1464.6</ele>
        <time>2026-05-14T12:31:58.000Z</time>
      </trkpt>
      <trkpt lat="44.18477" lon="5.27529">
        <ele>1464.6</ele>
        <time>2026-05-14T12:31:59.000Z</time>
      </trkpt>
      <trkpt lat="44.18477" lon="5.27529">
        <ele>1464.5</ele>
        <time>2026-05-14T12:32:00.000Z</time>
      </trkpt>
      <trkpt lat="44.18477" lon="5.27529">
        <ele>1464.5</ele>
        <time>2026-05-14T12:32:01.000Z</time>
      </trkpt>
      <trkpt lat="44.18477" lon="5.27529">
        <ele>1464.6</ele>
        <time>2026-05-14T12:32:02.000Z</time>
      </trkpt>
      <trkpt lat="44.18477" lon="5.27529">
        <ele>1464.5</ele>
        <time>2026-05-14T12:32:03.000Z</time>
      </trkpt>
      <trkpt lat="44.18477" lon="5.27529">
        <ele>1464.4</ele>
        <time>2026-05-14T12:32:04.000Z</time>
      </trkpt>
      <trkpt lat="44.18477" lon="5.27529">
        <ele>1464.5</ele>
        <time>2026-05-14T12:32:05.000Z</time>
      </trkpt>
      <trkpt lat="44.18477" lon="5.27529">
        <ele>1464.4</ele>
        <time>2026-05-14T12:32:06.000Z</time>
      </trkpt>
      <trkpt lat="44.18477" lon="5.27529">
        <ele>1464.4</ele>
        <time>2026-05-14T12:32:07.000Z</time>
      </trkpt>
      <trkpt lat="44.18477" lon="5.27529">
        <ele>1464.4</ele>
        <time>2026-05-14T12:32:08.000Z</time>
      </trkpt>
      <trkpt lat="44.18477" lon="5.27529">
        <ele>1464.4</ele>
        <time>2026-05-14T12:32:09.000Z</time>
      </trkpt>
      <trkpt lat="44.18477" lon="5.27529">
        <ele>1464.4</ele>
        <time>2026-05-14T12:32:10.000Z</time>
      </trkpt>
      <trkpt lat="44.18477" lon="5.27529">
        <ele>1464.6</ele>
        <time>2026-05-14T12:32:11.000Z</time>
      </trkpt>
      <trkpt lat="44.18477" lon="5.27529">
        <ele>1464.5</ele>
        <time>2026-05-14T12:32:12.000Z</time>
      </trkpt>
      <trkpt lat="44.18477" lon="5.27529">
        <ele>1464.4</ele>
        <time>2026-05-14T12:32:13.000Z</time>
      </trkpt>
      <trkpt lat="44.18477" lon="5.27529">
        <ele>1464.2</ele>
        <time>2026-05-14T12:32:14.000Z</time>
      </trkpt>
      <trkpt lat="44.18477" lon="5.27529">
        <ele>1464.2</ele>
        <time>2026-05-14T12:32:15.000Z</time>
      </trkpt>
      <trkpt lat="44.18477" lon="5.27529">
        <ele>1464.3</ele>
        <time>2026-05-14T12:32:16.000Z</time>
      </trkpt>
      <trkpt lat="44.18477" lon="5.27529">
        <ele>1464.1</ele>
        <time>2026-05-14T12:32:17.000Z</time>
      </trkpt>
      <trkpt lat="44.18476" lon="5.27529">
        <ele>1464</ele>
        <time>2026-05-14T12:32:18.000Z</time>
      </trkpt>
      <trkpt lat="44.18476" lon="5.27529">
        <ele>1463.9</ele>
        <time>2026-05-14T12:32:19.000Z</time>
      </trkpt>
      <trkpt lat="44.18476" lon="5.27529">
        <ele>1464</ele>
        <time>2026-05-14T12:32:20.000Z</time>
      </trkpt>
      <trkpt lat="44.18476" lon="5.27529">
        <ele>1464.2</ele>
        <time>2026-05-14T12:32:21.000Z</time>
      </trkpt>
      <trkpt lat="44.18476" lon="5.27529">
        <ele>1464.1</ele>
        <time>2026-05-14T12:32:22.000Z</time>
      </trkpt>
      <trkpt lat="44.18476" lon="5.27529">
        <ele>1464.2</ele>
        <time>2026-05-14T12:32:23.000Z</time>
      </trkpt>
      <trkpt lat="44.18476" lon="5.27529">
        <ele>1464.1</ele>
        <time>2026-05-14T12:32:24.000Z</time>
      </trkpt>
      <trkpt lat="44.18476" lon="5.27529">
        <ele>1464.3</ele>
        <time>2026-05-14T12:32:25.000Z</time>
      </trkpt>
      <trkpt lat="44.18476" lon="5.27529">
        <ele>1464.3</ele>
        <time>2026-05-14T12:32:26.000Z</time>
      </trkpt>
      <trkpt lat="44.18476" lon="5.27529">
        <ele>1464.2</ele>
        <time>2026-05-14T12:32:27.000Z</time>
      </trkpt>
      <trkpt lat="44.18476" lon="5.27529">
        <ele>1463.9</ele>
        <time>2026-05-14T12:32:28.000Z</time>
      </trkpt>
      <trkpt lat="44.18476" lon="5.27529">
        <ele>1463.7</ele>
        <time>2026-05-14T12:32:29.000Z</time>
      </trkpt>
      <trkpt lat="44.18476" lon="5.27529">
        <ele>1463.6</ele>
        <time>2026-05-14T12:32:30.000Z</time>
      </trkpt>
      <trkpt lat="44.18476" lon="5.27529">
        <ele>1463.4</ele>
        <time>2026-05-14T12:32:31.000Z</time>
      </trkpt>
      <trkpt lat="44.18476" lon="5.27529">
        <ele>1463.2</ele>
        <time>2026-05-14T12:32:32.000Z</time>
      </trkpt>
      <trkpt lat="44.18476" lon="5.27529">
        <ele>1462.9</ele>
        <time>2026-05-14T12:32:33.000Z</time>
      </trkpt>
      <trkpt lat="44.18476" lon="5.27529">
        <ele>1462.7</ele>
        <time>2026-05-14T12:32:34.000Z</time>
      </trkpt>
      <trkpt lat="44.18476" lon="5.27529">
        <ele>1462.6</ele>
        <time>2026-05-14T12:32:35.000Z</time>
      </trkpt>
      <trkpt lat="44.18476" lon="5.27529">
        <ele>1462.6</ele>
        <time>2026-05-14T12:32:36.000Z</time>
      </trkpt>
      <trkpt lat="44.18476" lon="5.27529">
        <ele>1462.4</ele>
        <time>2026-05-14T12:32:37.000Z</time>
      </trkpt>
      <trkpt lat="44.18476" lon="5.27529">
        <ele>1462.3</ele>
        <time>2026-05-14T12:32:38.000Z</time>
      </trkpt>
      <trkpt lat="44.18476" lon="5.27529">
        <ele>1462.2</ele>
        <time>2026-05-14T12:32:39.000Z</time>
      </trkpt>
      <trkpt lat="44.18476" lon="5.27529">
        <ele>1461.9</ele>
        <time>2026-05-14T12:32:40.000Z</time>
      </trkpt>
      <trkpt lat="44.18476" lon="5.27529">
        <ele>1461.8</ele>
        <time>2026-05-14T12:32:41.000Z</time>
      </trkpt>
      <trkpt lat="44.18476" lon="5.27529">
        <ele>1461.9</ele>
        <time>2026-05-14T12:32:42.000Z</time>
      </trkpt>
      <trkpt lat="44.18476" lon="5.27529">
        <ele>1461.9</ele>
        <time>2026-05-14T12:32:43.000Z</time>
      </trkpt>
      <trkpt lat="44.18476" lon="5.27529">
        <ele>1462</ele>
        <time>2026-05-14T12:32:44.000Z</time>
      </trkpt>
      <trkpt lat="44.18476" lon="5.27529">
        <ele>1462</ele>
        <time>2026-05-14T12:32:45.000Z</time>
      </trkpt>
      <trkpt lat="44.18476" lon="5.2753">
        <ele>1462.1</ele>
        <time>2026-05-14T12:32:46.000Z</time>
      </trkpt>
      <trkpt lat="44.18476" lon="5.2753">
        <ele>1462.1</ele>
        <time>2026-05-14T12:32:47.000Z</time>
      </trkpt>
      <trkpt lat="44.18476" lon="5.2753">
        <ele>1461.8</ele>
        <time>2026-05-14T12:32:48.000Z</time>
      </trkpt>
      <trkpt lat="44.18476" lon="5.2753">
        <ele>1461.8</ele>
        <time>2026-05-14T12:32:49.000Z</time>
      </trkpt>
      <trkpt lat="44.18477" lon="5.2753">
        <ele>1461.8</ele>
        <time>2026-05-14T12:32:50.000Z</time>
      </trkpt>
      <trkpt lat="44.18477" lon="5.2753">
        <ele>1461.9</ele>
        <time>2026-05-14T12:32:51.000Z</time>
      </trkpt>
      <trkpt lat="44.18477" lon="5.2753">
        <ele>1461.9</ele>
        <time>2026-05-14T12:32:52.000Z</time>
      </trkpt>
      <trkpt lat="44.18477" lon="5.2753">
        <ele>1462.2</ele>
        <time>2026-05-14T12:32:53.000Z</time>
      </trkpt>
      <trkpt lat="44.18477" lon="5.2753">
        <ele>1462.1</ele>
        <time>2026-05-14T12:32:54.000Z</time>
      </trkpt>
      <trkpt lat="44.18477" lon="5.2753">
        <ele>1462.3</ele>
        <time>2026-05-14T12:32:55.000Z</time>
      </trkpt>
      <trkpt lat="44.18477" lon="5.2753">
        <ele>1462.4</ele>
        <time>2026-05-14T12:32:56.000Z</time>
      </trkpt>
      <trkpt lat="44.18477" lon="5.2753">
        <ele>1462.2</ele>
        <time>2026-05-14T12:32:58.000Z</time>
      </trkpt>
      <trkpt lat="44.18477" lon="5.2753">
        <ele>1462.1</ele>
        <time>2026-05-14T12:32:59.000Z</time>
      </trkpt>
      <trkpt lat="44.18477" lon="5.2753">
        <ele>1462</ele>
        <time>2026-05-14T12:33:00.000Z</time>
      </trkpt>
      <trkpt lat="44.18477" lon="5.2753">
        <ele>1462</ele>
        <time>2026-05-14T12:33:01.000Z</time>
      </trkpt>
      <trkpt lat="44.18477" lon="5.2753">
        <ele>1462</ele>
        <time>2026-05-14T12:33:02.000Z</time>
      </trkpt>
      <trkpt lat="44.18477" lon="5.2753">
        <ele>1462.1</ele>
        <time>2026-05-14T12:33:03.000Z</time>
      </trkpt>
      <trkpt lat="44.18477" lon="5.27531">
        <ele>1462.2</ele>
        <time>2026-05-14T12:33:04.000Z</time>
      </trkpt>
      <trkpt lat="44.18477" lon="5.27531">
        <ele>1462.1</ele>
        <time>2026-05-14T12:33:05.000Z</time>
      </trkpt>
      <trkpt lat="44.18477" lon="5.27531">
        <ele>1462</ele>
        <time>2026-05-14T12:33:06.000Z</time>
      </trkpt>
      <trkpt lat="44.18478" lon="5.27531">
        <ele>1461.9</ele>
        <time>2026-05-14T12:33:07.000Z</time>
      </trkpt>
      <trkpt lat="44.18478" lon="5.27531">
        <ele>1461.7</ele>
        <time>2026-05-14T12:33:08.000Z</time>
      </trkpt>
      <trkpt lat="44.18478" lon="5.27531">
        <ele>1461.6</ele>
        <time>2026-05-14T12:33:09.000Z</time>
      </trkpt>
      <trkpt lat="44.18478" lon="5.27531">
        <ele>1461.7</ele>
        <time>2026-05-14T12:33:10.000Z</time>
      </trkpt>
      <trkpt lat="44.18478" lon="5.27531">
        <ele>1461.7</ele>
        <time>2026-05-14T12:33:11.000Z</time>
      </trkpt>
      <trkpt lat="44.18478" lon="5.27531">
        <ele>1461.7</ele>
        <time>2026-05-14T12:33:12.000Z</time>
      </trkpt>
      <trkpt lat="44.18478" lon="5.27531">
        <ele>1461.8</ele>
        <time>2026-05-14T12:33:13.000Z</time>
      </trkpt>
      <trkpt lat="44.18478" lon="5.27531">
        <ele>1461.9</ele>
        <time>2026-05-14T12:33:14.000Z</time>
      </trkpt>
      <trkpt lat="44.18478" lon="5.27531">
        <ele>1461.9</ele>
        <time>2026-05-14T12:33:15.000Z</time>
      </trkpt>
      <trkpt lat="44.18478" lon="5.27531">
        <ele>1461.9</ele>
        <time>2026-05-14T12:33:16.000Z</time>
      </trkpt>
      <trkpt lat="44.18478" lon="5.27531">
        <ele>1461.8</ele>
        <time>2026-05-14T12:33:17.000Z</time>
      </trkpt>
      <trkpt lat="44.18478" lon="5.27531">
        <ele>1461.8</ele>
        <time>2026-05-14T12:33:18.000Z</time>
      </trkpt>
      <trkpt lat="44.18478" lon="5.27531">
        <ele>1461.8</ele>
        <time>2026-05-14T12:33:19.000Z</time>
      </trkpt>
      <trkpt lat="44.18478" lon="5.27531">
        <ele>1461.9</ele>
        <time>2026-05-14T12:33:20.000Z</time>
      </trkpt>
      <trkpt lat="44.18478" lon="5.27531">
        <ele>1462.1</ele>
        <time>2026-05-14T12:33:21.000Z</time>
      </trkpt>
      <trkpt lat="44.18478" lon="5.27531">
        <ele>1462.1</ele>
        <time>2026-05-14T12:33:22.000Z</time>
      </trkpt>
      <trkpt lat="44.18478" lon="5.27531">
        <ele>1462</ele>
        <time>2026-05-14T12:33:23.000Z</time>
      </trkpt>
      <trkpt lat="44.18477" lon="5.2753">
        <ele>1462</ele>
        <time>2026-05-14T12:33:24.000Z</time>
      </trkpt>
      <trkpt lat="44.18477" lon="5.2753">
        <ele>1462.1</ele>
        <time>2026-05-14T12:33:25.000Z</time>
      </trkpt>
      <trkpt lat="44.18477" lon="5.27531">
        <ele>1462.3</ele>
        <time>2026-05-14T12:33:26.000Z</time>
      </trkpt>
      <trkpt lat="44.18478" lon="5.27532">
        <ele>1462.5</ele>
        <time>2026-05-14T12:33:27.000Z</time>
      </trkpt>
      <trkpt lat="44.18478" lon="5.27532">
        <ele>1462.7</ele>
        <time>2026-05-14T12:33:28.000Z</time>
      </trkpt>
      <trkpt lat="44.18478" lon="5.27532">
        <ele>1463</ele>
        <time>2026-05-14T12:33:29.000Z</time>
      </trkpt>
      <trkpt lat="44.18478" lon="5.27532">
        <ele>1463</ele>
        <time>2026-05-14T12:33:30.000Z</time>
      </trkpt>
      <trkpt lat="44.18478" lon="5.27532">
        <ele>1463.1</ele>
        <time>2026-05-14T12:33:31.000Z</time>
      </trkpt>
      <trkpt lat="44.18478" lon="5.27532">
        <ele>1463.3</ele>
        <time>2026-05-14T12:33:32.000Z</time>
      </trkpt>
      <trkpt lat="44.18478" lon="5.27532">
        <ele>1463.5</ele>
        <time>2026-05-14T12:33:33.000Z</time>
      </trkpt>
      <trkpt lat="44.18478" lon="5.27532">
        <ele>1463.4</ele>
        <time>2026-05-14T12:33:34.000Z</time>
      </trkpt>
      <trkpt lat="44.18478" lon="5.27532">
        <ele>1463.2</ele>
        <time>2026-05-14T12:33:35.000Z</time>
      </trkpt>
      <trkpt lat="44.18478" lon="5.27532">
        <ele>1463.1</ele>
        <time>2026-05-14T12:33:36.000Z</time>
      </trkpt>
      <trkpt lat="44.18478" lon="5.27532">
        <ele>1462.9</ele>
        <time>2026-05-14T12:33:37.000Z</time>
      </trkpt>
      <trkpt lat="44.18478" lon="5.27532">
        <ele>1462.6</ele>
        <time>2026-05-14T12:33:38.000Z</time>
      </trkpt>
      <trkpt lat="44.18478" lon="5.27532">
        <ele>1462.5</ele>
        <time>2026-05-14T12:33:39.000Z</time>
      </trkpt>
      <trkpt lat="44.18478" lon="5.27532">
        <ele>1462.4</ele>
        <time>2026-05-14T12:33:40.000Z</time>
      </trkpt>
      <trkpt lat="44.18478" lon="5.27532">
        <ele>1462.4</ele>
        <time>2026-05-14T12:33:41.000Z</time>
      </trkpt>
      <trkpt lat="44.18478" lon="5.27532">
        <ele>1462.3</ele>
        <time>2026-05-14T12:33:42.000Z</time>
      </trkpt>
      <trkpt lat="44.18478" lon="5.27532">
        <ele>1462.8</ele>
        <time>2026-05-14T12:33:43.000Z</time>
      </trkpt>
      <trkpt lat="44.18478" lon="5.27531">
        <ele>1462.9</ele>
        <time>2026-05-14T12:33:44.000Z</time>
      </trkpt>
      <trkpt lat="44.1848" lon="5.27529">
        <ele>1462</ele>
        <time>2026-05-14T12:33:45.000Z</time>
      </trkpt>
      <trkpt lat="44.18481" lon="5.27527">
        <ele>1461.2</ele>
        <time>2026-05-14T12:33:46.000Z</time>
      </trkpt>
      <trkpt lat="44.18481" lon="5.27526">
        <ele>1460.7</ele>
        <time>2026-05-14T12:33:47.000Z</time>
      </trkpt>
      <trkpt lat="44.18482" lon="5.27523">
        <ele>1460</ele>
        <time>2026-05-14T12:33:48.000Z</time>
      </trkpt>
      <trkpt lat="44.18482" lon="5.27521">
        <ele>1459.5</ele>
        <time>2026-05-14T12:33:49.000Z</time>
      </trkpt>
      <trkpt lat="44.18481" lon="5.27519">
        <ele>1459.2</ele>
        <time>2026-05-14T12:33:50.000Z</time>
      </trkpt>
      <trkpt lat="44.18481" lon="5.27517">
        <ele>1459.4</ele>
        <time>2026-05-14T12:33:51.000Z</time>
      </trkpt>
      <trkpt lat="44.1848" lon="5.27515">
        <ele>1459.5</ele>
        <time>2026-05-14T12:33:52.000Z</time>
      </trkpt>
      <trkpt lat="44.18479" lon="5.27513">
        <ele>1459.3</ele>
        <time>2026-05-14T12:33:53.000Z</time>
      </trkpt>
      <trkpt lat="44.18478" lon="5.27512">
        <ele>1459</ele>
        <time>2026-05-14T12:33:54.000Z</time>
      </trkpt>
      <trkpt lat="44.18477" lon="5.2751">
        <ele>1458.4</ele>
        <time>2026-05-14T12:33:55.000Z</time>
      </trkpt>
      <trkpt lat="44.18475" lon="5.27508">
        <ele>1458.2</ele>
        <time>2026-05-14T12:33:56.000Z</time>
      </trkpt>
      <trkpt lat="44.18474" lon="5.27507">
        <ele>1458.3</ele>
        <time>2026-05-14T12:33:57.000Z</time>
      </trkpt>
      <trkpt lat="44.18472" lon="5.27506">
        <ele>1458</ele>
        <time>2026-05-14T12:33:58.000Z</time>
      </trkpt>
      <trkpt lat="44.1847" lon="5.27506">
        <ele>1457.7</ele>
        <time>2026-05-14T12:33:59.000Z</time>
      </trkpt>
      <trkpt lat="44.18469" lon="5.27506">
        <ele>1457.4</ele>
        <time>2026-05-14T12:34:00.000Z</time>
      </trkpt>
      <trkpt lat="44.18468" lon="5.27507">
        <ele>1457.3</ele>
        <time>2026-05-14T12:34:01.000Z</time>
      </trkpt>
      <trkpt lat="44.18467" lon="5.27507">
        <ele>1457</ele>
        <time>2026-05-14T12:34:02.000Z</time>
      </trkpt>
      <trkpt lat="44.18466" lon="5.27507">
        <ele>1456.7</ele>
        <time>2026-05-14T12:34:03.000Z</time>
      </trkpt>
      <trkpt lat="44.18466" lon="5.27508">
        <ele>1456.3</ele>
        <time>2026-05-14T12:34:04.000Z</time>
      </trkpt>
      <trkpt lat="44.18465" lon="5.27509">
        <ele>1456.1</ele>
        <time>2026-05-14T12:34:05.000Z</time>
      </trkpt>
      <trkpt lat="44.18464" lon="5.2751">
        <ele>1456.1</ele>
        <time>2026-05-14T12:34:06.000Z</time>
      </trkpt>
      <trkpt lat="44.18463" lon="5.27511">
        <ele>1456</ele>
        <time>2026-05-14T12:34:07.000Z</time>
      </trkpt>
      <trkpt lat="44.18463" lon="5.27513">
        <ele>1456.5</ele>
        <time>2026-05-14T12:34:08.000Z</time>
      </trkpt>
      <trkpt lat="44.18462" lon="5.27515">
        <ele>1456.6</ele>
        <time>2026-05-14T12:34:09.000Z</time>
      </trkpt>
      <trkpt lat="44.18462" lon="5.27516">
        <ele>1456.7</ele>
        <time>2026-05-14T12:34:10.000Z</time>
      </trkpt>
      <trkpt lat="44.18461" lon="5.27517">
        <ele>1456.7</ele>
        <time>2026-05-14T12:34:11.000Z</time>
      </trkpt>
      <trkpt lat="44.1846" lon="5.27519">
        <ele>1456.6</ele>
        <time>2026-05-14T12:34:12.000Z</time>
      </trkpt>
      <trkpt lat="44.18459" lon="5.2752">
        <ele>1456.3</ele>
        <time>2026-05-14T12:34:13.000Z</time>
      </trkpt>
      <trkpt lat="44.18458" lon="5.27523">
        <ele>1456.2</ele>
        <time>2026-05-14T12:34:14.000Z</time>
      </trkpt>
      <trkpt lat="44.18457" lon="5.27524">
        <ele>1456.1</ele>
        <time>2026-05-14T12:34:15.000Z</time>
      </trkpt>
      <trkpt lat="44.18456" lon="5.27526">
        <ele>1456.2</ele>
        <time>2026-05-14T12:34:16.000Z</time>
      </trkpt>
      <trkpt lat="44.18455" lon="5.27527">
        <ele>1456.1</ele>
        <time>2026-05-14T12:34:17.000Z</time>
      </trkpt>
      <trkpt lat="44.18455" lon="5.27529">
        <ele>1455.8</ele>
        <time>2026-05-14T12:34:18.000Z</time>
      </trkpt>
      <trkpt lat="44.18454" lon="5.2753">
        <ele>1455.4</ele>
        <time>2026-05-14T12:34:19.000Z</time>
      </trkpt>
      <trkpt lat="44.18453" lon="5.27531">
        <ele>1455.1</ele>
        <time>2026-05-14T12:34:20.000Z</time>
      </trkpt>
      <trkpt lat="44.18452" lon="5.27532">
        <ele>1454.9</ele>
        <time>2026-05-14T12:34:21.000Z</time>
      </trkpt>
      <trkpt lat="44.18451" lon="5.27533">
        <ele>1455</ele>
        <time>2026-05-14T12:34:22.000Z</time>
      </trkpt>
      <trkpt lat="44.1845" lon="5.27535">
        <ele>1455</ele>
        <time>2026-05-14T12:34:23.000Z</time>
      </trkpt>
      <trkpt lat="44.18449" lon="5.27537">
        <ele>1454.5</ele>
        <time>2026-05-14T12:34:24.000Z</time>
      </trkpt>
      <trkpt lat="44.18449" lon="5.27538">
        <ele>1454.2</ele>
        <time>2026-05-14T12:34:25.000Z</time>
      </trkpt>
      <trkpt lat="44.18448" lon="5.2754">
        <ele>1454.1</ele>
        <time>2026-05-14T12:34:26.000Z</time>
      </trkpt>
      <trkpt lat="44.18447" lon="5.27542">
        <ele>1454</ele>
        <time>2026-05-14T12:34:27.000Z</time>
      </trkpt>
      <trkpt lat="44.18447" lon="5.27543">
        <ele>1454.2</ele>
        <time>2026-05-14T12:34:28.000Z</time>
      </trkpt>
      <trkpt lat="44.18447" lon="5.27543">
        <ele>1454.1</ele>
        <time>2026-05-14T12:34:29.000Z</time>
      </trkpt>
      <trkpt lat="44.18447" lon="5.27543">
        <ele>1453.9</ele>
        <time>2026-05-14T12:34:30.000Z</time>
      </trkpt>
      <trkpt lat="44.18446" lon="5.27544">
        <ele>1453.7</ele>
        <time>2026-05-14T12:34:31.000Z</time>
      </trkpt>
      <trkpt lat="44.18445" lon="5.27546">
        <ele>1453.3</ele>
        <time>2026-05-14T12:34:32.000Z</time>
      </trkpt>
      <trkpt lat="44.18445" lon="5.27547">
        <ele>1453.1</ele>
        <time>2026-05-14T12:34:33.000Z</time>
      </trkpt>
      <trkpt lat="44.18444" lon="5.27549">
        <ele>1452.8</ele>
        <time>2026-05-14T12:34:34.000Z</time>
      </trkpt>
      <trkpt lat="44.18443" lon="5.27551">
        <ele>1453.2</ele>
        <time>2026-05-14T12:34:35.000Z</time>
      </trkpt>
      <trkpt lat="44.18443" lon="5.27553">
        <ele>1453.1</ele>
        <time>2026-05-14T12:34:36.000Z</time>
      </trkpt>
      <trkpt lat="44.18442" lon="5.27554">
        <ele>1453.2</ele>
        <time>2026-05-14T12:34:37.000Z</time>
      </trkpt>
      <trkpt lat="44.18442" lon="5.27556">
        <ele>1452.9</ele>
        <time>2026-05-14T12:34:38.000Z</time>
      </trkpt>
      <trkpt lat="44.18441" lon="5.27558">
        <ele>1452.5</ele>
        <time>2026-05-14T12:34:39.000Z</time>
      </trkpt>
      <trkpt lat="44.18441" lon="5.27559">
        <ele>1452</ele>
        <time>2026-05-14T12:34:40.000Z</time>
      </trkpt>
      <trkpt lat="44.1844" lon="5.2756">
        <ele>1451.9</ele>
        <time>2026-05-14T12:34:41.000Z</time>
      </trkpt>
      <trkpt lat="44.1844" lon="5.27562">
        <ele>1452.2</ele>
        <time>2026-05-14T12:34:42.000Z</time>
      </trkpt>
      <trkpt lat="44.18439" lon="5.27563">
        <ele>1452.3</ele>
        <time>2026-05-14T12:34:43.000Z</time>
      </trkpt>
      <trkpt lat="44.18438" lon="5.27565">
        <ele>1452.1</ele>
        <time>2026-05-14T12:34:44.000Z</time>
      </trkpt>
      <trkpt lat="44.18438" lon="5.27566">
        <ele>1452.5</ele>
        <time>2026-05-14T12:34:45.000Z</time>
      </trkpt>
      <trkpt lat="44.18437" lon="5.27568">
        <ele>1452.6</ele>
        <time>2026-05-14T12:34:46.000Z</time>
      </trkpt>
      <trkpt lat="44.18436" lon="5.27569">
        <ele>1452</ele>
        <time>2026-05-14T12:34:47.000Z</time>
      </trkpt>
      <trkpt lat="44.18435" lon="5.2757">
        <ele>1451.6</ele>
        <time>2026-05-14T12:34:48.000Z</time>
      </trkpt>
      <trkpt lat="44.18434" lon="5.27572">
        <ele>1451.4</ele>
        <time>2026-05-14T12:34:49.000Z</time>
      </trkpt>
      <trkpt lat="44.18433" lon="5.27574">
        <ele>1451.2</ele>
        <time>2026-05-14T12:34:50.000Z</time>
      </trkpt>
      <trkpt lat="44.18432" lon="5.27576">
        <ele>1451.3</ele>
        <time>2026-05-14T12:34:51.000Z</time>
      </trkpt>
      <trkpt lat="44.18432" lon="5.27578">
        <ele>1451.6</ele>
        <time>2026-05-14T12:34:52.000Z</time>
      </trkpt>
      <trkpt lat="44.18431" lon="5.27579">
        <ele>1452.1</ele>
        <time>2026-05-14T12:34:53.000Z</time>
      </trkpt>
      <trkpt lat="44.18431" lon="5.2758">
        <ele>1452.5</ele>
        <time>2026-05-14T12:34:54.000Z</time>
      </trkpt>
      <trkpt lat="44.18431" lon="5.27581">
        <ele>1452.7</ele>
        <time>2026-05-14T12:34:55.000Z</time>
      </trkpt>
      <trkpt lat="44.1843" lon="5.27582">
        <ele>1453</ele>
        <time>2026-05-14T12:34:56.000Z</time>
      </trkpt>
      <trkpt lat="44.1843" lon="5.27583">
        <ele>1453.3</ele>
        <time>2026-05-14T12:34:57.000Z</time>
      </trkpt>
      <trkpt lat="44.18429" lon="5.27585">
        <ele>1453.3</ele>
        <time>2026-05-14T12:34:58.000Z</time>
      </trkpt>
      <trkpt lat="44.18429" lon="5.27586">
        <ele>1453.4</ele>
        <time>2026-05-14T12:34:59.000Z</time>
      </trkpt>
      <trkpt lat="44.18429" lon="5.27588">
        <ele>1453.9</ele>
        <time>2026-05-14T12:35:00.000Z</time>
      </trkpt>
      <trkpt lat="44.18429" lon="5.2759">
        <ele>1454.5</ele>
        <time>2026-05-14T12:35:01.000Z</time>
      </trkpt>
      <trkpt lat="44.18428" lon="5.27592">
        <ele>1455.2</ele>
        <time>2026-05-14T12:35:02.000Z</time>
      </trkpt>
      <trkpt lat="44.18428" lon="5.27594">
        <ele>1456</ele>
        <time>2026-05-14T12:35:03.000Z</time>
      </trkpt>
      <trkpt lat="44.18428" lon="5.27596">
        <ele>1456.9</ele>
        <time>2026-05-14T12:35:04.000Z</time>
      </trkpt>
      <trkpt lat="44.18428" lon="5.27597">
        <ele>1457.5</ele>
        <time>2026-05-14T12:35:05.000Z</time>
      </trkpt>
      <trkpt lat="44.18428" lon="5.27598">
        <ele>1458</ele>
        <time>2026-05-14T12:35:06.000Z</time>
      </trkpt>
      <trkpt lat="44.18428" lon="5.27599">
        <ele>1458.9</ele>
        <time>2026-05-14T12:35:07.000Z</time>
      </trkpt>
      <trkpt lat="44.18428" lon="5.276">
        <ele>1459</ele>
        <time>2026-05-14T12:35:08.000Z</time>
      </trkpt>
      <trkpt lat="44.18429" lon="5.27601">
        <ele>1458.9</ele>
        <time>2026-05-14T12:35:09.000Z</time>
      </trkpt>
      <trkpt lat="44.18429" lon="5.27603">
        <ele>1458.7</ele>
        <time>2026-05-14T12:35:10.000Z</time>
      </trkpt>
      <trkpt lat="44.18429" lon="5.27604">
        <ele>1458.7</ele>
        <time>2026-05-14T12:35:11.000Z</time>
      </trkpt>
      <trkpt lat="44.18429" lon="5.27607">
        <ele>1458.7</ele>
        <time>2026-05-14T12:35:12.000Z</time>
      </trkpt>
      <trkpt lat="44.18429" lon="5.27609">
        <ele>1459.2</ele>
        <time>2026-05-14T12:35:13.000Z</time>
      </trkpt>
      <trkpt lat="44.18428" lon="5.27611">
        <ele>1459.6</ele>
        <time>2026-05-14T12:35:14.000Z</time>
      </trkpt>
      <trkpt lat="44.18428" lon="5.27613">
        <ele>1460</ele>
        <time>2026-05-14T12:35:15.000Z</time>
      </trkpt>
      <trkpt lat="44.18427" lon="5.27616">
        <ele>1460.4</ele>
        <time>2026-05-14T12:35:16.000Z</time>
      </trkpt>
      <trkpt lat="44.18427" lon="5.27618">
        <ele>1460.9</ele>
        <time>2026-05-14T12:35:17.000Z</time>
      </trkpt>
      <trkpt lat="44.18427" lon="5.2762">
        <ele>1460.8</ele>
        <time>2026-05-14T12:35:18.000Z</time>
      </trkpt>
      <trkpt lat="44.18427" lon="5.27621">
        <ele>1460.6</ele>
        <time>2026-05-14T12:35:19.000Z</time>
      </trkpt>
      <trkpt lat="44.18427" lon="5.27622">
        <ele>1460.2</ele>
        <time>2026-05-14T12:35:20.000Z</time>
      </trkpt>
      <trkpt lat="44.18427" lon="5.27623">
        <ele>1460</ele>
        <time>2026-05-14T12:35:21.000Z</time>
      </trkpt>
      <trkpt lat="44.18426" lon="5.27625">
        <ele>1459.8</ele>
        <time>2026-05-14T12:35:22.000Z</time>
      </trkpt>
      <trkpt lat="44.18425" lon="5.27627">
        <ele>1460</ele>
        <time>2026-05-14T12:35:23.000Z</time>
      </trkpt>
      <trkpt lat="44.18425" lon="5.27629">
        <ele>1460.4</ele>
        <time>2026-05-14T12:35:24.000Z</time>
      </trkpt>
      <trkpt lat="44.18425" lon="5.27631">
        <ele>1460.5</ele>
        <time>2026-05-14T12:35:25.000Z</time>
      </trkpt>
      <trkpt lat="44.18426" lon="5.27633">
        <ele>1460.9</ele>
        <time>2026-05-14T12:35:26.000Z</time>
      </trkpt>
      <trkpt lat="44.18425" lon="5.27635">
        <ele>1461.1</ele>
        <time>2026-05-14T12:35:27.000Z</time>
      </trkpt>
      <trkpt lat="44.18425" lon="5.27636">
        <ele>1461.6</ele>
        <time>2026-05-14T12:35:28.000Z</time>
      </trkpt>
      <trkpt lat="44.18425" lon="5.27637">
        <ele>1461.8</ele>
        <time>2026-05-14T12:35:29.000Z</time>
      </trkpt>
      <trkpt lat="44.18425" lon="5.27638">
        <ele>1462.6</ele>
        <time>2026-05-14T12:35:30.000Z</time>
      </trkpt>
      <trkpt lat="44.18425" lon="5.2764">
        <ele>1462.6</ele>
        <time>2026-05-14T12:35:31.000Z</time>
      </trkpt>
      <trkpt lat="44.18425" lon="5.27641">
        <ele>1462.6</ele>
        <time>2026-05-14T12:35:32.000Z</time>
      </trkpt>
      <trkpt lat="44.18425" lon="5.27643">
        <ele>1462.5</ele>
        <time>2026-05-14T12:35:33.000Z</time>
      </trkpt>
      <trkpt lat="44.18425" lon="5.27645">
        <ele>1462.4</ele>
        <time>2026-05-14T12:35:34.000Z</time>
      </trkpt>
      <trkpt lat="44.18425" lon="5.27647">
        <ele>1462.5</ele>
        <time>2026-05-14T12:35:35.000Z</time>
      </trkpt>
      <trkpt lat="44.18424" lon="5.27649">
        <ele>1462.4</ele>
        <time>2026-05-14T12:35:36.000Z</time>
      </trkpt>
      <trkpt lat="44.18424" lon="5.27652">
        <ele>1462.5</ele>
        <time>2026-05-14T12:35:37.000Z</time>
      </trkpt>
      <trkpt lat="44.18424" lon="5.27654">
        <ele>1462.8</ele>
        <time>2026-05-14T12:35:38.000Z</time>
      </trkpt>
      <trkpt lat="44.18424" lon="5.27656">
        <ele>1462.6</ele>
        <time>2026-05-14T12:35:39.000Z</time>
      </trkpt>
      <trkpt lat="44.18424" lon="5.27658">
        <ele>1462.7</ele>
        <time>2026-05-14T12:35:40.000Z</time>
      </trkpt>
      <trkpt lat="44.18424" lon="5.27659">
        <ele>1463.5</ele>
        <time>2026-05-14T12:35:41.000Z</time>
      </trkpt>
      <trkpt lat="44.18424" lon="5.27661">
        <ele>1464</ele>
        <time>2026-05-14T12:35:42.000Z</time>
      </trkpt>
      <trkpt lat="44.18424" lon="5.27662">
        <ele>1464.1</ele>
        <time>2026-05-14T12:35:43.000Z</time>
      </trkpt>
      <trkpt lat="44.18424" lon="5.27664">
        <ele>1463.8</ele>
        <time>2026-05-14T12:35:44.000Z</time>
      </trkpt>
      <trkpt lat="44.18423" lon="5.27666">
        <ele>1463.5</ele>
        <time>2026-05-14T12:35:45.000Z</time>
      </trkpt>
      <trkpt lat="44.18423" lon="5.27668">
        <ele>1463.2</ele>
        <time>2026-05-14T12:35:46.000Z</time>
      </trkpt>
      <trkpt lat="44.18423" lon="5.2767">
        <ele>1463.1</ele>
        <time>2026-05-14T12:35:47.000Z</time>
      </trkpt>
      <trkpt lat="44.18423" lon="5.27672">
        <ele>1463.5</ele>
        <time>2026-05-14T12:35:48.000Z</time>
      </trkpt>
      <trkpt lat="44.18423" lon="5.27675">
        <ele>1463.6</ele>
        <time>2026-05-14T12:35:49.000Z</time>
      </trkpt>
      <trkpt lat="44.18423" lon="5.27677">
        <ele>1463.7</ele>
        <time>2026-05-14T12:35:50.000Z</time>
      </trkpt>
      <trkpt lat="44.18424" lon="5.27679">
        <ele>1463.5</ele>
        <time>2026-05-14T12:35:51.000Z</time>
      </trkpt>
      <trkpt lat="44.18424" lon="5.27681">
        <ele>1463</ele>
        <time>2026-05-14T12:35:52.000Z</time>
      </trkpt>
      <trkpt lat="44.18424" lon="5.27682">
        <ele>1463.5</ele>
        <time>2026-05-14T12:35:53.000Z</time>
      </trkpt>
      <trkpt lat="44.18423" lon="5.27683">
        <ele>1464.2</ele>
        <time>2026-05-14T12:35:54.000Z</time>
      </trkpt>
      <trkpt lat="44.18422" lon="5.27685">
        <ele>1464.4</ele>
        <time>2026-05-14T12:35:55.000Z</time>
      </trkpt>
      <trkpt lat="44.18422" lon="5.27686">
        <ele>1465.2</ele>
        <time>2026-05-14T12:35:56.000Z</time>
      </trkpt>
      <trkpt lat="44.18422" lon="5.27688">
        <ele>1465.9</ele>
        <time>2026-05-14T12:35:57.000Z</time>
      </trkpt>
      <trkpt lat="44.18421" lon="5.27689">
        <ele>1466.4</ele>
        <time>2026-05-14T12:35:58.000Z</time>
      </trkpt>
      <trkpt lat="44.18421" lon="5.2769">
        <ele>1466.7</ele>
        <time>2026-05-14T12:35:59.000Z</time>
      </trkpt>
      <trkpt lat="44.18421" lon="5.27692">
        <ele>1467.1</ele>
        <time>2026-05-14T12:36:00.000Z</time>
      </trkpt>
      <trkpt lat="44.18421" lon="5.27694">
        <ele>1467</ele>
        <time>2026-05-14T12:36:01.000Z</time>
      </trkpt>
      <trkpt lat="44.18421" lon="5.27697">
        <ele>1466.8</ele>
        <time>2026-05-14T12:36:02.000Z</time>
      </trkpt>
      <trkpt lat="44.18421" lon="5.27699">
        <ele>1466.8</ele>
        <time>2026-05-14T12:36:03.000Z</time>
      </trkpt>
      <trkpt lat="44.18421" lon="5.27701">
        <ele>1466.8</ele>
        <time>2026-05-14T12:36:04.000Z</time>
      </trkpt>
      <trkpt lat="44.1842" lon="5.27702">
        <ele>1466.8</ele>
        <time>2026-05-14T12:36:05.000Z</time>
      </trkpt>
      <trkpt lat="44.18419" lon="5.27703">
        <ele>1466.8</ele>
        <time>2026-05-14T12:36:06.000Z</time>
      </trkpt>
      <trkpt lat="44.18419" lon="5.27704">
        <ele>1467</ele>
        <time>2026-05-14T12:36:07.000Z</time>
      </trkpt>
      <trkpt lat="44.18418" lon="5.27706">
        <ele>1466.8</ele>
        <time>2026-05-14T12:36:08.000Z</time>
      </trkpt>
      <trkpt lat="44.18418" lon="5.27708">
        <ele>1466.8</ele>
        <time>2026-05-14T12:36:09.000Z</time>
      </trkpt>
      <trkpt lat="44.18418" lon="5.27711">
        <ele>1467.1</ele>
        <time>2026-05-14T12:36:10.000Z</time>
      </trkpt>
      <trkpt lat="44.18418" lon="5.27714">
        <ele>1466.9</ele>
        <time>2026-05-14T12:36:11.000Z</time>
      </trkpt>
      <trkpt lat="44.18418" lon="5.27716">
        <ele>1467.1</ele>
        <time>2026-05-14T12:36:12.000Z</time>
      </trkpt>
      <trkpt lat="44.18418" lon="5.27718">
        <ele>1467.5</ele>
        <time>2026-05-14T12:36:13.000Z</time>
      </trkpt>
      <trkpt lat="44.18418" lon="5.2772">
        <ele>1468.2</ele>
        <time>2026-05-14T12:36:14.000Z</time>
      </trkpt>
      <trkpt lat="44.18418" lon="5.27722">
        <ele>1468.8</ele>
        <time>2026-05-14T12:36:15.000Z</time>
      </trkpt>
      <trkpt lat="44.18418" lon="5.27724">
        <ele>1469.2</ele>
        <time>2026-05-14T12:36:16.000Z</time>
      </trkpt>
      <trkpt lat="44.18418" lon="5.27725">
        <ele>1469.3</ele>
        <time>2026-05-14T12:36:17.000Z</time>
      </trkpt>
      <trkpt lat="44.18418" lon="5.27728">
        <ele>1468.8</ele>
        <time>2026-05-14T12:36:18.000Z</time>
      </trkpt>
      <trkpt lat="44.18417" lon="5.27729">
        <ele>1468.9</ele>
        <time>2026-05-14T12:36:19.000Z</time>
      </trkpt>
      <trkpt lat="44.18417" lon="5.27731">
        <ele>1469.1</ele>
        <time>2026-05-14T12:36:20.000Z</time>
      </trkpt>
      <trkpt lat="44.18417" lon="5.27733">
        <ele>1469.7</ele>
        <time>2026-05-14T12:36:21.000Z</time>
      </trkpt>
      <trkpt lat="44.18418" lon="5.27735">
        <ele>1470</ele>
        <time>2026-05-14T12:36:22.000Z</time>
      </trkpt>
      <trkpt lat="44.18419" lon="5.27736">
        <ele>1470.3</ele>
        <time>2026-05-14T12:36:23.000Z</time>
      </trkpt>
      <trkpt lat="44.18419" lon="5.27738">
        <ele>1470.6</ele>
        <time>2026-05-14T12:36:24.000Z</time>
      </trkpt>
      <trkpt lat="44.1842" lon="5.27739">
        <ele>1470.8</ele>
        <time>2026-05-14T12:36:25.000Z</time>
      </trkpt>
      <trkpt lat="44.1842" lon="5.27741">
        <ele>1470.9</ele>
        <time>2026-05-14T12:36:26.000Z</time>
      </trkpt>
      <trkpt lat="44.18421" lon="5.27742">
        <ele>1471.2</ele>
        <time>2026-05-14T12:36:27.000Z</time>
      </trkpt>
      <trkpt lat="44.18421" lon="5.27744">
        <ele>1471.3</ele>
        <time>2026-05-14T12:36:28.000Z</time>
      </trkpt>
      <trkpt lat="44.18422" lon="5.27745">
        <ele>1471.5</ele>
        <time>2026-05-14T12:36:29.000Z</time>
      </trkpt>
      <trkpt lat="44.18422" lon="5.27746">
        <ele>1471.6</ele>
        <time>2026-05-14T12:36:30.000Z</time>
      </trkpt>
      <trkpt lat="44.18422" lon="5.27747">
        <ele>1471.8</ele>
        <time>2026-05-14T12:36:31.000Z</time>
      </trkpt>
      <trkpt lat="44.18422" lon="5.27749">
        <ele>1471.5</ele>
        <time>2026-05-14T12:36:32.000Z</time>
      </trkpt>
      <trkpt lat="44.18422" lon="5.27751">
        <ele>1471.2</ele>
        <time>2026-05-14T12:36:33.000Z</time>
      </trkpt>
      <trkpt lat="44.18423" lon="5.27752">
        <ele>1471.3</ele>
        <time>2026-05-14T12:36:34.000Z</time>
      </trkpt>
      <trkpt lat="44.18423" lon="5.27753">
        <ele>1471.5</ele>
        <time>2026-05-14T12:36:35.000Z</time>
      </trkpt>
      <trkpt lat="44.18423" lon="5.27755">
        <ele>1471.4</ele>
        <time>2026-05-14T12:36:36.000Z</time>
      </trkpt>
      <trkpt lat="44.18423" lon="5.27756">
        <ele>1471.4</ele>
        <time>2026-05-14T12:36:37.000Z</time>
      </trkpt>
      <trkpt lat="44.18423" lon="5.27758">
        <ele>1471.5</ele>
        <time>2026-05-14T12:36:38.000Z</time>
      </trkpt>
      <trkpt lat="44.18424" lon="5.2776">
        <ele>1471.5</ele>
        <time>2026-05-14T12:36:39.000Z</time>
      </trkpt>
      <trkpt lat="44.18424" lon="5.27761">
        <ele>1471.4</ele>
        <time>2026-05-14T12:36:40.000Z</time>
      </trkpt>
      <trkpt lat="44.18424" lon="5.27763">
        <ele>1471.1</ele>
        <time>2026-05-14T12:36:41.000Z</time>
      </trkpt>
      <trkpt lat="44.18424" lon="5.27764">
        <ele>1470.9</ele>
        <time>2026-05-14T12:36:42.000Z</time>
      </trkpt>
      <trkpt lat="44.18424" lon="5.27766">
        <ele>1470.9</ele>
        <time>2026-05-14T12:36:43.000Z</time>
      </trkpt>
      <trkpt lat="44.18424" lon="5.27769">
        <ele>1471.6</ele>
        <time>2026-05-14T12:36:44.000Z</time>
      </trkpt>
      <trkpt lat="44.18423" lon="5.27771">
        <ele>1471.9</ele>
        <time>2026-05-14T12:36:45.000Z</time>
      </trkpt>
      <trkpt lat="44.18423" lon="5.27774">
        <ele>1472.2</ele>
        <time>2026-05-14T12:36:46.000Z</time>
      </trkpt>
      <trkpt lat="44.18423" lon="5.27775">
        <ele>1472.4</ele>
        <time>2026-05-14T12:36:47.000Z</time>
      </trkpt>
      <trkpt lat="44.18424" lon="5.27776">
        <ele>1472.2</ele>
        <time>2026-05-14T12:36:48.000Z</time>
      </trkpt>
      <trkpt lat="44.18424" lon="5.27778">
        <ele>1472.1</ele>
        <time>2026-05-14T12:36:49.000Z</time>
      </trkpt>
      <trkpt lat="44.18423" lon="5.27779">
        <ele>1471.7</ele>
        <time>2026-05-14T12:36:50.000Z</time>
      </trkpt>
      <trkpt lat="44.18423" lon="5.27781">
        <ele>1471.4</ele>
        <time>2026-05-14T12:36:51.000Z</time>
      </trkpt>
      <trkpt lat="44.18423" lon="5.27783">
        <ele>1471.4</ele>
        <time>2026-05-14T12:36:52.000Z</time>
      </trkpt>
      <trkpt lat="44.18424" lon="5.27786">
        <ele>1471.2</ele>
        <time>2026-05-14T12:36:53.000Z</time>
      </trkpt>
      <trkpt lat="44.18424" lon="5.27788">
        <ele>1471.1</ele>
        <time>2026-05-14T12:36:54.000Z</time>
      </trkpt>
      <trkpt lat="44.18425" lon="5.27791">
        <ele>1471.4</ele>
        <time>2026-05-14T12:36:55.000Z</time>
      </trkpt>
      <trkpt lat="44.18425" lon="5.27794">
        <ele>1471.5</ele>
        <time>2026-05-14T12:36:56.000Z</time>
      </trkpt>
      <trkpt lat="44.18425" lon="5.27796">
        <ele>1472</ele>
        <time>2026-05-14T12:36:57.000Z</time>
      </trkpt>
      <trkpt lat="44.18424" lon="5.27798">
        <ele>1472.5</ele>
        <time>2026-05-14T12:36:58.000Z</time>
      </trkpt>
      <trkpt lat="44.18424" lon="5.27799">
        <ele>1472.8</ele>
        <time>2026-05-14T12:36:59.000Z</time>
      </trkpt>
      <trkpt lat="44.18424" lon="5.27801">
        <ele>1472.8</ele>
        <time>2026-05-14T12:37:00.000Z</time>
      </trkpt>
      <trkpt lat="44.18423" lon="5.27802">
        <ele>1472.9</ele>
        <time>2026-05-14T12:37:01.000Z</time>
      </trkpt>
      <trkpt lat="44.18424" lon="5.27803">
        <ele>1472.7</ele>
        <time>2026-05-14T12:37:02.000Z</time>
      </trkpt>
      <trkpt lat="44.18424" lon="5.27805">
        <ele>1472.6</ele>
        <time>2026-05-14T12:37:03.000Z</time>
      </trkpt>
      <trkpt lat="44.18424" lon="5.27806">
        <ele>1472.1</ele>
        <time>2026-05-14T12:37:04.000Z</time>
      </trkpt>
      <trkpt lat="44.18424" lon="5.27807">
        <ele>1472.3</ele>
        <time>2026-05-14T12:37:05.000Z</time>
      </trkpt>
      <trkpt lat="44.18424" lon="5.2781">
        <ele>1472.4</ele>
        <time>2026-05-14T12:37:06.000Z</time>
      </trkpt>
      <trkpt lat="44.18424" lon="5.27812">
        <ele>1472.5</ele>
        <time>2026-05-14T12:37:07.000Z</time>
      </trkpt>
      <trkpt lat="44.18424" lon="5.27814">
        <ele>1472.7</ele>
        <time>2026-05-14T12:37:08.000Z</time>
      </trkpt>
      <trkpt lat="44.18424" lon="5.27815">
        <ele>1472.9</ele>
        <time>2026-05-14T12:37:09.000Z</time>
      </trkpt>
      <trkpt lat="44.18424" lon="5.27817">
        <ele>1472.8</ele>
        <time>2026-05-14T12:37:10.000Z</time>
      </trkpt>
      <trkpt lat="44.18425" lon="5.27818">
        <ele>1472.6</ele>
        <time>2026-05-14T12:37:11.000Z</time>
      </trkpt>
      <trkpt lat="44.18425" lon="5.27819">
        <ele>1472.2</ele>
        <time>2026-05-14T12:37:12.000Z</time>
      </trkpt>
      <trkpt lat="44.18426" lon="5.2782">
        <ele>1472.2</ele>
        <time>2026-05-14T12:37:13.000Z</time>
      </trkpt>
      <trkpt lat="44.18426" lon="5.27822">
        <ele>1472.2</ele>
        <time>2026-05-14T12:37:14.000Z</time>
      </trkpt>
      <trkpt lat="44.18427" lon="5.27824">
        <ele>1472.4</ele>
        <time>2026-05-14T12:37:15.000Z</time>
      </trkpt>
      <trkpt lat="44.18427" lon="5.27825">
        <ele>1472.6</ele>
        <time>2026-05-14T12:37:16.000Z</time>
      </trkpt>
      <trkpt lat="44.18428" lon="5.27827">
        <ele>1472.3</ele>
        <time>2026-05-14T12:37:17.000Z</time>
      </trkpt>
      <trkpt lat="44.18427" lon="5.27829">
        <ele>1471.6</ele>
        <time>2026-05-14T12:37:18.000Z</time>
      </trkpt>
      <trkpt lat="44.18428" lon="5.2783">
        <ele>1471.4</ele>
        <time>2026-05-14T12:37:19.000Z</time>
      </trkpt>
      <trkpt lat="44.18429" lon="5.27832">
        <ele>1471.3</ele>
        <time>2026-05-14T12:37:20.000Z</time>
      </trkpt>
      <trkpt lat="44.18429" lon="5.27833">
        <ele>1471</ele>
        <time>2026-05-14T12:37:21.000Z</time>
      </trkpt>
      <trkpt lat="44.18429" lon="5.27834">
        <ele>1470.6</ele>
        <time>2026-05-14T12:37:22.000Z</time>
      </trkpt>
      <trkpt lat="44.18428" lon="5.27836">
        <ele>1470.3</ele>
        <time>2026-05-14T12:37:23.000Z</time>
      </trkpt>
      <trkpt lat="44.18428" lon="5.27838">
        <ele>1469.8</ele>
        <time>2026-05-14T12:37:24.000Z</time>
      </trkpt>
      <trkpt lat="44.18429" lon="5.2784">
        <ele>1469.7</ele>
        <time>2026-05-14T12:37:25.000Z</time>
      </trkpt>
      <trkpt lat="44.1843" lon="5.27841">
        <ele>1469.6</ele>
        <time>2026-05-14T12:37:26.000Z</time>
      </trkpt>
      <trkpt lat="44.18431" lon="5.27842">
        <ele>1469.7</ele>
        <time>2026-05-14T12:37:27.000Z</time>
      </trkpt>
      <trkpt lat="44.18431" lon="5.27844">
        <ele>1469.7</ele>
        <time>2026-05-14T12:37:28.000Z</time>
      </trkpt>
      <trkpt lat="44.18431" lon="5.27846">
        <ele>1469.8</ele>
        <time>2026-05-14T12:37:29.000Z</time>
      </trkpt>
      <trkpt lat="44.18432" lon="5.27848">
        <ele>1470</ele>
        <time>2026-05-14T12:37:30.000Z</time>
      </trkpt>
      <trkpt lat="44.18432" lon="5.2785">
        <ele>1470.1</ele>
        <time>2026-05-14T12:37:31.000Z</time>
      </trkpt>
      <trkpt lat="44.18432" lon="5.27852">
        <ele>1470</ele>
        <time>2026-05-14T12:37:32.000Z</time>
      </trkpt>
      <trkpt lat="44.18432" lon="5.27853">
        <ele>1469.9</ele>
        <time>2026-05-14T12:37:33.000Z</time>
      </trkpt>
      <trkpt lat="44.18432" lon="5.27855">
        <ele>1469.6</ele>
        <time>2026-05-14T12:37:34.000Z</time>
      </trkpt>
      <trkpt lat="44.18432" lon="5.27857">
        <ele>1469.3</ele>
        <time>2026-05-14T12:37:35.000Z</time>
      </trkpt>
      <trkpt lat="44.18434" lon="5.27858">
        <ele>1468.9</ele>
        <time>2026-05-14T12:37:36.000Z</time>
      </trkpt>
      <trkpt lat="44.18435" lon="5.2786">
        <ele>1468.1</ele>
        <time>2026-05-14T12:37:37.000Z</time>
      </trkpt>
      <trkpt lat="44.18435" lon="5.27862">
        <ele>1467.3</ele>
        <time>2026-05-14T12:37:38.000Z</time>
      </trkpt>
      <trkpt lat="44.18436" lon="5.27864">
        <ele>1467.2</ele>
        <time>2026-05-14T12:37:39.000Z</time>
      </trkpt>
      <trkpt lat="44.18437" lon="5.27866">
        <ele>1467.1</ele>
        <time>2026-05-14T12:37:40.000Z</time>
      </trkpt>
      <trkpt lat="44.18438" lon="5.27867">
        <ele>1467.3</ele>
        <time>2026-05-14T12:37:41.000Z</time>
      </trkpt>
      <trkpt lat="44.1844" lon="5.27869">
        <ele>1467.6</ele>
        <time>2026-05-14T12:37:42.000Z</time>
      </trkpt>
      <trkpt lat="44.1844" lon="5.2787">
        <ele>1467.9</ele>
        <time>2026-05-14T12:37:43.000Z</time>
      </trkpt>
      <trkpt lat="44.18441" lon="5.27872">
        <ele>1468.5</ele>
        <time>2026-05-14T12:37:44.000Z</time>
      </trkpt>
      <trkpt lat="44.18441" lon="5.27873">
        <ele>1468.4</ele>
        <time>2026-05-14T12:37:45.000Z</time>
      </trkpt>
      <trkpt lat="44.18441" lon="5.27874">
        <ele>1468</ele>
        <time>2026-05-14T12:37:46.000Z</time>
      </trkpt>
      <trkpt lat="44.18441" lon="5.27876">
        <ele>1467.8</ele>
        <time>2026-05-14T12:37:47.000Z</time>
      </trkpt>
      <trkpt lat="44.18442" lon="5.27878">
        <ele>1467.7</ele>
        <time>2026-05-14T12:37:48.000Z</time>
      </trkpt>
      <trkpt lat="44.18442" lon="5.2788">
        <ele>1467.8</ele>
        <time>2026-05-14T12:37:49.000Z</time>
      </trkpt>
      <trkpt lat="44.18442" lon="5.27881">
        <ele>1467.5</ele>
        <time>2026-05-14T12:37:50.000Z</time>
      </trkpt>
      <trkpt lat="44.18443" lon="5.27882">
        <ele>1467.4</ele>
        <time>2026-05-14T12:37:51.000Z</time>
      </trkpt>
      <trkpt lat="44.18444" lon="5.27884">
        <ele>1467.2</ele>
        <time>2026-05-14T12:37:52.000Z</time>
      </trkpt>
      <trkpt lat="44.18444" lon="5.27885">
        <ele>1466.9</ele>
        <time>2026-05-14T12:37:53.000Z</time>
      </trkpt>
      <trkpt lat="44.18444" lon="5.27887">
        <ele>1466.6</ele>
        <time>2026-05-14T12:37:54.000Z</time>
      </trkpt>
      <trkpt lat="44.18444" lon="5.27888">
        <ele>1466.3</ele>
        <time>2026-05-14T12:37:55.000Z</time>
      </trkpt>
      <trkpt lat="44.18444" lon="5.2789">
        <ele>1466.1</ele>
        <time>2026-05-14T12:37:56.000Z</time>
      </trkpt>
      <trkpt lat="44.18444" lon="5.27892">
        <ele>1465.8</ele>
        <time>2026-05-14T12:37:57.000Z</time>
      </trkpt>
      <trkpt lat="44.18444" lon="5.27893">
        <ele>1465.5</ele>
        <time>2026-05-14T12:37:58.000Z</time>
      </trkpt>
      <trkpt lat="44.18444" lon="5.27895">
        <ele>1465.2</ele>
        <time>2026-05-14T12:37:59.000Z</time>
      </trkpt>
      <trkpt lat="44.18444" lon="5.27896">
        <ele>1465.2</ele>
        <time>2026-05-14T12:38:00.000Z</time>
      </trkpt>
      <trkpt lat="44.18445" lon="5.27898">
        <ele>1464.7</ele>
        <time>2026-05-14T12:38:01.000Z</time>
      </trkpt>
      <trkpt lat="44.18445" lon="5.27899">
        <ele>1464.7</ele>
        <time>2026-05-14T12:38:02.000Z</time>
      </trkpt>
      <trkpt lat="44.18446" lon="5.27901">
        <ele>1464.6</ele>
        <time>2026-05-14T12:38:03.000Z</time>
      </trkpt>
      <trkpt lat="44.18446" lon="5.27902">
        <ele>1464.3</ele>
        <time>2026-05-14T12:38:04.000Z</time>
      </trkpt>
      <trkpt lat="44.18446" lon="5.27904">
        <ele>1464.3</ele>
        <time>2026-05-14T12:38:05.000Z</time>
      </trkpt>
      <trkpt lat="44.18446" lon="5.27905">
        <ele>1464.5</ele>
        <time>2026-05-14T12:38:06.000Z</time>
      </trkpt>
      <trkpt lat="44.18447" lon="5.27907">
        <ele>1465.1</ele>
        <time>2026-05-14T12:38:07.000Z</time>
      </trkpt>
      <trkpt lat="44.18447" lon="5.27908">
        <ele>1465.2</ele>
        <time>2026-05-14T12:38:08.000Z</time>
      </trkpt>
      <trkpt lat="44.18448" lon="5.27909">
        <ele>1465.3</ele>
        <time>2026-05-14T12:38:09.000Z</time>
      </trkpt>
      <trkpt lat="44.18448" lon="5.2791">
        <ele>1465.6</ele>
        <time>2026-05-14T12:38:10.000Z</time>
      </trkpt>
      <trkpt lat="44.18448" lon="5.27913">
        <ele>1466.1</ele>
        <time>2026-05-14T12:38:11.000Z</time>
      </trkpt>
      <trkpt lat="44.18448" lon="5.27915">
        <ele>1466.2</ele>
        <time>2026-05-14T12:38:12.000Z</time>
      </trkpt>
      <trkpt lat="44.18448" lon="5.27918">
        <ele>1466.3</ele>
        <time>2026-05-14T12:38:13.000Z</time>
      </trkpt>
      <trkpt lat="44.18448" lon="5.2792">
        <ele>1466.9</ele>
        <time>2026-05-14T12:38:14.000Z</time>
      </trkpt>
      <trkpt lat="44.18448" lon="5.27922">
        <ele>1467.1</ele>
        <time>2026-05-14T12:38:15.000Z</time>
      </trkpt>
      <trkpt lat="44.18447" lon="5.27923">
        <ele>1466.6</ele>
        <time>2026-05-14T12:38:16.000Z</time>
      </trkpt>
      <trkpt lat="44.18447" lon="5.27924">
        <ele>1466.8</ele>
        <time>2026-05-14T12:38:17.000Z</time>
      </trkpt>
      <trkpt lat="44.18448" lon="5.27925">
        <ele>1467.2</ele>
        <time>2026-05-14T12:38:18.000Z</time>
      </trkpt>
      <trkpt lat="44.18448" lon="5.27928">
        <ele>1467.5</ele>
        <time>2026-05-14T12:38:19.000Z</time>
      </trkpt>
      <trkpt lat="44.18448" lon="5.2793">
        <ele>1467.6</ele>
        <time>2026-05-14T12:38:20.000Z</time>
      </trkpt>
      <trkpt lat="44.18447" lon="5.27932">
        <ele>1466.4</ele>
        <time>2026-05-14T12:38:21.000Z</time>
      </trkpt>
      <trkpt lat="44.18447" lon="5.27934">
        <ele>1466.2</ele>
        <time>2026-05-14T12:38:22.000Z</time>
      </trkpt>
      <trkpt lat="44.18447" lon="5.27936">
        <ele>1466.4</ele>
        <time>2026-05-14T12:38:23.000Z</time>
      </trkpt>
      <trkpt lat="44.18447" lon="5.27938">
        <ele>1466.4</ele>
        <time>2026-05-14T12:38:24.000Z</time>
      </trkpt>
      <trkpt lat="44.18447" lon="5.27939">
        <ele>1466.6</ele>
        <time>2026-05-14T12:38:25.000Z</time>
      </trkpt>
      <trkpt lat="44.18446" lon="5.27941">
        <ele>1466.7</ele>
        <time>2026-05-14T12:38:26.000Z</time>
      </trkpt>
      <trkpt lat="44.18446" lon="5.27943">
        <ele>1466.6</ele>
        <time>2026-05-14T12:38:27.000Z</time>
      </trkpt>
      <trkpt lat="44.18445" lon="5.27945">
        <ele>1466.6</ele>
        <time>2026-05-14T12:38:28.000Z</time>
      </trkpt>
      <trkpt lat="44.18445" lon="5.27946">
        <ele>1466.5</ele>
        <time>2026-05-14T12:38:29.000Z</time>
      </trkpt>
      <trkpt lat="44.18445" lon="5.27948">
        <ele>1466.7</ele>
        <time>2026-05-14T12:38:30.000Z</time>
      </trkpt>
      <trkpt lat="44.18445" lon="5.27949">
        <ele>1467</ele>
        <time>2026-05-14T12:38:31.000Z</time>
      </trkpt>
      <trkpt lat="44.18445" lon="5.27951">
        <ele>1467.2</ele>
        <time>2026-05-14T12:38:32.000Z</time>
      </trkpt>
      <trkpt lat="44.18445" lon="5.27953">
        <ele>1467.4</ele>
        <time>2026-05-14T12:38:33.000Z</time>
      </trkpt>
      <trkpt lat="44.18445" lon="5.27955">
        <ele>1467.7</ele>
        <time>2026-05-14T12:38:34.000Z</time>
      </trkpt>
      <trkpt lat="44.18445" lon="5.27957">
        <ele>1467.7</ele>
        <time>2026-05-14T12:38:35.000Z</time>
      </trkpt>
      <trkpt lat="44.18446" lon="5.27959">
        <ele>1467.4</ele>
        <time>2026-05-14T12:38:36.000Z</time>
      </trkpt>
      <trkpt lat="44.18447" lon="5.27961">
        <ele>1466.9</ele>
        <time>2026-05-14T12:38:37.000Z</time>
      </trkpt>
      <trkpt lat="44.18446" lon="5.27962">
        <ele>1466.7</ele>
        <time>2026-05-14T12:38:38.000Z</time>
      </trkpt>
      <trkpt lat="44.18447" lon="5.27963">
        <ele>1466.7</ele>
        <time>2026-05-14T12:38:39.000Z</time>
      </trkpt>
      <trkpt lat="44.18447" lon="5.27964">
        <ele>1466.7</ele>
        <time>2026-05-14T12:38:40.000Z</time>
      </trkpt>
      <trkpt lat="44.18447" lon="5.27965">
        <ele>1466.7</ele>
        <time>2026-05-14T12:38:41.000Z</time>
      </trkpt>
      <trkpt lat="44.18446" lon="5.27966">
        <ele>1466.7</ele>
        <time>2026-05-14T12:38:42.000Z</time>
      </trkpt>
      <trkpt lat="44.18446" lon="5.27969">
        <ele>1466.7</ele>
        <time>2026-05-14T12:38:43.000Z</time>
      </trkpt>
      <trkpt lat="44.18446" lon="5.27971">
        <ele>1466.6</ele>
        <time>2026-05-14T12:38:44.000Z</time>
      </trkpt>
      <trkpt lat="44.18446" lon="5.27973">
        <ele>1466.7</ele>
        <time>2026-05-14T12:38:45.000Z</time>
      </trkpt>
      <trkpt lat="44.18446" lon="5.27975">
        <ele>1466.8</ele>
        <time>2026-05-14T12:38:46.000Z</time>
      </trkpt>
      <trkpt lat="44.18447" lon="5.27976">
        <ele>1466.5</ele>
        <time>2026-05-14T12:38:47.000Z</time>
      </trkpt>
      <trkpt lat="44.18447" lon="5.27978">
        <ele>1466.7</ele>
        <time>2026-05-14T12:38:48.000Z</time>
      </trkpt>
      <trkpt lat="44.18448" lon="5.2798">
        <ele>1467</ele>
        <time>2026-05-14T12:38:49.000Z</time>
      </trkpt>
      <trkpt lat="44.18448" lon="5.27981">
        <ele>1467.3</ele>
        <time>2026-05-14T12:38:50.000Z</time>
      </trkpt>
      <trkpt lat="44.18449" lon="5.27983">
        <ele>1467.5</ele>
        <time>2026-05-14T12:38:51.000Z</time>
      </trkpt>
      <trkpt lat="44.18449" lon="5.27984">
        <ele>1467.3</ele>
        <time>2026-05-14T12:38:52.000Z</time>
      </trkpt>
      <trkpt lat="44.18448" lon="5.27985">
        <ele>1466.8</ele>
        <time>2026-05-14T12:38:53.000Z</time>
      </trkpt>
      <trkpt lat="44.18448" lon="5.27986">
        <ele>1466.2</ele>
        <time>2026-05-14T12:38:54.000Z</time>
      </trkpt>
      <trkpt lat="44.18448" lon="5.27988">
        <ele>1465.3</ele>
        <time>2026-05-14T12:38:55.000Z</time>
      </trkpt>
      <trkpt lat="44.18449" lon="5.2799">
        <ele>1464.5</ele>
        <time>2026-05-14T12:38:56.000Z</time>
      </trkpt>
      <trkpt lat="44.18449" lon="5.27992">
        <ele>1464.1</ele>
        <time>2026-05-14T12:38:57.000Z</time>
      </trkpt>
      <trkpt lat="44.1845" lon="5.27994">
        <ele>1463.5</ele>
        <time>2026-05-14T12:38:58.000Z</time>
      </trkpt>
      <trkpt lat="44.18451" lon="5.27997">
        <ele>1463.1</ele>
        <time>2026-05-14T12:38:59.000Z</time>
      </trkpt>
      <trkpt lat="44.18452" lon="5.27999">
        <ele>1462.8</ele>
        <time>2026-05-14T12:39:00.000Z</time>
      </trkpt>
      <trkpt lat="44.18452" lon="5.28001">
        <ele>1462.5</ele>
        <time>2026-05-14T12:39:01.000Z</time>
      </trkpt>
      <trkpt lat="44.18453" lon="5.28003">
        <ele>1462.4</ele>
        <time>2026-05-14T12:39:02.000Z</time>
      </trkpt>
      <trkpt lat="44.18454" lon="5.28004">
        <ele>1462.5</ele>
        <time>2026-05-14T12:39:03.000Z</time>
      </trkpt>
      <trkpt lat="44.18455" lon="5.28005">
        <ele>1462.5</ele>
        <time>2026-05-14T12:39:04.000Z</time>
      </trkpt>
      <trkpt lat="44.18455" lon="5.28007">
        <ele>1462.6</ele>
        <time>2026-05-14T12:39:05.000Z</time>
      </trkpt>
      <trkpt lat="44.18456" lon="5.28008">
        <ele>1462.5</ele>
        <time>2026-05-14T12:39:06.000Z</time>
      </trkpt>
      <trkpt lat="44.18456" lon="5.2801">
        <ele>1462.8</ele>
        <time>2026-05-14T12:39:07.000Z</time>
      </trkpt>
      <trkpt lat="44.18456" lon="5.28011">
        <ele>1462.8</ele>
        <time>2026-05-14T12:39:08.000Z</time>
      </trkpt>
      <trkpt lat="44.18457" lon="5.28012">
        <ele>1462.1</ele>
        <time>2026-05-14T12:39:09.000Z</time>
      </trkpt>
      <trkpt lat="44.18456" lon="5.28012">
        <ele>1461.8</ele>
        <time>2026-05-14T12:39:10.000Z</time>
      </trkpt>
      <trkpt lat="44.18457" lon="5.28013">
        <ele>1462.4</ele>
        <time>2026-05-14T12:39:11.000Z</time>
      </trkpt>
      <trkpt lat="44.18457" lon="5.28014">
        <ele>1462.4</ele>
        <time>2026-05-14T12:39:12.000Z</time>
      </trkpt>
      <trkpt lat="44.18458" lon="5.28016">
        <ele>1462.4</ele>
        <time>2026-05-14T12:39:13.000Z</time>
      </trkpt>
      <trkpt lat="44.18459" lon="5.28019">
        <ele>1462.5</ele>
        <time>2026-05-14T12:39:14.000Z</time>
      </trkpt>
      <trkpt lat="44.1846" lon="5.28021">
        <ele>1462.5</ele>
        <time>2026-05-14T12:39:15.000Z</time>
      </trkpt>
      <trkpt lat="44.1846" lon="5.28024">
        <ele>1462.7</ele>
        <time>2026-05-14T12:39:16.000Z</time>
      </trkpt>
      <trkpt lat="44.18461" lon="5.28026">
        <ele>1462.9</ele>
        <time>2026-05-14T12:39:17.000Z</time>
      </trkpt>
      <trkpt lat="44.18461" lon="5.28028">
        <ele>1463.4</ele>
        <time>2026-05-14T12:39:18.000Z</time>
      </trkpt>
      <trkpt lat="44.18462" lon="5.28029">
        <ele>1463.9</ele>
        <time>2026-05-14T12:39:19.000Z</time>
      </trkpt>
      <trkpt lat="44.18462" lon="5.2803">
        <ele>1464.4</ele>
        <time>2026-05-14T12:39:20.000Z</time>
      </trkpt>
      <trkpt lat="44.18463" lon="5.28031">
        <ele>1464.8</ele>
        <time>2026-05-14T12:39:21.000Z</time>
      </trkpt>
      <trkpt lat="44.18463" lon="5.28032">
        <ele>1465.1</ele>
        <time>2026-05-14T12:39:22.000Z</time>
      </trkpt>
      <trkpt lat="44.18463" lon="5.28033">
        <ele>1465.2</ele>
        <time>2026-05-14T12:39:23.000Z</time>
      </trkpt>
      <trkpt lat="44.18463" lon="5.28035">
        <ele>1465.2</ele>
        <time>2026-05-14T12:39:24.000Z</time>
      </trkpt>
      <trkpt lat="44.18463" lon="5.28037">
        <ele>1465.6</ele>
        <time>2026-05-14T12:39:25.000Z</time>
      </trkpt>
      <trkpt lat="44.18463" lon="5.2804">
        <ele>1465.9</ele>
        <time>2026-05-14T12:39:26.000Z</time>
      </trkpt>
      <trkpt lat="44.18464" lon="5.28042">
        <ele>1466.3</ele>
        <time>2026-05-14T12:39:27.000Z</time>
      </trkpt>
      <trkpt lat="44.18464" lon="5.28044">
        <ele>1466.7</ele>
        <time>2026-05-14T12:39:28.000Z</time>
      </trkpt>
      <trkpt lat="44.18465" lon="5.28045">
        <ele>1467.1</ele>
        <time>2026-05-14T12:39:29.000Z</time>
      </trkpt>
      <trkpt lat="44.18466" lon="5.28047">
        <ele>1467.2</ele>
        <time>2026-05-14T12:39:30.000Z</time>
      </trkpt>
      <trkpt lat="44.18467" lon="5.28047">
        <ele>1467.2</ele>
        <time>2026-05-14T12:39:31.000Z</time>
      </trkpt>
      <trkpt lat="44.18467" lon="5.28048">
        <ele>1466.9</ele>
        <time>2026-05-14T12:39:32.000Z</time>
      </trkpt>
      <trkpt lat="44.18468" lon="5.2805">
        <ele>1466.7</ele>
        <time>2026-05-14T12:39:33.000Z</time>
      </trkpt>
      <trkpt lat="44.18468" lon="5.28051">
        <ele>1466.1</ele>
        <time>2026-05-14T12:39:34.000Z</time>
      </trkpt>
      <trkpt lat="44.18469" lon="5.28053">
        <ele>1465.7</ele>
        <time>2026-05-14T12:39:35.000Z</time>
      </trkpt>
      <trkpt lat="44.1847" lon="5.28054">
        <ele>1465.4</ele>
        <time>2026-05-14T12:39:36.000Z</time>
      </trkpt>
      <trkpt lat="44.18471" lon="5.28056">
        <ele>1465.6</ele>
        <time>2026-05-14T12:39:37.000Z</time>
      </trkpt>
      <trkpt lat="44.18471" lon="5.28057">
        <ele>1466</ele>
        <time>2026-05-14T12:39:38.000Z</time>
      </trkpt>
      <trkpt lat="44.18472" lon="5.28059">
        <ele>1466.6</ele>
        <time>2026-05-14T12:39:39.000Z</time>
      </trkpt>
      <trkpt lat="44.18472" lon="5.2806">
        <ele>1467.1</ele>
        <time>2026-05-14T12:39:40.000Z</time>
      </trkpt>
      <trkpt lat="44.18473" lon="5.28062">
        <ele>1467.7</ele>
        <time>2026-05-14T12:39:41.000Z</time>
      </trkpt>
      <trkpt lat="44.18474" lon="5.28063">
        <ele>1468.1</ele>
        <time>2026-05-14T12:39:42.000Z</time>
      </trkpt>
      <trkpt lat="44.18475" lon="5.28065">
        <ele>1468.4</ele>
        <time>2026-05-14T12:39:43.000Z</time>
      </trkpt>
      <trkpt lat="44.18475" lon="5.28066">
        <ele>1468.3</ele>
        <time>2026-05-14T12:39:44.000Z</time>
      </trkpt>
      <trkpt lat="44.18474" lon="5.28067">
        <ele>1468.2</ele>
        <time>2026-05-14T12:39:45.000Z</time>
      </trkpt>
      <trkpt lat="44.18474" lon="5.28069">
        <ele>1467.8</ele>
        <time>2026-05-14T12:39:46.000Z</time>
      </trkpt>
      <trkpt lat="44.18474" lon="5.2807">
        <ele>1467.8</ele>
        <time>2026-05-14T12:39:47.000Z</time>
      </trkpt>
      <trkpt lat="44.18475" lon="5.28072">
        <ele>1467.9</ele>
        <time>2026-05-14T12:39:48.000Z</time>
      </trkpt>
      <trkpt lat="44.18476" lon="5.28074">
        <ele>1468</ele>
        <time>2026-05-14T12:39:49.000Z</time>
      </trkpt>
      <trkpt lat="44.18477" lon="5.28075">
        <ele>1467.9</ele>
        <time>2026-05-14T12:39:50.000Z</time>
      </trkpt>
      <trkpt lat="44.18478" lon="5.28077">
        <ele>1467.9</ele>
        <time>2026-05-14T12:39:51.000Z</time>
      </trkpt>
      <trkpt lat="44.18479" lon="5.28078">
        <ele>1467.9</ele>
        <time>2026-05-14T12:39:52.000Z</time>
      </trkpt>
      <trkpt lat="44.18479" lon="5.28079">
        <ele>1468</ele>
        <time>2026-05-14T12:39:53.000Z</time>
      </trkpt>
      <trkpt lat="44.18479" lon="5.28081">
        <ele>1467.3</ele>
        <time>2026-05-14T12:39:54.000Z</time>
      </trkpt>
      <trkpt lat="44.1848" lon="5.28083">
        <ele>1467</ele>
        <time>2026-05-14T12:39:55.000Z</time>
      </trkpt>
      <trkpt lat="44.1848" lon="5.28084">
        <ele>1466.4</ele>
        <time>2026-05-14T12:39:56.000Z</time>
      </trkpt>
      <trkpt lat="44.18482" lon="5.28087">
        <ele>1466.1</ele>
        <time>2026-05-14T12:39:57.000Z</time>
      </trkpt>
      <trkpt lat="44.18483" lon="5.28089">
        <ele>1466.2</ele>
        <time>2026-05-14T12:39:58.000Z</time>
      </trkpt>
      <trkpt lat="44.18484" lon="5.2809">
        <ele>1466.3</ele>
        <time>2026-05-14T12:39:59.000Z</time>
      </trkpt>
      <trkpt lat="44.18483" lon="5.28091">
        <ele>1466</ele>
        <time>2026-05-14T12:40:00.000Z</time>
      </trkpt>
      <trkpt lat="44.18483" lon="5.28093">
        <ele>1465.9</ele>
        <time>2026-05-14T12:40:01.000Z</time>
      </trkpt>
      <trkpt lat="44.18483" lon="5.28096">
        <ele>1466</ele>
        <time>2026-05-14T12:40:02.000Z</time>
      </trkpt>
      <trkpt lat="44.18484" lon="5.28098">
        <ele>1465.7</ele>
        <time>2026-05-14T12:40:03.000Z</time>
      </trkpt>
      <trkpt lat="44.18484" lon="5.281">
        <ele>1465.6</ele>
        <time>2026-05-14T12:40:04.000Z</time>
      </trkpt>
      <trkpt lat="44.18484" lon="5.28102">
        <ele>1465.5</ele>
        <time>2026-05-14T12:40:05.000Z</time>
      </trkpt>
      <trkpt lat="44.18485" lon="5.28103">
        <ele>1465.3</ele>
        <time>2026-05-14T12:40:06.000Z</time>
      </trkpt>
      <trkpt lat="44.18486" lon="5.28105">
        <ele>1465.5</ele>
        <time>2026-05-14T12:40:07.000Z</time>
      </trkpt>
      <trkpt lat="44.18487" lon="5.28106">
        <ele>1465.2</ele>
        <time>2026-05-14T12:40:08.000Z</time>
      </trkpt>
      <trkpt lat="44.18487" lon="5.28106">
        <ele>1465.1</ele>
        <time>2026-05-14T12:40:09.000Z</time>
      </trkpt>
      <trkpt lat="44.18488" lon="5.28107">
        <ele>1465.4</ele>
        <time>2026-05-14T12:40:10.000Z</time>
      </trkpt>
      <trkpt lat="44.18489" lon="5.28108">
        <ele>1465.5</ele>
        <time>2026-05-14T12:40:11.000Z</time>
      </trkpt>
      <trkpt lat="44.18489" lon="5.28109">
        <ele>1465.3</ele>
        <time>2026-05-14T12:40:12.000Z</time>
      </trkpt>
      <trkpt lat="44.1849" lon="5.28111">
        <ele>1465</ele>
        <time>2026-05-14T12:40:13.000Z</time>
      </trkpt>
      <trkpt lat="44.1849" lon="5.28113">
        <ele>1464.7</ele>
        <time>2026-05-14T12:40:14.000Z</time>
      </trkpt>
      <trkpt lat="44.1849" lon="5.28116">
        <ele>1465</ele>
        <time>2026-05-14T12:40:15.000Z</time>
      </trkpt>
      <trkpt lat="44.18491" lon="5.28119">
        <ele>1465.1</ele>
        <time>2026-05-14T12:40:16.000Z</time>
      </trkpt>
      <trkpt lat="44.18492" lon="5.2812">
        <ele>1465.3</ele>
        <time>2026-05-14T12:40:17.000Z</time>
      </trkpt>
      <trkpt lat="44.18493" lon="5.28122">
        <ele>1465.4</ele>
        <time>2026-05-14T12:40:18.000Z</time>
      </trkpt>
      <trkpt lat="44.18494" lon="5.28124">
        <ele>1465.4</ele>
        <time>2026-05-14T12:40:19.000Z</time>
      </trkpt>
      <trkpt lat="44.18495" lon="5.28126">
        <ele>1465</ele>
        <time>2026-05-14T12:40:20.000Z</time>
      </trkpt>
      <trkpt lat="44.18496" lon="5.28127">
        <ele>1465</ele>
        <time>2026-05-14T12:40:21.000Z</time>
      </trkpt>
      <trkpt lat="44.18496" lon="5.28128">
        <ele>1464.7</ele>
        <time>2026-05-14T12:40:22.000Z</time>
      </trkpt>
      <trkpt lat="44.18497" lon="5.2813">
        <ele>1464.8</ele>
        <time>2026-05-14T12:40:23.000Z</time>
      </trkpt>
      <trkpt lat="44.18497" lon="5.28131">
        <ele>1464.7</ele>
        <time>2026-05-14T12:40:24.000Z</time>
      </trkpt>
      <trkpt lat="44.18496" lon="5.28133">
        <ele>1464.4</ele>
        <time>2026-05-14T12:40:25.000Z</time>
      </trkpt>
      <trkpt lat="44.18497" lon="5.28134">
        <ele>1463.8</ele>
        <time>2026-05-14T12:40:26.000Z</time>
      </trkpt>
      <trkpt lat="44.18497" lon="5.28136">
        <ele>1463</ele>
        <time>2026-05-14T12:40:27.000Z</time>
      </trkpt>
      <trkpt lat="44.18498" lon="5.28139">
        <ele>1462.8</ele>
        <time>2026-05-14T12:40:28.000Z</time>
      </trkpt>
      <trkpt lat="44.18498" lon="5.2814">
        <ele>1462.3</ele>
        <time>2026-05-14T12:40:29.000Z</time>
      </trkpt>
      <trkpt lat="44.18499" lon="5.28142">
        <ele>1462.1</ele>
        <time>2026-05-14T12:40:30.000Z</time>
      </trkpt>
      <trkpt lat="44.18501" lon="5.28143">
        <ele>1462.2</ele>
        <time>2026-05-14T12:40:31.000Z</time>
      </trkpt>
      <trkpt lat="44.18501" lon="5.28144">
        <ele>1461.8</ele>
        <time>2026-05-14T12:40:32.000Z</time>
      </trkpt>
      <trkpt lat="44.18503" lon="5.28145">
        <ele>1461.7</ele>
        <time>2026-05-14T12:40:33.000Z</time>
      </trkpt>
      <trkpt lat="44.18504" lon="5.28147">
        <ele>1461.5</ele>
        <time>2026-05-14T12:40:34.000Z</time>
      </trkpt>
      <trkpt lat="44.18505" lon="5.28149">
        <ele>1461.2</ele>
        <time>2026-05-14T12:40:35.000Z</time>
      </trkpt>
      <trkpt lat="44.18507" lon="5.2815">
        <ele>1460.8</ele>
        <time>2026-05-14T12:40:36.000Z</time>
      </trkpt>
      <trkpt lat="44.18508" lon="5.2815">
        <ele>1460.8</ele>
        <time>2026-05-14T12:40:37.000Z</time>
      </trkpt>
      <trkpt lat="44.18509" lon="5.28151">
        <ele>1460.6</ele>
        <time>2026-05-14T12:40:38.000Z</time>
      </trkpt>
      <trkpt lat="44.18509" lon="5.28152">
        <ele>1460.5</ele>
        <time>2026-05-14T12:40:39.000Z</time>
      </trkpt>
      <trkpt lat="44.18509" lon="5.28154">
        <ele>1460.5</ele>
        <time>2026-05-14T12:40:40.000Z</time>
      </trkpt>
      <trkpt lat="44.18509" lon="5.28155">
        <ele>1461.9</ele>
        <time>2026-05-14T12:40:41.000Z</time>
      </trkpt>
      <trkpt lat="44.1851" lon="5.28156">
        <ele>1462.1</ele>
        <time>2026-05-14T12:40:42.000Z</time>
      </trkpt>
      <trkpt lat="44.1851" lon="5.28157">
        <ele>1462.3</ele>
        <time>2026-05-14T12:40:43.000Z</time>
      </trkpt>
      <trkpt lat="44.1851" lon="5.28158">
        <ele>1462.4</ele>
        <time>2026-05-14T12:40:44.000Z</time>
      </trkpt>
      <trkpt lat="44.18509" lon="5.28159">
        <ele>1462</ele>
        <time>2026-05-14T12:40:45.000Z</time>
      </trkpt>
      <trkpt lat="44.18509" lon="5.2816">
        <ele>1461.9</ele>
        <time>2026-05-14T12:40:46.000Z</time>
      </trkpt>
      <trkpt lat="44.18508" lon="5.28162">
        <ele>1461.4</ele>
        <time>2026-05-14T12:40:47.000Z</time>
      </trkpt>
      <trkpt lat="44.18508" lon="5.28164">
        <ele>1461.2</ele>
        <time>2026-05-14T12:40:48.000Z</time>
      </trkpt>
      <trkpt lat="44.18508" lon="5.28164">
        <ele>1460.6</ele>
        <time>2026-05-14T12:40:49.000Z</time>
      </trkpt>
      <trkpt lat="44.18506" lon="5.28165">
        <ele>1460.4</ele>
        <time>2026-05-14T12:40:50.000Z</time>
      </trkpt>
      <trkpt lat="44.18505" lon="5.28165">
        <ele>1460.1</ele>
        <time>2026-05-14T12:40:51.000Z</time>
      </trkpt>
      <trkpt lat="44.18505" lon="5.28165">
        <ele>1460.3</ele>
        <time>2026-05-14T12:40:52.000Z</time>
      </trkpt>
      <trkpt lat="44.18505" lon="5.28165">
        <ele>1459.8</ele>
        <time>2026-05-14T12:40:53.000Z</time>
      </trkpt>
      <trkpt lat="44.18505" lon="5.28165">
        <ele>1459.2</ele>
        <time>2026-05-14T12:40:54.000Z</time>
      </trkpt>
      <trkpt lat="44.18505" lon="5.28165">
        <ele>1459.2</ele>
        <time>2026-05-14T12:40:55.000Z</time>
      </trkpt>
      <trkpt lat="44.18505" lon="5.28165">
        <ele>1458.8</ele>
        <time>2026-05-14T12:40:56.000Z</time>
      </trkpt>
      <trkpt lat="44.18506" lon="5.28163">
        <ele>1458</ele>
        <time>2026-05-14T12:40:57.000Z</time>
      </trkpt>
      <trkpt lat="44.18506" lon="5.28162">
        <ele>1457.1</ele>
        <time>2026-05-14T12:40:58.000Z</time>
      </trkpt>
      <trkpt lat="44.18506" lon="5.2816">
        <ele>1456.3</ele>
        <time>2026-05-14T12:40:59.000Z</time>
      </trkpt>
      <trkpt lat="44.18506" lon="5.28158">
        <ele>1455.9</ele>
        <time>2026-05-14T12:41:00.000Z</time>
      </trkpt>
      <trkpt lat="44.18505" lon="5.28155">
        <ele>1455.4</ele>
        <time>2026-05-14T12:41:01.000Z</time>
      </trkpt>
      <trkpt lat="44.18505" lon="5.28155">
        <ele>1455.2</ele>
        <time>2026-05-14T12:41:02.000Z</time>
      </trkpt>
      <trkpt lat="44.18504" lon="5.28154">
        <ele>1453.9</ele>
        <time>2026-05-14T12:41:03.000Z</time>
      </trkpt>
      <trkpt lat="44.18504" lon="5.28153">
        <ele>1453.4</ele>
        <time>2026-05-14T12:41:04.000Z</time>
      </trkpt>
      <trkpt lat="44.18504" lon="5.28153">
        <ele>1452.7</ele>
        <time>2026-05-14T12:41:05.000Z</time>
      </trkpt>
      <trkpt lat="44.18503" lon="5.28151">
        <ele>1452</ele>
        <time>2026-05-14T12:41:06.000Z</time>
      </trkpt>
      <trkpt lat="44.18502" lon="5.28151">
        <ele>1451.6</ele>
        <time>2026-05-14T12:41:07.000Z</time>
      </trkpt>
      <trkpt lat="44.18501" lon="5.2815">
        <ele>1451.2</ele>
        <time>2026-05-14T12:41:08.000Z</time>
      </trkpt>
      <trkpt lat="44.18501" lon="5.28151">
        <ele>1451.2</ele>
        <time>2026-05-14T12:41:09.000Z</time>
      </trkpt>
      <trkpt lat="44.185" lon="5.28151">
        <ele>1450.8</ele>
        <time>2026-05-14T12:41:10.000Z</time>
      </trkpt>
      <trkpt lat="44.18499" lon="5.28152">
        <ele>1450.5</ele>
        <time>2026-05-14T12:41:11.000Z</time>
      </trkpt>
      <trkpt lat="44.18498" lon="5.28151">
        <ele>1450.1</ele>
        <time>2026-05-14T12:41:12.000Z</time>
      </trkpt>
      <trkpt lat="44.18497" lon="5.28151">
        <ele>1449.3</ele>
        <time>2026-05-14T12:41:13.000Z</time>
      </trkpt>
      <trkpt lat="44.18496" lon="5.2815">
        <ele>1449</ele>
        <time>2026-05-14T12:41:14.000Z</time>
      </trkpt>
      <trkpt lat="44.18495" lon="5.2815">
        <ele>1448.6</ele>
        <time>2026-05-14T12:41:15.000Z</time>
      </trkpt>
      <trkpt lat="44.18494" lon="5.2815">
        <ele>1448.5</ele>
        <time>2026-05-14T12:41:16.000Z</time>
      </trkpt>
      <trkpt lat="44.18493" lon="5.28151">
        <ele>1448.6</ele>
        <time>2026-05-14T12:41:17.000Z</time>
      </trkpt>
      <trkpt lat="44.18492" lon="5.28151">
        <ele>1448.5</ele>
        <time>2026-05-14T12:41:18.000Z</time>
      </trkpt>
      <trkpt lat="44.18491" lon="5.28151">
        <ele>1448.2</ele>
        <time>2026-05-14T12:41:19.000Z</time>
      </trkpt>
      <trkpt lat="44.18489" lon="5.28151">
        <ele>1448.2</ele>
        <time>2026-05-14T12:41:20.000Z</time>
      </trkpt>
      <trkpt lat="44.18488" lon="5.28151">
        <ele>1448.3</ele>
        <time>2026-05-14T12:41:21.000Z</time>
      </trkpt>
      <trkpt lat="44.18487" lon="5.2815">
        <ele>1448.2</ele>
        <time>2026-05-14T12:41:22.000Z</time>
      </trkpt>
      <trkpt lat="44.18486" lon="5.2815">
        <ele>1447.9</ele>
        <time>2026-05-14T12:41:23.000Z</time>
      </trkpt>
      <trkpt lat="44.18485" lon="5.28149">
        <ele>1447.6</ele>
        <time>2026-05-14T12:41:24.000Z</time>
      </trkpt>
      <trkpt lat="44.18484" lon="5.28149">
        <ele>1447.6</ele>
        <time>2026-05-14T12:41:25.000Z</time>
      </trkpt>
      <trkpt lat="44.18483" lon="5.28149">
        <ele>1448.6</ele>
        <time>2026-05-14T12:41:26.000Z</time>
      </trkpt>
      <trkpt lat="44.18483" lon="5.28149">
        <ele>1448</ele>
        <time>2026-05-14T12:41:27.000Z</time>
      </trkpt>
      <trkpt lat="44.18483" lon="5.28149">
        <ele>1447.7</ele>
        <time>2026-05-14T12:41:29.000Z</time>
      </trkpt>
      <trkpt lat="44.18483" lon="5.28149">
        <ele>1447.8</ele>
        <time>2026-05-14T12:41:30.000Z</time>
      </trkpt>
      <trkpt lat="44.18483" lon="5.28149">
        <ele>1447.6</ele>
        <time>2026-05-14T12:41:31.000Z</time>
      </trkpt>
      <trkpt lat="44.18483" lon="5.28149">
        <ele>1447.6</ele>
        <time>2026-05-14T12:41:32.000Z</time>
      </trkpt>
      <trkpt lat="44.18482" lon="5.28148">
        <ele>1447.5</ele>
        <time>2026-05-14T12:41:33.000Z</time>
      </trkpt>
      <trkpt lat="44.18482" lon="5.28148">
        <ele>1447.5</ele>
        <time>2026-05-14T12:41:34.000Z</time>
      </trkpt>
      <trkpt lat="44.18482" lon="5.28148">
        <ele>1447.4</ele>
        <time>2026-05-14T12:41:35.000Z</time>
      </trkpt>
      <trkpt lat="44.18482" lon="5.28148">
        <ele>1447.6</ele>
        <time>2026-05-14T12:41:36.000Z</time>
      </trkpt>
      <trkpt lat="44.1848" lon="5.28147">
        <ele>1448</ele>
        <time>2026-05-14T12:41:37.000Z</time>
      </trkpt>
      <trkpt lat="44.1848" lon="5.28147">
        <ele>1448</ele>
        <time>2026-05-14T12:41:38.000Z</time>
      </trkpt>
      <trkpt lat="44.18479" lon="5.28146">
        <ele>1448</ele>
        <time>2026-05-14T12:41:39.000Z</time>
      </trkpt>
      <trkpt lat="44.18478" lon="5.28146">
        <ele>1447.8</ele>
        <time>2026-05-14T12:41:40.000Z</time>
      </trkpt>
      <trkpt lat="44.18478" lon="5.28146">
        <ele>1447.6</ele>
        <time>2026-05-14T12:41:41.000Z</time>
      </trkpt>
      <trkpt lat="44.18478" lon="5.28146">
        <ele>1447.5</ele>
        <time>2026-05-14T12:41:42.000Z</time>
      </trkpt>
      <trkpt lat="44.18478" lon="5.28145">
        <ele>1447.7</ele>
        <time>2026-05-14T12:41:43.000Z</time>
      </trkpt>
      <trkpt lat="44.18478" lon="5.28145">
        <ele>1447.7</ele>
        <time>2026-05-14T12:41:44.000Z</time>
      </trkpt>
      <trkpt lat="44.18478" lon="5.28145">
        <ele>1447.9</ele>
        <time>2026-05-14T12:41:45.000Z</time>
      </trkpt>
      <trkpt lat="44.18475" lon="5.28145">
        <ele>1447.7</ele>
        <time>2026-05-14T12:41:46.000Z</time>
      </trkpt>
      <trkpt lat="44.18472" lon="5.28145">
        <ele>1447.6</ele>
        <time>2026-05-14T12:41:47.000Z</time>
      </trkpt>
      <trkpt lat="44.18471" lon="5.28145">
        <ele>1447.3</ele>
        <time>2026-05-14T12:41:48.000Z</time>
      </trkpt>
      <trkpt lat="44.1847" lon="5.28145">
        <ele>1446.8</ele>
        <time>2026-05-14T12:41:49.000Z</time>
      </trkpt>
      <trkpt lat="44.18469" lon="5.28144">
        <ele>1446.5</ele>
        <time>2026-05-14T12:41:50.000Z</time>
      </trkpt>
      <trkpt lat="44.18468" lon="5.28145">
        <ele>1446</ele>
        <time>2026-05-14T12:41:51.000Z</time>
      </trkpt>
      <trkpt lat="44.18468" lon="5.28146">
        <ele>1445.4</ele>
        <time>2026-05-14T12:41:52.000Z</time>
      </trkpt>
      <trkpt lat="44.18468" lon="5.28146">
        <ele>1445.5</ele>
        <time>2026-05-14T12:41:53.000Z</time>
      </trkpt>
      <trkpt lat="44.18468" lon="5.28147">
        <ele>1445.5</ele>
        <time>2026-05-14T12:41:54.000Z</time>
      </trkpt>
      <trkpt lat="44.18469" lon="5.28148">
        <ele>1445.7</ele>
        <time>2026-05-14T12:41:55.000Z</time>
      </trkpt>
      <trkpt lat="44.18469" lon="5.28148">
        <ele>1445.9</ele>
        <time>2026-05-14T12:41:56.000Z</time>
      </trkpt>
      <trkpt lat="44.18469" lon="5.28149">
        <ele>1445.9</ele>
        <time>2026-05-14T12:41:57.000Z</time>
      </trkpt>
      <trkpt lat="44.1847" lon="5.2815">
        <ele>1445.9</ele>
        <time>2026-05-14T12:41:58.000Z</time>
      </trkpt>
      <trkpt lat="44.1847" lon="5.28151">
        <ele>1445.6</ele>
        <time>2026-05-14T12:41:59.000Z</time>
      </trkpt>
      <trkpt lat="44.1847" lon="5.28151">
        <ele>1445.5</ele>
        <time>2026-05-14T12:42:00.000Z</time>
      </trkpt>
      <trkpt lat="44.18471" lon="5.2815">
        <ele>1445.3</ele>
        <time>2026-05-14T12:42:01.000Z</time>
      </trkpt>
      <trkpt lat="44.18471" lon="5.2815">
        <ele>1444.9</ele>
        <time>2026-05-14T12:42:02.000Z</time>
      </trkpt>
      <trkpt lat="44.18472" lon="5.28151">
        <ele>1444.9</ele>
        <time>2026-05-14T12:42:03.000Z</time>
      </trkpt>
      <trkpt lat="44.18472" lon="5.28152">
        <ele>1444.8</ele>
        <time>2026-05-14T12:42:04.000Z</time>
      </trkpt>
      <trkpt lat="44.18472" lon="5.28152">
        <ele>1444.9</ele>
        <time>2026-05-14T12:42:05.000Z</time>
      </trkpt>
      <trkpt lat="44.18474" lon="5.28154">
        <ele>1444.8</ele>
        <time>2026-05-14T12:42:06.000Z</time>
      </trkpt>
      <trkpt lat="44.18475" lon="5.28156">
        <ele>1444.5</ele>
        <time>2026-05-14T12:42:07.000Z</time>
      </trkpt>
      <trkpt lat="44.18476" lon="5.28159">
        <ele>1444.7</ele>
        <time>2026-05-14T12:42:08.000Z</time>
      </trkpt>
      <trkpt lat="44.18477" lon="5.28161">
        <ele>1445.3</ele>
        <time>2026-05-14T12:42:09.000Z</time>
      </trkpt>
      <trkpt lat="44.18478" lon="5.28164">
        <ele>1445.5</ele>
        <time>2026-05-14T12:42:10.000Z</time>
      </trkpt>
      <trkpt lat="44.18479" lon="5.28166">
        <ele>1445.4</ele>
        <time>2026-05-14T12:42:11.000Z</time>
      </trkpt>
      <trkpt lat="44.1848" lon="5.28167">
        <ele>1445.3</ele>
        <time>2026-05-14T12:42:12.000Z</time>
      </trkpt>
      <trkpt lat="44.18481" lon="5.28167">
        <ele>1444.5</ele>
        <time>2026-05-14T12:42:13.000Z</time>
      </trkpt>
      <trkpt lat="44.18481" lon="5.28167">
        <ele>1444.1</ele>
        <time>2026-05-14T12:42:14.000Z</time>
      </trkpt>
      <trkpt lat="44.18482" lon="5.28168">
        <ele>1443.6</ele>
        <time>2026-05-14T12:42:15.000Z</time>
      </trkpt>
      <trkpt lat="44.18483" lon="5.28169">
        <ele>1443.1</ele>
        <time>2026-05-14T12:42:16.000Z</time>
      </trkpt>
      <trkpt lat="44.18484" lon="5.2817">
        <ele>1442.1</ele>
        <time>2026-05-14T12:42:17.000Z</time>
      </trkpt>
      <trkpt lat="44.18484" lon="5.28173">
        <ele>1441.9</ele>
        <time>2026-05-14T12:42:18.000Z</time>
      </trkpt>
      <trkpt lat="44.18485" lon="5.28176">
        <ele>1442</ele>
        <time>2026-05-14T12:42:19.000Z</time>
      </trkpt>
      <trkpt lat="44.18485" lon="5.28178">
        <ele>1441.8</ele>
        <time>2026-05-14T12:42:20.000Z</time>
      </trkpt>
      <trkpt lat="44.18485" lon="5.2818">
        <ele>1441.7</ele>
        <time>2026-05-14T12:42:21.000Z</time>
      </trkpt>
      <trkpt lat="44.18486" lon="5.28181">
        <ele>1442.2</ele>
        <time>2026-05-14T12:42:22.000Z</time>
      </trkpt>
      <trkpt lat="44.18486" lon="5.28183">
        <ele>1443.1</ele>
        <time>2026-05-14T12:42:23.000Z</time>
      </trkpt>
      <trkpt lat="44.18486" lon="5.28185">
        <ele>1443.9</ele>
        <time>2026-05-14T12:42:24.000Z</time>
      </trkpt>
      <trkpt lat="44.18487" lon="5.28187">
        <ele>1444.1</ele>
        <time>2026-05-14T12:42:25.000Z</time>
      </trkpt>
      <trkpt lat="44.18488" lon="5.2819">
        <ele>1444.4</ele>
        <time>2026-05-14T12:42:26.000Z</time>
      </trkpt>
      <trkpt lat="44.18488" lon="5.28192">
        <ele>1444.6</ele>
        <time>2026-05-14T12:42:27.000Z</time>
      </trkpt>
      <trkpt lat="44.18489" lon="5.28193">
        <ele>1444.6</ele>
        <time>2026-05-14T12:42:28.000Z</time>
      </trkpt>
      <trkpt lat="44.18489" lon="5.28195">
        <ele>1444.3</ele>
        <time>2026-05-14T12:42:29.000Z</time>
      </trkpt>
      <trkpt lat="44.1849" lon="5.28197">
        <ele>1444</ele>
        <time>2026-05-14T12:42:30.000Z</time>
      </trkpt>
      <trkpt lat="44.1849" lon="5.28199">
        <ele>1444.3</ele>
        <time>2026-05-14T12:42:31.000Z</time>
      </trkpt>
      <trkpt lat="44.1849" lon="5.28201">
        <ele>1444.6</ele>
        <time>2026-05-14T12:42:32.000Z</time>
      </trkpt>
      <trkpt lat="44.1849" lon="5.28203">
        <ele>1444.4</ele>
        <time>2026-05-14T12:42:33.000Z</time>
      </trkpt>
      <trkpt lat="44.18489" lon="5.28205">
        <ele>1444.4</ele>
        <time>2026-05-14T12:42:34.000Z</time>
      </trkpt>
      <trkpt lat="44.18489" lon="5.28206">
        <ele>1444.3</ele>
        <time>2026-05-14T12:42:35.000Z</time>
      </trkpt>
      <trkpt lat="44.1849" lon="5.28207">
        <ele>1443.6</ele>
        <time>2026-05-14T12:42:36.000Z</time>
      </trkpt>
      <trkpt lat="44.18491" lon="5.28208">
        <ele>1442.5</ele>
        <time>2026-05-14T12:42:37.000Z</time>
      </trkpt>
      <trkpt lat="44.18491" lon="5.28209">
        <ele>1441.7</ele>
        <time>2026-05-14T12:42:38.000Z</time>
      </trkpt>
      <trkpt lat="44.18491" lon="5.2821">
        <ele>1440.5</ele>
        <time>2026-05-14T12:42:39.000Z</time>
      </trkpt>
      <trkpt lat="44.18492" lon="5.2821">
        <ele>1439.5</ele>
        <time>2026-05-14T12:42:40.000Z</time>
      </trkpt>
      <trkpt lat="44.18493" lon="5.28212">
        <ele>1438.2</ele>
        <time>2026-05-14T12:42:41.000Z</time>
      </trkpt>
      <trkpt lat="44.18494" lon="5.28214">
        <ele>1437.6</ele>
        <time>2026-05-14T12:42:42.000Z</time>
      </trkpt>
      <trkpt lat="44.18494" lon="5.28217">
        <ele>1437.1</ele>
        <time>2026-05-14T12:42:43.000Z</time>
      </trkpt>
      <trkpt lat="44.18494" lon="5.28218">
        <ele>1437.3</ele>
        <time>2026-05-14T12:42:44.000Z</time>
      </trkpt>
      <trkpt lat="44.18494" lon="5.2822">
        <ele>1437.5</ele>
        <time>2026-05-14T12:42:45.000Z</time>
      </trkpt>
      <trkpt lat="44.18495" lon="5.28221">
        <ele>1438</ele>
        <time>2026-05-14T12:42:46.000Z</time>
      </trkpt>
      <trkpt lat="44.18496" lon="5.28222">
        <ele>1438</ele>
        <time>2026-05-14T12:42:47.000Z</time>
      </trkpt>
      <trkpt lat="44.18497" lon="5.28225">
        <ele>1437.9</ele>
        <time>2026-05-14T12:42:48.000Z</time>
      </trkpt>
      <trkpt lat="44.18498" lon="5.28226">
        <ele>1437.3</ele>
        <time>2026-05-14T12:42:49.000Z</time>
      </trkpt>
      <trkpt lat="44.18499" lon="5.28228">
        <ele>1437.9</ele>
        <time>2026-05-14T12:42:50.000Z</time>
      </trkpt>
      <trkpt lat="44.185" lon="5.2823">
        <ele>1437.7</ele>
        <time>2026-05-14T12:42:51.000Z</time>
      </trkpt>
      <trkpt lat="44.18501" lon="5.2823">
        <ele>1437.6</ele>
        <time>2026-05-14T12:42:52.000Z</time>
      </trkpt>
      <trkpt lat="44.18502" lon="5.2823">
        <ele>1437.4</ele>
        <time>2026-05-14T12:42:53.000Z</time>
      </trkpt>
      <trkpt lat="44.18503" lon="5.2823">
        <ele>1436.9</ele>
        <time>2026-05-14T12:42:54.000Z</time>
      </trkpt>
      <trkpt lat="44.18503" lon="5.2823">
        <ele>1436.8</ele>
        <time>2026-05-14T12:42:55.000Z</time>
      </trkpt>
      <trkpt lat="44.18504" lon="5.28231">
        <ele>1437</ele>
        <time>2026-05-14T12:42:56.000Z</time>
      </trkpt>
      <trkpt lat="44.18504" lon="5.28232">
        <ele>1437.4</ele>
        <time>2026-05-14T12:42:57.000Z</time>
      </trkpt>
      <trkpt lat="44.18504" lon="5.28232">
        <ele>1437.2</ele>
        <time>2026-05-14T12:42:58.000Z</time>
      </trkpt>
      <trkpt lat="44.18505" lon="5.28232">
        <ele>1437.4</ele>
        <time>2026-05-14T12:42:59.000Z</time>
      </trkpt>
      <trkpt lat="44.18506" lon="5.28233">
        <ele>1437.8</ele>
        <time>2026-05-14T12:43:00.000Z</time>
      </trkpt>
      <trkpt lat="44.18506" lon="5.28233">
        <ele>1437.6</ele>
        <time>2026-05-14T12:43:01.000Z</time>
      </trkpt>
      <trkpt lat="44.18507" lon="5.28234">
        <ele>1437.6</ele>
        <time>2026-05-14T12:43:02.000Z</time>
      </trkpt>
      <trkpt lat="44.18507" lon="5.28234">
        <ele>1437.8</ele>
        <time>2026-05-14T12:43:03.000Z</time>
      </trkpt>
      <trkpt lat="44.18508" lon="5.28235">
        <ele>1437.4</ele>
        <time>2026-05-14T12:43:04.000Z</time>
      </trkpt>
      <trkpt lat="44.18509" lon="5.28236">
        <ele>1437.6</ele>
        <time>2026-05-14T12:43:05.000Z</time>
      </trkpt>
      <trkpt lat="44.1851" lon="5.28237">
        <ele>1437.4</ele>
        <time>2026-05-14T12:43:06.000Z</time>
      </trkpt>
      <trkpt lat="44.18511" lon="5.28239">
        <ele>1437.1</ele>
        <time>2026-05-14T12:43:07.000Z</time>
      </trkpt>
      <trkpt lat="44.18512" lon="5.2824">
        <ele>1437.1</ele>
        <time>2026-05-14T12:43:08.000Z</time>
      </trkpt>
      <trkpt lat="44.18513" lon="5.28241">
        <ele>1437.1</ele>
        <time>2026-05-14T12:43:09.000Z</time>
      </trkpt>
      <trkpt lat="44.18513" lon="5.28242">
        <ele>1437.2</ele>
        <time>2026-05-14T12:43:10.000Z</time>
      </trkpt>
      <trkpt lat="44.18514" lon="5.28243">
        <ele>1437</ele>
        <time>2026-05-14T12:43:11.000Z</time>
      </trkpt>
      <trkpt lat="44.18515" lon="5.28244">
        <ele>1437.1</ele>
        <time>2026-05-14T12:43:12.000Z</time>
      </trkpt>
      <trkpt lat="44.18516" lon="5.28245">
        <ele>1437.3</ele>
        <time>2026-05-14T12:43:13.000Z</time>
      </trkpt>
      <trkpt lat="44.18517" lon="5.28246">
        <ele>1437.2</ele>
        <time>2026-05-14T12:43:14.000Z</time>
      </trkpt>
      <trkpt lat="44.18517" lon="5.28246">
        <ele>1436.8</ele>
        <time>2026-05-14T12:43:15.000Z</time>
      </trkpt>
      <trkpt lat="44.18518" lon="5.28246">
        <ele>1436.4</ele>
        <time>2026-05-14T12:43:16.000Z</time>
      </trkpt>
      <trkpt lat="44.18518" lon="5.28248">
        <ele>1436.5</ele>
        <time>2026-05-14T12:43:17.000Z</time>
      </trkpt>
      <trkpt lat="44.18519" lon="5.28249">
        <ele>1436.8</ele>
        <time>2026-05-14T12:43:18.000Z</time>
      </trkpt>
      <trkpt lat="44.1852" lon="5.2825">
        <ele>1437.1</ele>
        <time>2026-05-14T12:43:19.000Z</time>
      </trkpt>
      <trkpt lat="44.18521" lon="5.28251">
        <ele>1437.5</ele>
        <time>2026-05-14T12:43:20.000Z</time>
      </trkpt>
      <trkpt lat="44.18522" lon="5.28251">
        <ele>1437.2</ele>
        <time>2026-05-14T12:43:21.000Z</time>
      </trkpt>
      <trkpt lat="44.18522" lon="5.28252">
        <ele>1437.1</ele>
        <time>2026-05-14T12:43:22.000Z</time>
      </trkpt>
      <trkpt lat="44.18522" lon="5.28252">
        <ele>1437</ele>
        <time>2026-05-14T12:43:23.000Z</time>
      </trkpt>
      <trkpt lat="44.18523" lon="5.28253">
        <ele>1437.1</ele>
        <time>2026-05-14T12:43:24.000Z</time>
      </trkpt>
      <trkpt lat="44.18524" lon="5.28253">
        <ele>1437.1</ele>
        <time>2026-05-14T12:43:25.000Z</time>
      </trkpt>
      <trkpt lat="44.18524" lon="5.28254">
        <ele>1436.8</ele>
        <time>2026-05-14T12:43:26.000Z</time>
      </trkpt>
      <trkpt lat="44.18525" lon="5.28255">
        <ele>1436.7</ele>
        <time>2026-05-14T12:43:27.000Z</time>
      </trkpt>
      <trkpt lat="44.18526" lon="5.28256">
        <ele>1436.4</ele>
        <time>2026-05-14T12:43:28.000Z</time>
      </trkpt>
      <trkpt lat="44.18527" lon="5.28257">
        <ele>1436.3</ele>
        <time>2026-05-14T12:43:29.000Z</time>
      </trkpt>
      <trkpt lat="44.18528" lon="5.28257">
        <ele>1436.3</ele>
        <time>2026-05-14T12:43:30.000Z</time>
      </trkpt>
      <trkpt lat="44.18528" lon="5.28258">
        <ele>1436.5</ele>
        <time>2026-05-14T12:43:31.000Z</time>
      </trkpt>
      <trkpt lat="44.18529" lon="5.28257">
        <ele>1436.4</ele>
        <time>2026-05-14T12:43:32.000Z</time>
      </trkpt>
      <trkpt lat="44.1853" lon="5.28257">
        <ele>1436.2</ele>
        <time>2026-05-14T12:43:33.000Z</time>
      </trkpt>
      <trkpt lat="44.18531" lon="5.28257">
        <ele>1436</ele>
        <time>2026-05-14T12:43:34.000Z</time>
      </trkpt>
      <trkpt lat="44.1853" lon="5.28259">
        <ele>1435.7</ele>
        <time>2026-05-14T12:43:35.000Z</time>
      </trkpt>
      <trkpt lat="44.1853" lon="5.2826">
        <ele>1435.5</ele>
        <time>2026-05-14T12:43:36.000Z</time>
      </trkpt>
      <trkpt lat="44.18531" lon="5.28261">
        <ele>1435.3</ele>
        <time>2026-05-14T12:43:37.000Z</time>
      </trkpt>
      <trkpt lat="44.18532" lon="5.28261">
        <ele>1435.3</ele>
        <time>2026-05-14T12:43:38.000Z</time>
      </trkpt>
      <trkpt lat="44.18533" lon="5.28261">
        <ele>1435.5</ele>
        <time>2026-05-14T12:43:39.000Z</time>
      </trkpt>
      <trkpt lat="44.18534" lon="5.28262">
        <ele>1435.6</ele>
        <time>2026-05-14T12:43:40.000Z</time>
      </trkpt>
      <trkpt lat="44.18536" lon="5.28264">
        <ele>1435.8</ele>
        <time>2026-05-14T12:43:41.000Z</time>
      </trkpt>
      <trkpt lat="44.18537" lon="5.28265">
        <ele>1435.8</ele>
        <time>2026-05-14T12:43:42.000Z</time>
      </trkpt>
      <trkpt lat="44.18537" lon="5.28265">
        <ele>1435.8</ele>
        <time>2026-05-14T12:43:43.000Z</time>
      </trkpt>
      <trkpt lat="44.18537" lon="5.28266">
        <ele>1435.7</ele>
        <time>2026-05-14T12:43:44.000Z</time>
      </trkpt>
      <trkpt lat="44.18537" lon="5.28267">
        <ele>1435.6</ele>
        <time>2026-05-14T12:43:45.000Z</time>
      </trkpt>
      <trkpt lat="44.18538" lon="5.28268">
        <ele>1435.5</ele>
        <time>2026-05-14T12:43:46.000Z</time>
      </trkpt>
      <trkpt lat="44.18539" lon="5.2827">
        <ele>1435.6</ele>
        <time>2026-05-14T12:43:47.000Z</time>
      </trkpt>
      <trkpt lat="44.18539" lon="5.28271">
        <ele>1435.4</ele>
        <time>2026-05-14T12:43:48.000Z</time>
      </trkpt>
      <trkpt lat="44.1854" lon="5.28272">
        <ele>1435.4</ele>
        <time>2026-05-14T12:43:49.000Z</time>
      </trkpt>
      <trkpt lat="44.1854" lon="5.28273">
        <ele>1435</ele>
        <time>2026-05-14T12:43:50.000Z</time>
      </trkpt>
      <trkpt lat="44.18541" lon="5.28273">
        <ele>1435.1</ele>
        <time>2026-05-14T12:43:51.000Z</time>
      </trkpt>
      <trkpt lat="44.18542" lon="5.28274">
        <ele>1434.7</ele>
        <time>2026-05-14T12:43:52.000Z</time>
      </trkpt>
      <trkpt lat="44.18543" lon="5.28276">
        <ele>1434.3</ele>
        <time>2026-05-14T12:43:53.000Z</time>
      </trkpt>
      <trkpt lat="44.18544" lon="5.28277">
        <ele>1434</ele>
        <time>2026-05-14T12:43:54.000Z</time>
      </trkpt>
      <trkpt lat="44.18545" lon="5.28277">
        <ele>1433.1</ele>
        <time>2026-05-14T12:43:55.000Z</time>
      </trkpt>
      <trkpt lat="44.18546" lon="5.28278">
        <ele>1432.8</ele>
        <time>2026-05-14T12:43:56.000Z</time>
      </trkpt>
      <trkpt lat="44.18547" lon="5.28278">
        <ele>1432.2</ele>
        <time>2026-05-14T12:43:57.000Z</time>
      </trkpt>
      <trkpt lat="44.18547" lon="5.28277">
        <ele>1431.4</ele>
        <time>2026-05-14T12:43:58.000Z</time>
      </trkpt>
      <trkpt lat="44.18548" lon="5.28278">
        <ele>1431</ele>
        <time>2026-05-14T12:43:59.000Z</time>
      </trkpt>
      <trkpt lat="44.18549" lon="5.28279">
        <ele>1430.8</ele>
        <time>2026-05-14T12:44:00.000Z</time>
      </trkpt>
      <trkpt lat="44.18549" lon="5.28279">
        <ele>1430.4</ele>
        <time>2026-05-14T12:44:01.000Z</time>
      </trkpt>
      <trkpt lat="44.1855" lon="5.2828">
        <ele>1430.2</ele>
        <time>2026-05-14T12:44:02.000Z</time>
      </trkpt>
      <trkpt lat="44.18551" lon="5.28281">
        <ele>1430.1</ele>
        <time>2026-05-14T12:44:03.000Z</time>
      </trkpt>
      <trkpt lat="44.18552" lon="5.28282">
        <ele>1430</ele>
        <time>2026-05-14T12:44:04.000Z</time>
      </trkpt>
      <trkpt lat="44.18552" lon="5.28283">
        <ele>1430</ele>
        <time>2026-05-14T12:44:05.000Z</time>
      </trkpt>
      <trkpt lat="44.18553" lon="5.28284">
        <ele>1430.4</ele>
        <time>2026-05-14T12:44:06.000Z</time>
      </trkpt>
      <trkpt lat="44.18553" lon="5.28284">
        <ele>1430.4</ele>
        <time>2026-05-14T12:44:07.000Z</time>
      </trkpt>
      <trkpt lat="44.18552" lon="5.28286">
        <ele>1430.2</ele>
        <time>2026-05-14T12:44:08.000Z</time>
      </trkpt>
      <trkpt lat="44.18552" lon="5.28287">
        <ele>1430.4</ele>
        <time>2026-05-14T12:44:09.000Z</time>
      </trkpt>
      <trkpt lat="44.18552" lon="5.28287">
        <ele>1430</ele>
        <time>2026-05-14T12:44:10.000Z</time>
      </trkpt>
      <trkpt lat="44.18552" lon="5.28288">
        <ele>1429.6</ele>
        <time>2026-05-14T12:44:11.000Z</time>
      </trkpt>
      <trkpt lat="44.18553" lon="5.28288">
        <ele>1429.7</ele>
        <time>2026-05-14T12:44:12.000Z</time>
      </trkpt>
      <trkpt lat="44.18553" lon="5.28289">
        <ele>1429.6</ele>
        <time>2026-05-14T12:44:13.000Z</time>
      </trkpt>
      <trkpt lat="44.18554" lon="5.28289">
        <ele>1429.2</ele>
        <time>2026-05-14T12:44:14.000Z</time>
      </trkpt>
      <trkpt lat="44.18555" lon="5.2829">
        <ele>1428.9</ele>
        <time>2026-05-14T12:44:15.000Z</time>
      </trkpt>
      <trkpt lat="44.18556" lon="5.28292">
        <ele>1428.8</ele>
        <time>2026-05-14T12:44:16.000Z</time>
      </trkpt>
      <trkpt lat="44.18557" lon="5.28294">
        <ele>1428.6</ele>
        <time>2026-05-14T12:44:17.000Z</time>
      </trkpt>
      <trkpt lat="44.18559" lon="5.28295">
        <ele>1428.6</ele>
        <time>2026-05-14T12:44:18.000Z</time>
      </trkpt>
      <trkpt lat="44.18561" lon="5.28297">
        <ele>1428.7</ele>
        <time>2026-05-14T12:44:19.000Z</time>
      </trkpt>
      <trkpt lat="44.18563" lon="5.28297">
        <ele>1428.7</ele>
        <time>2026-05-14T12:44:20.000Z</time>
      </trkpt>
      <trkpt lat="44.18564" lon="5.28297">
        <ele>1428.5</ele>
        <time>2026-05-14T12:44:21.000Z</time>
      </trkpt>
      <trkpt lat="44.18565" lon="5.28296">
        <ele>1428.2</ele>
        <time>2026-05-14T12:44:22.000Z</time>
      </trkpt>
      <trkpt lat="44.18565" lon="5.28295">
        <ele>1427.7</ele>
        <time>2026-05-14T12:44:23.000Z</time>
      </trkpt>
      <trkpt lat="44.18566" lon="5.28295">
        <ele>1427.9</ele>
        <time>2026-05-14T12:44:24.000Z</time>
      </trkpt>
      <trkpt lat="44.18567" lon="5.28294">
        <ele>1428</ele>
        <time>2026-05-14T12:44:25.000Z</time>
      </trkpt>
      <trkpt lat="44.18568" lon="5.28294">
        <ele>1428.1</ele>
        <time>2026-05-14T12:44:26.000Z</time>
      </trkpt>
      <trkpt lat="44.18569" lon="5.28294">
        <ele>1428.2</ele>
        <time>2026-05-14T12:44:27.000Z</time>
      </trkpt>
      <trkpt lat="44.18569" lon="5.28294">
        <ele>1428.3</ele>
        <time>2026-05-14T12:44:28.000Z</time>
      </trkpt>
      <trkpt lat="44.1857" lon="5.28293">
        <ele>1428.1</ele>
        <time>2026-05-14T12:44:29.000Z</time>
      </trkpt>
      <trkpt lat="44.18571" lon="5.28292">
        <ele>1427.9</ele>
        <time>2026-05-14T12:44:30.000Z</time>
      </trkpt>
      <trkpt lat="44.18572" lon="5.28291">
        <ele>1427.8</ele>
        <time>2026-05-14T12:44:31.000Z</time>
      </trkpt>
      <trkpt lat="44.18573" lon="5.2829">
        <ele>1427.6</ele>
        <time>2026-05-14T12:44:32.000Z</time>
      </trkpt>
      <trkpt lat="44.18574" lon="5.28288">
        <ele>1427.2</ele>
        <time>2026-05-14T12:44:33.000Z</time>
      </trkpt>
      <trkpt lat="44.18575" lon="5.28287">
        <ele>1427</ele>
        <time>2026-05-14T12:44:34.000Z</time>
      </trkpt>
      <trkpt lat="44.18576" lon="5.28285">
        <ele>1426.1</ele>
        <time>2026-05-14T12:44:35.000Z</time>
      </trkpt>
      <trkpt lat="44.18576" lon="5.28284">
        <ele>1425.7</ele>
        <time>2026-05-14T12:44:36.000Z</time>
      </trkpt>
      <trkpt lat="44.18576" lon="5.28283">
        <ele>1425.1</ele>
        <time>2026-05-14T12:44:37.000Z</time>
      </trkpt>
      <trkpt lat="44.18576" lon="5.28282">
        <ele>1424.7</ele>
        <time>2026-05-14T12:44:38.000Z</time>
      </trkpt>
      <trkpt lat="44.18576" lon="5.28281">
        <ele>1424.4</ele>
        <time>2026-05-14T12:44:39.000Z</time>
      </trkpt>
      <trkpt lat="44.18577" lon="5.2828">
        <ele>1423.7</ele>
        <time>2026-05-14T12:44:40.000Z</time>
      </trkpt>
      <trkpt lat="44.18577" lon="5.28278">
        <ele>1423.1</ele>
        <time>2026-05-14T12:44:41.000Z</time>
      </trkpt>
      <trkpt lat="44.18578" lon="5.28277">
        <ele>1422.7</ele>
        <time>2026-05-14T12:44:42.000Z</time>
      </trkpt>
      <trkpt lat="44.18578" lon="5.28277">
        <ele>1422</ele>
        <time>2026-05-14T12:44:43.000Z</time>
      </trkpt>
      <trkpt lat="44.18578" lon="5.28277">
        <ele>1421.4</ele>
        <time>2026-05-14T12:44:44.000Z</time>
      </trkpt>
      <trkpt lat="44.18578" lon="5.28277">
        <ele>1422.2</ele>
        <time>2026-05-14T12:44:45.000Z</time>
      </trkpt>
      <trkpt lat="44.18579" lon="5.28277">
        <ele>1421.4</ele>
        <time>2026-05-14T12:44:46.000Z</time>
      </trkpt>
      <trkpt lat="44.1858" lon="5.28277">
        <ele>1420.9</ele>
        <time>2026-05-14T12:44:47.000Z</time>
      </trkpt>
      <trkpt lat="44.18581" lon="5.28278">
        <ele>1420.4</ele>
        <time>2026-05-14T12:44:48.000Z</time>
      </trkpt>
      <trkpt lat="44.18583" lon="5.28278">
        <ele>1420.4</ele>
        <time>2026-05-14T12:44:49.000Z</time>
      </trkpt>
      <trkpt lat="44.18584" lon="5.28277">
        <ele>1420.2</ele>
        <time>2026-05-14T12:44:50.000Z</time>
      </trkpt>
      <trkpt lat="44.18585" lon="5.28277">
        <ele>1420.1</ele>
        <time>2026-05-14T12:44:51.000Z</time>
      </trkpt>
      <trkpt lat="44.18586" lon="5.28276">
        <ele>1420</ele>
        <time>2026-05-14T12:44:52.000Z</time>
      </trkpt>
      <trkpt lat="44.18586" lon="5.28275">
        <ele>1419.7</ele>
        <time>2026-05-14T12:44:53.000Z</time>
      </trkpt>
      <trkpt lat="44.18586" lon="5.28275">
        <ele>1419.6</ele>
        <time>2026-05-14T12:44:54.000Z</time>
      </trkpt>
      <trkpt lat="44.18587" lon="5.28276">
        <ele>1419.4</ele>
        <time>2026-05-14T12:44:55.000Z</time>
      </trkpt>
      <trkpt lat="44.18588" lon="5.28278">
        <ele>1420.6</ele>
        <time>2026-05-14T12:44:56.000Z</time>
      </trkpt>
      <trkpt lat="44.18589" lon="5.2828">
        <ele>1421</ele>
        <time>2026-05-14T12:44:57.000Z</time>
      </trkpt>
      <trkpt lat="44.1859" lon="5.2828">
        <ele>1421.3</ele>
        <time>2026-05-14T12:44:58.000Z</time>
      </trkpt>
      <trkpt lat="44.18589" lon="5.2828">
        <ele>1421.4</ele>
        <time>2026-05-14T12:44:59.000Z</time>
      </trkpt>
      <trkpt lat="44.18589" lon="5.28281">
        <ele>1421.5</ele>
        <time>2026-05-14T12:45:00.000Z</time>
      </trkpt>
      <trkpt lat="44.18589" lon="5.28281">
        <ele>1421.8</ele>
        <time>2026-05-14T12:45:01.000Z</time>
      </trkpt>
      <trkpt lat="44.18587" lon="5.28283">
        <ele>1421.9</ele>
        <time>2026-05-14T12:45:02.000Z</time>
      </trkpt>
      <trkpt lat="44.18586" lon="5.28283">
        <ele>1421.6</ele>
        <time>2026-05-14T12:45:03.000Z</time>
      </trkpt>
      <trkpt lat="44.18585" lon="5.28284">
        <ele>1421.5</ele>
        <time>2026-05-14T12:45:04.000Z</time>
      </trkpt>
      <trkpt lat="44.18585" lon="5.28285">
        <ele>1421.7</ele>
        <time>2026-05-14T12:45:05.000Z</time>
      </trkpt>
      <trkpt lat="44.18584" lon="5.28285">
        <ele>1421.8</ele>
        <time>2026-05-14T12:45:06.000Z</time>
      </trkpt>
      <trkpt lat="44.18584" lon="5.28285">
        <ele>1422</ele>
        <time>2026-05-14T12:45:07.000Z</time>
      </trkpt>
      <trkpt lat="44.18583" lon="5.28287">
        <ele>1421.8</ele>
        <time>2026-05-14T12:45:08.000Z</time>
      </trkpt>
      <trkpt lat="44.18582" lon="5.28288">
        <ele>1421.9</ele>
        <time>2026-05-14T12:45:09.000Z</time>
      </trkpt>
      <trkpt lat="44.18581" lon="5.2829">
        <ele>1421.9</ele>
        <time>2026-05-14T12:45:10.000Z</time>
      </trkpt>
      <trkpt lat="44.18579" lon="5.2829">
        <ele>1421.8</ele>
        <time>2026-05-14T12:45:11.000Z</time>
      </trkpt>
      <trkpt lat="44.18578" lon="5.28292">
        <ele>1421.5</ele>
        <time>2026-05-14T12:45:12.000Z</time>
      </trkpt>
      <trkpt lat="44.18577" lon="5.28293">
        <ele>1421.2</ele>
        <time>2026-05-14T12:45:13.000Z</time>
      </trkpt>
      <trkpt lat="44.18577" lon="5.28294">
        <ele>1420.5</ele>
        <time>2026-05-14T12:45:14.000Z</time>
      </trkpt>
      <trkpt lat="44.18577" lon="5.28295">
        <ele>1420.2</ele>
        <time>2026-05-14T12:45:15.000Z</time>
      </trkpt>
      <trkpt lat="44.18576" lon="5.28295">
        <ele>1421.2</ele>
        <time>2026-05-14T12:45:16.000Z</time>
      </trkpt>
      <trkpt lat="44.18577" lon="5.28296">
        <ele>1421.2</ele>
        <time>2026-05-14T12:45:17.000Z</time>
      </trkpt>
      <trkpt lat="44.18577" lon="5.28297">
        <ele>1420.9</ele>
        <time>2026-05-14T12:45:18.000Z</time>
      </trkpt>
      <trkpt lat="44.18577" lon="5.28299">
        <ele>1420.7</ele>
        <time>2026-05-14T12:45:19.000Z</time>
      </trkpt>
      <trkpt lat="44.18576" lon="5.283">
        <ele>1420.3</ele>
        <time>2026-05-14T12:45:20.000Z</time>
      </trkpt>
      <trkpt lat="44.18576" lon="5.28301">
        <ele>1420.3</ele>
        <time>2026-05-14T12:45:21.000Z</time>
      </trkpt>
      <trkpt lat="44.18575" lon="5.28302">
        <ele>1420</ele>
        <time>2026-05-14T12:45:22.000Z</time>
      </trkpt>
      <trkpt lat="44.18575" lon="5.28303">
        <ele>1419.9</ele>
        <time>2026-05-14T12:45:23.000Z</time>
      </trkpt>
      <trkpt lat="44.18574" lon="5.28304">
        <ele>1419.8</ele>
        <time>2026-05-14T12:45:24.000Z</time>
      </trkpt>
      <trkpt lat="44.18574" lon="5.28304">
        <ele>1419.2</ele>
        <time>2026-05-14T12:45:25.000Z</time>
      </trkpt>
      <trkpt lat="44.18573" lon="5.28304">
        <ele>1418.8</ele>
        <time>2026-05-14T12:45:26.000Z</time>
      </trkpt>
      <trkpt lat="44.18573" lon="5.28304">
        <ele>1418.6</ele>
        <time>2026-05-14T12:45:27.000Z</time>
      </trkpt>
      <trkpt lat="44.18572" lon="5.28305">
        <ele>1418.3</ele>
        <time>2026-05-14T12:45:28.000Z</time>
      </trkpt>
      <trkpt lat="44.18572" lon="5.28306">
        <ele>1418.2</ele>
        <time>2026-05-14T12:45:29.000Z</time>
      </trkpt>
      <trkpt lat="44.18571" lon="5.28306">
        <ele>1417.7</ele>
        <time>2026-05-14T12:45:30.000Z</time>
      </trkpt>
      <trkpt lat="44.18571" lon="5.28306">
        <ele>1417.8</ele>
        <time>2026-05-14T12:45:31.000Z</time>
      </trkpt>
      <trkpt lat="44.1857" lon="5.28306">
        <ele>1417.7</ele>
        <time>2026-05-14T12:45:32.000Z</time>
      </trkpt>
      <trkpt lat="44.18568" lon="5.28307">
        <ele>1417.8</ele>
        <time>2026-05-14T12:45:33.000Z</time>
      </trkpt>
      <trkpt lat="44.18567" lon="5.28308">
        <ele>1417.8</ele>
        <time>2026-05-14T12:45:34.000Z</time>
      </trkpt>
      <trkpt lat="44.18566" lon="5.28309">
        <ele>1417.6</ele>
        <time>2026-05-14T12:45:35.000Z</time>
      </trkpt>
      <trkpt lat="44.18565" lon="5.2831">
        <ele>1417.4</ele>
        <time>2026-05-14T12:45:36.000Z</time>
      </trkpt>
      <trkpt lat="44.18564" lon="5.2831">
        <ele>1417.3</ele>
        <time>2026-05-14T12:45:37.000Z</time>
      </trkpt>
      <trkpt lat="44.18563" lon="5.2831">
        <ele>1417.5</ele>
        <time>2026-05-14T12:45:38.000Z</time>
      </trkpt>
      <trkpt lat="44.18562" lon="5.2831">
        <ele>1417.4</ele>
        <time>2026-05-14T12:45:39.000Z</time>
      </trkpt>
      <trkpt lat="44.18562" lon="5.2831">
        <ele>1417.5</ele>
        <time>2026-05-14T12:45:40.000Z</time>
      </trkpt>
      <trkpt lat="44.18562" lon="5.28309">
        <ele>1417.5</ele>
        <time>2026-05-14T12:45:41.000Z</time>
      </trkpt>
      <trkpt lat="44.18561" lon="5.28309">
        <ele>1417.4</ele>
        <time>2026-05-14T12:45:42.000Z</time>
      </trkpt>
      <trkpt lat="44.1856" lon="5.28309">
        <ele>1417.3</ele>
        <time>2026-05-14T12:45:43.000Z</time>
      </trkpt>
      <trkpt lat="44.18559" lon="5.28309">
        <ele>1417.2</ele>
        <time>2026-05-14T12:45:44.000Z</time>
      </trkpt>
      <trkpt lat="44.18558" lon="5.28309">
        <ele>1417.1</ele>
        <time>2026-05-14T12:45:45.000Z</time>
      </trkpt>
      <trkpt lat="44.18557" lon="5.28309">
        <ele>1416.7</ele>
        <time>2026-05-14T12:45:46.000Z</time>
      </trkpt>
      <trkpt lat="44.18556" lon="5.28309">
        <ele>1416.4</ele>
        <time>2026-05-14T12:45:47.000Z</time>
      </trkpt>
      <trkpt lat="44.18555" lon="5.28308">
        <ele>1416.3</ele>
        <time>2026-05-14T12:45:48.000Z</time>
      </trkpt>
      <trkpt lat="44.18553" lon="5.28308">
        <ele>1415.8</ele>
        <time>2026-05-14T12:45:49.000Z</time>
      </trkpt>
      <trkpt lat="44.18553" lon="5.28307">
        <ele>1415.9</ele>
        <time>2026-05-14T12:45:50.000Z</time>
      </trkpt>
      <trkpt lat="44.18552" lon="5.28307">
        <ele>1415.9</ele>
        <time>2026-05-14T12:45:51.000Z</time>
      </trkpt>
      <trkpt lat="44.18551" lon="5.28307">
        <ele>1415.8</ele>
        <time>2026-05-14T12:45:52.000Z</time>
      </trkpt>
      <trkpt lat="44.1855" lon="5.28307">
        <ele>1416</ele>
        <time>2026-05-14T12:45:53.000Z</time>
      </trkpt>
      <trkpt lat="44.18549" lon="5.28307">
        <ele>1416</ele>
        <time>2026-05-14T12:45:54.000Z</time>
      </trkpt>
      <trkpt lat="44.18547" lon="5.28306">
        <ele>1416</ele>
        <time>2026-05-14T12:45:55.000Z</time>
      </trkpt>
      <trkpt lat="44.18547" lon="5.28306">
        <ele>1415.8</ele>
        <time>2026-05-14T12:45:56.000Z</time>
      </trkpt>
      <trkpt lat="44.18546" lon="5.28306">
        <ele>1415.6</ele>
        <time>2026-05-14T12:45:57.000Z</time>
      </trkpt>
      <trkpt lat="44.18546" lon="5.28305">
        <ele>1415.3</ele>
        <time>2026-05-14T12:45:58.000Z</time>
      </trkpt>
      <trkpt lat="44.18545" lon="5.28304">
        <ele>1414.9</ele>
        <time>2026-05-14T12:45:59.000Z</time>
      </trkpt>
      <trkpt lat="44.18544" lon="5.28305">
        <ele>1414.4</ele>
        <time>2026-05-14T12:46:00.000Z</time>
      </trkpt>
      <trkpt lat="44.18543" lon="5.28304">
        <ele>1414.3</ele>
        <time>2026-05-14T12:46:01.000Z</time>
      </trkpt>
      <trkpt lat="44.18542" lon="5.28304">
        <ele>1414.2</ele>
        <time>2026-05-14T12:46:02.000Z</time>
      </trkpt>
      <trkpt lat="44.18541" lon="5.28304">
        <ele>1414</ele>
        <time>2026-05-14T12:46:03.000Z</time>
      </trkpt>
      <trkpt lat="44.18541" lon="5.28304">
        <ele>1413.8</ele>
        <time>2026-05-14T12:46:04.000Z</time>
      </trkpt>
      <trkpt lat="44.1854" lon="5.28303">
        <ele>1413.6</ele>
        <time>2026-05-14T12:46:05.000Z</time>
      </trkpt>
      <trkpt lat="44.18539" lon="5.28303">
        <ele>1413.5</ele>
        <time>2026-05-14T12:46:06.000Z</time>
      </trkpt>
      <trkpt lat="44.18538" lon="5.28302">
        <ele>1413.2</ele>
        <time>2026-05-14T12:46:07.000Z</time>
      </trkpt>
      <trkpt lat="44.18537" lon="5.28301">
        <ele>1412.9</ele>
        <time>2026-05-14T12:46:08.000Z</time>
      </trkpt>
      <trkpt lat="44.18537" lon="5.283">
        <ele>1412.3</ele>
        <time>2026-05-14T12:46:09.000Z</time>
      </trkpt>
      <trkpt lat="44.18536" lon="5.283">
        <ele>1411.9</ele>
        <time>2026-05-14T12:46:10.000Z</time>
      </trkpt>
      <trkpt lat="44.18535" lon="5.28301">
        <ele>1411.9</ele>
        <time>2026-05-14T12:46:11.000Z</time>
      </trkpt>
      <trkpt lat="44.18535" lon="5.28303">
        <ele>1411.8</ele>
        <time>2026-05-14T12:46:12.000Z</time>
      </trkpt>
      <trkpt lat="44.18534" lon="5.28303">
        <ele>1411.7</ele>
        <time>2026-05-14T12:46:13.000Z</time>
      </trkpt>
      <trkpt lat="44.18533" lon="5.28302">
        <ele>1411.7</ele>
        <time>2026-05-14T12:46:14.000Z</time>
      </trkpt>
      <trkpt lat="44.18532" lon="5.28302">
        <ele>1411.6</ele>
        <time>2026-05-14T12:46:15.000Z</time>
      </trkpt>
      <trkpt lat="44.18532" lon="5.28302">
        <ele>1411.6</ele>
        <time>2026-05-14T12:46:16.000Z</time>
      </trkpt>
      <trkpt lat="44.18531" lon="5.28302">
        <ele>1412.1</ele>
        <time>2026-05-14T12:46:17.000Z</time>
      </trkpt>
      <trkpt lat="44.18531" lon="5.28302">
        <ele>1411.9</ele>
        <time>2026-05-14T12:46:18.000Z</time>
      </trkpt>
      <trkpt lat="44.18531" lon="5.28302">
        <ele>1411.8</ele>
        <time>2026-05-14T12:46:19.000Z</time>
      </trkpt>
      <trkpt lat="44.18531" lon="5.28302">
        <ele>1411.6</ele>
        <time>2026-05-14T12:46:20.000Z</time>
      </trkpt>
      <trkpt lat="44.1853" lon="5.28302">
        <ele>1411.7</ele>
        <time>2026-05-14T12:46:21.000Z</time>
      </trkpt>
      <trkpt lat="44.18529" lon="5.28303">
        <ele>1411.5</ele>
        <time>2026-05-14T12:46:22.000Z</time>
      </trkpt>
      <trkpt lat="44.18528" lon="5.28303">
        <ele>1411.9</ele>
        <time>2026-05-14T12:46:23.000Z</time>
      </trkpt>
      <trkpt lat="44.18528" lon="5.28304">
        <ele>1411.7</ele>
        <time>2026-05-14T12:46:24.000Z</time>
      </trkpt>
      <trkpt lat="44.18528" lon="5.28304">
        <ele>1411.6</ele>
        <time>2026-05-14T12:46:25.000Z</time>
      </trkpt>
      <trkpt lat="44.18528" lon="5.28304">
        <ele>1411.5</ele>
        <time>2026-05-14T12:46:26.000Z</time>
      </trkpt>
      <trkpt lat="44.18528" lon="5.28304">
        <ele>1411.3</ele>
        <time>2026-05-14T12:46:27.000Z</time>
      </trkpt>
      <trkpt lat="44.18528" lon="5.28304">
        <ele>1411.3</ele>
        <time>2026-05-14T12:46:28.000Z</time>
      </trkpt>
      <trkpt lat="44.18528" lon="5.28303">
        <ele>1411.5</ele>
        <time>2026-05-14T12:46:29.000Z</time>
      </trkpt>
      <trkpt lat="44.18527" lon="5.28302">
        <ele>1411.6</ele>
        <time>2026-05-14T12:46:30.000Z</time>
      </trkpt>
      <trkpt lat="44.18527" lon="5.28301">
        <ele>1411.9</ele>
        <time>2026-05-14T12:46:31.000Z</time>
      </trkpt>
      <trkpt lat="44.18526" lon="5.28302">
        <ele>1412.1</ele>
        <time>2026-05-14T12:46:32.000Z</time>
      </trkpt>
      <trkpt lat="44.18526" lon="5.28302">
        <ele>1412.2</ele>
        <time>2026-05-14T12:46:33.000Z</time>
      </trkpt>
      <trkpt lat="44.18525" lon="5.28303">
        <ele>1411.9</ele>
        <time>2026-05-14T12:46:34.000Z</time>
      </trkpt>
      <trkpt lat="44.18526" lon="5.28303">
        <ele>1411.5</ele>
        <time>2026-05-14T12:46:35.000Z</time>
      </trkpt>
      <trkpt lat="44.18524" lon="5.28303">
        <ele>1411.3</ele>
        <time>2026-05-14T12:46:37.000Z</time>
      </trkpt>
      <trkpt lat="44.18523" lon="5.28302">
        <ele>1411.3</ele>
        <time>2026-05-14T12:46:38.000Z</time>
      </trkpt>
      <trkpt lat="44.18522" lon="5.28301">
        <ele>1411</ele>
        <time>2026-05-14T12:46:39.000Z</time>
      </trkpt>
      <trkpt lat="44.1852" lon="5.283">
        <ele>1410.5</ele>
        <time>2026-05-14T12:46:40.000Z</time>
      </trkpt>
      <trkpt lat="44.18519" lon="5.28299">
        <ele>1410.2</ele>
        <time>2026-05-14T12:46:41.000Z</time>
      </trkpt>
      <trkpt lat="44.18518" lon="5.28298">
        <ele>1409.9</ele>
        <time>2026-05-14T12:46:42.000Z</time>
      </trkpt>
      <trkpt lat="44.18517" lon="5.28298">
        <ele>1409.5</ele>
        <time>2026-05-14T12:46:43.000Z</time>
      </trkpt>
      <trkpt lat="44.18515" lon="5.28298">
        <ele>1409</ele>
        <time>2026-05-14T12:46:44.000Z</time>
      </trkpt>
      <trkpt lat="44.18513" lon="5.28297">
        <ele>1408.4</ele>
        <time>2026-05-14T12:46:45.000Z</time>
      </trkpt>
      <trkpt lat="44.18511" lon="5.28296">
        <ele>1408.2</ele>
        <time>2026-05-14T12:46:46.000Z</time>
      </trkpt>
      <trkpt lat="44.18509" lon="5.28295">
        <ele>1407.6</ele>
        <time>2026-05-14T12:46:47.000Z</time>
      </trkpt>
      <trkpt lat="44.18509" lon="5.28295">
        <ele>1408.5</ele>
        <time>2026-05-14T12:46:48.000Z</time>
      </trkpt>
      <trkpt lat="44.18509" lon="5.28295">
        <ele>1408.4</ele>
        <time>2026-05-14T12:46:49.000Z</time>
      </trkpt>
      <trkpt lat="44.18507" lon="5.28295">
        <ele>1408.3</ele>
        <time>2026-05-14T12:46:50.000Z</time>
      </trkpt>
      <trkpt lat="44.18506" lon="5.28296">
        <ele>1408.3</ele>
        <time>2026-05-14T12:46:51.000Z</time>
      </trkpt>
      <trkpt lat="44.18506" lon="5.28296">
        <ele>1408.4</ele>
        <time>2026-05-14T12:46:52.000Z</time>
      </trkpt>
      <trkpt lat="44.18506" lon="5.28296">
        <ele>1408.4</ele>
        <time>2026-05-14T12:46:53.000Z</time>
      </trkpt>
      <trkpt lat="44.18506" lon="5.28296">
        <ele>1408.3</ele>
        <time>2026-05-14T12:46:54.000Z</time>
      </trkpt>
      <trkpt lat="44.18505" lon="5.28296">
        <ele>1408</ele>
        <time>2026-05-14T12:46:55.000Z</time>
      </trkpt>
      <trkpt lat="44.18505" lon="5.28295">
        <ele>1407.9</ele>
        <time>2026-05-14T12:46:56.000Z</time>
      </trkpt>
      <trkpt lat="44.18503" lon="5.28295">
        <ele>1407.5</ele>
        <time>2026-05-14T12:46:57.000Z</time>
      </trkpt>
      <trkpt lat="44.18501" lon="5.28294">
        <ele>1407.5</ele>
        <time>2026-05-14T12:46:58.000Z</time>
      </trkpt>
      <trkpt lat="44.185" lon="5.28293">
        <ele>1407.6</ele>
        <time>2026-05-14T12:46:59.000Z</time>
      </trkpt>
      <trkpt lat="44.18498" lon="5.28293">
        <ele>1407.6</ele>
        <time>2026-05-14T12:47:00.000Z</time>
      </trkpt>
      <trkpt lat="44.18497" lon="5.28293">
        <ele>1407.7</ele>
        <time>2026-05-14T12:47:01.000Z</time>
      </trkpt>
      <trkpt lat="44.18496" lon="5.28292">
        <ele>1407.8</ele>
        <time>2026-05-14T12:47:02.000Z</time>
      </trkpt>
      <trkpt lat="44.18495" lon="5.28293">
        <ele>1408</ele>
        <time>2026-05-14T12:47:03.000Z</time>
      </trkpt>
      <trkpt lat="44.18494" lon="5.28292">
        <ele>1408</ele>
        <time>2026-05-14T12:47:04.000Z</time>
      </trkpt>
      <trkpt lat="44.18492" lon="5.28292">
        <ele>1407.9</ele>
        <time>2026-05-14T12:47:05.000Z</time>
      </trkpt>
      <trkpt lat="44.18491" lon="5.28291">
        <ele>1408</ele>
        <time>2026-05-14T12:47:06.000Z</time>
      </trkpt>
      <trkpt lat="44.1849" lon="5.2829">
        <ele>1407.7</ele>
        <time>2026-05-14T12:47:07.000Z</time>
      </trkpt>
      <trkpt lat="44.18489" lon="5.2829">
        <ele>1407.5</ele>
        <time>2026-05-14T12:47:08.000Z</time>
      </trkpt>
      <trkpt lat="44.18487" lon="5.2829">
        <ele>1407.2</ele>
        <time>2026-05-14T12:47:09.000Z</time>
      </trkpt>
      <trkpt lat="44.18486" lon="5.28288">
        <ele>1407.2</ele>
        <time>2026-05-14T12:47:10.000Z</time>
      </trkpt>
      <trkpt lat="44.18484" lon="5.28287">
        <ele>1406.9</ele>
        <time>2026-05-14T12:47:11.000Z</time>
      </trkpt>
      <trkpt lat="44.18483" lon="5.28287">
        <ele>1406.3</ele>
        <time>2026-05-14T12:47:12.000Z</time>
      </trkpt>
      <trkpt lat="44.18482" lon="5.28286">
        <ele>1405.7</ele>
        <time>2026-05-14T12:47:13.000Z</time>
      </trkpt>
      <trkpt lat="44.18481" lon="5.28285">
        <ele>1405.4</ele>
        <time>2026-05-14T12:47:14.000Z</time>
      </trkpt>
      <trkpt lat="44.18479" lon="5.28285">
        <ele>1405.3</ele>
        <time>2026-05-14T12:47:15.000Z</time>
      </trkpt>
      <trkpt lat="44.18478" lon="5.28284">
        <ele>1404.9</ele>
        <time>2026-05-14T12:47:16.000Z</time>
      </trkpt>
      <trkpt lat="44.18476" lon="5.28283">
        <ele>1404.1</ele>
        <time>2026-05-14T12:47:17.000Z</time>
      </trkpt>
      <trkpt lat="44.18476" lon="5.28282">
        <ele>1404.3</ele>
        <time>2026-05-14T12:47:18.000Z</time>
      </trkpt>
      <trkpt lat="44.18475" lon="5.28282">
        <ele>1404.4</ele>
        <time>2026-05-14T12:47:19.000Z</time>
      </trkpt>
      <trkpt lat="44.18474" lon="5.28282">
        <ele>1404</ele>
        <time>2026-05-14T12:47:20.000Z</time>
      </trkpt>
      <trkpt lat="44.18473" lon="5.28282">
        <ele>1404</ele>
        <time>2026-05-14T12:47:21.000Z</time>
      </trkpt>
      <trkpt lat="44.18473" lon="5.28282">
        <ele>1403.9</ele>
        <time>2026-05-14T12:47:22.000Z</time>
      </trkpt>
      <trkpt lat="44.18472" lon="5.28283">
        <ele>1403.8</ele>
        <time>2026-05-14T12:47:23.999Z</time>
      </trkpt>
      <trkpt lat="44.18472" lon="5.28283">
        <ele>1404.7</ele>
        <time>2026-05-14T12:47:24.999Z</time>
      </trkpt>
      <trkpt lat="44.18471" lon="5.28283">
        <ele>1404.3</ele>
        <time>2026-05-14T12:47:25.999Z</time>
      </trkpt>
      <trkpt lat="44.18471" lon="5.28283">
        <ele>1403.8</ele>
        <time>2026-05-14T12:47:26.999Z</time>
      </trkpt>
      <trkpt lat="44.18471" lon="5.28283">
        <ele>1403.7</ele>
        <time>2026-05-14T12:47:27.999Z</time>
      </trkpt>
      <trkpt lat="44.18469" lon="5.28281">
        <ele>1403.2</ele>
        <time>2026-05-14T12:47:29.999Z</time>
      </trkpt>
      <trkpt lat="44.18468" lon="5.2828">
        <ele>1402.3</ele>
        <time>2026-05-14T12:47:30.999Z</time>
      </trkpt>
      <trkpt lat="44.18467" lon="5.2828">
        <ele>1401.7</ele>
        <time>2026-05-14T12:47:31.999Z</time>
      </trkpt>
      <trkpt lat="44.18465" lon="5.28279">
        <ele>1401.5</ele>
        <time>2026-05-14T12:47:32.999Z</time>
      </trkpt>
      <trkpt lat="44.18464" lon="5.28278">
        <ele>1401.1</ele>
        <time>2026-05-14T12:47:33.999Z</time>
      </trkpt>
      <trkpt lat="44.18462" lon="5.28277">
        <ele>1400.9</ele>
        <time>2026-05-14T12:47:34.999Z</time>
      </trkpt>
      <trkpt lat="44.18461" lon="5.28276">
        <ele>1400.5</ele>
        <time>2026-05-14T12:47:35.999Z</time>
      </trkpt>
      <trkpt lat="44.18461" lon="5.28276">
        <ele>1400.4</ele>
        <time>2026-05-14T12:47:36.999Z</time>
      </trkpt>
      <trkpt lat="44.18461" lon="5.28276">
        <ele>1400.5</ele>
        <time>2026-05-14T12:47:37.999Z</time>
      </trkpt>
      <trkpt lat="44.1846" lon="5.28276">
        <ele>1400.5</ele>
        <time>2026-05-14T12:47:38.999Z</time>
      </trkpt>
      <trkpt lat="44.1846" lon="5.28276">
        <ele>1400.4</ele>
        <time>2026-05-14T12:47:39.999Z</time>
      </trkpt>
      <trkpt lat="44.1846" lon="5.28276">
        <ele>1400.1</ele>
        <time>2026-05-14T12:47:40.999Z</time>
      </trkpt>
      <trkpt lat="44.1846" lon="5.28276">
        <ele>1400.2</ele>
        <time>2026-05-14T12:47:41.999Z</time>
      </trkpt>
      <trkpt lat="44.1846" lon="5.28276">
        <ele>1400</ele>
        <time>2026-05-14T12:47:42.999Z</time>
      </trkpt>
      <trkpt lat="44.18459" lon="5.28276">
        <ele>1399.8</ele>
        <time>2026-05-14T12:47:43.999Z</time>
      </trkpt>
      <trkpt lat="44.18458" lon="5.28276">
        <ele>1399.8</ele>
        <time>2026-05-14T12:47:44.999Z</time>
      </trkpt>
      <trkpt lat="44.18456" lon="5.28276">
        <ele>1399.5</ele>
        <time>2026-05-14T12:47:45.999Z</time>
      </trkpt>
      <trkpt lat="44.18455" lon="5.28274">
        <ele>1399.5</ele>
        <time>2026-05-14T12:47:46.999Z</time>
      </trkpt>
      <trkpt lat="44.18454" lon="5.28273">
        <ele>1399.7</ele>
        <time>2026-05-14T12:47:47.999Z</time>
      </trkpt>
      <trkpt lat="44.18453" lon="5.28272">
        <ele>1399.7</ele>
        <time>2026-05-14T12:47:48.999Z</time>
      </trkpt>
      <trkpt lat="44.18451" lon="5.2827">
        <ele>1399.8</ele>
        <time>2026-05-14T12:47:49.999Z</time>
      </trkpt>
      <trkpt lat="44.1845" lon="5.28269">
        <ele>1399.7</ele>
        <time>2026-05-14T12:47:50.999Z</time>
      </trkpt>
      <trkpt lat="44.18449" lon="5.28268">
        <ele>1399.5</ele>
        <time>2026-05-14T12:47:51.999Z</time>
      </trkpt>
      <trkpt lat="44.18449" lon="5.28267">
        <ele>1399</ele>
        <time>2026-05-14T12:47:52.999Z</time>
      </trkpt>
      <trkpt lat="44.18448" lon="5.28265">
        <ele>1398.6</ele>
        <time>2026-05-14T12:47:53.999Z</time>
      </trkpt>
      <trkpt lat="44.18448" lon="5.28264">
        <ele>1398.4</ele>
        <time>2026-05-14T12:47:54.999Z</time>
      </trkpt>
      <trkpt lat="44.18447" lon="5.28263">
        <ele>1398</ele>
        <time>2026-05-14T12:47:55.999Z</time>
      </trkpt>
      <trkpt lat="44.18447" lon="5.28263">
        <ele>1397.6</ele>
        <time>2026-05-14T12:47:56.999Z</time>
      </trkpt>
      <trkpt lat="44.18447" lon="5.28261">
        <ele>1397</ele>
        <time>2026-05-14T12:47:57.999Z</time>
      </trkpt>
      <trkpt lat="44.18446" lon="5.28259">
        <ele>1396.4</ele>
        <time>2026-05-14T12:47:58.999Z</time>
      </trkpt>
      <trkpt lat="44.18446" lon="5.28259">
        <ele>1396.4</ele>
        <time>2026-05-14T12:47:59.999Z</time>
      </trkpt>
      <trkpt lat="44.18445" lon="5.28256">
        <ele>1396.6</ele>
        <time>2026-05-14T12:48:00.999Z</time>
      </trkpt>
      <trkpt lat="44.18444" lon="5.28255">
        <ele>1396.6</ele>
        <time>2026-05-14T12:48:01.999Z</time>
      </trkpt>
      <trkpt lat="44.18443" lon="5.28251">
        <ele>1396.4</ele>
        <time>2026-05-14T12:48:03.999Z</time>
      </trkpt>
      <trkpt lat="44.18442" lon="5.28251">
        <ele>1395.8</ele>
        <time>2026-05-14T12:48:04.999Z</time>
      </trkpt>
      <trkpt lat="44.18442" lon="5.28249">
        <ele>1395.9</ele>
        <time>2026-05-14T12:48:05.999Z</time>
      </trkpt>
      <trkpt lat="44.1844" lon="5.28247">
        <ele>1395.9</ele>
        <time>2026-05-14T12:48:06.999Z</time>
      </trkpt>
      <trkpt lat="44.18438" lon="5.28244">
        <ele>1396.1</ele>
        <time>2026-05-14T12:48:07.999Z</time>
      </trkpt>
      <trkpt lat="44.18437" lon="5.28241">
        <ele>1396.5</ele>
        <time>2026-05-14T12:48:08.999Z</time>
      </trkpt>
      <trkpt lat="44.18436" lon="5.28239">
        <ele>1396.5</ele>
        <time>2026-05-14T12:48:09.999Z</time>
      </trkpt>
      <trkpt lat="44.18434" lon="5.28237">
        <ele>1396.5</ele>
        <time>2026-05-14T12:48:10.999Z</time>
      </trkpt>
      <trkpt lat="44.18433" lon="5.28235">
        <ele>1396.1</ele>
        <time>2026-05-14T12:48:11.999Z</time>
      </trkpt>
      <trkpt lat="44.18433" lon="5.28233">
        <ele>1396.1</ele>
        <time>2026-05-14T12:48:12.999Z</time>
      </trkpt>
      <trkpt lat="44.18432" lon="5.28232">
        <ele>1395.5</ele>
        <time>2026-05-14T12:48:13.999Z</time>
      </trkpt>
      <trkpt lat="44.18431" lon="5.2823">
        <ele>1394.6</ele>
        <time>2026-05-14T12:48:14.999Z</time>
      </trkpt>
      <trkpt lat="44.18431" lon="5.28229">
        <ele>1394.1</ele>
        <time>2026-05-14T12:48:15.999Z</time>
      </trkpt>
      <trkpt lat="44.1843" lon="5.28228">
        <ele>1393.9</ele>
        <time>2026-05-14T12:48:16.999Z</time>
      </trkpt>
      <trkpt lat="44.1843" lon="5.28227">
        <ele>1393.5</ele>
        <time>2026-05-14T12:48:17.999Z</time>
      </trkpt>
      <trkpt lat="44.1843" lon="5.28227">
        <ele>1393.2</ele>
        <time>2026-05-14T12:48:18.999Z</time>
      </trkpt>
      <trkpt lat="44.18429" lon="5.28226">
        <ele>1393</ele>
        <time>2026-05-14T12:48:19.999Z</time>
      </trkpt>
      <trkpt lat="44.18429" lon="5.28225">
        <ele>1393.1</ele>
        <time>2026-05-14T12:48:20.999Z</time>
      </trkpt>
      <trkpt lat="44.18427" lon="5.28224">
        <ele>1393</ele>
        <time>2026-05-14T12:48:21.999Z</time>
      </trkpt>
      <trkpt lat="44.18426" lon="5.28223">
        <ele>1392.7</ele>
        <time>2026-05-14T12:48:22.999Z</time>
      </trkpt>
      <trkpt lat="44.18425" lon="5.28222">
        <ele>1392.2</ele>
        <time>2026-05-14T12:48:23.999Z</time>
      </trkpt>
      <trkpt lat="44.18424" lon="5.28221">
        <ele>1391.9</ele>
        <time>2026-05-14T12:48:24.999Z</time>
      </trkpt>
      <trkpt lat="44.18423" lon="5.2822">
        <ele>1391.5</ele>
        <time>2026-05-14T12:48:25.999Z</time>
      </trkpt>
      <trkpt lat="44.18422" lon="5.2822">
        <ele>1391.1</ele>
        <time>2026-05-14T12:48:26.999Z</time>
      </trkpt>
      <trkpt lat="44.18421" lon="5.28219">
        <ele>1391.3</ele>
        <time>2026-05-14T12:48:27.999Z</time>
      </trkpt>
      <trkpt lat="44.18419" lon="5.28219">
        <ele>1391.3</ele>
        <time>2026-05-14T12:48:28.999Z</time>
      </trkpt>
      <trkpt lat="44.18419" lon="5.2822">
        <ele>1391.3</ele>
        <time>2026-05-14T12:48:29.999Z</time>
      </trkpt>
      <trkpt lat="44.18418" lon="5.28222">
        <ele>1391.4</ele>
        <time>2026-05-14T12:48:30.999Z</time>
      </trkpt>
      <trkpt lat="44.18417" lon="5.28223">
        <ele>1391.4</ele>
        <time>2026-05-14T12:48:31.999Z</time>
      </trkpt>
      <trkpt lat="44.18417" lon="5.28224">
        <ele>1391.1</ele>
        <time>2026-05-14T12:48:32.999Z</time>
      </trkpt>
      <trkpt lat="44.18417" lon="5.28225">
        <ele>1390.4</ele>
        <time>2026-05-14T12:48:33.999Z</time>
      </trkpt>
      <trkpt lat="44.18417" lon="5.28225">
        <ele>1390.4</ele>
        <time>2026-05-14T12:48:34.999Z</time>
      </trkpt>
      <trkpt lat="44.18417" lon="5.28227">
        <ele>1390.3</ele>
        <time>2026-05-14T12:48:35.999Z</time>
      </trkpt>
      <trkpt lat="44.18417" lon="5.28228">
        <ele>1390.3</ele>
        <time>2026-05-14T12:48:36.999Z</time>
      </trkpt>
      <trkpt lat="44.18417" lon="5.2823">
        <ele>1390.1</ele>
        <time>2026-05-14T12:48:37.999Z</time>
      </trkpt>
      <trkpt lat="44.18416" lon="5.28232">
        <ele>1389.6</ele>
        <time>2026-05-14T12:48:38.999Z</time>
      </trkpt>
      <trkpt lat="44.18416" lon="5.28234">
        <ele>1389.1</ele>
        <time>2026-05-14T12:48:39.999Z</time>
      </trkpt>
      <trkpt lat="44.18416" lon="5.28235">
        <ele>1388.7</ele>
        <time>2026-05-14T12:48:40.999Z</time>
      </trkpt>
      <trkpt lat="44.18416" lon="5.28237">
        <ele>1388.4</ele>
        <time>2026-05-14T12:48:41.999Z</time>
      </trkpt>
      <trkpt lat="44.18416" lon="5.28238">
        <ele>1388.5</ele>
        <time>2026-05-14T12:48:42.999Z</time>
      </trkpt>
      <trkpt lat="44.18416" lon="5.28239">
        <ele>1388.3</ele>
        <time>2026-05-14T12:48:43.999Z</time>
      </trkpt>
      <trkpt lat="44.18417" lon="5.28241">
        <ele>1388.7</ele>
        <time>2026-05-14T12:48:44.999Z</time>
      </trkpt>
      <trkpt lat="44.18417" lon="5.28242">
        <ele>1388.8</ele>
        <time>2026-05-14T12:48:45.999Z</time>
      </trkpt>
      <trkpt lat="44.18416" lon="5.28244">
        <ele>1389.2</ele>
        <time>2026-05-14T12:48:46.999Z</time>
      </trkpt>
      <trkpt lat="44.18415" lon="5.28246">
        <ele>1388.9</ele>
        <time>2026-05-14T12:48:47.999Z</time>
      </trkpt>
      <trkpt lat="44.18415" lon="5.28248">
        <ele>1388.3</ele>
        <time>2026-05-14T12:48:48.999Z</time>
      </trkpt>
      <trkpt lat="44.18416" lon="5.2825">
        <ele>1387.7</ele>
        <time>2026-05-14T12:48:49.999Z</time>
      </trkpt>
      <trkpt lat="44.18416" lon="5.28251">
        <ele>1386.2</ele>
        <time>2026-05-14T12:48:50.999Z</time>
      </trkpt>
      <trkpt lat="44.18416" lon="5.28253">
        <ele>1385.2</ele>
        <time>2026-05-14T12:48:51.999Z</time>
      </trkpt>
      <trkpt lat="44.18416" lon="5.28254">
        <ele>1384.6</ele>
        <time>2026-05-14T12:48:52.999Z</time>
      </trkpt>
      <trkpt lat="44.18414" lon="5.28255">
        <ele>1383.9</ele>
        <time>2026-05-14T12:48:53.999Z</time>
      </trkpt>
      <trkpt lat="44.18413" lon="5.28256">
        <ele>1383.3</ele>
        <time>2026-05-14T12:48:54.999Z</time>
      </trkpt>
      <trkpt lat="44.18413" lon="5.28257">
        <ele>1382.8</ele>
        <time>2026-05-14T12:48:55.999Z</time>
      </trkpt>
      <trkpt lat="44.18412" lon="5.28258">
        <ele>1382.5</ele>
        <time>2026-05-14T12:48:56.999Z</time>
      </trkpt>
      <trkpt lat="44.18412" lon="5.28259">
        <ele>1382.5</ele>
        <time>2026-05-14T12:48:57.999Z</time>
      </trkpt>
      <trkpt lat="44.18412" lon="5.2826">
        <ele>1382.9</ele>
        <time>2026-05-14T12:48:58.999Z</time>
      </trkpt>
      <trkpt lat="44.18412" lon="5.28261">
        <ele>1383.3</ele>
        <time>2026-05-14T12:48:59.999Z</time>
      </trkpt>
      <trkpt lat="44.18411" lon="5.28263">
        <ele>1383.5</ele>
        <time>2026-05-14T12:49:00.999Z</time>
      </trkpt>
      <trkpt lat="44.18411" lon="5.28266">
        <ele>1383.7</ele>
        <time>2026-05-14T12:49:01.999Z</time>
      </trkpt>
      <trkpt lat="44.1841" lon="5.28268">
        <ele>1383.1</ele>
        <time>2026-05-14T12:49:02.999Z</time>
      </trkpt>
      <trkpt lat="44.1841" lon="5.28271">
        <ele>1382.8</ele>
        <time>2026-05-14T12:49:03.999Z</time>
      </trkpt>
      <trkpt lat="44.18409" lon="5.28273">
        <ele>1383</ele>
        <time>2026-05-14T12:49:04.999Z</time>
      </trkpt>
      <trkpt lat="44.18409" lon="5.28276">
        <ele>1382.6</ele>
        <time>2026-05-14T12:49:05.999Z</time>
      </trkpt>
      <trkpt lat="44.18409" lon="5.28276">
        <ele>1382</ele>
        <time>2026-05-14T12:49:06.999Z</time>
      </trkpt>
      <trkpt lat="44.18409" lon="5.28277">
        <ele>1381.2</ele>
        <time>2026-05-14T12:49:07.999Z</time>
      </trkpt>
      <trkpt lat="44.18409" lon="5.28277">
        <ele>1381.3</ele>
        <time>2026-05-14T12:49:08.999Z</time>
      </trkpt>
      <trkpt lat="44.18409" lon="5.28278">
        <ele>1381.8</ele>
        <time>2026-05-14T12:49:09.999Z</time>
      </trkpt>
      <trkpt lat="44.18409" lon="5.28279">
        <ele>1381.1</ele>
        <time>2026-05-14T12:49:10.999Z</time>
      </trkpt>
      <trkpt lat="44.18409" lon="5.2828">
        <ele>1380.6</ele>
        <time>2026-05-14T12:49:11.999Z</time>
      </trkpt>
      <trkpt lat="44.18408" lon="5.28282">
        <ele>1380.5</ele>
        <time>2026-05-14T12:49:12.999Z</time>
      </trkpt>
      <trkpt lat="44.18407" lon="5.28283">
        <ele>1380.4</ele>
        <time>2026-05-14T12:49:13.999Z</time>
      </trkpt>
      <trkpt lat="44.18407" lon="5.28285">
        <ele>1381</ele>
        <time>2026-05-14T12:49:14.999Z</time>
      </trkpt>
      <trkpt lat="44.18406" lon="5.28286">
        <ele>1380.6</ele>
        <time>2026-05-14T12:49:15.999Z</time>
      </trkpt>
      <trkpt lat="44.18406" lon="5.28287">
        <ele>1381</ele>
        <time>2026-05-14T12:49:16.999Z</time>
      </trkpt>
      <trkpt lat="44.18406" lon="5.28289">
        <ele>1380.9</ele>
        <time>2026-05-14T12:49:17.999Z</time>
      </trkpt>
      <trkpt lat="44.18406" lon="5.28291">
        <ele>1382.4</ele>
        <time>2026-05-14T12:49:18.999Z</time>
      </trkpt>
      <trkpt lat="44.18407" lon="5.28294">
        <ele>1383.2</ele>
        <time>2026-05-14T12:49:19.999Z</time>
      </trkpt>
      <trkpt lat="44.18407" lon="5.28297">
        <ele>1384.7</ele>
        <time>2026-05-14T12:49:20.999Z</time>
      </trkpt>
      <trkpt lat="44.18408" lon="5.28299">
        <ele>1386</ele>
        <time>2026-05-14T12:49:21.999Z</time>
      </trkpt>
      <trkpt lat="44.18408" lon="5.28301">
        <ele>1386.3</ele>
        <time>2026-05-14T12:49:22.999Z</time>
      </trkpt>
      <trkpt lat="44.18408" lon="5.28302">
        <ele>1386.8</ele>
        <time>2026-05-14T12:49:23.999Z</time>
      </trkpt>
      <trkpt lat="44.18408" lon="5.28304">
        <ele>1387.1</ele>
        <time>2026-05-14T12:49:24.999Z</time>
      </trkpt>
      <trkpt lat="44.18408" lon="5.28305">
        <ele>1386.7</ele>
        <time>2026-05-14T12:49:25.999Z</time>
      </trkpt>
      <trkpt lat="44.18408" lon="5.28306">
        <ele>1387.1</ele>
        <time>2026-05-14T12:49:26.999Z</time>
      </trkpt>
      <trkpt lat="44.18408" lon="5.28308">
        <ele>1387.1</ele>
        <time>2026-05-14T12:49:27.999Z</time>
      </trkpt>
      <trkpt lat="44.18408" lon="5.28309">
        <ele>1387.1</ele>
        <time>2026-05-14T12:49:28.999Z</time>
      </trkpt>
      <trkpt lat="44.18408" lon="5.28311">
        <ele>1387.2</ele>
        <time>2026-05-14T12:49:29.999Z</time>
      </trkpt>
      <trkpt lat="44.18407" lon="5.28312">
        <ele>1387.2</ele>
        <time>2026-05-14T12:49:30.999Z</time>
      </trkpt>
      <trkpt lat="44.18406" lon="5.28312">
        <ele>1387.3</ele>
        <time>2026-05-14T12:49:31.999Z</time>
      </trkpt>
      <trkpt lat="44.18405" lon="5.28314">
        <ele>1387.5</ele>
        <time>2026-05-14T12:49:32.999Z</time>
      </trkpt>
      <trkpt lat="44.18405" lon="5.28315">
        <ele>1387.8</ele>
        <time>2026-05-14T12:49:33.999Z</time>
      </trkpt>
      <trkpt lat="44.18405" lon="5.28317">
        <ele>1387.6</ele>
        <time>2026-05-14T12:49:34.999Z</time>
      </trkpt>
      <trkpt lat="44.18404" lon="5.28319">
        <ele>1387.2</ele>
        <time>2026-05-14T12:49:35.999Z</time>
      </trkpt>
      <trkpt lat="44.18404" lon="5.2832">
        <ele>1385.9</ele>
        <time>2026-05-14T12:49:36.999Z</time>
      </trkpt>
      <trkpt lat="44.18403" lon="5.2832">
        <ele>1385.2</ele>
        <time>2026-05-14T12:49:37.999Z</time>
      </trkpt>
      <trkpt lat="44.18402" lon="5.2832">
        <ele>1384.7</ele>
        <time>2026-05-14T12:49:38.999Z</time>
      </trkpt>
      <trkpt lat="44.18402" lon="5.2832">
        <ele>1384.2</ele>
        <time>2026-05-14T12:49:39.999Z</time>
      </trkpt>
      <trkpt lat="44.18401" lon="5.28321">
        <ele>1384.4</ele>
        <time>2026-05-14T12:49:40.999Z</time>
      </trkpt>
      <trkpt lat="44.18401" lon="5.28321">
        <ele>1384.7</ele>
        <time>2026-05-14T12:49:41.999Z</time>
      </trkpt>
      <trkpt lat="44.184" lon="5.28322">
        <ele>1384.6</ele>
        <time>2026-05-14T12:49:42.999Z</time>
      </trkpt>
      <trkpt lat="44.184" lon="5.28323">
        <ele>1384.2</ele>
        <time>2026-05-14T12:49:43.999Z</time>
      </trkpt>
      <trkpt lat="44.184" lon="5.28324">
        <ele>1383.6</ele>
        <time>2026-05-14T12:49:44.999Z</time>
      </trkpt>
      <trkpt lat="44.18401" lon="5.28326">
        <ele>1383.3</ele>
        <time>2026-05-14T12:49:45.999Z</time>
      </trkpt>
      <trkpt lat="44.18401" lon="5.28329">
        <ele>1383.1</ele>
        <time>2026-05-14T12:49:46.999Z</time>
      </trkpt>
      <trkpt lat="44.18402" lon="5.28331">
        <ele>1381.8</ele>
        <time>2026-05-14T12:49:47.999Z</time>
      </trkpt>
      <trkpt lat="44.18401" lon="5.28333">
        <ele>1381.7</ele>
        <time>2026-05-14T12:49:48.999Z</time>
      </trkpt>
      <trkpt lat="44.18401" lon="5.28335">
        <ele>1381.7</ele>
        <time>2026-05-14T12:49:49.999Z</time>
      </trkpt>
      <trkpt lat="44.18401" lon="5.28335">
        <ele>1382.2</ele>
        <time>2026-05-14T12:49:50.999Z</time>
      </trkpt>
      <trkpt lat="44.18401" lon="5.28337">
        <ele>1382.1</ele>
        <time>2026-05-14T12:49:51.999Z</time>
      </trkpt>
      <trkpt lat="44.18401" lon="5.28338">
        <ele>1381.9</ele>
        <time>2026-05-14T12:49:52.999Z</time>
      </trkpt>
      <trkpt lat="44.18402" lon="5.28339">
        <ele>1382</ele>
        <time>2026-05-14T12:49:53.999Z</time>
      </trkpt>
      <trkpt lat="44.18402" lon="5.28341">
        <ele>1382.4</ele>
        <time>2026-05-14T12:49:54.999Z</time>
      </trkpt>
      <trkpt lat="44.18402" lon="5.28341">
        <ele>1382.3</ele>
        <time>2026-05-14T12:49:55.999Z</time>
      </trkpt>
      <trkpt lat="44.18402" lon="5.28342">
        <ele>1381.9</ele>
        <time>2026-05-14T12:49:56.999Z</time>
      </trkpt>
      <trkpt lat="44.18402" lon="5.28343">
        <ele>1381.8</ele>
        <time>2026-05-14T12:49:57.999Z</time>
      </trkpt>
      <trkpt lat="44.18403" lon="5.28344">
        <ele>1381.7</ele>
        <time>2026-05-14T12:49:58.999Z</time>
      </trkpt>
      <trkpt lat="44.18403" lon="5.28344">
        <ele>1381.7</ele>
        <time>2026-05-14T12:49:59.999Z</time>
      </trkpt>
      <trkpt lat="44.18403" lon="5.28344">
        <ele>1381.5</ele>
        <time>2026-05-14T12:50:00.999Z</time>
      </trkpt>
      <trkpt lat="44.18403" lon="5.28344">
        <ele>1381.3</ele>
        <time>2026-05-14T12:50:01.999Z</time>
      </trkpt>
      <trkpt lat="44.18403" lon="5.28345">
        <ele>1381.1</ele>
        <time>2026-05-14T12:50:02.999Z</time>
      </trkpt>
      <trkpt lat="44.18403" lon="5.28345">
        <ele>1381.3</ele>
        <time>2026-05-14T12:50:03.999Z</time>
      </trkpt>
      <trkpt lat="44.18403" lon="5.28345">
        <ele>1381.5</ele>
        <time>2026-05-14T12:50:04.999Z</time>
      </trkpt>
      <trkpt lat="44.18403" lon="5.28345">
        <ele>1381.5</ele>
        <time>2026-05-14T12:50:05.999Z</time>
      </trkpt>
      <trkpt lat="44.18403" lon="5.28345">
        <ele>1381.4</ele>
        <time>2026-05-14T12:50:06.999Z</time>
      </trkpt>
      <trkpt lat="44.18402" lon="5.28345">
        <ele>1381.1</ele>
        <time>2026-05-14T12:50:07.999Z</time>
      </trkpt>
      <trkpt lat="44.18403" lon="5.28345">
        <ele>1381</ele>
        <time>2026-05-14T12:50:08.999Z</time>
      </trkpt>
      <trkpt lat="44.18403" lon="5.28346">
        <ele>1380.9</ele>
        <time>2026-05-14T12:50:09.999Z</time>
      </trkpt>
      <trkpt lat="44.18404" lon="5.28347">
        <ele>1380.6</ele>
        <time>2026-05-14T12:50:10.999Z</time>
      </trkpt>
      <trkpt lat="44.18405" lon="5.28348">
        <ele>1379.8</ele>
        <time>2026-05-14T12:50:11.999Z</time>
      </trkpt>
      <trkpt lat="44.18405" lon="5.28349">
        <ele>1379.7</ele>
        <time>2026-05-14T12:50:12.999Z</time>
      </trkpt>
      <trkpt lat="44.18405" lon="5.28351">
        <ele>1379.9</ele>
        <time>2026-05-14T12:50:13.999Z</time>
      </trkpt>
      <trkpt lat="44.18405" lon="5.28352">
        <ele>1379.7</ele>
        <time>2026-05-14T12:50:14.999Z</time>
      </trkpt>
      <trkpt lat="44.18406" lon="5.28353">
        <ele>1379.3</ele>
        <time>2026-05-14T12:50:15.999Z</time>
      </trkpt>
      <trkpt lat="44.18406" lon="5.28353">
        <ele>1379</ele>
        <time>2026-05-14T12:50:16.999Z</time>
      </trkpt>
      <trkpt lat="44.18406" lon="5.28353">
        <ele>1378.4</ele>
        <time>2026-05-14T12:50:17.999Z</time>
      </trkpt>
      <trkpt lat="44.18406" lon="5.28354">
        <ele>1378.7</ele>
        <time>2026-05-14T12:50:18.999Z</time>
      </trkpt>
      <trkpt lat="44.18406" lon="5.28355">
        <ele>1379</ele>
        <time>2026-05-14T12:50:19.999Z</time>
      </trkpt>
      <trkpt lat="44.18406" lon="5.28356">
        <ele>1378.5</ele>
        <time>2026-05-14T12:50:20.999Z</time>
      </trkpt>
      <trkpt lat="44.18406" lon="5.2836">
        <ele>1378</ele>
        <time>2026-05-14T12:50:21.999Z</time>
      </trkpt>
      <trkpt lat="44.18406" lon="5.28366">
        <ele>1378</ele>
        <time>2026-05-14T12:50:22.999Z</time>
      </trkpt>
      <trkpt lat="44.18407" lon="5.28371">
        <ele>1377.8</ele>
        <time>2026-05-14T12:50:23.999Z</time>
      </trkpt>
      <trkpt lat="44.18407" lon="5.28376">
        <ele>1377.9</ele>
        <time>2026-05-14T12:50:24.999Z</time>
      </trkpt>
      <trkpt lat="44.18408" lon="5.28378">
        <ele>1377.6</ele>
        <time>2026-05-14T12:50:25.999Z</time>
      </trkpt>
      <trkpt lat="44.18408" lon="5.28382">
        <ele>1377.6</ele>
        <time>2026-05-14T12:50:26.999Z</time>
      </trkpt>
      <trkpt lat="44.18408" lon="5.28385">
        <ele>1377.6</ele>
        <time>2026-05-14T12:50:27.999Z</time>
      </trkpt>
      <trkpt lat="44.18408" lon="5.28386">
        <ele>1377.4</ele>
        <time>2026-05-14T12:50:28.999Z</time>
      </trkpt>
      <trkpt lat="44.18407" lon="5.28389">
        <ele>1377.5</ele>
        <time>2026-05-14T12:50:29.999Z</time>
      </trkpt>
      <trkpt lat="44.18408" lon="5.2839">
        <ele>1378</ele>
        <time>2026-05-14T12:50:30.999Z</time>
      </trkpt>
      <trkpt lat="44.18408" lon="5.28392">
        <ele>1377.5</ele>
        <time>2026-05-14T12:50:31.999Z</time>
      </trkpt>
      <trkpt lat="44.18409" lon="5.28394">
        <ele>1376.9</ele>
        <time>2026-05-14T12:50:32.999Z</time>
      </trkpt>
      <trkpt lat="44.18409" lon="5.28396">
        <ele>1376.4</ele>
        <time>2026-05-14T12:50:33.999Z</time>
      </trkpt>
      <trkpt lat="44.1841" lon="5.28398">
        <ele>1376.5</ele>
        <time>2026-05-14T12:50:34.999Z</time>
      </trkpt>
      <trkpt lat="44.18411" lon="5.28398">
        <ele>1375.9</ele>
        <time>2026-05-14T12:50:35.999Z</time>
      </trkpt>
      <trkpt lat="44.18411" lon="5.28399">
        <ele>1375.6</ele>
        <time>2026-05-14T12:50:36.999Z</time>
      </trkpt>
      <trkpt lat="44.18412" lon="5.28399">
        <ele>1375.2</ele>
        <time>2026-05-14T12:50:37.999Z</time>
      </trkpt>
      <trkpt lat="44.18412" lon="5.284">
        <ele>1374.5</ele>
        <time>2026-05-14T12:50:38.999Z</time>
      </trkpt>
      <trkpt lat="44.18412" lon="5.28401">
        <ele>1373.3</ele>
        <time>2026-05-14T12:50:39.999Z</time>
      </trkpt>
      <trkpt lat="44.18413" lon="5.28403">
        <ele>1372.1</ele>
        <time>2026-05-14T12:50:40.999Z</time>
      </trkpt>
      <trkpt lat="44.18413" lon="5.28404">
        <ele>1371.2</ele>
        <time>2026-05-14T12:50:41.999Z</time>
      </trkpt>
      <trkpt lat="44.18414" lon="5.28406">
        <ele>1370.6</ele>
        <time>2026-05-14T12:50:42.999Z</time>
      </trkpt>
      <trkpt lat="44.18414" lon="5.28407">
        <ele>1370.3</ele>
        <time>2026-05-14T12:50:43.999Z</time>
      </trkpt>
      <trkpt lat="44.18414" lon="5.28409">
        <ele>1370.2</ele>
        <time>2026-05-14T12:50:44.999Z</time>
      </trkpt>
      <trkpt lat="44.18414" lon="5.28411">
        <ele>1370.4</ele>
        <time>2026-05-14T12:50:45.999Z</time>
      </trkpt>
      <trkpt lat="44.18414" lon="5.28413">
        <ele>1370.2</ele>
        <time>2026-05-14T12:50:46.999Z</time>
      </trkpt>
      <trkpt lat="44.18414" lon="5.28415">
        <ele>1369.8</ele>
        <time>2026-05-14T12:50:47.999Z</time>
      </trkpt>
      <trkpt lat="44.18414" lon="5.28417">
        <ele>1369.7</ele>
        <time>2026-05-14T12:50:48.999Z</time>
      </trkpt>
      <trkpt lat="44.18414" lon="5.28418">
        <ele>1370</ele>
        <time>2026-05-14T12:50:49.999Z</time>
      </trkpt>
      <trkpt lat="44.18415" lon="5.2842">
        <ele>1369.8</ele>
        <time>2026-05-14T12:50:50.999Z</time>
      </trkpt>
      <trkpt lat="44.18415" lon="5.28422">
        <ele>1370</ele>
        <time>2026-05-14T12:50:51.999Z</time>
      </trkpt>
      <trkpt lat="44.18415" lon="5.28423">
        <ele>1369.8</ele>
        <time>2026-05-14T12:50:52.999Z</time>
      </trkpt>
      <trkpt lat="44.18415" lon="5.28424">
        <ele>1369.3</ele>
        <time>2026-05-14T12:50:53.999Z</time>
      </trkpt>
      <trkpt lat="44.18415" lon="5.28425">
        <ele>1369</ele>
        <time>2026-05-14T12:50:54.999Z</time>
      </trkpt>
      <trkpt lat="44.18415" lon="5.28426">
        <ele>1368.2</ele>
        <time>2026-05-14T12:50:55.999Z</time>
      </trkpt>
      <trkpt lat="44.18415" lon="5.28426">
        <ele>1368.8</ele>
        <time>2026-05-14T12:50:56.999Z</time>
      </trkpt>
      <trkpt lat="44.18415" lon="5.28426">
        <ele>1368.4</ele>
        <time>2026-05-14T12:50:57.999Z</time>
      </trkpt>
      <trkpt lat="44.18416" lon="5.28427">
        <ele>1368.2</ele>
        <time>2026-05-14T12:50:58.999Z</time>
      </trkpt>
      <trkpt lat="44.18416" lon="5.28428">
        <ele>1367.9</ele>
        <time>2026-05-14T12:50:59.999Z</time>
      </trkpt>
      <trkpt lat="44.18417" lon="5.2843">
        <ele>1367.9</ele>
        <time>2026-05-14T12:51:00.999Z</time>
      </trkpt>
      <trkpt lat="44.18418" lon="5.2843">
        <ele>1367.9</ele>
        <time>2026-05-14T12:51:01.999Z</time>
      </trkpt>
      <trkpt lat="44.18418" lon="5.28432">
        <ele>1367.9</ele>
        <time>2026-05-14T12:51:02.999Z</time>
      </trkpt>
      <trkpt lat="44.18418" lon="5.28433">
        <ele>1367.8</ele>
        <time>2026-05-14T12:51:03.999Z</time>
      </trkpt>
      <trkpt lat="44.18419" lon="5.28434">
        <ele>1367.8</ele>
        <time>2026-05-14T12:51:04.999Z</time>
      </trkpt>
      <trkpt lat="44.1842" lon="5.28436">
        <ele>1367.6</ele>
        <time>2026-05-14T12:51:05.999Z</time>
      </trkpt>
      <trkpt lat="44.1842" lon="5.28438">
        <ele>1367.2</ele>
        <time>2026-05-14T12:51:06.999Z</time>
      </trkpt>
      <trkpt lat="44.18421" lon="5.2844">
        <ele>1367.1</ele>
        <time>2026-05-14T12:51:07.999Z</time>
      </trkpt>
      <trkpt lat="44.18421" lon="5.28442">
        <ele>1366.9</ele>
        <time>2026-05-14T12:51:08.999Z</time>
      </trkpt>
      <trkpt lat="44.18421" lon="5.28444">
        <ele>1366</ele>
        <time>2026-05-14T12:51:09.999Z</time>
      </trkpt>
      <trkpt lat="44.18421" lon="5.28444">
        <ele>1365.9</ele>
        <time>2026-05-14T12:51:10.999Z</time>
      </trkpt>
      <trkpt lat="44.18421" lon="5.28445">
        <ele>1365.7</ele>
        <time>2026-05-14T12:51:11.999Z</time>
      </trkpt>
      <trkpt lat="44.18421" lon="5.28445">
        <ele>1365.2</ele>
        <time>2026-05-14T12:51:12.999Z</time>
      </trkpt>
      <trkpt lat="44.18421" lon="5.28446">
        <ele>1365</ele>
        <time>2026-05-14T12:51:13.999Z</time>
      </trkpt>
      <trkpt lat="44.18422" lon="5.28447">
        <ele>1365</ele>
        <time>2026-05-14T12:51:14.999Z</time>
      </trkpt>
      <trkpt lat="44.18423" lon="5.2845">
        <ele>1365.2</ele>
        <time>2026-05-14T12:51:15.999Z</time>
      </trkpt>
      <trkpt lat="44.18424" lon="5.28452">
        <ele>1365</ele>
        <time>2026-05-14T12:51:16.999Z</time>
      </trkpt>
      <trkpt lat="44.18424" lon="5.28454">
        <ele>1365</ele>
        <time>2026-05-14T12:51:17.999Z</time>
      </trkpt>
      <trkpt lat="44.18424" lon="5.28456">
        <ele>1364.4</ele>
        <time>2026-05-14T12:51:18.999Z</time>
      </trkpt>
      <trkpt lat="44.18425" lon="5.28457">
        <ele>1364.3</ele>
        <time>2026-05-14T12:51:19.999Z</time>
      </trkpt>
      <trkpt lat="44.18424" lon="5.28459">
        <ele>1363.7</ele>
        <time>2026-05-14T12:51:20.999Z</time>
      </trkpt>
      <trkpt lat="44.18424" lon="5.2846">
        <ele>1363.1</ele>
        <time>2026-05-14T12:51:21.999Z</time>
      </trkpt>
      <trkpt lat="44.18423" lon="5.28462">
        <ele>1362.3</ele>
        <time>2026-05-14T12:51:22.999Z</time>
      </trkpt>
      <trkpt lat="44.18423" lon="5.28463">
        <ele>1361.6</ele>
        <time>2026-05-14T12:51:23.999Z</time>
      </trkpt>
      <trkpt lat="44.18424" lon="5.28465">
        <ele>1361.5</ele>
        <time>2026-05-14T12:51:24.999Z</time>
      </trkpt>
      <trkpt lat="44.18424" lon="5.28467">
        <ele>1361.7</ele>
        <time>2026-05-14T12:51:25.999Z</time>
      </trkpt>
      <trkpt lat="44.18424" lon="5.28469">
        <ele>1361.5</ele>
        <time>2026-05-14T12:51:26.999Z</time>
      </trkpt>
      <trkpt lat="44.18424" lon="5.28471">
        <ele>1361.8</ele>
        <time>2026-05-14T12:51:27.999Z</time>
      </trkpt>
      <trkpt lat="44.18424" lon="5.28473">
        <ele>1362</ele>
        <time>2026-05-14T12:51:28.999Z</time>
      </trkpt>
      <trkpt lat="44.18424" lon="5.28473">
        <ele>1361.6</ele>
        <time>2026-05-14T12:51:29.999Z</time>
      </trkpt>
      <trkpt lat="44.18424" lon="5.28474">
        <ele>1362.1</ele>
        <time>2026-05-14T12:51:30.999Z</time>
      </trkpt>
      <trkpt lat="44.18424" lon="5.28474">
        <ele>1361.8</ele>
        <time>2026-05-14T12:51:31.999Z</time>
      </trkpt>
      <trkpt lat="44.18424" lon="5.28474">
        <ele>1361.5</ele>
        <time>2026-05-14T12:51:32.999Z</time>
      </trkpt>
      <trkpt lat="44.18425" lon="5.28477">
        <ele>1361</ele>
        <time>2026-05-14T12:51:33.999Z</time>
      </trkpt>
      <trkpt lat="44.18425" lon="5.2848">
        <ele>1360.2</ele>
        <time>2026-05-14T12:51:34.999Z</time>
      </trkpt>
      <trkpt lat="44.18427" lon="5.28484">
        <ele>1359.9</ele>
        <time>2026-05-14T12:51:35.999Z</time>
      </trkpt>
      <trkpt lat="44.18428" lon="5.28487">
        <ele>1359.5</ele>
        <time>2026-05-14T12:51:36.999Z</time>
      </trkpt>
      <trkpt lat="44.18428" lon="5.28489">
        <ele>1358.6</ele>
        <time>2026-05-14T12:51:37.999Z</time>
      </trkpt>
      <trkpt lat="44.18428" lon="5.2849">
        <ele>1358</ele>
        <time>2026-05-14T12:51:38.999Z</time>
      </trkpt>
      <trkpt lat="44.18428" lon="5.28492">
        <ele>1357.9</ele>
        <time>2026-05-14T12:51:39.999Z</time>
      </trkpt>
      <trkpt lat="44.18429" lon="5.28493">
        <ele>1357.9</ele>
        <time>2026-05-14T12:51:40.999Z</time>
      </trkpt>
      <trkpt lat="44.1843" lon="5.28496">
        <ele>1357.6</ele>
        <time>2026-05-14T12:51:41.999Z</time>
      </trkpt>
      <trkpt lat="44.18431" lon="5.28498">
        <ele>1357.6</ele>
        <time>2026-05-14T12:51:42.999Z</time>
      </trkpt>
      <trkpt lat="44.18431" lon="5.28501">
        <ele>1357.6</ele>
        <time>2026-05-14T12:51:43.999Z</time>
      </trkpt>
      <trkpt lat="44.18432" lon="5.28503">
        <ele>1358</ele>
        <time>2026-05-14T12:51:44.999Z</time>
      </trkpt>
      <trkpt lat="44.18432" lon="5.28502">
        <ele>1359.2</ele>
        <time>2026-05-14T12:51:45.999Z</time>
      </trkpt>
      <trkpt lat="44.18433" lon="5.28503">
        <ele>1359.4</ele>
        <time>2026-05-14T12:51:46.999Z</time>
      </trkpt>
      <trkpt lat="44.18432" lon="5.28503">
        <ele>1358.9</ele>
        <time>2026-05-14T12:51:47.999Z</time>
      </trkpt>
      <trkpt lat="44.18432" lon="5.28504">
        <ele>1358.7</ele>
        <time>2026-05-14T12:51:48.999Z</time>
      </trkpt>
      <trkpt lat="44.18432" lon="5.28505">
        <ele>1358.4</ele>
        <time>2026-05-14T12:51:49.999Z</time>
      </trkpt>
      <trkpt lat="44.18432" lon="5.28505">
        <ele>1358.1</ele>
        <time>2026-05-14T12:51:50.999Z</time>
      </trkpt>
      <trkpt lat="44.18432" lon="5.28507">
        <ele>1357.6</ele>
        <time>2026-05-14T12:51:51.999Z</time>
      </trkpt>
      <trkpt lat="44.18431" lon="5.28508">
        <ele>1356.9</ele>
        <time>2026-05-14T12:51:52.999Z</time>
      </trkpt>
      <trkpt lat="44.18431" lon="5.28509">
        <ele>1356.8</ele>
        <time>2026-05-14T12:51:53.999Z</time>
      </trkpt>
      <trkpt lat="44.18432" lon="5.28509">
        <ele>1356.8</ele>
        <time>2026-05-14T12:51:54.999Z</time>
      </trkpt>
      <trkpt lat="44.18432" lon="5.28509">
        <ele>1356.3</ele>
        <time>2026-05-14T12:51:55.999Z</time>
      </trkpt>
      <trkpt lat="44.18432" lon="5.2851">
        <ele>1356.1</ele>
        <time>2026-05-14T12:51:56.999Z</time>
      </trkpt>
      <trkpt lat="44.18432" lon="5.2851">
        <ele>1356</ele>
        <time>2026-05-14T12:51:57.999Z</time>
      </trkpt>
      <trkpt lat="44.18432" lon="5.2851">
        <ele>1356.1</ele>
        <time>2026-05-14T12:51:58.999Z</time>
      </trkpt>
      <trkpt lat="44.18432" lon="5.28511">
        <ele>1356</ele>
        <time>2026-05-14T12:51:59.999Z</time>
      </trkpt>
      <trkpt lat="44.18432" lon="5.28512">
        <ele>1355.9</ele>
        <time>2026-05-14T12:52:00.999Z</time>
      </trkpt>
      <trkpt lat="44.18432" lon="5.28512">
        <ele>1355.9</ele>
        <time>2026-05-14T12:52:01.999Z</time>
      </trkpt>
      <trkpt lat="44.18432" lon="5.28512">
        <ele>1356</ele>
        <time>2026-05-14T12:52:02.999Z</time>
      </trkpt>
      <trkpt lat="44.18432" lon="5.28512">
        <ele>1355.5</ele>
        <time>2026-05-14T12:52:03.999Z</time>
      </trkpt>
      <trkpt lat="44.18432" lon="5.28512">
        <ele>1355</ele>
        <time>2026-05-14T12:52:04.999Z</time>
      </trkpt>
      <trkpt lat="44.18433" lon="5.28516">
        <ele>1354.7</ele>
        <time>2026-05-14T12:52:05.999Z</time>
      </trkpt>
      <trkpt lat="44.18434" lon="5.28519">
        <ele>1354.3</ele>
        <time>2026-05-14T12:52:06.999Z</time>
      </trkpt>
      <trkpt lat="44.18434" lon="5.28522">
        <ele>1354</ele>
        <time>2026-05-14T12:52:07.999Z</time>
      </trkpt>
      <trkpt lat="44.18434" lon="5.28523">
        <ele>1354</ele>
        <time>2026-05-14T12:52:08.999Z</time>
      </trkpt>
      <trkpt lat="44.18434" lon="5.28525">
        <ele>1353.7</ele>
        <time>2026-05-14T12:52:09.999Z</time>
      </trkpt>
      <trkpt lat="44.18434" lon="5.28528">
        <ele>1353.7</ele>
        <time>2026-05-14T12:52:10.999Z</time>
      </trkpt>
      <trkpt lat="44.18434" lon="5.2853">
        <ele>1353.5</ele>
        <time>2026-05-14T12:52:11.999Z</time>
      </trkpt>
      <trkpt lat="44.18434" lon="5.28532">
        <ele>1353.3</ele>
        <time>2026-05-14T12:52:12.999Z</time>
      </trkpt>
      <trkpt lat="44.18434" lon="5.28534">
        <ele>1353.2</ele>
        <time>2026-05-14T12:52:13.999Z</time>
      </trkpt>
      <trkpt lat="44.18435" lon="5.28535">
        <ele>1353.2</ele>
        <time>2026-05-14T12:52:14.999Z</time>
      </trkpt>
      <trkpt lat="44.18435" lon="5.28538">
        <ele>1353.1</ele>
        <time>2026-05-14T12:52:15.999Z</time>
      </trkpt>
      <trkpt lat="44.18436" lon="5.2854">
        <ele>1353.1</ele>
        <time>2026-05-14T12:52:16.999Z</time>
      </trkpt>
      <trkpt lat="44.18437" lon="5.28541">
        <ele>1353</ele>
        <time>2026-05-14T12:52:17.999Z</time>
      </trkpt>
      <trkpt lat="44.18437" lon="5.28542">
        <ele>1353</ele>
        <time>2026-05-14T12:52:18.999Z</time>
      </trkpt>
      <trkpt lat="44.18437" lon="5.28543">
        <ele>1352.4</ele>
        <time>2026-05-14T12:52:19.999Z</time>
      </trkpt>
      <trkpt lat="44.18438" lon="5.28544">
        <ele>1351.9</ele>
        <time>2026-05-14T12:52:20.999Z</time>
      </trkpt>
      <trkpt lat="44.18438" lon="5.28546">
        <ele>1351.6</ele>
        <time>2026-05-14T12:52:21.999Z</time>
      </trkpt>
      <trkpt lat="44.18438" lon="5.28547">
        <ele>1351.6</ele>
        <time>2026-05-14T12:52:22.999Z</time>
      </trkpt>
      <trkpt lat="44.18438" lon="5.28548">
        <ele>1351.4</ele>
        <time>2026-05-14T12:52:23.999Z</time>
      </trkpt>
      <trkpt lat="44.18438" lon="5.28549">
        <ele>1350.7</ele>
        <time>2026-05-14T12:52:24.999Z</time>
      </trkpt>
      <trkpt lat="44.18438" lon="5.28549">
        <ele>1350.4</ele>
        <time>2026-05-14T12:52:25.999Z</time>
      </trkpt>
      <trkpt lat="44.18438" lon="5.2855">
        <ele>1350.1</ele>
        <time>2026-05-14T12:52:26.999Z</time>
      </trkpt>
      <trkpt lat="44.18439" lon="5.28551">
        <ele>1350</ele>
        <time>2026-05-14T12:52:27.999Z</time>
      </trkpt>
      <trkpt lat="44.18439" lon="5.28553">
        <ele>1349.4</ele>
        <time>2026-05-14T12:52:28.999Z</time>
      </trkpt>
      <trkpt lat="44.18439" lon="5.28555">
        <ele>1349.2</ele>
        <time>2026-05-14T12:52:29.999Z</time>
      </trkpt>
      <trkpt lat="44.18439" lon="5.28556">
        <ele>1348.4</ele>
        <time>2026-05-14T12:52:30.999Z</time>
      </trkpt>
      <trkpt lat="44.18439" lon="5.28557">
        <ele>1348.4</ele>
        <time>2026-05-14T12:52:31.999Z</time>
      </trkpt>
      <trkpt lat="44.18439" lon="5.28558">
        <ele>1348.3</ele>
        <time>2026-05-14T12:52:32.999Z</time>
      </trkpt>
      <trkpt lat="44.1844" lon="5.28559">
        <ele>1348.6</ele>
        <time>2026-05-14T12:52:33.999Z</time>
      </trkpt>
      <trkpt lat="44.1844" lon="5.28559">
        <ele>1348.6</ele>
        <time>2026-05-14T12:52:34.999Z</time>
      </trkpt>
      <trkpt lat="44.1844" lon="5.28559">
        <ele>1348.7</ele>
        <time>2026-05-14T12:52:35.999Z</time>
      </trkpt>
      <trkpt lat="44.18439" lon="5.2856">
        <ele>1348.8</ele>
        <time>2026-05-14T12:52:36.999Z</time>
      </trkpt>
      <trkpt lat="44.18439" lon="5.28561">
        <ele>1348.6</ele>
        <time>2026-05-14T12:52:37.999Z</time>
      </trkpt>
      <trkpt lat="44.18438" lon="5.28562">
        <ele>1348.3</ele>
        <time>2026-05-14T12:52:38.999Z</time>
      </trkpt>
      <trkpt lat="44.18438" lon="5.28564">
        <ele>1348.1</ele>
        <time>2026-05-14T12:52:39.999Z</time>
      </trkpt>
      <trkpt lat="44.18437" lon="5.28565">
        <ele>1348.1</ele>
        <time>2026-05-14T12:52:40.999Z</time>
      </trkpt>
      <trkpt lat="44.18437" lon="5.28566">
        <ele>1347.7</ele>
        <time>2026-05-14T12:52:41.999Z</time>
      </trkpt>
      <trkpt lat="44.18436" lon="5.28566">
        <ele>1348</ele>
        <time>2026-05-14T12:52:42.999Z</time>
      </trkpt>
      <trkpt lat="44.18436" lon="5.28566">
        <ele>1348</ele>
        <time>2026-05-14T12:52:43.999Z</time>
      </trkpt>
      <trkpt lat="44.18436" lon="5.28566">
        <ele>1348.4</ele>
        <time>2026-05-14T12:52:44.999Z</time>
      </trkpt>
      <trkpt lat="44.18436" lon="5.28566">
        <ele>1348.9</ele>
        <time>2026-05-14T12:52:45.999Z</time>
      </trkpt>
      <trkpt lat="44.18436" lon="5.28567">
        <ele>1349.1</ele>
        <time>2026-05-14T12:52:46.999Z</time>
      </trkpt>
      <trkpt lat="44.18435" lon="5.28568">
        <ele>1349.1</ele>
        <time>2026-05-14T12:52:47.999Z</time>
      </trkpt>
      <trkpt lat="44.18434" lon="5.28568">
        <ele>1349.2</ele>
        <time>2026-05-14T12:52:48.999Z</time>
      </trkpt>
      <trkpt lat="44.18434" lon="5.28568">
        <ele>1349.3</ele>
        <time>2026-05-14T12:52:49.999Z</time>
      </trkpt>
      <trkpt lat="44.18434" lon="5.28569">
        <ele>1349.3</ele>
        <time>2026-05-14T12:52:50.999Z</time>
      </trkpt>
      <trkpt lat="44.18433" lon="5.2857">
        <ele>1349.2</ele>
        <time>2026-05-14T12:52:51.999Z</time>
      </trkpt>
      <trkpt lat="44.18432" lon="5.28572">
        <ele>1348.7</ele>
        <time>2026-05-14T12:52:52.999Z</time>
      </trkpt>
      <trkpt lat="44.18431" lon="5.28574">
        <ele>1348.4</ele>
        <time>2026-05-14T12:52:53.999Z</time>
      </trkpt>
      <trkpt lat="44.18431" lon="5.28575">
        <ele>1347.9</ele>
        <time>2026-05-14T12:52:54.999Z</time>
      </trkpt>
      <trkpt lat="44.1843" lon="5.28579">
        <ele>1347.6</ele>
        <time>2026-05-14T12:52:55.999Z</time>
      </trkpt>
      <trkpt lat="44.18429" lon="5.28581">
        <ele>1347.5</ele>
        <time>2026-05-14T12:52:56.999Z</time>
      </trkpt>
      <trkpt lat="44.18428" lon="5.28585">
        <ele>1347.6</ele>
        <time>2026-05-14T12:52:57.999Z</time>
      </trkpt>
      <trkpt lat="44.18427" lon="5.28587">
        <ele>1347.2</ele>
        <time>2026-05-14T12:52:58.999Z</time>
      </trkpt>
      <trkpt lat="44.18427" lon="5.28589">
        <ele>1346.7</ele>
        <time>2026-05-14T12:52:59.999Z</time>
      </trkpt>
      <trkpt lat="44.18426" lon="5.2859">
        <ele>1346.6</ele>
        <time>2026-05-14T12:53:00.999Z</time>
      </trkpt>
      <trkpt lat="44.18426" lon="5.28591">
        <ele>1346.4</ele>
        <time>2026-05-14T12:53:01.999Z</time>
      </trkpt>
      <trkpt lat="44.18425" lon="5.28594">
        <ele>1346.8</ele>
        <time>2026-05-14T12:53:02.999Z</time>
      </trkpt>
      <trkpt lat="44.18425" lon="5.28596">
        <ele>1347.2</ele>
        <time>2026-05-14T12:53:03.999Z</time>
      </trkpt>
      <trkpt lat="44.18425" lon="5.28598">
        <ele>1347.1</ele>
        <time>2026-05-14T12:53:04.999Z</time>
      </trkpt>
      <trkpt lat="44.18424" lon="5.286">
        <ele>1346.6</ele>
        <time>2026-05-14T12:53:05.999Z</time>
      </trkpt>
      <trkpt lat="44.18424" lon="5.28602">
        <ele>1346.1</ele>
        <time>2026-05-14T12:53:06.999Z</time>
      </trkpt>
      <trkpt lat="44.18424" lon="5.28603">
        <ele>1346.1</ele>
        <time>2026-05-14T12:53:07.999Z</time>
      </trkpt>
      <trkpt lat="44.18424" lon="5.28603">
        <ele>1346</ele>
        <time>2026-05-14T12:53:08.999Z</time>
      </trkpt>
      <trkpt lat="44.18423" lon="5.28604">
        <ele>1346.3</ele>
        <time>2026-05-14T12:53:09.999Z</time>
      </trkpt>
      <trkpt lat="44.18423" lon="5.28604">
        <ele>1346.2</ele>
        <time>2026-05-14T12:53:10.999Z</time>
      </trkpt>
      <trkpt lat="44.18423" lon="5.28605">
        <ele>1346.2</ele>
        <time>2026-05-14T12:53:11.999Z</time>
      </trkpt>
      <trkpt lat="44.18423" lon="5.28606">
        <ele>1346.3</ele>
        <time>2026-05-14T12:53:12.999Z</time>
      </trkpt>
      <trkpt lat="44.18422" lon="5.28607">
        <ele>1346.1</ele>
        <time>2026-05-14T12:53:13.999Z</time>
      </trkpt>
      <trkpt lat="44.18422" lon="5.28609">
        <ele>1346</ele>
        <time>2026-05-14T12:53:14.999Z</time>
      </trkpt>
      <trkpt lat="44.18421" lon="5.2861">
        <ele>1346.1</ele>
        <time>2026-05-14T12:53:15.999Z</time>
      </trkpt>
      <trkpt lat="44.1842" lon="5.28611">
        <ele>1345.8</ele>
        <time>2026-05-14T12:53:16.999Z</time>
      </trkpt>
      <trkpt lat="44.1842" lon="5.28611">
        <ele>1345.9</ele>
        <time>2026-05-14T12:53:17.999Z</time>
      </trkpt>
      <trkpt lat="44.1842" lon="5.28612">
        <ele>1345.6</ele>
        <time>2026-05-14T12:53:18.999Z</time>
      </trkpt>
      <trkpt lat="44.1842" lon="5.28612">
        <ele>1345.4</ele>
        <time>2026-05-14T12:53:19.999Z</time>
      </trkpt>
      <trkpt lat="44.1842" lon="5.28614">
        <ele>1345.2</ele>
        <time>2026-05-14T12:53:20.999Z</time>
      </trkpt>
      <trkpt lat="44.18419" lon="5.28616">
        <ele>1345.2</ele>
        <time>2026-05-14T12:53:21.999Z</time>
      </trkpt>
      <trkpt lat="44.18418" lon="5.28618">
        <ele>1345</ele>
        <time>2026-05-14T12:53:22.999Z</time>
      </trkpt>
      <trkpt lat="44.18418" lon="5.2862">
        <ele>1344.8</ele>
        <time>2026-05-14T12:53:23.999Z</time>
      </trkpt>
      <trkpt lat="44.18417" lon="5.28622">
        <ele>1344.5</ele>
        <time>2026-05-14T12:53:24.999Z</time>
      </trkpt>
      <trkpt lat="44.18417" lon="5.28624">
        <ele>1343.9</ele>
        <time>2026-05-14T12:53:25.999Z</time>
      </trkpt>
      <trkpt lat="44.18417" lon="5.28625">
        <ele>1343.7</ele>
        <time>2026-05-14T12:53:26.999Z</time>
      </trkpt>
      <trkpt lat="44.18417" lon="5.28626">
        <ele>1343.3</ele>
        <time>2026-05-14T12:53:27.999Z</time>
      </trkpt>
      <trkpt lat="44.18417" lon="5.28627">
        <ele>1343.6</ele>
        <time>2026-05-14T12:53:28.999Z</time>
      </trkpt>
      <trkpt lat="44.18417" lon="5.28628">
        <ele>1343.4</ele>
        <time>2026-05-14T12:53:29.999Z</time>
      </trkpt>
      <trkpt lat="44.18417" lon="5.28629">
        <ele>1343.3</ele>
        <time>2026-05-14T12:53:30.999Z</time>
      </trkpt>
      <trkpt lat="44.18417" lon="5.2863">
        <ele>1343.1</ele>
        <time>2026-05-14T12:53:31.999Z</time>
      </trkpt>
      <trkpt lat="44.18417" lon="5.2863">
        <ele>1343</ele>
        <time>2026-05-14T12:53:32.999Z</time>
      </trkpt>
      <trkpt lat="44.18417" lon="5.2863">
        <ele>1342.6</ele>
        <time>2026-05-14T12:53:33.999Z</time>
      </trkpt>
      <trkpt lat="44.18417" lon="5.2863">
        <ele>1342.3</ele>
        <time>2026-05-14T12:53:34.999Z</time>
      </trkpt>
      <trkpt lat="44.18417" lon="5.2863">
        <ele>1342.2</ele>
        <time>2026-05-14T12:53:35.999Z</time>
      </trkpt>
      <trkpt lat="44.18417" lon="5.28631">
        <ele>1342.4</ele>
        <time>2026-05-14T12:53:36.999Z</time>
      </trkpt>
      <trkpt lat="44.18417" lon="5.28631">
        <ele>1342.2</ele>
        <time>2026-05-14T12:53:37.999Z</time>
      </trkpt>
      <trkpt lat="44.18418" lon="5.28633">
        <ele>1342</ele>
        <time>2026-05-14T12:53:38.999Z</time>
      </trkpt>
      <trkpt lat="44.18418" lon="5.28634">
        <ele>1342</ele>
        <time>2026-05-14T12:53:39.999Z</time>
      </trkpt>
      <trkpt lat="44.18417" lon="5.28635">
        <ele>1341.8</ele>
        <time>2026-05-14T12:53:40.999Z</time>
      </trkpt>
      <trkpt lat="44.18417" lon="5.28637">
        <ele>1341.6</ele>
        <time>2026-05-14T12:53:41.999Z</time>
      </trkpt>
      <trkpt lat="44.18418" lon="5.28638">
        <ele>1341.7</ele>
        <time>2026-05-14T12:53:42.999Z</time>
      </trkpt>
      <trkpt lat="44.18417" lon="5.28639">
        <ele>1341.5</ele>
        <time>2026-05-14T12:53:43.999Z</time>
      </trkpt>
      <trkpt lat="44.18417" lon="5.28641">
        <ele>1341.3</ele>
        <time>2026-05-14T12:53:44.999Z</time>
      </trkpt>
      <trkpt lat="44.18416" lon="5.28644">
        <ele>1341.2</ele>
        <time>2026-05-14T12:53:45.999Z</time>
      </trkpt>
      <trkpt lat="44.18415" lon="5.28646">
        <ele>1341.1</ele>
        <time>2026-05-14T12:53:46.999Z</time>
      </trkpt>
      <trkpt lat="44.18416" lon="5.28647">
        <ele>1341</ele>
        <time>2026-05-14T12:53:47.999Z</time>
      </trkpt>
      <trkpt lat="44.18416" lon="5.28648">
        <ele>1340.7</ele>
        <time>2026-05-14T12:53:48.999Z</time>
      </trkpt>
      <trkpt lat="44.18416" lon="5.2865">
        <ele>1340.4</ele>
        <time>2026-05-14T12:53:49.999Z</time>
      </trkpt>
      <trkpt lat="44.18416" lon="5.28652">
        <ele>1340</ele>
        <time>2026-05-14T12:53:50.999Z</time>
      </trkpt>
      <trkpt lat="44.18416" lon="5.28654">
        <ele>1340.3</ele>
        <time>2026-05-14T12:53:51.999Z</time>
      </trkpt>
      <trkpt lat="44.18416" lon="5.28655">
        <ele>1340.3</ele>
        <time>2026-05-14T12:53:52.999Z</time>
      </trkpt>
      <trkpt lat="44.18416" lon="5.28656">
        <ele>1340.2</ele>
        <time>2026-05-14T12:53:53.999Z</time>
      </trkpt>
      <trkpt lat="44.18417" lon="5.28657">
        <ele>1340.2</ele>
        <time>2026-05-14T12:53:54.999Z</time>
      </trkpt>
      <trkpt lat="44.18417" lon="5.28659">
        <ele>1339.9</ele>
        <time>2026-05-14T12:53:55.999Z</time>
      </trkpt>
      <trkpt lat="44.18417" lon="5.2866">
        <ele>1339.4</ele>
        <time>2026-05-14T12:53:56.999Z</time>
      </trkpt>
      <trkpt lat="44.18417" lon="5.28662">
        <ele>1338.8</ele>
        <time>2026-05-14T12:53:57.999Z</time>
      </trkpt>
      <trkpt lat="44.18416" lon="5.28664">
        <ele>1338.8</ele>
        <time>2026-05-14T12:53:58.999Z</time>
      </trkpt>
      <trkpt lat="44.18416" lon="5.28665">
        <ele>1339.2</ele>
        <time>2026-05-14T12:53:59.999Z</time>
      </trkpt>
      <trkpt lat="44.18415" lon="5.28666">
        <ele>1339.5</ele>
        <time>2026-05-14T12:54:00.999Z</time>
      </trkpt>
      <trkpt lat="44.18415" lon="5.28667">
        <ele>1339.5</ele>
        <time>2026-05-14T12:54:01.999Z</time>
      </trkpt>
      <trkpt lat="44.18415" lon="5.28669">
        <ele>1339.5</ele>
        <time>2026-05-14T12:54:02.999Z</time>
      </trkpt>
      <trkpt lat="44.18416" lon="5.2867">
        <ele>1339.4</ele>
        <time>2026-05-14T12:54:03.999Z</time>
      </trkpt>
      <trkpt lat="44.18416" lon="5.28671">
        <ele>1339.4</ele>
        <time>2026-05-14T12:54:04.999Z</time>
      </trkpt>
      <trkpt lat="44.18415" lon="5.28673">
        <ele>1338.8</ele>
        <time>2026-05-14T12:54:05.999Z</time>
      </trkpt>
      <trkpt lat="44.18415" lon="5.28673">
        <ele>1338.7</ele>
        <time>2026-05-14T12:54:06.999Z</time>
      </trkpt>
      <trkpt lat="44.18415" lon="5.28674">
        <ele>1338.1</ele>
        <time>2026-05-14T12:54:07.999Z</time>
      </trkpt>
      <trkpt lat="44.18414" lon="5.28675">
        <ele>1337.8</ele>
        <time>2026-05-14T12:54:08.999Z</time>
      </trkpt>
      <trkpt lat="44.18414" lon="5.28677">
        <ele>1337.7</ele>
        <time>2026-05-14T12:54:09.999Z</time>
      </trkpt>
      <trkpt lat="44.18413" lon="5.28679">
        <ele>1337.9</ele>
        <time>2026-05-14T12:54:10.999Z</time>
      </trkpt>
      <trkpt lat="44.18413" lon="5.28679">
        <ele>1338</ele>
        <time>2026-05-14T12:54:11.999Z</time>
      </trkpt>
      <trkpt lat="44.18413" lon="5.2868">
        <ele>1338</ele>
        <time>2026-05-14T12:54:12.999Z</time>
      </trkpt>
      <trkpt lat="44.18414" lon="5.2868">
        <ele>1338.1</ele>
        <time>2026-05-14T12:54:13.999Z</time>
      </trkpt>
      <trkpt lat="44.18413" lon="5.2868">
        <ele>1337.9</ele>
        <time>2026-05-14T12:54:14.999Z</time>
      </trkpt>
      <trkpt lat="44.18413" lon="5.28682">
        <ele>1337.4</ele>
        <time>2026-05-14T12:54:15.999Z</time>
      </trkpt>
      <trkpt lat="44.18412" lon="5.28683">
        <ele>1336.8</ele>
        <time>2026-05-14T12:54:16.999Z</time>
      </trkpt>
      <trkpt lat="44.18412" lon="5.28685">
        <ele>1336.6</ele>
        <time>2026-05-14T12:54:17.999Z</time>
      </trkpt>
      <trkpt lat="44.1841" lon="5.28687">
        <ele>1335.9</ele>
        <time>2026-05-14T12:54:18.999Z</time>
      </trkpt>
      <trkpt lat="44.1841" lon="5.28689">
        <ele>1335.8</ele>
        <time>2026-05-14T12:54:19.999Z</time>
      </trkpt>
      <trkpt lat="44.18409" lon="5.28691">
        <ele>1335.8</ele>
        <time>2026-05-14T12:54:20.999Z</time>
      </trkpt>
      <trkpt lat="44.18408" lon="5.28692">
        <ele>1335.7</ele>
        <time>2026-05-14T12:54:21.999Z</time>
      </trkpt>
      <trkpt lat="44.18407" lon="5.28693">
        <ele>1335.8</ele>
        <time>2026-05-14T12:54:22.999Z</time>
      </trkpt>
      <trkpt lat="44.18406" lon="5.28694">
        <ele>1335.9</ele>
        <time>2026-05-14T12:54:23.999Z</time>
      </trkpt>
      <trkpt lat="44.18404" lon="5.28695">
        <ele>1336</ele>
        <time>2026-05-14T12:54:24.999Z</time>
      </trkpt>
      <trkpt lat="44.18403" lon="5.28697">
        <ele>1335.9</ele>
        <time>2026-05-14T12:54:25.999Z</time>
      </trkpt>
      <trkpt lat="44.18403" lon="5.28699">
        <ele>1336</ele>
        <time>2026-05-14T12:54:26.999Z</time>
      </trkpt>
      <trkpt lat="44.18402" lon="5.287">
        <ele>1335.9</ele>
        <time>2026-05-14T12:54:27.999Z</time>
      </trkpt>
      <trkpt lat="44.184" lon="5.28701">
        <ele>1335.8</ele>
        <time>2026-05-14T12:54:28.999Z</time>
      </trkpt>
      <trkpt lat="44.18399" lon="5.28702">
        <ele>1335.5</ele>
        <time>2026-05-14T12:54:29.999Z</time>
      </trkpt>
      <trkpt lat="44.18398" lon="5.28703">
        <ele>1335.3</ele>
        <time>2026-05-14T12:54:30.999Z</time>
      </trkpt>
      <trkpt lat="44.18396" lon="5.28704">
        <ele>1335.6</ele>
        <time>2026-05-14T12:54:31.999Z</time>
      </trkpt>
      <trkpt lat="44.18396" lon="5.28706">
        <ele>1335.2</ele>
        <time>2026-05-14T12:54:32.999Z</time>
      </trkpt>
      <trkpt lat="44.18395" lon="5.28707">
        <ele>1334.9</ele>
        <time>2026-05-14T12:54:33.999Z</time>
      </trkpt>
      <trkpt lat="44.18395" lon="5.28707">
        <ele>1335.7</ele>
        <time>2026-05-14T12:54:34.999Z</time>
      </trkpt>
      <trkpt lat="44.18395" lon="5.28707">
        <ele>1336</ele>
        <time>2026-05-14T12:54:35.999Z</time>
      </trkpt>
      <trkpt lat="44.18396" lon="5.28707">
        <ele>1336.5</ele>
        <time>2026-05-14T12:54:36.999Z</time>
      </trkpt>
      <trkpt lat="44.18396" lon="5.28707">
        <ele>1336.5</ele>
        <time>2026-05-14T12:54:37.999Z</time>
      </trkpt>
      <trkpt lat="44.18396" lon="5.28707">
        <ele>1336.6</ele>
        <time>2026-05-14T12:54:38.999Z</time>
      </trkpt>
      <trkpt lat="44.18396" lon="5.28707">
        <ele>1336.9</ele>
        <time>2026-05-14T12:54:39.999Z</time>
      </trkpt>
      <trkpt lat="44.18396" lon="5.28708">
        <ele>1337.5</ele>
        <time>2026-05-14T12:54:40.999Z</time>
      </trkpt>
      <trkpt lat="44.18396" lon="5.28708">
        <ele>1337.7</ele>
        <time>2026-05-14T12:54:41.999Z</time>
      </trkpt>
      <trkpt lat="44.18396" lon="5.28708">
        <ele>1337.6</ele>
        <time>2026-05-14T12:54:42.999Z</time>
      </trkpt>
      <trkpt lat="44.18396" lon="5.28708">
        <ele>1337.6</ele>
        <time>2026-05-14T12:54:43.999Z</time>
      </trkpt>
      <trkpt lat="44.18396" lon="5.28708">
        <ele>1337.4</ele>
        <time>2026-05-14T12:54:44.999Z</time>
      </trkpt>
      <trkpt lat="44.18396" lon="5.28708">
        <ele>1337.5</ele>
        <time>2026-05-14T12:54:45.999Z</time>
      </trkpt>
      <trkpt lat="44.18396" lon="5.28708">
        <ele>1337.8</ele>
        <time>2026-05-14T12:54:46.999Z</time>
      </trkpt>
      <trkpt lat="44.18395" lon="5.28708">
        <ele>1337.7</ele>
        <time>2026-05-14T12:54:47.999Z</time>
      </trkpt>
      <trkpt lat="44.18395" lon="5.28708">
        <ele>1337.6</ele>
        <time>2026-05-14T12:54:48.999Z</time>
      </trkpt>
      <trkpt lat="44.18395" lon="5.28709">
        <ele>1337.4</ele>
        <time>2026-05-14T12:54:49.999Z</time>
      </trkpt>
      <trkpt lat="44.18395" lon="5.2871">
        <ele>1337.3</ele>
        <time>2026-05-14T12:54:50.999Z</time>
      </trkpt>
      <trkpt lat="44.18394" lon="5.28711">
        <ele>1337</ele>
        <time>2026-05-14T12:54:51.999Z</time>
      </trkpt>
      <trkpt lat="44.18393" lon="5.28713">
        <ele>1336.8</ele>
        <time>2026-05-14T12:54:52.999Z</time>
      </trkpt>
      <trkpt lat="44.18392" lon="5.28714">
        <ele>1336.9</ele>
        <time>2026-05-14T12:54:53.999Z</time>
      </trkpt>
      <trkpt lat="44.18391" lon="5.28715">
        <ele>1336.9</ele>
        <time>2026-05-14T12:54:54.999Z</time>
      </trkpt>
      <trkpt lat="44.1839" lon="5.28716">
        <ele>1336.6</ele>
        <time>2026-05-14T12:54:55.999Z</time>
      </trkpt>
      <trkpt lat="44.18389" lon="5.28716">
        <ele>1336.3</ele>
        <time>2026-05-14T12:54:56.999Z</time>
      </trkpt>
      <trkpt lat="44.18389" lon="5.28717">
        <ele>1336.2</ele>
        <time>2026-05-14T12:54:57.999Z</time>
      </trkpt>
      <trkpt lat="44.18389" lon="5.28717">
        <ele>1336.3</ele>
        <time>2026-05-14T12:54:58.999Z</time>
      </trkpt>
      <trkpt lat="44.18389" lon="5.28717">
        <ele>1336.3</ele>
        <time>2026-05-14T12:54:59.999Z</time>
      </trkpt>
      <trkpt lat="44.1839" lon="5.28719">
        <ele>1336.3</ele>
        <time>2026-05-14T12:55:00.999Z</time>
      </trkpt>
      <trkpt lat="44.18389" lon="5.2872">
        <ele>1335.9</ele>
        <time>2026-05-14T12:55:01.999Z</time>
      </trkpt>
      <trkpt lat="44.18388" lon="5.2872">
        <ele>1335.8</ele>
        <time>2026-05-14T12:55:02.999Z</time>
      </trkpt>
      <trkpt lat="44.18387" lon="5.28721">
        <ele>1335.3</ele>
        <time>2026-05-14T12:55:03.999Z</time>
      </trkpt>
      <trkpt lat="44.18387" lon="5.28721">
        <ele>1335.1</ele>
        <time>2026-05-14T12:55:04.999Z</time>
      </trkpt>
      <trkpt lat="44.18386" lon="5.28722">
        <ele>1335</ele>
        <time>2026-05-14T12:55:05.999Z</time>
      </trkpt>
      <trkpt lat="44.18385" lon="5.28723">
        <ele>1335</ele>
        <time>2026-05-14T12:55:06.999Z</time>
      </trkpt>
      <trkpt lat="44.18385" lon="5.28725">
        <ele>1334.9</ele>
        <time>2026-05-14T12:55:07.999Z</time>
      </trkpt>
      <trkpt lat="44.18384" lon="5.28725">
        <ele>1334.5</ele>
        <time>2026-05-14T12:55:08.999Z</time>
      </trkpt>
      <trkpt lat="44.18384" lon="5.28726">
        <ele>1334.4</ele>
        <time>2026-05-14T12:55:09.999Z</time>
      </trkpt>
      <trkpt lat="44.18384" lon="5.28727">
        <ele>1334.2</ele>
        <time>2026-05-14T12:55:10.999Z</time>
      </trkpt>
      <trkpt lat="44.18383" lon="5.28728">
        <ele>1333.7</ele>
        <time>2026-05-14T12:55:11.999Z</time>
      </trkpt>
      <trkpt lat="44.18383" lon="5.28729">
        <ele>1333.3</ele>
        <time>2026-05-14T12:55:12.999Z</time>
      </trkpt>
      <trkpt lat="44.18383" lon="5.28729">
        <ele>1333</ele>
        <time>2026-05-14T12:55:13.999Z</time>
      </trkpt>
      <trkpt lat="44.18382" lon="5.28729">
        <ele>1332.9</ele>
        <time>2026-05-14T12:55:14.999Z</time>
      </trkpt>
      <trkpt lat="44.1838" lon="5.28729">
        <ele>1332.9</ele>
        <time>2026-05-14T12:55:15.999Z</time>
      </trkpt>
      <trkpt lat="44.18379" lon="5.2873">
        <ele>1332.9</ele>
        <time>2026-05-14T12:55:16.999Z</time>
      </trkpt>
      <trkpt lat="44.18378" lon="5.2873">
        <ele>1333</ele>
        <time>2026-05-14T12:55:17.999Z</time>
      </trkpt>
      <trkpt lat="44.18377" lon="5.28731">
        <ele>1333.1</ele>
        <time>2026-05-14T12:55:18.999Z</time>
      </trkpt>
      <trkpt lat="44.18376" lon="5.28731">
        <ele>1333.1</ele>
        <time>2026-05-14T12:55:19.999Z</time>
      </trkpt>
      <trkpt lat="44.18376" lon="5.28731">
        <ele>1333.6</ele>
        <time>2026-05-14T12:55:20.999Z</time>
      </trkpt>
      <trkpt lat="44.18376" lon="5.28732">
        <ele>1333.8</ele>
        <time>2026-05-14T12:55:21.999Z</time>
      </trkpt>
      <trkpt lat="44.18376" lon="5.28732">
        <ele>1334</ele>
        <time>2026-05-14T12:55:22.999Z</time>
      </trkpt>
      <trkpt lat="44.18375" lon="5.28733">
        <ele>1334</ele>
        <time>2026-05-14T12:55:23.999Z</time>
      </trkpt>
      <trkpt lat="44.18374" lon="5.28735">
        <ele>1333.6</ele>
        <time>2026-05-14T12:55:24.999Z</time>
      </trkpt>
      <trkpt lat="44.18373" lon="5.28736">
        <ele>1333.3</ele>
        <time>2026-05-14T12:55:25.999Z</time>
      </trkpt>
      <trkpt lat="44.18371" lon="5.28738">
        <ele>1333</ele>
        <time>2026-05-14T12:55:26.999Z</time>
      </trkpt>
      <trkpt lat="44.18369" lon="5.2874">
        <ele>1332.6</ele>
        <time>2026-05-14T12:55:27.999Z</time>
      </trkpt>
      <trkpt lat="44.18368" lon="5.28741">
        <ele>1332.5</ele>
        <time>2026-05-14T12:55:28.999Z</time>
      </trkpt>
      <trkpt lat="44.18367" lon="5.28742">
        <ele>1332.3</ele>
        <time>2026-05-14T12:55:29.999Z</time>
      </trkpt>
      <trkpt lat="44.18366" lon="5.28743">
        <ele>1332.3</ele>
        <time>2026-05-14T12:55:30.999Z</time>
      </trkpt>
      <trkpt lat="44.18365" lon="5.28744">
        <ele>1331.9</ele>
        <time>2026-05-14T12:55:31.999Z</time>
      </trkpt>
      <trkpt lat="44.18364" lon="5.28745">
        <ele>1331.7</ele>
        <time>2026-05-14T12:55:32.999Z</time>
      </trkpt>
      <trkpt lat="44.18363" lon="5.28746">
        <ele>1331.5</ele>
        <time>2026-05-14T12:55:33.999Z</time>
      </trkpt>
      <trkpt lat="44.18361" lon="5.28746">
        <ele>1331.2</ele>
        <time>2026-05-14T12:55:34.999Z</time>
      </trkpt>
      <trkpt lat="44.18359" lon="5.28747">
        <ele>1331.3</ele>
        <time>2026-05-14T12:55:35.999Z</time>
      </trkpt>
      <trkpt lat="44.18358" lon="5.28749">
        <ele>1331.3</ele>
        <time>2026-05-14T12:55:36.999Z</time>
      </trkpt>
      <trkpt lat="44.18357" lon="5.2875">
        <ele>1331.3</ele>
        <time>2026-05-14T12:55:37.999Z</time>
      </trkpt>
      <trkpt lat="44.18356" lon="5.28752">
        <ele>1331.3</ele>
        <time>2026-05-14T12:55:38.999Z</time>
      </trkpt>
      <trkpt lat="44.18356" lon="5.28752">
        <ele>1331.5</ele>
        <time>2026-05-14T12:55:39.999Z</time>
      </trkpt>
      <trkpt lat="44.18356" lon="5.28752">
        <ele>1331.7</ele>
        <time>2026-05-14T12:55:40.999Z</time>
      </trkpt>
      <trkpt lat="44.18355" lon="5.28754">
        <ele>1332.7</ele>
        <time>2026-05-14T12:55:41.999Z</time>
      </trkpt>
      <trkpt lat="44.18355" lon="5.28755">
        <ele>1332.8</ele>
        <time>2026-05-14T12:55:42.999Z</time>
      </trkpt>
      <trkpt lat="44.18354" lon="5.28756">
        <ele>1332.9</ele>
        <time>2026-05-14T12:55:43.999Z</time>
      </trkpt>
      <trkpt lat="44.18353" lon="5.28757">
        <ele>1332.9</ele>
        <time>2026-05-14T12:55:44.999Z</time>
      </trkpt>
      <trkpt lat="44.18352" lon="5.28757">
        <ele>1333</ele>
        <time>2026-05-14T12:55:45.999Z</time>
      </trkpt>
      <trkpt lat="44.18352" lon="5.28758">
        <ele>1333.1</ele>
        <time>2026-05-14T12:55:46.999Z</time>
      </trkpt>
      <trkpt lat="44.18351" lon="5.28758">
        <ele>1333.3</ele>
        <time>2026-05-14T12:55:47.999Z</time>
      </trkpt>
      <trkpt lat="44.1835" lon="5.28759">
        <ele>1333.1</ele>
        <time>2026-05-14T12:55:48.999Z</time>
      </trkpt>
      <trkpt lat="44.18349" lon="5.2876">
        <ele>1333</ele>
        <time>2026-05-14T12:55:49.999Z</time>
      </trkpt>
      <trkpt lat="44.18348" lon="5.2876">
        <ele>1332.8</ele>
        <time>2026-05-14T12:55:50.999Z</time>
      </trkpt>
      <trkpt lat="44.18348" lon="5.28761">
        <ele>1332.5</ele>
        <time>2026-05-14T12:55:51.999Z</time>
      </trkpt>
      <trkpt lat="44.18347" lon="5.28761">
        <ele>1332.3</ele>
        <time>2026-05-14T12:55:52.999Z</time>
      </trkpt>
      <trkpt lat="44.18347" lon="5.28762">
        <ele>1332</ele>
        <time>2026-05-14T12:55:53.999Z</time>
      </trkpt>
      <trkpt lat="44.18347" lon="5.28763">
        <ele>1331.9</ele>
        <time>2026-05-14T12:55:54.999Z</time>
      </trkpt>
      <trkpt lat="44.18347" lon="5.28763">
        <ele>1332.3</ele>
        <time>2026-05-14T12:55:55.999Z</time>
      </trkpt>
      <trkpt lat="44.18347" lon="5.28765">
        <ele>1332.2</ele>
        <time>2026-05-14T12:55:56.999Z</time>
      </trkpt>
      <trkpt lat="44.18347" lon="5.28765">
        <ele>1332.3</ele>
        <time>2026-05-14T12:55:57.999Z</time>
      </trkpt>
      <trkpt lat="44.18346" lon="5.28766">
        <ele>1332.2</ele>
        <time>2026-05-14T12:55:58.999Z</time>
      </trkpt>
      <trkpt lat="44.18345" lon="5.28767">
        <ele>1332</ele>
        <time>2026-05-14T12:55:59.999Z</time>
      </trkpt>
      <trkpt lat="44.18345" lon="5.28767">
        <ele>1331.6</ele>
        <time>2026-05-14T12:56:00.999Z</time>
      </trkpt>
      <trkpt lat="44.18344" lon="5.28768">
        <ele>1331.7</ele>
        <time>2026-05-14T12:56:01.999Z</time>
      </trkpt>
      <trkpt lat="44.18345" lon="5.28769">
        <ele>1332.6</ele>
        <time>2026-05-14T12:56:02.999Z</time>
      </trkpt>
      <trkpt lat="44.18345" lon="5.28769">
        <ele>1333</ele>
        <time>2026-05-14T12:56:03.999Z</time>
      </trkpt>
      <trkpt lat="44.18345" lon="5.28769">
        <ele>1333.1</ele>
        <time>2026-05-14T12:56:04.999Z</time>
      </trkpt>
      <trkpt lat="44.18345" lon="5.28769">
        <ele>1333.4</ele>
        <time>2026-05-14T12:56:05.999Z</time>
      </trkpt>
      <trkpt lat="44.18345" lon="5.28769">
        <ele>1333.8</ele>
        <time>2026-05-14T12:56:06.999Z</time>
      </trkpt>
      <trkpt lat="44.18345" lon="5.28769">
        <ele>1333.7</ele>
        <time>2026-05-14T12:56:07.999Z</time>
      </trkpt>
      <trkpt lat="44.18345" lon="5.28769">
        <ele>1333.3</ele>
        <time>2026-05-14T12:56:08.999Z</time>
      </trkpt>
      <trkpt lat="44.18345" lon="5.28768">
        <ele>1332.7</ele>
        <time>2026-05-14T12:56:09.999Z</time>
      </trkpt>
      <trkpt lat="44.18345" lon="5.28769">
        <ele>1332.4</ele>
        <time>2026-05-14T12:56:10.999Z</time>
      </trkpt>
      <trkpt lat="44.18345" lon="5.28769">
        <ele>1332.5</ele>
        <time>2026-05-14T12:56:11.999Z</time>
      </trkpt>
      <trkpt lat="44.18345" lon="5.28769">
        <ele>1332.8</ele>
        <time>2026-05-14T12:56:12.999Z</time>
      </trkpt>
      <trkpt lat="44.18344" lon="5.28769">
        <ele>1332.8</ele>
        <time>2026-05-14T12:56:13.999Z</time>
      </trkpt>
      <trkpt lat="44.18343" lon="5.28768">
        <ele>1332.8</ele>
        <time>2026-05-14T12:56:14.999Z</time>
      </trkpt>
      <trkpt lat="44.18343" lon="5.28769">
        <ele>1332.6</ele>
        <time>2026-05-14T12:56:15.999Z</time>
      </trkpt>
      <trkpt lat="44.18342" lon="5.2877">
        <ele>1332.5</ele>
        <time>2026-05-14T12:56:16.999Z</time>
      </trkpt>
      <trkpt lat="44.18342" lon="5.2877">
        <ele>1332.3</ele>
        <time>2026-05-14T12:56:17.999Z</time>
      </trkpt>
      <trkpt lat="44.18342" lon="5.2877">
        <ele>1332.2</ele>
        <time>2026-05-14T12:56:18.999Z</time>
      </trkpt>
      <trkpt lat="44.18342" lon="5.2877">
        <ele>1332.4</ele>
        <time>2026-05-14T12:56:19.999Z</time>
      </trkpt>
      <trkpt lat="44.18342" lon="5.2877">
        <ele>1332.4</ele>
        <time>2026-05-14T12:56:20.999Z</time>
      </trkpt>
      <trkpt lat="44.1834" lon="5.2877">
        <ele>1332.5</ele>
        <time>2026-05-14T12:56:21.999Z</time>
      </trkpt>
      <trkpt lat="44.18339" lon="5.28769">
        <ele>1332.6</ele>
        <time>2026-05-14T12:56:22.999Z</time>
      </trkpt>
      <trkpt lat="44.18338" lon="5.28769">
        <ele>1332.6</ele>
        <time>2026-05-14T12:56:23.999Z</time>
      </trkpt>
      <trkpt lat="44.18336" lon="5.28771">
        <ele>1332.4</ele>
        <time>2026-05-14T12:56:24.999Z</time>
      </trkpt>
      <trkpt lat="44.18336" lon="5.28772">
        <ele>1332.6</ele>
        <time>2026-05-14T12:56:25.999Z</time>
      </trkpt>
      <trkpt lat="44.18335" lon="5.28772">
        <ele>1332.7</ele>
        <time>2026-05-14T12:56:26.999Z</time>
      </trkpt>
      <trkpt lat="44.18335" lon="5.28772">
        <ele>1332.6</ele>
        <time>2026-05-14T12:56:27.999Z</time>
      </trkpt>
      <trkpt lat="44.18335" lon="5.28773">
        <ele>1332.5</ele>
        <time>2026-05-14T12:56:28.999Z</time>
      </trkpt>
      <trkpt lat="44.18334" lon="5.28772">
        <ele>1332.6</ele>
        <time>2026-05-14T12:56:29.999Z</time>
      </trkpt>
      <trkpt lat="44.18333" lon="5.28772">
        <ele>1332.6</ele>
        <time>2026-05-14T12:56:30.999Z</time>
      </trkpt>
      <trkpt lat="44.18331" lon="5.28772">
        <ele>1332.3</ele>
        <time>2026-05-14T12:56:31.999Z</time>
      </trkpt>
      <trkpt lat="44.18329" lon="5.28773">
        <ele>1331.8</ele>
        <time>2026-05-14T12:56:32.999Z</time>
      </trkpt>
      <trkpt lat="44.18329" lon="5.28773">
        <ele>1331.9</ele>
        <time>2026-05-14T12:56:33.999Z</time>
      </trkpt>
      <trkpt lat="44.18329" lon="5.28773">
        <ele>1331.9</ele>
        <time>2026-05-14T12:56:34.999Z</time>
      </trkpt>
      <trkpt lat="44.18329" lon="5.28773">
        <ele>1331.9</ele>
        <time>2026-05-14T12:56:35.999Z</time>
      </trkpt>
      <trkpt lat="44.18329" lon="5.28774">
        <ele>1332.2</ele>
        <time>2026-05-14T12:56:36.999Z</time>
      </trkpt>
      <trkpt lat="44.18329" lon="5.28775">
        <ele>1332.7</ele>
        <time>2026-05-14T12:56:37.999Z</time>
      </trkpt>
      <trkpt lat="44.18329" lon="5.28775">
        <ele>1332.9</ele>
        <time>2026-05-14T12:56:38.999Z</time>
      </trkpt>
      <trkpt lat="44.18329" lon="5.28775">
        <ele>1332.8</ele>
        <time>2026-05-14T12:56:39.999Z</time>
      </trkpt>
      <trkpt lat="44.18329" lon="5.28775">
        <ele>1332.8</ele>
        <time>2026-05-14T12:56:40.999Z</time>
      </trkpt>
      <trkpt lat="44.18329" lon="5.28775">
        <ele>1333.1</ele>
        <time>2026-05-14T12:56:41.999Z</time>
      </trkpt>
      <trkpt lat="44.18329" lon="5.28775">
        <ele>1333.4</ele>
        <time>2026-05-14T12:56:42.999Z</time>
      </trkpt>
      <trkpt lat="44.18329" lon="5.28775">
        <ele>1333.4</ele>
        <time>2026-05-14T12:56:43.999Z</time>
      </trkpt>
      <trkpt lat="44.18329" lon="5.28775">
        <ele>1333.5</ele>
        <time>2026-05-14T12:56:44.999Z</time>
      </trkpt>
      <trkpt lat="44.18329" lon="5.28775">
        <ele>1333.6</ele>
        <time>2026-05-14T12:56:45.999Z</time>
      </trkpt>
      <trkpt lat="44.18329" lon="5.28775">
        <ele>1334</ele>
        <time>2026-05-14T12:56:46.999Z</time>
      </trkpt>
      <trkpt lat="44.18329" lon="5.28775">
        <ele>1334.5</ele>
        <time>2026-05-14T12:56:47.999Z</time>
      </trkpt>
      <trkpt lat="44.18329" lon="5.28775">
        <ele>1334.2</ele>
        <time>2026-05-14T12:56:48.999Z</time>
      </trkpt>
      <trkpt lat="44.18329" lon="5.28776">
        <ele>1334.5</ele>
        <time>2026-05-14T12:56:49.999Z</time>
      </trkpt>
      <trkpt lat="44.18329" lon="5.28776">
        <ele>1334.4</ele>
        <time>2026-05-14T12:56:50.999Z</time>
      </trkpt>
      <trkpt lat="44.18329" lon="5.28776">
        <ele>1334.6</ele>
        <time>2026-05-14T12:56:51.999Z</time>
      </trkpt>
      <trkpt lat="44.18329" lon="5.28776">
        <ele>1334.6</ele>
        <time>2026-05-14T12:56:52.999Z</time>
      </trkpt>
      <trkpt lat="44.18329" lon="5.28776">
        <ele>1334.6</ele>
        <time>2026-05-14T12:56:53.999Z</time>
      </trkpt>
      <trkpt lat="44.18329" lon="5.28776">
        <ele>1334.3</ele>
        <time>2026-05-14T12:56:54.999Z</time>
      </trkpt>
      <trkpt lat="44.18329" lon="5.28776">
        <ele>1334.3</ele>
        <time>2026-05-14T12:56:55.999Z</time>
      </trkpt>
      <trkpt lat="44.18328" lon="5.28777">
        <ele>1334.2</ele>
        <time>2026-05-14T12:56:56.999Z</time>
      </trkpt>
      <trkpt lat="44.18328" lon="5.28777">
        <ele>1334.4</ele>
        <time>2026-05-14T12:56:57.999Z</time>
      </trkpt>
      <trkpt lat="44.18328" lon="5.28777">
        <ele>1334.7</ele>
        <time>2026-05-14T12:56:58.999Z</time>
      </trkpt>
      <trkpt lat="44.18328" lon="5.28777">
        <ele>1335.1</ele>
        <time>2026-05-14T12:56:59.999Z</time>
      </trkpt>
      <trkpt lat="44.18328" lon="5.28778">
        <ele>1335.5</ele>
        <time>2026-05-14T12:57:00.999Z</time>
      </trkpt>
      <trkpt lat="44.18328" lon="5.28778">
        <ele>1335.5</ele>
        <time>2026-05-14T12:57:01.999Z</time>
      </trkpt>
      <trkpt lat="44.18328" lon="5.28778">
        <ele>1335.4</ele>
        <time>2026-05-14T12:57:02.999Z</time>
      </trkpt>
      <trkpt lat="44.18328" lon="5.28778">
        <ele>1335.3</ele>
        <time>2026-05-14T12:57:03.999Z</time>
      </trkpt>
      <trkpt lat="44.18328" lon="5.28778">
        <ele>1335.4</ele>
        <time>2026-05-14T12:57:04.999Z</time>
      </trkpt>
      <trkpt lat="44.18328" lon="5.28778">
        <ele>1335.1</ele>
        <time>2026-05-14T12:57:05.999Z</time>
      </trkpt>
      <trkpt lat="44.18328" lon="5.28778">
        <ele>1334.8</ele>
        <time>2026-05-14T12:57:06.999Z</time>
      </trkpt>
      <trkpt lat="44.18329" lon="5.28778">
        <ele>1334.7</ele>
        <time>2026-05-14T12:57:07.999Z</time>
      </trkpt>
      <trkpt lat="44.18329" lon="5.28779">
        <ele>1334.8</ele>
        <time>2026-05-14T12:57:08.999Z</time>
      </trkpt>
      <trkpt lat="44.18329" lon="5.28779">
        <ele>1335</ele>
        <time>2026-05-14T12:57:09.999Z</time>
      </trkpt>
      <trkpt lat="44.18328" lon="5.28779">
        <ele>1335.2</ele>
        <time>2026-05-14T12:57:10.999Z</time>
      </trkpt>
      <trkpt lat="44.18328" lon="5.28779">
        <ele>1335.4</ele>
        <time>2026-05-14T12:57:11.999Z</time>
      </trkpt>
      <trkpt lat="44.18328" lon="5.2878">
        <ele>1335.5</ele>
        <time>2026-05-14T12:57:12.999Z</time>
      </trkpt>
      <trkpt lat="44.18328" lon="5.2878">
        <ele>1336</ele>
        <time>2026-05-14T12:57:13.999Z</time>
      </trkpt>
      <trkpt lat="44.18328" lon="5.2878">
        <ele>1336.4</ele>
        <time>2026-05-14T12:57:14.999Z</time>
      </trkpt>
      <trkpt lat="44.18328" lon="5.2878">
        <ele>1336.6</ele>
        <time>2026-05-14T12:57:15.999Z</time>
      </trkpt>
      <trkpt lat="44.18328" lon="5.2878">
        <ele>1336.9</ele>
        <time>2026-05-14T12:57:16.999Z</time>
      </trkpt>
      <trkpt lat="44.18329" lon="5.28781">
        <ele>1337.3</ele>
        <time>2026-05-14T12:57:17.999Z</time>
      </trkpt>
      <trkpt lat="44.18329" lon="5.28781">
        <ele>1337.7</ele>
        <time>2026-05-14T12:57:18.999Z</time>
      </trkpt>
      <trkpt lat="44.18329" lon="5.28781">
        <ele>1337.9</ele>
        <time>2026-05-14T12:57:19.999Z</time>
      </trkpt>
      <trkpt lat="44.18329" lon="5.28781">
        <ele>1338.1</ele>
        <time>2026-05-14T12:57:20.999Z</time>
      </trkpt>
      <trkpt lat="44.18329" lon="5.28781">
        <ele>1338.2</ele>
        <time>2026-05-14T12:57:21.999Z</time>
      </trkpt>
      <trkpt lat="44.18329" lon="5.28781">
        <ele>1338.3</ele>
        <time>2026-05-14T12:57:22.999Z</time>
      </trkpt>
      <trkpt lat="44.18328" lon="5.28781">
        <ele>1338.7</ele>
        <time>2026-05-14T12:57:23.999Z</time>
      </trkpt>
      <trkpt lat="44.18328" lon="5.28781">
        <ele>1338.8</ele>
        <time>2026-05-14T12:57:24.999Z</time>
      </trkpt>
      <trkpt lat="44.18328" lon="5.28781">
        <ele>1339.2</ele>
        <time>2026-05-14T12:57:25.999Z</time>
      </trkpt>
      <trkpt lat="44.18328" lon="5.28781">
        <ele>1339.7</ele>
        <time>2026-05-14T12:57:26.999Z</time>
      </trkpt>
      <trkpt lat="44.18328" lon="5.28781">
        <ele>1339.9</ele>
        <time>2026-05-14T12:57:27.999Z</time>
      </trkpt>
      <trkpt lat="44.18328" lon="5.28781">
        <ele>1340</ele>
        <time>2026-05-14T12:57:28.999Z</time>
      </trkpt>
      <trkpt lat="44.18328" lon="5.28781">
        <ele>1339.9</ele>
        <time>2026-05-14T12:57:29.999Z</time>
      </trkpt>
      <trkpt lat="44.18328" lon="5.28781">
        <ele>1339.8</ele>
        <time>2026-05-14T12:57:30.999Z</time>
      </trkpt>
      <trkpt lat="44.18328" lon="5.28781">
        <ele>1339.6</ele>
        <time>2026-05-14T12:57:31.999Z</time>
      </trkpt>
      <trkpt lat="44.18328" lon="5.28781">
        <ele>1339.6</ele>
        <time>2026-05-14T12:57:32.999Z</time>
      </trkpt>
      <trkpt lat="44.18328" lon="5.28781">
        <ele>1339.4</ele>
        <time>2026-05-14T12:57:33.999Z</time>
      </trkpt>
      <trkpt lat="44.18328" lon="5.28781">
        <ele>1339</ele>
        <time>2026-05-14T12:57:34.999Z</time>
      </trkpt>
      <trkpt lat="44.18328" lon="5.28781">
        <ele>1338.9</ele>
        <time>2026-05-14T12:57:35.999Z</time>
      </trkpt>
      <trkpt lat="44.18328" lon="5.28781">
        <ele>1338.8</ele>
        <time>2026-05-14T12:57:36.999Z</time>
      </trkpt>
      <trkpt lat="44.18328" lon="5.28781">
        <ele>1338.7</ele>
        <time>2026-05-14T12:57:37.999Z</time>
      </trkpt>
      <trkpt lat="44.18328" lon="5.28781">
        <ele>1338.4</ele>
        <time>2026-05-14T12:57:38.999Z</time>
      </trkpt>
      <trkpt lat="44.18327" lon="5.28781">
        <ele>1338.2</ele>
        <time>2026-05-14T12:57:39.999Z</time>
      </trkpt>
      <trkpt lat="44.18327" lon="5.28781">
        <ele>1337.8</ele>
        <time>2026-05-14T12:57:40.999Z</time>
      </trkpt>
      <trkpt lat="44.18327" lon="5.28781">
        <ele>1337.4</ele>
        <time>2026-05-14T12:57:41.999Z</time>
      </trkpt>
      <trkpt lat="44.18327" lon="5.28781">
        <ele>1336.9</ele>
        <time>2026-05-14T12:57:42.999Z</time>
      </trkpt>
      <trkpt lat="44.18327" lon="5.28781">
        <ele>1336.5</ele>
        <time>2026-05-14T12:57:43.999Z</time>
      </trkpt>
      <trkpt lat="44.18327" lon="5.28781">
        <ele>1336.2</ele>
        <time>2026-05-14T12:57:44.999Z</time>
      </trkpt>
      <trkpt lat="44.18327" lon="5.28781">
        <ele>1335.9</ele>
        <time>2026-05-14T12:57:45.999Z</time>
      </trkpt>
      <trkpt lat="44.18327" lon="5.28781">
        <ele>1335.5</ele>
        <time>2026-05-14T12:57:46.999Z</time>
      </trkpt>
      <trkpt lat="44.18327" lon="5.28781">
        <ele>1335.2</ele>
        <time>2026-05-14T12:57:47.999Z</time>
      </trkpt>
      <trkpt lat="44.18327" lon="5.28781">
        <ele>1334.9</ele>
        <time>2026-05-14T12:57:48.999Z</time>
      </trkpt>
      <trkpt lat="44.18327" lon="5.28781">
        <ele>1334.7</ele>
        <time>2026-05-14T12:57:49.999Z</time>
      </trkpt>
      <trkpt lat="44.18327" lon="5.28781">
        <ele>1334.4</ele>
        <time>2026-05-14T12:57:50.999Z</time>
      </trkpt>
      <trkpt lat="44.18327" lon="5.28781">
        <ele>1334.2</ele>
        <time>2026-05-14T12:57:51.999Z</time>
      </trkpt>
      <trkpt lat="44.18326" lon="5.28781">
        <ele>1334.2</ele>
        <time>2026-05-14T12:57:52.999Z</time>
      </trkpt>
      <trkpt lat="44.18326" lon="5.28781">
        <ele>1334.3</ele>
        <time>2026-05-14T12:57:53.999Z</time>
      </trkpt>
      <trkpt lat="44.18326" lon="5.28781">
        <ele>1334.1</ele>
        <time>2026-05-14T12:57:54.999Z</time>
      </trkpt>
      <trkpt lat="44.18326" lon="5.28781">
        <ele>1333.9</ele>
        <time>2026-05-14T12:57:55.999Z</time>
      </trkpt>
      <trkpt lat="44.18326" lon="5.2878">
        <ele>1333.8</ele>
        <time>2026-05-14T12:57:56.999Z</time>
      </trkpt>
      <trkpt lat="44.18326" lon="5.2878">
        <ele>1333.6</ele>
        <time>2026-05-14T12:57:57.999Z</time>
      </trkpt>
      <trkpt lat="44.18326" lon="5.2878">
        <ele>1333.2</ele>
        <time>2026-05-14T12:57:58.999Z</time>
      </trkpt>
      <trkpt lat="44.18326" lon="5.2878">
        <ele>1332.9</ele>
        <time>2026-05-14T12:57:59.999Z</time>
      </trkpt>
      <trkpt lat="44.18326" lon="5.2878">
        <ele>1332.4</ele>
        <time>2026-05-14T12:58:00.999Z</time>
      </trkpt>
      <trkpt lat="44.18326" lon="5.2878">
        <ele>1331.9</ele>
        <time>2026-05-14T12:58:01.999Z</time>
      </trkpt>
      <trkpt lat="44.18326" lon="5.2878">
        <ele>1331.5</ele>
        <time>2026-05-14T12:58:02.999Z</time>
      </trkpt>
      <trkpt lat="44.18326" lon="5.28779">
        <ele>1331</ele>
        <time>2026-05-14T12:58:03.999Z</time>
      </trkpt>
      <trkpt lat="44.18326" lon="5.28779">
        <ele>1330.4</ele>
        <time>2026-05-14T12:58:04.999Z</time>
      </trkpt>
      <trkpt lat="44.18326" lon="5.28778">
        <ele>1329.9</ele>
        <time>2026-05-14T12:58:05.999Z</time>
      </trkpt>
      <trkpt lat="44.18326" lon="5.28778">
        <ele>1329.6</ele>
        <time>2026-05-14T12:58:06.999Z</time>
      </trkpt>
      <trkpt lat="44.18326" lon="5.28778">
        <ele>1329.3</ele>
        <time>2026-05-14T12:58:07.999Z</time>
      </trkpt>
      <trkpt lat="44.18326" lon="5.28778">
        <ele>1329.6</ele>
        <time>2026-05-14T12:58:08.999Z</time>
      </trkpt>
      <trkpt lat="44.18326" lon="5.28778">
        <ele>1329.8</ele>
        <time>2026-05-14T12:58:09.999Z</time>
      </trkpt>
      <trkpt lat="44.18326" lon="5.28778">
        <ele>1329.9</ele>
        <time>2026-05-14T12:58:10.999Z</time>
      </trkpt>
      <trkpt lat="44.18327" lon="5.28777">
        <ele>1329.9</ele>
        <time>2026-05-14T12:58:11.999Z</time>
      </trkpt>
      <trkpt lat="44.18327" lon="5.28777">
        <ele>1330.1</ele>
        <time>2026-05-14T12:58:12.999Z</time>
      </trkpt>
      <trkpt lat="44.18327" lon="5.28777">
        <ele>1330.4</ele>
        <time>2026-05-14T12:58:13.999Z</time>
      </trkpt>
      <trkpt lat="44.18327" lon="5.28776">
        <ele>1330.5</ele>
        <time>2026-05-14T12:58:14.999Z</time>
      </trkpt>
      <trkpt lat="44.18327" lon="5.28776">
        <ele>1330.6</ele>
        <time>2026-05-14T12:58:15.999Z</time>
      </trkpt>
      <trkpt lat="44.18327" lon="5.28776">
        <ele>1330.7</ele>
        <time>2026-05-14T12:58:16.999Z</time>
      </trkpt>
      <trkpt lat="44.18328" lon="5.28776">
        <ele>1330.9</ele>
        <time>2026-05-14T12:58:17.999Z</time>
      </trkpt>
      <trkpt lat="44.18328" lon="5.28776">
        <ele>1331</ele>
        <time>2026-05-14T12:58:18.999Z</time>
      </trkpt>
      <trkpt lat="44.18328" lon="5.28776">
        <ele>1331</ele>
        <time>2026-05-14T12:58:19.999Z</time>
      </trkpt>
      <trkpt lat="44.18328" lon="5.28776">
        <ele>1331</ele>
        <time>2026-05-14T12:58:20.999Z</time>
      </trkpt>
      <trkpt lat="44.18328" lon="5.28776">
        <ele>1331</ele>
        <time>2026-05-14T12:58:21.999Z</time>
      </trkpt>
      <trkpt lat="44.18328" lon="5.28776">
        <ele>1331</ele>
        <time>2026-05-14T12:58:22.999Z</time>
      </trkpt>
      <trkpt lat="44.18328" lon="5.28775">
        <ele>1330.9</ele>
        <time>2026-05-14T12:58:23.999Z</time>
      </trkpt>
      <trkpt lat="44.18328" lon="5.28775">
        <ele>1330.7</ele>
        <time>2026-05-14T12:58:24.999Z</time>
      </trkpt>
      <trkpt lat="44.18328" lon="5.28775">
        <ele>1330.4</ele>
        <time>2026-05-14T12:58:25.999Z</time>
      </trkpt>
      <trkpt lat="44.18328" lon="5.28775">
        <ele>1330.3</ele>
        <time>2026-05-14T12:58:26.999Z</time>
      </trkpt>
      <trkpt lat="44.18328" lon="5.28775">
        <ele>1330</ele>
        <time>2026-05-14T12:58:27.999Z</time>
      </trkpt>
      <trkpt lat="44.18328" lon="5.28775">
        <ele>1329.8</ele>
        <time>2026-05-14T12:58:28.999Z</time>
      </trkpt>
      <trkpt lat="44.18328" lon="5.28775">
        <ele>1329.7</ele>
        <time>2026-05-14T12:58:29.999Z</time>
      </trkpt>
      <trkpt lat="44.18328" lon="5.28775">
        <ele>1329.7</ele>
        <time>2026-05-14T12:58:30.999Z</time>
      </trkpt>
      <trkpt lat="44.18328" lon="5.28775">
        <ele>1329.9</ele>
        <time>2026-05-14T12:58:31.999Z</time>
      </trkpt>
      <trkpt lat="44.18328" lon="5.28775">
        <ele>1330.3</ele>
        <time>2026-05-14T12:58:32.999Z</time>
      </trkpt>
      <trkpt lat="44.18328" lon="5.28775">
        <ele>1330.8</ele>
        <time>2026-05-14T12:58:33.999Z</time>
      </trkpt>
      <trkpt lat="44.18328" lon="5.28775">
        <ele>1331.4</ele>
        <time>2026-05-14T12:58:34.999Z</time>
      </trkpt>
      <trkpt lat="44.18328" lon="5.28776">
        <ele>1331.8</ele>
        <time>2026-05-14T12:58:35.999Z</time>
      </trkpt>
      <trkpt lat="44.18328" lon="5.28776">
        <ele>1332</ele>
        <time>2026-05-14T12:58:36.999Z</time>
      </trkpt>
      <trkpt lat="44.18328" lon="5.28776">
        <ele>1332</ele>
        <time>2026-05-14T12:58:37.999Z</time>
      </trkpt>
      <trkpt lat="44.18328" lon="5.28776">
        <ele>1331.9</ele>
        <time>2026-05-14T12:58:38.999Z</time>
      </trkpt>
      <trkpt lat="44.18328" lon="5.28776">
        <ele>1331.8</ele>
        <time>2026-05-14T12:58:39.999Z</time>
      </trkpt>
      <trkpt lat="44.18328" lon="5.28775">
        <ele>1332.1</ele>
        <time>2026-05-14T12:58:40.999Z</time>
      </trkpt>
      <trkpt lat="44.18328" lon="5.28775">
        <ele>1332.3</ele>
        <time>2026-05-14T12:58:41.999Z</time>
      </trkpt>
      <trkpt lat="44.18328" lon="5.28775">
        <ele>1332.4</ele>
        <time>2026-05-14T12:58:42.999Z</time>
      </trkpt>
      <trkpt lat="44.18328" lon="5.28775">
        <ele>1332.5</ele>
        <time>2026-05-14T12:58:43.999Z</time>
      </trkpt>
      <trkpt lat="44.18328" lon="5.28775">
        <ele>1332.6</ele>
        <time>2026-05-14T12:58:44.999Z</time>
      </trkpt>
      <trkpt lat="44.18328" lon="5.28775">
        <ele>1332.8</ele>
        <time>2026-05-14T12:58:45.999Z</time>
      </trkpt>
      <trkpt lat="44.18328" lon="5.28775">
        <ele>1333</ele>
        <time>2026-05-14T12:58:46.999Z</time>
      </trkpt>
      <trkpt lat="44.18329" lon="5.28775">
        <ele>1333.1</ele>
        <time>2026-05-14T12:58:47.999Z</time>
      </trkpt>
      <trkpt lat="44.18329" lon="5.28775">
        <ele>1333.2</ele>
        <time>2026-05-14T12:58:48.999Z</time>
      </trkpt>
      <trkpt lat="44.18329" lon="5.28775">
        <ele>1333.1</ele>
        <time>2026-05-14T12:58:49.999Z</time>
      </trkpt>
      <trkpt lat="44.18329" lon="5.28775">
        <ele>1333.1</ele>
        <time>2026-05-14T12:58:50.999Z</time>
      </trkpt>
      <trkpt lat="44.18329" lon="5.28775">
        <ele>1332.9</ele>
        <time>2026-05-14T12:58:51.999Z</time>
      </trkpt>
      <trkpt lat="44.18329" lon="5.28775">
        <ele>1332.7</ele>
        <time>2026-05-14T12:58:52.999Z</time>
      </trkpt>
      <trkpt lat="44.18329" lon="5.28775">
        <ele>1332.6</ele>
        <time>2026-05-14T12:58:53.999Z</time>
      </trkpt>
      <trkpt lat="44.18329" lon="5.28775">
        <ele>1332.5</ele>
        <time>2026-05-14T12:58:54.999Z</time>
      </trkpt>
      <trkpt lat="44.18329" lon="5.28775">
        <ele>1332.4</ele>
        <time>2026-05-14T12:58:55.999Z</time>
      </trkpt>
      <trkpt lat="44.18329" lon="5.28775">
        <ele>1332.3</ele>
        <time>2026-05-14T12:58:56.999Z</time>
      </trkpt>
      <trkpt lat="44.18329" lon="5.28775">
        <ele>1332.2</ele>
        <time>2026-05-14T12:58:57.999Z</time>
      </trkpt>
      <trkpt lat="44.18329" lon="5.28775">
        <ele>1332</ele>
        <time>2026-05-14T12:58:58.999Z</time>
      </trkpt>
      <trkpt lat="44.18329" lon="5.28775">
        <ele>1331.6</ele>
        <time>2026-05-14T12:58:59.999Z</time>
      </trkpt>
      <trkpt lat="44.18329" lon="5.28775">
        <ele>1331.3</ele>
        <time>2026-05-14T12:59:00.999Z</time>
      </trkpt>
      <trkpt lat="44.18329" lon="5.28775">
        <ele>1331.2</ele>
        <time>2026-05-14T12:59:01.999Z</time>
      </trkpt>
      <trkpt lat="44.18328" lon="5.28776">
        <ele>1331.1</ele>
        <time>2026-05-14T12:59:02.999Z</time>
      </trkpt>
      <trkpt lat="44.18328" lon="5.28776">
        <ele>1330.9</ele>
        <time>2026-05-14T12:59:03.999Z</time>
      </trkpt>
      <trkpt lat="44.18328" lon="5.28776">
        <ele>1330.9</ele>
        <time>2026-05-14T12:59:04.999Z</time>
      </trkpt>
      <trkpt lat="44.18328" lon="5.28776">
        <ele>1330.8</ele>
        <time>2026-05-14T12:59:05.999Z</time>
      </trkpt>
      <trkpt lat="44.18328" lon="5.28776">
        <ele>1330.8</ele>
        <time>2026-05-14T12:59:06.999Z</time>
      </trkpt>
      <trkpt lat="44.18328" lon="5.28776">
        <ele>1331</ele>
        <time>2026-05-14T12:59:07.999Z</time>
      </trkpt>
      <trkpt lat="44.18328" lon="5.28776">
        <ele>1331.3</ele>
        <time>2026-05-14T12:59:08.999Z</time>
      </trkpt>
      <trkpt lat="44.18328" lon="5.28776">
        <ele>1331.5</ele>
        <time>2026-05-14T12:59:09.999Z</time>
      </trkpt>
      <trkpt lat="44.18328" lon="5.28776">
        <ele>1331.9</ele>
        <time>2026-05-14T12:59:10.999Z</time>
      </trkpt>
      <trkpt lat="44.18328" lon="5.28776">
        <ele>1332.3</ele>
        <time>2026-05-14T12:59:11.999Z</time>
      </trkpt>
      <trkpt lat="44.18329" lon="5.28776">
        <ele>1332.8</ele>
        <time>2026-05-14T12:59:12.999Z</time>
      </trkpt>
      <trkpt lat="44.18329" lon="5.28776">
        <ele>1333.3</ele>
        <time>2026-05-14T12:59:13.999Z</time>
      </trkpt>
      <trkpt lat="44.18329" lon="5.28776">
        <ele>1333.6</ele>
        <time>2026-05-14T12:59:14.999Z</time>
      </trkpt>
      <trkpt lat="44.18329" lon="5.28777">
        <ele>1334</ele>
        <time>2026-05-14T12:59:15.999Z</time>
      </trkpt>
      <trkpt lat="44.18329" lon="5.28777">
        <ele>1334.3</ele>
        <time>2026-05-14T12:59:16.999Z</time>
      </trkpt>
      <trkpt lat="44.18329" lon="5.28777">
        <ele>1334.7</ele>
        <time>2026-05-14T12:59:17.999Z</time>
      </trkpt>
      <trkpt lat="44.18329" lon="5.28777">
        <ele>1335</ele>
        <time>2026-05-14T12:59:18.999Z</time>
      </trkpt>
      <trkpt lat="44.18329" lon="5.28777">
        <ele>1335.1</ele>
        <time>2026-05-14T12:59:19.999Z</time>
      </trkpt>
      <trkpt lat="44.18329" lon="5.28776">
        <ele>1335.3</ele>
        <time>2026-05-14T12:59:20.999Z</time>
      </trkpt>
      <trkpt lat="44.18329" lon="5.28776">
        <ele>1335.4</ele>
        <time>2026-05-14T12:59:21.999Z</time>
      </trkpt>
      <trkpt lat="44.18329" lon="5.28776">
        <ele>1335.2</ele>
        <time>2026-05-14T12:59:22.999Z</time>
      </trkpt>
      <trkpt lat="44.18329" lon="5.28776">
        <ele>1335.2</ele>
        <time>2026-05-14T12:59:23.999Z</time>
      </trkpt>
      <trkpt lat="44.18329" lon="5.28776">
        <ele>1335.2</ele>
        <time>2026-05-14T12:59:24.999Z</time>
      </trkpt>
      <trkpt lat="44.18329" lon="5.28776">
        <ele>1335.1</ele>
        <time>2026-05-14T12:59:25.999Z</time>
      </trkpt>
      <trkpt lat="44.1833" lon="5.28776">
        <ele>1335</ele>
        <time>2026-05-14T12:59:26.999Z</time>
      </trkpt>
      <trkpt lat="44.1833" lon="5.28776">
        <ele>1334.8</ele>
        <time>2026-05-14T12:59:27.999Z</time>
      </trkpt>
      <trkpt lat="44.1833" lon="5.28776">
        <ele>1334.6</ele>
        <time>2026-05-14T12:59:28.999Z</time>
      </trkpt>
      <trkpt lat="44.1833" lon="5.28776">
        <ele>1334.4</ele>
        <time>2026-05-14T12:59:29.999Z</time>
      </trkpt>
      <trkpt lat="44.1833" lon="5.28776">
        <ele>1334.3</ele>
        <time>2026-05-14T12:59:30.999Z</time>
      </trkpt>
      <trkpt lat="44.1833" lon="5.28776">
        <ele>1334.2</ele>
        <time>2026-05-14T12:59:31.999Z</time>
      </trkpt>
      <trkpt lat="44.1833" lon="5.28776">
        <ele>1334</ele>
        <time>2026-05-14T12:59:32.999Z</time>
      </trkpt>
      <trkpt lat="44.1833" lon="5.28776">
        <ele>1333.4</ele>
        <time>2026-05-14T12:59:33.999Z</time>
      </trkpt>
      <trkpt lat="44.1833" lon="5.28776">
        <ele>1332.9</ele>
        <time>2026-05-14T12:59:34.999Z</time>
      </trkpt>
      <trkpt lat="44.1833" lon="5.28776">
        <ele>1332.6</ele>
        <time>2026-05-14T12:59:35.999Z</time>
      </trkpt>
      <trkpt lat="44.1833" lon="5.28776">
        <ele>1332.5</ele>
        <time>2026-05-14T12:59:36.999Z</time>
      </trkpt>
      <trkpt lat="44.1833" lon="5.28776">
        <ele>1332.4</ele>
        <time>2026-05-14T12:59:37.999Z</time>
      </trkpt>
      <trkpt lat="44.1833" lon="5.28776">
        <ele>1332.2</ele>
        <time>2026-05-14T12:59:38.999Z</time>
      </trkpt>
      <trkpt lat="44.1833" lon="5.28776">
        <ele>1332.2</ele>
        <time>2026-05-14T12:59:39.999Z</time>
      </trkpt>
      <trkpt lat="44.1833" lon="5.28776">
        <ele>1332.2</ele>
        <time>2026-05-14T12:59:40.999Z</time>
      </trkpt>
      <trkpt lat="44.18329" lon="5.28776">
        <ele>1332.3</ele>
        <time>2026-05-14T12:59:41.999Z</time>
      </trkpt>
      <trkpt lat="44.18329" lon="5.28776">
        <ele>1332</ele>
        <time>2026-05-14T12:59:42.999Z</time>
      </trkpt>
      <trkpt lat="44.18329" lon="5.28776">
        <ele>1332.1</ele>
        <time>2026-05-14T12:59:43.999Z</time>
      </trkpt>
      <trkpt lat="44.18329" lon="5.28776">
        <ele>1332</ele>
        <time>2026-05-14T12:59:44.999Z</time>
      </trkpt>
      <trkpt lat="44.18329" lon="5.28776">
        <ele>1332</ele>
        <time>2026-05-14T12:59:45.999Z</time>
      </trkpt>
      <trkpt lat="44.18329" lon="5.28776">
        <ele>1331.7</ele>
        <time>2026-05-14T12:59:46.999Z</time>
      </trkpt>
      <trkpt lat="44.18329" lon="5.28776">
        <ele>1331.7</ele>
        <time>2026-05-14T12:59:47.999Z</time>
      </trkpt>
      <trkpt lat="44.18329" lon="5.28776">
        <ele>1331.7</ele>
        <time>2026-05-14T12:59:48.999Z</time>
      </trkpt>
      <trkpt lat="44.18329" lon="5.28776">
        <ele>1331.9</ele>
        <time>2026-05-14T12:59:49.999Z</time>
      </trkpt>
      <trkpt lat="44.18329" lon="5.28776">
        <ele>1332.1</ele>
        <time>2026-05-14T12:59:50.999Z</time>
      </trkpt>
      <trkpt lat="44.18329" lon="5.28776">
        <ele>1332.5</ele>
        <time>2026-05-14T12:59:51.999Z</time>
      </trkpt>
      <trkpt lat="44.18329" lon="5.28776">
        <ele>1333</ele>
        <time>2026-05-14T12:59:52.999Z</time>
      </trkpt>
      <trkpt lat="44.18329" lon="5.28776">
        <ele>1333.4</ele>
        <time>2026-05-14T12:59:53.999Z</time>
      </trkpt>
      <trkpt lat="44.18329" lon="5.28776">
        <ele>1333.8</ele>
        <time>2026-05-14T12:59:54.999Z</time>
      </trkpt>
      <trkpt lat="44.18329" lon="5.28776">
        <ele>1334.4</ele>
        <time>2026-05-14T12:59:55.999Z</time>
      </trkpt>
      <trkpt lat="44.18329" lon="5.28776">
        <ele>1335.1</ele>
        <time>2026-05-14T12:59:56.999Z</time>
      </trkpt>
      <trkpt lat="44.18329" lon="5.28777">
        <ele>1335.8</ele>
        <time>2026-05-14T12:59:57.999Z</time>
      </trkpt>
      <trkpt lat="44.18329" lon="5.28777">
        <ele>1336.4</ele>
        <time>2026-05-14T12:59:58.999Z</time>
      </trkpt>
      <trkpt lat="44.18329" lon="5.28777">
        <ele>1337</ele>
        <time>2026-05-14T12:59:59.999Z</time>
      </trkpt>
      <trkpt lat="44.1833" lon="5.28779">
        <ele>1337.3</ele>
        <time>2026-05-14T13:00:00.999Z</time>
      </trkpt>
      <trkpt lat="44.18331" lon="5.2878">
        <ele>1337.6</ele>
        <time>2026-05-14T13:00:01.999Z</time>
      </trkpt>
      <trkpt lat="44.18331" lon="5.2878">
        <ele>1337.8</ele>
        <time>2026-05-14T13:00:02.999Z</time>
      </trkpt>
      <trkpt lat="44.18331" lon="5.28781">
        <ele>1338</ele>
        <time>2026-05-14T13:00:03.999Z</time>
      </trkpt>
      <trkpt lat="44.18331" lon="5.28781">
        <ele>1338.1</ele>
        <time>2026-05-14T13:00:04.999Z</time>
      </trkpt>
      <trkpt lat="44.18331" lon="5.28781">
        <ele>1338.2</ele>
        <time>2026-05-14T13:00:05.999Z</time>
      </trkpt>
      <trkpt lat="44.18331" lon="5.28781">
        <ele>1338.2</ele>
        <time>2026-05-14T13:00:06.999Z</time>
      </trkpt>
      <trkpt lat="44.18331" lon="5.28781">
        <ele>1338.2</ele>
        <time>2026-05-14T13:00:07.999Z</time>
      </trkpt>
      <trkpt lat="44.18331" lon="5.28781">
        <ele>1338.3</ele>
        <time>2026-05-14T13:00:08.999Z</time>
      </trkpt>
      <trkpt lat="44.18331" lon="5.28781">
        <ele>1338.3</ele>
        <time>2026-05-14T13:00:09.999Z</time>
      </trkpt>
      <trkpt lat="44.18331" lon="5.28781">
        <ele>1338.4</ele>
        <time>2026-05-14T13:00:10.999Z</time>
      </trkpt>
      <trkpt lat="44.18331" lon="5.28781">
        <ele>1338.6</ele>
        <time>2026-05-14T13:00:11.999Z</time>
      </trkpt>
      <trkpt lat="44.18331" lon="5.28781">
        <ele>1338.8</ele>
        <time>2026-05-14T13:00:12.999Z</time>
      </trkpt>
      <trkpt lat="44.18332" lon="5.28781">
        <ele>1338.9</ele>
        <time>2026-05-14T13:00:13.999Z</time>
      </trkpt>
      <trkpt lat="44.18331" lon="5.28781">
        <ele>1339</ele>
        <time>2026-05-14T13:00:14.999Z</time>
      </trkpt>
      <trkpt lat="44.18331" lon="5.28781">
        <ele>1339.1</ele>
        <time>2026-05-14T13:00:15.999Z</time>
      </trkpt>
      <trkpt lat="44.18331" lon="5.28781">
        <ele>1339.3</ele>
        <time>2026-05-14T13:00:16.999Z</time>
      </trkpt>
      <trkpt lat="44.18331" lon="5.28781">
        <ele>1339.3</ele>
        <time>2026-05-14T13:00:17.999Z</time>
      </trkpt>
      <trkpt lat="44.18331" lon="5.28781">
        <ele>1339.4</ele>
        <time>2026-05-14T13:00:18.999Z</time>
      </trkpt>
      <trkpt lat="44.18331" lon="5.28781">
        <ele>1339.5</ele>
        <time>2026-05-14T13:00:19.999Z</time>
      </trkpt>
      <trkpt lat="44.18331" lon="5.28782">
        <ele>1339.6</ele>
        <time>2026-05-14T13:00:20.999Z</time>
      </trkpt>
      <trkpt lat="44.18331" lon="5.28782">
        <ele>1339.7</ele>
        <time>2026-05-14T13:00:21.999Z</time>
      </trkpt>
      <trkpt lat="44.18331" lon="5.28782">
        <ele>1339.3</ele>
        <time>2026-05-14T13:00:22.999Z</time>
      </trkpt>
      <trkpt lat="44.18331" lon="5.28782">
        <ele>1338.9</ele>
        <time>2026-05-14T13:00:23.999Z</time>
      </trkpt>
      <trkpt lat="44.18331" lon="5.28781">
        <ele>1338.6</ele>
        <time>2026-05-14T13:00:24.999Z</time>
      </trkpt>
      <trkpt lat="44.18331" lon="5.28781">
        <ele>1338</ele>
        <time>2026-05-14T13:00:25.999Z</time>
      </trkpt>
      <trkpt lat="44.18331" lon="5.28782">
        <ele>1337.6</ele>
        <time>2026-05-14T13:00:26.999Z</time>
      </trkpt>
      <trkpt lat="44.18331" lon="5.28782">
        <ele>1337.1</ele>
        <time>2026-05-14T13:00:27.999Z</time>
      </trkpt>
      <trkpt lat="44.1833" lon="5.28781">
        <ele>1336.9</ele>
        <time>2026-05-14T13:00:28.999Z</time>
      </trkpt>
      <trkpt lat="44.1833" lon="5.28781">
        <ele>1336.9</ele>
        <time>2026-05-14T13:00:29.999Z</time>
      </trkpt>
      <trkpt lat="44.1833" lon="5.28781">
        <ele>1336.7</ele>
        <time>2026-05-14T13:00:30.999Z</time>
      </trkpt>
      <trkpt lat="44.1833" lon="5.28781">
        <ele>1336.5</ele>
        <time>2026-05-14T13:00:31.999Z</time>
      </trkpt>
      <trkpt lat="44.1833" lon="5.28781">
        <ele>1336.2</ele>
        <time>2026-05-14T13:00:32.999Z</time>
      </trkpt>
      <trkpt lat="44.1833" lon="5.28781">
        <ele>1336.2</ele>
        <time>2026-05-14T13:00:33.999Z</time>
      </trkpt>
      <trkpt lat="44.1833" lon="5.28781">
        <ele>1336.2</ele>
        <time>2026-05-14T13:00:34.999Z</time>
      </trkpt>
      <trkpt lat="44.1833" lon="5.28781">
        <ele>1336.2</ele>
        <time>2026-05-14T13:00:35.999Z</time>
      </trkpt>
      <trkpt lat="44.1833" lon="5.28781">
        <ele>1336.2</ele>
        <time>2026-05-14T13:00:36.999Z</time>
      </trkpt>
      <trkpt lat="44.1833" lon="5.28781">
        <ele>1336.3</ele>
        <time>2026-05-14T13:00:37.999Z</time>
      </trkpt>
      <trkpt lat="44.18329" lon="5.28781">
        <ele>1336.2</ele>
        <time>2026-05-14T13:00:38.999Z</time>
      </trkpt>
      <trkpt lat="44.18329" lon="5.28781">
        <ele>1335.9</ele>
        <time>2026-05-14T13:00:39.999Z</time>
      </trkpt>
      <trkpt lat="44.18329" lon="5.28781">
        <ele>1335.7</ele>
        <time>2026-05-14T13:00:40.999Z</time>
      </trkpt>
      <trkpt lat="44.18329" lon="5.28781">
        <ele>1335.3</ele>
        <time>2026-05-14T13:00:41.999Z</time>
      </trkpt>
      <trkpt lat="44.18328" lon="5.28781">
        <ele>1334.9</ele>
        <time>2026-05-14T13:00:42.999Z</time>
      </trkpt>
      <trkpt lat="44.18328" lon="5.28781">
        <ele>1334.6</ele>
        <time>2026-05-14T13:00:43.999Z</time>
      </trkpt>
      <trkpt lat="44.18328" lon="5.28781">
        <ele>1334.4</ele>
        <time>2026-05-14T13:00:44.999Z</time>
      </trkpt>
      <trkpt lat="44.18328" lon="5.28781">
        <ele>1334.2</ele>
        <time>2026-05-14T13:00:45.999Z</time>
      </trkpt>
      <trkpt lat="44.18328" lon="5.28781">
        <ele>1334.1</ele>
        <time>2026-05-14T13:00:46.999Z</time>
      </trkpt>
      <trkpt lat="44.18328" lon="5.28782">
        <ele>1334.3</ele>
        <time>2026-05-14T13:00:47.999Z</time>
      </trkpt>
      <trkpt lat="44.18328" lon="5.28784">
        <ele>1334.6</ele>
        <time>2026-05-14T13:00:48.999Z</time>
      </trkpt>
      <trkpt lat="44.18327" lon="5.28785">
        <ele>1334.7</ele>
        <time>2026-05-14T13:00:49.999Z</time>
      </trkpt>
      <trkpt lat="44.18327" lon="5.28785">
        <ele>1334.8</ele>
        <time>2026-05-14T13:00:50.999Z</time>
      </trkpt>
      <trkpt lat="44.18327" lon="5.28785">
        <ele>1335</ele>
        <time>2026-05-14T13:00:51.999Z</time>
      </trkpt>
      <trkpt lat="44.18327" lon="5.28786">
        <ele>1334.9</ele>
        <time>2026-05-14T13:00:52.999Z</time>
      </trkpt>
      <trkpt lat="44.18327" lon="5.28786">
        <ele>1335</ele>
        <time>2026-05-14T13:00:53.999Z</time>
      </trkpt>
      <trkpt lat="44.18327" lon="5.28786">
        <ele>1335.4</ele>
        <time>2026-05-14T13:00:54.999Z</time>
      </trkpt>
      <trkpt lat="44.18327" lon="5.28786">
        <ele>1335.6</ele>
        <time>2026-05-14T13:00:55.999Z</time>
      </trkpt>
      <trkpt lat="44.18327" lon="5.28786">
        <ele>1335.7</ele>
        <time>2026-05-14T13:00:56.999Z</time>
      </trkpt>
      <trkpt lat="44.18327" lon="5.28785">
        <ele>1335.8</ele>
        <time>2026-05-14T13:00:57.999Z</time>
      </trkpt>
      <trkpt lat="44.18327" lon="5.28785">
        <ele>1335.6</ele>
        <time>2026-05-14T13:00:58.999Z</time>
      </trkpt>
      <trkpt lat="44.18327" lon="5.28785">
        <ele>1335.4</ele>
        <time>2026-05-14T13:00:59.999Z</time>
      </trkpt>
      <trkpt lat="44.18327" lon="5.28785">
        <ele>1335.3</ele>
        <time>2026-05-14T13:01:00.999Z</time>
      </trkpt>
      <trkpt lat="44.18327" lon="5.28785">
        <ele>1335.1</ele>
        <time>2026-05-14T13:01:01.999Z</time>
      </trkpt>
      <trkpt lat="44.18327" lon="5.28785">
        <ele>1335.2</ele>
        <time>2026-05-14T13:01:02.999Z</time>
      </trkpt>
      <trkpt lat="44.18327" lon="5.28785">
        <ele>1335.2</ele>
        <time>2026-05-14T13:01:03.999Z</time>
      </trkpt>
      <trkpt lat="44.18327" lon="5.28785">
        <ele>1335.3</ele>
        <time>2026-05-14T13:01:04.999Z</time>
      </trkpt>
      <trkpt lat="44.18327" lon="5.28784">
        <ele>1335.3</ele>
        <time>2026-05-14T13:01:05.999Z</time>
      </trkpt>
      <trkpt lat="44.18327" lon="5.28784">
        <ele>1335.6</ele>
        <time>2026-05-14T13:01:06.999Z</time>
      </trkpt>
      <trkpt lat="44.18327" lon="5.28784">
        <ele>1335.6</ele>
        <time>2026-05-14T13:01:07.999Z</time>
      </trkpt>
      <trkpt lat="44.18327" lon="5.28784">
        <ele>1335.7</ele>
        <time>2026-05-14T13:01:08.999Z</time>
      </trkpt>
      <trkpt lat="44.18327" lon="5.28784">
        <ele>1335.6</ele>
        <time>2026-05-14T13:01:09.999Z</time>
      </trkpt>
      <trkpt lat="44.18327" lon="5.28784">
        <ele>1335.5</ele>
        <time>2026-05-14T13:01:10.999Z</time>
      </trkpt>
      <trkpt lat="44.18327" lon="5.28784">
        <ele>1335.6</ele>
        <time>2026-05-14T13:01:11.999Z</time>
      </trkpt>
      <trkpt lat="44.18327" lon="5.28784">
        <ele>1335.5</ele>
        <time>2026-05-14T13:01:12.999Z</time>
      </trkpt>
      <trkpt lat="44.18327" lon="5.28784">
        <ele>1335.4</ele>
        <time>2026-05-14T13:01:13.999Z</time>
      </trkpt>
      <trkpt lat="44.18328" lon="5.28784">
        <ele>1335.4</ele>
        <time>2026-05-14T13:01:14.999Z</time>
      </trkpt>
      <trkpt lat="44.18328" lon="5.28784">
        <ele>1335.6</ele>
        <time>2026-05-14T13:01:15.999Z</time>
      </trkpt>
      <trkpt lat="44.18328" lon="5.28784">
        <ele>1335.8</ele>
        <time>2026-05-14T13:01:16.999Z</time>
      </trkpt>
      <trkpt lat="44.18328" lon="5.28784">
        <ele>1336</ele>
        <time>2026-05-14T13:01:17.999Z</time>
      </trkpt>
      <trkpt lat="44.18328" lon="5.28783">
        <ele>1336</ele>
        <time>2026-05-14T13:01:18.999Z</time>
      </trkpt>
      <trkpt lat="44.18328" lon="5.28783">
        <ele>1336</ele>
        <time>2026-05-14T13:01:19.999Z</time>
      </trkpt>
      <trkpt lat="44.18328" lon="5.28783">
        <ele>1336.1</ele>
        <time>2026-05-14T13:01:20.999Z</time>
      </trkpt>
      <trkpt lat="44.18328" lon="5.28783">
        <ele>1336.1</ele>
        <time>2026-05-14T13:01:21.999Z</time>
      </trkpt>
      <trkpt lat="44.18328" lon="5.28783">
        <ele>1336.2</ele>
        <time>2026-05-14T13:01:22.999Z</time>
      </trkpt>
      <trkpt lat="44.18328" lon="5.28783">
        <ele>1336.2</ele>
        <time>2026-05-14T13:01:23.999Z</time>
      </trkpt>
      <trkpt lat="44.18328" lon="5.28783">
        <ele>1336.2</ele>
        <time>2026-05-14T13:01:24.999Z</time>
      </trkpt>
      <trkpt lat="44.18328" lon="5.28783">
        <ele>1336.2</ele>
        <time>2026-05-14T13:01:25.999Z</time>
      </trkpt>
      <trkpt lat="44.18328" lon="5.28783">
        <ele>1336.1</ele>
        <time>2026-05-14T13:01:26.999Z</time>
      </trkpt>
      <trkpt lat="44.18328" lon="5.28784">
        <ele>1336</ele>
        <time>2026-05-14T13:01:27.999Z</time>
      </trkpt>
      <trkpt lat="44.18328" lon="5.28784">
        <ele>1335.7</ele>
        <time>2026-05-14T13:01:28.999Z</time>
      </trkpt>
      <trkpt lat="44.18328" lon="5.28784">
        <ele>1335.4</ele>
        <time>2026-05-14T13:01:29.999Z</time>
      </trkpt>
      <trkpt lat="44.18328" lon="5.28784">
        <ele>1335.1</ele>
        <time>2026-05-14T13:01:30.999Z</time>
      </trkpt>
      <trkpt lat="44.18328" lon="5.28784">
        <ele>1334.8</ele>
        <time>2026-05-14T13:01:31.999Z</time>
      </trkpt>
      <trkpt lat="44.18328" lon="5.28784">
        <ele>1334.5</ele>
        <time>2026-05-14T13:01:32.999Z</time>
      </trkpt>
      <trkpt lat="44.18328" lon="5.28784">
        <ele>1334.1</ele>
        <time>2026-05-14T13:01:33.999Z</time>
      </trkpt>
      <trkpt lat="44.18328" lon="5.28784">
        <ele>1333.8</ele>
        <time>2026-05-14T13:01:34.999Z</time>
      </trkpt>
      <trkpt lat="44.18328" lon="5.28784">
        <ele>1333.4</ele>
        <time>2026-05-14T13:01:35.999Z</time>
      </trkpt>
      <trkpt lat="44.18328" lon="5.28784">
        <ele>1333.1</ele>
        <time>2026-05-14T13:01:36.999Z</time>
      </trkpt>
      <trkpt lat="44.18328" lon="5.28784">
        <ele>1332.9</ele>
        <time>2026-05-14T13:01:37.999Z</time>
      </trkpt>
      <trkpt lat="44.18328" lon="5.28784">
        <ele>1332.8</ele>
        <time>2026-05-14T13:01:38.999Z</time>
      </trkpt>
      <trkpt lat="44.18328" lon="5.28784">
        <ele>1332.6</ele>
        <time>2026-05-14T13:01:39.999Z</time>
      </trkpt>
      <trkpt lat="44.18328" lon="5.28784">
        <ele>1332.5</ele>
        <time>2026-05-14T13:01:40.999Z</time>
      </trkpt>
      <trkpt lat="44.18328" lon="5.28784">
        <ele>1332.2</ele>
        <time>2026-05-14T13:01:41.999Z</time>
      </trkpt>
      <trkpt lat="44.18328" lon="5.28784">
        <ele>1332.3</ele>
        <time>2026-05-14T13:01:42.999Z</time>
      </trkpt>
      <trkpt lat="44.18328" lon="5.28784">
        <ele>1332.4</ele>
        <time>2026-05-14T13:01:43.999Z</time>
      </trkpt>
      <trkpt lat="44.18328" lon="5.28784">
        <ele>1332.5</ele>
        <time>2026-05-14T13:01:44.999Z</time>
      </trkpt>
      <trkpt lat="44.18328" lon="5.28784">
        <ele>1332.5</ele>
        <time>2026-05-14T13:01:45.999Z</time>
      </trkpt>
      <trkpt lat="44.18328" lon="5.28784">
        <ele>1332.3</ele>
        <time>2026-05-14T13:01:46.999Z</time>
      </trkpt>
      <trkpt lat="44.18328" lon="5.28785">
        <ele>1332.2</ele>
        <time>2026-05-14T13:01:47.999Z</time>
      </trkpt>
      <trkpt lat="44.18328" lon="5.28785">
        <ele>1331.9</ele>
        <time>2026-05-14T13:01:48.999Z</time>
      </trkpt>
      <trkpt lat="44.18328" lon="5.28784">
        <ele>1331.7</ele>
        <time>2026-05-14T13:01:49.999Z</time>
      </trkpt>
      <trkpt lat="44.18328" lon="5.28784">
        <ele>1331.4</ele>
        <time>2026-05-14T13:01:50.999Z</time>
      </trkpt>
      <trkpt lat="44.18328" lon="5.28784">
        <ele>1331</ele>
        <time>2026-05-14T13:01:51.999Z</time>
      </trkpt>
      <trkpt lat="44.18328" lon="5.28784">
        <ele>1330.6</ele>
        <time>2026-05-14T13:01:52.999Z</time>
      </trkpt>
      <trkpt lat="44.18328" lon="5.28784">
        <ele>1330.2</ele>
        <time>2026-05-14T13:01:53.999Z</time>
      </trkpt>
      <trkpt lat="44.18328" lon="5.28784">
        <ele>1330</ele>
        <time>2026-05-14T13:01:54.999Z</time>
      </trkpt>
      <trkpt lat="44.18328" lon="5.28784">
        <ele>1329.8</ele>
        <time>2026-05-14T13:01:55.999Z</time>
      </trkpt>
      <trkpt lat="44.18328" lon="5.28784">
        <ele>1329.5</ele>
        <time>2026-05-14T13:01:56.999Z</time>
      </trkpt>
      <trkpt lat="44.18328" lon="5.28784">
        <ele>1329.3</ele>
        <time>2026-05-14T13:01:57.999Z</time>
      </trkpt>
      <trkpt lat="44.18328" lon="5.28784">
        <ele>1329.2</ele>
        <time>2026-05-14T13:01:58.999Z</time>
      </trkpt>
      <trkpt lat="44.18328" lon="5.28784">
        <ele>1329.2</ele>
        <time>2026-05-14T13:01:59.999Z</time>
      </trkpt>
      <trkpt lat="44.18328" lon="5.28784">
        <ele>1329.1</ele>
        <time>2026-05-14T13:02:00.999Z</time>
      </trkpt>
      <trkpt lat="44.18328" lon="5.28784">
        <ele>1329</ele>
        <time>2026-05-14T13:02:01.999Z</time>
      </trkpt>
      <trkpt lat="44.18328" lon="5.28784">
        <ele>1328.9</ele>
        <time>2026-05-14T13:02:02.999Z</time>
      </trkpt>
      <trkpt lat="44.18328" lon="5.28784">
        <ele>1328.7</ele>
        <time>2026-05-14T13:02:03.999Z</time>
      </trkpt>
      <trkpt lat="44.18328" lon="5.28784">
        <ele>1328.6</ele>
        <time>2026-05-14T13:02:04.999Z</time>
      </trkpt>
      <trkpt lat="44.18328" lon="5.28784">
        <ele>1328.3</ele>
        <time>2026-05-14T13:02:05.999Z</time>
      </trkpt>
      <trkpt lat="44.18328" lon="5.28784">
        <ele>1328.2</ele>
        <time>2026-05-14T13:02:06.999Z</time>
      </trkpt>
      <trkpt lat="44.18328" lon="5.28784">
        <ele>1328</ele>
        <time>2026-05-14T13:02:07.999Z</time>
      </trkpt>
      <trkpt lat="44.18328" lon="5.28784">
        <ele>1327.8</ele>
        <time>2026-05-14T13:02:08.999Z</time>
      </trkpt>
      <trkpt lat="44.18328" lon="5.28784">
        <ele>1327.7</ele>
        <time>2026-05-14T13:02:09.999Z</time>
      </trkpt>
      <trkpt lat="44.18328" lon="5.28784">
        <ele>1327.6</ele>
        <time>2026-05-14T13:02:10.999Z</time>
      </trkpt>
      <trkpt lat="44.18328" lon="5.28784">
        <ele>1327.4</ele>
        <time>2026-05-14T13:02:11.999Z</time>
      </trkpt>
      <trkpt lat="44.18328" lon="5.28784">
        <ele>1327.4</ele>
        <time>2026-05-14T13:02:12.999Z</time>
      </trkpt>
      <trkpt lat="44.18328" lon="5.28784">
        <ele>1327.4</ele>
        <time>2026-05-14T13:02:13.999Z</time>
      </trkpt>
      <trkpt lat="44.18328" lon="5.28784">
        <ele>1327.8</ele>
        <time>2026-05-14T13:02:14.999Z</time>
      </trkpt>
      <trkpt lat="44.18327" lon="5.28784">
        <ele>1327.9</ele>
        <time>2026-05-14T13:02:15.999Z</time>
      </trkpt>
      <trkpt lat="44.18327" lon="5.28784">
        <ele>1327.8</ele>
        <time>2026-05-14T13:02:16.999Z</time>
      </trkpt>
      <trkpt lat="44.18327" lon="5.28785">
        <ele>1327.8</ele>
        <time>2026-05-14T13:02:17.999Z</time>
      </trkpt>
      <trkpt lat="44.18327" lon="5.28785">
        <ele>1327.9</ele>
        <time>2026-05-14T13:02:18.999Z</time>
      </trkpt>
      <trkpt lat="44.18327" lon="5.28785">
        <ele>1328</ele>
        <time>2026-05-14T13:02:19.999Z</time>
      </trkpt>
      <trkpt lat="44.18327" lon="5.28785">
        <ele>1328</ele>
        <time>2026-05-14T13:02:20.999Z</time>
      </trkpt>
      <trkpt lat="44.18327" lon="5.28785">
        <ele>1328.4</ele>
        <time>2026-05-14T13:02:21.999Z</time>
      </trkpt>
      <trkpt lat="44.18327" lon="5.28785">
        <ele>1329.1</ele>
        <time>2026-05-14T13:02:22.999Z</time>
      </trkpt>
      <trkpt lat="44.18327" lon="5.28785">
        <ele>1329.8</ele>
        <time>2026-05-14T13:02:23.999Z</time>
      </trkpt>
      <trkpt lat="44.18327" lon="5.28785">
        <ele>1330.1</ele>
        <time>2026-05-14T13:02:24.999Z</time>
      </trkpt>
      <trkpt lat="44.18327" lon="5.28785">
        <ele>1330.3</ele>
        <time>2026-05-14T13:02:25.999Z</time>
      </trkpt>
      <trkpt lat="44.18327" lon="5.28785">
        <ele>1330.5</ele>
        <time>2026-05-14T13:02:26.999Z</time>
      </trkpt>
      <trkpt lat="44.18327" lon="5.28786">
        <ele>1330.8</ele>
        <time>2026-05-14T13:02:27.999Z</time>
      </trkpt>
      <trkpt lat="44.18326" lon="5.28786">
        <ele>1331.1</ele>
        <time>2026-05-14T13:02:28.999Z</time>
      </trkpt>
      <trkpt lat="44.18326" lon="5.28786">
        <ele>1331.5</ele>
        <time>2026-05-14T13:02:29.999Z</time>
      </trkpt>
      <trkpt lat="44.18326" lon="5.28786">
        <ele>1331.9</ele>
        <time>2026-05-14T13:02:30.999Z</time>
      </trkpt>
      <trkpt lat="44.18325" lon="5.28784">
        <ele>1332.1</ele>
        <time>2026-05-14T13:02:31.999Z</time>
      </trkpt>
      <trkpt lat="44.18324" lon="5.28784">
        <ele>1332.3</ele>
        <time>2026-05-14T13:02:32.999Z</time>
      </trkpt>
      <trkpt lat="44.18323" lon="5.28783">
        <ele>1332.6</ele>
        <time>2026-05-14T13:02:33.999Z</time>
      </trkpt>
      <trkpt lat="44.18322" lon="5.28784">
        <ele>1333.1</ele>
        <time>2026-05-14T13:02:34.999Z</time>
      </trkpt>
      <trkpt lat="44.18321" lon="5.28784">
        <ele>1333.1</ele>
        <time>2026-05-14T13:02:35.999Z</time>
      </trkpt>
      <trkpt lat="44.1832" lon="5.28782">
        <ele>1332.7</ele>
        <time>2026-05-14T13:02:36.999Z</time>
      </trkpt>
      <trkpt lat="44.18319" lon="5.28783">
        <ele>1332.8</ele>
        <time>2026-05-14T13:02:37.999Z</time>
      </trkpt>
      <trkpt lat="44.18318" lon="5.28783">
        <ele>1332.8</ele>
        <time>2026-05-14T13:02:38.999Z</time>
      </trkpt>
      <trkpt lat="44.18317" lon="5.28784">
        <ele>1333.1</ele>
        <time>2026-05-14T13:02:39.999Z</time>
      </trkpt>
      <trkpt lat="44.18316" lon="5.28785">
        <ele>1332.8</ele>
        <time>2026-05-14T13:02:40.999Z</time>
      </trkpt>
      <trkpt lat="44.18316" lon="5.28784">
        <ele>1332.4</ele>
        <time>2026-05-14T13:02:41.999Z</time>
      </trkpt>
      <trkpt lat="44.18315" lon="5.28784">
        <ele>1332.3</ele>
        <time>2026-05-14T13:02:42.999Z</time>
      </trkpt>
      <trkpt lat="44.18314" lon="5.28783">
        <ele>1331.9</ele>
        <time>2026-05-14T13:02:43.999Z</time>
      </trkpt>
      <trkpt lat="44.18313" lon="5.28784">
        <ele>1332.1</ele>
        <time>2026-05-14T13:02:44.999Z</time>
      </trkpt>
      <trkpt lat="44.18313" lon="5.28784">
        <ele>1331.9</ele>
        <time>2026-05-14T13:02:45.999Z</time>
      </trkpt>
      <trkpt lat="44.18312" lon="5.28784">
        <ele>1331.5</ele>
        <time>2026-05-14T13:02:46.999Z</time>
      </trkpt>
      <trkpt lat="44.18311" lon="5.28785">
        <ele>1331.2</ele>
        <time>2026-05-14T13:02:47.999Z</time>
      </trkpt>
      <trkpt lat="44.18311" lon="5.28787">
        <ele>1330.9</ele>
        <time>2026-05-14T13:02:48.999Z</time>
      </trkpt>
      <trkpt lat="44.1831" lon="5.28787">
        <ele>1330.7</ele>
        <time>2026-05-14T13:02:49.999Z</time>
      </trkpt>
      <trkpt lat="44.18309" lon="5.28788">
        <ele>1330.3</ele>
        <time>2026-05-14T13:02:50.999Z</time>
      </trkpt>
      <trkpt lat="44.18309" lon="5.28789">
        <ele>1329.6</ele>
        <time>2026-05-14T13:02:51.999Z</time>
      </trkpt>
      <trkpt lat="44.18309" lon="5.2879">
        <ele>1329.5</ele>
        <time>2026-05-14T13:02:52.999Z</time>
      </trkpt>
      <trkpt lat="44.18308" lon="5.2879">
        <ele>1329.4</ele>
        <time>2026-05-14T13:02:53.999Z</time>
      </trkpt>
      <trkpt lat="44.18307" lon="5.28791">
        <ele>1329.4</ele>
        <time>2026-05-14T13:02:54.999Z</time>
      </trkpt>
      <trkpt lat="44.18307" lon="5.28792">
        <ele>1329.6</ele>
        <time>2026-05-14T13:02:55.999Z</time>
      </trkpt>
      <trkpt lat="44.18307" lon="5.28793">
        <ele>1330</ele>
        <time>2026-05-14T13:02:56.999Z</time>
      </trkpt>
      <trkpt lat="44.18307" lon="5.28795">
        <ele>1330.6</ele>
        <time>2026-05-14T13:02:57.999Z</time>
      </trkpt>
      <trkpt lat="44.18306" lon="5.28797">
        <ele>1330.6</ele>
        <time>2026-05-14T13:02:58.999Z</time>
      </trkpt>
      <trkpt lat="44.18306" lon="5.28798">
        <ele>1330.7</ele>
        <time>2026-05-14T13:02:59.999Z</time>
      </trkpt>
      <trkpt lat="44.18305" lon="5.28798">
        <ele>1330.5</ele>
        <time>2026-05-14T13:03:00.999Z</time>
      </trkpt>
      <trkpt lat="44.18304" lon="5.28799">
        <ele>1330.1</ele>
        <time>2026-05-14T13:03:01.999Z</time>
      </trkpt>
      <trkpt lat="44.18304" lon="5.288">
        <ele>1330.1</ele>
        <time>2026-05-14T13:03:02.999Z</time>
      </trkpt>
      <trkpt lat="44.18303" lon="5.28802">
        <ele>1329.8</ele>
        <time>2026-05-14T13:03:03.999Z</time>
      </trkpt>
      <trkpt lat="44.18303" lon="5.28802">
        <ele>1329.5</ele>
        <time>2026-05-14T13:03:04.999Z</time>
      </trkpt>
      <trkpt lat="44.18302" lon="5.28803">
        <ele>1329.4</ele>
        <time>2026-05-14T13:03:05.999Z</time>
      </trkpt>
      <trkpt lat="44.18302" lon="5.28803">
        <ele>1328.7</ele>
        <time>2026-05-14T13:03:06.999Z</time>
      </trkpt>
      <trkpt lat="44.18302" lon="5.28802">
        <ele>1327.8</ele>
        <time>2026-05-14T13:03:07.999Z</time>
      </trkpt>
      <trkpt lat="44.18302" lon="5.28803">
        <ele>1328.3</ele>
        <time>2026-05-14T13:03:08.999Z</time>
      </trkpt>
      <trkpt lat="44.18303" lon="5.28803">
        <ele>1328.4</ele>
        <time>2026-05-14T13:03:09.999Z</time>
      </trkpt>
      <trkpt lat="44.18302" lon="5.28803">
        <ele>1328.3</ele>
        <time>2026-05-14T13:03:10.999Z</time>
      </trkpt>
      <trkpt lat="44.18302" lon="5.28803">
        <ele>1328.3</ele>
        <time>2026-05-14T13:03:11.999Z</time>
      </trkpt>
      <trkpt lat="44.18302" lon="5.28803">
        <ele>1328</ele>
        <time>2026-05-14T13:03:12.999Z</time>
      </trkpt>
      <trkpt lat="44.18302" lon="5.28803">
        <ele>1327.9</ele>
        <time>2026-05-14T13:03:13.999Z</time>
      </trkpt>
      <trkpt lat="44.18302" lon="5.28803">
        <ele>1327.7</ele>
        <time>2026-05-14T13:03:14.999Z</time>
      </trkpt>
      <trkpt lat="44.18302" lon="5.28804">
        <ele>1327.6</ele>
        <time>2026-05-14T13:03:15.999Z</time>
      </trkpt>
      <trkpt lat="44.18303" lon="5.28804">
        <ele>1327.5</ele>
        <time>2026-05-14T13:03:16.999Z</time>
      </trkpt>
      <trkpt lat="44.18304" lon="5.28806">
        <ele>1327.4</ele>
        <time>2026-05-14T13:03:17.999Z</time>
      </trkpt>
      <trkpt lat="44.18304" lon="5.28808">
        <ele>1327</ele>
        <time>2026-05-14T13:03:18.999Z</time>
      </trkpt>
      <trkpt lat="44.18303" lon="5.2881">
        <ele>1326.8</ele>
        <time>2026-05-14T13:03:19.999Z</time>
      </trkpt>
      <trkpt lat="44.18302" lon="5.28811">
        <ele>1326.9</ele>
        <time>2026-05-14T13:03:20.999Z</time>
      </trkpt>
      <trkpt lat="44.18302" lon="5.28811">
        <ele>1326.5</ele>
        <time>2026-05-14T13:03:21.999Z</time>
      </trkpt>
      <trkpt lat="44.18301" lon="5.28811">
        <ele>1326.6</ele>
        <time>2026-05-14T13:03:22.999Z</time>
      </trkpt>
      <trkpt lat="44.18301" lon="5.28811">
        <ele>1326.4</ele>
        <time>2026-05-14T13:03:23.999Z</time>
      </trkpt>
      <trkpt lat="44.18301" lon="5.28812">
        <ele>1326.7</ele>
        <time>2026-05-14T13:03:24.999Z</time>
      </trkpt>
      <trkpt lat="44.18301" lon="5.28813">
        <ele>1326.4</ele>
        <time>2026-05-14T13:03:25.999Z</time>
      </trkpt>
      <trkpt lat="44.18301" lon="5.28816">
        <ele>1326.4</ele>
        <time>2026-05-14T13:03:26.999Z</time>
      </trkpt>
      <trkpt lat="44.18301" lon="5.28817">
        <ele>1326.1</ele>
        <time>2026-05-14T13:03:27.999Z</time>
      </trkpt>
      <trkpt lat="44.183" lon="5.28819">
        <ele>1325.8</ele>
        <time>2026-05-14T13:03:28.999Z</time>
      </trkpt>
      <trkpt lat="44.183" lon="5.28822">
        <ele>1325.7</ele>
        <time>2026-05-14T13:03:29.999Z</time>
      </trkpt>
      <trkpt lat="44.183" lon="5.28824">
        <ele>1325.6</ele>
        <time>2026-05-14T13:03:30.999Z</time>
      </trkpt>
      <trkpt lat="44.18299" lon="5.28826">
        <ele>1325.2</ele>
        <time>2026-05-14T13:03:31.999Z</time>
      </trkpt>
      <trkpt lat="44.183" lon="5.28827">
        <ele>1325.1</ele>
        <time>2026-05-14T13:03:32.999Z</time>
      </trkpt>
      <trkpt lat="44.18299" lon="5.28829">
        <ele>1325.2</ele>
        <time>2026-05-14T13:03:33.999Z</time>
      </trkpt>
      <trkpt lat="44.18299" lon="5.2883">
        <ele>1325.3</ele>
        <time>2026-05-14T13:03:34.999Z</time>
      </trkpt>
      <trkpt lat="44.18299" lon="5.2883">
        <ele>1325.4</ele>
        <time>2026-05-14T13:03:35.999Z</time>
      </trkpt>
      <trkpt lat="44.183" lon="5.28831">
        <ele>1325.5</ele>
        <time>2026-05-14T13:03:36.999Z</time>
      </trkpt>
      <trkpt lat="44.183" lon="5.28831">
        <ele>1325.3</ele>
        <time>2026-05-14T13:03:37.999Z</time>
      </trkpt>
      <trkpt lat="44.183" lon="5.28832">
        <ele>1325.1</ele>
        <time>2026-05-14T13:03:38.999Z</time>
      </trkpt>
      <trkpt lat="44.183" lon="5.28832">
        <ele>1324.9</ele>
        <time>2026-05-14T13:03:39.999Z</time>
      </trkpt>
      <trkpt lat="44.183" lon="5.28832">
        <ele>1324.8</ele>
        <time>2026-05-14T13:03:40.999Z</time>
      </trkpt>
      <trkpt lat="44.183" lon="5.28833">
        <ele>1324.6</ele>
        <time>2026-05-14T13:03:41.999Z</time>
      </trkpt>
      <trkpt lat="44.18301" lon="5.28834">
        <ele>1324.9</ele>
        <time>2026-05-14T13:03:42.999Z</time>
      </trkpt>
      <trkpt lat="44.18301" lon="5.28836">
        <ele>1325</ele>
        <time>2026-05-14T13:03:43.999Z</time>
      </trkpt>
      <trkpt lat="44.18301" lon="5.28838">
        <ele>1325</ele>
        <time>2026-05-14T13:03:44.999Z</time>
      </trkpt>
      <trkpt lat="44.18301" lon="5.28839">
        <ele>1325.1</ele>
        <time>2026-05-14T13:03:45.999Z</time>
      </trkpt>
      <trkpt lat="44.18301" lon="5.28839">
        <ele>1325.3</ele>
        <time>2026-05-14T13:03:46.999Z</time>
      </trkpt>
      <trkpt lat="44.18302" lon="5.28839">
        <ele>1325.4</ele>
        <time>2026-05-14T13:03:47.999Z</time>
      </trkpt>
      <trkpt lat="44.18301" lon="5.2884">
        <ele>1325.5</ele>
        <time>2026-05-14T13:03:48.999Z</time>
      </trkpt>
      <trkpt lat="44.18301" lon="5.2884">
        <ele>1325.7</ele>
        <time>2026-05-14T13:03:49.999Z</time>
      </trkpt>
      <trkpt lat="44.18301" lon="5.2884">
        <ele>1325.9</ele>
        <time>2026-05-14T13:03:50.999Z</time>
      </trkpt>
      <trkpt lat="44.18301" lon="5.28841">
        <ele>1325.8</ele>
        <time>2026-05-14T13:03:51.999Z</time>
      </trkpt>
      <trkpt lat="44.18301" lon="5.28841">
        <ele>1325.7</ele>
        <time>2026-05-14T13:03:52.999Z</time>
      </trkpt>
      <trkpt lat="44.18301" lon="5.28842">
        <ele>1326</ele>
        <time>2026-05-14T13:03:53.999Z</time>
      </trkpt>
      <trkpt lat="44.18301" lon="5.28843">
        <ele>1326.1</ele>
        <time>2026-05-14T13:03:54.999Z</time>
      </trkpt>
      <trkpt lat="44.18301" lon="5.28843">
        <ele>1326.2</ele>
        <time>2026-05-14T13:03:55.999Z</time>
      </trkpt>
      <trkpt lat="44.18301" lon="5.28843">
        <ele>1326.2</ele>
        <time>2026-05-14T13:03:56.999Z</time>
      </trkpt>
      <trkpt lat="44.18301" lon="5.28843">
        <ele>1326.3</ele>
        <time>2026-05-14T13:03:57.999Z</time>
      </trkpt>
      <trkpt lat="44.18301" lon="5.28843">
        <ele>1326.7</ele>
        <time>2026-05-14T13:03:58.999Z</time>
      </trkpt>
      <trkpt lat="44.18301" lon="5.28844">
        <ele>1326.8</ele>
        <time>2026-05-14T13:03:59.999Z</time>
      </trkpt>
      <trkpt lat="44.18301" lon="5.28844">
        <ele>1327</ele>
        <time>2026-05-14T13:04:00.999Z</time>
      </trkpt>
      <trkpt lat="44.183" lon="5.28845">
        <ele>1327.1</ele>
        <time>2026-05-14T13:04:01.999Z</time>
      </trkpt>
      <trkpt lat="44.183" lon="5.28846">
        <ele>1327.2</ele>
        <time>2026-05-14T13:04:02.999Z</time>
      </trkpt>
      <trkpt lat="44.183" lon="5.28846">
        <ele>1327.4</ele>
        <time>2026-05-14T13:04:03.999Z</time>
      </trkpt>
      <trkpt lat="44.183" lon="5.28846">
        <ele>1327.5</ele>
        <time>2026-05-14T13:04:04.999Z</time>
      </trkpt>
      <trkpt lat="44.183" lon="5.28846">
        <ele>1328</ele>
        <time>2026-05-14T13:04:05.999Z</time>
      </trkpt>
      <trkpt lat="44.183" lon="5.28846">
        <ele>1328.2</ele>
        <time>2026-05-14T13:04:06.999Z</time>
      </trkpt>
      <trkpt lat="44.183" lon="5.28848">
        <ele>1328.3</ele>
        <time>2026-05-14T13:04:07.999Z</time>
      </trkpt>
      <trkpt lat="44.18301" lon="5.28849">
        <ele>1328.6</ele>
        <time>2026-05-14T13:04:08.999Z</time>
      </trkpt>
      <trkpt lat="44.18301" lon="5.2885">
        <ele>1328.8</ele>
        <time>2026-05-14T13:04:09.999Z</time>
      </trkpt>
      <trkpt lat="44.18301" lon="5.2885">
        <ele>1329</ele>
        <time>2026-05-14T13:04:10.999Z</time>
      </trkpt>
      <trkpt lat="44.18301" lon="5.2885">
        <ele>1329.2</ele>
        <time>2026-05-14T13:04:11.999Z</time>
      </trkpt>
      <trkpt lat="44.18301" lon="5.2885">
        <ele>1329.5</ele>
        <time>2026-05-14T13:04:12.999Z</time>
      </trkpt>
      <trkpt lat="44.18301" lon="5.2885">
        <ele>1329.8</ele>
        <time>2026-05-14T13:04:13.999Z</time>
      </trkpt>
      <trkpt lat="44.18301" lon="5.2885">
        <ele>1330</ele>
        <time>2026-05-14T13:04:14.999Z</time>
      </trkpt>
      <trkpt lat="44.18301" lon="5.2885">
        <ele>1330.2</ele>
        <time>2026-05-14T13:04:15.999Z</time>
      </trkpt>
      <trkpt lat="44.18301" lon="5.2885">
        <ele>1330.5</ele>
        <time>2026-05-14T13:04:16.999Z</time>
      </trkpt>
      <trkpt lat="44.18301" lon="5.2885">
        <ele>1330.7</ele>
        <time>2026-05-14T13:04:17.999Z</time>
      </trkpt>
      <trkpt lat="44.18302" lon="5.2885">
        <ele>1330.7</ele>
        <time>2026-05-14T13:04:18.999Z</time>
      </trkpt>
      <trkpt lat="44.18301" lon="5.2885">
        <ele>1330.6</ele>
        <time>2026-05-14T13:04:19.999Z</time>
      </trkpt>
      <trkpt lat="44.18301" lon="5.2885">
        <ele>1330.5</ele>
        <time>2026-05-14T13:04:20.999Z</time>
      </trkpt>
      <trkpt lat="44.18301" lon="5.2885">
        <ele>1330.7</ele>
        <time>2026-05-14T13:04:21.999Z</time>
      </trkpt>
      <trkpt lat="44.18301" lon="5.2885">
        <ele>1331.1</ele>
        <time>2026-05-14T13:04:23.000Z</time>
      </trkpt>
      <trkpt lat="44.18302" lon="5.2885">
        <ele>1331.1</ele>
        <time>2026-05-14T13:04:24.000Z</time>
      </trkpt>
      <trkpt lat="44.18302" lon="5.2885">
        <ele>1331.2</ele>
        <time>2026-05-14T13:04:25.000Z</time>
      </trkpt>
      <trkpt lat="44.18301" lon="5.28851">
        <ele>1331.1</ele>
        <time>2026-05-14T13:04:26.000Z</time>
      </trkpt>
      <trkpt lat="44.18302" lon="5.2885">
        <ele>1331.2</ele>
        <time>2026-05-14T13:04:27.000Z</time>
      </trkpt>
      <trkpt lat="44.18302" lon="5.28849">
        <ele>1331.3</ele>
        <time>2026-05-14T13:04:28.000Z</time>
      </trkpt>
      <trkpt lat="44.18302" lon="5.28849">
        <ele>1331.1</ele>
        <time>2026-05-14T13:04:29.000Z</time>
      </trkpt>
      <trkpt lat="44.18302" lon="5.28849">
        <ele>1331.1</ele>
        <time>2026-05-14T13:04:30.000Z</time>
      </trkpt>
      <trkpt lat="44.18302" lon="5.28849">
        <ele>1331</ele>
        <time>2026-05-14T13:04:31.000Z</time>
      </trkpt>
      <trkpt lat="44.18302" lon="5.28849">
        <ele>1331</ele>
        <time>2026-05-14T13:04:32.000Z</time>
      </trkpt>
      <trkpt lat="44.18302" lon="5.28849">
        <ele>1330.9</ele>
        <time>2026-05-14T13:04:33.000Z</time>
      </trkpt>
      <trkpt lat="44.18303" lon="5.28849">
        <ele>1331.1</ele>
        <time>2026-05-14T13:04:34.000Z</time>
      </trkpt>
      <trkpt lat="44.18304" lon="5.28851">
        <ele>1331.4</ele>
        <time>2026-05-14T13:04:35.000Z</time>
      </trkpt>
      <trkpt lat="44.18305" lon="5.28852">
        <ele>1331.3</ele>
        <time>2026-05-14T13:04:36.000Z</time>
      </trkpt>
      <trkpt lat="44.18305" lon="5.28853">
        <ele>1331.1</ele>
        <time>2026-05-14T13:04:37.000Z</time>
      </trkpt>
      <trkpt lat="44.18306" lon="5.28854">
        <ele>1331.1</ele>
        <time>2026-05-14T13:04:38.000Z</time>
      </trkpt>
      <trkpt lat="44.18306" lon="5.28855">
        <ele>1330.8</ele>
        <time>2026-05-14T13:04:39.000Z</time>
      </trkpt>
      <trkpt lat="44.18307" lon="5.28855">
        <ele>1330.6</ele>
        <time>2026-05-14T13:04:40.000Z</time>
      </trkpt>
      <trkpt lat="44.18308" lon="5.28856">
        <ele>1330.4</ele>
        <time>2026-05-14T13:04:41.000Z</time>
      </trkpt>
      <trkpt lat="44.18309" lon="5.28856">
        <ele>1330</ele>
        <time>2026-05-14T13:04:42.000Z</time>
      </trkpt>
      <trkpt lat="44.18309" lon="5.28857">
        <ele>1329.9</ele>
        <time>2026-05-14T13:04:43.000Z</time>
      </trkpt>
      <trkpt lat="44.1831" lon="5.28858">
        <ele>1329.6</ele>
        <time>2026-05-14T13:04:44.000Z</time>
      </trkpt>
      <trkpt lat="44.1831" lon="5.28859">
        <ele>1328.9</ele>
        <time>2026-05-14T13:04:45.000Z</time>
      </trkpt>
      <trkpt lat="44.1831" lon="5.28859">
        <ele>1329.3</ele>
        <time>2026-05-14T13:04:46.000Z</time>
      </trkpt>
      <trkpt lat="44.18311" lon="5.2886">
        <ele>1329.1</ele>
        <time>2026-05-14T13:04:47.000Z</time>
      </trkpt>
      <trkpt lat="44.18312" lon="5.2886">
        <ele>1329</ele>
        <time>2026-05-14T13:04:48.000Z</time>
      </trkpt>
      <trkpt lat="44.18312" lon="5.28861">
        <ele>1328.8</ele>
        <time>2026-05-14T13:04:49.000Z</time>
      </trkpt>
      <trkpt lat="44.18313" lon="5.28862">
        <ele>1328.8</ele>
        <time>2026-05-14T13:04:50.000Z</time>
      </trkpt>
      <trkpt lat="44.18313" lon="5.28863">
        <ele>1328.7</ele>
        <time>2026-05-14T13:04:51.000Z</time>
      </trkpt>
      <trkpt lat="44.18315" lon="5.28864">
        <ele>1328.3</ele>
        <time>2026-05-14T13:04:52.000Z</time>
      </trkpt>
      <trkpt lat="44.18316" lon="5.28865">
        <ele>1328.1</ele>
        <time>2026-05-14T13:04:53.000Z</time>
      </trkpt>
      <trkpt lat="44.18318" lon="5.28866">
        <ele>1328</ele>
        <time>2026-05-14T13:04:54.000Z</time>
      </trkpt>
      <trkpt lat="44.18319" lon="5.28867">
        <ele>1328</ele>
        <time>2026-05-14T13:04:55.000Z</time>
      </trkpt>
      <trkpt lat="44.1832" lon="5.28867">
        <ele>1327.4</ele>
        <time>2026-05-14T13:04:56.000Z</time>
      </trkpt>
      <trkpt lat="44.1832" lon="5.28867">
        <ele>1327.2</ele>
        <time>2026-05-14T13:04:57.000Z</time>
      </trkpt>
      <trkpt lat="44.1832" lon="5.28867">
        <ele>1327.1</ele>
        <time>2026-05-14T13:04:58.000Z</time>
      </trkpt>
      <trkpt lat="44.1832" lon="5.28867">
        <ele>1326.4</ele>
        <time>2026-05-14T13:04:59.000Z</time>
      </trkpt>
      <trkpt lat="44.1832" lon="5.28868">
        <ele>1326.6</ele>
        <time>2026-05-14T13:05:00.000Z</time>
      </trkpt>
      <trkpt lat="44.1832" lon="5.28869">
        <ele>1326.5</ele>
        <time>2026-05-14T13:05:01.000Z</time>
      </trkpt>
      <trkpt lat="44.1832" lon="5.28869">
        <ele>1326.3</ele>
        <time>2026-05-14T13:05:02.000Z</time>
      </trkpt>
      <trkpt lat="44.1832" lon="5.28869">
        <ele>1326</ele>
        <time>2026-05-14T13:05:03.000Z</time>
      </trkpt>
      <trkpt lat="44.1832" lon="5.28869">
        <ele>1325.7</ele>
        <time>2026-05-14T13:05:04.000Z</time>
      </trkpt>
      <trkpt lat="44.1832" lon="5.28869">
        <ele>1325.3</ele>
        <time>2026-05-14T13:05:05.000Z</time>
      </trkpt>
      <trkpt lat="44.1832" lon="5.28869">
        <ele>1325</ele>
        <time>2026-05-14T13:05:06.000Z</time>
      </trkpt>
      <trkpt lat="44.1832" lon="5.28869">
        <ele>1324.7</ele>
        <time>2026-05-14T13:05:07.000Z</time>
      </trkpt>
      <trkpt lat="44.1832" lon="5.2887">
        <ele>1324.5</ele>
        <time>2026-05-14T13:05:08.000Z</time>
      </trkpt>
      <trkpt lat="44.1832" lon="5.2887">
        <ele>1324.2</ele>
        <time>2026-05-14T13:05:09.000Z</time>
      </trkpt>
      <trkpt lat="44.1832" lon="5.28872">
        <ele>1323.8</ele>
        <time>2026-05-14T13:05:10.000Z</time>
      </trkpt>
      <trkpt lat="44.18321" lon="5.28874">
        <ele>1323.9</ele>
        <time>2026-05-14T13:05:11.000Z</time>
      </trkpt>
      <trkpt lat="44.18322" lon="5.28875">
        <ele>1323.9</ele>
        <time>2026-05-14T13:05:12.000Z</time>
      </trkpt>
      <trkpt lat="44.18322" lon="5.28876">
        <ele>1323.8</ele>
        <time>2026-05-14T13:05:13.000Z</time>
      </trkpt>
      <trkpt lat="44.18323" lon="5.28878">
        <ele>1324</ele>
        <time>2026-05-14T13:05:14.000Z</time>
      </trkpt>
      <trkpt lat="44.18324" lon="5.28878">
        <ele>1323.7</ele>
        <time>2026-05-14T13:05:15.000Z</time>
      </trkpt>
      <trkpt lat="44.18325" lon="5.2888">
        <ele>1323.1</ele>
        <time>2026-05-14T13:05:16.000Z</time>
      </trkpt>
      <trkpt lat="44.18325" lon="5.28881">
        <ele>1322.7</ele>
        <time>2026-05-14T13:05:17.000Z</time>
      </trkpt>
      <trkpt lat="44.18325" lon="5.28882">
        <ele>1321.8</ele>
        <time>2026-05-14T13:05:18.000Z</time>
      </trkpt>
      <trkpt lat="44.18325" lon="5.28883">
        <ele>1321.3</ele>
        <time>2026-05-14T13:05:19.000Z</time>
      </trkpt>
      <trkpt lat="44.18327" lon="5.28884">
        <ele>1320.9</ele>
        <time>2026-05-14T13:05:20.000Z</time>
      </trkpt>
      <trkpt lat="44.18327" lon="5.28886">
        <ele>1320.6</ele>
        <time>2026-05-14T13:05:21.000Z</time>
      </trkpt>
      <trkpt lat="44.18329" lon="5.28887">
        <ele>1320.2</ele>
        <time>2026-05-14T13:05:22.000Z</time>
      </trkpt>
      <trkpt lat="44.1833" lon="5.28889">
        <ele>1320.5</ele>
        <time>2026-05-14T13:05:23.000Z</time>
      </trkpt>
      <trkpt lat="44.1833" lon="5.28889">
        <ele>1320.3</ele>
        <time>2026-05-14T13:05:24.000Z</time>
      </trkpt>
      <trkpt lat="44.18331" lon="5.28891">
        <ele>1319.7</ele>
        <time>2026-05-14T13:05:25.000Z</time>
      </trkpt>
      <trkpt lat="44.18331" lon="5.28893">
        <ele>1319.6</ele>
        <time>2026-05-14T13:05:26.000Z</time>
      </trkpt>
      <trkpt lat="44.18332" lon="5.28894">
        <ele>1319.1</ele>
        <time>2026-05-14T13:05:27.000Z</time>
      </trkpt>
      <trkpt lat="44.18333" lon="5.28895">
        <ele>1318.8</ele>
        <time>2026-05-14T13:05:28.000Z</time>
      </trkpt>
      <trkpt lat="44.18333" lon="5.28896">
        <ele>1318.5</ele>
        <time>2026-05-14T13:05:29.000Z</time>
      </trkpt>
      <trkpt lat="44.18334" lon="5.28896">
        <ele>1318.5</ele>
        <time>2026-05-14T13:05:30.000Z</time>
      </trkpt>
      <trkpt lat="44.18334" lon="5.28897">
        <ele>1318.4</ele>
        <time>2026-05-14T13:05:31.000Z</time>
      </trkpt>
      <trkpt lat="44.18335" lon="5.28899">
        <ele>1317.8</ele>
        <time>2026-05-14T13:05:32.000Z</time>
      </trkpt>
      <trkpt lat="44.18336" lon="5.28901">
        <ele>1317.6</ele>
        <time>2026-05-14T13:05:33.000Z</time>
      </trkpt>
      <trkpt lat="44.18338" lon="5.28903">
        <ele>1317.2</ele>
        <time>2026-05-14T13:05:34.000Z</time>
      </trkpt>
      <trkpt lat="44.18339" lon="5.28905">
        <ele>1317.1</ele>
        <time>2026-05-14T13:05:35.000Z</time>
      </trkpt>
      <trkpt lat="44.1834" lon="5.28907">
        <ele>1317.4</ele>
        <time>2026-05-14T13:05:36.000Z</time>
      </trkpt>
      <trkpt lat="44.18341" lon="5.28907">
        <ele>1317.6</ele>
        <time>2026-05-14T13:05:37.000Z</time>
      </trkpt>
      <trkpt lat="44.18342" lon="5.28909">
        <ele>1317.1</ele>
        <time>2026-05-14T13:05:38.000Z</time>
      </trkpt>
      <trkpt lat="44.18343" lon="5.2891">
        <ele>1316</ele>
        <time>2026-05-14T13:05:39.000Z</time>
      </trkpt>
      <trkpt lat="44.18343" lon="5.2891">
        <ele>1315.5</ele>
        <time>2026-05-14T13:05:40.000Z</time>
      </trkpt>
      <trkpt lat="44.18345" lon="5.2891">
        <ele>1315.5</ele>
        <time>2026-05-14T13:05:41.000Z</time>
      </trkpt>
      <trkpt lat="44.18346" lon="5.2891">
        <ele>1315.9</ele>
        <time>2026-05-14T13:05:42.000Z</time>
      </trkpt>
      <trkpt lat="44.18347" lon="5.2891">
        <ele>1315.9</ele>
        <time>2026-05-14T13:05:43.000Z</time>
      </trkpt>
      <trkpt lat="44.18348" lon="5.28911">
        <ele>1315.9</ele>
        <time>2026-05-14T13:05:44.000Z</time>
      </trkpt>
      <trkpt lat="44.18349" lon="5.28912">
        <ele>1315.5</ele>
        <time>2026-05-14T13:05:45.000Z</time>
      </trkpt>
      <trkpt lat="44.1835" lon="5.28914">
        <ele>1314.7</ele>
        <time>2026-05-14T13:05:46.000Z</time>
      </trkpt>
      <trkpt lat="44.18351" lon="5.28915">
        <ele>1314.5</ele>
        <time>2026-05-14T13:05:47.000Z</time>
      </trkpt>
      <trkpt lat="44.18352" lon="5.28917">
        <ele>1313.9</ele>
        <time>2026-05-14T13:05:48.000Z</time>
      </trkpt>
      <trkpt lat="44.18353" lon="5.28918">
        <ele>1313</ele>
        <time>2026-05-14T13:05:49.000Z</time>
      </trkpt>
      <trkpt lat="44.18353" lon="5.28919">
        <ele>1312.8</ele>
        <time>2026-05-14T13:05:50.000Z</time>
      </trkpt>
      <trkpt lat="44.18354" lon="5.2892">
        <ele>1312.3</ele>
        <time>2026-05-14T13:05:51.000Z</time>
      </trkpt>
      <trkpt lat="44.18354" lon="5.28921">
        <ele>1312.1</ele>
        <time>2026-05-14T13:05:52.000Z</time>
      </trkpt>
      <trkpt lat="44.18355" lon="5.28923">
        <ele>1312</ele>
        <time>2026-05-14T13:05:53.000Z</time>
      </trkpt>
      <trkpt lat="44.18356" lon="5.28923">
        <ele>1312.3</ele>
        <time>2026-05-14T13:05:54.000Z</time>
      </trkpt>
      <trkpt lat="44.18358" lon="5.28923">
        <ele>1312.4</ele>
        <time>2026-05-14T13:05:55.000Z</time>
      </trkpt>
      <trkpt lat="44.18359" lon="5.28923">
        <ele>1312.2</ele>
        <time>2026-05-14T13:05:56.000Z</time>
      </trkpt>
      <trkpt lat="44.1836" lon="5.28923">
        <ele>1312.1</ele>
        <time>2026-05-14T13:05:57.000Z</time>
      </trkpt>
      <trkpt lat="44.18361" lon="5.28923">
        <ele>1311.9</ele>
        <time>2026-05-14T13:05:58.000Z</time>
      </trkpt>
      <trkpt lat="44.18361" lon="5.28923">
        <ele>1311.3</ele>
        <time>2026-05-14T13:05:59.000Z</time>
      </trkpt>
      <trkpt lat="44.18362" lon="5.28924">
        <ele>1310.7</ele>
        <time>2026-05-14T13:06:00.000Z</time>
      </trkpt>
      <trkpt lat="44.18363" lon="5.28924">
        <ele>1310.3</ele>
        <time>2026-05-14T13:06:01.000Z</time>
      </trkpt>
      <trkpt lat="44.18363" lon="5.28923">
        <ele>1310.9</ele>
        <time>2026-05-14T13:06:02.000Z</time>
      </trkpt>
      <trkpt lat="44.18364" lon="5.28923">
        <ele>1310.6</ele>
        <time>2026-05-14T13:06:03.000Z</time>
      </trkpt>
      <trkpt lat="44.18364" lon="5.28923">
        <ele>1310.4</ele>
        <time>2026-05-14T13:06:04.000Z</time>
      </trkpt>
      <trkpt lat="44.18364" lon="5.28923">
        <ele>1310.2</ele>
        <time>2026-05-14T13:06:05.000Z</time>
      </trkpt>
      <trkpt lat="44.18365" lon="5.28923">
        <ele>1310.1</ele>
        <time>2026-05-14T13:06:06.000Z</time>
      </trkpt>
      <trkpt lat="44.18366" lon="5.28925">
        <ele>1309.9</ele>
        <time>2026-05-14T13:06:07.000Z</time>
      </trkpt>
      <trkpt lat="44.18367" lon="5.28925">
        <ele>1309.6</ele>
        <time>2026-05-14T13:06:08.000Z</time>
      </trkpt>
      <trkpt lat="44.18367" lon="5.28925">
        <ele>1309.4</ele>
        <time>2026-05-14T13:06:09.000Z</time>
      </trkpt>
      <trkpt lat="44.18367" lon="5.28925">
        <ele>1309.2</ele>
        <time>2026-05-14T13:06:10.000Z</time>
      </trkpt>
      <trkpt lat="44.18367" lon="5.28925">
        <ele>1308.7</ele>
        <time>2026-05-14T13:06:11.000Z</time>
      </trkpt>
      <trkpt lat="44.18367" lon="5.28926">
        <ele>1308.7</ele>
        <time>2026-05-14T13:06:12.000Z</time>
      </trkpt>
      <trkpt lat="44.18367" lon="5.28926">
        <ele>1308.7</ele>
        <time>2026-05-14T13:06:13.000Z</time>
      </trkpt>
      <trkpt lat="44.18368" lon="5.28927">
        <ele>1308.7</ele>
        <time>2026-05-14T13:06:14.000Z</time>
      </trkpt>
      <trkpt lat="44.1837" lon="5.28928">
        <ele>1308.7</ele>
        <time>2026-05-14T13:06:15.000Z</time>
      </trkpt>
      <trkpt lat="44.18371" lon="5.28929">
        <ele>1309</ele>
        <time>2026-05-14T13:06:16.000Z</time>
      </trkpt>
      <trkpt lat="44.18372" lon="5.28929">
        <ele>1309.2</ele>
        <time>2026-05-14T13:06:17.000Z</time>
      </trkpt>
      <trkpt lat="44.18373" lon="5.2893">
        <ele>1309.2</ele>
        <time>2026-05-14T13:06:18.000Z</time>
      </trkpt>
      <trkpt lat="44.18375" lon="5.28931">
        <ele>1309</ele>
        <time>2026-05-14T13:06:19.000Z</time>
      </trkpt>
      <trkpt lat="44.18377" lon="5.28931">
        <ele>1308.6</ele>
        <time>2026-05-14T13:06:20.000Z</time>
      </trkpt>
      <trkpt lat="44.18378" lon="5.28932">
        <ele>1308.2</ele>
        <time>2026-05-14T13:06:21.000Z</time>
      </trkpt>
      <trkpt lat="44.18379" lon="5.28932">
        <ele>1308.1</ele>
        <time>2026-05-14T13:06:22.000Z</time>
      </trkpt>
      <trkpt lat="44.18381" lon="5.28934">
        <ele>1308.1</ele>
        <time>2026-05-14T13:06:23.000Z</time>
      </trkpt>
      <trkpt lat="44.18383" lon="5.28935">
        <ele>1308.1</ele>
        <time>2026-05-14T13:06:24.000Z</time>
      </trkpt>
      <trkpt lat="44.18384" lon="5.28936">
        <ele>1308</ele>
        <time>2026-05-14T13:06:25.000Z</time>
      </trkpt>
      <trkpt lat="44.18385" lon="5.28938">
        <ele>1307.6</ele>
        <time>2026-05-14T13:06:26.000Z</time>
      </trkpt>
      <trkpt lat="44.18386" lon="5.28938">
        <ele>1307.1</ele>
        <time>2026-05-14T13:06:27.000Z</time>
      </trkpt>
      <trkpt lat="44.18387" lon="5.28938">
        <ele>1306.7</ele>
        <time>2026-05-14T13:06:28.000Z</time>
      </trkpt>
      <trkpt lat="44.18388" lon="5.28939">
        <ele>1306.6</ele>
        <time>2026-05-14T13:06:29.000Z</time>
      </trkpt>
      <trkpt lat="44.18389" lon="5.28939">
        <ele>1306.2</ele>
        <time>2026-05-14T13:06:30.000Z</time>
      </trkpt>
      <trkpt lat="44.1839" lon="5.2894">
        <ele>1306.5</ele>
        <time>2026-05-14T13:06:31.000Z</time>
      </trkpt>
      <trkpt lat="44.18391" lon="5.28941">
        <ele>1306.7</ele>
        <time>2026-05-14T13:06:32.000Z</time>
      </trkpt>
      <trkpt lat="44.18393" lon="5.28942">
        <ele>1306.3</ele>
        <time>2026-05-14T13:06:33.000Z</time>
      </trkpt>
      <trkpt lat="44.18393" lon="5.28942">
        <ele>1306.1</ele>
        <time>2026-05-14T13:06:34.000Z</time>
      </trkpt>
      <trkpt lat="44.18394" lon="5.28943">
        <ele>1305.8</ele>
        <time>2026-05-14T13:06:35.000Z</time>
      </trkpt>
      <trkpt lat="44.18394" lon="5.28944">
        <ele>1305.6</ele>
        <time>2026-05-14T13:06:36.000Z</time>
      </trkpt>
      <trkpt lat="44.18394" lon="5.28944">
        <ele>1305.7</ele>
        <time>2026-05-14T13:06:37.000Z</time>
      </trkpt>
      <trkpt lat="44.18394" lon="5.28944">
        <ele>1305.7</ele>
        <time>2026-05-14T13:06:38.000Z</time>
      </trkpt>
      <trkpt lat="44.18394" lon="5.28945">
        <ele>1305.8</ele>
        <time>2026-05-14T13:06:39.000Z</time>
      </trkpt>
      <trkpt lat="44.18395" lon="5.28946">
        <ele>1305.8</ele>
        <time>2026-05-14T13:06:40.000Z</time>
      </trkpt>
      <trkpt lat="44.18397" lon="5.28948">
        <ele>1305.7</ele>
        <time>2026-05-14T13:06:41.000Z</time>
      </trkpt>
      <trkpt lat="44.18398" lon="5.28951">
        <ele>1305.6</ele>
        <time>2026-05-14T13:06:42.000Z</time>
      </trkpt>
      <trkpt lat="44.18399" lon="5.28953">
        <ele>1305.1</ele>
        <time>2026-05-14T13:06:43.000Z</time>
      </trkpt>
      <trkpt lat="44.184" lon="5.28954">
        <ele>1304.9</ele>
        <time>2026-05-14T13:06:44.000Z</time>
      </trkpt>
      <trkpt lat="44.18401" lon="5.28955">
        <ele>1304.5</ele>
        <time>2026-05-14T13:06:45.000Z</time>
      </trkpt>
      <trkpt lat="44.18402" lon="5.28956">
        <ele>1304.1</ele>
        <time>2026-05-14T13:06:46.000Z</time>
      </trkpt>
      <trkpt lat="44.18403" lon="5.28959">
        <ele>1303.9</ele>
        <time>2026-05-14T13:06:47.000Z</time>
      </trkpt>
      <trkpt lat="44.18403" lon="5.2896">
        <ele>1303.6</ele>
        <time>2026-05-14T13:06:48.000Z</time>
      </trkpt>
      <trkpt lat="44.18404" lon="5.28962">
        <ele>1303.5</ele>
        <time>2026-05-14T13:06:49.000Z</time>
      </trkpt>
      <trkpt lat="44.18405" lon="5.28963">
        <ele>1303.9</ele>
        <time>2026-05-14T13:06:50.000Z</time>
      </trkpt>
      <trkpt lat="44.18406" lon="5.28963">
        <ele>1303.9</ele>
        <time>2026-05-14T13:06:51.000Z</time>
      </trkpt>
      <trkpt lat="44.18407" lon="5.28964">
        <ele>1304.1</ele>
        <time>2026-05-14T13:06:52.000Z</time>
      </trkpt>
      <trkpt lat="44.18408" lon="5.28965">
        <ele>1304.2</ele>
        <time>2026-05-14T13:06:53.000Z</time>
      </trkpt>
      <trkpt lat="44.18408" lon="5.28966">
        <ele>1304.1</ele>
        <time>2026-05-14T13:06:54.000Z</time>
      </trkpt>
      <trkpt lat="44.18409" lon="5.28967">
        <ele>1304.2</ele>
        <time>2026-05-14T13:06:55.000Z</time>
      </trkpt>
      <trkpt lat="44.1841" lon="5.28967">
        <ele>1304.3</ele>
        <time>2026-05-14T13:06:56.000Z</time>
      </trkpt>
      <trkpt lat="44.1841" lon="5.28968">
        <ele>1304.2</ele>
        <time>2026-05-14T13:06:57.000Z</time>
      </trkpt>
      <trkpt lat="44.1841" lon="5.28969">
        <ele>1304</ele>
        <time>2026-05-14T13:06:59.000Z</time>
      </trkpt>
      <trkpt lat="44.18411" lon="5.2897">
        <ele>1304.5</ele>
        <time>2026-05-14T13:07:00.000Z</time>
      </trkpt>
      <trkpt lat="44.18411" lon="5.2897">
        <ele>1304.7</ele>
        <time>2026-05-14T13:07:01.000Z</time>
      </trkpt>
      <trkpt lat="44.18411" lon="5.2897">
        <ele>1304.6</ele>
        <time>2026-05-14T13:07:02.000Z</time>
      </trkpt>
      <trkpt lat="44.18412" lon="5.28971">
        <ele>1304.4</ele>
        <time>2026-05-14T13:07:03.000Z</time>
      </trkpt>
      <trkpt lat="44.18413" lon="5.28971">
        <ele>1304.8</ele>
        <time>2026-05-14T13:07:04.000Z</time>
      </trkpt>
      <trkpt lat="44.18414" lon="5.28971">
        <ele>1304.4</ele>
        <time>2026-05-14T13:07:05.000Z</time>
      </trkpt>
      <trkpt lat="44.18415" lon="5.28972">
        <ele>1304</ele>
        <time>2026-05-14T13:07:06.000Z</time>
      </trkpt>
      <trkpt lat="44.18416" lon="5.28974">
        <ele>1303.8</ele>
        <time>2026-05-14T13:07:07.000Z</time>
      </trkpt>
      <trkpt lat="44.18418" lon="5.28976">
        <ele>1302.9</ele>
        <time>2026-05-14T13:07:08.000Z</time>
      </trkpt>
      <trkpt lat="44.18419" lon="5.28977">
        <ele>1302.2</ele>
        <time>2026-05-14T13:07:09.000Z</time>
      </trkpt>
      <trkpt lat="44.18419" lon="5.28979">
        <ele>1302</ele>
        <time>2026-05-14T13:07:10.000Z</time>
      </trkpt>
      <trkpt lat="44.18421" lon="5.28981">
        <ele>1301.4</ele>
        <time>2026-05-14T13:07:11.000Z</time>
      </trkpt>
      <trkpt lat="44.18422" lon="5.28983">
        <ele>1301.1</ele>
        <time>2026-05-14T13:07:12.000Z</time>
      </trkpt>
      <trkpt lat="44.18422" lon="5.28983">
        <ele>1300.9</ele>
        <time>2026-05-14T13:07:13.000Z</time>
      </trkpt>
      <trkpt lat="44.18423" lon="5.28984">
        <ele>1301</ele>
        <time>2026-05-14T13:07:14.000Z</time>
      </trkpt>
      <trkpt lat="44.18424" lon="5.28984">
        <ele>1301.1</ele>
        <time>2026-05-14T13:07:15.000Z</time>
      </trkpt>
      <trkpt lat="44.18424" lon="5.28984">
        <ele>1300.7</ele>
        <time>2026-05-14T13:07:16.000Z</time>
      </trkpt>
      <trkpt lat="44.18425" lon="5.28984">
        <ele>1300.4</ele>
        <time>2026-05-14T13:07:17.000Z</time>
      </trkpt>
      <trkpt lat="44.18427" lon="5.28985">
        <ele>1300.6</ele>
        <time>2026-05-14T13:07:18.000Z</time>
      </trkpt>
      <trkpt lat="44.18427" lon="5.28986">
        <ele>1299.8</ele>
        <time>2026-05-14T13:07:19.000Z</time>
      </trkpt>
      <trkpt lat="44.18429" lon="5.28987">
        <ele>1299.7</ele>
        <time>2026-05-14T13:07:20.000Z</time>
      </trkpt>
      <trkpt lat="44.1843" lon="5.28988">
        <ele>1299.4</ele>
        <time>2026-05-14T13:07:21.000Z</time>
      </trkpt>
      <trkpt lat="44.18431" lon="5.28988">
        <ele>1298.8</ele>
        <time>2026-05-14T13:07:22.000Z</time>
      </trkpt>
      <trkpt lat="44.18431" lon="5.28989">
        <ele>1298</ele>
        <time>2026-05-14T13:07:23.000Z</time>
      </trkpt>
      <trkpt lat="44.18432" lon="5.2899">
        <ele>1298.2</ele>
        <time>2026-05-14T13:07:24.000Z</time>
      </trkpt>
      <trkpt lat="44.18433" lon="5.28991">
        <ele>1298.4</ele>
        <time>2026-05-14T13:07:25.000Z</time>
      </trkpt>
      <trkpt lat="44.18434" lon="5.28993">
        <ele>1297.9</ele>
        <time>2026-05-14T13:07:26.000Z</time>
      </trkpt>
      <trkpt lat="44.18435" lon="5.28995">
        <ele>1297.4</ele>
        <time>2026-05-14T13:07:27.000Z</time>
      </trkpt>
      <trkpt lat="44.18436" lon="5.28997">
        <ele>1297.2</ele>
        <time>2026-05-14T13:07:28.000Z</time>
      </trkpt>
      <trkpt lat="44.18436" lon="5.28998">
        <ele>1297.2</ele>
        <time>2026-05-14T13:07:29.000Z</time>
      </trkpt>
      <trkpt lat="44.18437" lon="5.28999">
        <ele>1297.2</ele>
        <time>2026-05-14T13:07:30.000Z</time>
      </trkpt>
      <trkpt lat="44.18437" lon="5.29001">
        <ele>1297.5</ele>
        <time>2026-05-14T13:07:31.000Z</time>
      </trkpt>
      <trkpt lat="44.18438" lon="5.29002">
        <ele>1297.7</ele>
        <time>2026-05-14T13:07:32.000Z</time>
      </trkpt>
      <trkpt lat="44.18439" lon="5.29004">
        <ele>1297.9</ele>
        <time>2026-05-14T13:07:33.000Z</time>
      </trkpt>
      <trkpt lat="44.1844" lon="5.29005">
        <ele>1298.2</ele>
        <time>2026-05-14T13:07:34.000Z</time>
      </trkpt>
      <trkpt lat="44.18441" lon="5.29007">
        <ele>1297.9</ele>
        <time>2026-05-14T13:07:35.000Z</time>
      </trkpt>
      <trkpt lat="44.18442" lon="5.29008">
        <ele>1297.5</ele>
        <time>2026-05-14T13:07:36.000Z</time>
      </trkpt>
      <trkpt lat="44.18443" lon="5.29009">
        <ele>1297.5</ele>
        <time>2026-05-14T13:07:37.000Z</time>
      </trkpt>
      <trkpt lat="44.18444" lon="5.29009">
        <ele>1298.1</ele>
        <time>2026-05-14T13:07:38.000Z</time>
      </trkpt>
      <trkpt lat="44.18445" lon="5.29009">
        <ele>1298.1</ele>
        <time>2026-05-14T13:07:39.000Z</time>
      </trkpt>
      <trkpt lat="44.18446" lon="5.29009">
        <ele>1298.4</ele>
        <time>2026-05-14T13:07:40.000Z</time>
      </trkpt>
      <trkpt lat="44.18447" lon="5.2901">
        <ele>1298.6</ele>
        <time>2026-05-14T13:07:41.000Z</time>
      </trkpt>
      <trkpt lat="44.18447" lon="5.29011">
        <ele>1298.6</ele>
        <time>2026-05-14T13:07:42.000Z</time>
      </trkpt>
      <trkpt lat="44.18449" lon="5.29012">
        <ele>1298.7</ele>
        <time>2026-05-14T13:07:43.000Z</time>
      </trkpt>
      <trkpt lat="44.1845" lon="5.29013">
        <ele>1298.8</ele>
        <time>2026-05-14T13:07:44.000Z</time>
      </trkpt>
      <trkpt lat="44.18451" lon="5.29014">
        <ele>1299.1</ele>
        <time>2026-05-14T13:07:45.000Z</time>
      </trkpt>
      <trkpt lat="44.18452" lon="5.29014">
        <ele>1299.2</ele>
        <time>2026-05-14T13:07:46.000Z</time>
      </trkpt>
      <trkpt lat="44.18454" lon="5.29016">
        <ele>1299.1</ele>
        <time>2026-05-14T13:07:47.000Z</time>
      </trkpt>
      <trkpt lat="44.18455" lon="5.29018">
        <ele>1298.7</ele>
        <time>2026-05-14T13:07:48.000Z</time>
      </trkpt>
      <trkpt lat="44.18456" lon="5.29019">
        <ele>1298.8</ele>
        <time>2026-05-14T13:07:49.000Z</time>
      </trkpt>
      <trkpt lat="44.18458" lon="5.2902">
        <ele>1299.2</ele>
        <time>2026-05-14T13:07:50.000Z</time>
      </trkpt>
      <trkpt lat="44.18458" lon="5.29021">
        <ele>1299.4</ele>
        <time>2026-05-14T13:07:51.000Z</time>
      </trkpt>
      <trkpt lat="44.18459" lon="5.29021">
        <ele>1299.2</ele>
        <time>2026-05-14T13:07:52.000Z</time>
      </trkpt>
      <trkpt lat="44.1846" lon="5.29022">
        <ele>1299.6</ele>
        <time>2026-05-14T13:07:53.000Z</time>
      </trkpt>
      <trkpt lat="44.18461" lon="5.29022">
        <ele>1300</ele>
        <time>2026-05-14T13:07:54.000Z</time>
      </trkpt>
      <trkpt lat="44.18463" lon="5.29022">
        <ele>1300.9</ele>
        <time>2026-05-14T13:07:55.000Z</time>
      </trkpt>
      <trkpt lat="44.18465" lon="5.29022">
        <ele>1301.4</ele>
        <time>2026-05-14T13:07:56.000Z</time>
      </trkpt>
      <trkpt lat="44.18466" lon="5.29023">
        <ele>1301.5</ele>
        <time>2026-05-14T13:07:57.000Z</time>
      </trkpt>
      <trkpt lat="44.18467" lon="5.29024">
        <ele>1301.3</ele>
        <time>2026-05-14T13:07:58.000Z</time>
      </trkpt>
      <trkpt lat="44.18468" lon="5.29024">
        <ele>1301.4</ele>
        <time>2026-05-14T13:07:59.000Z</time>
      </trkpt>
      <trkpt lat="44.18469" lon="5.29026">
        <ele>1301.2</ele>
        <time>2026-05-14T13:08:00.000Z</time>
      </trkpt>
      <trkpt lat="44.1847" lon="5.29026">
        <ele>1301.4</ele>
        <time>2026-05-14T13:08:01.000Z</time>
      </trkpt>
      <trkpt lat="44.18471" lon="5.29027">
        <ele>1301.2</ele>
        <time>2026-05-14T13:08:02.000Z</time>
      </trkpt>
      <trkpt lat="44.18471" lon="5.29027">
        <ele>1300.9</ele>
        <time>2026-05-14T13:08:03.000Z</time>
      </trkpt>
      <trkpt lat="44.18471" lon="5.29028">
        <ele>1300.3</ele>
        <time>2026-05-14T13:08:04.000Z</time>
      </trkpt>
      <trkpt lat="44.18471" lon="5.2903">
        <ele>1299.4</ele>
        <time>2026-05-14T13:08:05.000Z</time>
      </trkpt>
      <trkpt lat="44.18473" lon="5.29032">
        <ele>1299</ele>
        <time>2026-05-14T13:08:06.000Z</time>
      </trkpt>
      <trkpt lat="44.18473" lon="5.29032">
        <ele>1299.2</ele>
        <time>2026-05-14T13:08:07.000Z</time>
      </trkpt>
      <trkpt lat="44.18475" lon="5.29032">
        <ele>1299.9</ele>
        <time>2026-05-14T13:08:08.000Z</time>
      </trkpt>
      <trkpt lat="44.18475" lon="5.29033">
        <ele>1300</ele>
        <time>2026-05-14T13:08:09.000Z</time>
      </trkpt>
      <trkpt lat="44.18477" lon="5.29034">
        <ele>1300.3</ele>
        <time>2026-05-14T13:08:10.000Z</time>
      </trkpt>
      <trkpt lat="44.18478" lon="5.29034">
        <ele>1300.2</ele>
        <time>2026-05-14T13:08:11.000Z</time>
      </trkpt>
      <trkpt lat="44.1848" lon="5.29035">
        <ele>1299.9</ele>
        <time>2026-05-14T13:08:12.000Z</time>
      </trkpt>
      <trkpt lat="44.1848" lon="5.29037">
        <ele>1299.1</ele>
        <time>2026-05-14T13:08:13.000Z</time>
      </trkpt>
      <trkpt lat="44.18481" lon="5.29037">
        <ele>1298.2</ele>
        <time>2026-05-14T13:08:14.000Z</time>
      </trkpt>
      <trkpt lat="44.18481" lon="5.29039">
        <ele>1298.4</ele>
        <time>2026-05-14T13:08:15.000Z</time>
      </trkpt>
      <trkpt lat="44.18483" lon="5.2904">
        <ele>1299.1</ele>
        <time>2026-05-14T13:08:16.000Z</time>
      </trkpt>
      <trkpt lat="44.18483" lon="5.2904">
        <ele>1300.1</ele>
        <time>2026-05-14T13:08:17.000Z</time>
      </trkpt>
      <trkpt lat="44.18483" lon="5.2904">
        <ele>1299.7</ele>
        <time>2026-05-14T13:08:18.000Z</time>
      </trkpt>
      <trkpt lat="44.18484" lon="5.2904">
        <ele>1299.7</ele>
        <time>2026-05-14T13:08:19.000Z</time>
      </trkpt>
      <trkpt lat="44.18485" lon="5.2904">
        <ele>1299.4</ele>
        <time>2026-05-14T13:08:20.000Z</time>
      </trkpt>
      <trkpt lat="44.18486" lon="5.29041">
        <ele>1299.5</ele>
        <time>2026-05-14T13:08:21.000Z</time>
      </trkpt>
      <trkpt lat="44.18486" lon="5.29042">
        <ele>1299.4</ele>
        <time>2026-05-14T13:08:22.000Z</time>
      </trkpt>
      <trkpt lat="44.18488" lon="5.29043">
        <ele>1299.3</ele>
        <time>2026-05-14T13:08:23.000Z</time>
      </trkpt>
      <trkpt lat="44.18489" lon="5.29044">
        <ele>1299.3</ele>
        <time>2026-05-14T13:08:24.000Z</time>
      </trkpt>
      <trkpt lat="44.1849" lon="5.29045">
        <ele>1299.3</ele>
        <time>2026-05-14T13:08:25.000Z</time>
      </trkpt>
      <trkpt lat="44.18491" lon="5.29046">
        <ele>1299.1</ele>
        <time>2026-05-14T13:08:26.000Z</time>
      </trkpt>
      <trkpt lat="44.18491" lon="5.29047">
        <ele>1298.6</ele>
        <time>2026-05-14T13:08:27.000Z</time>
      </trkpt>
      <trkpt lat="44.18492" lon="5.29048">
        <ele>1298.6</ele>
        <time>2026-05-14T13:08:28.000Z</time>
      </trkpt>
      <trkpt lat="44.18493" lon="5.29049">
        <ele>1298.8</ele>
        <time>2026-05-14T13:08:29.000Z</time>
      </trkpt>
      <trkpt lat="44.18495" lon="5.29049">
        <ele>1298.8</ele>
        <time>2026-05-14T13:08:30.000Z</time>
      </trkpt>
      <trkpt lat="44.18497" lon="5.29051">
        <ele>1298.8</ele>
        <time>2026-05-14T13:08:31.000Z</time>
      </trkpt>
      <trkpt lat="44.18498" lon="5.29053">
        <ele>1298.3</ele>
        <time>2026-05-14T13:08:32.000Z</time>
      </trkpt>
      <trkpt lat="44.18499" lon="5.29054">
        <ele>1298</ele>
        <time>2026-05-14T13:08:33.000Z</time>
      </trkpt>
      <trkpt lat="44.185" lon="5.29056">
        <ele>1297.4</ele>
        <time>2026-05-14T13:08:34.000Z</time>
      </trkpt>
      <trkpt lat="44.185" lon="5.29057">
        <ele>1296.9</ele>
        <time>2026-05-14T13:08:35.000Z</time>
      </trkpt>
      <trkpt lat="44.18501" lon="5.29057">
        <ele>1296.8</ele>
        <time>2026-05-14T13:08:36.000Z</time>
      </trkpt>
      <trkpt lat="44.18502" lon="5.29057">
        <ele>1296.5</ele>
        <time>2026-05-14T13:08:37.000Z</time>
      </trkpt>
      <trkpt lat="44.18504" lon="5.29057">
        <ele>1296.3</ele>
        <time>2026-05-14T13:08:38.000Z</time>
      </trkpt>
      <trkpt lat="44.18505" lon="5.29058">
        <ele>1296.1</ele>
        <time>2026-05-14T13:08:39.000Z</time>
      </trkpt>
      <trkpt lat="44.18507" lon="5.2906">
        <ele>1295.9</ele>
        <time>2026-05-14T13:08:40.000Z</time>
      </trkpt>
      <trkpt lat="44.18508" lon="5.29061">
        <ele>1295.8</ele>
        <time>2026-05-14T13:08:41.000Z</time>
      </trkpt>
      <trkpt lat="44.18509" lon="5.29064">
        <ele>1295.3</ele>
        <time>2026-05-14T13:08:42.000Z</time>
      </trkpt>
      <trkpt lat="44.18509" lon="5.29066">
        <ele>1294.7</ele>
        <time>2026-05-14T13:08:43.000Z</time>
      </trkpt>
      <trkpt lat="44.1851" lon="5.29066">
        <ele>1295.5</ele>
        <time>2026-05-14T13:08:44.000Z</time>
      </trkpt>
      <trkpt lat="44.1851" lon="5.29067">
        <ele>1294.9</ele>
        <time>2026-05-14T13:08:45.000Z</time>
      </trkpt>
      <trkpt lat="44.1851" lon="5.29068">
        <ele>1294.3</ele>
        <time>2026-05-14T13:08:46.000Z</time>
      </trkpt>
      <trkpt lat="44.18509" lon="5.29069">
        <ele>1294.1</ele>
        <time>2026-05-14T13:08:47.000Z</time>
      </trkpt>
      <trkpt lat="44.18509" lon="5.2907">
        <ele>1294.1</ele>
        <time>2026-05-14T13:08:48.000Z</time>
      </trkpt>
      <trkpt lat="44.18509" lon="5.29072">
        <ele>1294.1</ele>
        <time>2026-05-14T13:08:49.000Z</time>
      </trkpt>
      <trkpt lat="44.1851" lon="5.29074">
        <ele>1293.9</ele>
        <time>2026-05-14T13:08:50.000Z</time>
      </trkpt>
      <trkpt lat="44.18509" lon="5.29077">
        <ele>1293.4</ele>
        <time>2026-05-14T13:08:51.000Z</time>
      </trkpt>
      <trkpt lat="44.18509" lon="5.29078">
        <ele>1293.4</ele>
        <time>2026-05-14T13:08:52.000Z</time>
      </trkpt>
      <trkpt lat="44.18509" lon="5.29078">
        <ele>1293.7</ele>
        <time>2026-05-14T13:08:53.000Z</time>
      </trkpt>
      <trkpt lat="44.1851" lon="5.29078">
        <ele>1293.8</ele>
        <time>2026-05-14T13:08:54.000Z</time>
      </trkpt>
      <trkpt lat="44.1851" lon="5.29078">
        <ele>1294.1</ele>
        <time>2026-05-14T13:08:55.000Z</time>
      </trkpt>
      <trkpt lat="44.1851" lon="5.29078">
        <ele>1294</ele>
        <time>2026-05-14T13:08:56.000Z</time>
      </trkpt>
      <trkpt lat="44.18511" lon="5.2908">
        <ele>1293.8</ele>
        <time>2026-05-14T13:08:57.000Z</time>
      </trkpt>
      <trkpt lat="44.18512" lon="5.29082">
        <ele>1294</ele>
        <time>2026-05-14T13:08:58.000Z</time>
      </trkpt>
      <trkpt lat="44.18513" lon="5.29085">
        <ele>1293.8</ele>
        <time>2026-05-14T13:08:59.000Z</time>
      </trkpt>
      <trkpt lat="44.18515" lon="5.29086">
        <ele>1293.9</ele>
        <time>2026-05-14T13:09:00.000Z</time>
      </trkpt>
      <trkpt lat="44.18515" lon="5.29088">
        <ele>1293.7</ele>
        <time>2026-05-14T13:09:01.000Z</time>
      </trkpt>
      <trkpt lat="44.18514" lon="5.2909">
        <ele>1293.5</ele>
        <time>2026-05-14T13:09:02.000Z</time>
      </trkpt>
      <trkpt lat="44.18514" lon="5.29092">
        <ele>1293.2</ele>
        <time>2026-05-14T13:09:03.000Z</time>
      </trkpt>
      <trkpt lat="44.18515" lon="5.29093">
        <ele>1293.6</ele>
        <time>2026-05-14T13:09:04.000Z</time>
      </trkpt>
      <trkpt lat="44.18515" lon="5.29094">
        <ele>1293.4</ele>
        <time>2026-05-14T13:09:05.000Z</time>
      </trkpt>
      <trkpt lat="44.18516" lon="5.29095">
        <ele>1293.2</ele>
        <time>2026-05-14T13:09:06.000Z</time>
      </trkpt>
      <trkpt lat="44.18516" lon="5.29097">
        <ele>1293.2</ele>
        <time>2026-05-14T13:09:07.000Z</time>
      </trkpt>
      <trkpt lat="44.18517" lon="5.29098">
        <ele>1293</ele>
        <time>2026-05-14T13:09:08.000Z</time>
      </trkpt>
      <trkpt lat="44.18517" lon="5.29099">
        <ele>1292.8</ele>
        <time>2026-05-14T13:09:09.000Z</time>
      </trkpt>
      <trkpt lat="44.18517" lon="5.29101">
        <ele>1292</ele>
        <time>2026-05-14T13:09:10.000Z</time>
      </trkpt>
      <trkpt lat="44.18518" lon="5.29102">
        <ele>1291.5</ele>
        <time>2026-05-14T13:09:11.000Z</time>
      </trkpt>
      <trkpt lat="44.18518" lon="5.29103">
        <ele>1291.5</ele>
        <time>2026-05-14T13:09:12.000Z</time>
      </trkpt>
      <trkpt lat="44.18518" lon="5.29103">
        <ele>1291.3</ele>
        <time>2026-05-14T13:09:13.000Z</time>
      </trkpt>
      <trkpt lat="44.18518" lon="5.29103">
        <ele>1291.1</ele>
        <time>2026-05-14T13:09:14.000Z</time>
      </trkpt>
      <trkpt lat="44.18519" lon="5.29104">
        <ele>1291.1</ele>
        <time>2026-05-14T13:09:15.000Z</time>
      </trkpt>
      <trkpt lat="44.18519" lon="5.29105">
        <ele>1291</ele>
        <time>2026-05-14T13:09:16.000Z</time>
      </trkpt>
      <trkpt lat="44.1852" lon="5.29106">
        <ele>1290.9</ele>
        <time>2026-05-14T13:09:17.000Z</time>
      </trkpt>
      <trkpt lat="44.18521" lon="5.29108">
        <ele>1290.7</ele>
        <time>2026-05-14T13:09:18.000Z</time>
      </trkpt>
      <trkpt lat="44.18521" lon="5.29112">
        <ele>1290.6</ele>
        <time>2026-05-14T13:09:19.000Z</time>
      </trkpt>
      <trkpt lat="44.18522" lon="5.29114">
        <ele>1290.2</ele>
        <time>2026-05-14T13:09:20.000Z</time>
      </trkpt>
      <trkpt lat="44.18522" lon="5.29114">
        <ele>1290.3</ele>
        <time>2026-05-14T13:09:21.000Z</time>
      </trkpt>
      <trkpt lat="44.18522" lon="5.29115">
        <ele>1290</ele>
        <time>2026-05-14T13:09:22.000Z</time>
      </trkpt>
      <trkpt lat="44.18522" lon="5.29116">
        <ele>1290.1</ele>
        <time>2026-05-14T13:09:23.000Z</time>
      </trkpt>
      <trkpt lat="44.18522" lon="5.29117">
        <ele>1290.1</ele>
        <time>2026-05-14T13:09:24.000Z</time>
      </trkpt>
      <trkpt lat="44.18522" lon="5.29118">
        <ele>1290</ele>
        <time>2026-05-14T13:09:25.000Z</time>
      </trkpt>
      <trkpt lat="44.18523" lon="5.29122">
        <ele>1289.9</ele>
        <time>2026-05-14T13:09:27.000Z</time>
      </trkpt>
      <trkpt lat="44.18523" lon="5.29123">
        <ele>1290</ele>
        <time>2026-05-14T13:09:28.000Z</time>
      </trkpt>
      <trkpt lat="44.18524" lon="5.29124">
        <ele>1289.9</ele>
        <time>2026-05-14T13:09:29.000Z</time>
      </trkpt>
      <trkpt lat="44.18524" lon="5.29124">
        <ele>1289.8</ele>
        <time>2026-05-14T13:09:30.000Z</time>
      </trkpt>
      <trkpt lat="44.18524" lon="5.29124">
        <ele>1289.4</ele>
        <time>2026-05-14T13:09:31.000Z</time>
      </trkpt>
      <trkpt lat="44.18524" lon="5.29125">
        <ele>1289.2</ele>
        <time>2026-05-14T13:09:32.000Z</time>
      </trkpt>
      <trkpt lat="44.18524" lon="5.29125">
        <ele>1287.8</ele>
        <time>2026-05-14T13:09:34.000Z</time>
      </trkpt>
      <trkpt lat="44.18523" lon="5.29125">
        <ele>1286.8</ele>
        <time>2026-05-14T13:09:35.000Z</time>
      </trkpt>
      <trkpt lat="44.18522" lon="5.29127">
        <ele>1286.1</ele>
        <time>2026-05-14T13:09:36.000Z</time>
      </trkpt>
      <trkpt lat="44.18522" lon="5.29129">
        <ele>1285.6</ele>
        <time>2026-05-14T13:09:37.000Z</time>
      </trkpt>
      <trkpt lat="44.1852" lon="5.29131">
        <ele>1284.9</ele>
        <time>2026-05-14T13:09:38.000Z</time>
      </trkpt>
      <trkpt lat="44.18519" lon="5.29132">
        <ele>1284.4</ele>
        <time>2026-05-14T13:09:39.000Z</time>
      </trkpt>
      <trkpt lat="44.18518" lon="5.29135">
        <ele>1284</ele>
        <time>2026-05-14T13:09:40.000Z</time>
      </trkpt>
      <trkpt lat="44.18517" lon="5.29137">
        <ele>1283.7</ele>
        <time>2026-05-14T13:09:41.000Z</time>
      </trkpt>
      <trkpt lat="44.18517" lon="5.29138">
        <ele>1283.7</ele>
        <time>2026-05-14T13:09:42.000Z</time>
      </trkpt>
      <trkpt lat="44.18516" lon="5.29139">
        <ele>1283.7</ele>
        <time>2026-05-14T13:09:43.000Z</time>
      </trkpt>
      <trkpt lat="44.18515" lon="5.2914">
        <ele>1283.6</ele>
        <time>2026-05-14T13:09:44.000Z</time>
      </trkpt>
      <trkpt lat="44.18515" lon="5.29142">
        <ele>1283.2</ele>
        <time>2026-05-14T13:09:45.000Z</time>
      </trkpt>
      <trkpt lat="44.18514" lon="5.29142">
        <ele>1283</ele>
        <time>2026-05-14T13:09:46.000Z</time>
      </trkpt>
      <trkpt lat="44.18514" lon="5.29143">
        <ele>1282.9</ele>
        <time>2026-05-14T13:09:47.000Z</time>
      </trkpt>
      <trkpt lat="44.18513" lon="5.29143">
        <ele>1283</ele>
        <time>2026-05-14T13:09:48.000Z</time>
      </trkpt>
      <trkpt lat="44.18512" lon="5.29143">
        <ele>1283</ele>
        <time>2026-05-14T13:09:49.000Z</time>
      </trkpt>
      <trkpt lat="44.18511" lon="5.29144">
        <ele>1282.8</ele>
        <time>2026-05-14T13:09:50.000Z</time>
      </trkpt>
      <trkpt lat="44.1851" lon="5.29144">
        <ele>1282.5</ele>
        <time>2026-05-14T13:09:51.000Z</time>
      </trkpt>
      <trkpt lat="44.18509" lon="5.29146">
        <ele>1282</ele>
        <time>2026-05-14T13:09:52.000Z</time>
      </trkpt>
      <trkpt lat="44.18509" lon="5.29147">
        <ele>1282</ele>
        <time>2026-05-14T13:09:53.000Z</time>
      </trkpt>
      <trkpt lat="44.18509" lon="5.29149">
        <ele>1281.9</ele>
        <time>2026-05-14T13:09:54.000Z</time>
      </trkpt>
      <trkpt lat="44.18509" lon="5.2915">
        <ele>1281.6</ele>
        <time>2026-05-14T13:09:55.000Z</time>
      </trkpt>
      <trkpt lat="44.18509" lon="5.29152">
        <ele>1281.5</ele>
        <time>2026-05-14T13:09:56.000Z</time>
      </trkpt>
      <trkpt lat="44.1851" lon="5.29154">
        <ele>1280.8</ele>
        <time>2026-05-14T13:09:57.000Z</time>
      </trkpt>
      <trkpt lat="44.18512" lon="5.29153">
        <ele>1280.4</ele>
        <time>2026-05-14T13:09:58.000Z</time>
      </trkpt>
      <trkpt lat="44.18513" lon="5.29153">
        <ele>1280.1</ele>
        <time>2026-05-14T13:09:59.000Z</time>
      </trkpt>
      <trkpt lat="44.18515" lon="5.29154">
        <ele>1279.7</ele>
        <time>2026-05-14T13:10:00.000Z</time>
      </trkpt>
      <trkpt lat="44.18516" lon="5.29154">
        <ele>1279.6</ele>
        <time>2026-05-14T13:10:01.000Z</time>
      </trkpt>
      <trkpt lat="44.18517" lon="5.29154">
        <ele>1279.5</ele>
        <time>2026-05-14T13:10:02.000Z</time>
      </trkpt>
      <trkpt lat="44.18518" lon="5.29153">
        <ele>1279.2</ele>
        <time>2026-05-14T13:10:03.000Z</time>
      </trkpt>
      <trkpt lat="44.18518" lon="5.29153">
        <ele>1278.8</ele>
        <time>2026-05-14T13:10:04.000Z</time>
      </trkpt>
      <trkpt lat="44.18521" lon="5.29154">
        <ele>1278.2</ele>
        <time>2026-05-14T13:10:06.000Z</time>
      </trkpt>
      <trkpt lat="44.18522" lon="5.29153">
        <ele>1278.2</ele>
        <time>2026-05-14T13:10:07.000Z</time>
      </trkpt>
      <trkpt lat="44.18523" lon="5.29153">
        <ele>1277.7</ele>
        <time>2026-05-14T13:10:08.000Z</time>
      </trkpt>
      <trkpt lat="44.18524" lon="5.29153">
        <ele>1277.2</ele>
        <time>2026-05-14T13:10:09.000Z</time>
      </trkpt>
      <trkpt lat="44.18525" lon="5.29153">
        <ele>1276.8</ele>
        <time>2026-05-14T13:10:10.000Z</time>
      </trkpt>
      <trkpt lat="44.18526" lon="5.29153">
        <ele>1276.6</ele>
        <time>2026-05-14T13:10:11.000Z</time>
      </trkpt>
      <trkpt lat="44.18527" lon="5.29153">
        <ele>1276.4</ele>
        <time>2026-05-14T13:10:12.000Z</time>
      </trkpt>
      <trkpt lat="44.18528" lon="5.29153">
        <ele>1275.6</ele>
        <time>2026-05-14T13:10:13.000Z</time>
      </trkpt>
      <trkpt lat="44.18529" lon="5.29153">
        <ele>1275.2</ele>
        <time>2026-05-14T13:10:14.000Z</time>
      </trkpt>
      <trkpt lat="44.18529" lon="5.29153">
        <ele>1274.7</ele>
        <time>2026-05-14T13:10:15.000Z</time>
      </trkpt>
      <trkpt lat="44.1853" lon="5.29153">
        <ele>1274.6</ele>
        <time>2026-05-14T13:10:16.000Z</time>
      </trkpt>
      <trkpt lat="44.18531" lon="5.29154">
        <ele>1274</ele>
        <time>2026-05-14T13:10:17.000Z</time>
      </trkpt>
      <trkpt lat="44.18532" lon="5.29154">
        <ele>1273.7</ele>
        <time>2026-05-14T13:10:18.000Z</time>
      </trkpt>
      <trkpt lat="44.18533" lon="5.29154">
        <ele>1273.2</ele>
        <time>2026-05-14T13:10:19.000Z</time>
      </trkpt>
      <trkpt lat="44.18533" lon="5.29154">
        <ele>1273.6</ele>
        <time>2026-05-14T13:10:20.000Z</time>
      </trkpt>
      <trkpt lat="44.18534" lon="5.29154">
        <ele>1273.2</ele>
        <time>2026-05-14T13:10:21.000Z</time>
      </trkpt>
      <trkpt lat="44.18534" lon="5.29153">
        <ele>1272.8</ele>
        <time>2026-05-14T13:10:22.000Z</time>
      </trkpt>
      <trkpt lat="44.18534" lon="5.29154">
        <ele>1272.7</ele>
        <time>2026-05-14T13:10:23.000Z</time>
      </trkpt>
      <trkpt lat="44.18534" lon="5.29153">
        <ele>1272.5</ele>
        <time>2026-05-14T13:10:24.000Z</time>
      </trkpt>
      <trkpt lat="44.18534" lon="5.29153">
        <ele>1272.6</ele>
        <time>2026-05-14T13:10:25.000Z</time>
      </trkpt>
      <trkpt lat="44.18534" lon="5.29153">
        <ele>1272.4</ele>
        <time>2026-05-14T13:10:26.000Z</time>
      </trkpt>
      <trkpt lat="44.18535" lon="5.29153">
        <ele>1272.1</ele>
        <time>2026-05-14T13:10:27.000Z</time>
      </trkpt>
      <trkpt lat="44.18536" lon="5.29152">
        <ele>1271.8</ele>
        <time>2026-05-14T13:10:28.000Z</time>
      </trkpt>
      <trkpt lat="44.18538" lon="5.29152">
        <ele>1271.7</ele>
        <time>2026-05-14T13:10:29.000Z</time>
      </trkpt>
      <trkpt lat="44.18538" lon="5.29151">
        <ele>1271.6</ele>
        <time>2026-05-14T13:10:30.000Z</time>
      </trkpt>
      <trkpt lat="44.18539" lon="5.2915">
        <ele>1271.8</ele>
        <time>2026-05-14T13:10:31.000Z</time>
      </trkpt>
      <trkpt lat="44.18541" lon="5.2915">
        <ele>1271.6</ele>
        <time>2026-05-14T13:10:32.000Z</time>
      </trkpt>
      <trkpt lat="44.18541" lon="5.29149">
        <ele>1271.5</ele>
        <time>2026-05-14T13:10:33.000Z</time>
      </trkpt>
      <trkpt lat="44.18543" lon="5.29148">
        <ele>1271.5</ele>
        <time>2026-05-14T13:10:34.000Z</time>
      </trkpt>
      <trkpt lat="44.18543" lon="5.29148">
        <ele>1271.5</ele>
        <time>2026-05-14T13:10:35.000Z</time>
      </trkpt>
      <trkpt lat="44.18544" lon="5.29147">
        <ele>1271.4</ele>
        <time>2026-05-14T13:10:36.000Z</time>
      </trkpt>
      <trkpt lat="44.18544" lon="5.29145">
        <ele>1271.1</ele>
        <time>2026-05-14T13:10:37.000Z</time>
      </trkpt>
      <trkpt lat="44.18544" lon="5.29145">
        <ele>1270.5</ele>
        <time>2026-05-14T13:10:38.000Z</time>
      </trkpt>
      <trkpt lat="44.18545" lon="5.29145">
        <ele>1269.9</ele>
        <time>2026-05-14T13:10:39.000Z</time>
      </trkpt>
      <trkpt lat="44.18548" lon="5.29144">
        <ele>1269.1</ele>
        <time>2026-05-14T13:10:40.000Z</time>
      </trkpt>
      <trkpt lat="44.18548" lon="5.29143">
        <ele>1268.4</ele>
        <time>2026-05-14T13:10:41.000Z</time>
      </trkpt>
      <trkpt lat="44.18548" lon="5.29142">
        <ele>1267.8</ele>
        <time>2026-05-14T13:10:42.000Z</time>
      </trkpt>
      <trkpt lat="44.18548" lon="5.29142">
        <ele>1267.1</ele>
        <time>2026-05-14T13:10:43.000Z</time>
      </trkpt>
      <trkpt lat="44.18549" lon="5.2914">
        <ele>1267</ele>
        <time>2026-05-14T13:10:44.000Z</time>
      </trkpt>
      <trkpt lat="44.18549" lon="5.29139">
        <ele>1267.5</ele>
        <time>2026-05-14T13:10:45.000Z</time>
      </trkpt>
      <trkpt lat="44.18549" lon="5.29139">
        <ele>1268.9</ele>
        <time>2026-05-14T13:10:46.000Z</time>
      </trkpt>
      <trkpt lat="44.18552" lon="5.29137">
        <ele>1269.3</ele>
        <time>2026-05-14T13:10:47.000Z</time>
      </trkpt>
      <trkpt lat="44.18553" lon="5.29135">
        <ele>1269.3</ele>
        <time>2026-05-14T13:10:48.000Z</time>
      </trkpt>
      <trkpt lat="44.18553" lon="5.29133">
        <ele>1269.2</ele>
        <time>2026-05-14T13:10:49.000Z</time>
      </trkpt>
      <trkpt lat="44.18553" lon="5.29132">
        <ele>1269.2</ele>
        <time>2026-05-14T13:10:50.000Z</time>
      </trkpt>
      <trkpt lat="44.18554" lon="5.29132">
        <ele>1269</ele>
        <time>2026-05-14T13:10:51.000Z</time>
      </trkpt>
      <trkpt lat="44.18554" lon="5.29132">
        <ele>1268.1</ele>
        <time>2026-05-14T13:10:52.000Z</time>
      </trkpt>
      <trkpt lat="44.18554" lon="5.29131">
        <ele>1267.2</ele>
        <time>2026-05-14T13:10:53.000Z</time>
      </trkpt>
      <trkpt lat="44.18553" lon="5.29128">
        <ele>1267.5</ele>
        <time>2026-05-14T13:10:54.000Z</time>
      </trkpt>
      <trkpt lat="44.18551" lon="5.29124">
        <ele>1267.5</ele>
        <time>2026-05-14T13:10:55.000Z</time>
      </trkpt>
      <trkpt lat="44.1855" lon="5.29121">
        <ele>1267.7</ele>
        <time>2026-05-14T13:10:56.000Z</time>
      </trkpt>
      <trkpt lat="44.1855" lon="5.29118">
        <ele>1267.6</ele>
        <time>2026-05-14T13:10:57.000Z</time>
      </trkpt>
      <trkpt lat="44.1855" lon="5.29116">
        <ele>1267.5</ele>
        <time>2026-05-14T13:10:58.000Z</time>
      </trkpt>
      <trkpt lat="44.18549" lon="5.29113">
        <ele>1268.1</ele>
        <time>2026-05-14T13:10:59.000Z</time>
      </trkpt>
      <trkpt lat="44.18548" lon="5.29111">
        <ele>1267.5</ele>
        <time>2026-05-14T13:11:00.000Z</time>
      </trkpt>
      <trkpt lat="44.18548" lon="5.2911">
        <ele>1267.8</ele>
        <time>2026-05-14T13:11:01.000Z</time>
      </trkpt>
      <trkpt lat="44.18548" lon="5.29109">
        <ele>1267.5</ele>
        <time>2026-05-14T13:11:02.000Z</time>
      </trkpt>
      <trkpt lat="44.18547" lon="5.29107">
        <ele>1267.7</ele>
        <time>2026-05-14T13:11:03.000Z</time>
      </trkpt>
      <trkpt lat="44.18547" lon="5.29106">
        <ele>1269</ele>
        <time>2026-05-14T13:11:04.000Z</time>
      </trkpt>
      <trkpt lat="44.18547" lon="5.29104">
        <ele>1268.8</ele>
        <time>2026-05-14T13:11:05.000Z</time>
      </trkpt>
      <trkpt lat="44.18547" lon="5.29101">
        <ele>1268.6</ele>
        <time>2026-05-14T13:11:06.000Z</time>
      </trkpt>
      <trkpt lat="44.18547" lon="5.29099">
        <ele>1268.3</ele>
        <time>2026-05-14T13:11:07.000Z</time>
      </trkpt>
      <trkpt lat="44.18547" lon="5.29098">
        <ele>1268.2</ele>
        <time>2026-05-14T13:11:08.000Z</time>
      </trkpt>
      <trkpt lat="44.18547" lon="5.29096">
        <ele>1268.2</ele>
        <time>2026-05-14T13:11:09.000Z</time>
      </trkpt>
      <trkpt lat="44.18546" lon="5.29094">
        <ele>1268.1</ele>
        <time>2026-05-14T13:11:10.000Z</time>
      </trkpt>
      <trkpt lat="44.18545" lon="5.29092">
        <ele>1268.1</ele>
        <time>2026-05-14T13:11:11.000Z</time>
      </trkpt>
      <trkpt lat="44.18545" lon="5.2909">
        <ele>1268.3</ele>
        <time>2026-05-14T13:11:12.000Z</time>
      </trkpt>
      <trkpt lat="44.18546" lon="5.29088">
        <ele>1268.7</ele>
        <time>2026-05-14T13:11:13.000Z</time>
      </trkpt>
      <trkpt lat="44.18546" lon="5.29087">
        <ele>1268.9</ele>
        <time>2026-05-14T13:11:14.000Z</time>
      </trkpt>
      <trkpt lat="44.18547" lon="5.29086">
        <ele>1268.9</ele>
        <time>2026-05-14T13:11:15.000Z</time>
      </trkpt>
      <trkpt lat="44.18548" lon="5.29085">
        <ele>1268.9</ele>
        <time>2026-05-14T13:11:16.000Z</time>
      </trkpt>
      <trkpt lat="44.18548" lon="5.29082">
        <ele>1269.1</ele>
        <time>2026-05-14T13:11:17.000Z</time>
      </trkpt>
      <trkpt lat="44.18548" lon="5.29081">
        <ele>1269.2</ele>
        <time>2026-05-14T13:11:18.000Z</time>
      </trkpt>
      <trkpt lat="44.18549" lon="5.29079">
        <ele>1269.4</ele>
        <time>2026-05-14T13:11:19.000Z</time>
      </trkpt>
      <trkpt lat="44.18548" lon="5.29078">
        <ele>1268.8</ele>
        <time>2026-05-14T13:11:20.000Z</time>
      </trkpt>
      <trkpt lat="44.18548" lon="5.29076">
        <ele>1269.1</ele>
        <time>2026-05-14T13:11:21.000Z</time>
      </trkpt>
      <trkpt lat="44.18547" lon="5.29074">
        <ele>1269.6</ele>
        <time>2026-05-14T13:11:22.000Z</time>
      </trkpt>
      <trkpt lat="44.18546" lon="5.29072">
        <ele>1269.7</ele>
        <time>2026-05-14T13:11:23.000Z</time>
      </trkpt>
      <trkpt lat="44.18545" lon="5.29069">
        <ele>1269.7</ele>
        <time>2026-05-14T13:11:24.000Z</time>
      </trkpt>
      <trkpt lat="44.18545" lon="5.29067">
        <ele>1269.8</ele>
        <time>2026-05-14T13:11:25.000Z</time>
      </trkpt>
      <trkpt lat="44.18543" lon="5.29065">
        <ele>1269.6</ele>
        <time>2026-05-14T13:11:26.000Z</time>
      </trkpt>
      <trkpt lat="44.18542" lon="5.29063">
        <ele>1269.3</ele>
        <time>2026-05-14T13:11:27.000Z</time>
      </trkpt>
      <trkpt lat="44.18541" lon="5.29061">
        <ele>1269.2</ele>
        <time>2026-05-14T13:11:28.000Z</time>
      </trkpt>
      <trkpt lat="44.1854" lon="5.29059">
        <ele>1269.4</ele>
        <time>2026-05-14T13:11:29.000Z</time>
      </trkpt>
      <trkpt lat="44.1854" lon="5.29057">
        <ele>1269.4</ele>
        <time>2026-05-14T13:11:30.000Z</time>
      </trkpt>
      <trkpt lat="44.1854" lon="5.29055">
        <ele>1269.4</ele>
        <time>2026-05-14T13:11:31.000Z</time>
      </trkpt>
      <trkpt lat="44.18539" lon="5.29053">
        <ele>1269.3</ele>
        <time>2026-05-14T13:11:32.000Z</time>
      </trkpt>
      <trkpt lat="44.18539" lon="5.29052">
        <ele>1269</ele>
        <time>2026-05-14T13:11:33.000Z</time>
      </trkpt>
      <trkpt lat="44.18538" lon="5.29051">
        <ele>1268.1</ele>
        <time>2026-05-14T13:11:34.000Z</time>
      </trkpt>
      <trkpt lat="44.18538" lon="5.2905">
        <ele>1267.5</ele>
        <time>2026-05-14T13:11:35.000Z</time>
      </trkpt>
      <trkpt lat="44.18537" lon="5.2905">
        <ele>1267</ele>
        <time>2026-05-14T13:11:36.000Z</time>
      </trkpt>
      <trkpt lat="44.18536" lon="5.29048">
        <ele>1266.9</ele>
        <time>2026-05-14T13:11:37.000Z</time>
      </trkpt>
      <trkpt lat="44.18536" lon="5.29047">
        <ele>1267</ele>
        <time>2026-05-14T13:11:38.000Z</time>
      </trkpt>
      <trkpt lat="44.18537" lon="5.29046">
        <ele>1267.2</ele>
        <time>2026-05-14T13:11:39.000Z</time>
      </trkpt>
      <trkpt lat="44.18537" lon="5.29044">
        <ele>1267.3</ele>
        <time>2026-05-14T13:11:40.000Z</time>
      </trkpt>
      <trkpt lat="44.18537" lon="5.29044">
        <ele>1266.9</ele>
        <time>2026-05-14T13:11:41.000Z</time>
      </trkpt>
      <trkpt lat="44.18537" lon="5.29042">
        <ele>1266.3</ele>
        <time>2026-05-14T13:11:42.000Z</time>
      </trkpt>
      <trkpt lat="44.18538" lon="5.29041">
        <ele>1265.5</ele>
        <time>2026-05-14T13:11:43.000Z</time>
      </trkpt>
      <trkpt lat="44.18537" lon="5.2904">
        <ele>1265.2</ele>
        <time>2026-05-14T13:11:44.000Z</time>
      </trkpt>
      <trkpt lat="44.18538" lon="5.29039">
        <ele>1265</ele>
        <time>2026-05-14T13:11:45.000Z</time>
      </trkpt>
      <trkpt lat="44.18539" lon="5.29038">
        <ele>1264.7</ele>
        <time>2026-05-14T13:11:46.000Z</time>
      </trkpt>
      <trkpt lat="44.18539" lon="5.29036">
        <ele>1264.5</ele>
        <time>2026-05-14T13:11:47.000Z</time>
      </trkpt>
      <trkpt lat="44.1854" lon="5.29033">
        <ele>1264.3</ele>
        <time>2026-05-14T13:11:48.000Z</time>
      </trkpt>
      <trkpt lat="44.1854" lon="5.29031">
        <ele>1263.9</ele>
        <time>2026-05-14T13:11:49.000Z</time>
      </trkpt>
      <trkpt lat="44.1854" lon="5.2903">
        <ele>1263.8</ele>
        <time>2026-05-14T13:11:50.000Z</time>
      </trkpt>
      <trkpt lat="44.18541" lon="5.29029">
        <ele>1263.9</ele>
        <time>2026-05-14T13:11:51.000Z</time>
      </trkpt>
      <trkpt lat="44.18542" lon="5.29029">
        <ele>1263.6</ele>
        <time>2026-05-14T13:11:52.000Z</time>
      </trkpt>
      <trkpt lat="44.18542" lon="5.29028">
        <ele>1263.3</ele>
        <time>2026-05-14T13:11:53.000Z</time>
      </trkpt>
      <trkpt lat="44.18543" lon="5.29026">
        <ele>1263.7</ele>
        <time>2026-05-14T13:11:54.000Z</time>
      </trkpt>
      <trkpt lat="44.18544" lon="5.29024">
        <ele>1263.8</ele>
        <time>2026-05-14T13:11:55.000Z</time>
      </trkpt>
      <trkpt lat="44.18545" lon="5.29021">
        <ele>1263.9</ele>
        <time>2026-05-14T13:11:56.000Z</time>
      </trkpt>
      <trkpt lat="44.18546" lon="5.29019">
        <ele>1264.2</ele>
        <time>2026-05-14T13:11:57.000Z</time>
      </trkpt>
      <trkpt lat="44.18548" lon="5.29018">
        <ele>1264.3</ele>
        <time>2026-05-14T13:11:58.000Z</time>
      </trkpt>
      <trkpt lat="44.18548" lon="5.29016">
        <ele>1264.3</ele>
        <time>2026-05-14T13:11:59.000Z</time>
      </trkpt>
      <trkpt lat="44.18549" lon="5.29015">
        <ele>1264.2</ele>
        <time>2026-05-14T13:12:00.000Z</time>
      </trkpt>
      <trkpt lat="44.18549" lon="5.29015">
        <ele>1264.2</ele>
        <time>2026-05-14T13:12:01.000Z</time>
      </trkpt>
      <trkpt lat="44.18549" lon="5.29013">
        <ele>1264.1</ele>
        <time>2026-05-14T13:12:02.000Z</time>
      </trkpt>
      <trkpt lat="44.18549" lon="5.29012">
        <ele>1264</ele>
        <time>2026-05-14T13:12:03.000Z</time>
      </trkpt>
      <trkpt lat="44.18549" lon="5.2901">
        <ele>1264.1</ele>
        <time>2026-05-14T13:12:04.000Z</time>
      </trkpt>
      <trkpt lat="44.18549" lon="5.29009">
        <ele>1264.2</ele>
        <time>2026-05-14T13:12:05.000Z</time>
      </trkpt>
      <trkpt lat="44.18548" lon="5.29008">
        <ele>1264.4</ele>
        <time>2026-05-14T13:12:06.000Z</time>
      </trkpt>
      <trkpt lat="44.18548" lon="5.29007">
        <ele>1264.2</ele>
        <time>2026-05-14T13:12:07.000Z</time>
      </trkpt>
      <trkpt lat="44.18547" lon="5.29006">
        <ele>1263.9</ele>
        <time>2026-05-14T13:12:08.000Z</time>
      </trkpt>
      <trkpt lat="44.18546" lon="5.29006">
        <ele>1263.2</ele>
        <time>2026-05-14T13:12:09.000Z</time>
      </trkpt>
      <trkpt lat="44.18545" lon="5.29005">
        <ele>1262.7</ele>
        <time>2026-05-14T13:12:10.000Z</time>
      </trkpt>
      <trkpt lat="44.18545" lon="5.29004">
        <ele>1262.7</ele>
        <time>2026-05-14T13:12:11.000Z</time>
      </trkpt>
      <trkpt lat="44.18544" lon="5.29004">
        <ele>1262.5</ele>
        <time>2026-05-14T13:12:12.000Z</time>
      </trkpt>
      <trkpt lat="44.18543" lon="5.29004">
        <ele>1262.6</ele>
        <time>2026-05-14T13:12:13.000Z</time>
      </trkpt>
      <trkpt lat="44.18542" lon="5.29004">
        <ele>1262.4</ele>
        <time>2026-05-14T13:12:14.000Z</time>
      </trkpt>
      <trkpt lat="44.1854" lon="5.29003">
        <ele>1262.1</ele>
        <time>2026-05-14T13:12:15.000Z</time>
      </trkpt>
      <trkpt lat="44.18539" lon="5.29003">
        <ele>1262</ele>
        <time>2026-05-14T13:12:16.000Z</time>
      </trkpt>
      <trkpt lat="44.18538" lon="5.29002">
        <ele>1262.1</ele>
        <time>2026-05-14T13:12:17.000Z</time>
      </trkpt>
      <trkpt lat="44.18537" lon="5.29001">
        <ele>1261.8</ele>
        <time>2026-05-14T13:12:18.000Z</time>
      </trkpt>
      <trkpt lat="44.18536" lon="5.29001">
        <ele>1261.5</ele>
        <time>2026-05-14T13:12:19.000Z</time>
      </trkpt>
      <trkpt lat="44.18535" lon="5.29001">
        <ele>1261.5</ele>
        <time>2026-05-14T13:12:20.000Z</time>
      </trkpt>
      <trkpt lat="44.18534" lon="5.29">
        <ele>1261.2</ele>
        <time>2026-05-14T13:12:21.000Z</time>
      </trkpt>
      <trkpt lat="44.18534" lon="5.29">
        <ele>1261.3</ele>
        <time>2026-05-14T13:12:22.000Z</time>
      </trkpt>
      <trkpt lat="44.18532" lon="5.28999">
        <ele>1260.9</ele>
        <time>2026-05-14T13:12:23.000Z</time>
      </trkpt>
      <trkpt lat="44.18531" lon="5.28999">
        <ele>1260.3</ele>
        <time>2026-05-14T13:12:24.000Z</time>
      </trkpt>
      <trkpt lat="44.1853" lon="5.28998">
        <ele>1260</ele>
        <time>2026-05-14T13:12:25.000Z</time>
      </trkpt>
      <trkpt lat="44.18528" lon="5.28996">
        <ele>1259.4</ele>
        <time>2026-05-14T13:12:26.000Z</time>
      </trkpt>
      <trkpt lat="44.18527" lon="5.28995">
        <ele>1259.2</ele>
        <time>2026-05-14T13:12:27.000Z</time>
      </trkpt>
      <trkpt lat="44.18525" lon="5.28995">
        <ele>1259.1</ele>
        <time>2026-05-14T13:12:28.000Z</time>
      </trkpt>
      <trkpt lat="44.18524" lon="5.28994">
        <ele>1258.7</ele>
        <time>2026-05-14T13:12:29.000Z</time>
      </trkpt>
      <trkpt lat="44.18523" lon="5.28993">
        <ele>1258.2</ele>
        <time>2026-05-14T13:12:30.000Z</time>
      </trkpt>
      <trkpt lat="44.18523" lon="5.28992">
        <ele>1258.1</ele>
        <time>2026-05-14T13:12:31.000Z</time>
      </trkpt>
      <trkpt lat="44.18522" lon="5.28992">
        <ele>1257.6</ele>
        <time>2026-05-14T13:12:32.000Z</time>
      </trkpt>
      <trkpt lat="44.18522" lon="5.2899">
        <ele>1257.3</ele>
        <time>2026-05-14T13:12:33.000Z</time>
      </trkpt>
      <trkpt lat="44.18521" lon="5.28988">
        <ele>1256.9</ele>
        <time>2026-05-14T13:12:34.000Z</time>
      </trkpt>
      <trkpt lat="44.1852" lon="5.28986">
        <ele>1256.7</ele>
        <time>2026-05-14T13:12:35.000Z</time>
      </trkpt>
      <trkpt lat="44.1852" lon="5.28984">
        <ele>1257.2</ele>
        <time>2026-05-14T13:12:36.000Z</time>
      </trkpt>
      <trkpt lat="44.18519" lon="5.28982">
        <ele>1257.6</ele>
        <time>2026-05-14T13:12:37.000Z</time>
      </trkpt>
      <trkpt lat="44.18519" lon="5.28981">
        <ele>1257.9</ele>
        <time>2026-05-14T13:12:38.000Z</time>
      </trkpt>
      <trkpt lat="44.18518" lon="5.28981">
        <ele>1257.5</ele>
        <time>2026-05-14T13:12:39.000Z</time>
      </trkpt>
      <trkpt lat="44.18517" lon="5.28981">
        <ele>1257.1</ele>
        <time>2026-05-14T13:12:40.000Z</time>
      </trkpt>
      <trkpt lat="44.18516" lon="5.2898">
        <ele>1256.6</ele>
        <time>2026-05-14T13:12:41.000Z</time>
      </trkpt>
      <trkpt lat="44.18515" lon="5.2898">
        <ele>1256.3</ele>
        <time>2026-05-14T13:12:42.000Z</time>
      </trkpt>
      <trkpt lat="44.18513" lon="5.28979">
        <ele>1256.6</ele>
        <time>2026-05-14T13:12:43.000Z</time>
      </trkpt>
      <trkpt lat="44.18513" lon="5.28977">
        <ele>1256.7</ele>
        <time>2026-05-14T13:12:44.000Z</time>
      </trkpt>
      <trkpt lat="44.18512" lon="5.28976">
        <ele>1256.5</ele>
        <time>2026-05-14T13:12:45.000Z</time>
      </trkpt>
      <trkpt lat="44.18511" lon="5.28975">
        <ele>1256.3</ele>
        <time>2026-05-14T13:12:46.000Z</time>
      </trkpt>
      <trkpt lat="44.1851" lon="5.28974">
        <ele>1255.9</ele>
        <time>2026-05-14T13:12:47.000Z</time>
      </trkpt>
      <trkpt lat="44.18509" lon="5.28973">
        <ele>1255.7</ele>
        <time>2026-05-14T13:12:48.000Z</time>
      </trkpt>
      <trkpt lat="44.18509" lon="5.28973">
        <ele>1255.3</ele>
        <time>2026-05-14T13:12:49.000Z</time>
      </trkpt>
      <trkpt lat="44.18509" lon="5.28973">
        <ele>1255</ele>
        <time>2026-05-14T13:12:50.000Z</time>
      </trkpt>
      <trkpt lat="44.18508" lon="5.28972">
        <ele>1254.9</ele>
        <time>2026-05-14T13:12:51.000Z</time>
      </trkpt>
      <trkpt lat="44.18507" lon="5.28972">
        <ele>1254.4</ele>
        <time>2026-05-14T13:12:52.000Z</time>
      </trkpt>
      <trkpt lat="44.18506" lon="5.28971">
        <ele>1254</ele>
        <time>2026-05-14T13:12:53.000Z</time>
      </trkpt>
      <trkpt lat="44.18504" lon="5.2897">
        <ele>1254.1</ele>
        <time>2026-05-14T13:12:54.000Z</time>
      </trkpt>
      <trkpt lat="44.18503" lon="5.28969">
        <ele>1254.3</ele>
        <time>2026-05-14T13:12:55.000Z</time>
      </trkpt>
      <trkpt lat="44.18502" lon="5.28968">
        <ele>1254.4</ele>
        <time>2026-05-14T13:12:56.000Z</time>
      </trkpt>
      <trkpt lat="44.18501" lon="5.28966">
        <ele>1254.7</ele>
        <time>2026-05-14T13:12:57.000Z</time>
      </trkpt>
      <trkpt lat="44.185" lon="5.28963">
        <ele>1255</ele>
        <time>2026-05-14T13:12:58.000Z</time>
      </trkpt>
      <trkpt lat="44.185" lon="5.28961">
        <ele>1254.6</ele>
        <time>2026-05-14T13:12:59.000Z</time>
      </trkpt>
      <trkpt lat="44.18499" lon="5.28959">
        <ele>1254.3</ele>
        <time>2026-05-14T13:13:00.000Z</time>
      </trkpt>
      <trkpt lat="44.18498" lon="5.28956">
        <ele>1254.4</ele>
        <time>2026-05-14T13:13:01.000Z</time>
      </trkpt>
      <trkpt lat="44.18497" lon="5.28955">
        <ele>1254.6</ele>
        <time>2026-05-14T13:13:02.000Z</time>
      </trkpt>
      <trkpt lat="44.18496" lon="5.28954">
        <ele>1254</ele>
        <time>2026-05-14T13:13:03.000Z</time>
      </trkpt>
      <trkpt lat="44.18496" lon="5.28953">
        <ele>1253.6</ele>
        <time>2026-05-14T13:13:04.000Z</time>
      </trkpt>
      <trkpt lat="44.18495" lon="5.28952">
        <ele>1253.4</ele>
        <time>2026-05-14T13:13:05.000Z</time>
      </trkpt>
      <trkpt lat="44.18494" lon="5.28951">
        <ele>1253.3</ele>
        <time>2026-05-14T13:13:06.000Z</time>
      </trkpt>
      <trkpt lat="44.18494" lon="5.28951">
        <ele>1252.9</ele>
        <time>2026-05-14T13:13:07.000Z</time>
      </trkpt>
      <trkpt lat="44.18492" lon="5.2895">
        <ele>1252.4</ele>
        <time>2026-05-14T13:13:08.000Z</time>
      </trkpt>
      <trkpt lat="44.18492" lon="5.28949">
        <ele>1252.4</ele>
        <time>2026-05-14T13:13:09.000Z</time>
      </trkpt>
      <trkpt lat="44.18491" lon="5.28948">
        <ele>1252.2</ele>
        <time>2026-05-14T13:13:10.000Z</time>
      </trkpt>
      <trkpt lat="44.18491" lon="5.28947">
        <ele>1251.9</ele>
        <time>2026-05-14T13:13:11.000Z</time>
      </trkpt>
      <trkpt lat="44.1849" lon="5.28946">
        <ele>1251.6</ele>
        <time>2026-05-14T13:13:12.000Z</time>
      </trkpt>
      <trkpt lat="44.18489" lon="5.28946">
        <ele>1250.9</ele>
        <time>2026-05-14T13:13:13.000Z</time>
      </trkpt>
      <trkpt lat="44.18489" lon="5.28945">
        <ele>1252.8</ele>
        <time>2026-05-14T13:13:14.000Z</time>
      </trkpt>
      <trkpt lat="44.18489" lon="5.28945">
        <ele>1252.5</ele>
        <time>2026-05-14T13:13:15.000Z</time>
      </trkpt>
      <trkpt lat="44.18489" lon="5.28945">
        <ele>1252.2</ele>
        <time>2026-05-14T13:13:16.000Z</time>
      </trkpt>
      <trkpt lat="44.18488" lon="5.28943">
        <ele>1252.4</ele>
        <time>2026-05-14T13:13:17.000Z</time>
      </trkpt>
      <trkpt lat="44.18487" lon="5.28941">
        <ele>1252.2</ele>
        <time>2026-05-14T13:13:18.000Z</time>
      </trkpt>
      <trkpt lat="44.18487" lon="5.28939">
        <ele>1252.4</ele>
        <time>2026-05-14T13:13:19.000Z</time>
      </trkpt>
      <trkpt lat="44.18487" lon="5.28937">
        <ele>1252.6</ele>
        <time>2026-05-14T13:13:20.000Z</time>
      </trkpt>
      <trkpt lat="44.18486" lon="5.28936">
        <ele>1252.6</ele>
        <time>2026-05-14T13:13:21.000Z</time>
      </trkpt>
      <trkpt lat="44.18487" lon="5.28935">
        <ele>1253.3</ele>
        <time>2026-05-14T13:13:22.000Z</time>
      </trkpt>
      <trkpt lat="44.18487" lon="5.28935">
        <ele>1253</ele>
        <time>2026-05-14T13:13:23.000Z</time>
      </trkpt>
      <trkpt lat="44.18487" lon="5.28934">
        <ele>1252.9</ele>
        <time>2026-05-14T13:13:24.000Z</time>
      </trkpt>
      <trkpt lat="44.18487" lon="5.28932">
        <ele>1252.4</ele>
        <time>2026-05-14T13:13:25.000Z</time>
      </trkpt>
      <trkpt lat="44.18486" lon="5.28931">
        <ele>1252.4</ele>
        <time>2026-05-14T13:13:26.000Z</time>
      </trkpt>
      <trkpt lat="44.18485" lon="5.2893">
        <ele>1252.3</ele>
        <time>2026-05-14T13:13:27.000Z</time>
      </trkpt>
      <trkpt lat="44.18484" lon="5.28928">
        <ele>1251.9</ele>
        <time>2026-05-14T13:13:28.000Z</time>
      </trkpt>
      <trkpt lat="44.18484" lon="5.28927">
        <ele>1251.3</ele>
        <time>2026-05-14T13:13:29.000Z</time>
      </trkpt>
      <trkpt lat="44.18483" lon="5.28926">
        <ele>1251.1</ele>
        <time>2026-05-14T13:13:30.000Z</time>
      </trkpt>
      <trkpt lat="44.18483" lon="5.28925">
        <ele>1251.2</ele>
        <time>2026-05-14T13:13:31.000Z</time>
      </trkpt>
      <trkpt lat="44.18482" lon="5.28923">
        <ele>1251.3</ele>
        <time>2026-05-14T13:13:32.000Z</time>
      </trkpt>
      <trkpt lat="44.18482" lon="5.28921">
        <ele>1251.6</ele>
        <time>2026-05-14T13:13:33.000Z</time>
      </trkpt>
      <trkpt lat="44.18482" lon="5.28919">
        <ele>1251.4</ele>
        <time>2026-05-14T13:13:34.000Z</time>
      </trkpt>
      <trkpt lat="44.18482" lon="5.28917">
        <ele>1251.7</ele>
        <time>2026-05-14T13:13:35.000Z</time>
      </trkpt>
      <trkpt lat="44.18482" lon="5.28916">
        <ele>1250.7</ele>
        <time>2026-05-14T13:13:36.000Z</time>
      </trkpt>
      <trkpt lat="44.18481" lon="5.28916">
        <ele>1250.2</ele>
        <time>2026-05-14T13:13:37.000Z</time>
      </trkpt>
      <trkpt lat="44.18481" lon="5.28916">
        <ele>1249.9</ele>
        <time>2026-05-14T13:13:38.000Z</time>
      </trkpt>
      <trkpt lat="44.1848" lon="5.28915">
        <ele>1249.3</ele>
        <time>2026-05-14T13:13:39.000Z</time>
      </trkpt>
      <trkpt lat="44.18479" lon="5.28913">
        <ele>1248.9</ele>
        <time>2026-05-14T13:13:40.000Z</time>
      </trkpt>
      <trkpt lat="44.18478" lon="5.28912">
        <ele>1248.8</ele>
        <time>2026-05-14T13:13:41.000Z</time>
      </trkpt>
      <trkpt lat="44.18477" lon="5.28912">
        <ele>1248.3</ele>
        <time>2026-05-14T13:13:42.000Z</time>
      </trkpt>
      <trkpt lat="44.18476" lon="5.2891">
        <ele>1248</ele>
        <time>2026-05-14T13:13:43.000Z</time>
      </trkpt>
      <trkpt lat="44.18475" lon="5.28909">
        <ele>1248.1</ele>
        <time>2026-05-14T13:13:44.000Z</time>
      </trkpt>
      <trkpt lat="44.18474" lon="5.28907">
        <ele>1248.5</ele>
        <time>2026-05-14T13:13:45.000Z</time>
      </trkpt>
      <trkpt lat="44.18474" lon="5.28906">
        <ele>1248.2</ele>
        <time>2026-05-14T13:13:46.000Z</time>
      </trkpt>
      <trkpt lat="44.18472" lon="5.28904">
        <ele>1247.8</ele>
        <time>2026-05-14T13:13:47.000Z</time>
      </trkpt>
      <trkpt lat="44.18471" lon="5.28902">
        <ele>1247.5</ele>
        <time>2026-05-14T13:13:48.000Z</time>
      </trkpt>
      <trkpt lat="44.18469" lon="5.28899">
        <ele>1247.2</ele>
        <time>2026-05-14T13:13:49.000Z</time>
      </trkpt>
      <trkpt lat="44.18468" lon="5.28897">
        <ele>1247</ele>
        <time>2026-05-14T13:13:50.000Z</time>
      </trkpt>
      <trkpt lat="44.18467" lon="5.28895">
        <ele>1246.8</ele>
        <time>2026-05-14T13:13:51.000Z</time>
      </trkpt>
      <trkpt lat="44.18466" lon="5.28894">
        <ele>1246.6</ele>
        <time>2026-05-14T13:13:52.000Z</time>
      </trkpt>
      <trkpt lat="44.18464" lon="5.28893">
        <ele>1246.4</ele>
        <time>2026-05-14T13:13:53.000Z</time>
      </trkpt>
      <trkpt lat="44.18464" lon="5.28891">
        <ele>1246.2</ele>
        <time>2026-05-14T13:13:54.000Z</time>
      </trkpt>
      <trkpt lat="44.18464" lon="5.28889">
        <ele>1245.8</ele>
        <time>2026-05-14T13:13:55.000Z</time>
      </trkpt>
      <trkpt lat="44.18464" lon="5.28887">
        <ele>1245.2</ele>
        <time>2026-05-14T13:13:56.000Z</time>
      </trkpt>
      <trkpt lat="44.18464" lon="5.28886">
        <ele>1244.5</ele>
        <time>2026-05-14T13:13:57.000Z</time>
      </trkpt>
      <trkpt lat="44.18463" lon="5.28883">
        <ele>1243.8</ele>
        <time>2026-05-14T13:13:58.000Z</time>
      </trkpt>
      <trkpt lat="44.18462" lon="5.28882">
        <ele>1243.7</ele>
        <time>2026-05-14T13:13:59.000Z</time>
      </trkpt>
      <trkpt lat="44.18461" lon="5.28881">
        <ele>1242.9</ele>
        <time>2026-05-14T13:14:00.000Z</time>
      </trkpt>
      <trkpt lat="44.18459" lon="5.2888">
        <ele>1242.5</ele>
        <time>2026-05-14T13:14:01.000Z</time>
      </trkpt>
      <trkpt lat="44.18458" lon="5.28879">
        <ele>1242.2</ele>
        <time>2026-05-14T13:14:02.000Z</time>
      </trkpt>
      <trkpt lat="44.18457" lon="5.28877">
        <ele>1241.7</ele>
        <time>2026-05-14T13:14:03.000Z</time>
      </trkpt>
      <trkpt lat="44.18455" lon="5.28875">
        <ele>1241.3</ele>
        <time>2026-05-14T13:14:04.000Z</time>
      </trkpt>
      <trkpt lat="44.18455" lon="5.28874">
        <ele>1241.2</ele>
        <time>2026-05-14T13:14:05.000Z</time>
      </trkpt>
      <trkpt lat="44.18455" lon="5.28873">
        <ele>1241.3</ele>
        <time>2026-05-14T13:14:06.000Z</time>
      </trkpt>
      <trkpt lat="44.18455" lon="5.28872">
        <ele>1240.7</ele>
        <time>2026-05-14T13:14:07.000Z</time>
      </trkpt>
      <trkpt lat="44.18455" lon="5.2887">
        <ele>1240.4</ele>
        <time>2026-05-14T13:14:08.000Z</time>
      </trkpt>
      <trkpt lat="44.18455" lon="5.28869">
        <ele>1240.6</ele>
        <time>2026-05-14T13:14:09.000Z</time>
      </trkpt>
      <trkpt lat="44.18455" lon="5.28867">
        <ele>1240.8</ele>
        <time>2026-05-14T13:14:10.000Z</time>
      </trkpt>
      <trkpt lat="44.18455" lon="5.28866">
        <ele>1240.4</ele>
        <time>2026-05-14T13:14:11.000Z</time>
      </trkpt>
      <trkpt lat="44.18455" lon="5.28865">
        <ele>1240.5</ele>
        <time>2026-05-14T13:14:12.000Z</time>
      </trkpt>
      <trkpt lat="44.18455" lon="5.28864">
        <ele>1240.9</ele>
        <time>2026-05-14T13:14:13.000Z</time>
      </trkpt>
      <trkpt lat="44.18454" lon="5.28863">
        <ele>1240.7</ele>
        <time>2026-05-14T13:14:14.000Z</time>
      </trkpt>
      <trkpt lat="44.18453" lon="5.28861">
        <ele>1240.7</ele>
        <time>2026-05-14T13:14:15.000Z</time>
      </trkpt>
      <trkpt lat="44.18452" lon="5.28861">
        <ele>1240.7</ele>
        <time>2026-05-14T13:14:16.000Z</time>
      </trkpt>
      <trkpt lat="44.18453" lon="5.2886">
        <ele>1240.7</ele>
        <time>2026-05-14T13:14:17.000Z</time>
      </trkpt>
      <trkpt lat="44.18453" lon="5.28858">
        <ele>1240.9</ele>
        <time>2026-05-14T13:14:18.000Z</time>
      </trkpt>
      <trkpt lat="44.18454" lon="5.28856">
        <ele>1241.5</ele>
        <time>2026-05-14T13:14:19.000Z</time>
      </trkpt>
      <trkpt lat="44.18454" lon="5.28854">
        <ele>1242.2</ele>
        <time>2026-05-14T13:14:20.000Z</time>
      </trkpt>
      <trkpt lat="44.18455" lon="5.28852">
        <ele>1242.2</ele>
        <time>2026-05-14T13:14:21.000Z</time>
      </trkpt>
      <trkpt lat="44.18455" lon="5.2885">
        <ele>1241.8</ele>
        <time>2026-05-14T13:14:22.000Z</time>
      </trkpt>
      <trkpt lat="44.18455" lon="5.28849">
        <ele>1241.4</ele>
        <time>2026-05-14T13:14:23.000Z</time>
      </trkpt>
      <trkpt lat="44.18456" lon="5.28849">
        <ele>1240.9</ele>
        <time>2026-05-14T13:14:24.000Z</time>
      </trkpt>
      <trkpt lat="44.18456" lon="5.28849">
        <ele>1241.1</ele>
        <time>2026-05-14T13:14:25.000Z</time>
      </trkpt>
      <trkpt lat="44.18457" lon="5.28848">
        <ele>1241.4</ele>
        <time>2026-05-14T13:14:26.000Z</time>
      </trkpt>
      <trkpt lat="44.18457" lon="5.28847">
        <ele>1241.2</ele>
        <time>2026-05-14T13:14:27.000Z</time>
      </trkpt>
      <trkpt lat="44.18458" lon="5.28846">
        <ele>1241.4</ele>
        <time>2026-05-14T13:14:28.000Z</time>
      </trkpt>
      <trkpt lat="44.18459" lon="5.28845">
        <ele>1241.4</ele>
        <time>2026-05-14T13:14:29.000Z</time>
      </trkpt>
      <trkpt lat="44.1846" lon="5.28844">
        <ele>1240.8</ele>
        <time>2026-05-14T13:14:30.000Z</time>
      </trkpt>
      <trkpt lat="44.18462" lon="5.28843">
        <ele>1240.2</ele>
        <time>2026-05-14T13:14:31.000Z</time>
      </trkpt>
      <trkpt lat="44.18462" lon="5.28841">
        <ele>1239.8</ele>
        <time>2026-05-14T13:14:32.000Z</time>
      </trkpt>
      <trkpt lat="44.18463" lon="5.2884">
        <ele>1239.8</ele>
        <time>2026-05-14T13:14:33.000Z</time>
      </trkpt>
      <trkpt lat="44.18465" lon="5.28839">
        <ele>1239.6</ele>
        <time>2026-05-14T13:14:34.000Z</time>
      </trkpt>
      <trkpt lat="44.18465" lon="5.28839">
        <ele>1239.4</ele>
        <time>2026-05-14T13:14:35.000Z</time>
      </trkpt>
      <trkpt lat="44.18467" lon="5.28838">
        <ele>1239.5</ele>
        <time>2026-05-14T13:14:36.000Z</time>
      </trkpt>
      <trkpt lat="44.18467" lon="5.28838">
        <ele>1239.3</ele>
        <time>2026-05-14T13:14:37.000Z</time>
      </trkpt>
      <trkpt lat="44.18468" lon="5.28837">
        <ele>1239.4</ele>
        <time>2026-05-14T13:14:38.000Z</time>
      </trkpt>
      <trkpt lat="44.18468" lon="5.28836">
        <ele>1239.2</ele>
        <time>2026-05-14T13:14:39.000Z</time>
      </trkpt>
      <trkpt lat="44.18469" lon="5.28835">
        <ele>1239</ele>
        <time>2026-05-14T13:14:40.000Z</time>
      </trkpt>
      <trkpt lat="44.1847" lon="5.28834">
        <ele>1238.9</ele>
        <time>2026-05-14T13:14:41.000Z</time>
      </trkpt>
      <trkpt lat="44.1847" lon="5.28833">
        <ele>1239.1</ele>
        <time>2026-05-14T13:14:42.000Z</time>
      </trkpt>
      <trkpt lat="44.1847" lon="5.28833">
        <ele>1238.7</ele>
        <time>2026-05-14T13:14:43.000Z</time>
      </trkpt>
      <trkpt lat="44.18471" lon="5.28832">
        <ele>1239</ele>
        <time>2026-05-14T13:14:44.000Z</time>
      </trkpt>
      <trkpt lat="44.18472" lon="5.2883">
        <ele>1238.9</ele>
        <time>2026-05-14T13:14:45.000Z</time>
      </trkpt>
      <trkpt lat="44.18473" lon="5.28829">
        <ele>1238.8</ele>
        <time>2026-05-14T13:14:46.000Z</time>
      </trkpt>
      <trkpt lat="44.18474" lon="5.28828">
        <ele>1238.9</ele>
        <time>2026-05-14T13:14:47.000Z</time>
      </trkpt>
      <trkpt lat="44.18474" lon="5.28828">
        <ele>1238.4</ele>
        <time>2026-05-14T13:14:48.000Z</time>
      </trkpt>
      <trkpt lat="44.18475" lon="5.28826">
        <ele>1238.3</ele>
        <time>2026-05-14T13:14:49.000Z</time>
      </trkpt>
      <trkpt lat="44.18476" lon="5.28826">
        <ele>1238.6</ele>
        <time>2026-05-14T13:14:50.000Z</time>
      </trkpt>
      <trkpt lat="44.18478" lon="5.28825">
        <ele>1238.6</ele>
        <time>2026-05-14T13:14:51.000Z</time>
      </trkpt>
      <trkpt lat="44.1848" lon="5.28826">
        <ele>1238.6</ele>
        <time>2026-05-14T13:14:52.000Z</time>
      </trkpt>
      <trkpt lat="44.18482" lon="5.28826">
        <ele>1238</ele>
        <time>2026-05-14T13:14:53.000Z</time>
      </trkpt>
      <trkpt lat="44.18484" lon="5.28825">
        <ele>1238.8</ele>
        <time>2026-05-14T13:14:54.000Z</time>
      </trkpt>
      <trkpt lat="44.18484" lon="5.28825">
        <ele>1238.4</ele>
        <time>2026-05-14T13:14:55.000Z</time>
      </trkpt>
      <trkpt lat="44.18484" lon="5.28822">
        <ele>1238</ele>
        <time>2026-05-14T13:14:56.000Z</time>
      </trkpt>
      <trkpt lat="44.18484" lon="5.2882">
        <ele>1238.1</ele>
        <time>2026-05-14T13:14:57.000Z</time>
      </trkpt>
      <trkpt lat="44.18485" lon="5.28819">
        <ele>1238.4</ele>
        <time>2026-05-14T13:14:58.000Z</time>
      </trkpt>
      <trkpt lat="44.18486" lon="5.28817">
        <ele>1238.6</ele>
        <time>2026-05-14T13:14:59.000Z</time>
      </trkpt>
      <trkpt lat="44.18486" lon="5.28816">
        <ele>1238.4</ele>
        <time>2026-05-14T13:15:00.000Z</time>
      </trkpt>
      <trkpt lat="44.18487" lon="5.28814">
        <ele>1238.4</ele>
        <time>2026-05-14T13:15:01.000Z</time>
      </trkpt>
      <trkpt lat="44.18488" lon="5.28814">
        <ele>1238.4</ele>
        <time>2026-05-14T13:15:02.000Z</time>
      </trkpt>
      <trkpt lat="44.18489" lon="5.28814">
        <ele>1238.4</ele>
        <time>2026-05-14T13:15:03.000Z</time>
      </trkpt>
      <trkpt lat="44.18489" lon="5.28812">
        <ele>1238.4</ele>
        <time>2026-05-14T13:15:04.000Z</time>
      </trkpt>
      <trkpt lat="44.1849" lon="5.28811">
        <ele>1238.3</ele>
        <time>2026-05-14T13:15:05.000Z</time>
      </trkpt>
      <trkpt lat="44.18491" lon="5.2881">
        <ele>1238.4</ele>
        <time>2026-05-14T13:15:06.000Z</time>
      </trkpt>
      <trkpt lat="44.18491" lon="5.28808">
        <ele>1238.3</ele>
        <time>2026-05-14T13:15:07.000Z</time>
      </trkpt>
      <trkpt lat="44.18492" lon="5.28806">
        <ele>1238.5</ele>
        <time>2026-05-14T13:15:08.000Z</time>
      </trkpt>
      <trkpt lat="44.18494" lon="5.28806">
        <ele>1238.3</ele>
        <time>2026-05-14T13:15:09.000Z</time>
      </trkpt>
      <trkpt lat="44.18495" lon="5.28805">
        <ele>1237.6</ele>
        <time>2026-05-14T13:15:10.000Z</time>
      </trkpt>
      <trkpt lat="44.18496" lon="5.28804">
        <ele>1237.4</ele>
        <time>2026-05-14T13:15:11.000Z</time>
      </trkpt>
      <trkpt lat="44.18496" lon="5.28804">
        <ele>1237.5</ele>
        <time>2026-05-14T13:15:12.000Z</time>
      </trkpt>
      <trkpt lat="44.18496" lon="5.28803">
        <ele>1237.4</ele>
        <time>2026-05-14T13:15:13.000Z</time>
      </trkpt>
      <trkpt lat="44.18496" lon="5.28802">
        <ele>1237.5</ele>
        <time>2026-05-14T13:15:14.000Z</time>
      </trkpt>
      <trkpt lat="44.18497" lon="5.28801">
        <ele>1237.1</ele>
        <time>2026-05-14T13:15:15.000Z</time>
      </trkpt>
      <trkpt lat="44.18498" lon="5.28799">
        <ele>1236.9</ele>
        <time>2026-05-14T13:15:16.000Z</time>
      </trkpt>
      <trkpt lat="44.18499" lon="5.28798">
        <ele>1236.5</ele>
        <time>2026-05-14T13:15:17.000Z</time>
      </trkpt>
      <trkpt lat="44.185" lon="5.28797">
        <ele>1236.1</ele>
        <time>2026-05-14T13:15:18.000Z</time>
      </trkpt>
      <trkpt lat="44.18501" lon="5.28797">
        <ele>1236.4</ele>
        <time>2026-05-14T13:15:19.000Z</time>
      </trkpt>
      <trkpt lat="44.18502" lon="5.28795">
        <ele>1236.6</ele>
        <time>2026-05-14T13:15:20.000Z</time>
      </trkpt>
      <trkpt lat="44.18502" lon="5.28794">
        <ele>1236.7</ele>
        <time>2026-05-14T13:15:21.000Z</time>
      </trkpt>
      <trkpt lat="44.18502" lon="5.28793">
        <ele>1236.5</ele>
        <time>2026-05-14T13:15:22.000Z</time>
      </trkpt>
      <trkpt lat="44.18502" lon="5.28792">
        <ele>1236.2</ele>
        <time>2026-05-14T13:15:23.000Z</time>
      </trkpt>
      <trkpt lat="44.18502" lon="5.28791">
        <ele>1236.1</ele>
        <time>2026-05-14T13:15:24.000Z</time>
      </trkpt>
      <trkpt lat="44.18502" lon="5.2879">
        <ele>1235.9</ele>
        <time>2026-05-14T13:15:25.000Z</time>
      </trkpt>
      <trkpt lat="44.18502" lon="5.28789">
        <ele>1235.5</ele>
        <time>2026-05-14T13:15:26.000Z</time>
      </trkpt>
      <trkpt lat="44.18503" lon="5.28788">
        <ele>1234.8</ele>
        <time>2026-05-14T13:15:27.000Z</time>
      </trkpt>
      <trkpt lat="44.18504" lon="5.28787">
        <ele>1234.7</ele>
        <time>2026-05-14T13:15:28.000Z</time>
      </trkpt>
      <trkpt lat="44.18505" lon="5.28787">
        <ele>1234.3</ele>
        <time>2026-05-14T13:15:29.000Z</time>
      </trkpt>
      <trkpt lat="44.18505" lon="5.28785">
        <ele>1233.9</ele>
        <time>2026-05-14T13:15:30.000Z</time>
      </trkpt>
      <trkpt lat="44.18506" lon="5.28784">
        <ele>1233.2</ele>
        <time>2026-05-14T13:15:31.000Z</time>
      </trkpt>
      <trkpt lat="44.18507" lon="5.28782">
        <ele>1232.8</ele>
        <time>2026-05-14T13:15:32.000Z</time>
      </trkpt>
      <trkpt lat="44.18508" lon="5.28779">
        <ele>1233.1</ele>
        <time>2026-05-14T13:15:33.000Z</time>
      </trkpt>
      <trkpt lat="44.18509" lon="5.28776">
        <ele>1233.2</ele>
        <time>2026-05-14T13:15:34.000Z</time>
      </trkpt>
      <trkpt lat="44.1851" lon="5.28774">
        <ele>1233.5</ele>
        <time>2026-05-14T13:15:35.000Z</time>
      </trkpt>
      <trkpt lat="44.18511" lon="5.28773">
        <ele>1233.6</ele>
        <time>2026-05-14T13:15:36.000Z</time>
      </trkpt>
      <trkpt lat="44.18511" lon="5.28771">
        <ele>1234</ele>
        <time>2026-05-14T13:15:37.000Z</time>
      </trkpt>
      <trkpt lat="44.18512" lon="5.2877">
        <ele>1234.6</ele>
        <time>2026-05-14T13:15:38.000Z</time>
      </trkpt>
      <trkpt lat="44.18512" lon="5.28769">
        <ele>1234.7</ele>
        <time>2026-05-14T13:15:39.000Z</time>
      </trkpt>
      <trkpt lat="44.18513" lon="5.28768">
        <ele>1234.6</ele>
        <time>2026-05-14T13:15:40.000Z</time>
      </trkpt>
      <trkpt lat="44.18514" lon="5.28768">
        <ele>1234.6</ele>
        <time>2026-05-14T13:15:41.000Z</time>
      </trkpt>
      <trkpt lat="44.18515" lon="5.28766">
        <ele>1234.4</ele>
        <time>2026-05-14T13:15:42.000Z</time>
      </trkpt>
      <trkpt lat="44.18516" lon="5.28765">
        <ele>1234.3</ele>
        <time>2026-05-14T13:15:43.000Z</time>
      </trkpt>
      <trkpt lat="44.18517" lon="5.28764">
        <ele>1234</ele>
        <time>2026-05-14T13:15:44.000Z</time>
      </trkpt>
      <trkpt lat="44.18518" lon="5.28763">
        <ele>1234</ele>
        <time>2026-05-14T13:15:45.000Z</time>
      </trkpt>
      <trkpt lat="44.18519" lon="5.28762">
        <ele>1234.1</ele>
        <time>2026-05-14T13:15:46.000Z</time>
      </trkpt>
      <trkpt lat="44.1852" lon="5.28761">
        <ele>1233.8</ele>
        <time>2026-05-14T13:15:47.000Z</time>
      </trkpt>
      <trkpt lat="44.18521" lon="5.28761">
        <ele>1233.5</ele>
        <time>2026-05-14T13:15:48.000Z</time>
      </trkpt>
      <trkpt lat="44.1852" lon="5.2876">
        <ele>1232.8</ele>
        <time>2026-05-14T13:15:49.000Z</time>
      </trkpt>
      <trkpt lat="44.1852" lon="5.2876">
        <ele>1232.2</ele>
        <time>2026-05-14T13:15:50.000Z</time>
      </trkpt>
      <trkpt lat="44.1852" lon="5.28759">
        <ele>1231.8</ele>
        <time>2026-05-14T13:15:51.000Z</time>
      </trkpt>
      <trkpt lat="44.1852" lon="5.28758">
        <ele>1231.8</ele>
        <time>2026-05-14T13:15:52.000Z</time>
      </trkpt>
      <trkpt lat="44.18521" lon="5.28757">
        <ele>1231.7</ele>
        <time>2026-05-14T13:15:53.000Z</time>
      </trkpt>
      <trkpt lat="44.18522" lon="5.28755">
        <ele>1231.3</ele>
        <time>2026-05-14T13:15:54.000Z</time>
      </trkpt>
      <trkpt lat="44.18522" lon="5.28754">
        <ele>1231.2</ele>
        <time>2026-05-14T13:15:55.000Z</time>
      </trkpt>
      <trkpt lat="44.18523" lon="5.28754">
        <ele>1231.2</ele>
        <time>2026-05-14T13:15:56.000Z</time>
      </trkpt>
      <trkpt lat="44.18523" lon="5.28754">
        <ele>1231.3</ele>
        <time>2026-05-14T13:15:57.000Z</time>
      </trkpt>
      <trkpt lat="44.18524" lon="5.28754">
        <ele>1231.3</ele>
        <time>2026-05-14T13:15:58.000Z</time>
      </trkpt>
      <trkpt lat="44.18525" lon="5.28753">
        <ele>1231.2</ele>
        <time>2026-05-14T13:15:59.000Z</time>
      </trkpt>
      <trkpt lat="44.18526" lon="5.28753">
        <ele>1231</ele>
        <time>2026-05-14T13:16:00.000Z</time>
      </trkpt>
      <trkpt lat="44.18527" lon="5.28754">
        <ele>1230.8</ele>
        <time>2026-05-14T13:16:01.000Z</time>
      </trkpt>
      <trkpt lat="44.18527" lon="5.28754">
        <ele>1230.9</ele>
        <time>2026-05-14T13:16:02.000Z</time>
      </trkpt>
      <trkpt lat="44.18528" lon="5.28753">
        <ele>1230.8</ele>
        <time>2026-05-14T13:16:03.000Z</time>
      </trkpt>
      <trkpt lat="44.18529" lon="5.28752">
        <ele>1230.9</ele>
        <time>2026-05-14T13:16:04.000Z</time>
      </trkpt>
      <trkpt lat="44.18529" lon="5.28751">
        <ele>1230.6</ele>
        <time>2026-05-14T13:16:05.000Z</time>
      </trkpt>
      <trkpt lat="44.1853" lon="5.2875">
        <ele>1230.5</ele>
        <time>2026-05-14T13:16:06.000Z</time>
      </trkpt>
      <trkpt lat="44.1853" lon="5.28749">
        <ele>1230.8</ele>
        <time>2026-05-14T13:16:07.000Z</time>
      </trkpt>
      <trkpt lat="44.18532" lon="5.28749">
        <ele>1231.3</ele>
        <time>2026-05-14T13:16:08.000Z</time>
      </trkpt>
      <trkpt lat="44.18532" lon="5.28749">
        <ele>1231.9</ele>
        <time>2026-05-14T13:16:09.000Z</time>
      </trkpt>
      <trkpt lat="44.18532" lon="5.28748">
        <ele>1232.1</ele>
        <time>2026-05-14T13:16:10.000Z</time>
      </trkpt>
      <trkpt lat="44.18533" lon="5.28747">
        <ele>1231.9</ele>
        <time>2026-05-14T13:16:11.000Z</time>
      </trkpt>
      <trkpt lat="44.18534" lon="5.28746">
        <ele>1231.7</ele>
        <time>2026-05-14T13:16:12.000Z</time>
      </trkpt>
      <trkpt lat="44.18535" lon="5.28745">
        <ele>1231.6</ele>
        <time>2026-05-14T13:16:13.000Z</time>
      </trkpt>
      <trkpt lat="44.18536" lon="5.28744">
        <ele>1231.5</ele>
        <time>2026-05-14T13:16:14.000Z</time>
      </trkpt>
      <trkpt lat="44.18537" lon="5.28743">
        <ele>1231.5</ele>
        <time>2026-05-14T13:16:15.000Z</time>
      </trkpt>
      <trkpt lat="44.18537" lon="5.28741">
        <ele>1230.7</ele>
        <time>2026-05-14T13:16:16.000Z</time>
      </trkpt>
      <trkpt lat="44.18537" lon="5.28739">
        <ele>1229.9</ele>
        <time>2026-05-14T13:16:17.000Z</time>
      </trkpt>
      <trkpt lat="44.18538" lon="5.28737">
        <ele>1230.3</ele>
        <time>2026-05-14T13:16:18.000Z</time>
      </trkpt>
      <trkpt lat="44.18539" lon="5.28735">
        <ele>1230.4</ele>
        <time>2026-05-14T13:16:19.000Z</time>
      </trkpt>
      <trkpt lat="44.18539" lon="5.28734">
        <ele>1230</ele>
        <time>2026-05-14T13:16:20.000Z</time>
      </trkpt>
      <trkpt lat="44.1854" lon="5.28734">
        <ele>1229.4</ele>
        <time>2026-05-14T13:16:21.000Z</time>
      </trkpt>
      <trkpt lat="44.1854" lon="5.28733">
        <ele>1228.8</ele>
        <time>2026-05-14T13:16:22.000Z</time>
      </trkpt>
      <trkpt lat="44.18541" lon="5.28731">
        <ele>1228.5</ele>
        <time>2026-05-14T13:16:23.000Z</time>
      </trkpt>
      <trkpt lat="44.18542" lon="5.2873">
        <ele>1228.8</ele>
        <time>2026-05-14T13:16:24.000Z</time>
      </trkpt>
      <trkpt lat="44.18542" lon="5.28729">
        <ele>1228.8</ele>
        <time>2026-05-14T13:16:25.000Z</time>
      </trkpt>
      <trkpt lat="44.18543" lon="5.28729">
        <ele>1228.6</ele>
        <time>2026-05-14T13:16:26.000Z</time>
      </trkpt>
      <trkpt lat="44.18544" lon="5.28728">
        <ele>1229.4</ele>
        <time>2026-05-14T13:16:27.000Z</time>
      </trkpt>
      <trkpt lat="44.18545" lon="5.28726">
        <ele>1229.3</ele>
        <time>2026-05-14T13:16:28.000Z</time>
      </trkpt>
      <trkpt lat="44.18546" lon="5.28723">
        <ele>1229.3</ele>
        <time>2026-05-14T13:16:29.000Z</time>
      </trkpt>
      <trkpt lat="44.18546" lon="5.28721">
        <ele>1229.2</ele>
        <time>2026-05-14T13:16:30.000Z</time>
      </trkpt>
      <trkpt lat="44.18547" lon="5.2872">
        <ele>1228.7</ele>
        <time>2026-05-14T13:16:31.000Z</time>
      </trkpt>
      <trkpt lat="44.18548" lon="5.28719">
        <ele>1228.3</ele>
        <time>2026-05-14T13:16:32.000Z</time>
      </trkpt>
      <trkpt lat="44.18548" lon="5.28718">
        <ele>1227.4</ele>
        <time>2026-05-14T13:16:33.000Z</time>
      </trkpt>
      <trkpt lat="44.18549" lon="5.28717">
        <ele>1226.9</ele>
        <time>2026-05-14T13:16:34.000Z</time>
      </trkpt>
      <trkpt lat="44.1855" lon="5.28716">
        <ele>1226.4</ele>
        <time>2026-05-14T13:16:35.000Z</time>
      </trkpt>
      <trkpt lat="44.18551" lon="5.28714">
        <ele>1226.1</ele>
        <time>2026-05-14T13:16:36.000Z</time>
      </trkpt>
      <trkpt lat="44.18552" lon="5.28711">
        <ele>1226</ele>
        <time>2026-05-14T13:16:37.000Z</time>
      </trkpt>
      <trkpt lat="44.18553" lon="5.2871">
        <ele>1225.2</ele>
        <time>2026-05-14T13:16:38.000Z</time>
      </trkpt>
      <trkpt lat="44.18554" lon="5.28709">
        <ele>1224.6</ele>
        <time>2026-05-14T13:16:39.000Z</time>
      </trkpt>
      <trkpt lat="44.18555" lon="5.28707">
        <ele>1223.3</ele>
        <time>2026-05-14T13:16:40.000Z</time>
      </trkpt>
      <trkpt lat="44.18555" lon="5.28705">
        <ele>1222.9</ele>
        <time>2026-05-14T13:16:41.000Z</time>
      </trkpt>
      <trkpt lat="44.18555" lon="5.28704">
        <ele>1222.6</ele>
        <time>2026-05-14T13:16:42.000Z</time>
      </trkpt>
      <trkpt lat="44.18556" lon="5.28703">
        <ele>1222.6</ele>
        <time>2026-05-14T13:16:43.000Z</time>
      </trkpt>
      <trkpt lat="44.18556" lon="5.28702">
        <ele>1222.1</ele>
        <time>2026-05-14T13:16:44.000Z</time>
      </trkpt>
      <trkpt lat="44.18557" lon="5.28701">
        <ele>1222</ele>
        <time>2026-05-14T13:16:45.000Z</time>
      </trkpt>
      <trkpt lat="44.18557" lon="5.28701">
        <ele>1221.8</ele>
        <time>2026-05-14T13:16:46.000Z</time>
      </trkpt>
      <trkpt lat="44.18557" lon="5.28699">
        <ele>1221.5</ele>
        <time>2026-05-14T13:16:47.000Z</time>
      </trkpt>
      <trkpt lat="44.18557" lon="5.28698">
        <ele>1221.3</ele>
        <time>2026-05-14T13:16:48.000Z</time>
      </trkpt>
      <trkpt lat="44.18557" lon="5.28696">
        <ele>1221</ele>
        <time>2026-05-14T13:16:49.000Z</time>
      </trkpt>
      <trkpt lat="44.18558" lon="5.28694">
        <ele>1220.7</ele>
        <time>2026-05-14T13:16:50.000Z</time>
      </trkpt>
      <trkpt lat="44.18558" lon="5.28692">
        <ele>1220.5</ele>
        <time>2026-05-14T13:16:51.000Z</time>
      </trkpt>
      <trkpt lat="44.18558" lon="5.2869">
        <ele>1220.4</ele>
        <time>2026-05-14T13:16:52.000Z</time>
      </trkpt>
      <trkpt lat="44.18559" lon="5.28689">
        <ele>1220.4</ele>
        <time>2026-05-14T13:16:53.000Z</time>
      </trkpt>
      <trkpt lat="44.1856" lon="5.28688">
        <ele>1220.9</ele>
        <time>2026-05-14T13:16:54.000Z</time>
      </trkpt>
      <trkpt lat="44.18562" lon="5.28687">
        <ele>1221.6</ele>
        <time>2026-05-14T13:16:55.000Z</time>
      </trkpt>
      <trkpt lat="44.18563" lon="5.28686">
        <ele>1221.8</ele>
        <time>2026-05-14T13:16:56.000Z</time>
      </trkpt>
      <trkpt lat="44.18563" lon="5.28684">
        <ele>1221.9</ele>
        <time>2026-05-14T13:16:57.000Z</time>
      </trkpt>
      <trkpt lat="44.18564" lon="5.28683">
        <ele>1221.7</ele>
        <time>2026-05-14T13:16:58.000Z</time>
      </trkpt>
      <trkpt lat="44.18566" lon="5.28683">
        <ele>1222.3</ele>
        <time>2026-05-14T13:16:59.000Z</time>
      </trkpt>
      <trkpt lat="44.18566" lon="5.28682">
        <ele>1222.1</ele>
        <time>2026-05-14T13:17:00.000Z</time>
      </trkpt>
      <trkpt lat="44.18567" lon="5.28682">
        <ele>1221.3</ele>
        <time>2026-05-14T13:17:01.000Z</time>
      </trkpt>
      <trkpt lat="44.18567" lon="5.2868">
        <ele>1220.5</ele>
        <time>2026-05-14T13:17:02.000Z</time>
      </trkpt>
      <trkpt lat="44.18567" lon="5.28679">
        <ele>1219.1</ele>
        <time>2026-05-14T13:17:03.000Z</time>
      </trkpt>
      <trkpt lat="44.18567" lon="5.28679">
        <ele>1218.2</ele>
        <time>2026-05-14T13:17:04.000Z</time>
      </trkpt>
      <trkpt lat="44.18567" lon="5.28678">
        <ele>1217.6</ele>
        <time>2026-05-14T13:17:05.000Z</time>
      </trkpt>
      <trkpt lat="44.18568" lon="5.28677">
        <ele>1217.4</ele>
        <time>2026-05-14T13:17:06.000Z</time>
      </trkpt>
      <trkpt lat="44.18569" lon="5.28675">
        <ele>1217.2</ele>
        <time>2026-05-14T13:17:07.000Z</time>
      </trkpt>
      <trkpt lat="44.1857" lon="5.28674">
        <ele>1217.1</ele>
        <time>2026-05-14T13:17:08.000Z</time>
      </trkpt>
      <trkpt lat="44.18571" lon="5.28673">
        <ele>1217</ele>
        <time>2026-05-14T13:17:09.000Z</time>
      </trkpt>
      <trkpt lat="44.18572" lon="5.28672">
        <ele>1216.8</ele>
        <time>2026-05-14T13:17:10.000Z</time>
      </trkpt>
      <trkpt lat="44.18573" lon="5.28671">
        <ele>1216.1</ele>
        <time>2026-05-14T13:17:11.000Z</time>
      </trkpt>
      <trkpt lat="44.18574" lon="5.28669">
        <ele>1215.5</ele>
        <time>2026-05-14T13:17:12.000Z</time>
      </trkpt>
      <trkpt lat="44.18575" lon="5.28668">
        <ele>1215.5</ele>
        <time>2026-05-14T13:17:13.000Z</time>
      </trkpt>
      <trkpt lat="44.18575" lon="5.28665">
        <ele>1215.4</ele>
        <time>2026-05-14T13:17:14.000Z</time>
      </trkpt>
      <trkpt lat="44.18576" lon="5.28663">
        <ele>1215.4</ele>
        <time>2026-05-14T13:17:15.000Z</time>
      </trkpt>
      <trkpt lat="44.18577" lon="5.28662">
        <ele>1214.6</ele>
        <time>2026-05-14T13:17:16.000Z</time>
      </trkpt>
      <trkpt lat="44.18578" lon="5.28661">
        <ele>1215.1</ele>
        <time>2026-05-14T13:17:17.000Z</time>
      </trkpt>
      <trkpt lat="44.18579" lon="5.28661">
        <ele>1214.9</ele>
        <time>2026-05-14T13:17:18.000Z</time>
      </trkpt>
      <trkpt lat="44.18579" lon="5.28661">
        <ele>1214.9</ele>
        <time>2026-05-14T13:17:19.000Z</time>
      </trkpt>
      <trkpt lat="44.1858" lon="5.28661">
        <ele>1214.8</ele>
        <time>2026-05-14T13:17:20.000Z</time>
      </trkpt>
      <trkpt lat="44.1858" lon="5.28661">
        <ele>1214.8</ele>
        <time>2026-05-14T13:17:21.000Z</time>
      </trkpt>
      <trkpt lat="44.1858" lon="5.2866">
        <ele>1215</ele>
        <time>2026-05-14T13:17:22.000Z</time>
      </trkpt>
      <trkpt lat="44.18581" lon="5.28659">
        <ele>1215.3</ele>
        <time>2026-05-14T13:17:23.000Z</time>
      </trkpt>
      <trkpt lat="44.18583" lon="5.28656">
        <ele>1214.3</ele>
        <time>2026-05-14T13:17:24.000Z</time>
      </trkpt>
      <trkpt lat="44.18584" lon="5.28656">
        <ele>1214.3</ele>
        <time>2026-05-14T13:17:25.000Z</time>
      </trkpt>
      <trkpt lat="44.18584" lon="5.28655">
        <ele>1214</ele>
        <time>2026-05-14T13:17:26.000Z</time>
      </trkpt>
      <trkpt lat="44.18584" lon="5.28656">
        <ele>1213.8</ele>
        <time>2026-05-14T13:17:27.000Z</time>
      </trkpt>
      <trkpt lat="44.18585" lon="5.28656">
        <ele>1213.7</ele>
        <time>2026-05-14T13:17:28.000Z</time>
      </trkpt>
      <trkpt lat="44.18586" lon="5.28656">
        <ele>1213.6</ele>
        <time>2026-05-14T13:17:29.000Z</time>
      </trkpt>
      <trkpt lat="44.18588" lon="5.28656">
        <ele>1213.7</ele>
        <time>2026-05-14T13:17:30.000Z</time>
      </trkpt>
      <trkpt lat="44.18589" lon="5.28654">
        <ele>1213</ele>
        <time>2026-05-14T13:17:31.000Z</time>
      </trkpt>
      <trkpt lat="44.1859" lon="5.28651">
        <ele>1212.8</ele>
        <time>2026-05-14T13:17:32.000Z</time>
      </trkpt>
      <trkpt lat="44.18592" lon="5.28648">
        <ele>1212.7</ele>
        <time>2026-05-14T13:17:33.000Z</time>
      </trkpt>
      <trkpt lat="44.18593" lon="5.28647">
        <ele>1212.8</ele>
        <time>2026-05-14T13:17:34.000Z</time>
      </trkpt>
      <trkpt lat="44.18594" lon="5.28645">
        <ele>1212.5</ele>
        <time>2026-05-14T13:17:35.000Z</time>
      </trkpt>
      <trkpt lat="44.18596" lon="5.28645">
        <ele>1212.3</ele>
        <time>2026-05-14T13:17:36.000Z</time>
      </trkpt>
      <trkpt lat="44.18597" lon="5.28644">
        <ele>1212.3</ele>
        <time>2026-05-14T13:17:37.000Z</time>
      </trkpt>
      <trkpt lat="44.18599" lon="5.28644">
        <ele>1212.7</ele>
        <time>2026-05-14T13:17:38.000Z</time>
      </trkpt>
      <trkpt lat="44.186" lon="5.28644">
        <ele>1213.2</ele>
        <time>2026-05-14T13:17:39.000Z</time>
      </trkpt>
      <trkpt lat="44.18601" lon="5.28645">
        <ele>1213.1</ele>
        <time>2026-05-14T13:17:40.000Z</time>
      </trkpt>
      <trkpt lat="44.18602" lon="5.28645">
        <ele>1212.6</ele>
        <time>2026-05-14T13:17:41.000Z</time>
      </trkpt>
      <trkpt lat="44.18604" lon="5.28645">
        <ele>1211.9</ele>
        <time>2026-05-14T13:17:42.000Z</time>
      </trkpt>
      <trkpt lat="44.18605" lon="5.28645">
        <ele>1211.8</ele>
        <time>2026-05-14T13:17:43.000Z</time>
      </trkpt>
      <trkpt lat="44.18606" lon="5.28646">
        <ele>1211.3</ele>
        <time>2026-05-14T13:17:44.000Z</time>
      </trkpt>
      <trkpt lat="44.18607" lon="5.28646">
        <ele>1211.4</ele>
        <time>2026-05-14T13:17:45.000Z</time>
      </trkpt>
      <trkpt lat="44.18608" lon="5.28645">
        <ele>1211.4</ele>
        <time>2026-05-14T13:17:46.000Z</time>
      </trkpt>
      <trkpt lat="44.18609" lon="5.28645">
        <ele>1211.5</ele>
        <time>2026-05-14T13:17:47.000Z</time>
      </trkpt>
      <trkpt lat="44.18609" lon="5.28645">
        <ele>1211.4</ele>
        <time>2026-05-14T13:17:48.000Z</time>
      </trkpt>
      <trkpt lat="44.1861" lon="5.28644">
        <ele>1211.6</ele>
        <time>2026-05-14T13:17:49.000Z</time>
      </trkpt>
      <trkpt lat="44.1861" lon="5.28643">
        <ele>1211.9</ele>
        <time>2026-05-14T13:17:50.000Z</time>
      </trkpt>
      <trkpt lat="44.18611" lon="5.28642">
        <ele>1211.6</ele>
        <time>2026-05-14T13:17:51.000Z</time>
      </trkpt>
      <trkpt lat="44.18612" lon="5.28642">
        <ele>1212.1</ele>
        <time>2026-05-14T13:17:52.000Z</time>
      </trkpt>
      <trkpt lat="44.18612" lon="5.28641">
        <ele>1212.2</ele>
        <time>2026-05-14T13:17:53.000Z</time>
      </trkpt>
      <trkpt lat="44.18613" lon="5.28641">
        <ele>1212</ele>
        <time>2026-05-14T13:17:54.000Z</time>
      </trkpt>
      <trkpt lat="44.18614" lon="5.28641">
        <ele>1212.2</ele>
        <time>2026-05-14T13:17:55.000Z</time>
      </trkpt>
      <trkpt lat="44.18615" lon="5.28641">
        <ele>1212.2</ele>
        <time>2026-05-14T13:17:56.000Z</time>
      </trkpt>
      <trkpt lat="44.18617" lon="5.2864">
        <ele>1212.8</ele>
        <time>2026-05-14T13:17:57.000Z</time>
      </trkpt>
      <trkpt lat="44.18618" lon="5.2864">
        <ele>1213.7</ele>
        <time>2026-05-14T13:17:58.000Z</time>
      </trkpt>
      <trkpt lat="44.18619" lon="5.2864">
        <ele>1213.4</ele>
        <time>2026-05-14T13:17:59.000Z</time>
      </trkpt>
      <trkpt lat="44.18619" lon="5.2864">
        <ele>1212.5</ele>
        <time>2026-05-14T13:18:00.000Z</time>
      </trkpt>
      <trkpt lat="44.18619" lon="5.28642">
        <ele>1212.5</ele>
        <time>2026-05-14T13:18:01.000Z</time>
      </trkpt>
      <trkpt lat="44.1862" lon="5.28645">
        <ele>1212.3</ele>
        <time>2026-05-14T13:18:02.000Z</time>
      </trkpt>
      <trkpt lat="44.18621" lon="5.28646">
        <ele>1212</ele>
        <time>2026-05-14T13:18:03.000Z</time>
      </trkpt>
      <trkpt lat="44.18621" lon="5.28647">
        <ele>1211.9</ele>
        <time>2026-05-14T13:18:04.000Z</time>
      </trkpt>
      <trkpt lat="44.18622" lon="5.28648">
        <ele>1211.6</ele>
        <time>2026-05-14T13:18:05.000Z</time>
      </trkpt>
      <trkpt lat="44.18623" lon="5.28648">
        <ele>1211.6</ele>
        <time>2026-05-14T13:18:06.000Z</time>
      </trkpt>
      <trkpt lat="44.18623" lon="5.28648">
        <ele>1211.7</ele>
        <time>2026-05-14T13:18:07.000Z</time>
      </trkpt>
      <trkpt lat="44.18624" lon="5.28649">
        <ele>1211.7</ele>
        <time>2026-05-14T13:18:08.000Z</time>
      </trkpt>
      <trkpt lat="44.18624" lon="5.2865">
        <ele>1211.5</ele>
        <time>2026-05-14T13:18:09.000Z</time>
      </trkpt>
      <trkpt lat="44.18625" lon="5.28651">
        <ele>1211.2</ele>
        <time>2026-05-14T13:18:10.000Z</time>
      </trkpt>
      <trkpt lat="44.18625" lon="5.28652">
        <ele>1211.4</ele>
        <time>2026-05-14T13:18:11.000Z</time>
      </trkpt>
      <trkpt lat="44.18625" lon="5.28654">
        <ele>1211.5</ele>
        <time>2026-05-14T13:18:12.000Z</time>
      </trkpt>
      <trkpt lat="44.18624" lon="5.28655">
        <ele>1211.4</ele>
        <time>2026-05-14T13:18:13.000Z</time>
      </trkpt>
      <trkpt lat="44.18623" lon="5.28656">
        <ele>1211.3</ele>
        <time>2026-05-14T13:18:14.000Z</time>
      </trkpt>
      <trkpt lat="44.18622" lon="5.28656">
        <ele>1211.3</ele>
        <time>2026-05-14T13:18:15.000Z</time>
      </trkpt>
      <trkpt lat="44.1862" lon="5.28657">
        <ele>1211.4</ele>
        <time>2026-05-14T13:18:16.000Z</time>
      </trkpt>
      <trkpt lat="44.18618" lon="5.28656">
        <ele>1211.1</ele>
        <time>2026-05-14T13:18:17.000Z</time>
      </trkpt>
      <trkpt lat="44.18617" lon="5.28657">
        <ele>1211.1</ele>
        <time>2026-05-14T13:18:18.000Z</time>
      </trkpt>
      <trkpt lat="44.18616" lon="5.28657">
        <ele>1210.8</ele>
        <time>2026-05-14T13:18:19.000Z</time>
      </trkpt>
      <trkpt lat="44.18614" lon="5.28658">
        <ele>1210.7</ele>
        <time>2026-05-14T13:18:20.000Z</time>
      </trkpt>
      <trkpt lat="44.18613" lon="5.28658">
        <ele>1211.1</ele>
        <time>2026-05-14T13:18:21.000Z</time>
      </trkpt>
      <trkpt lat="44.18613" lon="5.28659">
        <ele>1211.1</ele>
        <time>2026-05-14T13:18:22.000Z</time>
      </trkpt>
      <trkpt lat="44.18612" lon="5.28659">
        <ele>1210.7</ele>
        <time>2026-05-14T13:18:23.000Z</time>
      </trkpt>
      <trkpt lat="44.18612" lon="5.28659">
        <ele>1210.5</ele>
        <time>2026-05-14T13:18:24.000Z</time>
      </trkpt>
      <trkpt lat="44.18611" lon="5.28659">
        <ele>1210.3</ele>
        <time>2026-05-14T13:18:25.000Z</time>
      </trkpt>
      <trkpt lat="44.18611" lon="5.28659">
        <ele>1209.5</ele>
        <time>2026-05-14T13:18:26.000Z</time>
      </trkpt>
      <trkpt lat="44.1861" lon="5.2866">
        <ele>1209.2</ele>
        <time>2026-05-14T13:18:27.000Z</time>
      </trkpt>
      <trkpt lat="44.18609" lon="5.28661">
        <ele>1209.1</ele>
        <time>2026-05-14T13:18:28.000Z</time>
      </trkpt>
      <trkpt lat="44.18608" lon="5.28663">
        <ele>1208.9</ele>
        <time>2026-05-14T13:18:29.000Z</time>
      </trkpt>
      <trkpt lat="44.18607" lon="5.28664">
        <ele>1208.3</ele>
        <time>2026-05-14T13:18:30.000Z</time>
      </trkpt>
      <trkpt lat="44.18606" lon="5.28664">
        <ele>1207.7</ele>
        <time>2026-05-14T13:18:31.000Z</time>
      </trkpt>
      <trkpt lat="44.18605" lon="5.28664">
        <ele>1207.3</ele>
        <time>2026-05-14T13:18:32.000Z</time>
      </trkpt>
      <trkpt lat="44.18604" lon="5.28664">
        <ele>1206.5</ele>
        <time>2026-05-14T13:18:33.000Z</time>
      </trkpt>
      <trkpt lat="44.18603" lon="5.28665">
        <ele>1206.7</ele>
        <time>2026-05-14T13:18:34.000Z</time>
      </trkpt>
      <trkpt lat="44.18602" lon="5.28666">
        <ele>1207.1</ele>
        <time>2026-05-14T13:18:35.000Z</time>
      </trkpt>
      <trkpt lat="44.18601" lon="5.28666">
        <ele>1207.3</ele>
        <time>2026-05-14T13:18:36.000Z</time>
      </trkpt>
      <trkpt lat="44.18601" lon="5.28666">
        <ele>1207.2</ele>
        <time>2026-05-14T13:18:37.000Z</time>
      </trkpt>
      <trkpt lat="44.186" lon="5.28667">
        <ele>1206.6</ele>
        <time>2026-05-14T13:18:38.000Z</time>
      </trkpt>
      <trkpt lat="44.186" lon="5.28669">
        <ele>1206.5</ele>
        <time>2026-05-14T13:18:39.000Z</time>
      </trkpt>
      <trkpt lat="44.18599" lon="5.28671">
        <ele>1206.6</ele>
        <time>2026-05-14T13:18:40.000Z</time>
      </trkpt>
      <trkpt lat="44.18598" lon="5.28673">
        <ele>1206.5</ele>
        <time>2026-05-14T13:18:41.000Z</time>
      </trkpt>
      <trkpt lat="44.18598" lon="5.28676">
        <ele>1205.6</ele>
        <time>2026-05-14T13:18:42.000Z</time>
      </trkpt>
      <trkpt lat="44.18597" lon="5.28678">
        <ele>1204.5</ele>
        <time>2026-05-14T13:18:43.000Z</time>
      </trkpt>
      <trkpt lat="44.18597" lon="5.2868">
        <ele>1204.1</ele>
        <time>2026-05-14T13:18:44.000Z</time>
      </trkpt>
      <trkpt lat="44.18595" lon="5.28681">
        <ele>1203.7</ele>
        <time>2026-05-14T13:18:45.000Z</time>
      </trkpt>
      <trkpt lat="44.18595" lon="5.28682">
        <ele>1203.5</ele>
        <time>2026-05-14T13:18:46.000Z</time>
      </trkpt>
      <trkpt lat="44.18595" lon="5.28684">
        <ele>1203.5</ele>
        <time>2026-05-14T13:18:47.000Z</time>
      </trkpt>
      <trkpt lat="44.18596" lon="5.28687">
        <ele>1203.1</ele>
        <time>2026-05-14T13:18:48.000Z</time>
      </trkpt>
      <trkpt lat="44.18595" lon="5.28688">
        <ele>1203.2</ele>
        <time>2026-05-14T13:18:49.000Z</time>
      </trkpt>
      <trkpt lat="44.18595" lon="5.28688">
        <ele>1203.1</ele>
        <time>2026-05-14T13:18:50.000Z</time>
      </trkpt>
      <trkpt lat="44.18595" lon="5.28688">
        <ele>1202.9</ele>
        <time>2026-05-14T13:18:51.000Z</time>
      </trkpt>
      <trkpt lat="44.18595" lon="5.28688">
        <ele>1202.8</ele>
        <time>2026-05-14T13:18:52.000Z</time>
      </trkpt>
      <trkpt lat="44.18595" lon="5.28689">
        <ele>1202.8</ele>
        <time>2026-05-14T13:18:53.000Z</time>
      </trkpt>
      <trkpt lat="44.18595" lon="5.28689">
        <ele>1202.6</ele>
        <time>2026-05-14T13:18:54.000Z</time>
      </trkpt>
      <trkpt lat="44.18595" lon="5.28689">
        <ele>1202.4</ele>
        <time>2026-05-14T13:18:55.000Z</time>
      </trkpt>
      <trkpt lat="44.18595" lon="5.28692">
        <ele>1202</ele>
        <time>2026-05-14T13:18:56.000Z</time>
      </trkpt>
      <trkpt lat="44.18594" lon="5.28694">
        <ele>1201.9</ele>
        <time>2026-05-14T13:18:57.000Z</time>
      </trkpt>
      <trkpt lat="44.18594" lon="5.28696">
        <ele>1201.9</ele>
        <time>2026-05-14T13:18:58.000Z</time>
      </trkpt>
      <trkpt lat="44.18593" lon="5.28699">
        <ele>1201.9</ele>
        <time>2026-05-14T13:18:59.000Z</time>
      </trkpt>
      <trkpt lat="44.18593" lon="5.28702">
        <ele>1201.7</ele>
        <time>2026-05-14T13:19:00.000Z</time>
      </trkpt>
      <trkpt lat="44.18593" lon="5.28704">
        <ele>1201.4</ele>
        <time>2026-05-14T13:19:01.000Z</time>
      </trkpt>
      <trkpt lat="44.18592" lon="5.28705">
        <ele>1201</ele>
        <time>2026-05-14T13:19:02.000Z</time>
      </trkpt>
      <trkpt lat="44.18592" lon="5.28706">
        <ele>1201</ele>
        <time>2026-05-14T13:19:03.000Z</time>
      </trkpt>
      <trkpt lat="44.18592" lon="5.28709">
        <ele>1200.9</ele>
        <time>2026-05-14T13:19:04.000Z</time>
      </trkpt>
      <trkpt lat="44.18592" lon="5.28711">
        <ele>1200.3</ele>
        <time>2026-05-14T13:19:05.000Z</time>
      </trkpt>
      <trkpt lat="44.18592" lon="5.28713">
        <ele>1200.2</ele>
        <time>2026-05-14T13:19:06.000Z</time>
      </trkpt>
      <trkpt lat="44.18592" lon="5.28714">
        <ele>1200</ele>
        <time>2026-05-14T13:19:07.000Z</time>
      </trkpt>
      <trkpt lat="44.18592" lon="5.28716">
        <ele>1199.7</ele>
        <time>2026-05-14T13:19:08.000Z</time>
      </trkpt>
      <trkpt lat="44.18592" lon="5.28716">
        <ele>1199.4</ele>
        <time>2026-05-14T13:19:09.000Z</time>
      </trkpt>
      <trkpt lat="44.18592" lon="5.28717">
        <ele>1199.5</ele>
        <time>2026-05-14T13:19:10.000Z</time>
      </trkpt>
      <trkpt lat="44.18592" lon="5.28717">
        <ele>1199.6</ele>
        <time>2026-05-14T13:19:11.000Z</time>
      </trkpt>
      <trkpt lat="44.18592" lon="5.28718">
        <ele>1200.1</ele>
        <time>2026-05-14T13:19:12.000Z</time>
      </trkpt>
      <trkpt lat="44.18592" lon="5.28719">
        <ele>1200.1</ele>
        <time>2026-05-14T13:19:13.000Z</time>
      </trkpt>
      <trkpt lat="44.18591" lon="5.28721">
        <ele>1200.1</ele>
        <time>2026-05-14T13:19:14.000Z</time>
      </trkpt>
      <trkpt lat="44.18591" lon="5.28723">
        <ele>1200.1</ele>
        <time>2026-05-14T13:19:15.000Z</time>
      </trkpt>
      <trkpt lat="44.18591" lon="5.28725">
        <ele>1200</ele>
        <time>2026-05-14T13:19:16.000Z</time>
      </trkpt>
      <trkpt lat="44.1859" lon="5.28726">
        <ele>1199.7</ele>
        <time>2026-05-14T13:19:17.000Z</time>
      </trkpt>
      <trkpt lat="44.18589" lon="5.28727">
        <ele>1199.3</ele>
        <time>2026-05-14T13:19:18.000Z</time>
      </trkpt>
      <trkpt lat="44.18589" lon="5.28728">
        <ele>1199.1</ele>
        <time>2026-05-14T13:19:19.000Z</time>
      </trkpt>
      <trkpt lat="44.18589" lon="5.28729">
        <ele>1199.1</ele>
        <time>2026-05-14T13:19:20.000Z</time>
      </trkpt>
      <trkpt lat="44.18588" lon="5.28731">
        <ele>1199.1</ele>
        <time>2026-05-14T13:19:21.000Z</time>
      </trkpt>
      <trkpt lat="44.18587" lon="5.28735">
        <ele>1198.4</ele>
        <time>2026-05-14T13:19:22.000Z</time>
      </trkpt>
      <trkpt lat="44.18586" lon="5.28738">
        <ele>1197.9</ele>
        <time>2026-05-14T13:19:23.000Z</time>
      </trkpt>
      <trkpt lat="44.18585" lon="5.28739">
        <ele>1198</ele>
        <time>2026-05-14T13:19:24.000Z</time>
      </trkpt>
      <trkpt lat="44.18584" lon="5.2874">
        <ele>1197.6</ele>
        <time>2026-05-14T13:19:25.000Z</time>
      </trkpt>
      <trkpt lat="44.18583" lon="5.28741">
        <ele>1197.7</ele>
        <time>2026-05-14T13:19:26.000Z</time>
      </trkpt>
      <trkpt lat="44.18583" lon="5.28742">
        <ele>1197.3</ele>
        <time>2026-05-14T13:19:27.000Z</time>
      </trkpt>
      <trkpt lat="44.18583" lon="5.28744">
        <ele>1197.1</ele>
        <time>2026-05-14T13:19:28.000Z</time>
      </trkpt>
      <trkpt lat="44.18582" lon="5.28746">
        <ele>1197</ele>
        <time>2026-05-14T13:19:29.000Z</time>
      </trkpt>
      <trkpt lat="44.18582" lon="5.28747">
        <ele>1196.9</ele>
        <time>2026-05-14T13:19:30.000Z</time>
      </trkpt>
      <trkpt lat="44.18582" lon="5.28749">
        <ele>1196.9</ele>
        <time>2026-05-14T13:19:31.000Z</time>
      </trkpt>
      <trkpt lat="44.18581" lon="5.28751">
        <ele>1197.2</ele>
        <time>2026-05-14T13:19:32.000Z</time>
      </trkpt>
      <trkpt lat="44.18581" lon="5.28752">
        <ele>1197.6</ele>
        <time>2026-05-14T13:19:33.000Z</time>
      </trkpt>
      <trkpt lat="44.1858" lon="5.28753">
        <ele>1197.9</ele>
        <time>2026-05-14T13:19:34.000Z</time>
      </trkpt>
      <trkpt lat="44.1858" lon="5.28754">
        <ele>1197.9</ele>
        <time>2026-05-14T13:19:35.000Z</time>
      </trkpt>
      <trkpt lat="44.18579" lon="5.28756">
        <ele>1197.9</ele>
        <time>2026-05-14T13:19:36.000Z</time>
      </trkpt>
      <trkpt lat="44.18579" lon="5.28757">
        <ele>1197.6</ele>
        <time>2026-05-14T13:19:37.000Z</time>
      </trkpt>
      <trkpt lat="44.18578" lon="5.28758">
        <ele>1197.6</ele>
        <time>2026-05-14T13:19:38.000Z</time>
      </trkpt>
      <trkpt lat="44.18578" lon="5.28759">
        <ele>1197.6</ele>
        <time>2026-05-14T13:19:39.000Z</time>
      </trkpt>
      <trkpt lat="44.18578" lon="5.2876">
        <ele>1197.5</ele>
        <time>2026-05-14T13:19:40.000Z</time>
      </trkpt>
      <trkpt lat="44.18577" lon="5.28761">
        <ele>1197</ele>
        <time>2026-05-14T13:19:41.000Z</time>
      </trkpt>
      <trkpt lat="44.18577" lon="5.28761">
        <ele>1196.7</ele>
        <time>2026-05-14T13:19:42.000Z</time>
      </trkpt>
      <trkpt lat="44.18577" lon="5.28761">
        <ele>1196.9</ele>
        <time>2026-05-14T13:19:43.000Z</time>
      </trkpt>
      <trkpt lat="44.18577" lon="5.28762">
        <ele>1196.3</ele>
        <time>2026-05-14T13:19:44.000Z</time>
      </trkpt>
      <trkpt lat="44.18577" lon="5.28763">
        <ele>1196</ele>
        <time>2026-05-14T13:19:45.000Z</time>
      </trkpt>
      <trkpt lat="44.18576" lon="5.28764">
        <ele>1196</ele>
        <time>2026-05-14T13:19:46.000Z</time>
      </trkpt>
      <trkpt lat="44.18577" lon="5.28764">
        <ele>1196.3</ele>
        <time>2026-05-14T13:19:47.000Z</time>
      </trkpt>
      <trkpt lat="44.18577" lon="5.28764">
        <ele>1197.1</ele>
        <time>2026-05-14T13:19:48.000Z</time>
      </trkpt>
      <trkpt lat="44.18577" lon="5.28764">
        <ele>1196.8</ele>
        <time>2026-05-14T13:19:49.000Z</time>
      </trkpt>
      <trkpt lat="44.18577" lon="5.28764">
        <ele>1196.3</ele>
        <time>2026-05-14T13:19:50.000Z</time>
      </trkpt>
      <trkpt lat="44.18577" lon="5.28767">
        <ele>1195.4</ele>
        <time>2026-05-14T13:19:51.000Z</time>
      </trkpt>
      <trkpt lat="44.18576" lon="5.2877">
        <ele>1195.1</ele>
        <time>2026-05-14T13:19:52.000Z</time>
      </trkpt>
      <trkpt lat="44.18576" lon="5.28772">
        <ele>1195.1</ele>
        <time>2026-05-14T13:19:53.000Z</time>
      </trkpt>
      <trkpt lat="44.18575" lon="5.28775">
        <ele>1195</ele>
        <time>2026-05-14T13:19:54.000Z</time>
      </trkpt>
      <trkpt lat="44.18574" lon="5.28777">
        <ele>1194.4</ele>
        <time>2026-05-14T13:19:55.000Z</time>
      </trkpt>
      <trkpt lat="44.18573" lon="5.2878">
        <ele>1194.1</ele>
        <time>2026-05-14T13:19:56.000Z</time>
      </trkpt>
      <trkpt lat="44.18572" lon="5.28782">
        <ele>1193.7</ele>
        <time>2026-05-14T13:19:57.000Z</time>
      </trkpt>
      <trkpt lat="44.18571" lon="5.28784">
        <ele>1193.5</ele>
        <time>2026-05-14T13:19:58.000Z</time>
      </trkpt>
      <trkpt lat="44.18569" lon="5.28785">
        <ele>1193</ele>
        <time>2026-05-14T13:19:59.000Z</time>
      </trkpt>
      <trkpt lat="44.18568" lon="5.28786">
        <ele>1192.9</ele>
        <time>2026-05-14T13:20:00.000Z</time>
      </trkpt>
      <trkpt lat="44.18567" lon="5.28788">
        <ele>1192.7</ele>
        <time>2026-05-14T13:20:01.000Z</time>
      </trkpt>
      <trkpt lat="44.18566" lon="5.28788">
        <ele>1192.8</ele>
        <time>2026-05-14T13:20:02.000Z</time>
      </trkpt>
      <trkpt lat="44.18566" lon="5.28789">
        <ele>1193.1</ele>
        <time>2026-05-14T13:20:03.000Z</time>
      </trkpt>
      <trkpt lat="44.18566" lon="5.28789">
        <ele>1193</ele>
        <time>2026-05-14T13:20:04.000Z</time>
      </trkpt>
      <trkpt lat="44.18566" lon="5.28791">
        <ele>1192.8</ele>
        <time>2026-05-14T13:20:05.000Z</time>
      </trkpt>
      <trkpt lat="44.18566" lon="5.28793">
        <ele>1192.4</ele>
        <time>2026-05-14T13:20:06.000Z</time>
      </trkpt>
      <trkpt lat="44.18566" lon="5.28795">
        <ele>1192.5</ele>
        <time>2026-05-14T13:20:07.000Z</time>
      </trkpt>
      <trkpt lat="44.18566" lon="5.28797">
        <ele>1192.5</ele>
        <time>2026-05-14T13:20:08.000Z</time>
      </trkpt>
      <trkpt lat="44.18566" lon="5.288">
        <ele>1192</ele>
        <time>2026-05-14T13:20:09.000Z</time>
      </trkpt>
      <trkpt lat="44.18566" lon="5.28801">
        <ele>1192.1</ele>
        <time>2026-05-14T13:20:10.000Z</time>
      </trkpt>
      <trkpt lat="44.18566" lon="5.28803">
        <ele>1191.7</ele>
        <time>2026-05-14T13:20:11.000Z</time>
      </trkpt>
      <trkpt lat="44.18566" lon="5.28804">
        <ele>1190.7</ele>
        <time>2026-05-14T13:20:12.000Z</time>
      </trkpt>
      <trkpt lat="44.18566" lon="5.28805">
        <ele>1189.8</ele>
        <time>2026-05-14T13:20:13.000Z</time>
      </trkpt>
      <trkpt lat="44.18566" lon="5.28806">
        <ele>1189.9</ele>
        <time>2026-05-14T13:20:14.000Z</time>
      </trkpt>
      <trkpt lat="44.18566" lon="5.28808">
        <ele>1190.1</ele>
        <time>2026-05-14T13:20:15.000Z</time>
      </trkpt>
      <trkpt lat="44.18566" lon="5.28811">
        <ele>1190.1</ele>
        <time>2026-05-14T13:20:16.000Z</time>
      </trkpt>
      <trkpt lat="44.18565" lon="5.28813">
        <ele>1189.6</ele>
        <time>2026-05-14T13:20:17.000Z</time>
      </trkpt>
      <trkpt lat="44.18566" lon="5.28815">
        <ele>1189.4</ele>
        <time>2026-05-14T13:20:18.000Z</time>
      </trkpt>
      <trkpt lat="44.18565" lon="5.28817">
        <ele>1189.5</ele>
        <time>2026-05-14T13:20:19.000Z</time>
      </trkpt>
      <trkpt lat="44.18565" lon="5.28818">
        <ele>1190</ele>
        <time>2026-05-14T13:20:20.000Z</time>
      </trkpt>
      <trkpt lat="44.18564" lon="5.28819">
        <ele>1189.4</ele>
        <time>2026-05-14T13:20:21.000Z</time>
      </trkpt>
      <trkpt lat="44.18563" lon="5.28821">
        <ele>1188.9</ele>
        <time>2026-05-14T13:20:22.000Z</time>
      </trkpt>
      <trkpt lat="44.18562" lon="5.28823">
        <ele>1188.4</ele>
        <time>2026-05-14T13:20:23.000Z</time>
      </trkpt>
      <trkpt lat="44.18562" lon="5.28824">
        <ele>1187.4</ele>
        <time>2026-05-14T13:20:24.000Z</time>
      </trkpt>
      <trkpt lat="44.18561" lon="5.28825">
        <ele>1187.4</ele>
        <time>2026-05-14T13:20:25.000Z</time>
      </trkpt>
      <trkpt lat="44.1856" lon="5.28826">
        <ele>1187.1</ele>
        <time>2026-05-14T13:20:26.000Z</time>
      </trkpt>
      <trkpt lat="44.1856" lon="5.28827">
        <ele>1187.2</ele>
        <time>2026-05-14T13:20:27.000Z</time>
      </trkpt>
      <trkpt lat="44.1856" lon="5.28829">
        <ele>1187.1</ele>
        <time>2026-05-14T13:20:28.000Z</time>
      </trkpt>
      <trkpt lat="44.1856" lon="5.2883">
        <ele>1186.2</ele>
        <time>2026-05-14T13:20:29.000Z</time>
      </trkpt>
      <trkpt lat="44.18561" lon="5.28831">
        <ele>1185.2</ele>
        <time>2026-05-14T13:20:30.000Z</time>
      </trkpt>
      <trkpt lat="44.18561" lon="5.28832">
        <ele>1184.9</ele>
        <time>2026-05-14T13:20:31.000Z</time>
      </trkpt>
      <trkpt lat="44.18561" lon="5.28833">
        <ele>1184.7</ele>
        <time>2026-05-14T13:20:32.000Z</time>
      </trkpt>
      <trkpt lat="44.18561" lon="5.28833">
        <ele>1184.7</ele>
        <time>2026-05-14T13:20:33.000Z</time>
      </trkpt>
      <trkpt lat="44.18562" lon="5.28834">
        <ele>1184.2</ele>
        <time>2026-05-14T13:20:34.000Z</time>
      </trkpt>
      <trkpt lat="44.18562" lon="5.28834">
        <ele>1184</ele>
        <time>2026-05-14T13:20:35.000Z</time>
      </trkpt>
      <trkpt lat="44.18563" lon="5.28836">
        <ele>1183.7</ele>
        <time>2026-05-14T13:20:36.000Z</time>
      </trkpt>
      <trkpt lat="44.18563" lon="5.28839">
        <ele>1184</ele>
        <time>2026-05-14T13:20:37.000Z</time>
      </trkpt>
      <trkpt lat="44.18564" lon="5.28839">
        <ele>1184.2</ele>
        <time>2026-05-14T13:20:38.000Z</time>
      </trkpt>
      <trkpt lat="44.18565" lon="5.28841">
        <ele>1184</ele>
        <time>2026-05-14T13:20:39.000Z</time>
      </trkpt>
      <trkpt lat="44.18565" lon="5.28843">
        <ele>1184</ele>
        <time>2026-05-14T13:20:40.000Z</time>
      </trkpt>
      <trkpt lat="44.18566" lon="5.28845">
        <ele>1183.7</ele>
        <time>2026-05-14T13:20:41.000Z</time>
      </trkpt>
      <trkpt lat="44.18567" lon="5.28847">
        <ele>1183.4</ele>
        <time>2026-05-14T13:20:42.000Z</time>
      </trkpt>
      <trkpt lat="44.18569" lon="5.28848">
        <ele>1183.9</ele>
        <time>2026-05-14T13:20:43.000Z</time>
      </trkpt>
      <trkpt lat="44.1857" lon="5.2885">
        <ele>1183</ele>
        <time>2026-05-14T13:20:44.000Z</time>
      </trkpt>
      <trkpt lat="44.1857" lon="5.28852">
        <ele>1182.3</ele>
        <time>2026-05-14T13:20:45.000Z</time>
      </trkpt>
      <trkpt lat="44.18571" lon="5.28854">
        <ele>1181.4</ele>
        <time>2026-05-14T13:20:46.000Z</time>
      </trkpt>
      <trkpt lat="44.18571" lon="5.28856">
        <ele>1180.6</ele>
        <time>2026-05-14T13:20:47.000Z</time>
      </trkpt>
      <trkpt lat="44.18571" lon="5.28857">
        <ele>1180.2</ele>
        <time>2026-05-14T13:20:48.000Z</time>
      </trkpt>
      <trkpt lat="44.18571" lon="5.28859">
        <ele>1179.7</ele>
        <time>2026-05-14T13:20:49.000Z</time>
      </trkpt>
      <trkpt lat="44.18571" lon="5.2886">
        <ele>1179.7</ele>
        <time>2026-05-14T13:20:50.000Z</time>
      </trkpt>
      <trkpt lat="44.18571" lon="5.28862">
        <ele>1179.8</ele>
        <time>2026-05-14T13:20:51.000Z</time>
      </trkpt>
      <trkpt lat="44.18573" lon="5.28864">
        <ele>1180.8</ele>
        <time>2026-05-14T13:20:52.000Z</time>
      </trkpt>
      <trkpt lat="44.18574" lon="5.28865">
        <ele>1180.6</ele>
        <time>2026-05-14T13:20:53.000Z</time>
      </trkpt>
      <trkpt lat="44.18575" lon="5.28866">
        <ele>1180.4</ele>
        <time>2026-05-14T13:20:54.000Z</time>
      </trkpt>
      <trkpt lat="44.18575" lon="5.28867">
        <ele>1180.4</ele>
        <time>2026-05-14T13:20:55.000Z</time>
      </trkpt>
      <trkpt lat="44.18576" lon="5.28867">
        <ele>1179.8</ele>
        <time>2026-05-14T13:20:56.000Z</time>
      </trkpt>
      <trkpt lat="44.18577" lon="5.28868">
        <ele>1179.2</ele>
        <time>2026-05-14T13:20:57.000Z</time>
      </trkpt>
      <trkpt lat="44.18579" lon="5.28868">
        <ele>1178.3</ele>
        <time>2026-05-14T13:20:58.000Z</time>
      </trkpt>
      <trkpt lat="44.18579" lon="5.2887">
        <ele>1178</ele>
        <time>2026-05-14T13:20:59.000Z</time>
      </trkpt>
      <trkpt lat="44.1858" lon="5.28871">
        <ele>1177</ele>
        <time>2026-05-14T13:21:00.000Z</time>
      </trkpt>
      <trkpt lat="44.1858" lon="5.28872">
        <ele>1176.2</ele>
        <time>2026-05-14T13:21:01.000Z</time>
      </trkpt>
      <trkpt lat="44.18582" lon="5.28873">
        <ele>1175.9</ele>
        <time>2026-05-14T13:21:02.000Z</time>
      </trkpt>
      <trkpt lat="44.18583" lon="5.28873">
        <ele>1176.2</ele>
        <time>2026-05-14T13:21:03.000Z</time>
      </trkpt>
      <trkpt lat="44.18584" lon="5.28874">
        <ele>1176.3</ele>
        <time>2026-05-14T13:21:04.000Z</time>
      </trkpt>
      <trkpt lat="44.18585" lon="5.28875">
        <ele>1176.5</ele>
        <time>2026-05-14T13:21:05.000Z</time>
      </trkpt>
      <trkpt lat="44.18586" lon="5.28876">
        <ele>1175.9</ele>
        <time>2026-05-14T13:21:06.000Z</time>
      </trkpt>
      <trkpt lat="44.18588" lon="5.28875">
        <ele>1175</ele>
        <time>2026-05-14T13:21:07.000Z</time>
      </trkpt>
      <trkpt lat="44.18589" lon="5.28874">
        <ele>1174.2</ele>
        <time>2026-05-14T13:21:08.000Z</time>
      </trkpt>
      <trkpt lat="44.1859" lon="5.28874">
        <ele>1174.6</ele>
        <time>2026-05-14T13:21:09.000Z</time>
      </trkpt>
      <trkpt lat="44.18591" lon="5.28875">
        <ele>1173.9</ele>
        <time>2026-05-14T13:21:10.000Z</time>
      </trkpt>
      <trkpt lat="44.18591" lon="5.28876">
        <ele>1173.6</ele>
        <time>2026-05-14T13:21:11.000Z</time>
      </trkpt>
      <trkpt lat="44.18591" lon="5.28876">
        <ele>1173.1</ele>
        <time>2026-05-14T13:21:12.000Z</time>
      </trkpt>
      <trkpt lat="44.18591" lon="5.28875">
        <ele>1173.6</ele>
        <time>2026-05-14T13:21:13.000Z</time>
      </trkpt>
      <trkpt lat="44.18592" lon="5.28875">
        <ele>1173.9</ele>
        <time>2026-05-14T13:21:14.000Z</time>
      </trkpt>
      <trkpt lat="44.18592" lon="5.28876">
        <ele>1174.1</ele>
        <time>2026-05-14T13:21:15.000Z</time>
      </trkpt>
      <trkpt lat="44.18593" lon="5.28877">
        <ele>1173.7</ele>
        <time>2026-05-14T13:21:16.000Z</time>
      </trkpt>
      <trkpt lat="44.18593" lon="5.28877">
        <ele>1172.6</ele>
        <time>2026-05-14T13:21:17.000Z</time>
      </trkpt>
      <trkpt lat="44.18594" lon="5.28879">
        <ele>1172.7</ele>
        <time>2026-05-14T13:21:18.000Z</time>
      </trkpt>
      <trkpt lat="44.18595" lon="5.28881">
        <ele>1172.1</ele>
        <time>2026-05-14T13:21:19.000Z</time>
      </trkpt>
      <trkpt lat="44.18596" lon="5.28882">
        <ele>1171.6</ele>
        <time>2026-05-14T13:21:20.000Z</time>
      </trkpt>
      <trkpt lat="44.18596" lon="5.28883">
        <ele>1171</ele>
        <time>2026-05-14T13:21:21.000Z</time>
      </trkpt>
      <trkpt lat="44.18596" lon="5.28885">
        <ele>1170.3</ele>
        <time>2026-05-14T13:21:22.000Z</time>
      </trkpt>
      <trkpt lat="44.18597" lon="5.28886">
        <ele>1169.7</ele>
        <time>2026-05-14T13:21:23.000Z</time>
      </trkpt>
      <trkpt lat="44.18598" lon="5.28886">
        <ele>1169.2</ele>
        <time>2026-05-14T13:21:24.000Z</time>
      </trkpt>
      <trkpt lat="44.18599" lon="5.28887">
        <ele>1168.7</ele>
        <time>2026-05-14T13:21:25.000Z</time>
      </trkpt>
      <trkpt lat="44.18601" lon="5.28889">
        <ele>1168.8</ele>
        <time>2026-05-14T13:21:26.000Z</time>
      </trkpt>
      <trkpt lat="44.18603" lon="5.28891">
        <ele>1169.1</ele>
        <time>2026-05-14T13:21:27.000Z</time>
      </trkpt>
      <trkpt lat="44.18604" lon="5.28892">
        <ele>1168.7</ele>
        <time>2026-05-14T13:21:28.000Z</time>
      </trkpt>
      <trkpt lat="44.18606" lon="5.28892">
        <ele>1169.7</ele>
        <time>2026-05-14T13:21:29.000Z</time>
      </trkpt>
      <trkpt lat="44.18608" lon="5.28893">
        <ele>1170.1</ele>
        <time>2026-05-14T13:21:30.000Z</time>
      </trkpt>
      <trkpt lat="44.18609" lon="5.28894">
        <ele>1170.3</ele>
        <time>2026-05-14T13:21:31.000Z</time>
      </trkpt>
      <trkpt lat="44.1861" lon="5.28895">
        <ele>1170.2</ele>
        <time>2026-05-14T13:21:32.000Z</time>
      </trkpt>
      <trkpt lat="44.1861" lon="5.28895">
        <ele>1169.9</ele>
        <time>2026-05-14T13:21:33.000Z</time>
      </trkpt>
      <trkpt lat="44.18611" lon="5.28896">
        <ele>1169.7</ele>
        <time>2026-05-14T13:21:34.000Z</time>
      </trkpt>
      <trkpt lat="44.18611" lon="5.28896">
        <ele>1169.3</ele>
        <time>2026-05-14T13:21:35.000Z</time>
      </trkpt>
      <trkpt lat="44.18613" lon="5.28897">
        <ele>1169.3</ele>
        <time>2026-05-14T13:21:36.000Z</time>
      </trkpt>
      <trkpt lat="44.18614" lon="5.28897">
        <ele>1169.6</ele>
        <time>2026-05-14T13:21:37.000Z</time>
      </trkpt>
      <trkpt lat="44.18614" lon="5.28897">
        <ele>1170.1</ele>
        <time>2026-05-14T13:21:38.000Z</time>
      </trkpt>
      <trkpt lat="44.18614" lon="5.28898">
        <ele>1170.3</ele>
        <time>2026-05-14T13:21:39.000Z</time>
      </trkpt>
      <trkpt lat="44.18614" lon="5.28898">
        <ele>1170.5</ele>
        <time>2026-05-14T13:21:40.000Z</time>
      </trkpt>
      <trkpt lat="44.18615" lon="5.28898">
        <ele>1170.3</ele>
        <time>2026-05-14T13:21:41.000Z</time>
      </trkpt>
      <trkpt lat="44.18615" lon="5.28898">
        <ele>1170</ele>
        <time>2026-05-14T13:21:42.000Z</time>
      </trkpt>
      <trkpt lat="44.18615" lon="5.28898">
        <ele>1169.8</ele>
        <time>2026-05-14T13:21:43.000Z</time>
      </trkpt>
      <trkpt lat="44.18615" lon="5.28898">
        <ele>1169.6</ele>
        <time>2026-05-14T13:21:44.000Z</time>
      </trkpt>
      <trkpt lat="44.18615" lon="5.28898">
        <ele>1169.2</ele>
        <time>2026-05-14T13:21:45.999Z</time>
      </trkpt>
      <trkpt lat="44.18616" lon="5.289">
        <ele>1169.2</ele>
        <time>2026-05-14T13:21:46.999Z</time>
      </trkpt>
      <trkpt lat="44.18616" lon="5.28901">
        <ele>1168.8</ele>
        <time>2026-05-14T13:21:47.999Z</time>
      </trkpt>
      <trkpt lat="44.18617" lon="5.28901">
        <ele>1168.6</ele>
        <time>2026-05-14T13:21:48.999Z</time>
      </trkpt>
      <trkpt lat="44.18617" lon="5.28901">
        <ele>1168.7</ele>
        <time>2026-05-14T13:21:49.999Z</time>
      </trkpt>
      <trkpt lat="44.18619" lon="5.28903">
        <ele>1168.6</ele>
        <time>2026-05-14T13:21:50.999Z</time>
      </trkpt>
      <trkpt lat="44.18622" lon="5.28906">
        <ele>1168.2</ele>
        <time>2026-05-14T13:21:51.999Z</time>
      </trkpt>
      <trkpt lat="44.18623" lon="5.28907">
        <ele>1168.4</ele>
        <time>2026-05-14T13:21:52.999Z</time>
      </trkpt>
      <trkpt lat="44.18624" lon="5.28908">
        <ele>1168.4</ele>
        <time>2026-05-14T13:21:53.999Z</time>
      </trkpt>
      <trkpt lat="44.18625" lon="5.2891">
        <ele>1168.3</ele>
        <time>2026-05-14T13:21:54.999Z</time>
      </trkpt>
      <trkpt lat="44.18627" lon="5.28911">
        <ele>1167.9</ele>
        <time>2026-05-14T13:21:55.999Z</time>
      </trkpt>
      <trkpt lat="44.18627" lon="5.28912">
        <ele>1167.7</ele>
        <time>2026-05-14T13:21:56.999Z</time>
      </trkpt>
      <trkpt lat="44.18627" lon="5.28913">
        <ele>1167.2</ele>
        <time>2026-05-14T13:21:57.999Z</time>
      </trkpt>
      <trkpt lat="44.18628" lon="5.28913">
        <ele>1166.5</ele>
        <time>2026-05-14T13:21:58.999Z</time>
      </trkpt>
      <trkpt lat="44.1863" lon="5.28913">
        <ele>1166.6</ele>
        <time>2026-05-14T13:21:59.999Z</time>
      </trkpt>
      <trkpt lat="44.1863" lon="5.28914">
        <ele>1166.2</ele>
        <time>2026-05-14T13:22:00.999Z</time>
      </trkpt>
      <trkpt lat="44.18631" lon="5.28914">
        <ele>1166.2</ele>
        <time>2026-05-14T13:22:01.999Z</time>
      </trkpt>
      <trkpt lat="44.18632" lon="5.28914">
        <ele>1166.2</ele>
        <time>2026-05-14T13:22:02.999Z</time>
      </trkpt>
      <trkpt lat="44.18633" lon="5.28915">
        <ele>1166.2</ele>
        <time>2026-05-14T13:22:03.999Z</time>
      </trkpt>
      <trkpt lat="44.18633" lon="5.28916">
        <ele>1166.4</ele>
        <time>2026-05-14T13:22:04.999Z</time>
      </trkpt>
      <trkpt lat="44.18634" lon="5.28917">
        <ele>1166.4</ele>
        <time>2026-05-14T13:22:05.999Z</time>
      </trkpt>
      <trkpt lat="44.18634" lon="5.28918">
        <ele>1166.5</ele>
        <time>2026-05-14T13:22:06.999Z</time>
      </trkpt>
      <trkpt lat="44.18634" lon="5.28919">
        <ele>1166.4</ele>
        <time>2026-05-14T13:22:07.999Z</time>
      </trkpt>
      <trkpt lat="44.18634" lon="5.28919">
        <ele>1166.4</ele>
        <time>2026-05-14T13:22:08.999Z</time>
      </trkpt>
      <trkpt lat="44.18635" lon="5.28919">
        <ele>1166.6</ele>
        <time>2026-05-14T13:22:09.999Z</time>
      </trkpt>
      <trkpt lat="44.18635" lon="5.28919">
        <ele>1166.7</ele>
        <time>2026-05-14T13:22:10.999Z</time>
      </trkpt>
      <trkpt lat="44.18637" lon="5.2892">
        <ele>1166.4</ele>
        <time>2026-05-14T13:22:11.999Z</time>
      </trkpt>
      <trkpt lat="44.18638" lon="5.28922">
        <ele>1165.4</ele>
        <time>2026-05-14T13:22:12.999Z</time>
      </trkpt>
      <trkpt lat="44.18639" lon="5.28924">
        <ele>1164.9</ele>
        <time>2026-05-14T13:22:13.999Z</time>
      </trkpt>
      <trkpt lat="44.1864" lon="5.28926">
        <ele>1164.8</ele>
        <time>2026-05-14T13:22:14.999Z</time>
      </trkpt>
      <trkpt lat="44.18641" lon="5.28928">
        <ele>1164.8</ele>
        <time>2026-05-14T13:22:15.999Z</time>
      </trkpt>
      <trkpt lat="44.18643" lon="5.2893">
        <ele>1164.7</ele>
        <time>2026-05-14T13:22:16.999Z</time>
      </trkpt>
      <trkpt lat="44.18644" lon="5.28932">
        <ele>1164.3</ele>
        <time>2026-05-14T13:22:17.999Z</time>
      </trkpt>
      <trkpt lat="44.18646" lon="5.28934">
        <ele>1163.7</ele>
        <time>2026-05-14T13:22:18.999Z</time>
      </trkpt>
      <trkpt lat="44.18648" lon="5.28935">
        <ele>1163.4</ele>
        <time>2026-05-14T13:22:19.999Z</time>
      </trkpt>
      <trkpt lat="44.18649" lon="5.28936">
        <ele>1163.3</ele>
        <time>2026-05-14T13:22:20.999Z</time>
      </trkpt>
      <trkpt lat="44.1865" lon="5.28938">
        <ele>1163</ele>
        <time>2026-05-14T13:22:21.999Z</time>
      </trkpt>
      <trkpt lat="44.18652" lon="5.28939">
        <ele>1163.1</ele>
        <time>2026-05-14T13:22:22.999Z</time>
      </trkpt>
      <trkpt lat="44.18653" lon="5.2894">
        <ele>1162.5</ele>
        <time>2026-05-14T13:22:23.999Z</time>
      </trkpt>
      <trkpt lat="44.18653" lon="5.28942">
        <ele>1161.8</ele>
        <time>2026-05-14T13:22:24.999Z</time>
      </trkpt>
      <trkpt lat="44.18654" lon="5.28943">
        <ele>1161.7</ele>
        <time>2026-05-14T13:22:25.999Z</time>
      </trkpt>
      <trkpt lat="44.18656" lon="5.28944">
        <ele>1161.8</ele>
        <time>2026-05-14T13:22:26.999Z</time>
      </trkpt>
      <trkpt lat="44.18657" lon="5.28947">
        <ele>1161.2</ele>
        <time>2026-05-14T13:22:27.999Z</time>
      </trkpt>
      <trkpt lat="44.18659" lon="5.28949">
        <ele>1160.9</ele>
        <time>2026-05-14T13:22:28.999Z</time>
      </trkpt>
      <trkpt lat="44.1866" lon="5.28951">
        <ele>1160.4</ele>
        <time>2026-05-14T13:22:29.999Z</time>
      </trkpt>
      <trkpt lat="44.18661" lon="5.28953">
        <ele>1159.9</ele>
        <time>2026-05-14T13:22:30.999Z</time>
      </trkpt>
      <trkpt lat="44.18661" lon="5.28955">
        <ele>1159.9</ele>
        <time>2026-05-14T13:22:31.999Z</time>
      </trkpt>
      <trkpt lat="44.18661" lon="5.28957">
        <ele>1159.9</ele>
        <time>2026-05-14T13:22:32.999Z</time>
      </trkpt>
      <trkpt lat="44.18662" lon="5.28958">
        <ele>1159.2</ele>
        <time>2026-05-14T13:22:33.999Z</time>
      </trkpt>
      <trkpt lat="44.18662" lon="5.28958">
        <ele>1159.1</ele>
        <time>2026-05-14T13:22:34.999Z</time>
      </trkpt>
      <trkpt lat="44.18663" lon="5.2896">
        <ele>1159.2</ele>
        <time>2026-05-14T13:22:35.999Z</time>
      </trkpt>
      <trkpt lat="44.18664" lon="5.28961">
        <ele>1159.1</ele>
        <time>2026-05-14T13:22:36.999Z</time>
      </trkpt>
      <trkpt lat="44.18665" lon="5.28961">
        <ele>1159.2</ele>
        <time>2026-05-14T13:22:37.999Z</time>
      </trkpt>
      <trkpt lat="44.18665" lon="5.28962">
        <ele>1159.2</ele>
        <time>2026-05-14T13:22:38.999Z</time>
      </trkpt>
      <trkpt lat="44.18666" lon="5.28963">
        <ele>1159.6</ele>
        <time>2026-05-14T13:22:39.999Z</time>
      </trkpt>
      <trkpt lat="44.18667" lon="5.28965">
        <ele>1160</ele>
        <time>2026-05-14T13:22:40.999Z</time>
      </trkpt>
      <trkpt lat="44.18669" lon="5.28967">
        <ele>1159.9</ele>
        <time>2026-05-14T13:22:41.999Z</time>
      </trkpt>
      <trkpt lat="44.18669" lon="5.28968">
        <ele>1160.2</ele>
        <time>2026-05-14T13:22:42.999Z</time>
      </trkpt>
      <trkpt lat="44.18669" lon="5.28969">
        <ele>1160.7</ele>
        <time>2026-05-14T13:22:43.999Z</time>
      </trkpt>
      <trkpt lat="44.18669" lon="5.2897">
        <ele>1161.2</ele>
        <time>2026-05-14T13:22:44.999Z</time>
      </trkpt>
      <trkpt lat="44.18669" lon="5.2897">
        <ele>1161.5</ele>
        <time>2026-05-14T13:22:45.999Z</time>
      </trkpt>
      <trkpt lat="44.18669" lon="5.28971">
        <ele>1161.5</ele>
        <time>2026-05-14T13:22:46.999Z</time>
      </trkpt>
      <trkpt lat="44.18669" lon="5.28972">
        <ele>1161.5</ele>
        <time>2026-05-14T13:22:47.999Z</time>
      </trkpt>
      <trkpt lat="44.1867" lon="5.28975">
        <ele>1161.2</ele>
        <time>2026-05-14T13:22:48.999Z</time>
      </trkpt>
      <trkpt lat="44.18672" lon="5.28978">
        <ele>1161.3</ele>
        <time>2026-05-14T13:22:49.999Z</time>
      </trkpt>
      <trkpt lat="44.18673" lon="5.2898">
        <ele>1160.6</ele>
        <time>2026-05-14T13:22:50.999Z</time>
      </trkpt>
      <trkpt lat="44.18674" lon="5.28983">
        <ele>1160.3</ele>
        <time>2026-05-14T13:22:51.999Z</time>
      </trkpt>
      <trkpt lat="44.18674" lon="5.28985">
        <ele>1160.2</ele>
        <time>2026-05-14T13:22:52.999Z</time>
      </trkpt>
      <trkpt lat="44.18675" lon="5.28986">
        <ele>1160.1</ele>
        <time>2026-05-14T13:22:53.999Z</time>
      </trkpt>
      <trkpt lat="44.18675" lon="5.28987">
        <ele>1160.3</ele>
        <time>2026-05-14T13:22:54.999Z</time>
      </trkpt>
      <trkpt lat="44.18675" lon="5.28988">
        <ele>1160.4</ele>
        <time>2026-05-14T13:22:55.999Z</time>
      </trkpt>
      <trkpt lat="44.18675" lon="5.28989">
        <ele>1160.1</ele>
        <time>2026-05-14T13:22:56.999Z</time>
      </trkpt>
      <trkpt lat="44.18675" lon="5.28992">
        <ele>1159.9</ele>
        <time>2026-05-14T13:22:57.999Z</time>
      </trkpt>
      <trkpt lat="44.18674" lon="5.28992">
        <ele>1159.8</ele>
        <time>2026-05-14T13:22:58.999Z</time>
      </trkpt>
      <trkpt lat="44.18676" lon="5.28994">
        <ele>1159.7</ele>
        <time>2026-05-14T13:22:59.999Z</time>
      </trkpt>
      <trkpt lat="44.18677" lon="5.28996">
        <ele>1159.2</ele>
        <time>2026-05-14T13:23:00.999Z</time>
      </trkpt>
      <trkpt lat="44.18677" lon="5.28999">
        <ele>1159.4</ele>
        <time>2026-05-14T13:23:01.999Z</time>
      </trkpt>
      <trkpt lat="44.18678" lon="5.29">
        <ele>1159.1</ele>
        <time>2026-05-14T13:23:02.999Z</time>
      </trkpt>
      <trkpt lat="44.18678" lon="5.29001">
        <ele>1159.1</ele>
        <time>2026-05-14T13:23:03.999Z</time>
      </trkpt>
      <trkpt lat="44.18677" lon="5.29002">
        <ele>1159.6</ele>
        <time>2026-05-14T13:23:04.999Z</time>
      </trkpt>
      <trkpt lat="44.18677" lon="5.29003">
        <ele>1159.9</ele>
        <time>2026-05-14T13:23:05.999Z</time>
      </trkpt>
      <trkpt lat="44.18677" lon="5.29005">
        <ele>1160.1</ele>
        <time>2026-05-14T13:23:06.999Z</time>
      </trkpt>
      <trkpt lat="44.18678" lon="5.29006">
        <ele>1160.2</ele>
        <time>2026-05-14T13:23:07.999Z</time>
      </trkpt>
      <trkpt lat="44.18678" lon="5.29007">
        <ele>1160.2</ele>
        <time>2026-05-14T13:23:08.999Z</time>
      </trkpt>
      <trkpt lat="44.18678" lon="5.29008">
        <ele>1160.5</ele>
        <time>2026-05-14T13:23:09.999Z</time>
      </trkpt>
      <trkpt lat="44.18678" lon="5.29008">
        <ele>1160</ele>
        <time>2026-05-14T13:23:10.999Z</time>
      </trkpt>
      <trkpt lat="44.18678" lon="5.29008">
        <ele>1159.5</ele>
        <time>2026-05-14T13:23:11.999Z</time>
      </trkpt>
      <trkpt lat="44.18678" lon="5.2901">
        <ele>1158.9</ele>
        <time>2026-05-14T13:23:12.999Z</time>
      </trkpt>
      <trkpt lat="44.18679" lon="5.29012">
        <ele>1158.5</ele>
        <time>2026-05-14T13:23:13.999Z</time>
      </trkpt>
      <trkpt lat="44.18679" lon="5.29013">
        <ele>1158.3</ele>
        <time>2026-05-14T13:23:14.999Z</time>
      </trkpt>
      <trkpt lat="44.1868" lon="5.29016">
        <ele>1157.7</ele>
        <time>2026-05-14T13:23:15.999Z</time>
      </trkpt>
      <trkpt lat="44.1868" lon="5.29018">
        <ele>1157.3</ele>
        <time>2026-05-14T13:23:16.999Z</time>
      </trkpt>
      <trkpt lat="44.1868" lon="5.29021">
        <ele>1157</ele>
        <time>2026-05-14T13:23:17.999Z</time>
      </trkpt>
      <trkpt lat="44.18679" lon="5.29024">
        <ele>1156.3</ele>
        <time>2026-05-14T13:23:18.999Z</time>
      </trkpt>
      <trkpt lat="44.18679" lon="5.29025">
        <ele>1156.1</ele>
        <time>2026-05-14T13:23:19.999Z</time>
      </trkpt>
      <trkpt lat="44.18679" lon="5.29026">
        <ele>1155.8</ele>
        <time>2026-05-14T13:23:20.999Z</time>
      </trkpt>
      <trkpt lat="44.18678" lon="5.29026">
        <ele>1156.1</ele>
        <time>2026-05-14T13:23:21.999Z</time>
      </trkpt>
      <trkpt lat="44.18679" lon="5.29027">
        <ele>1156.1</ele>
        <time>2026-05-14T13:23:22.999Z</time>
      </trkpt>
      <trkpt lat="44.18679" lon="5.29028">
        <ele>1156.3</ele>
        <time>2026-05-14T13:23:23.999Z</time>
      </trkpt>
      <trkpt lat="44.1868" lon="5.29029">
        <ele>1156.5</ele>
        <time>2026-05-14T13:23:24.999Z</time>
      </trkpt>
      <trkpt lat="44.1868" lon="5.2903">
        <ele>1156.6</ele>
        <time>2026-05-14T13:23:25.999Z</time>
      </trkpt>
      <trkpt lat="44.18681" lon="5.29032">
        <ele>1156.6</ele>
        <time>2026-05-14T13:23:26.999Z</time>
      </trkpt>
      <trkpt lat="44.18682" lon="5.29033">
        <ele>1156.2</ele>
        <time>2026-05-14T13:23:27.999Z</time>
      </trkpt>
      <trkpt lat="44.18682" lon="5.29033">
        <ele>1156.2</ele>
        <time>2026-05-14T13:23:28.999Z</time>
      </trkpt>
      <trkpt lat="44.18682" lon="5.29033">
        <ele>1156.1</ele>
        <time>2026-05-14T13:23:29.999Z</time>
      </trkpt>
      <trkpt lat="44.18683" lon="5.29032">
        <ele>1155.6</ele>
        <time>2026-05-14T13:23:30.999Z</time>
      </trkpt>
      <trkpt lat="44.18683" lon="5.29032">
        <ele>1155.1</ele>
        <time>2026-05-14T13:23:31.999Z</time>
      </trkpt>
      <trkpt lat="44.18684" lon="5.29031">
        <ele>1154.6</ele>
        <time>2026-05-14T13:23:32.999Z</time>
      </trkpt>
      <trkpt lat="44.18684" lon="5.29031">
        <ele>1154.1</ele>
        <time>2026-05-14T13:23:33.999Z</time>
      </trkpt>
      <trkpt lat="44.18684" lon="5.2903">
        <ele>1153.7</ele>
        <time>2026-05-14T13:23:34.999Z</time>
      </trkpt>
      <trkpt lat="44.18685" lon="5.2903">
        <ele>1153.6</ele>
        <time>2026-05-14T13:23:35.999Z</time>
      </trkpt>
      <trkpt lat="44.18685" lon="5.2903">
        <ele>1153.4</ele>
        <time>2026-05-14T13:23:36.999Z</time>
      </trkpt>
      <trkpt lat="44.18685" lon="5.2903">
        <ele>1153.1</ele>
        <time>2026-05-14T13:23:37.999Z</time>
      </trkpt>
      <trkpt lat="44.18685" lon="5.2903">
        <ele>1152.9</ele>
        <time>2026-05-14T13:23:38.999Z</time>
      </trkpt>
      <trkpt lat="44.18685" lon="5.29031">
        <ele>1152.9</ele>
        <time>2026-05-14T13:23:39.999Z</time>
      </trkpt>
      <trkpt lat="44.18685" lon="5.29031">
        <ele>1152.6</ele>
        <time>2026-05-14T13:23:40.999Z</time>
      </trkpt>
      <trkpt lat="44.18685" lon="5.2903">
        <ele>1152.7</ele>
        <time>2026-05-14T13:23:41.999Z</time>
      </trkpt>
      <trkpt lat="44.18685" lon="5.2903">
        <ele>1152.7</ele>
        <time>2026-05-14T13:23:42.999Z</time>
      </trkpt>
      <trkpt lat="44.18685" lon="5.2903">
        <ele>1152.6</ele>
        <time>2026-05-14T13:23:43.999Z</time>
      </trkpt>
      <trkpt lat="44.18685" lon="5.2903">
        <ele>1152.8</ele>
        <time>2026-05-14T13:23:44.999Z</time>
      </trkpt>
      <trkpt lat="44.18685" lon="5.2903">
        <ele>1152.8</ele>
        <time>2026-05-14T13:23:45.999Z</time>
      </trkpt>
      <trkpt lat="44.18685" lon="5.2903">
        <ele>1152.8</ele>
        <time>2026-05-14T13:23:46.999Z</time>
      </trkpt>
      <trkpt lat="44.18685" lon="5.2903">
        <ele>1153.5</ele>
        <time>2026-05-14T13:23:47.999Z</time>
      </trkpt>
      <trkpt lat="44.18686" lon="5.2903">
        <ele>1153.5</ele>
        <time>2026-05-14T13:23:48.999Z</time>
      </trkpt>
      <trkpt lat="44.18687" lon="5.2903">
        <ele>1152.9</ele>
        <time>2026-05-14T13:23:49.999Z</time>
      </trkpt>
      <trkpt lat="44.18687" lon="5.2903">
        <ele>1153</ele>
        <time>2026-05-14T13:23:50.999Z</time>
      </trkpt>
      <trkpt lat="44.18688" lon="5.2903">
        <ele>1153.1</ele>
        <time>2026-05-14T13:23:51.999Z</time>
      </trkpt>
      <trkpt lat="44.18688" lon="5.2903">
        <ele>1153</ele>
        <time>2026-05-14T13:23:52.999Z</time>
      </trkpt>
      <trkpt lat="44.18688" lon="5.29031">
        <ele>1152.6</ele>
        <time>2026-05-14T13:23:53.999Z</time>
      </trkpt>
      <trkpt lat="44.18688" lon="5.29031">
        <ele>1152.3</ele>
        <time>2026-05-14T13:23:54.999Z</time>
      </trkpt>
      <trkpt lat="44.18688" lon="5.29031">
        <ele>1152.4</ele>
        <time>2026-05-14T13:23:55.999Z</time>
      </trkpt>
      <trkpt lat="44.18688" lon="5.29033">
        <ele>1152.3</ele>
        <time>2026-05-14T13:23:56.999Z</time>
      </trkpt>
      <trkpt lat="44.18689" lon="5.29035">
        <ele>1151.8</ele>
        <time>2026-05-14T13:23:57.999Z</time>
      </trkpt>
      <trkpt lat="44.1869" lon="5.29036">
        <ele>1151.7</ele>
        <time>2026-05-14T13:23:58.999Z</time>
      </trkpt>
      <trkpt lat="44.18691" lon="5.29037">
        <ele>1151.4</ele>
        <time>2026-05-14T13:23:59.999Z</time>
      </trkpt>
      <trkpt lat="44.18692" lon="5.29039">
        <ele>1151.2</ele>
        <time>2026-05-14T13:24:00.999Z</time>
      </trkpt>
      <trkpt lat="44.18694" lon="5.2904">
        <ele>1151</ele>
        <time>2026-05-14T13:24:01.999Z</time>
      </trkpt>
      <trkpt lat="44.18695" lon="5.29042">
        <ele>1150.8</ele>
        <time>2026-05-14T13:24:02.999Z</time>
      </trkpt>
      <trkpt lat="44.18697" lon="5.29044">
        <ele>1150.7</ele>
        <time>2026-05-14T13:24:03.999Z</time>
      </trkpt>
      <trkpt lat="44.18698" lon="5.29045">
        <ele>1150.6</ele>
        <time>2026-05-14T13:24:04.999Z</time>
      </trkpt>
      <trkpt lat="44.18698" lon="5.29046">
        <ele>1150.9</ele>
        <time>2026-05-14T13:24:05.999Z</time>
      </trkpt>
      <trkpt lat="44.18699" lon="5.29047">
        <ele>1150.6</ele>
        <time>2026-05-14T13:24:06.999Z</time>
      </trkpt>
      <trkpt lat="44.187" lon="5.29047">
        <ele>1150.4</ele>
        <time>2026-05-14T13:24:07.999Z</time>
      </trkpt>
      <trkpt lat="44.187" lon="5.29048">
        <ele>1150.2</ele>
        <time>2026-05-14T13:24:08.999Z</time>
      </trkpt>
      <trkpt lat="44.18701" lon="5.2905">
        <ele>1150.3</ele>
        <time>2026-05-14T13:24:09.999Z</time>
      </trkpt>
      <trkpt lat="44.18702" lon="5.29051">
        <ele>1150.4</ele>
        <time>2026-05-14T13:24:10.999Z</time>
      </trkpt>
      <trkpt lat="44.18703" lon="5.29053">
        <ele>1150.1</ele>
        <time>2026-05-14T13:24:11.999Z</time>
      </trkpt>
      <trkpt lat="44.18704" lon="5.29056">
        <ele>1149.9</ele>
        <time>2026-05-14T13:24:12.999Z</time>
      </trkpt>
      <trkpt lat="44.18704" lon="5.29058">
        <ele>1149.8</ele>
        <time>2026-05-14T13:24:13.999Z</time>
      </trkpt>
      <trkpt lat="44.18705" lon="5.29058">
        <ele>1150.2</ele>
        <time>2026-05-14T13:24:14.999Z</time>
      </trkpt>
      <trkpt lat="44.18705" lon="5.29059">
        <ele>1150.3</ele>
        <time>2026-05-14T13:24:15.999Z</time>
      </trkpt>
      <trkpt lat="44.18705" lon="5.29059">
        <ele>1150.2</ele>
        <time>2026-05-14T13:24:16.999Z</time>
      </trkpt>
      <trkpt lat="44.18706" lon="5.29061">
        <ele>1150.2</ele>
        <time>2026-05-14T13:24:17.999Z</time>
      </trkpt>
      <trkpt lat="44.18707" lon="5.29062">
        <ele>1149.9</ele>
        <time>2026-05-14T13:24:18.999Z</time>
      </trkpt>
      <trkpt lat="44.18708" lon="5.29062">
        <ele>1149.7</ele>
        <time>2026-05-14T13:24:19.999Z</time>
      </trkpt>
      <trkpt lat="44.18709" lon="5.29063">
        <ele>1149.5</ele>
        <time>2026-05-14T13:24:20.999Z</time>
      </trkpt>
      <trkpt lat="44.1871" lon="5.29064">
        <ele>1149.1</ele>
        <time>2026-05-14T13:24:21.999Z</time>
      </trkpt>
      <trkpt lat="44.1871" lon="5.29065">
        <ele>1149</ele>
        <time>2026-05-14T13:24:22.999Z</time>
      </trkpt>
      <trkpt lat="44.18712" lon="5.29066">
        <ele>1149.1</ele>
        <time>2026-05-14T13:24:23.999Z</time>
      </trkpt>
      <trkpt lat="44.18712" lon="5.29068">
        <ele>1149.4</ele>
        <time>2026-05-14T13:24:24.999Z</time>
      </trkpt>
      <trkpt lat="44.18713" lon="5.29069">
        <ele>1149</ele>
        <time>2026-05-14T13:24:25.999Z</time>
      </trkpt>
      <trkpt lat="44.18714" lon="5.2907">
        <ele>1148.9</ele>
        <time>2026-05-14T13:24:26.999Z</time>
      </trkpt>
      <trkpt lat="44.18715" lon="5.29071">
        <ele>1148.6</ele>
        <time>2026-05-14T13:24:27.999Z</time>
      </trkpt>
      <trkpt lat="44.18716" lon="5.29072">
        <ele>1148.6</ele>
        <time>2026-05-14T13:24:28.999Z</time>
      </trkpt>
      <trkpt lat="44.18717" lon="5.29073">
        <ele>1148</ele>
        <time>2026-05-14T13:24:29.999Z</time>
      </trkpt>
      <trkpt lat="44.18719" lon="5.29074">
        <ele>1147.3</ele>
        <time>2026-05-14T13:24:30.999Z</time>
      </trkpt>
      <trkpt lat="44.1872" lon="5.29075">
        <ele>1146.5</ele>
        <time>2026-05-14T13:24:31.999Z</time>
      </trkpt>
      <trkpt lat="44.18722" lon="5.29076">
        <ele>1146.1</ele>
        <time>2026-05-14T13:24:32.999Z</time>
      </trkpt>
      <trkpt lat="44.18723" lon="5.29077">
        <ele>1145.9</ele>
        <time>2026-05-14T13:24:33.999Z</time>
      </trkpt>
      <trkpt lat="44.18724" lon="5.29079">
        <ele>1145.8</ele>
        <time>2026-05-14T13:24:34.999Z</time>
      </trkpt>
      <trkpt lat="44.18725" lon="5.29081">
        <ele>1145.4</ele>
        <time>2026-05-14T13:24:35.999Z</time>
      </trkpt>
      <trkpt lat="44.18725" lon="5.29082">
        <ele>1145.7</ele>
        <time>2026-05-14T13:24:36.999Z</time>
      </trkpt>
      <trkpt lat="44.18725" lon="5.29083">
        <ele>1145.3</ele>
        <time>2026-05-14T13:24:37.999Z</time>
      </trkpt>
      <trkpt lat="44.18725" lon="5.29084">
        <ele>1145.3</ele>
        <time>2026-05-14T13:24:38.999Z</time>
      </trkpt>
      <trkpt lat="44.18725" lon="5.29084">
        <ele>1144.8</ele>
        <time>2026-05-14T13:24:39.999Z</time>
      </trkpt>
      <trkpt lat="44.18725" lon="5.29084">
        <ele>1144.7</ele>
        <time>2026-05-14T13:24:40.999Z</time>
      </trkpt>
      <trkpt lat="44.18726" lon="5.29086">
        <ele>1144.9</ele>
        <time>2026-05-14T13:24:41.999Z</time>
      </trkpt>
      <trkpt lat="44.18727" lon="5.29087">
        <ele>1145</ele>
        <time>2026-05-14T13:24:42.999Z</time>
      </trkpt>
      <trkpt lat="44.18728" lon="5.29089">
        <ele>1144.9</ele>
        <time>2026-05-14T13:24:43.999Z</time>
      </trkpt>
      <trkpt lat="44.18728" lon="5.29091">
        <ele>1145</ele>
        <time>2026-05-14T13:24:44.999Z</time>
      </trkpt>
      <trkpt lat="44.18729" lon="5.29092">
        <ele>1145.3</ele>
        <time>2026-05-14T13:24:45.999Z</time>
      </trkpt>
      <trkpt lat="44.18729" lon="5.29092">
        <ele>1145.2</ele>
        <time>2026-05-14T13:24:46.999Z</time>
      </trkpt>
      <trkpt lat="44.18729" lon="5.29092">
        <ele>1145.3</ele>
        <time>2026-05-14T13:24:47.999Z</time>
      </trkpt>
      <trkpt lat="44.18729" lon="5.29092">
        <ele>1145.6</ele>
        <time>2026-05-14T13:24:48.999Z</time>
      </trkpt>
      <trkpt lat="44.1873" lon="5.29093">
        <ele>1146.1</ele>
        <time>2026-05-14T13:24:49.999Z</time>
      </trkpt>
      <trkpt lat="44.18732" lon="5.29094">
        <ele>1146.1</ele>
        <time>2026-05-14T13:24:50.999Z</time>
      </trkpt>
      <trkpt lat="44.18733" lon="5.29096">
        <ele>1146.3</ele>
        <time>2026-05-14T13:24:51.999Z</time>
      </trkpt>
      <trkpt lat="44.18734" lon="5.29097">
        <ele>1146.4</ele>
        <time>2026-05-14T13:24:52.999Z</time>
      </trkpt>
      <trkpt lat="44.18734" lon="5.29099">
        <ele>1146.6</ele>
        <time>2026-05-14T13:24:53.999Z</time>
      </trkpt>
      <trkpt lat="44.18735" lon="5.29099">
        <ele>1146.9</ele>
        <time>2026-05-14T13:24:54.999Z</time>
      </trkpt>
      <trkpt lat="44.18735" lon="5.291">
        <ele>1146.8</ele>
        <time>2026-05-14T13:24:55.999Z</time>
      </trkpt>
      <trkpt lat="44.18735" lon="5.29102">
        <ele>1146.6</ele>
        <time>2026-05-14T13:24:56.999Z</time>
      </trkpt>
      <trkpt lat="44.18736" lon="5.29102">
        <ele>1146.6</ele>
        <time>2026-05-14T13:24:57.999Z</time>
      </trkpt>
      <trkpt lat="44.18736" lon="5.29102">
        <ele>1146.9</ele>
        <time>2026-05-14T13:24:58.999Z</time>
      </trkpt>
      <trkpt lat="44.18736" lon="5.29102">
        <ele>1147</ele>
        <time>2026-05-14T13:24:59.999Z</time>
      </trkpt>
      <trkpt lat="44.18737" lon="5.29105">
        <ele>1146.7</ele>
        <time>2026-05-14T13:25:00.999Z</time>
      </trkpt>
      <trkpt lat="44.18738" lon="5.29106">
        <ele>1146.7</ele>
        <time>2026-05-14T13:25:01.999Z</time>
      </trkpt>
      <trkpt lat="44.18739" lon="5.29107">
        <ele>1146.6</ele>
        <time>2026-05-14T13:25:02.999Z</time>
      </trkpt>
      <trkpt lat="44.18739" lon="5.29107">
        <ele>1146.7</ele>
        <time>2026-05-14T13:25:03.999Z</time>
      </trkpt>
      <trkpt lat="44.18739" lon="5.29108">
        <ele>1146.5</ele>
        <time>2026-05-14T13:25:04.999Z</time>
      </trkpt>
      <trkpt lat="44.18739" lon="5.29108">
        <ele>1146.2</ele>
        <time>2026-05-14T13:25:05.999Z</time>
      </trkpt>
      <trkpt lat="44.18739" lon="5.29108">
        <ele>1146</ele>
        <time>2026-05-14T13:25:06.999Z</time>
      </trkpt>
      <trkpt lat="44.18739" lon="5.29109">
        <ele>1145.6</ele>
        <time>2026-05-14T13:25:07.999Z</time>
      </trkpt>
      <trkpt lat="44.18739" lon="5.29109">
        <ele>1145.4</ele>
        <time>2026-05-14T13:25:08.999Z</time>
      </trkpt>
      <trkpt lat="44.18739" lon="5.29109">
        <ele>1145.3</ele>
        <time>2026-05-14T13:25:09.999Z</time>
      </trkpt>
      <trkpt lat="44.1874" lon="5.29109">
        <ele>1145.2</ele>
        <time>2026-05-14T13:25:10.999Z</time>
      </trkpt>
      <trkpt lat="44.18741" lon="5.29112">
        <ele>1145.2</ele>
        <time>2026-05-14T13:25:11.999Z</time>
      </trkpt>
      <trkpt lat="44.18742" lon="5.29114">
        <ele>1145</ele>
        <time>2026-05-14T13:25:12.999Z</time>
      </trkpt>
      <trkpt lat="44.18744" lon="5.29117">
        <ele>1144.7</ele>
        <time>2026-05-14T13:25:13.999Z</time>
      </trkpt>
      <trkpt lat="44.18746" lon="5.2912">
        <ele>1144.4</ele>
        <time>2026-05-14T13:25:14.999Z</time>
      </trkpt>
      <trkpt lat="44.18748" lon="5.29123">
        <ele>1144.1</ele>
        <time>2026-05-14T13:25:15.999Z</time>
      </trkpt>
      <trkpt lat="44.18749" lon="5.29125">
        <ele>1143.7</ele>
        <time>2026-05-14T13:25:16.999Z</time>
      </trkpt>
      <trkpt lat="44.18749" lon="5.29127">
        <ele>1143.2</ele>
        <time>2026-05-14T13:25:17.999Z</time>
      </trkpt>
      <trkpt lat="44.1875" lon="5.29129">
        <ele>1142.8</ele>
        <time>2026-05-14T13:25:18.999Z</time>
      </trkpt>
      <trkpt lat="44.18751" lon="5.29129">
        <ele>1142.3</ele>
        <time>2026-05-14T13:25:19.999Z</time>
      </trkpt>
      <trkpt lat="44.18752" lon="5.2913">
        <ele>1142.1</ele>
        <time>2026-05-14T13:25:20.999Z</time>
      </trkpt>
      <trkpt lat="44.18754" lon="5.2913">
        <ele>1141.8</ele>
        <time>2026-05-14T13:25:21.999Z</time>
      </trkpt>
      <trkpt lat="44.18755" lon="5.29132">
        <ele>1141.7</ele>
        <time>2026-05-14T13:25:22.999Z</time>
      </trkpt>
      <trkpt lat="44.18757" lon="5.29133">
        <ele>1142.2</ele>
        <time>2026-05-14T13:25:23.999Z</time>
      </trkpt>
      <trkpt lat="44.18758" lon="5.29135">
        <ele>1142.1</ele>
        <time>2026-05-14T13:25:24.999Z</time>
      </trkpt>
      <trkpt lat="44.1876" lon="5.29137">
        <ele>1141.7</ele>
        <time>2026-05-14T13:25:25.999Z</time>
      </trkpt>
      <trkpt lat="44.1876" lon="5.29139">
        <ele>1141.6</ele>
        <time>2026-05-14T13:25:26.999Z</time>
      </trkpt>
      <trkpt lat="44.18762" lon="5.2914">
        <ele>1141.6</ele>
        <time>2026-05-14T13:25:27.999Z</time>
      </trkpt>
      <trkpt lat="44.18763" lon="5.29141">
        <ele>1141.4</ele>
        <time>2026-05-14T13:25:28.999Z</time>
      </trkpt>
      <trkpt lat="44.18764" lon="5.29142">
        <ele>1141.2</ele>
        <time>2026-05-14T13:25:29.999Z</time>
      </trkpt>
      <trkpt lat="44.18764" lon="5.29144">
        <ele>1141</ele>
        <time>2026-05-14T13:25:30.999Z</time>
      </trkpt>
      <trkpt lat="44.18765" lon="5.29145">
        <ele>1141.2</ele>
        <time>2026-05-14T13:25:31.999Z</time>
      </trkpt>
      <trkpt lat="44.18766" lon="5.29146">
        <ele>1141.3</ele>
        <time>2026-05-14T13:25:32.999Z</time>
      </trkpt>
      <trkpt lat="44.18766" lon="5.29148">
        <ele>1141.1</ele>
        <time>2026-05-14T13:25:33.999Z</time>
      </trkpt>
      <trkpt lat="44.18766" lon="5.29149">
        <ele>1140.8</ele>
        <time>2026-05-14T13:25:34.999Z</time>
      </trkpt>
      <trkpt lat="44.18767" lon="5.2915">
        <ele>1140.7</ele>
        <time>2026-05-14T13:25:35.999Z</time>
      </trkpt>
      <trkpt lat="44.18768" lon="5.29152">
        <ele>1140.9</ele>
        <time>2026-05-14T13:25:36.999Z</time>
      </trkpt>
      <trkpt lat="44.18768" lon="5.29154">
        <ele>1141.1</ele>
        <time>2026-05-14T13:25:37.999Z</time>
      </trkpt>
      <trkpt lat="44.18769" lon="5.29155">
        <ele>1140.6</ele>
        <time>2026-05-14T13:25:38.999Z</time>
      </trkpt>
      <trkpt lat="44.18769" lon="5.29156">
        <ele>1139.7</ele>
        <time>2026-05-14T13:25:39.999Z</time>
      </trkpt>
      <trkpt lat="44.18769" lon="5.29157">
        <ele>1138.7</ele>
        <time>2026-05-14T13:25:40.999Z</time>
      </trkpt>
      <trkpt lat="44.1877" lon="5.29158">
        <ele>1138.4</ele>
        <time>2026-05-14T13:25:41.999Z</time>
      </trkpt>
      <trkpt lat="44.1877" lon="5.29159">
        <ele>1137.8</ele>
        <time>2026-05-14T13:25:42.999Z</time>
      </trkpt>
      <trkpt lat="44.18769" lon="5.29159">
        <ele>1137.5</ele>
        <time>2026-05-14T13:25:43.999Z</time>
      </trkpt>
      <trkpt lat="44.1877" lon="5.29159">
        <ele>1138.5</ele>
        <time>2026-05-14T13:25:44.999Z</time>
      </trkpt>
      <trkpt lat="44.1877" lon="5.2916">
        <ele>1138.5</ele>
        <time>2026-05-14T13:25:45.999Z</time>
      </trkpt>
      <trkpt lat="44.1877" lon="5.2916">
        <ele>1138.2</ele>
        <time>2026-05-14T13:25:46.999Z</time>
      </trkpt>
      <trkpt lat="44.1877" lon="5.2916">
        <ele>1138</ele>
        <time>2026-05-14T13:25:47.999Z</time>
      </trkpt>
      <trkpt lat="44.1877" lon="5.2916">
        <ele>1137.3</ele>
        <time>2026-05-14T13:25:48.999Z</time>
      </trkpt>
      <trkpt lat="44.1877" lon="5.29163">
        <ele>1137.1</ele>
        <time>2026-05-14T13:25:49.999Z</time>
      </trkpt>
      <trkpt lat="44.1877" lon="5.29165">
        <ele>1137.3</ele>
        <time>2026-05-14T13:25:50.999Z</time>
      </trkpt>
      <trkpt lat="44.1877" lon="5.29166">
        <ele>1136.7</ele>
        <time>2026-05-14T13:25:51.999Z</time>
      </trkpt>
      <trkpt lat="44.18771" lon="5.29167">
        <ele>1136.6</ele>
        <time>2026-05-14T13:25:52.999Z</time>
      </trkpt>
      <trkpt lat="44.18771" lon="5.29168">
        <ele>1136.5</ele>
        <time>2026-05-14T13:25:53.999Z</time>
      </trkpt>
      <trkpt lat="44.18772" lon="5.2917">
        <ele>1136.2</ele>
        <time>2026-05-14T13:25:54.999Z</time>
      </trkpt>
      <trkpt lat="44.18773" lon="5.29173">
        <ele>1135.4</ele>
        <time>2026-05-14T13:25:55.999Z</time>
      </trkpt>
      <trkpt lat="44.18774" lon="5.29175">
        <ele>1135.2</ele>
        <time>2026-05-14T13:25:56.999Z</time>
      </trkpt>
      <trkpt lat="44.18774" lon="5.29177">
        <ele>1134.9</ele>
        <time>2026-05-14T13:25:57.999Z</time>
      </trkpt>
      <trkpt lat="44.18774" lon="5.29178">
        <ele>1135</ele>
        <time>2026-05-14T13:25:58.999Z</time>
      </trkpt>
      <trkpt lat="44.18775" lon="5.29179">
        <ele>1135.1</ele>
        <time>2026-05-14T13:25:59.999Z</time>
      </trkpt>
      <trkpt lat="44.18775" lon="5.29179">
        <ele>1134.5</ele>
        <time>2026-05-14T13:26:00.999Z</time>
      </trkpt>
      <trkpt lat="44.18775" lon="5.29179">
        <ele>1134</ele>
        <time>2026-05-14T13:26:01.999Z</time>
      </trkpt>
      <trkpt lat="44.18776" lon="5.2918">
        <ele>1133.6</ele>
        <time>2026-05-14T13:26:02.999Z</time>
      </trkpt>
      <trkpt lat="44.18777" lon="5.29181">
        <ele>1133</ele>
        <time>2026-05-14T13:26:03.999Z</time>
      </trkpt>
      <trkpt lat="44.18778" lon="5.29181">
        <ele>1132.7</ele>
        <time>2026-05-14T13:26:04.999Z</time>
      </trkpt>
      <trkpt lat="44.18779" lon="5.29182">
        <ele>1132.7</ele>
        <time>2026-05-14T13:26:05.999Z</time>
      </trkpt>
      <trkpt lat="44.18779" lon="5.29183">
        <ele>1132.7</ele>
        <time>2026-05-14T13:26:06.999Z</time>
      </trkpt>
      <trkpt lat="44.18779" lon="5.29184">
        <ele>1132.1</ele>
        <time>2026-05-14T13:26:07.999Z</time>
      </trkpt>
      <trkpt lat="44.1878" lon="5.29185">
        <ele>1131.5</ele>
        <time>2026-05-14T13:26:08.999Z</time>
      </trkpt>
      <trkpt lat="44.18781" lon="5.29186">
        <ele>1131.3</ele>
        <time>2026-05-14T13:26:09.999Z</time>
      </trkpt>
      <trkpt lat="44.18782" lon="5.29186">
        <ele>1131.3</ele>
        <time>2026-05-14T13:26:10.999Z</time>
      </trkpt>
      <trkpt lat="44.18782" lon="5.29187">
        <ele>1131.4</ele>
        <time>2026-05-14T13:26:11.999Z</time>
      </trkpt>
      <trkpt lat="44.18784" lon="5.29188">
        <ele>1131.7</ele>
        <time>2026-05-14T13:26:12.999Z</time>
      </trkpt>
      <trkpt lat="44.18785" lon="5.29188">
        <ele>1131.1</ele>
        <time>2026-05-14T13:26:13.999Z</time>
      </trkpt>
      <trkpt lat="44.18785" lon="5.29188">
        <ele>1131</ele>
        <time>2026-05-14T13:26:14.999Z</time>
      </trkpt>
      <trkpt lat="44.18785" lon="5.29188">
        <ele>1130.8</ele>
        <time>2026-05-14T13:26:15.999Z</time>
      </trkpt>
      <trkpt lat="44.18786" lon="5.29189">
        <ele>1130.8</ele>
        <time>2026-05-14T13:26:16.999Z</time>
      </trkpt>
      <trkpt lat="44.18787" lon="5.2919">
        <ele>1130.4</ele>
        <time>2026-05-14T13:26:17.999Z</time>
      </trkpt>
      <trkpt lat="44.1879" lon="5.29192">
        <ele>1130.4</ele>
        <time>2026-05-14T13:26:18.999Z</time>
      </trkpt>
      <trkpt lat="44.18791" lon="5.29194">
        <ele>1130.2</ele>
        <time>2026-05-14T13:26:19.999Z</time>
      </trkpt>
      <trkpt lat="44.18793" lon="5.29196">
        <ele>1130.3</ele>
        <time>2026-05-14T13:26:20.999Z</time>
      </trkpt>
      <trkpt lat="44.18795" lon="5.29198">
        <ele>1130.4</ele>
        <time>2026-05-14T13:26:21.999Z</time>
      </trkpt>
      <trkpt lat="44.18796" lon="5.29199">
        <ele>1130.2</ele>
        <time>2026-05-14T13:26:22.999Z</time>
      </trkpt>
      <trkpt lat="44.18797" lon="5.292">
        <ele>1130.1</ele>
        <time>2026-05-14T13:26:23.999Z</time>
      </trkpt>
      <trkpt lat="44.18798" lon="5.292">
        <ele>1130.3</ele>
        <time>2026-05-14T13:26:24.999Z</time>
      </trkpt>
      <trkpt lat="44.18801" lon="5.29202">
        <ele>1130.3</ele>
        <time>2026-05-14T13:26:25.999Z</time>
      </trkpt>
      <trkpt lat="44.18802" lon="5.29203">
        <ele>1130.2</ele>
        <time>2026-05-14T13:26:26.999Z</time>
      </trkpt>
      <trkpt lat="44.18803" lon="5.29204">
        <ele>1130.3</ele>
        <time>2026-05-14T13:26:27.999Z</time>
      </trkpt>
      <trkpt lat="44.18804" lon="5.29205">
        <ele>1130.3</ele>
        <time>2026-05-14T13:26:28.999Z</time>
      </trkpt>
      <trkpt lat="44.18804" lon="5.29206">
        <ele>1130.6</ele>
        <time>2026-05-14T13:26:29.999Z</time>
      </trkpt>
      <trkpt lat="44.18805" lon="5.29207">
        <ele>1130.7</ele>
        <time>2026-05-14T13:26:30.999Z</time>
      </trkpt>
      <trkpt lat="44.18806" lon="5.29208">
        <ele>1131.1</ele>
        <time>2026-05-14T13:26:31.999Z</time>
      </trkpt>
      <trkpt lat="44.18806" lon="5.29209">
        <ele>1131.4</ele>
        <time>2026-05-14T13:26:32.999Z</time>
      </trkpt>
      <trkpt lat="44.18807" lon="5.29211">
        <ele>1131.9</ele>
        <time>2026-05-14T13:26:33.999Z</time>
      </trkpt>
      <trkpt lat="44.18807" lon="5.29213">
        <ele>1131.9</ele>
        <time>2026-05-14T13:26:34.999Z</time>
      </trkpt>
      <trkpt lat="44.18807" lon="5.29215">
        <ele>1131.7</ele>
        <time>2026-05-14T13:26:35.999Z</time>
      </trkpt>
      <trkpt lat="44.18807" lon="5.29217">
        <ele>1131.6</ele>
        <time>2026-05-14T13:26:36.999Z</time>
      </trkpt>
      <trkpt lat="44.18807" lon="5.29218">
        <ele>1131.4</ele>
        <time>2026-05-14T13:26:37.999Z</time>
      </trkpt>
      <trkpt lat="44.18807" lon="5.29219">
        <ele>1131.2</ele>
        <time>2026-05-14T13:26:38.999Z</time>
      </trkpt>
      <trkpt lat="44.18806" lon="5.29221">
        <ele>1130.9</ele>
        <time>2026-05-14T13:26:39.999Z</time>
      </trkpt>
      <trkpt lat="44.18806" lon="5.29222">
        <ele>1130.5</ele>
        <time>2026-05-14T13:26:40.999Z</time>
      </trkpt>
      <trkpt lat="44.18806" lon="5.29224">
        <ele>1129.9</ele>
        <time>2026-05-14T13:26:41.999Z</time>
      </trkpt>
      <trkpt lat="44.18805" lon="5.29225">
        <ele>1129.5</ele>
        <time>2026-05-14T13:26:42.999Z</time>
      </trkpt>
      <trkpt lat="44.18805" lon="5.29226">
        <ele>1129.3</ele>
        <time>2026-05-14T13:26:43.999Z</time>
      </trkpt>
      <trkpt lat="44.18804" lon="5.29228">
        <ele>1128.7</ele>
        <time>2026-05-14T13:26:45.999Z</time>
      </trkpt>
      <trkpt lat="44.18803" lon="5.29229">
        <ele>1128.2</ele>
        <time>2026-05-14T13:26:46.999Z</time>
      </trkpt>
      <trkpt lat="44.18803" lon="5.2923">
        <ele>1127.6</ele>
        <time>2026-05-14T13:26:47.999Z</time>
      </trkpt>
      <trkpt lat="44.18804" lon="5.29232">
        <ele>1127.1</ele>
        <time>2026-05-14T13:26:48.999Z</time>
      </trkpt>
      <trkpt lat="44.18804" lon="5.29234">
        <ele>1126.8</ele>
        <time>2026-05-14T13:26:49.999Z</time>
      </trkpt>
      <trkpt lat="44.18804" lon="5.29235">
        <ele>1126.8</ele>
        <time>2026-05-14T13:26:50.999Z</time>
      </trkpt>
      <trkpt lat="44.18804" lon="5.29237">
        <ele>1126.2</ele>
        <time>2026-05-14T13:26:51.999Z</time>
      </trkpt>
      <trkpt lat="44.18804" lon="5.2924">
        <ele>1125.5</ele>
        <time>2026-05-14T13:26:52.999Z</time>
      </trkpt>
      <trkpt lat="44.18804" lon="5.29242">
        <ele>1125.1</ele>
        <time>2026-05-14T13:26:53.999Z</time>
      </trkpt>
      <trkpt lat="44.18804" lon="5.29245">
        <ele>1124.6</ele>
        <time>2026-05-14T13:26:54.999Z</time>
      </trkpt>
      <trkpt lat="44.18804" lon="5.29246">
        <ele>1123.8</ele>
        <time>2026-05-14T13:26:55.999Z</time>
      </trkpt>
      <trkpt lat="44.18804" lon="5.29246">
        <ele>1123.4</ele>
        <time>2026-05-14T13:26:56.999Z</time>
      </trkpt>
      <trkpt lat="44.18804" lon="5.29246">
        <ele>1123.4</ele>
        <time>2026-05-14T13:26:57.999Z</time>
      </trkpt>
      <trkpt lat="44.18804" lon="5.29247">
        <ele>1123.5</ele>
        <time>2026-05-14T13:26:58.999Z</time>
      </trkpt>
      <trkpt lat="44.18804" lon="5.29247">
        <ele>1123.6</ele>
        <time>2026-05-14T13:26:59.999Z</time>
      </trkpt>
      <trkpt lat="44.18805" lon="5.2925">
        <ele>1123.5</ele>
        <time>2026-05-14T13:27:00.999Z</time>
      </trkpt>
      <trkpt lat="44.18805" lon="5.29252">
        <ele>1123.8</ele>
        <time>2026-05-14T13:27:01.999Z</time>
      </trkpt>
      <trkpt lat="44.18806" lon="5.29254">
        <ele>1123.4</ele>
        <time>2026-05-14T13:27:02.999Z</time>
      </trkpt>
      <trkpt lat="44.18807" lon="5.29255">
        <ele>1123.2</ele>
        <time>2026-05-14T13:27:03.999Z</time>
      </trkpt>
      <trkpt lat="44.18807" lon="5.29256">
        <ele>1123.1</ele>
        <time>2026-05-14T13:27:04.999Z</time>
      </trkpt>
      <trkpt lat="44.18807" lon="5.29257">
        <ele>1123</ele>
        <time>2026-05-14T13:27:05.999Z</time>
      </trkpt>
      <trkpt lat="44.18807" lon="5.29258">
        <ele>1122.7</ele>
        <time>2026-05-14T13:27:06.999Z</time>
      </trkpt>
      <trkpt lat="44.18808" lon="5.29258">
        <ele>1122.5</ele>
        <time>2026-05-14T13:27:07.999Z</time>
      </trkpt>
      <trkpt lat="44.18808" lon="5.29258">
        <ele>1122.5</ele>
        <time>2026-05-14T13:27:08.999Z</time>
      </trkpt>
      <trkpt lat="44.18808" lon="5.29258">
        <ele>1122.5</ele>
        <time>2026-05-14T13:27:09.999Z</time>
      </trkpt>
      <trkpt lat="44.18808" lon="5.29259">
        <ele>1122.8</ele>
        <time>2026-05-14T13:27:10.999Z</time>
      </trkpt>
      <trkpt lat="44.18808" lon="5.29259">
        <ele>1123.7</ele>
        <time>2026-05-14T13:27:11.999Z</time>
      </trkpt>
      <trkpt lat="44.18808" lon="5.2926">
        <ele>1124</ele>
        <time>2026-05-14T13:27:12.999Z</time>
      </trkpt>
      <trkpt lat="44.18809" lon="5.29264">
        <ele>1124.1</ele>
        <time>2026-05-14T13:27:13.999Z</time>
      </trkpt>
      <trkpt lat="44.1881" lon="5.29269">
        <ele>1124.1</ele>
        <time>2026-05-14T13:27:14.999Z</time>
      </trkpt>
      <trkpt lat="44.18811" lon="5.29272">
        <ele>1124</ele>
        <time>2026-05-14T13:27:15.999Z</time>
      </trkpt>
      <trkpt lat="44.18812" lon="5.29275">
        <ele>1123.7</ele>
        <time>2026-05-14T13:27:16.999Z</time>
      </trkpt>
      <trkpt lat="44.18812" lon="5.29278">
        <ele>1123.2</ele>
        <time>2026-05-14T13:27:17.999Z</time>
      </trkpt>
      <trkpt lat="44.18813" lon="5.29281">
        <ele>1122.9</ele>
        <time>2026-05-14T13:27:18.999Z</time>
      </trkpt>
      <trkpt lat="44.18814" lon="5.29284">
        <ele>1122.7</ele>
        <time>2026-05-14T13:27:19.999Z</time>
      </trkpt>
      <trkpt lat="44.18814" lon="5.29286">
        <ele>1122.7</ele>
        <time>2026-05-14T13:27:20.999Z</time>
      </trkpt>
      <trkpt lat="44.18814" lon="5.29289">
        <ele>1122.5</ele>
        <time>2026-05-14T13:27:21.999Z</time>
      </trkpt>
      <trkpt lat="44.18815" lon="5.2929">
        <ele>1123.2</ele>
        <time>2026-05-14T13:27:22.999Z</time>
      </trkpt>
      <trkpt lat="44.18816" lon="5.29293">
        <ele>1122.9</ele>
        <time>2026-05-14T13:27:23.999Z</time>
      </trkpt>
      <trkpt lat="44.18817" lon="5.29295">
        <ele>1123.2</ele>
        <time>2026-05-14T13:27:24.999Z</time>
      </trkpt>
      <trkpt lat="44.18817" lon="5.29297">
        <ele>1123.2</ele>
        <time>2026-05-14T13:27:25.999Z</time>
      </trkpt>
      <trkpt lat="44.18818" lon="5.29299">
        <ele>1123</ele>
        <time>2026-05-14T13:27:26.999Z</time>
      </trkpt>
      <trkpt lat="44.18819" lon="5.29301">
        <ele>1122.7</ele>
        <time>2026-05-14T13:27:27.999Z</time>
      </trkpt>
      <trkpt lat="44.18819" lon="5.29302">
        <ele>1122.7</ele>
        <time>2026-05-14T13:27:28.999Z</time>
      </trkpt>
      <trkpt lat="44.1882" lon="5.29305">
        <ele>1122.4</ele>
        <time>2026-05-14T13:27:29.999Z</time>
      </trkpt>
      <trkpt lat="44.1882" lon="5.29307">
        <ele>1122</ele>
        <time>2026-05-14T13:27:30.999Z</time>
      </trkpt>
      <trkpt lat="44.18821" lon="5.29308">
        <ele>1121.7</ele>
        <time>2026-05-14T13:27:31.999Z</time>
      </trkpt>
      <trkpt lat="44.18821" lon="5.2931">
        <ele>1121.3</ele>
        <time>2026-05-14T13:27:32.999Z</time>
      </trkpt>
      <trkpt lat="44.1882" lon="5.29313">
        <ele>1121.2</ele>
        <time>2026-05-14T13:27:33.999Z</time>
      </trkpt>
      <trkpt lat="44.18821" lon="5.29313">
        <ele>1121</ele>
        <time>2026-05-14T13:27:34.999Z</time>
      </trkpt>
      <trkpt lat="44.18821" lon="5.29314">
        <ele>1120.9</ele>
        <time>2026-05-14T13:27:35.999Z</time>
      </trkpt>
      <trkpt lat="44.18821" lon="5.29314">
        <ele>1120.8</ele>
        <time>2026-05-14T13:27:36.999Z</time>
      </trkpt>
      <trkpt lat="44.18821" lon="5.29317">
        <ele>1120.5</ele>
        <time>2026-05-14T13:27:37.999Z</time>
      </trkpt>
      <trkpt lat="44.18821" lon="5.29319">
        <ele>1120.1</ele>
        <time>2026-05-14T13:27:38.999Z</time>
      </trkpt>
      <trkpt lat="44.18821" lon="5.2932">
        <ele>1120</ele>
        <time>2026-05-14T13:27:39.999Z</time>
      </trkpt>
      <trkpt lat="44.18821" lon="5.29321">
        <ele>1120</ele>
        <time>2026-05-14T13:27:40.999Z</time>
      </trkpt>
      <trkpt lat="44.18821" lon="5.29321">
        <ele>1119.5</ele>
        <time>2026-05-14T13:27:41.999Z</time>
      </trkpt>
      <trkpt lat="44.18821" lon="5.29321">
        <ele>1119.4</ele>
        <time>2026-05-14T13:27:42.999Z</time>
      </trkpt>
      <trkpt lat="44.18822" lon="5.29322">
        <ele>1119.3</ele>
        <time>2026-05-14T13:27:43.999Z</time>
      </trkpt>
      <trkpt lat="44.18823" lon="5.29325">
        <ele>1119.1</ele>
        <time>2026-05-14T13:27:44.999Z</time>
      </trkpt>
      <trkpt lat="44.18824" lon="5.29327">
        <ele>1119.2</ele>
        <time>2026-05-14T13:27:45.999Z</time>
      </trkpt>
      <trkpt lat="44.18825" lon="5.29329">
        <ele>1118.7</ele>
        <time>2026-05-14T13:27:46.999Z</time>
      </trkpt>
      <trkpt lat="44.18825" lon="5.2933">
        <ele>1118.6</ele>
        <time>2026-05-14T13:27:47.999Z</time>
      </trkpt>
      <trkpt lat="44.18826" lon="5.29331">
        <ele>1118.2</ele>
        <time>2026-05-14T13:27:48.999Z</time>
      </trkpt>
      <trkpt lat="44.18826" lon="5.29333">
        <ele>1117.6</ele>
        <time>2026-05-14T13:27:49.999Z</time>
      </trkpt>
      <trkpt lat="44.18827" lon="5.29334">
        <ele>1116.9</ele>
        <time>2026-05-14T13:27:50.999Z</time>
      </trkpt>
      <trkpt lat="44.18828" lon="5.29336">
        <ele>1116.2</ele>
        <time>2026-05-14T13:27:51.999Z</time>
      </trkpt>
      <trkpt lat="44.18827" lon="5.29338">
        <ele>1115.4</ele>
        <time>2026-05-14T13:27:52.999Z</time>
      </trkpt>
      <trkpt lat="44.18827" lon="5.29339">
        <ele>1114.8</ele>
        <time>2026-05-14T13:27:53.999Z</time>
      </trkpt>
      <trkpt lat="44.18827" lon="5.29339">
        <ele>1115.4</ele>
        <time>2026-05-14T13:27:54.999Z</time>
      </trkpt>
      <trkpt lat="44.18827" lon="5.2934">
        <ele>1115</ele>
        <time>2026-05-14T13:27:55.999Z</time>
      </trkpt>
      <trkpt lat="44.18827" lon="5.29341">
        <ele>1115</ele>
        <time>2026-05-14T13:27:56.999Z</time>
      </trkpt>
      <trkpt lat="44.18827" lon="5.29341">
        <ele>1114.8</ele>
        <time>2026-05-14T13:27:57.999Z</time>
      </trkpt>
      <trkpt lat="44.18827" lon="5.29341">
        <ele>1114.4</ele>
        <time>2026-05-14T13:27:58.999Z</time>
      </trkpt>
      <trkpt lat="44.18827" lon="5.29342">
        <ele>1114.2</ele>
        <time>2026-05-14T13:27:59.999Z</time>
      </trkpt>
      <trkpt lat="44.18827" lon="5.29342">
        <ele>1113.6</ele>
        <time>2026-05-14T13:28:00.999Z</time>
      </trkpt>
      <trkpt lat="44.18827" lon="5.29343">
        <ele>1113.1</ele>
        <time>2026-05-14T13:28:01.999Z</time>
      </trkpt>
      <trkpt lat="44.18827" lon="5.29344">
        <ele>1112.8</ele>
        <time>2026-05-14T13:28:02.999Z</time>
      </trkpt>
      <trkpt lat="44.18827" lon="5.29344">
        <ele>1112.7</ele>
        <time>2026-05-14T13:28:03.999Z</time>
      </trkpt>
      <trkpt lat="44.18827" lon="5.29345">
        <ele>1112.7</ele>
        <time>2026-05-14T13:28:04.999Z</time>
      </trkpt>
      <trkpt lat="44.18827" lon="5.29348">
        <ele>1112.7</ele>
        <time>2026-05-14T13:28:05.999Z</time>
      </trkpt>
      <trkpt lat="44.18827" lon="5.29352">
        <ele>1112.8</ele>
        <time>2026-05-14T13:28:06.999Z</time>
      </trkpt>
      <trkpt lat="44.18828" lon="5.29355">
        <ele>1113</ele>
        <time>2026-05-14T13:28:07.999Z</time>
      </trkpt>
      <trkpt lat="44.18828" lon="5.29358">
        <ele>1113.2</ele>
        <time>2026-05-14T13:28:08.999Z</time>
      </trkpt>
      <trkpt lat="44.18828" lon="5.29362">
        <ele>1113.1</ele>
        <time>2026-05-14T13:28:09.999Z</time>
      </trkpt>
      <trkpt lat="44.18828" lon="5.29365">
        <ele>1112.8</ele>
        <time>2026-05-14T13:28:10.999Z</time>
      </trkpt>
      <trkpt lat="44.18828" lon="5.29368">
        <ele>1112.4</ele>
        <time>2026-05-14T13:28:11.999Z</time>
      </trkpt>
      <trkpt lat="44.18828" lon="5.2937">
        <ele>1112</ele>
        <time>2026-05-14T13:28:12.999Z</time>
      </trkpt>
      <trkpt lat="44.18829" lon="5.29373">
        <ele>1111.7</ele>
        <time>2026-05-14T13:28:13.999Z</time>
      </trkpt>
      <trkpt lat="44.1883" lon="5.29375">
        <ele>1111.3</ele>
        <time>2026-05-14T13:28:14.999Z</time>
      </trkpt>
      <trkpt lat="44.1883" lon="5.29377">
        <ele>1111.4</ele>
        <time>2026-05-14T13:28:15.999Z</time>
      </trkpt>
      <trkpt lat="44.18831" lon="5.29379">
        <ele>1110.9</ele>
        <time>2026-05-14T13:28:16.999Z</time>
      </trkpt>
      <trkpt lat="44.18831" lon="5.2938">
        <ele>1110.5</ele>
        <time>2026-05-14T13:28:17.999Z</time>
      </trkpt>
      <trkpt lat="44.1883" lon="5.29382">
        <ele>1110.1</ele>
        <time>2026-05-14T13:28:18.999Z</time>
      </trkpt>
      <trkpt lat="44.18831" lon="5.29384">
        <ele>1109.7</ele>
        <time>2026-05-14T13:28:19.999Z</time>
      </trkpt>
      <trkpt lat="44.18831" lon="5.29385">
        <ele>1109.6</ele>
        <time>2026-05-14T13:28:20.999Z</time>
      </trkpt>
      <trkpt lat="44.18831" lon="5.29388">
        <ele>1109.1</ele>
        <time>2026-05-14T13:28:21.999Z</time>
      </trkpt>
      <trkpt lat="44.18832" lon="5.29389">
        <ele>1108.5</ele>
        <time>2026-05-14T13:28:22.999Z</time>
      </trkpt>
      <trkpt lat="44.18832" lon="5.29391">
        <ele>1108.4</ele>
        <time>2026-05-14T13:28:23.999Z</time>
      </trkpt>
      <trkpt lat="44.18832" lon="5.29391">
        <ele>1107.8</ele>
        <time>2026-05-14T13:28:24.999Z</time>
      </trkpt>
      <trkpt lat="44.18832" lon="5.29391">
        <ele>1107</ele>
        <time>2026-05-14T13:28:25.999Z</time>
      </trkpt>
      <trkpt lat="44.18833" lon="5.29392">
        <ele>1106.2</ele>
        <time>2026-05-14T13:28:26.999Z</time>
      </trkpt>
      <trkpt lat="44.18834" lon="5.29394">
        <ele>1105.9</ele>
        <time>2026-05-14T13:28:27.999Z</time>
      </trkpt>
      <trkpt lat="44.18834" lon="5.29395">
        <ele>1105.6</ele>
        <time>2026-05-14T13:28:28.999Z</time>
      </trkpt>
      <trkpt lat="44.18836" lon="5.29396">
        <ele>1105.5</ele>
        <time>2026-05-14T13:28:29.999Z</time>
      </trkpt>
      <trkpt lat="44.18837" lon="5.29399">
        <ele>1106.1</ele>
        <time>2026-05-14T13:28:30.999Z</time>
      </trkpt>
      <trkpt lat="44.18838" lon="5.29401">
        <ele>1106.4</ele>
        <time>2026-05-14T13:28:31.999Z</time>
      </trkpt>
      <trkpt lat="44.18839" lon="5.29404">
        <ele>1106.5</ele>
        <time>2026-05-14T13:28:32.999Z</time>
      </trkpt>
      <trkpt lat="44.1884" lon="5.29406">
        <ele>1107.2</ele>
        <time>2026-05-14T13:28:33.999Z</time>
      </trkpt>
      <trkpt lat="44.18841" lon="5.29408">
        <ele>1107.9</ele>
        <time>2026-05-14T13:28:34.999Z</time>
      </trkpt>
      <trkpt lat="44.1884" lon="5.29408">
        <ele>1107.9</ele>
        <time>2026-05-14T13:28:35.999Z</time>
      </trkpt>
      <trkpt lat="44.1884" lon="5.2941">
        <ele>1108.3</ele>
        <time>2026-05-14T13:28:36.999Z</time>
      </trkpt>
      <trkpt lat="44.1884" lon="5.29411">
        <ele>1108.4</ele>
        <time>2026-05-14T13:28:37.999Z</time>
      </trkpt>
      <trkpt lat="44.18839" lon="5.29413">
        <ele>1108.3</ele>
        <time>2026-05-14T13:28:38.999Z</time>
      </trkpt>
      <trkpt lat="44.18838" lon="5.29414">
        <ele>1107.6</ele>
        <time>2026-05-14T13:28:39.999Z</time>
      </trkpt>
      <trkpt lat="44.18837" lon="5.29416">
        <ele>1107.1</ele>
        <time>2026-05-14T13:28:40.999Z</time>
      </trkpt>
      <trkpt lat="44.18835" lon="5.29419">
        <ele>1106.4</ele>
        <time>2026-05-14T13:28:41.999Z</time>
      </trkpt>
      <trkpt lat="44.18834" lon="5.2942">
        <ele>1106.4</ele>
        <time>2026-05-14T13:28:42.999Z</time>
      </trkpt>
      <trkpt lat="44.18834" lon="5.29421">
        <ele>1105.9</ele>
        <time>2026-05-14T13:28:43.999Z</time>
      </trkpt>
      <trkpt lat="44.18834" lon="5.29423">
        <ele>1105.4</ele>
        <time>2026-05-14T13:28:44.999Z</time>
      </trkpt>
      <trkpt lat="44.18833" lon="5.29425">
        <ele>1105.2</ele>
        <time>2026-05-14T13:28:45.999Z</time>
      </trkpt>
      <trkpt lat="44.18833" lon="5.29426">
        <ele>1105.1</ele>
        <time>2026-05-14T13:28:46.999Z</time>
      </trkpt>
      <trkpt lat="44.18833" lon="5.29428">
        <ele>1105.1</ele>
        <time>2026-05-14T13:28:47.999Z</time>
      </trkpt>
      <trkpt lat="44.18833" lon="5.29429">
        <ele>1106.3</ele>
        <time>2026-05-14T13:28:48.999Z</time>
      </trkpt>
      <trkpt lat="44.18833" lon="5.29429">
        <ele>1106.9</ele>
        <time>2026-05-14T13:28:49.999Z</time>
      </trkpt>
      <trkpt lat="44.18833" lon="5.29431">
        <ele>1107</ele>
        <time>2026-05-14T13:28:50.999Z</time>
      </trkpt>
      <trkpt lat="44.18832" lon="5.29432">
        <ele>1107.1</ele>
        <time>2026-05-14T13:28:51.999Z</time>
      </trkpt>
      <trkpt lat="44.18832" lon="5.29433">
        <ele>1107.2</ele>
        <time>2026-05-14T13:28:52.999Z</time>
      </trkpt>
      <trkpt lat="44.18832" lon="5.29433">
        <ele>1107.1</ele>
        <time>2026-05-14T13:28:53.999Z</time>
      </trkpt>
      <trkpt lat="44.18831" lon="5.29434">
        <ele>1106.7</ele>
        <time>2026-05-14T13:28:54.999Z</time>
      </trkpt>
      <trkpt lat="44.18831" lon="5.29435">
        <ele>1106.2</ele>
        <time>2026-05-14T13:28:55.999Z</time>
      </trkpt>
      <trkpt lat="44.18831" lon="5.29437">
        <ele>1105.9</ele>
        <time>2026-05-14T13:28:56.999Z</time>
      </trkpt>
      <trkpt lat="44.1883" lon="5.29437">
        <ele>1106.3</ele>
        <time>2026-05-14T13:28:57.999Z</time>
      </trkpt>
      <trkpt lat="44.1883" lon="5.29437">
        <ele>1106.2</ele>
        <time>2026-05-14T13:28:58.999Z</time>
      </trkpt>
      <trkpt lat="44.1883" lon="5.29438">
        <ele>1106.2</ele>
        <time>2026-05-14T13:28:59.999Z</time>
      </trkpt>
      <trkpt lat="44.1883" lon="5.29438">
        <ele>1105.8</ele>
        <time>2026-05-14T13:29:00.999Z</time>
      </trkpt>
      <trkpt lat="44.18831" lon="5.2944">
        <ele>1105.9</ele>
        <time>2026-05-14T13:29:01.999Z</time>
      </trkpt>
      <trkpt lat="44.1883" lon="5.29441">
        <ele>1105.5</ele>
        <time>2026-05-14T13:29:02.999Z</time>
      </trkpt>
      <trkpt lat="44.1883" lon="5.29442">
        <ele>1105.3</ele>
        <time>2026-05-14T13:29:03.999Z</time>
      </trkpt>
      <trkpt lat="44.1883" lon="5.29442">
        <ele>1105.2</ele>
        <time>2026-05-14T13:29:04.999Z</time>
      </trkpt>
      <trkpt lat="44.1883" lon="5.29446">
        <ele>1105.2</ele>
        <time>2026-05-14T13:29:05.999Z</time>
      </trkpt>
      <trkpt lat="44.1883" lon="5.2945">
        <ele>1105.1</ele>
        <time>2026-05-14T13:29:06.999Z</time>
      </trkpt>
      <trkpt lat="44.1883" lon="5.29451">
        <ele>1105.6</ele>
        <time>2026-05-14T13:29:07.999Z</time>
      </trkpt>
      <trkpt lat="44.1883" lon="5.29452">
        <ele>1106.3</ele>
        <time>2026-05-14T13:29:08.999Z</time>
      </trkpt>
      <trkpt lat="44.18829" lon="5.29453">
        <ele>1106.6</ele>
        <time>2026-05-14T13:29:09.999Z</time>
      </trkpt>
      <trkpt lat="44.18829" lon="5.29454">
        <ele>1106.7</ele>
        <time>2026-05-14T13:29:10.999Z</time>
      </trkpt>
      <trkpt lat="44.18829" lon="5.29454">
        <ele>1106.6</ele>
        <time>2026-05-14T13:29:11.999Z</time>
      </trkpt>
      <trkpt lat="44.18829" lon="5.29455">
        <ele>1106.1</ele>
        <time>2026-05-14T13:29:12.999Z</time>
      </trkpt>
      <trkpt lat="44.18829" lon="5.29455">
        <ele>1105.4</ele>
        <time>2026-05-14T13:29:13.999Z</time>
      </trkpt>
      <trkpt lat="44.18829" lon="5.29455">
        <ele>1104.9</ele>
        <time>2026-05-14T13:29:14.999Z</time>
      </trkpt>
      <trkpt lat="44.18829" lon="5.29455">
        <ele>1104.4</ele>
        <time>2026-05-14T13:29:15.999Z</time>
      </trkpt>
      <trkpt lat="44.18828" lon="5.29458">
        <ele>1103.8</ele>
        <time>2026-05-14T13:29:16.999Z</time>
      </trkpt>
      <trkpt lat="44.18828" lon="5.2946">
        <ele>1103.6</ele>
        <time>2026-05-14T13:29:17.999Z</time>
      </trkpt>
      <trkpt lat="44.18827" lon="5.29461">
        <ele>1103.4</ele>
        <time>2026-05-14T13:29:18.999Z</time>
      </trkpt>
      <trkpt lat="44.18827" lon="5.29462">
        <ele>1103.1</ele>
        <time>2026-05-14T13:29:19.999Z</time>
      </trkpt>
      <trkpt lat="44.18827" lon="5.29463">
        <ele>1102.7</ele>
        <time>2026-05-14T13:29:20.999Z</time>
      </trkpt>
      <trkpt lat="44.18827" lon="5.29464">
        <ele>1102.3</ele>
        <time>2026-05-14T13:29:21.999Z</time>
      </trkpt>
      <trkpt lat="44.18827" lon="5.29467">
        <ele>1101.2</ele>
        <time>2026-05-14T13:29:22.999Z</time>
      </trkpt>
      <trkpt lat="44.18826" lon="5.29468">
        <ele>1100.6</ele>
        <time>2026-05-14T13:29:23.999Z</time>
      </trkpt>
      <trkpt lat="44.18826" lon="5.29473">
        <ele>1099.5</ele>
        <time>2026-05-14T13:29:24.999Z</time>
      </trkpt>
      <trkpt lat="44.18826" lon="5.29474">
        <ele>1099.1</ele>
        <time>2026-05-14T13:29:25.999Z</time>
      </trkpt>
      <trkpt lat="44.18827" lon="5.29476">
        <ele>1098.7</ele>
        <time>2026-05-14T13:29:26.999Z</time>
      </trkpt>
      <trkpt lat="44.18827" lon="5.29477">
        <ele>1098.6</ele>
        <time>2026-05-14T13:29:27.999Z</time>
      </trkpt>
      <trkpt lat="44.18827" lon="5.29478">
        <ele>1098.5</ele>
        <time>2026-05-14T13:29:28.999Z</time>
      </trkpt>
      <trkpt lat="44.18826" lon="5.29479">
        <ele>1098.1</ele>
        <time>2026-05-14T13:29:29.999Z</time>
      </trkpt>
      <trkpt lat="44.18826" lon="5.2948">
        <ele>1097.6</ele>
        <time>2026-05-14T13:29:30.999Z</time>
      </trkpt>
      <trkpt lat="44.18826" lon="5.29483">
        <ele>1097</ele>
        <time>2026-05-14T13:29:31.999Z</time>
      </trkpt>
      <trkpt lat="44.18826" lon="5.29486">
        <ele>1096.3</ele>
        <time>2026-05-14T13:29:32.999Z</time>
      </trkpt>
      <trkpt lat="44.18825" lon="5.29489">
        <ele>1095.4</ele>
        <time>2026-05-14T13:29:33.999Z</time>
      </trkpt>
      <trkpt lat="44.18824" lon="5.2949">
        <ele>1094.8</ele>
        <time>2026-05-14T13:29:34.999Z</time>
      </trkpt>
      <trkpt lat="44.18824" lon="5.29493">
        <ele>1094.2</ele>
        <time>2026-05-14T13:29:35.999Z</time>
      </trkpt>
      <trkpt lat="44.18823" lon="5.29494">
        <ele>1094.2</ele>
        <time>2026-05-14T13:29:36.999Z</time>
      </trkpt>
      <trkpt lat="44.18823" lon="5.29497">
        <ele>1094.4</ele>
        <time>2026-05-14T13:29:37.999Z</time>
      </trkpt>
      <trkpt lat="44.18824" lon="5.295">
        <ele>1094.2</ele>
        <time>2026-05-14T13:29:38.999Z</time>
      </trkpt>
      <trkpt lat="44.18824" lon="5.29502">
        <ele>1094.2</ele>
        <time>2026-05-14T13:29:39.999Z</time>
      </trkpt>
      <trkpt lat="44.18824" lon="5.29503">
        <ele>1093.7</ele>
        <time>2026-05-14T13:29:40.999Z</time>
      </trkpt>
      <trkpt lat="44.18823" lon="5.29506">
        <ele>1094.1</ele>
        <time>2026-05-14T13:29:41.999Z</time>
      </trkpt>
      <trkpt lat="44.18823" lon="5.29508">
        <ele>1094.2</ele>
        <time>2026-05-14T13:29:42.999Z</time>
      </trkpt>
      <trkpt lat="44.18823" lon="5.29513">
        <ele>1094.5</ele>
        <time>2026-05-14T13:29:43.999Z</time>
      </trkpt>
      <trkpt lat="44.18822" lon="5.29517">
        <ele>1094.6</ele>
        <time>2026-05-14T13:29:44.999Z</time>
      </trkpt>
      <trkpt lat="44.18822" lon="5.29519">
        <ele>1094.6</ele>
        <time>2026-05-14T13:29:45.999Z</time>
      </trkpt>
      <trkpt lat="44.18823" lon="5.29522">
        <ele>1094.3</ele>
        <time>2026-05-14T13:29:46.999Z</time>
      </trkpt>
      <trkpt lat="44.18823" lon="5.29526">
        <ele>1094.2</ele>
        <time>2026-05-14T13:29:47.999Z</time>
      </trkpt>
      <trkpt lat="44.18823" lon="5.2953">
        <ele>1094.1</ele>
        <time>2026-05-14T13:29:48.999Z</time>
      </trkpt>
      <trkpt lat="44.18823" lon="5.29534">
        <ele>1093.9</ele>
        <time>2026-05-14T13:29:49.999Z</time>
      </trkpt>
      <trkpt lat="44.18822" lon="5.29538">
        <ele>1093.2</ele>
        <time>2026-05-14T13:29:50.999Z</time>
      </trkpt>
      <trkpt lat="44.18821" lon="5.29542">
        <ele>1093.6</ele>
        <time>2026-05-14T13:29:51.999Z</time>
      </trkpt>
      <trkpt lat="44.18821" lon="5.29544">
        <ele>1092.7</ele>
        <time>2026-05-14T13:29:52.999Z</time>
      </trkpt>
      <trkpt lat="44.18821" lon="5.29545">
        <ele>1091.5</ele>
        <time>2026-05-14T13:29:53.999Z</time>
      </trkpt>
      <trkpt lat="44.18822" lon="5.29549">
        <ele>1091.5</ele>
        <time>2026-05-14T13:29:54.999Z</time>
      </trkpt>
      <trkpt lat="44.18821" lon="5.29553">
        <ele>1092.6</ele>
        <time>2026-05-14T13:29:55.999Z</time>
      </trkpt>
      <trkpt lat="44.18822" lon="5.29555">
        <ele>1093.3</ele>
        <time>2026-05-14T13:29:56.999Z</time>
      </trkpt>
      <trkpt lat="44.18821" lon="5.29557">
        <ele>1093.6</ele>
        <time>2026-05-14T13:29:57.999Z</time>
      </trkpt>
      <trkpt lat="44.18821" lon="5.29557">
        <ele>1094.9</ele>
        <time>2026-05-14T13:29:58.999Z</time>
      </trkpt>
      <trkpt lat="44.18821" lon="5.29558">
        <ele>1095.6</ele>
        <time>2026-05-14T13:29:59.999Z</time>
      </trkpt>
      <trkpt lat="44.18821" lon="5.29558">
        <ele>1095.6</ele>
        <time>2026-05-14T13:30:00.999Z</time>
      </trkpt>
      <trkpt lat="44.18821" lon="5.29558">
        <ele>1096</ele>
        <time>2026-05-14T13:30:01.999Z</time>
      </trkpt>
      <trkpt lat="44.18821" lon="5.29562">
        <ele>1095.6</ele>
        <time>2026-05-14T13:30:02.999Z</time>
      </trkpt>
      <trkpt lat="44.18821" lon="5.29564">
        <ele>1095.2</ele>
        <time>2026-05-14T13:30:03.999Z</time>
      </trkpt>
      <trkpt lat="44.18821" lon="5.29568">
        <ele>1094.8</ele>
        <time>2026-05-14T13:30:04.999Z</time>
      </trkpt>
      <trkpt lat="44.18821" lon="5.29571">
        <ele>1094.9</ele>
        <time>2026-05-14T13:30:05.999Z</time>
      </trkpt>
      <trkpt lat="44.18821" lon="5.29573">
        <ele>1094.6</ele>
        <time>2026-05-14T13:30:06.999Z</time>
      </trkpt>
      <trkpt lat="44.18822" lon="5.29575">
        <ele>1094.3</ele>
        <time>2026-05-14T13:30:07.999Z</time>
      </trkpt>
      <trkpt lat="44.18822" lon="5.29577">
        <ele>1093.8</ele>
        <time>2026-05-14T13:30:08.999Z</time>
      </trkpt>
      <trkpt lat="44.18822" lon="5.2958">
        <ele>1093.6</ele>
        <time>2026-05-14T13:30:09.999Z</time>
      </trkpt>
      <trkpt lat="44.18822" lon="5.29582">
        <ele>1093.6</ele>
        <time>2026-05-14T13:30:10.999Z</time>
      </trkpt>
      <trkpt lat="44.18822" lon="5.29583">
        <ele>1093.8</ele>
        <time>2026-05-14T13:30:11.999Z</time>
      </trkpt>
      <trkpt lat="44.18822" lon="5.29584">
        <ele>1093.5</ele>
        <time>2026-05-14T13:30:12.999Z</time>
      </trkpt>
      <trkpt lat="44.18823" lon="5.29585">
        <ele>1092.6</ele>
        <time>2026-05-14T13:30:13.999Z</time>
      </trkpt>
      <trkpt lat="44.18823" lon="5.29586">
        <ele>1092.1</ele>
        <time>2026-05-14T13:30:14.999Z</time>
      </trkpt>
      <trkpt lat="44.18823" lon="5.29587">
        <ele>1091.3</ele>
        <time>2026-05-14T13:30:15.999Z</time>
      </trkpt>
      <trkpt lat="44.18824" lon="5.29588">
        <ele>1090.9</ele>
        <time>2026-05-14T13:30:16.999Z</time>
      </trkpt>
      <trkpt lat="44.18824" lon="5.2959">
        <ele>1090.1</ele>
        <time>2026-05-14T13:30:17.999Z</time>
      </trkpt>
      <trkpt lat="44.18825" lon="5.29592">
        <ele>1089.6</ele>
        <time>2026-05-14T13:30:18.999Z</time>
      </trkpt>
      <trkpt lat="44.18825" lon="5.29595">
        <ele>1089.3</ele>
        <time>2026-05-14T13:30:19.999Z</time>
      </trkpt>
      <trkpt lat="44.18825" lon="5.29597">
        <ele>1088.9</ele>
        <time>2026-05-14T13:30:20.999Z</time>
      </trkpt>
      <trkpt lat="44.18825" lon="5.29599">
        <ele>1088.6</ele>
        <time>2026-05-14T13:30:21.999Z</time>
      </trkpt>
      <trkpt lat="44.18823" lon="5.29601">
        <ele>1088.8</ele>
        <time>2026-05-14T13:30:22.999Z</time>
      </trkpt>
      <trkpt lat="44.18823" lon="5.29603">
        <ele>1089.2</ele>
        <time>2026-05-14T13:30:23.999Z</time>
      </trkpt>
      <trkpt lat="44.18823" lon="5.29603">
        <ele>1088.8</ele>
        <time>2026-05-14T13:30:24.999Z</time>
      </trkpt>
      <trkpt lat="44.18822" lon="5.29604">
        <ele>1088.6</ele>
        <time>2026-05-14T13:30:25.999Z</time>
      </trkpt>
      <trkpt lat="44.18822" lon="5.29604">
        <ele>1088.1</ele>
        <time>2026-05-14T13:30:26.999Z</time>
      </trkpt>
      <trkpt lat="44.18821" lon="5.29605">
        <ele>1088.5</ele>
        <time>2026-05-14T13:30:27.999Z</time>
      </trkpt>
      <trkpt lat="44.18819" lon="5.29606">
        <ele>1087.8</ele>
        <time>2026-05-14T13:30:28.999Z</time>
      </trkpt>
      <trkpt lat="44.18818" lon="5.29606">
        <ele>1087.4</ele>
        <time>2026-05-14T13:30:29.999Z</time>
      </trkpt>
      <trkpt lat="44.18817" lon="5.29608">
        <ele>1086.9</ele>
        <time>2026-05-14T13:30:30.999Z</time>
      </trkpt>
      <trkpt lat="44.18815" lon="5.29609">
        <ele>1086</ele>
        <time>2026-05-14T13:30:32.999Z</time>
      </trkpt>
      <trkpt lat="44.18816" lon="5.29608">
        <ele>1085.4</ele>
        <time>2026-05-14T13:30:33.999Z</time>
      </trkpt>
      <trkpt lat="44.18815" lon="5.29609">
        <ele>1085.6</ele>
        <time>2026-05-14T13:30:34.999Z</time>
      </trkpt>
      <trkpt lat="44.18814" lon="5.29608">
        <ele>1085.8</ele>
        <time>2026-05-14T13:30:35.999Z</time>
      </trkpt>
      <trkpt lat="44.18814" lon="5.29608">
        <ele>1086</ele>
        <time>2026-05-14T13:30:36.999Z</time>
      </trkpt>
      <trkpt lat="44.18814" lon="5.29608">
        <ele>1085.9</ele>
        <time>2026-05-14T13:30:37.999Z</time>
      </trkpt>
      <trkpt lat="44.18814" lon="5.29608">
        <ele>1086.3</ele>
        <time>2026-05-14T13:30:38.999Z</time>
      </trkpt>
      <trkpt lat="44.18814" lon="5.29608">
        <ele>1086.5</ele>
        <time>2026-05-14T13:30:39.999Z</time>
      </trkpt>
      <trkpt lat="44.18814" lon="5.29608">
        <ele>1086.5</ele>
        <time>2026-05-14T13:30:40.999Z</time>
      </trkpt>
      <trkpt lat="44.18814" lon="5.29608">
        <ele>1086.6</ele>
        <time>2026-05-14T13:30:41.999Z</time>
      </trkpt>
      <trkpt lat="44.18814" lon="5.29609">
        <ele>1086.7</ele>
        <time>2026-05-14T13:30:42.999Z</time>
      </trkpt>
      <trkpt lat="44.18816" lon="5.29609">
        <ele>1086.4</ele>
        <time>2026-05-14T13:30:43.999Z</time>
      </trkpt>
      <trkpt lat="44.18816" lon="5.2961">
        <ele>1085.9</ele>
        <time>2026-05-14T13:30:44.999Z</time>
      </trkpt>
      <trkpt lat="44.18816" lon="5.2961">
        <ele>1085.9</ele>
        <time>2026-05-14T13:30:45.999Z</time>
      </trkpt>
      <trkpt lat="44.18816" lon="5.2961">
        <ele>1086.1</ele>
        <time>2026-05-14T13:30:46.999Z</time>
      </trkpt>
      <trkpt lat="44.18816" lon="5.2961">
        <ele>1086.2</ele>
        <time>2026-05-14T13:30:47.999Z</time>
      </trkpt>
      <trkpt lat="44.18815" lon="5.29611">
        <ele>1085.9</ele>
        <time>2026-05-14T13:30:48.999Z</time>
      </trkpt>
      <trkpt lat="44.18815" lon="5.29611">
        <ele>1086</ele>
        <time>2026-05-14T13:30:49.999Z</time>
      </trkpt>
      <trkpt lat="44.18815" lon="5.29611">
        <ele>1086.3</ele>
        <time>2026-05-14T13:30:50.999Z</time>
      </trkpt>
      <trkpt lat="44.18815" lon="5.29611">
        <ele>1086.3</ele>
        <time>2026-05-14T13:30:51.999Z</time>
      </trkpt>
      <trkpt lat="44.18815" lon="5.29611">
        <ele>1087</ele>
        <time>2026-05-14T13:30:52.999Z</time>
      </trkpt>
      <trkpt lat="44.18815" lon="5.29612">
        <ele>1087.5</ele>
        <time>2026-05-14T13:30:53.999Z</time>
      </trkpt>
      <trkpt lat="44.18815" lon="5.29613">
        <ele>1088</ele>
        <time>2026-05-14T13:30:54.999Z</time>
      </trkpt>
      <trkpt lat="44.18815" lon="5.29614">
        <ele>1088.5</ele>
        <time>2026-05-14T13:30:55.999Z</time>
      </trkpt>
      <trkpt lat="44.18816" lon="5.29615">
        <ele>1088.9</ele>
        <time>2026-05-14T13:30:56.999Z</time>
      </trkpt>
      <trkpt lat="44.18816" lon="5.29615">
        <ele>1089.2</ele>
        <time>2026-05-14T13:30:57.999Z</time>
      </trkpt>
      <trkpt lat="44.18816" lon="5.29615">
        <ele>1089.3</ele>
        <time>2026-05-14T13:30:58.999Z</time>
      </trkpt>
      <trkpt lat="44.18817" lon="5.29615">
        <ele>1089.4</ele>
        <time>2026-05-14T13:30:59.999Z</time>
      </trkpt>
      <trkpt lat="44.18817" lon="5.29615">
        <ele>1089.3</ele>
        <time>2026-05-14T13:31:00.999Z</time>
      </trkpt>
      <trkpt lat="44.18817" lon="5.29615">
        <ele>1089.3</ele>
        <time>2026-05-14T13:31:02.999Z</time>
      </trkpt>
      <trkpt lat="44.18817" lon="5.29615">
        <ele>1089.3</ele>
        <time>2026-05-14T13:31:03.999Z</time>
      </trkpt>
      <trkpt lat="44.18817" lon="5.29615">
        <ele>1089.3</ele>
        <time>2026-05-14T13:31:04.999Z</time>
      </trkpt>
      <trkpt lat="44.18817" lon="5.29615">
        <ele>1088.9</ele>
        <time>2026-05-14T13:31:05.999Z</time>
      </trkpt>
      <trkpt lat="44.18817" lon="5.29615">
        <ele>1088.7</ele>
        <time>2026-05-14T13:31:06.999Z</time>
      </trkpt>
      <trkpt lat="44.18817" lon="5.29615">
        <ele>1088.7</ele>
        <time>2026-05-14T13:31:07.999Z</time>
      </trkpt>
      <trkpt lat="44.18817" lon="5.29615">
        <ele>1088.6</ele>
        <time>2026-05-14T13:31:08.999Z</time>
      </trkpt>
      <trkpt lat="44.18817" lon="5.29615">
        <ele>1088.8</ele>
        <time>2026-05-14T13:31:09.999Z</time>
      </trkpt>
      <trkpt lat="44.18817" lon="5.29615">
        <ele>1089.4</ele>
        <time>2026-05-14T13:31:11.999Z</time>
      </trkpt>
      <trkpt lat="44.18815" lon="5.29615">
        <ele>1089.3</ele>
        <time>2026-05-14T13:31:12.999Z</time>
      </trkpt>
      <trkpt lat="44.18813" lon="5.29614">
        <ele>1089.8</ele>
        <time>2026-05-14T13:31:13.999Z</time>
      </trkpt>
      <trkpt lat="44.18813" lon="5.29614">
        <ele>1089.6</ele>
        <time>2026-05-14T13:31:14.999Z</time>
      </trkpt>
      <trkpt lat="44.18811" lon="5.29614">
        <ele>1089.4</ele>
        <time>2026-05-14T13:31:15.999Z</time>
      </trkpt>
      <trkpt lat="44.1881" lon="5.29614">
        <ele>1089.4</ele>
        <time>2026-05-14T13:31:16.999Z</time>
      </trkpt>
      <trkpt lat="44.18809" lon="5.29615">
        <ele>1089</ele>
        <time>2026-05-14T13:31:17.999Z</time>
      </trkpt>
      <trkpt lat="44.18808" lon="5.29616">
        <ele>1088.9</ele>
        <time>2026-05-14T13:31:18.999Z</time>
      </trkpt>
      <trkpt lat="44.18806" lon="5.29616">
        <ele>1088.8</ele>
        <time>2026-05-14T13:31:19.999Z</time>
      </trkpt>
      <trkpt lat="44.18805" lon="5.29617">
        <ele>1089</ele>
        <time>2026-05-14T13:31:20.999Z</time>
      </trkpt>
      <trkpt lat="44.18804" lon="5.29618">
        <ele>1089</ele>
        <time>2026-05-14T13:31:21.999Z</time>
      </trkpt>
      <trkpt lat="44.18804" lon="5.29619">
        <ele>1088.8</ele>
        <time>2026-05-14T13:31:23.999Z</time>
      </trkpt>
      <trkpt lat="44.18803" lon="5.29621">
        <ele>1088.8</ele>
        <time>2026-05-14T13:31:24.999Z</time>
      </trkpt>
      <trkpt lat="44.18802" lon="5.29622">
        <ele>1088.2</ele>
        <time>2026-05-14T13:31:25.999Z</time>
      </trkpt>
      <trkpt lat="44.18801" lon="5.29622">
        <ele>1087.4</ele>
        <time>2026-05-14T13:31:26.999Z</time>
      </trkpt>
      <trkpt lat="44.188" lon="5.29622">
        <ele>1086.9</ele>
        <time>2026-05-14T13:31:27.999Z</time>
      </trkpt>
      <trkpt lat="44.18799" lon="5.29622">
        <ele>1087</ele>
        <time>2026-05-14T13:31:28.999Z</time>
      </trkpt>
      <trkpt lat="44.18799" lon="5.29623">
        <ele>1086.6</ele>
        <time>2026-05-14T13:31:29.999Z</time>
      </trkpt>
      <trkpt lat="44.18798" lon="5.29624">
        <ele>1086.5</ele>
        <time>2026-05-14T13:31:30.999Z</time>
      </trkpt>
      <trkpt lat="44.18798" lon="5.29625">
        <ele>1086.5</ele>
        <time>2026-05-14T13:31:31.999Z</time>
      </trkpt>
      <trkpt lat="44.18798" lon="5.29626">
        <ele>1085.9</ele>
        <time>2026-05-14T13:31:32.999Z</time>
      </trkpt>
      <trkpt lat="44.18797" lon="5.29627">
        <ele>1085.1</ele>
        <time>2026-05-14T13:31:33.999Z</time>
      </trkpt>
      <trkpt lat="44.18797" lon="5.29629">
        <ele>1084.9</ele>
        <time>2026-05-14T13:31:34.999Z</time>
      </trkpt>
      <trkpt lat="44.18796" lon="5.29631">
        <ele>1085.6</ele>
        <time>2026-05-14T13:31:35.999Z</time>
      </trkpt>
      <trkpt lat="44.18795" lon="5.29633">
        <ele>1086.1</ele>
        <time>2026-05-14T13:31:36.999Z</time>
      </trkpt>
      <trkpt lat="44.18795" lon="5.29635">
        <ele>1086</ele>
        <time>2026-05-14T13:31:37.999Z</time>
      </trkpt>
      <trkpt lat="44.18795" lon="5.29636">
        <ele>1086.8</ele>
        <time>2026-05-14T13:31:38.999Z</time>
      </trkpt>
      <trkpt lat="44.18795" lon="5.29637">
        <ele>1087.1</ele>
        <time>2026-05-14T13:31:39.999Z</time>
      </trkpt>
      <trkpt lat="44.18795" lon="5.29637">
        <ele>1087</ele>
        <time>2026-05-14T13:31:40.999Z</time>
      </trkpt>
      <trkpt lat="44.18795" lon="5.29637">
        <ele>1087.6</ele>
        <time>2026-05-14T13:31:41.999Z</time>
      </trkpt>
      <trkpt lat="44.18794" lon="5.29637">
        <ele>1087.5</ele>
        <time>2026-05-14T13:31:42.999Z</time>
      </trkpt>
      <trkpt lat="44.18793" lon="5.29637">
        <ele>1087.1</ele>
        <time>2026-05-14T13:31:43.999Z</time>
      </trkpt>
      <trkpt lat="44.18792" lon="5.29637">
        <ele>1087</ele>
        <time>2026-05-14T13:31:44.999Z</time>
      </trkpt>
      <trkpt lat="44.18791" lon="5.29638">
        <ele>1086.8</ele>
        <time>2026-05-14T13:31:45.999Z</time>
      </trkpt>
      <trkpt lat="44.18788" lon="5.2964">
        <ele>1086.6</ele>
        <time>2026-05-14T13:31:47.999Z</time>
      </trkpt>
      <trkpt lat="44.18787" lon="5.29641">
        <ele>1085.7</ele>
        <time>2026-05-14T13:31:48.999Z</time>
      </trkpt>
      <trkpt lat="44.18785" lon="5.29642">
        <ele>1085.4</ele>
        <time>2026-05-14T13:31:49.999Z</time>
      </trkpt>
      <trkpt lat="44.18785" lon="5.29643">
        <ele>1085.2</ele>
        <time>2026-05-14T13:31:50.999Z</time>
      </trkpt>
      <trkpt lat="44.18783" lon="5.29643">
        <ele>1084.9</ele>
        <time>2026-05-14T13:31:51.999Z</time>
      </trkpt>
      <trkpt lat="44.18782" lon="5.29645">
        <ele>1084.4</ele>
        <time>2026-05-14T13:31:52.999Z</time>
      </trkpt>
      <trkpt lat="44.18781" lon="5.29645">
        <ele>1084.5</ele>
        <time>2026-05-14T13:31:53.999Z</time>
      </trkpt>
      <trkpt lat="44.1878" lon="5.29645">
        <ele>1084.8</ele>
        <time>2026-05-14T13:31:54.999Z</time>
      </trkpt>
      <trkpt lat="44.18778" lon="5.29646">
        <ele>1084.4</ele>
        <time>2026-05-14T13:31:55.999Z</time>
      </trkpt>
      <trkpt lat="44.18777" lon="5.29647">
        <ele>1084.4</ele>
        <time>2026-05-14T13:31:56.999Z</time>
      </trkpt>
      <trkpt lat="44.18776" lon="5.29647">
        <ele>1084.5</ele>
        <time>2026-05-14T13:31:57.999Z</time>
      </trkpt>
      <trkpt lat="44.18775" lon="5.29648">
        <ele>1084.3</ele>
        <time>2026-05-14T13:31:58.999Z</time>
      </trkpt>
      <trkpt lat="44.18772" lon="5.29651">
        <ele>1083.7</ele>
        <time>2026-05-14T13:32:00.999Z</time>
      </trkpt>
      <trkpt lat="44.18771" lon="5.29653">
        <ele>1084.4</ele>
        <time>2026-05-14T13:32:01.999Z</time>
      </trkpt>
      <trkpt lat="44.18771" lon="5.29655">
        <ele>1083.8</ele>
        <time>2026-05-14T13:32:02.999Z</time>
      </trkpt>
      <trkpt lat="44.1877" lon="5.29657">
        <ele>1084</ele>
        <time>2026-05-14T13:32:03.999Z</time>
      </trkpt>
      <trkpt lat="44.18769" lon="5.2966">
        <ele>1083.8</ele>
        <time>2026-05-14T13:32:04.999Z</time>
      </trkpt>
      <trkpt lat="44.18768" lon="5.29661">
        <ele>1084</ele>
        <time>2026-05-14T13:32:05.999Z</time>
      </trkpt>
      <trkpt lat="44.18768" lon="5.29663">
        <ele>1084.4</ele>
        <time>2026-05-14T13:32:06.999Z</time>
      </trkpt>
      <trkpt lat="44.18768" lon="5.29664">
        <ele>1084.4</ele>
        <time>2026-05-14T13:32:07.999Z</time>
      </trkpt>
      <trkpt lat="44.18767" lon="5.29665">
        <ele>1083.2</ele>
        <time>2026-05-14T13:32:08.999Z</time>
      </trkpt>
      <trkpt lat="44.18767" lon="5.29665">
        <ele>1082.3</ele>
        <time>2026-05-14T13:32:09.999Z</time>
      </trkpt>
      <trkpt lat="44.18767" lon="5.29667">
        <ele>1081.2</ele>
        <time>2026-05-14T13:32:10.999Z</time>
      </trkpt>
      <trkpt lat="44.18767" lon="5.29669">
        <ele>1080</ele>
        <time>2026-05-14T13:32:11.999Z</time>
      </trkpt>
      <trkpt lat="44.18766" lon="5.2967">
        <ele>1080.5</ele>
        <time>2026-05-14T13:32:12.999Z</time>
      </trkpt>
      <trkpt lat="44.18766" lon="5.29672">
        <ele>1081</ele>
        <time>2026-05-14T13:32:13.999Z</time>
      </trkpt>
      <trkpt lat="44.18767" lon="5.29673">
        <ele>1080.5</ele>
        <time>2026-05-14T13:32:14.999Z</time>
      </trkpt>
      <trkpt lat="44.18767" lon="5.29675">
        <ele>1079</ele>
        <time>2026-05-14T13:32:15.999Z</time>
      </trkpt>
      <trkpt lat="44.18766" lon="5.29676">
        <ele>1078.2</ele>
        <time>2026-05-14T13:32:16.999Z</time>
      </trkpt>
      <trkpt lat="44.18766" lon="5.29677">
        <ele>1077.5</ele>
        <time>2026-05-14T13:32:17.999Z</time>
      </trkpt>
      <trkpt lat="44.18766" lon="5.29679">
        <ele>1077.2</ele>
        <time>2026-05-14T13:32:18.999Z</time>
      </trkpt>
      <trkpt lat="44.18766" lon="5.2968">
        <ele>1077.4</ele>
        <time>2026-05-14T13:32:19.999Z</time>
      </trkpt>
      <trkpt lat="44.18766" lon="5.2968">
        <ele>1077.9</ele>
        <time>2026-05-14T13:32:20.999Z</time>
      </trkpt>
      <trkpt lat="44.18766" lon="5.29681">
        <ele>1078.2</ele>
        <time>2026-05-14T13:32:21.999Z</time>
      </trkpt>
      <trkpt lat="44.18766" lon="5.29681">
        <ele>1078.1</ele>
        <time>2026-05-14T13:32:22.999Z</time>
      </trkpt>
      <trkpt lat="44.18766" lon="5.29682">
        <ele>1078.3</ele>
        <time>2026-05-14T13:32:23.999Z</time>
      </trkpt>
      <trkpt lat="44.18766" lon="5.29683">
        <ele>1078.4</ele>
        <time>2026-05-14T13:32:24.999Z</time>
      </trkpt>
      <trkpt lat="44.18765" lon="5.29685">
        <ele>1078.8</ele>
        <time>2026-05-14T13:32:25.999Z</time>
      </trkpt>
      <trkpt lat="44.18766" lon="5.29687">
        <ele>1078.6</ele>
        <time>2026-05-14T13:32:26.999Z</time>
      </trkpt>
      <trkpt lat="44.18766" lon="5.2969">
        <ele>1077.4</ele>
        <time>2026-05-14T13:32:27.999Z</time>
      </trkpt>
      <trkpt lat="44.18766" lon="5.29693">
        <ele>1076.8</ele>
        <time>2026-05-14T13:32:28.999Z</time>
      </trkpt>
      <trkpt lat="44.18766" lon="5.29695">
        <ele>1075.7</ele>
        <time>2026-05-14T13:32:29.999Z</time>
      </trkpt>
      <trkpt lat="44.18767" lon="5.29697">
        <ele>1075.6</ele>
        <time>2026-05-14T13:32:30.999Z</time>
      </trkpt>
      <trkpt lat="44.18767" lon="5.29698">
        <ele>1075.4</ele>
        <time>2026-05-14T13:32:31.999Z</time>
      </trkpt>
      <trkpt lat="44.18767" lon="5.297">
        <ele>1074.9</ele>
        <time>2026-05-14T13:32:32.999Z</time>
      </trkpt>
      <trkpt lat="44.18767" lon="5.29702">
        <ele>1074.5</ele>
        <time>2026-05-14T13:32:33.999Z</time>
      </trkpt>
      <trkpt lat="44.18767" lon="5.29704">
        <ele>1073.9</ele>
        <time>2026-05-14T13:32:34.999Z</time>
      </trkpt>
      <trkpt lat="44.18767" lon="5.29706">
        <ele>1074.3</ele>
        <time>2026-05-14T13:32:35.999Z</time>
      </trkpt>
      <trkpt lat="44.18767" lon="5.29709">
        <ele>1075.2</ele>
        <time>2026-05-14T13:32:36.999Z</time>
      </trkpt>
      <trkpt lat="44.18766" lon="5.29711">
        <ele>1075.5</ele>
        <time>2026-05-14T13:32:37.999Z</time>
      </trkpt>
      <trkpt lat="44.18766" lon="5.29714">
        <ele>1075.5</ele>
        <time>2026-05-14T13:32:38.999Z</time>
      </trkpt>
      <trkpt lat="44.18766" lon="5.29715">
        <ele>1075.5</ele>
        <time>2026-05-14T13:32:39.999Z</time>
      </trkpt>
      <trkpt lat="44.18766" lon="5.29717">
        <ele>1075.1</ele>
        <time>2026-05-14T13:32:40.999Z</time>
      </trkpt>
      <trkpt lat="44.18767" lon="5.29721">
        <ele>1074</ele>
        <time>2026-05-14T13:32:41.999Z</time>
      </trkpt>
      <trkpt lat="44.18768" lon="5.29723">
        <ele>1073.1</ele>
        <time>2026-05-14T13:32:42.999Z</time>
      </trkpt>
      <trkpt lat="44.18768" lon="5.29725">
        <ele>1073.1</ele>
        <time>2026-05-14T13:32:43.999Z</time>
      </trkpt>
      <trkpt lat="44.18768" lon="5.29725">
        <ele>1072.7</ele>
        <time>2026-05-14T13:32:44.999Z</time>
      </trkpt>
      <trkpt lat="44.18769" lon="5.29726">
        <ele>1071.9</ele>
        <time>2026-05-14T13:32:45.999Z</time>
      </trkpt>
      <trkpt lat="44.1877" lon="5.29727">
        <ele>1071.1</ele>
        <time>2026-05-14T13:32:46.999Z</time>
      </trkpt>
      <trkpt lat="44.1877" lon="5.29729">
        <ele>1070.9</ele>
        <time>2026-05-14T13:32:47.999Z</time>
      </trkpt>
      <trkpt lat="44.1877" lon="5.2973">
        <ele>1070.8</ele>
        <time>2026-05-14T13:32:48.999Z</time>
      </trkpt>
      <trkpt lat="44.1877" lon="5.29731">
        <ele>1070.3</ele>
        <time>2026-05-14T13:32:49.999Z</time>
      </trkpt>
      <trkpt lat="44.18769" lon="5.29732">
        <ele>1070.1</ele>
        <time>2026-05-14T13:32:50.999Z</time>
      </trkpt>
      <trkpt lat="44.18769" lon="5.29734">
        <ele>1069.8</ele>
        <time>2026-05-14T13:32:51.999Z</time>
      </trkpt>
      <trkpt lat="44.18769" lon="5.29735">
        <ele>1069.7</ele>
        <time>2026-05-14T13:32:52.999Z</time>
      </trkpt>
      <trkpt lat="44.18769" lon="5.29736">
        <ele>1069.6</ele>
        <time>2026-05-14T13:32:53.999Z</time>
      </trkpt>
      <trkpt lat="44.18768" lon="5.29738">
        <ele>1069.1</ele>
        <time>2026-05-14T13:32:54.999Z</time>
      </trkpt>
      <trkpt lat="44.18768" lon="5.2974">
        <ele>1069</ele>
        <time>2026-05-14T13:32:55.999Z</time>
      </trkpt>
      <trkpt lat="44.18768" lon="5.29742">
        <ele>1068.3</ele>
        <time>2026-05-14T13:32:56.999Z</time>
      </trkpt>
      <trkpt lat="44.18768" lon="5.29743">
        <ele>1067.8</ele>
        <time>2026-05-14T13:32:57.999Z</time>
      </trkpt>
      <trkpt lat="44.18767" lon="5.29744">
        <ele>1067.1</ele>
        <time>2026-05-14T13:32:58.999Z</time>
      </trkpt>
      <trkpt lat="44.18766" lon="5.29745">
        <ele>1065.6</ele>
        <time>2026-05-14T13:32:59.999Z</time>
      </trkpt>
      <trkpt lat="44.18766" lon="5.29746">
        <ele>1066</ele>
        <time>2026-05-14T13:33:00.999Z</time>
      </trkpt>
      <trkpt lat="44.18765" lon="5.29746">
        <ele>1065.7</ele>
        <time>2026-05-14T13:33:01.999Z</time>
      </trkpt>
      <trkpt lat="44.18765" lon="5.29747">
        <ele>1065.9</ele>
        <time>2026-05-14T13:33:02.999Z</time>
      </trkpt>
      <trkpt lat="44.18764" lon="5.29748">
        <ele>1065.5</ele>
        <time>2026-05-14T13:33:03.999Z</time>
      </trkpt>
      <trkpt lat="44.18764" lon="5.29751">
        <ele>1065.3</ele>
        <time>2026-05-14T13:33:04.999Z</time>
      </trkpt>
      <trkpt lat="44.18763" lon="5.29754">
        <ele>1065.8</ele>
        <time>2026-05-14T13:33:05.999Z</time>
      </trkpt>
      <trkpt lat="44.18763" lon="5.29756">
        <ele>1066.2</ele>
        <time>2026-05-14T13:33:06.999Z</time>
      </trkpt>
      <trkpt lat="44.18762" lon="5.29757">
        <ele>1066.2</ele>
        <time>2026-05-14T13:33:07.999Z</time>
      </trkpt>
      <trkpt lat="44.1876" lon="5.29759">
        <ele>1066.2</ele>
        <time>2026-05-14T13:33:08.999Z</time>
      </trkpt>
      <trkpt lat="44.1876" lon="5.2976">
        <ele>1066.3</ele>
        <time>2026-05-14T13:33:09.999Z</time>
      </trkpt>
      <trkpt lat="44.18759" lon="5.2976">
        <ele>1066.4</ele>
        <time>2026-05-14T13:33:10.999Z</time>
      </trkpt>
      <trkpt lat="44.18759" lon="5.29761">
        <ele>1066.1</ele>
        <time>2026-05-14T13:33:11.999Z</time>
      </trkpt>
      <trkpt lat="44.18759" lon="5.29763">
        <ele>1066.1</ele>
        <time>2026-05-14T13:33:12.999Z</time>
      </trkpt>
      <trkpt lat="44.18759" lon="5.29765">
        <ele>1065.7</ele>
        <time>2026-05-14T13:33:13.999Z</time>
      </trkpt>
      <trkpt lat="44.18759" lon="5.29768">
        <ele>1065.4</ele>
        <time>2026-05-14T13:33:14.999Z</time>
      </trkpt>
      <trkpt lat="44.18758" lon="5.2977">
        <ele>1065.1</ele>
        <time>2026-05-14T13:33:15.999Z</time>
      </trkpt>
      <trkpt lat="44.18757" lon="5.29773">
        <ele>1064.8</ele>
        <time>2026-05-14T13:33:16.999Z</time>
      </trkpt>
      <trkpt lat="44.18756" lon="5.29775">
        <ele>1065</ele>
        <time>2026-05-14T13:33:17.999Z</time>
      </trkpt>
      <trkpt lat="44.18756" lon="5.29777">
        <ele>1065.2</ele>
        <time>2026-05-14T13:33:18.999Z</time>
      </trkpt>
      <trkpt lat="44.18755" lon="5.29778">
        <ele>1065</ele>
        <time>2026-05-14T13:33:19.999Z</time>
      </trkpt>
      <trkpt lat="44.18754" lon="5.2978">
        <ele>1065.2</ele>
        <time>2026-05-14T13:33:20.999Z</time>
      </trkpt>
      <trkpt lat="44.18753" lon="5.29781">
        <ele>1065.7</ele>
        <time>2026-05-14T13:33:21.999Z</time>
      </trkpt>
      <trkpt lat="44.18752" lon="5.29782">
        <ele>1066.7</ele>
        <time>2026-05-14T13:33:22.999Z</time>
      </trkpt>
      <trkpt lat="44.18751" lon="5.29782">
        <ele>1067.1</ele>
        <time>2026-05-14T13:33:23.999Z</time>
      </trkpt>
      <trkpt lat="44.18751" lon="5.29782">
        <ele>1067.4</ele>
        <time>2026-05-14T13:33:24.999Z</time>
      </trkpt>
      <trkpt lat="44.1875" lon="5.29783">
        <ele>1067.7</ele>
        <time>2026-05-14T13:33:25.999Z</time>
      </trkpt>
      <trkpt lat="44.18749" lon="5.29782">
        <ele>1067.3</ele>
        <time>2026-05-14T13:33:26.999Z</time>
      </trkpt>
      <trkpt lat="44.18749" lon="5.29782">
        <ele>1067.5</ele>
        <time>2026-05-14T13:33:27.999Z</time>
      </trkpt>
      <trkpt lat="44.18748" lon="5.29782">
        <ele>1066.9</ele>
        <time>2026-05-14T13:33:28.999Z</time>
      </trkpt>
      <trkpt lat="44.18747" lon="5.29782">
        <ele>1066.3</ele>
        <time>2026-05-14T13:33:29.999Z</time>
      </trkpt>
      <trkpt lat="44.18745" lon="5.29782">
        <ele>1066.3</ele>
        <time>2026-05-14T13:33:30.999Z</time>
      </trkpt>
      <trkpt lat="44.18743" lon="5.29782">
        <ele>1065.6</ele>
        <time>2026-05-14T13:33:31.999Z</time>
      </trkpt>
      <trkpt lat="44.18741" lon="5.29781">
        <ele>1065.5</ele>
        <time>2026-05-14T13:33:32.999Z</time>
      </trkpt>
      <trkpt lat="44.1874" lon="5.2978">
        <ele>1065.4</ele>
        <time>2026-05-14T13:33:33.999Z</time>
      </trkpt>
      <trkpt lat="44.18739" lon="5.29779">
        <ele>1064.9</ele>
        <time>2026-05-14T13:33:34.999Z</time>
      </trkpt>
      <trkpt lat="44.18738" lon="5.29778">
        <ele>1064.6</ele>
        <time>2026-05-14T13:33:35.999Z</time>
      </trkpt>
      <trkpt lat="44.18738" lon="5.29778">
        <ele>1064.3</ele>
        <time>2026-05-14T13:33:36.999Z</time>
      </trkpt>
      <trkpt lat="44.18738" lon="5.29777">
        <ele>1064.8</ele>
        <time>2026-05-14T13:33:37.999Z</time>
      </trkpt>
      <trkpt lat="44.18738" lon="5.29777">
        <ele>1064.6</ele>
        <time>2026-05-14T13:33:38.999Z</time>
      </trkpt>
      <trkpt lat="44.18738" lon="5.29777">
        <ele>1064.3</ele>
        <time>2026-05-14T13:33:39.999Z</time>
      </trkpt>
      <trkpt lat="44.18737" lon="5.29776">
        <ele>1064.1</ele>
        <time>2026-05-14T13:33:40.999Z</time>
      </trkpt>
      <trkpt lat="44.18736" lon="5.29776">
        <ele>1064.1</ele>
        <time>2026-05-14T13:33:41.999Z</time>
      </trkpt>
      <trkpt lat="44.18734" lon="5.29774">
        <ele>1064</ele>
        <time>2026-05-14T13:33:42.999Z</time>
      </trkpt>
      <trkpt lat="44.18733" lon="5.29772">
        <ele>1063.6</ele>
        <time>2026-05-14T13:33:43.999Z</time>
      </trkpt>
      <trkpt lat="44.18732" lon="5.29771">
        <ele>1063.3</ele>
        <time>2026-05-14T13:33:44.999Z</time>
      </trkpt>
      <trkpt lat="44.18731" lon="5.29769">
        <ele>1062.8</ele>
        <time>2026-05-14T13:33:45.999Z</time>
      </trkpt>
      <trkpt lat="44.1873" lon="5.29767">
        <ele>1062.3</ele>
        <time>2026-05-14T13:33:46.999Z</time>
      </trkpt>
      <trkpt lat="44.1873" lon="5.29766">
        <ele>1061.7</ele>
        <time>2026-05-14T13:33:47.999Z</time>
      </trkpt>
      <trkpt lat="44.1873" lon="5.29765">
        <ele>1060.8</ele>
        <time>2026-05-14T13:33:48.999Z</time>
      </trkpt>
      <trkpt lat="44.1873" lon="5.29763">
        <ele>1060.5</ele>
        <time>2026-05-14T13:33:49.999Z</time>
      </trkpt>
      <trkpt lat="44.18729" lon="5.2976">
        <ele>1060.3</ele>
        <time>2026-05-14T13:33:50.999Z</time>
      </trkpt>
      <trkpt lat="44.18728" lon="5.29759">
        <ele>1060.2</ele>
        <time>2026-05-14T13:33:51.999Z</time>
      </trkpt>
      <trkpt lat="44.18726" lon="5.29758">
        <ele>1060.5</ele>
        <time>2026-05-14T13:33:52.999Z</time>
      </trkpt>
      <trkpt lat="44.18724" lon="5.29756">
        <ele>1060.8</ele>
        <time>2026-05-14T13:33:53.999Z</time>
      </trkpt>
      <trkpt lat="44.18722" lon="5.29755">
        <ele>1060.6</ele>
        <time>2026-05-14T13:33:54.999Z</time>
      </trkpt>
      <trkpt lat="44.1872" lon="5.29754">
        <ele>1060.6</ele>
        <time>2026-05-14T13:33:55.999Z</time>
      </trkpt>
      <trkpt lat="44.18718" lon="5.29753">
        <ele>1060.6</ele>
        <time>2026-05-14T13:33:56.999Z</time>
      </trkpt>
      <trkpt lat="44.18718" lon="5.29752">
        <ele>1060.6</ele>
        <time>2026-05-14T13:33:57.999Z</time>
      </trkpt>
      <trkpt lat="44.18718" lon="5.2975">
        <ele>1060.4</ele>
        <time>2026-05-14T13:33:58.999Z</time>
      </trkpt>
      <trkpt lat="44.18718" lon="5.29748">
        <ele>1060.1</ele>
        <time>2026-05-14T13:33:59.999Z</time>
      </trkpt>
      <trkpt lat="44.18718" lon="5.29748">
        <ele>1059.3</ele>
        <time>2026-05-14T13:34:00.999Z</time>
      </trkpt>
      <trkpt lat="44.18718" lon="5.29748">
        <ele>1059.2</ele>
        <time>2026-05-14T13:34:01.999Z</time>
      </trkpt>
      <trkpt lat="44.18717" lon="5.29748">
        <ele>1059.4</ele>
        <time>2026-05-14T13:34:02.999Z</time>
      </trkpt>
      <trkpt lat="44.18716" lon="5.29747">
        <ele>1059</ele>
        <time>2026-05-14T13:34:03.999Z</time>
      </trkpt>
      <trkpt lat="44.18716" lon="5.29746">
        <ele>1058.8</ele>
        <time>2026-05-14T13:34:04.999Z</time>
      </trkpt>
      <trkpt lat="44.18715" lon="5.29744">
        <ele>1058</ele>
        <time>2026-05-14T13:34:05.999Z</time>
      </trkpt>
      <trkpt lat="44.18714" lon="5.29742">
        <ele>1057.4</ele>
        <time>2026-05-14T13:34:06.999Z</time>
      </trkpt>
      <trkpt lat="44.18713" lon="5.29741">
        <ele>1057.3</ele>
        <time>2026-05-14T13:34:07.999Z</time>
      </trkpt>
      <trkpt lat="44.18713" lon="5.2974">
        <ele>1057.4</ele>
        <time>2026-05-14T13:34:08.999Z</time>
      </trkpt>
      <trkpt lat="44.18712" lon="5.29739">
        <ele>1057.4</ele>
        <time>2026-05-14T13:34:09.999Z</time>
      </trkpt>
      <trkpt lat="44.18711" lon="5.29738">
        <ele>1057</ele>
        <time>2026-05-14T13:34:10.999Z</time>
      </trkpt>
      <trkpt lat="44.18711" lon="5.29736">
        <ele>1057.2</ele>
        <time>2026-05-14T13:34:11.999Z</time>
      </trkpt>
      <trkpt lat="44.18711" lon="5.29735">
        <ele>1057.2</ele>
        <time>2026-05-14T13:34:12.999Z</time>
      </trkpt>
      <trkpt lat="44.1871" lon="5.29733">
        <ele>1057.4</ele>
        <time>2026-05-14T13:34:13.999Z</time>
      </trkpt>
      <trkpt lat="44.1871" lon="5.29731">
        <ele>1057.5</ele>
        <time>2026-05-14T13:34:14.999Z</time>
      </trkpt>
      <trkpt lat="44.18709" lon="5.2973">
        <ele>1057</ele>
        <time>2026-05-14T13:34:15.999Z</time>
      </trkpt>
      <trkpt lat="44.18708" lon="5.29729">
        <ele>1056.8</ele>
        <time>2026-05-14T13:34:16.999Z</time>
      </trkpt>
      <trkpt lat="44.18708" lon="5.29728">
        <ele>1056.6</ele>
        <time>2026-05-14T13:34:17.999Z</time>
      </trkpt>
      <trkpt lat="44.18708" lon="5.29727">
        <ele>1056.7</ele>
        <time>2026-05-14T13:34:18.999Z</time>
      </trkpt>
      <trkpt lat="44.18708" lon="5.29726">
        <ele>1056.3</ele>
        <time>2026-05-14T13:34:19.999Z</time>
      </trkpt>
      <trkpt lat="44.18707" lon="5.29725">
        <ele>1056.5</ele>
        <time>2026-05-14T13:34:20.999Z</time>
      </trkpt>
      <trkpt lat="44.18707" lon="5.29725">
        <ele>1056.9</ele>
        <time>2026-05-14T13:34:21.999Z</time>
      </trkpt>
      <trkpt lat="44.18706" lon="5.29723">
        <ele>1057.8</ele>
        <time>2026-05-14T13:34:22.999Z</time>
      </trkpt>
      <trkpt lat="44.18705" lon="5.29723">
        <ele>1059</ele>
        <time>2026-05-14T13:34:23.999Z</time>
      </trkpt>
      <trkpt lat="44.18704" lon="5.29723">
        <ele>1059.6</ele>
        <time>2026-05-14T13:34:24.999Z</time>
      </trkpt>
      <trkpt lat="44.18702" lon="5.29722">
        <ele>1059.2</ele>
        <time>2026-05-14T13:34:25.999Z</time>
      </trkpt>
      <trkpt lat="44.187" lon="5.2972">
        <ele>1058.8</ele>
        <time>2026-05-14T13:34:26.999Z</time>
      </trkpt>
      <trkpt lat="44.18698" lon="5.29719">
        <ele>1058.6</ele>
        <time>2026-05-14T13:34:27.999Z</time>
      </trkpt>
      <trkpt lat="44.18696" lon="5.29719">
        <ele>1058.1</ele>
        <time>2026-05-14T13:34:28.999Z</time>
      </trkpt>
      <trkpt lat="44.18695" lon="5.29718">
        <ele>1058</ele>
        <time>2026-05-14T13:34:29.999Z</time>
      </trkpt>
      <trkpt lat="44.18695" lon="5.29718">
        <ele>1058.4</ele>
        <time>2026-05-14T13:34:30.999Z</time>
      </trkpt>
      <trkpt lat="44.18693" lon="5.29718">
        <ele>1058.5</ele>
        <time>2026-05-14T13:34:31.999Z</time>
      </trkpt>
      <trkpt lat="44.18693" lon="5.29718">
        <ele>1059</ele>
        <time>2026-05-14T13:34:32.999Z</time>
      </trkpt>
      <trkpt lat="44.18692" lon="5.29717">
        <ele>1059.3</ele>
        <time>2026-05-14T13:34:33.999Z</time>
      </trkpt>
      <trkpt lat="44.18691" lon="5.29716">
        <ele>1059.7</ele>
        <time>2026-05-14T13:34:34.999Z</time>
      </trkpt>
      <trkpt lat="44.1869" lon="5.29716">
        <ele>1059.8</ele>
        <time>2026-05-14T13:34:35.999Z</time>
      </trkpt>
      <trkpt lat="44.1869" lon="5.29716">
        <ele>1059.9</ele>
        <time>2026-05-14T13:34:36.999Z</time>
      </trkpt>
      <trkpt lat="44.18688" lon="5.29715">
        <ele>1060.3</ele>
        <time>2026-05-14T13:34:37.999Z</time>
      </trkpt>
      <trkpt lat="44.18684" lon="5.29712">
        <ele>1060.9</ele>
        <time>2026-05-14T13:34:39.999Z</time>
      </trkpt>
      <trkpt lat="44.18683" lon="5.29712">
        <ele>1061</ele>
        <time>2026-05-14T13:34:40.999Z</time>
      </trkpt>
      <trkpt lat="44.18682" lon="5.29711">
        <ele>1060.9</ele>
        <time>2026-05-14T13:34:41.999Z</time>
      </trkpt>
      <trkpt lat="44.18681" lon="5.29712">
        <ele>1061.1</ele>
        <time>2026-05-14T13:34:42.999Z</time>
      </trkpt>
      <trkpt lat="44.1868" lon="5.29712">
        <ele>1060.5</ele>
        <time>2026-05-14T13:34:43.999Z</time>
      </trkpt>
      <trkpt lat="44.18679" lon="5.29713">
        <ele>1060.3</ele>
        <time>2026-05-14T13:34:44.999Z</time>
      </trkpt>
      <trkpt lat="44.18677" lon="5.29713">
        <ele>1060.4</ele>
        <time>2026-05-14T13:34:45.999Z</time>
      </trkpt>
      <trkpt lat="44.18675" lon="5.29712">
        <ele>1060.8</ele>
        <time>2026-05-14T13:34:46.999Z</time>
      </trkpt>
      <trkpt lat="44.18674" lon="5.29711">
        <ele>1060.3</ele>
        <time>2026-05-14T13:34:47.999Z</time>
      </trkpt>
      <trkpt lat="44.18674" lon="5.29711">
        <ele>1059.7</ele>
        <time>2026-05-14T13:34:48.999Z</time>
      </trkpt>
      <trkpt lat="44.18674" lon="5.2971">
        <ele>1059.8</ele>
        <time>2026-05-14T13:34:49.999Z</time>
      </trkpt>
      <trkpt lat="44.18673" lon="5.2971">
        <ele>1059.3</ele>
        <time>2026-05-14T13:34:50.999Z</time>
      </trkpt>
      <trkpt lat="44.18672" lon="5.29709">
        <ele>1059.2</ele>
        <time>2026-05-14T13:34:51.999Z</time>
      </trkpt>
      <trkpt lat="44.18671" lon="5.2971">
        <ele>1058.8</ele>
        <time>2026-05-14T13:34:52.999Z</time>
      </trkpt>
      <trkpt lat="44.1867" lon="5.29709">
        <ele>1058.7</ele>
        <time>2026-05-14T13:34:53.999Z</time>
      </trkpt>
      <trkpt lat="44.18669" lon="5.29707">
        <ele>1058.9</ele>
        <time>2026-05-14T13:34:54.999Z</time>
      </trkpt>
      <trkpt lat="44.18668" lon="5.29706">
        <ele>1059.2</ele>
        <time>2026-05-14T13:34:55.999Z</time>
      </trkpt>
      <trkpt lat="44.18667" lon="5.29705">
        <ele>1059.1</ele>
        <time>2026-05-14T13:34:56.999Z</time>
      </trkpt>
      <trkpt lat="44.18666" lon="5.29704">
        <ele>1058.4</ele>
        <time>2026-05-14T13:34:57.999Z</time>
      </trkpt>
      <trkpt lat="44.18665" lon="5.29704">
        <ele>1058</ele>
        <time>2026-05-14T13:34:58.999Z</time>
      </trkpt>
      <trkpt lat="44.18664" lon="5.29703">
        <ele>1057.9</ele>
        <time>2026-05-14T13:34:59.999Z</time>
      </trkpt>
      <trkpt lat="44.18663" lon="5.29702">
        <ele>1058.2</ele>
        <time>2026-05-14T13:35:00.999Z</time>
      </trkpt>
      <trkpt lat="44.18662" lon="5.29701">
        <ele>1057.9</ele>
        <time>2026-05-14T13:35:01.999Z</time>
      </trkpt>
      <trkpt lat="44.18661" lon="5.297">
        <ele>1057.5</ele>
        <time>2026-05-14T13:35:02.999Z</time>
      </trkpt>
      <trkpt lat="44.1866" lon="5.297">
        <ele>1056.8</ele>
        <time>2026-05-14T13:35:03.999Z</time>
      </trkpt>
      <trkpt lat="44.18658" lon="5.29698">
        <ele>1056</ele>
        <time>2026-05-14T13:35:04.999Z</time>
      </trkpt>
      <trkpt lat="44.18657" lon="5.29697">
        <ele>1055</ele>
        <time>2026-05-14T13:35:05.999Z</time>
      </trkpt>
      <trkpt lat="44.18655" lon="5.29696">
        <ele>1053.8</ele>
        <time>2026-05-14T13:35:06.999Z</time>
      </trkpt>
      <trkpt lat="44.18654" lon="5.29695">
        <ele>1053.4</ele>
        <time>2026-05-14T13:35:07.999Z</time>
      </trkpt>
      <trkpt lat="44.18653" lon="5.29693">
        <ele>1053.1</ele>
        <time>2026-05-14T13:35:08.999Z</time>
      </trkpt>
      <trkpt lat="44.18653" lon="5.29692">
        <ele>1052.6</ele>
        <time>2026-05-14T13:35:09.999Z</time>
      </trkpt>
      <trkpt lat="44.18652" lon="5.29691">
        <ele>1051.9</ele>
        <time>2026-05-14T13:35:10.999Z</time>
      </trkpt>
      <trkpt lat="44.18652" lon="5.2969">
        <ele>1051.3</ele>
        <time>2026-05-14T13:35:11.999Z</time>
      </trkpt>
      <trkpt lat="44.18651" lon="5.2969">
        <ele>1050.6</ele>
        <time>2026-05-14T13:35:12.999Z</time>
      </trkpt>
      <trkpt lat="44.18649" lon="5.29689">
        <ele>1050.9</ele>
        <time>2026-05-14T13:35:13.999Z</time>
      </trkpt>
      <trkpt lat="44.18648" lon="5.29688">
        <ele>1051.1</ele>
        <time>2026-05-14T13:35:14.999Z</time>
      </trkpt>
      <trkpt lat="44.18648" lon="5.29687">
        <ele>1051.3</ele>
        <time>2026-05-14T13:35:15.999Z</time>
      </trkpt>
      <trkpt lat="44.18646" lon="5.29686">
        <ele>1051.4</ele>
        <time>2026-05-14T13:35:16.999Z</time>
      </trkpt>
      <trkpt lat="44.18645" lon="5.29685">
        <ele>1051.1</ele>
        <time>2026-05-14T13:35:17.999Z</time>
      </trkpt>
      <trkpt lat="44.18644" lon="5.29685">
        <ele>1051.7</ele>
        <time>2026-05-14T13:35:18.999Z</time>
      </trkpt>
      <trkpt lat="44.18642" lon="5.29686">
        <ele>1052.6</ele>
        <time>2026-05-14T13:35:19.999Z</time>
      </trkpt>
      <trkpt lat="44.18641" lon="5.29687">
        <ele>1052.8</ele>
        <time>2026-05-14T13:35:20.999Z</time>
      </trkpt>
      <trkpt lat="44.18639" lon="5.29688">
        <ele>1052.8</ele>
        <time>2026-05-14T13:35:21.999Z</time>
      </trkpt>
      <trkpt lat="44.18637" lon="5.29688">
        <ele>1053.2</ele>
        <time>2026-05-14T13:35:22.999Z</time>
      </trkpt>
      <trkpt lat="44.18636" lon="5.29688">
        <ele>1053.6</ele>
        <time>2026-05-14T13:35:23.999Z</time>
      </trkpt>
      <trkpt lat="44.18634" lon="5.29689">
        <ele>1054.2</ele>
        <time>2026-05-14T13:35:24.999Z</time>
      </trkpt>
      <trkpt lat="44.18633" lon="5.29688">
        <ele>1054.5</ele>
        <time>2026-05-14T13:35:25.999Z</time>
      </trkpt>
      <trkpt lat="44.18632" lon="5.29688">
        <ele>1054.8</ele>
        <time>2026-05-14T13:35:26.999Z</time>
      </trkpt>
      <trkpt lat="44.18631" lon="5.29687">
        <ele>1054.9</ele>
        <time>2026-05-14T13:35:27.999Z</time>
      </trkpt>
      <trkpt lat="44.1863" lon="5.29686">
        <ele>1054.8</ele>
        <time>2026-05-14T13:35:28.999Z</time>
      </trkpt>
      <trkpt lat="44.18629" lon="5.29684">
        <ele>1055.3</ele>
        <time>2026-05-14T13:35:29.999Z</time>
      </trkpt>
      <trkpt lat="44.18628" lon="5.29683">
        <ele>1055.2</ele>
        <time>2026-05-14T13:35:30.999Z</time>
      </trkpt>
      <trkpt lat="44.18626" lon="5.29683">
        <ele>1054.5</ele>
        <time>2026-05-14T13:35:31.999Z</time>
      </trkpt>
      <trkpt lat="44.18626" lon="5.29682">
        <ele>1053.8</ele>
        <time>2026-05-14T13:35:32.999Z</time>
      </trkpt>
      <trkpt lat="44.18625" lon="5.2968">
        <ele>1053.7</ele>
        <time>2026-05-14T13:35:33.999Z</time>
      </trkpt>
      <trkpt lat="44.18623" lon="5.29679">
        <ele>1053.5</ele>
        <time>2026-05-14T13:35:34.999Z</time>
      </trkpt>
      <trkpt lat="44.18622" lon="5.2968">
        <ele>1053.6</ele>
        <time>2026-05-14T13:35:35.999Z</time>
      </trkpt>
      <trkpt lat="44.18621" lon="5.29679">
        <ele>1053.7</ele>
        <time>2026-05-14T13:35:36.999Z</time>
      </trkpt>
      <trkpt lat="44.1862" lon="5.29679">
        <ele>1053.8</ele>
        <time>2026-05-14T13:35:37.999Z</time>
      </trkpt>
      <trkpt lat="44.18619" lon="5.29679">
        <ele>1053.9</ele>
        <time>2026-05-14T13:35:38.999Z</time>
      </trkpt>
      <trkpt lat="44.18618" lon="5.29679">
        <ele>1054.1</ele>
        <time>2026-05-14T13:35:39.999Z</time>
      </trkpt>
      <trkpt lat="44.18618" lon="5.29678">
        <ele>1053.9</ele>
        <time>2026-05-14T13:35:40.999Z</time>
      </trkpt>
      <trkpt lat="44.18617" lon="5.29677">
        <ele>1053.6</ele>
        <time>2026-05-14T13:35:41.999Z</time>
      </trkpt>
      <trkpt lat="44.18616" lon="5.29675">
        <ele>1053.9</ele>
        <time>2026-05-14T13:35:42.999Z</time>
      </trkpt>
      <trkpt lat="44.18614" lon="5.29674">
        <ele>1053.7</ele>
        <time>2026-05-14T13:35:43.999Z</time>
      </trkpt>
      <trkpt lat="44.18613" lon="5.29673">
        <ele>1054</ele>
        <time>2026-05-14T13:35:44.999Z</time>
      </trkpt>
      <trkpt lat="44.18612" lon="5.29671">
        <ele>1054.2</ele>
        <time>2026-05-14T13:35:45.999Z</time>
      </trkpt>
      <trkpt lat="44.1861" lon="5.29671">
        <ele>1054.1</ele>
        <time>2026-05-14T13:35:46.999Z</time>
      </trkpt>
      <trkpt lat="44.18609" lon="5.29671">
        <ele>1054</ele>
        <time>2026-05-14T13:35:47.999Z</time>
      </trkpt>
      <trkpt lat="44.18609" lon="5.29671">
        <ele>1053.6</ele>
        <time>2026-05-14T13:35:48.999Z</time>
      </trkpt>
      <trkpt lat="44.18608" lon="5.29671">
        <ele>1053.2</ele>
        <time>2026-05-14T13:35:49.999Z</time>
      </trkpt>
      <trkpt lat="44.18607" lon="5.29672">
        <ele>1053.3</ele>
        <time>2026-05-14T13:35:50.999Z</time>
      </trkpt>
      <trkpt lat="44.18605" lon="5.29672">
        <ele>1053.4</ele>
        <time>2026-05-14T13:35:51.999Z</time>
      </trkpt>
      <trkpt lat="44.18604" lon="5.29672">
        <ele>1053</ele>
        <time>2026-05-14T13:35:52.999Z</time>
      </trkpt>
      <trkpt lat="44.18602" lon="5.29672">
        <ele>1052.7</ele>
        <time>2026-05-14T13:35:53.999Z</time>
      </trkpt>
      <trkpt lat="44.186" lon="5.29672">
        <ele>1052.3</ele>
        <time>2026-05-14T13:35:54.999Z</time>
      </trkpt>
      <trkpt lat="44.18599" lon="5.29673">
        <ele>1052.5</ele>
        <time>2026-05-14T13:35:55.999Z</time>
      </trkpt>
      <trkpt lat="44.18598" lon="5.29672">
        <ele>1052.8</ele>
        <time>2026-05-14T13:35:56.999Z</time>
      </trkpt>
      <trkpt lat="44.18596" lon="5.29672">
        <ele>1053.3</ele>
        <time>2026-05-14T13:35:57.999Z</time>
      </trkpt>
      <trkpt lat="44.18595" lon="5.29672">
        <ele>1052.9</ele>
        <time>2026-05-14T13:35:58.999Z</time>
      </trkpt>
      <trkpt lat="44.18594" lon="5.29671">
        <ele>1053</ele>
        <time>2026-05-14T13:35:59.999Z</time>
      </trkpt>
      <trkpt lat="44.18593" lon="5.29671">
        <ele>1052.5</ele>
        <time>2026-05-14T13:36:00.999Z</time>
      </trkpt>
      <trkpt lat="44.18592" lon="5.29671">
        <ele>1052</ele>
        <time>2026-05-14T13:36:01.999Z</time>
      </trkpt>
      <trkpt lat="44.18591" lon="5.29671">
        <ele>1051.8</ele>
        <time>2026-05-14T13:36:02.999Z</time>
      </trkpt>
      <trkpt lat="44.1859" lon="5.29671">
        <ele>1051</ele>
        <time>2026-05-14T13:36:03.999Z</time>
      </trkpt>
      <trkpt lat="44.1859" lon="5.29671">
        <ele>1050.7</ele>
        <time>2026-05-14T13:36:04.999Z</time>
      </trkpt>
      <trkpt lat="44.18588" lon="5.29671">
        <ele>1050.7</ele>
        <time>2026-05-14T13:36:06.999Z</time>
      </trkpt>
      <trkpt lat="44.18587" lon="5.29671">
        <ele>1050.5</ele>
        <time>2026-05-14T13:36:07.999Z</time>
      </trkpt>
      <trkpt lat="44.18585" lon="5.29671">
        <ele>1050.4</ele>
        <time>2026-05-14T13:36:08.999Z</time>
      </trkpt>
      <trkpt lat="44.18584" lon="5.29671">
        <ele>1050.5</ele>
        <time>2026-05-14T13:36:09.999Z</time>
      </trkpt>
      <trkpt lat="44.18583" lon="5.2967">
        <ele>1050</ele>
        <time>2026-05-14T13:36:10.999Z</time>
      </trkpt>
      <trkpt lat="44.18582" lon="5.2967">
        <ele>1049.5</ele>
        <time>2026-05-14T13:36:11.999Z</time>
      </trkpt>
      <trkpt lat="44.1858" lon="5.2967">
        <ele>1049.2</ele>
        <time>2026-05-14T13:36:12.999Z</time>
      </trkpt>
      <trkpt lat="44.18579" lon="5.29669">
        <ele>1049.4</ele>
        <time>2026-05-14T13:36:13.999Z</time>
      </trkpt>
      <trkpt lat="44.18579" lon="5.2967">
        <ele>1049.2</ele>
        <time>2026-05-14T13:36:14.999Z</time>
      </trkpt>
      <trkpt lat="44.18578" lon="5.29669">
        <ele>1049.3</ele>
        <time>2026-05-14T13:36:15.999Z</time>
      </trkpt>
      <trkpt lat="44.18576" lon="5.29669">
        <ele>1049.5</ele>
        <time>2026-05-14T13:36:16.999Z</time>
      </trkpt>
      <trkpt lat="44.18575" lon="5.2967">
        <ele>1049.4</ele>
        <time>2026-05-14T13:36:17.999Z</time>
      </trkpt>
      <trkpt lat="44.18573" lon="5.29668">
        <ele>1049.7</ele>
        <time>2026-05-14T13:36:18.999Z</time>
      </trkpt>
      <trkpt lat="44.18573" lon="5.29669">
        <ele>1049.4</ele>
        <time>2026-05-14T13:36:19.999Z</time>
      </trkpt>
      <trkpt lat="44.18572" lon="5.2967">
        <ele>1048.9</ele>
        <time>2026-05-14T13:36:20.999Z</time>
      </trkpt>
      <trkpt lat="44.18571" lon="5.2967">
        <ele>1048.2</ele>
        <time>2026-05-14T13:36:21.999Z</time>
      </trkpt>
      <trkpt lat="44.18571" lon="5.29671">
        <ele>1047.7</ele>
        <time>2026-05-14T13:36:22.999Z</time>
      </trkpt>
      <trkpt lat="44.18572" lon="5.29673">
        <ele>1047</ele>
        <time>2026-05-14T13:36:23.999Z</time>
      </trkpt>
      <trkpt lat="44.18573" lon="5.29675">
        <ele>1046.1</ele>
        <time>2026-05-14T13:36:24.999Z</time>
      </trkpt>
      <trkpt lat="44.18575" lon="5.29675">
        <ele>1045.8</ele>
        <time>2026-05-14T13:36:25.999Z</time>
      </trkpt>
      <trkpt lat="44.18576" lon="5.29676">
        <ele>1045.8</ele>
        <time>2026-05-14T13:36:26.999Z</time>
      </trkpt>
      <trkpt lat="44.18577" lon="5.29677">
        <ele>1045.4</ele>
        <time>2026-05-14T13:36:27.999Z</time>
      </trkpt>
      <trkpt lat="44.18578" lon="5.29679">
        <ele>1045</ele>
        <time>2026-05-14T13:36:28.999Z</time>
      </trkpt>
      <trkpt lat="44.18578" lon="5.2968">
        <ele>1044.3</ele>
        <time>2026-05-14T13:36:29.999Z</time>
      </trkpt>
      <trkpt lat="44.18578" lon="5.2968">
        <ele>1044</ele>
        <time>2026-05-14T13:36:30.999Z</time>
      </trkpt>
      <trkpt lat="44.18578" lon="5.29681">
        <ele>1044</ele>
        <time>2026-05-14T13:36:31.999Z</time>
      </trkpt>
      <trkpt lat="44.18579" lon="5.29682">
        <ele>1044</ele>
        <time>2026-05-14T13:36:32.999Z</time>
      </trkpt>
      <trkpt lat="44.1858" lon="5.29683">
        <ele>1043.8</ele>
        <time>2026-05-14T13:36:33.999Z</time>
      </trkpt>
      <trkpt lat="44.18581" lon="5.29684">
        <ele>1043.4</ele>
        <time>2026-05-14T13:36:34.999Z</time>
      </trkpt>
      <trkpt lat="44.18582" lon="5.29685">
        <ele>1043</ele>
        <time>2026-05-14T13:36:35.999Z</time>
      </trkpt>
      <trkpt lat="44.18584" lon="5.29685">
        <ele>1042.7</ele>
        <time>2026-05-14T13:36:36.999Z</time>
      </trkpt>
      <trkpt lat="44.18584" lon="5.29686">
        <ele>1042.2</ele>
        <time>2026-05-14T13:36:37.999Z</time>
      </trkpt>
      <trkpt lat="44.18586" lon="5.29686">
        <ele>1042.4</ele>
        <time>2026-05-14T13:36:38.999Z</time>
      </trkpt>
      <trkpt lat="44.18587" lon="5.29686">
        <ele>1042.5</ele>
        <time>2026-05-14T13:36:39.999Z</time>
      </trkpt>
      <trkpt lat="44.18588" lon="5.29686">
        <ele>1042.3</ele>
        <time>2026-05-14T13:36:40.999Z</time>
      </trkpt>
      <trkpt lat="44.18589" lon="5.29687">
        <ele>1042.1</ele>
        <time>2026-05-14T13:36:41.999Z</time>
      </trkpt>
      <trkpt lat="44.18589" lon="5.29686">
        <ele>1041.4</ele>
        <time>2026-05-14T13:36:42.999Z</time>
      </trkpt>
      <trkpt lat="44.1859" lon="5.29686">
        <ele>1041.3</ele>
        <time>2026-05-14T13:36:43.999Z</time>
      </trkpt>
      <trkpt lat="44.18592" lon="5.29686">
        <ele>1040.7</ele>
        <time>2026-05-14T13:36:44.999Z</time>
      </trkpt>
      <trkpt lat="44.18593" lon="5.29686">
        <ele>1040.3</ele>
        <time>2026-05-14T13:36:45.999Z</time>
      </trkpt>
      <trkpt lat="44.18595" lon="5.29686">
        <ele>1040</ele>
        <time>2026-05-14T13:36:46.999Z</time>
      </trkpt>
      <trkpt lat="44.18597" lon="5.29687">
        <ele>1039.5</ele>
        <time>2026-05-14T13:36:47.999Z</time>
      </trkpt>
      <trkpt lat="44.18599" lon="5.29688">
        <ele>1038.8</ele>
        <time>2026-05-14T13:36:48.999Z</time>
      </trkpt>
      <trkpt lat="44.18601" lon="5.29688">
        <ele>1038.6</ele>
        <time>2026-05-14T13:36:49.999Z</time>
      </trkpt>
      <trkpt lat="44.18602" lon="5.29688">
        <ele>1038.3</ele>
        <time>2026-05-14T13:36:50.999Z</time>
      </trkpt>
      <trkpt lat="44.18604" lon="5.29689">
        <ele>1038.6</ele>
        <time>2026-05-14T13:36:51.999Z</time>
      </trkpt>
      <trkpt lat="44.18605" lon="5.29691">
        <ele>1039.8</ele>
        <time>2026-05-14T13:36:52.999Z</time>
      </trkpt>
      <trkpt lat="44.18606" lon="5.29692">
        <ele>1040</ele>
        <time>2026-05-14T13:36:53.999Z</time>
      </trkpt>
      <trkpt lat="44.18607" lon="5.29693">
        <ele>1040</ele>
        <time>2026-05-14T13:36:54.999Z</time>
      </trkpt>
      <trkpt lat="44.18607" lon="5.29694">
        <ele>1040.2</ele>
        <time>2026-05-14T13:36:55.999Z</time>
      </trkpt>
      <trkpt lat="44.18607" lon="5.29695">
        <ele>1040.2</ele>
        <time>2026-05-14T13:36:56.999Z</time>
      </trkpt>
      <trkpt lat="44.18607" lon="5.29696">
        <ele>1040.8</ele>
        <time>2026-05-14T13:36:57.999Z</time>
      </trkpt>
      <trkpt lat="44.18608" lon="5.29698">
        <ele>1041.1</ele>
        <time>2026-05-14T13:36:58.999Z</time>
      </trkpt>
      <trkpt lat="44.18609" lon="5.297">
        <ele>1041.4</ele>
        <time>2026-05-14T13:36:59.999Z</time>
      </trkpt>
      <trkpt lat="44.18609" lon="5.29701">
        <ele>1041.5</ele>
        <time>2026-05-14T13:37:00.999Z</time>
      </trkpt>
      <trkpt lat="44.1861" lon="5.29703">
        <ele>1041.3</ele>
        <time>2026-05-14T13:37:01.999Z</time>
      </trkpt>
      <trkpt lat="44.1861" lon="5.29705">
        <ele>1041.1</ele>
        <time>2026-05-14T13:37:02.999Z</time>
      </trkpt>
      <trkpt lat="44.18611" lon="5.29707">
        <ele>1040.7</ele>
        <time>2026-05-14T13:37:03.999Z</time>
      </trkpt>
      <trkpt lat="44.18613" lon="5.2971">
        <ele>1040.7</ele>
        <time>2026-05-14T13:37:04.999Z</time>
      </trkpt>
      <trkpt lat="44.18614" lon="5.29711">
        <ele>1040.2</ele>
        <time>2026-05-14T13:37:05.999Z</time>
      </trkpt>
      <trkpt lat="44.18615" lon="5.29713">
        <ele>1040.2</ele>
        <time>2026-05-14T13:37:06.999Z</time>
      </trkpt>
      <trkpt lat="44.18616" lon="5.29714">
        <ele>1039.8</ele>
        <time>2026-05-14T13:37:07.999Z</time>
      </trkpt>
      <trkpt lat="44.18617" lon="5.29714">
        <ele>1039.4</ele>
        <time>2026-05-14T13:37:08.999Z</time>
      </trkpt>
      <trkpt lat="44.18618" lon="5.29715">
        <ele>1038.8</ele>
        <time>2026-05-14T13:37:09.999Z</time>
      </trkpt>
      <trkpt lat="44.18619" lon="5.29716">
        <ele>1037.9</ele>
        <time>2026-05-14T13:37:10.999Z</time>
      </trkpt>
      <trkpt lat="44.18619" lon="5.29718">
        <ele>1037.2</ele>
        <time>2026-05-14T13:37:11.999Z</time>
      </trkpt>
      <trkpt lat="44.1862" lon="5.29719">
        <ele>1036.6</ele>
        <time>2026-05-14T13:37:12.999Z</time>
      </trkpt>
      <trkpt lat="44.1862" lon="5.2972">
        <ele>1036.1</ele>
        <time>2026-05-14T13:37:13.999Z</time>
      </trkpt>
      <trkpt lat="44.18621" lon="5.29722">
        <ele>1035.2</ele>
        <time>2026-05-14T13:37:14.999Z</time>
      </trkpt>
      <trkpt lat="44.18622" lon="5.29723">
        <ele>1034.5</ele>
        <time>2026-05-14T13:37:15.999Z</time>
      </trkpt>
      <trkpt lat="44.18622" lon="5.29725">
        <ele>1034.3</ele>
        <time>2026-05-14T13:37:16.999Z</time>
      </trkpt>
      <trkpt lat="44.18623" lon="5.29726">
        <ele>1033.9</ele>
        <time>2026-05-14T13:37:17.999Z</time>
      </trkpt>
      <trkpt lat="44.18624" lon="5.29727">
        <ele>1033.6</ele>
        <time>2026-05-14T13:37:18.999Z</time>
      </trkpt>
      <trkpt lat="44.18625" lon="5.29728">
        <ele>1033.5</ele>
        <time>2026-05-14T13:37:19.999Z</time>
      </trkpt>
      <trkpt lat="44.18626" lon="5.29728">
        <ele>1033.3</ele>
        <time>2026-05-14T13:37:20.999Z</time>
      </trkpt>
      <trkpt lat="44.18627" lon="5.29729">
        <ele>1033.2</ele>
        <time>2026-05-14T13:37:21.999Z</time>
      </trkpt>
      <trkpt lat="44.18628" lon="5.2973">
        <ele>1033.2</ele>
        <time>2026-05-14T13:37:22.999Z</time>
      </trkpt>
      <trkpt lat="44.1863" lon="5.2973">
        <ele>1033.3</ele>
        <time>2026-05-14T13:37:23.999Z</time>
      </trkpt>
      <trkpt lat="44.18631" lon="5.2973">
        <ele>1033.2</ele>
        <time>2026-05-14T13:37:24.999Z</time>
      </trkpt>
      <trkpt lat="44.18632" lon="5.2973">
        <ele>1032.6</ele>
        <time>2026-05-14T13:37:25.999Z</time>
      </trkpt>
      <trkpt lat="44.18633" lon="5.29731">
        <ele>1032</ele>
        <time>2026-05-14T13:37:26.999Z</time>
      </trkpt>
      <trkpt lat="44.18633" lon="5.29732">
        <ele>1031.4</ele>
        <time>2026-05-14T13:37:27.999Z</time>
      </trkpt>
      <trkpt lat="44.18634" lon="5.29733">
        <ele>1030.9</ele>
        <time>2026-05-14T13:37:28.999Z</time>
      </trkpt>
      <trkpt lat="44.18635" lon="5.29734">
        <ele>1030.7</ele>
        <time>2026-05-14T13:37:29.999Z</time>
      </trkpt>
      <trkpt lat="44.18635" lon="5.29734">
        <ele>1030.6</ele>
        <time>2026-05-14T13:37:30.999Z</time>
      </trkpt>
      <trkpt lat="44.18635" lon="5.29734">
        <ele>1030.9</ele>
        <time>2026-05-14T13:37:31.999Z</time>
      </trkpt>
      <trkpt lat="44.18636" lon="5.29735">
        <ele>1031</ele>
        <time>2026-05-14T13:37:32.999Z</time>
      </trkpt>
      <trkpt lat="44.18636" lon="5.29736">
        <ele>1030.5</ele>
        <time>2026-05-14T13:37:33.999Z</time>
      </trkpt>
      <trkpt lat="44.18638" lon="5.29737">
        <ele>1029.6</ele>
        <time>2026-05-14T13:37:34.999Z</time>
      </trkpt>
      <trkpt lat="44.1864" lon="5.29739">
        <ele>1028.4</ele>
        <time>2026-05-14T13:37:35.999Z</time>
      </trkpt>
      <trkpt lat="44.18642" lon="5.29741">
        <ele>1027.7</ele>
        <time>2026-05-14T13:37:36.999Z</time>
      </trkpt>
      <trkpt lat="44.18643" lon="5.29743">
        <ele>1027.4</ele>
        <time>2026-05-14T13:37:37.999Z</time>
      </trkpt>
      <trkpt lat="44.18645" lon="5.29744">
        <ele>1027.1</ele>
        <time>2026-05-14T13:37:38.999Z</time>
      </trkpt>
      <trkpt lat="44.18646" lon="5.29746">
        <ele>1027.1</ele>
        <time>2026-05-14T13:37:39.999Z</time>
      </trkpt>
      <trkpt lat="44.18646" lon="5.29747">
        <ele>1027.3</ele>
        <time>2026-05-14T13:37:40.999Z</time>
      </trkpt>
      <trkpt lat="44.18646" lon="5.29749">
        <ele>1026.9</ele>
        <time>2026-05-14T13:37:41.999Z</time>
      </trkpt>
      <trkpt lat="44.18647" lon="5.29751">
        <ele>1026.8</ele>
        <time>2026-05-14T13:37:42.999Z</time>
      </trkpt>
      <trkpt lat="44.18647" lon="5.29752">
        <ele>1027.1</ele>
        <time>2026-05-14T13:37:43.999Z</time>
      </trkpt>
      <trkpt lat="44.18648" lon="5.29754">
        <ele>1027.3</ele>
        <time>2026-05-14T13:37:44.999Z</time>
      </trkpt>
      <trkpt lat="44.18649" lon="5.29755">
        <ele>1027.4</ele>
        <time>2026-05-14T13:37:45.999Z</time>
      </trkpt>
      <trkpt lat="44.1865" lon="5.29756">
        <ele>1027.4</ele>
        <time>2026-05-14T13:37:46.999Z</time>
      </trkpt>
      <trkpt lat="44.18652" lon="5.29757">
        <ele>1027.3</ele>
        <time>2026-05-14T13:37:47.999Z</time>
      </trkpt>
      <trkpt lat="44.18654" lon="5.29758">
        <ele>1027.4</ele>
        <time>2026-05-14T13:37:48.999Z</time>
      </trkpt>
      <trkpt lat="44.18656" lon="5.2976">
        <ele>1026.9</ele>
        <time>2026-05-14T13:37:49.999Z</time>
      </trkpt>
      <trkpt lat="44.18657" lon="5.29761">
        <ele>1027.1</ele>
        <time>2026-05-14T13:37:50.999Z</time>
      </trkpt>
      <trkpt lat="44.18658" lon="5.29761">
        <ele>1027</ele>
        <time>2026-05-14T13:37:51.999Z</time>
      </trkpt>
      <trkpt lat="44.18659" lon="5.29762">
        <ele>1026.9</ele>
        <time>2026-05-14T13:37:52.999Z</time>
      </trkpt>
      <trkpt lat="44.1866" lon="5.29762">
        <ele>1026.7</ele>
        <time>2026-05-14T13:37:53.999Z</time>
      </trkpt>
      <trkpt lat="44.1866" lon="5.29763">
        <ele>1026.3</ele>
        <time>2026-05-14T13:37:54.999Z</time>
      </trkpt>
      <trkpt lat="44.1866" lon="5.29764">
        <ele>1025.5</ele>
        <time>2026-05-14T13:37:55.999Z</time>
      </trkpt>
      <trkpt lat="44.18661" lon="5.29764">
        <ele>1024.8</ele>
        <time>2026-05-14T13:37:56.999Z</time>
      </trkpt>
      <trkpt lat="44.18662" lon="5.29765">
        <ele>1024.1</ele>
        <time>2026-05-14T13:37:57.999Z</time>
      </trkpt>
      <trkpt lat="44.18664" lon="5.29766">
        <ele>1023.2</ele>
        <time>2026-05-14T13:37:58.999Z</time>
      </trkpt>
      <trkpt lat="44.18665" lon="5.29767">
        <ele>1022.9</ele>
        <time>2026-05-14T13:37:59.999Z</time>
      </trkpt>
      <trkpt lat="44.18666" lon="5.29767">
        <ele>1023.3</ele>
        <time>2026-05-14T13:38:00.999Z</time>
      </trkpt>
      <trkpt lat="44.18667" lon="5.29768">
        <ele>1023.8</ele>
        <time>2026-05-14T13:38:01.999Z</time>
      </trkpt>
      <trkpt lat="44.18668" lon="5.2977">
        <ele>1024.8</ele>
        <time>2026-05-14T13:38:02.999Z</time>
      </trkpt>
      <trkpt lat="44.18669" lon="5.29773">
        <ele>1025.3</ele>
        <time>2026-05-14T13:38:03.999Z</time>
      </trkpt>
      <trkpt lat="44.1867" lon="5.29775">
        <ele>1025.4</ele>
        <time>2026-05-14T13:38:04.999Z</time>
      </trkpt>
      <trkpt lat="44.1867" lon="5.29777">
        <ele>1025.2</ele>
        <time>2026-05-14T13:38:05.999Z</time>
      </trkpt>
      <trkpt lat="44.18671" lon="5.29778">
        <ele>1024.8</ele>
        <time>2026-05-14T13:38:06.999Z</time>
      </trkpt>
      <trkpt lat="44.18671" lon="5.29779">
        <ele>1024.8</ele>
        <time>2026-05-14T13:38:07.999Z</time>
      </trkpt>
      <trkpt lat="44.18671" lon="5.29781">
        <ele>1024.6</ele>
        <time>2026-05-14T13:38:08.999Z</time>
      </trkpt>
      <trkpt lat="44.18671" lon="5.29782">
        <ele>1024.5</ele>
        <time>2026-05-14T13:38:09.999Z</time>
      </trkpt>
      <trkpt lat="44.18671" lon="5.29784">
        <ele>1024.2</ele>
        <time>2026-05-14T13:38:10.999Z</time>
      </trkpt>
      <trkpt lat="44.18671" lon="5.29787">
        <ele>1024.1</ele>
        <time>2026-05-14T13:38:11.999Z</time>
      </trkpt>
      <trkpt lat="44.18672" lon="5.29789">
        <ele>1023.6</ele>
        <time>2026-05-14T13:38:12.999Z</time>
      </trkpt>
      <trkpt lat="44.18671" lon="5.29791">
        <ele>1023.2</ele>
        <time>2026-05-14T13:38:13.999Z</time>
      </trkpt>
      <trkpt lat="44.18671" lon="5.29792">
        <ele>1023.1</ele>
        <time>2026-05-14T13:38:14.999Z</time>
      </trkpt>
      <trkpt lat="44.18671" lon="5.29794">
        <ele>1023.1</ele>
        <time>2026-05-14T13:38:15.999Z</time>
      </trkpt>
      <trkpt lat="44.18671" lon="5.29795">
        <ele>1023.3</ele>
        <time>2026-05-14T13:38:16.999Z</time>
      </trkpt>
      <trkpt lat="44.18672" lon="5.29797">
        <ele>1023.4</ele>
        <time>2026-05-14T13:38:17.999Z</time>
      </trkpt>
      <trkpt lat="44.18672" lon="5.29798">
        <ele>1023.3</ele>
        <time>2026-05-14T13:38:18.999Z</time>
      </trkpt>
      <trkpt lat="44.18673" lon="5.298">
        <ele>1023.3</ele>
        <time>2026-05-14T13:38:19.999Z</time>
      </trkpt>
      <trkpt lat="44.18674" lon="5.29801">
        <ele>1023</ele>
        <time>2026-05-14T13:38:20.999Z</time>
      </trkpt>
      <trkpt lat="44.18675" lon="5.29802">
        <ele>1023</ele>
        <time>2026-05-14T13:38:21.999Z</time>
      </trkpt>
      <trkpt lat="44.18675" lon="5.29803">
        <ele>1023.2</ele>
        <time>2026-05-14T13:38:22.999Z</time>
      </trkpt>
      <trkpt lat="44.18674" lon="5.29804">
        <ele>1022.7</ele>
        <time>2026-05-14T13:38:23.999Z</time>
      </trkpt>
      <trkpt lat="44.18674" lon="5.29806">
        <ele>1022.1</ele>
        <time>2026-05-14T13:38:24.999Z</time>
      </trkpt>
      <trkpt lat="44.18674" lon="5.29807">
        <ele>1022.4</ele>
        <time>2026-05-14T13:38:25.999Z</time>
      </trkpt>
      <trkpt lat="44.18674" lon="5.29808">
        <ele>1022.3</ele>
        <time>2026-05-14T13:38:26.999Z</time>
      </trkpt>
      <trkpt lat="44.18674" lon="5.29809">
        <ele>1021.9</ele>
        <time>2026-05-14T13:38:27.999Z</time>
      </trkpt>
      <trkpt lat="44.18674" lon="5.2981">
        <ele>1021.6</ele>
        <time>2026-05-14T13:38:28.999Z</time>
      </trkpt>
      <trkpt lat="44.18675" lon="5.29811">
        <ele>1021.4</ele>
        <time>2026-05-14T13:38:29.999Z</time>
      </trkpt>
      <trkpt lat="44.18676" lon="5.29813">
        <ele>1021.8</ele>
        <time>2026-05-14T13:38:30.999Z</time>
      </trkpt>
      <trkpt lat="44.18677" lon="5.29815">
        <ele>1021.8</ele>
        <time>2026-05-14T13:38:31.999Z</time>
      </trkpt>
      <trkpt lat="44.18678" lon="5.29817">
        <ele>1022</ele>
        <time>2026-05-14T13:38:32.999Z</time>
      </trkpt>
      <trkpt lat="44.18679" lon="5.2982">
        <ele>1022.3</ele>
        <time>2026-05-14T13:38:33.999Z</time>
      </trkpt>
      <trkpt lat="44.1868" lon="5.29822">
        <ele>1021.9</ele>
        <time>2026-05-14T13:38:34.999Z</time>
      </trkpt>
      <trkpt lat="44.1868" lon="5.29823">
        <ele>1021.6</ele>
        <time>2026-05-14T13:38:35.999Z</time>
      </trkpt>
      <trkpt lat="44.1868" lon="5.29824">
        <ele>1021.1</ele>
        <time>2026-05-14T13:38:36.999Z</time>
      </trkpt>
      <trkpt lat="44.18681" lon="5.29826">
        <ele>1020.9</ele>
        <time>2026-05-14T13:38:37.999Z</time>
      </trkpt>
      <trkpt lat="44.18681" lon="5.29828">
        <ele>1020.4</ele>
        <time>2026-05-14T13:38:38.999Z</time>
      </trkpt>
      <trkpt lat="44.18681" lon="5.2983">
        <ele>1019.8</ele>
        <time>2026-05-14T13:38:39.999Z</time>
      </trkpt>
      <trkpt lat="44.18681" lon="5.29832">
        <ele>1019.6</ele>
        <time>2026-05-14T13:38:40.999Z</time>
      </trkpt>
      <trkpt lat="44.18681" lon="5.29833">
        <ele>1019.1</ele>
        <time>2026-05-14T13:38:41.999Z</time>
      </trkpt>
      <trkpt lat="44.18681" lon="5.29835">
        <ele>1018.9</ele>
        <time>2026-05-14T13:38:42.999Z</time>
      </trkpt>
      <trkpt lat="44.18681" lon="5.29836">
        <ele>1019.3</ele>
        <time>2026-05-14T13:38:43.999Z</time>
      </trkpt>
      <trkpt lat="44.18682" lon="5.29837">
        <ele>1019.3</ele>
        <time>2026-05-14T13:38:44.999Z</time>
      </trkpt>
      <trkpt lat="44.18682" lon="5.29838">
        <ele>1019.1</ele>
        <time>2026-05-14T13:38:45.999Z</time>
      </trkpt>
      <trkpt lat="44.18683" lon="5.29841">
        <ele>1018.4</ele>
        <time>2026-05-14T13:38:46.999Z</time>
      </trkpt>
      <trkpt lat="44.18683" lon="5.29842">
        <ele>1017.5</ele>
        <time>2026-05-14T13:38:47.999Z</time>
      </trkpt>
      <trkpt lat="44.18684" lon="5.29843">
        <ele>1017.2</ele>
        <time>2026-05-14T13:38:48.999Z</time>
      </trkpt>
      <trkpt lat="44.18684" lon="5.29845">
        <ele>1017</ele>
        <time>2026-05-14T13:38:49.999Z</time>
      </trkpt>
      <trkpt lat="44.18684" lon="5.29846">
        <ele>1016.9</ele>
        <time>2026-05-14T13:38:50.999Z</time>
      </trkpt>
      <trkpt lat="44.18685" lon="5.29847">
        <ele>1016.6</ele>
        <time>2026-05-14T13:38:51.999Z</time>
      </trkpt>
      <trkpt lat="44.18685" lon="5.29849">
        <ele>1016.8</ele>
        <time>2026-05-14T13:38:52.999Z</time>
      </trkpt>
      <trkpt lat="44.18685" lon="5.29851">
        <ele>1016.7</ele>
        <time>2026-05-14T13:38:53.999Z</time>
      </trkpt>
      <trkpt lat="44.18686" lon="5.29853">
        <ele>1016.6</ele>
        <time>2026-05-14T13:38:54.999Z</time>
      </trkpt>
      <trkpt lat="44.18687" lon="5.29855">
        <ele>1016.7</ele>
        <time>2026-05-14T13:38:55.999Z</time>
      </trkpt>
      <trkpt lat="44.18687" lon="5.29857">
        <ele>1016.8</ele>
        <time>2026-05-14T13:38:56.999Z</time>
      </trkpt>
      <trkpt lat="44.18688" lon="5.29859">
        <ele>1016.9</ele>
        <time>2026-05-14T13:38:57.999Z</time>
      </trkpt>
      <trkpt lat="44.18688" lon="5.2986">
        <ele>1016.6</ele>
        <time>2026-05-14T13:38:58.999Z</time>
      </trkpt>
      <trkpt lat="44.18689" lon="5.2986">
        <ele>1016.1</ele>
        <time>2026-05-14T13:38:59.999Z</time>
      </trkpt>
      <trkpt lat="44.18689" lon="5.29861">
        <ele>1015.1</ele>
        <time>2026-05-14T13:39:00.999Z</time>
      </trkpt>
      <trkpt lat="44.18689" lon="5.29862">
        <ele>1015.1</ele>
        <time>2026-05-14T13:39:01.999Z</time>
      </trkpt>
      <trkpt lat="44.1869" lon="5.29864">
        <ele>1015.1</ele>
        <time>2026-05-14T13:39:02.999Z</time>
      </trkpt>
      <trkpt lat="44.18691" lon="5.29866">
        <ele>1015.2</ele>
        <time>2026-05-14T13:39:03.999Z</time>
      </trkpt>
      <trkpt lat="44.18691" lon="5.29868">
        <ele>1016.3</ele>
        <time>2026-05-14T13:39:04.999Z</time>
      </trkpt>
      <trkpt lat="44.18691" lon="5.29871">
        <ele>1016.4</ele>
        <time>2026-05-14T13:39:05.999Z</time>
      </trkpt>
      <trkpt lat="44.18691" lon="5.29873">
        <ele>1015.9</ele>
        <time>2026-05-14T13:39:06.999Z</time>
      </trkpt>
      <trkpt lat="44.18691" lon="5.29874">
        <ele>1015.2</ele>
        <time>2026-05-14T13:39:07.999Z</time>
      </trkpt>
      <trkpt lat="44.18691" lon="5.29875">
        <ele>1015</ele>
        <time>2026-05-14T13:39:08.999Z</time>
      </trkpt>
      <trkpt lat="44.18691" lon="5.29876">
        <ele>1015</ele>
        <time>2026-05-14T13:39:09.999Z</time>
      </trkpt>
      <trkpt lat="44.18692" lon="5.29877">
        <ele>1014.7</ele>
        <time>2026-05-14T13:39:10.999Z</time>
      </trkpt>
      <trkpt lat="44.18692" lon="5.29878">
        <ele>1014.7</ele>
        <time>2026-05-14T13:39:11.999Z</time>
      </trkpt>
      <trkpt lat="44.18692" lon="5.29879">
        <ele>1014.5</ele>
        <time>2026-05-14T13:39:13.000Z</time>
      </trkpt>
      <trkpt lat="44.18693" lon="5.2988">
        <ele>1014.2</ele>
        <time>2026-05-14T13:39:14.000Z</time>
      </trkpt>
      <trkpt lat="44.18695" lon="5.29882">
        <ele>1013.8</ele>
        <time>2026-05-14T13:39:15.000Z</time>
      </trkpt>
      <trkpt lat="44.18695" lon="5.29883">
        <ele>1013.5</ele>
        <time>2026-05-14T13:39:16.000Z</time>
      </trkpt>
      <trkpt lat="44.18695" lon="5.29885">
        <ele>1013.3</ele>
        <time>2026-05-14T13:39:17.000Z</time>
      </trkpt>
      <trkpt lat="44.18696" lon="5.29886">
        <ele>1013.2</ele>
        <time>2026-05-14T13:39:18.000Z</time>
      </trkpt>
      <trkpt lat="44.18697" lon="5.29887">
        <ele>1013.8</ele>
        <time>2026-05-14T13:39:19.000Z</time>
      </trkpt>
      <trkpt lat="44.18697" lon="5.29888">
        <ele>1014.1</ele>
        <time>2026-05-14T13:39:20.000Z</time>
      </trkpt>
      <trkpt lat="44.18698" lon="5.2989">
        <ele>1014.3</ele>
        <time>2026-05-14T13:39:21.000Z</time>
      </trkpt>
      <trkpt lat="44.18699" lon="5.29892">
        <ele>1014.5</ele>
        <time>2026-05-14T13:39:22.000Z</time>
      </trkpt>
      <trkpt lat="44.18699" lon="5.29894">
        <ele>1014.3</ele>
        <time>2026-05-14T13:39:23.000Z</time>
      </trkpt>
      <trkpt lat="44.187" lon="5.29895">
        <ele>1013.8</ele>
        <time>2026-05-14T13:39:24.000Z</time>
      </trkpt>
      <trkpt lat="44.187" lon="5.29896">
        <ele>1013.8</ele>
        <time>2026-05-14T13:39:25.000Z</time>
      </trkpt>
      <trkpt lat="44.18701" lon="5.29897">
        <ele>1013.9</ele>
        <time>2026-05-14T13:39:26.000Z</time>
      </trkpt>
      <trkpt lat="44.18701" lon="5.29898">
        <ele>1013.8</ele>
        <time>2026-05-14T13:39:27.000Z</time>
      </trkpt>
      <trkpt lat="44.18702" lon="5.299">
        <ele>1013.2</ele>
        <time>2026-05-14T13:39:28.000Z</time>
      </trkpt>
      <trkpt lat="44.18702" lon="5.29901">
        <ele>1013.2</ele>
        <time>2026-05-14T13:39:29.000Z</time>
      </trkpt>
      <trkpt lat="44.18702" lon="5.29903">
        <ele>1013.1</ele>
        <time>2026-05-14T13:39:30.000Z</time>
      </trkpt>
      <trkpt lat="44.18703" lon="5.29905">
        <ele>1012.4</ele>
        <time>2026-05-14T13:39:31.000Z</time>
      </trkpt>
      <trkpt lat="44.18703" lon="5.29906">
        <ele>1012.2</ele>
        <time>2026-05-14T13:39:32.000Z</time>
      </trkpt>
      <trkpt lat="44.18703" lon="5.29908">
        <ele>1011.5</ele>
        <time>2026-05-14T13:39:33.000Z</time>
      </trkpt>
      <trkpt lat="44.18703" lon="5.29908">
        <ele>1011.1</ele>
        <time>2026-05-14T13:39:34.000Z</time>
      </trkpt>
      <trkpt lat="44.18703" lon="5.29908">
        <ele>1011.2</ele>
        <time>2026-05-14T13:39:35.000Z</time>
      </trkpt>
      <trkpt lat="44.18703" lon="5.29909">
        <ele>1011.2</ele>
        <time>2026-05-14T13:39:36.000Z</time>
      </trkpt>
      <trkpt lat="44.18703" lon="5.29909">
        <ele>1011.2</ele>
        <time>2026-05-14T13:39:37.000Z</time>
      </trkpt>
      <trkpt lat="44.18703" lon="5.29909">
        <ele>1011.5</ele>
        <time>2026-05-14T13:39:38.000Z</time>
      </trkpt>
      <trkpt lat="44.18703" lon="5.29909">
        <ele>1011.6</ele>
        <time>2026-05-14T13:39:39.000Z</time>
      </trkpt>
      <trkpt lat="44.18704" lon="5.29912">
        <ele>1011.5</ele>
        <time>2026-05-14T13:39:40.000Z</time>
      </trkpt>
      <trkpt lat="44.18705" lon="5.29914">
        <ele>1011.1</ele>
        <time>2026-05-14T13:39:41.000Z</time>
      </trkpt>
      <trkpt lat="44.18706" lon="5.29916">
        <ele>1010.9</ele>
        <time>2026-05-14T13:39:42.000Z</time>
      </trkpt>
      <trkpt lat="44.18706" lon="5.29917">
        <ele>1011.2</ele>
        <time>2026-05-14T13:39:43.000Z</time>
      </trkpt>
      <trkpt lat="44.18706" lon="5.29917">
        <ele>1011</ele>
        <time>2026-05-14T13:39:44.000Z</time>
      </trkpt>
      <trkpt lat="44.18707" lon="5.29917">
        <ele>1010.8</ele>
        <time>2026-05-14T13:39:45.000Z</time>
      </trkpt>
      <trkpt lat="44.18707" lon="5.29918">
        <ele>1010.8</ele>
        <time>2026-05-14T13:39:46.000Z</time>
      </trkpt>
      <trkpt lat="44.18707" lon="5.29918">
        <ele>1010.3</ele>
        <time>2026-05-14T13:39:47.000Z</time>
      </trkpt>
      <trkpt lat="44.18708" lon="5.29921">
        <ele>1009.9</ele>
        <time>2026-05-14T13:39:48.000Z</time>
      </trkpt>
      <trkpt lat="44.18709" lon="5.29923">
        <ele>1009.5</ele>
        <time>2026-05-14T13:39:49.000Z</time>
      </trkpt>
      <trkpt lat="44.18711" lon="5.29926">
        <ele>1009.5</ele>
        <time>2026-05-14T13:39:50.000Z</time>
      </trkpt>
      <trkpt lat="44.18712" lon="5.29929">
        <ele>1009.8</ele>
        <time>2026-05-14T13:39:51.000Z</time>
      </trkpt>
      <trkpt lat="44.18713" lon="5.29931">
        <ele>1009.8</ele>
        <time>2026-05-14T13:39:52.000Z</time>
      </trkpt>
      <trkpt lat="44.18713" lon="5.29934">
        <ele>1010.1</ele>
        <time>2026-05-14T13:39:53.000Z</time>
      </trkpt>
      <trkpt lat="44.18714" lon="5.29936">
        <ele>1009.7</ele>
        <time>2026-05-14T13:39:54.000Z</time>
      </trkpt>
      <trkpt lat="44.18714" lon="5.29938">
        <ele>1009.3</ele>
        <time>2026-05-14T13:39:55.000Z</time>
      </trkpt>
      <trkpt lat="44.18714" lon="5.29939">
        <ele>1008.6</ele>
        <time>2026-05-14T13:39:56.000Z</time>
      </trkpt>
      <trkpt lat="44.18714" lon="5.2994">
        <ele>1008</ele>
        <time>2026-05-14T13:39:57.000Z</time>
      </trkpt>
      <trkpt lat="44.18715" lon="5.29942">
        <ele>1008.5</ele>
        <time>2026-05-14T13:39:58.000Z</time>
      </trkpt>
      <trkpt lat="44.18715" lon="5.29944">
        <ele>1008.8</ele>
        <time>2026-05-14T13:39:59.000Z</time>
      </trkpt>
      <trkpt lat="44.18717" lon="5.29947">
        <ele>1008.6</ele>
        <time>2026-05-14T13:40:00.000Z</time>
      </trkpt>
      <trkpt lat="44.18718" lon="5.29949">
        <ele>1008.8</ele>
        <time>2026-05-14T13:40:01.000Z</time>
      </trkpt>
      <trkpt lat="44.18718" lon="5.29951">
        <ele>1008.5</ele>
        <time>2026-05-14T13:40:02.000Z</time>
      </trkpt>
      <trkpt lat="44.18719" lon="5.29953">
        <ele>1008</ele>
        <time>2026-05-14T13:40:03.000Z</time>
      </trkpt>
      <trkpt lat="44.18719" lon="5.29955">
        <ele>1008</ele>
        <time>2026-05-14T13:40:04.000Z</time>
      </trkpt>
      <trkpt lat="44.18719" lon="5.29956">
        <ele>1007.8</ele>
        <time>2026-05-14T13:40:05.000Z</time>
      </trkpt>
      <trkpt lat="44.18719" lon="5.29958">
        <ele>1007.5</ele>
        <time>2026-05-14T13:40:06.000Z</time>
      </trkpt>
      <trkpt lat="44.18719" lon="5.2996">
        <ele>1007.1</ele>
        <time>2026-05-14T13:40:07.000Z</time>
      </trkpt>
      <trkpt lat="44.1872" lon="5.29962">
        <ele>1006.9</ele>
        <time>2026-05-14T13:40:08.000Z</time>
      </trkpt>
      <trkpt lat="44.1872" lon="5.29964">
        <ele>1007</ele>
        <time>2026-05-14T13:40:09.000Z</time>
      </trkpt>
      <trkpt lat="44.18721" lon="5.29966">
        <ele>1007.1</ele>
        <time>2026-05-14T13:40:10.000Z</time>
      </trkpt>
      <trkpt lat="44.18722" lon="5.29967">
        <ele>1007.1</ele>
        <time>2026-05-14T13:40:11.000Z</time>
      </trkpt>
      <trkpt lat="44.18723" lon="5.29969">
        <ele>1007.1</ele>
        <time>2026-05-14T13:40:12.000Z</time>
      </trkpt>
      <trkpt lat="44.18724" lon="5.2997">
        <ele>1007.1</ele>
        <time>2026-05-14T13:40:13.000Z</time>
      </trkpt>
      <trkpt lat="44.18725" lon="5.29972">
        <ele>1007.4</ele>
        <time>2026-05-14T13:40:14.000Z</time>
      </trkpt>
      <trkpt lat="44.18726" lon="5.29974">
        <ele>1007.6</ele>
        <time>2026-05-14T13:40:15.000Z</time>
      </trkpt>
      <trkpt lat="44.18726" lon="5.29976">
        <ele>1007</ele>
        <time>2026-05-14T13:40:16.000Z</time>
      </trkpt>
      <trkpt lat="44.18727" lon="5.29978">
        <ele>1006.8</ele>
        <time>2026-05-14T13:40:17.000Z</time>
      </trkpt>
      <trkpt lat="44.18728" lon="5.29979">
        <ele>1006.2</ele>
        <time>2026-05-14T13:40:18.000Z</time>
      </trkpt>
      <trkpt lat="44.18728" lon="5.2998">
        <ele>1006</ele>
        <time>2026-05-14T13:40:19.000Z</time>
      </trkpt>
      <trkpt lat="44.18728" lon="5.29981">
        <ele>1006.3</ele>
        <time>2026-05-14T13:40:20.000Z</time>
      </trkpt>
      <trkpt lat="44.18728" lon="5.29981">
        <ele>1006.2</ele>
        <time>2026-05-14T13:40:21.000Z</time>
      </trkpt>
      <trkpt lat="44.18729" lon="5.29981">
        <ele>1006.2</ele>
        <time>2026-05-14T13:40:22.000Z</time>
      </trkpt>
      <trkpt lat="44.18729" lon="5.29982">
        <ele>1005.9</ele>
        <time>2026-05-14T13:40:23.000Z</time>
      </trkpt>
      <trkpt lat="44.1873" lon="5.29982">
        <ele>1005.8</ele>
        <time>2026-05-14T13:40:24.000Z</time>
      </trkpt>
      <trkpt lat="44.18731" lon="5.29982">
        <ele>1005.5</ele>
        <time>2026-05-14T13:40:25.000Z</time>
      </trkpt>
      <trkpt lat="44.18732" lon="5.29983">
        <ele>1005.1</ele>
        <time>2026-05-14T13:40:26.000Z</time>
      </trkpt>
      <trkpt lat="44.18733" lon="5.29983">
        <ele>1004.6</ele>
        <time>2026-05-14T13:40:27.000Z</time>
      </trkpt>
      <trkpt lat="44.18734" lon="5.29985">
        <ele>1004.2</ele>
        <time>2026-05-14T13:40:28.000Z</time>
      </trkpt>
      <trkpt lat="44.18736" lon="5.29984">
        <ele>1003.5</ele>
        <time>2026-05-14T13:40:29.000Z</time>
      </trkpt>
      <trkpt lat="44.18737" lon="5.29984">
        <ele>1002.6</ele>
        <time>2026-05-14T13:40:30.000Z</time>
      </trkpt>
      <trkpt lat="44.18737" lon="5.29984">
        <ele>1002.2</ele>
        <time>2026-05-14T13:40:31.000Z</time>
      </trkpt>
      <trkpt lat="44.18738" lon="5.29984">
        <ele>1001.7</ele>
        <time>2026-05-14T13:40:32.000Z</time>
      </trkpt>
      <trkpt lat="44.1874" lon="5.29986">
        <ele>1001.9</ele>
        <time>2026-05-14T13:40:33.000Z</time>
      </trkpt>
      <trkpt lat="44.18742" lon="5.29987">
        <ele>1001.9</ele>
        <time>2026-05-14T13:40:34.000Z</time>
      </trkpt>
      <trkpt lat="44.18743" lon="5.29988">
        <ele>1002</ele>
        <time>2026-05-14T13:40:35.000Z</time>
      </trkpt>
      <trkpt lat="44.18745" lon="5.29989">
        <ele>1001.4</ele>
        <time>2026-05-14T13:40:36.000Z</time>
      </trkpt>
      <trkpt lat="44.18746" lon="5.2999">
        <ele>1000.8</ele>
        <time>2026-05-14T13:40:37.000Z</time>
      </trkpt>
      <trkpt lat="44.18748" lon="5.2999">
        <ele>1000.8</ele>
        <time>2026-05-14T13:40:38.000Z</time>
      </trkpt>
      <trkpt lat="44.18749" lon="5.2999">
        <ele>1000.2</ele>
        <time>2026-05-14T13:40:39.000Z</time>
      </trkpt>
      <trkpt lat="44.1875" lon="5.2999">
        <ele>1000.2</ele>
        <time>2026-05-14T13:40:40.000Z</time>
      </trkpt>
      <trkpt lat="44.18751" lon="5.2999">
        <ele>1000.3</ele>
        <time>2026-05-14T13:40:41.000Z</time>
      </trkpt>
      <trkpt lat="44.18752" lon="5.29988">
        <ele>1000.5</ele>
        <time>2026-05-14T13:40:42.000Z</time>
      </trkpt>
      <trkpt lat="44.18754" lon="5.29987">
        <ele>999.9</ele>
        <time>2026-05-14T13:40:43.000Z</time>
      </trkpt>
      <trkpt lat="44.18754" lon="5.29987">
        <ele>1000.5</ele>
        <time>2026-05-14T13:40:44.000Z</time>
      </trkpt>
      <trkpt lat="44.18756" lon="5.29986">
        <ele>1000</ele>
        <time>2026-05-14T13:40:45.000Z</time>
      </trkpt>
      <trkpt lat="44.18758" lon="5.29985">
        <ele>999.5</ele>
        <time>2026-05-14T13:40:46.000Z</time>
      </trkpt>
      <trkpt lat="44.18759" lon="5.29983">
        <ele>999.5</ele>
        <time>2026-05-14T13:40:47.000Z</time>
      </trkpt>
      <trkpt lat="44.18761" lon="5.29983">
        <ele>999.4</ele>
        <time>2026-05-14T13:40:48.000Z</time>
      </trkpt>
      <trkpt lat="44.18762" lon="5.29983">
        <ele>999.4</ele>
        <time>2026-05-14T13:40:49.000Z</time>
      </trkpt>
      <trkpt lat="44.18763" lon="5.29982">
        <ele>998.9</ele>
        <time>2026-05-14T13:40:50.000Z</time>
      </trkpt>
      <trkpt lat="44.18765" lon="5.2998">
        <ele>998.4</ele>
        <time>2026-05-14T13:40:51.000Z</time>
      </trkpt>
      <trkpt lat="44.18765" lon="5.29979">
        <ele>997.7</ele>
        <time>2026-05-14T13:40:52.000Z</time>
      </trkpt>
      <trkpt lat="44.18767" lon="5.29979">
        <ele>997.4</ele>
        <time>2026-05-14T13:40:53.000Z</time>
      </trkpt>
      <trkpt lat="44.18768" lon="5.29979">
        <ele>997</ele>
        <time>2026-05-14T13:40:54.000Z</time>
      </trkpt>
      <trkpt lat="44.18768" lon="5.29979">
        <ele>996.9</ele>
        <time>2026-05-14T13:40:55.000Z</time>
      </trkpt>
      <trkpt lat="44.18769" lon="5.29979">
        <ele>996.7</ele>
        <time>2026-05-14T13:40:56.000Z</time>
      </trkpt>
      <trkpt lat="44.1877" lon="5.29978">
        <ele>996.7</ele>
        <time>2026-05-14T13:40:57.000Z</time>
      </trkpt>
      <trkpt lat="44.18772" lon="5.29978">
        <ele>997.4</ele>
        <time>2026-05-14T13:40:58.000Z</time>
      </trkpt>
      <trkpt lat="44.18772" lon="5.29977">
        <ele>997.4</ele>
        <time>2026-05-14T13:40:59.000Z</time>
      </trkpt>
      <trkpt lat="44.18772" lon="5.29977">
        <ele>997.4</ele>
        <time>2026-05-14T13:41:00.000Z</time>
      </trkpt>
      <trkpt lat="44.18773" lon="5.29977">
        <ele>997.3</ele>
        <time>2026-05-14T13:41:01.000Z</time>
      </trkpt>
      <trkpt lat="44.18774" lon="5.29976">
        <ele>997.1</ele>
        <time>2026-05-14T13:41:02.000Z</time>
      </trkpt>
      <trkpt lat="44.18775" lon="5.29977">
        <ele>997.1</ele>
        <time>2026-05-14T13:41:03.000Z</time>
      </trkpt>
      <trkpt lat="44.18776" lon="5.29978">
        <ele>997.3</ele>
        <time>2026-05-14T13:41:04.000Z</time>
      </trkpt>
      <trkpt lat="44.18777" lon="5.29978">
        <ele>997.2</ele>
        <time>2026-05-14T13:41:05.000Z</time>
      </trkpt>
      <trkpt lat="44.18779" lon="5.29978">
        <ele>997.4</ele>
        <time>2026-05-14T13:41:06.000Z</time>
      </trkpt>
      <trkpt lat="44.1878" lon="5.29978">
        <ele>997</ele>
        <time>2026-05-14T13:41:07.000Z</time>
      </trkpt>
      <trkpt lat="44.18783" lon="5.29977">
        <ele>997.2</ele>
        <time>2026-05-14T13:41:08.000Z</time>
      </trkpt>
      <trkpt lat="44.18785" lon="5.29977">
        <ele>997</ele>
        <time>2026-05-14T13:41:09.000Z</time>
      </trkpt>
      <trkpt lat="44.18786" lon="5.29978">
        <ele>996.5</ele>
        <time>2026-05-14T13:41:10.000Z</time>
      </trkpt>
      <trkpt lat="44.18788" lon="5.29977">
        <ele>996.5</ele>
        <time>2026-05-14T13:41:11.000Z</time>
      </trkpt>
      <trkpt lat="44.18789" lon="5.29977">
        <ele>997.2</ele>
        <time>2026-05-14T13:41:12.000Z</time>
      </trkpt>
      <trkpt lat="44.1879" lon="5.29976">
        <ele>997.5</ele>
        <time>2026-05-14T13:41:13.000Z</time>
      </trkpt>
      <trkpt lat="44.18791" lon="5.29975">
        <ele>997.6</ele>
        <time>2026-05-14T13:41:14.000Z</time>
      </trkpt>
      <trkpt lat="44.18793" lon="5.29973">
        <ele>997.6</ele>
        <time>2026-05-14T13:41:15.000Z</time>
      </trkpt>
      <trkpt lat="44.18795" lon="5.29972">
        <ele>998</ele>
        <time>2026-05-14T13:41:16.000Z</time>
      </trkpt>
      <trkpt lat="44.18796" lon="5.29971">
        <ele>997.5</ele>
        <time>2026-05-14T13:41:17.000Z</time>
      </trkpt>
      <trkpt lat="44.18796" lon="5.29971">
        <ele>997.3</ele>
        <time>2026-05-14T13:41:18.000Z</time>
      </trkpt>
      <trkpt lat="44.18797" lon="5.2997">
        <ele>997.2</ele>
        <time>2026-05-14T13:41:19.000Z</time>
      </trkpt>
      <trkpt lat="44.18798" lon="5.29969">
        <ele>997.4</ele>
        <time>2026-05-14T13:41:20.000Z</time>
      </trkpt>
      <trkpt lat="44.18798" lon="5.29969">
        <ele>997.8</ele>
        <time>2026-05-14T13:41:21.000Z</time>
      </trkpt>
      <trkpt lat="44.18797" lon="5.29968">
        <ele>996.6</ele>
        <time>2026-05-14T13:41:22.000Z</time>
      </trkpt>
      <trkpt lat="44.18798" lon="5.29967">
        <ele>996.6</ele>
        <time>2026-05-14T13:41:23.000Z</time>
      </trkpt>
      <trkpt lat="44.18798" lon="5.29966">
        <ele>995.8</ele>
        <time>2026-05-14T13:41:24.000Z</time>
      </trkpt>
      <trkpt lat="44.188" lon="5.29965">
        <ele>995.5</ele>
        <time>2026-05-14T13:41:25.000Z</time>
      </trkpt>
      <trkpt lat="44.18801" lon="5.29964">
        <ele>995</ele>
        <time>2026-05-14T13:41:26.000Z</time>
      </trkpt>
      <trkpt lat="44.18803" lon="5.29964">
        <ele>995.5</ele>
        <time>2026-05-14T13:41:27.000Z</time>
      </trkpt>
      <trkpt lat="44.18805" lon="5.29963">
        <ele>995</ele>
        <time>2026-05-14T13:41:28.000Z</time>
      </trkpt>
      <trkpt lat="44.18808" lon="5.2996">
        <ele>994.6</ele>
        <time>2026-05-14T13:41:29.000Z</time>
      </trkpt>
      <trkpt lat="44.18809" lon="5.29959">
        <ele>993.7</ele>
        <time>2026-05-14T13:41:30.000Z</time>
      </trkpt>
      <trkpt lat="44.18811" lon="5.29957">
        <ele>993.7</ele>
        <time>2026-05-14T13:41:31.000Z</time>
      </trkpt>
      <trkpt lat="44.18811" lon="5.29956">
        <ele>993.3</ele>
        <time>2026-05-14T13:41:32.000Z</time>
      </trkpt>
      <trkpt lat="44.18811" lon="5.29956">
        <ele>993</ele>
        <time>2026-05-14T13:41:33.000Z</time>
      </trkpt>
      <trkpt lat="44.18811" lon="5.29956">
        <ele>993.1</ele>
        <time>2026-05-14T13:41:34.000Z</time>
      </trkpt>
      <trkpt lat="44.18811" lon="5.29957">
        <ele>993.1</ele>
        <time>2026-05-14T13:41:35.000Z</time>
      </trkpt>
      <trkpt lat="44.18811" lon="5.29958">
        <ele>992.9</ele>
        <time>2026-05-14T13:41:36.000Z</time>
      </trkpt>
      <trkpt lat="44.18811" lon="5.29959">
        <ele>992.1</ele>
        <time>2026-05-14T13:41:37.000Z</time>
      </trkpt>
      <trkpt lat="44.1881" lon="5.2996">
        <ele>991.9</ele>
        <time>2026-05-14T13:41:38.000Z</time>
      </trkpt>
      <trkpt lat="44.1881" lon="5.29961">
        <ele>991.4</ele>
        <time>2026-05-14T13:41:39.000Z</time>
      </trkpt>
      <trkpt lat="44.18809" lon="5.29961">
        <ele>991.4</ele>
        <time>2026-05-14T13:41:40.000Z</time>
      </trkpt>
      <trkpt lat="44.18809" lon="5.29961">
        <ele>991.4</ele>
        <time>2026-05-14T13:41:41.000Z</time>
      </trkpt>
      <trkpt lat="44.18809" lon="5.29961">
        <ele>991.6</ele>
        <time>2026-05-14T13:41:42.000Z</time>
      </trkpt>
      <trkpt lat="44.18807" lon="5.29962">
        <ele>991.8</ele>
        <time>2026-05-14T13:41:43.000Z</time>
      </trkpt>
      <trkpt lat="44.18806" lon="5.29964">
        <ele>991.6</ele>
        <time>2026-05-14T13:41:44.000Z</time>
      </trkpt>
      <trkpt lat="44.18804" lon="5.29965">
        <ele>991.4</ele>
        <time>2026-05-14T13:41:45.000Z</time>
      </trkpt>
      <trkpt lat="44.18803" lon="5.29966">
        <ele>991.2</ele>
        <time>2026-05-14T13:41:46.000Z</time>
      </trkpt>
      <trkpt lat="44.18803" lon="5.29966">
        <ele>991.2</ele>
        <time>2026-05-14T13:41:47.000Z</time>
      </trkpt>
      <trkpt lat="44.18802" lon="5.29968">
        <ele>990.9</ele>
        <time>2026-05-14T13:41:48.000Z</time>
      </trkpt>
      <trkpt lat="44.18801" lon="5.29971">
        <ele>991.2</ele>
        <time>2026-05-14T13:41:49.000Z</time>
      </trkpt>
      <trkpt lat="44.188" lon="5.29974">
        <ele>991.6</ele>
        <time>2026-05-14T13:41:50.000Z</time>
      </trkpt>
      <trkpt lat="44.18799" lon="5.29976">
        <ele>992</ele>
        <time>2026-05-14T13:41:51.000Z</time>
      </trkpt>
      <trkpt lat="44.18799" lon="5.29979">
        <ele>992.3</ele>
        <time>2026-05-14T13:41:52.000Z</time>
      </trkpt>
      <trkpt lat="44.18798" lon="5.29981">
        <ele>992.9</ele>
        <time>2026-05-14T13:41:53.000Z</time>
      </trkpt>
      <trkpt lat="44.18797" lon="5.29982">
        <ele>993</ele>
        <time>2026-05-14T13:41:54.000Z</time>
      </trkpt>
      <trkpt lat="44.18796" lon="5.29983">
        <ele>993</ele>
        <time>2026-05-14T13:41:55.000Z</time>
      </trkpt>
      <trkpt lat="44.18796" lon="5.29983">
        <ele>992.3</ele>
        <time>2026-05-14T13:41:56.000Z</time>
      </trkpt>
      <trkpt lat="44.18794" lon="5.29983">
        <ele>992.2</ele>
        <time>2026-05-14T13:41:57.000Z</time>
      </trkpt>
      <trkpt lat="44.18792" lon="5.29984">
        <ele>992.1</ele>
        <time>2026-05-14T13:41:58.000Z</time>
      </trkpt>
      <trkpt lat="44.18791" lon="5.29986">
        <ele>992.5</ele>
        <time>2026-05-14T13:41:59.000Z</time>
      </trkpt>
      <trkpt lat="44.18789" lon="5.29987">
        <ele>992.6</ele>
        <time>2026-05-14T13:42:00.000Z</time>
      </trkpt>
      <trkpt lat="44.18787" lon="5.29989">
        <ele>992.9</ele>
        <time>2026-05-14T13:42:01.000Z</time>
      </trkpt>
      <trkpt lat="44.18786" lon="5.29989">
        <ele>992.9</ele>
        <time>2026-05-14T13:42:02.000Z</time>
      </trkpt>
      <trkpt lat="44.18785" lon="5.2999">
        <ele>992.4</ele>
        <time>2026-05-14T13:42:03.000Z</time>
      </trkpt>
      <trkpt lat="44.18784" lon="5.2999">
        <ele>991.7</ele>
        <time>2026-05-14T13:42:04.000Z</time>
      </trkpt>
      <trkpt lat="44.18783" lon="5.29991">
        <ele>991.6</ele>
        <time>2026-05-14T13:42:05.000Z</time>
      </trkpt>
      <trkpt lat="44.18782" lon="5.29992">
        <ele>990.8</ele>
        <time>2026-05-14T13:42:06.000Z</time>
      </trkpt>
      <trkpt lat="44.18781" lon="5.29993">
        <ele>991</ele>
        <time>2026-05-14T13:42:07.000Z</time>
      </trkpt>
      <trkpt lat="44.1878" lon="5.29994">
        <ele>991.1</ele>
        <time>2026-05-14T13:42:08.000Z</time>
      </trkpt>
      <trkpt lat="44.18779" lon="5.29994">
        <ele>991</ele>
        <time>2026-05-14T13:42:09.000Z</time>
      </trkpt>
      <trkpt lat="44.18778" lon="5.29995">
        <ele>990.9</ele>
        <time>2026-05-14T13:42:10.000Z</time>
      </trkpt>
      <trkpt lat="44.18776" lon="5.29996">
        <ele>990.9</ele>
        <time>2026-05-14T13:42:11.000Z</time>
      </trkpt>
      <trkpt lat="44.18776" lon="5.29997">
        <ele>990.8</ele>
        <time>2026-05-14T13:42:12.000Z</time>
      </trkpt>
      <trkpt lat="44.18775" lon="5.29998">
        <ele>990.9</ele>
        <time>2026-05-14T13:42:13.000Z</time>
      </trkpt>
      <trkpt lat="44.18775" lon="5.29999">
        <ele>990.6</ele>
        <time>2026-05-14T13:42:14.000Z</time>
      </trkpt>
      <trkpt lat="44.18775" lon="5.3">
        <ele>990.2</ele>
        <time>2026-05-14T13:42:15.000Z</time>
      </trkpt>
      <trkpt lat="44.18774" lon="5.3">
        <ele>990.3</ele>
        <time>2026-05-14T13:42:16.000Z</time>
      </trkpt>
      <trkpt lat="44.18773" lon="5.3">
        <ele>990.6</ele>
        <time>2026-05-14T13:42:17.000Z</time>
      </trkpt>
      <trkpt lat="44.18772" lon="5.30001">
        <ele>990.7</ele>
        <time>2026-05-14T13:42:18.000Z</time>
      </trkpt>
      <trkpt lat="44.18771" lon="5.30003">
        <ele>990.8</ele>
        <time>2026-05-14T13:42:19.000Z</time>
      </trkpt>
      <trkpt lat="44.1877" lon="5.30004">
        <ele>990.7</ele>
        <time>2026-05-14T13:42:20.000Z</time>
      </trkpt>
      <trkpt lat="44.18769" lon="5.30005">
        <ele>990.5</ele>
        <time>2026-05-14T13:42:21.000Z</time>
      </trkpt>
      <trkpt lat="44.18768" lon="5.30007">
        <ele>990.2</ele>
        <time>2026-05-14T13:42:22.000Z</time>
      </trkpt>
      <trkpt lat="44.18767" lon="5.30008">
        <ele>989.8</ele>
        <time>2026-05-14T13:42:23.000Z</time>
      </trkpt>
      <trkpt lat="44.18766" lon="5.3001">
        <ele>990</ele>
        <time>2026-05-14T13:42:24.000Z</time>
      </trkpt>
      <trkpt lat="44.18765" lon="5.30012">
        <ele>989.4</ele>
        <time>2026-05-14T13:42:25.000Z</time>
      </trkpt>
      <trkpt lat="44.18763" lon="5.30012">
        <ele>989.6</ele>
        <time>2026-05-14T13:42:26.000Z</time>
      </trkpt>
      <trkpt lat="44.18762" lon="5.30013">
        <ele>989.3</ele>
        <time>2026-05-14T13:42:27.000Z</time>
      </trkpt>
      <trkpt lat="44.18762" lon="5.30014">
        <ele>989.1</ele>
        <time>2026-05-14T13:42:28.000Z</time>
      </trkpt>
      <trkpt lat="44.18761" lon="5.30016">
        <ele>989.2</ele>
        <time>2026-05-14T13:42:29.000Z</time>
      </trkpt>
      <trkpt lat="44.1876" lon="5.30018">
        <ele>988.9</ele>
        <time>2026-05-14T13:42:30.000Z</time>
      </trkpt>
      <trkpt lat="44.18759" lon="5.30018">
        <ele>988.9</ele>
        <time>2026-05-14T13:42:31.000Z</time>
      </trkpt>
      <trkpt lat="44.18756" lon="5.3002">
        <ele>989.1</ele>
        <time>2026-05-14T13:42:33.000Z</time>
      </trkpt>
      <trkpt lat="44.18755" lon="5.3002">
        <ele>989</ele>
        <time>2026-05-14T13:42:34.000Z</time>
      </trkpt>
      <trkpt lat="44.18754" lon="5.30021">
        <ele>989.1</ele>
        <time>2026-05-14T13:42:35.000Z</time>
      </trkpt>
      <trkpt lat="44.18753" lon="5.30022">
        <ele>989</ele>
        <time>2026-05-14T13:42:36.000Z</time>
      </trkpt>
      <trkpt lat="44.18753" lon="5.30023">
        <ele>989</ele>
        <time>2026-05-14T13:42:37.000Z</time>
      </trkpt>
      <trkpt lat="44.18752" lon="5.30024">
        <ele>989.6</ele>
        <time>2026-05-14T13:42:38.000Z</time>
      </trkpt>
      <trkpt lat="44.18752" lon="5.30025">
        <ele>989.5</ele>
        <time>2026-05-14T13:42:39.000Z</time>
      </trkpt>
      <trkpt lat="44.18752" lon="5.30026">
        <ele>989.9</ele>
        <time>2026-05-14T13:42:40.000Z</time>
      </trkpt>
      <trkpt lat="44.18752" lon="5.30027">
        <ele>989.2</ele>
        <time>2026-05-14T13:42:41.000Z</time>
      </trkpt>
      <trkpt lat="44.18752" lon="5.30029">
        <ele>989.2</ele>
        <time>2026-05-14T13:42:42.000Z</time>
      </trkpt>
      <trkpt lat="44.18752" lon="5.30031">
        <ele>989.2</ele>
        <time>2026-05-14T13:42:43.000Z</time>
      </trkpt>
      <trkpt lat="44.18752" lon="5.30033">
        <ele>989</ele>
        <time>2026-05-14T13:42:44.000Z</time>
      </trkpt>
      <trkpt lat="44.18752" lon="5.30035">
        <ele>988.8</ele>
        <time>2026-05-14T13:42:45.000Z</time>
      </trkpt>
      <trkpt lat="44.18751" lon="5.30037">
        <ele>988.5</ele>
        <time>2026-05-14T13:42:46.000Z</time>
      </trkpt>
      <trkpt lat="44.1875" lon="5.30039">
        <ele>988.7</ele>
        <time>2026-05-14T13:42:47.000Z</time>
      </trkpt>
      <trkpt lat="44.18749" lon="5.30042">
        <ele>988.2</ele>
        <time>2026-05-14T13:42:48.000Z</time>
      </trkpt>
      <trkpt lat="44.18748" lon="5.30045">
        <ele>987.6</ele>
        <time>2026-05-14T13:42:49.000Z</time>
      </trkpt>
      <trkpt lat="44.18747" lon="5.30047">
        <ele>987.2</ele>
        <time>2026-05-14T13:42:50.000Z</time>
      </trkpt>
      <trkpt lat="44.18747" lon="5.30049">
        <ele>986.8</ele>
        <time>2026-05-14T13:42:51.000Z</time>
      </trkpt>
      <trkpt lat="44.18746" lon="5.3005">
        <ele>987.6</ele>
        <time>2026-05-14T13:42:52.000Z</time>
      </trkpt>
      <trkpt lat="44.18746" lon="5.3005">
        <ele>987.9</ele>
        <time>2026-05-14T13:42:53.000Z</time>
      </trkpt>
      <trkpt lat="44.18745" lon="5.3005">
        <ele>987.6</ele>
        <time>2026-05-14T13:42:54.000Z</time>
      </trkpt>
      <trkpt lat="44.18745" lon="5.30051">
        <ele>987.3</ele>
        <time>2026-05-14T13:42:55.000Z</time>
      </trkpt>
      <trkpt lat="44.18746" lon="5.30052">
        <ele>986.7</ele>
        <time>2026-05-14T13:42:56.000Z</time>
      </trkpt>
      <trkpt lat="44.18746" lon="5.30054">
        <ele>986.4</ele>
        <time>2026-05-14T13:42:57.000Z</time>
      </trkpt>
      <trkpt lat="44.18746" lon="5.30054">
        <ele>985.3</ele>
        <time>2026-05-14T13:42:58.000Z</time>
      </trkpt>
      <trkpt lat="44.18745" lon="5.30056">
        <ele>984.5</ele>
        <time>2026-05-14T13:42:59.000Z</time>
      </trkpt>
      <trkpt lat="44.18745" lon="5.30058">
        <ele>983.9</ele>
        <time>2026-05-14T13:43:00.000Z</time>
      </trkpt>
      <trkpt lat="44.18745" lon="5.3006">
        <ele>983.4</ele>
        <time>2026-05-14T13:43:01.000Z</time>
      </trkpt>
      <trkpt lat="44.18744" lon="5.30061">
        <ele>982.6</ele>
        <time>2026-05-14T13:43:02.000Z</time>
      </trkpt>
      <trkpt lat="44.18744" lon="5.30062">
        <ele>982.3</ele>
        <time>2026-05-14T13:43:03.000Z</time>
      </trkpt>
      <trkpt lat="44.18743" lon="5.30064">
        <ele>982.4</ele>
        <time>2026-05-14T13:43:04.000Z</time>
      </trkpt>
      <trkpt lat="44.18742" lon="5.30066">
        <ele>982.4</ele>
        <time>2026-05-14T13:43:05.000Z</time>
      </trkpt>
      <trkpt lat="44.18741" lon="5.30067">
        <ele>982.1</ele>
        <time>2026-05-14T13:43:06.000Z</time>
      </trkpt>
      <trkpt lat="44.18741" lon="5.30068">
        <ele>982.1</ele>
        <time>2026-05-14T13:43:07.000Z</time>
      </trkpt>
      <trkpt lat="44.1874" lon="5.3007">
        <ele>982.5</ele>
        <time>2026-05-14T13:43:08.000Z</time>
      </trkpt>
      <trkpt lat="44.1874" lon="5.30071">
        <ele>982.3</ele>
        <time>2026-05-14T13:43:09.000Z</time>
      </trkpt>
      <trkpt lat="44.1874" lon="5.30072">
        <ele>982.3</ele>
        <time>2026-05-14T13:43:10.000Z</time>
      </trkpt>
      <trkpt lat="44.18739" lon="5.30073">
        <ele>981.8</ele>
        <time>2026-05-14T13:43:11.000Z</time>
      </trkpt>
      <trkpt lat="44.18738" lon="5.30075">
        <ele>981.2</ele>
        <time>2026-05-14T13:43:12.000Z</time>
      </trkpt>
      <trkpt lat="44.18737" lon="5.30076">
        <ele>980.3</ele>
        <time>2026-05-14T13:43:13.000Z</time>
      </trkpt>
      <trkpt lat="44.18737" lon="5.30077">
        <ele>979.9</ele>
        <time>2026-05-14T13:43:14.000Z</time>
      </trkpt>
      <trkpt lat="44.18736" lon="5.30077">
        <ele>979.7</ele>
        <time>2026-05-14T13:43:15.000Z</time>
      </trkpt>
      <trkpt lat="44.18736" lon="5.30077">
        <ele>979.6</ele>
        <time>2026-05-14T13:43:16.000Z</time>
      </trkpt>
      <trkpt lat="44.18735" lon="5.30078">
        <ele>979.8</ele>
        <time>2026-05-14T13:43:17.000Z</time>
      </trkpt>
      <trkpt lat="44.18735" lon="5.30079">
        <ele>979.7</ele>
        <time>2026-05-14T13:43:18.000Z</time>
      </trkpt>
      <trkpt lat="44.18734" lon="5.30079">
        <ele>979.5</ele>
        <time>2026-05-14T13:43:19.000Z</time>
      </trkpt>
      <trkpt lat="44.18734" lon="5.30082">
        <ele>979.4</ele>
        <time>2026-05-14T13:43:20.000Z</time>
      </trkpt>
      <trkpt lat="44.18733" lon="5.30083">
        <ele>979.2</ele>
        <time>2026-05-14T13:43:21.000Z</time>
      </trkpt>
      <trkpt lat="44.18732" lon="5.30085">
        <ele>978.8</ele>
        <time>2026-05-14T13:43:22.000Z</time>
      </trkpt>
      <trkpt lat="44.18732" lon="5.30086">
        <ele>978.5</ele>
        <time>2026-05-14T13:43:23.000Z</time>
      </trkpt>
      <trkpt lat="44.18731" lon="5.30087">
        <ele>977.9</ele>
        <time>2026-05-14T13:43:24.000Z</time>
      </trkpt>
      <trkpt lat="44.18731" lon="5.30089">
        <ele>977.3</ele>
        <time>2026-05-14T13:43:25.000Z</time>
      </trkpt>
      <trkpt lat="44.18732" lon="5.30091">
        <ele>977.2</ele>
        <time>2026-05-14T13:43:26.000Z</time>
      </trkpt>
      <trkpt lat="44.18731" lon="5.30093">
        <ele>977.2</ele>
        <time>2026-05-14T13:43:27.000Z</time>
      </trkpt>
      <trkpt lat="44.18731" lon="5.30095">
        <ele>977</ele>
        <time>2026-05-14T13:43:28.000Z</time>
      </trkpt>
      <trkpt lat="44.18731" lon="5.30098">
        <ele>977.1</ele>
        <time>2026-05-14T13:43:29.000Z</time>
      </trkpt>
      <trkpt lat="44.1873" lon="5.301">
        <ele>976.8</ele>
        <time>2026-05-14T13:43:30.000Z</time>
      </trkpt>
      <trkpt lat="44.1873" lon="5.30103">
        <ele>976.7</ele>
        <time>2026-05-14T13:43:31.000Z</time>
      </trkpt>
      <trkpt lat="44.1873" lon="5.30105">
        <ele>976.7</ele>
        <time>2026-05-14T13:43:32.000Z</time>
      </trkpt>
      <trkpt lat="44.1873" lon="5.30107">
        <ele>976.7</ele>
        <time>2026-05-14T13:43:33.000Z</time>
      </trkpt>
      <trkpt lat="44.1873" lon="5.30109">
        <ele>976.5</ele>
        <time>2026-05-14T13:43:34.000Z</time>
      </trkpt>
      <trkpt lat="44.1873" lon="5.3011">
        <ele>976.7</ele>
        <time>2026-05-14T13:43:35.000Z</time>
      </trkpt>
      <trkpt lat="44.1873" lon="5.30111">
        <ele>976.7</ele>
        <time>2026-05-14T13:43:36.000Z</time>
      </trkpt>
      <trkpt lat="44.1873" lon="5.30112">
        <ele>976.4</ele>
        <time>2026-05-14T13:43:37.000Z</time>
      </trkpt>
      <trkpt lat="44.18731" lon="5.30113">
        <ele>975.9</ele>
        <time>2026-05-14T13:43:38.000Z</time>
      </trkpt>
      <trkpt lat="44.18731" lon="5.30115">
        <ele>975.8</ele>
        <time>2026-05-14T13:43:39.000Z</time>
      </trkpt>
      <trkpt lat="44.18731" lon="5.30118">
        <ele>975.9</ele>
        <time>2026-05-14T13:43:40.000Z</time>
      </trkpt>
      <trkpt lat="44.18731" lon="5.30121">
        <ele>976</ele>
        <time>2026-05-14T13:43:41.000Z</time>
      </trkpt>
      <trkpt lat="44.18731" lon="5.30123">
        <ele>975.9</ele>
        <time>2026-05-14T13:43:42.000Z</time>
      </trkpt>
      <trkpt lat="44.18732" lon="5.30123">
        <ele>975.5</ele>
        <time>2026-05-14T13:43:43.000Z</time>
      </trkpt>
      <trkpt lat="44.18733" lon="5.30124">
        <ele>975.5</ele>
        <time>2026-05-14T13:43:44.000Z</time>
      </trkpt>
      <trkpt lat="44.18733" lon="5.30125">
        <ele>975.4</ele>
        <time>2026-05-14T13:43:45.000Z</time>
      </trkpt>
      <trkpt lat="44.18733" lon="5.30126">
        <ele>974.5</ele>
        <time>2026-05-14T13:43:46.000Z</time>
      </trkpt>
      <trkpt lat="44.18733" lon="5.30128">
        <ele>973.6</ele>
        <time>2026-05-14T13:43:47.000Z</time>
      </trkpt>
      <trkpt lat="44.18733" lon="5.3013">
        <ele>973.5</ele>
        <time>2026-05-14T13:43:48.000Z</time>
      </trkpt>
      <trkpt lat="44.18732" lon="5.30132">
        <ele>974</ele>
        <time>2026-05-14T13:43:49.000Z</time>
      </trkpt>
      <trkpt lat="44.18732" lon="5.30135">
        <ele>974.2</ele>
        <time>2026-05-14T13:43:50.000Z</time>
      </trkpt>
      <trkpt lat="44.18733" lon="5.30136">
        <ele>973.7</ele>
        <time>2026-05-14T13:43:51.000Z</time>
      </trkpt>
      <trkpt lat="44.18733" lon="5.30137">
        <ele>973.2</ele>
        <time>2026-05-14T13:43:52.000Z</time>
      </trkpt>
      <trkpt lat="44.18732" lon="5.30138">
        <ele>973</ele>
        <time>2026-05-14T13:43:53.000Z</time>
      </trkpt>
      <trkpt lat="44.18731" lon="5.30138">
        <ele>972.7</ele>
        <time>2026-05-14T13:43:54.000Z</time>
      </trkpt>
      <trkpt lat="44.18731" lon="5.3014">
        <ele>971.9</ele>
        <time>2026-05-14T13:43:55.000Z</time>
      </trkpt>
      <trkpt lat="44.18731" lon="5.30142">
        <ele>971.4</ele>
        <time>2026-05-14T13:43:56.000Z</time>
      </trkpt>
      <trkpt lat="44.1873" lon="5.30143">
        <ele>971.3</ele>
        <time>2026-05-14T13:43:57.000Z</time>
      </trkpt>
      <trkpt lat="44.1873" lon="5.30146">
        <ele>970.9</ele>
        <time>2026-05-14T13:43:58.000Z</time>
      </trkpt>
      <trkpt lat="44.1873" lon="5.30148">
        <ele>970.8</ele>
        <time>2026-05-14T13:43:59.000Z</time>
      </trkpt>
      <trkpt lat="44.1873" lon="5.30149">
        <ele>970.7</ele>
        <time>2026-05-14T13:44:00.000Z</time>
      </trkpt>
      <trkpt lat="44.1873" lon="5.3015">
        <ele>970.4</ele>
        <time>2026-05-14T13:44:01.000Z</time>
      </trkpt>
      <trkpt lat="44.1873" lon="5.30152">
        <ele>970.1</ele>
        <time>2026-05-14T13:44:02.000Z</time>
      </trkpt>
      <trkpt lat="44.18731" lon="5.30153">
        <ele>970.4</ele>
        <time>2026-05-14T13:44:03.000Z</time>
      </trkpt>
      <trkpt lat="44.18731" lon="5.30154">
        <ele>970.5</ele>
        <time>2026-05-14T13:44:04.000Z</time>
      </trkpt>
      <trkpt lat="44.18731" lon="5.30155">
        <ele>970.7</ele>
        <time>2026-05-14T13:44:05.000Z</time>
      </trkpt>
      <trkpt lat="44.18731" lon="5.30157">
        <ele>970.6</ele>
        <time>2026-05-14T13:44:06.000Z</time>
      </trkpt>
      <trkpt lat="44.18731" lon="5.30158">
        <ele>970.7</ele>
        <time>2026-05-14T13:44:07.000Z</time>
      </trkpt>
      <trkpt lat="44.18731" lon="5.30158">
        <ele>970.9</ele>
        <time>2026-05-14T13:44:08.000Z</time>
      </trkpt>
      <trkpt lat="44.18731" lon="5.3016">
        <ele>971</ele>
        <time>2026-05-14T13:44:09.000Z</time>
      </trkpt>
      <trkpt lat="44.18731" lon="5.30161">
        <ele>971</ele>
        <time>2026-05-14T13:44:10.000Z</time>
      </trkpt>
      <trkpt lat="44.18731" lon="5.30163">
        <ele>970.8</ele>
        <time>2026-05-14T13:44:11.000Z</time>
      </trkpt>
      <trkpt lat="44.18731" lon="5.30165">
        <ele>970.2</ele>
        <time>2026-05-14T13:44:12.000Z</time>
      </trkpt>
      <trkpt lat="44.18731" lon="5.30167">
        <ele>969.9</ele>
        <time>2026-05-14T13:44:13.000Z</time>
      </trkpt>
      <trkpt lat="44.18731" lon="5.30169">
        <ele>969.8</ele>
        <time>2026-05-14T13:44:14.000Z</time>
      </trkpt>
      <trkpt lat="44.18731" lon="5.30169">
        <ele>969.9</ele>
        <time>2026-05-14T13:44:15.000Z</time>
      </trkpt>
      <trkpt lat="44.18731" lon="5.3017">
        <ele>969.7</ele>
        <time>2026-05-14T13:44:16.000Z</time>
      </trkpt>
      <trkpt lat="44.18731" lon="5.30171">
        <ele>969.6</ele>
        <time>2026-05-14T13:44:17.000Z</time>
      </trkpt>
      <trkpt lat="44.18731" lon="5.30173">
        <ele>969.7</ele>
        <time>2026-05-14T13:44:18.000Z</time>
      </trkpt>
      <trkpt lat="44.18731" lon="5.30174">
        <ele>969.6</ele>
        <time>2026-05-14T13:44:19.000Z</time>
      </trkpt>
      <trkpt lat="44.18731" lon="5.30176">
        <ele>968.8</ele>
        <time>2026-05-14T13:44:20.000Z</time>
      </trkpt>
      <trkpt lat="44.18731" lon="5.30177">
        <ele>968</ele>
        <time>2026-05-14T13:44:21.000Z</time>
      </trkpt>
      <trkpt lat="44.18731" lon="5.30178">
        <ele>968</ele>
        <time>2026-05-14T13:44:22.000Z</time>
      </trkpt>
      <trkpt lat="44.18731" lon="5.3018">
        <ele>968.3</ele>
        <time>2026-05-14T13:44:23.000Z</time>
      </trkpt>
      <trkpt lat="44.18731" lon="5.30181">
        <ele>968.2</ele>
        <time>2026-05-14T13:44:24.000Z</time>
      </trkpt>
      <trkpt lat="44.18731" lon="5.30183">
        <ele>968.2</ele>
        <time>2026-05-14T13:44:25.000Z</time>
      </trkpt>
      <trkpt lat="44.18731" lon="5.30184">
        <ele>968.1</ele>
        <time>2026-05-14T13:44:26.000Z</time>
      </trkpt>
      <trkpt lat="44.18731" lon="5.30186">
        <ele>968.2</ele>
        <time>2026-05-14T13:44:27.000Z</time>
      </trkpt>
      <trkpt lat="44.18731" lon="5.30187">
        <ele>967.9</ele>
        <time>2026-05-14T13:44:28.000Z</time>
      </trkpt>
      <trkpt lat="44.18731" lon="5.30188">
        <ele>967.3</ele>
        <time>2026-05-14T13:44:29.000Z</time>
      </trkpt>
      <trkpt lat="44.18731" lon="5.3019">
        <ele>967.3</ele>
        <time>2026-05-14T13:44:30.000Z</time>
      </trkpt>
      <trkpt lat="44.18731" lon="5.30192">
        <ele>966.8</ele>
        <time>2026-05-14T13:44:31.000Z</time>
      </trkpt>
      <trkpt lat="44.18731" lon="5.30195">
        <ele>966.9</ele>
        <time>2026-05-14T13:44:32.000Z</time>
      </trkpt>
      <trkpt lat="44.18732" lon="5.30196">
        <ele>966.7</ele>
        <time>2026-05-14T13:44:33.000Z</time>
      </trkpt>
      <trkpt lat="44.18732" lon="5.30197">
        <ele>966.9</ele>
        <time>2026-05-14T13:44:34.000Z</time>
      </trkpt>
      <trkpt lat="44.18732" lon="5.30197">
        <ele>966.5</ele>
        <time>2026-05-14T13:44:35.000Z</time>
      </trkpt>
      <trkpt lat="44.18732" lon="5.30196">
        <ele>966.4</ele>
        <time>2026-05-14T13:44:36.000Z</time>
      </trkpt>
      <trkpt lat="44.18732" lon="5.30196">
        <ele>966.8</ele>
        <time>2026-05-14T13:44:37.000Z</time>
      </trkpt>
      <trkpt lat="44.18732" lon="5.30196">
        <ele>966.9</ele>
        <time>2026-05-14T13:44:38.000Z</time>
      </trkpt>
      <trkpt lat="44.18733" lon="5.30196">
        <ele>967</ele>
        <time>2026-05-14T13:44:39.000Z</time>
      </trkpt>
      <trkpt lat="44.18733" lon="5.30196">
        <ele>967.6</ele>
        <time>2026-05-14T13:44:40.000Z</time>
      </trkpt>
      <trkpt lat="44.18733" lon="5.30196">
        <ele>967.7</ele>
        <time>2026-05-14T13:44:41.000Z</time>
      </trkpt>
      <trkpt lat="44.18733" lon="5.30196">
        <ele>968</ele>
        <time>2026-05-14T13:44:42.000Z</time>
      </trkpt>
      <trkpt lat="44.18733" lon="5.30196">
        <ele>968.2</ele>
        <time>2026-05-14T13:44:43.000Z</time>
      </trkpt>
      <trkpt lat="44.18733" lon="5.30196">
        <ele>968.4</ele>
        <time>2026-05-14T13:44:44.000Z</time>
      </trkpt>
      <trkpt lat="44.18733" lon="5.30196">
        <ele>968.2</ele>
        <time>2026-05-14T13:44:45.000Z</time>
      </trkpt>
      <trkpt lat="44.18733" lon="5.30196">
        <ele>968.1</ele>
        <time>2026-05-14T13:44:46.000Z</time>
      </trkpt>
      <trkpt lat="44.18733" lon="5.30196">
        <ele>967.9</ele>
        <time>2026-05-14T13:44:47.000Z</time>
      </trkpt>
      <trkpt lat="44.18733" lon="5.30196">
        <ele>967.7</ele>
        <time>2026-05-14T13:44:48.000Z</time>
      </trkpt>
      <trkpt lat="44.18733" lon="5.30196">
        <ele>967.2</ele>
        <time>2026-05-14T13:44:49.000Z</time>
      </trkpt>
      <trkpt lat="44.18733" lon="5.30196">
        <ele>966.8</ele>
        <time>2026-05-14T13:44:50.000Z</time>
      </trkpt>
      <trkpt lat="44.18733" lon="5.30196">
        <ele>966.1</ele>
        <time>2026-05-14T13:44:51.000Z</time>
      </trkpt>
      <trkpt lat="44.18733" lon="5.30196">
        <ele>965.8</ele>
        <time>2026-05-14T13:44:52.000Z</time>
      </trkpt>
      <trkpt lat="44.18733" lon="5.30196">
        <ele>965.3</ele>
        <time>2026-05-14T13:44:53.000Z</time>
      </trkpt>
      <trkpt lat="44.18733" lon="5.30196">
        <ele>964.9</ele>
        <time>2026-05-14T13:44:54.000Z</time>
      </trkpt>
      <trkpt lat="44.18733" lon="5.30196">
        <ele>964.2</ele>
        <time>2026-05-14T13:44:55.000Z</time>
      </trkpt>
      <trkpt lat="44.18733" lon="5.30196">
        <ele>963.9</ele>
        <time>2026-05-14T13:44:56.000Z</time>
      </trkpt>
      <trkpt lat="44.18733" lon="5.30196">
        <ele>963.5</ele>
        <time>2026-05-14T13:44:57.000Z</time>
      </trkpt>
      <trkpt lat="44.18733" lon="5.30197">
        <ele>963.2</ele>
        <time>2026-05-14T13:44:58.000Z</time>
      </trkpt>
      <trkpt lat="44.18733" lon="5.30196">
        <ele>962.9</ele>
        <time>2026-05-14T13:44:59.000Z</time>
      </trkpt>
      <trkpt lat="44.18733" lon="5.30196">
        <ele>962.7</ele>
        <time>2026-05-14T13:45:00.000Z</time>
      </trkpt>
      <trkpt lat="44.18733" lon="5.30196">
        <ele>962.7</ele>
        <time>2026-05-14T13:45:01.000Z</time>
      </trkpt>
      <trkpt lat="44.18733" lon="5.30196">
        <ele>962.7</ele>
        <time>2026-05-14T13:45:02.000Z</time>
      </trkpt>
      <trkpt lat="44.18733" lon="5.30196">
        <ele>962.9</ele>
        <time>2026-05-14T13:45:03.000Z</time>
      </trkpt>
      <trkpt lat="44.18733" lon="5.30196">
        <ele>962.9</ele>
        <time>2026-05-14T13:45:04.000Z</time>
      </trkpt>
      <trkpt lat="44.18733" lon="5.30196">
        <ele>962.9</ele>
        <time>2026-05-14T13:45:05.000Z</time>
      </trkpt>
      <trkpt lat="44.18733" lon="5.30196">
        <ele>963</ele>
        <time>2026-05-14T13:45:06.000Z</time>
      </trkpt>
      <trkpt lat="44.18733" lon="5.30196">
        <ele>963.1</ele>
        <time>2026-05-14T13:45:07.000Z</time>
      </trkpt>
      <trkpt lat="44.18733" lon="5.30196">
        <ele>963.2</ele>
        <time>2026-05-14T13:45:08.000Z</time>
      </trkpt>
      <trkpt lat="44.18733" lon="5.30196">
        <ele>963.4</ele>
        <time>2026-05-14T13:45:09.000Z</time>
      </trkpt>
      <trkpt lat="44.18733" lon="5.30196">
        <ele>963.3</ele>
        <time>2026-05-14T13:45:10.000Z</time>
      </trkpt>
      <trkpt lat="44.18733" lon="5.30196">
        <ele>963.2</ele>
        <time>2026-05-14T13:45:11.000Z</time>
      </trkpt>
      <trkpt lat="44.18733" lon="5.30196">
        <ele>963.1</ele>
        <time>2026-05-14T13:45:12.000Z</time>
      </trkpt>
      <trkpt lat="44.18733" lon="5.30196">
        <ele>963.2</ele>
        <time>2026-05-14T13:45:13.000Z</time>
      </trkpt>
      <trkpt lat="44.18733" lon="5.30196">
        <ele>963.2</ele>
        <time>2026-05-14T13:45:14.000Z</time>
      </trkpt>
      <trkpt lat="44.18733" lon="5.30196">
        <ele>963.3</ele>
        <time>2026-05-14T13:45:15.000Z</time>
      </trkpt>
      <trkpt lat="44.18733" lon="5.30196">
        <ele>963.6</ele>
        <time>2026-05-14T13:45:16.000Z</time>
      </trkpt>
      <trkpt lat="44.18733" lon="5.30196">
        <ele>964.2</ele>
        <time>2026-05-14T13:45:17.000Z</time>
      </trkpt>
      <trkpt lat="44.18733" lon="5.30196">
        <ele>964.7</ele>
        <time>2026-05-14T13:45:18.000Z</time>
      </trkpt>
      <trkpt lat="44.18733" lon="5.30196">
        <ele>965.2</ele>
        <time>2026-05-14T13:45:19.000Z</time>
      </trkpt>
      <trkpt lat="44.18733" lon="5.30196">
        <ele>965.4</ele>
        <time>2026-05-14T13:45:20.000Z</time>
      </trkpt>
      <trkpt lat="44.18733" lon="5.30196">
        <ele>965.9</ele>
        <time>2026-05-14T13:45:21.000Z</time>
      </trkpt>
      <trkpt lat="44.18733" lon="5.30196">
        <ele>966.1</ele>
        <time>2026-05-14T13:45:22.000Z</time>
      </trkpt>
      <trkpt lat="44.18733" lon="5.30196">
        <ele>966.3</ele>
        <time>2026-05-14T13:45:23.000Z</time>
      </trkpt>
      <trkpt lat="44.18733" lon="5.30196">
        <ele>966.3</ele>
        <time>2026-05-14T13:45:24.000Z</time>
      </trkpt>
      <trkpt lat="44.18733" lon="5.30196">
        <ele>966.3</ele>
        <time>2026-05-14T13:45:25.000Z</time>
      </trkpt>
      <trkpt lat="44.18733" lon="5.30196">
        <ele>966.3</ele>
        <time>2026-05-14T13:45:26.000Z</time>
      </trkpt>
      <trkpt lat="44.18733" lon="5.30196">
        <ele>966.3</ele>
        <time>2026-05-14T13:45:27.000Z</time>
      </trkpt>
      <trkpt lat="44.18733" lon="5.30195">
        <ele>965.9</ele>
        <time>2026-05-14T13:45:28.000Z</time>
      </trkpt>
      <trkpt lat="44.18733" lon="5.30195">
        <ele>965.7</ele>
        <time>2026-05-14T13:45:29.000Z</time>
      </trkpt>
      <trkpt lat="44.18733" lon="5.30195">
        <ele>965.6</ele>
        <time>2026-05-14T13:45:30.000Z</time>
      </trkpt>
      <trkpt lat="44.18733" lon="5.30195">
        <ele>965.6</ele>
        <time>2026-05-14T13:45:31.000Z</time>
      </trkpt>
      <trkpt lat="44.18733" lon="5.30195">
        <ele>965.7</ele>
        <time>2026-05-14T13:45:32.000Z</time>
      </trkpt>
      <trkpt lat="44.18733" lon="5.30195">
        <ele>965.7</ele>
        <time>2026-05-14T13:45:33.000Z</time>
      </trkpt>
      <trkpt lat="44.18733" lon="5.30195">
        <ele>965.8</ele>
        <time>2026-05-14T13:45:34.000Z</time>
      </trkpt>
      <trkpt lat="44.18733" lon="5.30195">
        <ele>965.6</ele>
        <time>2026-05-14T13:45:35.000Z</time>
      </trkpt>
      <trkpt lat="44.18733" lon="5.30195">
        <ele>965.8</ele>
        <time>2026-05-14T13:45:36.000Z</time>
      </trkpt>
      <trkpt lat="44.18733" lon="5.30195">
        <ele>965.7</ele>
        <time>2026-05-14T13:45:37.000Z</time>
      </trkpt>
      <trkpt lat="44.18733" lon="5.30195">
        <ele>965.7</ele>
        <time>2026-05-14T13:45:38.000Z</time>
      </trkpt>
      <trkpt lat="44.18733" lon="5.30195">
        <ele>965.8</ele>
        <time>2026-05-14T13:45:39.000Z</time>
      </trkpt>
      <trkpt lat="44.18733" lon="5.30195">
        <ele>965.9</ele>
        <time>2026-05-14T13:45:40.000Z</time>
      </trkpt>
      <trkpt lat="44.18733" lon="5.30195">
        <ele>966.3</ele>
        <time>2026-05-14T13:45:41.000Z</time>
      </trkpt>
      <trkpt lat="44.18732" lon="5.30195">
        <ele>966.5</ele>
        <time>2026-05-14T13:45:42.000Z</time>
      </trkpt>
      <trkpt lat="44.18732" lon="5.30195">
        <ele>966.4</ele>
        <time>2026-05-14T13:45:43.000Z</time>
      </trkpt>
      <trkpt lat="44.18732" lon="5.30195">
        <ele>966.6</ele>
        <time>2026-05-14T13:45:44.000Z</time>
      </trkpt>
      <trkpt lat="44.18732" lon="5.30195">
        <ele>967.2</ele>
        <time>2026-05-14T13:45:45.000Z</time>
      </trkpt>
      <trkpt lat="44.18732" lon="5.30195">
        <ele>967.5</ele>
        <time>2026-05-14T13:45:46.000Z</time>
      </trkpt>
      <trkpt lat="44.18732" lon="5.30195">
        <ele>967.8</ele>
        <time>2026-05-14T13:45:47.000Z</time>
      </trkpt>
      <trkpt lat="44.18732" lon="5.30195">
        <ele>968.2</ele>
        <time>2026-05-14T13:45:48.000Z</time>
      </trkpt>
      <trkpt lat="44.18732" lon="5.30195">
        <ele>968.4</ele>
        <time>2026-05-14T13:45:49.000Z</time>
      </trkpt>
      <trkpt lat="44.18732" lon="5.30195">
        <ele>968.8</ele>
        <time>2026-05-14T13:45:50.000Z</time>
      </trkpt>
      <trkpt lat="44.18732" lon="5.30195">
        <ele>969</ele>
        <time>2026-05-14T13:45:51.000Z</time>
      </trkpt>
      <trkpt lat="44.18732" lon="5.30195">
        <ele>968.8</ele>
        <time>2026-05-14T13:45:52.000Z</time>
      </trkpt>
      <trkpt lat="44.18732" lon="5.30195">
        <ele>968.7</ele>
        <time>2026-05-14T13:45:53.000Z</time>
      </trkpt>
      <trkpt lat="44.18732" lon="5.30195">
        <ele>968.9</ele>
        <time>2026-05-14T13:45:54.000Z</time>
      </trkpt>
      <trkpt lat="44.18732" lon="5.30195">
        <ele>968.9</ele>
        <time>2026-05-14T13:45:55.000Z</time>
      </trkpt>
      <trkpt lat="44.18732" lon="5.30195">
        <ele>968.8</ele>
        <time>2026-05-14T13:45:56.000Z</time>
      </trkpt>
      <trkpt lat="44.18732" lon="5.30195">
        <ele>968.7</ele>
        <time>2026-05-14T13:45:57.000Z</time>
      </trkpt>
      <trkpt lat="44.18732" lon="5.30195">
        <ele>968.7</ele>
        <time>2026-05-14T13:45:58.000Z</time>
      </trkpt>
      <trkpt lat="44.18732" lon="5.30195">
        <ele>968.8</ele>
        <time>2026-05-14T13:45:59.000Z</time>
      </trkpt>
      <trkpt lat="44.18731" lon="5.30195">
        <ele>968.9</ele>
        <time>2026-05-14T13:46:00.000Z</time>
      </trkpt>
      <trkpt lat="44.18731" lon="5.30195">
        <ele>969</ele>
        <time>2026-05-14T13:46:01.000Z</time>
      </trkpt>
      <trkpt lat="44.18731" lon="5.30195">
        <ele>969.2</ele>
        <time>2026-05-14T13:46:02.000Z</time>
      </trkpt>
      <trkpt lat="44.18732" lon="5.30195">
        <ele>969.3</ele>
        <time>2026-05-14T13:46:03.000Z</time>
      </trkpt>
      <trkpt lat="44.18732" lon="5.30196">
        <ele>969.5</ele>
        <time>2026-05-14T13:46:04.000Z</time>
      </trkpt>
      <trkpt lat="44.18732" lon="5.30196">
        <ele>969.6</ele>
        <time>2026-05-14T13:46:05.000Z</time>
      </trkpt>
      <trkpt lat="44.18732" lon="5.30196">
        <ele>969.6</ele>
        <time>2026-05-14T13:46:06.000Z</time>
      </trkpt>
      <trkpt lat="44.18731" lon="5.30196">
        <ele>969.9</ele>
        <time>2026-05-14T13:46:07.000Z</time>
      </trkpt>
      <trkpt lat="44.18731" lon="5.30196">
        <ele>970.1</ele>
        <time>2026-05-14T13:46:08.000Z</time>
      </trkpt>
      <trkpt lat="44.18731" lon="5.30196">
        <ele>970.5</ele>
        <time>2026-05-14T13:46:09.000Z</time>
      </trkpt>
      <trkpt lat="44.18731" lon="5.30196">
        <ele>970.4</ele>
        <time>2026-05-14T13:46:10.000Z</time>
      </trkpt>
      <trkpt lat="44.18731" lon="5.30196">
        <ele>970.4</ele>
        <time>2026-05-14T13:46:11.000Z</time>
      </trkpt>
      <trkpt lat="44.18731" lon="5.30196">
        <ele>970.5</ele>
        <time>2026-05-14T13:46:12.000Z</time>
      </trkpt>
      <trkpt lat="44.18731" lon="5.30196">
        <ele>970.6</ele>
        <time>2026-05-14T13:46:13.000Z</time>
      </trkpt>
      <trkpt lat="44.18731" lon="5.30196">
        <ele>970.7</ele>
        <time>2026-05-14T13:46:14.000Z</time>
      </trkpt>
      <trkpt lat="44.18731" lon="5.30196">
        <ele>970.8</ele>
        <time>2026-05-14T13:46:15.000Z</time>
      </trkpt>
      <trkpt lat="44.18731" lon="5.30196">
        <ele>970.9</ele>
        <time>2026-05-14T13:46:16.000Z</time>
      </trkpt>
      <trkpt lat="44.18731" lon="5.30196">
        <ele>970.9</ele>
        <time>2026-05-14T13:46:17.000Z</time>
      </trkpt>
      <trkpt lat="44.18731" lon="5.30196">
        <ele>971</ele>
        <time>2026-05-14T13:46:18.000Z</time>
      </trkpt>
      <trkpt lat="44.18731" lon="5.30196">
        <ele>971</ele>
        <time>2026-05-14T13:46:19.000Z</time>
      </trkpt>
      <trkpt lat="44.18731" lon="5.30196">
        <ele>970.8</ele>
        <time>2026-05-14T13:46:20.000Z</time>
      </trkpt>
      <trkpt lat="44.18731" lon="5.30196">
        <ele>970.4</ele>
        <time>2026-05-14T13:46:21.000Z</time>
      </trkpt>
      <trkpt lat="44.18731" lon="5.30196">
        <ele>970</ele>
        <time>2026-05-14T13:46:22.000Z</time>
      </trkpt>
      <trkpt lat="44.18731" lon="5.30196">
        <ele>969.7</ele>
        <time>2026-05-14T13:46:23.000Z</time>
      </trkpt>
      <trkpt lat="44.18731" lon="5.30196">
        <ele>969.7</ele>
        <time>2026-05-14T13:46:24.000Z</time>
      </trkpt>
      <trkpt lat="44.18731" lon="5.30196">
        <ele>969.9</ele>
        <time>2026-05-14T13:46:25.000Z</time>
      </trkpt>
      <trkpt lat="44.18731" lon="5.30196">
        <ele>970.1</ele>
        <time>2026-05-14T13:46:26.000Z</time>
      </trkpt>
      <trkpt lat="44.18731" lon="5.30196">
        <ele>970.1</ele>
        <time>2026-05-14T13:46:27.000Z</time>
      </trkpt>
      <trkpt lat="44.18731" lon="5.30196">
        <ele>970.2</ele>
        <time>2026-05-14T13:46:28.000Z</time>
      </trkpt>
      <trkpt lat="44.18731" lon="5.30196">
        <ele>970.2</ele>
        <time>2026-05-14T13:46:29.000Z</time>
      </trkpt>
      <trkpt lat="44.18731" lon="5.30196">
        <ele>970.3</ele>
        <time>2026-05-14T13:46:30.000Z</time>
      </trkpt>
      <trkpt lat="44.18731" lon="5.30196">
        <ele>970.3</ele>
        <time>2026-05-14T13:46:31.000Z</time>
      </trkpt>
      <trkpt lat="44.18731" lon="5.30196">
        <ele>970.2</ele>
        <time>2026-05-14T13:46:32.000Z</time>
      </trkpt>
      <trkpt lat="44.18731" lon="5.30196">
        <ele>970.1</ele>
        <time>2026-05-14T13:46:33.000Z</time>
      </trkpt>
      <trkpt lat="44.18731" lon="5.30196">
        <ele>969.9</ele>
        <time>2026-05-14T13:46:34.000Z</time>
      </trkpt>
      <trkpt lat="44.18731" lon="5.30196">
        <ele>969.9</ele>
        <time>2026-05-14T13:46:35.000Z</time>
      </trkpt>
      <trkpt lat="44.18731" lon="5.30196">
        <ele>969.7</ele>
        <time>2026-05-14T13:46:36.000Z</time>
      </trkpt>
      <trkpt lat="44.18731" lon="5.30196">
        <ele>969.4</ele>
        <time>2026-05-14T13:46:37.000Z</time>
      </trkpt>
      <trkpt lat="44.18731" lon="5.30196">
        <ele>969.2</ele>
        <time>2026-05-14T13:46:38.000Z</time>
      </trkpt>
      <trkpt lat="44.18731" lon="5.30196">
        <ele>968.7</ele>
        <time>2026-05-14T13:46:39.000Z</time>
      </trkpt>
      <trkpt lat="44.18731" lon="5.30196">
        <ele>968.6</ele>
        <time>2026-05-14T13:46:40.000Z</time>
      </trkpt>
      <trkpt lat="44.18731" lon="5.30196">
        <ele>968.7</ele>
        <time>2026-05-14T13:46:41.000Z</time>
      </trkpt>
      <trkpt lat="44.18731" lon="5.30196">
        <ele>968.7</ele>
        <time>2026-05-14T13:46:42.000Z</time>
      </trkpt>
      <trkpt lat="44.18731" lon="5.30196">
        <ele>968.7</ele>
        <time>2026-05-14T13:46:43.000Z</time>
      </trkpt>
      <trkpt lat="44.18731" lon="5.30196">
        <ele>968.6</ele>
        <time>2026-05-14T13:46:44.000Z</time>
      </trkpt>
      <trkpt lat="44.18731" lon="5.30196">
        <ele>968.6</ele>
        <time>2026-05-14T13:46:45.000Z</time>
      </trkpt>
      <trkpt lat="44.18731" lon="5.30196">
        <ele>968.5</ele>
        <time>2026-05-14T13:46:46.000Z</time>
      </trkpt>
      <trkpt lat="44.18731" lon="5.30196">
        <ele>968.3</ele>
        <time>2026-05-14T13:46:47.000Z</time>
      </trkpt>
      <trkpt lat="44.18731" lon="5.30196">
        <ele>968.1</ele>
        <time>2026-05-14T13:46:48.000Z</time>
      </trkpt>
      <trkpt lat="44.18731" lon="5.30196">
        <ele>968.1</ele>
        <time>2026-05-14T13:46:49.000Z</time>
      </trkpt>
      <trkpt lat="44.18731" lon="5.30196">
        <ele>968.3</ele>
        <time>2026-05-14T13:46:50.000Z</time>
      </trkpt>
      <trkpt lat="44.18731" lon="5.30196">
        <ele>968.5</ele>
        <time>2026-05-14T13:46:51.000Z</time>
      </trkpt>
      <trkpt lat="44.18731" lon="5.30196">
        <ele>968.8</ele>
        <time>2026-05-14T13:46:52.000Z</time>
      </trkpt>
      <trkpt lat="44.18731" lon="5.30196">
        <ele>968.6</ele>
        <time>2026-05-14T13:46:53.000Z</time>
      </trkpt>
      <trkpt lat="44.18731" lon="5.30196">
        <ele>968.2</ele>
        <time>2026-05-14T13:46:54.000Z</time>
      </trkpt>
      <trkpt lat="44.18731" lon="5.30196">
        <ele>967.8</ele>
        <time>2026-05-14T13:46:55.000Z</time>
      </trkpt>
      <trkpt lat="44.18731" lon="5.30196">
        <ele>967</ele>
        <time>2026-05-14T13:46:56.000Z</time>
      </trkpt>
      <trkpt lat="44.18731" lon="5.30196">
        <ele>966.4</ele>
        <time>2026-05-14T13:46:57.000Z</time>
      </trkpt>
      <trkpt lat="44.18731" lon="5.30196">
        <ele>966.2</ele>
        <time>2026-05-14T13:46:58.000Z</time>
      </trkpt>
      <trkpt lat="44.18731" lon="5.30196">
        <ele>965.9</ele>
        <time>2026-05-14T13:46:59.000Z</time>
      </trkpt>
      <trkpt lat="44.18731" lon="5.30196">
        <ele>965.8</ele>
        <time>2026-05-14T13:47:00.000Z</time>
      </trkpt>
      <trkpt lat="44.18731" lon="5.30196">
        <ele>965.8</ele>
        <time>2026-05-14T13:47:01.000Z</time>
      </trkpt>
      <trkpt lat="44.18731" lon="5.30196">
        <ele>966</ele>
        <time>2026-05-14T13:47:02.000Z</time>
      </trkpt>
      <trkpt lat="44.18731" lon="5.30196">
        <ele>966.1</ele>
        <time>2026-05-14T13:47:03.000Z</time>
      </trkpt>
      <trkpt lat="44.18731" lon="5.30196">
        <ele>966.2</ele>
        <time>2026-05-14T13:47:04.000Z</time>
      </trkpt>
      <trkpt lat="44.18731" lon="5.30196">
        <ele>966.3</ele>
        <time>2026-05-14T13:47:05.000Z</time>
      </trkpt>
      <trkpt lat="44.18731" lon="5.30196">
        <ele>966.2</ele>
        <time>2026-05-14T13:47:06.000Z</time>
      </trkpt>
      <trkpt lat="44.18731" lon="5.30196">
        <ele>966</ele>
        <time>2026-05-14T13:47:07.000Z</time>
      </trkpt>
      <trkpt lat="44.18731" lon="5.30196">
        <ele>966</ele>
        <time>2026-05-14T13:47:08.000Z</time>
      </trkpt>
      <trkpt lat="44.18731" lon="5.30196">
        <ele>965.9</ele>
        <time>2026-05-14T13:47:09.000Z</time>
      </trkpt>
      <trkpt lat="44.18731" lon="5.30196">
        <ele>965.9</ele>
        <time>2026-05-14T13:47:10.000Z</time>
      </trkpt>
      <trkpt lat="44.18731" lon="5.30196">
        <ele>966.1</ele>
        <time>2026-05-14T13:47:11.000Z</time>
      </trkpt>
      <trkpt lat="44.18731" lon="5.30196">
        <ele>966.1</ele>
        <time>2026-05-14T13:47:12.000Z</time>
      </trkpt>
      <trkpt lat="44.18731" lon="5.30196">
        <ele>966.4</ele>
        <time>2026-05-14T13:47:13.000Z</time>
      </trkpt>
      <trkpt lat="44.18731" lon="5.30196">
        <ele>966.3</ele>
        <time>2026-05-14T13:47:14.000Z</time>
      </trkpt>
      <trkpt lat="44.18731" lon="5.30196">
        <ele>966.1</ele>
        <time>2026-05-14T13:47:15.000Z</time>
      </trkpt>
      <trkpt lat="44.18731" lon="5.30196">
        <ele>966</ele>
        <time>2026-05-14T13:47:16.000Z</time>
      </trkpt>
      <trkpt lat="44.18731" lon="5.30196">
        <ele>966.1</ele>
        <time>2026-05-14T13:47:17.000Z</time>
      </trkpt>
      <trkpt lat="44.18731" lon="5.30196">
        <ele>966.3</ele>
        <time>2026-05-14T13:47:18.000Z</time>
      </trkpt>
      <trkpt lat="44.18731" lon="5.30196">
        <ele>966.3</ele>
        <time>2026-05-14T13:47:19.000Z</time>
      </trkpt>
      <trkpt lat="44.18731" lon="5.30196">
        <ele>966.4</ele>
        <time>2026-05-14T13:47:20.000Z</time>
      </trkpt>
      <trkpt lat="44.18731" lon="5.30196">
        <ele>966.6</ele>
        <time>2026-05-14T13:47:21.000Z</time>
      </trkpt>
      <trkpt lat="44.18731" lon="5.30196">
        <ele>966.7</ele>
        <time>2026-05-14T13:47:22.000Z</time>
      </trkpt>
      <trkpt lat="44.18731" lon="5.30196">
        <ele>966.5</ele>
        <time>2026-05-14T13:47:23.000Z</time>
      </trkpt>
      <trkpt lat="44.18731" lon="5.30196">
        <ele>966.3</ele>
        <time>2026-05-14T13:47:24.000Z</time>
      </trkpt>
      <trkpt lat="44.18731" lon="5.30196">
        <ele>966.2</ele>
        <time>2026-05-14T13:47:25.000Z</time>
      </trkpt>
      <trkpt lat="44.18731" lon="5.30196">
        <ele>966.3</ele>
        <time>2026-05-14T13:47:26.000Z</time>
      </trkpt>
      <trkpt lat="44.18731" lon="5.30196">
        <ele>966.2</ele>
        <time>2026-05-14T13:47:27.000Z</time>
      </trkpt>
      <trkpt lat="44.18731" lon="5.30196">
        <ele>966.2</ele>
        <time>2026-05-14T13:47:28.000Z</time>
      </trkpt>
      <trkpt lat="44.18731" lon="5.30196">
        <ele>965.8</ele>
        <time>2026-05-14T13:47:29.000Z</time>
      </trkpt>
      <trkpt lat="44.18731" lon="5.30196">
        <ele>965.9</ele>
        <time>2026-05-14T13:47:30.000Z</time>
      </trkpt>
      <trkpt lat="44.18731" lon="5.30196">
        <ele>966.2</ele>
        <time>2026-05-14T13:47:31.000Z</time>
      </trkpt>
      <trkpt lat="44.18731" lon="5.30196">
        <ele>966.1</ele>
        <time>2026-05-14T13:47:32.000Z</time>
      </trkpt>
      <trkpt lat="44.18731" lon="5.30196">
        <ele>966</ele>
        <time>2026-05-14T13:47:33.000Z</time>
      </trkpt>
      <trkpt lat="44.18731" lon="5.30196">
        <ele>966.1</ele>
        <time>2026-05-14T13:47:34.000Z</time>
      </trkpt>
      <trkpt lat="44.18731" lon="5.30196">
        <ele>966</ele>
        <time>2026-05-14T13:47:35.000Z</time>
      </trkpt>
      <trkpt lat="44.18731" lon="5.30196">
        <ele>965.7</ele>
        <time>2026-05-14T13:47:36.000Z</time>
      </trkpt>
      <trkpt lat="44.18731" lon="5.30196">
        <ele>965.6</ele>
        <time>2026-05-14T13:47:37.000Z</time>
      </trkpt>
      <trkpt lat="44.18731" lon="5.30196">
        <ele>965.4</ele>
        <time>2026-05-14T13:47:38.000Z</time>
      </trkpt>
      <trkpt lat="44.18731" lon="5.30196">
        <ele>965.3</ele>
        <time>2026-05-14T13:47:39.000Z</time>
      </trkpt>
      <trkpt lat="44.18731" lon="5.30196">
        <ele>965.2</ele>
        <time>2026-05-14T13:47:40.000Z</time>
      </trkpt>
      <trkpt lat="44.18731" lon="5.30196">
        <ele>965</ele>
        <time>2026-05-14T13:47:41.000Z</time>
      </trkpt>
      <trkpt lat="44.18731" lon="5.30196">
        <ele>965.1</ele>
        <time>2026-05-14T13:47:42.000Z</time>
      </trkpt>
      <trkpt lat="44.18731" lon="5.30196">
        <ele>965</ele>
        <time>2026-05-14T13:47:43.000Z</time>
      </trkpt>
      <trkpt lat="44.18731" lon="5.30196">
        <ele>965.5</ele>
        <time>2026-05-14T13:47:44.000Z</time>
      </trkpt>
      <trkpt lat="44.18731" lon="5.30196">
        <ele>965.4</ele>
        <time>2026-05-14T13:47:45.000Z</time>
      </trkpt>
      <trkpt lat="44.18731" lon="5.30196">
        <ele>965.3</ele>
        <time>2026-05-14T13:47:46.000Z</time>
      </trkpt>
      <trkpt lat="44.18731" lon="5.30196">
        <ele>965.1</ele>
        <time>2026-05-14T13:47:47.000Z</time>
      </trkpt>
      <trkpt lat="44.18731" lon="5.30196">
        <ele>964.8</ele>
        <time>2026-05-14T13:47:48.000Z</time>
      </trkpt>
      <trkpt lat="44.18731" lon="5.30196">
        <ele>964.8</ele>
        <time>2026-05-14T13:47:49.000Z</time>
      </trkpt>
      <trkpt lat="44.18731" lon="5.30196">
        <ele>965.1</ele>
        <time>2026-05-14T13:47:50.000Z</time>
      </trkpt>
      <trkpt lat="44.18731" lon="5.30196">
        <ele>965.3</ele>
        <time>2026-05-14T13:47:51.000Z</time>
      </trkpt>
      <trkpt lat="44.18731" lon="5.30196">
        <ele>965.3</ele>
        <time>2026-05-14T13:47:52.000Z</time>
      </trkpt>
      <trkpt lat="44.18731" lon="5.30196">
        <ele>965.4</ele>
        <time>2026-05-14T13:47:53.000Z</time>
      </trkpt>
      <trkpt lat="44.18731" lon="5.30196">
        <ele>965.5</ele>
        <time>2026-05-14T13:47:54.000Z</time>
      </trkpt>
      <trkpt lat="44.18731" lon="5.30196">
        <ele>965.6</ele>
        <time>2026-05-14T13:47:55.000Z</time>
      </trkpt>
      <trkpt lat="44.18731" lon="5.30196">
        <ele>965.5</ele>
        <time>2026-05-14T13:47:56.000Z</time>
      </trkpt>
      <trkpt lat="44.18731" lon="5.30196">
        <ele>965.3</ele>
        <time>2026-05-14T13:47:57.000Z</time>
      </trkpt>
      <trkpt lat="44.18731" lon="5.30196">
        <ele>965.2</ele>
        <time>2026-05-14T13:47:58.000Z</time>
      </trkpt>
      <trkpt lat="44.18731" lon="5.30196">
        <ele>965</ele>
        <time>2026-05-14T13:47:59.000Z</time>
      </trkpt>
      <trkpt lat="44.18731" lon="5.30196">
        <ele>965.1</ele>
        <time>2026-05-14T13:48:00.000Z</time>
      </trkpt>
      <trkpt lat="44.18731" lon="5.30196">
        <ele>965</ele>
        <time>2026-05-14T13:48:01.000Z</time>
      </trkpt>
      <trkpt lat="44.18731" lon="5.30196">
        <ele>964.9</ele>
        <time>2026-05-14T13:48:02.000Z</time>
      </trkpt>
      <trkpt lat="44.18731" lon="5.30196">
        <ele>964.8</ele>
        <time>2026-05-14T13:48:03.000Z</time>
      </trkpt>
      <trkpt lat="44.18731" lon="5.30196">
        <ele>965.1</ele>
        <time>2026-05-14T13:48:04.000Z</time>
      </trkpt>
      <trkpt lat="44.18731" lon="5.30196">
        <ele>965.3</ele>
        <time>2026-05-14T13:48:05.000Z</time>
      </trkpt>
      <trkpt lat="44.18731" lon="5.30196">
        <ele>965.5</ele>
        <time>2026-05-14T13:48:06.000Z</time>
      </trkpt>
      <trkpt lat="44.18731" lon="5.30196">
        <ele>965.6</ele>
        <time>2026-05-14T13:48:07.000Z</time>
      </trkpt>
      <trkpt lat="44.18731" lon="5.30196">
        <ele>965.7</ele>
        <time>2026-05-14T13:48:08.000Z</time>
      </trkpt>
      <trkpt lat="44.18731" lon="5.30196">
        <ele>965.8</ele>
        <time>2026-05-14T13:48:09.000Z</time>
      </trkpt>
      <trkpt lat="44.18731" lon="5.30196">
        <ele>965.9</ele>
        <time>2026-05-14T13:48:10.000Z</time>
      </trkpt>
      <trkpt lat="44.18731" lon="5.30196">
        <ele>965.8</ele>
        <time>2026-05-14T13:48:11.000Z</time>
      </trkpt>
      <trkpt lat="44.18731" lon="5.30196">
        <ele>965.7</ele>
        <time>2026-05-14T13:48:12.000Z</time>
      </trkpt>
      <trkpt lat="44.18731" lon="5.30196">
        <ele>965.5</ele>
        <time>2026-05-14T13:48:13.000Z</time>
      </trkpt>
      <trkpt lat="44.18731" lon="5.30196">
        <ele>965.3</ele>
        <time>2026-05-14T13:48:14.000Z</time>
      </trkpt>
      <trkpt lat="44.18731" lon="5.30196">
        <ele>965.2</ele>
        <time>2026-05-14T13:48:15.000Z</time>
      </trkpt>
      <trkpt lat="44.18731" lon="5.30196">
        <ele>964.9</ele>
        <time>2026-05-14T13:48:16.000Z</time>
      </trkpt>
      <trkpt lat="44.18731" lon="5.30196">
        <ele>964.6</ele>
        <time>2026-05-14T13:48:17.000Z</time>
      </trkpt>
      <trkpt lat="44.18731" lon="5.30196">
        <ele>964.4</ele>
        <time>2026-05-14T13:48:18.000Z</time>
      </trkpt>
      <trkpt lat="44.18731" lon="5.30196">
        <ele>964.5</ele>
        <time>2026-05-14T13:48:19.000Z</time>
      </trkpt>
      <trkpt lat="44.18731" lon="5.30196">
        <ele>964.8</ele>
        <time>2026-05-14T13:48:20.000Z</time>
      </trkpt>
      <trkpt lat="44.18731" lon="5.30196">
        <ele>965.1</ele>
        <time>2026-05-14T13:48:21.000Z</time>
      </trkpt>
      <trkpt lat="44.18731" lon="5.30196">
        <ele>965.5</ele>
        <time>2026-05-14T13:48:22.000Z</time>
      </trkpt>
      <trkpt lat="44.18731" lon="5.30196">
        <ele>965.5</ele>
        <time>2026-05-14T13:48:23.000Z</time>
      </trkpt>
      <trkpt lat="44.18731" lon="5.30196">
        <ele>965.5</ele>
        <time>2026-05-14T13:48:24.000Z</time>
      </trkpt>
      <trkpt lat="44.18731" lon="5.30196">
        <ele>965.4</ele>
        <time>2026-05-14T13:48:25.000Z</time>
      </trkpt>
      <trkpt lat="44.18731" lon="5.30196">
        <ele>965.2</ele>
        <time>2026-05-14T13:48:26.000Z</time>
      </trkpt>
      <trkpt lat="44.18731" lon="5.30196">
        <ele>964.8</ele>
        <time>2026-05-14T13:48:27.000Z</time>
      </trkpt>
      <trkpt lat="44.18731" lon="5.30196">
        <ele>964.5</ele>
        <time>2026-05-14T13:48:28.000Z</time>
      </trkpt>
      <trkpt lat="44.18731" lon="5.30196">
        <ele>964.2</ele>
        <time>2026-05-14T13:48:29.000Z</time>
      </trkpt>
      <trkpt lat="44.18731" lon="5.30196">
        <ele>964.2</ele>
        <time>2026-05-14T13:48:30.000Z</time>
      </trkpt>
      <trkpt lat="44.18731" lon="5.30196">
        <ele>964.3</ele>
        <time>2026-05-14T13:48:31.000Z</time>
      </trkpt>
      <trkpt lat="44.18731" lon="5.30196">
        <ele>964.5</ele>
        <time>2026-05-14T13:48:32.000Z</time>
      </trkpt>
      <trkpt lat="44.18731" lon="5.30196">
        <ele>964.1</ele>
        <time>2026-05-14T13:48:33.000Z</time>
      </trkpt>
      <trkpt lat="44.18731" lon="5.30196">
        <ele>964.2</ele>
        <time>2026-05-14T13:48:34.000Z</time>
      </trkpt>
      <trkpt lat="44.18731" lon="5.30196">
        <ele>964.4</ele>
        <time>2026-05-14T13:48:35.000Z</time>
      </trkpt>
      <trkpt lat="44.18731" lon="5.30196">
        <ele>964.4</ele>
        <time>2026-05-14T13:48:36.000Z</time>
      </trkpt>
      <trkpt lat="44.18731" lon="5.30196">
        <ele>964.7</ele>
        <time>2026-05-14T13:48:37.000Z</time>
      </trkpt>
      <trkpt lat="44.18731" lon="5.30196">
        <ele>964.9</ele>
        <time>2026-05-14T13:48:38.000Z</time>
      </trkpt>
      <trkpt lat="44.18731" lon="5.30195">
        <ele>964.9</ele>
        <time>2026-05-14T13:48:39.000Z</time>
      </trkpt>
      <trkpt lat="44.18731" lon="5.30195">
        <ele>965</ele>
        <time>2026-05-14T13:48:40.000Z</time>
      </trkpt>
      <trkpt lat="44.18731" lon="5.30195">
        <ele>965.2</ele>
        <time>2026-05-14T13:48:41.000Z</time>
      </trkpt>
      <trkpt lat="44.18731" lon="5.30196">
        <ele>965.1</ele>
        <time>2026-05-14T13:48:42.000Z</time>
      </trkpt>
      <trkpt lat="44.18731" lon="5.30196">
        <ele>965.2</ele>
        <time>2026-05-14T13:48:43.000Z</time>
      </trkpt>
      <trkpt lat="44.18731" lon="5.30196">
        <ele>965</ele>
        <time>2026-05-14T13:48:44.000Z</time>
      </trkpt>
      <trkpt lat="44.18731" lon="5.30196">
        <ele>965</ele>
        <time>2026-05-14T13:48:45.000Z</time>
      </trkpt>
      <trkpt lat="44.18731" lon="5.30196">
        <ele>965.1</ele>
        <time>2026-05-14T13:48:46.000Z</time>
      </trkpt>
      <trkpt lat="44.18731" lon="5.30196">
        <ele>965</ele>
        <time>2026-05-14T13:48:47.000Z</time>
      </trkpt>
      <trkpt lat="44.18731" lon="5.30196">
        <ele>964.8</ele>
        <time>2026-05-14T13:48:48.000Z</time>
      </trkpt>
      <trkpt lat="44.18731" lon="5.30196">
        <ele>964.5</ele>
        <time>2026-05-14T13:48:49.000Z</time>
      </trkpt>
      <trkpt lat="44.18731" lon="5.30196">
        <ele>964.4</ele>
        <time>2026-05-14T13:48:50.000Z</time>
      </trkpt>
      <trkpt lat="44.18731" lon="5.30196">
        <ele>964.4</ele>
        <time>2026-05-14T13:48:51.000Z</time>
      </trkpt>
      <trkpt lat="44.18731" lon="5.30196">
        <ele>964.6</ele>
        <time>2026-05-14T13:48:52.000Z</time>
      </trkpt>
      <trkpt lat="44.18731" lon="5.30196">
        <ele>964.7</ele>
        <time>2026-05-14T13:48:53.000Z</time>
      </trkpt>
      <trkpt lat="44.18731" lon="5.30196">
        <ele>964.5</ele>
        <time>2026-05-14T13:48:54.000Z</time>
      </trkpt>
      <trkpt lat="44.18731" lon="5.30196">
        <ele>964.5</ele>
        <time>2026-05-14T13:48:55.000Z</time>
      </trkpt>
      <trkpt lat="44.18731" lon="5.30196">
        <ele>964.6</ele>
        <time>2026-05-14T13:48:56.000Z</time>
      </trkpt>
      <trkpt lat="44.18731" lon="5.30196">
        <ele>964.5</ele>
        <time>2026-05-14T13:48:57.000Z</time>
      </trkpt>
      <trkpt lat="44.18731" lon="5.30196">
        <ele>964.6</ele>
        <time>2026-05-14T13:48:58.000Z</time>
      </trkpt>
      <trkpt lat="44.18731" lon="5.30196">
        <ele>964.3</ele>
        <time>2026-05-14T13:48:59.000Z</time>
      </trkpt>
      <trkpt lat="44.18731" lon="5.30196">
        <ele>964.1</ele>
        <time>2026-05-14T13:49:00.000Z</time>
      </trkpt>
      <trkpt lat="44.18731" lon="5.30197">
        <ele>963.9</ele>
        <time>2026-05-14T13:49:01.000Z</time>
      </trkpt>
      <trkpt lat="44.18731" lon="5.30197">
        <ele>964</ele>
        <time>2026-05-14T13:49:02.000Z</time>
      </trkpt>
      <trkpt lat="44.18731" lon="5.30197">
        <ele>963.9</ele>
        <time>2026-05-14T13:49:03.000Z</time>
      </trkpt>
      <trkpt lat="44.18731" lon="5.30197">
        <ele>964</ele>
        <time>2026-05-14T13:49:04.000Z</time>
      </trkpt>
      <trkpt lat="44.18731" lon="5.30197">
        <ele>964</ele>
        <time>2026-05-14T13:49:05.000Z</time>
      </trkpt>
      <trkpt lat="44.18731" lon="5.30197">
        <ele>963.9</ele>
        <time>2026-05-14T13:49:06.000Z</time>
      </trkpt>
      <trkpt lat="44.18731" lon="5.30196">
        <ele>963.6</ele>
        <time>2026-05-14T13:49:07.000Z</time>
      </trkpt>
      <trkpt lat="44.18731" lon="5.30196">
        <ele>963.6</ele>
        <time>2026-05-14T13:49:08.000Z</time>
      </trkpt>
      <trkpt lat="44.18731" lon="5.30196">
        <ele>963.8</ele>
        <time>2026-05-14T13:49:09.000Z</time>
      </trkpt>
      <trkpt lat="44.18731" lon="5.30196">
        <ele>963.7</ele>
        <time>2026-05-14T13:49:10.000Z</time>
      </trkpt>
      <trkpt lat="44.18731" lon="5.30196">
        <ele>963.7</ele>
        <time>2026-05-14T13:49:11.000Z</time>
      </trkpt>
      <trkpt lat="44.18731" lon="5.30196">
        <ele>963.7</ele>
        <time>2026-05-14T13:49:12.000Z</time>
      </trkpt>
      <trkpt lat="44.18731" lon="5.30196">
        <ele>963.6</ele>
        <time>2026-05-14T13:49:13.000Z</time>
      </trkpt>
      <trkpt lat="44.18731" lon="5.30196">
        <ele>963.8</ele>
        <time>2026-05-14T13:49:14.000Z</time>
      </trkpt>
      <trkpt lat="44.18731" lon="5.30196">
        <ele>963.9</ele>
        <time>2026-05-14T13:49:15.000Z</time>
      </trkpt>
      <trkpt lat="44.18731" lon="5.30196">
        <ele>964.1</ele>
        <time>2026-05-14T13:49:16.000Z</time>
      </trkpt>
      <trkpt lat="44.18731" lon="5.30196">
        <ele>964.4</ele>
        <time>2026-05-14T13:49:17.000Z</time>
      </trkpt>
      <trkpt lat="44.18731" lon="5.30196">
        <ele>964.5</ele>
        <time>2026-05-14T13:49:18.000Z</time>
      </trkpt>
      <trkpt lat="44.18731" lon="5.30196">
        <ele>964.8</ele>
        <time>2026-05-14T13:49:19.000Z</time>
      </trkpt>
      <trkpt lat="44.18731" lon="5.30196">
        <ele>965</ele>
        <time>2026-05-14T13:49:20.000Z</time>
      </trkpt>
      <trkpt lat="44.18731" lon="5.30196">
        <ele>965.3</ele>
        <time>2026-05-14T13:49:21.000Z</time>
      </trkpt>
      <trkpt lat="44.18731" lon="5.30196">
        <ele>965.5</ele>
        <time>2026-05-14T13:49:22.000Z</time>
      </trkpt>
      <trkpt lat="44.18731" lon="5.30196">
        <ele>965.7</ele>
        <time>2026-05-14T13:49:23.000Z</time>
      </trkpt>
      <trkpt lat="44.18731" lon="5.30196">
        <ele>965.7</ele>
        <time>2026-05-14T13:49:24.000Z</time>
      </trkpt>
      <trkpt lat="44.18731" lon="5.30196">
        <ele>965.8</ele>
        <time>2026-05-14T13:49:25.000Z</time>
      </trkpt>
      <trkpt lat="44.18731" lon="5.30196">
        <ele>966.1</ele>
        <time>2026-05-14T13:49:26.000Z</time>
      </trkpt>
      <trkpt lat="44.18731" lon="5.30196">
        <ele>966.1</ele>
        <time>2026-05-14T13:49:27.000Z</time>
      </trkpt>
      <trkpt lat="44.18731" lon="5.30196">
        <ele>966.3</ele>
        <time>2026-05-14T13:49:28.000Z</time>
      </trkpt>
      <trkpt lat="44.18731" lon="5.30196">
        <ele>966.7</ele>
        <time>2026-05-14T13:49:29.000Z</time>
      </trkpt>
      <trkpt lat="44.18731" lon="5.30196">
        <ele>966.5</ele>
        <time>2026-05-14T13:49:30.000Z</time>
      </trkpt>
      <trkpt lat="44.18731" lon="5.30196">
        <ele>966.7</ele>
        <time>2026-05-14T13:49:31.000Z</time>
      </trkpt>
      <trkpt lat="44.18731" lon="5.30196">
        <ele>967.1</ele>
        <time>2026-05-14T13:49:32.000Z</time>
      </trkpt>
      <trkpt lat="44.18731" lon="5.30196">
        <ele>967.3</ele>
        <time>2026-05-14T13:49:33.000Z</time>
      </trkpt>
      <trkpt lat="44.18731" lon="5.30196">
        <ele>967.5</ele>
        <time>2026-05-14T13:49:34.000Z</time>
      </trkpt>
      <trkpt lat="44.18731" lon="5.30196">
        <ele>967.8</ele>
        <time>2026-05-14T13:49:35.000Z</time>
      </trkpt>
      <trkpt lat="44.18731" lon="5.30196">
        <ele>967.9</ele>
        <time>2026-05-14T13:49:36.000Z</time>
      </trkpt>
      <trkpt lat="44.18731" lon="5.30196">
        <ele>968.5</ele>
        <time>2026-05-14T13:49:37.000Z</time>
      </trkpt>
      <trkpt lat="44.18731" lon="5.30196">
        <ele>968.9</ele>
        <time>2026-05-14T13:49:38.000Z</time>
      </trkpt>
      <trkpt lat="44.18731" lon="5.30196">
        <ele>969.2</ele>
        <time>2026-05-14T13:49:39.000Z</time>
      </trkpt>
      <trkpt lat="44.18731" lon="5.30196">
        <ele>969.1</ele>
        <time>2026-05-14T13:49:40.000Z</time>
      </trkpt>
      <trkpt lat="44.18731" lon="5.30196">
        <ele>969.3</ele>
        <time>2026-05-14T13:49:41.000Z</time>
      </trkpt>
      <trkpt lat="44.18731" lon="5.30196">
        <ele>969.3</ele>
        <time>2026-05-14T13:49:42.000Z</time>
      </trkpt>
      <trkpt lat="44.18731" lon="5.30196">
        <ele>969.2</ele>
        <time>2026-05-14T13:49:43.000Z</time>
      </trkpt>
      <trkpt lat="44.18731" lon="5.30196">
        <ele>969.2</ele>
        <time>2026-05-14T13:49:44.000Z</time>
      </trkpt>
      <trkpt lat="44.18731" lon="5.30196">
        <ele>969.3</ele>
        <time>2026-05-14T13:49:45.000Z</time>
      </trkpt>
      <trkpt lat="44.18731" lon="5.30196">
        <ele>969.1</ele>
        <time>2026-05-14T13:49:46.000Z</time>
      </trkpt>
      <trkpt lat="44.18731" lon="5.30196">
        <ele>969</ele>
        <time>2026-05-14T13:49:47.000Z</time>
      </trkpt>
      <trkpt lat="44.18731" lon="5.30196">
        <ele>969.1</ele>
        <time>2026-05-14T13:49:48.000Z</time>
      </trkpt>
      <trkpt lat="44.18731" lon="5.30196">
        <ele>969.2</ele>
        <time>2026-05-14T13:49:49.000Z</time>
      </trkpt>
      <trkpt lat="44.18731" lon="5.30196">
        <ele>969.5</ele>
        <time>2026-05-14T13:49:50.000Z</time>
      </trkpt>
      <trkpt lat="44.18731" lon="5.30196">
        <ele>969.7</ele>
        <time>2026-05-14T13:49:51.000Z</time>
      </trkpt>
      <trkpt lat="44.18731" lon="5.30196">
        <ele>969.5</ele>
        <time>2026-05-14T13:49:52.000Z</time>
      </trkpt>
      <trkpt lat="44.18731" lon="5.30196">
        <ele>969.8</ele>
        <time>2026-05-14T13:49:53.000Z</time>
      </trkpt>
      <trkpt lat="44.18731" lon="5.30196">
        <ele>970.1</ele>
        <time>2026-05-14T13:49:54.000Z</time>
      </trkpt>
      <trkpt lat="44.18731" lon="5.30196">
        <ele>970.2</ele>
        <time>2026-05-14T13:49:55.000Z</time>
      </trkpt>
      <trkpt lat="44.18731" lon="5.30196">
        <ele>970.4</ele>
        <time>2026-05-14T13:49:56.000Z</time>
      </trkpt>
      <trkpt lat="44.18731" lon="5.30196">
        <ele>970.5</ele>
        <time>2026-05-14T13:49:57.000Z</time>
      </trkpt>
      <trkpt lat="44.18731" lon="5.30196">
        <ele>970.5</ele>
        <time>2026-05-14T13:49:58.000Z</time>
      </trkpt>
      <trkpt lat="44.18731" lon="5.30196">
        <ele>970.5</ele>
        <time>2026-05-14T13:49:59.000Z</time>
      </trkpt>
      <trkpt lat="44.18731" lon="5.30196">
        <ele>970.8</ele>
        <time>2026-05-14T13:50:00.000Z</time>
      </trkpt>
      <trkpt lat="44.18731" lon="5.30196">
        <ele>971</ele>
        <time>2026-05-14T13:50:01.000Z</time>
      </trkpt>
      <trkpt lat="44.18731" lon="5.30197">
        <ele>970.6</ele>
        <time>2026-05-14T13:50:02.000Z</time>
      </trkpt>
      <trkpt lat="44.18732" lon="5.30197">
        <ele>970.5</ele>
        <time>2026-05-14T13:50:03.000Z</time>
      </trkpt>
      <trkpt lat="44.18732" lon="5.30197">
        <ele>970.2</ele>
        <time>2026-05-14T13:50:04.000Z</time>
      </trkpt>
      <trkpt lat="44.18732" lon="5.30197">
        <ele>969.7</ele>
        <time>2026-05-14T13:50:05.000Z</time>
      </trkpt>
      <trkpt lat="44.18732" lon="5.30197">
        <ele>969.3</ele>
        <time>2026-05-14T13:50:06.000Z</time>
      </trkpt>
      <trkpt lat="44.18732" lon="5.30197">
        <ele>968.8</ele>
        <time>2026-05-14T13:50:07.000Z</time>
      </trkpt>
      <trkpt lat="44.18732" lon="5.30197">
        <ele>968.3</ele>
        <time>2026-05-14T13:50:08.000Z</time>
      </trkpt>
      <trkpt lat="44.18732" lon="5.30197">
        <ele>967.9</ele>
        <time>2026-05-14T13:50:09.000Z</time>
      </trkpt>
      <trkpt lat="44.18732" lon="5.30197">
        <ele>967.7</ele>
        <time>2026-05-14T13:50:10.000Z</time>
      </trkpt>
      <trkpt lat="44.18732" lon="5.30197">
        <ele>967.7</ele>
        <time>2026-05-14T13:50:11.000Z</time>
      </trkpt>
      <trkpt lat="44.18732" lon="5.30197">
        <ele>967.6</ele>
        <time>2026-05-14T13:50:12.000Z</time>
      </trkpt>
      <trkpt lat="44.18732" lon="5.30197">
        <ele>967.6</ele>
        <time>2026-05-14T13:50:13.000Z</time>
      </trkpt>
      <trkpt lat="44.18732" lon="5.30197">
        <ele>967.5</ele>
        <time>2026-05-14T13:50:14.000Z</time>
      </trkpt>
      <trkpt lat="44.18732" lon="5.30197">
        <ele>967.4</ele>
        <time>2026-05-14T13:50:15.000Z</time>
      </trkpt>
      <trkpt lat="44.18732" lon="5.30197">
        <ele>967.4</ele>
        <time>2026-05-14T13:50:16.000Z</time>
      </trkpt>
      <trkpt lat="44.18732" lon="5.30197">
        <ele>967</ele>
        <time>2026-05-14T13:50:17.000Z</time>
      </trkpt>
      <trkpt lat="44.18732" lon="5.30197">
        <ele>966.8</ele>
        <time>2026-05-14T13:50:18.000Z</time>
      </trkpt>
      <trkpt lat="44.18732" lon="5.30197">
        <ele>966.4</ele>
        <time>2026-05-14T13:50:19.000Z</time>
      </trkpt>
      <trkpt lat="44.18732" lon="5.30197">
        <ele>965.9</ele>
        <time>2026-05-14T13:50:20.000Z</time>
      </trkpt>
      <trkpt lat="44.18732" lon="5.30197">
        <ele>965.7</ele>
        <time>2026-05-14T13:50:21.000Z</time>
      </trkpt>
      <trkpt lat="44.18732" lon="5.30197">
        <ele>965.8</ele>
        <time>2026-05-14T13:50:22.000Z</time>
      </trkpt>
      <trkpt lat="44.18732" lon="5.30197">
        <ele>965.9</ele>
        <time>2026-05-14T13:50:23.000Z</time>
      </trkpt>
      <trkpt lat="44.18732" lon="5.30197">
        <ele>965.9</ele>
        <time>2026-05-14T13:50:24.000Z</time>
      </trkpt>
      <trkpt lat="44.18732" lon="5.30197">
        <ele>965.7</ele>
        <time>2026-05-14T13:50:25.000Z</time>
      </trkpt>
      <trkpt lat="44.18732" lon="5.30197">
        <ele>965.6</ele>
        <time>2026-05-14T13:50:26.000Z</time>
      </trkpt>
      <trkpt lat="44.18732" lon="5.30197">
        <ele>965.7</ele>
        <time>2026-05-14T13:50:27.000Z</time>
      </trkpt>
      <trkpt lat="44.18732" lon="5.30197">
        <ele>966</ele>
        <time>2026-05-14T13:50:28.000Z</time>
      </trkpt>
      <trkpt lat="44.18732" lon="5.30198">
        <ele>966.1</ele>
        <time>2026-05-14T13:50:29.000Z</time>
      </trkpt>
      <trkpt lat="44.18732" lon="5.30198">
        <ele>966.2</ele>
        <time>2026-05-14T13:50:30.000Z</time>
      </trkpt>
      <trkpt lat="44.18732" lon="5.30198">
        <ele>966.2</ele>
        <time>2026-05-14T13:50:31.000Z</time>
      </trkpt>
      <trkpt lat="44.18732" lon="5.30199">
        <ele>966</ele>
        <time>2026-05-14T13:50:32.000Z</time>
      </trkpt>
      <trkpt lat="44.18732" lon="5.30199">
        <ele>965.8</ele>
        <time>2026-05-14T13:50:33.000Z</time>
      </trkpt>
      <trkpt lat="44.18732" lon="5.302">
        <ele>965.5</ele>
        <time>2026-05-14T13:50:34.000Z</time>
      </trkpt>
      <trkpt lat="44.18732" lon="5.302">
        <ele>965.6</ele>
        <time>2026-05-14T13:50:35.000Z</time>
      </trkpt>
      <trkpt lat="44.18732" lon="5.302">
        <ele>965.6</ele>
        <time>2026-05-14T13:50:36.000Z</time>
      </trkpt>
      <trkpt lat="44.18732" lon="5.30201">
        <ele>965.5</ele>
        <time>2026-05-14T13:50:37.000Z</time>
      </trkpt>
      <trkpt lat="44.18732" lon="5.30201">
        <ele>965.5</ele>
        <time>2026-05-14T13:50:38.000Z</time>
      </trkpt>
      <trkpt lat="44.18732" lon="5.30201">
        <ele>965.7</ele>
        <time>2026-05-14T13:50:39.000Z</time>
      </trkpt>
      <trkpt lat="44.18732" lon="5.30202">
        <ele>965.8</ele>
        <time>2026-05-14T13:50:40.000Z</time>
      </trkpt>
      <trkpt lat="44.18732" lon="5.30203">
        <ele>965.8</ele>
        <time>2026-05-14T13:50:41.000Z</time>
      </trkpt>
      <trkpt lat="44.18733" lon="5.30205">
        <ele>965.5</ele>
        <time>2026-05-14T13:50:42.000Z</time>
      </trkpt>
      <trkpt lat="44.18734" lon="5.30207">
        <ele>965.4</ele>
        <time>2026-05-14T13:50:43.000Z</time>
      </trkpt>
      <trkpt lat="44.18735" lon="5.30209">
        <ele>965.4</ele>
        <time>2026-05-14T13:50:44.000Z</time>
      </trkpt>
      <trkpt lat="44.18735" lon="5.30211">
        <ele>965.4</ele>
        <time>2026-05-14T13:50:45.000Z</time>
      </trkpt>
      <trkpt lat="44.18736" lon="5.30213">
        <ele>965.4</ele>
        <time>2026-05-14T13:50:46.000Z</time>
      </trkpt>
      <trkpt lat="44.18736" lon="5.30214">
        <ele>965.3</ele>
        <time>2026-05-14T13:50:47.000Z</time>
      </trkpt>
      <trkpt lat="44.18736" lon="5.30215">
        <ele>965</ele>
        <time>2026-05-14T13:50:48.000Z</time>
      </trkpt>
      <trkpt lat="44.18736" lon="5.30217">
        <ele>964.7</ele>
        <time>2026-05-14T13:50:49.000Z</time>
      </trkpt>
      <trkpt lat="44.18736" lon="5.30219">
        <ele>964.5</ele>
        <time>2026-05-14T13:50:50.000Z</time>
      </trkpt>
      <trkpt lat="44.18736" lon="5.3022">
        <ele>964.5</ele>
        <time>2026-05-14T13:50:51.000Z</time>
      </trkpt>
      <trkpt lat="44.18736" lon="5.30222">
        <ele>964.2</ele>
        <time>2026-05-14T13:50:52.000Z</time>
      </trkpt>
      <trkpt lat="44.18736" lon="5.30223">
        <ele>963.9</ele>
        <time>2026-05-14T13:50:53.000Z</time>
      </trkpt>
      <trkpt lat="44.18736" lon="5.30224">
        <ele>963.9</ele>
        <time>2026-05-14T13:50:54.000Z</time>
      </trkpt>
      <trkpt lat="44.18736" lon="5.30225">
        <ele>963.7</ele>
        <time>2026-05-14T13:50:55.000Z</time>
      </trkpt>
      <trkpt lat="44.18736" lon="5.30226">
        <ele>963.6</ele>
        <time>2026-05-14T13:50:56.000Z</time>
      </trkpt>
      <trkpt lat="44.18735" lon="5.30227">
        <ele>963.5</ele>
        <time>2026-05-14T13:50:57.000Z</time>
      </trkpt>
      <trkpt lat="44.18736" lon="5.30229">
        <ele>963.3</ele>
        <time>2026-05-14T13:50:58.000Z</time>
      </trkpt>
      <trkpt lat="44.18736" lon="5.3023">
        <ele>963.3</ele>
        <time>2026-05-14T13:50:59.000Z</time>
      </trkpt>
      <trkpt lat="44.18736" lon="5.3023">
        <ele>962.8</ele>
        <time>2026-05-14T13:51:00.000Z</time>
      </trkpt>
      <trkpt lat="44.18737" lon="5.30232">
        <ele>962.2</ele>
        <time>2026-05-14T13:51:01.000Z</time>
      </trkpt>
      <trkpt lat="44.18737" lon="5.30232">
        <ele>961.7</ele>
        <time>2026-05-14T13:51:02.000Z</time>
      </trkpt>
      <trkpt lat="44.18737" lon="5.30233">
        <ele>961.3</ele>
        <time>2026-05-14T13:51:03.000Z</time>
      </trkpt>
      <trkpt lat="44.18736" lon="5.30235">
        <ele>961.3</ele>
        <time>2026-05-14T13:51:04.000Z</time>
      </trkpt>
      <trkpt lat="44.18736" lon="5.30237">
        <ele>961</ele>
        <time>2026-05-14T13:51:05.000Z</time>
      </trkpt>
      <trkpt lat="44.18736" lon="5.30239">
        <ele>961.2</ele>
        <time>2026-05-14T13:51:06.000Z</time>
      </trkpt>
      <trkpt lat="44.18736" lon="5.30241">
        <ele>961.4</ele>
        <time>2026-05-14T13:51:07.000Z</time>
      </trkpt>
      <trkpt lat="44.18736" lon="5.30242">
        <ele>961.3</ele>
        <time>2026-05-14T13:51:08.000Z</time>
      </trkpt>
      <trkpt lat="44.18736" lon="5.30243">
        <ele>961.2</ele>
        <time>2026-05-14T13:51:09.000Z</time>
      </trkpt>
      <trkpt lat="44.18736" lon="5.30244">
        <ele>961.1</ele>
        <time>2026-05-14T13:51:10.000Z</time>
      </trkpt>
      <trkpt lat="44.18737" lon="5.30245">
        <ele>960.7</ele>
        <time>2026-05-14T13:51:11.000Z</time>
      </trkpt>
      <trkpt lat="44.18737" lon="5.30247">
        <ele>960.3</ele>
        <time>2026-05-14T13:51:12.000Z</time>
      </trkpt>
      <trkpt lat="44.18738" lon="5.30248">
        <ele>960.1</ele>
        <time>2026-05-14T13:51:13.000Z</time>
      </trkpt>
      <trkpt lat="44.18738" lon="5.3025">
        <ele>960.3</ele>
        <time>2026-05-14T13:51:14.000Z</time>
      </trkpt>
      <trkpt lat="44.18739" lon="5.30252">
        <ele>960.8</ele>
        <time>2026-05-14T13:51:15.000Z</time>
      </trkpt>
      <trkpt lat="44.18739" lon="5.30254">
        <ele>961.2</ele>
        <time>2026-05-14T13:51:16.000Z</time>
      </trkpt>
      <trkpt lat="44.1874" lon="5.30255">
        <ele>961.4</ele>
        <time>2026-05-14T13:51:17.000Z</time>
      </trkpt>
      <trkpt lat="44.18741" lon="5.30257">
        <ele>961.1</ele>
        <time>2026-05-14T13:51:18.000Z</time>
      </trkpt>
      <trkpt lat="44.18741" lon="5.30258">
        <ele>960.7</ele>
        <time>2026-05-14T13:51:19.000Z</time>
      </trkpt>
      <trkpt lat="44.18741" lon="5.3026">
        <ele>960.6</ele>
        <time>2026-05-14T13:51:20.000Z</time>
      </trkpt>
      <trkpt lat="44.18741" lon="5.30261">
        <ele>960.6</ele>
        <time>2026-05-14T13:51:21.000Z</time>
      </trkpt>
      <trkpt lat="44.18741" lon="5.30263">
        <ele>960.6</ele>
        <time>2026-05-14T13:51:22.000Z</time>
      </trkpt>
      <trkpt lat="44.1874" lon="5.30265">
        <ele>960.5</ele>
        <time>2026-05-14T13:51:23.000Z</time>
      </trkpt>
      <trkpt lat="44.18741" lon="5.30267">
        <ele>960.5</ele>
        <time>2026-05-14T13:51:24.000Z</time>
      </trkpt>
      <trkpt lat="44.18741" lon="5.30267">
        <ele>960.5</ele>
        <time>2026-05-14T13:51:25.000Z</time>
      </trkpt>
      <trkpt lat="44.18741" lon="5.30268">
        <ele>960.5</ele>
        <time>2026-05-14T13:51:26.000Z</time>
      </trkpt>
      <trkpt lat="44.18742" lon="5.30269">
        <ele>960.8</ele>
        <time>2026-05-14T13:51:27.000Z</time>
      </trkpt>
      <trkpt lat="44.18742" lon="5.30269">
        <ele>961</ele>
        <time>2026-05-14T13:51:28.000Z</time>
      </trkpt>
      <trkpt lat="44.18743" lon="5.30271">
        <ele>960.9</ele>
        <time>2026-05-14T13:51:29.000Z</time>
      </trkpt>
      <trkpt lat="44.18743" lon="5.30272">
        <ele>961.2</ele>
        <time>2026-05-14T13:51:30.000Z</time>
      </trkpt>
      <trkpt lat="44.18742" lon="5.30273">
        <ele>961.5</ele>
        <time>2026-05-14T13:51:31.000Z</time>
      </trkpt>
      <trkpt lat="44.18742" lon="5.30274">
        <ele>961.4</ele>
        <time>2026-05-14T13:51:32.000Z</time>
      </trkpt>
      <trkpt lat="44.18743" lon="5.30275">
        <ele>961.2</ele>
        <time>2026-05-14T13:51:33.000Z</time>
      </trkpt>
      <trkpt lat="44.18743" lon="5.30277">
        <ele>960.9</ele>
        <time>2026-05-14T13:51:34.000Z</time>
      </trkpt>
      <trkpt lat="44.18744" lon="5.30279">
        <ele>960.8</ele>
        <time>2026-05-14T13:51:35.000Z</time>
      </trkpt>
      <trkpt lat="44.18744" lon="5.3028">
        <ele>960.6</ele>
        <time>2026-05-14T13:51:36.000Z</time>
      </trkpt>
      <trkpt lat="44.18744" lon="5.30279">
        <ele>960.4</ele>
        <time>2026-05-14T13:51:37.000Z</time>
      </trkpt>
      <trkpt lat="44.18744" lon="5.3028">
        <ele>960.6</ele>
        <time>2026-05-14T13:51:38.000Z</time>
      </trkpt>
      <trkpt lat="44.18744" lon="5.30281">
        <ele>960.7</ele>
        <time>2026-05-14T13:51:39.000Z</time>
      </trkpt>
      <trkpt lat="44.18744" lon="5.30283">
        <ele>960.6</ele>
        <time>2026-05-14T13:51:40.000Z</time>
      </trkpt>
      <trkpt lat="44.18744" lon="5.30283">
        <ele>960.4</ele>
        <time>2026-05-14T13:51:41.000Z</time>
      </trkpt>
      <trkpt lat="44.18743" lon="5.30284">
        <ele>960.6</ele>
        <time>2026-05-14T13:51:42.000Z</time>
      </trkpt>
      <trkpt lat="44.18743" lon="5.30284">
        <ele>960.5</ele>
        <time>2026-05-14T13:51:43.000Z</time>
      </trkpt>
      <trkpt lat="44.18743" lon="5.30284">
        <ele>960.5</ele>
        <time>2026-05-14T13:51:44.000Z</time>
      </trkpt>
      <trkpt lat="44.18743" lon="5.30284">
        <ele>961.3</ele>
        <time>2026-05-14T13:51:45.000Z</time>
      </trkpt>
      <trkpt lat="44.18743" lon="5.30284">
        <ele>961.3</ele>
        <time>2026-05-14T13:51:46.000Z</time>
      </trkpt>
      <trkpt lat="44.18743" lon="5.30283">
        <ele>961.5</ele>
        <time>2026-05-14T13:51:47.000Z</time>
      </trkpt>
      <trkpt lat="44.18743" lon="5.30283">
        <ele>961.3</ele>
        <time>2026-05-14T13:51:48.000Z</time>
      </trkpt>
      <trkpt lat="44.18743" lon="5.30283">
        <ele>961.1</ele>
        <time>2026-05-14T13:51:49.000Z</time>
      </trkpt>
      <trkpt lat="44.18743" lon="5.30283">
        <ele>960.9</ele>
        <time>2026-05-14T13:51:50.000Z</time>
      </trkpt>
      <trkpt lat="44.18743" lon="5.30283">
        <ele>961</ele>
        <time>2026-05-14T13:51:51.000Z</time>
      </trkpt>
      <trkpt lat="44.18743" lon="5.30283">
        <ele>961</ele>
        <time>2026-05-14T13:51:52.000Z</time>
      </trkpt>
      <trkpt lat="44.18743" lon="5.30283">
        <ele>961</ele>
        <time>2026-05-14T13:51:53.000Z</time>
      </trkpt>
      <trkpt lat="44.18743" lon="5.30283">
        <ele>961</ele>
        <time>2026-05-14T13:51:54.000Z</time>
      </trkpt>
      <trkpt lat="44.18743" lon="5.30282">
        <ele>960.6</ele>
        <time>2026-05-14T13:51:55.000Z</time>
      </trkpt>
      <trkpt lat="44.18743" lon="5.30282">
        <ele>960.4</ele>
        <time>2026-05-14T13:51:56.000Z</time>
      </trkpt>
      <trkpt lat="44.18743" lon="5.30282">
        <ele>960.1</ele>
        <time>2026-05-14T13:51:57.000Z</time>
      </trkpt>
      <trkpt lat="44.18743" lon="5.30282">
        <ele>959.8</ele>
        <time>2026-05-14T13:51:58.000Z</time>
      </trkpt>
      <trkpt lat="44.18743" lon="5.30282">
        <ele>959.8</ele>
        <time>2026-05-14T13:51:59.000Z</time>
      </trkpt>
      <trkpt lat="44.18742" lon="5.30282">
        <ele>959.6</ele>
        <time>2026-05-14T13:52:00.000Z</time>
      </trkpt>
      <trkpt lat="44.18742" lon="5.30282">
        <ele>959.8</ele>
        <time>2026-05-14T13:52:01.000Z</time>
      </trkpt>
      <trkpt lat="44.18742" lon="5.30282">
        <ele>959.9</ele>
        <time>2026-05-14T13:52:02.000Z</time>
      </trkpt>
      <trkpt lat="44.18742" lon="5.30282">
        <ele>959.8</ele>
        <time>2026-05-14T13:52:03.000Z</time>
      </trkpt>
      <trkpt lat="44.18742" lon="5.30282">
        <ele>959.5</ele>
        <time>2026-05-14T13:52:04.000Z</time>
      </trkpt>
      <trkpt lat="44.18742" lon="5.30282">
        <ele>959.8</ele>
        <time>2026-05-14T13:52:05.000Z</time>
      </trkpt>
      <trkpt lat="44.18742" lon="5.30282">
        <ele>959.8</ele>
        <time>2026-05-14T13:52:06.000Z</time>
      </trkpt>
      <trkpt lat="44.18742" lon="5.30281">
        <ele>960.3</ele>
        <time>2026-05-14T13:52:07.000Z</time>
      </trkpt>
      <trkpt lat="44.18742" lon="5.30281">
        <ele>960.7</ele>
        <time>2026-05-14T13:52:08.000Z</time>
      </trkpt>
      <trkpt lat="44.18742" lon="5.30281">
        <ele>961</ele>
        <time>2026-05-14T13:52:09.000Z</time>
      </trkpt>
      <trkpt lat="44.18742" lon="5.30281">
        <ele>961.7</ele>
        <time>2026-05-14T13:52:10.000Z</time>
      </trkpt>
      <trkpt lat="44.18742" lon="5.30281">
        <ele>962.1</ele>
        <time>2026-05-14T13:52:11.000Z</time>
      </trkpt>
      <trkpt lat="44.18742" lon="5.30281">
        <ele>962.5</ele>
        <time>2026-05-14T13:52:12.000Z</time>
      </trkpt>
      <trkpt lat="44.18742" lon="5.30281">
        <ele>962.9</ele>
        <time>2026-05-14T13:52:13.000Z</time>
      </trkpt>
      <trkpt lat="44.18742" lon="5.30281">
        <ele>963.5</ele>
        <time>2026-05-14T13:52:14.000Z</time>
      </trkpt>
      <trkpt lat="44.18742" lon="5.30281">
        <ele>963.9</ele>
        <time>2026-05-14T13:52:15.000Z</time>
      </trkpt>
      <trkpt lat="44.18742" lon="5.30281">
        <ele>964.3</ele>
        <time>2026-05-14T13:52:16.000Z</time>
      </trkpt>
      <trkpt lat="44.18742" lon="5.3028">
        <ele>964.6</ele>
        <time>2026-05-14T13:52:17.000Z</time>
      </trkpt>
      <trkpt lat="44.18742" lon="5.3028">
        <ele>964.9</ele>
        <time>2026-05-14T13:52:18.000Z</time>
      </trkpt>
      <trkpt lat="44.18742" lon="5.3028">
        <ele>965.1</ele>
        <time>2026-05-14T13:52:19.000Z</time>
      </trkpt>
      <trkpt lat="44.18742" lon="5.30281">
        <ele>965.1</ele>
        <time>2026-05-14T13:52:20.000Z</time>
      </trkpt>
      <trkpt lat="44.18742" lon="5.30282">
        <ele>965</ele>
        <time>2026-05-14T13:52:21.000Z</time>
      </trkpt>
      <trkpt lat="44.18743" lon="5.30284">
        <ele>964.9</ele>
        <time>2026-05-14T13:52:22.000Z</time>
      </trkpt>
      <trkpt lat="44.18744" lon="5.30287">
        <ele>964.5</ele>
        <time>2026-05-14T13:52:23.000Z</time>
      </trkpt>
      <trkpt lat="44.18744" lon="5.3029">
        <ele>964</ele>
        <time>2026-05-14T13:52:24.000Z</time>
      </trkpt>
      <trkpt lat="44.18744" lon="5.30293">
        <ele>963.3</ele>
        <time>2026-05-14T13:52:25.000Z</time>
      </trkpt>
      <trkpt lat="44.18744" lon="5.30295">
        <ele>963.2</ele>
        <time>2026-05-14T13:52:26.000Z</time>
      </trkpt>
      <trkpt lat="44.18744" lon="5.30297">
        <ele>962.7</ele>
        <time>2026-05-14T13:52:27.000Z</time>
      </trkpt>
      <trkpt lat="44.18744" lon="5.30298">
        <ele>962.5</ele>
        <time>2026-05-14T13:52:28.000Z</time>
      </trkpt>
      <trkpt lat="44.18744" lon="5.303">
        <ele>962.8</ele>
        <time>2026-05-14T13:52:29.000Z</time>
      </trkpt>
      <trkpt lat="44.18744" lon="5.30301">
        <ele>962.8</ele>
        <time>2026-05-14T13:52:30.000Z</time>
      </trkpt>
      <trkpt lat="44.18745" lon="5.30303">
        <ele>962.8</ele>
        <time>2026-05-14T13:52:31.000Z</time>
      </trkpt>
      <trkpt lat="44.18745" lon="5.30304">
        <ele>962.1</ele>
        <time>2026-05-14T13:52:32.000Z</time>
      </trkpt>
      <trkpt lat="44.18745" lon="5.30306">
        <ele>961.7</ele>
        <time>2026-05-14T13:52:33.000Z</time>
      </trkpt>
      <trkpt lat="44.18746" lon="5.30308">
        <ele>961.6</ele>
        <time>2026-05-14T13:52:34.000Z</time>
      </trkpt>
      <trkpt lat="44.18746" lon="5.30308">
        <ele>961.7</ele>
        <time>2026-05-14T13:52:35.000Z</time>
      </trkpt>
      <trkpt lat="44.18747" lon="5.30309">
        <ele>961.7</ele>
        <time>2026-05-14T13:52:36.000Z</time>
      </trkpt>
      <trkpt lat="44.18748" lon="5.30311">
        <ele>961.8</ele>
        <time>2026-05-14T13:52:37.000Z</time>
      </trkpt>
      <trkpt lat="44.18749" lon="5.30313">
        <ele>961.8</ele>
        <time>2026-05-14T13:52:38.000Z</time>
      </trkpt>
      <trkpt lat="44.18749" lon="5.30314">
        <ele>961.5</ele>
        <time>2026-05-14T13:52:39.000Z</time>
      </trkpt>
      <trkpt lat="44.1875" lon="5.30315">
        <ele>961.2</ele>
        <time>2026-05-14T13:52:40.000Z</time>
      </trkpt>
      <trkpt lat="44.1875" lon="5.30316">
        <ele>961.1</ele>
        <time>2026-05-14T13:52:41.000Z</time>
      </trkpt>
      <trkpt lat="44.18751" lon="5.30317">
        <ele>960.6</ele>
        <time>2026-05-14T13:52:42.000Z</time>
      </trkpt>
      <trkpt lat="44.18751" lon="5.30317">
        <ele>960.1</ele>
        <time>2026-05-14T13:52:43.000Z</time>
      </trkpt>
      <trkpt lat="44.18751" lon="5.30317">
        <ele>959.7</ele>
        <time>2026-05-14T13:52:44.000Z</time>
      </trkpt>
      <trkpt lat="44.18752" lon="5.30318">
        <ele>959.2</ele>
        <time>2026-05-14T13:52:45.000Z</time>
      </trkpt>
      <trkpt lat="44.18753" lon="5.3032">
        <ele>959.1</ele>
        <time>2026-05-14T13:52:46.000Z</time>
      </trkpt>
      <trkpt lat="44.18754" lon="5.30323">
        <ele>959.6</ele>
        <time>2026-05-14T13:52:47.000Z</time>
      </trkpt>
      <trkpt lat="44.18754" lon="5.30325">
        <ele>959.6</ele>
        <time>2026-05-14T13:52:48.000Z</time>
      </trkpt>
      <trkpt lat="44.18756" lon="5.30327">
        <ele>959.8</ele>
        <time>2026-05-14T13:52:49.000Z</time>
      </trkpt>
      <trkpt lat="44.18756" lon="5.30329">
        <ele>959.6</ele>
        <time>2026-05-14T13:52:50.000Z</time>
      </trkpt>
      <trkpt lat="44.18757" lon="5.30331">
        <ele>959.6</ele>
        <time>2026-05-14T13:52:51.000Z</time>
      </trkpt>
      <trkpt lat="44.18758" lon="5.30333">
        <ele>959.8</ele>
        <time>2026-05-14T13:52:52.000Z</time>
      </trkpt>
      <trkpt lat="44.18759" lon="5.30335">
        <ele>959.5</ele>
        <time>2026-05-14T13:52:53.000Z</time>
      </trkpt>
      <trkpt lat="44.18759" lon="5.30337">
        <ele>959.7</ele>
        <time>2026-05-14T13:52:54.000Z</time>
      </trkpt>
      <trkpt lat="44.18759" lon="5.30339">
        <ele>959.9</ele>
        <time>2026-05-14T13:52:55.000Z</time>
      </trkpt>
      <trkpt lat="44.1876" lon="5.30341">
        <ele>959.7</ele>
        <time>2026-05-14T13:52:56.000Z</time>
      </trkpt>
      <trkpt lat="44.1876" lon="5.30343">
        <ele>959.8</ele>
        <time>2026-05-14T13:52:57.000Z</time>
      </trkpt>
      <trkpt lat="44.1876" lon="5.30346">
        <ele>960</ele>
        <time>2026-05-14T13:52:58.000Z</time>
      </trkpt>
      <trkpt lat="44.18761" lon="5.30348">
        <ele>960.1</ele>
        <time>2026-05-14T13:52:59.000Z</time>
      </trkpt>
      <trkpt lat="44.18761" lon="5.3035">
        <ele>960.4</ele>
        <time>2026-05-14T13:53:00.000Z</time>
      </trkpt>
      <trkpt lat="44.18761" lon="5.30352">
        <ele>960.1</ele>
        <time>2026-05-14T13:53:01.000Z</time>
      </trkpt>
      <trkpt lat="44.18762" lon="5.30353">
        <ele>959.9</ele>
        <time>2026-05-14T13:53:02.000Z</time>
      </trkpt>
      <trkpt lat="44.18762" lon="5.30355">
        <ele>959.9</ele>
        <time>2026-05-14T13:53:03.000Z</time>
      </trkpt>
      <trkpt lat="44.18763" lon="5.30357">
        <ele>960</ele>
        <time>2026-05-14T13:53:04.000Z</time>
      </trkpt>
      <trkpt lat="44.18764" lon="5.30359">
        <ele>960.1</ele>
        <time>2026-05-14T13:53:05.000Z</time>
      </trkpt>
      <trkpt lat="44.18764" lon="5.30361">
        <ele>960.5</ele>
        <time>2026-05-14T13:53:06.000Z</time>
      </trkpt>
      <trkpt lat="44.18765" lon="5.30362">
        <ele>960.9</ele>
        <time>2026-05-14T13:53:07.000Z</time>
      </trkpt>
      <trkpt lat="44.18766" lon="5.30364">
        <ele>961.3</ele>
        <time>2026-05-14T13:53:08.000Z</time>
      </trkpt>
      <trkpt lat="44.18767" lon="5.30365">
        <ele>961.4</ele>
        <time>2026-05-14T13:53:09.000Z</time>
      </trkpt>
      <trkpt lat="44.18767" lon="5.30366">
        <ele>961.3</ele>
        <time>2026-05-14T13:53:10.000Z</time>
      </trkpt>
      <trkpt lat="44.18767" lon="5.30367">
        <ele>961</ele>
        <time>2026-05-14T13:53:11.000Z</time>
      </trkpt>
      <trkpt lat="44.18767" lon="5.30368">
        <ele>960.5</ele>
        <time>2026-05-14T13:53:12.000Z</time>
      </trkpt>
      <trkpt lat="44.18767" lon="5.30369">
        <ele>959.7</ele>
        <time>2026-05-14T13:53:13.000Z</time>
      </trkpt>
      <trkpt lat="44.18767" lon="5.30371">
        <ele>959.1</ele>
        <time>2026-05-14T13:53:14.000Z</time>
      </trkpt>
      <trkpt lat="44.18767" lon="5.30372">
        <ele>958.9</ele>
        <time>2026-05-14T13:53:15.000Z</time>
      </trkpt>
      <trkpt lat="44.18768" lon="5.30374">
        <ele>959.1</ele>
        <time>2026-05-14T13:53:16.000Z</time>
      </trkpt>
      <trkpt lat="44.18769" lon="5.30375">
        <ele>959.6</ele>
        <time>2026-05-14T13:53:17.000Z</time>
      </trkpt>
      <trkpt lat="44.1877" lon="5.30377">
        <ele>959.9</ele>
        <time>2026-05-14T13:53:18.000Z</time>
      </trkpt>
      <trkpt lat="44.18772" lon="5.30379">
        <ele>959.9</ele>
        <time>2026-05-14T13:53:19.000Z</time>
      </trkpt>
      <trkpt lat="44.18772" lon="5.30382">
        <ele>959.5</ele>
        <time>2026-05-14T13:53:20.000Z</time>
      </trkpt>
      <trkpt lat="44.18772" lon="5.30384">
        <ele>959.4</ele>
        <time>2026-05-14T13:53:21.000Z</time>
      </trkpt>
      <trkpt lat="44.18773" lon="5.30387">
        <ele>959.4</ele>
        <time>2026-05-14T13:53:22.000Z</time>
      </trkpt>
      <trkpt lat="44.18773" lon="5.30388">
        <ele>959.1</ele>
        <time>2026-05-14T13:53:23.000Z</time>
      </trkpt>
      <trkpt lat="44.18773" lon="5.30389">
        <ele>959.1</ele>
        <time>2026-05-14T13:53:24.000Z</time>
      </trkpt>
      <trkpt lat="44.18774" lon="5.30391">
        <ele>958.7</ele>
        <time>2026-05-14T13:53:25.000Z</time>
      </trkpt>
      <trkpt lat="44.18773" lon="5.30393">
        <ele>958.3</ele>
        <time>2026-05-14T13:53:26.000Z</time>
      </trkpt>
      <trkpt lat="44.18774" lon="5.30395">
        <ele>957.9</ele>
        <time>2026-05-14T13:53:27.000Z</time>
      </trkpt>
      <trkpt lat="44.18774" lon="5.30397">
        <ele>957.8</ele>
        <time>2026-05-14T13:53:28.000Z</time>
      </trkpt>
      <trkpt lat="44.18775" lon="5.30399">
        <ele>957.3</ele>
        <time>2026-05-14T13:53:29.000Z</time>
      </trkpt>
      <trkpt lat="44.18776" lon="5.304">
        <ele>956.8</ele>
        <time>2026-05-14T13:53:30.000Z</time>
      </trkpt>
      <trkpt lat="44.18776" lon="5.30402">
        <ele>956.5</ele>
        <time>2026-05-14T13:53:31.000Z</time>
      </trkpt>
      <trkpt lat="44.18777" lon="5.30403">
        <ele>956.6</ele>
        <time>2026-05-14T13:53:32.000Z</time>
      </trkpt>
      <trkpt lat="44.18778" lon="5.30406">
        <ele>956.7</ele>
        <time>2026-05-14T13:53:33.000Z</time>
      </trkpt>
      <trkpt lat="44.18779" lon="5.30408">
        <ele>956.9</ele>
        <time>2026-05-14T13:53:34.000Z</time>
      </trkpt>
      <trkpt lat="44.1878" lon="5.3041">
        <ele>957.2</ele>
        <time>2026-05-14T13:53:35.000Z</time>
      </trkpt>
      <trkpt lat="44.18781" lon="5.30413">
        <ele>957.4</ele>
        <time>2026-05-14T13:53:36.000Z</time>
      </trkpt>
      <trkpt lat="44.18782" lon="5.30415">
        <ele>957.5</ele>
        <time>2026-05-14T13:53:37.000Z</time>
      </trkpt>
      <trkpt lat="44.18783" lon="5.30417">
        <ele>957.8</ele>
        <time>2026-05-14T13:53:38.000Z</time>
      </trkpt>
      <trkpt lat="44.18784" lon="5.30419">
        <ele>957.8</ele>
        <time>2026-05-14T13:53:39.000Z</time>
      </trkpt>
      <trkpt lat="44.18784" lon="5.3042">
        <ele>957.9</ele>
        <time>2026-05-14T13:53:40.000Z</time>
      </trkpt>
      <trkpt lat="44.18785" lon="5.30422">
        <ele>957.6</ele>
        <time>2026-05-14T13:53:41.000Z</time>
      </trkpt>
      <trkpt lat="44.18785" lon="5.30425">
        <ele>957.7</ele>
        <time>2026-05-14T13:53:42.000Z</time>
      </trkpt>
      <trkpt lat="44.18784" lon="5.30427">
        <ele>958</ele>
        <time>2026-05-14T13:53:43.000Z</time>
      </trkpt>
      <trkpt lat="44.18784" lon="5.30429">
        <ele>958.1</ele>
        <time>2026-05-14T13:53:44.000Z</time>
      </trkpt>
      <trkpt lat="44.18784" lon="5.30431">
        <ele>958.3</ele>
        <time>2026-05-14T13:53:45.000Z</time>
      </trkpt>
      <trkpt lat="44.18784" lon="5.30432">
        <ele>958.5</ele>
        <time>2026-05-14T13:53:46.000Z</time>
      </trkpt>
      <trkpt lat="44.18784" lon="5.30433">
        <ele>958.7</ele>
        <time>2026-05-14T13:53:47.000Z</time>
      </trkpt>
      <trkpt lat="44.18784" lon="5.30434">
        <ele>959.1</ele>
        <time>2026-05-14T13:53:48.000Z</time>
      </trkpt>
      <trkpt lat="44.18784" lon="5.30436">
        <ele>959.2</ele>
        <time>2026-05-14T13:53:49.000Z</time>
      </trkpt>
      <trkpt lat="44.18784" lon="5.30438">
        <ele>959.3</ele>
        <time>2026-05-14T13:53:50.000Z</time>
      </trkpt>
      <trkpt lat="44.18784" lon="5.3044">
        <ele>959.3</ele>
        <time>2026-05-14T13:53:51.000Z</time>
      </trkpt>
      <trkpt lat="44.18784" lon="5.30442">
        <ele>959</ele>
        <time>2026-05-14T13:53:52.000Z</time>
      </trkpt>
      <trkpt lat="44.18785" lon="5.30444">
        <ele>958.9</ele>
        <time>2026-05-14T13:53:53.000Z</time>
      </trkpt>
      <trkpt lat="44.18785" lon="5.30446">
        <ele>958.9</ele>
        <time>2026-05-14T13:53:54.000Z</time>
      </trkpt>
      <trkpt lat="44.18786" lon="5.30448">
        <ele>958.5</ele>
        <time>2026-05-14T13:53:55.000Z</time>
      </trkpt>
      <trkpt lat="44.18786" lon="5.3045">
        <ele>958.4</ele>
        <time>2026-05-14T13:53:56.000Z</time>
      </trkpt>
      <trkpt lat="44.18787" lon="5.30453">
        <ele>958.3</ele>
        <time>2026-05-14T13:53:57.000Z</time>
      </trkpt>
      <trkpt lat="44.18788" lon="5.30454">
        <ele>958.6</ele>
        <time>2026-05-14T13:53:58.000Z</time>
      </trkpt>
      <trkpt lat="44.18789" lon="5.30456">
        <ele>958.4</ele>
        <time>2026-05-14T13:53:59.000Z</time>
      </trkpt>
      <trkpt lat="44.18789" lon="5.30458">
        <ele>958.3</ele>
        <time>2026-05-14T13:54:00.000Z</time>
      </trkpt>
      <trkpt lat="44.1879" lon="5.30459">
        <ele>958.5</ele>
        <time>2026-05-14T13:54:01.000Z</time>
      </trkpt>
      <trkpt lat="44.18789" lon="5.30461">
        <ele>958.3</ele>
        <time>2026-05-14T13:54:02.000Z</time>
      </trkpt>
      <trkpt lat="44.18789" lon="5.30462">
        <ele>958.4</ele>
        <time>2026-05-14T13:54:03.000Z</time>
      </trkpt>
      <trkpt lat="44.18787" lon="5.30463">
        <ele>958.5</ele>
        <time>2026-05-14T13:54:04.000Z</time>
      </trkpt>
      <trkpt lat="44.18787" lon="5.30464">
        <ele>958.2</ele>
        <time>2026-05-14T13:54:05.000Z</time>
      </trkpt>
      <trkpt lat="44.18786" lon="5.30465">
        <ele>958</ele>
        <time>2026-05-14T13:54:06.000Z</time>
      </trkpt>
      <trkpt lat="44.18786" lon="5.30466">
        <ele>957.8</ele>
        <time>2026-05-14T13:54:07.000Z</time>
      </trkpt>
      <trkpt lat="44.18785" lon="5.30468">
        <ele>957.3</ele>
        <time>2026-05-14T13:54:08.000Z</time>
      </trkpt>
      <trkpt lat="44.18784" lon="5.30469">
        <ele>957</ele>
        <time>2026-05-14T13:54:09.000Z</time>
      </trkpt>
      <trkpt lat="44.18784" lon="5.30471">
        <ele>956.8</ele>
        <time>2026-05-14T13:54:10.000Z</time>
      </trkpt>
      <trkpt lat="44.18783" lon="5.30473">
        <ele>956.8</ele>
        <time>2026-05-14T13:54:11.000Z</time>
      </trkpt>
      <trkpt lat="44.18782" lon="5.30476">
        <ele>957</ele>
        <time>2026-05-14T13:54:12.000Z</time>
      </trkpt>
      <trkpt lat="44.18781" lon="5.30478">
        <ele>957.2</ele>
        <time>2026-05-14T13:54:13.000Z</time>
      </trkpt>
      <trkpt lat="44.18781" lon="5.30481">
        <ele>957.6</ele>
        <time>2026-05-14T13:54:14.000Z</time>
      </trkpt>
      <trkpt lat="44.18781" lon="5.30484">
        <ele>958</ele>
        <time>2026-05-14T13:54:15.000Z</time>
      </trkpt>
      <trkpt lat="44.18781" lon="5.30486">
        <ele>958.3</ele>
        <time>2026-05-14T13:54:16.000Z</time>
      </trkpt>
      <trkpt lat="44.18781" lon="5.30488">
        <ele>958.3</ele>
        <time>2026-05-14T13:54:17.000Z</time>
      </trkpt>
      <trkpt lat="44.1878" lon="5.3049">
        <ele>958.4</ele>
        <time>2026-05-14T13:54:18.000Z</time>
      </trkpt>
      <trkpt lat="44.1878" lon="5.30491">
        <ele>958.6</ele>
        <time>2026-05-14T13:54:19.000Z</time>
      </trkpt>
      <trkpt lat="44.18779" lon="5.30492">
        <ele>958.5</ele>
        <time>2026-05-14T13:54:20.000Z</time>
      </trkpt>
      <trkpt lat="44.18778" lon="5.30493">
        <ele>958.6</ele>
        <time>2026-05-14T13:54:21.000Z</time>
      </trkpt>
      <trkpt lat="44.18778" lon="5.30494">
        <ele>958.3</ele>
        <time>2026-05-14T13:54:22.000Z</time>
      </trkpt>
      <trkpt lat="44.18777" lon="5.30495">
        <ele>958.1</ele>
        <time>2026-05-14T13:54:23.000Z</time>
      </trkpt>
      <trkpt lat="44.18777" lon="5.30496">
        <ele>958</ele>
        <time>2026-05-14T13:54:24.000Z</time>
      </trkpt>
      <trkpt lat="44.18776" lon="5.30498">
        <ele>958.6</ele>
        <time>2026-05-14T13:54:25.000Z</time>
      </trkpt>
      <trkpt lat="44.18776" lon="5.305">
        <ele>958.6</ele>
        <time>2026-05-14T13:54:26.000Z</time>
      </trkpt>
      <trkpt lat="44.18776" lon="5.30502">
        <ele>958.5</ele>
        <time>2026-05-14T13:54:27.000Z</time>
      </trkpt>
      <trkpt lat="44.18776" lon="5.30502">
        <ele>958.6</ele>
        <time>2026-05-14T13:54:28.000Z</time>
      </trkpt>
      <trkpt lat="44.18776" lon="5.30504">
        <ele>958.2</ele>
        <time>2026-05-14T13:54:29.000Z</time>
      </trkpt>
      <trkpt lat="44.18775" lon="5.30505">
        <ele>957.6</ele>
        <time>2026-05-14T13:54:30.000Z</time>
      </trkpt>
      <trkpt lat="44.18775" lon="5.30506">
        <ele>957.3</ele>
        <time>2026-05-14T13:54:31.000Z</time>
      </trkpt>
      <trkpt lat="44.18775" lon="5.30507">
        <ele>957.1</ele>
        <time>2026-05-14T13:54:32.000Z</time>
      </trkpt>
      <trkpt lat="44.18774" lon="5.30508">
        <ele>956.8</ele>
        <time>2026-05-14T13:54:33.000Z</time>
      </trkpt>
      <trkpt lat="44.18774" lon="5.30509">
        <ele>956.2</ele>
        <time>2026-05-14T13:54:34.000Z</time>
      </trkpt>
      <trkpt lat="44.18774" lon="5.3051">
        <ele>956</ele>
        <time>2026-05-14T13:54:35.000Z</time>
      </trkpt>
      <trkpt lat="44.18775" lon="5.30511">
        <ele>956</ele>
        <time>2026-05-14T13:54:36.000Z</time>
      </trkpt>
      <trkpt lat="44.18774" lon="5.30511">
        <ele>955.7</ele>
        <time>2026-05-14T13:54:37.000Z</time>
      </trkpt>
      <trkpt lat="44.18774" lon="5.30511">
        <ele>955.5</ele>
        <time>2026-05-14T13:54:38.000Z</time>
      </trkpt>
      <trkpt lat="44.18773" lon="5.30513">
        <ele>955.3</ele>
        <time>2026-05-14T13:54:39.000Z</time>
      </trkpt>
      <trkpt lat="44.18773" lon="5.30515">
        <ele>954.6</ele>
        <time>2026-05-14T13:54:40.000Z</time>
      </trkpt>
      <trkpt lat="44.18773" lon="5.30516">
        <ele>954.3</ele>
        <time>2026-05-14T13:54:41.000Z</time>
      </trkpt>
      <trkpt lat="44.18773" lon="5.30518">
        <ele>954.3</ele>
        <time>2026-05-14T13:54:42.000Z</time>
      </trkpt>
      <trkpt lat="44.18773" lon="5.3052">
        <ele>954.1</ele>
        <time>2026-05-14T13:54:43.000Z</time>
      </trkpt>
      <trkpt lat="44.18773" lon="5.30521">
        <ele>953.8</ele>
        <time>2026-05-14T13:54:44.000Z</time>
      </trkpt>
      <trkpt lat="44.18772" lon="5.30522">
        <ele>953.4</ele>
        <time>2026-05-14T13:54:45.000Z</time>
      </trkpt>
      <trkpt lat="44.18771" lon="5.30524">
        <ele>952.8</ele>
        <time>2026-05-14T13:54:46.000Z</time>
      </trkpt>
      <trkpt lat="44.18771" lon="5.30526">
        <ele>952.5</ele>
        <time>2026-05-14T13:54:47.000Z</time>
      </trkpt>
      <trkpt lat="44.18771" lon="5.30527">
        <ele>952.5</ele>
        <time>2026-05-14T13:54:48.000Z</time>
      </trkpt>
      <trkpt lat="44.18772" lon="5.30527">
        <ele>951.9</ele>
        <time>2026-05-14T13:54:49.000Z</time>
      </trkpt>
      <trkpt lat="44.18772" lon="5.30527">
        <ele>951.7</ele>
        <time>2026-05-14T13:54:50.000Z</time>
      </trkpt>
      <trkpt lat="44.18772" lon="5.30528">
        <ele>951.4</ele>
        <time>2026-05-14T13:54:51.000Z</time>
      </trkpt>
      <trkpt lat="44.18772" lon="5.30529">
        <ele>951.3</ele>
        <time>2026-05-14T13:54:52.000Z</time>
      </trkpt>
      <trkpt lat="44.18771" lon="5.3053">
        <ele>951</ele>
        <time>2026-05-14T13:54:53.000Z</time>
      </trkpt>
      <trkpt lat="44.18771" lon="5.3053">
        <ele>951</ele>
        <time>2026-05-14T13:54:54.000Z</time>
      </trkpt>
      <trkpt lat="44.18771" lon="5.30531">
        <ele>950.8</ele>
        <time>2026-05-14T13:54:55.000Z</time>
      </trkpt>
      <trkpt lat="44.18771" lon="5.30531">
        <ele>950.5</ele>
        <time>2026-05-14T13:54:56.000Z</time>
      </trkpt>
      <trkpt lat="44.18771" lon="5.30531">
        <ele>950.6</ele>
        <time>2026-05-14T13:54:57.000Z</time>
      </trkpt>
      <trkpt lat="44.1877" lon="5.30532">
        <ele>950.5</ele>
        <time>2026-05-14T13:54:58.000Z</time>
      </trkpt>
      <trkpt lat="44.1877" lon="5.30534">
        <ele>950.3</ele>
        <time>2026-05-14T13:54:59.000Z</time>
      </trkpt>
      <trkpt lat="44.1877" lon="5.30535">
        <ele>950.1</ele>
        <time>2026-05-14T13:55:00.000Z</time>
      </trkpt>
      <trkpt lat="44.1877" lon="5.30537">
        <ele>949.6</ele>
        <time>2026-05-14T13:55:01.000Z</time>
      </trkpt>
      <trkpt lat="44.1877" lon="5.30539">
        <ele>949.4</ele>
        <time>2026-05-14T13:55:02.000Z</time>
      </trkpt>
      <trkpt lat="44.18769" lon="5.30541">
        <ele>949.3</ele>
        <time>2026-05-14T13:55:03.000Z</time>
      </trkpt>
      <trkpt lat="44.18769" lon="5.30542">
        <ele>949.3</ele>
        <time>2026-05-14T13:55:04.000Z</time>
      </trkpt>
      <trkpt lat="44.18769" lon="5.30543">
        <ele>948.7</ele>
        <time>2026-05-14T13:55:05.000Z</time>
      </trkpt>
      <trkpt lat="44.18769" lon="5.30543">
        <ele>948.5</ele>
        <time>2026-05-14T13:55:06.000Z</time>
      </trkpt>
      <trkpt lat="44.18769" lon="5.30544">
        <ele>948.4</ele>
        <time>2026-05-14T13:55:07.000Z</time>
      </trkpt>
      <trkpt lat="44.18769" lon="5.30544">
        <ele>948.4</ele>
        <time>2026-05-14T13:55:08.000Z</time>
      </trkpt>
      <trkpt lat="44.18769" lon="5.30544">
        <ele>948.3</ele>
        <time>2026-05-14T13:55:09.000Z</time>
      </trkpt>
      <trkpt lat="44.18769" lon="5.30544">
        <ele>948</ele>
        <time>2026-05-14T13:55:10.000Z</time>
      </trkpt>
      <trkpt lat="44.18769" lon="5.30544">
        <ele>947.9</ele>
        <time>2026-05-14T13:55:11.000Z</time>
      </trkpt>
      <trkpt lat="44.18769" lon="5.30545">
        <ele>947.6</ele>
        <time>2026-05-14T13:55:12.000Z</time>
      </trkpt>
      <trkpt lat="44.1877" lon="5.30546">
        <ele>947.3</ele>
        <time>2026-05-14T13:55:13.000Z</time>
      </trkpt>
      <trkpt lat="44.18769" lon="5.30548">
        <ele>946.7</ele>
        <time>2026-05-14T13:55:14.000Z</time>
      </trkpt>
      <trkpt lat="44.18769" lon="5.30549">
        <ele>946.7</ele>
        <time>2026-05-14T13:55:15.000Z</time>
      </trkpt>
      <trkpt lat="44.1877" lon="5.30551">
        <ele>946.5</ele>
        <time>2026-05-14T13:55:16.000Z</time>
      </trkpt>
      <trkpt lat="44.1877" lon="5.30552">
        <ele>946.2</ele>
        <time>2026-05-14T13:55:17.000Z</time>
      </trkpt>
      <trkpt lat="44.1877" lon="5.30552">
        <ele>946.4</ele>
        <time>2026-05-14T13:55:18.000Z</time>
      </trkpt>
      <trkpt lat="44.1877" lon="5.30552">
        <ele>946.7</ele>
        <time>2026-05-14T13:55:19.000Z</time>
      </trkpt>
      <trkpt lat="44.18771" lon="5.30553">
        <ele>946.6</ele>
        <time>2026-05-14T13:55:20.000Z</time>
      </trkpt>
      <trkpt lat="44.18771" lon="5.30554">
        <ele>946.5</ele>
        <time>2026-05-14T13:55:21.000Z</time>
      </trkpt>
      <trkpt lat="44.18772" lon="5.30555">
        <ele>946.3</ele>
        <time>2026-05-14T13:55:22.000Z</time>
      </trkpt>
      <trkpt lat="44.18772" lon="5.30556">
        <ele>945.9</ele>
        <time>2026-05-14T13:55:23.000Z</time>
      </trkpt>
      <trkpt lat="44.18772" lon="5.30556">
        <ele>945.3</ele>
        <time>2026-05-14T13:55:24.000Z</time>
      </trkpt>
      <trkpt lat="44.18772" lon="5.30556">
        <ele>944.7</ele>
        <time>2026-05-14T13:55:25.000Z</time>
      </trkpt>
      <trkpt lat="44.18771" lon="5.30557">
        <ele>944.5</ele>
        <time>2026-05-14T13:55:26.000Z</time>
      </trkpt>
      <trkpt lat="44.18771" lon="5.30558">
        <ele>944.1</ele>
        <time>2026-05-14T13:55:27.000Z</time>
      </trkpt>
      <trkpt lat="44.18771" lon="5.30558">
        <ele>943.6</ele>
        <time>2026-05-14T13:55:28.000Z</time>
      </trkpt>
      <trkpt lat="44.1877" lon="5.3056">
        <ele>943.5</ele>
        <time>2026-05-14T13:55:29.000Z</time>
      </trkpt>
      <trkpt lat="44.1877" lon="5.30561">
        <ele>943.3</ele>
        <time>2026-05-14T13:55:30.000Z</time>
      </trkpt>
      <trkpt lat="44.1877" lon="5.30562">
        <ele>942.9</ele>
        <time>2026-05-14T13:55:31.000Z</time>
      </trkpt>
      <trkpt lat="44.18771" lon="5.30563">
        <ele>942.1</ele>
        <time>2026-05-14T13:55:32.000Z</time>
      </trkpt>
      <trkpt lat="44.18771" lon="5.30565">
        <ele>942</ele>
        <time>2026-05-14T13:55:33.000Z</time>
      </trkpt>
      <trkpt lat="44.18771" lon="5.30566">
        <ele>941.8</ele>
        <time>2026-05-14T13:55:34.000Z</time>
      </trkpt>
      <trkpt lat="44.18772" lon="5.30567">
        <ele>941.7</ele>
        <time>2026-05-14T13:55:35.000Z</time>
      </trkpt>
      <trkpt lat="44.18772" lon="5.30568">
        <ele>941.5</ele>
        <time>2026-05-14T13:55:36.000Z</time>
      </trkpt>
      <trkpt lat="44.18772" lon="5.30569">
        <ele>940.7</ele>
        <time>2026-05-14T13:55:37.000Z</time>
      </trkpt>
      <trkpt lat="44.18772" lon="5.3057">
        <ele>940.2</ele>
        <time>2026-05-14T13:55:38.000Z</time>
      </trkpt>
      <trkpt lat="44.18772" lon="5.30571">
        <ele>940.1</ele>
        <time>2026-05-14T13:55:39.000Z</time>
      </trkpt>
      <trkpt lat="44.18772" lon="5.30572">
        <ele>939.8</ele>
        <time>2026-05-14T13:55:40.000Z</time>
      </trkpt>
      <trkpt lat="44.18771" lon="5.30572">
        <ele>939.7</ele>
        <time>2026-05-14T13:55:41.000Z</time>
      </trkpt>
      <trkpt lat="44.18772" lon="5.30573">
        <ele>939.3</ele>
        <time>2026-05-14T13:55:42.000Z</time>
      </trkpt>
      <trkpt lat="44.18772" lon="5.30574">
        <ele>938.6</ele>
        <time>2026-05-14T13:55:43.000Z</time>
      </trkpt>
      <trkpt lat="44.18772" lon="5.30575">
        <ele>938.1</ele>
        <time>2026-05-14T13:55:44.000Z</time>
      </trkpt>
      <trkpt lat="44.18772" lon="5.30576">
        <ele>937.8</ele>
        <time>2026-05-14T13:55:45.000Z</time>
      </trkpt>
      <trkpt lat="44.18772" lon="5.30578">
        <ele>937.6</ele>
        <time>2026-05-14T13:55:46.000Z</time>
      </trkpt>
      <trkpt lat="44.18772" lon="5.30579">
        <ele>937.4</ele>
        <time>2026-05-14T13:55:47.000Z</time>
      </trkpt>
      <trkpt lat="44.18772" lon="5.3058">
        <ele>936.9</ele>
        <time>2026-05-14T13:55:48.000Z</time>
      </trkpt>
      <trkpt lat="44.18772" lon="5.30581">
        <ele>936.6</ele>
        <time>2026-05-14T13:55:49.000Z</time>
      </trkpt>
      <trkpt lat="44.18772" lon="5.30582">
        <ele>936.3</ele>
        <time>2026-05-14T13:55:50.000Z</time>
      </trkpt>
      <trkpt lat="44.18772" lon="5.30583">
        <ele>935.8</ele>
        <time>2026-05-14T13:55:51.000Z</time>
      </trkpt>
      <trkpt lat="44.18772" lon="5.30584">
        <ele>935.7</ele>
        <time>2026-05-14T13:55:52.000Z</time>
      </trkpt>
      <trkpt lat="44.18771" lon="5.30585">
        <ele>935.7</ele>
        <time>2026-05-14T13:55:53.000Z</time>
      </trkpt>
      <trkpt lat="44.18771" lon="5.30586">
        <ele>936.2</ele>
        <time>2026-05-14T13:55:54.000Z</time>
      </trkpt>
      <trkpt lat="44.18771" lon="5.30586">
        <ele>936.3</ele>
        <time>2026-05-14T13:55:55.000Z</time>
      </trkpt>
      <trkpt lat="44.18771" lon="5.30587">
        <ele>936</ele>
        <time>2026-05-14T13:55:56.000Z</time>
      </trkpt>
      <trkpt lat="44.18771" lon="5.30589">
        <ele>935.8</ele>
        <time>2026-05-14T13:55:57.000Z</time>
      </trkpt>
      <trkpt lat="44.18771" lon="5.30589">
        <ele>935.5</ele>
        <time>2026-05-14T13:55:58.000Z</time>
      </trkpt>
      <trkpt lat="44.18771" lon="5.30589">
        <ele>935.3</ele>
        <time>2026-05-14T13:55:59.000Z</time>
      </trkpt>
      <trkpt lat="44.18771" lon="5.30589">
        <ele>935.1</ele>
        <time>2026-05-14T13:56:00.000Z</time>
      </trkpt>
      <trkpt lat="44.18771" lon="5.3059">
        <ele>935.5</ele>
        <time>2026-05-14T13:56:01.000Z</time>
      </trkpt>
      <trkpt lat="44.18771" lon="5.3059">
        <ele>935.5</ele>
        <time>2026-05-14T13:56:02.000Z</time>
      </trkpt>
      <trkpt lat="44.18771" lon="5.3059">
        <ele>935.3</ele>
        <time>2026-05-14T13:56:03.000Z</time>
      </trkpt>
      <trkpt lat="44.18771" lon="5.3059">
        <ele>935</ele>
        <time>2026-05-14T13:56:04.000Z</time>
      </trkpt>
      <trkpt lat="44.18771" lon="5.30591">
        <ele>934.6</ele>
        <time>2026-05-14T13:56:05.000Z</time>
      </trkpt>
      <trkpt lat="44.18771" lon="5.30591">
        <ele>934.3</ele>
        <time>2026-05-14T13:56:06.000Z</time>
      </trkpt>
      <trkpt lat="44.18771" lon="5.30591">
        <ele>933.9</ele>
        <time>2026-05-14T13:56:07.000Z</time>
      </trkpt>
      <trkpt lat="44.18771" lon="5.30591">
        <ele>933.8</ele>
        <time>2026-05-14T13:56:08.000Z</time>
      </trkpt>
      <trkpt lat="44.18771" lon="5.30592">
        <ele>933.5</ele>
        <time>2026-05-14T13:56:09.000Z</time>
      </trkpt>
      <trkpt lat="44.18771" lon="5.30592">
        <ele>933.2</ele>
        <time>2026-05-14T13:56:10.000Z</time>
      </trkpt>
      <trkpt lat="44.18771" lon="5.30592">
        <ele>932.7</ele>
        <time>2026-05-14T13:56:11.000Z</time>
      </trkpt>
      <trkpt lat="44.18771" lon="5.30592">
        <ele>932.5</ele>
        <time>2026-05-14T13:56:12.000Z</time>
      </trkpt>
      <trkpt lat="44.18771" lon="5.30594">
        <ele>932.2</ele>
        <time>2026-05-14T13:56:13.000Z</time>
      </trkpt>
      <trkpt lat="44.18771" lon="5.30597">
        <ele>931.8</ele>
        <time>2026-05-14T13:56:14.000Z</time>
      </trkpt>
      <trkpt lat="44.18771" lon="5.30599">
        <ele>931.7</ele>
        <time>2026-05-14T13:56:15.000Z</time>
      </trkpt>
      <trkpt lat="44.18771" lon="5.30601">
        <ele>931.5</ele>
        <time>2026-05-14T13:56:16.000Z</time>
      </trkpt>
      <trkpt lat="44.1877" lon="5.30603">
        <ele>931.2</ele>
        <time>2026-05-14T13:56:17.000Z</time>
      </trkpt>
      <trkpt lat="44.1877" lon="5.30605">
        <ele>931</ele>
        <time>2026-05-14T13:56:18.000Z</time>
      </trkpt>
      <trkpt lat="44.1877" lon="5.30607">
        <ele>930.6</ele>
        <time>2026-05-14T13:56:19.000Z</time>
      </trkpt>
      <trkpt lat="44.1877" lon="5.30608">
        <ele>930.6</ele>
        <time>2026-05-14T13:56:20.000Z</time>
      </trkpt>
      <trkpt lat="44.1877" lon="5.30608">
        <ele>930.6</ele>
        <time>2026-05-14T13:56:21.000Z</time>
      </trkpt>
      <trkpt lat="44.1877" lon="5.3061">
        <ele>930.5</ele>
        <time>2026-05-14T13:56:22.000Z</time>
      </trkpt>
      <trkpt lat="44.1877" lon="5.30611">
        <ele>930.4</ele>
        <time>2026-05-14T13:56:23.000Z</time>
      </trkpt>
      <trkpt lat="44.1877" lon="5.30613">
        <ele>930</ele>
        <time>2026-05-14T13:56:24.000Z</time>
      </trkpt>
      <trkpt lat="44.1877" lon="5.30614">
        <ele>929.9</ele>
        <time>2026-05-14T13:56:25.000Z</time>
      </trkpt>
      <trkpt lat="44.1877" lon="5.30617">
        <ele>929.9</ele>
        <time>2026-05-14T13:56:26.000Z</time>
      </trkpt>
      <trkpt lat="44.1877" lon="5.30619">
        <ele>929.9</ele>
        <time>2026-05-14T13:56:27.000Z</time>
      </trkpt>
      <trkpt lat="44.18769" lon="5.3062">
        <ele>929.9</ele>
        <time>2026-05-14T13:56:28.000Z</time>
      </trkpt>
      <trkpt lat="44.18769" lon="5.30621">
        <ele>929.8</ele>
        <time>2026-05-14T13:56:29.000Z</time>
      </trkpt>
      <trkpt lat="44.18769" lon="5.30621">
        <ele>929.4</ele>
        <time>2026-05-14T13:56:30.000Z</time>
      </trkpt>
      <trkpt lat="44.18768" lon="5.30622">
        <ele>929.2</ele>
        <time>2026-05-14T13:56:31.000Z</time>
      </trkpt>
      <trkpt lat="44.18768" lon="5.30623">
        <ele>929.1</ele>
        <time>2026-05-14T13:56:32.000Z</time>
      </trkpt>
      <trkpt lat="44.18768" lon="5.30624">
        <ele>928.9</ele>
        <time>2026-05-14T13:56:33.000Z</time>
      </trkpt>
      <trkpt lat="44.18768" lon="5.30625">
        <ele>928.2</ele>
        <time>2026-05-14T13:56:34.000Z</time>
      </trkpt>
      <trkpt lat="44.18768" lon="5.30626">
        <ele>928</ele>
        <time>2026-05-14T13:56:35.000Z</time>
      </trkpt>
      <trkpt lat="44.18768" lon="5.30627">
        <ele>927.8</ele>
        <time>2026-05-14T13:56:36.000Z</time>
      </trkpt>
      <trkpt lat="44.18769" lon="5.30628">
        <ele>927.1</ele>
        <time>2026-05-14T13:56:37.000Z</time>
      </trkpt>
      <trkpt lat="44.18769" lon="5.3063">
        <ele>926.8</ele>
        <time>2026-05-14T13:56:38.000Z</time>
      </trkpt>
      <trkpt lat="44.18769" lon="5.30631">
        <ele>926.9</ele>
        <time>2026-05-14T13:56:39.000Z</time>
      </trkpt>
      <trkpt lat="44.18769" lon="5.30633">
        <ele>926.6</ele>
        <time>2026-05-14T13:56:40.000Z</time>
      </trkpt>
      <trkpt lat="44.18769" lon="5.30634">
        <ele>926.6</ele>
        <time>2026-05-14T13:56:41.000Z</time>
      </trkpt>
      <trkpt lat="44.18769" lon="5.30636">
        <ele>926.4</ele>
        <time>2026-05-14T13:56:42.000Z</time>
      </trkpt>
      <trkpt lat="44.18769" lon="5.30638">
        <ele>926.2</ele>
        <time>2026-05-14T13:56:43.000Z</time>
      </trkpt>
      <trkpt lat="44.18768" lon="5.3064">
        <ele>925.9</ele>
        <time>2026-05-14T13:56:44.000Z</time>
      </trkpt>
      <trkpt lat="44.18768" lon="5.30642">
        <ele>925.8</ele>
        <time>2026-05-14T13:56:45.000Z</time>
      </trkpt>
      <trkpt lat="44.18768" lon="5.30643">
        <ele>925.9</ele>
        <time>2026-05-14T13:56:46.000Z</time>
      </trkpt>
      <trkpt lat="44.18767" lon="5.30645">
        <ele>925.8</ele>
        <time>2026-05-14T13:56:47.000Z</time>
      </trkpt>
      <trkpt lat="44.18767" lon="5.30646">
        <ele>925.1</ele>
        <time>2026-05-14T13:56:48.000Z</time>
      </trkpt>
      <trkpt lat="44.18767" lon="5.30646">
        <ele>924.7</ele>
        <time>2026-05-14T13:56:49.000Z</time>
      </trkpt>
      <trkpt lat="44.18766" lon="5.30647">
        <ele>924.5</ele>
        <time>2026-05-14T13:56:50.000Z</time>
      </trkpt>
      <trkpt lat="44.18766" lon="5.30649">
        <ele>924.5</ele>
        <time>2026-05-14T13:56:51.000Z</time>
      </trkpt>
      <trkpt lat="44.18765" lon="5.30651">
        <ele>924.5</ele>
        <time>2026-05-14T13:56:52.000Z</time>
      </trkpt>
      <trkpt lat="44.18765" lon="5.30653">
        <ele>924.1</ele>
        <time>2026-05-14T13:56:53.000Z</time>
      </trkpt>
      <trkpt lat="44.18765" lon="5.30655">
        <ele>924.2</ele>
        <time>2026-05-14T13:56:54.000Z</time>
      </trkpt>
      <trkpt lat="44.18765" lon="5.30656">
        <ele>924</ele>
        <time>2026-05-14T13:56:55.000Z</time>
      </trkpt>
      <trkpt lat="44.18766" lon="5.30658">
        <ele>923.6</ele>
        <time>2026-05-14T13:56:56.000Z</time>
      </trkpt>
      <trkpt lat="44.18766" lon="5.3066">
        <ele>923</ele>
        <time>2026-05-14T13:56:57.999Z</time>
      </trkpt>
      <trkpt lat="44.18766" lon="5.30661">
        <ele>922.6</ele>
        <time>2026-05-14T13:56:58.999Z</time>
      </trkpt>
      <trkpt lat="44.18766" lon="5.30663">
        <ele>922.3</ele>
        <time>2026-05-14T13:56:59.999Z</time>
      </trkpt>
      <trkpt lat="44.18765" lon="5.30665">
        <ele>922</ele>
        <time>2026-05-14T13:57:00.999Z</time>
      </trkpt>
      <trkpt lat="44.18765" lon="5.30667">
        <ele>921.5</ele>
        <time>2026-05-14T13:57:01.999Z</time>
      </trkpt>
      <trkpt lat="44.18765" lon="5.30668">
        <ele>921.3</ele>
        <time>2026-05-14T13:57:02.999Z</time>
      </trkpt>
      <trkpt lat="44.18765" lon="5.3067">
        <ele>921</ele>
        <time>2026-05-14T13:57:03.999Z</time>
      </trkpt>
      <trkpt lat="44.18765" lon="5.30671">
        <ele>920.8</ele>
        <time>2026-05-14T13:57:04.999Z</time>
      </trkpt>
      <trkpt lat="44.18766" lon="5.30673">
        <ele>920.6</ele>
        <time>2026-05-14T13:57:05.999Z</time>
      </trkpt>
      <trkpt lat="44.18766" lon="5.30674">
        <ele>920.5</ele>
        <time>2026-05-14T13:57:06.999Z</time>
      </trkpt>
      <trkpt lat="44.18765" lon="5.30675">
        <ele>921</ele>
        <time>2026-05-14T13:57:07.999Z</time>
      </trkpt>
      <trkpt lat="44.18765" lon="5.30676">
        <ele>920.8</ele>
        <time>2026-05-14T13:57:08.999Z</time>
      </trkpt>
      <trkpt lat="44.18764" lon="5.30678">
        <ele>920.6</ele>
        <time>2026-05-14T13:57:09.999Z</time>
      </trkpt>
      <trkpt lat="44.18764" lon="5.30678">
        <ele>920.4</ele>
        <time>2026-05-14T13:57:10.999Z</time>
      </trkpt>
      <trkpt lat="44.18764" lon="5.30679">
        <ele>919.9</ele>
        <time>2026-05-14T13:57:11.999Z</time>
      </trkpt>
      <trkpt lat="44.18764" lon="5.30681">
        <ele>919.5</ele>
        <time>2026-05-14T13:57:12.999Z</time>
      </trkpt>
      <trkpt lat="44.18764" lon="5.30683">
        <ele>919.2</ele>
        <time>2026-05-14T13:57:13.999Z</time>
      </trkpt>
      <trkpt lat="44.18764" lon="5.30685">
        <ele>919</ele>
        <time>2026-05-14T13:57:14.999Z</time>
      </trkpt>
      <trkpt lat="44.18764" lon="5.30687">
        <ele>919</ele>
        <time>2026-05-14T13:57:15.999Z</time>
      </trkpt>
      <trkpt lat="44.18765" lon="5.30689">
        <ele>919</ele>
        <time>2026-05-14T13:57:16.999Z</time>
      </trkpt>
      <trkpt lat="44.18766" lon="5.3069">
        <ele>919.1</ele>
        <time>2026-05-14T13:57:17.999Z</time>
      </trkpt>
      <trkpt lat="44.18767" lon="5.30692">
        <ele>918.6</ele>
        <time>2026-05-14T13:57:18.999Z</time>
      </trkpt>
      <trkpt lat="44.18767" lon="5.30694">
        <ele>918.3</ele>
        <time>2026-05-14T13:57:19.999Z</time>
      </trkpt>
      <trkpt lat="44.18767" lon="5.30695">
        <ele>918</ele>
        <time>2026-05-14T13:57:20.999Z</time>
      </trkpt>
      <trkpt lat="44.18766" lon="5.30697">
        <ele>917.7</ele>
        <time>2026-05-14T13:57:21.999Z</time>
      </trkpt>
      <trkpt lat="44.18766" lon="5.30699">
        <ele>917.7</ele>
        <time>2026-05-14T13:57:22.999Z</time>
      </trkpt>
      <trkpt lat="44.18765" lon="5.307">
        <ele>917.6</ele>
        <time>2026-05-14T13:57:23.999Z</time>
      </trkpt>
      <trkpt lat="44.18765" lon="5.30701">
        <ele>917.6</ele>
        <time>2026-05-14T13:57:24.999Z</time>
      </trkpt>
      <trkpt lat="44.18765" lon="5.30702">
        <ele>917.2</ele>
        <time>2026-05-14T13:57:25.999Z</time>
      </trkpt>
      <trkpt lat="44.18765" lon="5.30703">
        <ele>916.9</ele>
        <time>2026-05-14T13:57:26.999Z</time>
      </trkpt>
      <trkpt lat="44.18765" lon="5.30705">
        <ele>916.5</ele>
        <time>2026-05-14T13:57:27.999Z</time>
      </trkpt>
      <trkpt lat="44.18765" lon="5.30707">
        <ele>916.3</ele>
        <time>2026-05-14T13:57:28.999Z</time>
      </trkpt>
      <trkpt lat="44.18765" lon="5.30709">
        <ele>915.9</ele>
        <time>2026-05-14T13:57:29.999Z</time>
      </trkpt>
      <trkpt lat="44.18765" lon="5.3071">
        <ele>915.3</ele>
        <time>2026-05-14T13:57:30.999Z</time>
      </trkpt>
      <trkpt lat="44.18765" lon="5.30711">
        <ele>914.9</ele>
        <time>2026-05-14T13:57:31.999Z</time>
      </trkpt>
      <trkpt lat="44.18765" lon="5.30711">
        <ele>914.5</ele>
        <time>2026-05-14T13:57:32.999Z</time>
      </trkpt>
      <trkpt lat="44.18765" lon="5.30712">
        <ele>914.2</ele>
        <time>2026-05-14T13:57:33.999Z</time>
      </trkpt>
      <trkpt lat="44.18765" lon="5.30713">
        <ele>914.1</ele>
        <time>2026-05-14T13:57:34.999Z</time>
      </trkpt>
      <trkpt lat="44.18765" lon="5.30713">
        <ele>914.1</ele>
        <time>2026-05-14T13:57:35.999Z</time>
      </trkpt>
      <trkpt lat="44.18765" lon="5.30714">
        <ele>914.3</ele>
        <time>2026-05-14T13:57:36.999Z</time>
      </trkpt>
      <trkpt lat="44.18765" lon="5.30714">
        <ele>914.2</ele>
        <time>2026-05-14T13:57:37.999Z</time>
      </trkpt>
      <trkpt lat="44.18765" lon="5.30714">
        <ele>914</ele>
        <time>2026-05-14T13:57:38.999Z</time>
      </trkpt>
      <trkpt lat="44.18765" lon="5.30714">
        <ele>913.9</ele>
        <time>2026-05-14T13:57:39.999Z</time>
      </trkpt>
      <trkpt lat="44.18765" lon="5.30713">
        <ele>913.6</ele>
        <time>2026-05-14T13:57:40.999Z</time>
      </trkpt>
      <trkpt lat="44.18765" lon="5.30713">
        <ele>913.6</ele>
        <time>2026-05-14T13:57:41.999Z</time>
      </trkpt>
      <trkpt lat="44.18765" lon="5.30714">
        <ele>912.9</ele>
        <time>2026-05-14T13:57:42.999Z</time>
      </trkpt>
      <trkpt lat="44.18765" lon="5.30713">
        <ele>912.8</ele>
        <time>2026-05-14T13:57:43.999Z</time>
      </trkpt>
      <trkpt lat="44.18765" lon="5.30714">
        <ele>912.6</ele>
        <time>2026-05-14T13:57:44.999Z</time>
      </trkpt>
      <trkpt lat="44.18765" lon="5.30714">
        <ele>912.3</ele>
        <time>2026-05-14T13:57:45.999Z</time>
      </trkpt>
      <trkpt lat="44.18765" lon="5.30714">
        <ele>912.4</ele>
        <time>2026-05-14T13:57:46.999Z</time>
      </trkpt>
      <trkpt lat="44.18765" lon="5.30714">
        <ele>912.5</ele>
        <time>2026-05-14T13:57:47.999Z</time>
      </trkpt>
      <trkpt lat="44.18765" lon="5.30714">
        <ele>912.5</ele>
        <time>2026-05-14T13:57:48.999Z</time>
      </trkpt>
      <trkpt lat="44.18765" lon="5.30714">
        <ele>912.5</ele>
        <time>2026-05-14T13:57:49.999Z</time>
      </trkpt>
      <trkpt lat="44.18765" lon="5.30714">
        <ele>912.6</ele>
        <time>2026-05-14T13:57:50.999Z</time>
      </trkpt>
      <trkpt lat="44.18765" lon="5.30714">
        <ele>912.7</ele>
        <time>2026-05-14T13:57:51.999Z</time>
      </trkpt>
      <trkpt lat="44.18765" lon="5.30714">
        <ele>912.9</ele>
        <time>2026-05-14T13:57:52.999Z</time>
      </trkpt>
      <trkpt lat="44.18765" lon="5.30714">
        <ele>912.9</ele>
        <time>2026-05-14T13:57:53.999Z</time>
      </trkpt>
      <trkpt lat="44.18765" lon="5.30714">
        <ele>912.7</ele>
        <time>2026-05-14T13:57:54.999Z</time>
      </trkpt>
      <trkpt lat="44.18765" lon="5.30713">
        <ele>912.3</ele>
        <time>2026-05-14T13:57:55.999Z</time>
      </trkpt>
      <trkpt lat="44.18765" lon="5.30713">
        <ele>912.1</ele>
        <time>2026-05-14T13:57:56.999Z</time>
      </trkpt>
      <trkpt lat="44.18765" lon="5.30713">
        <ele>911.9</ele>
        <time>2026-05-14T13:57:57.999Z</time>
      </trkpt>
      <trkpt lat="44.18766" lon="5.30712">
        <ele>912</ele>
        <time>2026-05-14T13:57:58.999Z</time>
      </trkpt>
      <trkpt lat="44.18766" lon="5.30711">
        <ele>912.1</ele>
        <time>2026-05-14T13:57:59.999Z</time>
      </trkpt>
      <trkpt lat="44.18766" lon="5.30711">
        <ele>912</ele>
        <time>2026-05-14T13:58:00.999Z</time>
      </trkpt>
      <trkpt lat="44.18766" lon="5.30711">
        <ele>912</ele>
        <time>2026-05-14T13:58:01.999Z</time>
      </trkpt>
      <trkpt lat="44.18766" lon="5.30711">
        <ele>912</ele>
        <time>2026-05-14T13:58:02.999Z</time>
      </trkpt>
      <trkpt lat="44.18766" lon="5.30711">
        <ele>912</ele>
        <time>2026-05-14T13:58:03.999Z</time>
      </trkpt>
      <trkpt lat="44.18766" lon="5.30711">
        <ele>911.8</ele>
        <time>2026-05-14T13:58:04.999Z</time>
      </trkpt>
      <trkpt lat="44.18766" lon="5.30711">
        <ele>911.5</ele>
        <time>2026-05-14T13:58:05.999Z</time>
      </trkpt>
      <trkpt lat="44.18766" lon="5.30711">
        <ele>911.5</ele>
        <time>2026-05-14T13:58:06.999Z</time>
      </trkpt>
      <trkpt lat="44.18766" lon="5.30711">
        <ele>911.7</ele>
        <time>2026-05-14T13:58:07.999Z</time>
      </trkpt>
      <trkpt lat="44.18766" lon="5.30711">
        <ele>911.9</ele>
        <time>2026-05-14T13:58:08.999Z</time>
      </trkpt>
      <trkpt lat="44.18766" lon="5.30711">
        <ele>911.9</ele>
        <time>2026-05-14T13:58:09.999Z</time>
      </trkpt>
      <trkpt lat="44.18766" lon="5.30711">
        <ele>911.7</ele>
        <time>2026-05-14T13:58:10.999Z</time>
      </trkpt>
      <trkpt lat="44.18766" lon="5.30711">
        <ele>911.6</ele>
        <time>2026-05-14T13:58:11.999Z</time>
      </trkpt>
      <trkpt lat="44.18766" lon="5.30711">
        <ele>911.6</ele>
        <time>2026-05-14T13:58:12.999Z</time>
      </trkpt>
      <trkpt lat="44.18766" lon="5.30711">
        <ele>911.5</ele>
        <time>2026-05-14T13:58:13.999Z</time>
      </trkpt>
      <trkpt lat="44.18766" lon="5.30711">
        <ele>911.5</ele>
        <time>2026-05-14T13:58:14.999Z</time>
      </trkpt>
      <trkpt lat="44.18766" lon="5.30711">
        <ele>911.6</ele>
        <time>2026-05-14T13:58:15.999Z</time>
      </trkpt>
      <trkpt lat="44.18766" lon="5.30712">
        <ele>911.8</ele>
        <time>2026-05-14T13:58:16.999Z</time>
      </trkpt>
      <trkpt lat="44.18766" lon="5.30713">
        <ele>912.2</ele>
        <time>2026-05-14T13:58:17.999Z</time>
      </trkpt>
      <trkpt lat="44.18766" lon="5.30714">
        <ele>912.1</ele>
        <time>2026-05-14T13:58:18.999Z</time>
      </trkpt>
      <trkpt lat="44.18766" lon="5.30714">
        <ele>912.1</ele>
        <time>2026-05-14T13:58:19.999Z</time>
      </trkpt>
      <trkpt lat="44.18766" lon="5.30715">
        <ele>911.1</ele>
        <time>2026-05-14T13:58:20.999Z</time>
      </trkpt>
      <trkpt lat="44.18766" lon="5.30714">
        <ele>911.1</ele>
        <time>2026-05-14T13:58:21.999Z</time>
      </trkpt>
      <trkpt lat="44.18766" lon="5.30714">
        <ele>911.3</ele>
        <time>2026-05-14T13:58:22.999Z</time>
      </trkpt>
      <trkpt lat="44.18766" lon="5.30713">
        <ele>911.5</ele>
        <time>2026-05-14T13:58:23.999Z</time>
      </trkpt>
      <trkpt lat="44.18766" lon="5.30713">
        <ele>910.6</ele>
        <time>2026-05-14T13:58:24.999Z</time>
      </trkpt>
      <trkpt lat="44.18766" lon="5.30713">
        <ele>910.7</ele>
        <time>2026-05-14T13:58:25.999Z</time>
      </trkpt>
      <trkpt lat="44.18766" lon="5.30713">
        <ele>910.8</ele>
        <time>2026-05-14T13:58:26.999Z</time>
      </trkpt>
      <trkpt lat="44.18766" lon="5.30713">
        <ele>911.1</ele>
        <time>2026-05-14T13:58:27.999Z</time>
      </trkpt>
      <trkpt lat="44.18766" lon="5.30713">
        <ele>911.3</ele>
        <time>2026-05-14T13:58:28.999Z</time>
      </trkpt>
      <trkpt lat="44.18766" lon="5.30713">
        <ele>911.2</ele>
        <time>2026-05-14T13:58:29.999Z</time>
      </trkpt>
      <trkpt lat="44.18766" lon="5.30713">
        <ele>911.1</ele>
        <time>2026-05-14T13:58:30.999Z</time>
      </trkpt>
      <trkpt lat="44.18766" lon="5.30713">
        <ele>911.1</ele>
        <time>2026-05-14T13:58:31.999Z</time>
      </trkpt>
      <trkpt lat="44.18766" lon="5.30713">
        <ele>911.1</ele>
        <time>2026-05-14T13:58:32.999Z</time>
      </trkpt>
      <trkpt lat="44.18766" lon="5.30713">
        <ele>911.1</ele>
        <time>2026-05-14T13:58:33.999Z</time>
      </trkpt>
      <trkpt lat="44.18766" lon="5.30713">
        <ele>910.9</ele>
        <time>2026-05-14T13:58:34.999Z</time>
      </trkpt>
      <trkpt lat="44.18766" lon="5.30713">
        <ele>910.7</ele>
        <time>2026-05-14T13:58:35.999Z</time>
      </trkpt>
      <trkpt lat="44.18766" lon="5.30713">
        <ele>910.5</ele>
        <time>2026-05-14T13:58:36.999Z</time>
      </trkpt>
      <trkpt lat="44.18766" lon="5.30713">
        <ele>910.2</ele>
        <time>2026-05-14T13:58:37.999Z</time>
      </trkpt>
      <trkpt lat="44.18766" lon="5.30713">
        <ele>909.9</ele>
        <time>2026-05-14T13:58:38.999Z</time>
      </trkpt>
      <trkpt lat="44.18766" lon="5.30713">
        <ele>909.7</ele>
        <time>2026-05-14T13:58:39.999Z</time>
      </trkpt>
      <trkpt lat="44.18766" lon="5.30713">
        <ele>909.5</ele>
        <time>2026-05-14T13:58:40.999Z</time>
      </trkpt>
      <trkpt lat="44.18766" lon="5.30713">
        <ele>909.4</ele>
        <time>2026-05-14T13:58:41.999Z</time>
      </trkpt>
      <trkpt lat="44.18766" lon="5.30713">
        <ele>909.3</ele>
        <time>2026-05-14T13:58:42.999Z</time>
      </trkpt>
      <trkpt lat="44.18766" lon="5.30713">
        <ele>909.4</ele>
        <time>2026-05-14T13:58:43.999Z</time>
      </trkpt>
      <trkpt lat="44.18766" lon="5.30713">
        <ele>909.4</ele>
        <time>2026-05-14T13:58:44.999Z</time>
      </trkpt>
      <trkpt lat="44.18766" lon="5.30714">
        <ele>909.5</ele>
        <time>2026-05-14T13:58:45.999Z</time>
      </trkpt>
      <trkpt lat="44.18766" lon="5.30714">
        <ele>909.6</ele>
        <time>2026-05-14T13:58:46.999Z</time>
      </trkpt>
      <trkpt lat="44.18765" lon="5.30714">
        <ele>909.6</ele>
        <time>2026-05-14T13:58:47.999Z</time>
      </trkpt>
      <trkpt lat="44.18765" lon="5.30714">
        <ele>909.7</ele>
        <time>2026-05-14T13:58:48.999Z</time>
      </trkpt>
      <trkpt lat="44.18765" lon="5.30714">
        <ele>909.7</ele>
        <time>2026-05-14T13:58:49.999Z</time>
      </trkpt>
      <trkpt lat="44.18765" lon="5.30714">
        <ele>909.6</ele>
        <time>2026-05-14T13:58:50.999Z</time>
      </trkpt>
      <trkpt lat="44.18766" lon="5.30713">
        <ele>909.4</ele>
        <time>2026-05-14T13:58:51.999Z</time>
      </trkpt>
      <trkpt lat="44.18766" lon="5.30712">
        <ele>909.3</ele>
        <time>2026-05-14T13:58:52.999Z</time>
      </trkpt>
      <trkpt lat="44.18766" lon="5.30711">
        <ele>909.1</ele>
        <time>2026-05-14T13:58:53.999Z</time>
      </trkpt>
      <trkpt lat="44.18766" lon="5.30712">
        <ele>909.3</ele>
        <time>2026-05-14T13:58:54.999Z</time>
      </trkpt>
      <trkpt lat="44.18766" lon="5.30712">
        <ele>909.5</ele>
        <time>2026-05-14T13:58:55.999Z</time>
      </trkpt>
      <trkpt lat="44.18766" lon="5.30712">
        <ele>909.6</ele>
        <time>2026-05-14T13:58:56.999Z</time>
      </trkpt>
      <trkpt lat="44.18766" lon="5.30712">
        <ele>910.1</ele>
        <time>2026-05-14T13:58:57.999Z</time>
      </trkpt>
      <trkpt lat="44.18766" lon="5.30712">
        <ele>910.1</ele>
        <time>2026-05-14T13:58:58.999Z</time>
      </trkpt>
      <trkpt lat="44.18766" lon="5.30712">
        <ele>910.2</ele>
        <time>2026-05-14T13:58:59.999Z</time>
      </trkpt>
      <trkpt lat="44.18766" lon="5.30712">
        <ele>910.3</ele>
        <time>2026-05-14T13:59:00.999Z</time>
      </trkpt>
      <trkpt lat="44.18765" lon="5.30712">
        <ele>910.3</ele>
        <time>2026-05-14T13:59:01.999Z</time>
      </trkpt>
      <trkpt lat="44.18765" lon="5.30712">
        <ele>910.2</ele>
        <time>2026-05-14T13:59:02.999Z</time>
      </trkpt>
      <trkpt lat="44.18765" lon="5.30712">
        <ele>910.2</ele>
        <time>2026-05-14T13:59:03.999Z</time>
      </trkpt>
      <trkpt lat="44.18765" lon="5.30712">
        <ele>910.1</ele>
        <time>2026-05-14T13:59:04.999Z</time>
      </trkpt>
      <trkpt lat="44.18765" lon="5.30712">
        <ele>910.1</ele>
        <time>2026-05-14T13:59:05.999Z</time>
      </trkpt>
      <trkpt lat="44.18765" lon="5.30712">
        <ele>910.2</ele>
        <time>2026-05-14T13:59:06.999Z</time>
      </trkpt>
      <trkpt lat="44.18765" lon="5.30712">
        <ele>910.4</ele>
        <time>2026-05-14T13:59:07.999Z</time>
      </trkpt>
      <trkpt lat="44.18765" lon="5.30712">
        <ele>910.7</ele>
        <time>2026-05-14T13:59:08.999Z</time>
      </trkpt>
      <trkpt lat="44.18765" lon="5.30712">
        <ele>910.9</ele>
        <time>2026-05-14T13:59:09.999Z</time>
      </trkpt>
      <trkpt lat="44.18765" lon="5.30711">
        <ele>911</ele>
        <time>2026-05-14T13:59:10.999Z</time>
      </trkpt>
      <trkpt lat="44.18765" lon="5.30711">
        <ele>911.1</ele>
        <time>2026-05-14T13:59:11.999Z</time>
      </trkpt>
      <trkpt lat="44.18765" lon="5.30711">
        <ele>911</ele>
        <time>2026-05-14T13:59:12.999Z</time>
      </trkpt>
      <trkpt lat="44.18765" lon="5.30711">
        <ele>911</ele>
        <time>2026-05-14T13:59:13.999Z</time>
      </trkpt>
      <trkpt lat="44.18765" lon="5.30711">
        <ele>911</ele>
        <time>2026-05-14T13:59:14.999Z</time>
      </trkpt>
      <trkpt lat="44.18765" lon="5.30711">
        <ele>911.1</ele>
        <time>2026-05-14T13:59:15.999Z</time>
      </trkpt>
      <trkpt lat="44.18765" lon="5.30711">
        <ele>911.2</ele>
        <time>2026-05-14T13:59:16.999Z</time>
      </trkpt>
      <trkpt lat="44.18764" lon="5.30712">
        <ele>911.1</ele>
        <time>2026-05-14T13:59:17.999Z</time>
      </trkpt>
      <trkpt lat="44.18764" lon="5.30712">
        <ele>911.1</ele>
        <time>2026-05-14T13:59:18.999Z</time>
      </trkpt>
      <trkpt lat="44.18765" lon="5.30711">
        <ele>910.9</ele>
        <time>2026-05-14T13:59:19.999Z</time>
      </trkpt>
      <trkpt lat="44.18765" lon="5.30711">
        <ele>910.9</ele>
        <time>2026-05-14T13:59:20.999Z</time>
      </trkpt>
      <trkpt lat="44.18765" lon="5.30711">
        <ele>910.7</ele>
        <time>2026-05-14T13:59:21.999Z</time>
      </trkpt>
      <trkpt lat="44.18765" lon="5.30711">
        <ele>910.9</ele>
        <time>2026-05-14T13:59:22.999Z</time>
      </trkpt>
      <trkpt lat="44.18765" lon="5.30711">
        <ele>910.9</ele>
        <time>2026-05-14T13:59:23.999Z</time>
      </trkpt>
      <trkpt lat="44.18765" lon="5.30712">
        <ele>911</ele>
        <time>2026-05-14T13:59:24.999Z</time>
      </trkpt>
      <trkpt lat="44.18765" lon="5.30712">
        <ele>911.1</ele>
        <time>2026-05-14T13:59:25.999Z</time>
      </trkpt>
      <trkpt lat="44.18765" lon="5.30712">
        <ele>911.2</ele>
        <time>2026-05-14T13:59:26.999Z</time>
      </trkpt>
      <trkpt lat="44.18764" lon="5.30712">
        <ele>911.4</ele>
        <time>2026-05-14T13:59:27.999Z</time>
      </trkpt>
      <trkpt lat="44.18764" lon="5.30712">
        <ele>911.6</ele>
        <time>2026-05-14T13:59:28.999Z</time>
      </trkpt>
      <trkpt lat="44.18764" lon="5.30712">
        <ele>911.8</ele>
        <time>2026-05-14T13:59:29.999Z</time>
      </trkpt>
      <trkpt lat="44.18764" lon="5.30712">
        <ele>911.8</ele>
        <time>2026-05-14T13:59:30.999Z</time>
      </trkpt>
      <trkpt lat="44.18765" lon="5.30712">
        <ele>912.1</ele>
        <time>2026-05-14T13:59:31.999Z</time>
      </trkpt>
      <trkpt lat="44.18765" lon="5.30712">
        <ele>912.3</ele>
        <time>2026-05-14T13:59:32.999Z</time>
      </trkpt>
      <trkpt lat="44.18765" lon="5.30712">
        <ele>912.5</ele>
        <time>2026-05-14T13:59:33.999Z</time>
      </trkpt>
      <trkpt lat="44.18765" lon="5.30712">
        <ele>912.7</ele>
        <time>2026-05-14T13:59:34.999Z</time>
      </trkpt>
      <trkpt lat="44.18765" lon="5.30712">
        <ele>913</ele>
        <time>2026-05-14T13:59:35.999Z</time>
      </trkpt>
      <trkpt lat="44.18765" lon="5.30712">
        <ele>913.2</ele>
        <time>2026-05-14T13:59:36.999Z</time>
      </trkpt>
      <trkpt lat="44.18765" lon="5.30712">
        <ele>913.4</ele>
        <time>2026-05-14T13:59:37.999Z</time>
      </trkpt>
      <trkpt lat="44.18765" lon="5.30712">
        <ele>913.6</ele>
        <time>2026-05-14T13:59:38.999Z</time>
      </trkpt>
      <trkpt lat="44.18765" lon="5.30712">
        <ele>913.8</ele>
        <time>2026-05-14T13:59:39.999Z</time>
      </trkpt>
      <trkpt lat="44.18765" lon="5.30712">
        <ele>914</ele>
        <time>2026-05-14T13:59:40.999Z</time>
      </trkpt>
      <trkpt lat="44.18765" lon="5.30712">
        <ele>914.2</ele>
        <time>2026-05-14T13:59:41.999Z</time>
      </trkpt>
      <trkpt lat="44.18764" lon="5.30712">
        <ele>914.3</ele>
        <time>2026-05-14T13:59:42.999Z</time>
      </trkpt>
      <trkpt lat="44.18764" lon="5.30712">
        <ele>914.4</ele>
        <time>2026-05-14T13:59:43.999Z</time>
      </trkpt>
      <trkpt lat="44.18764" lon="5.30712">
        <ele>914.5</ele>
        <time>2026-05-14T13:59:44.999Z</time>
      </trkpt>
      <trkpt lat="44.18764" lon="5.30712">
        <ele>914.3</ele>
        <time>2026-05-14T13:59:45.999Z</time>
      </trkpt>
      <trkpt lat="44.18764" lon="5.30712">
        <ele>914.4</ele>
        <time>2026-05-14T13:59:46.999Z</time>
      </trkpt>
      <trkpt lat="44.18764" lon="5.30712">
        <ele>914.6</ele>
        <time>2026-05-14T13:59:47.999Z</time>
      </trkpt>
      <trkpt lat="44.18764" lon="5.30712">
        <ele>914.8</ele>
        <time>2026-05-14T13:59:48.999Z</time>
      </trkpt>
      <trkpt lat="44.18764" lon="5.30712">
        <ele>915</ele>
        <time>2026-05-14T13:59:49.999Z</time>
      </trkpt>
      <trkpt lat="44.18764" lon="5.30712">
        <ele>915.1</ele>
        <time>2026-05-14T13:59:50.999Z</time>
      </trkpt>
      <trkpt lat="44.18764" lon="5.30712">
        <ele>915.1</ele>
        <time>2026-05-14T13:59:51.999Z</time>
      </trkpt>
      <trkpt lat="44.18764" lon="5.30712">
        <ele>915.1</ele>
        <time>2026-05-14T13:59:52.999Z</time>
      </trkpt>
      <trkpt lat="44.18764" lon="5.30712">
        <ele>915.1</ele>
        <time>2026-05-14T13:59:53.999Z</time>
      </trkpt>
      <trkpt lat="44.18764" lon="5.30712">
        <ele>915</ele>
        <time>2026-05-14T13:59:54.999Z</time>
      </trkpt>
      <trkpt lat="44.18764" lon="5.30712">
        <ele>914.9</ele>
        <time>2026-05-14T13:59:55.999Z</time>
      </trkpt>
      <trkpt lat="44.18764" lon="5.30712">
        <ele>914.9</ele>
        <time>2026-05-14T13:59:56.999Z</time>
      </trkpt>
      <trkpt lat="44.18764" lon="5.30712">
        <ele>914.8</ele>
        <time>2026-05-14T13:59:57.999Z</time>
      </trkpt>
      <trkpt lat="44.18764" lon="5.30712">
        <ele>914.7</ele>
        <time>2026-05-14T13:59:58.999Z</time>
      </trkpt>
      <trkpt lat="44.18764" lon="5.30712">
        <ele>914.6</ele>
        <time>2026-05-14T13:59:59.999Z</time>
      </trkpt>
      <trkpt lat="44.18764" lon="5.30712">
        <ele>914.5</ele>
        <time>2026-05-14T14:00:00.999Z</time>
      </trkpt>
      <trkpt lat="44.18764" lon="5.30712">
        <ele>914.3</ele>
        <time>2026-05-14T14:00:01.999Z</time>
      </trkpt>
      <trkpt lat="44.18764" lon="5.30712">
        <ele>914.3</ele>
        <time>2026-05-14T14:00:02.999Z</time>
      </trkpt>
      <trkpt lat="44.18764" lon="5.30712">
        <ele>914.4</ele>
        <time>2026-05-14T14:00:03.999Z</time>
      </trkpt>
      <trkpt lat="44.18764" lon="5.30712">
        <ele>914.5</ele>
        <time>2026-05-14T14:00:04.999Z</time>
      </trkpt>
      <trkpt lat="44.18764" lon="5.30712">
        <ele>914.7</ele>
        <time>2026-05-14T14:00:05.999Z</time>
      </trkpt>
      <trkpt lat="44.18764" lon="5.30712">
        <ele>914.9</ele>
        <time>2026-05-14T14:00:06.999Z</time>
      </trkpt>
      <trkpt lat="44.18764" lon="5.30712">
        <ele>915</ele>
        <time>2026-05-14T14:00:07.999Z</time>
      </trkpt>
      <trkpt lat="44.18764" lon="5.30712">
        <ele>915.1</ele>
        <time>2026-05-14T14:00:08.999Z</time>
      </trkpt>
      <trkpt lat="44.18764" lon="5.30712">
        <ele>915.3</ele>
        <time>2026-05-14T14:00:09.999Z</time>
      </trkpt>
      <trkpt lat="44.18764" lon="5.30712">
        <ele>915.3</ele>
        <time>2026-05-14T14:00:10.999Z</time>
      </trkpt>
      <trkpt lat="44.18764" lon="5.30712">
        <ele>915.3</ele>
        <time>2026-05-14T14:00:11.999Z</time>
      </trkpt>
      <trkpt lat="44.18764" lon="5.30713">
        <ele>915.2</ele>
        <time>2026-05-14T14:00:12.999Z</time>
      </trkpt>
      <trkpt lat="44.18764" lon="5.30713">
        <ele>915.1</ele>
        <time>2026-05-14T14:00:13.999Z</time>
      </trkpt>
      <trkpt lat="44.18764" lon="5.30713">
        <ele>915</ele>
        <time>2026-05-14T14:00:14.999Z</time>
      </trkpt>
      <trkpt lat="44.18764" lon="5.30713">
        <ele>915</ele>
        <time>2026-05-14T14:00:15.999Z</time>
      </trkpt>
      <trkpt lat="44.18764" lon="5.30712">
        <ele>915</ele>
        <time>2026-05-14T14:00:16.999Z</time>
      </trkpt>
      <trkpt lat="44.18764" lon="5.30712">
        <ele>914.9</ele>
        <time>2026-05-14T14:00:17.999Z</time>
      </trkpt>
      <trkpt lat="44.18764" lon="5.30712">
        <ele>914.9</ele>
        <time>2026-05-14T14:00:18.999Z</time>
      </trkpt>
      <trkpt lat="44.18764" lon="5.30712">
        <ele>915</ele>
        <time>2026-05-14T14:00:19.999Z</time>
      </trkpt>
      <trkpt lat="44.18764" lon="5.30712">
        <ele>914.9</ele>
        <time>2026-05-14T14:00:20.999Z</time>
      </trkpt>
      <trkpt lat="44.18764" lon="5.30712">
        <ele>915</ele>
        <time>2026-05-14T14:00:21.999Z</time>
      </trkpt>
      <trkpt lat="44.18764" lon="5.30712">
        <ele>915.1</ele>
        <time>2026-05-14T14:00:22.999Z</time>
      </trkpt>
      <trkpt lat="44.18764" lon="5.30712">
        <ele>915.2</ele>
        <time>2026-05-14T14:00:23.999Z</time>
      </trkpt>
      <trkpt lat="44.18764" lon="5.30712">
        <ele>915.3</ele>
        <time>2026-05-14T14:00:24.999Z</time>
      </trkpt>
      <trkpt lat="44.18764" lon="5.30712">
        <ele>915.3</ele>
        <time>2026-05-14T14:00:25.999Z</time>
      </trkpt>
      <trkpt lat="44.18764" lon="5.30712">
        <ele>915.4</ele>
        <time>2026-05-14T14:00:26.999Z</time>
      </trkpt>
      <trkpt lat="44.18764" lon="5.30712">
        <ele>915.4</ele>
        <time>2026-05-14T14:00:27.999Z</time>
      </trkpt>
      <trkpt lat="44.18764" lon="5.30712">
        <ele>915.4</ele>
        <time>2026-05-14T14:00:28.999Z</time>
      </trkpt>
      <trkpt lat="44.18764" lon="5.30712">
        <ele>915.4</ele>
        <time>2026-05-14T14:00:29.999Z</time>
      </trkpt>
      <trkpt lat="44.18764" lon="5.30712">
        <ele>915.1</ele>
        <time>2026-05-14T14:00:30.999Z</time>
      </trkpt>
      <trkpt lat="44.18764" lon="5.30712">
        <ele>915</ele>
        <time>2026-05-14T14:00:31.999Z</time>
      </trkpt>
      <trkpt lat="44.18764" lon="5.30713">
        <ele>914.8</ele>
        <time>2026-05-14T14:00:32.999Z</time>
      </trkpt>
      <trkpt lat="44.18764" lon="5.30713">
        <ele>914.6</ele>
        <time>2026-05-14T14:00:33.999Z</time>
      </trkpt>
      <trkpt lat="44.18764" lon="5.30713">
        <ele>914.7</ele>
        <time>2026-05-14T14:00:34.999Z</time>
      </trkpt>
      <trkpt lat="44.18764" lon="5.30714">
        <ele>914.6</ele>
        <time>2026-05-14T14:00:35.999Z</time>
      </trkpt>
      <trkpt lat="44.18764" lon="5.30715">
        <ele>914.4</ele>
        <time>2026-05-14T14:00:36.999Z</time>
      </trkpt>
      <trkpt lat="44.18764" lon="5.30716">
        <ele>914.1</ele>
        <time>2026-05-14T14:00:37.999Z</time>
      </trkpt>
      <trkpt lat="44.18764" lon="5.30718">
        <ele>913.8</ele>
        <time>2026-05-14T14:00:38.999Z</time>
      </trkpt>
      <trkpt lat="44.18765" lon="5.30719">
        <ele>913.5</ele>
        <time>2026-05-14T14:00:39.999Z</time>
      </trkpt>
      <trkpt lat="44.18765" lon="5.3072">
        <ele>913.2</ele>
        <time>2026-05-14T14:00:40.999Z</time>
      </trkpt>
      <trkpt lat="44.18765" lon="5.30721">
        <ele>912.9</ele>
        <time>2026-05-14T14:00:41.999Z</time>
      </trkpt>
      <trkpt lat="44.18765" lon="5.30722">
        <ele>912.6</ele>
        <time>2026-05-14T14:00:42.999Z</time>
      </trkpt>
      <trkpt lat="44.18765" lon="5.30724">
        <ele>912.3</ele>
        <time>2026-05-14T14:00:43.999Z</time>
      </trkpt>
      <trkpt lat="44.18764" lon="5.30725">
        <ele>912.2</ele>
        <time>2026-05-14T14:00:44.999Z</time>
      </trkpt>
      <trkpt lat="44.18764" lon="5.30726">
        <ele>912.2</ele>
        <time>2026-05-14T14:00:45.999Z</time>
      </trkpt>
      <trkpt lat="44.18764" lon="5.30727">
        <ele>912.1</ele>
        <time>2026-05-14T14:00:46.999Z</time>
      </trkpt>
      <trkpt lat="44.18763" lon="5.30728">
        <ele>911.9</ele>
        <time>2026-05-14T14:00:47.999Z</time>
      </trkpt>
      <trkpt lat="44.18763" lon="5.30729">
        <ele>911.7</ele>
        <time>2026-05-14T14:00:48.999Z</time>
      </trkpt>
      <trkpt lat="44.18763" lon="5.3073">
        <ele>911.5</ele>
        <time>2026-05-14T14:00:49.999Z</time>
      </trkpt>
      <trkpt lat="44.18763" lon="5.30731">
        <ele>911.3</ele>
        <time>2026-05-14T14:00:50.999Z</time>
      </trkpt>
      <trkpt lat="44.18763" lon="5.30732">
        <ele>911</ele>
        <time>2026-05-14T14:00:51.999Z</time>
      </trkpt>
      <trkpt lat="44.18763" lon="5.30733">
        <ele>910.8</ele>
        <time>2026-05-14T14:00:52.999Z</time>
      </trkpt>
      <trkpt lat="44.18763" lon="5.30735">
        <ele>910.7</ele>
        <time>2026-05-14T14:00:53.999Z</time>
      </trkpt>
      <trkpt lat="44.18763" lon="5.30736">
        <ele>910.6</ele>
        <time>2026-05-14T14:00:54.999Z</time>
      </trkpt>
      <trkpt lat="44.18762" lon="5.30737">
        <ele>910.5</ele>
        <time>2026-05-14T14:00:55.999Z</time>
      </trkpt>
      <trkpt lat="44.18762" lon="5.30739">
        <ele>910.4</ele>
        <time>2026-05-14T14:00:56.999Z</time>
      </trkpt>
      <trkpt lat="44.18762" lon="5.3074">
        <ele>910.2</ele>
        <time>2026-05-14T14:00:57.999Z</time>
      </trkpt>
      <trkpt lat="44.18762" lon="5.30741">
        <ele>909.9</ele>
        <time>2026-05-14T14:00:58.999Z</time>
      </trkpt>
      <trkpt lat="44.18762" lon="5.30742">
        <ele>909.6</ele>
        <time>2026-05-14T14:00:59.999Z</time>
      </trkpt>
      <trkpt lat="44.18763" lon="5.30742">
        <ele>909.2</ele>
        <time>2026-05-14T14:01:00.999Z</time>
      </trkpt>
      <trkpt lat="44.18763" lon="5.30743">
        <ele>908.8</ele>
        <time>2026-05-14T14:01:01.999Z</time>
      </trkpt>
      <trkpt lat="44.18763" lon="5.30744">
        <ele>908.3</ele>
        <time>2026-05-14T14:01:02.999Z</time>
      </trkpt>
      <trkpt lat="44.18763" lon="5.30746">
        <ele>908.1</ele>
        <time>2026-05-14T14:01:03.999Z</time>
      </trkpt>
      <trkpt lat="44.18764" lon="5.30747">
        <ele>907.9</ele>
        <time>2026-05-14T14:01:04.999Z</time>
      </trkpt>
      <trkpt lat="44.18764" lon="5.30748">
        <ele>907.5</ele>
        <time>2026-05-14T14:01:05.999Z</time>
      </trkpt>
      <trkpt lat="44.18764" lon="5.30749">
        <ele>907.3</ele>
        <time>2026-05-14T14:01:06.999Z</time>
      </trkpt>
      <trkpt lat="44.18764" lon="5.30751">
        <ele>907.2</ele>
        <time>2026-05-14T14:01:07.999Z</time>
      </trkpt>
      <trkpt lat="44.18764" lon="5.30751">
        <ele>907</ele>
        <time>2026-05-14T14:01:08.999Z</time>
      </trkpt>
      <trkpt lat="44.18765" lon="5.30752">
        <ele>906.8</ele>
        <time>2026-05-14T14:01:09.999Z</time>
      </trkpt>
      <trkpt lat="44.18765" lon="5.30754">
        <ele>906.7</ele>
        <time>2026-05-14T14:01:10.999Z</time>
      </trkpt>
      <trkpt lat="44.18765" lon="5.30755">
        <ele>906.4</ele>
        <time>2026-05-14T14:01:11.999Z</time>
      </trkpt>
      <trkpt lat="44.18765" lon="5.30756">
        <ele>906.4</ele>
        <time>2026-05-14T14:01:12.999Z</time>
      </trkpt>
      <trkpt lat="44.18765" lon="5.30757">
        <ele>906.3</ele>
        <time>2026-05-14T14:01:13.999Z</time>
      </trkpt>
      <trkpt lat="44.18765" lon="5.30757">
        <ele>906.2</ele>
        <time>2026-05-14T14:01:14.999Z</time>
      </trkpt>
      <trkpt lat="44.18764" lon="5.30757">
        <ele>906.3</ele>
        <time>2026-05-14T14:01:15.999Z</time>
      </trkpt>
      <trkpt lat="44.18764" lon="5.30757">
        <ele>906</ele>
        <time>2026-05-14T14:01:16.999Z</time>
      </trkpt>
      <trkpt lat="44.18765" lon="5.30757">
        <ele>905.5</ele>
        <time>2026-05-14T14:01:17.999Z</time>
      </trkpt>
      <trkpt lat="44.18765" lon="5.30757">
        <ele>905.6</ele>
        <time>2026-05-14T14:01:18.999Z</time>
      </trkpt>
      <trkpt lat="44.18765" lon="5.30758">
        <ele>905.8</ele>
        <time>2026-05-14T14:01:19.999Z</time>
      </trkpt>
      <trkpt lat="44.18765" lon="5.30758">
        <ele>905.9</ele>
        <time>2026-05-14T14:01:20.999Z</time>
      </trkpt>
      <trkpt lat="44.18765" lon="5.30758">
        <ele>905.9</ele>
        <time>2026-05-14T14:01:21.999Z</time>
      </trkpt>
      <trkpt lat="44.18765" lon="5.30759">
        <ele>906</ele>
        <time>2026-05-14T14:01:22.999Z</time>
      </trkpt>
      <trkpt lat="44.18765" lon="5.30759">
        <ele>906.1</ele>
        <time>2026-05-14T14:01:23.999Z</time>
      </trkpt>
      <trkpt lat="44.18766" lon="5.30761">
        <ele>906.2</ele>
        <time>2026-05-14T14:01:24.999Z</time>
      </trkpt>
      <trkpt lat="44.18766" lon="5.30763">
        <ele>906</ele>
        <time>2026-05-14T14:01:25.999Z</time>
      </trkpt>
      <trkpt lat="44.18767" lon="5.30764">
        <ele>905.6</ele>
        <time>2026-05-14T14:01:26.999Z</time>
      </trkpt>
      <trkpt lat="44.18768" lon="5.30766">
        <ele>905.4</ele>
        <time>2026-05-14T14:01:27.999Z</time>
      </trkpt>
      <trkpt lat="44.18768" lon="5.30767">
        <ele>905.1</ele>
        <time>2026-05-14T14:01:28.999Z</time>
      </trkpt>
      <trkpt lat="44.18769" lon="5.30769">
        <ele>904.9</ele>
        <time>2026-05-14T14:01:29.999Z</time>
      </trkpt>
      <trkpt lat="44.18769" lon="5.3077">
        <ele>904.7</ele>
        <time>2026-05-14T14:01:30.999Z</time>
      </trkpt>
      <trkpt lat="44.1877" lon="5.30772">
        <ele>904.7</ele>
        <time>2026-05-14T14:01:31.999Z</time>
      </trkpt>
      <trkpt lat="44.1877" lon="5.30773">
        <ele>904.2</ele>
        <time>2026-05-14T14:01:32.999Z</time>
      </trkpt>
      <trkpt lat="44.1877" lon="5.30774">
        <ele>903.9</ele>
        <time>2026-05-14T14:01:33.999Z</time>
      </trkpt>
      <trkpt lat="44.18769" lon="5.30776">
        <ele>903.7</ele>
        <time>2026-05-14T14:01:34.999Z</time>
      </trkpt>
      <trkpt lat="44.18769" lon="5.30777">
        <ele>903.7</ele>
        <time>2026-05-14T14:01:35.999Z</time>
      </trkpt>
      <trkpt lat="44.18769" lon="5.30778">
        <ele>903.4</ele>
        <time>2026-05-14T14:01:36.999Z</time>
      </trkpt>
      <trkpt lat="44.18769" lon="5.30779">
        <ele>903.4</ele>
        <time>2026-05-14T14:01:37.999Z</time>
      </trkpt>
      <trkpt lat="44.18769" lon="5.30781">
        <ele>903.4</ele>
        <time>2026-05-14T14:01:38.999Z</time>
      </trkpt>
      <trkpt lat="44.18769" lon="5.30782">
        <ele>903.4</ele>
        <time>2026-05-14T14:01:39.999Z</time>
      </trkpt>
      <trkpt lat="44.18768" lon="5.30783">
        <ele>903</ele>
        <time>2026-05-14T14:01:40.999Z</time>
      </trkpt>
      <trkpt lat="44.18768" lon="5.30783">
        <ele>903</ele>
        <time>2026-05-14T14:01:41.999Z</time>
      </trkpt>
      <trkpt lat="44.18768" lon="5.30785">
        <ele>903.2</ele>
        <time>2026-05-14T14:01:42.999Z</time>
      </trkpt>
      <trkpt lat="44.18768" lon="5.30785">
        <ele>903.3</ele>
        <time>2026-05-14T14:01:43.999Z</time>
      </trkpt>
      <trkpt lat="44.18768" lon="5.30786">
        <ele>902.8</ele>
        <time>2026-05-14T14:01:44.999Z</time>
      </trkpt>
      <trkpt lat="44.18768" lon="5.30788">
        <ele>902.3</ele>
        <time>2026-05-14T14:01:45.999Z</time>
      </trkpt>
      <trkpt lat="44.18768" lon="5.3079">
        <ele>902</ele>
        <time>2026-05-14T14:01:46.999Z</time>
      </trkpt>
      <trkpt lat="44.18767" lon="5.30791">
        <ele>901.7</ele>
        <time>2026-05-14T14:01:47.999Z</time>
      </trkpt>
      <trkpt lat="44.18767" lon="5.30792">
        <ele>901.4</ele>
        <time>2026-05-14T14:01:48.999Z</time>
      </trkpt>
      <trkpt lat="44.18767" lon="5.30793">
        <ele>901.1</ele>
        <time>2026-05-14T14:01:49.999Z</time>
      </trkpt>
      <trkpt lat="44.18767" lon="5.30794">
        <ele>900.7</ele>
        <time>2026-05-14T14:01:50.999Z</time>
      </trkpt>
      <trkpt lat="44.18767" lon="5.30795">
        <ele>900.5</ele>
        <time>2026-05-14T14:01:51.999Z</time>
      </trkpt>
      <trkpt lat="44.18767" lon="5.30796">
        <ele>900.2</ele>
        <time>2026-05-14T14:01:52.999Z</time>
      </trkpt>
      <trkpt lat="44.18767" lon="5.30797">
        <ele>899.9</ele>
        <time>2026-05-14T14:01:53.999Z</time>
      </trkpt>
      <trkpt lat="44.18768" lon="5.30798">
        <ele>899.6</ele>
        <time>2026-05-14T14:01:54.999Z</time>
      </trkpt>
      <trkpt lat="44.18768" lon="5.30799">
        <ele>899.5</ele>
        <time>2026-05-14T14:01:55.999Z</time>
      </trkpt>
      <trkpt lat="44.18768" lon="5.308">
        <ele>899.3</ele>
        <time>2026-05-14T14:01:56.999Z</time>
      </trkpt>
      <trkpt lat="44.18769" lon="5.30801">
        <ele>899</ele>
        <time>2026-05-14T14:01:57.999Z</time>
      </trkpt>
      <trkpt lat="44.18769" lon="5.30802">
        <ele>898.6</ele>
        <time>2026-05-14T14:01:58.999Z</time>
      </trkpt>
      <trkpt lat="44.18769" lon="5.30803">
        <ele>898.5</ele>
        <time>2026-05-14T14:01:59.999Z</time>
      </trkpt>
      <trkpt lat="44.18769" lon="5.30805">
        <ele>898.4</ele>
        <time>2026-05-14T14:02:00.999Z</time>
      </trkpt>
      <trkpt lat="44.18769" lon="5.30807">
        <ele>898.3</ele>
        <time>2026-05-14T14:02:01.999Z</time>
      </trkpt>
      <trkpt lat="44.18769" lon="5.30808">
        <ele>897.8</ele>
        <time>2026-05-14T14:02:02.999Z</time>
      </trkpt>
      <trkpt lat="44.18769" lon="5.30809">
        <ele>897.5</ele>
        <time>2026-05-14T14:02:03.999Z</time>
      </trkpt>
      <trkpt lat="44.18769" lon="5.3081">
        <ele>897.3</ele>
        <time>2026-05-14T14:02:04.999Z</time>
      </trkpt>
      <trkpt lat="44.18769" lon="5.30811">
        <ele>897</ele>
        <time>2026-05-14T14:02:05.999Z</time>
      </trkpt>
      <trkpt lat="44.18769" lon="5.30812">
        <ele>896.7</ele>
        <time>2026-05-14T14:02:06.999Z</time>
      </trkpt>
      <trkpt lat="44.18769" lon="5.30813">
        <ele>896.5</ele>
        <time>2026-05-14T14:02:07.999Z</time>
      </trkpt>
      <trkpt lat="44.18769" lon="5.30814">
        <ele>896.4</ele>
        <time>2026-05-14T14:02:08.999Z</time>
      </trkpt>
      <trkpt lat="44.18769" lon="5.30815">
        <ele>896.1</ele>
        <time>2026-05-14T14:02:09.999Z</time>
      </trkpt>
      <trkpt lat="44.18769" lon="5.30816">
        <ele>895.8</ele>
        <time>2026-05-14T14:02:10.999Z</time>
      </trkpt>
      <trkpt lat="44.18768" lon="5.30817">
        <ele>895.4</ele>
        <time>2026-05-14T14:02:11.999Z</time>
      </trkpt>
      <trkpt lat="44.18768" lon="5.30819">
        <ele>895.2</ele>
        <time>2026-05-14T14:02:12.999Z</time>
      </trkpt>
      <trkpt lat="44.18768" lon="5.3082">
        <ele>895.1</ele>
        <time>2026-05-14T14:02:13.999Z</time>
      </trkpt>
      <trkpt lat="44.18768" lon="5.30821">
        <ele>894.9</ele>
        <time>2026-05-14T14:02:14.999Z</time>
      </trkpt>
      <trkpt lat="44.18769" lon="5.30821">
        <ele>894.8</ele>
        <time>2026-05-14T14:02:15.999Z</time>
      </trkpt>
      <trkpt lat="44.18769" lon="5.30822">
        <ele>894.7</ele>
        <time>2026-05-14T14:02:16.999Z</time>
      </trkpt>
      <trkpt lat="44.18769" lon="5.30822">
        <ele>894.5</ele>
        <time>2026-05-14T14:02:17.999Z</time>
      </trkpt>
      <trkpt lat="44.18769" lon="5.30824">
        <ele>894.4</ele>
        <time>2026-05-14T14:02:18.999Z</time>
      </trkpt>
      <trkpt lat="44.18769" lon="5.30825">
        <ele>894.4</ele>
        <time>2026-05-14T14:02:19.999Z</time>
      </trkpt>
      <trkpt lat="44.18769" lon="5.30827">
        <ele>894.3</ele>
        <time>2026-05-14T14:02:20.999Z</time>
      </trkpt>
      <trkpt lat="44.18769" lon="5.30828">
        <ele>894.3</ele>
        <time>2026-05-14T14:02:21.999Z</time>
      </trkpt>
      <trkpt lat="44.18769" lon="5.30829">
        <ele>894.2</ele>
        <time>2026-05-14T14:02:22.999Z</time>
      </trkpt>
      <trkpt lat="44.18769" lon="5.3083">
        <ele>894.1</ele>
        <time>2026-05-14T14:02:23.999Z</time>
      </trkpt>
      <trkpt lat="44.18769" lon="5.30831">
        <ele>894</ele>
        <time>2026-05-14T14:02:24.999Z</time>
      </trkpt>
      <trkpt lat="44.18769" lon="5.30832">
        <ele>893.8</ele>
        <time>2026-05-14T14:02:25.999Z</time>
      </trkpt>
      <trkpt lat="44.18769" lon="5.30833">
        <ele>893.6</ele>
        <time>2026-05-14T14:02:26.999Z</time>
      </trkpt>
      <trkpt lat="44.18769" lon="5.30834">
        <ele>893.3</ele>
        <time>2026-05-14T14:02:27.999Z</time>
      </trkpt>
      <trkpt lat="44.18769" lon="5.30836">
        <ele>893.2</ele>
        <time>2026-05-14T14:02:28.999Z</time>
      </trkpt>
      <trkpt lat="44.1877" lon="5.30837">
        <ele>892.9</ele>
        <time>2026-05-14T14:02:29.999Z</time>
      </trkpt>
      <trkpt lat="44.18769" lon="5.30838">
        <ele>892.8</ele>
        <time>2026-05-14T14:02:30.999Z</time>
      </trkpt>
      <trkpt lat="44.18769" lon="5.3084">
        <ele>892.4</ele>
        <time>2026-05-14T14:02:31.999Z</time>
      </trkpt>
      <trkpt lat="44.18769" lon="5.3084">
        <ele>892</ele>
        <time>2026-05-14T14:02:32.999Z</time>
      </trkpt>
      <trkpt lat="44.18769" lon="5.30841">
        <ele>891.8</ele>
        <time>2026-05-14T14:02:33.999Z</time>
      </trkpt>
      <trkpt lat="44.18769" lon="5.30842">
        <ele>891.6</ele>
        <time>2026-05-14T14:02:34.999Z</time>
      </trkpt>
      <trkpt lat="44.18769" lon="5.30843">
        <ele>891.4</ele>
        <time>2026-05-14T14:02:35.999Z</time>
      </trkpt>
      <trkpt lat="44.18769" lon="5.30844">
        <ele>891.2</ele>
        <time>2026-05-14T14:02:36.999Z</time>
      </trkpt>
      <trkpt lat="44.1877" lon="5.30845">
        <ele>891</ele>
        <time>2026-05-14T14:02:37.999Z</time>
      </trkpt>
      <trkpt lat="44.18769" lon="5.30846">
        <ele>890.8</ele>
        <time>2026-05-14T14:02:38.999Z</time>
      </trkpt>
      <trkpt lat="44.18769" lon="5.30847">
        <ele>890.6</ele>
        <time>2026-05-14T14:02:39.999Z</time>
      </trkpt>
      <trkpt lat="44.18769" lon="5.30848">
        <ele>890.5</ele>
        <time>2026-05-14T14:02:40.999Z</time>
      </trkpt>
      <trkpt lat="44.18769" lon="5.30849">
        <ele>890.4</ele>
        <time>2026-05-14T14:02:41.999Z</time>
      </trkpt>
      <trkpt lat="44.18769" lon="5.3085">
        <ele>890.1</ele>
        <time>2026-05-14T14:02:42.999Z</time>
      </trkpt>
      <trkpt lat="44.1877" lon="5.30851">
        <ele>889.6</ele>
        <time>2026-05-14T14:02:43.999Z</time>
      </trkpt>
      <trkpt lat="44.1877" lon="5.30852">
        <ele>889.2</ele>
        <time>2026-05-14T14:02:44.999Z</time>
      </trkpt>
      <trkpt lat="44.1877" lon="5.30853">
        <ele>888.9</ele>
        <time>2026-05-14T14:02:45.999Z</time>
      </trkpt>
      <trkpt lat="44.1877" lon="5.30854">
        <ele>888.3</ele>
        <time>2026-05-14T14:02:46.999Z</time>
      </trkpt>
      <trkpt lat="44.1877" lon="5.30855">
        <ele>887.9</ele>
        <time>2026-05-14T14:02:47.999Z</time>
      </trkpt>
      <trkpt lat="44.1877" lon="5.30856">
        <ele>887.4</ele>
        <time>2026-05-14T14:02:48.999Z</time>
      </trkpt>
      <trkpt lat="44.1877" lon="5.30856">
        <ele>887</ele>
        <time>2026-05-14T14:02:49.999Z</time>
      </trkpt>
      <trkpt lat="44.1877" lon="5.30857">
        <ele>886.4</ele>
        <time>2026-05-14T14:02:50.999Z</time>
      </trkpt>
      <trkpt lat="44.1877" lon="5.30858">
        <ele>886</ele>
        <time>2026-05-14T14:02:51.999Z</time>
      </trkpt>
      <trkpt lat="44.1877" lon="5.30859">
        <ele>885.7</ele>
        <time>2026-05-14T14:02:52.999Z</time>
      </trkpt>
      <trkpt lat="44.1877" lon="5.3086">
        <ele>885.6</ele>
        <time>2026-05-14T14:02:53.999Z</time>
      </trkpt>
      <trkpt lat="44.1877" lon="5.30861">
        <ele>885.4</ele>
        <time>2026-05-14T14:02:54.999Z</time>
      </trkpt>
      <trkpt lat="44.18771" lon="5.30862">
        <ele>885.2</ele>
        <time>2026-05-14T14:02:55.999Z</time>
      </trkpt>
      <trkpt lat="44.18771" lon="5.30863">
        <ele>885.3</ele>
        <time>2026-05-14T14:02:56.999Z</time>
      </trkpt>
      <trkpt lat="44.18772" lon="5.30864">
        <ele>885.1</ele>
        <time>2026-05-14T14:02:57.999Z</time>
      </trkpt>
      <trkpt lat="44.18772" lon="5.30865">
        <ele>885</ele>
        <time>2026-05-14T14:02:58.999Z</time>
      </trkpt>
      <trkpt lat="44.18772" lon="5.30866">
        <ele>884.8</ele>
        <time>2026-05-14T14:02:59.999Z</time>
      </trkpt>
      <trkpt lat="44.18772" lon="5.30867">
        <ele>884.6</ele>
        <time>2026-05-14T14:03:00.999Z</time>
      </trkpt>
      <trkpt lat="44.18772" lon="5.30868">
        <ele>884.6</ele>
        <time>2026-05-14T14:03:01.999Z</time>
      </trkpt>
      <trkpt lat="44.18773" lon="5.30869">
        <ele>884.5</ele>
        <time>2026-05-14T14:03:02.999Z</time>
      </trkpt>
      <trkpt lat="44.18773" lon="5.3087">
        <ele>884.5</ele>
        <time>2026-05-14T14:03:03.999Z</time>
      </trkpt>
      <trkpt lat="44.18773" lon="5.3087">
        <ele>884.3</ele>
        <time>2026-05-14T14:03:04.999Z</time>
      </trkpt>
      <trkpt lat="44.18773" lon="5.30871">
        <ele>884.1</ele>
        <time>2026-05-14T14:03:05.999Z</time>
      </trkpt>
      <trkpt lat="44.18773" lon="5.30873">
        <ele>883.7</ele>
        <time>2026-05-14T14:03:06.999Z</time>
      </trkpt>
      <trkpt lat="44.18773" lon="5.30874">
        <ele>883.6</ele>
        <time>2026-05-14T14:03:07.999Z</time>
      </trkpt>
      <trkpt lat="44.18773" lon="5.30875">
        <ele>883.5</ele>
        <time>2026-05-14T14:03:08.999Z</time>
      </trkpt>
      <trkpt lat="44.18773" lon="5.30877">
        <ele>883.1</ele>
        <time>2026-05-14T14:03:09.999Z</time>
      </trkpt>
      <trkpt lat="44.18773" lon="5.30878">
        <ele>882.7</ele>
        <time>2026-05-14T14:03:10.999Z</time>
      </trkpt>
      <trkpt lat="44.18773" lon="5.3088">
        <ele>882.3</ele>
        <time>2026-05-14T14:03:11.999Z</time>
      </trkpt>
      <trkpt lat="44.18774" lon="5.3088">
        <ele>882.1</ele>
        <time>2026-05-14T14:03:12.999Z</time>
      </trkpt>
      <trkpt lat="44.18774" lon="5.30882">
        <ele>881.7</ele>
        <time>2026-05-14T14:03:13.999Z</time>
      </trkpt>
      <trkpt lat="44.18774" lon="5.30882">
        <ele>881.3</ele>
        <time>2026-05-14T14:03:14.999Z</time>
      </trkpt>
      <trkpt lat="44.18774" lon="5.30883">
        <ele>880.8</ele>
        <time>2026-05-14T14:03:15.999Z</time>
      </trkpt>
      <trkpt lat="44.18774" lon="5.30883">
        <ele>880.4</ele>
        <time>2026-05-14T14:03:16.999Z</time>
      </trkpt>
      <trkpt lat="44.18774" lon="5.30883">
        <ele>880.1</ele>
        <time>2026-05-14T14:03:17.999Z</time>
      </trkpt>
      <trkpt lat="44.18774" lon="5.30884">
        <ele>879.8</ele>
        <time>2026-05-14T14:03:18.999Z</time>
      </trkpt>
      <trkpt lat="44.18774" lon="5.30885">
        <ele>879.7</ele>
        <time>2026-05-14T14:03:19.999Z</time>
      </trkpt>
      <trkpt lat="44.18774" lon="5.30887">
        <ele>879.4</ele>
        <time>2026-05-14T14:03:20.999Z</time>
      </trkpt>
      <trkpt lat="44.18773" lon="5.30888">
        <ele>879.2</ele>
        <time>2026-05-14T14:03:21.999Z</time>
      </trkpt>
      <trkpt lat="44.18774" lon="5.30889">
        <ele>878.9</ele>
        <time>2026-05-14T14:03:22.999Z</time>
      </trkpt>
      <trkpt lat="44.18774" lon="5.30889">
        <ele>878.4</ele>
        <time>2026-05-14T14:03:23.999Z</time>
      </trkpt>
      <trkpt lat="44.18774" lon="5.30891">
        <ele>878.1</ele>
        <time>2026-05-14T14:03:24.999Z</time>
      </trkpt>
      <trkpt lat="44.18774" lon="5.30891">
        <ele>877.6</ele>
        <time>2026-05-14T14:03:25.999Z</time>
      </trkpt>
      <trkpt lat="44.18774" lon="5.30892">
        <ele>877.3</ele>
        <time>2026-05-14T14:03:26.999Z</time>
      </trkpt>
      <trkpt lat="44.18773" lon="5.30891">
        <ele>877.1</ele>
        <time>2026-05-14T14:03:27.999Z</time>
      </trkpt>
      <trkpt lat="44.18773" lon="5.30891">
        <ele>876.9</ele>
        <time>2026-05-14T14:03:28.999Z</time>
      </trkpt>
      <trkpt lat="44.18773" lon="5.30891">
        <ele>876.7</ele>
        <time>2026-05-14T14:03:29.999Z</time>
      </trkpt>
      <trkpt lat="44.18773" lon="5.30891">
        <ele>876.7</ele>
        <time>2026-05-14T14:03:30.999Z</time>
      </trkpt>
      <trkpt lat="44.18774" lon="5.30891">
        <ele>876.7</ele>
        <time>2026-05-14T14:03:31.999Z</time>
      </trkpt>
      <trkpt lat="44.18773" lon="5.30891">
        <ele>876.6</ele>
        <time>2026-05-14T14:03:32.999Z</time>
      </trkpt>
      <trkpt lat="44.18774" lon="5.30891">
        <ele>876.6</ele>
        <time>2026-05-14T14:03:33.999Z</time>
      </trkpt>
      <trkpt lat="44.18774" lon="5.30892">
        <ele>876.5</ele>
        <time>2026-05-14T14:03:34.999Z</time>
      </trkpt>
      <trkpt lat="44.18774" lon="5.30892">
        <ele>876.5</ele>
        <time>2026-05-14T14:03:35.999Z</time>
      </trkpt>
      <trkpt lat="44.18774" lon="5.30893">
        <ele>876.4</ele>
        <time>2026-05-14T14:03:36.999Z</time>
      </trkpt>
      <trkpt lat="44.18775" lon="5.30894">
        <ele>876.3</ele>
        <time>2026-05-14T14:03:37.999Z</time>
      </trkpt>
      <trkpt lat="44.18775" lon="5.30894">
        <ele>876.1</ele>
        <time>2026-05-14T14:03:38.999Z</time>
      </trkpt>
      <trkpt lat="44.18775" lon="5.30894">
        <ele>876</ele>
        <time>2026-05-14T14:03:39.999Z</time>
      </trkpt>
      <trkpt lat="44.18776" lon="5.30895">
        <ele>875.9</ele>
        <time>2026-05-14T14:03:40.999Z</time>
      </trkpt>
      <trkpt lat="44.18776" lon="5.30895">
        <ele>875.7</ele>
        <time>2026-05-14T14:03:41.999Z</time>
      </trkpt>
      <trkpt lat="44.18777" lon="5.30896">
        <ele>875.6</ele>
        <time>2026-05-14T14:03:42.999Z</time>
      </trkpt>
      <trkpt lat="44.18777" lon="5.30896">
        <ele>875.8</ele>
        <time>2026-05-14T14:03:43.999Z</time>
      </trkpt>
      <trkpt lat="44.18778" lon="5.30897">
        <ele>875.8</ele>
        <time>2026-05-14T14:03:44.999Z</time>
      </trkpt>
      <trkpt lat="44.18779" lon="5.30898">
        <ele>875.9</ele>
        <time>2026-05-14T14:03:45.999Z</time>
      </trkpt>
      <trkpt lat="44.18779" lon="5.30899">
        <ele>875.9</ele>
        <time>2026-05-14T14:03:46.999Z</time>
      </trkpt>
      <trkpt lat="44.18779" lon="5.30899">
        <ele>875.9</ele>
        <time>2026-05-14T14:03:47.999Z</time>
      </trkpt>
      <trkpt lat="44.18779" lon="5.309">
        <ele>875.8</ele>
        <time>2026-05-14T14:03:48.999Z</time>
      </trkpt>
      <trkpt lat="44.1878" lon="5.30901">
        <ele>875.8</ele>
        <time>2026-05-14T14:03:49.999Z</time>
      </trkpt>
      <trkpt lat="44.18781" lon="5.30902">
        <ele>875.7</ele>
        <time>2026-05-14T14:03:50.999Z</time>
      </trkpt>
      <trkpt lat="44.18781" lon="5.30903">
        <ele>875.5</ele>
        <time>2026-05-14T14:03:51.999Z</time>
      </trkpt>
      <trkpt lat="44.18781" lon="5.30904">
        <ele>875.3</ele>
        <time>2026-05-14T14:03:52.999Z</time>
      </trkpt>
      <trkpt lat="44.18781" lon="5.30905">
        <ele>874.7</ele>
        <time>2026-05-14T14:03:53.999Z</time>
      </trkpt>
      <trkpt lat="44.18781" lon="5.30906">
        <ele>874.6</ele>
        <time>2026-05-14T14:03:54.999Z</time>
      </trkpt>
      <trkpt lat="44.18781" lon="5.30907">
        <ele>874.5</ele>
        <time>2026-05-14T14:03:55.999Z</time>
      </trkpt>
      <trkpt lat="44.18781" lon="5.30907">
        <ele>874.6</ele>
        <time>2026-05-14T14:03:56.999Z</time>
      </trkpt>
      <trkpt lat="44.18781" lon="5.30908">
        <ele>874.4</ele>
        <time>2026-05-14T14:03:57.999Z</time>
      </trkpt>
      <trkpt lat="44.18781" lon="5.30909">
        <ele>874.2</ele>
        <time>2026-05-14T14:03:58.999Z</time>
      </trkpt>
      <trkpt lat="44.18782" lon="5.3091">
        <ele>874</ele>
        <time>2026-05-14T14:03:59.999Z</time>
      </trkpt>
      <trkpt lat="44.18782" lon="5.30911">
        <ele>873.9</ele>
        <time>2026-05-14T14:04:00.999Z</time>
      </trkpt>
      <trkpt lat="44.18782" lon="5.30912">
        <ele>874.1</ele>
        <time>2026-05-14T14:04:01.999Z</time>
      </trkpt>
      <trkpt lat="44.18782" lon="5.30913">
        <ele>874.2</ele>
        <time>2026-05-14T14:04:02.999Z</time>
      </trkpt>
      <trkpt lat="44.18782" lon="5.30914">
        <ele>874.3</ele>
        <time>2026-05-14T14:04:03.999Z</time>
      </trkpt>
      <trkpt lat="44.18782" lon="5.30915">
        <ele>874.3</ele>
        <time>2026-05-14T14:04:04.999Z</time>
      </trkpt>
      <trkpt lat="44.18782" lon="5.30915">
        <ele>874</ele>
        <time>2026-05-14T14:04:05.999Z</time>
      </trkpt>
      <trkpt lat="44.18782" lon="5.30916">
        <ele>873.8</ele>
        <time>2026-05-14T14:04:06.999Z</time>
      </trkpt>
      <trkpt lat="44.18782" lon="5.30916">
        <ele>873.6</ele>
        <time>2026-05-14T14:04:07.999Z</time>
      </trkpt>
      <trkpt lat="44.18783" lon="5.30917">
        <ele>873.3</ele>
        <time>2026-05-14T14:04:08.999Z</time>
      </trkpt>
      <trkpt lat="44.18783" lon="5.30918">
        <ele>873.2</ele>
        <time>2026-05-14T14:04:09.999Z</time>
      </trkpt>
      <trkpt lat="44.18784" lon="5.30919">
        <ele>872.9</ele>
        <time>2026-05-14T14:04:10.999Z</time>
      </trkpt>
      <trkpt lat="44.18784" lon="5.3092">
        <ele>872.6</ele>
        <time>2026-05-14T14:04:11.999Z</time>
      </trkpt>
      <trkpt lat="44.18784" lon="5.30921">
        <ele>872.5</ele>
        <time>2026-05-14T14:04:12.999Z</time>
      </trkpt>
      <trkpt lat="44.18784" lon="5.30922">
        <ele>872.4</ele>
        <time>2026-05-14T14:04:13.999Z</time>
      </trkpt>
      <trkpt lat="44.18784" lon="5.30923">
        <ele>872.3</ele>
        <time>2026-05-14T14:04:14.999Z</time>
      </trkpt>
      <trkpt lat="44.18784" lon="5.30924">
        <ele>872.1</ele>
        <time>2026-05-14T14:04:15.999Z</time>
      </trkpt>
      <trkpt lat="44.18784" lon="5.30925">
        <ele>872</ele>
        <time>2026-05-14T14:04:16.999Z</time>
      </trkpt>
      <trkpt lat="44.18784" lon="5.30925">
        <ele>872</ele>
        <time>2026-05-14T14:04:17.999Z</time>
      </trkpt>
      <trkpt lat="44.18785" lon="5.30926">
        <ele>871.9</ele>
        <time>2026-05-14T14:04:18.999Z</time>
      </trkpt>
      <trkpt lat="44.18784" lon="5.30925">
        <ele>870.8</ele>
        <time>2026-05-14T14:04:19.999Z</time>
      </trkpt>
      <trkpt lat="44.18784" lon="5.30926">
        <ele>870.7</ele>
        <time>2026-05-14T14:04:20.999Z</time>
      </trkpt>
      <trkpt lat="44.18785" lon="5.30927">
        <ele>870.6</ele>
        <time>2026-05-14T14:04:21.999Z</time>
      </trkpt>
      <trkpt lat="44.18786" lon="5.30929">
        <ele>870.6</ele>
        <time>2026-05-14T14:04:22.999Z</time>
      </trkpt>
      <trkpt lat="44.18786" lon="5.3093">
        <ele>870.3</ele>
        <time>2026-05-14T14:04:23.999Z</time>
      </trkpt>
      <trkpt lat="44.18787" lon="5.30932">
        <ele>870.1</ele>
        <time>2026-05-14T14:04:24.999Z</time>
      </trkpt>
      <trkpt lat="44.18787" lon="5.30933">
        <ele>869.8</ele>
        <time>2026-05-14T14:04:25.999Z</time>
      </trkpt>
      <trkpt lat="44.18787" lon="5.30934">
        <ele>869.5</ele>
        <time>2026-05-14T14:04:26.999Z</time>
      </trkpt>
      <trkpt lat="44.18787" lon="5.30935">
        <ele>869.7</ele>
        <time>2026-05-14T14:04:27.999Z</time>
      </trkpt>
      <trkpt lat="44.18787" lon="5.30936">
        <ele>869.7</ele>
        <time>2026-05-14T14:04:28.999Z</time>
      </trkpt>
      <trkpt lat="44.18787" lon="5.30937">
        <ele>869.6</ele>
        <time>2026-05-14T14:04:29.999Z</time>
      </trkpt>
      <trkpt lat="44.18787" lon="5.30939">
        <ele>869.7</ele>
        <time>2026-05-14T14:04:30.999Z</time>
      </trkpt>
      <trkpt lat="44.18787" lon="5.30939">
        <ele>869.6</ele>
        <time>2026-05-14T14:04:31.999Z</time>
      </trkpt>
      <trkpt lat="44.18787" lon="5.30939">
        <ele>869.4</ele>
        <time>2026-05-14T14:04:32.999Z</time>
      </trkpt>
      <trkpt lat="44.18786" lon="5.30939">
        <ele>869</ele>
        <time>2026-05-14T14:04:33.999Z</time>
      </trkpt>
      <trkpt lat="44.18787" lon="5.30939">
        <ele>868.4</ele>
        <time>2026-05-14T14:04:34.999Z</time>
      </trkpt>
      <trkpt lat="44.18787" lon="5.30938">
        <ele>867.8</ele>
        <time>2026-05-14T14:04:35.999Z</time>
      </trkpt>
      <trkpt lat="44.18787" lon="5.30938">
        <ele>868</ele>
        <time>2026-05-14T14:04:36.999Z</time>
      </trkpt>
      <trkpt lat="44.18787" lon="5.30938">
        <ele>867.8</ele>
        <time>2026-05-14T14:04:37.999Z</time>
      </trkpt>
      <trkpt lat="44.18787" lon="5.30938">
        <ele>867.7</ele>
        <time>2026-05-14T14:04:38.999Z</time>
      </trkpt>
      <trkpt lat="44.18787" lon="5.30938">
        <ele>867.6</ele>
        <time>2026-05-14T14:04:39.999Z</time>
      </trkpt>
      <trkpt lat="44.18787" lon="5.30938">
        <ele>867.6</ele>
        <time>2026-05-14T14:04:40.999Z</time>
      </trkpt>
      <trkpt lat="44.18787" lon="5.30938">
        <ele>867.7</ele>
        <time>2026-05-14T14:04:41.999Z</time>
      </trkpt>
      <trkpt lat="44.18787" lon="5.30938">
        <ele>867.7</ele>
        <time>2026-05-14T14:04:42.999Z</time>
      </trkpt>
      <trkpt lat="44.18787" lon="5.30938">
        <ele>867.6</ele>
        <time>2026-05-14T14:04:43.999Z</time>
      </trkpt>
      <trkpt lat="44.18787" lon="5.30938">
        <ele>867.5</ele>
        <time>2026-05-14T14:04:44.999Z</time>
      </trkpt>
      <trkpt lat="44.18787" lon="5.30938">
        <ele>867.3</ele>
        <time>2026-05-14T14:04:45.999Z</time>
      </trkpt>
      <trkpt lat="44.18787" lon="5.30938">
        <ele>867.2</ele>
        <time>2026-05-14T14:04:46.999Z</time>
      </trkpt>
      <trkpt lat="44.18787" lon="5.30938">
        <ele>866.9</ele>
        <time>2026-05-14T14:04:47.999Z</time>
      </trkpt>
      <trkpt lat="44.18787" lon="5.30938">
        <ele>866.7</ele>
        <time>2026-05-14T14:04:48.999Z</time>
      </trkpt>
      <trkpt lat="44.18787" lon="5.30938">
        <ele>866.5</ele>
        <time>2026-05-14T14:04:49.999Z</time>
      </trkpt>
      <trkpt lat="44.18787" lon="5.30938">
        <ele>866.4</ele>
        <time>2026-05-14T14:04:50.999Z</time>
      </trkpt>
      <trkpt lat="44.18787" lon="5.30938">
        <ele>866.4</ele>
        <time>2026-05-14T14:04:51.999Z</time>
      </trkpt>
      <trkpt lat="44.18787" lon="5.30938">
        <ele>866.3</ele>
        <time>2026-05-14T14:04:52.999Z</time>
      </trkpt>
      <trkpt lat="44.18787" lon="5.30938">
        <ele>866.2</ele>
        <time>2026-05-14T14:04:53.999Z</time>
      </trkpt>
      <trkpt lat="44.18787" lon="5.30938">
        <ele>866.1</ele>
        <time>2026-05-14T14:04:54.999Z</time>
      </trkpt>
      <trkpt lat="44.18787" lon="5.30938">
        <ele>866</ele>
        <time>2026-05-14T14:04:55.999Z</time>
      </trkpt>
      <trkpt lat="44.18787" lon="5.30938">
        <ele>865.8</ele>
        <time>2026-05-14T14:04:56.999Z</time>
      </trkpt>
      <trkpt lat="44.18787" lon="5.30938">
        <ele>865.8</ele>
        <time>2026-05-14T14:04:57.999Z</time>
      </trkpt>
      <trkpt lat="44.18787" lon="5.30938">
        <ele>865.6</ele>
        <time>2026-05-14T14:04:58.999Z</time>
      </trkpt>
      <trkpt lat="44.18787" lon="5.30938">
        <ele>865.6</ele>
        <time>2026-05-14T14:04:59.999Z</time>
      </trkpt>
      <trkpt lat="44.18787" lon="5.30938">
        <ele>865.5</ele>
        <time>2026-05-14T14:05:00.999Z</time>
      </trkpt>
      <trkpt lat="44.18787" lon="5.30938">
        <ele>865.3</ele>
        <time>2026-05-14T14:05:01.999Z</time>
      </trkpt>
      <trkpt lat="44.18787" lon="5.30938">
        <ele>865.1</ele>
        <time>2026-05-14T14:05:02.999Z</time>
      </trkpt>
      <trkpt lat="44.18787" lon="5.30938">
        <ele>865.3</ele>
        <time>2026-05-14T14:05:03.999Z</time>
      </trkpt>
      <trkpt lat="44.18787" lon="5.30938">
        <ele>865.7</ele>
        <time>2026-05-14T14:05:04.999Z</time>
      </trkpt>
      <trkpt lat="44.18787" lon="5.30938">
        <ele>866</ele>
        <time>2026-05-14T14:05:05.999Z</time>
      </trkpt>
      <trkpt lat="44.18787" lon="5.30938">
        <ele>866.2</ele>
        <time>2026-05-14T14:05:06.999Z</time>
      </trkpt>
      <trkpt lat="44.18787" lon="5.30938">
        <ele>866.6</ele>
        <time>2026-05-14T14:05:07.999Z</time>
      </trkpt>
      <trkpt lat="44.18787" lon="5.30938">
        <ele>866.8</ele>
        <time>2026-05-14T14:05:08.999Z</time>
      </trkpt>
      <trkpt lat="44.18787" lon="5.30938">
        <ele>866.9</ele>
        <time>2026-05-14T14:05:09.999Z</time>
      </trkpt>
      <trkpt lat="44.18786" lon="5.30938">
        <ele>867.1</ele>
        <time>2026-05-14T14:05:10.999Z</time>
      </trkpt>
      <trkpt lat="44.18787" lon="5.30938">
        <ele>867.5</ele>
        <time>2026-05-14T14:05:11.999Z</time>
      </trkpt>
      <trkpt lat="44.18787" lon="5.30938">
        <ele>867.5</ele>
        <time>2026-05-14T14:05:12.999Z</time>
      </trkpt>
      <trkpt lat="44.18787" lon="5.30938">
        <ele>867.5</ele>
        <time>2026-05-14T14:05:13.999Z</time>
      </trkpt>
      <trkpt lat="44.18787" lon="5.30938">
        <ele>867.4</ele>
        <time>2026-05-14T14:05:14.999Z</time>
      </trkpt>
      <trkpt lat="44.18787" lon="5.30938">
        <ele>867.1</ele>
        <time>2026-05-14T14:05:15.999Z</time>
      </trkpt>
      <trkpt lat="44.18787" lon="5.30938">
        <ele>867</ele>
        <time>2026-05-14T14:05:16.999Z</time>
      </trkpt>
      <trkpt lat="44.18787" lon="5.30938">
        <ele>866.8</ele>
        <time>2026-05-14T14:05:17.999Z</time>
      </trkpt>
      <trkpt lat="44.18787" lon="5.30938">
        <ele>866.9</ele>
        <time>2026-05-14T14:05:18.999Z</time>
      </trkpt>
      <trkpt lat="44.18787" lon="5.30938">
        <ele>867</ele>
        <time>2026-05-14T14:05:19.999Z</time>
      </trkpt>
      <trkpt lat="44.18787" lon="5.30938">
        <ele>866.9</ele>
        <time>2026-05-14T14:05:20.999Z</time>
      </trkpt>
      <trkpt lat="44.18787" lon="5.30938">
        <ele>866.8</ele>
        <time>2026-05-14T14:05:21.999Z</time>
      </trkpt>
      <trkpt lat="44.18787" lon="5.30938">
        <ele>866.9</ele>
        <time>2026-05-14T14:05:22.999Z</time>
      </trkpt>
      <trkpt lat="44.18787" lon="5.30938">
        <ele>867</ele>
        <time>2026-05-14T14:05:23.999Z</time>
      </trkpt>
      <trkpt lat="44.18787" lon="5.30938">
        <ele>866.6</ele>
        <time>2026-05-14T14:05:24.999Z</time>
      </trkpt>
      <trkpt lat="44.18787" lon="5.30938">
        <ele>866.3</ele>
        <time>2026-05-14T14:05:25.999Z</time>
      </trkpt>
      <trkpt lat="44.18787" lon="5.30938">
        <ele>866.2</ele>
        <time>2026-05-14T14:05:26.999Z</time>
      </trkpt>
      <trkpt lat="44.18787" lon="5.30938">
        <ele>866.1</ele>
        <time>2026-05-14T14:05:27.999Z</time>
      </trkpt>
      <trkpt lat="44.18787" lon="5.30938">
        <ele>866.1</ele>
        <time>2026-05-14T14:05:28.999Z</time>
      </trkpt>
      <trkpt lat="44.18787" lon="5.30938">
        <ele>866.2</ele>
        <time>2026-05-14T14:05:29.999Z</time>
      </trkpt>
      <trkpt lat="44.18786" lon="5.30938">
        <ele>866.1</ele>
        <time>2026-05-14T14:05:30.999Z</time>
      </trkpt>
      <trkpt lat="44.18787" lon="5.30938">
        <ele>866.1</ele>
        <time>2026-05-14T14:05:31.999Z</time>
      </trkpt>
      <trkpt lat="44.18787" lon="5.30938">
        <ele>866.3</ele>
        <time>2026-05-14T14:05:32.999Z</time>
      </trkpt>
      <trkpt lat="44.18787" lon="5.30938">
        <ele>866.3</ele>
        <time>2026-05-14T14:05:33.999Z</time>
      </trkpt>
      <trkpt lat="44.18788" lon="5.30939">
        <ele>866.3</ele>
        <time>2026-05-14T14:05:34.999Z</time>
      </trkpt>
      <trkpt lat="44.18789" lon="5.3094">
        <ele>866</ele>
        <time>2026-05-14T14:05:35.999Z</time>
      </trkpt>
      <trkpt lat="44.1879" lon="5.30941">
        <ele>865.9</ele>
        <time>2026-05-14T14:05:36.999Z</time>
      </trkpt>
      <trkpt lat="44.18791" lon="5.30941">
        <ele>866</ele>
        <time>2026-05-14T14:05:37.999Z</time>
      </trkpt>
      <trkpt lat="44.18791" lon="5.30942">
        <ele>865.9</ele>
        <time>2026-05-14T14:05:38.999Z</time>
      </trkpt>
      <trkpt lat="44.18792" lon="5.30942">
        <ele>865.8</ele>
        <time>2026-05-14T14:05:39.999Z</time>
      </trkpt>
      <trkpt lat="44.18792" lon="5.30942">
        <ele>865.9</ele>
        <time>2026-05-14T14:05:40.999Z</time>
      </trkpt>
      <trkpt lat="44.18793" lon="5.30942">
        <ele>866.1</ele>
        <time>2026-05-14T14:05:41.999Z</time>
      </trkpt>
      <trkpt lat="44.18793" lon="5.30942">
        <ele>866.1</ele>
        <time>2026-05-14T14:05:42.999Z</time>
      </trkpt>
      <trkpt lat="44.18793" lon="5.30943">
        <ele>865.9</ele>
        <time>2026-05-14T14:05:43.999Z</time>
      </trkpt>
      <trkpt lat="44.18793" lon="5.30943">
        <ele>865.3</ele>
        <time>2026-05-14T14:05:44.999Z</time>
      </trkpt>
      <trkpt lat="44.18793" lon="5.30943">
        <ele>865.1</ele>
        <time>2026-05-14T14:05:45.999Z</time>
      </trkpt>
      <trkpt lat="44.18793" lon="5.30943">
        <ele>864.9</ele>
        <time>2026-05-14T14:05:46.999Z</time>
      </trkpt>
      <trkpt lat="44.18793" lon="5.30943">
        <ele>864.7</ele>
        <time>2026-05-14T14:05:47.999Z</time>
      </trkpt>
      <trkpt lat="44.18793" lon="5.30943">
        <ele>864.7</ele>
        <time>2026-05-14T14:05:48.999Z</time>
      </trkpt>
      <trkpt lat="44.18793" lon="5.30942">
        <ele>865</ele>
        <time>2026-05-14T14:05:49.999Z</time>
      </trkpt>
      <trkpt lat="44.18793" lon="5.30942">
        <ele>865.3</ele>
        <time>2026-05-14T14:05:50.999Z</time>
      </trkpt>
      <trkpt lat="44.18793" lon="5.30942">
        <ele>865.4</ele>
        <time>2026-05-14T14:05:51.999Z</time>
      </trkpt>
      <trkpt lat="44.18793" lon="5.30942">
        <ele>865.4</ele>
        <time>2026-05-14T14:05:52.999Z</time>
      </trkpt>
      <trkpt lat="44.18793" lon="5.30942">
        <ele>865.1</ele>
        <time>2026-05-14T14:05:53.999Z</time>
      </trkpt>
      <trkpt lat="44.18793" lon="5.30942">
        <ele>864.7</ele>
        <time>2026-05-14T14:05:54.999Z</time>
      </trkpt>
      <trkpt lat="44.18793" lon="5.30942">
        <ele>864.4</ele>
        <time>2026-05-14T14:05:55.999Z</time>
      </trkpt>
      <trkpt lat="44.18793" lon="5.30942">
        <ele>864.5</ele>
        <time>2026-05-14T14:05:56.999Z</time>
      </trkpt>
      <trkpt lat="44.18793" lon="5.30942">
        <ele>864.5</ele>
        <time>2026-05-14T14:05:57.999Z</time>
      </trkpt>
      <trkpt lat="44.18793" lon="5.30942">
        <ele>864.6</ele>
        <time>2026-05-14T14:05:58.999Z</time>
      </trkpt>
      <trkpt lat="44.18793" lon="5.30942">
        <ele>864.6</ele>
        <time>2026-05-14T14:05:59.999Z</time>
      </trkpt>
      <trkpt lat="44.18793" lon="5.30942">
        <ele>864.6</ele>
        <time>2026-05-14T14:06:00.999Z</time>
      </trkpt>
      <trkpt lat="44.18793" lon="5.30942">
        <ele>864.6</ele>
        <time>2026-05-14T14:06:01.999Z</time>
      </trkpt>
      <trkpt lat="44.18793" lon="5.30942">
        <ele>864.5</ele>
        <time>2026-05-14T14:06:02.999Z</time>
      </trkpt>
      <trkpt lat="44.18793" lon="5.30942">
        <ele>864.3</ele>
        <time>2026-05-14T14:06:03.999Z</time>
      </trkpt>
      <trkpt lat="44.18793" lon="5.30942">
        <ele>864.1</ele>
        <time>2026-05-14T14:06:04.999Z</time>
      </trkpt>
      <trkpt lat="44.18793" lon="5.30942">
        <ele>863.9</ele>
        <time>2026-05-14T14:06:05.999Z</time>
      </trkpt>
      <trkpt lat="44.18793" lon="5.30942">
        <ele>863.6</ele>
        <time>2026-05-14T14:06:06.999Z</time>
      </trkpt>
      <trkpt lat="44.18793" lon="5.30942">
        <ele>863.4</ele>
        <time>2026-05-14T14:06:07.999Z</time>
      </trkpt>
      <trkpt lat="44.18793" lon="5.30942">
        <ele>863.4</ele>
        <time>2026-05-14T14:06:08.999Z</time>
      </trkpt>
      <trkpt lat="44.18793" lon="5.30943">
        <ele>863.5</ele>
        <time>2026-05-14T14:06:09.999Z</time>
      </trkpt>
      <trkpt lat="44.18793" lon="5.30943">
        <ele>863.2</ele>
        <time>2026-05-14T14:06:10.999Z</time>
      </trkpt>
      <trkpt lat="44.18794" lon="5.30943">
        <ele>862.5</ele>
        <time>2026-05-14T14:06:11.999Z</time>
      </trkpt>
      <trkpt lat="44.18794" lon="5.30943">
        <ele>862.4</ele>
        <time>2026-05-14T14:06:12.999Z</time>
      </trkpt>
      <trkpt lat="44.18794" lon="5.30943">
        <ele>862.4</ele>
        <time>2026-05-14T14:06:13.999Z</time>
      </trkpt>
      <trkpt lat="44.18794" lon="5.30942">
        <ele>862.9</ele>
        <time>2026-05-14T14:06:14.999Z</time>
      </trkpt>
      <trkpt lat="44.18794" lon="5.30942">
        <ele>863</ele>
        <time>2026-05-14T14:06:15.999Z</time>
      </trkpt>
      <trkpt lat="44.18794" lon="5.30942">
        <ele>863.2</ele>
        <time>2026-05-14T14:06:16.999Z</time>
      </trkpt>
      <trkpt lat="44.18794" lon="5.30942">
        <ele>863.5</ele>
        <time>2026-05-14T14:06:17.999Z</time>
      </trkpt>
      <trkpt lat="44.18794" lon="5.30942">
        <ele>863.6</ele>
        <time>2026-05-14T14:06:18.999Z</time>
      </trkpt>
      <trkpt lat="44.18794" lon="5.30942">
        <ele>863.9</ele>
        <time>2026-05-14T14:06:19.999Z</time>
      </trkpt>
      <trkpt lat="44.18794" lon="5.30942">
        <ele>864.1</ele>
        <time>2026-05-14T14:06:20.999Z</time>
      </trkpt>
      <trkpt lat="44.18794" lon="5.30942">
        <ele>864.4</ele>
        <time>2026-05-14T14:06:21.999Z</time>
      </trkpt>
      <trkpt lat="44.18794" lon="5.30942">
        <ele>864.8</ele>
        <time>2026-05-14T14:06:22.999Z</time>
      </trkpt>
      <trkpt lat="44.18794" lon="5.30942">
        <ele>864.9</ele>
        <time>2026-05-14T14:06:23.999Z</time>
      </trkpt>
      <trkpt lat="44.18794" lon="5.30942">
        <ele>865.2</ele>
        <time>2026-05-14T14:06:24.999Z</time>
      </trkpt>
      <trkpt lat="44.18794" lon="5.30942">
        <ele>865.4</ele>
        <time>2026-05-14T14:06:25.999Z</time>
      </trkpt>
      <trkpt lat="44.18795" lon="5.30942">
        <ele>865.5</ele>
        <time>2026-05-14T14:06:26.999Z</time>
      </trkpt>
      <trkpt lat="44.18795" lon="5.30942">
        <ele>865.6</ele>
        <time>2026-05-14T14:06:27.999Z</time>
      </trkpt>
      <trkpt lat="44.18796" lon="5.30942">
        <ele>865.8</ele>
        <time>2026-05-14T14:06:29.999Z</time>
      </trkpt>
      <trkpt lat="44.18797" lon="5.30943">
        <ele>866</ele>
        <time>2026-05-14T14:06:30.999Z</time>
      </trkpt>
      <trkpt lat="44.18798" lon="5.30944">
        <ele>866.1</ele>
        <time>2026-05-14T14:06:31.999Z</time>
      </trkpt>
      <trkpt lat="44.18799" lon="5.30944">
        <ele>866.2</ele>
        <time>2026-05-14T14:06:32.999Z</time>
      </trkpt>
      <trkpt lat="44.188" lon="5.30944">
        <ele>866.2</ele>
        <time>2026-05-14T14:06:33.999Z</time>
      </trkpt>
      <trkpt lat="44.18801" lon="5.30943">
        <ele>866.1</ele>
        <time>2026-05-14T14:06:34.999Z</time>
      </trkpt>
      <trkpt lat="44.18802" lon="5.30943">
        <ele>866.1</ele>
        <time>2026-05-14T14:06:35.999Z</time>
      </trkpt>
      <trkpt lat="44.18802" lon="5.30942">
        <ele>866.2</ele>
        <time>2026-05-14T14:06:36.999Z</time>
      </trkpt>
      <trkpt lat="44.18803" lon="5.30941">
        <ele>866</ele>
        <time>2026-05-14T14:06:37.999Z</time>
      </trkpt>
      <trkpt lat="44.18803" lon="5.30941">
        <ele>865.9</ele>
        <time>2026-05-14T14:06:38.999Z</time>
      </trkpt>
      <trkpt lat="44.18804" lon="5.3094">
        <ele>865.7</ele>
        <time>2026-05-14T14:06:39.999Z</time>
      </trkpt>
      <trkpt lat="44.18805" lon="5.3094">
        <ele>865.5</ele>
        <time>2026-05-14T14:06:40.999Z</time>
      </trkpt>
      <trkpt lat="44.18806" lon="5.3094">
        <ele>865.5</ele>
        <time>2026-05-14T14:06:41.999Z</time>
      </trkpt>
      <trkpt lat="44.18807" lon="5.3094">
        <ele>865.3</ele>
        <time>2026-05-14T14:06:42.999Z</time>
      </trkpt>
      <trkpt lat="44.18808" lon="5.30939">
        <ele>864.9</ele>
        <time>2026-05-14T14:06:43.999Z</time>
      </trkpt>
      <trkpt lat="44.18807" lon="5.30937">
        <ele>864.5</ele>
        <time>2026-05-14T14:06:44.999Z</time>
      </trkpt>
      <trkpt lat="44.18807" lon="5.30936">
        <ele>864.3</ele>
        <time>2026-05-14T14:06:45.999Z</time>
      </trkpt>
      <trkpt lat="44.18808" lon="5.30935">
        <ele>864</ele>
        <time>2026-05-14T14:06:46.999Z</time>
      </trkpt>
      <trkpt lat="44.1881" lon="5.30933">
        <ele>864.2</ele>
        <time>2026-05-14T14:06:47.999Z</time>
      </trkpt>
      <trkpt lat="44.18812" lon="5.30932">
        <ele>864.3</ele>
        <time>2026-05-14T14:06:48.999Z</time>
      </trkpt>
      <trkpt lat="44.18813" lon="5.30931">
        <ele>863.9</ele>
        <time>2026-05-14T14:06:49.999Z</time>
      </trkpt>
      <trkpt lat="44.18812" lon="5.30931">
        <ele>864.1</ele>
        <time>2026-05-14T14:06:50.999Z</time>
      </trkpt>
      <trkpt lat="44.18812" lon="5.3093">
        <ele>864</ele>
        <time>2026-05-14T14:06:51.999Z</time>
      </trkpt>
      <trkpt lat="44.18811" lon="5.3093">
        <ele>863.6</ele>
        <time>2026-05-14T14:06:52.999Z</time>
      </trkpt>
      <trkpt lat="44.18811" lon="5.3093">
        <ele>863.6</ele>
        <time>2026-05-14T14:06:53.999Z</time>
      </trkpt>
      <trkpt lat="44.18811" lon="5.30929">
        <ele>862.9</ele>
        <time>2026-05-14T14:06:54.999Z</time>
      </trkpt>
      <trkpt lat="44.1881" lon="5.3093">
        <ele>862.5</ele>
        <time>2026-05-14T14:06:55.999Z</time>
      </trkpt>
      <trkpt lat="44.18809" lon="5.30929">
        <ele>861.8</ele>
        <time>2026-05-14T14:06:56.999Z</time>
      </trkpt>
      <trkpt lat="44.18808" lon="5.30929">
        <ele>861.2</ele>
        <time>2026-05-14T14:06:57.999Z</time>
      </trkpt>
      <trkpt lat="44.18809" lon="5.30928">
        <ele>860.5</ele>
        <time>2026-05-14T14:06:58.999Z</time>
      </trkpt>
      <trkpt lat="44.18809" lon="5.30928">
        <ele>859.5</ele>
        <time>2026-05-14T14:06:59.999Z</time>
      </trkpt>
      <trkpt lat="44.18809" lon="5.30927">
        <ele>858.3</ele>
        <time>2026-05-14T14:07:00.999Z</time>
      </trkpt>
      <trkpt lat="44.18811" lon="5.30926">
        <ele>857.5</ele>
        <time>2026-05-14T14:07:01.999Z</time>
      </trkpt>
      <trkpt lat="44.18812" lon="5.30924">
        <ele>856.6</ele>
        <time>2026-05-14T14:07:02.999Z</time>
      </trkpt>
      <trkpt lat="44.18812" lon="5.30923">
        <ele>855.9</ele>
        <time>2026-05-14T14:07:03.999Z</time>
      </trkpt>
      <trkpt lat="44.18814" lon="5.30922">
        <ele>856</ele>
        <time>2026-05-14T14:07:04.999Z</time>
      </trkpt>
      <trkpt lat="44.18816" lon="5.30921">
        <ele>855.7</ele>
        <time>2026-05-14T14:07:05.999Z</time>
      </trkpt>
      <trkpt lat="44.18816" lon="5.30919">
        <ele>854.8</ele>
        <time>2026-05-14T14:07:06.999Z</time>
      </trkpt>
      <trkpt lat="44.18816" lon="5.30917">
        <ele>854.4</ele>
        <time>2026-05-14T14:07:07.999Z</time>
      </trkpt>
      <trkpt lat="44.18816" lon="5.30916">
        <ele>854</ele>
        <time>2026-05-14T14:07:08.999Z</time>
      </trkpt>
      <trkpt lat="44.18818" lon="5.30914">
        <ele>854.2</ele>
        <time>2026-05-14T14:07:09.999Z</time>
      </trkpt>
      <trkpt lat="44.18819" lon="5.30913">
        <ele>854.7</ele>
        <time>2026-05-14T14:07:10.999Z</time>
      </trkpt>
      <trkpt lat="44.1882" lon="5.30912">
        <ele>854.7</ele>
        <time>2026-05-14T14:07:11.999Z</time>
      </trkpt>
      <trkpt lat="44.18821" lon="5.30912">
        <ele>855.2</ele>
        <time>2026-05-14T14:07:12.999Z</time>
      </trkpt>
      <trkpt lat="44.18821" lon="5.30911">
        <ele>854.7</ele>
        <time>2026-05-14T14:07:13.999Z</time>
      </trkpt>
      <trkpt lat="44.18821" lon="5.3091">
        <ele>854.3</ele>
        <time>2026-05-14T14:07:14.999Z</time>
      </trkpt>
      <trkpt lat="44.18821" lon="5.30909">
        <ele>853.7</ele>
        <time>2026-05-14T14:07:15.999Z</time>
      </trkpt>
      <trkpt lat="44.1882" lon="5.30908">
        <ele>853.2</ele>
        <time>2026-05-14T14:07:16.999Z</time>
      </trkpt>
      <trkpt lat="44.18819" lon="5.30907">
        <ele>852.3</ele>
        <time>2026-05-14T14:07:17.999Z</time>
      </trkpt>
      <trkpt lat="44.18818" lon="5.30905">
        <ele>851.6</ele>
        <time>2026-05-14T14:07:18.999Z</time>
      </trkpt>
      <trkpt lat="44.18819" lon="5.30905">
        <ele>851.4</ele>
        <time>2026-05-14T14:07:19.999Z</time>
      </trkpt>
      <trkpt lat="44.18818" lon="5.30904">
        <ele>850.4</ele>
        <time>2026-05-14T14:07:20.999Z</time>
      </trkpt>
      <trkpt lat="44.18819" lon="5.30903">
        <ele>850.6</ele>
        <time>2026-05-14T14:07:21.999Z</time>
      </trkpt>
      <trkpt lat="44.1882" lon="5.30901">
        <ele>850.3</ele>
        <time>2026-05-14T14:07:22.999Z</time>
      </trkpt>
      <trkpt lat="44.18821" lon="5.309">
        <ele>850.4</ele>
        <time>2026-05-14T14:07:23.999Z</time>
      </trkpt>
      <trkpt lat="44.1882" lon="5.30899">
        <ele>850.2</ele>
        <time>2026-05-14T14:07:24.999Z</time>
      </trkpt>
      <trkpt lat="44.18819" lon="5.30897">
        <ele>849.8</ele>
        <time>2026-05-14T14:07:25.999Z</time>
      </trkpt>
      <trkpt lat="44.18818" lon="5.30897">
        <ele>850</ele>
        <time>2026-05-14T14:07:26.999Z</time>
      </trkpt>
      <trkpt lat="44.18818" lon="5.30896">
        <ele>849.9</ele>
        <time>2026-05-14T14:07:27.999Z</time>
      </trkpt>
      <trkpt lat="44.18818" lon="5.30896">
        <ele>849.8</ele>
        <time>2026-05-14T14:07:28.999Z</time>
      </trkpt>
      <trkpt lat="44.18817" lon="5.30896">
        <ele>849.9</ele>
        <time>2026-05-14T14:07:29.999Z</time>
      </trkpt>
      <trkpt lat="44.18818" lon="5.30896">
        <ele>849.5</ele>
        <time>2026-05-14T14:07:30.999Z</time>
      </trkpt>
      <trkpt lat="44.1882" lon="5.30896">
        <ele>849.7</ele>
        <time>2026-05-14T14:07:31.999Z</time>
      </trkpt>
      <trkpt lat="44.18821" lon="5.30897">
        <ele>849</ele>
        <time>2026-05-14T14:07:32.999Z</time>
      </trkpt>
      <trkpt lat="44.1882" lon="5.30897">
        <ele>848.2</ele>
        <time>2026-05-14T14:07:33.999Z</time>
      </trkpt>
      <trkpt lat="44.18821" lon="5.30898">
        <ele>847.3</ele>
        <time>2026-05-14T14:07:34.999Z</time>
      </trkpt>
      <trkpt lat="44.18825" lon="5.309">
        <ele>848.7</ele>
        <time>2026-05-14T14:07:35.999Z</time>
      </trkpt>
      <trkpt lat="44.18829" lon="5.30902">
        <ele>850.1</ele>
        <time>2026-05-14T14:07:36.999Z</time>
      </trkpt>
      <trkpt lat="44.1883" lon="5.30904">
        <ele>851.3</ele>
        <time>2026-05-14T14:07:37.999Z</time>
      </trkpt>
      <trkpt lat="44.18832" lon="5.30906">
        <ele>851.2</ele>
        <time>2026-05-14T14:07:38.999Z</time>
      </trkpt>
      <trkpt lat="44.18837" lon="5.30908">
        <ele>853.9</ele>
        <time>2026-05-14T14:07:39.999Z</time>
      </trkpt>
      <trkpt lat="44.18838" lon="5.3091">
        <ele>854.8</ele>
        <time>2026-05-14T14:07:40.999Z</time>
      </trkpt>
      <trkpt lat="44.1884" lon="5.30913">
        <ele>855.5</ele>
        <time>2026-05-14T14:07:41.999Z</time>
      </trkpt>
      <trkpt lat="44.18841" lon="5.30916">
        <ele>856.5</ele>
        <time>2026-05-14T14:07:42.999Z</time>
      </trkpt>
      <trkpt lat="44.18841" lon="5.30919">
        <ele>857.1</ele>
        <time>2026-05-14T14:07:43.999Z</time>
      </trkpt>
      <trkpt lat="44.18842" lon="5.30921">
        <ele>858.5</ele>
        <time>2026-05-14T14:07:44.999Z</time>
      </trkpt>
      <trkpt lat="44.18843" lon="5.30923">
        <ele>859.2</ele>
        <time>2026-05-14T14:07:45.999Z</time>
      </trkpt>
      <trkpt lat="44.18842" lon="5.30925">
        <ele>859.4</ele>
        <time>2026-05-14T14:07:46.999Z</time>
      </trkpt>
      <trkpt lat="44.18842" lon="5.30926">
        <ele>859.6</ele>
        <time>2026-05-14T14:07:47.999Z</time>
      </trkpt>
      <trkpt lat="44.18842" lon="5.30928">
        <ele>859.8</ele>
        <time>2026-05-14T14:07:48.999Z</time>
      </trkpt>
      <trkpt lat="44.18841" lon="5.3093">
        <ele>860.1</ele>
        <time>2026-05-14T14:07:49.999Z</time>
      </trkpt>
      <trkpt lat="44.18841" lon="5.30932">
        <ele>860.1</ele>
        <time>2026-05-14T14:07:50.999Z</time>
      </trkpt>
      <trkpt lat="44.1884" lon="5.30934">
        <ele>860.4</ele>
        <time>2026-05-14T14:07:51.999Z</time>
      </trkpt>
      <trkpt lat="44.1884" lon="5.30935">
        <ele>860.4</ele>
        <time>2026-05-14T14:07:52.999Z</time>
      </trkpt>
      <trkpt lat="44.18839" lon="5.30936">
        <ele>860.1</ele>
        <time>2026-05-14T14:07:53.999Z</time>
      </trkpt>
      <trkpt lat="44.18838" lon="5.30936">
        <ele>859.5</ele>
        <time>2026-05-14T14:07:54.999Z</time>
      </trkpt>
      <trkpt lat="44.18838" lon="5.30937">
        <ele>859.6</ele>
        <time>2026-05-14T14:07:55.999Z</time>
      </trkpt>
      <trkpt lat="44.18838" lon="5.30938">
        <ele>859.7</ele>
        <time>2026-05-14T14:07:56.999Z</time>
      </trkpt>
      <trkpt lat="44.18838" lon="5.3094">
        <ele>860.9</ele>
        <time>2026-05-14T14:07:57.999Z</time>
      </trkpt>
      <trkpt lat="44.18838" lon="5.30942">
        <ele>861</ele>
        <time>2026-05-14T14:07:58.999Z</time>
      </trkpt>
      <trkpt lat="44.18838" lon="5.30943">
        <ele>861.4</ele>
        <time>2026-05-14T14:07:59.999Z</time>
      </trkpt>
      <trkpt lat="44.18838" lon="5.30945">
        <ele>861.5</ele>
        <time>2026-05-14T14:08:00.999Z</time>
      </trkpt>
      <trkpt lat="44.18837" lon="5.30947">
        <ele>861.9</ele>
        <time>2026-05-14T14:08:01.999Z</time>
      </trkpt>
      <trkpt lat="44.18837" lon="5.30949">
        <ele>861.1</ele>
        <time>2026-05-14T14:08:02.999Z</time>
      </trkpt>
      <trkpt lat="44.18837" lon="5.3095">
        <ele>860.7</ele>
        <time>2026-05-14T14:08:03.999Z</time>
      </trkpt>
      <trkpt lat="44.18837" lon="5.30951">
        <ele>860.4</ele>
        <time>2026-05-14T14:08:04.999Z</time>
      </trkpt>
      <trkpt lat="44.18837" lon="5.30953">
        <ele>860.1</ele>
        <time>2026-05-14T14:08:05.999Z</time>
      </trkpt>
      <trkpt lat="44.18836" lon="5.30955">
        <ele>860.1</ele>
        <time>2026-05-14T14:08:06.999Z</time>
      </trkpt>
      <trkpt lat="44.18836" lon="5.30957">
        <ele>860</ele>
        <time>2026-05-14T14:08:07.999Z</time>
      </trkpt>
      <trkpt lat="44.18836" lon="5.30959">
        <ele>860.2</ele>
        <time>2026-05-14T14:08:08.999Z</time>
      </trkpt>
      <trkpt lat="44.18836" lon="5.3096">
        <ele>859.9</ele>
        <time>2026-05-14T14:08:09.999Z</time>
      </trkpt>
      <trkpt lat="44.18836" lon="5.30961">
        <ele>859.4</ele>
        <time>2026-05-14T14:08:10.999Z</time>
      </trkpt>
      <trkpt lat="44.18835" lon="5.30962">
        <ele>859.1</ele>
        <time>2026-05-14T14:08:11.999Z</time>
      </trkpt>
      <trkpt lat="44.18835" lon="5.30963">
        <ele>859</ele>
        <time>2026-05-14T14:08:12.999Z</time>
      </trkpt>
      <trkpt lat="44.18835" lon="5.30964">
        <ele>859.1</ele>
        <time>2026-05-14T14:08:13.999Z</time>
      </trkpt>
      <trkpt lat="44.18834" lon="5.30966">
        <ele>859.1</ele>
        <time>2026-05-14T14:08:14.999Z</time>
      </trkpt>
      <trkpt lat="44.18833" lon="5.30968">
        <ele>858.8</ele>
        <time>2026-05-14T14:08:15.999Z</time>
      </trkpt>
      <trkpt lat="44.18832" lon="5.3097">
        <ele>858.9</ele>
        <time>2026-05-14T14:08:16.999Z</time>
      </trkpt>
      <trkpt lat="44.18832" lon="5.30972">
        <ele>858.7</ele>
        <time>2026-05-14T14:08:17.999Z</time>
      </trkpt>
      <trkpt lat="44.18831" lon="5.30975">
        <ele>858.5</ele>
        <time>2026-05-14T14:08:18.999Z</time>
      </trkpt>
      <trkpt lat="44.1883" lon="5.30977">
        <ele>857.9</ele>
        <time>2026-05-14T14:08:19.999Z</time>
      </trkpt>
      <trkpt lat="44.1883" lon="5.30978">
        <ele>857.5</ele>
        <time>2026-05-14T14:08:20.999Z</time>
      </trkpt>
      <trkpt lat="44.18829" lon="5.30979">
        <ele>857.3</ele>
        <time>2026-05-14T14:08:21.999Z</time>
      </trkpt>
      <trkpt lat="44.18829" lon="5.30979">
        <ele>857.3</ele>
        <time>2026-05-14T14:08:22.999Z</time>
      </trkpt>
      <trkpt lat="44.18829" lon="5.3098">
        <ele>857.6</ele>
        <time>2026-05-14T14:08:23.999Z</time>
      </trkpt>
      <trkpt lat="44.18828" lon="5.30981">
        <ele>857.7</ele>
        <time>2026-05-14T14:08:24.999Z</time>
      </trkpt>
      <trkpt lat="44.18827" lon="5.30983">
        <ele>857.9</ele>
        <time>2026-05-14T14:08:25.999Z</time>
      </trkpt>
      <trkpt lat="44.18827" lon="5.30984">
        <ele>857.7</ele>
        <time>2026-05-14T14:08:26.999Z</time>
      </trkpt>
      <trkpt lat="44.18826" lon="5.30986">
        <ele>857.4</ele>
        <time>2026-05-14T14:08:27.999Z</time>
      </trkpt>
      <trkpt lat="44.18826" lon="5.30987">
        <ele>857.4</ele>
        <time>2026-05-14T14:08:28.999Z</time>
      </trkpt>
      <trkpt lat="44.18825" lon="5.30988">
        <ele>857.1</ele>
        <time>2026-05-14T14:08:29.999Z</time>
      </trkpt>
      <trkpt lat="44.18824" lon="5.30989">
        <ele>856.5</ele>
        <time>2026-05-14T14:08:30.999Z</time>
      </trkpt>
      <trkpt lat="44.18823" lon="5.30991">
        <ele>856.7</ele>
        <time>2026-05-14T14:08:31.999Z</time>
      </trkpt>
      <trkpt lat="44.18823" lon="5.30991">
        <ele>856.1</ele>
        <time>2026-05-14T14:08:32.999Z</time>
      </trkpt>
      <trkpt lat="44.18822" lon="5.30992">
        <ele>855.5</ele>
        <time>2026-05-14T14:08:33.999Z</time>
      </trkpt>
      <trkpt lat="44.18822" lon="5.30993">
        <ele>855</ele>
        <time>2026-05-14T14:08:34.999Z</time>
      </trkpt>
      <trkpt lat="44.18821" lon="5.30994">
        <ele>854.4</ele>
        <time>2026-05-14T14:08:35.999Z</time>
      </trkpt>
      <trkpt lat="44.1882" lon="5.30995">
        <ele>854.2</ele>
        <time>2026-05-14T14:08:36.999Z</time>
      </trkpt>
      <trkpt lat="44.18819" lon="5.30996">
        <ele>854.1</ele>
        <time>2026-05-14T14:08:37.999Z</time>
      </trkpt>
      <trkpt lat="44.18818" lon="5.30998">
        <ele>854</ele>
        <time>2026-05-14T14:08:38.999Z</time>
      </trkpt>
      <trkpt lat="44.18817" lon="5.31">
        <ele>854.1</ele>
        <time>2026-05-14T14:08:39.999Z</time>
      </trkpt>
      <trkpt lat="44.18817" lon="5.31001">
        <ele>853.8</ele>
        <time>2026-05-14T14:08:40.999Z</time>
      </trkpt>
      <trkpt lat="44.18816" lon="5.31002">
        <ele>853.4</ele>
        <time>2026-05-14T14:08:41.999Z</time>
      </trkpt>
      <trkpt lat="44.18816" lon="5.31003">
        <ele>853.2</ele>
        <time>2026-05-14T14:08:42.999Z</time>
      </trkpt>
      <trkpt lat="44.18816" lon="5.31004">
        <ele>853</ele>
        <time>2026-05-14T14:08:43.999Z</time>
      </trkpt>
      <trkpt lat="44.18815" lon="5.31006">
        <ele>852.8</ele>
        <time>2026-05-14T14:08:44.999Z</time>
      </trkpt>
      <trkpt lat="44.18814" lon="5.31008">
        <ele>852.8</ele>
        <time>2026-05-14T14:08:45.999Z</time>
      </trkpt>
      <trkpt lat="44.18813" lon="5.31009">
        <ele>852.4</ele>
        <time>2026-05-14T14:08:46.999Z</time>
      </trkpt>
      <trkpt lat="44.18813" lon="5.3101">
        <ele>852.2</ele>
        <time>2026-05-14T14:08:47.999Z</time>
      </trkpt>
      <trkpt lat="44.18812" lon="5.3101">
        <ele>851.8</ele>
        <time>2026-05-14T14:08:48.999Z</time>
      </trkpt>
      <trkpt lat="44.18812" lon="5.31011">
        <ele>851.5</ele>
        <time>2026-05-14T14:08:49.999Z</time>
      </trkpt>
      <trkpt lat="44.18812" lon="5.31011">
        <ele>851.4</ele>
        <time>2026-05-14T14:08:50.999Z</time>
      </trkpt>
      <trkpt lat="44.18811" lon="5.31012">
        <ele>850.9</ele>
        <time>2026-05-14T14:08:51.999Z</time>
      </trkpt>
      <trkpt lat="44.18811" lon="5.31014">
        <ele>850.7</ele>
        <time>2026-05-14T14:08:52.999Z</time>
      </trkpt>
      <trkpt lat="44.1881" lon="5.31015">
        <ele>851</ele>
        <time>2026-05-14T14:08:53.999Z</time>
      </trkpt>
      <trkpt lat="44.1881" lon="5.31016">
        <ele>850.9</ele>
        <time>2026-05-14T14:08:54.999Z</time>
      </trkpt>
      <trkpt lat="44.18808" lon="5.31017">
        <ele>851.2</ele>
        <time>2026-05-14T14:08:55.999Z</time>
      </trkpt>
      <trkpt lat="44.18807" lon="5.31019">
        <ele>850.8</ele>
        <time>2026-05-14T14:08:56.999Z</time>
      </trkpt>
      <trkpt lat="44.18806" lon="5.31019">
        <ele>850.7</ele>
        <time>2026-05-14T14:08:57.999Z</time>
      </trkpt>
      <trkpt lat="44.18805" lon="5.3102">
        <ele>850.7</ele>
        <time>2026-05-14T14:08:58.999Z</time>
      </trkpt>
      <trkpt lat="44.18804" lon="5.31021">
        <ele>850.9</ele>
        <time>2026-05-14T14:08:59.999Z</time>
      </trkpt>
      <trkpt lat="44.18804" lon="5.31021">
        <ele>851</ele>
        <time>2026-05-14T14:09:00.999Z</time>
      </trkpt>
      <trkpt lat="44.18803" lon="5.31022">
        <ele>851.2</ele>
        <time>2026-05-14T14:09:01.999Z</time>
      </trkpt>
      <trkpt lat="44.18802" lon="5.31022">
        <ele>851.4</ele>
        <time>2026-05-14T14:09:02.999Z</time>
      </trkpt>
      <trkpt lat="44.18801" lon="5.31022">
        <ele>851.2</ele>
        <time>2026-05-14T14:09:03.999Z</time>
      </trkpt>
      <trkpt lat="44.188" lon="5.31022">
        <ele>851.1</ele>
        <time>2026-05-14T14:09:04.999Z</time>
      </trkpt>
      <trkpt lat="44.18799" lon="5.31022">
        <ele>850.9</ele>
        <time>2026-05-14T14:09:05.999Z</time>
      </trkpt>
      <trkpt lat="44.18798" lon="5.31022">
        <ele>851</ele>
        <time>2026-05-14T14:09:06.999Z</time>
      </trkpt>
      <trkpt lat="44.18798" lon="5.31022">
        <ele>851</ele>
        <time>2026-05-14T14:09:07.999Z</time>
      </trkpt>
      <trkpt lat="44.18797" lon="5.31022">
        <ele>850.8</ele>
        <time>2026-05-14T14:09:08.999Z</time>
      </trkpt>
      <trkpt lat="44.18797" lon="5.31023">
        <ele>850.7</ele>
        <time>2026-05-14T14:09:09.999Z</time>
      </trkpt>
      <trkpt lat="44.18796" lon="5.31024">
        <ele>850.7</ele>
        <time>2026-05-14T14:09:10.999Z</time>
      </trkpt>
      <trkpt lat="44.18796" lon="5.31024">
        <ele>850.7</ele>
        <time>2026-05-14T14:09:11.999Z</time>
      </trkpt>
      <trkpt lat="44.18796" lon="5.31024">
        <ele>850.8</ele>
        <time>2026-05-14T14:09:12.999Z</time>
      </trkpt>
      <trkpt lat="44.18796" lon="5.31024">
        <ele>850.9</ele>
        <time>2026-05-14T14:09:13.999Z</time>
      </trkpt>
      <trkpt lat="44.18795" lon="5.31023">
        <ele>850.8</ele>
        <time>2026-05-14T14:09:14.999Z</time>
      </trkpt>
      <trkpt lat="44.18795" lon="5.31023">
        <ele>850.4</ele>
        <time>2026-05-14T14:09:15.999Z</time>
      </trkpt>
      <trkpt lat="44.18794" lon="5.31023">
        <ele>850.4</ele>
        <time>2026-05-14T14:09:16.999Z</time>
      </trkpt>
      <trkpt lat="44.18793" lon="5.31022">
        <ele>850.1</ele>
        <time>2026-05-14T14:09:17.999Z</time>
      </trkpt>
      <trkpt lat="44.18792" lon="5.31022">
        <ele>850.1</ele>
        <time>2026-05-14T14:09:18.999Z</time>
      </trkpt>
      <trkpt lat="44.18792" lon="5.31022">
        <ele>849.6</ele>
        <time>2026-05-14T14:09:19.999Z</time>
      </trkpt>
      <trkpt lat="44.18791" lon="5.31022">
        <ele>849.5</ele>
        <time>2026-05-14T14:09:20.999Z</time>
      </trkpt>
      <trkpt lat="44.18791" lon="5.31022">
        <ele>849.5</ele>
        <time>2026-05-14T14:09:21.999Z</time>
      </trkpt>
      <trkpt lat="44.18791" lon="5.31022">
        <ele>849.4</ele>
        <time>2026-05-14T14:09:22.999Z</time>
      </trkpt>
      <trkpt lat="44.18791" lon="5.31022">
        <ele>849.6</ele>
        <time>2026-05-14T14:09:23.999Z</time>
      </trkpt>
      <trkpt lat="44.18791" lon="5.31022">
        <ele>849.6</ele>
        <time>2026-05-14T14:09:24.999Z</time>
      </trkpt>
      <trkpt lat="44.18791" lon="5.31022">
        <ele>849.5</ele>
        <time>2026-05-14T14:09:25.999Z</time>
      </trkpt>
      <trkpt lat="44.18791" lon="5.31021">
        <ele>849.4</ele>
        <time>2026-05-14T14:09:26.999Z</time>
      </trkpt>
      <trkpt lat="44.1879" lon="5.31022">
        <ele>849.3</ele>
        <time>2026-05-14T14:09:27.999Z</time>
      </trkpt>
      <trkpt lat="44.18789" lon="5.31021">
        <ele>849.3</ele>
        <time>2026-05-14T14:09:28.999Z</time>
      </trkpt>
      <trkpt lat="44.18789" lon="5.31022">
        <ele>849.2</ele>
        <time>2026-05-14T14:09:29.999Z</time>
      </trkpt>
      <trkpt lat="44.18789" lon="5.31022">
        <ele>849</ele>
        <time>2026-05-14T14:09:30.999Z</time>
      </trkpt>
      <trkpt lat="44.18788" lon="5.31023">
        <ele>848.7</ele>
        <time>2026-05-14T14:09:31.999Z</time>
      </trkpt>
      <trkpt lat="44.18788" lon="5.31023">
        <ele>848.4</ele>
        <time>2026-05-14T14:09:32.999Z</time>
      </trkpt>
      <trkpt lat="44.18788" lon="5.31023">
        <ele>848.1</ele>
        <time>2026-05-14T14:09:33.999Z</time>
      </trkpt>
      <trkpt lat="44.18788" lon="5.31022">
        <ele>848</ele>
        <time>2026-05-14T14:09:34.999Z</time>
      </trkpt>
      <trkpt lat="44.18788" lon="5.31022">
        <ele>847.6</ele>
        <time>2026-05-14T14:09:35.999Z</time>
      </trkpt>
      <trkpt lat="44.18788" lon="5.31022">
        <ele>847.2</ele>
        <time>2026-05-14T14:09:36.999Z</time>
      </trkpt>
      <trkpt lat="44.18788" lon="5.31022">
        <ele>847</ele>
        <time>2026-05-14T14:09:37.999Z</time>
      </trkpt>
      <trkpt lat="44.18787" lon="5.31022">
        <ele>846.8</ele>
        <time>2026-05-14T14:09:38.999Z</time>
      </trkpt>
      <trkpt lat="44.18787" lon="5.31022">
        <ele>846.5</ele>
        <time>2026-05-14T14:09:39.999Z</time>
      </trkpt>
      <trkpt lat="44.18787" lon="5.31022">
        <ele>846.4</ele>
        <time>2026-05-14T14:09:40.999Z</time>
      </trkpt>
      <trkpt lat="44.18787" lon="5.31022">
        <ele>846.3</ele>
        <time>2026-05-14T14:09:41.999Z</time>
      </trkpt>
      <trkpt lat="44.18787" lon="5.31022">
        <ele>846.2</ele>
        <time>2026-05-14T14:09:42.999Z</time>
      </trkpt>
      <trkpt lat="44.18787" lon="5.31022">
        <ele>846</ele>
        <time>2026-05-14T14:09:43.999Z</time>
      </trkpt>
      <trkpt lat="44.18787" lon="5.31022">
        <ele>845.8</ele>
        <time>2026-05-14T14:09:44.999Z</time>
      </trkpt>
      <trkpt lat="44.18787" lon="5.31022">
        <ele>845.6</ele>
        <time>2026-05-14T14:09:45.999Z</time>
      </trkpt>
      <trkpt lat="44.18787" lon="5.31022">
        <ele>845</ele>
        <time>2026-05-14T14:09:46.999Z</time>
      </trkpt>
      <trkpt lat="44.18787" lon="5.31022">
        <ele>844.6</ele>
        <time>2026-05-14T14:09:47.999Z</time>
      </trkpt>
      <trkpt lat="44.18787" lon="5.31022">
        <ele>844.4</ele>
        <time>2026-05-14T14:09:48.999Z</time>
      </trkpt>
      <trkpt lat="44.18787" lon="5.31022">
        <ele>844.4</ele>
        <time>2026-05-14T14:09:49.999Z</time>
      </trkpt>
      <trkpt lat="44.18787" lon="5.31022">
        <ele>844.2</ele>
        <time>2026-05-14T14:09:50.999Z</time>
      </trkpt>
      <trkpt lat="44.18787" lon="5.31021">
        <ele>844.1</ele>
        <time>2026-05-14T14:09:51.999Z</time>
      </trkpt>
      <trkpt lat="44.18786" lon="5.31021">
        <ele>844.2</ele>
        <time>2026-05-14T14:09:52.999Z</time>
      </trkpt>
      <trkpt lat="44.18785" lon="5.3102">
        <ele>844.3</ele>
        <time>2026-05-14T14:09:53.999Z</time>
      </trkpt>
      <trkpt lat="44.18784" lon="5.31019">
        <ele>844.4</ele>
        <time>2026-05-14T14:09:54.999Z</time>
      </trkpt>
      <trkpt lat="44.18784" lon="5.31018">
        <ele>844.3</ele>
        <time>2026-05-14T14:09:55.999Z</time>
      </trkpt>
      <trkpt lat="44.18783" lon="5.31017">
        <ele>844</ele>
        <time>2026-05-14T14:09:56.999Z</time>
      </trkpt>
      <trkpt lat="44.18782" lon="5.31016">
        <ele>843.8</ele>
        <time>2026-05-14T14:09:57.999Z</time>
      </trkpt>
      <trkpt lat="44.18782" lon="5.31014">
        <ele>843.8</ele>
        <time>2026-05-14T14:09:58.999Z</time>
      </trkpt>
      <trkpt lat="44.1878" lon="5.31013">
        <ele>844</ele>
        <time>2026-05-14T14:09:59.999Z</time>
      </trkpt>
      <trkpt lat="44.18779" lon="5.31012">
        <ele>843.8</ele>
        <time>2026-05-14T14:10:00.999Z</time>
      </trkpt>
      <trkpt lat="44.18778" lon="5.3101">
        <ele>843.5</ele>
        <time>2026-05-14T14:10:01.999Z</time>
      </trkpt>
      <trkpt lat="44.18777" lon="5.31009">
        <ele>843.2</ele>
        <time>2026-05-14T14:10:02.999Z</time>
      </trkpt>
      <trkpt lat="44.18776" lon="5.31008">
        <ele>842.8</ele>
        <time>2026-05-14T14:10:03.999Z</time>
      </trkpt>
      <trkpt lat="44.18774" lon="5.31006">
        <ele>842.9</ele>
        <time>2026-05-14T14:10:04.999Z</time>
      </trkpt>
      <trkpt lat="44.18773" lon="5.31005">
        <ele>842.7</ele>
        <time>2026-05-14T14:10:05.999Z</time>
      </trkpt>
      <trkpt lat="44.18773" lon="5.31006">
        <ele>843</ele>
        <time>2026-05-14T14:10:06.999Z</time>
      </trkpt>
      <trkpt lat="44.18773" lon="5.31006">
        <ele>843.3</ele>
        <time>2026-05-14T14:10:07.999Z</time>
      </trkpt>
      <trkpt lat="44.18773" lon="5.31007">
        <ele>843.3</ele>
        <time>2026-05-14T14:10:08.999Z</time>
      </trkpt>
      <trkpt lat="44.18773" lon="5.31007">
        <ele>843.8</ele>
        <time>2026-05-14T14:10:09.999Z</time>
      </trkpt>
      <trkpt lat="44.18773" lon="5.31007">
        <ele>843.6</ele>
        <time>2026-05-14T14:10:10.999Z</time>
      </trkpt>
      <trkpt lat="44.18773" lon="5.31007">
        <ele>843.7</ele>
        <time>2026-05-14T14:10:11.999Z</time>
      </trkpt>
      <trkpt lat="44.18773" lon="5.31007">
        <ele>843.8</ele>
        <time>2026-05-14T14:10:12.999Z</time>
      </trkpt>
      <trkpt lat="44.18772" lon="5.31007">
        <ele>843.7</ele>
        <time>2026-05-14T14:10:13.999Z</time>
      </trkpt>
      <trkpt lat="44.18772" lon="5.31007">
        <ele>843.7</ele>
        <time>2026-05-14T14:10:14.999Z</time>
      </trkpt>
      <trkpt lat="44.18771" lon="5.31007">
        <ele>843.5</ele>
        <time>2026-05-14T14:10:15.999Z</time>
      </trkpt>
      <trkpt lat="44.1877" lon="5.31006">
        <ele>842.9</ele>
        <time>2026-05-14T14:10:16.999Z</time>
      </trkpt>
      <trkpt lat="44.18768" lon="5.31006">
        <ele>842.6</ele>
        <time>2026-05-14T14:10:17.999Z</time>
      </trkpt>
      <trkpt lat="44.18767" lon="5.31005">
        <ele>842.6</ele>
        <time>2026-05-14T14:10:18.999Z</time>
      </trkpt>
      <trkpt lat="44.18765" lon="5.31004">
        <ele>842.7</ele>
        <time>2026-05-14T14:10:19.999Z</time>
      </trkpt>
      <trkpt lat="44.18764" lon="5.31003">
        <ele>842.7</ele>
        <time>2026-05-14T14:10:20.999Z</time>
      </trkpt>
      <trkpt lat="44.18763" lon="5.31003">
        <ele>842.8</ele>
        <time>2026-05-14T14:10:21.999Z</time>
      </trkpt>
      <trkpt lat="44.18762" lon="5.31002">
        <ele>843</ele>
        <time>2026-05-14T14:10:22.999Z</time>
      </trkpt>
      <trkpt lat="44.18761" lon="5.31001">
        <ele>842.9</ele>
        <time>2026-05-14T14:10:23.999Z</time>
      </trkpt>
      <trkpt lat="44.1876" lon="5.31">
        <ele>843.3</ele>
        <time>2026-05-14T14:10:24.999Z</time>
      </trkpt>
      <trkpt lat="44.1876" lon="5.31">
        <ele>843.2</ele>
        <time>2026-05-14T14:10:25.999Z</time>
      </trkpt>
      <trkpt lat="44.18759" lon="5.31">
        <ele>842.9</ele>
        <time>2026-05-14T14:10:26.999Z</time>
      </trkpt>
      <trkpt lat="44.18758" lon="5.30998">
        <ele>843.3</ele>
        <time>2026-05-14T14:10:27.999Z</time>
      </trkpt>
      <trkpt lat="44.18757" lon="5.30997">
        <ele>843.9</ele>
        <time>2026-05-14T14:10:28.999Z</time>
      </trkpt>
      <trkpt lat="44.18757" lon="5.30996">
        <ele>843.8</ele>
        <time>2026-05-14T14:10:29.999Z</time>
      </trkpt>
      <trkpt lat="44.18756" lon="5.30996">
        <ele>844.2</ele>
        <time>2026-05-14T14:10:30.999Z</time>
      </trkpt>
      <trkpt lat="44.18756" lon="5.30995">
        <ele>844.1</ele>
        <time>2026-05-14T14:10:31.999Z</time>
      </trkpt>
      <trkpt lat="44.18754" lon="5.30993">
        <ele>844.3</ele>
        <time>2026-05-14T14:10:32.999Z</time>
      </trkpt>
      <trkpt lat="44.18753" lon="5.30991">
        <ele>844.4</ele>
        <time>2026-05-14T14:10:33.999Z</time>
      </trkpt>
      <trkpt lat="44.18752" lon="5.3099">
        <ele>844.6</ele>
        <time>2026-05-14T14:10:34.999Z</time>
      </trkpt>
      <trkpt lat="44.18752" lon="5.30989">
        <ele>844.4</ele>
        <time>2026-05-14T14:10:35.999Z</time>
      </trkpt>
      <trkpt lat="44.18751" lon="5.30989">
        <ele>844.6</ele>
        <time>2026-05-14T14:10:36.999Z</time>
      </trkpt>
      <trkpt lat="44.1875" lon="5.30988">
        <ele>844.4</ele>
        <time>2026-05-14T14:10:37.999Z</time>
      </trkpt>
      <trkpt lat="44.18749" lon="5.30988">
        <ele>842.9</ele>
        <time>2026-05-14T14:10:38.999Z</time>
      </trkpt>
      <trkpt lat="44.18749" lon="5.30987">
        <ele>842.4</ele>
        <time>2026-05-14T14:10:39.999Z</time>
      </trkpt>
      <trkpt lat="44.18748" lon="5.30986">
        <ele>842.5</ele>
        <time>2026-05-14T14:10:40.999Z</time>
      </trkpt>
      <trkpt lat="44.18748" lon="5.30986">
        <ele>843.7</ele>
        <time>2026-05-14T14:10:41.999Z</time>
      </trkpt>
      <trkpt lat="44.18748" lon="5.30986">
        <ele>843.6</ele>
        <time>2026-05-14T14:10:42.999Z</time>
      </trkpt>
      <trkpt lat="44.18747" lon="5.30985">
        <ele>843.7</ele>
        <time>2026-05-14T14:10:43.999Z</time>
      </trkpt>
      <trkpt lat="44.18747" lon="5.30984">
        <ele>843.6</ele>
        <time>2026-05-14T14:10:44.999Z</time>
      </trkpt>
      <trkpt lat="44.18747" lon="5.30984">
        <ele>843.5</ele>
        <time>2026-05-14T14:10:45.999Z</time>
      </trkpt>
      <trkpt lat="44.18746" lon="5.30983">
        <ele>843.1</ele>
        <time>2026-05-14T14:10:46.999Z</time>
      </trkpt>
      <trkpt lat="44.18746" lon="5.30983">
        <ele>843.1</ele>
        <time>2026-05-14T14:10:47.999Z</time>
      </trkpt>
      <trkpt lat="44.18745" lon="5.30983">
        <ele>842.7</ele>
        <time>2026-05-14T14:10:48.999Z</time>
      </trkpt>
      <trkpt lat="44.18745" lon="5.30982">
        <ele>842.3</ele>
        <time>2026-05-14T14:10:49.999Z</time>
      </trkpt>
      <trkpt lat="44.18744" lon="5.30982">
        <ele>841.9</ele>
        <time>2026-05-14T14:10:50.999Z</time>
      </trkpt>
      <trkpt lat="44.18743" lon="5.30981">
        <ele>841.9</ele>
        <time>2026-05-14T14:10:51.999Z</time>
      </trkpt>
      <trkpt lat="44.18742" lon="5.3098">
        <ele>842.1</ele>
        <time>2026-05-14T14:10:52.999Z</time>
      </trkpt>
      <trkpt lat="44.18741" lon="5.30979">
        <ele>842.2</ele>
        <time>2026-05-14T14:10:53.999Z</time>
      </trkpt>
      <trkpt lat="44.1874" lon="5.30978">
        <ele>842</ele>
        <time>2026-05-14T14:10:54.999Z</time>
      </trkpt>
      <trkpt lat="44.18739" lon="5.30976">
        <ele>841.9</ele>
        <time>2026-05-14T14:10:55.999Z</time>
      </trkpt>
      <trkpt lat="44.18737" lon="5.30975">
        <ele>842.2</ele>
        <time>2026-05-14T14:10:56.999Z</time>
      </trkpt>
      <trkpt lat="44.18736" lon="5.30973">
        <ele>842.1</ele>
        <time>2026-05-14T14:10:57.999Z</time>
      </trkpt>
      <trkpt lat="44.18736" lon="5.30972">
        <ele>841.9</ele>
        <time>2026-05-14T14:10:58.999Z</time>
      </trkpt>
      <trkpt lat="44.18735" lon="5.30971">
        <ele>841.9</ele>
        <time>2026-05-14T14:10:59.999Z</time>
      </trkpt>
      <trkpt lat="44.18734" lon="5.30969">
        <ele>841.5</ele>
        <time>2026-05-14T14:11:00.999Z</time>
      </trkpt>
      <trkpt lat="44.18734" lon="5.30967">
        <ele>840.8</ele>
        <time>2026-05-14T14:11:01.999Z</time>
      </trkpt>
      <trkpt lat="44.18733" lon="5.30966">
        <ele>840.4</ele>
        <time>2026-05-14T14:11:02.999Z</time>
      </trkpt>
      <trkpt lat="44.18732" lon="5.30965">
        <ele>839.9</ele>
        <time>2026-05-14T14:11:03.999Z</time>
      </trkpt>
      <trkpt lat="44.18731" lon="5.30965">
        <ele>839.6</ele>
        <time>2026-05-14T14:11:04.999Z</time>
      </trkpt>
      <trkpt lat="44.18731" lon="5.30964">
        <ele>839.7</ele>
        <time>2026-05-14T14:11:05.999Z</time>
      </trkpt>
      <trkpt lat="44.18731" lon="5.30964">
        <ele>840.2</ele>
        <time>2026-05-14T14:11:06.999Z</time>
      </trkpt>
      <trkpt lat="44.18731" lon="5.30964">
        <ele>840.3</ele>
        <time>2026-05-14T14:11:07.999Z</time>
      </trkpt>
      <trkpt lat="44.18731" lon="5.30964">
        <ele>840.3</ele>
        <time>2026-05-14T14:11:08.999Z</time>
      </trkpt>
      <trkpt lat="44.1873" lon="5.30964">
        <ele>840.3</ele>
        <time>2026-05-14T14:11:09.999Z</time>
      </trkpt>
      <trkpt lat="44.1873" lon="5.30964">
        <ele>840.1</ele>
        <time>2026-05-14T14:11:10.999Z</time>
      </trkpt>
      <trkpt lat="44.18729" lon="5.30963">
        <ele>840</ele>
        <time>2026-05-14T14:11:11.999Z</time>
      </trkpt>
      <trkpt lat="44.18728" lon="5.30962">
        <ele>839.8</ele>
        <time>2026-05-14T14:11:12.999Z</time>
      </trkpt>
      <trkpt lat="44.18727" lon="5.30961">
        <ele>839.6</ele>
        <time>2026-05-14T14:11:13.999Z</time>
      </trkpt>
      <trkpt lat="44.18727" lon="5.30961">
        <ele>839.5</ele>
        <time>2026-05-14T14:11:14.999Z</time>
      </trkpt>
      <trkpt lat="44.18726" lon="5.3096">
        <ele>839.7</ele>
        <time>2026-05-14T14:11:15.999Z</time>
      </trkpt>
      <trkpt lat="44.18725" lon="5.30959">
        <ele>839.4</ele>
        <time>2026-05-14T14:11:16.999Z</time>
      </trkpt>
      <trkpt lat="44.18724" lon="5.30959">
        <ele>839.1</ele>
        <time>2026-05-14T14:11:17.999Z</time>
      </trkpt>
      <trkpt lat="44.18724" lon="5.30958">
        <ele>838.9</ele>
        <time>2026-05-14T14:11:18.999Z</time>
      </trkpt>
      <trkpt lat="44.18724" lon="5.30958">
        <ele>839</ele>
        <time>2026-05-14T14:11:19.999Z</time>
      </trkpt>
      <trkpt lat="44.18723" lon="5.30958">
        <ele>838.7</ele>
        <time>2026-05-14T14:11:20.999Z</time>
      </trkpt>
      <trkpt lat="44.18723" lon="5.30958">
        <ele>838.9</ele>
        <time>2026-05-14T14:11:21.999Z</time>
      </trkpt>
      <trkpt lat="44.18723" lon="5.30958">
        <ele>838.8</ele>
        <time>2026-05-14T14:11:22.999Z</time>
      </trkpt>
      <trkpt lat="44.18723" lon="5.30958">
        <ele>838.6</ele>
        <time>2026-05-14T14:11:23.999Z</time>
      </trkpt>
      <trkpt lat="44.18722" lon="5.30957">
        <ele>838.5</ele>
        <time>2026-05-14T14:11:24.999Z</time>
      </trkpt>
      <trkpt lat="44.18722" lon="5.30957">
        <ele>838.2</ele>
        <time>2026-05-14T14:11:25.999Z</time>
      </trkpt>
      <trkpt lat="44.18722" lon="5.30957">
        <ele>837.9</ele>
        <time>2026-05-14T14:11:26.999Z</time>
      </trkpt>
      <trkpt lat="44.1872" lon="5.30955">
        <ele>837.8</ele>
        <time>2026-05-14T14:11:27.999Z</time>
      </trkpt>
      <trkpt lat="44.18718" lon="5.30954">
        <ele>837.8</ele>
        <time>2026-05-14T14:11:28.999Z</time>
      </trkpt>
      <trkpt lat="44.18716" lon="5.30953">
        <ele>837.7</ele>
        <time>2026-05-14T14:11:29.999Z</time>
      </trkpt>
      <trkpt lat="44.18714" lon="5.30952">
        <ele>837.3</ele>
        <time>2026-05-14T14:11:30.999Z</time>
      </trkpt>
      <trkpt lat="44.18713" lon="5.3095">
        <ele>837</ele>
        <time>2026-05-14T14:11:31.999Z</time>
      </trkpt>
      <trkpt lat="44.18712" lon="5.30948">
        <ele>836.7</ele>
        <time>2026-05-14T14:11:32.999Z</time>
      </trkpt>
      <trkpt lat="44.1871" lon="5.30945">
        <ele>836.9</ele>
        <time>2026-05-14T14:11:33.999Z</time>
      </trkpt>
      <trkpt lat="44.18709" lon="5.30943">
        <ele>836.8</ele>
        <time>2026-05-14T14:11:34.999Z</time>
      </trkpt>
      <trkpt lat="44.18708" lon="5.30942">
        <ele>836.6</ele>
        <time>2026-05-14T14:11:35.999Z</time>
      </trkpt>
      <trkpt lat="44.18706" lon="5.3094">
        <ele>836.3</ele>
        <time>2026-05-14T14:11:36.999Z</time>
      </trkpt>
      <trkpt lat="44.18705" lon="5.30938">
        <ele>836.6</ele>
        <time>2026-05-14T14:11:37.999Z</time>
      </trkpt>
      <trkpt lat="44.18705" lon="5.30938">
        <ele>836.6</ele>
        <time>2026-05-14T14:11:38.999Z</time>
      </trkpt>
      <trkpt lat="44.18704" lon="5.30937">
        <ele>836</ele>
        <time>2026-05-14T14:11:39.999Z</time>
      </trkpt>
      <trkpt lat="44.18703" lon="5.30936">
        <ele>835.8</ele>
        <time>2026-05-14T14:11:40.999Z</time>
      </trkpt>
      <trkpt lat="44.18703" lon="5.30936">
        <ele>835.9</ele>
        <time>2026-05-14T14:11:41.999Z</time>
      </trkpt>
      <trkpt lat="44.18703" lon="5.30936">
        <ele>836.4</ele>
        <time>2026-05-14T14:11:42.999Z</time>
      </trkpt>
      <trkpt lat="44.18703" lon="5.30936">
        <ele>837.4</ele>
        <time>2026-05-14T14:11:43.999Z</time>
      </trkpt>
      <trkpt lat="44.18703" lon="5.30935">
        <ele>837.9</ele>
        <time>2026-05-14T14:11:44.999Z</time>
      </trkpt>
      <trkpt lat="44.18703" lon="5.30935">
        <ele>837.9</ele>
        <time>2026-05-14T14:11:45.999Z</time>
      </trkpt>
      <trkpt lat="44.18703" lon="5.30935">
        <ele>838</ele>
        <time>2026-05-14T14:11:46.999Z</time>
      </trkpt>
      <trkpt lat="44.18703" lon="5.30935">
        <ele>837.9</ele>
        <time>2026-05-14T14:11:47.999Z</time>
      </trkpt>
      <trkpt lat="44.18703" lon="5.30935">
        <ele>837.7</ele>
        <time>2026-05-14T14:11:48.999Z</time>
      </trkpt>
      <trkpt lat="44.18703" lon="5.30935">
        <ele>837.6</ele>
        <time>2026-05-14T14:11:49.999Z</time>
      </trkpt>
      <trkpt lat="44.18703" lon="5.30935">
        <ele>837.1</ele>
        <time>2026-05-14T14:11:50.999Z</time>
      </trkpt>
      <trkpt lat="44.18703" lon="5.30935">
        <ele>836.8</ele>
        <time>2026-05-14T14:11:51.999Z</time>
      </trkpt>
      <trkpt lat="44.18703" lon="5.30935">
        <ele>836.6</ele>
        <time>2026-05-14T14:11:52.999Z</time>
      </trkpt>
      <trkpt lat="44.18703" lon="5.30935">
        <ele>836.3</ele>
        <time>2026-05-14T14:11:53.999Z</time>
      </trkpt>
      <trkpt lat="44.18703" lon="5.30935">
        <ele>836.2</ele>
        <time>2026-05-14T14:11:54.999Z</time>
      </trkpt>
      <trkpt lat="44.18704" lon="5.30935">
        <ele>836.1</ele>
        <time>2026-05-14T14:11:55.999Z</time>
      </trkpt>
      <trkpt lat="44.18704" lon="5.30935">
        <ele>835.9</ele>
        <time>2026-05-14T14:11:56.999Z</time>
      </trkpt>
      <trkpt lat="44.18704" lon="5.30935">
        <ele>835.2</ele>
        <time>2026-05-14T14:11:57.999Z</time>
      </trkpt>
      <trkpt lat="44.18704" lon="5.30935">
        <ele>834.8</ele>
        <time>2026-05-14T14:11:58.999Z</time>
      </trkpt>
      <trkpt lat="44.18704" lon="5.30935">
        <ele>834.7</ele>
        <time>2026-05-14T14:11:59.999Z</time>
      </trkpt>
      <trkpt lat="44.18703" lon="5.30935">
        <ele>834.2</ele>
        <time>2026-05-14T14:12:00.999Z</time>
      </trkpt>
      <trkpt lat="44.18703" lon="5.30935">
        <ele>834</ele>
        <time>2026-05-14T14:12:01.999Z</time>
      </trkpt>
      <trkpt lat="44.18702" lon="5.30934">
        <ele>833.8</ele>
        <time>2026-05-14T14:12:02.999Z</time>
      </trkpt>
      <trkpt lat="44.187" lon="5.30933">
        <ele>833.6</ele>
        <time>2026-05-14T14:12:03.999Z</time>
      </trkpt>
      <trkpt lat="44.18699" lon="5.30932">
        <ele>833.6</ele>
        <time>2026-05-14T14:12:04.999Z</time>
      </trkpt>
      <trkpt lat="44.18698" lon="5.30932">
        <ele>833.5</ele>
        <time>2026-05-14T14:12:05.999Z</time>
      </trkpt>
      <trkpt lat="44.18697" lon="5.30931">
        <ele>833.5</ele>
        <time>2026-05-14T14:12:06.999Z</time>
      </trkpt>
      <trkpt lat="44.18697" lon="5.3093">
        <ele>833.5</ele>
        <time>2026-05-14T14:12:07.999Z</time>
      </trkpt>
      <trkpt lat="44.18697" lon="5.30929">
        <ele>833.8</ele>
        <time>2026-05-14T14:12:08.999Z</time>
      </trkpt>
      <trkpt lat="44.18696" lon="5.30928">
        <ele>834</ele>
        <time>2026-05-14T14:12:10.000Z</time>
      </trkpt>
      <trkpt lat="44.18695" lon="5.30927">
        <ele>834</ele>
        <time>2026-05-14T14:12:11.000Z</time>
      </trkpt>
      <trkpt lat="44.18694" lon="5.30927">
        <ele>834.2</ele>
        <time>2026-05-14T14:12:12.000Z</time>
      </trkpt>
      <trkpt lat="44.18693" lon="5.30926">
        <ele>834.4</ele>
        <time>2026-05-14T14:12:13.000Z</time>
      </trkpt>
      <trkpt lat="44.18692" lon="5.30926">
        <ele>834.7</ele>
        <time>2026-05-14T14:12:14.000Z</time>
      </trkpt>
      <trkpt lat="44.18692" lon="5.30926">
        <ele>834.9</ele>
        <time>2026-05-14T14:12:15.000Z</time>
      </trkpt>
      <trkpt lat="44.18692" lon="5.30925">
        <ele>834.9</ele>
        <time>2026-05-14T14:12:16.000Z</time>
      </trkpt>
      <trkpt lat="44.18691" lon="5.30924">
        <ele>834.8</ele>
        <time>2026-05-14T14:12:17.000Z</time>
      </trkpt>
      <trkpt lat="44.1869" lon="5.30923">
        <ele>834.7</ele>
        <time>2026-05-14T14:12:18.000Z</time>
      </trkpt>
      <trkpt lat="44.18689" lon="5.30923">
        <ele>834.4</ele>
        <time>2026-05-14T14:12:19.000Z</time>
      </trkpt>
      <trkpt lat="44.18688" lon="5.30922">
        <ele>834.2</ele>
        <time>2026-05-14T14:12:20.000Z</time>
      </trkpt>
      <trkpt lat="44.18688" lon="5.30922">
        <ele>833.7</ele>
        <time>2026-05-14T14:12:21.000Z</time>
      </trkpt>
      <trkpt lat="44.18688" lon="5.30922">
        <ele>833.5</ele>
        <time>2026-05-14T14:12:22.000Z</time>
      </trkpt>
      <trkpt lat="44.18688" lon="5.30921">
        <ele>832.8</ele>
        <time>2026-05-14T14:12:23.000Z</time>
      </trkpt>
      <trkpt lat="44.18688" lon="5.30921">
        <ele>832.3</ele>
        <time>2026-05-14T14:12:24.000Z</time>
      </trkpt>
      <trkpt lat="44.18688" lon="5.3092">
        <ele>832.3</ele>
        <time>2026-05-14T14:12:25.000Z</time>
      </trkpt>
      <trkpt lat="44.18687" lon="5.30919">
        <ele>833</ele>
        <time>2026-05-14T14:12:26.000Z</time>
      </trkpt>
      <trkpt lat="44.18686" lon="5.30918">
        <ele>833.2</ele>
        <time>2026-05-14T14:12:27.000Z</time>
      </trkpt>
      <trkpt lat="44.18685" lon="5.30916">
        <ele>833.3</ele>
        <time>2026-05-14T14:12:28.000Z</time>
      </trkpt>
      <trkpt lat="44.18685" lon="5.30916">
        <ele>833.3</ele>
        <time>2026-05-14T14:12:29.000Z</time>
      </trkpt>
      <trkpt lat="44.18684" lon="5.30914">
        <ele>832.6</ele>
        <time>2026-05-14T14:12:30.000Z</time>
      </trkpt>
      <trkpt lat="44.18684" lon="5.30912">
        <ele>832.3</ele>
        <time>2026-05-14T14:12:31.000Z</time>
      </trkpt>
      <trkpt lat="44.18684" lon="5.30909">
        <ele>832.4</ele>
        <time>2026-05-14T14:12:32.000Z</time>
      </trkpt>
      <trkpt lat="44.18684" lon="5.30907">
        <ele>832.6</ele>
        <time>2026-05-14T14:12:33.000Z</time>
      </trkpt>
      <trkpt lat="44.18683" lon="5.30906">
        <ele>832.5</ele>
        <time>2026-05-14T14:12:34.000Z</time>
      </trkpt>
      <trkpt lat="44.18684" lon="5.30905">
        <ele>832.9</ele>
        <time>2026-05-14T14:12:35.000Z</time>
      </trkpt>
      <trkpt lat="44.18684" lon="5.30904">
        <ele>833.4</ele>
        <time>2026-05-14T14:12:36.000Z</time>
      </trkpt>
      <trkpt lat="44.18684" lon="5.30902">
        <ele>832.7</ele>
        <time>2026-05-14T14:12:37.000Z</time>
      </trkpt>
      <trkpt lat="44.18684" lon="5.30901">
        <ele>832.1</ele>
        <time>2026-05-14T14:12:38.000Z</time>
      </trkpt>
      <trkpt lat="44.18683" lon="5.30899">
        <ele>832.3</ele>
        <time>2026-05-14T14:12:39.000Z</time>
      </trkpt>
      <trkpt lat="44.18682" lon="5.30897">
        <ele>832.5</ele>
        <time>2026-05-14T14:12:40.000Z</time>
      </trkpt>
      <trkpt lat="44.18681" lon="5.30895">
        <ele>833.4</ele>
        <time>2026-05-14T14:12:41.000Z</time>
      </trkpt>
      <trkpt lat="44.18681" lon="5.30893">
        <ele>834.1</ele>
        <time>2026-05-14T14:12:42.000Z</time>
      </trkpt>
      <trkpt lat="44.1868" lon="5.30893">
        <ele>834.6</ele>
        <time>2026-05-14T14:12:43.000Z</time>
      </trkpt>
      <trkpt lat="44.18679" lon="5.30892">
        <ele>835.6</ele>
        <time>2026-05-14T14:12:44.000Z</time>
      </trkpt>
      <trkpt lat="44.18678" lon="5.3089">
        <ele>836.2</ele>
        <time>2026-05-14T14:12:45.000Z</time>
      </trkpt>
      <trkpt lat="44.18678" lon="5.30889">
        <ele>836.2</ele>
        <time>2026-05-14T14:12:46.000Z</time>
      </trkpt>
      <trkpt lat="44.18679" lon="5.30887">
        <ele>835.7</ele>
        <time>2026-05-14T14:12:47.000Z</time>
      </trkpt>
      <trkpt lat="44.18679" lon="5.30884">
        <ele>835.4</ele>
        <time>2026-05-14T14:12:48.000Z</time>
      </trkpt>
      <trkpt lat="44.18679" lon="5.30882">
        <ele>835.4</ele>
        <time>2026-05-14T14:12:49.000Z</time>
      </trkpt>
      <trkpt lat="44.1868" lon="5.3088">
        <ele>835.5</ele>
        <time>2026-05-14T14:12:50.000Z</time>
      </trkpt>
      <trkpt lat="44.1868" lon="5.30879">
        <ele>835</ele>
        <time>2026-05-14T14:12:51.000Z</time>
      </trkpt>
      <trkpt lat="44.1868" lon="5.30879">
        <ele>834.8</ele>
        <time>2026-05-14T14:12:52.000Z</time>
      </trkpt>
      <trkpt lat="44.1868" lon="5.30877">
        <ele>834.4</ele>
        <time>2026-05-14T14:12:53.000Z</time>
      </trkpt>
      <trkpt lat="44.18681" lon="5.30876">
        <ele>834.1</ele>
        <time>2026-05-14T14:12:54.000Z</time>
      </trkpt>
      <trkpt lat="44.18681" lon="5.30875">
        <ele>833.3</ele>
        <time>2026-05-14T14:12:55.000Z</time>
      </trkpt>
      <trkpt lat="44.18682" lon="5.30875">
        <ele>832.8</ele>
        <time>2026-05-14T14:12:56.000Z</time>
      </trkpt>
      <trkpt lat="44.18681" lon="5.30874">
        <ele>832</ele>
        <time>2026-05-14T14:12:57.000Z</time>
      </trkpt>
      <trkpt lat="44.1868" lon="5.30871">
        <ele>831.1</ele>
        <time>2026-05-14T14:12:58.000Z</time>
      </trkpt>
      <trkpt lat="44.18679" lon="5.30869">
        <ele>830.5</ele>
        <time>2026-05-14T14:12:59.000Z</time>
      </trkpt>
      <trkpt lat="44.18678" lon="5.30867">
        <ele>829.4</ele>
        <time>2026-05-14T14:13:00.000Z</time>
      </trkpt>
      <trkpt lat="44.18678" lon="5.30865">
        <ele>828.3</ele>
        <time>2026-05-14T14:13:01.000Z</time>
      </trkpt>
      <trkpt lat="44.18678" lon="5.30864">
        <ele>827.5</ele>
        <time>2026-05-14T14:13:02.000Z</time>
      </trkpt>
      <trkpt lat="44.18678" lon="5.30862">
        <ele>827.3</ele>
        <time>2026-05-14T14:13:03.000Z</time>
      </trkpt>
      <trkpt lat="44.18678" lon="5.3086">
        <ele>827.1</ele>
        <time>2026-05-14T14:13:04.000Z</time>
      </trkpt>
      <trkpt lat="44.18677" lon="5.30858">
        <ele>826.9</ele>
        <time>2026-05-14T14:13:05.000Z</time>
      </trkpt>
      <trkpt lat="44.18677" lon="5.30856">
        <ele>827.2</ele>
        <time>2026-05-14T14:13:06.000Z</time>
      </trkpt>
      <trkpt lat="44.18676" lon="5.30854">
        <ele>827.1</ele>
        <time>2026-05-14T14:13:07.000Z</time>
      </trkpt>
      <trkpt lat="44.18676" lon="5.30853">
        <ele>826.9</ele>
        <time>2026-05-14T14:13:08.000Z</time>
      </trkpt>
      <trkpt lat="44.18675" lon="5.30852">
        <ele>826.7</ele>
        <time>2026-05-14T14:13:09.000Z</time>
      </trkpt>
      <trkpt lat="44.18675" lon="5.3085">
        <ele>826.7</ele>
        <time>2026-05-14T14:13:10.000Z</time>
      </trkpt>
      <trkpt lat="44.18675" lon="5.3085">
        <ele>826.6</ele>
        <time>2026-05-14T14:13:11.000Z</time>
      </trkpt>
      <trkpt lat="44.18674" lon="5.30848">
        <ele>826.7</ele>
        <time>2026-05-14T14:13:12.000Z</time>
      </trkpt>
      <trkpt lat="44.18673" lon="5.30847">
        <ele>826.6</ele>
        <time>2026-05-14T14:13:13.000Z</time>
      </trkpt>
      <trkpt lat="44.18673" lon="5.30847">
        <ele>826.2</ele>
        <time>2026-05-14T14:13:14.000Z</time>
      </trkpt>
      <trkpt lat="44.18673" lon="5.30846">
        <ele>826.9</ele>
        <time>2026-05-14T14:13:15.000Z</time>
      </trkpt>
      <trkpt lat="44.18672" lon="5.30845">
        <ele>827.3</ele>
        <time>2026-05-14T14:13:16.000Z</time>
      </trkpt>
      <trkpt lat="44.18671" lon="5.30844">
        <ele>827.4</ele>
        <time>2026-05-14T14:13:17.000Z</time>
      </trkpt>
      <trkpt lat="44.18671" lon="5.30843">
        <ele>827.6</ele>
        <time>2026-05-14T14:13:18.000Z</time>
      </trkpt>
      <trkpt lat="44.1867" lon="5.3084">
        <ele>827.9</ele>
        <time>2026-05-14T14:13:19.000Z</time>
      </trkpt>
      <trkpt lat="44.1867" lon="5.30837">
        <ele>828.2</ele>
        <time>2026-05-14T14:13:20.000Z</time>
      </trkpt>
      <trkpt lat="44.18669" lon="5.30835">
        <ele>828.5</ele>
        <time>2026-05-14T14:13:21.000Z</time>
      </trkpt>
      <trkpt lat="44.18669" lon="5.30833">
        <ele>829.1</ele>
        <time>2026-05-14T14:13:22.000Z</time>
      </trkpt>
      <trkpt lat="44.18669" lon="5.30832">
        <ele>829.3</ele>
        <time>2026-05-14T14:13:23.000Z</time>
      </trkpt>
      <trkpt lat="44.18669" lon="5.3083">
        <ele>829.1</ele>
        <time>2026-05-14T14:13:24.000Z</time>
      </trkpt>
      <trkpt lat="44.18669" lon="5.3083">
        <ele>828.9</ele>
        <time>2026-05-14T14:13:25.000Z</time>
      </trkpt>
      <trkpt lat="44.18669" lon="5.30828">
        <ele>829</ele>
        <time>2026-05-14T14:13:26.000Z</time>
      </trkpt>
      <trkpt lat="44.18669" lon="5.30826">
        <ele>828.8</ele>
        <time>2026-05-14T14:13:27.000Z</time>
      </trkpt>
      <trkpt lat="44.18668" lon="5.30824">
        <ele>828.8</ele>
        <time>2026-05-14T14:13:28.000Z</time>
      </trkpt>
      <trkpt lat="44.18667" lon="5.30824">
        <ele>829.2</ele>
        <time>2026-05-14T14:13:29.000Z</time>
      </trkpt>
      <trkpt lat="44.18667" lon="5.30823">
        <ele>829.4</ele>
        <time>2026-05-14T14:13:30.000Z</time>
      </trkpt>
      <trkpt lat="44.18666" lon="5.30823">
        <ele>829.5</ele>
        <time>2026-05-14T14:13:31.000Z</time>
      </trkpt>
      <trkpt lat="44.18665" lon="5.30822">
        <ele>830.1</ele>
        <time>2026-05-14T14:13:32.000Z</time>
      </trkpt>
      <trkpt lat="44.18665" lon="5.3082">
        <ele>829.8</ele>
        <time>2026-05-14T14:13:33.000Z</time>
      </trkpt>
      <trkpt lat="44.18665" lon="5.3082">
        <ele>829.9</ele>
        <time>2026-05-14T14:13:34.000Z</time>
      </trkpt>
      <trkpt lat="44.18665" lon="5.30818">
        <ele>829.9</ele>
        <time>2026-05-14T14:13:35.000Z</time>
      </trkpt>
      <trkpt lat="44.18664" lon="5.30817">
        <ele>830.2</ele>
        <time>2026-05-14T14:13:36.000Z</time>
      </trkpt>
      <trkpt lat="44.18663" lon="5.30815">
        <ele>830.9</ele>
        <time>2026-05-14T14:13:37.000Z</time>
      </trkpt>
      <trkpt lat="44.18663" lon="5.30814">
        <ele>831.9</ele>
        <time>2026-05-14T14:13:38.000Z</time>
      </trkpt>
      <trkpt lat="44.18662" lon="5.30813">
        <ele>832.8</ele>
        <time>2026-05-14T14:13:39.000Z</time>
      </trkpt>
      <trkpt lat="44.18662" lon="5.30811">
        <ele>833.5</ele>
        <time>2026-05-14T14:13:40.000Z</time>
      </trkpt>
      <trkpt lat="44.18662" lon="5.30811">
        <ele>833.6</ele>
        <time>2026-05-14T14:13:41.000Z</time>
      </trkpt>
      <trkpt lat="44.18661" lon="5.3081">
        <ele>833.2</ele>
        <time>2026-05-14T14:13:42.000Z</time>
      </trkpt>
      <trkpt lat="44.1866" lon="5.30809">
        <ele>832.9</ele>
        <time>2026-05-14T14:13:43.000Z</time>
      </trkpt>
      <trkpt lat="44.1866" lon="5.30809">
        <ele>832.7</ele>
        <time>2026-05-14T14:13:44.000Z</time>
      </trkpt>
      <trkpt lat="44.18661" lon="5.30808">
        <ele>831.9</ele>
        <time>2026-05-14T14:13:45.000Z</time>
      </trkpt>
      <trkpt lat="44.18661" lon="5.30806">
        <ele>831.2</ele>
        <time>2026-05-14T14:13:46.000Z</time>
      </trkpt>
      <trkpt lat="44.1866" lon="5.30804">
        <ele>831.4</ele>
        <time>2026-05-14T14:13:47.000Z</time>
      </trkpt>
      <trkpt lat="44.18659" lon="5.30802">
        <ele>831.1</ele>
        <time>2026-05-14T14:13:48.000Z</time>
      </trkpt>
      <trkpt lat="44.18658" lon="5.30801">
        <ele>830.7</ele>
        <time>2026-05-14T14:13:49.000Z</time>
      </trkpt>
      <trkpt lat="44.18658" lon="5.308">
        <ele>830.7</ele>
        <time>2026-05-14T14:13:50.000Z</time>
      </trkpt>
      <trkpt lat="44.18658" lon="5.30799">
        <ele>831</ele>
        <time>2026-05-14T14:13:51.000Z</time>
      </trkpt>
      <trkpt lat="44.18658" lon="5.30798">
        <ele>831.5</ele>
        <time>2026-05-14T14:13:52.000Z</time>
      </trkpt>
      <trkpt lat="44.18658" lon="5.30796">
        <ele>831.8</ele>
        <time>2026-05-14T14:13:53.000Z</time>
      </trkpt>
      <trkpt lat="44.18658" lon="5.30794">
        <ele>831.8</ele>
        <time>2026-05-14T14:13:54.000Z</time>
      </trkpt>
      <trkpt lat="44.18658" lon="5.30793">
        <ele>832</ele>
        <time>2026-05-14T14:13:55.000Z</time>
      </trkpt>
      <trkpt lat="44.18658" lon="5.30791">
        <ele>832</ele>
        <time>2026-05-14T14:13:56.000Z</time>
      </trkpt>
      <trkpt lat="44.18657" lon="5.30789">
        <ele>831.5</ele>
        <time>2026-05-14T14:13:57.000Z</time>
      </trkpt>
      <trkpt lat="44.18657" lon="5.30788">
        <ele>831.4</ele>
        <time>2026-05-14T14:13:58.000Z</time>
      </trkpt>
      <trkpt lat="44.18657" lon="5.30787">
        <ele>830.2</ele>
        <time>2026-05-14T14:13:59.000Z</time>
      </trkpt>
      <trkpt lat="44.18657" lon="5.30786">
        <ele>829.1</ele>
        <time>2026-05-14T14:14:00.000Z</time>
      </trkpt>
      <trkpt lat="44.18657" lon="5.30785">
        <ele>828.3</ele>
        <time>2026-05-14T14:14:01.000Z</time>
      </trkpt>
      <trkpt lat="44.18657" lon="5.30785">
        <ele>829.8</ele>
        <time>2026-05-14T14:14:02.000Z</time>
      </trkpt>
      <trkpt lat="44.18657" lon="5.30785">
        <ele>829.6</ele>
        <time>2026-05-14T14:14:03.000Z</time>
      </trkpt>
      <trkpt lat="44.18656" lon="5.30784">
        <ele>829.1</ele>
        <time>2026-05-14T14:14:04.000Z</time>
      </trkpt>
      <trkpt lat="44.18654" lon="5.30782">
        <ele>828.4</ele>
        <time>2026-05-14T14:14:05.000Z</time>
      </trkpt>
      <trkpt lat="44.18653" lon="5.3078">
        <ele>828.2</ele>
        <time>2026-05-14T14:14:06.000Z</time>
      </trkpt>
      <trkpt lat="44.18653" lon="5.30777">
        <ele>828.3</ele>
        <time>2026-05-14T14:14:07.000Z</time>
      </trkpt>
      <trkpt lat="44.18653" lon="5.30774">
        <ele>827.8</ele>
        <time>2026-05-14T14:14:08.000Z</time>
      </trkpt>
      <trkpt lat="44.18652" lon="5.30773">
        <ele>827.4</ele>
        <time>2026-05-14T14:14:09.000Z</time>
      </trkpt>
      <trkpt lat="44.18652" lon="5.30771">
        <ele>826.9</ele>
        <time>2026-05-14T14:14:10.000Z</time>
      </trkpt>
      <trkpt lat="44.18651" lon="5.3077">
        <ele>826.4</ele>
        <time>2026-05-14T14:14:11.000Z</time>
      </trkpt>
      <trkpt lat="44.1865" lon="5.30767">
        <ele>826.3</ele>
        <time>2026-05-14T14:14:12.000Z</time>
      </trkpt>
      <trkpt lat="44.18649" lon="5.30765">
        <ele>826.2</ele>
        <time>2026-05-14T14:14:13.000Z</time>
      </trkpt>
      <trkpt lat="44.18648" lon="5.30764">
        <ele>826.5</ele>
        <time>2026-05-14T14:14:14.000Z</time>
      </trkpt>
      <trkpt lat="44.18647" lon="5.30761">
        <ele>826.8</ele>
        <time>2026-05-14T14:14:15.000Z</time>
      </trkpt>
      <trkpt lat="44.18647" lon="5.30759">
        <ele>827</ele>
        <time>2026-05-14T14:14:16.000Z</time>
      </trkpt>
      <trkpt lat="44.18647" lon="5.30758">
        <ele>826.7</ele>
        <time>2026-05-14T14:14:17.000Z</time>
      </trkpt>
      <trkpt lat="44.18647" lon="5.30757">
        <ele>826.5</ele>
        <time>2026-05-14T14:14:18.000Z</time>
      </trkpt>
      <trkpt lat="44.18647" lon="5.30756">
        <ele>826.3</ele>
        <time>2026-05-14T14:14:19.000Z</time>
      </trkpt>
      <trkpt lat="44.18646" lon="5.30756">
        <ele>826.2</ele>
        <time>2026-05-14T14:14:20.000Z</time>
      </trkpt>
      <trkpt lat="44.18646" lon="5.30754">
        <ele>826.1</ele>
        <time>2026-05-14T14:14:21.000Z</time>
      </trkpt>
      <trkpt lat="44.18646" lon="5.30753">
        <ele>825.4</ele>
        <time>2026-05-14T14:14:22.000Z</time>
      </trkpt>
      <trkpt lat="44.18646" lon="5.30752">
        <ele>825.1</ele>
        <time>2026-05-14T14:14:23.000Z</time>
      </trkpt>
      <trkpt lat="44.18645" lon="5.30751">
        <ele>825.4</ele>
        <time>2026-05-14T14:14:24.000Z</time>
      </trkpt>
      <trkpt lat="44.18645" lon="5.30749">
        <ele>825.9</ele>
        <time>2026-05-14T14:14:25.000Z</time>
      </trkpt>
      <trkpt lat="44.18645" lon="5.30748">
        <ele>826.3</ele>
        <time>2026-05-14T14:14:26.000Z</time>
      </trkpt>
      <trkpt lat="44.18645" lon="5.30747">
        <ele>826.3</ele>
        <time>2026-05-14T14:14:27.000Z</time>
      </trkpt>
      <trkpt lat="44.18645" lon="5.30745">
        <ele>825.9</ele>
        <time>2026-05-14T14:14:28.000Z</time>
      </trkpt>
      <trkpt lat="44.18644" lon="5.30744">
        <ele>825.7</ele>
        <time>2026-05-14T14:14:29.000Z</time>
      </trkpt>
      <trkpt lat="44.18644" lon="5.30743">
        <ele>825.8</ele>
        <time>2026-05-14T14:14:30.000Z</time>
      </trkpt>
      <trkpt lat="44.18644" lon="5.30741">
        <ele>825.8</ele>
        <time>2026-05-14T14:14:31.000Z</time>
      </trkpt>
      <trkpt lat="44.18644" lon="5.30739">
        <ele>825.6</ele>
        <time>2026-05-14T14:14:32.000Z</time>
      </trkpt>
      <trkpt lat="44.18643" lon="5.30738">
        <ele>825.7</ele>
        <time>2026-05-14T14:14:33.000Z</time>
      </trkpt>
      <trkpt lat="44.18643" lon="5.30737">
        <ele>825.6</ele>
        <time>2026-05-14T14:14:34.000Z</time>
      </trkpt>
      <trkpt lat="44.18642" lon="5.30736">
        <ele>825.6</ele>
        <time>2026-05-14T14:14:35.000Z</time>
      </trkpt>
      <trkpt lat="44.18642" lon="5.30734">
        <ele>825.7</ele>
        <time>2026-05-14T14:14:36.000Z</time>
      </trkpt>
      <trkpt lat="44.18641" lon="5.30734">
        <ele>825.8</ele>
        <time>2026-05-14T14:14:37.000Z</time>
      </trkpt>
      <trkpt lat="44.18641" lon="5.30731">
        <ele>826.3</ele>
        <time>2026-05-14T14:14:38.000Z</time>
      </trkpt>
      <trkpt lat="44.18641" lon="5.30729">
        <ele>826</ele>
        <time>2026-05-14T14:14:39.000Z</time>
      </trkpt>
      <trkpt lat="44.1864" lon="5.30726">
        <ele>826.5</ele>
        <time>2026-05-14T14:14:40.000Z</time>
      </trkpt>
      <trkpt lat="44.18639" lon="5.30724">
        <ele>826.8</ele>
        <time>2026-05-14T14:14:41.000Z</time>
      </trkpt>
      <trkpt lat="44.18639" lon="5.30722">
        <ele>826.7</ele>
        <time>2026-05-14T14:14:42.000Z</time>
      </trkpt>
      <trkpt lat="44.18638" lon="5.3072">
        <ele>827</ele>
        <time>2026-05-14T14:14:43.000Z</time>
      </trkpt>
      <trkpt lat="44.18638" lon="5.30719">
        <ele>826.8</ele>
        <time>2026-05-14T14:14:44.000Z</time>
      </trkpt>
      <trkpt lat="44.18638" lon="5.30717">
        <ele>826.9</ele>
        <time>2026-05-14T14:14:45.000Z</time>
      </trkpt>
      <trkpt lat="44.18638" lon="5.30716">
        <ele>826.9</ele>
        <time>2026-05-14T14:14:46.000Z</time>
      </trkpt>
      <trkpt lat="44.18638" lon="5.30714">
        <ele>826.5</ele>
        <time>2026-05-14T14:14:47.000Z</time>
      </trkpt>
      <trkpt lat="44.18637" lon="5.30713">
        <ele>826.6</ele>
        <time>2026-05-14T14:14:48.000Z</time>
      </trkpt>
      <trkpt lat="44.18637" lon="5.30711">
        <ele>826</ele>
        <time>2026-05-14T14:14:49.000Z</time>
      </trkpt>
      <trkpt lat="44.18637" lon="5.30711">
        <ele>825.7</ele>
        <time>2026-05-14T14:14:50.000Z</time>
      </trkpt>
      <trkpt lat="44.18637" lon="5.3071">
        <ele>825.4</ele>
        <time>2026-05-14T14:14:51.000Z</time>
      </trkpt>
      <trkpt lat="44.18637" lon="5.3071">
        <ele>825.7</ele>
        <time>2026-05-14T14:14:52.000Z</time>
      </trkpt>
      <trkpt lat="44.18636" lon="5.3071">
        <ele>825.6</ele>
        <time>2026-05-14T14:14:53.000Z</time>
      </trkpt>
      <trkpt lat="44.18636" lon="5.30709">
        <ele>825.4</ele>
        <time>2026-05-14T14:14:54.000Z</time>
      </trkpt>
      <trkpt lat="44.18635" lon="5.30708">
        <ele>825.2</ele>
        <time>2026-05-14T14:14:55.000Z</time>
      </trkpt>
      <trkpt lat="44.18635" lon="5.30705">
        <ele>825.2</ele>
        <time>2026-05-14T14:14:56.000Z</time>
      </trkpt>
      <trkpt lat="44.18636" lon="5.30702">
        <ele>825.3</ele>
        <time>2026-05-14T14:14:57.000Z</time>
      </trkpt>
      <trkpt lat="44.18636" lon="5.30699">
        <ele>824.9</ele>
        <time>2026-05-14T14:14:58.000Z</time>
      </trkpt>
      <trkpt lat="44.18636" lon="5.30697">
        <ele>824.5</ele>
        <time>2026-05-14T14:14:59.000Z</time>
      </trkpt>
      <trkpt lat="44.18636" lon="5.30696">
        <ele>824.5</ele>
        <time>2026-05-14T14:15:00.000Z</time>
      </trkpt>
      <trkpt lat="44.18636" lon="5.30695">
        <ele>824.7</ele>
        <time>2026-05-14T14:15:01.000Z</time>
      </trkpt>
      <trkpt lat="44.18635" lon="5.30693">
        <ele>824.5</ele>
        <time>2026-05-14T14:15:02.000Z</time>
      </trkpt>
      <trkpt lat="44.18635" lon="5.30691">
        <ele>824.3</ele>
        <time>2026-05-14T14:15:03.000Z</time>
      </trkpt>
      <trkpt lat="44.18634" lon="5.30689">
        <ele>824.2</ele>
        <time>2026-05-14T14:15:04.000Z</time>
      </trkpt>
      <trkpt lat="44.18634" lon="5.30687">
        <ele>823.4</ele>
        <time>2026-05-14T14:15:05.000Z</time>
      </trkpt>
      <trkpt lat="44.18634" lon="5.30686">
        <ele>823.2</ele>
        <time>2026-05-14T14:15:06.000Z</time>
      </trkpt>
      <trkpt lat="44.18634" lon="5.30685">
        <ele>823.8</ele>
        <time>2026-05-14T14:15:07.000Z</time>
      </trkpt>
      <trkpt lat="44.18633" lon="5.30685">
        <ele>823.9</ele>
        <time>2026-05-14T14:15:08.000Z</time>
      </trkpt>
      <trkpt lat="44.18633" lon="5.30685">
        <ele>823.8</ele>
        <time>2026-05-14T14:15:09.000Z</time>
      </trkpt>
      <trkpt lat="44.18632" lon="5.30683">
        <ele>823.9</ele>
        <time>2026-05-14T14:15:10.000Z</time>
      </trkpt>
      <trkpt lat="44.18631" lon="5.30681">
        <ele>823.7</ele>
        <time>2026-05-14T14:15:11.000Z</time>
      </trkpt>
      <trkpt lat="44.18631" lon="5.30678">
        <ele>823.1</ele>
        <time>2026-05-14T14:15:12.000Z</time>
      </trkpt>
      <trkpt lat="44.18631" lon="5.30676">
        <ele>822.6</ele>
        <time>2026-05-14T14:15:13.000Z</time>
      </trkpt>
      <trkpt lat="44.18631" lon="5.30675">
        <ele>822.3</ele>
        <time>2026-05-14T14:15:14.000Z</time>
      </trkpt>
      <trkpt lat="44.18631" lon="5.30673">
        <ele>822.2</ele>
        <time>2026-05-14T14:15:15.000Z</time>
      </trkpt>
      <trkpt lat="44.1863" lon="5.30672">
        <ele>822</ele>
        <time>2026-05-14T14:15:16.000Z</time>
      </trkpt>
      <trkpt lat="44.1863" lon="5.30671">
        <ele>822.1</ele>
        <time>2026-05-14T14:15:17.000Z</time>
      </trkpt>
      <trkpt lat="44.1863" lon="5.30669">
        <ele>821.9</ele>
        <time>2026-05-14T14:15:18.000Z</time>
      </trkpt>
      <trkpt lat="44.18629" lon="5.30667">
        <ele>822.1</ele>
        <time>2026-05-14T14:15:19.000Z</time>
      </trkpt>
      <trkpt lat="44.18629" lon="5.30664">
        <ele>821.9</ele>
        <time>2026-05-14T14:15:20.000Z</time>
      </trkpt>
      <trkpt lat="44.1863" lon="5.30662">
        <ele>823.2</ele>
        <time>2026-05-14T14:15:21.000Z</time>
      </trkpt>
      <trkpt lat="44.1863" lon="5.30661">
        <ele>823.4</ele>
        <time>2026-05-14T14:15:22.000Z</time>
      </trkpt>
      <trkpt lat="44.1863" lon="5.30659">
        <ele>824.2</ele>
        <time>2026-05-14T14:15:23.000Z</time>
      </trkpt>
      <trkpt lat="44.1863" lon="5.30657">
        <ele>823.8</ele>
        <time>2026-05-14T14:15:24.000Z</time>
      </trkpt>
      <trkpt lat="44.1863" lon="5.30655">
        <ele>823.6</ele>
        <time>2026-05-14T14:15:25.000Z</time>
      </trkpt>
      <trkpt lat="44.1863" lon="5.30654">
        <ele>823.5</ele>
        <time>2026-05-14T14:15:26.000Z</time>
      </trkpt>
      <trkpt lat="44.1863" lon="5.30652">
        <ele>823.7</ele>
        <time>2026-05-14T14:15:27.000Z</time>
      </trkpt>
      <trkpt lat="44.18629" lon="5.3065">
        <ele>823.9</ele>
        <time>2026-05-14T14:15:28.000Z</time>
      </trkpt>
      <trkpt lat="44.18629" lon="5.30648">
        <ele>824.4</ele>
        <time>2026-05-14T14:15:29.000Z</time>
      </trkpt>
      <trkpt lat="44.18629" lon="5.30646">
        <ele>824.6</ele>
        <time>2026-05-14T14:15:30.000Z</time>
      </trkpt>
      <trkpt lat="44.18629" lon="5.30644">
        <ele>824.2</ele>
        <time>2026-05-14T14:15:31.000Z</time>
      </trkpt>
      <trkpt lat="44.18629" lon="5.30642">
        <ele>824.6</ele>
        <time>2026-05-14T14:15:32.000Z</time>
      </trkpt>
      <trkpt lat="44.18629" lon="5.3064">
        <ele>824.4</ele>
        <time>2026-05-14T14:15:33.000Z</time>
      </trkpt>
      <trkpt lat="44.18629" lon="5.3064">
        <ele>824.3</ele>
        <time>2026-05-14T14:15:34.000Z</time>
      </trkpt>
      <trkpt lat="44.18628" lon="5.30638">
        <ele>824.8</ele>
        <time>2026-05-14T14:15:35.000Z</time>
      </trkpt>
      <trkpt lat="44.18627" lon="5.30637">
        <ele>824.5</ele>
        <time>2026-05-14T14:15:36.000Z</time>
      </trkpt>
      <trkpt lat="44.18627" lon="5.30636">
        <ele>824.9</ele>
        <time>2026-05-14T14:15:37.000Z</time>
      </trkpt>
      <trkpt lat="44.18625" lon="5.30634">
        <ele>825.6</ele>
        <time>2026-05-14T14:15:38.000Z</time>
      </trkpt>
      <trkpt lat="44.18625" lon="5.30632">
        <ele>826.2</ele>
        <time>2026-05-14T14:15:39.000Z</time>
      </trkpt>
      <trkpt lat="44.18624" lon="5.30631">
        <ele>827.2</ele>
        <time>2026-05-14T14:15:40.000Z</time>
      </trkpt>
      <trkpt lat="44.18624" lon="5.3063">
        <ele>827.4</ele>
        <time>2026-05-14T14:15:41.000Z</time>
      </trkpt>
      <trkpt lat="44.18623" lon="5.30629">
        <ele>828.1</ele>
        <time>2026-05-14T14:15:42.000Z</time>
      </trkpt>
      <trkpt lat="44.18622" lon="5.30628">
        <ele>828.1</ele>
        <time>2026-05-14T14:15:43.000Z</time>
      </trkpt>
      <trkpt lat="44.18621" lon="5.30626">
        <ele>827.7</ele>
        <time>2026-05-14T14:15:44.000Z</time>
      </trkpt>
      <trkpt lat="44.18621" lon="5.30625">
        <ele>827.3</ele>
        <time>2026-05-14T14:15:45.000Z</time>
      </trkpt>
      <trkpt lat="44.1862" lon="5.30624">
        <ele>827.2</ele>
        <time>2026-05-14T14:15:46.000Z</time>
      </trkpt>
      <trkpt lat="44.1862" lon="5.30623">
        <ele>827.1</ele>
        <time>2026-05-14T14:15:47.000Z</time>
      </trkpt>
      <trkpt lat="44.1862" lon="5.30622">
        <ele>826.8</ele>
        <time>2026-05-14T14:15:48.000Z</time>
      </trkpt>
      <trkpt lat="44.1862" lon="5.30621">
        <ele>826.8</ele>
        <time>2026-05-14T14:15:49.000Z</time>
      </trkpt>
      <trkpt lat="44.1862" lon="5.3062">
        <ele>826.8</ele>
        <time>2026-05-14T14:15:50.000Z</time>
      </trkpt>
      <trkpt lat="44.18619" lon="5.30619">
        <ele>827.4</ele>
        <time>2026-05-14T14:15:51.000Z</time>
      </trkpt>
      <trkpt lat="44.18618" lon="5.30617">
        <ele>828.1</ele>
        <time>2026-05-14T14:15:52.000Z</time>
      </trkpt>
      <trkpt lat="44.18617" lon="5.30615">
        <ele>827.7</ele>
        <time>2026-05-14T14:15:53.000Z</time>
      </trkpt>
      <trkpt lat="44.18617" lon="5.30613">
        <ele>827</ele>
        <time>2026-05-14T14:15:54.000Z</time>
      </trkpt>
      <trkpt lat="44.18617" lon="5.30611">
        <ele>826.5</ele>
        <time>2026-05-14T14:15:55.000Z</time>
      </trkpt>
      <trkpt lat="44.18616" lon="5.3061">
        <ele>826.5</ele>
        <time>2026-05-14T14:15:56.000Z</time>
      </trkpt>
      <trkpt lat="44.18616" lon="5.30609">
        <ele>826</ele>
        <time>2026-05-14T14:15:57.000Z</time>
      </trkpt>
      <trkpt lat="44.18616" lon="5.30608">
        <ele>825.7</ele>
        <time>2026-05-14T14:15:58.000Z</time>
      </trkpt>
      <trkpt lat="44.18616" lon="5.30606">
        <ele>824.8</ele>
        <time>2026-05-14T14:15:59.000Z</time>
      </trkpt>
      <trkpt lat="44.18615" lon="5.30604">
        <ele>824.5</ele>
        <time>2026-05-14T14:16:00.000Z</time>
      </trkpt>
      <trkpt lat="44.18615" lon="5.30602">
        <ele>824.9</ele>
        <time>2026-05-14T14:16:01.000Z</time>
      </trkpt>
      <trkpt lat="44.18614" lon="5.306">
        <ele>824.6</ele>
        <time>2026-05-14T14:16:02.000Z</time>
      </trkpt>
      <trkpt lat="44.18614" lon="5.30598">
        <ele>825.1</ele>
        <time>2026-05-14T14:16:03.000Z</time>
      </trkpt>
      <trkpt lat="44.18614" lon="5.30597">
        <ele>825</ele>
        <time>2026-05-14T14:16:04.000Z</time>
      </trkpt>
      <trkpt lat="44.18614" lon="5.30597">
        <ele>824.6</ele>
        <time>2026-05-14T14:16:05.000Z</time>
      </trkpt>
      <trkpt lat="44.18614" lon="5.30595">
        <ele>824.4</ele>
        <time>2026-05-14T14:16:06.000Z</time>
      </trkpt>
      <trkpt lat="44.18613" lon="5.30594">
        <ele>824.4</ele>
        <time>2026-05-14T14:16:07.000Z</time>
      </trkpt>
      <trkpt lat="44.18613" lon="5.30593">
        <ele>824.2</ele>
        <time>2026-05-14T14:16:08.000Z</time>
      </trkpt>
      <trkpt lat="44.18613" lon="5.30592">
        <ele>824.3</ele>
        <time>2026-05-14T14:16:09.000Z</time>
      </trkpt>
      <trkpt lat="44.18612" lon="5.30591">
        <ele>824.3</ele>
        <time>2026-05-14T14:16:10.000Z</time>
      </trkpt>
      <trkpt lat="44.18612" lon="5.3059">
        <ele>824.8</ele>
        <time>2026-05-14T14:16:11.000Z</time>
      </trkpt>
      <trkpt lat="44.18612" lon="5.30589">
        <ele>825.2</ele>
        <time>2026-05-14T14:16:12.000Z</time>
      </trkpt>
      <trkpt lat="44.18611" lon="5.30588">
        <ele>825.8</ele>
        <time>2026-05-14T14:16:13.000Z</time>
      </trkpt>
      <trkpt lat="44.18611" lon="5.30587">
        <ele>826</ele>
        <time>2026-05-14T14:16:14.000Z</time>
      </trkpt>
      <trkpt lat="44.18611" lon="5.30586">
        <ele>825.4</ele>
        <time>2026-05-14T14:16:15.000Z</time>
      </trkpt>
      <trkpt lat="44.18611" lon="5.30585">
        <ele>824.9</ele>
        <time>2026-05-14T14:16:16.000Z</time>
      </trkpt>
      <trkpt lat="44.1861" lon="5.30583">
        <ele>825.3</ele>
        <time>2026-05-14T14:16:17.000Z</time>
      </trkpt>
      <trkpt lat="44.18609" lon="5.30582">
        <ele>825.2</ele>
        <time>2026-05-14T14:16:18.000Z</time>
      </trkpt>
      <trkpt lat="44.18609" lon="5.30581">
        <ele>825.4</ele>
        <time>2026-05-14T14:16:19.000Z</time>
      </trkpt>
      <trkpt lat="44.18609" lon="5.30579">
        <ele>825.9</ele>
        <time>2026-05-14T14:16:20.000Z</time>
      </trkpt>
      <trkpt lat="44.18608" lon="5.30578">
        <ele>825.7</ele>
        <time>2026-05-14T14:16:21.000Z</time>
      </trkpt>
      <trkpt lat="44.18608" lon="5.30576">
        <ele>825.7</ele>
        <time>2026-05-14T14:16:22.000Z</time>
      </trkpt>
      <trkpt lat="44.18607" lon="5.30575">
        <ele>825.8</ele>
        <time>2026-05-14T14:16:23.000Z</time>
      </trkpt>
      <trkpt lat="44.18607" lon="5.30574">
        <ele>825.9</ele>
        <time>2026-05-14T14:16:24.000Z</time>
      </trkpt>
      <trkpt lat="44.18606" lon="5.30572">
        <ele>826</ele>
        <time>2026-05-14T14:16:25.000Z</time>
      </trkpt>
      <trkpt lat="44.18606" lon="5.3057">
        <ele>826</ele>
        <time>2026-05-14T14:16:26.000Z</time>
      </trkpt>
      <trkpt lat="44.18604" lon="5.30568">
        <ele>826.4</ele>
        <time>2026-05-14T14:16:27.000Z</time>
      </trkpt>
      <trkpt lat="44.18604" lon="5.30567">
        <ele>827.1</ele>
        <time>2026-05-14T14:16:28.000Z</time>
      </trkpt>
      <trkpt lat="44.18604" lon="5.30565">
        <ele>827.2</ele>
        <time>2026-05-14T14:16:29.000Z</time>
      </trkpt>
      <trkpt lat="44.18603" lon="5.30563">
        <ele>827.1</ele>
        <time>2026-05-14T14:16:30.000Z</time>
      </trkpt>
      <trkpt lat="44.18603" lon="5.30562">
        <ele>827.2</ele>
        <time>2026-05-14T14:16:31.000Z</time>
      </trkpt>
      <trkpt lat="44.18602" lon="5.3056">
        <ele>827</ele>
        <time>2026-05-14T14:16:32.000Z</time>
      </trkpt>
      <trkpt lat="44.18602" lon="5.30559">
        <ele>826.5</ele>
        <time>2026-05-14T14:16:33.000Z</time>
      </trkpt>
      <trkpt lat="44.18601" lon="5.30557">
        <ele>826.4</ele>
        <time>2026-05-14T14:16:34.000Z</time>
      </trkpt>
      <trkpt lat="44.186" lon="5.30556">
        <ele>826.3</ele>
        <time>2026-05-14T14:16:35.000Z</time>
      </trkpt>
      <trkpt lat="44.18599" lon="5.30554">
        <ele>826.7</ele>
        <time>2026-05-14T14:16:36.000Z</time>
      </trkpt>
      <trkpt lat="44.18599" lon="5.30552">
        <ele>826.4</ele>
        <time>2026-05-14T14:16:37.000Z</time>
      </trkpt>
      <trkpt lat="44.18598" lon="5.30551">
        <ele>827.1</ele>
        <time>2026-05-14T14:16:38.000Z</time>
      </trkpt>
      <trkpt lat="44.18597" lon="5.30551">
        <ele>827.5</ele>
        <time>2026-05-14T14:16:39.000Z</time>
      </trkpt>
      <trkpt lat="44.18597" lon="5.3055">
        <ele>827.9</ele>
        <time>2026-05-14T14:16:40.000Z</time>
      </trkpt>
      <trkpt lat="44.18597" lon="5.30548">
        <ele>828.2</ele>
        <time>2026-05-14T14:16:41.000Z</time>
      </trkpt>
      <trkpt lat="44.18596" lon="5.30546">
        <ele>828.1</ele>
        <time>2026-05-14T14:16:42.000Z</time>
      </trkpt>
      <trkpt lat="44.18596" lon="5.30544">
        <ele>827.9</ele>
        <time>2026-05-14T14:16:43.000Z</time>
      </trkpt>
      <trkpt lat="44.18595" lon="5.30543">
        <ele>827.6</ele>
        <time>2026-05-14T14:16:44.000Z</time>
      </trkpt>
      <trkpt lat="44.18596" lon="5.30542">
        <ele>827.1</ele>
        <time>2026-05-14T14:16:45.000Z</time>
      </trkpt>
      <trkpt lat="44.18596" lon="5.3054">
        <ele>827.1</ele>
        <time>2026-05-14T14:16:46.000Z</time>
      </trkpt>
      <trkpt lat="44.18596" lon="5.30539">
        <ele>826.8</ele>
        <time>2026-05-14T14:16:47.000Z</time>
      </trkpt>
      <trkpt lat="44.18596" lon="5.30538">
        <ele>826.8</ele>
        <time>2026-05-14T14:16:48.000Z</time>
      </trkpt>
      <trkpt lat="44.18595" lon="5.30537">
        <ele>827</ele>
        <time>2026-05-14T14:16:49.000Z</time>
      </trkpt>
      <trkpt lat="44.18595" lon="5.30535">
        <ele>826.7</ele>
        <time>2026-05-14T14:16:50.000Z</time>
      </trkpt>
      <trkpt lat="44.18596" lon="5.30534">
        <ele>826.1</ele>
        <time>2026-05-14T14:16:51.000Z</time>
      </trkpt>
      <trkpt lat="44.18594" lon="5.30531">
        <ele>825.4</ele>
        <time>2026-05-14T14:16:52.000Z</time>
      </trkpt>
      <trkpt lat="44.18594" lon="5.3053">
        <ele>824.9</ele>
        <time>2026-05-14T14:16:53.000Z</time>
      </trkpt>
      <trkpt lat="44.18594" lon="5.30529">
        <ele>824.8</ele>
        <time>2026-05-14T14:16:54.000Z</time>
      </trkpt>
      <trkpt lat="44.18595" lon="5.30528">
        <ele>824.4</ele>
        <time>2026-05-14T14:16:55.000Z</time>
      </trkpt>
      <trkpt lat="44.18595" lon="5.30527">
        <ele>824.3</ele>
        <time>2026-05-14T14:16:56.000Z</time>
      </trkpt>
      <trkpt lat="44.18594" lon="5.30526">
        <ele>824.2</ele>
        <time>2026-05-14T14:16:57.000Z</time>
      </trkpt>
      <trkpt lat="44.18593" lon="5.30525">
        <ele>824.4</ele>
        <time>2026-05-14T14:16:58.000Z</time>
      </trkpt>
      <trkpt lat="44.18593" lon="5.30523">
        <ele>824.7</ele>
        <time>2026-05-14T14:16:59.000Z</time>
      </trkpt>
      <trkpt lat="44.18593" lon="5.30522">
        <ele>824.3</ele>
        <time>2026-05-14T14:17:00.000Z</time>
      </trkpt>
      <trkpt lat="44.18593" lon="5.30521">
        <ele>824</ele>
        <time>2026-05-14T14:17:01.000Z</time>
      </trkpt>
      <trkpt lat="44.18593" lon="5.3052">
        <ele>825.2</ele>
        <time>2026-05-14T14:17:02.000Z</time>
      </trkpt>
      <trkpt lat="44.18593" lon="5.3052">
        <ele>825.1</ele>
        <time>2026-05-14T14:17:03.000Z</time>
      </trkpt>
      <trkpt lat="44.18593" lon="5.30519">
        <ele>824.8</ele>
        <time>2026-05-14T14:17:04.000Z</time>
      </trkpt>
      <trkpt lat="44.18593" lon="5.30518">
        <ele>824.5</ele>
        <time>2026-05-14T14:17:05.000Z</time>
      </trkpt>
      <trkpt lat="44.18593" lon="5.30517">
        <ele>823.9</ele>
        <time>2026-05-14T14:17:06.000Z</time>
      </trkpt>
      <trkpt lat="44.18593" lon="5.30516">
        <ele>823.5</ele>
        <time>2026-05-14T14:17:07.000Z</time>
      </trkpt>
      <trkpt lat="44.18593" lon="5.30515">
        <ele>823.3</ele>
        <time>2026-05-14T14:17:08.000Z</time>
      </trkpt>
      <trkpt lat="44.18592" lon="5.30514">
        <ele>823.2</ele>
        <time>2026-05-14T14:17:09.000Z</time>
      </trkpt>
      <trkpt lat="44.18591" lon="5.30512">
        <ele>822.9</ele>
        <time>2026-05-14T14:17:10.000Z</time>
      </trkpt>
      <trkpt lat="44.1859" lon="5.3051">
        <ele>822.6</ele>
        <time>2026-05-14T14:17:11.000Z</time>
      </trkpt>
      <trkpt lat="44.1859" lon="5.30509">
        <ele>822.2</ele>
        <time>2026-05-14T14:17:12.000Z</time>
      </trkpt>
      <trkpt lat="44.18589" lon="5.30508">
        <ele>821.9</ele>
        <time>2026-05-14T14:17:13.000Z</time>
      </trkpt>
      <trkpt lat="44.18589" lon="5.30506">
        <ele>821.5</ele>
        <time>2026-05-14T14:17:14.000Z</time>
      </trkpt>
      <trkpt lat="44.18589" lon="5.30505">
        <ele>821.2</ele>
        <time>2026-05-14T14:17:15.000Z</time>
      </trkpt>
      <trkpt lat="44.18588" lon="5.30503">
        <ele>821.4</ele>
        <time>2026-05-14T14:17:16.000Z</time>
      </trkpt>
      <trkpt lat="44.18587" lon="5.30501">
        <ele>821.4</ele>
        <time>2026-05-14T14:17:17.000Z</time>
      </trkpt>
      <trkpt lat="44.18587" lon="5.30499">
        <ele>820.7</ele>
        <time>2026-05-14T14:17:18.000Z</time>
      </trkpt>
      <trkpt lat="44.18588" lon="5.305">
        <ele>819.9</ele>
        <time>2026-05-14T14:17:19.000Z</time>
      </trkpt>
      <trkpt lat="44.18589" lon="5.30499">
        <ele>818.9</ele>
        <time>2026-05-14T14:17:20.000Z</time>
      </trkpt>
      <trkpt lat="44.18589" lon="5.30499">
        <ele>818.1</ele>
        <time>2026-05-14T14:17:21.000Z</time>
      </trkpt>
      <trkpt lat="44.1859" lon="5.30498">
        <ele>817.7</ele>
        <time>2026-05-14T14:17:22.000Z</time>
      </trkpt>
      <trkpt lat="44.1859" lon="5.30496">
        <ele>817</ele>
        <time>2026-05-14T14:17:23.000Z</time>
      </trkpt>
      <trkpt lat="44.1859" lon="5.30495">
        <ele>817.4</ele>
        <time>2026-05-14T14:17:24.000Z</time>
      </trkpt>
      <trkpt lat="44.1859" lon="5.30496">
        <ele>816.8</ele>
        <time>2026-05-14T14:17:25.000Z</time>
      </trkpt>
      <trkpt lat="44.18591" lon="5.30496">
        <ele>816.2</ele>
        <time>2026-05-14T14:17:26.000Z</time>
      </trkpt>
      <trkpt lat="44.18591" lon="5.30495">
        <ele>816.4</ele>
        <time>2026-05-14T14:17:27.000Z</time>
      </trkpt>
      <trkpt lat="44.18591" lon="5.30496">
        <ele>815.6</ele>
        <time>2026-05-14T14:17:28.000Z</time>
      </trkpt>
      <trkpt lat="44.18591" lon="5.30496">
        <ele>815.3</ele>
        <time>2026-05-14T14:17:29.000Z</time>
      </trkpt>
      <trkpt lat="44.18591" lon="5.30496">
        <ele>814.8</ele>
        <time>2026-05-14T14:17:30.000Z</time>
      </trkpt>
      <trkpt lat="44.18591" lon="5.30496">
        <ele>814.6</ele>
        <time>2026-05-14T14:17:31.000Z</time>
      </trkpt>
      <trkpt lat="44.18591" lon="5.30496">
        <ele>814.7</ele>
        <time>2026-05-14T14:17:32.000Z</time>
      </trkpt>
      <trkpt lat="44.18591" lon="5.30496">
        <ele>814.8</ele>
        <time>2026-05-14T14:17:33.000Z</time>
      </trkpt>
      <trkpt lat="44.18592" lon="5.30496">
        <ele>814.8</ele>
        <time>2026-05-14T14:17:34.000Z</time>
      </trkpt>
      <trkpt lat="44.18592" lon="5.30497">
        <ele>814.7</ele>
        <time>2026-05-14T14:17:35.000Z</time>
      </trkpt>
      <trkpt lat="44.18592" lon="5.30498">
        <ele>814.5</ele>
        <time>2026-05-14T14:17:36.000Z</time>
      </trkpt>
      <trkpt lat="44.18591" lon="5.30499">
        <ele>814.5</ele>
        <time>2026-05-14T14:17:37.000Z</time>
      </trkpt>
      <trkpt lat="44.18591" lon="5.30499">
        <ele>814.3</ele>
        <time>2026-05-14T14:17:38.000Z</time>
      </trkpt>
      <trkpt lat="44.18591" lon="5.30499">
        <ele>814.5</ele>
        <time>2026-05-14T14:17:39.000Z</time>
      </trkpt>
      <trkpt lat="44.18591" lon="5.30499">
        <ele>814.7</ele>
        <time>2026-05-14T14:17:40.000Z</time>
      </trkpt>
      <trkpt lat="44.18591" lon="5.30499">
        <ele>814.9</ele>
        <time>2026-05-14T14:17:41.000Z</time>
      </trkpt>
      <trkpt lat="44.18591" lon="5.30499">
        <ele>815.1</ele>
        <time>2026-05-14T14:17:42.000Z</time>
      </trkpt>
      <trkpt lat="44.18591" lon="5.30499">
        <ele>815.2</ele>
        <time>2026-05-14T14:17:43.000Z</time>
      </trkpt>
      <trkpt lat="44.18591" lon="5.30499">
        <ele>815</ele>
        <time>2026-05-14T14:17:44.000Z</time>
      </trkpt>
      <trkpt lat="44.18591" lon="5.30499">
        <ele>814.7</ele>
        <time>2026-05-14T14:17:45.000Z</time>
      </trkpt>
      <trkpt lat="44.18591" lon="5.30499">
        <ele>814.3</ele>
        <time>2026-05-14T14:17:46.000Z</time>
      </trkpt>
      <trkpt lat="44.18591" lon="5.30499">
        <ele>814.1</ele>
        <time>2026-05-14T14:17:47.000Z</time>
      </trkpt>
      <trkpt lat="44.18591" lon="5.30499">
        <ele>813.9</ele>
        <time>2026-05-14T14:17:48.000Z</time>
      </trkpt>
      <trkpt lat="44.18591" lon="5.305">
        <ele>813.8</ele>
        <time>2026-05-14T14:17:49.000Z</time>
      </trkpt>
      <trkpt lat="44.18591" lon="5.305">
        <ele>813.8</ele>
        <time>2026-05-14T14:17:50.000Z</time>
      </trkpt>
      <trkpt lat="44.18591" lon="5.305">
        <ele>813.5</ele>
        <time>2026-05-14T14:17:51.000Z</time>
      </trkpt>
      <trkpt lat="44.18591" lon="5.305">
        <ele>813.2</ele>
        <time>2026-05-14T14:17:52.000Z</time>
      </trkpt>
      <trkpt lat="44.18591" lon="5.305">
        <ele>812.9</ele>
        <time>2026-05-14T14:17:53.000Z</time>
      </trkpt>
      <trkpt lat="44.18591" lon="5.305">
        <ele>812.9</ele>
        <time>2026-05-14T14:17:54.000Z</time>
      </trkpt>
      <trkpt lat="44.18591" lon="5.305">
        <ele>812.5</ele>
        <time>2026-05-14T14:17:55.000Z</time>
      </trkpt>
      <trkpt lat="44.18591" lon="5.305">
        <ele>812.3</ele>
        <time>2026-05-14T14:17:56.000Z</time>
      </trkpt>
      <trkpt lat="44.18591" lon="5.305">
        <ele>812.1</ele>
        <time>2026-05-14T14:17:57.000Z</time>
      </trkpt>
      <trkpt lat="44.18591" lon="5.305">
        <ele>811.9</ele>
        <time>2026-05-14T14:17:58.000Z</time>
      </trkpt>
      <trkpt lat="44.18591" lon="5.305">
        <ele>811.9</ele>
        <time>2026-05-14T14:17:59.000Z</time>
      </trkpt>
      <trkpt lat="44.18591" lon="5.305">
        <ele>811.8</ele>
        <time>2026-05-14T14:18:00.000Z</time>
      </trkpt>
      <trkpt lat="44.18591" lon="5.305">
        <ele>811.7</ele>
        <time>2026-05-14T14:18:01.000Z</time>
      </trkpt>
      <trkpt lat="44.18591" lon="5.305">
        <ele>812</ele>
        <time>2026-05-14T14:18:02.000Z</time>
      </trkpt>
      <trkpt lat="44.18591" lon="5.30499">
        <ele>811.7</ele>
        <time>2026-05-14T14:18:03.000Z</time>
      </trkpt>
      <trkpt lat="44.18591" lon="5.30499">
        <ele>811.9</ele>
        <time>2026-05-14T14:18:04.000Z</time>
      </trkpt>
      <trkpt lat="44.18591" lon="5.305">
        <ele>812.5</ele>
        <time>2026-05-14T14:18:05.000Z</time>
      </trkpt>
      <trkpt lat="44.1859" lon="5.305">
        <ele>812.1</ele>
        <time>2026-05-14T14:18:06.000Z</time>
      </trkpt>
      <trkpt lat="44.18589" lon="5.30499">
        <ele>811.5</ele>
        <time>2026-05-14T14:18:07.000Z</time>
      </trkpt>
      <trkpt lat="44.18588" lon="5.30498">
        <ele>810.8</ele>
        <time>2026-05-14T14:18:08.000Z</time>
      </trkpt>
      <trkpt lat="44.18587" lon="5.30496">
        <ele>810.1</ele>
        <time>2026-05-14T14:18:09.000Z</time>
      </trkpt>
      <trkpt lat="44.18587" lon="5.30495">
        <ele>809.5</ele>
        <time>2026-05-14T14:18:10.000Z</time>
      </trkpt>
      <trkpt lat="44.18587" lon="5.30495">
        <ele>809.1</ele>
        <time>2026-05-14T14:18:11.000Z</time>
      </trkpt>
      <trkpt lat="44.18587" lon="5.30495">
        <ele>808.9</ele>
        <time>2026-05-14T14:18:12.000Z</time>
      </trkpt>
      <trkpt lat="44.18586" lon="5.30493">
        <ele>808.7</ele>
        <time>2026-05-14T14:18:13.000Z</time>
      </trkpt>
      <trkpt lat="44.18585" lon="5.30493">
        <ele>808.6</ele>
        <time>2026-05-14T14:18:14.000Z</time>
      </trkpt>
      <trkpt lat="44.18584" lon="5.30492">
        <ele>808.5</ele>
        <time>2026-05-14T14:18:15.000Z</time>
      </trkpt>
      <trkpt lat="44.18583" lon="5.30491">
        <ele>808.3</ele>
        <time>2026-05-14T14:18:16.000Z</time>
      </trkpt>
      <trkpt lat="44.18583" lon="5.3049">
        <ele>808.2</ele>
        <time>2026-05-14T14:18:17.000Z</time>
      </trkpt>
      <trkpt lat="44.18583" lon="5.30488">
        <ele>808.2</ele>
        <time>2026-05-14T14:18:18.000Z</time>
      </trkpt>
      <trkpt lat="44.18582" lon="5.30486">
        <ele>808</ele>
        <time>2026-05-14T14:18:19.000Z</time>
      </trkpt>
      <trkpt lat="44.18582" lon="5.30484">
        <ele>807.7</ele>
        <time>2026-05-14T14:18:20.000Z</time>
      </trkpt>
      <trkpt lat="44.18582" lon="5.30482">
        <ele>807.8</ele>
        <time>2026-05-14T14:18:21.000Z</time>
      </trkpt>
      <trkpt lat="44.18582" lon="5.30481">
        <ele>807.9</ele>
        <time>2026-05-14T14:18:22.000Z</time>
      </trkpt>
      <trkpt lat="44.18581" lon="5.30479">
        <ele>807.9</ele>
        <time>2026-05-14T14:18:23.000Z</time>
      </trkpt>
      <trkpt lat="44.18581" lon="5.30478">
        <ele>807.8</ele>
        <time>2026-05-14T14:18:24.000Z</time>
      </trkpt>
      <trkpt lat="44.18581" lon="5.30476">
        <ele>807.8</ele>
        <time>2026-05-14T14:18:25.000Z</time>
      </trkpt>
      <trkpt lat="44.1858" lon="5.30474">
        <ele>807.7</ele>
        <time>2026-05-14T14:18:26.000Z</time>
      </trkpt>
      <trkpt lat="44.1858" lon="5.30471">
        <ele>807.3</ele>
        <time>2026-05-14T14:18:27.000Z</time>
      </trkpt>
      <trkpt lat="44.18579" lon="5.3047">
        <ele>807.3</ele>
        <time>2026-05-14T14:18:28.000Z</time>
      </trkpt>
      <trkpt lat="44.18579" lon="5.30468">
        <ele>807.2</ele>
        <time>2026-05-14T14:18:29.000Z</time>
      </trkpt>
      <trkpt lat="44.18579" lon="5.30466">
        <ele>807</ele>
        <time>2026-05-14T14:18:30.000Z</time>
      </trkpt>
      <trkpt lat="44.18579" lon="5.30465">
        <ele>806.7</ele>
        <time>2026-05-14T14:18:31.000Z</time>
      </trkpt>
      <trkpt lat="44.18579" lon="5.30463">
        <ele>806.5</ele>
        <time>2026-05-14T14:18:32.000Z</time>
      </trkpt>
      <trkpt lat="44.18578" lon="5.30462">
        <ele>806.3</ele>
        <time>2026-05-14T14:18:33.000Z</time>
      </trkpt>
      <trkpt lat="44.18577" lon="5.3046">
        <ele>806.1</ele>
        <time>2026-05-14T14:18:34.000Z</time>
      </trkpt>
      <trkpt lat="44.18576" lon="5.30458">
        <ele>806.2</ele>
        <time>2026-05-14T14:18:35.000Z</time>
      </trkpt>
      <trkpt lat="44.18575" lon="5.30456">
        <ele>806</ele>
        <time>2026-05-14T14:18:36.000Z</time>
      </trkpt>
      <trkpt lat="44.18575" lon="5.30454">
        <ele>805.6</ele>
        <time>2026-05-14T14:18:37.000Z</time>
      </trkpt>
      <trkpt lat="44.18575" lon="5.30453">
        <ele>805.5</ele>
        <time>2026-05-14T14:18:38.000Z</time>
      </trkpt>
      <trkpt lat="44.18574" lon="5.30452">
        <ele>804.8</ele>
        <time>2026-05-14T14:18:39.000Z</time>
      </trkpt>
      <trkpt lat="44.18574" lon="5.30452">
        <ele>804.6</ele>
        <time>2026-05-14T14:18:40.000Z</time>
      </trkpt>
      <trkpt lat="44.18573" lon="5.3045">
        <ele>804.6</ele>
        <time>2026-05-14T14:18:41.000Z</time>
      </trkpt>
      <trkpt lat="44.18572" lon="5.30449">
        <ele>804.6</ele>
        <time>2026-05-14T14:18:42.000Z</time>
      </trkpt>
      <trkpt lat="44.18572" lon="5.30447">
        <ele>804.3</ele>
        <time>2026-05-14T14:18:43.000Z</time>
      </trkpt>
      <trkpt lat="44.18571" lon="5.30444">
        <ele>804.3</ele>
        <time>2026-05-14T14:18:44.000Z</time>
      </trkpt>
      <trkpt lat="44.18571" lon="5.30443">
        <ele>804</ele>
        <time>2026-05-14T14:18:45.000Z</time>
      </trkpt>
      <trkpt lat="44.18571" lon="5.30441">
        <ele>804</ele>
        <time>2026-05-14T14:18:46.000Z</time>
      </trkpt>
      <trkpt lat="44.18571" lon="5.30441">
        <ele>804.4</ele>
        <time>2026-05-14T14:18:47.000Z</time>
      </trkpt>
      <trkpt lat="44.1857" lon="5.30439">
        <ele>804.2</ele>
        <time>2026-05-14T14:18:48.000Z</time>
      </trkpt>
      <trkpt lat="44.1857" lon="5.30437">
        <ele>804.5</ele>
        <time>2026-05-14T14:18:49.000Z</time>
      </trkpt>
      <trkpt lat="44.1857" lon="5.30435">
        <ele>804.1</ele>
        <time>2026-05-14T14:18:50.000Z</time>
      </trkpt>
      <trkpt lat="44.18569" lon="5.30433">
        <ele>804.1</ele>
        <time>2026-05-14T14:18:51.000Z</time>
      </trkpt>
      <trkpt lat="44.18569" lon="5.3043">
        <ele>804.3</ele>
        <time>2026-05-14T14:18:52.000Z</time>
      </trkpt>
      <trkpt lat="44.18568" lon="5.30428">
        <ele>805.3</ele>
        <time>2026-05-14T14:18:53.000Z</time>
      </trkpt>
      <trkpt lat="44.18568" lon="5.30426">
        <ele>804.6</ele>
        <time>2026-05-14T14:18:54.000Z</time>
      </trkpt>
      <trkpt lat="44.18567" lon="5.30424">
        <ele>803.8</ele>
        <time>2026-05-14T14:18:55.000Z</time>
      </trkpt>
      <trkpt lat="44.18567" lon="5.30423">
        <ele>803.5</ele>
        <time>2026-05-14T14:18:56.000Z</time>
      </trkpt>
      <trkpt lat="44.18567" lon="5.30422">
        <ele>803.4</ele>
        <time>2026-05-14T14:18:57.000Z</time>
      </trkpt>
      <trkpt lat="44.18567" lon="5.30421">
        <ele>802.7</ele>
        <time>2026-05-14T14:18:58.000Z</time>
      </trkpt>
      <trkpt lat="44.18567" lon="5.3042">
        <ele>801.8</ele>
        <time>2026-05-14T14:18:59.000Z</time>
      </trkpt>
      <trkpt lat="44.18568" lon="5.3042">
        <ele>801.6</ele>
        <time>2026-05-14T14:19:00.000Z</time>
      </trkpt>
      <trkpt lat="44.18568" lon="5.30418">
        <ele>801.3</ele>
        <time>2026-05-14T14:19:01.000Z</time>
      </trkpt>
      <trkpt lat="44.18568" lon="5.30417">
        <ele>801.1</ele>
        <time>2026-05-14T14:19:02.000Z</time>
      </trkpt>
      <trkpt lat="44.18567" lon="5.30416">
        <ele>802.3</ele>
        <time>2026-05-14T14:19:03.000Z</time>
      </trkpt>
      <trkpt lat="44.18567" lon="5.30414">
        <ele>803.8</ele>
        <time>2026-05-14T14:19:04.000Z</time>
      </trkpt>
      <trkpt lat="44.18567" lon="5.30413">
        <ele>805.4</ele>
        <time>2026-05-14T14:19:05.000Z</time>
      </trkpt>
      <trkpt lat="44.18567" lon="5.30412">
        <ele>805.4</ele>
        <time>2026-05-14T14:19:06.000Z</time>
      </trkpt>
      <trkpt lat="44.18567" lon="5.30413">
        <ele>806.2</ele>
        <time>2026-05-14T14:19:07.000Z</time>
      </trkpt>
      <trkpt lat="44.18567" lon="5.30413">
        <ele>806.6</ele>
        <time>2026-05-14T14:19:08.000Z</time>
      </trkpt>
      <trkpt lat="44.18567" lon="5.30412">
        <ele>807</ele>
        <time>2026-05-14T14:19:09.000Z</time>
      </trkpt>
      <trkpt lat="44.18566" lon="5.30411">
        <ele>807.3</ele>
        <time>2026-05-14T14:19:10.000Z</time>
      </trkpt>
      <trkpt lat="44.18565" lon="5.3041">
        <ele>807.1</ele>
        <time>2026-05-14T14:19:11.000Z</time>
      </trkpt>
      <trkpt lat="44.18564" lon="5.30409">
        <ele>807.5</ele>
        <time>2026-05-14T14:19:12.000Z</time>
      </trkpt>
      <trkpt lat="44.18563" lon="5.30408">
        <ele>808.4</ele>
        <time>2026-05-14T14:19:13.000Z</time>
      </trkpt>
      <trkpt lat="44.18562" lon="5.30407">
        <ele>808.7</ele>
        <time>2026-05-14T14:19:14.000Z</time>
      </trkpt>
      <trkpt lat="44.18562" lon="5.30408">
        <ele>809</ele>
        <time>2026-05-14T14:19:15.000Z</time>
      </trkpt>
      <trkpt lat="44.18562" lon="5.30408">
        <ele>809.2</ele>
        <time>2026-05-14T14:19:16.000Z</time>
      </trkpt>
      <trkpt lat="44.18564" lon="5.30408">
        <ele>808.9</ele>
        <time>2026-05-14T14:19:17.000Z</time>
      </trkpt>
      <trkpt lat="44.18564" lon="5.30409">
        <ele>808.7</ele>
        <time>2026-05-14T14:19:18.000Z</time>
      </trkpt>
      <trkpt lat="44.18565" lon="5.3041">
        <ele>808.9</ele>
        <time>2026-05-14T14:19:19.000Z</time>
      </trkpt>
      <trkpt lat="44.18565" lon="5.30411">
        <ele>809.1</ele>
        <time>2026-05-14T14:19:20.000Z</time>
      </trkpt>
      <trkpt lat="44.18565" lon="5.3041">
        <ele>809.4</ele>
        <time>2026-05-14T14:19:21.000Z</time>
      </trkpt>
      <trkpt lat="44.18565" lon="5.3041">
        <ele>809.2</ele>
        <time>2026-05-14T14:19:22.000Z</time>
      </trkpt>
      <trkpt lat="44.18564" lon="5.30409">
        <ele>809</ele>
        <time>2026-05-14T14:19:23.000Z</time>
      </trkpt>
      <trkpt lat="44.18563" lon="5.30407">
        <ele>808.9</ele>
        <time>2026-05-14T14:19:24.000Z</time>
      </trkpt>
      <trkpt lat="44.18563" lon="5.30407">
        <ele>809.2</ele>
        <time>2026-05-14T14:19:25.000Z</time>
      </trkpt>
      <trkpt lat="44.18563" lon="5.30405">
        <ele>809.1</ele>
        <time>2026-05-14T14:19:26.000Z</time>
      </trkpt>
      <trkpt lat="44.18562" lon="5.30404">
        <ele>809.3</ele>
        <time>2026-05-14T14:19:27.000Z</time>
      </trkpt>
      <trkpt lat="44.18562" lon="5.30402">
        <ele>809.1</ele>
        <time>2026-05-14T14:19:28.000Z</time>
      </trkpt>
      <trkpt lat="44.18562" lon="5.304">
        <ele>808.9</ele>
        <time>2026-05-14T14:19:29.000Z</time>
      </trkpt>
      <trkpt lat="44.18562" lon="5.30399">
        <ele>808.5</ele>
        <time>2026-05-14T14:19:30.000Z</time>
      </trkpt>
      <trkpt lat="44.18561" lon="5.30397">
        <ele>808</ele>
        <time>2026-05-14T14:19:31.000Z</time>
      </trkpt>
      <trkpt lat="44.1856" lon="5.30395">
        <ele>807.6</ele>
        <time>2026-05-14T14:19:32.000Z</time>
      </trkpt>
      <trkpt lat="44.18559" lon="5.30393">
        <ele>807.3</ele>
        <time>2026-05-14T14:19:33.000Z</time>
      </trkpt>
      <trkpt lat="44.18559" lon="5.30392">
        <ele>807.1</ele>
        <time>2026-05-14T14:19:34.000Z</time>
      </trkpt>
      <trkpt lat="44.18558" lon="5.3039">
        <ele>807</ele>
        <time>2026-05-14T14:19:35.000Z</time>
      </trkpt>
      <trkpt lat="44.18557" lon="5.30388">
        <ele>806.8</ele>
        <time>2026-05-14T14:19:36.000Z</time>
      </trkpt>
      <trkpt lat="44.18556" lon="5.30386">
        <ele>806.8</ele>
        <time>2026-05-14T14:19:37.000Z</time>
      </trkpt>
      <trkpt lat="44.18556" lon="5.30385">
        <ele>806.7</ele>
        <time>2026-05-14T14:19:38.000Z</time>
      </trkpt>
      <trkpt lat="44.18555" lon="5.30384">
        <ele>807</ele>
        <time>2026-05-14T14:19:39.000Z</time>
      </trkpt>
      <trkpt lat="44.18555" lon="5.30384">
        <ele>807</ele>
        <time>2026-05-14T14:19:40.000Z</time>
      </trkpt>
      <trkpt lat="44.18554" lon="5.30381">
        <ele>807.9</ele>
        <time>2026-05-14T14:19:41.000Z</time>
      </trkpt>
      <trkpt lat="44.18553" lon="5.30379">
        <ele>809.7</ele>
        <time>2026-05-14T14:19:42.000Z</time>
      </trkpt>
      <trkpt lat="44.18553" lon="5.30377">
        <ele>809.9</ele>
        <time>2026-05-14T14:19:43.000Z</time>
      </trkpt>
      <trkpt lat="44.18553" lon="5.30376">
        <ele>810.2</ele>
        <time>2026-05-14T14:19:44.000Z</time>
      </trkpt>
      <trkpt lat="44.18554" lon="5.30374">
        <ele>809.8</ele>
        <time>2026-05-14T14:19:45.000Z</time>
      </trkpt>
      <trkpt lat="44.18554" lon="5.30372">
        <ele>809.8</ele>
        <time>2026-05-14T14:19:46.000Z</time>
      </trkpt>
      <trkpt lat="44.18553" lon="5.30369">
        <ele>810.4</ele>
        <time>2026-05-14T14:19:47.000Z</time>
      </trkpt>
      <trkpt lat="44.18552" lon="5.30367">
        <ele>810.1</ele>
        <time>2026-05-14T14:19:48.000Z</time>
      </trkpt>
      <trkpt lat="44.18552" lon="5.30364">
        <ele>809.8</ele>
        <time>2026-05-14T14:19:49.000Z</time>
      </trkpt>
      <trkpt lat="44.18552" lon="5.30363">
        <ele>809.5</ele>
        <time>2026-05-14T14:19:50.000Z</time>
      </trkpt>
      <trkpt lat="44.18551" lon="5.30362">
        <ele>809.7</ele>
        <time>2026-05-14T14:19:51.000Z</time>
      </trkpt>
      <trkpt lat="44.18551" lon="5.3036">
        <ele>808.8</ele>
        <time>2026-05-14T14:19:52.000Z</time>
      </trkpt>
      <trkpt lat="44.18551" lon="5.30359">
        <ele>808.9</ele>
        <time>2026-05-14T14:19:53.000Z</time>
      </trkpt>
      <trkpt lat="44.1855" lon="5.30359">
        <ele>809.5</ele>
        <time>2026-05-14T14:19:54.000Z</time>
      </trkpt>
      <trkpt lat="44.1855" lon="5.30358">
        <ele>809.8</ele>
        <time>2026-05-14T14:19:55.000Z</time>
      </trkpt>
      <trkpt lat="44.18549" lon="5.30357">
        <ele>810.2</ele>
        <time>2026-05-14T14:19:56.000Z</time>
      </trkpt>
      <trkpt lat="44.18548" lon="5.30355">
        <ele>810.6</ele>
        <time>2026-05-14T14:19:57.000Z</time>
      </trkpt>
      <trkpt lat="44.18547" lon="5.30353">
        <ele>811</ele>
        <time>2026-05-14T14:19:58.000Z</time>
      </trkpt>
      <trkpt lat="44.18545" lon="5.30351">
        <ele>811.4</ele>
        <time>2026-05-14T14:19:59.000Z</time>
      </trkpt>
      <trkpt lat="44.18545" lon="5.30348">
        <ele>810.8</ele>
        <time>2026-05-14T14:20:00.000Z</time>
      </trkpt>
      <trkpt lat="44.18544" lon="5.30346">
        <ele>810.9</ele>
        <time>2026-05-14T14:20:01.000Z</time>
      </trkpt>
      <trkpt lat="44.18544" lon="5.30344">
        <ele>810.1</ele>
        <time>2026-05-14T14:20:02.000Z</time>
      </trkpt>
      <trkpt lat="44.18543" lon="5.30343">
        <ele>809.7</ele>
        <time>2026-05-14T14:20:03.000Z</time>
      </trkpt>
      <trkpt lat="44.18542" lon="5.30342">
        <ele>809.4</ele>
        <time>2026-05-14T14:20:04.000Z</time>
      </trkpt>
      <trkpt lat="44.18541" lon="5.30342">
        <ele>809.3</ele>
        <time>2026-05-14T14:20:05.000Z</time>
      </trkpt>
      <trkpt lat="44.1854" lon="5.30341">
        <ele>808.9</ele>
        <time>2026-05-14T14:20:06.000Z</time>
      </trkpt>
      <trkpt lat="44.18539" lon="5.3034">
        <ele>809</ele>
        <time>2026-05-14T14:20:07.000Z</time>
      </trkpt>
      <trkpt lat="44.18538" lon="5.3034">
        <ele>809.2</ele>
        <time>2026-05-14T14:20:08.000Z</time>
      </trkpt>
      <trkpt lat="44.18537" lon="5.30338">
        <ele>809.6</ele>
        <time>2026-05-14T14:20:09.000Z</time>
      </trkpt>
      <trkpt lat="44.18536" lon="5.30336">
        <ele>809.7</ele>
        <time>2026-05-14T14:20:10.000Z</time>
      </trkpt>
      <trkpt lat="44.18535" lon="5.30334">
        <ele>810.6</ele>
        <time>2026-05-14T14:20:11.000Z</time>
      </trkpt>
      <trkpt lat="44.18535" lon="5.30333">
        <ele>811.2</ele>
        <time>2026-05-14T14:20:12.000Z</time>
      </trkpt>
      <trkpt lat="44.18534" lon="5.30332">
        <ele>811.1</ele>
        <time>2026-05-14T14:20:13.000Z</time>
      </trkpt>
      <trkpt lat="44.18533" lon="5.30331">
        <ele>811.2</ele>
        <time>2026-05-14T14:20:14.000Z</time>
      </trkpt>
      <trkpt lat="44.18533" lon="5.3033">
        <ele>811.1</ele>
        <time>2026-05-14T14:20:15.000Z</time>
      </trkpt>
      <trkpt lat="44.18533" lon="5.30329">
        <ele>811</ele>
        <time>2026-05-14T14:20:16.000Z</time>
      </trkpt>
      <trkpt lat="44.18532" lon="5.30328">
        <ele>811.3</ele>
        <time>2026-05-14T14:20:17.000Z</time>
      </trkpt>
      <trkpt lat="44.18532" lon="5.30326">
        <ele>811.7</ele>
        <time>2026-05-14T14:20:18.000Z</time>
      </trkpt>
      <trkpt lat="44.18531" lon="5.30324">
        <ele>812.5</ele>
        <time>2026-05-14T14:20:19.000Z</time>
      </trkpt>
      <trkpt lat="44.18529" lon="5.30322">
        <ele>812.8</ele>
        <time>2026-05-14T14:20:20.000Z</time>
      </trkpt>
      <trkpt lat="44.18528" lon="5.3032">
        <ele>813.3</ele>
        <time>2026-05-14T14:20:21.000Z</time>
      </trkpt>
      <trkpt lat="44.18527" lon="5.30318">
        <ele>814.1</ele>
        <time>2026-05-14T14:20:22.000Z</time>
      </trkpt>
      <trkpt lat="44.18527" lon="5.30317">
        <ele>813.8</ele>
        <time>2026-05-14T14:20:23.000Z</time>
      </trkpt>
      <trkpt lat="44.18526" lon="5.30315">
        <ele>813.6</ele>
        <time>2026-05-14T14:20:24.000Z</time>
      </trkpt>
      <trkpt lat="44.18527" lon="5.30314">
        <ele>813.7</ele>
        <time>2026-05-14T14:20:25.000Z</time>
      </trkpt>
      <trkpt lat="44.18527" lon="5.30312">
        <ele>813.8</ele>
        <time>2026-05-14T14:20:26.000Z</time>
      </trkpt>
      <trkpt lat="44.18526" lon="5.30311">
        <ele>813.9</ele>
        <time>2026-05-14T14:20:27.000Z</time>
      </trkpt>
      <trkpt lat="44.18526" lon="5.30309">
        <ele>813.6</ele>
        <time>2026-05-14T14:20:28.000Z</time>
      </trkpt>
      <trkpt lat="44.18525" lon="5.30307">
        <ele>813.3</ele>
        <time>2026-05-14T14:20:29.000Z</time>
      </trkpt>
      <trkpt lat="44.18524" lon="5.30304">
        <ele>812.8</ele>
        <time>2026-05-14T14:20:30.000Z</time>
      </trkpt>
      <trkpt lat="44.18523" lon="5.30302">
        <ele>812.4</ele>
        <time>2026-05-14T14:20:31.000Z</time>
      </trkpt>
      <trkpt lat="44.18523" lon="5.303">
        <ele>812.3</ele>
        <time>2026-05-14T14:20:32.000Z</time>
      </trkpt>
      <trkpt lat="44.18523" lon="5.30298">
        <ele>811.8</ele>
        <time>2026-05-14T14:20:33.000Z</time>
      </trkpt>
      <trkpt lat="44.18522" lon="5.30298">
        <ele>810.8</ele>
        <time>2026-05-14T14:20:34.000Z</time>
      </trkpt>
      <trkpt lat="44.18523" lon="5.30296">
        <ele>810.5</ele>
        <time>2026-05-14T14:20:35.000Z</time>
      </trkpt>
      <trkpt lat="44.18522" lon="5.30295">
        <ele>810.5</ele>
        <time>2026-05-14T14:20:36.000Z</time>
      </trkpt>
      <trkpt lat="44.18522" lon="5.30294">
        <ele>810.4</ele>
        <time>2026-05-14T14:20:37.000Z</time>
      </trkpt>
      <trkpt lat="44.18522" lon="5.30292">
        <ele>810.1</ele>
        <time>2026-05-14T14:20:38.000Z</time>
      </trkpt>
      <trkpt lat="44.18521" lon="5.3029">
        <ele>810</ele>
        <time>2026-05-14T14:20:39.000Z</time>
      </trkpt>
      <trkpt lat="44.18521" lon="5.30288">
        <ele>809.7</ele>
        <time>2026-05-14T14:20:40.000Z</time>
      </trkpt>
      <trkpt lat="44.1852" lon="5.30288">
        <ele>809.5</ele>
        <time>2026-05-14T14:20:41.000Z</time>
      </trkpt>
      <trkpt lat="44.18519" lon="5.30286">
        <ele>809.6</ele>
        <time>2026-05-14T14:20:42.000Z</time>
      </trkpt>
      <trkpt lat="44.18519" lon="5.30285">
        <ele>809.3</ele>
        <time>2026-05-14T14:20:43.000Z</time>
      </trkpt>
      <trkpt lat="44.18518" lon="5.30284">
        <ele>809</ele>
        <time>2026-05-14T14:20:44.000Z</time>
      </trkpt>
      <trkpt lat="44.18518" lon="5.30282">
        <ele>809.1</ele>
        <time>2026-05-14T14:20:45.000Z</time>
      </trkpt>
      <trkpt lat="44.18517" lon="5.3028">
        <ele>809.2</ele>
        <time>2026-05-14T14:20:46.000Z</time>
      </trkpt>
      <trkpt lat="44.18516" lon="5.30278">
        <ele>809.3</ele>
        <time>2026-05-14T14:20:47.000Z</time>
      </trkpt>
      <trkpt lat="44.18515" lon="5.30277">
        <ele>808.9</ele>
        <time>2026-05-14T14:20:48.000Z</time>
      </trkpt>
      <trkpt lat="44.18515" lon="5.30277">
        <ele>808</ele>
        <time>2026-05-14T14:20:49.000Z</time>
      </trkpt>
      <trkpt lat="44.18514" lon="5.30276">
        <ele>807.7</ele>
        <time>2026-05-14T14:20:50.000Z</time>
      </trkpt>
      <trkpt lat="44.18514" lon="5.30275">
        <ele>807.2</ele>
        <time>2026-05-14T14:20:51.000Z</time>
      </trkpt>
      <trkpt lat="44.18513" lon="5.30274">
        <ele>807</ele>
        <time>2026-05-14T14:20:52.000Z</time>
      </trkpt>
      <trkpt lat="44.18512" lon="5.30273">
        <ele>806.6</ele>
        <time>2026-05-14T14:20:53.000Z</time>
      </trkpt>
      <trkpt lat="44.18511" lon="5.30272">
        <ele>806.2</ele>
        <time>2026-05-14T14:20:54.000Z</time>
      </trkpt>
      <trkpt lat="44.18509" lon="5.3027">
        <ele>805.7</ele>
        <time>2026-05-14T14:20:55.000Z</time>
      </trkpt>
      <trkpt lat="44.18507" lon="5.30268">
        <ele>805</ele>
        <time>2026-05-14T14:20:56.000Z</time>
      </trkpt>
      <trkpt lat="44.18505" lon="5.30267">
        <ele>804.9</ele>
        <time>2026-05-14T14:20:57.000Z</time>
      </trkpt>
      <trkpt lat="44.18504" lon="5.30267">
        <ele>804.3</ele>
        <time>2026-05-14T14:20:58.000Z</time>
      </trkpt>
      <trkpt lat="44.18502" lon="5.30267">
        <ele>805.7</ele>
        <time>2026-05-14T14:20:59.000Z</time>
      </trkpt>
      <trkpt lat="44.18501" lon="5.30266">
        <ele>805.6</ele>
        <time>2026-05-14T14:21:00.000Z</time>
      </trkpt>
      <trkpt lat="44.185" lon="5.30266">
        <ele>806.2</ele>
        <time>2026-05-14T14:21:01.000Z</time>
      </trkpt>
      <trkpt lat="44.18499" lon="5.30265">
        <ele>806.4</ele>
        <time>2026-05-14T14:21:02.000Z</time>
      </trkpt>
      <trkpt lat="44.18497" lon="5.30265">
        <ele>806.7</ele>
        <time>2026-05-14T14:21:03.000Z</time>
      </trkpt>
      <trkpt lat="44.18496" lon="5.30265">
        <ele>806.6</ele>
        <time>2026-05-14T14:21:04.000Z</time>
      </trkpt>
      <trkpt lat="44.18495" lon="5.30265">
        <ele>806.5</ele>
        <time>2026-05-14T14:21:05.000Z</time>
      </trkpt>
      <trkpt lat="44.18493" lon="5.30264">
        <ele>806.6</ele>
        <time>2026-05-14T14:21:06.000Z</time>
      </trkpt>
      <trkpt lat="44.18492" lon="5.30265">
        <ele>807.5</ele>
        <time>2026-05-14T14:21:07.000Z</time>
      </trkpt>
      <trkpt lat="44.18491" lon="5.30265">
        <ele>808.1</ele>
        <time>2026-05-14T14:21:08.000Z</time>
      </trkpt>
      <trkpt lat="44.18491" lon="5.30266">
        <ele>808.4</ele>
        <time>2026-05-14T14:21:09.000Z</time>
      </trkpt>
      <trkpt lat="44.18491" lon="5.30267">
        <ele>808.9</ele>
        <time>2026-05-14T14:21:10.000Z</time>
      </trkpt>
      <trkpt lat="44.18491" lon="5.30268">
        <ele>809.4</ele>
        <time>2026-05-14T14:21:11.000Z</time>
      </trkpt>
      <trkpt lat="44.1849" lon="5.3027">
        <ele>809.8</ele>
        <time>2026-05-14T14:21:12.000Z</time>
      </trkpt>
      <trkpt lat="44.18489" lon="5.30271">
        <ele>809.6</ele>
        <time>2026-05-14T14:21:13.000Z</time>
      </trkpt>
      <trkpt lat="44.18488" lon="5.30273">
        <ele>809</ele>
        <time>2026-05-14T14:21:14.000Z</time>
      </trkpt>
      <trkpt lat="44.18486" lon="5.30273">
        <ele>809.3</ele>
        <time>2026-05-14T14:21:15.000Z</time>
      </trkpt>
      <trkpt lat="44.18485" lon="5.30273">
        <ele>809</ele>
        <time>2026-05-14T14:21:16.000Z</time>
      </trkpt>
      <trkpt lat="44.18485" lon="5.30273">
        <ele>808.8</ele>
        <time>2026-05-14T14:21:17.000Z</time>
      </trkpt>
      <trkpt lat="44.18484" lon="5.30272">
        <ele>808.3</ele>
        <time>2026-05-14T14:21:18.000Z</time>
      </trkpt>
      <trkpt lat="44.18482" lon="5.30272">
        <ele>807.6</ele>
        <time>2026-05-14T14:21:19.000Z</time>
      </trkpt>
      <trkpt lat="44.18481" lon="5.30272">
        <ele>807.4</ele>
        <time>2026-05-14T14:21:20.000Z</time>
      </trkpt>
      <trkpt lat="44.1848" lon="5.30272">
        <ele>807</ele>
        <time>2026-05-14T14:21:21.000Z</time>
      </trkpt>
      <trkpt lat="44.18479" lon="5.30273">
        <ele>806.7</ele>
        <time>2026-05-14T14:21:22.000Z</time>
      </trkpt>
      <trkpt lat="44.18478" lon="5.30275">
        <ele>806.8</ele>
        <time>2026-05-14T14:21:23.000Z</time>
      </trkpt>
      <trkpt lat="44.18478" lon="5.30276">
        <ele>806.7</ele>
        <time>2026-05-14T14:21:24.000Z</time>
      </trkpt>
      <trkpt lat="44.18477" lon="5.30277">
        <ele>806.9</ele>
        <time>2026-05-14T14:21:25.000Z</time>
      </trkpt>
      <trkpt lat="44.18477" lon="5.30279">
        <ele>807</ele>
        <time>2026-05-14T14:21:26.000Z</time>
      </trkpt>
      <trkpt lat="44.18476" lon="5.3028">
        <ele>807.2</ele>
        <time>2026-05-14T14:21:27.000Z</time>
      </trkpt>
      <trkpt lat="44.18475" lon="5.3028">
        <ele>807.3</ele>
        <time>2026-05-14T14:21:28.000Z</time>
      </trkpt>
      <trkpt lat="44.18474" lon="5.3028">
        <ele>807.5</ele>
        <time>2026-05-14T14:21:29.000Z</time>
      </trkpt>
      <trkpt lat="44.18474" lon="5.3028">
        <ele>807.5</ele>
        <time>2026-05-14T14:21:30.000Z</time>
      </trkpt>
      <trkpt lat="44.18473" lon="5.30281">
        <ele>807.4</ele>
        <time>2026-05-14T14:21:31.000Z</time>
      </trkpt>
      <trkpt lat="44.18471" lon="5.3028">
        <ele>807.2</ele>
        <time>2026-05-14T14:21:32.000Z</time>
      </trkpt>
      <trkpt lat="44.18469" lon="5.30281">
        <ele>807.1</ele>
        <time>2026-05-14T14:21:33.000Z</time>
      </trkpt>
      <trkpt lat="44.18467" lon="5.30281">
        <ele>807</ele>
        <time>2026-05-14T14:21:34.000Z</time>
      </trkpt>
      <trkpt lat="44.18465" lon="5.30281">
        <ele>807</ele>
        <time>2026-05-14T14:21:35.000Z</time>
      </trkpt>
      <trkpt lat="44.18464" lon="5.30281">
        <ele>807.1</ele>
        <time>2026-05-14T14:21:36.000Z</time>
      </trkpt>
      <trkpt lat="44.18463" lon="5.30281">
        <ele>806.9</ele>
        <time>2026-05-14T14:21:37.000Z</time>
      </trkpt>
      <trkpt lat="44.18463" lon="5.30281">
        <ele>807.3</ele>
        <time>2026-05-14T14:21:38.000Z</time>
      </trkpt>
      <trkpt lat="44.18462" lon="5.30281">
        <ele>807.4</ele>
        <time>2026-05-14T14:21:39.000Z</time>
      </trkpt>
      <trkpt lat="44.18462" lon="5.30282">
        <ele>807.2</ele>
        <time>2026-05-14T14:21:40.000Z</time>
      </trkpt>
      <trkpt lat="44.18462" lon="5.30282">
        <ele>806.6</ele>
        <time>2026-05-14T14:21:41.000Z</time>
      </trkpt>
      <trkpt lat="44.18462" lon="5.30282">
        <ele>806.4</ele>
        <time>2026-05-14T14:21:42.000Z</time>
      </trkpt>
      <trkpt lat="44.18461" lon="5.30283">
        <ele>806.3</ele>
        <time>2026-05-14T14:21:43.000Z</time>
      </trkpt>
      <trkpt lat="44.1846" lon="5.30284">
        <ele>806.5</ele>
        <time>2026-05-14T14:21:44.000Z</time>
      </trkpt>
      <trkpt lat="44.18459" lon="5.30285">
        <ele>806.4</ele>
        <time>2026-05-14T14:21:45.000Z</time>
      </trkpt>
      <trkpt lat="44.18458" lon="5.30285">
        <ele>806.1</ele>
        <time>2026-05-14T14:21:46.000Z</time>
      </trkpt>
      <trkpt lat="44.18457" lon="5.30285">
        <ele>805.9</ele>
        <time>2026-05-14T14:21:47.000Z</time>
      </trkpt>
      <trkpt lat="44.18457" lon="5.30287">
        <ele>806</ele>
        <time>2026-05-14T14:21:48.000Z</time>
      </trkpt>
      <trkpt lat="44.18457" lon="5.30287">
        <ele>806.4</ele>
        <time>2026-05-14T14:21:49.000Z</time>
      </trkpt>
      <trkpt lat="44.18456" lon="5.30287">
        <ele>806.2</ele>
        <time>2026-05-14T14:21:50.000Z</time>
      </trkpt>
      <trkpt lat="44.18455" lon="5.30288">
        <ele>805.8</ele>
        <time>2026-05-14T14:21:51.000Z</time>
      </trkpt>
      <trkpt lat="44.18454" lon="5.30289">
        <ele>805.7</ele>
        <time>2026-05-14T14:21:52.000Z</time>
      </trkpt>
      <trkpt lat="44.18453" lon="5.30289">
        <ele>805.4</ele>
        <time>2026-05-14T14:21:53.000Z</time>
      </trkpt>
      <trkpt lat="44.18453" lon="5.30289">
        <ele>805.3</ele>
        <time>2026-05-14T14:21:54.000Z</time>
      </trkpt>
      <trkpt lat="44.18452" lon="5.3029">
        <ele>805.4</ele>
        <time>2026-05-14T14:21:55.000Z</time>
      </trkpt>
      <trkpt lat="44.18452" lon="5.3029">
        <ele>805.1</ele>
        <time>2026-05-14T14:21:56.000Z</time>
      </trkpt>
      <trkpt lat="44.18451" lon="5.3029">
        <ele>804.9</ele>
        <time>2026-05-14T14:21:57.000Z</time>
      </trkpt>
      <trkpt lat="44.1845" lon="5.30292">
        <ele>804.7</ele>
        <time>2026-05-14T14:21:58.000Z</time>
      </trkpt>
      <trkpt lat="44.18448" lon="5.30293">
        <ele>804.9</ele>
        <time>2026-05-14T14:21:59.000Z</time>
      </trkpt>
      <trkpt lat="44.18447" lon="5.30294">
        <ele>804.9</ele>
        <time>2026-05-14T14:22:00.000Z</time>
      </trkpt>
      <trkpt lat="44.18446" lon="5.30294">
        <ele>804.9</ele>
        <time>2026-05-14T14:22:01.000Z</time>
      </trkpt>
      <trkpt lat="44.18446" lon="5.30295">
        <ele>804.6</ele>
        <time>2026-05-14T14:22:02.000Z</time>
      </trkpt>
      <trkpt lat="44.18445" lon="5.30296">
        <ele>804.3</ele>
        <time>2026-05-14T14:22:03.000Z</time>
      </trkpt>
      <trkpt lat="44.18444" lon="5.30297">
        <ele>804.1</ele>
        <time>2026-05-14T14:22:04.000Z</time>
      </trkpt>
      <trkpt lat="44.18443" lon="5.30297">
        <ele>803.9</ele>
        <time>2026-05-14T14:22:05.000Z</time>
      </trkpt>
      <trkpt lat="44.18442" lon="5.30297">
        <ele>804.2</ele>
        <time>2026-05-14T14:22:06.000Z</time>
      </trkpt>
      <trkpt lat="44.18441" lon="5.30297">
        <ele>804</ele>
        <time>2026-05-14T14:22:07.000Z</time>
      </trkpt>
      <trkpt lat="44.1844" lon="5.30297">
        <ele>803.9</ele>
        <time>2026-05-14T14:22:08.000Z</time>
      </trkpt>
      <trkpt lat="44.18438" lon="5.30297">
        <ele>803.8</ele>
        <time>2026-05-14T14:22:09.000Z</time>
      </trkpt>
      <trkpt lat="44.18437" lon="5.30297">
        <ele>803.9</ele>
        <time>2026-05-14T14:22:10.000Z</time>
      </trkpt>
      <trkpt lat="44.18435" lon="5.30297">
        <ele>803.9</ele>
        <time>2026-05-14T14:22:11.000Z</time>
      </trkpt>
      <trkpt lat="44.18434" lon="5.30297">
        <ele>803.8</ele>
        <time>2026-05-14T14:22:12.000Z</time>
      </trkpt>
      <trkpt lat="44.18433" lon="5.30297">
        <ele>803.6</ele>
        <time>2026-05-14T14:22:13.000Z</time>
      </trkpt>
      <trkpt lat="44.18432" lon="5.30297">
        <ele>803.7</ele>
        <time>2026-05-14T14:22:14.000Z</time>
      </trkpt>
      <trkpt lat="44.18431" lon="5.30298">
        <ele>803.8</ele>
        <time>2026-05-14T14:22:15.000Z</time>
      </trkpt>
      <trkpt lat="44.18431" lon="5.30299">
        <ele>803.8</ele>
        <time>2026-05-14T14:22:16.000Z</time>
      </trkpt>
      <trkpt lat="44.18431" lon="5.303">
        <ele>803.8</ele>
        <time>2026-05-14T14:22:17.000Z</time>
      </trkpt>
      <trkpt lat="44.1843" lon="5.303">
        <ele>803.8</ele>
        <time>2026-05-14T14:22:18.000Z</time>
      </trkpt>
      <trkpt lat="44.18429" lon="5.30301">
        <ele>803.8</ele>
        <time>2026-05-14T14:22:19.000Z</time>
      </trkpt>
      <trkpt lat="44.18429" lon="5.30301">
        <ele>803.5</ele>
        <time>2026-05-14T14:22:20.000Z</time>
      </trkpt>
      <trkpt lat="44.18428" lon="5.30301">
        <ele>803.3</ele>
        <time>2026-05-14T14:22:21.000Z</time>
      </trkpt>
      <trkpt lat="44.18427" lon="5.303">
        <ele>803.4</ele>
        <time>2026-05-14T14:22:22.000Z</time>
      </trkpt>
      <trkpt lat="44.18426" lon="5.303">
        <ele>803.7</ele>
        <time>2026-05-14T14:22:23.000Z</time>
      </trkpt>
      <trkpt lat="44.18426" lon="5.30299">
        <ele>803.8</ele>
        <time>2026-05-14T14:22:24.000Z</time>
      </trkpt>
      <trkpt lat="44.18425" lon="5.30298">
        <ele>803.6</ele>
        <time>2026-05-14T14:22:25.000Z</time>
      </trkpt>
      <trkpt lat="44.18424" lon="5.30298">
        <ele>803.8</ele>
        <time>2026-05-14T14:22:26.000Z</time>
      </trkpt>
      <trkpt lat="44.18424" lon="5.30298">
        <ele>803.7</ele>
        <time>2026-05-14T14:22:27.000Z</time>
      </trkpt>
      <trkpt lat="44.18424" lon="5.30299">
        <ele>803.5</ele>
        <time>2026-05-14T14:22:28.000Z</time>
      </trkpt>
      <trkpt lat="44.18422" lon="5.30299">
        <ele>803.1</ele>
        <time>2026-05-14T14:22:29.000Z</time>
      </trkpt>
      <trkpt lat="44.18421" lon="5.30299">
        <ele>802.9</ele>
        <time>2026-05-14T14:22:30.000Z</time>
      </trkpt>
      <trkpt lat="44.1842" lon="5.30298">
        <ele>802.8</ele>
        <time>2026-05-14T14:22:31.000Z</time>
      </trkpt>
      <trkpt lat="44.18419" lon="5.30298">
        <ele>802.5</ele>
        <time>2026-05-14T14:22:32.000Z</time>
      </trkpt>
      <trkpt lat="44.18419" lon="5.30297">
        <ele>802.2</ele>
        <time>2026-05-14T14:22:33.000Z</time>
      </trkpt>
      <trkpt lat="44.18418" lon="5.30298">
        <ele>802.2</ele>
        <time>2026-05-14T14:22:34.000Z</time>
      </trkpt>
      <trkpt lat="44.18417" lon="5.30297">
        <ele>802.1</ele>
        <time>2026-05-14T14:22:35.000Z</time>
      </trkpt>
      <trkpt lat="44.18416" lon="5.30297">
        <ele>801.8</ele>
        <time>2026-05-14T14:22:36.000Z</time>
      </trkpt>
      <trkpt lat="44.18415" lon="5.30296">
        <ele>802</ele>
        <time>2026-05-14T14:22:37.000Z</time>
      </trkpt>
      <trkpt lat="44.18415" lon="5.30295">
        <ele>801.9</ele>
        <time>2026-05-14T14:22:38.000Z</time>
      </trkpt>
      <trkpt lat="44.18414" lon="5.30294">
        <ele>801.9</ele>
        <time>2026-05-14T14:22:39.000Z</time>
      </trkpt>
      <trkpt lat="44.18412" lon="5.30294">
        <ele>801.9</ele>
        <time>2026-05-14T14:22:40.000Z</time>
      </trkpt>
      <trkpt lat="44.18411" lon="5.30292">
        <ele>802.6</ele>
        <time>2026-05-14T14:22:41.000Z</time>
      </trkpt>
      <trkpt lat="44.1841" lon="5.30291">
        <ele>802.5</ele>
        <time>2026-05-14T14:22:42.000Z</time>
      </trkpt>
      <trkpt lat="44.18408" lon="5.30291">
        <ele>802.3</ele>
        <time>2026-05-14T14:22:43.000Z</time>
      </trkpt>
      <trkpt lat="44.18407" lon="5.30291">
        <ele>801.9</ele>
        <time>2026-05-14T14:22:44.000Z</time>
      </trkpt>
      <trkpt lat="44.18407" lon="5.30291">
        <ele>801.7</ele>
        <time>2026-05-14T14:22:45.000Z</time>
      </trkpt>
      <trkpt lat="44.18405" lon="5.3029">
        <ele>801.7</ele>
        <time>2026-05-14T14:22:46.000Z</time>
      </trkpt>
      <trkpt lat="44.18404" lon="5.30289">
        <ele>802.1</ele>
        <time>2026-05-14T14:22:47.000Z</time>
      </trkpt>
      <trkpt lat="44.18403" lon="5.30288">
        <ele>802.2</ele>
        <time>2026-05-14T14:22:48.000Z</time>
      </trkpt>
      <trkpt lat="44.18403" lon="5.30287">
        <ele>802.2</ele>
        <time>2026-05-14T14:22:49.000Z</time>
      </trkpt>
      <trkpt lat="44.18402" lon="5.30286">
        <ele>801.5</ele>
        <time>2026-05-14T14:22:50.000Z</time>
      </trkpt>
      <trkpt lat="44.18401" lon="5.30286">
        <ele>800.9</ele>
        <time>2026-05-14T14:22:51.000Z</time>
      </trkpt>
      <trkpt lat="44.184" lon="5.30285">
        <ele>800.8</ele>
        <time>2026-05-14T14:22:52.000Z</time>
      </trkpt>
      <trkpt lat="44.18399" lon="5.30284">
        <ele>800.6</ele>
        <time>2026-05-14T14:22:53.000Z</time>
      </trkpt>
      <trkpt lat="44.18398" lon="5.30283">
        <ele>799.7</ele>
        <time>2026-05-14T14:22:54.000Z</time>
      </trkpt>
      <trkpt lat="44.18398" lon="5.30283">
        <ele>800.4</ele>
        <time>2026-05-14T14:22:55.000Z</time>
      </trkpt>
      <trkpt lat="44.18398" lon="5.30283">
        <ele>800.1</ele>
        <time>2026-05-14T14:22:56.000Z</time>
      </trkpt>
      <trkpt lat="44.18396" lon="5.30283">
        <ele>799.7</ele>
        <time>2026-05-14T14:22:57.000Z</time>
      </trkpt>
      <trkpt lat="44.18395" lon="5.30284">
        <ele>799.7</ele>
        <time>2026-05-14T14:22:58.000Z</time>
      </trkpt>
      <trkpt lat="44.18393" lon="5.30284">
        <ele>799.7</ele>
        <time>2026-05-14T14:22:59.000Z</time>
      </trkpt>
      <trkpt lat="44.18391" lon="5.30284">
        <ele>799.6</ele>
        <time>2026-05-14T14:23:00.000Z</time>
      </trkpt>
      <trkpt lat="44.18391" lon="5.30283">
        <ele>800</ele>
        <time>2026-05-14T14:23:01.000Z</time>
      </trkpt>
      <trkpt lat="44.18389" lon="5.30282">
        <ele>800</ele>
        <time>2026-05-14T14:23:02.000Z</time>
      </trkpt>
      <trkpt lat="44.18387" lon="5.30282">
        <ele>800.2</ele>
        <time>2026-05-14T14:23:03.000Z</time>
      </trkpt>
      <trkpt lat="44.18386" lon="5.30281">
        <ele>800.3</ele>
        <time>2026-05-14T14:23:04.000Z</time>
      </trkpt>
      <trkpt lat="44.18385" lon="5.30282">
        <ele>800.3</ele>
        <time>2026-05-14T14:23:05.000Z</time>
      </trkpt>
      <trkpt lat="44.18384" lon="5.30282">
        <ele>800.3</ele>
        <time>2026-05-14T14:23:06.000Z</time>
      </trkpt>
      <trkpt lat="44.18383" lon="5.30282">
        <ele>800.3</ele>
        <time>2026-05-14T14:23:07.000Z</time>
      </trkpt>
      <trkpt lat="44.18383" lon="5.30282">
        <ele>800.5</ele>
        <time>2026-05-14T14:23:08.000Z</time>
      </trkpt>
      <trkpt lat="44.18383" lon="5.30282">
        <ele>800.4</ele>
        <time>2026-05-14T14:23:09.000Z</time>
      </trkpt>
      <trkpt lat="44.18383" lon="5.30282">
        <ele>800.3</ele>
        <time>2026-05-14T14:23:10.000Z</time>
      </trkpt>
      <trkpt lat="44.18383" lon="5.30282">
        <ele>800.3</ele>
        <time>2026-05-14T14:23:11.000Z</time>
      </trkpt>
      <trkpt lat="44.18383" lon="5.30282">
        <ele>800.3</ele>
        <time>2026-05-14T14:23:12.000Z</time>
      </trkpt>
      <trkpt lat="44.18381" lon="5.30282">
        <ele>800.1</ele>
        <time>2026-05-14T14:23:13.000Z</time>
      </trkpt>
      <trkpt lat="44.18381" lon="5.30282">
        <ele>800.2</ele>
        <time>2026-05-14T14:23:14.000Z</time>
      </trkpt>
      <trkpt lat="44.18381" lon="5.30283">
        <ele>800</ele>
        <time>2026-05-14T14:23:15.000Z</time>
      </trkpt>
      <trkpt lat="44.1838" lon="5.30283">
        <ele>800</ele>
        <time>2026-05-14T14:23:16.000Z</time>
      </trkpt>
      <trkpt lat="44.1838" lon="5.30283">
        <ele>799.9</ele>
        <time>2026-05-14T14:23:17.000Z</time>
      </trkpt>
      <trkpt lat="44.1838" lon="5.30283">
        <ele>800.2</ele>
        <time>2026-05-14T14:23:18.000Z</time>
      </trkpt>
      <trkpt lat="44.18379" lon="5.30282">
        <ele>800.3</ele>
        <time>2026-05-14T14:23:19.000Z</time>
      </trkpt>
      <trkpt lat="44.18379" lon="5.30282">
        <ele>800.3</ele>
        <time>2026-05-14T14:23:20.000Z</time>
      </trkpt>
      <trkpt lat="44.18379" lon="5.30282">
        <ele>800.2</ele>
        <time>2026-05-14T14:23:21.000Z</time>
      </trkpt>
      <trkpt lat="44.18378" lon="5.30282">
        <ele>800.1</ele>
        <time>2026-05-14T14:23:22.000Z</time>
      </trkpt>
      <trkpt lat="44.18378" lon="5.30283">
        <ele>799.9</ele>
        <time>2026-05-14T14:23:23.000Z</time>
      </trkpt>
      <trkpt lat="44.18377" lon="5.30283">
        <ele>799.5</ele>
        <time>2026-05-14T14:23:24.000Z</time>
      </trkpt>
      <trkpt lat="44.18377" lon="5.30283">
        <ele>799.2</ele>
        <time>2026-05-14T14:23:25.000Z</time>
      </trkpt>
      <trkpt lat="44.18377" lon="5.30283">
        <ele>799.1</ele>
        <time>2026-05-14T14:23:26.000Z</time>
      </trkpt>
      <trkpt lat="44.18376" lon="5.30283">
        <ele>798.8</ele>
        <time>2026-05-14T14:23:27.000Z</time>
      </trkpt>
      <trkpt lat="44.18376" lon="5.30283">
        <ele>798.6</ele>
        <time>2026-05-14T14:23:28.000Z</time>
      </trkpt>
      <trkpt lat="44.18375" lon="5.30284">
        <ele>798.4</ele>
        <time>2026-05-14T14:23:29.000Z</time>
      </trkpt>
      <trkpt lat="44.18372" lon="5.30285">
        <ele>798.2</ele>
        <time>2026-05-14T14:23:30.000Z</time>
      </trkpt>
      <trkpt lat="44.1837" lon="5.30286">
        <ele>798</ele>
        <time>2026-05-14T14:23:31.000Z</time>
      </trkpt>
      <trkpt lat="44.18368" lon="5.30289">
        <ele>798.1</ele>
        <time>2026-05-14T14:23:32.000Z</time>
      </trkpt>
      <trkpt lat="44.18367" lon="5.3029">
        <ele>798.4</ele>
        <time>2026-05-14T14:23:33.000Z</time>
      </trkpt>
      <trkpt lat="44.18365" lon="5.30291">
        <ele>798.4</ele>
        <time>2026-05-14T14:23:34.000Z</time>
      </trkpt>
      <trkpt lat="44.18364" lon="5.30292">
        <ele>798.7</ele>
        <time>2026-05-14T14:23:35.000Z</time>
      </trkpt>
      <trkpt lat="44.18363" lon="5.30292">
        <ele>798.7</ele>
        <time>2026-05-14T14:23:36.000Z</time>
      </trkpt>
      <trkpt lat="44.18361" lon="5.30292">
        <ele>798.7</ele>
        <time>2026-05-14T14:23:37.000Z</time>
      </trkpt>
      <trkpt lat="44.1836" lon="5.30293">
        <ele>798.5</ele>
        <time>2026-05-14T14:23:38.000Z</time>
      </trkpt>
      <trkpt lat="44.18358" lon="5.30293">
        <ele>798.3</ele>
        <time>2026-05-14T14:23:39.000Z</time>
      </trkpt>
      <trkpt lat="44.18357" lon="5.30294">
        <ele>798</ele>
        <time>2026-05-14T14:23:40.000Z</time>
      </trkpt>
      <trkpt lat="44.18355" lon="5.30294">
        <ele>797.6</ele>
        <time>2026-05-14T14:23:41.000Z</time>
      </trkpt>
      <trkpt lat="44.18354" lon="5.30294">
        <ele>797.3</ele>
        <time>2026-05-14T14:23:42.000Z</time>
      </trkpt>
      <trkpt lat="44.18352" lon="5.30294">
        <ele>797</ele>
        <time>2026-05-14T14:23:43.000Z</time>
      </trkpt>
      <trkpt lat="44.18351" lon="5.30294">
        <ele>797.2</ele>
        <time>2026-05-14T14:23:44.000Z</time>
      </trkpt>
      <trkpt lat="44.1835" lon="5.30295">
        <ele>797</ele>
        <time>2026-05-14T14:23:45.000Z</time>
      </trkpt>
      <trkpt lat="44.18348" lon="5.30295">
        <ele>797.1</ele>
        <time>2026-05-14T14:23:46.000Z</time>
      </trkpt>
      <trkpt lat="44.18348" lon="5.30296">
        <ele>796.8</ele>
        <time>2026-05-14T14:23:47.000Z</time>
      </trkpt>
      <trkpt lat="44.18347" lon="5.30296">
        <ele>796.7</ele>
        <time>2026-05-14T14:23:48.000Z</time>
      </trkpt>
      <trkpt lat="44.18346" lon="5.30297">
        <ele>796.5</ele>
        <time>2026-05-14T14:23:49.000Z</time>
      </trkpt>
      <trkpt lat="44.18345" lon="5.30298">
        <ele>796.3</ele>
        <time>2026-05-14T14:23:50.000Z</time>
      </trkpt>
      <trkpt lat="44.18344" lon="5.30299">
        <ele>796</ele>
        <time>2026-05-14T14:23:51.000Z</time>
      </trkpt>
      <trkpt lat="44.18343" lon="5.303">
        <ele>796.2</ele>
        <time>2026-05-14T14:23:52.000Z</time>
      </trkpt>
      <trkpt lat="44.18342" lon="5.303">
        <ele>796.3</ele>
        <time>2026-05-14T14:23:53.000Z</time>
      </trkpt>
      <trkpt lat="44.18341" lon="5.30301">
        <ele>796.1</ele>
        <time>2026-05-14T14:23:54.000Z</time>
      </trkpt>
      <trkpt lat="44.1834" lon="5.30301">
        <ele>796</ele>
        <time>2026-05-14T14:23:55.000Z</time>
      </trkpt>
      <trkpt lat="44.18339" lon="5.30303">
        <ele>795.9</ele>
        <time>2026-05-14T14:23:56.000Z</time>
      </trkpt>
      <trkpt lat="44.18337" lon="5.30305">
        <ele>795.7</ele>
        <time>2026-05-14T14:23:57.000Z</time>
      </trkpt>
      <trkpt lat="44.18337" lon="5.30306">
        <ele>795.5</ele>
        <time>2026-05-14T14:23:58.000Z</time>
      </trkpt>
      <trkpt lat="44.18336" lon="5.30306">
        <ele>795.4</ele>
        <time>2026-05-14T14:23:59.000Z</time>
      </trkpt>
      <trkpt lat="44.18335" lon="5.30306">
        <ele>795.5</ele>
        <time>2026-05-14T14:24:00.000Z</time>
      </trkpt>
      <trkpt lat="44.18335" lon="5.30306">
        <ele>795.7</ele>
        <time>2026-05-14T14:24:01.000Z</time>
      </trkpt>
      <trkpt lat="44.18334" lon="5.30307">
        <ele>795.8</ele>
        <time>2026-05-14T14:24:02.000Z</time>
      </trkpt>
      <trkpt lat="44.18333" lon="5.30308">
        <ele>795.5</ele>
        <time>2026-05-14T14:24:03.000Z</time>
      </trkpt>
      <trkpt lat="44.18332" lon="5.30308">
        <ele>795.1</ele>
        <time>2026-05-14T14:24:04.000Z</time>
      </trkpt>
      <trkpt lat="44.18331" lon="5.30309">
        <ele>795.2</ele>
        <time>2026-05-14T14:24:05.000Z</time>
      </trkpt>
      <trkpt lat="44.1833" lon="5.30308">
        <ele>795.2</ele>
        <time>2026-05-14T14:24:06.000Z</time>
      </trkpt>
      <trkpt lat="44.18328" lon="5.30308">
        <ele>795.2</ele>
        <time>2026-05-14T14:24:07.000Z</time>
      </trkpt>
      <trkpt lat="44.18327" lon="5.30307">
        <ele>795.1</ele>
        <time>2026-05-14T14:24:08.000Z</time>
      </trkpt>
      <trkpt lat="44.18326" lon="5.30307">
        <ele>795.3</ele>
        <time>2026-05-14T14:24:09.000Z</time>
      </trkpt>
      <trkpt lat="44.18326" lon="5.30307">
        <ele>795.6</ele>
        <time>2026-05-14T14:24:10.000Z</time>
      </trkpt>
      <trkpt lat="44.18325" lon="5.30307">
        <ele>795.6</ele>
        <time>2026-05-14T14:24:11.000Z</time>
      </trkpt>
      <trkpt lat="44.18323" lon="5.30307">
        <ele>795.4</ele>
        <time>2026-05-14T14:24:12.000Z</time>
      </trkpt>
      <trkpt lat="44.18321" lon="5.30306">
        <ele>794.9</ele>
        <time>2026-05-14T14:24:13.000Z</time>
      </trkpt>
      <trkpt lat="44.18319" lon="5.30304">
        <ele>795.5</ele>
        <time>2026-05-14T14:24:14.000Z</time>
      </trkpt>
      <trkpt lat="44.18317" lon="5.30303">
        <ele>795.6</ele>
        <time>2026-05-14T14:24:15.000Z</time>
      </trkpt>
      <trkpt lat="44.18316" lon="5.30301">
        <ele>795.7</ele>
        <time>2026-05-14T14:24:16.000Z</time>
      </trkpt>
      <trkpt lat="44.18314" lon="5.30301">
        <ele>795.6</ele>
        <time>2026-05-14T14:24:17.000Z</time>
      </trkpt>
      <trkpt lat="44.18313" lon="5.303">
        <ele>795.6</ele>
        <time>2026-05-14T14:24:18.000Z</time>
      </trkpt>
      <trkpt lat="44.18312" lon="5.303">
        <ele>795.3</ele>
        <time>2026-05-14T14:24:19.000Z</time>
      </trkpt>
      <trkpt lat="44.18311" lon="5.303">
        <ele>795.3</ele>
        <time>2026-05-14T14:24:20.000Z</time>
      </trkpt>
      <trkpt lat="44.1831" lon="5.30299">
        <ele>794.9</ele>
        <time>2026-05-14T14:24:21.000Z</time>
      </trkpt>
      <trkpt lat="44.18309" lon="5.30297">
        <ele>794.7</ele>
        <time>2026-05-14T14:24:22.000Z</time>
      </trkpt>
      <trkpt lat="44.18308" lon="5.30296">
        <ele>794.8</ele>
        <time>2026-05-14T14:24:23.000Z</time>
      </trkpt>
      <trkpt lat="44.18307" lon="5.30295">
        <ele>795</ele>
        <time>2026-05-14T14:24:24.000Z</time>
      </trkpt>
      <trkpt lat="44.18306" lon="5.30294">
        <ele>794.7</ele>
        <time>2026-05-14T14:24:25.000Z</time>
      </trkpt>
      <trkpt lat="44.18307" lon="5.30293">
        <ele>794.2</ele>
        <time>2026-05-14T14:24:26.000Z</time>
      </trkpt>
      <trkpt lat="44.18307" lon="5.30291">
        <ele>793.6</ele>
        <time>2026-05-14T14:24:27.000Z</time>
      </trkpt>
      <trkpt lat="44.18306" lon="5.30291">
        <ele>793.4</ele>
        <time>2026-05-14T14:24:28.000Z</time>
      </trkpt>
      <trkpt lat="44.18306" lon="5.30289">
        <ele>793.6</ele>
        <time>2026-05-14T14:24:29.000Z</time>
      </trkpt>
      <trkpt lat="44.18305" lon="5.30289">
        <ele>793.4</ele>
        <time>2026-05-14T14:24:30.000Z</time>
      </trkpt>
      <trkpt lat="44.18303" lon="5.30288">
        <ele>793.3</ele>
        <time>2026-05-14T14:24:31.000Z</time>
      </trkpt>
      <trkpt lat="44.18302" lon="5.30288">
        <ele>793.1</ele>
        <time>2026-05-14T14:24:32.000Z</time>
      </trkpt>
      <trkpt lat="44.18301" lon="5.30286">
        <ele>793.1</ele>
        <time>2026-05-14T14:24:33.000Z</time>
      </trkpt>
      <trkpt lat="44.18301" lon="5.30284">
        <ele>793.6</ele>
        <time>2026-05-14T14:24:34.000Z</time>
      </trkpt>
      <trkpt lat="44.18301" lon="5.30282">
        <ele>793.9</ele>
        <time>2026-05-14T14:24:35.000Z</time>
      </trkpt>
      <trkpt lat="44.18301" lon="5.3028">
        <ele>793.6</ele>
        <time>2026-05-14T14:24:36.000Z</time>
      </trkpt>
      <trkpt lat="44.183" lon="5.30278">
        <ele>793.3</ele>
        <time>2026-05-14T14:24:37.000Z</time>
      </trkpt>
      <trkpt lat="44.18299" lon="5.30275">
        <ele>792.9</ele>
        <time>2026-05-14T14:24:38.000Z</time>
      </trkpt>
      <trkpt lat="44.18298" lon="5.30277">
        <ele>792.5</ele>
        <time>2026-05-14T14:24:39.000Z</time>
      </trkpt>
      <trkpt lat="44.18298" lon="5.30277">
        <ele>792.7</ele>
        <time>2026-05-14T14:24:40.000Z</time>
      </trkpt>
      <trkpt lat="44.18298" lon="5.30276">
        <ele>793.1</ele>
        <time>2026-05-14T14:24:41.000Z</time>
      </trkpt>
      <trkpt lat="44.18296" lon="5.30275">
        <ele>792.5</ele>
        <time>2026-05-14T14:24:42.000Z</time>
      </trkpt>
      <trkpt lat="44.18294" lon="5.30275">
        <ele>792.2</ele>
        <time>2026-05-14T14:24:43.000Z</time>
      </trkpt>
      <trkpt lat="44.18293" lon="5.30276">
        <ele>792.1</ele>
        <time>2026-05-14T14:24:44.000Z</time>
      </trkpt>
      <trkpt lat="44.18292" lon="5.30276">
        <ele>792</ele>
        <time>2026-05-14T14:24:45.000Z</time>
      </trkpt>
      <trkpt lat="44.18291" lon="5.30277">
        <ele>792</ele>
        <time>2026-05-14T14:24:46.000Z</time>
      </trkpt>
      <trkpt lat="44.18291" lon="5.30278">
        <ele>792.3</ele>
        <time>2026-05-14T14:24:47.000Z</time>
      </trkpt>
      <trkpt lat="44.18291" lon="5.30278">
        <ele>792.3</ele>
        <time>2026-05-14T14:24:48.000Z</time>
      </trkpt>
      <trkpt lat="44.1829" lon="5.30279">
        <ele>792.3</ele>
        <time>2026-05-14T14:24:49.000Z</time>
      </trkpt>
      <trkpt lat="44.1829" lon="5.3028">
        <ele>792.4</ele>
        <time>2026-05-14T14:24:50.000Z</time>
      </trkpt>
      <trkpt lat="44.1829" lon="5.30282">
        <ele>792.7</ele>
        <time>2026-05-14T14:24:51.000Z</time>
      </trkpt>
      <trkpt lat="44.1829" lon="5.30283">
        <ele>793.4</ele>
        <time>2026-05-14T14:24:52.000Z</time>
      </trkpt>
      <trkpt lat="44.18291" lon="5.30284">
        <ele>793.7</ele>
        <time>2026-05-14T14:24:53.000Z</time>
      </trkpt>
      <trkpt lat="44.1829" lon="5.30284">
        <ele>794.2</ele>
        <time>2026-05-14T14:24:54.000Z</time>
      </trkpt>
      <trkpt lat="44.1829" lon="5.30285">
        <ele>794.2</ele>
        <time>2026-05-14T14:24:55.000Z</time>
      </trkpt>
      <trkpt lat="44.18291" lon="5.30287">
        <ele>794</ele>
        <time>2026-05-14T14:24:56.000Z</time>
      </trkpt>
      <trkpt lat="44.18291" lon="5.30288">
        <ele>793.7</ele>
        <time>2026-05-14T14:24:57.000Z</time>
      </trkpt>
      <trkpt lat="44.18291" lon="5.30288">
        <ele>793.4</ele>
        <time>2026-05-14T14:24:58.000Z</time>
      </trkpt>
      <trkpt lat="44.18292" lon="5.3029">
        <ele>793.6</ele>
        <time>2026-05-14T14:24:59.000Z</time>
      </trkpt>
      <trkpt lat="44.18293" lon="5.30293">
        <ele>793.7</ele>
        <time>2026-05-14T14:25:00.000Z</time>
      </trkpt>
      <trkpt lat="44.18293" lon="5.30296">
        <ele>793.9</ele>
        <time>2026-05-14T14:25:01.000Z</time>
      </trkpt>
      <trkpt lat="44.18293" lon="5.30297">
        <ele>793.7</ele>
        <time>2026-05-14T14:25:02.000Z</time>
      </trkpt>
      <trkpt lat="44.18294" lon="5.303">
        <ele>793.6</ele>
        <time>2026-05-14T14:25:03.000Z</time>
      </trkpt>
      <trkpt lat="44.18294" lon="5.30301">
        <ele>793.2</ele>
        <time>2026-05-14T14:25:04.000Z</time>
      </trkpt>
      <trkpt lat="44.18294" lon="5.30302">
        <ele>792.7</ele>
        <time>2026-05-14T14:25:05.000Z</time>
      </trkpt>
      <trkpt lat="44.18294" lon="5.30304">
        <ele>792.4</ele>
        <time>2026-05-14T14:25:06.000Z</time>
      </trkpt>
      <trkpt lat="44.18294" lon="5.30305">
        <ele>792.4</ele>
        <time>2026-05-14T14:25:07.000Z</time>
      </trkpt>
      <trkpt lat="44.18294" lon="5.30306">
        <ele>792.1</ele>
        <time>2026-05-14T14:25:08.000Z</time>
      </trkpt>
      <trkpt lat="44.18294" lon="5.30307">
        <ele>791.8</ele>
        <time>2026-05-14T14:25:09.000Z</time>
      </trkpt>
      <trkpt lat="44.18294" lon="5.30308">
        <ele>791.6</ele>
        <time>2026-05-14T14:25:10.000Z</time>
      </trkpt>
      <trkpt lat="44.18294" lon="5.3031">
        <ele>791.6</ele>
        <time>2026-05-14T14:25:11.000Z</time>
      </trkpt>
      <trkpt lat="44.18295" lon="5.30311">
        <ele>791.7</ele>
        <time>2026-05-14T14:25:12.000Z</time>
      </trkpt>
      <trkpt lat="44.18295" lon="5.30312">
        <ele>791.8</ele>
        <time>2026-05-14T14:25:13.000Z</time>
      </trkpt>
      <trkpt lat="44.18295" lon="5.30314">
        <ele>791.7</ele>
        <time>2026-05-14T14:25:14.000Z</time>
      </trkpt>
      <trkpt lat="44.18294" lon="5.30316">
        <ele>791.7</ele>
        <time>2026-05-14T14:25:15.000Z</time>
      </trkpt>
      <trkpt lat="44.18295" lon="5.30318">
        <ele>791.6</ele>
        <time>2026-05-14T14:25:16.000Z</time>
      </trkpt>
      <trkpt lat="44.18295" lon="5.30321">
        <ele>792</ele>
        <time>2026-05-14T14:25:17.000Z</time>
      </trkpt>
      <trkpt lat="44.18296" lon="5.30323">
        <ele>792.7</ele>
        <time>2026-05-14T14:25:18.000Z</time>
      </trkpt>
      <trkpt lat="44.18296" lon="5.30324">
        <ele>792.8</ele>
        <time>2026-05-14T14:25:19.000Z</time>
      </trkpt>
      <trkpt lat="44.18296" lon="5.30325">
        <ele>792.4</ele>
        <time>2026-05-14T14:25:20.000Z</time>
      </trkpt>
      <trkpt lat="44.18296" lon="5.30326">
        <ele>792.3</ele>
        <time>2026-05-14T14:25:21.000Z</time>
      </trkpt>
      <trkpt lat="44.18297" lon="5.30327">
        <ele>792.6</ele>
        <time>2026-05-14T14:25:22.000Z</time>
      </trkpt>
      <trkpt lat="44.18298" lon="5.30327">
        <ele>792.5</ele>
        <time>2026-05-14T14:25:23.000Z</time>
      </trkpt>
      <trkpt lat="44.18298" lon="5.30327">
        <ele>792.7</ele>
        <time>2026-05-14T14:25:24.000Z</time>
      </trkpt>
      <trkpt lat="44.18299" lon="5.30327">
        <ele>792.9</ele>
        <time>2026-05-14T14:25:25.000Z</time>
      </trkpt>
      <trkpt lat="44.18299" lon="5.30327">
        <ele>793.3</ele>
        <time>2026-05-14T14:25:26.000Z</time>
      </trkpt>
      <trkpt lat="44.18299" lon="5.30328">
        <ele>793.3</ele>
        <time>2026-05-14T14:25:27.000Z</time>
      </trkpt>
      <trkpt lat="44.18299" lon="5.30327">
        <ele>793.2</ele>
        <time>2026-05-14T14:25:28.000Z</time>
      </trkpt>
      <trkpt lat="44.18299" lon="5.30327">
        <ele>793.3</ele>
        <time>2026-05-14T14:25:29.000Z</time>
      </trkpt>
      <trkpt lat="44.18299" lon="5.30327">
        <ele>793.2</ele>
        <time>2026-05-14T14:25:30.000Z</time>
      </trkpt>
      <trkpt lat="44.18299" lon="5.30327">
        <ele>793.1</ele>
        <time>2026-05-14T14:25:31.000Z</time>
      </trkpt>
      <trkpt lat="44.18299" lon="5.30327">
        <ele>793</ele>
        <time>2026-05-14T14:25:32.000Z</time>
      </trkpt>
      <trkpt lat="44.18299" lon="5.30327">
        <ele>793.2</ele>
        <time>2026-05-14T14:25:33.000Z</time>
      </trkpt>
      <trkpt lat="44.18299" lon="5.30327">
        <ele>793.3</ele>
        <time>2026-05-14T14:25:34.000Z</time>
      </trkpt>
      <trkpt lat="44.18299" lon="5.30328">
        <ele>793.2</ele>
        <time>2026-05-14T14:25:35.000Z</time>
      </trkpt>
      <trkpt lat="44.18299" lon="5.30328">
        <ele>793.2</ele>
        <time>2026-05-14T14:25:36.000Z</time>
      </trkpt>
      <trkpt lat="44.18299" lon="5.30328">
        <ele>793.5</ele>
        <time>2026-05-14T14:25:37.000Z</time>
      </trkpt>
      <trkpt lat="44.18299" lon="5.30328">
        <ele>793.7</ele>
        <time>2026-05-14T14:25:38.000Z</time>
      </trkpt>
      <trkpt lat="44.18299" lon="5.30327">
        <ele>794</ele>
        <time>2026-05-14T14:25:39.000Z</time>
      </trkpt>
      <trkpt lat="44.18299" lon="5.30327">
        <ele>793.9</ele>
        <time>2026-05-14T14:25:40.000Z</time>
      </trkpt>
      <trkpt lat="44.18299" lon="5.30327">
        <ele>793.7</ele>
        <time>2026-05-14T14:25:41.000Z</time>
      </trkpt>
      <trkpt lat="44.18299" lon="5.30327">
        <ele>793.5</ele>
        <time>2026-05-14T14:25:42.000Z</time>
      </trkpt>
      <trkpt lat="44.18299" lon="5.30327">
        <ele>793.4</ele>
        <time>2026-05-14T14:25:43.000Z</time>
      </trkpt>
      <trkpt lat="44.18299" lon="5.30327">
        <ele>793.1</ele>
        <time>2026-05-14T14:25:44.000Z</time>
      </trkpt>
      <trkpt lat="44.18299" lon="5.30327">
        <ele>792.7</ele>
        <time>2026-05-14T14:25:45.000Z</time>
      </trkpt>
      <trkpt lat="44.18299" lon="5.30327">
        <ele>792.4</ele>
        <time>2026-05-14T14:25:46.000Z</time>
      </trkpt>
      <trkpt lat="44.18299" lon="5.30327">
        <ele>792.2</ele>
        <time>2026-05-14T14:25:47.000Z</time>
      </trkpt>
      <trkpt lat="44.18298" lon="5.30327">
        <ele>792.3</ele>
        <time>2026-05-14T14:25:48.000Z</time>
      </trkpt>
      <trkpt lat="44.18298" lon="5.30327">
        <ele>792.6</ele>
        <time>2026-05-14T14:25:49.000Z</time>
      </trkpt>
      <trkpt lat="44.18298" lon="5.30327">
        <ele>792.6</ele>
        <time>2026-05-14T14:25:50.000Z</time>
      </trkpt>
      <trkpt lat="44.18298" lon="5.30327">
        <ele>792.7</ele>
        <time>2026-05-14T14:25:51.000Z</time>
      </trkpt>
      <trkpt lat="44.18298" lon="5.30327">
        <ele>792.7</ele>
        <time>2026-05-14T14:25:52.000Z</time>
      </trkpt>
      <trkpt lat="44.18298" lon="5.30327">
        <ele>793.1</ele>
        <time>2026-05-14T14:25:53.000Z</time>
      </trkpt>
      <trkpt lat="44.18298" lon="5.30327">
        <ele>793.4</ele>
        <time>2026-05-14T14:25:54.000Z</time>
      </trkpt>
      <trkpt lat="44.18298" lon="5.30327">
        <ele>793.6</ele>
        <time>2026-05-14T14:25:55.000Z</time>
      </trkpt>
      <trkpt lat="44.18298" lon="5.30327">
        <ele>793.6</ele>
        <time>2026-05-14T14:25:56.000Z</time>
      </trkpt>
      <trkpt lat="44.18298" lon="5.30327">
        <ele>793.7</ele>
        <time>2026-05-14T14:25:57.000Z</time>
      </trkpt>
      <trkpt lat="44.18298" lon="5.30327">
        <ele>793.9</ele>
        <time>2026-05-14T14:25:58.000Z</time>
      </trkpt>
      <trkpt lat="44.18298" lon="5.30328">
        <ele>793.9</ele>
        <time>2026-05-14T14:25:59.000Z</time>
      </trkpt>
      <trkpt lat="44.18299" lon="5.30328">
        <ele>793.8</ele>
        <time>2026-05-14T14:26:00.000Z</time>
      </trkpt>
      <trkpt lat="44.18299" lon="5.30328">
        <ele>793.7</ele>
        <time>2026-05-14T14:26:01.000Z</time>
      </trkpt>
      <trkpt lat="44.18299" lon="5.30328">
        <ele>793.6</ele>
        <time>2026-05-14T14:26:02.000Z</time>
      </trkpt>
      <trkpt lat="44.18299" lon="5.30328">
        <ele>793.5</ele>
        <time>2026-05-14T14:26:03.000Z</time>
      </trkpt>
      <trkpt lat="44.18299" lon="5.30328">
        <ele>793.3</ele>
        <time>2026-05-14T14:26:04.000Z</time>
      </trkpt>
      <trkpt lat="44.18299" lon="5.30328">
        <ele>793.1</ele>
        <time>2026-05-14T14:26:05.000Z</time>
      </trkpt>
      <trkpt lat="44.18299" lon="5.30328">
        <ele>792.8</ele>
        <time>2026-05-14T14:26:06.000Z</time>
      </trkpt>
      <trkpt lat="44.18299" lon="5.30328">
        <ele>792.7</ele>
        <time>2026-05-14T14:26:07.000Z</time>
      </trkpt>
      <trkpt lat="44.18299" lon="5.30328">
        <ele>792.7</ele>
        <time>2026-05-14T14:26:08.000Z</time>
      </trkpt>
      <trkpt lat="44.18299" lon="5.30328">
        <ele>792.8</ele>
        <time>2026-05-14T14:26:09.000Z</time>
      </trkpt>
      <trkpt lat="44.18299" lon="5.30328">
        <ele>792.9</ele>
        <time>2026-05-14T14:26:10.000Z</time>
      </trkpt>
      <trkpt lat="44.18299" lon="5.30328">
        <ele>793</ele>
        <time>2026-05-14T14:26:11.000Z</time>
      </trkpt>
      <trkpt lat="44.18299" lon="5.30328">
        <ele>793</ele>
        <time>2026-05-14T14:26:12.000Z</time>
      </trkpt>
      <trkpt lat="44.18299" lon="5.30328">
        <ele>793</ele>
        <time>2026-05-14T14:26:13.000Z</time>
      </trkpt>
      <trkpt lat="44.18299" lon="5.30328">
        <ele>792.9</ele>
        <time>2026-05-14T14:26:14.000Z</time>
      </trkpt>
      <trkpt lat="44.18299" lon="5.30328">
        <ele>793.1</ele>
        <time>2026-05-14T14:26:15.000Z</time>
      </trkpt>
      <trkpt lat="44.18299" lon="5.30328">
        <ele>793.6</ele>
        <time>2026-05-14T14:26:16.000Z</time>
      </trkpt>
      <trkpt lat="44.18299" lon="5.30329">
        <ele>794</ele>
        <time>2026-05-14T14:26:17.000Z</time>
      </trkpt>
      <trkpt lat="44.18299" lon="5.30329">
        <ele>794.2</ele>
        <time>2026-05-14T14:26:18.000Z</time>
      </trkpt>
      <trkpt lat="44.18299" lon="5.30329">
        <ele>794.4</ele>
        <time>2026-05-14T14:26:19.000Z</time>
      </trkpt>
      <trkpt lat="44.18299" lon="5.30329">
        <ele>794.7</ele>
        <time>2026-05-14T14:26:20.000Z</time>
      </trkpt>
      <trkpt lat="44.18299" lon="5.30329">
        <ele>794.8</ele>
        <time>2026-05-14T14:26:21.000Z</time>
      </trkpt>
      <trkpt lat="44.18299" lon="5.30329">
        <ele>794.7</ele>
        <time>2026-05-14T14:26:22.000Z</time>
      </trkpt>
      <trkpt lat="44.18299" lon="5.30329">
        <ele>794.8</ele>
        <time>2026-05-14T14:26:23.000Z</time>
      </trkpt>
      <trkpt lat="44.18299" lon="5.30329">
        <ele>795</ele>
        <time>2026-05-14T14:26:24.000Z</time>
      </trkpt>
      <trkpt lat="44.18299" lon="5.30329">
        <ele>795.1</ele>
        <time>2026-05-14T14:26:25.000Z</time>
      </trkpt>
      <trkpt lat="44.18299" lon="5.30329">
        <ele>794.9</ele>
        <time>2026-05-14T14:26:26.000Z</time>
      </trkpt>
      <trkpt lat="44.18299" lon="5.30329">
        <ele>794.7</ele>
        <time>2026-05-14T14:26:27.000Z</time>
      </trkpt>
      <trkpt lat="44.18299" lon="5.30329">
        <ele>794.6</ele>
        <time>2026-05-14T14:26:28.000Z</time>
      </trkpt>
      <trkpt lat="44.18299" lon="5.30329">
        <ele>794.6</ele>
        <time>2026-05-14T14:26:29.000Z</time>
      </trkpt>
      <trkpt lat="44.18299" lon="5.30329">
        <ele>794.5</ele>
        <time>2026-05-14T14:26:30.000Z</time>
      </trkpt>
      <trkpt lat="44.18299" lon="5.30329">
        <ele>794.5</ele>
        <time>2026-05-14T14:26:31.000Z</time>
      </trkpt>
      <trkpt lat="44.18299" lon="5.30329">
        <ele>794.7</ele>
        <time>2026-05-14T14:26:32.000Z</time>
      </trkpt>
      <trkpt lat="44.18299" lon="5.30329">
        <ele>795</ele>
        <time>2026-05-14T14:26:33.000Z</time>
      </trkpt>
      <trkpt lat="44.18299" lon="5.30329">
        <ele>795.4</ele>
        <time>2026-05-14T14:26:34.000Z</time>
      </trkpt>
      <trkpt lat="44.18299" lon="5.30329">
        <ele>795.6</ele>
        <time>2026-05-14T14:26:35.000Z</time>
      </trkpt>
      <trkpt lat="44.18299" lon="5.30329">
        <ele>795.8</ele>
        <time>2026-05-14T14:26:36.000Z</time>
      </trkpt>
      <trkpt lat="44.18299" lon="5.3033">
        <ele>796</ele>
        <time>2026-05-14T14:26:37.000Z</time>
      </trkpt>
      <trkpt lat="44.18299" lon="5.3033">
        <ele>796.3</ele>
        <time>2026-05-14T14:26:38.000Z</time>
      </trkpt>
      <trkpt lat="44.18299" lon="5.3033">
        <ele>796.4</ele>
        <time>2026-05-14T14:26:39.000Z</time>
      </trkpt>
      <trkpt lat="44.18299" lon="5.30329">
        <ele>796.2</ele>
        <time>2026-05-14T14:26:40.000Z</time>
      </trkpt>
      <trkpt lat="44.18299" lon="5.30329">
        <ele>795.8</ele>
        <time>2026-05-14T14:26:41.000Z</time>
      </trkpt>
      <trkpt lat="44.18299" lon="5.30329">
        <ele>795.2</ele>
        <time>2026-05-14T14:26:42.000Z</time>
      </trkpt>
      <trkpt lat="44.18299" lon="5.30329">
        <ele>794.6</ele>
        <time>2026-05-14T14:26:43.000Z</time>
      </trkpt>
      <trkpt lat="44.18299" lon="5.30329">
        <ele>794.2</ele>
        <time>2026-05-14T14:26:44.000Z</time>
      </trkpt>
      <trkpt lat="44.18299" lon="5.30329">
        <ele>794</ele>
        <time>2026-05-14T14:26:45.000Z</time>
      </trkpt>
      <trkpt lat="44.18299" lon="5.30329">
        <ele>793.6</ele>
        <time>2026-05-14T14:26:46.000Z</time>
      </trkpt>
      <trkpt lat="44.18299" lon="5.30329">
        <ele>793.2</ele>
        <time>2026-05-14T14:26:47.000Z</time>
      </trkpt>
      <trkpt lat="44.18299" lon="5.30329">
        <ele>793</ele>
        <time>2026-05-14T14:26:48.000Z</time>
      </trkpt>
      <trkpt lat="44.18299" lon="5.30328">
        <ele>793</ele>
        <time>2026-05-14T14:26:49.000Z</time>
      </trkpt>
      <trkpt lat="44.18299" lon="5.30329">
        <ele>792.9</ele>
        <time>2026-05-14T14:26:50.000Z</time>
      </trkpt>
      <trkpt lat="44.18299" lon="5.30328">
        <ele>792.7</ele>
        <time>2026-05-14T14:26:51.000Z</time>
      </trkpt>
      <trkpt lat="44.18298" lon="5.30328">
        <ele>792.9</ele>
        <time>2026-05-14T14:26:52.000Z</time>
      </trkpt>
      <trkpt lat="44.18298" lon="5.30328">
        <ele>793</ele>
        <time>2026-05-14T14:26:53.000Z</time>
      </trkpt>
      <trkpt lat="44.18298" lon="5.30328">
        <ele>793</ele>
        <time>2026-05-14T14:26:54.000Z</time>
      </trkpt>
      <trkpt lat="44.18298" lon="5.30328">
        <ele>792.9</ele>
        <time>2026-05-14T14:26:55.000Z</time>
      </trkpt>
      <trkpt lat="44.18298" lon="5.30328">
        <ele>793</ele>
        <time>2026-05-14T14:26:56.000Z</time>
      </trkpt>
      <trkpt lat="44.18298" lon="5.30327">
        <ele>793</ele>
        <time>2026-05-14T14:26:57.000Z</time>
      </trkpt>
      <trkpt lat="44.18298" lon="5.30327">
        <ele>793</ele>
        <time>2026-05-14T14:26:58.000Z</time>
      </trkpt>
      <trkpt lat="44.18297" lon="5.30327">
        <ele>792.7</ele>
        <time>2026-05-14T14:26:59.000Z</time>
      </trkpt>
      <trkpt lat="44.18298" lon="5.30327">
        <ele>792.6</ele>
        <time>2026-05-14T14:27:00.000Z</time>
      </trkpt>
      <trkpt lat="44.18298" lon="5.30327">
        <ele>792.7</ele>
        <time>2026-05-14T14:27:01.000Z</time>
      </trkpt>
      <trkpt lat="44.18298" lon="5.30327">
        <ele>792.8</ele>
        <time>2026-05-14T14:27:02.000Z</time>
      </trkpt>
      <trkpt lat="44.18298" lon="5.30327">
        <ele>793</ele>
        <time>2026-05-14T14:27:03.000Z</time>
      </trkpt>
      <trkpt lat="44.18298" lon="5.30327">
        <ele>793</ele>
        <time>2026-05-14T14:27:04.000Z</time>
      </trkpt>
      <trkpt lat="44.18298" lon="5.30327">
        <ele>793</ele>
        <time>2026-05-14T14:27:05.000Z</time>
      </trkpt>
      <trkpt lat="44.18299" lon="5.30328">
        <ele>793.1</ele>
        <time>2026-05-14T14:27:06.000Z</time>
      </trkpt>
      <trkpt lat="44.18299" lon="5.30328">
        <ele>793.5</ele>
        <time>2026-05-14T14:27:07.000Z</time>
      </trkpt>
      <trkpt lat="44.18299" lon="5.30328">
        <ele>793.5</ele>
        <time>2026-05-14T14:27:08.000Z</time>
      </trkpt>
      <trkpt lat="44.18299" lon="5.30328">
        <ele>793.5</ele>
        <time>2026-05-14T14:27:09.000Z</time>
      </trkpt>
      <trkpt lat="44.18299" lon="5.30328">
        <ele>794</ele>
        <time>2026-05-14T14:27:10.000Z</time>
      </trkpt>
      <trkpt lat="44.18299" lon="5.30328">
        <ele>794.3</ele>
        <time>2026-05-14T14:27:11.000Z</time>
      </trkpt>
      <trkpt lat="44.18299" lon="5.30328">
        <ele>794.2</ele>
        <time>2026-05-14T14:27:12.000Z</time>
      </trkpt>
      <trkpt lat="44.18299" lon="5.30328">
        <ele>794.2</ele>
        <time>2026-05-14T14:27:13.000Z</time>
      </trkpt>
      <trkpt lat="44.18299" lon="5.30327">
        <ele>794.3</ele>
        <time>2026-05-14T14:27:14.000Z</time>
      </trkpt>
      <trkpt lat="44.18299" lon="5.30328">
        <ele>794.3</ele>
        <time>2026-05-14T14:27:15.000Z</time>
      </trkpt>
      <trkpt lat="44.18299" lon="5.30328">
        <ele>794.4</ele>
        <time>2026-05-14T14:27:16.000Z</time>
      </trkpt>
      <trkpt lat="44.18299" lon="5.30328">
        <ele>794.7</ele>
        <time>2026-05-14T14:27:17.000Z</time>
      </trkpt>
      <trkpt lat="44.18299" lon="5.30328">
        <ele>794.9</ele>
        <time>2026-05-14T14:27:18.000Z</time>
      </trkpt>
      <trkpt lat="44.18299" lon="5.30328">
        <ele>794.9</ele>
        <time>2026-05-14T14:27:19.000Z</time>
      </trkpt>
      <trkpt lat="44.18299" lon="5.30328">
        <ele>794.9</ele>
        <time>2026-05-14T14:27:20.000Z</time>
      </trkpt>
      <trkpt lat="44.18299" lon="5.30328">
        <ele>794.9</ele>
        <time>2026-05-14T14:27:21.000Z</time>
      </trkpt>
      <trkpt lat="44.18299" lon="5.30328">
        <ele>795.2</ele>
        <time>2026-05-14T14:27:22.000Z</time>
      </trkpt>
      <trkpt lat="44.18299" lon="5.30328">
        <ele>795.3</ele>
        <time>2026-05-14T14:27:23.000Z</time>
      </trkpt>
      <trkpt lat="44.18299" lon="5.30328">
        <ele>795.2</ele>
        <time>2026-05-14T14:27:24.000Z</time>
      </trkpt>
      <trkpt lat="44.18299" lon="5.30328">
        <ele>795.3</ele>
        <time>2026-05-14T14:27:25.000Z</time>
      </trkpt>
      <trkpt lat="44.18299" lon="5.30328">
        <ele>795.1</ele>
        <time>2026-05-14T14:27:26.000Z</time>
      </trkpt>
      <trkpt lat="44.18299" lon="5.30328">
        <ele>794.7</ele>
        <time>2026-05-14T14:27:27.000Z</time>
      </trkpt>
      <trkpt lat="44.18299" lon="5.30328">
        <ele>794.5</ele>
        <time>2026-05-14T14:27:28.000Z</time>
      </trkpt>
      <trkpt lat="44.18299" lon="5.30328">
        <ele>794.5</ele>
        <time>2026-05-14T14:27:29.000Z</time>
      </trkpt>
      <trkpt lat="44.183" lon="5.30328">
        <ele>794.5</ele>
        <time>2026-05-14T14:27:30.000Z</time>
      </trkpt>
      <trkpt lat="44.183" lon="5.30328">
        <ele>794.4</ele>
        <time>2026-05-14T14:27:31.000Z</time>
      </trkpt>
      <trkpt lat="44.183" lon="5.30328">
        <ele>794.3</ele>
        <time>2026-05-14T14:27:32.999Z</time>
      </trkpt>
      <trkpt lat="44.183" lon="5.30329">
        <ele>794.1</ele>
        <time>2026-05-14T14:27:33.999Z</time>
      </trkpt>
      <trkpt lat="44.183" lon="5.30329">
        <ele>794.1</ele>
        <time>2026-05-14T14:27:34.999Z</time>
      </trkpt>
      <trkpt lat="44.183" lon="5.30329">
        <ele>794</ele>
        <time>2026-05-14T14:27:35.999Z</time>
      </trkpt>
      <trkpt lat="44.18301" lon="5.3033">
        <ele>794.1</ele>
        <time>2026-05-14T14:27:36.999Z</time>
      </trkpt>
      <trkpt lat="44.18302" lon="5.30331">
        <ele>794.3</ele>
        <time>2026-05-14T14:27:37.999Z</time>
      </trkpt>
      <trkpt lat="44.18303" lon="5.30333">
        <ele>794.4</ele>
        <time>2026-05-14T14:27:38.999Z</time>
      </trkpt>
      <trkpt lat="44.18303" lon="5.30333">
        <ele>794.3</ele>
        <time>2026-05-14T14:27:39.999Z</time>
      </trkpt>
      <trkpt lat="44.18304" lon="5.30333">
        <ele>794.2</ele>
        <time>2026-05-14T14:27:40.999Z</time>
      </trkpt>
      <trkpt lat="44.18304" lon="5.30333">
        <ele>794.6</ele>
        <time>2026-05-14T14:27:41.999Z</time>
      </trkpt>
      <trkpt lat="44.18304" lon="5.30333">
        <ele>794.7</ele>
        <time>2026-05-14T14:27:42.999Z</time>
      </trkpt>
      <trkpt lat="44.18304" lon="5.30333">
        <ele>794.7</ele>
        <time>2026-05-14T14:27:43.999Z</time>
      </trkpt>
      <trkpt lat="44.18304" lon="5.30333">
        <ele>794.9</ele>
        <time>2026-05-14T14:27:44.999Z</time>
      </trkpt>
      <trkpt lat="44.18304" lon="5.30333">
        <ele>794.9</ele>
        <time>2026-05-14T14:27:45.999Z</time>
      </trkpt>
      <trkpt lat="44.18304" lon="5.30333">
        <ele>795.1</ele>
        <time>2026-05-14T14:27:46.999Z</time>
      </trkpt>
      <trkpt lat="44.18304" lon="5.30333">
        <ele>795.6</ele>
        <time>2026-05-14T14:27:47.999Z</time>
      </trkpt>
      <trkpt lat="44.18304" lon="5.30333">
        <ele>795.9</ele>
        <time>2026-05-14T14:27:48.999Z</time>
      </trkpt>
      <trkpt lat="44.18304" lon="5.30333">
        <ele>796.3</ele>
        <time>2026-05-14T14:27:49.999Z</time>
      </trkpt>
      <trkpt lat="44.18304" lon="5.30333">
        <ele>796.6</ele>
        <time>2026-05-14T14:27:50.999Z</time>
      </trkpt>
      <trkpt lat="44.18304" lon="5.30333">
        <ele>796.9</ele>
        <time>2026-05-14T14:27:51.999Z</time>
      </trkpt>
      <trkpt lat="44.18304" lon="5.30334">
        <ele>796.9</ele>
        <time>2026-05-14T14:27:52.999Z</time>
      </trkpt>
      <trkpt lat="44.18304" lon="5.30334">
        <ele>797.3</ele>
        <time>2026-05-14T14:27:53.999Z</time>
      </trkpt>
      <trkpt lat="44.18304" lon="5.30334">
        <ele>797.4</ele>
        <time>2026-05-14T14:27:54.999Z</time>
      </trkpt>
      <trkpt lat="44.18304" lon="5.30334">
        <ele>797.5</ele>
        <time>2026-05-14T14:27:55.999Z</time>
      </trkpt>
      <trkpt lat="44.18304" lon="5.30334">
        <ele>797.4</ele>
        <time>2026-05-14T14:27:56.999Z</time>
      </trkpt>
      <trkpt lat="44.18304" lon="5.30334">
        <ele>797.1</ele>
        <time>2026-05-14T14:27:57.999Z</time>
      </trkpt>
      <trkpt lat="44.18304" lon="5.30334">
        <ele>796.9</ele>
        <time>2026-05-14T14:27:58.999Z</time>
      </trkpt>
      <trkpt lat="44.18304" lon="5.30335">
        <ele>796.9</ele>
        <time>2026-05-14T14:27:59.999Z</time>
      </trkpt>
      <trkpt lat="44.18304" lon="5.30335">
        <ele>796.8</ele>
        <time>2026-05-14T14:28:00.999Z</time>
      </trkpt>
      <trkpt lat="44.18304" lon="5.30335">
        <ele>796.6</ele>
        <time>2026-05-14T14:28:01.999Z</time>
      </trkpt>
      <trkpt lat="44.18304" lon="5.30336">
        <ele>796.8</ele>
        <time>2026-05-14T14:28:02.999Z</time>
      </trkpt>
      <trkpt lat="44.18304" lon="5.30336">
        <ele>797</ele>
        <time>2026-05-14T14:28:03.999Z</time>
      </trkpt>
      <trkpt lat="44.18304" lon="5.30336">
        <ele>797.2</ele>
        <time>2026-05-14T14:28:04.999Z</time>
      </trkpt>
      <trkpt lat="44.18304" lon="5.30336">
        <ele>797.4</ele>
        <time>2026-05-14T14:28:05.999Z</time>
      </trkpt>
      <trkpt lat="44.18303" lon="5.30336">
        <ele>797.6</ele>
        <time>2026-05-14T14:28:06.999Z</time>
      </trkpt>
      <trkpt lat="44.18304" lon="5.30336">
        <ele>797.4</ele>
        <time>2026-05-14T14:28:07.999Z</time>
      </trkpt>
      <trkpt lat="44.18303" lon="5.30335">
        <ele>797.4</ele>
        <time>2026-05-14T14:28:08.999Z</time>
      </trkpt>
      <trkpt lat="44.18303" lon="5.30335">
        <ele>797.5</ele>
        <time>2026-05-14T14:28:09.999Z</time>
      </trkpt>
      <trkpt lat="44.18303" lon="5.30335">
        <ele>797.5</ele>
        <time>2026-05-14T14:28:10.999Z</time>
      </trkpt>
      <trkpt lat="44.18303" lon="5.30335">
        <ele>797.5</ele>
        <time>2026-05-14T14:28:11.999Z</time>
      </trkpt>
      <trkpt lat="44.18303" lon="5.30335">
        <ele>797.4</ele>
        <time>2026-05-14T14:28:12.999Z</time>
      </trkpt>
      <trkpt lat="44.18303" lon="5.30335">
        <ele>797.1</ele>
        <time>2026-05-14T14:28:13.999Z</time>
      </trkpt>
      <trkpt lat="44.18303" lon="5.30335">
        <ele>797</ele>
        <time>2026-05-14T14:28:14.999Z</time>
      </trkpt>
      <trkpt lat="44.18303" lon="5.30335">
        <ele>796.9</ele>
        <time>2026-05-14T14:28:15.999Z</time>
      </trkpt>
      <trkpt lat="44.18303" lon="5.30335">
        <ele>797</ele>
        <time>2026-05-14T14:28:16.999Z</time>
      </trkpt>
      <trkpt lat="44.18303" lon="5.30335">
        <ele>797.1</ele>
        <time>2026-05-14T14:28:17.999Z</time>
      </trkpt>
      <trkpt lat="44.18303" lon="5.30335">
        <ele>797.1</ele>
        <time>2026-05-14T14:28:18.999Z</time>
      </trkpt>
      <trkpt lat="44.18303" lon="5.30335">
        <ele>797.7</ele>
        <time>2026-05-14T14:28:19.999Z</time>
      </trkpt>
      <trkpt lat="44.18302" lon="5.30335">
        <ele>797.7</ele>
        <time>2026-05-14T14:28:20.999Z</time>
      </trkpt>
      <trkpt lat="44.18302" lon="5.30336">
        <ele>797.9</ele>
        <time>2026-05-14T14:28:21.999Z</time>
      </trkpt>
      <trkpt lat="44.18302" lon="5.30337">
        <ele>798.1</ele>
        <time>2026-05-14T14:28:22.999Z</time>
      </trkpt>
      <trkpt lat="44.18302" lon="5.30337">
        <ele>797.6</ele>
        <time>2026-05-14T14:28:23.999Z</time>
      </trkpt>
      <trkpt lat="44.18302" lon="5.30337">
        <ele>797.3</ele>
        <time>2026-05-14T14:28:24.999Z</time>
      </trkpt>
      <trkpt lat="44.18302" lon="5.30338">
        <ele>797.2</ele>
        <time>2026-05-14T14:28:25.999Z</time>
      </trkpt>
      <trkpt lat="44.18302" lon="5.30338">
        <ele>797.2</ele>
        <time>2026-05-14T14:28:26.999Z</time>
      </trkpt>
      <trkpt lat="44.18302" lon="5.30338">
        <ele>797.2</ele>
        <time>2026-05-14T14:28:27.999Z</time>
      </trkpt>
      <trkpt lat="44.18302" lon="5.30338">
        <ele>797</ele>
        <time>2026-05-14T14:28:28.999Z</time>
      </trkpt>
      <trkpt lat="44.18302" lon="5.30339">
        <ele>796.8</ele>
        <time>2026-05-14T14:28:29.999Z</time>
      </trkpt>
      <trkpt lat="44.18302" lon="5.30339">
        <ele>796.9</ele>
        <time>2026-05-14T14:28:30.999Z</time>
      </trkpt>
      <trkpt lat="44.18302" lon="5.30339">
        <ele>797.1</ele>
        <time>2026-05-14T14:28:31.999Z</time>
      </trkpt>
      <trkpt lat="44.18302" lon="5.30338">
        <ele>797</ele>
        <time>2026-05-14T14:28:32.999Z</time>
      </trkpt>
      <trkpt lat="44.18302" lon="5.30339">
        <ele>797.1</ele>
        <time>2026-05-14T14:28:33.999Z</time>
      </trkpt>
      <trkpt lat="44.18302" lon="5.30339">
        <ele>797.2</ele>
        <time>2026-05-14T14:28:34.999Z</time>
      </trkpt>
      <trkpt lat="44.18302" lon="5.30339">
        <ele>797.3</ele>
        <time>2026-05-14T14:28:35.999Z</time>
      </trkpt>
      <trkpt lat="44.18302" lon="5.30338">
        <ele>797.4</ele>
        <time>2026-05-14T14:28:36.999Z</time>
      </trkpt>
      <trkpt lat="44.18302" lon="5.30338">
        <ele>797.3</ele>
        <time>2026-05-14T14:28:37.999Z</time>
      </trkpt>
      <trkpt lat="44.18302" lon="5.30338">
        <ele>797</ele>
        <time>2026-05-14T14:28:38.999Z</time>
      </trkpt>
      <trkpt lat="44.18302" lon="5.30338">
        <ele>796.9</ele>
        <time>2026-05-14T14:28:39.999Z</time>
      </trkpt>
      <trkpt lat="44.18302" lon="5.30338">
        <ele>796.9</ele>
        <time>2026-05-14T14:28:40.999Z</time>
      </trkpt>
      <trkpt lat="44.18302" lon="5.30338">
        <ele>797</ele>
        <time>2026-05-14T14:28:41.999Z</time>
      </trkpt>
      <trkpt lat="44.18302" lon="5.30338">
        <ele>797.3</ele>
        <time>2026-05-14T14:28:42.999Z</time>
      </trkpt>
      <trkpt lat="44.18302" lon="5.30338">
        <ele>797.6</ele>
        <time>2026-05-14T14:28:43.999Z</time>
      </trkpt>
      <trkpt lat="44.18302" lon="5.30338">
        <ele>797.7</ele>
        <time>2026-05-14T14:28:44.999Z</time>
      </trkpt>
      <trkpt lat="44.18302" lon="5.30338">
        <ele>797.7</ele>
        <time>2026-05-14T14:28:45.999Z</time>
      </trkpt>
      <trkpt lat="44.18302" lon="5.30338">
        <ele>797.7</ele>
        <time>2026-05-14T14:28:46.999Z</time>
      </trkpt>
      <trkpt lat="44.18302" lon="5.30338">
        <ele>797.6</ele>
        <time>2026-05-14T14:28:47.999Z</time>
      </trkpt>
      <trkpt lat="44.18301" lon="5.30338">
        <ele>797.3</ele>
        <time>2026-05-14T14:28:48.999Z</time>
      </trkpt>
      <trkpt lat="44.18301" lon="5.30339">
        <ele>797.4</ele>
        <time>2026-05-14T14:28:49.999Z</time>
      </trkpt>
      <trkpt lat="44.18301" lon="5.30339">
        <ele>797.3</ele>
        <time>2026-05-14T14:28:50.999Z</time>
      </trkpt>
      <trkpt lat="44.18301" lon="5.30339">
        <ele>797.4</ele>
        <time>2026-05-14T14:28:51.999Z</time>
      </trkpt>
      <trkpt lat="44.18301" lon="5.30339">
        <ele>797.5</ele>
        <time>2026-05-14T14:28:52.999Z</time>
      </trkpt>
      <trkpt lat="44.18301" lon="5.30339">
        <ele>797.4</ele>
        <time>2026-05-14T14:28:53.999Z</time>
      </trkpt>
      <trkpt lat="44.18301" lon="5.30339">
        <ele>797.2</ele>
        <time>2026-05-14T14:28:54.999Z</time>
      </trkpt>
      <trkpt lat="44.18301" lon="5.30339">
        <ele>797.3</ele>
        <time>2026-05-14T14:28:55.999Z</time>
      </trkpt>
      <trkpt lat="44.18301" lon="5.30339">
        <ele>797.1</ele>
        <time>2026-05-14T14:28:56.999Z</time>
      </trkpt>
      <trkpt lat="44.18301" lon="5.30339">
        <ele>797.5</ele>
        <time>2026-05-14T14:28:57.999Z</time>
      </trkpt>
      <trkpt lat="44.18301" lon="5.30338">
        <ele>797.3</ele>
        <time>2026-05-14T14:28:58.999Z</time>
      </trkpt>
      <trkpt lat="44.18301" lon="5.30338">
        <ele>797.3</ele>
        <time>2026-05-14T14:28:59.999Z</time>
      </trkpt>
      <trkpt lat="44.183" lon="5.30339">
        <ele>797.5</ele>
        <time>2026-05-14T14:29:00.999Z</time>
      </trkpt>
      <trkpt lat="44.18299" lon="5.30339">
        <ele>798.1</ele>
        <time>2026-05-14T14:29:01.999Z</time>
      </trkpt>
      <trkpt lat="44.183" lon="5.30341">
        <ele>798.5</ele>
        <time>2026-05-14T14:29:02.999Z</time>
      </trkpt>
      <trkpt lat="44.183" lon="5.30341">
        <ele>799.1</ele>
        <time>2026-05-14T14:29:03.999Z</time>
      </trkpt>
      <trkpt lat="44.183" lon="5.30341">
        <ele>799.5</ele>
        <time>2026-05-14T14:29:04.999Z</time>
      </trkpt>
      <trkpt lat="44.183" lon="5.30341">
        <ele>799.9</ele>
        <time>2026-05-14T14:29:05.999Z</time>
      </trkpt>
      <trkpt lat="44.183" lon="5.30341">
        <ele>800.1</ele>
        <time>2026-05-14T14:29:06.999Z</time>
      </trkpt>
      <trkpt lat="44.183" lon="5.30341">
        <ele>800.2</ele>
        <time>2026-05-14T14:29:07.999Z</time>
      </trkpt>
      <trkpt lat="44.183" lon="5.30341">
        <ele>800.1</ele>
        <time>2026-05-14T14:29:08.999Z</time>
      </trkpt>
      <trkpt lat="44.183" lon="5.30341">
        <ele>800</ele>
        <time>2026-05-14T14:29:09.999Z</time>
      </trkpt>
      <trkpt lat="44.183" lon="5.30341">
        <ele>799.8</ele>
        <time>2026-05-14T14:29:10.999Z</time>
      </trkpt>
      <trkpt lat="44.183" lon="5.30341">
        <ele>799.8</ele>
        <time>2026-05-14T14:29:11.999Z</time>
      </trkpt>
      <trkpt lat="44.183" lon="5.30341">
        <ele>799.8</ele>
        <time>2026-05-14T14:29:12.999Z</time>
      </trkpt>
      <trkpt lat="44.183" lon="5.30341">
        <ele>799.9</ele>
        <time>2026-05-14T14:29:13.999Z</time>
      </trkpt>
      <trkpt lat="44.183" lon="5.30341">
        <ele>799.8</ele>
        <time>2026-05-14T14:29:14.999Z</time>
      </trkpt>
      <trkpt lat="44.183" lon="5.30341">
        <ele>799.9</ele>
        <time>2026-05-14T14:29:15.999Z</time>
      </trkpt>
      <trkpt lat="44.183" lon="5.30341">
        <ele>800.1</ele>
        <time>2026-05-14T14:29:16.999Z</time>
      </trkpt>
      <trkpt lat="44.183" lon="5.30341">
        <ele>800.3</ele>
        <time>2026-05-14T14:29:17.999Z</time>
      </trkpt>
      <trkpt lat="44.183" lon="5.3034">
        <ele>800.6</ele>
        <time>2026-05-14T14:29:18.999Z</time>
      </trkpt>
      <trkpt lat="44.183" lon="5.3034">
        <ele>800.7</ele>
        <time>2026-05-14T14:29:19.999Z</time>
      </trkpt>
      <trkpt lat="44.183" lon="5.3034">
        <ele>800.6</ele>
        <time>2026-05-14T14:29:20.999Z</time>
      </trkpt>
      <trkpt lat="44.18301" lon="5.30339">
        <ele>800.5</ele>
        <time>2026-05-14T14:29:21.999Z</time>
      </trkpt>
      <trkpt lat="44.18303" lon="5.30338">
        <ele>800.1</ele>
        <time>2026-05-14T14:29:22.999Z</time>
      </trkpt>
      <trkpt lat="44.18305" lon="5.30338">
        <ele>800.7</ele>
        <time>2026-05-14T14:29:23.999Z</time>
      </trkpt>
      <trkpt lat="44.18307" lon="5.30339">
        <ele>801.1</ele>
        <time>2026-05-14T14:29:24.999Z</time>
      </trkpt>
      <trkpt lat="44.1831" lon="5.30339">
        <ele>801.5</ele>
        <time>2026-05-14T14:29:25.999Z</time>
      </trkpt>
      <trkpt lat="44.18312" lon="5.30339">
        <ele>801.8</ele>
        <time>2026-05-14T14:29:26.999Z</time>
      </trkpt>
      <trkpt lat="44.18314" lon="5.30339">
        <ele>802.4</ele>
        <time>2026-05-14T14:29:27.999Z</time>
      </trkpt>
      <trkpt lat="44.18316" lon="5.30338">
        <ele>802.7</ele>
        <time>2026-05-14T14:29:28.999Z</time>
      </trkpt>
      <trkpt lat="44.18318" lon="5.30338">
        <ele>803.6</ele>
        <time>2026-05-14T14:29:29.999Z</time>
      </trkpt>
      <trkpt lat="44.18319" lon="5.3034">
        <ele>804</ele>
        <time>2026-05-14T14:29:30.999Z</time>
      </trkpt>
      <trkpt lat="44.18316" lon="5.30341">
        <ele>803.9</ele>
        <time>2026-05-14T14:29:31.999Z</time>
      </trkpt>
      <trkpt lat="44.18313" lon="5.30343">
        <ele>804</ele>
        <time>2026-05-14T14:29:32.999Z</time>
      </trkpt>
      <trkpt lat="44.18312" lon="5.30344">
        <ele>803.8</ele>
        <time>2026-05-14T14:29:33.999Z</time>
      </trkpt>
      <trkpt lat="44.18312" lon="5.30344">
        <ele>803.4</ele>
        <time>2026-05-14T14:29:34.999Z</time>
      </trkpt>
      <trkpt lat="44.18312" lon="5.30345">
        <ele>803.9</ele>
        <time>2026-05-14T14:29:35.999Z</time>
      </trkpt>
      <trkpt lat="44.18309" lon="5.30346">
        <ele>805</ele>
        <time>2026-05-14T14:29:37.999Z</time>
      </trkpt>
      <trkpt lat="44.18308" lon="5.30345">
        <ele>805.7</ele>
        <time>2026-05-14T14:29:38.999Z</time>
      </trkpt>
      <trkpt lat="44.18308" lon="5.30343">
        <ele>806.5</ele>
        <time>2026-05-14T14:29:39.999Z</time>
      </trkpt>
      <trkpt lat="44.18308" lon="5.30343">
        <ele>806</ele>
        <time>2026-05-14T14:29:40.999Z</time>
      </trkpt>
      <trkpt lat="44.18307" lon="5.30343">
        <ele>805.9</ele>
        <time>2026-05-14T14:29:41.999Z</time>
      </trkpt>
      <trkpt lat="44.18306" lon="5.30342">
        <ele>805.6</ele>
        <time>2026-05-14T14:29:42.999Z</time>
      </trkpt>
      <trkpt lat="44.18305" lon="5.30342">
        <ele>805.1</ele>
        <time>2026-05-14T14:29:43.999Z</time>
      </trkpt>
      <trkpt lat="44.18305" lon="5.30342">
        <ele>800.4</ele>
        <time>2026-05-14T14:29:44.999Z</time>
      </trkpt>
      <trkpt lat="44.18305" lon="5.30342">
        <ele>800.2</ele>
        <time>2026-05-14T14:29:45.999Z</time>
      </trkpt>
      <trkpt lat="44.18304" lon="5.30342">
        <ele>799.6</ele>
        <time>2026-05-14T14:29:46.999Z</time>
      </trkpt>
      <trkpt lat="44.18303" lon="5.30341">
        <ele>799.3</ele>
        <time>2026-05-14T14:29:47.999Z</time>
      </trkpt>
      <trkpt lat="44.18303" lon="5.30341">
        <ele>798.9</ele>
        <time>2026-05-14T14:29:48.999Z</time>
      </trkpt>
      <trkpt lat="44.18301" lon="5.30342">
        <ele>798.5</ele>
        <time>2026-05-14T14:29:49.999Z</time>
      </trkpt>
      <trkpt lat="44.18301" lon="5.30342">
        <ele>798.1</ele>
        <time>2026-05-14T14:29:50.999Z</time>
      </trkpt>
      <trkpt lat="44.18301" lon="5.30342">
        <ele>797.9</ele>
        <time>2026-05-14T14:29:51.999Z</time>
      </trkpt>
      <trkpt lat="44.18301" lon="5.30342">
        <ele>797.9</ele>
        <time>2026-05-14T14:29:52.999Z</time>
      </trkpt>
      <trkpt lat="44.18301" lon="5.30342">
        <ele>798.4</ele>
        <time>2026-05-14T14:29:53.999Z</time>
      </trkpt>
      <trkpt lat="44.18301" lon="5.30342">
        <ele>798.5</ele>
        <time>2026-05-14T14:29:54.999Z</time>
      </trkpt>
      <trkpt lat="44.18301" lon="5.30343">
        <ele>798.2</ele>
        <time>2026-05-14T14:29:55.999Z</time>
      </trkpt>
      <trkpt lat="44.18301" lon="5.30343">
        <ele>798</ele>
        <time>2026-05-14T14:29:56.999Z</time>
      </trkpt>
      <trkpt lat="44.18301" lon="5.30343">
        <ele>797.9</ele>
        <time>2026-05-14T14:29:57.999Z</time>
      </trkpt>
      <trkpt lat="44.18301" lon="5.30343">
        <ele>797.7</ele>
        <time>2026-05-14T14:29:58.999Z</time>
      </trkpt>
      <trkpt lat="44.18301" lon="5.30343">
        <ele>797.8</ele>
        <time>2026-05-14T14:29:59.999Z</time>
      </trkpt>
      <trkpt lat="44.18301" lon="5.30343">
        <ele>798</ele>
        <time>2026-05-14T14:30:00.999Z</time>
      </trkpt>
      <trkpt lat="44.18301" lon="5.30343">
        <ele>798</ele>
        <time>2026-05-14T14:30:01.999Z</time>
      </trkpt>
      <trkpt lat="44.18301" lon="5.30343">
        <ele>798.8</ele>
        <time>2026-05-14T14:30:02.999Z</time>
      </trkpt>
      <trkpt lat="44.18301" lon="5.30342">
        <ele>799</ele>
        <time>2026-05-14T14:30:03.999Z</time>
      </trkpt>
      <trkpt lat="44.18301" lon="5.30342">
        <ele>799</ele>
        <time>2026-05-14T14:30:04.999Z</time>
      </trkpt>
      <trkpt lat="44.18301" lon="5.30341">
        <ele>798.7</ele>
        <time>2026-05-14T14:30:05.999Z</time>
      </trkpt>
      <trkpt lat="44.18301" lon="5.3034">
        <ele>798.4</ele>
        <time>2026-05-14T14:30:06.999Z</time>
      </trkpt>
      <trkpt lat="44.18301" lon="5.3034">
        <ele>798.3</ele>
        <time>2026-05-14T14:30:07.999Z</time>
      </trkpt>
      <trkpt lat="44.183" lon="5.30338">
        <ele>797.8</ele>
        <time>2026-05-14T14:30:08.999Z</time>
      </trkpt>
      <trkpt lat="44.183" lon="5.30338">
        <ele>798.2</ele>
        <time>2026-05-14T14:30:09.999Z</time>
      </trkpt>
      <trkpt lat="44.183" lon="5.30338">
        <ele>798</ele>
        <time>2026-05-14T14:30:10.999Z</time>
      </trkpt>
      <trkpt lat="44.18299" lon="5.30337">
        <ele>797.7</ele>
        <time>2026-05-14T14:30:11.999Z</time>
      </trkpt>
      <trkpt lat="44.18299" lon="5.30337">
        <ele>797.9</ele>
        <time>2026-05-14T14:30:12.999Z</time>
      </trkpt>
      <trkpt lat="44.18299" lon="5.30337">
        <ele>798.1</ele>
        <time>2026-05-14T14:30:13.999Z</time>
      </trkpt>
      <trkpt lat="44.18299" lon="5.30336">
        <ele>798.3</ele>
        <time>2026-05-14T14:30:14.999Z</time>
      </trkpt>
      <trkpt lat="44.18299" lon="5.30336">
        <ele>798.1</ele>
        <time>2026-05-14T14:30:15.999Z</time>
      </trkpt>
      <trkpt lat="44.18299" lon="5.30336">
        <ele>798</ele>
        <time>2026-05-14T14:30:16.999Z</time>
      </trkpt>
      <trkpt lat="44.18299" lon="5.30336">
        <ele>797.9</ele>
        <time>2026-05-14T14:30:17.999Z</time>
      </trkpt>
      <trkpt lat="44.18299" lon="5.30336">
        <ele>797.8</ele>
        <time>2026-05-14T14:30:18.999Z</time>
      </trkpt>
      <trkpt lat="44.18299" lon="5.30336">
        <ele>797.6</ele>
        <time>2026-05-14T14:30:19.999Z</time>
      </trkpt>
      <trkpt lat="44.18299" lon="5.30336">
        <ele>797.6</ele>
        <time>2026-05-14T14:30:20.999Z</time>
      </trkpt>
      <trkpt lat="44.18299" lon="5.30336">
        <ele>797.3</ele>
        <time>2026-05-14T14:30:21.999Z</time>
      </trkpt>
      <trkpt lat="44.18299" lon="5.30336">
        <ele>797</ele>
        <time>2026-05-14T14:30:22.999Z</time>
      </trkpt>
      <trkpt lat="44.18299" lon="5.30336">
        <ele>797</ele>
        <time>2026-05-14T14:30:23.999Z</time>
      </trkpt>
      <trkpt lat="44.18298" lon="5.30336">
        <ele>797.2</ele>
        <time>2026-05-14T14:30:24.999Z</time>
      </trkpt>
      <trkpt lat="44.18298" lon="5.30336">
        <ele>797.2</ele>
        <time>2026-05-14T14:30:25.999Z</time>
      </trkpt>
      <trkpt lat="44.18298" lon="5.30336">
        <ele>797.2</ele>
        <time>2026-05-14T14:30:26.999Z</time>
      </trkpt>
      <trkpt lat="44.18299" lon="5.30336">
        <ele>797.2</ele>
        <time>2026-05-14T14:30:27.999Z</time>
      </trkpt>
      <trkpt lat="44.18299" lon="5.30335">
        <ele>796.9</ele>
        <time>2026-05-14T14:30:28.999Z</time>
      </trkpt>
      <trkpt lat="44.18298" lon="5.30335">
        <ele>796.8</ele>
        <time>2026-05-14T14:30:29.999Z</time>
      </trkpt>
      <trkpt lat="44.18299" lon="5.30335">
        <ele>796.9</ele>
        <time>2026-05-14T14:30:30.999Z</time>
      </trkpt>
      <trkpt lat="44.18299" lon="5.30335">
        <ele>796.6</ele>
        <time>2026-05-14T14:30:31.999Z</time>
      </trkpt>
      <trkpt lat="44.18299" lon="5.30335">
        <ele>796.4</ele>
        <time>2026-05-14T14:30:32.999Z</time>
      </trkpt>
      <trkpt lat="44.18299" lon="5.30335">
        <ele>796</ele>
        <time>2026-05-14T14:30:33.999Z</time>
      </trkpt>
      <trkpt lat="44.18299" lon="5.30335">
        <ele>795.7</ele>
        <time>2026-05-14T14:30:34.999Z</time>
      </trkpt>
      <trkpt lat="44.18299" lon="5.30335">
        <ele>795.5</ele>
        <time>2026-05-14T14:30:35.999Z</time>
      </trkpt>
      <trkpt lat="44.18299" lon="5.30335">
        <ele>795.1</ele>
        <time>2026-05-14T14:30:36.999Z</time>
      </trkpt>
      <trkpt lat="44.18299" lon="5.30335">
        <ele>794.6</ele>
        <time>2026-05-14T14:30:37.999Z</time>
      </trkpt>
      <trkpt lat="44.18299" lon="5.30335">
        <ele>794.4</ele>
        <time>2026-05-14T14:30:38.999Z</time>
      </trkpt>
      <trkpt lat="44.18299" lon="5.30335">
        <ele>794.3</ele>
        <time>2026-05-14T14:30:39.999Z</time>
      </trkpt>
      <trkpt lat="44.18299" lon="5.30335">
        <ele>794.4</ele>
        <time>2026-05-14T14:30:40.999Z</time>
      </trkpt>
      <trkpt lat="44.18299" lon="5.30335">
        <ele>794.6</ele>
        <time>2026-05-14T14:30:41.999Z</time>
      </trkpt>
      <trkpt lat="44.18299" lon="5.30335">
        <ele>794.7</ele>
        <time>2026-05-14T14:30:42.999Z</time>
      </trkpt>
      <trkpt lat="44.18299" lon="5.30335">
        <ele>794.8</ele>
        <time>2026-05-14T14:30:43.999Z</time>
      </trkpt>
      <trkpt lat="44.18299" lon="5.30335">
        <ele>795.1</ele>
        <time>2026-05-14T14:30:44.999Z</time>
      </trkpt>
      <trkpt lat="44.18299" lon="5.30335">
        <ele>795.5</ele>
        <time>2026-05-14T14:30:45.999Z</time>
      </trkpt>
      <trkpt lat="44.18299" lon="5.30335">
        <ele>795.6</ele>
        <time>2026-05-14T14:30:46.999Z</time>
      </trkpt>
      <trkpt lat="44.18299" lon="5.30335">
        <ele>795.8</ele>
        <time>2026-05-14T14:30:47.999Z</time>
      </trkpt>
      <trkpt lat="44.18299" lon="5.30335">
        <ele>795.8</ele>
        <time>2026-05-14T14:30:48.999Z</time>
      </trkpt>
      <trkpt lat="44.18299" lon="5.30335">
        <ele>796.1</ele>
        <time>2026-05-14T14:30:49.999Z</time>
      </trkpt>
      <trkpt lat="44.18299" lon="5.30335">
        <ele>796.5</ele>
        <time>2026-05-14T14:30:50.999Z</time>
      </trkpt>
      <trkpt lat="44.18299" lon="5.30335">
        <ele>796.6</ele>
        <time>2026-05-14T14:30:51.999Z</time>
      </trkpt>
      <trkpt lat="44.18299" lon="5.30335">
        <ele>796.3</ele>
        <time>2026-05-14T14:30:52.999Z</time>
      </trkpt>
      <trkpt lat="44.18299" lon="5.30335">
        <ele>795.9</ele>
        <time>2026-05-14T14:30:53.999Z</time>
      </trkpt>
      <trkpt lat="44.18299" lon="5.30335">
        <ele>795.1</ele>
        <time>2026-05-14T14:30:54.999Z</time>
      </trkpt>
      <trkpt lat="44.18299" lon="5.30335">
        <ele>794.8</ele>
        <time>2026-05-14T14:30:55.999Z</time>
      </trkpt>
      <trkpt lat="44.18299" lon="5.30335">
        <ele>794.5</ele>
        <time>2026-05-14T14:30:56.999Z</time>
      </trkpt>
      <trkpt lat="44.18299" lon="5.30335">
        <ele>794.6</ele>
        <time>2026-05-14T14:30:57.999Z</time>
      </trkpt>
      <trkpt lat="44.18299" lon="5.30336">
        <ele>794.4</ele>
        <time>2026-05-14T14:30:58.999Z</time>
      </trkpt>
      <trkpt lat="44.18299" lon="5.30336">
        <ele>794.1</ele>
        <time>2026-05-14T14:30:59.999Z</time>
      </trkpt>
      <trkpt lat="44.18299" lon="5.30336">
        <ele>793.8</ele>
        <time>2026-05-14T14:31:00.999Z</time>
      </trkpt>
      <trkpt lat="44.18299" lon="5.30336">
        <ele>793.4</ele>
        <time>2026-05-14T14:31:01.999Z</time>
      </trkpt>
      <trkpt lat="44.18299" lon="5.30336">
        <ele>793.1</ele>
        <time>2026-05-14T14:31:02.999Z</time>
      </trkpt>
      <trkpt lat="44.18299" lon="5.30336">
        <ele>792.8</ele>
        <time>2026-05-14T14:31:03.999Z</time>
      </trkpt>
      <trkpt lat="44.18299" lon="5.30336">
        <ele>792.5</ele>
        <time>2026-05-14T14:31:04.999Z</time>
      </trkpt>
      <trkpt lat="44.18299" lon="5.30336">
        <ele>792.3</ele>
        <time>2026-05-14T14:31:05.999Z</time>
      </trkpt>
      <trkpt lat="44.18299" lon="5.30336">
        <ele>792.2</ele>
        <time>2026-05-14T14:31:06.999Z</time>
      </trkpt>
      <trkpt lat="44.18299" lon="5.30336">
        <ele>792</ele>
        <time>2026-05-14T14:31:07.999Z</time>
      </trkpt>
      <trkpt lat="44.18299" lon="5.30336">
        <ele>792</ele>
        <time>2026-05-14T14:31:08.999Z</time>
      </trkpt>
      <trkpt lat="44.18299" lon="5.30336">
        <ele>792.1</ele>
        <time>2026-05-14T14:31:09.999Z</time>
      </trkpt>
      <trkpt lat="44.18299" lon="5.30336">
        <ele>792.3</ele>
        <time>2026-05-14T14:31:10.999Z</time>
      </trkpt>
      <trkpt lat="44.18299" lon="5.30336">
        <ele>792.4</ele>
        <time>2026-05-14T14:31:11.999Z</time>
      </trkpt>
      <trkpt lat="44.18299" lon="5.30336">
        <ele>792.7</ele>
        <time>2026-05-14T14:31:12.999Z</time>
      </trkpt>
      <trkpt lat="44.18299" lon="5.30336">
        <ele>792.6</ele>
        <time>2026-05-14T14:31:13.999Z</time>
      </trkpt>
      <trkpt lat="44.18299" lon="5.30336">
        <ele>792.4</ele>
        <time>2026-05-14T14:31:14.999Z</time>
      </trkpt>
      <trkpt lat="44.18299" lon="5.30336">
        <ele>792.3</ele>
        <time>2026-05-14T14:31:15.999Z</time>
      </trkpt>
      <trkpt lat="44.18299" lon="5.30336">
        <ele>792.2</ele>
        <time>2026-05-14T14:31:16.999Z</time>
      </trkpt>
      <trkpt lat="44.18299" lon="5.30336">
        <ele>792.3</ele>
        <time>2026-05-14T14:31:17.999Z</time>
      </trkpt>
      <trkpt lat="44.18299" lon="5.30335">
        <ele>792.3</ele>
        <time>2026-05-14T14:31:18.999Z</time>
      </trkpt>
      <trkpt lat="44.18299" lon="5.30335">
        <ele>792.3</ele>
        <time>2026-05-14T14:31:19.999Z</time>
      </trkpt>
      <trkpt lat="44.18299" lon="5.30335">
        <ele>792.3</ele>
        <time>2026-05-14T14:31:20.999Z</time>
      </trkpt>
      <trkpt lat="44.18299" lon="5.30335">
        <ele>792.4</ele>
        <time>2026-05-14T14:31:21.999Z</time>
      </trkpt>
      <trkpt lat="44.18299" lon="5.30335">
        <ele>792.3</ele>
        <time>2026-05-14T14:31:22.999Z</time>
      </trkpt>
      <trkpt lat="44.18299" lon="5.30335">
        <ele>792.3</ele>
        <time>2026-05-14T14:31:23.999Z</time>
      </trkpt>
      <trkpt lat="44.18299" lon="5.30335">
        <ele>792.3</ele>
        <time>2026-05-14T14:31:24.999Z</time>
      </trkpt>
      <trkpt lat="44.18299" lon="5.30335">
        <ele>792.4</ele>
        <time>2026-05-14T14:31:25.999Z</time>
      </trkpt>
      <trkpt lat="44.18299" lon="5.30335">
        <ele>792.5</ele>
        <time>2026-05-14T14:31:26.999Z</time>
      </trkpt>
      <trkpt lat="44.18299" lon="5.30335">
        <ele>792.8</ele>
        <time>2026-05-14T14:31:27.999Z</time>
      </trkpt>
      <trkpt lat="44.18299" lon="5.30335">
        <ele>793</ele>
        <time>2026-05-14T14:31:28.999Z</time>
      </trkpt>
      <trkpt lat="44.18299" lon="5.30335">
        <ele>793.1</ele>
        <time>2026-05-14T14:31:29.999Z</time>
      </trkpt>
      <trkpt lat="44.18299" lon="5.30335">
        <ele>793.1</ele>
        <time>2026-05-14T14:31:30.999Z</time>
      </trkpt>
      <trkpt lat="44.18299" lon="5.30335">
        <ele>793.6</ele>
        <time>2026-05-14T14:31:31.999Z</time>
      </trkpt>
      <trkpt lat="44.18299" lon="5.30334">
        <ele>793.5</ele>
        <time>2026-05-14T14:31:32.999Z</time>
      </trkpt>
      <trkpt lat="44.18299" lon="5.30334">
        <ele>793.8</ele>
        <time>2026-05-14T14:31:33.999Z</time>
      </trkpt>
      <trkpt lat="44.18299" lon="5.30334">
        <ele>794.3</ele>
        <time>2026-05-14T14:31:34.999Z</time>
      </trkpt>
      <trkpt lat="44.18299" lon="5.30334">
        <ele>794.6</ele>
        <time>2026-05-14T14:31:35.999Z</time>
      </trkpt>
      <trkpt lat="44.183" lon="5.30333">
        <ele>795.2</ele>
        <time>2026-05-14T14:31:36.999Z</time>
      </trkpt>
      <trkpt lat="44.183" lon="5.30331">
        <ele>795.4</ele>
        <time>2026-05-14T14:31:37.999Z</time>
      </trkpt>
      <trkpt lat="44.183" lon="5.30329">
        <ele>795.6</ele>
        <time>2026-05-14T14:31:38.999Z</time>
      </trkpt>
      <trkpt lat="44.183" lon="5.30329">
        <ele>795.8</ele>
        <time>2026-05-14T14:31:39.999Z</time>
      </trkpt>
      <trkpt lat="44.18301" lon="5.30328">
        <ele>796.1</ele>
        <time>2026-05-14T14:31:40.999Z</time>
      </trkpt>
      <trkpt lat="44.18301" lon="5.30328">
        <ele>795.9</ele>
        <time>2026-05-14T14:31:41.999Z</time>
      </trkpt>
      <trkpt lat="44.18301" lon="5.30329">
        <ele>795.9</ele>
        <time>2026-05-14T14:31:42.999Z</time>
      </trkpt>
      <trkpt lat="44.18301" lon="5.30329">
        <ele>795.9</ele>
        <time>2026-05-14T14:31:43.999Z</time>
      </trkpt>
      <trkpt lat="44.18301" lon="5.30329">
        <ele>795.9</ele>
        <time>2026-05-14T14:31:44.999Z</time>
      </trkpt>
      <trkpt lat="44.18301" lon="5.30329">
        <ele>795.9</ele>
        <time>2026-05-14T14:31:45.999Z</time>
      </trkpt>
      <trkpt lat="44.18301" lon="5.3033">
        <ele>795.7</ele>
        <time>2026-05-14T14:31:46.999Z</time>
      </trkpt>
      <trkpt lat="44.18301" lon="5.3033">
        <ele>795.7</ele>
        <time>2026-05-14T14:31:47.999Z</time>
      </trkpt>
      <trkpt lat="44.18301" lon="5.3033">
        <ele>795.7</ele>
        <time>2026-05-14T14:31:48.999Z</time>
      </trkpt>
      <trkpt lat="44.18301" lon="5.3033">
        <ele>795.7</ele>
        <time>2026-05-14T14:31:49.999Z</time>
      </trkpt>
      <trkpt lat="44.18301" lon="5.3033">
        <ele>795.6</ele>
        <time>2026-05-14T14:31:50.999Z</time>
      </trkpt>
      <trkpt lat="44.18301" lon="5.3033">
        <ele>796.1</ele>
        <time>2026-05-14T14:31:51.999Z</time>
      </trkpt>
      <trkpt lat="44.18301" lon="5.3033">
        <ele>796.3</ele>
        <time>2026-05-14T14:31:52.999Z</time>
      </trkpt>
      <trkpt lat="44.183" lon="5.3033">
        <ele>796.5</ele>
        <time>2026-05-14T14:31:53.999Z</time>
      </trkpt>
      <trkpt lat="44.183" lon="5.3033">
        <ele>796.3</ele>
        <time>2026-05-14T14:31:54.999Z</time>
      </trkpt>
      <trkpt lat="44.183" lon="5.3033">
        <ele>795.9</ele>
        <time>2026-05-14T14:31:55.999Z</time>
      </trkpt>
      <trkpt lat="44.183" lon="5.3033">
        <ele>795.6</ele>
        <time>2026-05-14T14:31:56.999Z</time>
      </trkpt>
      <trkpt lat="44.183" lon="5.3033">
        <ele>795.8</ele>
        <time>2026-05-14T14:31:57.999Z</time>
      </trkpt>
      <trkpt lat="44.183" lon="5.3033">
        <ele>796.3</ele>
        <time>2026-05-14T14:31:58.999Z</time>
      </trkpt>
      <trkpt lat="44.183" lon="5.3033">
        <ele>796.7</ele>
        <time>2026-05-14T14:31:59.999Z</time>
      </trkpt>
      <trkpt lat="44.18299" lon="5.30331">
        <ele>796.8</ele>
        <time>2026-05-14T14:32:00.999Z</time>
      </trkpt>
      <trkpt lat="44.18298" lon="5.30332">
        <ele>797</ele>
        <time>2026-05-14T14:32:01.999Z</time>
      </trkpt>
      <trkpt lat="44.18298" lon="5.30333">
        <ele>797.2</ele>
        <time>2026-05-14T14:32:02.999Z</time>
      </trkpt>
      <trkpt lat="44.18298" lon="5.30333">
        <ele>797.4</ele>
        <time>2026-05-14T14:32:03.999Z</time>
      </trkpt>
      <trkpt lat="44.18298" lon="5.30333">
        <ele>797.4</ele>
        <time>2026-05-14T14:32:04.999Z</time>
      </trkpt>
      <trkpt lat="44.18298" lon="5.30333">
        <ele>797.3</ele>
        <time>2026-05-14T14:32:05.999Z</time>
      </trkpt>
      <trkpt lat="44.18298" lon="5.30333">
        <ele>797.3</ele>
        <time>2026-05-14T14:32:06.999Z</time>
      </trkpt>
      <trkpt lat="44.18298" lon="5.30333">
        <ele>797.1</ele>
        <time>2026-05-14T14:32:07.999Z</time>
      </trkpt>
      <trkpt lat="44.18298" lon="5.30333">
        <ele>796.9</ele>
        <time>2026-05-14T14:32:08.999Z</time>
      </trkpt>
      <trkpt lat="44.18298" lon="5.30333">
        <ele>796.9</ele>
        <time>2026-05-14T14:32:09.999Z</time>
      </trkpt>
      <trkpt lat="44.18298" lon="5.30333">
        <ele>796.8</ele>
        <time>2026-05-14T14:32:10.999Z</time>
      </trkpt>
      <trkpt lat="44.18298" lon="5.30333">
        <ele>796.5</ele>
        <time>2026-05-14T14:32:11.999Z</time>
      </trkpt>
      <trkpt lat="44.18298" lon="5.30333">
        <ele>796.7</ele>
        <time>2026-05-14T14:32:12.999Z</time>
      </trkpt>
      <trkpt lat="44.18298" lon="5.30333">
        <ele>796.7</ele>
        <time>2026-05-14T14:32:13.999Z</time>
      </trkpt>
      <trkpt lat="44.18298" lon="5.30333">
        <ele>797.2</ele>
        <time>2026-05-14T14:32:14.999Z</time>
      </trkpt>
      <trkpt lat="44.18298" lon="5.30333">
        <ele>797.5</ele>
        <time>2026-05-14T14:32:15.999Z</time>
      </trkpt>
      <trkpt lat="44.18298" lon="5.30334">
        <ele>797.4</ele>
        <time>2026-05-14T14:32:16.999Z</time>
      </trkpt>
      <trkpt lat="44.18298" lon="5.30334">
        <ele>797.1</ele>
        <time>2026-05-14T14:32:17.999Z</time>
      </trkpt>
      <trkpt lat="44.18298" lon="5.30334">
        <ele>797.1</ele>
        <time>2026-05-14T14:32:18.999Z</time>
      </trkpt>
      <trkpt lat="44.18298" lon="5.30334">
        <ele>797</ele>
        <time>2026-05-14T14:32:19.999Z</time>
      </trkpt>
      <trkpt lat="44.18298" lon="5.30334">
        <ele>796.6</ele>
        <time>2026-05-14T14:32:20.999Z</time>
      </trkpt>
      <trkpt lat="44.18298" lon="5.30334">
        <ele>796</ele>
        <time>2026-05-14T14:32:21.999Z</time>
      </trkpt>
      <trkpt lat="44.18298" lon="5.30336">
        <ele>795.5</ele>
        <time>2026-05-14T14:32:22.999Z</time>
      </trkpt>
      <trkpt lat="44.18298" lon="5.30336">
        <ele>795.2</ele>
        <time>2026-05-14T14:32:23.999Z</time>
      </trkpt>
      <trkpt lat="44.18298" lon="5.30337">
        <ele>794.9</ele>
        <time>2026-05-14T14:32:24.999Z</time>
      </trkpt>
      <trkpt lat="44.18298" lon="5.30336">
        <ele>794.6</ele>
        <time>2026-05-14T14:32:25.999Z</time>
      </trkpt>
      <trkpt lat="44.18298" lon="5.30336">
        <ele>794.3</ele>
        <time>2026-05-14T14:32:26.999Z</time>
      </trkpt>
      <trkpt lat="44.18298" lon="5.30337">
        <ele>794.4</ele>
        <time>2026-05-14T14:32:27.999Z</time>
      </trkpt>
      <trkpt lat="44.18298" lon="5.30337">
        <ele>794.7</ele>
        <time>2026-05-14T14:32:28.999Z</time>
      </trkpt>
      <trkpt lat="44.18298" lon="5.30337">
        <ele>794.9</ele>
        <time>2026-05-14T14:32:29.999Z</time>
      </trkpt>
      <trkpt lat="44.18298" lon="5.30337">
        <ele>795</ele>
        <time>2026-05-14T14:32:30.999Z</time>
      </trkpt>
      <trkpt lat="44.18298" lon="5.30337">
        <ele>794.9</ele>
        <time>2026-05-14T14:32:31.999Z</time>
      </trkpt>
      <trkpt lat="44.18298" lon="5.30337">
        <ele>794.9</ele>
        <time>2026-05-14T14:32:32.999Z</time>
      </trkpt>
      <trkpt lat="44.18298" lon="5.30337">
        <ele>794.9</ele>
        <time>2026-05-14T14:32:33.999Z</time>
      </trkpt>
      <trkpt lat="44.18298" lon="5.30337">
        <ele>795.3</ele>
        <time>2026-05-14T14:32:34.999Z</time>
      </trkpt>
      <trkpt lat="44.18298" lon="5.30338">
        <ele>795.5</ele>
        <time>2026-05-14T14:32:35.999Z</time>
      </trkpt>
      <trkpt lat="44.18298" lon="5.30338">
        <ele>795.8</ele>
        <time>2026-05-14T14:32:36.999Z</time>
      </trkpt>
      <trkpt lat="44.18298" lon="5.30337">
        <ele>796.1</ele>
        <time>2026-05-14T14:32:37.999Z</time>
      </trkpt>
      <trkpt lat="44.18298" lon="5.30337">
        <ele>796.3</ele>
        <time>2026-05-14T14:32:38.999Z</time>
      </trkpt>
      <trkpt lat="44.18298" lon="5.30337">
        <ele>796.4</ele>
        <time>2026-05-14T14:32:39.999Z</time>
      </trkpt>
      <trkpt lat="44.18298" lon="5.30338">
        <ele>796.7</ele>
        <time>2026-05-14T14:32:40.999Z</time>
      </trkpt>
      <trkpt lat="44.18298" lon="5.30338">
        <ele>796.8</ele>
        <time>2026-05-14T14:32:41.999Z</time>
      </trkpt>
      <trkpt lat="44.18298" lon="5.30338">
        <ele>796.8</ele>
        <time>2026-05-14T14:32:42.999Z</time>
      </trkpt>
      <trkpt lat="44.18297" lon="5.3034">
        <ele>796.7</ele>
        <time>2026-05-14T14:32:43.999Z</time>
      </trkpt>
      <trkpt lat="44.18297" lon="5.30341">
        <ele>796.8</ele>
        <time>2026-05-14T14:32:44.999Z</time>
      </trkpt>
      <trkpt lat="44.18297" lon="5.30342">
        <ele>797</ele>
        <time>2026-05-14T14:32:45.999Z</time>
      </trkpt>
      <trkpt lat="44.18297" lon="5.30341">
        <ele>796.6</ele>
        <time>2026-05-14T14:32:46.999Z</time>
      </trkpt>
      <trkpt lat="44.18297" lon="5.30341">
        <ele>796.3</ele>
        <time>2026-05-14T14:32:47.999Z</time>
      </trkpt>
      <trkpt lat="44.18296" lon="5.30341">
        <ele>795.5</ele>
        <time>2026-05-14T14:32:48.999Z</time>
      </trkpt>
      <trkpt lat="44.18296" lon="5.30341">
        <ele>795.1</ele>
        <time>2026-05-14T14:32:49.999Z</time>
      </trkpt>
      <trkpt lat="44.18296" lon="5.3034">
        <ele>794.9</ele>
        <time>2026-05-14T14:32:50.999Z</time>
      </trkpt>
      <trkpt lat="44.18296" lon="5.3034">
        <ele>794.9</ele>
        <time>2026-05-14T14:32:51.999Z</time>
      </trkpt>
      <trkpt lat="44.18296" lon="5.3034">
        <ele>794.8</ele>
        <time>2026-05-14T14:32:52.999Z</time>
      </trkpt>
      <trkpt lat="44.18296" lon="5.3034">
        <ele>794.7</ele>
        <time>2026-05-14T14:32:53.999Z</time>
      </trkpt>
      <trkpt lat="44.18296" lon="5.3034">
        <ele>794.7</ele>
        <time>2026-05-14T14:32:54.999Z</time>
      </trkpt>
      <trkpt lat="44.18296" lon="5.3034">
        <ele>794.6</ele>
        <time>2026-05-14T14:32:55.999Z</time>
      </trkpt>
      <trkpt lat="44.18296" lon="5.3034">
        <ele>794.9</ele>
        <time>2026-05-14T14:32:56.999Z</time>
      </trkpt>
      <trkpt lat="44.18296" lon="5.3034">
        <ele>794.9</ele>
        <time>2026-05-14T14:32:57.999Z</time>
      </trkpt>
      <trkpt lat="44.18296" lon="5.3034">
        <ele>794.9</ele>
        <time>2026-05-14T14:32:58.999Z</time>
      </trkpt>
      <trkpt lat="44.18296" lon="5.3034">
        <ele>795</ele>
        <time>2026-05-14T14:32:59.999Z</time>
      </trkpt>
      <trkpt lat="44.18296" lon="5.3034">
        <ele>794.9</ele>
        <time>2026-05-14T14:33:00.999Z</time>
      </trkpt>
      <trkpt lat="44.18296" lon="5.3034">
        <ele>795</ele>
        <time>2026-05-14T14:33:01.999Z</time>
      </trkpt>
      <trkpt lat="44.18296" lon="5.3034">
        <ele>795</ele>
        <time>2026-05-14T14:33:02.999Z</time>
      </trkpt>
      <trkpt lat="44.18295" lon="5.3034">
        <ele>794.9</ele>
        <time>2026-05-14T14:33:03.999Z</time>
      </trkpt>
      <trkpt lat="44.18295" lon="5.3034">
        <ele>794.6</ele>
        <time>2026-05-14T14:33:04.999Z</time>
      </trkpt>
      <trkpt lat="44.18295" lon="5.3034">
        <ele>794.3</ele>
        <time>2026-05-14T14:33:05.999Z</time>
      </trkpt>
      <trkpt lat="44.18295" lon="5.3034">
        <ele>794.1</ele>
        <time>2026-05-14T14:33:06.999Z</time>
      </trkpt>
      <trkpt lat="44.18295" lon="5.3034">
        <ele>794.1</ele>
        <time>2026-05-14T14:33:07.999Z</time>
      </trkpt>
      <trkpt lat="44.18295" lon="5.30339">
        <ele>794.1</ele>
        <time>2026-05-14T14:33:08.999Z</time>
      </trkpt>
      <trkpt lat="44.18295" lon="5.30339">
        <ele>794.2</ele>
        <time>2026-05-14T14:33:09.999Z</time>
      </trkpt>
      <trkpt lat="44.18295" lon="5.30339">
        <ele>794.1</ele>
        <time>2026-05-14T14:33:10.999Z</time>
      </trkpt>
      <trkpt lat="44.18295" lon="5.30339">
        <ele>794.2</ele>
        <time>2026-05-14T14:33:11.999Z</time>
      </trkpt>
      <trkpt lat="44.18295" lon="5.30339">
        <ele>793.9</ele>
        <time>2026-05-14T14:33:12.999Z</time>
      </trkpt>
      <trkpt lat="44.18295" lon="5.30339">
        <ele>793.8</ele>
        <time>2026-05-14T14:33:13.999Z</time>
      </trkpt>
      <trkpt lat="44.18295" lon="5.30339">
        <ele>793.7</ele>
        <time>2026-05-14T14:33:14.999Z</time>
      </trkpt>
      <trkpt lat="44.18295" lon="5.30339">
        <ele>793.7</ele>
        <time>2026-05-14T14:33:15.999Z</time>
      </trkpt>
      <trkpt lat="44.18295" lon="5.30339">
        <ele>793.8</ele>
        <time>2026-05-14T14:33:16.999Z</time>
      </trkpt>
      <trkpt lat="44.18295" lon="5.30339">
        <ele>793.7</ele>
        <time>2026-05-14T14:33:17.999Z</time>
      </trkpt>
      <trkpt lat="44.18294" lon="5.30339">
        <ele>793.6</ele>
        <time>2026-05-14T14:33:18.999Z</time>
      </trkpt>
      <trkpt lat="44.18295" lon="5.30339">
        <ele>793.7</ele>
        <time>2026-05-14T14:33:19.999Z</time>
      </trkpt>
      <trkpt lat="44.18295" lon="5.30338">
        <ele>793.9</ele>
        <time>2026-05-14T14:33:20.999Z</time>
      </trkpt>
      <trkpt lat="44.18295" lon="5.30338">
        <ele>793.9</ele>
        <time>2026-05-14T14:33:21.999Z</time>
      </trkpt>
      <trkpt lat="44.18295" lon="5.30338">
        <ele>793.7</ele>
        <time>2026-05-14T14:33:22.999Z</time>
      </trkpt>
      <trkpt lat="44.18295" lon="5.30339">
        <ele>793.8</ele>
        <time>2026-05-14T14:33:23.999Z</time>
      </trkpt>
      <trkpt lat="44.18295" lon="5.30339">
        <ele>794.1</ele>
        <time>2026-05-14T14:33:24.999Z</time>
      </trkpt>
      <trkpt lat="44.18296" lon="5.30337">
        <ele>794.4</ele>
        <time>2026-05-14T14:33:25.999Z</time>
      </trkpt>
      <trkpt lat="44.18297" lon="5.30337">
        <ele>794.4</ele>
        <time>2026-05-14T14:33:26.999Z</time>
      </trkpt>
      <trkpt lat="44.18298" lon="5.30335">
        <ele>794.3</ele>
        <time>2026-05-14T14:33:27.999Z</time>
      </trkpt>
      <trkpt lat="44.18296" lon="5.30335">
        <ele>794.6</ele>
        <time>2026-05-14T14:33:28.999Z</time>
      </trkpt>
      <trkpt lat="44.18295" lon="5.30336">
        <ele>795</ele>
        <time>2026-05-14T14:33:29.999Z</time>
      </trkpt>
      <trkpt lat="44.18295" lon="5.30337">
        <ele>795.1</ele>
        <time>2026-05-14T14:33:30.999Z</time>
      </trkpt>
      <trkpt lat="44.18295" lon="5.30337">
        <ele>794.3</ele>
        <time>2026-05-14T14:33:31.999Z</time>
      </trkpt>
      <trkpt lat="44.18295" lon="5.30337">
        <ele>794.3</ele>
        <time>2026-05-14T14:33:32.999Z</time>
      </trkpt>
      <trkpt lat="44.18295" lon="5.30337">
        <ele>794.5</ele>
        <time>2026-05-14T14:33:33.999Z</time>
      </trkpt>
      <trkpt lat="44.18295" lon="5.30337">
        <ele>794.3</ele>
        <time>2026-05-14T14:33:34.999Z</time>
      </trkpt>
      <trkpt lat="44.18295" lon="5.30337">
        <ele>794.2</ele>
        <time>2026-05-14T14:33:35.999Z</time>
      </trkpt>
      <trkpt lat="44.18295" lon="5.30337">
        <ele>794.1</ele>
        <time>2026-05-14T14:33:36.999Z</time>
      </trkpt>
      <trkpt lat="44.18294" lon="5.30337">
        <ele>794.4</ele>
        <time>2026-05-14T14:33:37.999Z</time>
      </trkpt>
      <trkpt lat="44.18294" lon="5.30337">
        <ele>794.2</ele>
        <time>2026-05-14T14:33:38.999Z</time>
      </trkpt>
      <trkpt lat="44.18294" lon="5.30337">
        <ele>794.1</ele>
        <time>2026-05-14T14:33:39.999Z</time>
      </trkpt>
      <trkpt lat="44.18295" lon="5.30337">
        <ele>794.4</ele>
        <time>2026-05-14T14:33:40.999Z</time>
      </trkpt>
      <trkpt lat="44.18295" lon="5.30337">
        <ele>794.2</ele>
        <time>2026-05-14T14:33:41.999Z</time>
      </trkpt>
      <trkpt lat="44.18295" lon="5.30337">
        <ele>794.2</ele>
        <time>2026-05-14T14:33:42.999Z</time>
      </trkpt>
      <trkpt lat="44.18295" lon="5.30337">
        <ele>794.1</ele>
        <time>2026-05-14T14:33:43.999Z</time>
      </trkpt>
      <trkpt lat="44.18295" lon="5.30336">
        <ele>794.1</ele>
        <time>2026-05-14T14:33:44.999Z</time>
      </trkpt>
      <trkpt lat="44.18295" lon="5.30337">
        <ele>794.2</ele>
        <time>2026-05-14T14:33:45.999Z</time>
      </trkpt>
      <trkpt lat="44.18295" lon="5.30337">
        <ele>794.2</ele>
        <time>2026-05-14T14:33:46.999Z</time>
      </trkpt>
      <trkpt lat="44.18295" lon="5.30337">
        <ele>794.3</ele>
        <time>2026-05-14T14:33:47.999Z</time>
      </trkpt>
      <trkpt lat="44.18295" lon="5.30337">
        <ele>794.3</ele>
        <time>2026-05-14T14:33:48.999Z</time>
      </trkpt>
      <trkpt lat="44.18295" lon="5.30336">
        <ele>794.1</ele>
        <time>2026-05-14T14:33:49.999Z</time>
      </trkpt>
      <trkpt lat="44.18295" lon="5.30336">
        <ele>794.1</ele>
        <time>2026-05-14T14:33:50.999Z</time>
      </trkpt>
      <trkpt lat="44.18295" lon="5.30336">
        <ele>794.1</ele>
        <time>2026-05-14T14:33:51.999Z</time>
      </trkpt>
      <trkpt lat="44.18295" lon="5.30336">
        <ele>794.2</ele>
        <time>2026-05-14T14:33:52.999Z</time>
      </trkpt>
      <trkpt lat="44.18295" lon="5.30336">
        <ele>794.2</ele>
        <time>2026-05-14T14:33:53.999Z</time>
      </trkpt>
      <trkpt lat="44.18294" lon="5.30334">
        <ele>794.3</ele>
        <time>2026-05-14T14:33:54.999Z</time>
      </trkpt>
      <trkpt lat="44.18295" lon="5.30333">
        <ele>794.5</ele>
        <time>2026-05-14T14:33:55.999Z</time>
      </trkpt>
      <trkpt lat="44.18295" lon="5.30333">
        <ele>794.8</ele>
        <time>2026-05-14T14:33:56.999Z</time>
      </trkpt>
      <trkpt lat="44.18296" lon="5.30332">
        <ele>795.2</ele>
        <time>2026-05-14T14:33:57.999Z</time>
      </trkpt>
      <trkpt lat="44.18297" lon="5.30331">
        <ele>795.9</ele>
        <time>2026-05-14T14:33:58.999Z</time>
      </trkpt>
      <trkpt lat="44.18298" lon="5.30331">
        <ele>796.7</ele>
        <time>2026-05-14T14:33:59.999Z</time>
      </trkpt>
      <trkpt lat="44.18299" lon="5.30332">
        <ele>797.6</ele>
        <time>2026-05-14T14:34:00.999Z</time>
      </trkpt>
      <trkpt lat="44.18301" lon="5.30333">
        <ele>798.8</ele>
        <time>2026-05-14T14:34:01.999Z</time>
      </trkpt>
      <trkpt lat="44.18302" lon="5.30334">
        <ele>799.7</ele>
        <time>2026-05-14T14:34:02.999Z</time>
      </trkpt>
      <trkpt lat="44.18303" lon="5.30334">
        <ele>800.7</ele>
        <time>2026-05-14T14:34:03.999Z</time>
      </trkpt>
      <trkpt lat="44.18305" lon="5.30335">
        <ele>801.3</ele>
        <time>2026-05-14T14:34:04.999Z</time>
      </trkpt>
      <trkpt lat="44.18306" lon="5.30335">
        <ele>800</ele>
        <time>2026-05-14T14:34:05.999Z</time>
      </trkpt>
      <trkpt lat="44.18306" lon="5.30335">
        <ele>800.1</ele>
        <time>2026-05-14T14:34:06.999Z</time>
      </trkpt>
      <trkpt lat="44.18306" lon="5.30335">
        <ele>800.6</ele>
        <time>2026-05-14T14:34:07.999Z</time>
      </trkpt>
      <trkpt lat="44.18307" lon="5.30334">
        <ele>801.1</ele>
        <time>2026-05-14T14:34:08.999Z</time>
      </trkpt>
      <trkpt lat="44.18309" lon="5.30334">
        <ele>801.5</ele>
        <time>2026-05-14T14:34:09.999Z</time>
      </trkpt>
      <trkpt lat="44.1831" lon="5.30334">
        <ele>802</ele>
        <time>2026-05-14T14:34:10.999Z</time>
      </trkpt>
      <trkpt lat="44.18311" lon="5.30334">
        <ele>802.2</ele>
        <time>2026-05-14T14:34:11.999Z</time>
      </trkpt>
      <trkpt lat="44.1831" lon="5.30334">
        <ele>802.5</ele>
        <time>2026-05-14T14:34:12.999Z</time>
      </trkpt>
      <trkpt lat="44.1831" lon="5.30334">
        <ele>803</ele>
        <time>2026-05-14T14:34:13.999Z</time>
      </trkpt>
      <trkpt lat="44.18309" lon="5.30334">
        <ele>803.3</ele>
        <time>2026-05-14T14:34:14.999Z</time>
      </trkpt>
      <trkpt lat="44.18309" lon="5.30334">
        <ele>803.5</ele>
        <time>2026-05-14T14:34:15.999Z</time>
      </trkpt>
      <trkpt lat="44.18309" lon="5.30334">
        <ele>803.7</ele>
        <time>2026-05-14T14:34:16.999Z</time>
      </trkpt>
      <trkpt lat="44.18309" lon="5.30334">
        <ele>803.9</ele>
        <time>2026-05-14T14:34:17.999Z</time>
      </trkpt>
      <trkpt lat="44.18309" lon="5.30334">
        <ele>804</ele>
        <time>2026-05-14T14:34:18.999Z</time>
      </trkpt>
      <trkpt lat="44.18309" lon="5.30334">
        <ele>804</ele>
        <time>2026-05-14T14:34:19.999Z</time>
      </trkpt>
      <trkpt lat="44.18308" lon="5.30334">
        <ele>804.1</ele>
        <time>2026-05-14T14:34:20.999Z</time>
      </trkpt>
      <trkpt lat="44.18308" lon="5.30335">
        <ele>804.1</ele>
        <time>2026-05-14T14:34:21.999Z</time>
      </trkpt>
      <trkpt lat="44.18308" lon="5.30335">
        <ele>804.3</ele>
        <time>2026-05-14T14:34:22.999Z</time>
      </trkpt>
      <trkpt lat="44.18307" lon="5.30335">
        <ele>804.4</ele>
        <time>2026-05-14T14:34:23.999Z</time>
      </trkpt>
      <trkpt lat="44.18307" lon="5.30335">
        <ele>804.6</ele>
        <time>2026-05-14T14:34:24.999Z</time>
      </trkpt>
      <trkpt lat="44.18307" lon="5.30335">
        <ele>804.6</ele>
        <time>2026-05-14T14:34:25.999Z</time>
      </trkpt>
      <trkpt lat="44.18306" lon="5.30335">
        <ele>804.5</ele>
        <time>2026-05-14T14:34:26.999Z</time>
      </trkpt>
      <trkpt lat="44.18305" lon="5.30335">
        <ele>804.1</ele>
        <time>2026-05-14T14:34:27.999Z</time>
      </trkpt>
      <trkpt lat="44.18305" lon="5.30335">
        <ele>804</ele>
        <time>2026-05-14T14:34:28.999Z</time>
      </trkpt>
      <trkpt lat="44.18304" lon="5.30335">
        <ele>804.2</ele>
        <time>2026-05-14T14:34:29.999Z</time>
      </trkpt>
      <trkpt lat="44.18303" lon="5.30336">
        <ele>804.4</ele>
        <time>2026-05-14T14:34:30.999Z</time>
      </trkpt>
      <trkpt lat="44.18303" lon="5.30336">
        <ele>804.3</ele>
        <time>2026-05-14T14:34:31.999Z</time>
      </trkpt>
      <trkpt lat="44.18303" lon="5.30335">
        <ele>804.2</ele>
        <time>2026-05-14T14:34:32.999Z</time>
      </trkpt>
      <trkpt lat="44.18303" lon="5.30335">
        <ele>803.9</ele>
        <time>2026-05-14T14:34:33.999Z</time>
      </trkpt>
      <trkpt lat="44.18303" lon="5.30335">
        <ele>803.7</ele>
        <time>2026-05-14T14:34:34.999Z</time>
      </trkpt>
      <trkpt lat="44.18303" lon="5.30335">
        <ele>803.7</ele>
        <time>2026-05-14T14:34:35.999Z</time>
      </trkpt>
      <trkpt lat="44.18303" lon="5.30335">
        <ele>803.1</ele>
        <time>2026-05-14T14:34:36.999Z</time>
      </trkpt>
      <trkpt lat="44.18303" lon="5.30335">
        <ele>802.7</ele>
        <time>2026-05-14T14:34:37.999Z</time>
      </trkpt>
      <trkpt lat="44.18303" lon="5.30335">
        <ele>802.4</ele>
        <time>2026-05-14T14:34:38.999Z</time>
      </trkpt>
      <trkpt lat="44.18303" lon="5.30335">
        <ele>802</ele>
        <time>2026-05-14T14:34:39.999Z</time>
      </trkpt>
      <trkpt lat="44.18303" lon="5.30335">
        <ele>801.8</ele>
        <time>2026-05-14T14:34:40.999Z</time>
      </trkpt>
      <trkpt lat="44.18303" lon="5.30335">
        <ele>801.4</ele>
        <time>2026-05-14T14:34:41.999Z</time>
      </trkpt>
      <trkpt lat="44.18303" lon="5.30335">
        <ele>801.5</ele>
        <time>2026-05-14T14:34:42.999Z</time>
      </trkpt>
      <trkpt lat="44.18303" lon="5.30335">
        <ele>801.6</ele>
        <time>2026-05-14T14:34:43.999Z</time>
      </trkpt>
      <trkpt lat="44.18303" lon="5.30335">
        <ele>801.3</ele>
        <time>2026-05-14T14:34:44.999Z</time>
      </trkpt>
      <trkpt lat="44.18303" lon="5.30335">
        <ele>801.3</ele>
        <time>2026-05-14T14:34:45.999Z</time>
      </trkpt>
      <trkpt lat="44.18303" lon="5.30335">
        <ele>800.9</ele>
        <time>2026-05-14T14:34:46.999Z</time>
      </trkpt>
      <trkpt lat="44.18303" lon="5.30335">
        <ele>800.7</ele>
        <time>2026-05-14T14:34:47.999Z</time>
      </trkpt>
      <trkpt lat="44.18303" lon="5.30335">
        <ele>800.5</ele>
        <time>2026-05-14T14:34:48.999Z</time>
      </trkpt>
      <trkpt lat="44.18303" lon="5.30335">
        <ele>800.6</ele>
        <time>2026-05-14T14:34:49.999Z</time>
      </trkpt>
      <trkpt lat="44.18303" lon="5.30335">
        <ele>800.5</ele>
        <time>2026-05-14T14:34:50.999Z</time>
      </trkpt>
      <trkpt lat="44.18303" lon="5.30335">
        <ele>800.6</ele>
        <time>2026-05-14T14:34:51.999Z</time>
      </trkpt>
      <trkpt lat="44.18303" lon="5.30335">
        <ele>800.6</ele>
        <time>2026-05-14T14:34:52.999Z</time>
      </trkpt>
      <trkpt lat="44.18303" lon="5.30335">
        <ele>800.5</ele>
        <time>2026-05-14T14:34:53.999Z</time>
      </trkpt>
      <trkpt lat="44.18303" lon="5.30335">
        <ele>800.5</ele>
        <time>2026-05-14T14:34:54.999Z</time>
      </trkpt>
      <trkpt lat="44.18303" lon="5.30335">
        <ele>800.6</ele>
        <time>2026-05-14T14:34:55.999Z</time>
      </trkpt>
      <trkpt lat="44.18303" lon="5.30335">
        <ele>800.6</ele>
        <time>2026-05-14T14:34:56.999Z</time>
      </trkpt>
      <trkpt lat="44.18302" lon="5.30336">
        <ele>800.6</ele>
        <time>2026-05-14T14:34:57.999Z</time>
      </trkpt>
      <trkpt lat="44.18302" lon="5.30337">
        <ele>800.8</ele>
        <time>2026-05-14T14:34:58.999Z</time>
      </trkpt>
      <trkpt lat="44.18302" lon="5.30338">
        <ele>801.2</ele>
        <time>2026-05-14T14:34:59.999Z</time>
      </trkpt>
      <trkpt lat="44.18302" lon="5.3034">
        <ele>801.2</ele>
        <time>2026-05-14T14:35:00.999Z</time>
      </trkpt>
      <trkpt lat="44.18302" lon="5.30341">
        <ele>801.3</ele>
        <time>2026-05-14T14:35:01.999Z</time>
      </trkpt>
      <trkpt lat="44.18301" lon="5.30342">
        <ele>801.1</ele>
        <time>2026-05-14T14:35:02.999Z</time>
      </trkpt>
      <trkpt lat="44.18301" lon="5.30342">
        <ele>801</ele>
        <time>2026-05-14T14:35:03.999Z</time>
      </trkpt>
      <trkpt lat="44.183" lon="5.30342">
        <ele>801</ele>
        <time>2026-05-14T14:35:04.999Z</time>
      </trkpt>
      <trkpt lat="44.183" lon="5.30342">
        <ele>800.8</ele>
        <time>2026-05-14T14:35:05.999Z</time>
      </trkpt>
      <trkpt lat="44.183" lon="5.30342">
        <ele>800.4</ele>
        <time>2026-05-14T14:35:06.999Z</time>
      </trkpt>
      <trkpt lat="44.183" lon="5.30342">
        <ele>800.3</ele>
        <time>2026-05-14T14:35:07.999Z</time>
      </trkpt>
      <trkpt lat="44.183" lon="5.30342">
        <ele>800.3</ele>
        <time>2026-05-14T14:35:08.999Z</time>
      </trkpt>
      <trkpt lat="44.183" lon="5.30343">
        <ele>801.2</ele>
        <time>2026-05-14T14:35:09.999Z</time>
      </trkpt>
      <trkpt lat="44.18299" lon="5.30343">
        <ele>800.8</ele>
        <time>2026-05-14T14:35:10.999Z</time>
      </trkpt>
      <trkpt lat="44.18299" lon="5.30342">
        <ele>800.6</ele>
        <time>2026-05-14T14:35:11.999Z</time>
      </trkpt>
      <trkpt lat="44.18299" lon="5.30342">
        <ele>800.5</ele>
        <time>2026-05-14T14:35:12.999Z</time>
      </trkpt>
      <trkpt lat="44.18299" lon="5.30342">
        <ele>800.2</ele>
        <time>2026-05-14T14:35:13.999Z</time>
      </trkpt>
      <trkpt lat="44.18299" lon="5.30342">
        <ele>800.6</ele>
        <time>2026-05-14T14:35:14.999Z</time>
      </trkpt>
      <trkpt lat="44.18299" lon="5.30342">
        <ele>800.4</ele>
        <time>2026-05-14T14:35:15.999Z</time>
      </trkpt>
      <trkpt lat="44.18299" lon="5.30342">
        <ele>800.4</ele>
        <time>2026-05-14T14:35:16.999Z</time>
      </trkpt>
      <trkpt lat="44.18299" lon="5.30342">
        <ele>800.5</ele>
        <time>2026-05-14T14:35:17.999Z</time>
      </trkpt>
      <trkpt lat="44.18299" lon="5.30342">
        <ele>800.5</ele>
        <time>2026-05-14T14:35:18.999Z</time>
      </trkpt>
      <trkpt lat="44.18299" lon="5.30342">
        <ele>800.3</ele>
        <time>2026-05-14T14:35:19.999Z</time>
      </trkpt>
      <trkpt lat="44.18299" lon="5.30342">
        <ele>800.2</ele>
        <time>2026-05-14T14:35:20.999Z</time>
      </trkpt>
      <trkpt lat="44.18299" lon="5.30342">
        <ele>800</ele>
        <time>2026-05-14T14:35:21.999Z</time>
      </trkpt>
      <trkpt lat="44.18299" lon="5.30342">
        <ele>799.8</ele>
        <time>2026-05-14T14:35:22.999Z</time>
      </trkpt>
      <trkpt lat="44.18299" lon="5.30342">
        <ele>799.8</ele>
        <time>2026-05-14T14:35:23.999Z</time>
      </trkpt>
      <trkpt lat="44.18299" lon="5.30342">
        <ele>799.8</ele>
        <time>2026-05-14T14:35:24.999Z</time>
      </trkpt>
      <trkpt lat="44.18299" lon="5.30342">
        <ele>799.6</ele>
        <time>2026-05-14T14:35:25.999Z</time>
      </trkpt>
      <trkpt lat="44.18299" lon="5.30341">
        <ele>799.3</ele>
        <time>2026-05-14T14:35:26.999Z</time>
      </trkpt>
      <trkpt lat="44.18299" lon="5.30341">
        <ele>799.3</ele>
        <time>2026-05-14T14:35:27.999Z</time>
      </trkpt>
      <trkpt lat="44.18299" lon="5.30341">
        <ele>799.3</ele>
        <time>2026-05-14T14:35:28.999Z</time>
      </trkpt>
      <trkpt lat="44.18299" lon="5.30341">
        <ele>799.3</ele>
        <time>2026-05-14T14:35:29.999Z</time>
      </trkpt>
      <trkpt lat="44.18299" lon="5.30341">
        <ele>799</ele>
        <time>2026-05-14T14:35:30.999Z</time>
      </trkpt>
      <trkpt lat="44.18299" lon="5.30341">
        <ele>799.1</ele>
        <time>2026-05-14T14:35:31.999Z</time>
      </trkpt>
      <trkpt lat="44.18299" lon="5.30341">
        <ele>799</ele>
        <time>2026-05-14T14:35:32.999Z</time>
      </trkpt>
      <trkpt lat="44.18299" lon="5.30341">
        <ele>799</ele>
        <time>2026-05-14T14:35:33.999Z</time>
      </trkpt>
      <trkpt lat="44.18299" lon="5.30341">
        <ele>798.8</ele>
        <time>2026-05-14T14:35:34.999Z</time>
      </trkpt>
      <trkpt lat="44.18299" lon="5.30341">
        <ele>798.6</ele>
        <time>2026-05-14T14:35:35.999Z</time>
      </trkpt>
      <trkpt lat="44.18299" lon="5.30341">
        <ele>798.6</ele>
        <time>2026-05-14T14:35:36.999Z</time>
      </trkpt>
      <trkpt lat="44.18299" lon="5.30341">
        <ele>798.6</ele>
        <time>2026-05-14T14:35:37.999Z</time>
      </trkpt>
      <trkpt lat="44.18299" lon="5.30341">
        <ele>798.6</ele>
        <time>2026-05-14T14:35:38.999Z</time>
      </trkpt>
      <trkpt lat="44.18299" lon="5.30341">
        <ele>798.4</ele>
        <time>2026-05-14T14:35:39.999Z</time>
      </trkpt>
      <trkpt lat="44.18299" lon="5.30341">
        <ele>798.3</ele>
        <time>2026-05-14T14:35:40.999Z</time>
      </trkpt>
      <trkpt lat="44.18299" lon="5.3034">
        <ele>798.2</ele>
        <time>2026-05-14T14:35:41.999Z</time>
      </trkpt>
      <trkpt lat="44.18299" lon="5.3034">
        <ele>798.1</ele>
        <time>2026-05-14T14:35:42.999Z</time>
      </trkpt>
      <trkpt lat="44.18299" lon="5.3034">
        <ele>798.1</ele>
        <time>2026-05-14T14:35:43.999Z</time>
      </trkpt>
      <trkpt lat="44.18299" lon="5.3034">
        <ele>798.1</ele>
        <time>2026-05-14T14:35:44.999Z</time>
      </trkpt>
      <trkpt lat="44.18299" lon="5.3034">
        <ele>798.2</ele>
        <time>2026-05-14T14:35:45.999Z</time>
      </trkpt>
      <trkpt lat="44.18298" lon="5.3034">
        <ele>798.1</ele>
        <time>2026-05-14T14:35:46.999Z</time>
      </trkpt>
      <trkpt lat="44.18297" lon="5.3034">
        <ele>798.2</ele>
        <time>2026-05-14T14:35:47.999Z</time>
      </trkpt>
      <trkpt lat="44.18297" lon="5.3034">
        <ele>798.3</ele>
        <time>2026-05-14T14:35:48.999Z</time>
      </trkpt>
      <trkpt lat="44.18298" lon="5.3034">
        <ele>798.5</ele>
        <time>2026-05-14T14:35:49.999Z</time>
      </trkpt>
      <trkpt lat="44.18298" lon="5.3034">
        <ele>798.7</ele>
        <time>2026-05-14T14:35:50.999Z</time>
      </trkpt>
      <trkpt lat="44.18298" lon="5.3034">
        <ele>799.1</ele>
        <time>2026-05-14T14:35:51.999Z</time>
      </trkpt>
      <trkpt lat="44.18298" lon="5.3034">
        <ele>799.3</ele>
        <time>2026-05-14T14:35:52.999Z</time>
      </trkpt>
      <trkpt lat="44.18298" lon="5.3034">
        <ele>799.8</ele>
        <time>2026-05-14T14:35:53.999Z</time>
      </trkpt>
      <trkpt lat="44.18299" lon="5.30339">
        <ele>800.1</ele>
        <time>2026-05-14T14:35:54.999Z</time>
      </trkpt>
      <trkpt lat="44.18299" lon="5.30339">
        <ele>800.1</ele>
        <time>2026-05-14T14:35:55.999Z</time>
      </trkpt>
      <trkpt lat="44.18299" lon="5.30339">
        <ele>800.1</ele>
        <time>2026-05-14T14:35:56.999Z</time>
      </trkpt>
      <trkpt lat="44.18299" lon="5.30339">
        <ele>800.2</ele>
        <time>2026-05-14T14:35:57.999Z</time>
      </trkpt>
      <trkpt lat="44.18299" lon="5.30339">
        <ele>800.4</ele>
        <time>2026-05-14T14:35:58.999Z</time>
      </trkpt>
      <trkpt lat="44.18299" lon="5.3034">
        <ele>800.7</ele>
        <time>2026-05-14T14:35:59.999Z</time>
      </trkpt>
      <trkpt lat="44.18299" lon="5.3034">
        <ele>800.8</ele>
        <time>2026-05-14T14:36:00.999Z</time>
      </trkpt>
      <trkpt lat="44.18299" lon="5.3034">
        <ele>800.7</ele>
        <time>2026-05-14T14:36:01.999Z</time>
      </trkpt>
      <trkpt lat="44.18299" lon="5.3034">
        <ele>800.7</ele>
        <time>2026-05-14T14:36:02.999Z</time>
      </trkpt>
      <trkpt lat="44.18299" lon="5.3034">
        <ele>800.7</ele>
        <time>2026-05-14T14:36:03.999Z</time>
      </trkpt>
      <trkpt lat="44.18299" lon="5.3034">
        <ele>800.7</ele>
        <time>2026-05-14T14:36:04.999Z</time>
      </trkpt>
      <trkpt lat="44.18299" lon="5.3034">
        <ele>800.6</ele>
        <time>2026-05-14T14:36:05.999Z</time>
      </trkpt>
      <trkpt lat="44.18299" lon="5.3034">
        <ele>800.5</ele>
        <time>2026-05-14T14:36:06.999Z</time>
      </trkpt>
      <trkpt lat="44.18299" lon="5.30339">
        <ele>800.3</ele>
        <time>2026-05-14T14:36:07.999Z</time>
      </trkpt>
      <trkpt lat="44.18299" lon="5.30339">
        <ele>800.1</ele>
        <time>2026-05-14T14:36:08.999Z</time>
      </trkpt>
      <trkpt lat="44.18299" lon="5.30339">
        <ele>799.7</ele>
        <time>2026-05-14T14:36:09.999Z</time>
      </trkpt>
      <trkpt lat="44.18299" lon="5.30339">
        <ele>799.5</ele>
        <time>2026-05-14T14:36:10.999Z</time>
      </trkpt>
      <trkpt lat="44.183" lon="5.30339">
        <ele>799.1</ele>
        <time>2026-05-14T14:36:11.999Z</time>
      </trkpt>
      <trkpt lat="44.183" lon="5.30339">
        <ele>799.2</ele>
        <time>2026-05-14T14:36:12.999Z</time>
      </trkpt>
      <trkpt lat="44.183" lon="5.30339">
        <ele>799.2</ele>
        <time>2026-05-14T14:36:13.999Z</time>
      </trkpt>
      <trkpt lat="44.183" lon="5.30339">
        <ele>799.4</ele>
        <time>2026-05-14T14:36:14.999Z</time>
      </trkpt>
      <trkpt lat="44.183" lon="5.30338">
        <ele>799.4</ele>
        <time>2026-05-14T14:36:15.999Z</time>
      </trkpt>
      <trkpt lat="44.183" lon="5.30338">
        <ele>799.4</ele>
        <time>2026-05-14T14:36:16.999Z</time>
      </trkpt>
      <trkpt lat="44.183" lon="5.30338">
        <ele>799.2</ele>
        <time>2026-05-14T14:36:17.999Z</time>
      </trkpt>
      <trkpt lat="44.183" lon="5.30338">
        <ele>799.2</ele>
        <time>2026-05-14T14:36:18.999Z</time>
      </trkpt>
      <trkpt lat="44.183" lon="5.30338">
        <ele>799</ele>
        <time>2026-05-14T14:36:19.999Z</time>
      </trkpt>
      <trkpt lat="44.183" lon="5.30338">
        <ele>798.7</ele>
        <time>2026-05-14T14:36:20.999Z</time>
      </trkpt>
      <trkpt lat="44.183" lon="5.30338">
        <ele>798.3</ele>
        <time>2026-05-14T14:36:21.999Z</time>
      </trkpt>
      <trkpt lat="44.183" lon="5.30338">
        <ele>797.9</ele>
        <time>2026-05-14T14:36:22.999Z</time>
      </trkpt>
      <trkpt lat="44.183" lon="5.30338">
        <ele>797.7</ele>
        <time>2026-05-14T14:36:23.999Z</time>
      </trkpt>
      <trkpt lat="44.183" lon="5.30338">
        <ele>797.4</ele>
        <time>2026-05-14T14:36:24.999Z</time>
      </trkpt>
      <trkpt lat="44.183" lon="5.30336">
        <ele>797</ele>
        <time>2026-05-14T14:36:25.999Z</time>
      </trkpt>
      <trkpt lat="44.183" lon="5.30336">
        <ele>796.7</ele>
        <time>2026-05-14T14:36:26.999Z</time>
      </trkpt>
      <trkpt lat="44.183" lon="5.30336">
        <ele>796.5</ele>
        <time>2026-05-14T14:36:27.999Z</time>
      </trkpt>
      <trkpt lat="44.183" lon="5.30336">
        <ele>796.4</ele>
        <time>2026-05-14T14:36:28.999Z</time>
      </trkpt>
      <trkpt lat="44.183" lon="5.30336">
        <ele>796.6</ele>
        <time>2026-05-14T14:36:29.999Z</time>
      </trkpt>
      <trkpt lat="44.183" lon="5.30335">
        <ele>796.5</ele>
        <time>2026-05-14T14:36:30.999Z</time>
      </trkpt>
      <trkpt lat="44.183" lon="5.30335">
        <ele>796.4</ele>
        <time>2026-05-14T14:36:31.999Z</time>
      </trkpt>
      <trkpt lat="44.183" lon="5.30335">
        <ele>796.4</ele>
        <time>2026-05-14T14:36:32.999Z</time>
      </trkpt>
      <trkpt lat="44.183" lon="5.30335">
        <ele>796.5</ele>
        <time>2026-05-14T14:36:33.999Z</time>
      </trkpt>
      <trkpt lat="44.18299" lon="5.30335">
        <ele>796.5</ele>
        <time>2026-05-14T14:36:34.999Z</time>
      </trkpt>
      <trkpt lat="44.18299" lon="5.30335">
        <ele>796.6</ele>
        <time>2026-05-14T14:36:35.999Z</time>
      </trkpt>
      <trkpt lat="44.18299" lon="5.30335">
        <ele>796.5</ele>
        <time>2026-05-14T14:36:36.999Z</time>
      </trkpt>
      <trkpt lat="44.18299" lon="5.30335">
        <ele>796.5</ele>
        <time>2026-05-14T14:36:37.999Z</time>
      </trkpt>
      <trkpt lat="44.18299" lon="5.30335">
        <ele>796.6</ele>
        <time>2026-05-14T14:36:38.999Z</time>
      </trkpt>
      <trkpt lat="44.18299" lon="5.30335">
        <ele>796.6</ele>
        <time>2026-05-14T14:36:39.999Z</time>
      </trkpt>
      <trkpt lat="44.18299" lon="5.30335">
        <ele>796.7</ele>
        <time>2026-05-14T14:36:40.999Z</time>
      </trkpt>
      <trkpt lat="44.18299" lon="5.30335">
        <ele>796.9</ele>
        <time>2026-05-14T14:36:42.999Z</time>
      </trkpt>
      <trkpt lat="44.18299" lon="5.30335">
        <ele>797</ele>
        <time>2026-05-14T14:36:43.999Z</time>
      </trkpt>
      <trkpt lat="44.18299" lon="5.30335">
        <ele>796.9</ele>
        <time>2026-05-14T14:36:44.999Z</time>
      </trkpt>
      <trkpt lat="44.18299" lon="5.30335">
        <ele>796.8</ele>
        <time>2026-05-14T14:36:45.999Z</time>
      </trkpt>
      <trkpt lat="44.18299" lon="5.30335">
        <ele>796.2</ele>
        <time>2026-05-14T14:36:46.999Z</time>
      </trkpt>
      <trkpt lat="44.18299" lon="5.30335">
        <ele>796.1</ele>
        <time>2026-05-14T14:36:47.999Z</time>
      </trkpt>
      <trkpt lat="44.18299" lon="5.30335">
        <ele>796</ele>
        <time>2026-05-14T14:36:48.999Z</time>
      </trkpt>
      <trkpt lat="44.18299" lon="5.30335">
        <ele>796</ele>
        <time>2026-05-14T14:36:49.999Z</time>
      </trkpt>
      <trkpt lat="44.18299" lon="5.30335">
        <ele>795.9</ele>
        <time>2026-05-14T14:36:50.999Z</time>
      </trkpt>
      <trkpt lat="44.183" lon="5.30336">
        <ele>796</ele>
        <time>2026-05-14T14:36:51.999Z</time>
      </trkpt>
      <trkpt lat="44.183" lon="5.30336">
        <ele>795.9</ele>
        <time>2026-05-14T14:36:52.999Z</time>
      </trkpt>
      <trkpt lat="44.183" lon="5.30336">
        <ele>796.1</ele>
        <time>2026-05-14T14:36:53.999Z</time>
      </trkpt>
      <trkpt lat="44.183" lon="5.30336">
        <ele>796.2</ele>
        <time>2026-05-14T14:36:54.999Z</time>
      </trkpt>
      <trkpt lat="44.183" lon="5.30336">
        <ele>796.2</ele>
        <time>2026-05-14T14:36:55.999Z</time>
      </trkpt>
      <trkpt lat="44.183" lon="5.30336">
        <ele>796.2</ele>
        <time>2026-05-14T14:36:56.999Z</time>
      </trkpt>
      <trkpt lat="44.183" lon="5.30336">
        <ele>796.2</ele>
        <time>2026-05-14T14:36:57.999Z</time>
      </trkpt>
      <trkpt lat="44.183" lon="5.30336">
        <ele>796.1</ele>
        <time>2026-05-14T14:36:58.999Z</time>
      </trkpt>
      <trkpt lat="44.183" lon="5.30336">
        <ele>796.2</ele>
        <time>2026-05-14T14:36:59.999Z</time>
      </trkpt>
      <trkpt lat="44.183" lon="5.30336">
        <ele>796.3</ele>
        <time>2026-05-14T14:37:00.999Z</time>
      </trkpt>
      <trkpt lat="44.183" lon="5.30336">
        <ele>796.6</ele>
        <time>2026-05-14T14:37:01.999Z</time>
      </trkpt>
      <trkpt lat="44.183" lon="5.30336">
        <ele>796.9</ele>
        <time>2026-05-14T14:37:02.999Z</time>
      </trkpt>
      <trkpt lat="44.183" lon="5.30336">
        <ele>797.1</ele>
        <time>2026-05-14T14:37:03.999Z</time>
      </trkpt>
      <trkpt lat="44.183" lon="5.30336">
        <ele>797.2</ele>
        <time>2026-05-14T14:37:04.999Z</time>
      </trkpt>
      <trkpt lat="44.183" lon="5.30336">
        <ele>797.2</ele>
        <time>2026-05-14T14:37:05.999Z</time>
      </trkpt>
      <trkpt lat="44.183" lon="5.30336">
        <ele>797</ele>
        <time>2026-05-14T14:37:06.999Z</time>
      </trkpt>
      <trkpt lat="44.183" lon="5.30336">
        <ele>797</ele>
        <time>2026-05-14T14:37:07.999Z</time>
      </trkpt>
      <trkpt lat="44.183" lon="5.30336">
        <ele>796.8</ele>
        <time>2026-05-14T14:37:08.999Z</time>
      </trkpt>
      <trkpt lat="44.183" lon="5.30336">
        <ele>796.7</ele>
        <time>2026-05-14T14:37:09.999Z</time>
      </trkpt>
      <trkpt lat="44.183" lon="5.30336">
        <ele>796.4</ele>
        <time>2026-05-14T14:37:10.999Z</time>
      </trkpt>
      <trkpt lat="44.183" lon="5.30336">
        <ele>796.2</ele>
        <time>2026-05-14T14:37:11.999Z</time>
      </trkpt>
      <trkpt lat="44.183" lon="5.30336">
        <ele>796.1</ele>
        <time>2026-05-14T14:37:12.999Z</time>
      </trkpt>
      <trkpt lat="44.183" lon="5.30336">
        <ele>795.9</ele>
        <time>2026-05-14T14:37:13.999Z</time>
      </trkpt>
      <trkpt lat="44.183" lon="5.30336">
        <ele>795.9</ele>
        <time>2026-05-14T14:37:14.999Z</time>
      </trkpt>
      <trkpt lat="44.183" lon="5.30336">
        <ele>795.8</ele>
        <time>2026-05-14T14:37:15.999Z</time>
      </trkpt>
      <trkpt lat="44.183" lon="5.30336">
        <ele>795.6</ele>
        <time>2026-05-14T14:37:16.999Z</time>
      </trkpt>
      <trkpt lat="44.183" lon="5.30336">
        <ele>795.6</ele>
        <time>2026-05-14T14:37:17.999Z</time>
      </trkpt>
      <trkpt lat="44.183" lon="5.30335">
        <ele>795.4</ele>
        <time>2026-05-14T14:37:18.999Z</time>
      </trkpt>
      <trkpt lat="44.18299" lon="5.30335">
        <ele>795.3</ele>
        <time>2026-05-14T14:37:19.999Z</time>
      </trkpt>
      <trkpt lat="44.18299" lon="5.30334">
        <ele>795.4</ele>
        <time>2026-05-14T14:37:20.999Z</time>
      </trkpt>
      <trkpt lat="44.18299" lon="5.30334">
        <ele>795.4</ele>
        <time>2026-05-14T14:37:21.999Z</time>
      </trkpt>
      <trkpt lat="44.183" lon="5.30335">
        <ele>795.2</ele>
        <time>2026-05-14T14:37:22.999Z</time>
      </trkpt>
      <trkpt lat="44.183" lon="5.30334">
        <ele>795.3</ele>
        <time>2026-05-14T14:37:23.999Z</time>
      </trkpt>
      <trkpt lat="44.183" lon="5.30334">
        <ele>795.2</ele>
        <time>2026-05-14T14:37:24.999Z</time>
      </trkpt>
      <trkpt lat="44.183" lon="5.30333">
        <ele>795.2</ele>
        <time>2026-05-14T14:37:25.999Z</time>
      </trkpt>
      <trkpt lat="44.183" lon="5.30332">
        <ele>795.1</ele>
        <time>2026-05-14T14:37:26.999Z</time>
      </trkpt>
      <trkpt lat="44.18301" lon="5.30331">
        <ele>794.9</ele>
        <time>2026-05-14T14:37:27.999Z</time>
      </trkpt>
      <trkpt lat="44.18301" lon="5.30331">
        <ele>794.6</ele>
        <time>2026-05-14T14:37:28.999Z</time>
      </trkpt>
      <trkpt lat="44.18301" lon="5.30331">
        <ele>794.4</ele>
        <time>2026-05-14T14:37:29.999Z</time>
      </trkpt>
      <trkpt lat="44.18301" lon="5.30331">
        <ele>794.5</ele>
        <time>2026-05-14T14:37:30.999Z</time>
      </trkpt>
      <trkpt lat="44.18301" lon="5.30331">
        <ele>794.6</ele>
        <time>2026-05-14T14:37:31.999Z</time>
      </trkpt>
      <trkpt lat="44.18301" lon="5.30331">
        <ele>794.6</ele>
        <time>2026-05-14T14:37:32.999Z</time>
      </trkpt>
      <trkpt lat="44.18301" lon="5.30331">
        <ele>794.7</ele>
        <time>2026-05-14T14:37:33.999Z</time>
      </trkpt>
      <trkpt lat="44.18301" lon="5.30331">
        <ele>794.7</ele>
        <time>2026-05-14T14:37:34.999Z</time>
      </trkpt>
      <trkpt lat="44.18301" lon="5.30331">
        <ele>794.5</ele>
        <time>2026-05-14T14:37:35.999Z</time>
      </trkpt>
      <trkpt lat="44.18301" lon="5.30331">
        <ele>794.5</ele>
        <time>2026-05-14T14:37:36.999Z</time>
      </trkpt>
      <trkpt lat="44.18301" lon="5.30331">
        <ele>794.4</ele>
        <time>2026-05-14T14:37:37.999Z</time>
      </trkpt>
      <trkpt lat="44.18301" lon="5.30331">
        <ele>794.4</ele>
        <time>2026-05-14T14:37:38.999Z</time>
      </trkpt>
      <trkpt lat="44.18301" lon="5.30331">
        <ele>794.3</ele>
        <time>2026-05-14T14:37:39.999Z</time>
      </trkpt>
      <trkpt lat="44.18301" lon="5.30331">
        <ele>794.3</ele>
        <time>2026-05-14T14:37:40.999Z</time>
      </trkpt>
      <trkpt lat="44.18301" lon="5.30332">
        <ele>794.3</ele>
        <time>2026-05-14T14:37:41.999Z</time>
      </trkpt>
      <trkpt lat="44.18301" lon="5.30332">
        <ele>794.3</ele>
        <time>2026-05-14T14:37:42.999Z</time>
      </trkpt>
      <trkpt lat="44.18301" lon="5.30332">
        <ele>794.2</ele>
        <time>2026-05-14T14:37:43.999Z</time>
      </trkpt>
      <trkpt lat="44.18301" lon="5.30332">
        <ele>793.9</ele>
        <time>2026-05-14T14:37:44.999Z</time>
      </trkpt>
      <trkpt lat="44.18301" lon="5.30331">
        <ele>793.7</ele>
        <time>2026-05-14T14:37:45.999Z</time>
      </trkpt>
      <trkpt lat="44.18301" lon="5.30331">
        <ele>793.7</ele>
        <time>2026-05-14T14:37:46.999Z</time>
      </trkpt>
      <trkpt lat="44.18301" lon="5.30331">
        <ele>793.8</ele>
        <time>2026-05-14T14:37:47.999Z</time>
      </trkpt>
      <trkpt lat="44.18301" lon="5.30331">
        <ele>793.9</ele>
        <time>2026-05-14T14:37:48.999Z</time>
      </trkpt>
      <trkpt lat="44.18301" lon="5.30331">
        <ele>793.7</ele>
        <time>2026-05-14T14:37:49.999Z</time>
      </trkpt>
      <trkpt lat="44.18301" lon="5.30331">
        <ele>793.5</ele>
        <time>2026-05-14T14:37:50.999Z</time>
      </trkpt>
      <trkpt lat="44.18301" lon="5.30331">
        <ele>793.5</ele>
        <time>2026-05-14T14:37:51.999Z</time>
      </trkpt>
      <trkpt lat="44.18301" lon="5.30331">
        <ele>793.5</ele>
        <time>2026-05-14T14:37:52.999Z</time>
      </trkpt>
      <trkpt lat="44.18301" lon="5.30331">
        <ele>793.4</ele>
        <time>2026-05-14T14:37:53.999Z</time>
      </trkpt>
      <trkpt lat="44.18301" lon="5.30331">
        <ele>793.1</ele>
        <time>2026-05-14T14:37:54.999Z</time>
      </trkpt>
      <trkpt lat="44.18301" lon="5.30331">
        <ele>792.9</ele>
        <time>2026-05-14T14:37:55.999Z</time>
      </trkpt>
      <trkpt lat="44.18302" lon="5.30333">
        <ele>792.8</ele>
        <time>2026-05-14T14:37:56.999Z</time>
      </trkpt>
      <trkpt lat="44.18302" lon="5.30333">
        <ele>792.8</ele>
        <time>2026-05-14T14:37:57.999Z</time>
      </trkpt>
      <trkpt lat="44.18302" lon="5.30334">
        <ele>792.8</ele>
        <time>2026-05-14T14:37:58.999Z</time>
      </trkpt>
      <trkpt lat="44.18302" lon="5.30334">
        <ele>792.7</ele>
        <time>2026-05-14T14:37:59.999Z</time>
      </trkpt>
      <trkpt lat="44.18302" lon="5.30334">
        <ele>792.7</ele>
        <time>2026-05-14T14:38:00.999Z</time>
      </trkpt>
      <trkpt lat="44.18302" lon="5.30334">
        <ele>792.7</ele>
        <time>2026-05-14T14:38:01.999Z</time>
      </trkpt>
      <trkpt lat="44.18302" lon="5.30334">
        <ele>792.9</ele>
        <time>2026-05-14T14:38:02.999Z</time>
      </trkpt>
      <trkpt lat="44.18302" lon="5.30334">
        <ele>792.9</ele>
        <time>2026-05-14T14:38:03.999Z</time>
      </trkpt>
      <trkpt lat="44.18302" lon="5.30334">
        <ele>793.1</ele>
        <time>2026-05-14T14:38:04.999Z</time>
      </trkpt>
      <trkpt lat="44.18302" lon="5.30334">
        <ele>793.3</ele>
        <time>2026-05-14T14:38:05.999Z</time>
      </trkpt>
      <trkpt lat="44.18302" lon="5.30334">
        <ele>793.3</ele>
        <time>2026-05-14T14:38:06.999Z</time>
      </trkpt>
      <trkpt lat="44.18302" lon="5.30334">
        <ele>793.4</ele>
        <time>2026-05-14T14:38:07.999Z</time>
      </trkpt>
      <trkpt lat="44.18302" lon="5.30334">
        <ele>793.5</ele>
        <time>2026-05-14T14:38:08.999Z</time>
      </trkpt>
      <trkpt lat="44.18302" lon="5.30334">
        <ele>793.6</ele>
        <time>2026-05-14T14:38:09.999Z</time>
      </trkpt>
      <trkpt lat="44.18302" lon="5.30334">
        <ele>793.8</ele>
        <time>2026-05-14T14:38:10.999Z</time>
      </trkpt>
      <trkpt lat="44.18302" lon="5.30334">
        <ele>793.6</ele>
        <time>2026-05-14T14:38:11.999Z</time>
      </trkpt>
      <trkpt lat="44.18302" lon="5.30334">
        <ele>793.6</ele>
        <time>2026-05-14T14:38:12.999Z</time>
      </trkpt>
      <trkpt lat="44.18302" lon="5.30334">
        <ele>793.6</ele>
        <time>2026-05-14T14:38:13.999Z</time>
      </trkpt>
      <trkpt lat="44.18302" lon="5.30334">
        <ele>793.7</ele>
        <time>2026-05-14T14:38:14.999Z</time>
      </trkpt>
      <trkpt lat="44.18302" lon="5.30334">
        <ele>793.7</ele>
        <time>2026-05-14T14:38:15.999Z</time>
      </trkpt>
      <trkpt lat="44.18302" lon="5.30334">
        <ele>793.6</ele>
        <time>2026-05-14T14:38:16.999Z</time>
      </trkpt>
      <trkpt lat="44.18302" lon="5.30335">
        <ele>793.6</ele>
        <time>2026-05-14T14:38:17.999Z</time>
      </trkpt>
      <trkpt lat="44.18303" lon="5.30335">
        <ele>793.7</ele>
        <time>2026-05-14T14:38:18.999Z</time>
      </trkpt>
      <trkpt lat="44.18302" lon="5.30335">
        <ele>793.6</ele>
        <time>2026-05-14T14:38:19.999Z</time>
      </trkpt>
      <trkpt lat="44.18302" lon="5.30335">
        <ele>793.9</ele>
        <time>2026-05-14T14:38:20.999Z</time>
      </trkpt>
      <trkpt lat="44.18302" lon="5.30335">
        <ele>794</ele>
        <time>2026-05-14T14:38:21.999Z</time>
      </trkpt>
      <trkpt lat="44.18302" lon="5.30335">
        <ele>794</ele>
        <time>2026-05-14T14:38:22.999Z</time>
      </trkpt>
      <trkpt lat="44.18302" lon="5.30336">
        <ele>793.9</ele>
        <time>2026-05-14T14:38:23.999Z</time>
      </trkpt>
      <trkpt lat="44.18302" lon="5.30337">
        <ele>793.9</ele>
        <time>2026-05-14T14:38:24.999Z</time>
      </trkpt>
      <trkpt lat="44.18302" lon="5.30337">
        <ele>794.2</ele>
        <time>2026-05-14T14:38:25.999Z</time>
      </trkpt>
      <trkpt lat="44.18301" lon="5.30337">
        <ele>794.3</ele>
        <time>2026-05-14T14:38:26.999Z</time>
      </trkpt>
      <trkpt lat="44.18301" lon="5.30337">
        <ele>794.2</ele>
        <time>2026-05-14T14:38:27.999Z</time>
      </trkpt>
      <trkpt lat="44.18301" lon="5.30337">
        <ele>794.4</ele>
        <time>2026-05-14T14:38:28.999Z</time>
      </trkpt>
      <trkpt lat="44.18301" lon="5.30337">
        <ele>794.4</ele>
        <time>2026-05-14T14:38:29.999Z</time>
      </trkpt>
      <trkpt lat="44.18301" lon="5.30337">
        <ele>794.6</ele>
        <time>2026-05-14T14:38:30.999Z</time>
      </trkpt>
      <trkpt lat="44.18301" lon="5.30337">
        <ele>794.8</ele>
        <time>2026-05-14T14:38:31.999Z</time>
      </trkpt>
      <trkpt lat="44.18301" lon="5.30337">
        <ele>794.9</ele>
        <time>2026-05-14T14:38:32.999Z</time>
      </trkpt>
      <trkpt lat="44.18301" lon="5.30337">
        <ele>794.8</ele>
        <time>2026-05-14T14:38:33.999Z</time>
      </trkpt>
      <trkpt lat="44.18301" lon="5.30337">
        <ele>795</ele>
        <time>2026-05-14T14:38:34.999Z</time>
      </trkpt>
      <trkpt lat="44.18301" lon="5.30337">
        <ele>795.2</ele>
        <time>2026-05-14T14:38:35.999Z</time>
      </trkpt>
      <trkpt lat="44.18301" lon="5.30337">
        <ele>795.3</ele>
        <time>2026-05-14T14:38:36.999Z</time>
      </trkpt>
      <trkpt lat="44.18301" lon="5.30337">
        <ele>795.6</ele>
        <time>2026-05-14T14:38:37.999Z</time>
      </trkpt>
      <trkpt lat="44.18301" lon="5.30337">
        <ele>795.9</ele>
        <time>2026-05-14T14:38:38.999Z</time>
      </trkpt>
      <trkpt lat="44.18301" lon="5.30337">
        <ele>795.9</ele>
        <time>2026-05-14T14:38:39.999Z</time>
      </trkpt>
      <trkpt lat="44.18301" lon="5.30337">
        <ele>795.9</ele>
        <time>2026-05-14T14:38:40.999Z</time>
      </trkpt>
      <trkpt lat="44.18301" lon="5.30337">
        <ele>796.1</ele>
        <time>2026-05-14T14:38:41.999Z</time>
      </trkpt>
      <trkpt lat="44.18301" lon="5.30338">
        <ele>796.1</ele>
        <time>2026-05-14T14:38:43.999Z</time>
      </trkpt>
      <trkpt lat="44.18301" lon="5.30338">
        <ele>796.1</ele>
        <time>2026-05-14T14:38:44.999Z</time>
      </trkpt>
      <trkpt lat="44.18301" lon="5.30338">
        <ele>796.1</ele>
        <time>2026-05-14T14:38:45.999Z</time>
      </trkpt>
      <trkpt lat="44.18301" lon="5.30338">
        <ele>796</ele>
        <time>2026-05-14T14:38:46.999Z</time>
      </trkpt>
      <trkpt lat="44.183" lon="5.30337">
        <ele>795.7</ele>
        <time>2026-05-14T14:38:47.999Z</time>
      </trkpt>
      <trkpt lat="44.18299" lon="5.30337">
        <ele>795.4</ele>
        <time>2026-05-14T14:38:48.999Z</time>
      </trkpt>
      <trkpt lat="44.18299" lon="5.30335">
        <ele>795.4</ele>
        <time>2026-05-14T14:38:49.999Z</time>
      </trkpt>
      <trkpt lat="44.18299" lon="5.30333">
        <ele>795.3</ele>
        <time>2026-05-14T14:38:50.999Z</time>
      </trkpt>
      <trkpt lat="44.18299" lon="5.30333">
        <ele>795.5</ele>
        <time>2026-05-14T14:38:51.999Z</time>
      </trkpt>
      <trkpt lat="44.183" lon="5.30332">
        <ele>795.4</ele>
        <time>2026-05-14T14:38:52.999Z</time>
      </trkpt>
      <trkpt lat="44.183" lon="5.30332">
        <ele>795.5</ele>
        <time>2026-05-14T14:38:53.999Z</time>
      </trkpt>
      <trkpt lat="44.183" lon="5.30332">
        <ele>795.5</ele>
        <time>2026-05-14T14:38:54.999Z</time>
      </trkpt>
      <trkpt lat="44.183" lon="5.30332">
        <ele>795.5</ele>
        <time>2026-05-14T14:38:55.999Z</time>
      </trkpt>
      <trkpt lat="44.183" lon="5.30332">
        <ele>795.4</ele>
        <time>2026-05-14T14:38:56.999Z</time>
      </trkpt>
      <trkpt lat="44.183" lon="5.30333">
        <ele>795.6</ele>
        <time>2026-05-14T14:38:57.999Z</time>
      </trkpt>
      <trkpt lat="44.183" lon="5.30333">
        <ele>795.8</ele>
        <time>2026-05-14T14:38:58.999Z</time>
      </trkpt>
      <trkpt lat="44.183" lon="5.30333">
        <ele>795.9</ele>
        <time>2026-05-14T14:38:59.999Z</time>
      </trkpt>
      <trkpt lat="44.183" lon="5.30333">
        <ele>795.7</ele>
        <time>2026-05-14T14:39:01.999Z</time>
      </trkpt>
      <trkpt lat="44.183" lon="5.30333">
        <ele>795.6</ele>
        <time>2026-05-14T14:39:02.999Z</time>
      </trkpt>
      <trkpt lat="44.183" lon="5.30333">
        <ele>795.4</ele>
        <time>2026-05-14T14:39:03.999Z</time>
      </trkpt>
      <trkpt lat="44.183" lon="5.30333">
        <ele>795.2</ele>
        <time>2026-05-14T14:39:04.999Z</time>
      </trkpt>
      <trkpt lat="44.183" lon="5.30333">
        <ele>795.2</ele>
        <time>2026-05-14T14:39:05.999Z</time>
      </trkpt>
      <trkpt lat="44.183" lon="5.30333">
        <ele>795.3</ele>
        <time>2026-05-14T14:39:06.999Z</time>
      </trkpt>
      <trkpt lat="44.183" lon="5.30333">
        <ele>795.2</ele>
        <time>2026-05-14T14:39:07.999Z</time>
      </trkpt>
      <trkpt lat="44.183" lon="5.30333">
        <ele>795.4</ele>
        <time>2026-05-14T14:39:08.999Z</time>
      </trkpt>
      <trkpt lat="44.183" lon="5.30333">
        <ele>795.5</ele>
        <time>2026-05-14T14:39:09.999Z</time>
      </trkpt>
      <trkpt lat="44.183" lon="5.30333">
        <ele>795.6</ele>
        <time>2026-05-14T14:39:10.999Z</time>
      </trkpt>
      <trkpt lat="44.18301" lon="5.30334">
        <ele>795.6</ele>
        <time>2026-05-14T14:39:11.999Z</time>
      </trkpt>
      <trkpt lat="44.18301" lon="5.30334">
        <ele>795.6</ele>
        <time>2026-05-14T14:39:12.999Z</time>
      </trkpt>
      <trkpt lat="44.18301" lon="5.30334">
        <ele>795.4</ele>
        <time>2026-05-14T14:39:13.999Z</time>
      </trkpt>
      <trkpt lat="44.18301" lon="5.30334">
        <ele>795.4</ele>
        <time>2026-05-14T14:39:14.999Z</time>
      </trkpt>
      <trkpt lat="44.18301" lon="5.30334">
        <ele>795.3</ele>
        <time>2026-05-14T14:39:15.999Z</time>
      </trkpt>
      <trkpt lat="44.18301" lon="5.30334">
        <ele>795.2</ele>
        <time>2026-05-14T14:39:16.999Z</time>
      </trkpt>
      <trkpt lat="44.18301" lon="5.30334">
        <ele>795.1</ele>
        <time>2026-05-14T14:39:17.999Z</time>
      </trkpt>
      <trkpt lat="44.18301" lon="5.30334">
        <ele>795.2</ele>
        <time>2026-05-14T14:39:18.999Z</time>
      </trkpt>
      <trkpt lat="44.18301" lon="5.30334">
        <ele>795.3</ele>
        <time>2026-05-14T14:39:19.999Z</time>
      </trkpt>
      <trkpt lat="44.18301" lon="5.30334">
        <ele>795.4</ele>
        <time>2026-05-14T14:39:20.999Z</time>
      </trkpt>
      <trkpt lat="44.18301" lon="5.30334">
        <ele>795.3</ele>
        <time>2026-05-14T14:39:21.999Z</time>
      </trkpt>
      <trkpt lat="44.18301" lon="5.30334">
        <ele>795.2</ele>
        <time>2026-05-14T14:39:22.999Z</time>
      </trkpt>
      <trkpt lat="44.18301" lon="5.30334">
        <ele>795</ele>
        <time>2026-05-14T14:39:23.999Z</time>
      </trkpt>
      <trkpt lat="44.18302" lon="5.30334">
        <ele>794.9</ele>
        <time>2026-05-14T14:39:24.999Z</time>
      </trkpt>
      <trkpt lat="44.18301" lon="5.30334">
        <ele>794.8</ele>
        <time>2026-05-14T14:39:25.999Z</time>
      </trkpt>
      <trkpt lat="44.18301" lon="5.30333">
        <ele>794.8</ele>
        <time>2026-05-14T14:39:26.999Z</time>
      </trkpt>
      <trkpt lat="44.18301" lon="5.30333">
        <ele>794.8</ele>
        <time>2026-05-14T14:39:27.999Z</time>
      </trkpt>
      <trkpt lat="44.18301" lon="5.30333">
        <ele>794.9</ele>
        <time>2026-05-14T14:39:28.999Z</time>
      </trkpt>
      <trkpt lat="44.18301" lon="5.30333">
        <ele>794.8</ele>
        <time>2026-05-14T14:39:29.999Z</time>
      </trkpt>
      <trkpt lat="44.18301" lon="5.30333">
        <ele>794.7</ele>
        <time>2026-05-14T14:39:30.999Z</time>
      </trkpt>
      <trkpt lat="44.18301" lon="5.30333">
        <ele>794.7</ele>
        <time>2026-05-14T14:39:31.999Z</time>
      </trkpt>
      <trkpt lat="44.18301" lon="5.30333">
        <ele>794.7</ele>
        <time>2026-05-14T14:39:32.999Z</time>
      </trkpt>
      <trkpt lat="44.18301" lon="5.30333">
        <ele>794.8</ele>
        <time>2026-05-14T14:39:33.999Z</time>
      </trkpt>
      <trkpt lat="44.18301" lon="5.30333">
        <ele>795.1</ele>
        <time>2026-05-14T14:39:34.999Z</time>
      </trkpt>
      <trkpt lat="44.18301" lon="5.30333">
        <ele>795.2</ele>
        <time>2026-05-14T14:39:35.999Z</time>
      </trkpt>
      <trkpt lat="44.18301" lon="5.30333">
        <ele>795.2</ele>
        <time>2026-05-14T14:39:36.999Z</time>
      </trkpt>
      <trkpt lat="44.18301" lon="5.30333">
        <ele>795.3</ele>
        <time>2026-05-14T14:39:37.999Z</time>
      </trkpt>
      <trkpt lat="44.18301" lon="5.30333">
        <ele>795.2</ele>
        <time>2026-05-14T14:39:38.999Z</time>
      </trkpt>
      <trkpt lat="44.18301" lon="5.30333">
        <ele>795.2</ele>
        <time>2026-05-14T14:39:39.999Z</time>
      </trkpt>
      <trkpt lat="44.18301" lon="5.30333">
        <ele>795.1</ele>
        <time>2026-05-14T14:39:40.999Z</time>
      </trkpt>
      <trkpt lat="44.18301" lon="5.30334">
        <ele>795.2</ele>
        <time>2026-05-14T14:39:41.999Z</time>
      </trkpt>
      <trkpt lat="44.18301" lon="5.30334">
        <ele>795.3</ele>
        <time>2026-05-14T14:39:42.999Z</time>
      </trkpt>
      <trkpt lat="44.18301" lon="5.30334">
        <ele>795.4</ele>
        <time>2026-05-14T14:39:43.999Z</time>
      </trkpt>
      <trkpt lat="44.18301" lon="5.30334">
        <ele>795.4</ele>
        <time>2026-05-14T14:39:44.999Z</time>
      </trkpt>
      <trkpt lat="44.18301" lon="5.30334">
        <ele>795.4</ele>
        <time>2026-05-14T14:39:45.999Z</time>
      </trkpt>
      <trkpt lat="44.18301" lon="5.30334">
        <ele>795.5</ele>
        <time>2026-05-14T14:39:46.999Z</time>
      </trkpt>
      <trkpt lat="44.18301" lon="5.30334">
        <ele>795.5</ele>
        <time>2026-05-14T14:39:47.999Z</time>
      </trkpt>
      <trkpt lat="44.18301" lon="5.30334">
        <ele>795.5</ele>
        <time>2026-05-14T14:39:48.999Z</time>
      </trkpt>
      <trkpt lat="44.18301" lon="5.30334">
        <ele>795.7</ele>
        <time>2026-05-14T14:39:49.999Z</time>
      </trkpt>
      <trkpt lat="44.18301" lon="5.30334">
        <ele>795.8</ele>
        <time>2026-05-14T14:39:50.999Z</time>
      </trkpt>
      <trkpt lat="44.18301" lon="5.30334">
        <ele>795.9</ele>
        <time>2026-05-14T14:39:51.999Z</time>
      </trkpt>
      <trkpt lat="44.18301" lon="5.30334">
        <ele>795.9</ele>
        <time>2026-05-14T14:39:52.999Z</time>
      </trkpt>
      <trkpt lat="44.18301" lon="5.30334">
        <ele>795.8</ele>
        <time>2026-05-14T14:39:53.999Z</time>
      </trkpt>
      <trkpt lat="44.18301" lon="5.30334">
        <ele>795.7</ele>
        <time>2026-05-14T14:39:54.999Z</time>
      </trkpt>
      <trkpt lat="44.18301" lon="5.30334">
        <ele>795.7</ele>
        <time>2026-05-14T14:39:55.999Z</time>
      </trkpt>
      <trkpt lat="44.18301" lon="5.30334">
        <ele>796.1</ele>
        <time>2026-05-14T14:39:56.999Z</time>
      </trkpt>
      <trkpt lat="44.18301" lon="5.30334">
        <ele>796.2</ele>
        <time>2026-05-14T14:39:57.999Z</time>
      </trkpt>
      <trkpt lat="44.18301" lon="5.30334">
        <ele>796.7</ele>
        <time>2026-05-14T14:39:59.999Z</time>
      </trkpt>
      <trkpt lat="44.18301" lon="5.30334">
        <ele>796.5</ele>
        <time>2026-05-14T14:40:00.999Z</time>
      </trkpt>
      <trkpt lat="44.18302" lon="5.30335">
        <ele>796.6</ele>
        <time>2026-05-14T14:40:01.999Z</time>
      </trkpt>
      <trkpt lat="44.18302" lon="5.30337">
        <ele>796.6</ele>
        <time>2026-05-14T14:40:02.999Z</time>
      </trkpt>
      <trkpt lat="44.18302" lon="5.30338">
        <ele>796.8</ele>
        <time>2026-05-14T14:40:03.999Z</time>
      </trkpt>
      <trkpt lat="44.18302" lon="5.30338">
        <ele>796.8</ele>
        <time>2026-05-14T14:40:04.999Z</time>
      </trkpt>
      <trkpt lat="44.18302" lon="5.30338">
        <ele>796.8</ele>
        <time>2026-05-14T14:40:05.999Z</time>
      </trkpt>
      <trkpt lat="44.18302" lon="5.30338">
        <ele>796.9</ele>
        <time>2026-05-14T14:40:06.999Z</time>
      </trkpt>
      <trkpt lat="44.18302" lon="5.30338">
        <ele>797.1</ele>
        <time>2026-05-14T14:40:07.999Z</time>
      </trkpt>
      <trkpt lat="44.18302" lon="5.30338">
        <ele>797.2</ele>
        <time>2026-05-14T14:40:08.999Z</time>
      </trkpt>
      <trkpt lat="44.18302" lon="5.30338">
        <ele>797.4</ele>
        <time>2026-05-14T14:40:09.999Z</time>
      </trkpt>
      <trkpt lat="44.18302" lon="5.30337">
        <ele>797.4</ele>
        <time>2026-05-14T14:40:10.999Z</time>
      </trkpt>
      <trkpt lat="44.18302" lon="5.30337">
        <ele>797.4</ele>
        <time>2026-05-14T14:40:11.999Z</time>
      </trkpt>
      <trkpt lat="44.18302" lon="5.30337">
        <ele>797.5</ele>
        <time>2026-05-14T14:40:12.999Z</time>
      </trkpt>
      <trkpt lat="44.18302" lon="5.30337">
        <ele>797.4</ele>
        <time>2026-05-14T14:40:13.999Z</time>
      </trkpt>
      <trkpt lat="44.18302" lon="5.30337">
        <ele>797.5</ele>
        <time>2026-05-14T14:40:14.999Z</time>
      </trkpt>
      <trkpt lat="44.18302" lon="5.30337">
        <ele>797.5</ele>
        <time>2026-05-14T14:40:15.999Z</time>
      </trkpt>
      <trkpt lat="44.18302" lon="5.30337">
        <ele>797.6</ele>
        <time>2026-05-14T14:40:16.999Z</time>
      </trkpt>
      <trkpt lat="44.18302" lon="5.30337">
        <ele>797.7</ele>
        <time>2026-05-14T14:40:17.999Z</time>
      </trkpt>
      <trkpt lat="44.18302" lon="5.30338">
        <ele>797.9</ele>
        <time>2026-05-14T14:40:18.999Z</time>
      </trkpt>
      <trkpt lat="44.18302" lon="5.30338">
        <ele>797.8</ele>
        <time>2026-05-14T14:40:19.999Z</time>
      </trkpt>
      <trkpt lat="44.18302" lon="5.30338">
        <ele>798</ele>
        <time>2026-05-14T14:40:20.999Z</time>
      </trkpt>
      <trkpt lat="44.18302" lon="5.30337">
        <ele>798</ele>
        <time>2026-05-14T14:40:21.999Z</time>
      </trkpt>
      <trkpt lat="44.18302" lon="5.30337">
        <ele>798.3</ele>
        <time>2026-05-14T14:40:22.999Z</time>
      </trkpt>
      <trkpt lat="44.18302" lon="5.30338">
        <ele>798.3</ele>
        <time>2026-05-14T14:40:23.999Z</time>
      </trkpt>
      <trkpt lat="44.18302" lon="5.30338">
        <ele>798.2</ele>
        <time>2026-05-14T14:40:24.999Z</time>
      </trkpt>
      <trkpt lat="44.18301" lon="5.30339">
        <ele>798.2</ele>
        <time>2026-05-14T14:40:25.999Z</time>
      </trkpt>
      <trkpt lat="44.18301" lon="5.30339">
        <ele>798.2</ele>
        <time>2026-05-14T14:40:26.999Z</time>
      </trkpt>
      <trkpt lat="44.18301" lon="5.30339">
        <ele>798</ele>
        <time>2026-05-14T14:40:27.999Z</time>
      </trkpt>
      <trkpt lat="44.18301" lon="5.30339">
        <ele>797.8</ele>
        <time>2026-05-14T14:40:28.999Z</time>
      </trkpt>
      <trkpt lat="44.18301" lon="5.30339">
        <ele>797.7</ele>
        <time>2026-05-14T14:40:29.999Z</time>
      </trkpt>
      <trkpt lat="44.18301" lon="5.30339">
        <ele>797.4</ele>
        <time>2026-05-14T14:40:30.999Z</time>
      </trkpt>
      <trkpt lat="44.18301" lon="5.30339">
        <ele>797.4</ele>
        <time>2026-05-14T14:40:31.999Z</time>
      </trkpt>
      <trkpt lat="44.18301" lon="5.30339">
        <ele>797.5</ele>
        <time>2026-05-14T14:40:32.999Z</time>
      </trkpt>
      <trkpt lat="44.18301" lon="5.30339">
        <ele>797.5</ele>
        <time>2026-05-14T14:40:33.999Z</time>
      </trkpt>
      <trkpt lat="44.18301" lon="5.30339">
        <ele>797.4</ele>
        <time>2026-05-14T14:40:34.999Z</time>
      </trkpt>
      <trkpt lat="44.18301" lon="5.30339">
        <ele>797</ele>
        <time>2026-05-14T14:40:35.999Z</time>
      </trkpt>
      <trkpt lat="44.18301" lon="5.30339">
        <ele>796.8</ele>
        <time>2026-05-14T14:40:36.999Z</time>
      </trkpt>
      <trkpt lat="44.18301" lon="5.30339">
        <ele>796.5</ele>
        <time>2026-05-14T14:40:37.999Z</time>
      </trkpt>
      <trkpt lat="44.18301" lon="5.30339">
        <ele>796.5</ele>
        <time>2026-05-14T14:40:38.999Z</time>
      </trkpt>
      <trkpt lat="44.18301" lon="5.30339">
        <ele>796.4</ele>
        <time>2026-05-14T14:40:39.999Z</time>
      </trkpt>
      <trkpt lat="44.18301" lon="5.30339">
        <ele>796.5</ele>
        <time>2026-05-14T14:40:40.999Z</time>
      </trkpt>
      <trkpt lat="44.18301" lon="5.30339">
        <ele>796.6</ele>
        <time>2026-05-14T14:40:41.999Z</time>
      </trkpt>
      <trkpt lat="44.18301" lon="5.30339">
        <ele>796.5</ele>
        <time>2026-05-14T14:40:43.999Z</time>
      </trkpt>
      <trkpt lat="44.18301" lon="5.30338">
        <ele>796.7</ele>
        <time>2026-05-14T14:40:44.999Z</time>
      </trkpt>
      <trkpt lat="44.183" lon="5.30338">
        <ele>796.9</ele>
        <time>2026-05-14T14:40:45.999Z</time>
      </trkpt>
      <trkpt lat="44.183" lon="5.30338">
        <ele>797.1</ele>
        <time>2026-05-14T14:40:46.999Z</time>
      </trkpt>
      <trkpt lat="44.183" lon="5.30338">
        <ele>797</ele>
        <time>2026-05-14T14:40:47.999Z</time>
      </trkpt>
      <trkpt lat="44.183" lon="5.30338">
        <ele>797.1</ele>
        <time>2026-05-14T14:40:48.999Z</time>
      </trkpt>
      <trkpt lat="44.183" lon="5.30338">
        <ele>797.1</ele>
        <time>2026-05-14T14:40:49.999Z</time>
      </trkpt>
      <trkpt lat="44.183" lon="5.30339">
        <ele>797</ele>
        <time>2026-05-14T14:40:50.999Z</time>
      </trkpt>
      <trkpt lat="44.18301" lon="5.3034">
        <ele>797.1</ele>
        <time>2026-05-14T14:40:51.999Z</time>
      </trkpt>
      <trkpt lat="44.18302" lon="5.30339">
        <ele>797.1</ele>
        <time>2026-05-14T14:40:52.999Z</time>
      </trkpt>
      <trkpt lat="44.18303" lon="5.30338">
        <ele>797.1</ele>
        <time>2026-05-14T14:40:53.999Z</time>
      </trkpt>
      <trkpt lat="44.18303" lon="5.30338">
        <ele>796.9</ele>
        <time>2026-05-14T14:40:54.999Z</time>
      </trkpt>
      <trkpt lat="44.18303" lon="5.30338">
        <ele>796.8</ele>
        <time>2026-05-14T14:40:55.999Z</time>
      </trkpt>
      <trkpt lat="44.18303" lon="5.30338">
        <ele>796.4</ele>
        <time>2026-05-14T14:40:56.999Z</time>
      </trkpt>
      <trkpt lat="44.18303" lon="5.30338">
        <ele>796.4</ele>
        <time>2026-05-14T14:40:57.999Z</time>
      </trkpt>
      <trkpt lat="44.18303" lon="5.30338">
        <ele>796.2</ele>
        <time>2026-05-14T14:40:58.999Z</time>
      </trkpt>
      <trkpt lat="44.18303" lon="5.30337">
        <ele>796.2</ele>
        <time>2026-05-14T14:40:59.999Z</time>
      </trkpt>
      <trkpt lat="44.18303" lon="5.30337">
        <ele>796</ele>
        <time>2026-05-14T14:41:00.999Z</time>
      </trkpt>
      <trkpt lat="44.18304" lon="5.30337">
        <ele>796</ele>
        <time>2026-05-14T14:41:01.999Z</time>
      </trkpt>
      <trkpt lat="44.18305" lon="5.30337">
        <ele>795.9</ele>
        <time>2026-05-14T14:41:02.999Z</time>
      </trkpt>
      <trkpt lat="44.18306" lon="5.30338">
        <ele>796</ele>
        <time>2026-05-14T14:41:03.999Z</time>
      </trkpt>
      <trkpt lat="44.18306" lon="5.30338">
        <ele>796.1</ele>
        <time>2026-05-14T14:41:04.999Z</time>
      </trkpt>
      <trkpt lat="44.18307" lon="5.30338">
        <ele>796.2</ele>
        <time>2026-05-14T14:41:05.999Z</time>
      </trkpt>
      <trkpt lat="44.18307" lon="5.30339">
        <ele>796.3</ele>
        <time>2026-05-14T14:41:06.999Z</time>
      </trkpt>
      <trkpt lat="44.18307" lon="5.30339">
        <ele>796.4</ele>
        <time>2026-05-14T14:41:07.999Z</time>
      </trkpt>
      <trkpt lat="44.18308" lon="5.30339">
        <ele>796.4</ele>
        <time>2026-05-14T14:41:08.999Z</time>
      </trkpt>
      <trkpt lat="44.18308" lon="5.30339">
        <ele>796.6</ele>
        <time>2026-05-14T14:41:09.999Z</time>
      </trkpt>
      <trkpt lat="44.18308" lon="5.30339">
        <ele>796.8</ele>
        <time>2026-05-14T14:41:10.999Z</time>
      </trkpt>
      <trkpt lat="44.18307" lon="5.30339">
        <ele>796.9</ele>
        <time>2026-05-14T14:41:11.999Z</time>
      </trkpt>
      <trkpt lat="44.18307" lon="5.3034">
        <ele>797.4</ele>
        <time>2026-05-14T14:41:12.999Z</time>
      </trkpt>
      <trkpt lat="44.18307" lon="5.3034">
        <ele>797.8</ele>
        <time>2026-05-14T14:41:13.999Z</time>
      </trkpt>
      <trkpt lat="44.18307" lon="5.3034">
        <ele>798.2</ele>
        <time>2026-05-14T14:41:14.999Z</time>
      </trkpt>
      <trkpt lat="44.18307" lon="5.3034">
        <ele>798.3</ele>
        <time>2026-05-14T14:41:15.999Z</time>
      </trkpt>
      <trkpt lat="44.18307" lon="5.3034">
        <ele>798.6</ele>
        <time>2026-05-14T14:41:16.999Z</time>
      </trkpt>
      <trkpt lat="44.18307" lon="5.3034">
        <ele>798.6</ele>
        <time>2026-05-14T14:41:17.999Z</time>
      </trkpt>
      <trkpt lat="44.18307" lon="5.3034">
        <ele>798.7</ele>
        <time>2026-05-14T14:41:18.999Z</time>
      </trkpt>
      <trkpt lat="44.18307" lon="5.3034">
        <ele>798.9</ele>
        <time>2026-05-14T14:41:19.999Z</time>
      </trkpt>
      <trkpt lat="44.18308" lon="5.3034">
        <ele>798.9</ele>
        <time>2026-05-14T14:41:20.999Z</time>
      </trkpt>
      <trkpt lat="44.18308" lon="5.3034">
        <ele>798.9</ele>
        <time>2026-05-14T14:41:21.999Z</time>
      </trkpt>
      <trkpt lat="44.18308" lon="5.3034">
        <ele>798.8</ele>
        <time>2026-05-14T14:41:22.999Z</time>
      </trkpt>
      <trkpt lat="44.18307" lon="5.30341">
        <ele>798.6</ele>
        <time>2026-05-14T14:41:23.999Z</time>
      </trkpt>
      <trkpt lat="44.18308" lon="5.30341">
        <ele>798.7</ele>
        <time>2026-05-14T14:41:24.999Z</time>
      </trkpt>
      <trkpt lat="44.18308" lon="5.30342">
        <ele>798.7</ele>
        <time>2026-05-14T14:41:25.999Z</time>
      </trkpt>
      <trkpt lat="44.18308" lon="5.30343">
        <ele>798.7</ele>
        <time>2026-05-14T14:41:26.999Z</time>
      </trkpt>
      <trkpt lat="44.18308" lon="5.30343">
        <ele>798.6</ele>
        <time>2026-05-14T14:41:27.999Z</time>
      </trkpt>
      <trkpt lat="44.18308" lon="5.30343">
        <ele>798.7</ele>
        <time>2026-05-14T14:41:28.999Z</time>
      </trkpt>
      <trkpt lat="44.18307" lon="5.30342">
        <ele>798.8</ele>
        <time>2026-05-14T14:41:29.999Z</time>
      </trkpt>
      <trkpt lat="44.18307" lon="5.30342">
        <ele>798.8</ele>
        <time>2026-05-14T14:41:30.999Z</time>
      </trkpt>
      <trkpt lat="44.18307" lon="5.30341">
        <ele>798.9</ele>
        <time>2026-05-14T14:41:31.999Z</time>
      </trkpt>
      <trkpt lat="44.18307" lon="5.30341">
        <ele>798.4</ele>
        <time>2026-05-14T14:41:32.999Z</time>
      </trkpt>
      <trkpt lat="44.18307" lon="5.30341">
        <ele>798.1</ele>
        <time>2026-05-14T14:41:33.999Z</time>
      </trkpt>
      <trkpt lat="44.18307" lon="5.30341">
        <ele>798</ele>
        <time>2026-05-14T14:41:34.999Z</time>
      </trkpt>
      <trkpt lat="44.18307" lon="5.30341">
        <ele>797.7</ele>
        <time>2026-05-14T14:41:35.999Z</time>
      </trkpt>
      <trkpt lat="44.18308" lon="5.30341">
        <ele>798</ele>
        <time>2026-05-14T14:41:36.999Z</time>
      </trkpt>
      <trkpt lat="44.18308" lon="5.3034">
        <ele>798.1</ele>
        <time>2026-05-14T14:41:37.999Z</time>
      </trkpt>
      <trkpt lat="44.18308" lon="5.3034">
        <ele>798.5</ele>
        <time>2026-05-14T14:41:38.999Z</time>
      </trkpt>
      <trkpt lat="44.18309" lon="5.3034">
        <ele>798.7</ele>
        <time>2026-05-14T14:41:39.999Z</time>
      </trkpt>
      <trkpt lat="44.18309" lon="5.3034">
        <ele>799</ele>
        <time>2026-05-14T14:41:40.999Z</time>
      </trkpt>
      <trkpt lat="44.18309" lon="5.3034">
        <ele>799.5</ele>
        <time>2026-05-14T14:41:41.999Z</time>
      </trkpt>
      <trkpt lat="44.18308" lon="5.3034">
        <ele>800</ele>
        <time>2026-05-14T14:41:42.999Z</time>
      </trkpt>
      <trkpt lat="44.18308" lon="5.3034">
        <ele>800.1</ele>
        <time>2026-05-14T14:41:43.999Z</time>
      </trkpt>
      <trkpt lat="44.18308" lon="5.30339">
        <ele>799.9</ele>
        <time>2026-05-14T14:41:44.999Z</time>
      </trkpt>
      <trkpt lat="44.18308" lon="5.30339">
        <ele>799.7</ele>
        <time>2026-05-14T14:41:45.999Z</time>
      </trkpt>
      <trkpt lat="44.18308" lon="5.30339">
        <ele>800.1</ele>
        <time>2026-05-14T14:41:46.999Z</time>
      </trkpt>
      <trkpt lat="44.18308" lon="5.30339">
        <ele>800.1</ele>
        <time>2026-05-14T14:41:47.999Z</time>
      </trkpt>
      <trkpt lat="44.18308" lon="5.30339">
        <ele>800.1</ele>
        <time>2026-05-14T14:41:48.999Z</time>
      </trkpt>
      <trkpt lat="44.18308" lon="5.30339">
        <ele>800</ele>
        <time>2026-05-14T14:41:49.999Z</time>
      </trkpt>
      <trkpt lat="44.18308" lon="5.30338">
        <ele>799.9</ele>
        <time>2026-05-14T14:41:50.999Z</time>
      </trkpt>
      <trkpt lat="44.18308" lon="5.30338">
        <ele>799.9</ele>
        <time>2026-05-14T14:41:51.999Z</time>
      </trkpt>
      <trkpt lat="44.18307" lon="5.30338">
        <ele>799.7</ele>
        <time>2026-05-14T14:41:52.999Z</time>
      </trkpt>
      <trkpt lat="44.18307" lon="5.30338">
        <ele>799.5</ele>
        <time>2026-05-14T14:41:53.999Z</time>
      </trkpt>
      <trkpt lat="44.18307" lon="5.30338">
        <ele>799.4</ele>
        <time>2026-05-14T14:41:54.999Z</time>
      </trkpt>
      <trkpt lat="44.18307" lon="5.30338">
        <ele>799.4</ele>
        <time>2026-05-14T14:41:55.999Z</time>
      </trkpt>
      <trkpt lat="44.18307" lon="5.30338">
        <ele>799.4</ele>
        <time>2026-05-14T14:41:56.999Z</time>
      </trkpt>
      <trkpt lat="44.18307" lon="5.30338">
        <ele>799.4</ele>
        <time>2026-05-14T14:41:57.999Z</time>
      </trkpt>
      <trkpt lat="44.18307" lon="5.30338">
        <ele>799.3</ele>
        <time>2026-05-14T14:41:58.999Z</time>
      </trkpt>
      <trkpt lat="44.18307" lon="5.30338">
        <ele>799.5</ele>
        <time>2026-05-14T14:41:59.999Z</time>
      </trkpt>
      <trkpt lat="44.18306" lon="5.30337">
        <ele>798.9</ele>
        <time>2026-05-14T14:42:00.999Z</time>
      </trkpt>
      <trkpt lat="44.18306" lon="5.30337">
        <ele>798.6</ele>
        <time>2026-05-14T14:42:01.999Z</time>
      </trkpt>
      <trkpt lat="44.18306" lon="5.30337">
        <ele>798.3</ele>
        <time>2026-05-14T14:42:02.999Z</time>
      </trkpt>
      <trkpt lat="44.18306" lon="5.30337">
        <ele>798.2</ele>
        <time>2026-05-14T14:42:03.999Z</time>
      </trkpt>
      <trkpt lat="44.18306" lon="5.30337">
        <ele>798.1</ele>
        <time>2026-05-14T14:42:04.999Z</time>
      </trkpt>
      <trkpt lat="44.18306" lon="5.30337">
        <ele>798.2</ele>
        <time>2026-05-14T14:42:05.999Z</time>
      </trkpt>
      <trkpt lat="44.18306" lon="5.30337">
        <ele>798.1</ele>
        <time>2026-05-14T14:42:06.999Z</time>
      </trkpt>
      <trkpt lat="44.18306" lon="5.30337">
        <ele>798.1</ele>
        <time>2026-05-14T14:42:07.999Z</time>
      </trkpt>
      <trkpt lat="44.18306" lon="5.30337">
        <ele>797.9</ele>
        <time>2026-05-14T14:42:08.999Z</time>
      </trkpt>
      <trkpt lat="44.18306" lon="5.30337">
        <ele>798.1</ele>
        <time>2026-05-14T14:42:09.999Z</time>
      </trkpt>
      <trkpt lat="44.18306" lon="5.30337">
        <ele>797.8</ele>
        <time>2026-05-14T14:42:10.999Z</time>
      </trkpt>
      <trkpt lat="44.18306" lon="5.30337">
        <ele>797.6</ele>
        <time>2026-05-14T14:42:11.999Z</time>
      </trkpt>
      <trkpt lat="44.18306" lon="5.30337">
        <ele>797.5</ele>
        <time>2026-05-14T14:42:12.999Z</time>
      </trkpt>
      <trkpt lat="44.18306" lon="5.30337">
        <ele>797.3</ele>
        <time>2026-05-14T14:42:13.999Z</time>
      </trkpt>
      <trkpt lat="44.18306" lon="5.30337">
        <ele>797.2</ele>
        <time>2026-05-14T14:42:14.999Z</time>
      </trkpt>
      <trkpt lat="44.18306" lon="5.30337">
        <ele>797.3</ele>
        <time>2026-05-14T14:42:15.999Z</time>
      </trkpt>
      <trkpt lat="44.18306" lon="5.30337">
        <ele>797.2</ele>
        <time>2026-05-14T14:42:16.999Z</time>
      </trkpt>
      <trkpt lat="44.18306" lon="5.30337">
        <ele>797.3</ele>
        <time>2026-05-14T14:42:17.999Z</time>
      </trkpt>
      <trkpt lat="44.18306" lon="5.30337">
        <ele>797.4</ele>
        <time>2026-05-14T14:42:18.999Z</time>
      </trkpt>
      <trkpt lat="44.18306" lon="5.30337">
        <ele>797.6</ele>
        <time>2026-05-14T14:42:19.999Z</time>
      </trkpt>
      <trkpt lat="44.18306" lon="5.30337">
        <ele>797.8</ele>
        <time>2026-05-14T14:42:20.999Z</time>
      </trkpt>
      <trkpt lat="44.18306" lon="5.30337">
        <ele>797.9</ele>
        <time>2026-05-14T14:42:21.999Z</time>
      </trkpt>
      <trkpt lat="44.18307" lon="5.30337">
        <ele>797.7</ele>
        <time>2026-05-14T14:42:22.999Z</time>
      </trkpt>
      <trkpt lat="44.18307" lon="5.30336">
        <ele>797.6</ele>
        <time>2026-05-14T14:42:23.999Z</time>
      </trkpt>
      <trkpt lat="44.18307" lon="5.30337">
        <ele>797.7</ele>
        <time>2026-05-14T14:42:24.999Z</time>
      </trkpt>
      <trkpt lat="44.18307" lon="5.30338">
        <ele>797.8</ele>
        <time>2026-05-14T14:42:25.999Z</time>
      </trkpt>
      <trkpt lat="44.18307" lon="5.30338">
        <ele>798</ele>
        <time>2026-05-14T14:42:26.999Z</time>
      </trkpt>
      <trkpt lat="44.18307" lon="5.30338">
        <ele>798.2</ele>
        <time>2026-05-14T14:42:27.999Z</time>
      </trkpt>
      <trkpt lat="44.18307" lon="5.30338">
        <ele>798.5</ele>
        <time>2026-05-14T14:42:28.999Z</time>
      </trkpt>
      <trkpt lat="44.18307" lon="5.30338">
        <ele>798.7</ele>
        <time>2026-05-14T14:42:29.999Z</time>
      </trkpt>
      <trkpt lat="44.18307" lon="5.30338">
        <ele>798.7</ele>
        <time>2026-05-14T14:42:30.999Z</time>
      </trkpt>
      <trkpt lat="44.18307" lon="5.30338">
        <ele>798.8</ele>
        <time>2026-05-14T14:42:31.999Z</time>
      </trkpt>
      <trkpt lat="44.18308" lon="5.30338">
        <ele>798.8</ele>
        <time>2026-05-14T14:42:32.999Z</time>
      </trkpt>
      <trkpt lat="44.18308" lon="5.30338">
        <ele>798.6</ele>
        <time>2026-05-14T14:42:33.999Z</time>
      </trkpt>
      <trkpt lat="44.18307" lon="5.30337">
        <ele>798.3</ele>
        <time>2026-05-14T14:42:35.000Z</time>
      </trkpt>
      <trkpt lat="44.18307" lon="5.30337">
        <ele>798.4</ele>
        <time>2026-05-14T14:42:36.000Z</time>
      </trkpt>
      <trkpt lat="44.1831" lon="5.30337">
        <ele>799.1</ele>
        <time>2026-05-14T14:42:38.000Z</time>
      </trkpt>
      <trkpt lat="44.18311" lon="5.30337">
        <ele>799.3</ele>
        <time>2026-05-14T14:42:39.000Z</time>
      </trkpt>
      <trkpt lat="44.18311" lon="5.30338">
        <ele>799.3</ele>
        <time>2026-05-14T14:42:40.000Z</time>
      </trkpt>
      <trkpt lat="44.18311" lon="5.30337">
        <ele>799</ele>
        <time>2026-05-14T14:42:41.000Z</time>
      </trkpt>
      <trkpt lat="44.18311" lon="5.30337">
        <ele>799</ele>
        <time>2026-05-14T14:42:42.000Z</time>
      </trkpt>
      <trkpt lat="44.18311" lon="5.30337">
        <ele>798.9</ele>
        <time>2026-05-14T14:42:43.000Z</time>
      </trkpt>
      <trkpt lat="44.18311" lon="5.30338">
        <ele>798.7</ele>
        <time>2026-05-14T14:42:44.000Z</time>
      </trkpt>
      <trkpt lat="44.18311" lon="5.30337">
        <ele>799</ele>
        <time>2026-05-14T14:42:45.000Z</time>
      </trkpt>
      <trkpt lat="44.18311" lon="5.30337">
        <ele>799.3</ele>
        <time>2026-05-14T14:42:46.000Z</time>
      </trkpt>
      <trkpt lat="44.18311" lon="5.30337">
        <ele>799.7</ele>
        <time>2026-05-14T14:42:47.000Z</time>
      </trkpt>
      <trkpt lat="44.18311" lon="5.30337">
        <ele>800.1</ele>
        <time>2026-05-14T14:42:48.000Z</time>
      </trkpt>
      <trkpt lat="44.18311" lon="5.30337">
        <ele>800.5</ele>
        <time>2026-05-14T14:42:49.000Z</time>
      </trkpt>
      <trkpt lat="44.18311" lon="5.30337">
        <ele>800.8</ele>
        <time>2026-05-14T14:42:50.000Z</time>
      </trkpt>
      <trkpt lat="44.18311" lon="5.30337">
        <ele>801</ele>
        <time>2026-05-14T14:42:51.000Z</time>
      </trkpt>
      <trkpt lat="44.18311" lon="5.30337">
        <ele>801.1</ele>
        <time>2026-05-14T14:42:52.000Z</time>
      </trkpt>
      <trkpt lat="44.18311" lon="5.30337">
        <ele>801.3</ele>
        <time>2026-05-14T14:42:53.000Z</time>
      </trkpt>
      <trkpt lat="44.18311" lon="5.30338">
        <ele>801.5</ele>
        <time>2026-05-14T14:42:54.000Z</time>
      </trkpt>
      <trkpt lat="44.18311" lon="5.30338">
        <ele>801.5</ele>
        <time>2026-05-14T14:42:55.000Z</time>
      </trkpt>
      <trkpt lat="44.18311" lon="5.30338">
        <ele>801.4</ele>
        <time>2026-05-14T14:42:56.000Z</time>
      </trkpt>
      <trkpt lat="44.18311" lon="5.30338">
        <ele>801.5</ele>
        <time>2026-05-14T14:42:57.000Z</time>
      </trkpt>
      <trkpt lat="44.18311" lon="5.30338">
        <ele>801.6</ele>
        <time>2026-05-14T14:42:58.000Z</time>
      </trkpt>
      <trkpt lat="44.18311" lon="5.30338">
        <ele>801.7</ele>
        <time>2026-05-14T14:42:59.000Z</time>
      </trkpt>
      <trkpt lat="44.1831" lon="5.30339">
        <ele>802.1</ele>
        <time>2026-05-14T14:43:00.000Z</time>
      </trkpt>
      <trkpt lat="44.18309" lon="5.30341">
        <ele>802.2</ele>
        <time>2026-05-14T14:43:01.000Z</time>
      </trkpt>
      <trkpt lat="44.18309" lon="5.30342">
        <ele>802.2</ele>
        <time>2026-05-14T14:43:02.000Z</time>
      </trkpt>
      <trkpt lat="44.18309" lon="5.30342">
        <ele>802.4</ele>
        <time>2026-05-14T14:43:03.000Z</time>
      </trkpt>
      <trkpt lat="44.18309" lon="5.30341">
        <ele>802.7</ele>
        <time>2026-05-14T14:43:04.000Z</time>
      </trkpt>
      <trkpt lat="44.1831" lon="5.3034">
        <ele>802.9</ele>
        <time>2026-05-14T14:43:05.000Z</time>
      </trkpt>
      <trkpt lat="44.1831" lon="5.3034">
        <ele>802.8</ele>
        <time>2026-05-14T14:43:06.000Z</time>
      </trkpt>
      <trkpt lat="44.1831" lon="5.3034">
        <ele>802.6</ele>
        <time>2026-05-14T14:43:07.000Z</time>
      </trkpt>
      <trkpt lat="44.1831" lon="5.3034">
        <ele>802.3</ele>
        <time>2026-05-14T14:43:08.000Z</time>
      </trkpt>
      <trkpt lat="44.1831" lon="5.3034">
        <ele>802.1</ele>
        <time>2026-05-14T14:43:09.000Z</time>
      </trkpt>
      <trkpt lat="44.18311" lon="5.30339">
        <ele>801.7</ele>
        <time>2026-05-14T14:43:10.000Z</time>
      </trkpt>
      <trkpt lat="44.18311" lon="5.30338">
        <ele>801.3</ele>
        <time>2026-05-14T14:43:11.000Z</time>
      </trkpt>
      <trkpt lat="44.18311" lon="5.30336">
        <ele>801.1</ele>
        <time>2026-05-14T14:43:12.000Z</time>
      </trkpt>
      <trkpt lat="44.18311" lon="5.30336">
        <ele>801.1</ele>
        <time>2026-05-14T14:43:13.000Z</time>
      </trkpt>
      <trkpt lat="44.18311" lon="5.30336">
        <ele>800.6</ele>
        <time>2026-05-14T14:43:14.000Z</time>
      </trkpt>
      <trkpt lat="44.18311" lon="5.30338">
        <ele>800.5</ele>
        <time>2026-05-14T14:43:15.000Z</time>
      </trkpt>
      <trkpt lat="44.18311" lon="5.30338">
        <ele>800.3</ele>
        <time>2026-05-14T14:43:16.000Z</time>
      </trkpt>
      <trkpt lat="44.18311" lon="5.30338">
        <ele>800.3</ele>
        <time>2026-05-14T14:43:17.000Z</time>
      </trkpt>
      <trkpt lat="44.18311" lon="5.30338">
        <ele>800.1</ele>
        <time>2026-05-14T14:43:18.000Z</time>
      </trkpt>
      <trkpt lat="44.18311" lon="5.30338">
        <ele>799.7</ele>
        <time>2026-05-14T14:43:19.000Z</time>
      </trkpt>
      <trkpt lat="44.18311" lon="5.30338">
        <ele>799.3</ele>
        <time>2026-05-14T14:43:20.000Z</time>
      </trkpt>
      <trkpt lat="44.1831" lon="5.30337">
        <ele>798.9</ele>
        <time>2026-05-14T14:43:21.000Z</time>
      </trkpt>
      <trkpt lat="44.1831" lon="5.30337">
        <ele>798.6</ele>
        <time>2026-05-14T14:43:22.000Z</time>
      </trkpt>
      <trkpt lat="44.18311" lon="5.30336">
        <ele>798.4</ele>
        <time>2026-05-14T14:43:23.000Z</time>
      </trkpt>
      <trkpt lat="44.18311" lon="5.30336">
        <ele>797.9</ele>
        <time>2026-05-14T14:43:24.000Z</time>
      </trkpt>
      <trkpt lat="44.18311" lon="5.30336">
        <ele>797.5</ele>
        <time>2026-05-14T14:43:25.000Z</time>
      </trkpt>
      <trkpt lat="44.18311" lon="5.30336">
        <ele>797.5</ele>
        <time>2026-05-14T14:43:26.000Z</time>
      </trkpt>
      <trkpt lat="44.18312" lon="5.30336">
        <ele>797.5</ele>
        <time>2026-05-14T14:43:27.000Z</time>
      </trkpt>
      <trkpt lat="44.18312" lon="5.30336">
        <ele>797.4</ele>
        <time>2026-05-14T14:43:28.000Z</time>
      </trkpt>
      <trkpt lat="44.18312" lon="5.30335">
        <ele>797.5</ele>
        <time>2026-05-14T14:43:29.000Z</time>
      </trkpt>
      <trkpt lat="44.18312" lon="5.30335">
        <ele>797.5</ele>
        <time>2026-05-14T14:43:30.000Z</time>
      </trkpt>
      <trkpt lat="44.18313" lon="5.30335">
        <ele>797.7</ele>
        <time>2026-05-14T14:43:31.000Z</time>
      </trkpt>
      <trkpt lat="44.18313" lon="5.30335">
        <ele>798.1</ele>
        <time>2026-05-14T14:43:32.000Z</time>
      </trkpt>
      <trkpt lat="44.18313" lon="5.30335">
        <ele>798.4</ele>
        <time>2026-05-14T14:43:33.000Z</time>
      </trkpt>
      <trkpt lat="44.18313" lon="5.30334">
        <ele>798.6</ele>
        <time>2026-05-14T14:43:34.000Z</time>
      </trkpt>
      <trkpt lat="44.18313" lon="5.30334">
        <ele>798.8</ele>
        <time>2026-05-14T14:43:35.000Z</time>
      </trkpt>
      <trkpt lat="44.18313" lon="5.30334">
        <ele>799.1</ele>
        <time>2026-05-14T14:43:36.000Z</time>
      </trkpt>
      <trkpt lat="44.18312" lon="5.30334">
        <ele>799.4</ele>
        <time>2026-05-14T14:43:37.000Z</time>
      </trkpt>
      <trkpt lat="44.18312" lon="5.30335">
        <ele>799.6</ele>
        <time>2026-05-14T14:43:38.000Z</time>
      </trkpt>
      <trkpt lat="44.18312" lon="5.30335">
        <ele>800</ele>
        <time>2026-05-14T14:43:39.000Z</time>
      </trkpt>
      <trkpt lat="44.18312" lon="5.30335">
        <ele>800.1</ele>
        <time>2026-05-14T14:43:40.000Z</time>
      </trkpt>
      <trkpt lat="44.18311" lon="5.30335">
        <ele>800.3</ele>
        <time>2026-05-14T14:43:41.000Z</time>
      </trkpt>
      <trkpt lat="44.18312" lon="5.30335">
        <ele>800.2</ele>
        <time>2026-05-14T14:43:42.000Z</time>
      </trkpt>
      <trkpt lat="44.18312" lon="5.30335">
        <ele>800</ele>
        <time>2026-05-14T14:43:43.000Z</time>
      </trkpt>
      <trkpt lat="44.18312" lon="5.30335">
        <ele>799.9</ele>
        <time>2026-05-14T14:43:44.000Z</time>
      </trkpt>
      <trkpt lat="44.18312" lon="5.30335">
        <ele>799.9</ele>
        <time>2026-05-14T14:43:45.000Z</time>
      </trkpt>
      <trkpt lat="44.18312" lon="5.30335">
        <ele>800.1</ele>
        <time>2026-05-14T14:43:46.000Z</time>
      </trkpt>
      <trkpt lat="44.18312" lon="5.30335">
        <ele>800.1</ele>
        <time>2026-05-14T14:43:47.000Z</time>
      </trkpt>
      <trkpt lat="44.18312" lon="5.30335">
        <ele>800.2</ele>
        <time>2026-05-14T14:43:48.000Z</time>
      </trkpt>
      <trkpt lat="44.18312" lon="5.30335">
        <ele>800.1</ele>
        <time>2026-05-14T14:43:49.000Z</time>
      </trkpt>
      <trkpt lat="44.18312" lon="5.30335">
        <ele>800.1</ele>
        <time>2026-05-14T14:43:50.000Z</time>
      </trkpt>
      <trkpt lat="44.18312" lon="5.30335">
        <ele>800</ele>
        <time>2026-05-14T14:43:51.000Z</time>
      </trkpt>
      <trkpt lat="44.18312" lon="5.30335">
        <ele>799.9</ele>
        <time>2026-05-14T14:43:52.000Z</time>
      </trkpt>
      <trkpt lat="44.18312" lon="5.30336">
        <ele>799.7</ele>
        <time>2026-05-14T14:43:53.000Z</time>
      </trkpt>
      <trkpt lat="44.18312" lon="5.30336">
        <ele>799.6</ele>
        <time>2026-05-14T14:43:54.000Z</time>
      </trkpt>
      <trkpt lat="44.18311" lon="5.30336">
        <ele>799.5</ele>
        <time>2026-05-14T14:43:55.000Z</time>
      </trkpt>
      <trkpt lat="44.18311" lon="5.30336">
        <ele>799.2</ele>
        <time>2026-05-14T14:43:56.000Z</time>
      </trkpt>
      <trkpt lat="44.18311" lon="5.30336">
        <ele>799.2</ele>
        <time>2026-05-14T14:43:57.000Z</time>
      </trkpt>
      <trkpt lat="44.18311" lon="5.30337">
        <ele>799.3</ele>
        <time>2026-05-14T14:43:58.000Z</time>
      </trkpt>
      <trkpt lat="44.18309" lon="5.30337">
        <ele>799.3</ele>
        <time>2026-05-14T14:43:59.000Z</time>
      </trkpt>
      <trkpt lat="44.18308" lon="5.30337">
        <ele>799</ele>
        <time>2026-05-14T14:44:00.000Z</time>
      </trkpt>
      <trkpt lat="44.18308" lon="5.30338">
        <ele>798.9</ele>
        <time>2026-05-14T14:44:01.000Z</time>
      </trkpt>
      <trkpt lat="44.18308" lon="5.30338">
        <ele>798.6</ele>
        <time>2026-05-14T14:44:02.000Z</time>
      </trkpt>
      <trkpt lat="44.18308" lon="5.30338">
        <ele>798.6</ele>
        <time>2026-05-14T14:44:03.000Z</time>
      </trkpt>
      <trkpt lat="44.18308" lon="5.30338">
        <ele>798.3</ele>
        <time>2026-05-14T14:44:04.000Z</time>
      </trkpt>
      <trkpt lat="44.18308" lon="5.30338">
        <ele>798.4</ele>
        <time>2026-05-14T14:44:05.000Z</time>
      </trkpt>
      <trkpt lat="44.18308" lon="5.30338">
        <ele>798.3</ele>
        <time>2026-05-14T14:44:06.000Z</time>
      </trkpt>
      <trkpt lat="44.18308" lon="5.30338">
        <ele>798.1</ele>
        <time>2026-05-14T14:44:07.000Z</time>
      </trkpt>
      <trkpt lat="44.18308" lon="5.30338">
        <ele>798.2</ele>
        <time>2026-05-14T14:44:08.000Z</time>
      </trkpt>
      <trkpt lat="44.18308" lon="5.30338">
        <ele>798.1</ele>
        <time>2026-05-14T14:44:09.000Z</time>
      </trkpt>
      <trkpt lat="44.18308" lon="5.30338">
        <ele>797.9</ele>
        <time>2026-05-14T14:44:10.000Z</time>
      </trkpt>
      <trkpt lat="44.18308" lon="5.30338">
        <ele>797.9</ele>
        <time>2026-05-14T14:44:11.000Z</time>
      </trkpt>
      <trkpt lat="44.18308" lon="5.30338">
        <ele>798.1</ele>
        <time>2026-05-14T14:44:12.000Z</time>
      </trkpt>
      <trkpt lat="44.18308" lon="5.30338">
        <ele>798.1</ele>
        <time>2026-05-14T14:44:13.000Z</time>
      </trkpt>
      <trkpt lat="44.18308" lon="5.30338">
        <ele>798.1</ele>
        <time>2026-05-14T14:44:14.000Z</time>
      </trkpt>
      <trkpt lat="44.18308" lon="5.30338">
        <ele>798.2</ele>
        <time>2026-05-14T14:44:15.000Z</time>
      </trkpt>
      <trkpt lat="44.18308" lon="5.30338">
        <ele>798.1</ele>
        <time>2026-05-14T14:44:16.000Z</time>
      </trkpt>
      <trkpt lat="44.18308" lon="5.30338">
        <ele>797.8</ele>
        <time>2026-05-14T14:44:17.000Z</time>
      </trkpt>
      <trkpt lat="44.18308" lon="5.30338">
        <ele>797.5</ele>
        <time>2026-05-14T14:44:18.000Z</time>
      </trkpt>
      <trkpt lat="44.18308" lon="5.30338">
        <ele>797.5</ele>
        <time>2026-05-14T14:44:19.000Z</time>
      </trkpt>
      <trkpt lat="44.18308" lon="5.30339">
        <ele>797.2</ele>
        <time>2026-05-14T14:44:20.000Z</time>
      </trkpt>
      <trkpt lat="44.18308" lon="5.30339">
        <ele>797.2</ele>
        <time>2026-05-14T14:44:21.000Z</time>
      </trkpt>
      <trkpt lat="44.18308" lon="5.30339">
        <ele>797.3</ele>
        <time>2026-05-14T14:44:22.000Z</time>
      </trkpt>
      <trkpt lat="44.18308" lon="5.30339">
        <ele>797.3</ele>
        <time>2026-05-14T14:44:23.000Z</time>
      </trkpt>
      <trkpt lat="44.18308" lon="5.30339">
        <ele>797.5</ele>
        <time>2026-05-14T14:44:24.000Z</time>
      </trkpt>
      <trkpt lat="44.18308" lon="5.30339">
        <ele>797.6</ele>
        <time>2026-05-14T14:44:25.000Z</time>
      </trkpt>
      <trkpt lat="44.18308" lon="5.30339">
        <ele>797.8</ele>
        <time>2026-05-14T14:44:26.000Z</time>
      </trkpt>
      <trkpt lat="44.18308" lon="5.30339">
        <ele>798</ele>
        <time>2026-05-14T14:44:27.000Z</time>
      </trkpt>
      <trkpt lat="44.18308" lon="5.30339">
        <ele>798.2</ele>
        <time>2026-05-14T14:44:28.000Z</time>
      </trkpt>
      <trkpt lat="44.18308" lon="5.30339">
        <ele>798.3</ele>
        <time>2026-05-14T14:44:29.000Z</time>
      </trkpt>
      <trkpt lat="44.18308" lon="5.30339">
        <ele>798.3</ele>
        <time>2026-05-14T14:44:30.000Z</time>
      </trkpt>
      <trkpt lat="44.18308" lon="5.30339">
        <ele>798.2</ele>
        <time>2026-05-14T14:44:31.000Z</time>
      </trkpt>
      <trkpt lat="44.18308" lon="5.30339">
        <ele>798</ele>
        <time>2026-05-14T14:44:32.000Z</time>
      </trkpt>
      <trkpt lat="44.18308" lon="5.30339">
        <ele>797.8</ele>
        <time>2026-05-14T14:44:33.000Z</time>
      </trkpt>
      <trkpt lat="44.18308" lon="5.30339">
        <ele>797.6</ele>
        <time>2026-05-14T14:44:34.000Z</time>
      </trkpt>
      <trkpt lat="44.18308" lon="5.30339">
        <ele>797.4</ele>
        <time>2026-05-14T14:44:35.000Z</time>
      </trkpt>
      <trkpt lat="44.18308" lon="5.30339">
        <ele>797.4</ele>
        <time>2026-05-14T14:44:36.000Z</time>
      </trkpt>
      <trkpt lat="44.18308" lon="5.30339">
        <ele>797.2</ele>
        <time>2026-05-14T14:44:37.000Z</time>
      </trkpt>
      <trkpt lat="44.18308" lon="5.30339">
        <ele>797.4</ele>
        <time>2026-05-14T14:44:38.000Z</time>
      </trkpt>
      <trkpt lat="44.18308" lon="5.30339">
        <ele>796.9</ele>
        <time>2026-05-14T14:44:39.000Z</time>
      </trkpt>
      <trkpt lat="44.18308" lon="5.30339">
        <ele>796.8</ele>
        <time>2026-05-14T14:44:40.000Z</time>
      </trkpt>
      <trkpt lat="44.18308" lon="5.3034">
        <ele>797</ele>
        <time>2026-05-14T14:44:41.000Z</time>
      </trkpt>
      <trkpt lat="44.18308" lon="5.3034">
        <ele>797</ele>
        <time>2026-05-14T14:44:42.000Z</time>
      </trkpt>
      <trkpt lat="44.18308" lon="5.3034">
        <ele>797.2</ele>
        <time>2026-05-14T14:44:43.000Z</time>
      </trkpt>
      <trkpt lat="44.18308" lon="5.3034">
        <ele>797.3</ele>
        <time>2026-05-14T14:44:44.000Z</time>
      </trkpt>
      <trkpt lat="44.18308" lon="5.3034">
        <ele>797.5</ele>
        <time>2026-05-14T14:44:45.000Z</time>
      </trkpt>
      <trkpt lat="44.18308" lon="5.3034">
        <ele>797.5</ele>
        <time>2026-05-14T14:44:46.000Z</time>
      </trkpt>
      <trkpt lat="44.18308" lon="5.3034">
        <ele>797.5</ele>
        <time>2026-05-14T14:44:47.000Z</time>
      </trkpt>
      <trkpt lat="44.18308" lon="5.3034">
        <ele>797.6</ele>
        <time>2026-05-14T14:44:48.000Z</time>
      </trkpt>
      <trkpt lat="44.18308" lon="5.3034">
        <ele>797.7</ele>
        <time>2026-05-14T14:44:49.000Z</time>
      </trkpt>
      <trkpt lat="44.18307" lon="5.30342">
        <ele>797.9</ele>
        <time>2026-05-14T14:44:50.000Z</time>
      </trkpt>
      <trkpt lat="44.18305" lon="5.30343">
        <ele>798.2</ele>
        <time>2026-05-14T14:44:51.000Z</time>
      </trkpt>
      <trkpt lat="44.18305" lon="5.30344">
        <ele>798.3</ele>
        <time>2026-05-14T14:44:52.000Z</time>
      </trkpt>
      <trkpt lat="44.18305" lon="5.30344">
        <ele>798.3</ele>
        <time>2026-05-14T14:44:53.000Z</time>
      </trkpt>
      <trkpt lat="44.18305" lon="5.30344">
        <ele>798.6</ele>
        <time>2026-05-14T14:44:54.000Z</time>
      </trkpt>
      <trkpt lat="44.18305" lon="5.30344">
        <ele>799</ele>
        <time>2026-05-14T14:44:55.000Z</time>
      </trkpt>
      <trkpt lat="44.18304" lon="5.30343">
        <ele>798.7</ele>
        <time>2026-05-14T14:44:56.000Z</time>
      </trkpt>
      <trkpt lat="44.18303" lon="5.30342">
        <ele>798.5</ele>
        <time>2026-05-14T14:44:58.000Z</time>
      </trkpt>
      <trkpt lat="44.18302" lon="5.30342">
        <ele>798.5</ele>
        <time>2026-05-14T14:44:59.000Z</time>
      </trkpt>
      <trkpt lat="44.18302" lon="5.30342">
        <ele>798.5</ele>
        <time>2026-05-14T14:45:00.000Z</time>
      </trkpt>
      <trkpt lat="44.18302" lon="5.30342">
        <ele>798.3</ele>
        <time>2026-05-14T14:45:01.000Z</time>
      </trkpt>
      <trkpt lat="44.18302" lon="5.30342">
        <ele>798</ele>
        <time>2026-05-14T14:45:02.000Z</time>
      </trkpt>
      <trkpt lat="44.18302" lon="5.30342">
        <ele>798</ele>
        <time>2026-05-14T14:45:03.000Z</time>
      </trkpt>
      <trkpt lat="44.18302" lon="5.30342">
        <ele>797.8</ele>
        <time>2026-05-14T14:45:04.000Z</time>
      </trkpt>
      <trkpt lat="44.18302" lon="5.30342">
        <ele>797.6</ele>
        <time>2026-05-14T14:45:05.000Z</time>
      </trkpt>
      <trkpt lat="44.18302" lon="5.30342">
        <ele>797.5</ele>
        <time>2026-05-14T14:45:06.000Z</time>
      </trkpt>
      <trkpt lat="44.18302" lon="5.30342">
        <ele>797.2</ele>
        <time>2026-05-14T14:45:07.000Z</time>
      </trkpt>
      <trkpt lat="44.18302" lon="5.30342">
        <ele>797</ele>
        <time>2026-05-14T14:45:08.000Z</time>
      </trkpt>
      <trkpt lat="44.18302" lon="5.30342">
        <ele>797</ele>
        <time>2026-05-14T14:45:09.000Z</time>
      </trkpt>
      <trkpt lat="44.18303" lon="5.30342">
        <ele>796.9</ele>
        <time>2026-05-14T14:45:10.000Z</time>
      </trkpt>
      <trkpt lat="44.18303" lon="5.30342">
        <ele>796.8</ele>
        <time>2026-05-14T14:45:11.000Z</time>
      </trkpt>
      <trkpt lat="44.18303" lon="5.30341">
        <ele>796.8</ele>
        <time>2026-05-14T14:45:12.000Z</time>
      </trkpt>
      <trkpt lat="44.18303" lon="5.30341">
        <ele>796.8</ele>
        <time>2026-05-14T14:45:13.000Z</time>
      </trkpt>
      <trkpt lat="44.18303" lon="5.30341">
        <ele>796.8</ele>
        <time>2026-05-14T14:45:14.000Z</time>
      </trkpt>
      <trkpt lat="44.18303" lon="5.30341">
        <ele>796.9</ele>
        <time>2026-05-14T14:45:15.000Z</time>
      </trkpt>
      <trkpt lat="44.18303" lon="5.30341">
        <ele>797</ele>
        <time>2026-05-14T14:45:16.000Z</time>
      </trkpt>
      <trkpt lat="44.18303" lon="5.30341">
        <ele>797</ele>
        <time>2026-05-14T14:45:17.000Z</time>
      </trkpt>
      <trkpt lat="44.18303" lon="5.30341">
        <ele>797.2</ele>
        <time>2026-05-14T14:45:18.000Z</time>
      </trkpt>
      <trkpt lat="44.18303" lon="5.30341">
        <ele>797.2</ele>
        <time>2026-05-14T14:45:19.000Z</time>
      </trkpt>
      <trkpt lat="44.18303" lon="5.30341">
        <ele>797.1</ele>
        <time>2026-05-14T14:45:20.000Z</time>
      </trkpt>
      <trkpt lat="44.18304" lon="5.30339">
        <ele>796.9</ele>
        <time>2026-05-14T14:45:21.000Z</time>
      </trkpt>
      <trkpt lat="44.18303" lon="5.30339">
        <ele>796.5</ele>
        <time>2026-05-14T14:45:22.000Z</time>
      </trkpt>
      <trkpt lat="44.18303" lon="5.30338">
        <ele>796.4</ele>
        <time>2026-05-14T14:45:23.000Z</time>
      </trkpt>
      <trkpt lat="44.18303" lon="5.30338">
        <ele>796.2</ele>
        <time>2026-05-14T14:45:24.000Z</time>
      </trkpt>
      <trkpt lat="44.18304" lon="5.30338">
        <ele>796.1</ele>
        <time>2026-05-14T14:45:25.000Z</time>
      </trkpt>
      <trkpt lat="44.18304" lon="5.30338">
        <ele>796.2</ele>
        <time>2026-05-14T14:45:26.000Z</time>
      </trkpt>
      <trkpt lat="44.18304" lon="5.30338">
        <ele>796.3</ele>
        <time>2026-05-14T14:45:27.000Z</time>
      </trkpt>
      <trkpt lat="44.18304" lon="5.30338">
        <ele>796.4</ele>
        <time>2026-05-14T14:45:28.000Z</time>
      </trkpt>
      <trkpt lat="44.18304" lon="5.30338">
        <ele>796.2</ele>
        <time>2026-05-14T14:45:29.000Z</time>
      </trkpt>
      <trkpt lat="44.18304" lon="5.30338">
        <ele>796.2</ele>
        <time>2026-05-14T14:45:30.000Z</time>
      </trkpt>
      <trkpt lat="44.18304" lon="5.30337">
        <ele>796.1</ele>
        <time>2026-05-14T14:45:31.000Z</time>
      </trkpt>
      <trkpt lat="44.18305" lon="5.30337">
        <ele>796</ele>
        <time>2026-05-14T14:45:32.000Z</time>
      </trkpt>
      <trkpt lat="44.18305" lon="5.30337">
        <ele>795.9</ele>
        <time>2026-05-14T14:45:33.000Z</time>
      </trkpt>
      <trkpt lat="44.18305" lon="5.30337">
        <ele>795.9</ele>
        <time>2026-05-14T14:45:34.000Z</time>
      </trkpt>
      <trkpt lat="44.18305" lon="5.30337">
        <ele>795.7</ele>
        <time>2026-05-14T14:45:35.000Z</time>
      </trkpt>
      <trkpt lat="44.18305" lon="5.30337">
        <ele>795.7</ele>
        <time>2026-05-14T14:45:36.000Z</time>
      </trkpt>
      <trkpt lat="44.18305" lon="5.30337">
        <ele>795.6</ele>
        <time>2026-05-14T14:45:37.000Z</time>
      </trkpt>
      <trkpt lat="44.18305" lon="5.30337">
        <ele>795.7</ele>
        <time>2026-05-14T14:45:38.000Z</time>
      </trkpt>
      <trkpt lat="44.18304" lon="5.30337">
        <ele>795.7</ele>
        <time>2026-05-14T14:45:39.000Z</time>
      </trkpt>
      <trkpt lat="44.18304" lon="5.30337">
        <ele>795.6</ele>
        <time>2026-05-14T14:45:40.000Z</time>
      </trkpt>
      <trkpt lat="44.18304" lon="5.30336">
        <ele>795.6</ele>
        <time>2026-05-14T14:45:41.000Z</time>
      </trkpt>
      <trkpt lat="44.18304" lon="5.30336">
        <ele>795.6</ele>
        <time>2026-05-14T14:45:42.000Z</time>
      </trkpt>
      <trkpt lat="44.18303" lon="5.30336">
        <ele>795.6</ele>
        <time>2026-05-14T14:45:43.000Z</time>
      </trkpt>
      <trkpt lat="44.18303" lon="5.30336">
        <ele>795.7</ele>
        <time>2026-05-14T14:45:44.000Z</time>
      </trkpt>
      <trkpt lat="44.18303" lon="5.30337">
        <ele>795.7</ele>
        <time>2026-05-14T14:45:45.000Z</time>
      </trkpt>
      <trkpt lat="44.18302" lon="5.30338">
        <ele>795.8</ele>
        <time>2026-05-14T14:45:47.000Z</time>
      </trkpt>
      <trkpt lat="44.18301" lon="5.30338">
        <ele>795.9</ele>
        <time>2026-05-14T14:45:48.000Z</time>
      </trkpt>
      <trkpt lat="44.18301" lon="5.30338">
        <ele>796</ele>
        <time>2026-05-14T14:45:49.000Z</time>
      </trkpt>
      <trkpt lat="44.18301" lon="5.30338">
        <ele>796</ele>
        <time>2026-05-14T14:45:50.000Z</time>
      </trkpt>
      <trkpt lat="44.18301" lon="5.30339">
        <ele>795</ele>
        <time>2026-05-14T14:45:51.000Z</time>
      </trkpt>
      <trkpt lat="44.18302" lon="5.30339">
        <ele>795</ele>
        <time>2026-05-14T14:45:52.000Z</time>
      </trkpt>
      <trkpt lat="44.18302" lon="5.30339">
        <ele>795.1</ele>
        <time>2026-05-14T14:45:53.000Z</time>
      </trkpt>
      <trkpt lat="44.18301" lon="5.30339">
        <ele>795.2</ele>
        <time>2026-05-14T14:45:54.000Z</time>
      </trkpt>
      <trkpt lat="44.18301" lon="5.30339">
        <ele>795.3</ele>
        <time>2026-05-14T14:45:55.000Z</time>
      </trkpt>
      <trkpt lat="44.18301" lon="5.30339">
        <ele>795.3</ele>
        <time>2026-05-14T14:45:56.000Z</time>
      </trkpt>
      <trkpt lat="44.18301" lon="5.30339">
        <ele>795.2</ele>
        <time>2026-05-14T14:45:57.000Z</time>
      </trkpt>
      <trkpt lat="44.18301" lon="5.30339">
        <ele>795</ele>
        <time>2026-05-14T14:45:58.000Z</time>
      </trkpt>
      <trkpt lat="44.18301" lon="5.30339">
        <ele>795.1</ele>
        <time>2026-05-14T14:45:59.000Z</time>
      </trkpt>
      <trkpt lat="44.183" lon="5.3034">
        <ele>795</ele>
        <time>2026-05-14T14:46:00.000Z</time>
      </trkpt>
      <trkpt lat="44.183" lon="5.30341">
        <ele>794.9</ele>
        <time>2026-05-14T14:46:01.000Z</time>
      </trkpt>
      <trkpt lat="44.183" lon="5.30341">
        <ele>794.8</ele>
        <time>2026-05-14T14:46:02.000Z</time>
      </trkpt>
      <trkpt lat="44.183" lon="5.30342">
        <ele>794.6</ele>
        <time>2026-05-14T14:46:03.000Z</time>
      </trkpt>
      <trkpt lat="44.18299" lon="5.30343">
        <ele>794.5</ele>
        <time>2026-05-14T14:46:04.000Z</time>
      </trkpt>
      <trkpt lat="44.18299" lon="5.30343">
        <ele>794.5</ele>
        <time>2026-05-14T14:46:05.000Z</time>
      </trkpt>
      <trkpt lat="44.183" lon="5.30344">
        <ele>794.3</ele>
        <time>2026-05-14T14:46:06.000Z</time>
      </trkpt>
      <trkpt lat="44.183" lon="5.30344">
        <ele>794</ele>
        <time>2026-05-14T14:46:07.000Z</time>
      </trkpt>
      <trkpt lat="44.18301" lon="5.30344">
        <ele>793.9</ele>
        <time>2026-05-14T14:46:08.000Z</time>
      </trkpt>
      <trkpt lat="44.183" lon="5.30344">
        <ele>793.6</ele>
        <time>2026-05-14T14:46:09.000Z</time>
      </trkpt>
      <trkpt lat="44.18301" lon="5.30344">
        <ele>793.2</ele>
        <time>2026-05-14T14:46:10.000Z</time>
      </trkpt>
      <trkpt lat="44.18301" lon="5.30344">
        <ele>793.2</ele>
        <time>2026-05-14T14:46:11.000Z</time>
      </trkpt>
      <trkpt lat="44.18301" lon="5.30344">
        <ele>793</ele>
        <time>2026-05-14T14:46:12.000Z</time>
      </trkpt>
      <trkpt lat="44.18301" lon="5.30344">
        <ele>792.8</ele>
        <time>2026-05-14T14:46:13.000Z</time>
      </trkpt>
      <trkpt lat="44.18302" lon="5.30344">
        <ele>792.7</ele>
        <time>2026-05-14T14:46:14.000Z</time>
      </trkpt>
      <trkpt lat="44.18302" lon="5.30344">
        <ele>792.5</ele>
        <time>2026-05-14T14:46:15.000Z</time>
      </trkpt>
      <trkpt lat="44.18302" lon="5.30344">
        <ele>792.3</ele>
        <time>2026-05-14T14:46:16.000Z</time>
      </trkpt>
      <trkpt lat="44.18302" lon="5.30344">
        <ele>792.2</ele>
        <time>2026-05-14T14:46:17.000Z</time>
      </trkpt>
      <trkpt lat="44.18302" lon="5.30344">
        <ele>792.1</ele>
        <time>2026-05-14T14:46:18.000Z</time>
      </trkpt>
      <trkpt lat="44.18302" lon="5.30344">
        <ele>792.3</ele>
        <time>2026-05-14T14:46:19.000Z</time>
      </trkpt>
      <trkpt lat="44.18302" lon="5.30344">
        <ele>792.5</ele>
        <time>2026-05-14T14:46:20.000Z</time>
      </trkpt>
      <trkpt lat="44.18301" lon="5.30344">
        <ele>792.9</ele>
        <time>2026-05-14T14:46:22.000Z</time>
      </trkpt>
      <trkpt lat="44.18301" lon="5.30343">
        <ele>793.3</ele>
        <time>2026-05-14T14:46:23.000Z</time>
      </trkpt>
      <trkpt lat="44.18301" lon="5.30343">
        <ele>793.7</ele>
        <time>2026-05-14T14:46:24.000Z</time>
      </trkpt>
      <trkpt lat="44.18301" lon="5.30344">
        <ele>793.9</ele>
        <time>2026-05-14T14:46:25.000Z</time>
      </trkpt>
      <trkpt lat="44.18302" lon="5.30344">
        <ele>793.8</ele>
        <time>2026-05-14T14:46:26.000Z</time>
      </trkpt>
      <trkpt lat="44.18302" lon="5.30343">
        <ele>793.7</ele>
        <time>2026-05-14T14:46:27.000Z</time>
      </trkpt>
      <trkpt lat="44.18303" lon="5.30343">
        <ele>793.6</ele>
        <time>2026-05-14T14:46:28.000Z</time>
      </trkpt>
      <trkpt lat="44.18303" lon="5.30343">
        <ele>793.8</ele>
        <time>2026-05-14T14:46:29.000Z</time>
      </trkpt>
      <trkpt lat="44.18304" lon="5.30342">
        <ele>794</ele>
        <time>2026-05-14T14:46:30.000Z</time>
      </trkpt>
      <trkpt lat="44.18304" lon="5.30342">
        <ele>794</ele>
        <time>2026-05-14T14:46:31.000Z</time>
      </trkpt>
      <trkpt lat="44.18305" lon="5.30341">
        <ele>794.2</ele>
        <time>2026-05-14T14:46:32.000Z</time>
      </trkpt>
      <trkpt lat="44.18305" lon="5.3034">
        <ele>794.4</ele>
        <time>2026-05-14T14:46:33.000Z</time>
      </trkpt>
      <trkpt lat="44.18306" lon="5.3034">
        <ele>794.8</ele>
        <time>2026-05-14T14:46:34.000Z</time>
      </trkpt>
      <trkpt lat="44.18306" lon="5.3034">
        <ele>794.9</ele>
        <time>2026-05-14T14:46:35.000Z</time>
      </trkpt>
      <trkpt lat="44.18306" lon="5.3034">
        <ele>794.7</ele>
        <time>2026-05-14T14:46:36.000Z</time>
      </trkpt>
      <trkpt lat="44.18306" lon="5.3034">
        <ele>795</ele>
        <time>2026-05-14T14:46:37.000Z</time>
      </trkpt>
      <trkpt lat="44.18306" lon="5.3034">
        <ele>794.9</ele>
        <time>2026-05-14T14:46:38.000Z</time>
      </trkpt>
      <trkpt lat="44.18306" lon="5.3034">
        <ele>795.1</ele>
        <time>2026-05-14T14:46:39.000Z</time>
      </trkpt>
      <trkpt lat="44.18306" lon="5.3034">
        <ele>795.2</ele>
        <time>2026-05-14T14:46:40.000Z</time>
      </trkpt>
      <trkpt lat="44.18306" lon="5.30339">
        <ele>795.2</ele>
        <time>2026-05-14T14:46:41.000Z</time>
      </trkpt>
      <trkpt lat="44.18306" lon="5.30339">
        <ele>795.2</ele>
        <time>2026-05-14T14:46:42.000Z</time>
      </trkpt>
      <trkpt lat="44.18306" lon="5.30339">
        <ele>795.3</ele>
        <time>2026-05-14T14:46:43.000Z</time>
      </trkpt>
      <trkpt lat="44.18306" lon="5.30339">
        <ele>795.4</ele>
        <time>2026-05-14T14:46:44.000Z</time>
      </trkpt>
      <trkpt lat="44.18306" lon="5.30339">
        <ele>795.7</ele>
        <time>2026-05-14T14:46:45.000Z</time>
      </trkpt>
      <trkpt lat="44.18306" lon="5.30339">
        <ele>795.9</ele>
        <time>2026-05-14T14:46:46.000Z</time>
      </trkpt>
      <trkpt lat="44.18306" lon="5.30339">
        <ele>796.3</ele>
        <time>2026-05-14T14:46:47.000Z</time>
      </trkpt>
      <trkpt lat="44.18306" lon="5.30339">
        <ele>796.4</ele>
        <time>2026-05-14T14:46:48.000Z</time>
      </trkpt>
      <trkpt lat="44.18306" lon="5.30339">
        <ele>796.3</ele>
        <time>2026-05-14T14:46:49.000Z</time>
      </trkpt>
      <trkpt lat="44.18305" lon="5.30339">
        <ele>796.3</ele>
        <time>2026-05-14T14:46:50.000Z</time>
      </trkpt>
      <trkpt lat="44.18305" lon="5.30338">
        <ele>796.1</ele>
        <time>2026-05-14T14:46:51.000Z</time>
      </trkpt>
      <trkpt lat="44.18305" lon="5.30338">
        <ele>795.9</ele>
        <time>2026-05-14T14:46:52.000Z</time>
      </trkpt>
      <trkpt lat="44.18305" lon="5.30338">
        <ele>795.7</ele>
        <time>2026-05-14T14:46:53.000Z</time>
      </trkpt>
      <trkpt lat="44.18305" lon="5.30337">
        <ele>795.8</ele>
        <time>2026-05-14T14:46:54.000Z</time>
      </trkpt>
      <trkpt lat="44.18304" lon="5.30336">
        <ele>796</ele>
        <time>2026-05-14T14:46:55.000Z</time>
      </trkpt>
      <trkpt lat="44.18303" lon="5.30337">
        <ele>796.1</ele>
        <time>2026-05-14T14:46:56.000Z</time>
      </trkpt>
      <trkpt lat="44.18303" lon="5.30337">
        <ele>796.2</ele>
        <time>2026-05-14T14:46:57.000Z</time>
      </trkpt>
      <trkpt lat="44.18303" lon="5.30337">
        <ele>796</ele>
        <time>2026-05-14T14:46:58.000Z</time>
      </trkpt>
      <trkpt lat="44.18303" lon="5.30337">
        <ele>795.8</ele>
        <time>2026-05-14T14:46:59.000Z</time>
      </trkpt>
      <trkpt lat="44.18303" lon="5.30337">
        <ele>795.9</ele>
        <time>2026-05-14T14:47:00.000Z</time>
      </trkpt>
      <trkpt lat="44.18303" lon="5.30337">
        <ele>796</ele>
        <time>2026-05-14T14:47:01.000Z</time>
      </trkpt>
      <trkpt lat="44.18303" lon="5.30337">
        <ele>795.7</ele>
        <time>2026-05-14T14:47:02.000Z</time>
      </trkpt>
      <trkpt lat="44.18303" lon="5.30337">
        <ele>795.6</ele>
        <time>2026-05-14T14:47:03.000Z</time>
      </trkpt>
      <trkpt lat="44.18303" lon="5.30337">
        <ele>795.6</ele>
        <time>2026-05-14T14:47:04.000Z</time>
      </trkpt>
      <trkpt lat="44.18303" lon="5.30337">
        <ele>795.6</ele>
        <time>2026-05-14T14:47:05.000Z</time>
      </trkpt>
      <trkpt lat="44.18303" lon="5.30337">
        <ele>795.7</ele>
        <time>2026-05-14T14:47:06.000Z</time>
      </trkpt>
      <trkpt lat="44.18303" lon="5.30337">
        <ele>795.8</ele>
        <time>2026-05-14T14:47:07.000Z</time>
      </trkpt>
      <trkpt lat="44.18303" lon="5.30338">
        <ele>795.8</ele>
        <time>2026-05-14T14:47:08.000Z</time>
      </trkpt>
      <trkpt lat="44.18302" lon="5.30338">
        <ele>796</ele>
        <time>2026-05-14T14:47:09.000Z</time>
      </trkpt>
      <trkpt lat="44.18302" lon="5.30339">
        <ele>796.2</ele>
        <time>2026-05-14T14:47:10.000Z</time>
      </trkpt>
      <trkpt lat="44.18302" lon="5.30339">
        <ele>796.1</ele>
        <time>2026-05-14T14:47:11.000Z</time>
      </trkpt>
      <trkpt lat="44.18302" lon="5.30339">
        <ele>795.8</ele>
        <time>2026-05-14T14:47:12.000Z</time>
      </trkpt>
      <trkpt lat="44.18301" lon="5.3034">
        <ele>795.6</ele>
        <time>2026-05-14T14:47:13.000Z</time>
      </trkpt>
      <trkpt lat="44.18301" lon="5.30339">
        <ele>795.5</ele>
        <time>2026-05-14T14:47:14.000Z</time>
      </trkpt>
      <trkpt lat="44.18301" lon="5.30339">
        <ele>795.2</ele>
        <time>2026-05-14T14:47:15.000Z</time>
      </trkpt>
      <trkpt lat="44.18301" lon="5.30339">
        <ele>795.3</ele>
        <time>2026-05-14T14:47:16.000Z</time>
      </trkpt>
      <trkpt lat="44.18301" lon="5.30339">
        <ele>795.5</ele>
        <time>2026-05-14T14:47:17.000Z</time>
      </trkpt>
      <trkpt lat="44.18301" lon="5.30339">
        <ele>795.4</ele>
        <time>2026-05-14T14:47:18.000Z</time>
      </trkpt>
      <trkpt lat="44.183" lon="5.3034">
        <ele>795.6</ele>
        <time>2026-05-14T14:47:19.000Z</time>
      </trkpt>
      <trkpt lat="44.183" lon="5.3034">
        <ele>795.8</ele>
        <time>2026-05-14T14:47:20.000Z</time>
      </trkpt>
      <trkpt lat="44.18299" lon="5.30341">
        <ele>795.8</ele>
        <time>2026-05-14T14:47:21.000Z</time>
      </trkpt>
      <trkpt lat="44.18299" lon="5.30341">
        <ele>796.1</ele>
        <time>2026-05-14T14:47:22.000Z</time>
      </trkpt>
      <trkpt lat="44.18299" lon="5.30341">
        <ele>796.1</ele>
        <time>2026-05-14T14:47:23.000Z</time>
      </trkpt>
      <trkpt lat="44.18299" lon="5.30341">
        <ele>796.2</ele>
        <time>2026-05-14T14:47:24.000Z</time>
      </trkpt>
      <trkpt lat="44.18299" lon="5.30341">
        <ele>796.1</ele>
        <time>2026-05-14T14:47:25.000Z</time>
      </trkpt>
      <trkpt lat="44.18299" lon="5.30341">
        <ele>795.9</ele>
        <time>2026-05-14T14:47:26.000Z</time>
      </trkpt>
      <trkpt lat="44.18299" lon="5.30341">
        <ele>795.8</ele>
        <time>2026-05-14T14:47:27.000Z</time>
      </trkpt>
      <trkpt lat="44.18299" lon="5.30341">
        <ele>795.3</ele>
        <time>2026-05-14T14:47:28.000Z</time>
      </trkpt>
      <trkpt lat="44.18299" lon="5.30341">
        <ele>795.1</ele>
        <time>2026-05-14T14:47:29.000Z</time>
      </trkpt>
      <trkpt lat="44.18299" lon="5.30341">
        <ele>795.2</ele>
        <time>2026-05-14T14:47:30.000Z</time>
      </trkpt>
      <trkpt lat="44.18299" lon="5.30341">
        <ele>795.2</ele>
        <time>2026-05-14T14:47:31.000Z</time>
      </trkpt>
      <trkpt lat="44.18299" lon="5.30341">
        <ele>794.9</ele>
        <time>2026-05-14T14:47:32.000Z</time>
      </trkpt>
      <trkpt lat="44.18299" lon="5.30341">
        <ele>794.9</ele>
        <time>2026-05-14T14:47:33.000Z</time>
      </trkpt>
      <trkpt lat="44.18299" lon="5.30341">
        <ele>794.8</ele>
        <time>2026-05-14T14:47:34.000Z</time>
      </trkpt>
      <trkpt lat="44.18299" lon="5.30341">
        <ele>794.9</ele>
        <time>2026-05-14T14:47:35.000Z</time>
      </trkpt>
      <trkpt lat="44.18299" lon="5.30341">
        <ele>794.9</ele>
        <time>2026-05-14T14:47:36.000Z</time>
      </trkpt>
      <trkpt lat="44.18299" lon="5.30341">
        <ele>794.9</ele>
        <time>2026-05-14T14:47:37.000Z</time>
      </trkpt>
      <trkpt lat="44.18299" lon="5.30341">
        <ele>794.9</ele>
        <time>2026-05-14T14:47:38.000Z</time>
      </trkpt>
      <trkpt lat="44.18299" lon="5.30342">
        <ele>795</ele>
        <time>2026-05-14T14:47:39.000Z</time>
      </trkpt>
      <trkpt lat="44.18298" lon="5.30342">
        <ele>795</ele>
        <time>2026-05-14T14:47:40.000Z</time>
      </trkpt>
      <trkpt lat="44.18298" lon="5.30342">
        <ele>795.2</ele>
        <time>2026-05-14T14:47:41.000Z</time>
      </trkpt>
      <trkpt lat="44.18298" lon="5.30342">
        <ele>795.3</ele>
        <time>2026-05-14T14:47:42.000Z</time>
      </trkpt>
      <trkpt lat="44.18298" lon="5.30342">
        <ele>795.3</ele>
        <time>2026-05-14T14:47:43.000Z</time>
      </trkpt>
      <trkpt lat="44.18298" lon="5.30342">
        <ele>795.3</ele>
        <time>2026-05-14T14:47:44.000Z</time>
      </trkpt>
      <trkpt lat="44.18298" lon="5.30342">
        <ele>795.1</ele>
        <time>2026-05-14T14:47:45.000Z</time>
      </trkpt>
      <trkpt lat="44.18298" lon="5.30342">
        <ele>795</ele>
        <time>2026-05-14T14:47:46.000Z</time>
      </trkpt>
      <trkpt lat="44.18298" lon="5.30342">
        <ele>795.1</ele>
        <time>2026-05-14T14:47:47.000Z</time>
      </trkpt>
      <trkpt lat="44.18298" lon="5.30342">
        <ele>795.1</ele>
        <time>2026-05-14T14:47:48.000Z</time>
      </trkpt>
      <trkpt lat="44.18298" lon="5.30342">
        <ele>795.3</ele>
        <time>2026-05-14T14:47:49.000Z</time>
      </trkpt>
      <trkpt lat="44.18298" lon="5.30342">
        <ele>795.2</ele>
        <time>2026-05-14T14:47:50.000Z</time>
      </trkpt>
      <trkpt lat="44.18298" lon="5.30342">
        <ele>795</ele>
        <time>2026-05-14T14:47:51.000Z</time>
      </trkpt>
      <trkpt lat="44.18298" lon="5.30342">
        <ele>794.8</ele>
        <time>2026-05-14T14:47:52.000Z</time>
      </trkpt>
      <trkpt lat="44.18298" lon="5.30341">
        <ele>794.3</ele>
        <time>2026-05-14T14:47:53.000Z</time>
      </trkpt>
      <trkpt lat="44.18298" lon="5.30342">
        <ele>794</ele>
        <time>2026-05-14T14:47:54.000Z</time>
      </trkpt>
      <trkpt lat="44.18298" lon="5.30341">
        <ele>793.7</ele>
        <time>2026-05-14T14:47:55.000Z</time>
      </trkpt>
      <trkpt lat="44.18298" lon="5.30342">
        <ele>793.6</ele>
        <time>2026-05-14T14:47:56.000Z</time>
      </trkpt>
      <trkpt lat="44.18298" lon="5.30342">
        <ele>793.6</ele>
        <time>2026-05-14T14:47:57.000Z</time>
      </trkpt>
      <trkpt lat="44.18298" lon="5.30342">
        <ele>793.6</ele>
        <time>2026-05-14T14:47:58.000Z</time>
      </trkpt>
      <trkpt lat="44.18298" lon="5.30342">
        <ele>793.7</ele>
        <time>2026-05-14T14:47:59.000Z</time>
      </trkpt>
      <trkpt lat="44.18298" lon="5.30342">
        <ele>793.7</ele>
        <time>2026-05-14T14:48:00.000Z</time>
      </trkpt>
      <trkpt lat="44.18298" lon="5.30342">
        <ele>794</ele>
        <time>2026-05-14T14:48:01.000Z</time>
      </trkpt>
      <trkpt lat="44.18298" lon="5.30342">
        <ele>794.3</ele>
        <time>2026-05-14T14:48:02.000Z</time>
      </trkpt>
      <trkpt lat="44.18298" lon="5.30342">
        <ele>794.5</ele>
        <time>2026-05-14T14:48:03.000Z</time>
      </trkpt>
      <trkpt lat="44.18298" lon="5.30342">
        <ele>794.7</ele>
        <time>2026-05-14T14:48:04.000Z</time>
      </trkpt>
      <trkpt lat="44.18298" lon="5.30342">
        <ele>794.8</ele>
        <time>2026-05-14T14:48:05.000Z</time>
      </trkpt>
      <trkpt lat="44.18298" lon="5.30342">
        <ele>794.9</ele>
        <time>2026-05-14T14:48:06.000Z</time>
      </trkpt>
      <trkpt lat="44.18298" lon="5.30342">
        <ele>795</ele>
        <time>2026-05-14T14:48:07.000Z</time>
      </trkpt>
      <trkpt lat="44.18298" lon="5.30342">
        <ele>795.1</ele>
        <time>2026-05-14T14:48:08.000Z</time>
      </trkpt>
      <trkpt lat="44.18298" lon="5.30342">
        <ele>795.1</ele>
        <time>2026-05-14T14:48:09.000Z</time>
      </trkpt>
      <trkpt lat="44.18298" lon="5.3034">
        <ele>795</ele>
        <time>2026-05-14T14:48:10.000Z</time>
      </trkpt>
      <trkpt lat="44.18297" lon="5.30339">
        <ele>794.9</ele>
        <time>2026-05-14T14:48:11.000Z</time>
      </trkpt>
      <trkpt lat="44.18297" lon="5.30339">
        <ele>794.6</ele>
        <time>2026-05-14T14:48:12.000Z</time>
      </trkpt>
      <trkpt lat="44.18297" lon="5.30339">
        <ele>794.5</ele>
        <time>2026-05-14T14:48:13.000Z</time>
      </trkpt>
      <trkpt lat="44.18297" lon="5.30339">
        <ele>794.4</ele>
        <time>2026-05-14T14:48:14.000Z</time>
      </trkpt>
      <trkpt lat="44.18297" lon="5.30339">
        <ele>794.2</ele>
        <time>2026-05-14T14:48:15.000Z</time>
      </trkpt>
      <trkpt lat="44.18297" lon="5.30339">
        <ele>794.1</ele>
        <time>2026-05-14T14:48:16.000Z</time>
      </trkpt>
      <trkpt lat="44.18297" lon="5.30339">
        <ele>794</ele>
        <time>2026-05-14T14:48:17.000Z</time>
      </trkpt>
      <trkpt lat="44.18297" lon="5.30339">
        <ele>793.9</ele>
        <time>2026-05-14T14:48:18.000Z</time>
      </trkpt>
      <trkpt lat="44.18297" lon="5.30339">
        <ele>793.8</ele>
        <time>2026-05-14T14:48:19.000Z</time>
      </trkpt>
      <trkpt lat="44.18297" lon="5.3034">
        <ele>793.8</ele>
        <time>2026-05-14T14:48:20.000Z</time>
      </trkpt>
      <trkpt lat="44.18296" lon="5.3034">
        <ele>793.8</ele>
        <time>2026-05-14T14:48:21.000Z</time>
      </trkpt>
      <trkpt lat="44.18297" lon="5.30339">
        <ele>793.6</ele>
        <time>2026-05-14T14:48:22.000Z</time>
      </trkpt>
      <trkpt lat="44.18297" lon="5.3034">
        <ele>793.5</ele>
        <time>2026-05-14T14:48:23.000Z</time>
      </trkpt>
      <trkpt lat="44.18298" lon="5.3034">
        <ele>793.5</ele>
        <time>2026-05-14T14:48:24.000Z</time>
      </trkpt>
      <trkpt lat="44.18298" lon="5.3034">
        <ele>793.4</ele>
        <time>2026-05-14T14:48:25.000Z</time>
      </trkpt>
      <trkpt lat="44.18298" lon="5.3034">
        <ele>793.4</ele>
        <time>2026-05-14T14:48:26.000Z</time>
      </trkpt>
      <trkpt lat="44.18298" lon="5.3034">
        <ele>793.4</ele>
        <time>2026-05-14T14:48:27.000Z</time>
      </trkpt>
      <trkpt lat="44.18298" lon="5.3034">
        <ele>793.3</ele>
        <time>2026-05-14T14:48:28.000Z</time>
      </trkpt>
      <trkpt lat="44.18299" lon="5.3034">
        <ele>793.3</ele>
        <time>2026-05-14T14:48:29.000Z</time>
      </trkpt>
      <trkpt lat="44.18298" lon="5.30339">
        <ele>793.2</ele>
        <time>2026-05-14T14:48:30.000Z</time>
      </trkpt>
      <trkpt lat="44.18298" lon="5.30339">
        <ele>793.1</ele>
        <time>2026-05-14T14:48:31.000Z</time>
      </trkpt>
      <trkpt lat="44.18299" lon="5.30339">
        <ele>793</ele>
        <time>2026-05-14T14:48:32.000Z</time>
      </trkpt>
      <trkpt lat="44.18299" lon="5.30339">
        <ele>793</ele>
        <time>2026-05-14T14:48:33.000Z</time>
      </trkpt>
      <trkpt lat="44.18299" lon="5.3034">
        <ele>793</ele>
        <time>2026-05-14T14:48:34.000Z</time>
      </trkpt>
      <trkpt lat="44.18299" lon="5.3034">
        <ele>792.9</ele>
        <time>2026-05-14T14:48:35.000Z</time>
      </trkpt>
      <trkpt lat="44.18299" lon="5.3034">
        <ele>792.8</ele>
        <time>2026-05-14T14:48:36.000Z</time>
      </trkpt>
      <trkpt lat="44.18299" lon="5.3034">
        <ele>792.9</ele>
        <time>2026-05-14T14:48:37.000Z</time>
      </trkpt>
      <trkpt lat="44.18299" lon="5.3034">
        <ele>792.9</ele>
        <time>2026-05-14T14:48:38.000Z</time>
      </trkpt>
      <trkpt lat="44.18299" lon="5.30339">
        <ele>792.6</ele>
        <time>2026-05-14T14:48:39.000Z</time>
      </trkpt>
      <trkpt lat="44.18299" lon="5.30338">
        <ele>792.6</ele>
        <time>2026-05-14T14:48:40.000Z</time>
      </trkpt>
      <trkpt lat="44.18299" lon="5.30338">
        <ele>792.6</ele>
        <time>2026-05-14T14:48:41.000Z</time>
      </trkpt>
      <trkpt lat="44.18299" lon="5.30337">
        <ele>792.8</ele>
        <time>2026-05-14T14:48:42.000Z</time>
      </trkpt>
      <trkpt lat="44.18299" lon="5.30337">
        <ele>792.9</ele>
        <time>2026-05-14T14:48:43.000Z</time>
      </trkpt>
      <trkpt lat="44.18299" lon="5.30337">
        <ele>792.8</ele>
        <time>2026-05-14T14:48:44.000Z</time>
      </trkpt>
      <trkpt lat="44.18299" lon="5.30337">
        <ele>792.8</ele>
        <time>2026-05-14T14:48:45.000Z</time>
      </trkpt>
      <trkpt lat="44.183" lon="5.30337">
        <ele>792.8</ele>
        <time>2026-05-14T14:48:46.000Z</time>
      </trkpt>
      <trkpt lat="44.183" lon="5.30337">
        <ele>792.8</ele>
        <time>2026-05-14T14:48:47.000Z</time>
      </trkpt>
      <trkpt lat="44.183" lon="5.30337">
        <ele>792.9</ele>
        <time>2026-05-14T14:48:48.000Z</time>
      </trkpt>
      <trkpt lat="44.18301" lon="5.30337">
        <ele>792.8</ele>
        <time>2026-05-14T14:48:49.000Z</time>
      </trkpt>
      <trkpt lat="44.18301" lon="5.30337">
        <ele>792.7</ele>
        <time>2026-05-14T14:48:50.000Z</time>
      </trkpt>
      <trkpt lat="44.183" lon="5.30337">
        <ele>792.8</ele>
        <time>2026-05-14T14:48:51.000Z</time>
      </trkpt>
      <trkpt lat="44.183" lon="5.30337">
        <ele>792.8</ele>
        <time>2026-05-14T14:48:52.000Z</time>
      </trkpt>
      <trkpt lat="44.183" lon="5.30338">
        <ele>793</ele>
        <time>2026-05-14T14:48:53.000Z</time>
      </trkpt>
      <trkpt lat="44.183" lon="5.30338">
        <ele>793.4</ele>
        <time>2026-05-14T14:48:54.000Z</time>
      </trkpt>
      <trkpt lat="44.183" lon="5.30338">
        <ele>793.4</ele>
        <time>2026-05-14T14:48:55.000Z</time>
      </trkpt>
      <trkpt lat="44.183" lon="5.30338">
        <ele>793.5</ele>
        <time>2026-05-14T14:48:56.000Z</time>
      </trkpt>
      <trkpt lat="44.183" lon="5.30338">
        <ele>793.7</ele>
        <time>2026-05-14T14:48:57.000Z</time>
      </trkpt>
      <trkpt lat="44.183" lon="5.30338">
        <ele>793.7</ele>
        <time>2026-05-14T14:48:58.000Z</time>
      </trkpt>
      <trkpt lat="44.183" lon="5.30338">
        <ele>793.7</ele>
        <time>2026-05-14T14:48:59.000Z</time>
      </trkpt>
      <trkpt lat="44.183" lon="5.30338">
        <ele>793.7</ele>
        <time>2026-05-14T14:49:00.000Z</time>
      </trkpt>
      <trkpt lat="44.183" lon="5.30338">
        <ele>793.5</ele>
        <time>2026-05-14T14:49:01.000Z</time>
      </trkpt>
      <trkpt lat="44.183" lon="5.30338">
        <ele>793.4</ele>
        <time>2026-05-14T14:49:02.000Z</time>
      </trkpt>
      <trkpt lat="44.183" lon="5.30338">
        <ele>793.3</ele>
        <time>2026-05-14T14:49:03.000Z</time>
      </trkpt>
      <trkpt lat="44.183" lon="5.30338">
        <ele>793.1</ele>
        <time>2026-05-14T14:49:04.000Z</time>
      </trkpt>
      <trkpt lat="44.183" lon="5.30338">
        <ele>792.9</ele>
        <time>2026-05-14T14:49:05.000Z</time>
      </trkpt>
      <trkpt lat="44.183" lon="5.30338">
        <ele>792.7</ele>
        <time>2026-05-14T14:49:06.000Z</time>
      </trkpt>
      <trkpt lat="44.183" lon="5.30338">
        <ele>792.5</ele>
        <time>2026-05-14T14:49:07.000Z</time>
      </trkpt>
      <trkpt lat="44.183" lon="5.30338">
        <ele>792.4</ele>
        <time>2026-05-14T14:49:08.000Z</time>
      </trkpt>
      <trkpt lat="44.183" lon="5.30338">
        <ele>792.3</ele>
        <time>2026-05-14T14:49:09.000Z</time>
      </trkpt>
      <trkpt lat="44.183" lon="5.30338">
        <ele>792.3</ele>
        <time>2026-05-14T14:49:10.000Z</time>
      </trkpt>
      <trkpt lat="44.183" lon="5.30337">
        <ele>792.2</ele>
        <time>2026-05-14T14:49:11.000Z</time>
      </trkpt>
      <trkpt lat="44.183" lon="5.30337">
        <ele>792.1</ele>
        <time>2026-05-14T14:49:12.000Z</time>
      </trkpt>
      <trkpt lat="44.18301" lon="5.30337">
        <ele>792.1</ele>
        <time>2026-05-14T14:49:13.000Z</time>
      </trkpt>
      <trkpt lat="44.18301" lon="5.30336">
        <ele>792.1</ele>
        <time>2026-05-14T14:49:14.000Z</time>
      </trkpt>
      <trkpt lat="44.18301" lon="5.30336">
        <ele>792.1</ele>
        <time>2026-05-14T14:49:15.000Z</time>
      </trkpt>
      <trkpt lat="44.18301" lon="5.30336">
        <ele>792.1</ele>
        <time>2026-05-14T14:49:16.000Z</time>
      </trkpt>
      <trkpt lat="44.18301" lon="5.30336">
        <ele>792.2</ele>
        <time>2026-05-14T14:49:17.000Z</time>
      </trkpt>
      <trkpt lat="44.18301" lon="5.30336">
        <ele>792.3</ele>
        <time>2026-05-14T14:49:18.000Z</time>
      </trkpt>
      <trkpt lat="44.18301" lon="5.30336">
        <ele>792.3</ele>
        <time>2026-05-14T14:49:19.000Z</time>
      </trkpt>
      <trkpt lat="44.18301" lon="5.30336">
        <ele>792.3</ele>
        <time>2026-05-14T14:49:20.000Z</time>
      </trkpt>
      <trkpt lat="44.18301" lon="5.30336">
        <ele>792.2</ele>
        <time>2026-05-14T14:49:21.000Z</time>
      </trkpt>
      <trkpt lat="44.18301" lon="5.30336">
        <ele>792.2</ele>
        <time>2026-05-14T14:49:22.000Z</time>
      </trkpt>
      <trkpt lat="44.18301" lon="5.30336">
        <ele>792</ele>
        <time>2026-05-14T14:49:23.000Z</time>
      </trkpt>
      <trkpt lat="44.183" lon="5.30336">
        <ele>791.9</ele>
        <time>2026-05-14T14:49:24.000Z</time>
      </trkpt>
      <trkpt lat="44.183" lon="5.30336">
        <ele>791.8</ele>
        <time>2026-05-14T14:49:25.000Z</time>
      </trkpt>
      <trkpt lat="44.183" lon="5.30336">
        <ele>791.7</ele>
        <time>2026-05-14T14:49:26.000Z</time>
      </trkpt>
      <trkpt lat="44.18301" lon="5.30338">
        <ele>791.5</ele>
        <time>2026-05-14T14:49:27.000Z</time>
      </trkpt>
      <trkpt lat="44.18301" lon="5.30341">
        <ele>791.5</ele>
        <time>2026-05-14T14:49:28.000Z</time>
      </trkpt>
      <trkpt lat="44.18302" lon="5.30341">
        <ele>791.8</ele>
        <time>2026-05-14T14:49:29.000Z</time>
      </trkpt>
      <trkpt lat="44.18302" lon="5.30341">
        <ele>792.1</ele>
        <time>2026-05-14T14:49:30.000Z</time>
      </trkpt>
      <trkpt lat="44.18302" lon="5.30341">
        <ele>792.5</ele>
        <time>2026-05-14T14:49:31.000Z</time>
      </trkpt>
      <trkpt lat="44.18302" lon="5.30341">
        <ele>792.8</ele>
        <time>2026-05-14T14:49:32.000Z</time>
      </trkpt>
      <trkpt lat="44.18302" lon="5.3034">
        <ele>793.1</ele>
        <time>2026-05-14T14:49:33.000Z</time>
      </trkpt>
      <trkpt lat="44.18301" lon="5.3034">
        <ele>793.5</ele>
        <time>2026-05-14T14:49:34.000Z</time>
      </trkpt>
      <trkpt lat="44.183" lon="5.30341">
        <ele>793.8</ele>
        <time>2026-05-14T14:49:35.000Z</time>
      </trkpt>
      <trkpt lat="44.183" lon="5.30341">
        <ele>793.9</ele>
        <time>2026-05-14T14:49:36.000Z</time>
      </trkpt>
      <trkpt lat="44.183" lon="5.30341">
        <ele>793.9</ele>
        <time>2026-05-14T14:49:37.000Z</time>
      </trkpt>
      <trkpt lat="44.183" lon="5.30341">
        <ele>793.9</ele>
        <time>2026-05-14T14:49:38.000Z</time>
      </trkpt>
      <trkpt lat="44.183" lon="5.3034">
        <ele>793.6</ele>
        <time>2026-05-14T14:49:39.000Z</time>
      </trkpt>
      <trkpt lat="44.183" lon="5.30341">
        <ele>793.2</ele>
        <time>2026-05-14T14:49:40.000Z</time>
      </trkpt>
      <trkpt lat="44.183" lon="5.3034">
        <ele>793.1</ele>
        <time>2026-05-14T14:49:41.000Z</time>
      </trkpt>
      <trkpt lat="44.183" lon="5.30341">
        <ele>793.1</ele>
        <time>2026-05-14T14:49:42.000Z</time>
      </trkpt>
      <trkpt lat="44.183" lon="5.30341">
        <ele>793.3</ele>
        <time>2026-05-14T14:49:43.000Z</time>
      </trkpt>
      <trkpt lat="44.183" lon="5.30341">
        <ele>793.3</ele>
        <time>2026-05-14T14:49:44.000Z</time>
      </trkpt>
      <trkpt lat="44.183" lon="5.30341">
        <ele>793.3</ele>
        <time>2026-05-14T14:49:45.000Z</time>
      </trkpt>
      <trkpt lat="44.183" lon="5.30341">
        <ele>793.6</ele>
        <time>2026-05-14T14:49:46.000Z</time>
      </trkpt>
      <trkpt lat="44.183" lon="5.30341">
        <ele>793.8</ele>
        <time>2026-05-14T14:49:47.000Z</time>
      </trkpt>
      <trkpt lat="44.183" lon="5.30341">
        <ele>793.6</ele>
        <time>2026-05-14T14:49:48.000Z</time>
      </trkpt>
      <trkpt lat="44.183" lon="5.30341">
        <ele>793.6</ele>
        <time>2026-05-14T14:49:49.000Z</time>
      </trkpt>
      <trkpt lat="44.183" lon="5.30341">
        <ele>793.5</ele>
        <time>2026-05-14T14:49:50.000Z</time>
      </trkpt>
      <trkpt lat="44.183" lon="5.30341">
        <ele>793.2</ele>
        <time>2026-05-14T14:49:51.000Z</time>
      </trkpt>
      <trkpt lat="44.183" lon="5.30341">
        <ele>793.2</ele>
        <time>2026-05-14T14:49:52.000Z</time>
      </trkpt>
      <trkpt lat="44.18301" lon="5.30343">
        <ele>793.1</ele>
        <time>2026-05-14T14:49:53.000Z</time>
      </trkpt>
      <trkpt lat="44.18301" lon="5.30343">
        <ele>792.9</ele>
        <time>2026-05-14T14:49:54.000Z</time>
      </trkpt>
      <trkpt lat="44.18301" lon="5.30343">
        <ele>792.6</ele>
        <time>2026-05-14T14:49:55.000Z</time>
      </trkpt>
      <trkpt lat="44.18301" lon="5.30343">
        <ele>792.5</ele>
        <time>2026-05-14T14:49:56.000Z</time>
      </trkpt>
      <trkpt lat="44.18301" lon="5.30343">
        <ele>792.4</ele>
        <time>2026-05-14T14:49:57.000Z</time>
      </trkpt>
      <trkpt lat="44.18301" lon="5.30343">
        <ele>792.3</ele>
        <time>2026-05-14T14:49:58.000Z</time>
      </trkpt>
      <trkpt lat="44.18301" lon="5.30343">
        <ele>792.3</ele>
        <time>2026-05-14T14:49:59.000Z</time>
      </trkpt>
      <trkpt lat="44.18301" lon="5.30343">
        <ele>792.4</ele>
        <time>2026-05-14T14:50:00.000Z</time>
      </trkpt>
      <trkpt lat="44.18301" lon="5.30343">
        <ele>792.7</ele>
        <time>2026-05-14T14:50:01.000Z</time>
      </trkpt>
      <trkpt lat="44.18301" lon="5.30343">
        <ele>793.1</ele>
        <time>2026-05-14T14:50:02.000Z</time>
      </trkpt>
      <trkpt lat="44.18301" lon="5.30343">
        <ele>793.4</ele>
        <time>2026-05-14T14:50:03.000Z</time>
      </trkpt>
      <trkpt lat="44.18301" lon="5.30342">
        <ele>793.5</ele>
        <time>2026-05-14T14:50:04.000Z</time>
      </trkpt>
      <trkpt lat="44.18301" lon="5.30342">
        <ele>793.6</ele>
        <time>2026-05-14T14:50:05.000Z</time>
      </trkpt>
      <trkpt lat="44.18301" lon="5.30342">
        <ele>793.6</ele>
        <time>2026-05-14T14:50:06.000Z</time>
      </trkpt>
      <trkpt lat="44.18301" lon="5.30342">
        <ele>793.5</ele>
        <time>2026-05-14T14:50:07.000Z</time>
      </trkpt>
      <trkpt lat="44.18301" lon="5.30342">
        <ele>793.6</ele>
        <time>2026-05-14T14:50:08.000Z</time>
      </trkpt>
      <trkpt lat="44.18301" lon="5.30342">
        <ele>793.7</ele>
        <time>2026-05-14T14:50:09.000Z</time>
      </trkpt>
      <trkpt lat="44.18301" lon="5.30343">
        <ele>793.8</ele>
        <time>2026-05-14T14:50:10.000Z</time>
      </trkpt>
      <trkpt lat="44.18301" lon="5.30343">
        <ele>793.8</ele>
        <time>2026-05-14T14:50:11.000Z</time>
      </trkpt>
      <trkpt lat="44.18301" lon="5.30343">
        <ele>793.9</ele>
        <time>2026-05-14T14:50:12.000Z</time>
      </trkpt>
      <trkpt lat="44.18301" lon="5.30343">
        <ele>794</ele>
        <time>2026-05-14T14:50:13.000Z</time>
      </trkpt>
      <trkpt lat="44.18301" lon="5.30344">
        <ele>794.1</ele>
        <time>2026-05-14T14:50:14.000Z</time>
      </trkpt>
      <trkpt lat="44.18301" lon="5.30344">
        <ele>794.2</ele>
        <time>2026-05-14T14:50:15.000Z</time>
      </trkpt>
      <trkpt lat="44.18301" lon="5.30344">
        <ele>794.3</ele>
        <time>2026-05-14T14:50:16.000Z</time>
      </trkpt>
      <trkpt lat="44.18301" lon="5.30344">
        <ele>794.4</ele>
        <time>2026-05-14T14:50:17.000Z</time>
      </trkpt>
      <trkpt lat="44.18301" lon="5.30345">
        <ele>794.4</ele>
        <time>2026-05-14T14:50:18.000Z</time>
      </trkpt>
      <trkpt lat="44.183" lon="5.30345">
        <ele>794.4</ele>
        <time>2026-05-14T14:50:19.000Z</time>
      </trkpt>
      <trkpt lat="44.183" lon="5.30345">
        <ele>794.8</ele>
        <time>2026-05-14T14:50:20.000Z</time>
      </trkpt>
      <trkpt lat="44.183" lon="5.30345">
        <ele>794.9</ele>
        <time>2026-05-14T14:50:21.000Z</time>
      </trkpt>
      <trkpt lat="44.183" lon="5.30345">
        <ele>795.3</ele>
        <time>2026-05-14T14:50:22.000Z</time>
      </trkpt>
      <trkpt lat="44.183" lon="5.30345">
        <ele>795.5</ele>
        <time>2026-05-14T14:50:23.000Z</time>
      </trkpt>
      <trkpt lat="44.183" lon="5.30345">
        <ele>795.3</ele>
        <time>2026-05-14T14:50:24.000Z</time>
      </trkpt>
      <trkpt lat="44.18299" lon="5.30344">
        <ele>795.2</ele>
        <time>2026-05-14T14:50:25.000Z</time>
      </trkpt>
      <trkpt lat="44.18299" lon="5.30343">
        <ele>795.3</ele>
        <time>2026-05-14T14:50:26.000Z</time>
      </trkpt>
      <trkpt lat="44.18299" lon="5.30343">
        <ele>795.4</ele>
        <time>2026-05-14T14:50:27.000Z</time>
      </trkpt>
      <trkpt lat="44.18298" lon="5.30343">
        <ele>795.5</ele>
        <time>2026-05-14T14:50:28.000Z</time>
      </trkpt>
      <trkpt lat="44.18298" lon="5.30343">
        <ele>795.4</ele>
        <time>2026-05-14T14:50:29.000Z</time>
      </trkpt>
      <trkpt lat="44.18298" lon="5.30343">
        <ele>795.6</ele>
        <time>2026-05-14T14:50:30.000Z</time>
      </trkpt>
      <trkpt lat="44.18298" lon="5.30342">
        <ele>795.8</ele>
        <time>2026-05-14T14:50:31.000Z</time>
      </trkpt>
      <trkpt lat="44.18298" lon="5.30342">
        <ele>795.8</ele>
        <time>2026-05-14T14:50:32.000Z</time>
      </trkpt>
      <trkpt lat="44.18298" lon="5.30342">
        <ele>795.7</ele>
        <time>2026-05-14T14:50:33.000Z</time>
      </trkpt>
      <trkpt lat="44.18298" lon="5.30342">
        <ele>795.5</ele>
        <time>2026-05-14T14:50:34.000Z</time>
      </trkpt>
      <trkpt lat="44.18298" lon="5.30342">
        <ele>795.1</ele>
        <time>2026-05-14T14:50:35.000Z</time>
      </trkpt>
      <trkpt lat="44.18298" lon="5.30342">
        <ele>794.7</ele>
        <time>2026-05-14T14:50:36.000Z</time>
      </trkpt>
      <trkpt lat="44.18298" lon="5.30342">
        <ele>794.5</ele>
        <time>2026-05-14T14:50:37.000Z</time>
      </trkpt>
      <trkpt lat="44.18298" lon="5.30341">
        <ele>794.4</ele>
        <time>2026-05-14T14:50:38.000Z</time>
      </trkpt>
      <trkpt lat="44.18298" lon="5.30341">
        <ele>794.3</ele>
        <time>2026-05-14T14:50:39.000Z</time>
      </trkpt>
      <trkpt lat="44.18298" lon="5.30341">
        <ele>794.2</ele>
        <time>2026-05-14T14:50:40.000Z</time>
      </trkpt>
      <trkpt lat="44.18298" lon="5.30341">
        <ele>794.3</ele>
        <time>2026-05-14T14:50:41.000Z</time>
      </trkpt>
      <trkpt lat="44.18298" lon="5.30341">
        <ele>794.3</ele>
        <time>2026-05-14T14:50:42.000Z</time>
      </trkpt>
      <trkpt lat="44.18298" lon="5.3034">
        <ele>794.1</ele>
        <time>2026-05-14T14:50:43.000Z</time>
      </trkpt>
      <trkpt lat="44.18298" lon="5.3034">
        <ele>794.2</ele>
        <time>2026-05-14T14:50:44.000Z</time>
      </trkpt>
      <trkpt lat="44.18298" lon="5.3034">
        <ele>794.2</ele>
        <time>2026-05-14T14:50:45.000Z</time>
      </trkpt>
      <trkpt lat="44.18298" lon="5.3034">
        <ele>793.9</ele>
        <time>2026-05-14T14:50:46.000Z</time>
      </trkpt>
      <trkpt lat="44.18298" lon="5.3034">
        <ele>793.8</ele>
        <time>2026-05-14T14:50:47.000Z</time>
      </trkpt>
      <trkpt lat="44.18298" lon="5.3034">
        <ele>793.8</ele>
        <time>2026-05-14T14:50:48.000Z</time>
      </trkpt>
      <trkpt lat="44.18298" lon="5.30339">
        <ele>793.7</ele>
        <time>2026-05-14T14:50:49.000Z</time>
      </trkpt>
      <trkpt lat="44.18298" lon="5.30339">
        <ele>793.6</ele>
        <time>2026-05-14T14:50:50.000Z</time>
      </trkpt>
      <trkpt lat="44.18299" lon="5.30339">
        <ele>793.7</ele>
        <time>2026-05-14T14:50:51.000Z</time>
      </trkpt>
      <trkpt lat="44.183" lon="5.3034">
        <ele>793.5</ele>
        <time>2026-05-14T14:50:52.000Z</time>
      </trkpt>
      <trkpt lat="44.18301" lon="5.30342">
        <ele>793.5</ele>
        <time>2026-05-14T14:50:53.000Z</time>
      </trkpt>
      <trkpt lat="44.18301" lon="5.30342">
        <ele>793.5</ele>
        <time>2026-05-14T14:50:54.000Z</time>
      </trkpt>
      <trkpt lat="44.18301" lon="5.30343">
        <ele>793.4</ele>
        <time>2026-05-14T14:50:55.000Z</time>
      </trkpt>
      <trkpt lat="44.18301" lon="5.30343">
        <ele>793.5</ele>
        <time>2026-05-14T14:50:56.000Z</time>
      </trkpt>
      <trkpt lat="44.18301" lon="5.30343">
        <ele>793.3</ele>
        <time>2026-05-14T14:50:57.000Z</time>
      </trkpt>
      <trkpt lat="44.18302" lon="5.30343">
        <ele>793.2</ele>
        <time>2026-05-14T14:50:58.000Z</time>
      </trkpt>
      <trkpt lat="44.18302" lon="5.30344">
        <ele>792.9</ele>
        <time>2026-05-14T14:50:59.000Z</time>
      </trkpt>
      <trkpt lat="44.18303" lon="5.30344">
        <ele>792.7</ele>
        <time>2026-05-14T14:51:00.000Z</time>
      </trkpt>
      <trkpt lat="44.18304" lon="5.30346">
        <ele>792.3</ele>
        <time>2026-05-14T14:51:01.000Z</time>
      </trkpt>
      <trkpt lat="44.18305" lon="5.30346">
        <ele>792</ele>
        <time>2026-05-14T14:51:02.000Z</time>
      </trkpt>
      <trkpt lat="44.18305" lon="5.30346">
        <ele>792</ele>
        <time>2026-05-14T14:51:03.000Z</time>
      </trkpt>
      <trkpt lat="44.18305" lon="5.30347">
        <ele>791.8</ele>
        <time>2026-05-14T14:51:04.000Z</time>
      </trkpt>
      <trkpt lat="44.18306" lon="5.30347">
        <ele>791.4</ele>
        <time>2026-05-14T14:51:05.000Z</time>
      </trkpt>
      <trkpt lat="44.18306" lon="5.30347">
        <ele>791.1</ele>
        <time>2026-05-14T14:51:06.000Z</time>
      </trkpt>
      <trkpt lat="44.18308" lon="5.30349">
        <ele>790.9</ele>
        <time>2026-05-14T14:51:07.000Z</time>
      </trkpt>
      <trkpt lat="44.18308" lon="5.30349">
        <ele>791.4</ele>
        <time>2026-05-14T14:51:08.000Z</time>
      </trkpt>
      <trkpt lat="44.18308" lon="5.30349">
        <ele>791.1</ele>
        <time>2026-05-14T14:51:09.000Z</time>
      </trkpt>
      <trkpt lat="44.18308" lon="5.30352">
        <ele>791</ele>
        <time>2026-05-14T14:51:10.000Z</time>
      </trkpt>
      <trkpt lat="44.18309" lon="5.30355">
        <ele>790.9</ele>
        <time>2026-05-14T14:51:11.000Z</time>
      </trkpt>
      <trkpt lat="44.1831" lon="5.30356">
        <ele>791.1</ele>
        <time>2026-05-14T14:51:12.000Z</time>
      </trkpt>
      <trkpt lat="44.1831" lon="5.30357">
        <ele>791.1</ele>
        <time>2026-05-14T14:51:13.000Z</time>
      </trkpt>
      <trkpt lat="44.1831" lon="5.30358">
        <ele>790.9</ele>
        <time>2026-05-14T14:51:14.000Z</time>
      </trkpt>
      <trkpt lat="44.1831" lon="5.3036">
        <ele>790.8</ele>
        <time>2026-05-14T14:51:15.000Z</time>
      </trkpt>
      <trkpt lat="44.18311" lon="5.30362">
        <ele>790.7</ele>
        <time>2026-05-14T14:51:16.000Z</time>
      </trkpt>
      <trkpt lat="44.18311" lon="5.30364">
        <ele>790.5</ele>
        <time>2026-05-14T14:51:17.000Z</time>
      </trkpt>
      <trkpt lat="44.18311" lon="5.30366">
        <ele>790.9</ele>
        <time>2026-05-14T14:51:18.000Z</time>
      </trkpt>
      <trkpt lat="44.18311" lon="5.30366">
        <ele>791.1</ele>
        <time>2026-05-14T14:51:19.000Z</time>
      </trkpt>
      <trkpt lat="44.18311" lon="5.30367">
        <ele>791.3</ele>
        <time>2026-05-14T14:51:20.000Z</time>
      </trkpt>
      <trkpt lat="44.18311" lon="5.30369">
        <ele>791.7</ele>
        <time>2026-05-14T14:51:21.000Z</time>
      </trkpt>
      <trkpt lat="44.18311" lon="5.30369">
        <ele>791.9</ele>
        <time>2026-05-14T14:51:22.000Z</time>
      </trkpt>
      <trkpt lat="44.18312" lon="5.3037">
        <ele>791.9</ele>
        <time>2026-05-14T14:51:23.000Z</time>
      </trkpt>
      <trkpt lat="44.18312" lon="5.3037">
        <ele>791.8</ele>
        <time>2026-05-14T14:51:24.000Z</time>
      </trkpt>
      <trkpt lat="44.18312" lon="5.3037">
        <ele>792.1</ele>
        <time>2026-05-14T14:51:25.000Z</time>
      </trkpt>
      <trkpt lat="44.18312" lon="5.3037">
        <ele>792.2</ele>
        <time>2026-05-14T14:51:26.000Z</time>
      </trkpt>
      <trkpt lat="44.18312" lon="5.3037">
        <ele>792.1</ele>
        <time>2026-05-14T14:51:27.000Z</time>
      </trkpt>
      <trkpt lat="44.18312" lon="5.30371">
        <ele>792</ele>
        <time>2026-05-14T14:51:28.000Z</time>
      </trkpt>
      <trkpt lat="44.18312" lon="5.30371">
        <ele>791.9</ele>
        <time>2026-05-14T14:51:29.000Z</time>
      </trkpt>
      <trkpt lat="44.18313" lon="5.30372">
        <ele>791.8</ele>
        <time>2026-05-14T14:51:30.000Z</time>
      </trkpt>
      <trkpt lat="44.18314" lon="5.30373">
        <ele>791.8</ele>
        <time>2026-05-14T14:51:31.000Z</time>
      </trkpt>
      <trkpt lat="44.18314" lon="5.30375">
        <ele>791.6</ele>
        <time>2026-05-14T14:51:32.000Z</time>
      </trkpt>
      <trkpt lat="44.18314" lon="5.30375">
        <ele>791.3</ele>
        <time>2026-05-14T14:51:33.000Z</time>
      </trkpt>
      <trkpt lat="44.18315" lon="5.30376">
        <ele>791</ele>
        <time>2026-05-14T14:51:34.000Z</time>
      </trkpt>
      <trkpt lat="44.18315" lon="5.30376">
        <ele>790.7</ele>
        <time>2026-05-14T14:51:35.000Z</time>
      </trkpt>
      <trkpt lat="44.18315" lon="5.30378">
        <ele>790.1</ele>
        <time>2026-05-14T14:51:36.000Z</time>
      </trkpt>
      <trkpt lat="44.18314" lon="5.3038">
        <ele>789.7</ele>
        <time>2026-05-14T14:51:37.000Z</time>
      </trkpt>
      <trkpt lat="44.18314" lon="5.30382">
        <ele>789.5</ele>
        <time>2026-05-14T14:51:38.000Z</time>
      </trkpt>
      <trkpt lat="44.18313" lon="5.30383">
        <ele>789.3</ele>
        <time>2026-05-14T14:51:39.000Z</time>
      </trkpt>
      <trkpt lat="44.18313" lon="5.30384">
        <ele>789.2</ele>
        <time>2026-05-14T14:51:40.000Z</time>
      </trkpt>
      <trkpt lat="44.18312" lon="5.30386">
        <ele>789</ele>
        <time>2026-05-14T14:51:41.000Z</time>
      </trkpt>
      <trkpt lat="44.18312" lon="5.30388">
        <ele>789.1</ele>
        <time>2026-05-14T14:51:42.000Z</time>
      </trkpt>
      <trkpt lat="44.18311" lon="5.3039">
        <ele>789</ele>
        <time>2026-05-14T14:51:43.000Z</time>
      </trkpt>
      <trkpt lat="44.1831" lon="5.30393">
        <ele>789.1</ele>
        <time>2026-05-14T14:51:44.000Z</time>
      </trkpt>
      <trkpt lat="44.18309" lon="5.30395">
        <ele>789.1</ele>
        <time>2026-05-14T14:51:45.000Z</time>
      </trkpt>
      <trkpt lat="44.18309" lon="5.30397">
        <ele>789.1</ele>
        <time>2026-05-14T14:51:46.000Z</time>
      </trkpt>
      <trkpt lat="44.18309" lon="5.30399">
        <ele>789</ele>
        <time>2026-05-14T14:51:47.000Z</time>
      </trkpt>
      <trkpt lat="44.18308" lon="5.304">
        <ele>788.9</ele>
        <time>2026-05-14T14:51:48.000Z</time>
      </trkpt>
      <trkpt lat="44.18308" lon="5.30401">
        <ele>788.9</ele>
        <time>2026-05-14T14:51:49.000Z</time>
      </trkpt>
      <trkpt lat="44.18308" lon="5.30402">
        <ele>788.7</ele>
        <time>2026-05-14T14:51:50.000Z</time>
      </trkpt>
      <trkpt lat="44.18308" lon="5.30404">
        <ele>787.7</ele>
        <time>2026-05-14T14:51:51.000Z</time>
      </trkpt>
      <trkpt lat="44.18308" lon="5.30405">
        <ele>787.5</ele>
        <time>2026-05-14T14:51:52.000Z</time>
      </trkpt>
      <trkpt lat="44.18307" lon="5.30405">
        <ele>787.7</ele>
        <time>2026-05-14T14:51:53.000Z</time>
      </trkpt>
      <trkpt lat="44.18308" lon="5.30406">
        <ele>787.7</ele>
        <time>2026-05-14T14:51:54.000Z</time>
      </trkpt>
      <trkpt lat="44.18307" lon="5.30407">
        <ele>787.5</ele>
        <time>2026-05-14T14:51:55.000Z</time>
      </trkpt>
      <trkpt lat="44.18307" lon="5.30409">
        <ele>787</ele>
        <time>2026-05-14T14:51:56.000Z</time>
      </trkpt>
      <trkpt lat="44.18307" lon="5.3041">
        <ele>786.6</ele>
        <time>2026-05-14T14:51:57.000Z</time>
      </trkpt>
      <trkpt lat="44.18306" lon="5.30411">
        <ele>785.8</ele>
        <time>2026-05-14T14:51:58.000Z</time>
      </trkpt>
      <trkpt lat="44.18306" lon="5.30413">
        <ele>785.5</ele>
        <time>2026-05-14T14:51:59.000Z</time>
      </trkpt>
      <trkpt lat="44.18305" lon="5.30414">
        <ele>785.2</ele>
        <time>2026-05-14T14:52:00.000Z</time>
      </trkpt>
      <trkpt lat="44.18305" lon="5.30415">
        <ele>785.3</ele>
        <time>2026-05-14T14:52:01.000Z</time>
      </trkpt>
      <trkpt lat="44.18305" lon="5.30416">
        <ele>785.2</ele>
        <time>2026-05-14T14:52:02.000Z</time>
      </trkpt>
      <trkpt lat="44.18306" lon="5.30417">
        <ele>785.2</ele>
        <time>2026-05-14T14:52:03.000Z</time>
      </trkpt>
      <trkpt lat="44.18305" lon="5.30419">
        <ele>784.7</ele>
        <time>2026-05-14T14:52:04.000Z</time>
      </trkpt>
      <trkpt lat="44.18304" lon="5.30421">
        <ele>784.2</ele>
        <time>2026-05-14T14:52:05.000Z</time>
      </trkpt>
      <trkpt lat="44.18303" lon="5.30423">
        <ele>784.2</ele>
        <time>2026-05-14T14:52:06.000Z</time>
      </trkpt>
      <trkpt lat="44.18302" lon="5.30425">
        <ele>784.2</ele>
        <time>2026-05-14T14:52:07.000Z</time>
      </trkpt>
      <trkpt lat="44.18301" lon="5.30426">
        <ele>784.4</ele>
        <time>2026-05-14T14:52:08.000Z</time>
      </trkpt>
      <trkpt lat="44.183" lon="5.30427">
        <ele>784.2</ele>
        <time>2026-05-14T14:52:09.000Z</time>
      </trkpt>
      <trkpt lat="44.183" lon="5.30428">
        <ele>783.9</ele>
        <time>2026-05-14T14:52:10.000Z</time>
      </trkpt>
      <trkpt lat="44.183" lon="5.3043">
        <ele>784</ele>
        <time>2026-05-14T14:52:11.000Z</time>
      </trkpt>
      <trkpt lat="44.18301" lon="5.30431">
        <ele>784</ele>
        <time>2026-05-14T14:52:12.000Z</time>
      </trkpt>
      <trkpt lat="44.18301" lon="5.30432">
        <ele>784.3</ele>
        <time>2026-05-14T14:52:13.000Z</time>
      </trkpt>
      <trkpt lat="44.18301" lon="5.30433">
        <ele>784.5</ele>
        <time>2026-05-14T14:52:14.000Z</time>
      </trkpt>
      <trkpt lat="44.183" lon="5.30434">
        <ele>784.9</ele>
        <time>2026-05-14T14:52:15.000Z</time>
      </trkpt>
      <trkpt lat="44.183" lon="5.30434">
        <ele>785</ele>
        <time>2026-05-14T14:52:16.000Z</time>
      </trkpt>
      <trkpt lat="44.18299" lon="5.30434">
        <ele>784.8</ele>
        <time>2026-05-14T14:52:17.000Z</time>
      </trkpt>
      <trkpt lat="44.18299" lon="5.30434">
        <ele>784.8</ele>
        <time>2026-05-14T14:52:18.000Z</time>
      </trkpt>
      <trkpt lat="44.18298" lon="5.30435">
        <ele>784.9</ele>
        <time>2026-05-14T14:52:19.000Z</time>
      </trkpt>
      <trkpt lat="44.18298" lon="5.30436">
        <ele>785</ele>
        <time>2026-05-14T14:52:20.000Z</time>
      </trkpt>
      <trkpt lat="44.18298" lon="5.30437">
        <ele>785.1</ele>
        <time>2026-05-14T14:52:21.000Z</time>
      </trkpt>
      <trkpt lat="44.18298" lon="5.30439">
        <ele>785.2</ele>
        <time>2026-05-14T14:52:22.000Z</time>
      </trkpt>
      <trkpt lat="44.18297" lon="5.30441">
        <ele>785.2</ele>
        <time>2026-05-14T14:52:23.000Z</time>
      </trkpt>
      <trkpt lat="44.18296" lon="5.30442">
        <ele>785.1</ele>
        <time>2026-05-14T14:52:24.000Z</time>
      </trkpt>
      <trkpt lat="44.18296" lon="5.30442">
        <ele>785</ele>
        <time>2026-05-14T14:52:25.000Z</time>
      </trkpt>
      <trkpt lat="44.18295" lon="5.30442">
        <ele>785</ele>
        <time>2026-05-14T14:52:26.000Z</time>
      </trkpt>
      <trkpt lat="44.18295" lon="5.30443">
        <ele>785.3</ele>
        <time>2026-05-14T14:52:27.000Z</time>
      </trkpt>
      <trkpt lat="44.18295" lon="5.30443">
        <ele>785.2</ele>
        <time>2026-05-14T14:52:28.000Z</time>
      </trkpt>
      <trkpt lat="44.18295" lon="5.30445">
        <ele>785.4</ele>
        <time>2026-05-14T14:52:29.000Z</time>
      </trkpt>
      <trkpt lat="44.18295" lon="5.30446">
        <ele>785.2</ele>
        <time>2026-05-14T14:52:30.000Z</time>
      </trkpt>
      <trkpt lat="44.18295" lon="5.30447">
        <ele>785.3</ele>
        <time>2026-05-14T14:52:31.000Z</time>
      </trkpt>
      <trkpt lat="44.18294" lon="5.30448">
        <ele>785.5</ele>
        <time>2026-05-14T14:52:32.000Z</time>
      </trkpt>
      <trkpt lat="44.18293" lon="5.30449">
        <ele>785.6</ele>
        <time>2026-05-14T14:52:33.000Z</time>
      </trkpt>
      <trkpt lat="44.18292" lon="5.30449">
        <ele>785.5</ele>
        <time>2026-05-14T14:52:34.000Z</time>
      </trkpt>
      <trkpt lat="44.18292" lon="5.30449">
        <ele>785.4</ele>
        <time>2026-05-14T14:52:35.000Z</time>
      </trkpt>
      <trkpt lat="44.18291" lon="5.3045">
        <ele>785.6</ele>
        <time>2026-05-14T14:52:36.000Z</time>
      </trkpt>
      <trkpt lat="44.1829" lon="5.3045">
        <ele>785.9</ele>
        <time>2026-05-14T14:52:37.000Z</time>
      </trkpt>
      <trkpt lat="44.1829" lon="5.3045">
        <ele>785.8</ele>
        <time>2026-05-14T14:52:38.000Z</time>
      </trkpt>
      <trkpt lat="44.18289" lon="5.30452">
        <ele>785.9</ele>
        <time>2026-05-14T14:52:39.000Z</time>
      </trkpt>
      <trkpt lat="44.18287" lon="5.30453">
        <ele>785.8</ele>
        <time>2026-05-14T14:52:40.000Z</time>
      </trkpt>
      <trkpt lat="44.18287" lon="5.30454">
        <ele>785.5</ele>
        <time>2026-05-14T14:52:41.000Z</time>
      </trkpt>
      <trkpt lat="44.18286" lon="5.30455">
        <ele>785.5</ele>
        <time>2026-05-14T14:52:42.000Z</time>
      </trkpt>
      <trkpt lat="44.18285" lon="5.30455">
        <ele>784.8</ele>
        <time>2026-05-14T14:52:43.000Z</time>
      </trkpt>
      <trkpt lat="44.18283" lon="5.30456">
        <ele>784.5</ele>
        <time>2026-05-14T14:52:44.000Z</time>
      </trkpt>
      <trkpt lat="44.18282" lon="5.30457">
        <ele>784.7</ele>
        <time>2026-05-14T14:52:45.000Z</time>
      </trkpt>
      <trkpt lat="44.18281" lon="5.30457">
        <ele>784.8</ele>
        <time>2026-05-14T14:52:46.000Z</time>
      </trkpt>
      <trkpt lat="44.1828" lon="5.30457">
        <ele>784.7</ele>
        <time>2026-05-14T14:52:47.000Z</time>
      </trkpt>
      <trkpt lat="44.18279" lon="5.30456">
        <ele>784.6</ele>
        <time>2026-05-14T14:52:48.000Z</time>
      </trkpt>
      <trkpt lat="44.18279" lon="5.30455">
        <ele>784.3</ele>
        <time>2026-05-14T14:52:49.000Z</time>
      </trkpt>
      <trkpt lat="44.18278" lon="5.30455">
        <ele>785.7</ele>
        <time>2026-05-14T14:52:50.000Z</time>
      </trkpt>
      <trkpt lat="44.18278" lon="5.30455">
        <ele>785.8</ele>
        <time>2026-05-14T14:52:51.000Z</time>
      </trkpt>
      <trkpt lat="44.18278" lon="5.30455">
        <ele>785.7</ele>
        <time>2026-05-14T14:52:52.000Z</time>
      </trkpt>
      <trkpt lat="44.18277" lon="5.30453">
        <ele>785.9</ele>
        <time>2026-05-14T14:52:53.000Z</time>
      </trkpt>
      <trkpt lat="44.18278" lon="5.30454">
        <ele>785.4</ele>
        <time>2026-05-14T14:52:54.000Z</time>
      </trkpt>
      <trkpt lat="44.18277" lon="5.30454">
        <ele>785</ele>
        <time>2026-05-14T14:52:55.000Z</time>
      </trkpt>
      <trkpt lat="44.18276" lon="5.30453">
        <ele>784.7</ele>
        <time>2026-05-14T14:52:56.000Z</time>
      </trkpt>
      <trkpt lat="44.18275" lon="5.30452">
        <ele>784.4</ele>
        <time>2026-05-14T14:52:57.000Z</time>
      </trkpt>
      <trkpt lat="44.18275" lon="5.30452">
        <ele>784.2</ele>
        <time>2026-05-14T14:52:58.000Z</time>
      </trkpt>
      <trkpt lat="44.18274" lon="5.30451">
        <ele>784.1</ele>
        <time>2026-05-14T14:52:59.000Z</time>
      </trkpt>
      <trkpt lat="44.18274" lon="5.30452">
        <ele>783.9</ele>
        <time>2026-05-14T14:53:00.000Z</time>
      </trkpt>
      <trkpt lat="44.18274" lon="5.30451">
        <ele>783.9</ele>
        <time>2026-05-14T14:53:01.000Z</time>
      </trkpt>
      <trkpt lat="44.18273" lon="5.30451">
        <ele>783.5</ele>
        <time>2026-05-14T14:53:02.000Z</time>
      </trkpt>
      <trkpt lat="44.18274" lon="5.30452">
        <ele>783.3</ele>
        <time>2026-05-14T14:53:03.000Z</time>
      </trkpt>
      <trkpt lat="44.18274" lon="5.30453">
        <ele>783</ele>
        <time>2026-05-14T14:53:04.000Z</time>
      </trkpt>
      <trkpt lat="44.18274" lon="5.30453">
        <ele>782.9</ele>
        <time>2026-05-14T14:53:05.000Z</time>
      </trkpt>
      <trkpt lat="44.18274" lon="5.30453">
        <ele>782.7</ele>
        <time>2026-05-14T14:53:06.000Z</time>
      </trkpt>
      <trkpt lat="44.18274" lon="5.30453">
        <ele>783</ele>
        <time>2026-05-14T14:53:07.000Z</time>
      </trkpt>
      <trkpt lat="44.18274" lon="5.30453">
        <ele>783.1</ele>
        <time>2026-05-14T14:53:08.000Z</time>
      </trkpt>
      <trkpt lat="44.18274" lon="5.30453">
        <ele>783</ele>
        <time>2026-05-14T14:53:09.000Z</time>
      </trkpt>
      <trkpt lat="44.18274" lon="5.30453">
        <ele>783</ele>
        <time>2026-05-14T14:53:10.000Z</time>
      </trkpt>
      <trkpt lat="44.18274" lon="5.30453">
        <ele>782.8</ele>
        <time>2026-05-14T14:53:11.000Z</time>
      </trkpt>
      <trkpt lat="44.18274" lon="5.30453">
        <ele>782.8</ele>
        <time>2026-05-14T14:53:12.000Z</time>
      </trkpt>
      <trkpt lat="44.18274" lon="5.30453">
        <ele>782.9</ele>
        <time>2026-05-14T14:53:13.000Z</time>
      </trkpt>
      <trkpt lat="44.18274" lon="5.30453">
        <ele>783.1</ele>
        <time>2026-05-14T14:53:14.000Z</time>
      </trkpt>
      <trkpt lat="44.18274" lon="5.30453">
        <ele>783</ele>
        <time>2026-05-14T14:53:15.000Z</time>
      </trkpt>
      <trkpt lat="44.18273" lon="5.3045">
        <ele>782.9</ele>
        <time>2026-05-14T14:53:16.000Z</time>
      </trkpt>
      <trkpt lat="44.18272" lon="5.30448">
        <ele>782.7</ele>
        <time>2026-05-14T14:53:17.000Z</time>
      </trkpt>
      <trkpt lat="44.18271" lon="5.30445">
        <ele>782.7</ele>
        <time>2026-05-14T14:53:18.000Z</time>
      </trkpt>
      <trkpt lat="44.1827" lon="5.30442">
        <ele>782.5</ele>
        <time>2026-05-14T14:53:19.000Z</time>
      </trkpt>
      <trkpt lat="44.18269" lon="5.3044">
        <ele>782.3</ele>
        <time>2026-05-14T14:53:20.000Z</time>
      </trkpt>
      <trkpt lat="44.18268" lon="5.30438">
        <ele>782.1</ele>
        <time>2026-05-14T14:53:21.000Z</time>
      </trkpt>
      <trkpt lat="44.18267" lon="5.30437">
        <ele>781.9</ele>
        <time>2026-05-14T14:53:22.000Z</time>
      </trkpt>
      <trkpt lat="44.18266" lon="5.30434">
        <ele>782</ele>
        <time>2026-05-14T14:53:23.000Z</time>
      </trkpt>
      <trkpt lat="44.18265" lon="5.30432">
        <ele>781.9</ele>
        <time>2026-05-14T14:53:24.000Z</time>
      </trkpt>
      <trkpt lat="44.18264" lon="5.3043">
        <ele>781.7</ele>
        <time>2026-05-14T14:53:25.000Z</time>
      </trkpt>
      <trkpt lat="44.18264" lon="5.30429">
        <ele>781.8</ele>
        <time>2026-05-14T14:53:26.000Z</time>
      </trkpt>
      <trkpt lat="44.18263" lon="5.30428">
        <ele>781.4</ele>
        <time>2026-05-14T14:53:27.000Z</time>
      </trkpt>
      <trkpt lat="44.18262" lon="5.30427">
        <ele>781.2</ele>
        <time>2026-05-14T14:53:28.000Z</time>
      </trkpt>
      <trkpt lat="44.18261" lon="5.30426">
        <ele>780.8</ele>
        <time>2026-05-14T14:53:29.000Z</time>
      </trkpt>
      <trkpt lat="44.1826" lon="5.30425">
        <ele>780.7</ele>
        <time>2026-05-14T14:53:30.000Z</time>
      </trkpt>
      <trkpt lat="44.18259" lon="5.30425">
        <ele>781</ele>
        <time>2026-05-14T14:53:31.000Z</time>
      </trkpt>
      <trkpt lat="44.18258" lon="5.30425">
        <ele>781.2</ele>
        <time>2026-05-14T14:53:32.000Z</time>
      </trkpt>
      <trkpt lat="44.18257" lon="5.30424">
        <ele>780.9</ele>
        <time>2026-05-14T14:53:33.000Z</time>
      </trkpt>
      <trkpt lat="44.18256" lon="5.30424">
        <ele>780.4</ele>
        <time>2026-05-14T14:53:34.000Z</time>
      </trkpt>
      <trkpt lat="44.18255" lon="5.30423">
        <ele>780.4</ele>
        <time>2026-05-14T14:53:35.000Z</time>
      </trkpt>
      <trkpt lat="44.18253" lon="5.30422">
        <ele>780.6</ele>
        <time>2026-05-14T14:53:36.000Z</time>
      </trkpt>
      <trkpt lat="44.18252" lon="5.30422">
        <ele>780.7</ele>
        <time>2026-05-14T14:53:37.000Z</time>
      </trkpt>
      <trkpt lat="44.18251" lon="5.30421">
        <ele>780.7</ele>
        <time>2026-05-14T14:53:38.000Z</time>
      </trkpt>
      <trkpt lat="44.18249" lon="5.30421">
        <ele>780.4</ele>
        <time>2026-05-14T14:53:39.000Z</time>
      </trkpt>
      <trkpt lat="44.18248" lon="5.30421">
        <ele>780.2</ele>
        <time>2026-05-14T14:53:40.000Z</time>
      </trkpt>
      <trkpt lat="44.18246" lon="5.3042">
        <ele>780.2</ele>
        <time>2026-05-14T14:53:41.000Z</time>
      </trkpt>
      <trkpt lat="44.18246" lon="5.30419">
        <ele>780.1</ele>
        <time>2026-05-14T14:53:42.000Z</time>
      </trkpt>
      <trkpt lat="44.18245" lon="5.30418">
        <ele>780</ele>
        <time>2026-05-14T14:53:43.000Z</time>
      </trkpt>
      <trkpt lat="44.18244" lon="5.30417">
        <ele>780.1</ele>
        <time>2026-05-14T14:53:44.000Z</time>
      </trkpt>
      <trkpt lat="44.18242" lon="5.30417">
        <ele>780</ele>
        <time>2026-05-14T14:53:45.000Z</time>
      </trkpt>
      <trkpt lat="44.18241" lon="5.30416">
        <ele>779.6</ele>
        <time>2026-05-14T14:53:46.000Z</time>
      </trkpt>
      <trkpt lat="44.1824" lon="5.30416">
        <ele>779.8</ele>
        <time>2026-05-14T14:53:47.000Z</time>
      </trkpt>
      <trkpt lat="44.18238" lon="5.30415">
        <ele>780.1</ele>
        <time>2026-05-14T14:53:48.000Z</time>
      </trkpt>
      <trkpt lat="44.18238" lon="5.30415">
        <ele>779.8</ele>
        <time>2026-05-14T14:53:49.000Z</time>
      </trkpt>
      <trkpt lat="44.18237" lon="5.30414">
        <ele>779.8</ele>
        <time>2026-05-14T14:53:50.000Z</time>
      </trkpt>
      <trkpt lat="44.18236" lon="5.30414">
        <ele>779.8</ele>
        <time>2026-05-14T14:53:51.000Z</time>
      </trkpt>
      <trkpt lat="44.18235" lon="5.30415">
        <ele>780</ele>
        <time>2026-05-14T14:53:52.000Z</time>
      </trkpt>
      <trkpt lat="44.18235" lon="5.30415">
        <ele>779.8</ele>
        <time>2026-05-14T14:53:53.000Z</time>
      </trkpt>
      <trkpt lat="44.18234" lon="5.30415">
        <ele>779.6</ele>
        <time>2026-05-14T14:53:54.000Z</time>
      </trkpt>
      <trkpt lat="44.18233" lon="5.30414">
        <ele>779.7</ele>
        <time>2026-05-14T14:53:55.000Z</time>
      </trkpt>
      <trkpt lat="44.18232" lon="5.30414">
        <ele>779.4</ele>
        <time>2026-05-14T14:53:56.000Z</time>
      </trkpt>
      <trkpt lat="44.18232" lon="5.30414">
        <ele>779.8</ele>
        <time>2026-05-14T14:53:57.000Z</time>
      </trkpt>
      <trkpt lat="44.18231" lon="5.30415">
        <ele>779.7</ele>
        <time>2026-05-14T14:53:58.000Z</time>
      </trkpt>
      <trkpt lat="44.18231" lon="5.30416">
        <ele>779.6</ele>
        <time>2026-05-14T14:53:59.000Z</time>
      </trkpt>
      <trkpt lat="44.1823" lon="5.30415">
        <ele>779.6</ele>
        <time>2026-05-14T14:54:00.000Z</time>
      </trkpt>
      <trkpt lat="44.18229" lon="5.30414">
        <ele>779.9</ele>
        <time>2026-05-14T14:54:01.000Z</time>
      </trkpt>
      <trkpt lat="44.18228" lon="5.30414">
        <ele>779.7</ele>
        <time>2026-05-14T14:54:02.000Z</time>
      </trkpt>
      <trkpt lat="44.18227" lon="5.30414">
        <ele>779.7</ele>
        <time>2026-05-14T14:54:03.000Z</time>
      </trkpt>
      <trkpt lat="44.18227" lon="5.30413">
        <ele>779.8</ele>
        <time>2026-05-14T14:54:04.000Z</time>
      </trkpt>
      <trkpt lat="44.18227" lon="5.30413">
        <ele>780.2</ele>
        <time>2026-05-14T14:54:05.000Z</time>
      </trkpt>
      <trkpt lat="44.18227" lon="5.30413">
        <ele>780.4</ele>
        <time>2026-05-14T14:54:06.000Z</time>
      </trkpt>
      <trkpt lat="44.18226" lon="5.30413">
        <ele>780.4</ele>
        <time>2026-05-14T14:54:07.000Z</time>
      </trkpt>
      <trkpt lat="44.18225" lon="5.30413">
        <ele>780.8</ele>
        <time>2026-05-14T14:54:08.000Z</time>
      </trkpt>
      <trkpt lat="44.18225" lon="5.30413">
        <ele>781</ele>
        <time>2026-05-14T14:54:09.000Z</time>
      </trkpt>
      <trkpt lat="44.18224" lon="5.30412">
        <ele>781</ele>
        <time>2026-05-14T14:54:10.000Z</time>
      </trkpt>
      <trkpt lat="44.18224" lon="5.30412">
        <ele>780.9</ele>
        <time>2026-05-14T14:54:11.000Z</time>
      </trkpt>
      <trkpt lat="44.18224" lon="5.30412">
        <ele>780.6</ele>
        <time>2026-05-14T14:54:12.000Z</time>
      </trkpt>
      <trkpt lat="44.18223" lon="5.30412">
        <ele>780.5</ele>
        <time>2026-05-14T14:54:13.000Z</time>
      </trkpt>
      <trkpt lat="44.18222" lon="5.30411">
        <ele>780.6</ele>
        <time>2026-05-14T14:54:14.000Z</time>
      </trkpt>
      <trkpt lat="44.18222" lon="5.30411">
        <ele>780.6</ele>
        <time>2026-05-14T14:54:15.000Z</time>
      </trkpt>
      <trkpt lat="44.18221" lon="5.30411">
        <ele>780.4</ele>
        <time>2026-05-14T14:54:16.000Z</time>
      </trkpt>
      <trkpt lat="44.1822" lon="5.30411">
        <ele>780.3</ele>
        <time>2026-05-14T14:54:17.000Z</time>
      </trkpt>
      <trkpt lat="44.1822" lon="5.30411">
        <ele>779.8</ele>
        <time>2026-05-14T14:54:18.000Z</time>
      </trkpt>
      <trkpt lat="44.1822" lon="5.30411">
        <ele>780.3</ele>
        <time>2026-05-14T14:54:19.000Z</time>
      </trkpt>
      <trkpt lat="44.1822" lon="5.30411">
        <ele>779.9</ele>
        <time>2026-05-14T14:54:20.000Z</time>
      </trkpt>
      <trkpt lat="44.18218" lon="5.30411">
        <ele>779.6</ele>
        <time>2026-05-14T14:54:21.000Z</time>
      </trkpt>
      <trkpt lat="44.18217" lon="5.30411">
        <ele>779.4</ele>
        <time>2026-05-14T14:54:22.000Z</time>
      </trkpt>
      <trkpt lat="44.18215" lon="5.3041">
        <ele>779.1</ele>
        <time>2026-05-14T14:54:23.000Z</time>
      </trkpt>
      <trkpt lat="44.18214" lon="5.30409">
        <ele>779.1</ele>
        <time>2026-05-14T14:54:24.000Z</time>
      </trkpt>
      <trkpt lat="44.18213" lon="5.30408">
        <ele>779</ele>
        <time>2026-05-14T14:54:25.000Z</time>
      </trkpt>
      <trkpt lat="44.18212" lon="5.30406">
        <ele>779.2</ele>
        <time>2026-05-14T14:54:26.000Z</time>
      </trkpt>
      <trkpt lat="44.18212" lon="5.30405">
        <ele>779.3</ele>
        <time>2026-05-14T14:54:27.000Z</time>
      </trkpt>
      <trkpt lat="44.1821" lon="5.30405">
        <ele>779.5</ele>
        <time>2026-05-14T14:54:28.000Z</time>
      </trkpt>
      <trkpt lat="44.1821" lon="5.30405">
        <ele>779.5</ele>
        <time>2026-05-14T14:54:29.000Z</time>
      </trkpt>
      <trkpt lat="44.1821" lon="5.30405">
        <ele>779.6</ele>
        <time>2026-05-14T14:54:30.000Z</time>
      </trkpt>
      <trkpt lat="44.1821" lon="5.30405">
        <ele>780.5</ele>
        <time>2026-05-14T14:54:31.000Z</time>
      </trkpt>
      <trkpt lat="44.1821" lon="5.30405">
        <ele>780.7</ele>
        <time>2026-05-14T14:54:32.000Z</time>
      </trkpt>
      <trkpt lat="44.18209" lon="5.30405">
        <ele>780.8</ele>
        <time>2026-05-14T14:54:33.000Z</time>
      </trkpt>
      <trkpt lat="44.18209" lon="5.30405">
        <ele>780.9</ele>
        <time>2026-05-14T14:54:34.000Z</time>
      </trkpt>
      <trkpt lat="44.18209" lon="5.30405">
        <ele>781.2</ele>
        <time>2026-05-14T14:54:35.000Z</time>
      </trkpt>
      <trkpt lat="44.18209" lon="5.30405">
        <ele>781.2</ele>
        <time>2026-05-14T14:54:36.000Z</time>
      </trkpt>
      <trkpt lat="44.18209" lon="5.30405">
        <ele>781</ele>
        <time>2026-05-14T14:54:37.000Z</time>
      </trkpt>
      <trkpt lat="44.18209" lon="5.30405">
        <ele>780.8</ele>
        <time>2026-05-14T14:54:38.000Z</time>
      </trkpt>
      <trkpt lat="44.18208" lon="5.30405">
        <ele>780.8</ele>
        <time>2026-05-14T14:54:39.000Z</time>
      </trkpt>
      <trkpt lat="44.18208" lon="5.30405">
        <ele>780.5</ele>
        <time>2026-05-14T14:54:40.000Z</time>
      </trkpt>
      <trkpt lat="44.18208" lon="5.30405">
        <ele>780.4</ele>
        <time>2026-05-14T14:54:41.000Z</time>
      </trkpt>
      <trkpt lat="44.18208" lon="5.30405">
        <ele>780.3</ele>
        <time>2026-05-14T14:54:42.000Z</time>
      </trkpt>
      <trkpt lat="44.18207" lon="5.30404">
        <ele>780.6</ele>
        <time>2026-05-14T14:54:43.000Z</time>
      </trkpt>
      <trkpt lat="44.18206" lon="5.30403">
        <ele>780.5</ele>
        <time>2026-05-14T14:54:44.000Z</time>
      </trkpt>
      <trkpt lat="44.18204" lon="5.30402">
        <ele>780.4</ele>
        <time>2026-05-14T14:54:45.000Z</time>
      </trkpt>
      <trkpt lat="44.18203" lon="5.30402">
        <ele>780.5</ele>
        <time>2026-05-14T14:54:46.000Z</time>
      </trkpt>
      <trkpt lat="44.18202" lon="5.30401">
        <ele>780.7</ele>
        <time>2026-05-14T14:54:47.000Z</time>
      </trkpt>
      <trkpt lat="44.18199" lon="5.30401">
        <ele>780.5</ele>
        <time>2026-05-14T14:54:48.000Z</time>
      </trkpt>
      <trkpt lat="44.18196" lon="5.30401">
        <ele>780.2</ele>
        <time>2026-05-14T14:54:49.000Z</time>
      </trkpt>
      <trkpt lat="44.18195" lon="5.30401">
        <ele>780.2</ele>
        <time>2026-05-14T14:54:50.000Z</time>
      </trkpt>
      <trkpt lat="44.18194" lon="5.30403">
        <ele>780.1</ele>
        <time>2026-05-14T14:54:51.000Z</time>
      </trkpt>
      <trkpt lat="44.18192" lon="5.30403">
        <ele>779.9</ele>
        <time>2026-05-14T14:54:52.000Z</time>
      </trkpt>
      <trkpt lat="44.18191" lon="5.30404">
        <ele>779.5</ele>
        <time>2026-05-14T14:54:53.000Z</time>
      </trkpt>
      <trkpt lat="44.1819" lon="5.30405">
        <ele>779</ele>
        <time>2026-05-14T14:54:54.000Z</time>
      </trkpt>
      <trkpt lat="44.18188" lon="5.30407">
        <ele>778.9</ele>
        <time>2026-05-14T14:54:55.000Z</time>
      </trkpt>
      <trkpt lat="44.18187" lon="5.30408">
        <ele>778.9</ele>
        <time>2026-05-14T14:54:56.000Z</time>
      </trkpt>
      <trkpt lat="44.18186" lon="5.3041">
        <ele>779</ele>
        <time>2026-05-14T14:54:57.000Z</time>
      </trkpt>
      <trkpt lat="44.18186" lon="5.30411">
        <ele>778.9</ele>
        <time>2026-05-14T14:54:58.000Z</time>
      </trkpt>
      <trkpt lat="44.18187" lon="5.30414">
        <ele>778.1</ele>
        <time>2026-05-14T14:54:59.000Z</time>
      </trkpt>
      <trkpt lat="44.18188" lon="5.30416">
        <ele>777.6</ele>
        <time>2026-05-14T14:55:00.000Z</time>
      </trkpt>
      <trkpt lat="44.18188" lon="5.30418">
        <ele>777.4</ele>
        <time>2026-05-14T14:55:01.000Z</time>
      </trkpt>
      <trkpt lat="44.18188" lon="5.30419">
        <ele>777.6</ele>
        <time>2026-05-14T14:55:02.000Z</time>
      </trkpt>
      <trkpt lat="44.18188" lon="5.3042">
        <ele>777.3</ele>
        <time>2026-05-14T14:55:03.000Z</time>
      </trkpt>
      <trkpt lat="44.18188" lon="5.30421">
        <ele>776.8</ele>
        <time>2026-05-14T14:55:04.000Z</time>
      </trkpt>
      <trkpt lat="44.18188" lon="5.30422">
        <ele>776.6</ele>
        <time>2026-05-14T14:55:05.000Z</time>
      </trkpt>
      <trkpt lat="44.18188" lon="5.30424">
        <ele>776.6</ele>
        <time>2026-05-14T14:55:06.000Z</time>
      </trkpt>
      <trkpt lat="44.18189" lon="5.30427">
        <ele>776.8</ele>
        <time>2026-05-14T14:55:07.000Z</time>
      </trkpt>
      <trkpt lat="44.18189" lon="5.30428">
        <ele>776.8</ele>
        <time>2026-05-14T14:55:08.000Z</time>
      </trkpt>
      <trkpt lat="44.1819" lon="5.3043">
        <ele>776.7</ele>
        <time>2026-05-14T14:55:09.000Z</time>
      </trkpt>
      <trkpt lat="44.18191" lon="5.30431">
        <ele>776.6</ele>
        <time>2026-05-14T14:55:10.000Z</time>
      </trkpt>
      <trkpt lat="44.18191" lon="5.30431">
        <ele>776.6</ele>
        <time>2026-05-14T14:55:11.000Z</time>
      </trkpt>
      <trkpt lat="44.18191" lon="5.30431">
        <ele>776.2</ele>
        <time>2026-05-14T14:55:12.000Z</time>
      </trkpt>
      <trkpt lat="44.18191" lon="5.30431">
        <ele>776</ele>
        <time>2026-05-14T14:55:13.000Z</time>
      </trkpt>
      <trkpt lat="44.18191" lon="5.30432">
        <ele>775.2</ele>
        <time>2026-05-14T14:55:14.000Z</time>
      </trkpt>
      <trkpt lat="44.18191" lon="5.30432">
        <ele>775.2</ele>
        <time>2026-05-14T14:55:15.000Z</time>
      </trkpt>
      <trkpt lat="44.18191" lon="5.30432">
        <ele>775.5</ele>
        <time>2026-05-14T14:55:16.000Z</time>
      </trkpt>
      <trkpt lat="44.18191" lon="5.30432">
        <ele>775.5</ele>
        <time>2026-05-14T14:55:17.000Z</time>
      </trkpt>
      <trkpt lat="44.18191" lon="5.30432">
        <ele>775</ele>
        <time>2026-05-14T14:55:18.000Z</time>
      </trkpt>
      <trkpt lat="44.18192" lon="5.30433">
        <ele>774.7</ele>
        <time>2026-05-14T14:55:19.000Z</time>
      </trkpt>
      <trkpt lat="44.18192" lon="5.30435">
        <ele>774.4</ele>
        <time>2026-05-14T14:55:20.000Z</time>
      </trkpt>
      <trkpt lat="44.18193" lon="5.30436">
        <ele>774.3</ele>
        <time>2026-05-14T14:55:21.000Z</time>
      </trkpt>
      <trkpt lat="44.18193" lon="5.30437">
        <ele>774.4</ele>
        <time>2026-05-14T14:55:22.000Z</time>
      </trkpt>
      <trkpt lat="44.18194" lon="5.30438">
        <ele>774.3</ele>
        <time>2026-05-14T14:55:23.000Z</time>
      </trkpt>
      <trkpt lat="44.18195" lon="5.30438">
        <ele>774.3</ele>
        <time>2026-05-14T14:55:24.000Z</time>
      </trkpt>
      <trkpt lat="44.18196" lon="5.30439">
        <ele>774</ele>
        <time>2026-05-14T14:55:25.000Z</time>
      </trkpt>
      <trkpt lat="44.18197" lon="5.30441">
        <ele>774</ele>
        <time>2026-05-14T14:55:26.000Z</time>
      </trkpt>
      <trkpt lat="44.18199" lon="5.30442">
        <ele>773.8</ele>
        <time>2026-05-14T14:55:27.000Z</time>
      </trkpt>
      <trkpt lat="44.182" lon="5.30443">
        <ele>773.7</ele>
        <time>2026-05-14T14:55:28.000Z</time>
      </trkpt>
      <trkpt lat="44.182" lon="5.30444">
        <ele>773.6</ele>
        <time>2026-05-14T14:55:29.000Z</time>
      </trkpt>
      <trkpt lat="44.182" lon="5.30444">
        <ele>773.6</ele>
        <time>2026-05-14T14:55:30.000Z</time>
      </trkpt>
      <trkpt lat="44.182" lon="5.30446">
        <ele>773.4</ele>
        <time>2026-05-14T14:55:31.000Z</time>
      </trkpt>
      <trkpt lat="44.18201" lon="5.30447">
        <ele>773.3</ele>
        <time>2026-05-14T14:55:32.000Z</time>
      </trkpt>
      <trkpt lat="44.18202" lon="5.30448">
        <ele>773.2</ele>
        <time>2026-05-14T14:55:33.000Z</time>
      </trkpt>
      <trkpt lat="44.18203" lon="5.30449">
        <ele>773.2</ele>
        <time>2026-05-14T14:55:34.000Z</time>
      </trkpt>
      <trkpt lat="44.18204" lon="5.30449">
        <ele>773.2</ele>
        <time>2026-05-14T14:55:35.000Z</time>
      </trkpt>
      <trkpt lat="44.18204" lon="5.3045">
        <ele>773.2</ele>
        <time>2026-05-14T14:55:36.000Z</time>
      </trkpt>
      <trkpt lat="44.18205" lon="5.3045">
        <ele>773.4</ele>
        <time>2026-05-14T14:55:37.000Z</time>
      </trkpt>
      <trkpt lat="44.18205" lon="5.30451">
        <ele>773.5</ele>
        <time>2026-05-14T14:55:38.000Z</time>
      </trkpt>
      <trkpt lat="44.18205" lon="5.30451">
        <ele>773.5</ele>
        <time>2026-05-14T14:55:39.000Z</time>
      </trkpt>
      <trkpt lat="44.18205" lon="5.30451">
        <ele>773.6</ele>
        <time>2026-05-14T14:55:40.000Z</time>
      </trkpt>
      <trkpt lat="44.18206" lon="5.30452">
        <ele>773.9</ele>
        <time>2026-05-14T14:55:41.000Z</time>
      </trkpt>
      <trkpt lat="44.18206" lon="5.30453">
        <ele>773.9</ele>
        <time>2026-05-14T14:55:42.000Z</time>
      </trkpt>
      <trkpt lat="44.18207" lon="5.30455">
        <ele>774</ele>
        <time>2026-05-14T14:55:43.000Z</time>
      </trkpt>
      <trkpt lat="44.18208" lon="5.30456">
        <ele>773.9</ele>
        <time>2026-05-14T14:55:44.000Z</time>
      </trkpt>
      <trkpt lat="44.18208" lon="5.30457">
        <ele>773.4</ele>
        <time>2026-05-14T14:55:45.000Z</time>
      </trkpt>
      <trkpt lat="44.18209" lon="5.30457">
        <ele>772.9</ele>
        <time>2026-05-14T14:55:46.000Z</time>
      </trkpt>
      <trkpt lat="44.18209" lon="5.30457">
        <ele>772.5</ele>
        <time>2026-05-14T14:55:47.000Z</time>
      </trkpt>
      <trkpt lat="44.18209" lon="5.30456">
        <ele>772.1</ele>
        <time>2026-05-14T14:55:48.000Z</time>
      </trkpt>
      <trkpt lat="44.18208" lon="5.30456">
        <ele>771.9</ele>
        <time>2026-05-14T14:55:49.000Z</time>
      </trkpt>
      <trkpt lat="44.18208" lon="5.30457">
        <ele>772</ele>
        <time>2026-05-14T14:55:50.000Z</time>
      </trkpt>
      <trkpt lat="44.18208" lon="5.30457">
        <ele>772.3</ele>
        <time>2026-05-14T14:55:51.000Z</time>
      </trkpt>
      <trkpt lat="44.18209" lon="5.30458">
        <ele>772.1</ele>
        <time>2026-05-14T14:55:52.000Z</time>
      </trkpt>
      <trkpt lat="44.18209" lon="5.30459">
        <ele>772.1</ele>
        <time>2026-05-14T14:55:53.000Z</time>
      </trkpt>
      <trkpt lat="44.18209" lon="5.3046">
        <ele>772</ele>
        <time>2026-05-14T14:55:54.000Z</time>
      </trkpt>
      <trkpt lat="44.18209" lon="5.30461">
        <ele>772.1</ele>
        <time>2026-05-14T14:55:55.000Z</time>
      </trkpt>
      <trkpt lat="44.18209" lon="5.30462">
        <ele>771.9</ele>
        <time>2026-05-14T14:55:56.000Z</time>
      </trkpt>
      <trkpt lat="44.18209" lon="5.30462">
        <ele>771.7</ele>
        <time>2026-05-14T14:55:57.000Z</time>
      </trkpt>
      <trkpt lat="44.1821" lon="5.30463">
        <ele>771.4</ele>
        <time>2026-05-14T14:55:58.000Z</time>
      </trkpt>
      <trkpt lat="44.18211" lon="5.30464">
        <ele>771.5</ele>
        <time>2026-05-14T14:55:59.000Z</time>
      </trkpt>
      <trkpt lat="44.18212" lon="5.30466">
        <ele>771.5</ele>
        <time>2026-05-14T14:56:00.000Z</time>
      </trkpt>
      <trkpt lat="44.18213" lon="5.30468">
        <ele>771.5</ele>
        <time>2026-05-14T14:56:01.000Z</time>
      </trkpt>
      <trkpt lat="44.18214" lon="5.3047">
        <ele>771.9</ele>
        <time>2026-05-14T14:56:02.000Z</time>
      </trkpt>
      <trkpt lat="44.18215" lon="5.30471">
        <ele>771.9</ele>
        <time>2026-05-14T14:56:03.000Z</time>
      </trkpt>
      <trkpt lat="44.18215" lon="5.30472">
        <ele>771.7</ele>
        <time>2026-05-14T14:56:04.000Z</time>
      </trkpt>
      <trkpt lat="44.18217" lon="5.30473">
        <ele>771.8</ele>
        <time>2026-05-14T14:56:05.000Z</time>
      </trkpt>
      <trkpt lat="44.18218" lon="5.30474">
        <ele>771.8</ele>
        <time>2026-05-14T14:56:06.000Z</time>
      </trkpt>
      <trkpt lat="44.18219" lon="5.30475">
        <ele>771.6</ele>
        <time>2026-05-14T14:56:07.000Z</time>
      </trkpt>
      <trkpt lat="44.1822" lon="5.30476">
        <ele>772.1</ele>
        <time>2026-05-14T14:56:08.000Z</time>
      </trkpt>
      <trkpt lat="44.1822" lon="5.30477">
        <ele>771.8</ele>
        <time>2026-05-14T14:56:09.000Z</time>
      </trkpt>
      <trkpt lat="44.1822" lon="5.30478">
        <ele>771.7</ele>
        <time>2026-05-14T14:56:10.000Z</time>
      </trkpt>
      <trkpt lat="44.1822" lon="5.3048">
        <ele>771.7</ele>
        <time>2026-05-14T14:56:11.000Z</time>
      </trkpt>
      <trkpt lat="44.1822" lon="5.30481">
        <ele>771.9</ele>
        <time>2026-05-14T14:56:12.000Z</time>
      </trkpt>
      <trkpt lat="44.1822" lon="5.30483">
        <ele>772.3</ele>
        <time>2026-05-14T14:56:13.000Z</time>
      </trkpt>
      <trkpt lat="44.1822" lon="5.30484">
        <ele>772.1</ele>
        <time>2026-05-14T14:56:14.000Z</time>
      </trkpt>
      <trkpt lat="44.18219" lon="5.30486">
        <ele>772.1</ele>
        <time>2026-05-14T14:56:15.000Z</time>
      </trkpt>
      <trkpt lat="44.1822" lon="5.30487">
        <ele>772.5</ele>
        <time>2026-05-14T14:56:16.000Z</time>
      </trkpt>
      <trkpt lat="44.1822" lon="5.3049">
        <ele>772.6</ele>
        <time>2026-05-14T14:56:17.000Z</time>
      </trkpt>
      <trkpt lat="44.1822" lon="5.30492">
        <ele>772.9</ele>
        <time>2026-05-14T14:56:18.000Z</time>
      </trkpt>
      <trkpt lat="44.1822" lon="5.30492">
        <ele>773.2</ele>
        <time>2026-05-14T14:56:19.000Z</time>
      </trkpt>
      <trkpt lat="44.1822" lon="5.30492">
        <ele>772.3</ele>
        <time>2026-05-14T14:56:20.000Z</time>
      </trkpt>
      <trkpt lat="44.1822" lon="5.30494">
        <ele>772.1</ele>
        <time>2026-05-14T14:56:21.000Z</time>
      </trkpt>
      <trkpt lat="44.18219" lon="5.30495">
        <ele>772.4</ele>
        <time>2026-05-14T14:56:22.000Z</time>
      </trkpt>
      <trkpt lat="44.18218" lon="5.30497">
        <ele>772.5</ele>
        <time>2026-05-14T14:56:23.000Z</time>
      </trkpt>
      <trkpt lat="44.18218" lon="5.30499">
        <ele>772.8</ele>
        <time>2026-05-14T14:56:24.000Z</time>
      </trkpt>
      <trkpt lat="44.18219" lon="5.30501">
        <ele>773.1</ele>
        <time>2026-05-14T14:56:25.000Z</time>
      </trkpt>
      <trkpt lat="44.1822" lon="5.30503">
        <ele>773.7</ele>
        <time>2026-05-14T14:56:26.000Z</time>
      </trkpt>
      <trkpt lat="44.1822" lon="5.30504">
        <ele>774.4</ele>
        <time>2026-05-14T14:56:27.000Z</time>
      </trkpt>
      <trkpt lat="44.1822" lon="5.30503">
        <ele>774.9</ele>
        <time>2026-05-14T14:56:28.000Z</time>
      </trkpt>
      <trkpt lat="44.1822" lon="5.30504">
        <ele>775.4</ele>
        <time>2026-05-14T14:56:29.000Z</time>
      </trkpt>
      <trkpt lat="44.1822" lon="5.30504">
        <ele>775</ele>
        <time>2026-05-14T14:56:30.000Z</time>
      </trkpt>
      <trkpt lat="44.1822" lon="5.30504">
        <ele>774.6</ele>
        <time>2026-05-14T14:56:31.000Z</time>
      </trkpt>
      <trkpt lat="44.1822" lon="5.30505">
        <ele>774.1</ele>
        <time>2026-05-14T14:56:32.000Z</time>
      </trkpt>
      <trkpt lat="44.1822" lon="5.30507">
        <ele>773.8</ele>
        <time>2026-05-14T14:56:33.000Z</time>
      </trkpt>
      <trkpt lat="44.18221" lon="5.30508">
        <ele>773.7</ele>
        <time>2026-05-14T14:56:34.000Z</time>
      </trkpt>
      <trkpt lat="44.18221" lon="5.30509">
        <ele>773.6</ele>
        <time>2026-05-14T14:56:35.000Z</time>
      </trkpt>
      <trkpt lat="44.18221" lon="5.3051">
        <ele>773.7</ele>
        <time>2026-05-14T14:56:36.000Z</time>
      </trkpt>
      <trkpt lat="44.18221" lon="5.30511">
        <ele>773.5</ele>
        <time>2026-05-14T14:56:37.000Z</time>
      </trkpt>
      <trkpt lat="44.18221" lon="5.30513">
        <ele>773.4</ele>
        <time>2026-05-14T14:56:38.000Z</time>
      </trkpt>
      <trkpt lat="44.1822" lon="5.30514">
        <ele>773.2</ele>
        <time>2026-05-14T14:56:39.000Z</time>
      </trkpt>
      <trkpt lat="44.1822" lon="5.30515">
        <ele>773</ele>
        <time>2026-05-14T14:56:40.000Z</time>
      </trkpt>
      <trkpt lat="44.1822" lon="5.30517">
        <ele>772.7</ele>
        <time>2026-05-14T14:56:41.000Z</time>
      </trkpt>
      <trkpt lat="44.1822" lon="5.30519">
        <ele>772.4</ele>
        <time>2026-05-14T14:56:42.000Z</time>
      </trkpt>
      <trkpt lat="44.18219" lon="5.3052">
        <ele>771.9</ele>
        <time>2026-05-14T14:56:43.000Z</time>
      </trkpt>
      <trkpt lat="44.18219" lon="5.30521">
        <ele>771.8</ele>
        <time>2026-05-14T14:56:44.000Z</time>
      </trkpt>
      <trkpt lat="44.18218" lon="5.30522">
        <ele>771.5</ele>
        <time>2026-05-14T14:56:45.000Z</time>
      </trkpt>
      <trkpt lat="44.18216" lon="5.30523">
        <ele>771.4</ele>
        <time>2026-05-14T14:56:46.000Z</time>
      </trkpt>
      <trkpt lat="44.18216" lon="5.30524">
        <ele>771.1</ele>
        <time>2026-05-14T14:56:47.000Z</time>
      </trkpt>
      <trkpt lat="44.18216" lon="5.30524">
        <ele>771</ele>
        <time>2026-05-14T14:56:48.000Z</time>
      </trkpt>
      <trkpt lat="44.18217" lon="5.30526">
        <ele>771.3</ele>
        <time>2026-05-14T14:56:49.000Z</time>
      </trkpt>
      <trkpt lat="44.18217" lon="5.30527">
        <ele>771.4</ele>
        <time>2026-05-14T14:56:50.000Z</time>
      </trkpt>
      <trkpt lat="44.18217" lon="5.30528">
        <ele>771.4</ele>
        <time>2026-05-14T14:56:51.000Z</time>
      </trkpt>
      <trkpt lat="44.18218" lon="5.30528">
        <ele>771.6</ele>
        <time>2026-05-14T14:56:52.000Z</time>
      </trkpt>
      <trkpt lat="44.18219" lon="5.30529">
        <ele>771.3</ele>
        <time>2026-05-14T14:56:53.000Z</time>
      </trkpt>
      <trkpt lat="44.18219" lon="5.30529">
        <ele>771.4</ele>
        <time>2026-05-14T14:56:54.000Z</time>
      </trkpt>
      <trkpt lat="44.18219" lon="5.3053">
        <ele>771.1</ele>
        <time>2026-05-14T14:56:55.000Z</time>
      </trkpt>
      <trkpt lat="44.1822" lon="5.30532">
        <ele>770.8</ele>
        <time>2026-05-14T14:56:56.000Z</time>
      </trkpt>
      <trkpt lat="44.1822" lon="5.30533">
        <ele>770.6</ele>
        <time>2026-05-14T14:56:57.000Z</time>
      </trkpt>
      <trkpt lat="44.1822" lon="5.30534">
        <ele>770.2</ele>
        <time>2026-05-14T14:56:58.000Z</time>
      </trkpt>
      <trkpt lat="44.1822" lon="5.30535">
        <ele>770.3</ele>
        <time>2026-05-14T14:56:59.000Z</time>
      </trkpt>
      <trkpt lat="44.1822" lon="5.30537">
        <ele>770.7</ele>
        <time>2026-05-14T14:57:00.000Z</time>
      </trkpt>
      <trkpt lat="44.1822" lon="5.30538">
        <ele>770.6</ele>
        <time>2026-05-14T14:57:01.000Z</time>
      </trkpt>
      <trkpt lat="44.18219" lon="5.30539">
        <ele>770.4</ele>
        <time>2026-05-14T14:57:02.000Z</time>
      </trkpt>
      <trkpt lat="44.18219" lon="5.30539">
        <ele>770.6</ele>
        <time>2026-05-14T14:57:03.000Z</time>
      </trkpt>
      <trkpt lat="44.18219" lon="5.30541">
        <ele>770.3</ele>
        <time>2026-05-14T14:57:04.000Z</time>
      </trkpt>
      <trkpt lat="44.18219" lon="5.30541">
        <ele>770.4</ele>
        <time>2026-05-14T14:57:05.000Z</time>
      </trkpt>
      <trkpt lat="44.18218" lon="5.30542">
        <ele>770.3</ele>
        <time>2026-05-14T14:57:06.000Z</time>
      </trkpt>
      <trkpt lat="44.18218" lon="5.30542">
        <ele>770.4</ele>
        <time>2026-05-14T14:57:07.000Z</time>
      </trkpt>
      <trkpt lat="44.18218" lon="5.30542">
        <ele>770.4</ele>
        <time>2026-05-14T14:57:08.000Z</time>
      </trkpt>
      <trkpt lat="44.18218" lon="5.30543">
        <ele>771.1</ele>
        <time>2026-05-14T14:57:09.000Z</time>
      </trkpt>
      <trkpt lat="44.18218" lon="5.30543">
        <ele>771.2</ele>
        <time>2026-05-14T14:57:10.000Z</time>
      </trkpt>
      <trkpt lat="44.18218" lon="5.30543">
        <ele>771.3</ele>
        <time>2026-05-14T14:57:11.000Z</time>
      </trkpt>
      <trkpt lat="44.18218" lon="5.30543">
        <ele>771.2</ele>
        <time>2026-05-14T14:57:12.000Z</time>
      </trkpt>
      <trkpt lat="44.18218" lon="5.30543">
        <ele>771.2</ele>
        <time>2026-05-14T14:57:13.000Z</time>
      </trkpt>
      <trkpt lat="44.18217" lon="5.30543">
        <ele>771.1</ele>
        <time>2026-05-14T14:57:14.000Z</time>
      </trkpt>
      <trkpt lat="44.18217" lon="5.30543">
        <ele>771</ele>
        <time>2026-05-14T14:57:15.000Z</time>
      </trkpt>
      <trkpt lat="44.18217" lon="5.30544">
        <ele>771.3</ele>
        <time>2026-05-14T14:57:16.000Z</time>
      </trkpt>
      <trkpt lat="44.18217" lon="5.30544">
        <ele>771.1</ele>
        <time>2026-05-14T14:57:17.000Z</time>
      </trkpt>
      <trkpt lat="44.18217" lon="5.30544">
        <ele>771.3</ele>
        <time>2026-05-14T14:57:18.000Z</time>
      </trkpt>
      <trkpt lat="44.18217" lon="5.30546">
        <ele>771.3</ele>
        <time>2026-05-14T14:57:19.000Z</time>
      </trkpt>
      <trkpt lat="44.18216" lon="5.30547">
        <ele>771.3</ele>
        <time>2026-05-14T14:57:20.000Z</time>
      </trkpt>
      <trkpt lat="44.18215" lon="5.30549">
        <ele>771</ele>
        <time>2026-05-14T14:57:21.000Z</time>
      </trkpt>
      <trkpt lat="44.18214" lon="5.3055">
        <ele>770.7</ele>
        <time>2026-05-14T14:57:22.000Z</time>
      </trkpt>
      <trkpt lat="44.18214" lon="5.30552">
        <ele>770.7</ele>
        <time>2026-05-14T14:57:23.000Z</time>
      </trkpt>
      <trkpt lat="44.18213" lon="5.30554">
        <ele>770.6</ele>
        <time>2026-05-14T14:57:24.000Z</time>
      </trkpt>
      <trkpt lat="44.18213" lon="5.30555">
        <ele>770.7</ele>
        <time>2026-05-14T14:57:25.000Z</time>
      </trkpt>
      <trkpt lat="44.18213" lon="5.30557">
        <ele>770.8</ele>
        <time>2026-05-14T14:57:26.000Z</time>
      </trkpt>
      <trkpt lat="44.18213" lon="5.30559">
        <ele>770.4</ele>
        <time>2026-05-14T14:57:27.000Z</time>
      </trkpt>
      <trkpt lat="44.18213" lon="5.3056">
        <ele>770.1</ele>
        <time>2026-05-14T14:57:28.000Z</time>
      </trkpt>
      <trkpt lat="44.18213" lon="5.30562">
        <ele>769.6</ele>
        <time>2026-05-14T14:57:29.000Z</time>
      </trkpt>
      <trkpt lat="44.18214" lon="5.30564">
        <ele>769.5</ele>
        <time>2026-05-14T14:57:30.000Z</time>
      </trkpt>
      <trkpt lat="44.18214" lon="5.30566">
        <ele>769.8</ele>
        <time>2026-05-14T14:57:31.000Z</time>
      </trkpt>
      <trkpt lat="44.18214" lon="5.30567">
        <ele>769.5</ele>
        <time>2026-05-14T14:57:32.000Z</time>
      </trkpt>
      <trkpt lat="44.18214" lon="5.30568">
        <ele>769.2</ele>
        <time>2026-05-14T14:57:33.000Z</time>
      </trkpt>
      <trkpt lat="44.18214" lon="5.30569">
        <ele>769.2</ele>
        <time>2026-05-14T14:57:34.000Z</time>
      </trkpt>
      <trkpt lat="44.18213" lon="5.3057">
        <ele>769.3</ele>
        <time>2026-05-14T14:57:35.000Z</time>
      </trkpt>
      <trkpt lat="44.18213" lon="5.30572">
        <ele>769.1</ele>
        <time>2026-05-14T14:57:36.000Z</time>
      </trkpt>
      <trkpt lat="44.18213" lon="5.30572">
        <ele>769</ele>
        <time>2026-05-14T14:57:37.000Z</time>
      </trkpt>
      <trkpt lat="44.18214" lon="5.30574">
        <ele>768.6</ele>
        <time>2026-05-14T14:57:38.000Z</time>
      </trkpt>
      <trkpt lat="44.18214" lon="5.30575">
        <ele>768.4</ele>
        <time>2026-05-14T14:57:39.000Z</time>
      </trkpt>
      <trkpt lat="44.18214" lon="5.30578">
        <ele>768.2</ele>
        <time>2026-05-14T14:57:40.000Z</time>
      </trkpt>
      <trkpt lat="44.18214" lon="5.30579">
        <ele>768.3</ele>
        <time>2026-05-14T14:57:41.000Z</time>
      </trkpt>
      <trkpt lat="44.18214" lon="5.30579">
        <ele>768.5</ele>
        <time>2026-05-14T14:57:42.000Z</time>
      </trkpt>
      <trkpt lat="44.18214" lon="5.3058">
        <ele>768.7</ele>
        <time>2026-05-14T14:57:43.000Z</time>
      </trkpt>
      <trkpt lat="44.18215" lon="5.3058">
        <ele>768.5</ele>
        <time>2026-05-14T14:57:44.000Z</time>
      </trkpt>
      <trkpt lat="44.18215" lon="5.3058">
        <ele>768.4</ele>
        <time>2026-05-14T14:57:45.000Z</time>
      </trkpt>
      <trkpt lat="44.18215" lon="5.3058">
        <ele>768.3</ele>
        <time>2026-05-14T14:57:46.000Z</time>
      </trkpt>
      <trkpt lat="44.18215" lon="5.30582">
        <ele>768.1</ele>
        <time>2026-05-14T14:57:47.000Z</time>
      </trkpt>
      <trkpt lat="44.18215" lon="5.30583">
        <ele>768</ele>
        <time>2026-05-14T14:57:48.000Z</time>
      </trkpt>
      <trkpt lat="44.18214" lon="5.30584">
        <ele>767.7</ele>
        <time>2026-05-14T14:57:49.000Z</time>
      </trkpt>
      <trkpt lat="44.18215" lon="5.30585">
        <ele>767.7</ele>
        <time>2026-05-14T14:57:50.000Z</time>
      </trkpt>
      <trkpt lat="44.18215" lon="5.30587">
        <ele>767.6</ele>
        <time>2026-05-14T14:57:51.000Z</time>
      </trkpt>
      <trkpt lat="44.18215" lon="5.30588">
        <ele>767.7</ele>
        <time>2026-05-14T14:57:52.000Z</time>
      </trkpt>
      <trkpt lat="44.18215" lon="5.30589">
        <ele>767.8</ele>
        <time>2026-05-14T14:57:53.000Z</time>
      </trkpt>
      <trkpt lat="44.18215" lon="5.30589">
        <ele>767.5</ele>
        <time>2026-05-14T14:57:54.000Z</time>
      </trkpt>
      <trkpt lat="44.18215" lon="5.30588">
        <ele>767.2</ele>
        <time>2026-05-14T14:57:55.000Z</time>
      </trkpt>
      <trkpt lat="44.18215" lon="5.30588">
        <ele>766.7</ele>
        <time>2026-05-14T14:57:56.000Z</time>
      </trkpt>
      <trkpt lat="44.18215" lon="5.30588">
        <ele>766.7</ele>
        <time>2026-05-14T14:57:57.000Z</time>
      </trkpt>
      <trkpt lat="44.18215" lon="5.30588">
        <ele>766.5</ele>
        <time>2026-05-14T14:57:58.000Z</time>
      </trkpt>
      <trkpt lat="44.18215" lon="5.30588">
        <ele>766.3</ele>
        <time>2026-05-14T14:57:59.000Z</time>
      </trkpt>
      <trkpt lat="44.18215" lon="5.30588">
        <ele>766.1</ele>
        <time>2026-05-14T14:58:00.000Z</time>
      </trkpt>
      <trkpt lat="44.18215" lon="5.30588">
        <ele>765.7</ele>
        <time>2026-05-14T14:58:01.000Z</time>
      </trkpt>
      <trkpt lat="44.18215" lon="5.3059">
        <ele>765.3</ele>
        <time>2026-05-14T14:58:02.999Z</time>
      </trkpt>
      <trkpt lat="44.18214" lon="5.30592">
        <ele>764.9</ele>
        <time>2026-05-14T14:58:03.999Z</time>
      </trkpt>
      <trkpt lat="44.18214" lon="5.30592">
        <ele>764.9</ele>
        <time>2026-05-14T14:58:04.999Z</time>
      </trkpt>
      <trkpt lat="44.18214" lon="5.30592">
        <ele>764.6</ele>
        <time>2026-05-14T14:58:05.999Z</time>
      </trkpt>
      <trkpt lat="44.18214" lon="5.30592">
        <ele>764.3</ele>
        <time>2026-05-14T14:58:06.999Z</time>
      </trkpt>
      <trkpt lat="44.18214" lon="5.30593">
        <ele>764.3</ele>
        <time>2026-05-14T14:58:07.999Z</time>
      </trkpt>
      <trkpt lat="44.18214" lon="5.30594">
        <ele>764.1</ele>
        <time>2026-05-14T14:58:08.999Z</time>
      </trkpt>
      <trkpt lat="44.18214" lon="5.30597">
        <ele>764</ele>
        <time>2026-05-14T14:58:09.999Z</time>
      </trkpt>
      <trkpt lat="44.18214" lon="5.30598">
        <ele>763.9</ele>
        <time>2026-05-14T14:58:10.999Z</time>
      </trkpt>
      <trkpt lat="44.18214" lon="5.30601">
        <ele>763.9</ele>
        <time>2026-05-14T14:58:11.999Z</time>
      </trkpt>
      <trkpt lat="44.18214" lon="5.30602">
        <ele>763.5</ele>
        <time>2026-05-14T14:58:12.999Z</time>
      </trkpt>
      <trkpt lat="44.18214" lon="5.30604">
        <ele>763.3</ele>
        <time>2026-05-14T14:58:13.999Z</time>
      </trkpt>
      <trkpt lat="44.18214" lon="5.30606">
        <ele>763.2</ele>
        <time>2026-05-14T14:58:14.999Z</time>
      </trkpt>
      <trkpt lat="44.18214" lon="5.30608">
        <ele>763.4</ele>
        <time>2026-05-14T14:58:15.999Z</time>
      </trkpt>
      <trkpt lat="44.18213" lon="5.30609">
        <ele>763.6</ele>
        <time>2026-05-14T14:58:16.999Z</time>
      </trkpt>
      <trkpt lat="44.18213" lon="5.30611">
        <ele>763.7</ele>
        <time>2026-05-14T14:58:17.999Z</time>
      </trkpt>
      <trkpt lat="44.18212" lon="5.30612">
        <ele>763.9</ele>
        <time>2026-05-14T14:58:18.999Z</time>
      </trkpt>
      <trkpt lat="44.18212" lon="5.30613">
        <ele>764.1</ele>
        <time>2026-05-14T14:58:19.999Z</time>
      </trkpt>
      <trkpt lat="44.18212" lon="5.30615">
        <ele>764.2</ele>
        <time>2026-05-14T14:58:20.999Z</time>
      </trkpt>
      <trkpt lat="44.18212" lon="5.30616">
        <ele>764.2</ele>
        <time>2026-05-14T14:58:21.999Z</time>
      </trkpt>
      <trkpt lat="44.18212" lon="5.30617">
        <ele>763.8</ele>
        <time>2026-05-14T14:58:22.999Z</time>
      </trkpt>
      <trkpt lat="44.18212" lon="5.30618">
        <ele>763.5</ele>
        <time>2026-05-14T14:58:23.999Z</time>
      </trkpt>
      <trkpt lat="44.18211" lon="5.3062">
        <ele>763.5</ele>
        <time>2026-05-14T14:58:24.999Z</time>
      </trkpt>
      <trkpt lat="44.18212" lon="5.30621">
        <ele>763.5</ele>
        <time>2026-05-14T14:58:25.999Z</time>
      </trkpt>
      <trkpt lat="44.18211" lon="5.30622">
        <ele>763.8</ele>
        <time>2026-05-14T14:58:26.999Z</time>
      </trkpt>
      <trkpt lat="44.18211" lon="5.30623">
        <ele>764.2</ele>
        <time>2026-05-14T14:58:27.999Z</time>
      </trkpt>
      <trkpt lat="44.1821" lon="5.30624">
        <ele>764.4</ele>
        <time>2026-05-14T14:58:28.999Z</time>
      </trkpt>
      <trkpt lat="44.1821" lon="5.30624">
        <ele>764.4</ele>
        <time>2026-05-14T14:58:29.999Z</time>
      </trkpt>
      <trkpt lat="44.1821" lon="5.30625">
        <ele>764.3</ele>
        <time>2026-05-14T14:58:30.999Z</time>
      </trkpt>
      <trkpt lat="44.1821" lon="5.30626">
        <ele>764.3</ele>
        <time>2026-05-14T14:58:31.999Z</time>
      </trkpt>
      <trkpt lat="44.18209" lon="5.30628">
        <ele>764.2</ele>
        <time>2026-05-14T14:58:32.999Z</time>
      </trkpt>
      <trkpt lat="44.1821" lon="5.3063">
        <ele>764.5</ele>
        <time>2026-05-14T14:58:33.999Z</time>
      </trkpt>
      <trkpt lat="44.1821" lon="5.30631">
        <ele>764.5</ele>
        <time>2026-05-14T14:58:34.999Z</time>
      </trkpt>
      <trkpt lat="44.1821" lon="5.30631">
        <ele>764.6</ele>
        <time>2026-05-14T14:58:35.999Z</time>
      </trkpt>
      <trkpt lat="44.1821" lon="5.30633">
        <ele>764.5</ele>
        <time>2026-05-14T14:58:36.999Z</time>
      </trkpt>
      <trkpt lat="44.1821" lon="5.30634">
        <ele>764.4</ele>
        <time>2026-05-14T14:58:37.999Z</time>
      </trkpt>
      <trkpt lat="44.18211" lon="5.30635">
        <ele>764.4</ele>
        <time>2026-05-14T14:58:38.999Z</time>
      </trkpt>
      <trkpt lat="44.18211" lon="5.30636">
        <ele>764.8</ele>
        <time>2026-05-14T14:58:39.999Z</time>
      </trkpt>
      <trkpt lat="44.18211" lon="5.30637">
        <ele>764.3</ele>
        <time>2026-05-14T14:58:40.999Z</time>
      </trkpt>
      <trkpt lat="44.18211" lon="5.30638">
        <ele>764.6</ele>
        <time>2026-05-14T14:58:41.999Z</time>
      </trkpt>
      <trkpt lat="44.18211" lon="5.30638">
        <ele>764.7</ele>
        <time>2026-05-14T14:58:42.999Z</time>
      </trkpt>
      <trkpt lat="44.18211" lon="5.30638">
        <ele>764.8</ele>
        <time>2026-05-14T14:58:43.999Z</time>
      </trkpt>
      <trkpt lat="44.18211" lon="5.30639">
        <ele>764.8</ele>
        <time>2026-05-14T14:58:44.999Z</time>
      </trkpt>
      <trkpt lat="44.18211" lon="5.30639">
        <ele>764.8</ele>
        <time>2026-05-14T14:58:45.999Z</time>
      </trkpt>
      <trkpt lat="44.18212" lon="5.30641">
        <ele>764.3</ele>
        <time>2026-05-14T14:58:46.999Z</time>
      </trkpt>
      <trkpt lat="44.18212" lon="5.30643">
        <ele>764</ele>
        <time>2026-05-14T14:58:47.999Z</time>
      </trkpt>
      <trkpt lat="44.18211" lon="5.30644">
        <ele>763.8</ele>
        <time>2026-05-14T14:58:48.999Z</time>
      </trkpt>
      <trkpt lat="44.18211" lon="5.30645">
        <ele>763.9</ele>
        <time>2026-05-14T14:58:49.999Z</time>
      </trkpt>
      <trkpt lat="44.18212" lon="5.30645">
        <ele>763.9</ele>
        <time>2026-05-14T14:58:50.999Z</time>
      </trkpt>
      <trkpt lat="44.18212" lon="5.30645">
        <ele>763.7</ele>
        <time>2026-05-14T14:58:51.999Z</time>
      </trkpt>
      <trkpt lat="44.18212" lon="5.30645">
        <ele>763.4</ele>
        <time>2026-05-14T14:58:52.999Z</time>
      </trkpt>
      <trkpt lat="44.18212" lon="5.30646">
        <ele>763.4</ele>
        <time>2026-05-14T14:58:53.999Z</time>
      </trkpt>
      <trkpt lat="44.18212" lon="5.30646">
        <ele>763.2</ele>
        <time>2026-05-14T14:58:54.999Z</time>
      </trkpt>
      <trkpt lat="44.18212" lon="5.30646">
        <ele>763.1</ele>
        <time>2026-05-14T14:58:55.999Z</time>
      </trkpt>
      <trkpt lat="44.18212" lon="5.30647">
        <ele>763.2</ele>
        <time>2026-05-14T14:58:56.999Z</time>
      </trkpt>
      <trkpt lat="44.18212" lon="5.30647">
        <ele>763.2</ele>
        <time>2026-05-14T14:58:57.999Z</time>
      </trkpt>
      <trkpt lat="44.18212" lon="5.30647">
        <ele>763.3</ele>
        <time>2026-05-14T14:58:58.999Z</time>
      </trkpt>
      <trkpt lat="44.18212" lon="5.30647">
        <ele>763.2</ele>
        <time>2026-05-14T14:58:59.999Z</time>
      </trkpt>
      <trkpt lat="44.18212" lon="5.30647">
        <ele>763</ele>
        <time>2026-05-14T14:59:00.999Z</time>
      </trkpt>
      <trkpt lat="44.18213" lon="5.30648">
        <ele>762.8</ele>
        <time>2026-05-14T14:59:01.999Z</time>
      </trkpt>
      <trkpt lat="44.18213" lon="5.30648">
        <ele>762.8</ele>
        <time>2026-05-14T14:59:02.999Z</time>
      </trkpt>
      <trkpt lat="44.18213" lon="5.30649">
        <ele>763.2</ele>
        <time>2026-05-14T14:59:03.999Z</time>
      </trkpt>
      <trkpt lat="44.18213" lon="5.30649">
        <ele>763.3</ele>
        <time>2026-05-14T14:59:04.999Z</time>
      </trkpt>
      <trkpt lat="44.18213" lon="5.3065">
        <ele>763.3</ele>
        <time>2026-05-14T14:59:05.999Z</time>
      </trkpt>
      <trkpt lat="44.18213" lon="5.3065">
        <ele>763.2</ele>
        <time>2026-05-14T14:59:06.999Z</time>
      </trkpt>
      <trkpt lat="44.18213" lon="5.30651">
        <ele>763.1</ele>
        <time>2026-05-14T14:59:07.999Z</time>
      </trkpt>
      <trkpt lat="44.18214" lon="5.30651">
        <ele>763</ele>
        <time>2026-05-14T14:59:08.999Z</time>
      </trkpt>
      <trkpt lat="44.18214" lon="5.30652">
        <ele>763</ele>
        <time>2026-05-14T14:59:09.999Z</time>
      </trkpt>
      <trkpt lat="44.18214" lon="5.30653">
        <ele>763.1</ele>
        <time>2026-05-14T14:59:10.999Z</time>
      </trkpt>
      <trkpt lat="44.18214" lon="5.30655">
        <ele>763</ele>
        <time>2026-05-14T14:59:11.999Z</time>
      </trkpt>
      <trkpt lat="44.18216" lon="5.30657">
        <ele>762.9</ele>
        <time>2026-05-14T14:59:12.999Z</time>
      </trkpt>
      <trkpt lat="44.18217" lon="5.30659">
        <ele>762.6</ele>
        <time>2026-05-14T14:59:13.999Z</time>
      </trkpt>
      <trkpt lat="44.18217" lon="5.3066">
        <ele>762.7</ele>
        <time>2026-05-14T14:59:14.999Z</time>
      </trkpt>
      <trkpt lat="44.18217" lon="5.30661">
        <ele>763.1</ele>
        <time>2026-05-14T14:59:15.999Z</time>
      </trkpt>
      <trkpt lat="44.18218" lon="5.30662">
        <ele>763.1</ele>
        <time>2026-05-14T14:59:16.999Z</time>
      </trkpt>
      <trkpt lat="44.18218" lon="5.30664">
        <ele>763.3</ele>
        <time>2026-05-14T14:59:17.999Z</time>
      </trkpt>
      <trkpt lat="44.18219" lon="5.30665">
        <ele>763.2</ele>
        <time>2026-05-14T14:59:18.999Z</time>
      </trkpt>
      <trkpt lat="44.1822" lon="5.30668">
        <ele>763.3</ele>
        <time>2026-05-14T14:59:19.999Z</time>
      </trkpt>
      <trkpt lat="44.18221" lon="5.3067">
        <ele>763.2</ele>
        <time>2026-05-14T14:59:20.999Z</time>
      </trkpt>
      <trkpt lat="44.18221" lon="5.30672">
        <ele>763.1</ele>
        <time>2026-05-14T14:59:21.999Z</time>
      </trkpt>
      <trkpt lat="44.18221" lon="5.30673">
        <ele>763</ele>
        <time>2026-05-14T14:59:22.999Z</time>
      </trkpt>
      <trkpt lat="44.18221" lon="5.30674">
        <ele>762.9</ele>
        <time>2026-05-14T14:59:23.999Z</time>
      </trkpt>
      <trkpt lat="44.18221" lon="5.30674">
        <ele>762.6</ele>
        <time>2026-05-14T14:59:24.999Z</time>
      </trkpt>
      <trkpt lat="44.1822" lon="5.30676">
        <ele>762.4</ele>
        <time>2026-05-14T14:59:25.999Z</time>
      </trkpt>
      <trkpt lat="44.1822" lon="5.30678">
        <ele>762</ele>
        <time>2026-05-14T14:59:26.999Z</time>
      </trkpt>
      <trkpt lat="44.1822" lon="5.30679">
        <ele>761.8</ele>
        <time>2026-05-14T14:59:27.999Z</time>
      </trkpt>
      <trkpt lat="44.1822" lon="5.3068">
        <ele>761.6</ele>
        <time>2026-05-14T14:59:28.999Z</time>
      </trkpt>
      <trkpt lat="44.1822" lon="5.3068">
        <ele>761.4</ele>
        <time>2026-05-14T14:59:29.999Z</time>
      </trkpt>
      <trkpt lat="44.1822" lon="5.3068">
        <ele>761.6</ele>
        <time>2026-05-14T14:59:30.999Z</time>
      </trkpt>
      <trkpt lat="44.1822" lon="5.30681">
        <ele>761.5</ele>
        <time>2026-05-14T14:59:31.999Z</time>
      </trkpt>
      <trkpt lat="44.1822" lon="5.30682">
        <ele>761.2</ele>
        <time>2026-05-14T14:59:32.999Z</time>
      </trkpt>
      <trkpt lat="44.1822" lon="5.30683">
        <ele>761.4</ele>
        <time>2026-05-14T14:59:33.999Z</time>
      </trkpt>
      <trkpt lat="44.18221" lon="5.30685">
        <ele>761.5</ele>
        <time>2026-05-14T14:59:34.999Z</time>
      </trkpt>
      <trkpt lat="44.1822" lon="5.30688">
        <ele>761.2</ele>
        <time>2026-05-14T14:59:35.999Z</time>
      </trkpt>
      <trkpt lat="44.1822" lon="5.3069">
        <ele>760.8</ele>
        <time>2026-05-14T14:59:36.999Z</time>
      </trkpt>
      <trkpt lat="44.1822" lon="5.30691">
        <ele>760.7</ele>
        <time>2026-05-14T14:59:37.999Z</time>
      </trkpt>
      <trkpt lat="44.1822" lon="5.30693">
        <ele>760.8</ele>
        <time>2026-05-14T14:59:38.999Z</time>
      </trkpt>
      <trkpt lat="44.1822" lon="5.30694">
        <ele>760.7</ele>
        <time>2026-05-14T14:59:39.999Z</time>
      </trkpt>
      <trkpt lat="44.1822" lon="5.30694">
        <ele>760.6</ele>
        <time>2026-05-14T14:59:40.999Z</time>
      </trkpt>
      <trkpt lat="44.18221" lon="5.30696">
        <ele>760.8</ele>
        <time>2026-05-14T14:59:41.999Z</time>
      </trkpt>
      <trkpt lat="44.18222" lon="5.30698">
        <ele>760.8</ele>
        <time>2026-05-14T14:59:42.999Z</time>
      </trkpt>
      <trkpt lat="44.18222" lon="5.307">
        <ele>760.5</ele>
        <time>2026-05-14T14:59:43.999Z</time>
      </trkpt>
      <trkpt lat="44.18223" lon="5.30701">
        <ele>760</ele>
        <time>2026-05-14T14:59:44.999Z</time>
      </trkpt>
      <trkpt lat="44.18223" lon="5.30701">
        <ele>759.5</ele>
        <time>2026-05-14T14:59:45.999Z</time>
      </trkpt>
      <trkpt lat="44.18223" lon="5.30703">
        <ele>759.1</ele>
        <time>2026-05-14T14:59:46.999Z</time>
      </trkpt>
      <trkpt lat="44.18224" lon="5.30705">
        <ele>759.2</ele>
        <time>2026-05-14T14:59:47.999Z</time>
      </trkpt>
      <trkpt lat="44.18224" lon="5.30706">
        <ele>759.3</ele>
        <time>2026-05-14T14:59:48.999Z</time>
      </trkpt>
      <trkpt lat="44.18224" lon="5.30707">
        <ele>759.2</ele>
        <time>2026-05-14T14:59:49.999Z</time>
      </trkpt>
      <trkpt lat="44.18224" lon="5.30708">
        <ele>758.8</ele>
        <time>2026-05-14T14:59:50.999Z</time>
      </trkpt>
      <trkpt lat="44.18225" lon="5.30708">
        <ele>758.2</ele>
        <time>2026-05-14T14:59:51.999Z</time>
      </trkpt>
      <trkpt lat="44.18225" lon="5.30709">
        <ele>757.9</ele>
        <time>2026-05-14T14:59:52.999Z</time>
      </trkpt>
      <trkpt lat="44.18225" lon="5.30709">
        <ele>757.6</ele>
        <time>2026-05-14T14:59:53.999Z</time>
      </trkpt>
      <trkpt lat="44.18225" lon="5.3071">
        <ele>758.3</ele>
        <time>2026-05-14T14:59:54.999Z</time>
      </trkpt>
      <trkpt lat="44.18225" lon="5.3071">
        <ele>758.2</ele>
        <time>2026-05-14T14:59:55.999Z</time>
      </trkpt>
      <trkpt lat="44.18225" lon="5.3071">
        <ele>758.5</ele>
        <time>2026-05-14T14:59:56.999Z</time>
      </trkpt>
      <trkpt lat="44.18225" lon="5.3071">
        <ele>758.4</ele>
        <time>2026-05-14T14:59:57.999Z</time>
      </trkpt>
      <trkpt lat="44.18225" lon="5.30711">
        <ele>758.3</ele>
        <time>2026-05-14T14:59:58.999Z</time>
      </trkpt>
      <trkpt lat="44.18225" lon="5.30711">
        <ele>758.2</ele>
        <time>2026-05-14T14:59:59.999Z</time>
      </trkpt>
      <trkpt lat="44.18225" lon="5.30711">
        <ele>758.1</ele>
        <time>2026-05-14T15:00:00.999Z</time>
      </trkpt>
      <trkpt lat="44.18225" lon="5.30711">
        <ele>758.1</ele>
        <time>2026-05-14T15:00:01.999Z</time>
      </trkpt>
      <trkpt lat="44.18225" lon="5.30711">
        <ele>758.3</ele>
        <time>2026-05-14T15:00:02.999Z</time>
      </trkpt>
      <trkpt lat="44.18225" lon="5.30711">
        <ele>758.7</ele>
        <time>2026-05-14T15:00:03.999Z</time>
      </trkpt>
      <trkpt lat="44.18225" lon="5.30712">
        <ele>758.5</ele>
        <time>2026-05-14T15:00:04.999Z</time>
      </trkpt>
      <trkpt lat="44.18225" lon="5.30713">
        <ele>758.2</ele>
        <time>2026-05-14T15:00:05.999Z</time>
      </trkpt>
      <trkpt lat="44.18225" lon="5.30715">
        <ele>758</ele>
        <time>2026-05-14T15:00:06.999Z</time>
      </trkpt>
      <trkpt lat="44.18225" lon="5.30718">
        <ele>757.8</ele>
        <time>2026-05-14T15:00:07.999Z</time>
      </trkpt>
      <trkpt lat="44.18225" lon="5.30719">
        <ele>757.3</ele>
        <time>2026-05-14T15:00:08.999Z</time>
      </trkpt>
      <trkpt lat="44.18225" lon="5.3072">
        <ele>756.9</ele>
        <time>2026-05-14T15:00:09.999Z</time>
      </trkpt>
      <trkpt lat="44.18225" lon="5.30722">
        <ele>756.6</ele>
        <time>2026-05-14T15:00:10.999Z</time>
      </trkpt>
      <trkpt lat="44.18225" lon="5.30725">
        <ele>756.2</ele>
        <time>2026-05-14T15:00:11.999Z</time>
      </trkpt>
      <trkpt lat="44.18225" lon="5.30726">
        <ele>755.8</ele>
        <time>2026-05-14T15:00:12.999Z</time>
      </trkpt>
      <trkpt lat="44.18225" lon="5.30727">
        <ele>755.8</ele>
        <time>2026-05-14T15:00:13.999Z</time>
      </trkpt>
      <trkpt lat="44.18225" lon="5.30727">
        <ele>755.3</ele>
        <time>2026-05-14T15:00:14.999Z</time>
      </trkpt>
      <trkpt lat="44.18225" lon="5.30727">
        <ele>755</ele>
        <time>2026-05-14T15:00:15.999Z</time>
      </trkpt>
      <trkpt lat="44.18225" lon="5.30727">
        <ele>754.7</ele>
        <time>2026-05-14T15:00:16.999Z</time>
      </trkpt>
      <trkpt lat="44.18226" lon="5.30728">
        <ele>754.2</ele>
        <time>2026-05-14T15:00:17.999Z</time>
      </trkpt>
      <trkpt lat="44.18226" lon="5.3073">
        <ele>753.9</ele>
        <time>2026-05-14T15:00:18.999Z</time>
      </trkpt>
      <trkpt lat="44.18226" lon="5.30732">
        <ele>753.7</ele>
        <time>2026-05-14T15:00:19.999Z</time>
      </trkpt>
      <trkpt lat="44.18225" lon="5.30733">
        <ele>753.8</ele>
        <time>2026-05-14T15:00:20.999Z</time>
      </trkpt>
      <trkpt lat="44.18225" lon="5.30734">
        <ele>753.8</ele>
        <time>2026-05-14T15:00:21.999Z</time>
      </trkpt>
      <trkpt lat="44.18224" lon="5.30736">
        <ele>754</ele>
        <time>2026-05-14T15:00:22.999Z</time>
      </trkpt>
      <trkpt lat="44.18224" lon="5.30737">
        <ele>754.1</ele>
        <time>2026-05-14T15:00:23.999Z</time>
      </trkpt>
      <trkpt lat="44.18223" lon="5.30738">
        <ele>753.9</ele>
        <time>2026-05-14T15:00:24.999Z</time>
      </trkpt>
      <trkpt lat="44.18224" lon="5.30739">
        <ele>753.7</ele>
        <time>2026-05-14T15:00:25.999Z</time>
      </trkpt>
      <trkpt lat="44.18224" lon="5.3074">
        <ele>753.4</ele>
        <time>2026-05-14T15:00:26.999Z</time>
      </trkpt>
      <trkpt lat="44.18224" lon="5.30742">
        <ele>753.1</ele>
        <time>2026-05-14T15:00:27.999Z</time>
      </trkpt>
      <trkpt lat="44.18224" lon="5.30742">
        <ele>753</ele>
        <time>2026-05-14T15:00:28.999Z</time>
      </trkpt>
      <trkpt lat="44.18225" lon="5.30744">
        <ele>753.5</ele>
        <time>2026-05-14T15:00:29.999Z</time>
      </trkpt>
      <trkpt lat="44.18225" lon="5.30746">
        <ele>753.3</ele>
        <time>2026-05-14T15:00:30.999Z</time>
      </trkpt>
      <trkpt lat="44.18224" lon="5.30747">
        <ele>753.2</ele>
        <time>2026-05-14T15:00:31.999Z</time>
      </trkpt>
      <trkpt lat="44.18223" lon="5.30747">
        <ele>753</ele>
        <time>2026-05-14T15:00:32.999Z</time>
      </trkpt>
      <trkpt lat="44.18223" lon="5.30748">
        <ele>753.1</ele>
        <time>2026-05-14T15:00:33.999Z</time>
      </trkpt>
      <trkpt lat="44.18222" lon="5.30748">
        <ele>753.3</ele>
        <time>2026-05-14T15:00:34.999Z</time>
      </trkpt>
      <trkpt lat="44.18222" lon="5.30749">
        <ele>753.1</ele>
        <time>2026-05-14T15:00:35.999Z</time>
      </trkpt>
      <trkpt lat="44.18222" lon="5.30749">
        <ele>753.1</ele>
        <time>2026-05-14T15:00:36.999Z</time>
      </trkpt>
      <trkpt lat="44.18222" lon="5.30749">
        <ele>753.2</ele>
        <time>2026-05-14T15:00:37.999Z</time>
      </trkpt>
      <trkpt lat="44.18222" lon="5.3075">
        <ele>753.3</ele>
        <time>2026-05-14T15:00:38.999Z</time>
      </trkpt>
      <trkpt lat="44.18222" lon="5.3075">
        <ele>752.9</ele>
        <time>2026-05-14T15:00:39.999Z</time>
      </trkpt>
      <trkpt lat="44.18222" lon="5.30751">
        <ele>752.8</ele>
        <time>2026-05-14T15:00:40.999Z</time>
      </trkpt>
      <trkpt lat="44.18222" lon="5.30751">
        <ele>752.8</ele>
        <time>2026-05-14T15:00:41.999Z</time>
      </trkpt>
      <trkpt lat="44.18222" lon="5.30752">
        <ele>753</ele>
        <time>2026-05-14T15:00:42.999Z</time>
      </trkpt>
      <trkpt lat="44.18222" lon="5.30754">
        <ele>753</ele>
        <time>2026-05-14T15:00:43.999Z</time>
      </trkpt>
      <trkpt lat="44.18222" lon="5.30756">
        <ele>753.3</ele>
        <time>2026-05-14T15:00:44.999Z</time>
      </trkpt>
      <trkpt lat="44.18222" lon="5.30757">
        <ele>753.2</ele>
        <time>2026-05-14T15:00:45.999Z</time>
      </trkpt>
      <trkpt lat="44.18222" lon="5.30757">
        <ele>753.1</ele>
        <time>2026-05-14T15:00:46.999Z</time>
      </trkpt>
      <trkpt lat="44.18222" lon="5.30757">
        <ele>752.7</ele>
        <time>2026-05-14T15:00:47.999Z</time>
      </trkpt>
      <trkpt lat="44.18222" lon="5.30757">
        <ele>752.4</ele>
        <time>2026-05-14T15:00:48.999Z</time>
      </trkpt>
      <trkpt lat="44.18222" lon="5.30758">
        <ele>752.5</ele>
        <time>2026-05-14T15:00:49.999Z</time>
      </trkpt>
      <trkpt lat="44.18222" lon="5.30758">
        <ele>752.6</ele>
        <time>2026-05-14T15:00:50.999Z</time>
      </trkpt>
      <trkpt lat="44.18222" lon="5.3076">
        <ele>752.3</ele>
        <time>2026-05-14T15:00:51.999Z</time>
      </trkpt>
      <trkpt lat="44.18222" lon="5.30762">
        <ele>751.9</ele>
        <time>2026-05-14T15:00:52.999Z</time>
      </trkpt>
      <trkpt lat="44.18221" lon="5.30766">
        <ele>751.8</ele>
        <time>2026-05-14T15:00:53.999Z</time>
      </trkpt>
      <trkpt lat="44.18222" lon="5.30769">
        <ele>751.6</ele>
        <time>2026-05-14T15:00:54.999Z</time>
      </trkpt>
      <trkpt lat="44.18221" lon="5.30772">
        <ele>751.7</ele>
        <time>2026-05-14T15:00:55.999Z</time>
      </trkpt>
      <trkpt lat="44.18221" lon="5.30773">
        <ele>751.6</ele>
        <time>2026-05-14T15:00:56.999Z</time>
      </trkpt>
      <trkpt lat="44.18221" lon="5.30775">
        <ele>751.4</ele>
        <time>2026-05-14T15:00:57.999Z</time>
      </trkpt>
      <trkpt lat="44.18221" lon="5.30776">
        <ele>751.2</ele>
        <time>2026-05-14T15:00:58.999Z</time>
      </trkpt>
      <trkpt lat="44.1822" lon="5.30777">
        <ele>751</ele>
        <time>2026-05-14T15:00:59.999Z</time>
      </trkpt>
      <trkpt lat="44.1822" lon="5.30778">
        <ele>751.1</ele>
        <time>2026-05-14T15:01:00.999Z</time>
      </trkpt>
      <trkpt lat="44.1822" lon="5.30779">
        <ele>751.1</ele>
        <time>2026-05-14T15:01:01.999Z</time>
      </trkpt>
      <trkpt lat="44.18219" lon="5.30781">
        <ele>751.1</ele>
        <time>2026-05-14T15:01:02.999Z</time>
      </trkpt>
      <trkpt lat="44.18218" lon="5.30783">
        <ele>751.1</ele>
        <time>2026-05-14T15:01:03.999Z</time>
      </trkpt>
      <trkpt lat="44.18218" lon="5.30785">
        <ele>751.3</ele>
        <time>2026-05-14T15:01:04.999Z</time>
      </trkpt>
      <trkpt lat="44.18217" lon="5.30786">
        <ele>751.4</ele>
        <time>2026-05-14T15:01:05.999Z</time>
      </trkpt>
      <trkpt lat="44.18216" lon="5.30786">
        <ele>751.4</ele>
        <time>2026-05-14T15:01:06.999Z</time>
      </trkpt>
      <trkpt lat="44.18215" lon="5.30787">
        <ele>751.5</ele>
        <time>2026-05-14T15:01:07.999Z</time>
      </trkpt>
      <trkpt lat="44.18215" lon="5.30787">
        <ele>751.9</ele>
        <time>2026-05-14T15:01:08.999Z</time>
      </trkpt>
      <trkpt lat="44.18215" lon="5.30788">
        <ele>752</ele>
        <time>2026-05-14T15:01:09.999Z</time>
      </trkpt>
      <trkpt lat="44.18215" lon="5.30789">
        <ele>751.7</ele>
        <time>2026-05-14T15:01:10.999Z</time>
      </trkpt>
      <trkpt lat="44.18215" lon="5.30789">
        <ele>751.5</ele>
        <time>2026-05-14T15:01:11.999Z</time>
      </trkpt>
      <trkpt lat="44.18214" lon="5.3079">
        <ele>751.5</ele>
        <time>2026-05-14T15:01:12.999Z</time>
      </trkpt>
      <trkpt lat="44.18214" lon="5.3079">
        <ele>752</ele>
        <time>2026-05-14T15:01:13.999Z</time>
      </trkpt>
      <trkpt lat="44.18214" lon="5.3079">
        <ele>752.2</ele>
        <time>2026-05-14T15:01:14.999Z</time>
      </trkpt>
      <trkpt lat="44.18214" lon="5.3079">
        <ele>752.2</ele>
        <time>2026-05-14T15:01:15.999Z</time>
      </trkpt>
      <trkpt lat="44.18214" lon="5.3079">
        <ele>752.5</ele>
        <time>2026-05-14T15:01:16.999Z</time>
      </trkpt>
      <trkpt lat="44.18214" lon="5.30791">
        <ele>752.3</ele>
        <time>2026-05-14T15:01:17.999Z</time>
      </trkpt>
      <trkpt lat="44.18214" lon="5.30791">
        <ele>751.9</ele>
        <time>2026-05-14T15:01:18.999Z</time>
      </trkpt>
      <trkpt lat="44.18215" lon="5.30792">
        <ele>751.7</ele>
        <time>2026-05-14T15:01:19.999Z</time>
      </trkpt>
      <trkpt lat="44.18214" lon="5.30793">
        <ele>751.6</ele>
        <time>2026-05-14T15:01:20.999Z</time>
      </trkpt>
      <trkpt lat="44.18214" lon="5.30794">
        <ele>751.3</ele>
        <time>2026-05-14T15:01:21.999Z</time>
      </trkpt>
      <trkpt lat="44.18214" lon="5.30795">
        <ele>751.3</ele>
        <time>2026-05-14T15:01:22.999Z</time>
      </trkpt>
      <trkpt lat="44.18214" lon="5.30795">
        <ele>751.4</ele>
        <time>2026-05-14T15:01:23.999Z</time>
      </trkpt>
      <trkpt lat="44.18214" lon="5.30795">
        <ele>751.5</ele>
        <time>2026-05-14T15:01:24.999Z</time>
      </trkpt>
      <trkpt lat="44.18214" lon="5.30795">
        <ele>751.4</ele>
        <time>2026-05-14T15:01:25.999Z</time>
      </trkpt>
      <trkpt lat="44.18214" lon="5.30795">
        <ele>751.3</ele>
        <time>2026-05-14T15:01:26.999Z</time>
      </trkpt>
      <trkpt lat="44.18214" lon="5.30796">
        <ele>751.3</ele>
        <time>2026-05-14T15:01:27.999Z</time>
      </trkpt>
      <trkpt lat="44.18214" lon="5.30796">
        <ele>751.1</ele>
        <time>2026-05-14T15:01:28.999Z</time>
      </trkpt>
      <trkpt lat="44.18214" lon="5.30796">
        <ele>750.7</ele>
        <time>2026-05-14T15:01:29.999Z</time>
      </trkpt>
      <trkpt lat="44.18214" lon="5.30797">
        <ele>750.4</ele>
        <time>2026-05-14T15:01:30.999Z</time>
      </trkpt>
      <trkpt lat="44.18214" lon="5.30797">
        <ele>750.1</ele>
        <time>2026-05-14T15:01:31.999Z</time>
      </trkpt>
      <trkpt lat="44.18214" lon="5.30798">
        <ele>750.2</ele>
        <time>2026-05-14T15:01:32.999Z</time>
      </trkpt>
      <trkpt lat="44.18214" lon="5.30798">
        <ele>750</ele>
        <time>2026-05-14T15:01:33.999Z</time>
      </trkpt>
      <trkpt lat="44.18214" lon="5.30799">
        <ele>749.9</ele>
        <time>2026-05-14T15:01:34.999Z</time>
      </trkpt>
      <trkpt lat="44.18214" lon="5.30799">
        <ele>749.8</ele>
        <time>2026-05-14T15:01:35.999Z</time>
      </trkpt>
      <trkpt lat="44.18214" lon="5.308">
        <ele>749.7</ele>
        <time>2026-05-14T15:01:36.999Z</time>
      </trkpt>
      <trkpt lat="44.18214" lon="5.308">
        <ele>749.8</ele>
        <time>2026-05-14T15:01:37.999Z</time>
      </trkpt>
      <trkpt lat="44.18214" lon="5.308">
        <ele>749.5</ele>
        <time>2026-05-14T15:01:38.999Z</time>
      </trkpt>
      <trkpt lat="44.18215" lon="5.30801">
        <ele>749.4</ele>
        <time>2026-05-14T15:01:39.999Z</time>
      </trkpt>
      <trkpt lat="44.18215" lon="5.30801">
        <ele>749.1</ele>
        <time>2026-05-14T15:01:40.999Z</time>
      </trkpt>
      <trkpt lat="44.18215" lon="5.30801">
        <ele>748.9</ele>
        <time>2026-05-14T15:01:41.999Z</time>
      </trkpt>
      <trkpt lat="44.18215" lon="5.30801">
        <ele>748.8</ele>
        <time>2026-05-14T15:01:42.999Z</time>
      </trkpt>
      <trkpt lat="44.18215" lon="5.30802">
        <ele>748.2</ele>
        <time>2026-05-14T15:01:43.999Z</time>
      </trkpt>
      <trkpt lat="44.18215" lon="5.30803">
        <ele>747.5</ele>
        <time>2026-05-14T15:01:44.999Z</time>
      </trkpt>
      <trkpt lat="44.18215" lon="5.30803">
        <ele>747.3</ele>
        <time>2026-05-14T15:01:45.999Z</time>
      </trkpt>
      <trkpt lat="44.18215" lon="5.30805">
        <ele>747.2</ele>
        <time>2026-05-14T15:01:46.999Z</time>
      </trkpt>
      <trkpt lat="44.18214" lon="5.30806">
        <ele>747</ele>
        <time>2026-05-14T15:01:47.999Z</time>
      </trkpt>
      <trkpt lat="44.18214" lon="5.30807">
        <ele>746.8</ele>
        <time>2026-05-14T15:01:48.999Z</time>
      </trkpt>
      <trkpt lat="44.18214" lon="5.30811">
        <ele>746.9</ele>
        <time>2026-05-14T15:01:49.999Z</time>
      </trkpt>
      <trkpt lat="44.18213" lon="5.30812">
        <ele>746.9</ele>
        <time>2026-05-14T15:01:50.999Z</time>
      </trkpt>
      <trkpt lat="44.18213" lon="5.30813">
        <ele>746.9</ele>
        <time>2026-05-14T15:01:51.999Z</time>
      </trkpt>
      <trkpt lat="44.18213" lon="5.30814">
        <ele>747</ele>
        <time>2026-05-14T15:01:52.999Z</time>
      </trkpt>
      <trkpt lat="44.18213" lon="5.30815">
        <ele>747.2</ele>
        <time>2026-05-14T15:01:53.999Z</time>
      </trkpt>
      <trkpt lat="44.18212" lon="5.30816">
        <ele>747.1</ele>
        <time>2026-05-14T15:01:54.999Z</time>
      </trkpt>
      <trkpt lat="44.18212" lon="5.30818">
        <ele>747</ele>
        <time>2026-05-14T15:01:55.999Z</time>
      </trkpt>
      <trkpt lat="44.18211" lon="5.30819">
        <ele>746.9</ele>
        <time>2026-05-14T15:01:56.999Z</time>
      </trkpt>
      <trkpt lat="44.18211" lon="5.30819">
        <ele>746.8</ele>
        <time>2026-05-14T15:01:57.999Z</time>
      </trkpt>
      <trkpt lat="44.18211" lon="5.30819">
        <ele>746.7</ele>
        <time>2026-05-14T15:01:58.999Z</time>
      </trkpt>
      <trkpt lat="44.18211" lon="5.30819">
        <ele>746.7</ele>
        <time>2026-05-14T15:01:59.999Z</time>
      </trkpt>
      <trkpt lat="44.18211" lon="5.3082">
        <ele>746.6</ele>
        <time>2026-05-14T15:02:00.999Z</time>
      </trkpt>
      <trkpt lat="44.18211" lon="5.3082">
        <ele>746.6</ele>
        <time>2026-05-14T15:02:01.999Z</time>
      </trkpt>
      <trkpt lat="44.18211" lon="5.3082">
        <ele>746.6</ele>
        <time>2026-05-14T15:02:02.999Z</time>
      </trkpt>
      <trkpt lat="44.1821" lon="5.30823">
        <ele>746.5</ele>
        <time>2026-05-14T15:02:03.999Z</time>
      </trkpt>
      <trkpt lat="44.18209" lon="5.30825">
        <ele>746.5</ele>
        <time>2026-05-14T15:02:04.999Z</time>
      </trkpt>
      <trkpt lat="44.18209" lon="5.30826">
        <ele>746.5</ele>
        <time>2026-05-14T15:02:05.999Z</time>
      </trkpt>
      <trkpt lat="44.18209" lon="5.3083">
        <ele>746.4</ele>
        <time>2026-05-14T15:02:06.999Z</time>
      </trkpt>
      <trkpt lat="44.18209" lon="5.30831">
        <ele>746.4</ele>
        <time>2026-05-14T15:02:07.999Z</time>
      </trkpt>
      <trkpt lat="44.18209" lon="5.30832">
        <ele>746.4</ele>
        <time>2026-05-14T15:02:08.999Z</time>
      </trkpt>
      <trkpt lat="44.18208" lon="5.30834">
        <ele>746.4</ele>
        <time>2026-05-14T15:02:09.999Z</time>
      </trkpt>
      <trkpt lat="44.18208" lon="5.30834">
        <ele>746.3</ele>
        <time>2026-05-14T15:02:10.999Z</time>
      </trkpt>
      <trkpt lat="44.18208" lon="5.30834">
        <ele>746.3</ele>
        <time>2026-05-14T15:02:11.999Z</time>
      </trkpt>
      <trkpt lat="44.18208" lon="5.30834">
        <ele>746.1</ele>
        <time>2026-05-14T15:02:12.999Z</time>
      </trkpt>
      <trkpt lat="44.18208" lon="5.30835">
        <ele>745.9</ele>
        <time>2026-05-14T15:02:13.999Z</time>
      </trkpt>
      <trkpt lat="44.18208" lon="5.30835">
        <ele>746</ele>
        <time>2026-05-14T15:02:14.999Z</time>
      </trkpt>
      <trkpt lat="44.18208" lon="5.30836">
        <ele>746</ele>
        <time>2026-05-14T15:02:15.999Z</time>
      </trkpt>
      <trkpt lat="44.18208" lon="5.30836">
        <ele>745.9</ele>
        <time>2026-05-14T15:02:16.999Z</time>
      </trkpt>
      <trkpt lat="44.18207" lon="5.30839">
        <ele>745.8</ele>
        <time>2026-05-14T15:02:17.999Z</time>
      </trkpt>
      <trkpt lat="44.18207" lon="5.30841">
        <ele>745.8</ele>
        <time>2026-05-14T15:02:18.999Z</time>
      </trkpt>
      <trkpt lat="44.18206" lon="5.30843">
        <ele>745.7</ele>
        <time>2026-05-14T15:02:19.999Z</time>
      </trkpt>
      <trkpt lat="44.18205" lon="5.30844">
        <ele>745.7</ele>
        <time>2026-05-14T15:02:20.999Z</time>
      </trkpt>
      <trkpt lat="44.18204" lon="5.30845">
        <ele>745.6</ele>
        <time>2026-05-14T15:02:21.999Z</time>
      </trkpt>
      <trkpt lat="44.18204" lon="5.30847">
        <ele>745.6</ele>
        <time>2026-05-14T15:02:22.999Z</time>
      </trkpt>
      <trkpt lat="44.18203" lon="5.30848">
        <ele>745.6</ele>
        <time>2026-05-14T15:02:23.999Z</time>
      </trkpt>
      <trkpt lat="44.18202" lon="5.3085">
        <ele>745.4</ele>
        <time>2026-05-14T15:02:24.999Z</time>
      </trkpt>
      <trkpt lat="44.18201" lon="5.30852">
        <ele>745.4</ele>
        <time>2026-05-14T15:02:25.999Z</time>
      </trkpt>
      <trkpt lat="44.18201" lon="5.30853">
        <ele>745.3</ele>
        <time>2026-05-14T15:02:26.999Z</time>
      </trkpt>
      <trkpt lat="44.182" lon="5.30855">
        <ele>745.2</ele>
        <time>2026-05-14T15:02:27.999Z</time>
      </trkpt>
      <trkpt lat="44.18199" lon="5.30857">
        <ele>745.2</ele>
        <time>2026-05-14T15:02:28.999Z</time>
      </trkpt>
      <trkpt lat="44.18199" lon="5.30859">
        <ele>745.1</ele>
        <time>2026-05-14T15:02:29.999Z</time>
      </trkpt>
      <trkpt lat="44.18198" lon="5.3086">
        <ele>744.9</ele>
        <time>2026-05-14T15:02:30.999Z</time>
      </trkpt>
      <trkpt lat="44.18198" lon="5.30862">
        <ele>744.9</ele>
        <time>2026-05-14T15:02:31.999Z</time>
      </trkpt>
      <trkpt lat="44.18197" lon="5.30864">
        <ele>745</ele>
        <time>2026-05-14T15:02:32.999Z</time>
      </trkpt>
      <trkpt lat="44.18196" lon="5.30866">
        <ele>744.9</ele>
        <time>2026-05-14T15:02:33.999Z</time>
      </trkpt>
      <trkpt lat="44.18195" lon="5.30871">
        <ele>745.1</ele>
        <time>2026-05-14T15:02:34.999Z</time>
      </trkpt>
      <trkpt lat="44.18194" lon="5.30874">
        <ele>745.4</ele>
        <time>2026-05-14T15:02:35.999Z</time>
      </trkpt>
      <trkpt lat="44.18194" lon="5.30875">
        <ele>745.5</ele>
        <time>2026-05-14T15:02:36.999Z</time>
      </trkpt>
      <trkpt lat="44.18194" lon="5.30876">
        <ele>745.4</ele>
        <time>2026-05-14T15:02:37.999Z</time>
      </trkpt>
      <trkpt lat="44.18193" lon="5.30877">
        <ele>745.6</ele>
        <time>2026-05-14T15:02:38.999Z</time>
      </trkpt>
      <trkpt lat="44.18193" lon="5.3088">
        <ele>745.8</ele>
        <time>2026-05-14T15:02:39.999Z</time>
      </trkpt>
      <trkpt lat="44.18192" lon="5.30883">
        <ele>746</ele>
        <time>2026-05-14T15:02:40.999Z</time>
      </trkpt>
      <trkpt lat="44.18191" lon="5.30884">
        <ele>745.9</ele>
        <time>2026-05-14T15:02:41.999Z</time>
      </trkpt>
      <trkpt lat="44.1819" lon="5.30884">
        <ele>745.9</ele>
        <time>2026-05-14T15:02:42.999Z</time>
      </trkpt>
      <trkpt lat="44.18189" lon="5.30887">
        <ele>746.1</ele>
        <time>2026-05-14T15:02:43.999Z</time>
      </trkpt>
      <trkpt lat="44.18188" lon="5.30889">
        <ele>746.4</ele>
        <time>2026-05-14T15:02:44.999Z</time>
      </trkpt>
      <trkpt lat="44.18187" lon="5.30891">
        <ele>746.4</ele>
        <time>2026-05-14T15:02:45.999Z</time>
      </trkpt>
      <trkpt lat="44.18186" lon="5.30893">
        <ele>746.4</ele>
        <time>2026-05-14T15:02:46.999Z</time>
      </trkpt>
      <trkpt lat="44.18185" lon="5.30894">
        <ele>746.2</ele>
        <time>2026-05-14T15:02:47.999Z</time>
      </trkpt>
      <trkpt lat="44.18184" lon="5.30895">
        <ele>745.9</ele>
        <time>2026-05-14T15:02:48.999Z</time>
      </trkpt>
      <trkpt lat="44.18184" lon="5.30896">
        <ele>745.7</ele>
        <time>2026-05-14T15:02:49.999Z</time>
      </trkpt>
      <trkpt lat="44.18184" lon="5.30896">
        <ele>745.6</ele>
        <time>2026-05-14T15:02:50.999Z</time>
      </trkpt>
      <trkpt lat="44.18183" lon="5.30896">
        <ele>745.4</ele>
        <time>2026-05-14T15:02:51.999Z</time>
      </trkpt>
      <trkpt lat="44.18183" lon="5.30897">
        <ele>745.4</ele>
        <time>2026-05-14T15:02:52.999Z</time>
      </trkpt>
      <trkpt lat="44.18183" lon="5.30898">
        <ele>745.3</ele>
        <time>2026-05-14T15:02:53.999Z</time>
      </trkpt>
      <trkpt lat="44.18182" lon="5.30899">
        <ele>745.2</ele>
        <time>2026-05-14T15:02:54.999Z</time>
      </trkpt>
      <trkpt lat="44.18182" lon="5.309">
        <ele>745</ele>
        <time>2026-05-14T15:02:55.999Z</time>
      </trkpt>
      <trkpt lat="44.18182" lon="5.30901">
        <ele>745</ele>
        <time>2026-05-14T15:02:56.999Z</time>
      </trkpt>
      <trkpt lat="44.18182" lon="5.30901">
        <ele>745</ele>
        <time>2026-05-14T15:02:57.999Z</time>
      </trkpt>
      <trkpt lat="44.18182" lon="5.30902">
        <ele>744.9</ele>
        <time>2026-05-14T15:02:58.999Z</time>
      </trkpt>
      <trkpt lat="44.18181" lon="5.30903">
        <ele>744.7</ele>
        <time>2026-05-14T15:02:59.999Z</time>
      </trkpt>
      <trkpt lat="44.18181" lon="5.30904">
        <ele>744.4</ele>
        <time>2026-05-14T15:03:00.999Z</time>
      </trkpt>
      <trkpt lat="44.18181" lon="5.30905">
        <ele>744.7</ele>
        <time>2026-05-14T15:03:01.999Z</time>
      </trkpt>
      <trkpt lat="44.1818" lon="5.30906">
        <ele>744.7</ele>
        <time>2026-05-14T15:03:02.999Z</time>
      </trkpt>
      <trkpt lat="44.1818" lon="5.30907">
        <ele>744.9</ele>
        <time>2026-05-14T15:03:03.999Z</time>
      </trkpt>
      <trkpt lat="44.1818" lon="5.30907">
        <ele>745.2</ele>
        <time>2026-05-14T15:03:04.999Z</time>
      </trkpt>
      <trkpt lat="44.1818" lon="5.30907">
        <ele>745.1</ele>
        <time>2026-05-14T15:03:05.999Z</time>
      </trkpt>
      <trkpt lat="44.18179" lon="5.30909">
        <ele>745.1</ele>
        <time>2026-05-14T15:03:06.999Z</time>
      </trkpt>
      <trkpt lat="44.18179" lon="5.30911">
        <ele>745</ele>
        <time>2026-05-14T15:03:07.999Z</time>
      </trkpt>
      <trkpt lat="44.18178" lon="5.30914">
        <ele>745.2</ele>
        <time>2026-05-14T15:03:08.999Z</time>
      </trkpt>
      <trkpt lat="44.18178" lon="5.30916">
        <ele>745</ele>
        <time>2026-05-14T15:03:09.999Z</time>
      </trkpt>
      <trkpt lat="44.18177" lon="5.30918">
        <ele>744.7</ele>
        <time>2026-05-14T15:03:10.999Z</time>
      </trkpt>
      <trkpt lat="44.18177" lon="5.30919">
        <ele>744.5</ele>
        <time>2026-05-14T15:03:11.999Z</time>
      </trkpt>
      <trkpt lat="44.18177" lon="5.30921">
        <ele>744.3</ele>
        <time>2026-05-14T15:03:12.999Z</time>
      </trkpt>
      <trkpt lat="44.18177" lon="5.30923">
        <ele>744.2</ele>
        <time>2026-05-14T15:03:13.999Z</time>
      </trkpt>
      <trkpt lat="44.18177" lon="5.30925">
        <ele>744.1</ele>
        <time>2026-05-14T15:03:14.999Z</time>
      </trkpt>
      <trkpt lat="44.18177" lon="5.30927">
        <ele>744.1</ele>
        <time>2026-05-14T15:03:15.999Z</time>
      </trkpt>
      <trkpt lat="44.18177" lon="5.30928">
        <ele>744.1</ele>
        <time>2026-05-14T15:03:16.999Z</time>
      </trkpt>
      <trkpt lat="44.18176" lon="5.3093">
        <ele>744.2</ele>
        <time>2026-05-14T15:03:17.999Z</time>
      </trkpt>
      <trkpt lat="44.18175" lon="5.30931">
        <ele>744.4</ele>
        <time>2026-05-14T15:03:18.999Z</time>
      </trkpt>
      <trkpt lat="44.18175" lon="5.30933">
        <ele>744.4</ele>
        <time>2026-05-14T15:03:19.999Z</time>
      </trkpt>
      <trkpt lat="44.18175" lon="5.30934">
        <ele>744.5</ele>
        <time>2026-05-14T15:03:20.999Z</time>
      </trkpt>
      <trkpt lat="44.18175" lon="5.30935">
        <ele>744.6</ele>
        <time>2026-05-14T15:03:21.999Z</time>
      </trkpt>
      <trkpt lat="44.18176" lon="5.30937">
        <ele>744.6</ele>
        <time>2026-05-14T15:03:22.999Z</time>
      </trkpt>
      <trkpt lat="44.18176" lon="5.30936">
        <ele>743.9</ele>
        <time>2026-05-14T15:03:23.999Z</time>
      </trkpt>
      <trkpt lat="44.18177" lon="5.30937">
        <ele>743.8</ele>
        <time>2026-05-14T15:03:24.999Z</time>
      </trkpt>
      <trkpt lat="44.18176" lon="5.30938">
        <ele>744.1</ele>
        <time>2026-05-14T15:03:25.999Z</time>
      </trkpt>
      <trkpt lat="44.18176" lon="5.30939">
        <ele>744.1</ele>
        <time>2026-05-14T15:03:26.999Z</time>
      </trkpt>
      <trkpt lat="44.18175" lon="5.3094">
        <ele>744.2</ele>
        <time>2026-05-14T15:03:27.999Z</time>
      </trkpt>
      <trkpt lat="44.18175" lon="5.30941">
        <ele>743.8</ele>
        <time>2026-05-14T15:03:28.999Z</time>
      </trkpt>
      <trkpt lat="44.18175" lon="5.30942">
        <ele>743.6</ele>
        <time>2026-05-14T15:03:29.999Z</time>
      </trkpt>
      <trkpt lat="44.18175" lon="5.30943">
        <ele>743.4</ele>
        <time>2026-05-14T15:03:30.999Z</time>
      </trkpt>
      <trkpt lat="44.18174" lon="5.30945">
        <ele>743.1</ele>
        <time>2026-05-14T15:03:31.999Z</time>
      </trkpt>
      <trkpt lat="44.18174" lon="5.30946">
        <ele>742.6</ele>
        <time>2026-05-14T15:03:32.999Z</time>
      </trkpt>
      <trkpt lat="44.18175" lon="5.30947">
        <ele>742.3</ele>
        <time>2026-05-14T15:03:33.999Z</time>
      </trkpt>
      <trkpt lat="44.18175" lon="5.30947">
        <ele>742.1</ele>
        <time>2026-05-14T15:03:34.999Z</time>
      </trkpt>
      <trkpt lat="44.18175" lon="5.30949">
        <ele>741.8</ele>
        <time>2026-05-14T15:03:35.999Z</time>
      </trkpt>
      <trkpt lat="44.18175" lon="5.3095">
        <ele>741.7</ele>
        <time>2026-05-14T15:03:36.999Z</time>
      </trkpt>
      <trkpt lat="44.18174" lon="5.30951">
        <ele>741.5</ele>
        <time>2026-05-14T15:03:37.999Z</time>
      </trkpt>
      <trkpt lat="44.18174" lon="5.30952">
        <ele>741.5</ele>
        <time>2026-05-14T15:03:38.999Z</time>
      </trkpt>
      <trkpt lat="44.18175" lon="5.30952">
        <ele>741.9</ele>
        <time>2026-05-14T15:03:39.999Z</time>
      </trkpt>
      <trkpt lat="44.18175" lon="5.30953">
        <ele>742.1</ele>
        <time>2026-05-14T15:03:40.999Z</time>
      </trkpt>
      <trkpt lat="44.18175" lon="5.30953">
        <ele>742.4</ele>
        <time>2026-05-14T15:03:41.999Z</time>
      </trkpt>
      <trkpt lat="44.18175" lon="5.30954">
        <ele>742.4</ele>
        <time>2026-05-14T15:03:42.999Z</time>
      </trkpt>
      <trkpt lat="44.18175" lon="5.30955">
        <ele>742.8</ele>
        <time>2026-05-14T15:03:43.999Z</time>
      </trkpt>
      <trkpt lat="44.18175" lon="5.30956">
        <ele>743.1</ele>
        <time>2026-05-14T15:03:44.999Z</time>
      </trkpt>
      <trkpt lat="44.18175" lon="5.30957">
        <ele>743.3</ele>
        <time>2026-05-14T15:03:45.999Z</time>
      </trkpt>
      <trkpt lat="44.18174" lon="5.30958">
        <ele>743.3</ele>
        <time>2026-05-14T15:03:46.999Z</time>
      </trkpt>
      <trkpt lat="44.18174" lon="5.30959">
        <ele>743.3</ele>
        <time>2026-05-14T15:03:47.999Z</time>
      </trkpt>
      <trkpt lat="44.18174" lon="5.30961">
        <ele>743.1</ele>
        <time>2026-05-14T15:03:48.999Z</time>
      </trkpt>
      <trkpt lat="44.18174" lon="5.30964">
        <ele>742.6</ele>
        <time>2026-05-14T15:03:50.999Z</time>
      </trkpt>
      <trkpt lat="44.18174" lon="5.30966">
        <ele>742.4</ele>
        <time>2026-05-14T15:03:51.999Z</time>
      </trkpt>
      <trkpt lat="44.18174" lon="5.30968">
        <ele>742.2</ele>
        <time>2026-05-14T15:03:52.999Z</time>
      </trkpt>
      <trkpt lat="44.18175" lon="5.30969">
        <ele>741.9</ele>
        <time>2026-05-14T15:03:53.999Z</time>
      </trkpt>
      <trkpt lat="44.18175" lon="5.30971">
        <ele>741.9</ele>
        <time>2026-05-14T15:03:54.999Z</time>
      </trkpt>
      <trkpt lat="44.18175" lon="5.30972">
        <ele>742.1</ele>
        <time>2026-05-14T15:03:55.999Z</time>
      </trkpt>
      <trkpt lat="44.18175" lon="5.30973">
        <ele>742.5</ele>
        <time>2026-05-14T15:03:56.999Z</time>
      </trkpt>
      <trkpt lat="44.18175" lon="5.30974">
        <ele>743</ele>
        <time>2026-05-14T15:03:57.999Z</time>
      </trkpt>
      <trkpt lat="44.18175" lon="5.30975">
        <ele>743.4</ele>
        <time>2026-05-14T15:03:58.999Z</time>
      </trkpt>
      <trkpt lat="44.18175" lon="5.30975">
        <ele>743.7</ele>
        <time>2026-05-14T15:03:59.999Z</time>
      </trkpt>
      <trkpt lat="44.18176" lon="5.30976">
        <ele>743.3</ele>
        <time>2026-05-14T15:04:00.999Z</time>
      </trkpt>
      <trkpt lat="44.18175" lon="5.30976">
        <ele>743.5</ele>
        <time>2026-05-14T15:04:01.999Z</time>
      </trkpt>
      <trkpt lat="44.18175" lon="5.30977">
        <ele>743.5</ele>
        <time>2026-05-14T15:04:02.999Z</time>
      </trkpt>
      <trkpt lat="44.18175" lon="5.30978">
        <ele>743.3</ele>
        <time>2026-05-14T15:04:03.999Z</time>
      </trkpt>
      <trkpt lat="44.18175" lon="5.30979">
        <ele>743.4</ele>
        <time>2026-05-14T15:04:04.999Z</time>
      </trkpt>
      <trkpt lat="44.18175" lon="5.30981">
        <ele>743.7</ele>
        <time>2026-05-14T15:04:05.999Z</time>
      </trkpt>
      <trkpt lat="44.18175" lon="5.30982">
        <ele>743.3</ele>
        <time>2026-05-14T15:04:06.999Z</time>
      </trkpt>
      <trkpt lat="44.18175" lon="5.30983">
        <ele>742.9</ele>
        <time>2026-05-14T15:04:07.999Z</time>
      </trkpt>
      <trkpt lat="44.18175" lon="5.30985">
        <ele>742.7</ele>
        <time>2026-05-14T15:04:08.999Z</time>
      </trkpt>
      <trkpt lat="44.18175" lon="5.30986">
        <ele>742.7</ele>
        <time>2026-05-14T15:04:09.999Z</time>
      </trkpt>
      <trkpt lat="44.18175" lon="5.30987">
        <ele>742.5</ele>
        <time>2026-05-14T15:04:10.999Z</time>
      </trkpt>
      <trkpt lat="44.18175" lon="5.30987">
        <ele>742.2</ele>
        <time>2026-05-14T15:04:11.999Z</time>
      </trkpt>
      <trkpt lat="44.18175" lon="5.30988">
        <ele>741.9</ele>
        <time>2026-05-14T15:04:12.999Z</time>
      </trkpt>
      <trkpt lat="44.18175" lon="5.30989">
        <ele>741.7</ele>
        <time>2026-05-14T15:04:13.999Z</time>
      </trkpt>
      <trkpt lat="44.18174" lon="5.30989">
        <ele>741.6</ele>
        <time>2026-05-14T15:04:14.999Z</time>
      </trkpt>
      <trkpt lat="44.18173" lon="5.3099">
        <ele>741.3</ele>
        <time>2026-05-14T15:04:15.999Z</time>
      </trkpt>
      <trkpt lat="44.18173" lon="5.3099">
        <ele>740.8</ele>
        <time>2026-05-14T15:04:16.999Z</time>
      </trkpt>
      <trkpt lat="44.18173" lon="5.30991">
        <ele>740.5</ele>
        <time>2026-05-14T15:04:17.999Z</time>
      </trkpt>
      <trkpt lat="44.18173" lon="5.30991">
        <ele>739.9</ele>
        <time>2026-05-14T15:04:18.999Z</time>
      </trkpt>
      <trkpt lat="44.18172" lon="5.30991">
        <ele>739.4</ele>
        <time>2026-05-14T15:04:19.999Z</time>
      </trkpt>
      <trkpt lat="44.18171" lon="5.30992">
        <ele>739.4</ele>
        <time>2026-05-14T15:04:20.999Z</time>
      </trkpt>
      <trkpt lat="44.18171" lon="5.30993">
        <ele>739</ele>
        <time>2026-05-14T15:04:21.999Z</time>
      </trkpt>
      <trkpt lat="44.1817" lon="5.30995">
        <ele>739.3</ele>
        <time>2026-05-14T15:04:22.999Z</time>
      </trkpt>
      <trkpt lat="44.1817" lon="5.30996">
        <ele>739.4</ele>
        <time>2026-05-14T15:04:23.999Z</time>
      </trkpt>
      <trkpt lat="44.1817" lon="5.30997">
        <ele>739.4</ele>
        <time>2026-05-14T15:04:24.999Z</time>
      </trkpt>
      <trkpt lat="44.1817" lon="5.30998">
        <ele>739.1</ele>
        <time>2026-05-14T15:04:25.999Z</time>
      </trkpt>
      <trkpt lat="44.18169" lon="5.30999">
        <ele>738.9</ele>
        <time>2026-05-14T15:04:26.999Z</time>
      </trkpt>
      <trkpt lat="44.18169" lon="5.31001">
        <ele>738.7</ele>
        <time>2026-05-14T15:04:27.999Z</time>
      </trkpt>
      <trkpt lat="44.18168" lon="5.31003">
        <ele>738.6</ele>
        <time>2026-05-14T15:04:28.999Z</time>
      </trkpt>
      <trkpt lat="44.18168" lon="5.31005">
        <ele>738.9</ele>
        <time>2026-05-14T15:04:29.999Z</time>
      </trkpt>
      <trkpt lat="44.18167" lon="5.31006">
        <ele>739</ele>
        <time>2026-05-14T15:04:30.999Z</time>
      </trkpt>
      <trkpt lat="44.18167" lon="5.31006">
        <ele>738.8</ele>
        <time>2026-05-14T15:04:31.999Z</time>
      </trkpt>
      <trkpt lat="44.18167" lon="5.31007">
        <ele>738.5</ele>
        <time>2026-05-14T15:04:32.999Z</time>
      </trkpt>
      <trkpt lat="44.18167" lon="5.31008">
        <ele>738.3</ele>
        <time>2026-05-14T15:04:33.999Z</time>
      </trkpt>
      <trkpt lat="44.18166" lon="5.3101">
        <ele>738.3</ele>
        <time>2026-05-14T15:04:34.999Z</time>
      </trkpt>
      <trkpt lat="44.18166" lon="5.3101">
        <ele>738.5</ele>
        <time>2026-05-14T15:04:35.999Z</time>
      </trkpt>
      <trkpt lat="44.18166" lon="5.31011">
        <ele>738.8</ele>
        <time>2026-05-14T15:04:36.999Z</time>
      </trkpt>
      <trkpt lat="44.18166" lon="5.31012">
        <ele>738.6</ele>
        <time>2026-05-14T15:04:37.999Z</time>
      </trkpt>
      <trkpt lat="44.18165" lon="5.31013">
        <ele>738.3</ele>
        <time>2026-05-14T15:04:38.999Z</time>
      </trkpt>
      <trkpt lat="44.18165" lon="5.31015">
        <ele>738.4</ele>
        <time>2026-05-14T15:04:39.999Z</time>
      </trkpt>
      <trkpt lat="44.18165" lon="5.31016">
        <ele>738.5</ele>
        <time>2026-05-14T15:04:40.999Z</time>
      </trkpt>
      <trkpt lat="44.18165" lon="5.31017">
        <ele>738.6</ele>
        <time>2026-05-14T15:04:41.999Z</time>
      </trkpt>
      <trkpt lat="44.18165" lon="5.31019">
        <ele>738.6</ele>
        <time>2026-05-14T15:04:42.999Z</time>
      </trkpt>
      <trkpt lat="44.18164" lon="5.31019">
        <ele>738.6</ele>
        <time>2026-05-14T15:04:43.999Z</time>
      </trkpt>
      <trkpt lat="44.18164" lon="5.3102">
        <ele>738.4</ele>
        <time>2026-05-14T15:04:44.999Z</time>
      </trkpt>
      <trkpt lat="44.18163" lon="5.31022">
        <ele>738.3</ele>
        <time>2026-05-14T15:04:45.999Z</time>
      </trkpt>
      <trkpt lat="44.18163" lon="5.31023">
        <ele>738.1</ele>
        <time>2026-05-14T15:04:46.999Z</time>
      </trkpt>
      <trkpt lat="44.18163" lon="5.31024">
        <ele>738.2</ele>
        <time>2026-05-14T15:04:47.999Z</time>
      </trkpt>
      <trkpt lat="44.18163" lon="5.31025">
        <ele>738.3</ele>
        <time>2026-05-14T15:04:48.999Z</time>
      </trkpt>
      <trkpt lat="44.18162" lon="5.31026">
        <ele>738.5</ele>
        <time>2026-05-14T15:04:49.999Z</time>
      </trkpt>
      <trkpt lat="44.18162" lon="5.31027">
        <ele>738.6</ele>
        <time>2026-05-14T15:04:50.999Z</time>
      </trkpt>
      <trkpt lat="44.18161" lon="5.31029">
        <ele>738.8</ele>
        <time>2026-05-14T15:04:51.999Z</time>
      </trkpt>
      <trkpt lat="44.18161" lon="5.3103">
        <ele>738.9</ele>
        <time>2026-05-14T15:04:52.999Z</time>
      </trkpt>
      <trkpt lat="44.18162" lon="5.31031">
        <ele>738.9</ele>
        <time>2026-05-14T15:04:53.999Z</time>
      </trkpt>
      <trkpt lat="44.18162" lon="5.31032">
        <ele>738.6</ele>
        <time>2026-05-14T15:04:54.999Z</time>
      </trkpt>
      <trkpt lat="44.18162" lon="5.31033">
        <ele>738.6</ele>
        <time>2026-05-14T15:04:55.999Z</time>
      </trkpt>
      <trkpt lat="44.18162" lon="5.31034">
        <ele>738.3</ele>
        <time>2026-05-14T15:04:56.999Z</time>
      </trkpt>
      <trkpt lat="44.18162" lon="5.31035">
        <ele>737.9</ele>
        <time>2026-05-14T15:04:57.999Z</time>
      </trkpt>
      <trkpt lat="44.18161" lon="5.31036">
        <ele>737.6</ele>
        <time>2026-05-14T15:04:58.999Z</time>
      </trkpt>
      <trkpt lat="44.1816" lon="5.31036">
        <ele>737.8</ele>
        <time>2026-05-14T15:04:59.999Z</time>
      </trkpt>
      <trkpt lat="44.18159" lon="5.31037">
        <ele>738.1</ele>
        <time>2026-05-14T15:05:00.999Z</time>
      </trkpt>
      <trkpt lat="44.18159" lon="5.31038">
        <ele>738.2</ele>
        <time>2026-05-14T15:05:01.999Z</time>
      </trkpt>
      <trkpt lat="44.18159" lon="5.31038">
        <ele>738</ele>
        <time>2026-05-14T15:05:02.999Z</time>
      </trkpt>
      <trkpt lat="44.18159" lon="5.31039">
        <ele>738</ele>
        <time>2026-05-14T15:05:03.999Z</time>
      </trkpt>
      <trkpt lat="44.18158" lon="5.3104">
        <ele>737.9</ele>
        <time>2026-05-14T15:05:04.999Z</time>
      </trkpt>
      <trkpt lat="44.18158" lon="5.31042">
        <ele>737.8</ele>
        <time>2026-05-14T15:05:05.999Z</time>
      </trkpt>
      <trkpt lat="44.18157" lon="5.31042">
        <ele>737.5</ele>
        <time>2026-05-14T15:05:06.999Z</time>
      </trkpt>
      <trkpt lat="44.18156" lon="5.31043">
        <ele>737.3</ele>
        <time>2026-05-14T15:05:07.999Z</time>
      </trkpt>
      <trkpt lat="44.18155" lon="5.31044">
        <ele>737.2</ele>
        <time>2026-05-14T15:05:08.999Z</time>
      </trkpt>
      <trkpt lat="44.18155" lon="5.31044">
        <ele>737</ele>
        <time>2026-05-14T15:05:09.999Z</time>
      </trkpt>
      <trkpt lat="44.18155" lon="5.31046">
        <ele>737.4</ele>
        <time>2026-05-14T15:05:10.999Z</time>
      </trkpt>
      <trkpt lat="44.18154" lon="5.31047">
        <ele>737.4</ele>
        <time>2026-05-14T15:05:11.999Z</time>
      </trkpt>
      <trkpt lat="44.18153" lon="5.31048">
        <ele>737.3</ele>
        <time>2026-05-14T15:05:12.999Z</time>
      </trkpt>
      <trkpt lat="44.18152" lon="5.31049">
        <ele>737.3</ele>
        <time>2026-05-14T15:05:13.999Z</time>
      </trkpt>
      <trkpt lat="44.18151" lon="5.3105">
        <ele>737.5</ele>
        <time>2026-05-14T15:05:14.999Z</time>
      </trkpt>
      <trkpt lat="44.18151" lon="5.31051">
        <ele>737.6</ele>
        <time>2026-05-14T15:05:15.999Z</time>
      </trkpt>
      <trkpt lat="44.1815" lon="5.31053">
        <ele>738</ele>
        <time>2026-05-14T15:05:16.999Z</time>
      </trkpt>
      <trkpt lat="44.1815" lon="5.31054">
        <ele>737.6</ele>
        <time>2026-05-14T15:05:17.999Z</time>
      </trkpt>
      <trkpt lat="44.1815" lon="5.31055">
        <ele>737.1</ele>
        <time>2026-05-14T15:05:18.999Z</time>
      </trkpt>
      <trkpt lat="44.1815" lon="5.31056">
        <ele>736.9</ele>
        <time>2026-05-14T15:05:19.999Z</time>
      </trkpt>
      <trkpt lat="44.18149" lon="5.31057">
        <ele>736.6</ele>
        <time>2026-05-14T15:05:20.999Z</time>
      </trkpt>
      <trkpt lat="44.18149" lon="5.31058">
        <ele>736.6</ele>
        <time>2026-05-14T15:05:21.999Z</time>
      </trkpt>
      <trkpt lat="44.18149" lon="5.31058">
        <ele>737</ele>
        <time>2026-05-14T15:05:22.999Z</time>
      </trkpt>
      <trkpt lat="44.18148" lon="5.31059">
        <ele>737.1</ele>
        <time>2026-05-14T15:05:23.999Z</time>
      </trkpt>
      <trkpt lat="44.18148" lon="5.31059">
        <ele>737</ele>
        <time>2026-05-14T15:05:24.999Z</time>
      </trkpt>
      <trkpt lat="44.18147" lon="5.31061">
        <ele>736.8</ele>
        <time>2026-05-14T15:05:25.999Z</time>
      </trkpt>
      <trkpt lat="44.18146" lon="5.31061">
        <ele>736.5</ele>
        <time>2026-05-14T15:05:26.999Z</time>
      </trkpt>
      <trkpt lat="44.18146" lon="5.31063">
        <ele>736.3</ele>
        <time>2026-05-14T15:05:27.999Z</time>
      </trkpt>
      <trkpt lat="44.18145" lon="5.31064">
        <ele>736.2</ele>
        <time>2026-05-14T15:05:28.999Z</time>
      </trkpt>
      <trkpt lat="44.18144" lon="5.31065">
        <ele>736.3</ele>
        <time>2026-05-14T15:05:29.999Z</time>
      </trkpt>
      <trkpt lat="44.18143" lon="5.31067">
        <ele>736.5</ele>
        <time>2026-05-14T15:05:30.999Z</time>
      </trkpt>
      <trkpt lat="44.18142" lon="5.31068">
        <ele>736.3</ele>
        <time>2026-05-14T15:05:31.999Z</time>
      </trkpt>
      <trkpt lat="44.18141" lon="5.31069">
        <ele>735.9</ele>
        <time>2026-05-14T15:05:32.999Z</time>
      </trkpt>
      <trkpt lat="44.1814" lon="5.3107">
        <ele>735.9</ele>
        <time>2026-05-14T15:05:33.999Z</time>
      </trkpt>
      <trkpt lat="44.1814" lon="5.31071">
        <ele>735.9</ele>
        <time>2026-05-14T15:05:34.999Z</time>
      </trkpt>
      <trkpt lat="44.18139" lon="5.31072">
        <ele>736.2</ele>
        <time>2026-05-14T15:05:35.999Z</time>
      </trkpt>
      <trkpt lat="44.18138" lon="5.31072">
        <ele>736.3</ele>
        <time>2026-05-14T15:05:36.999Z</time>
      </trkpt>
      <trkpt lat="44.18137" lon="5.31072">
        <ele>736.6</ele>
        <time>2026-05-14T15:05:37.999Z</time>
      </trkpt>
      <trkpt lat="44.18136" lon="5.31073">
        <ele>736.9</ele>
        <time>2026-05-14T15:05:38.999Z</time>
      </trkpt>
      <trkpt lat="44.18135" lon="5.31073">
        <ele>736.8</ele>
        <time>2026-05-14T15:05:39.999Z</time>
      </trkpt>
      <trkpt lat="44.18135" lon="5.31074">
        <ele>737</ele>
        <time>2026-05-14T15:05:40.999Z</time>
      </trkpt>
      <trkpt lat="44.18135" lon="5.31074">
        <ele>737.1</ele>
        <time>2026-05-14T15:05:41.999Z</time>
      </trkpt>
      <trkpt lat="44.18135" lon="5.31074">
        <ele>737</ele>
        <time>2026-05-14T15:05:42.999Z</time>
      </trkpt>
      <trkpt lat="44.18135" lon="5.31074">
        <ele>737.1</ele>
        <time>2026-05-14T15:05:43.999Z</time>
      </trkpt>
      <trkpt lat="44.18135" lon="5.31074">
        <ele>736.9</ele>
        <time>2026-05-14T15:05:44.999Z</time>
      </trkpt>
      <trkpt lat="44.18135" lon="5.31075">
        <ele>736.8</ele>
        <time>2026-05-14T15:05:45.999Z</time>
      </trkpt>
      <trkpt lat="44.18135" lon="5.31075">
        <ele>737</ele>
        <time>2026-05-14T15:05:46.999Z</time>
      </trkpt>
      <trkpt lat="44.18135" lon="5.31076">
        <ele>736.9</ele>
        <time>2026-05-14T15:05:47.999Z</time>
      </trkpt>
      <trkpt lat="44.18135" lon="5.31077">
        <ele>737</ele>
        <time>2026-05-14T15:05:48.999Z</time>
      </trkpt>
      <trkpt lat="44.18135" lon="5.31077">
        <ele>736.9</ele>
        <time>2026-05-14T15:05:49.999Z</time>
      </trkpt>
      <trkpt lat="44.18134" lon="5.31078">
        <ele>737</ele>
        <time>2026-05-14T15:05:50.999Z</time>
      </trkpt>
      <trkpt lat="44.18134" lon="5.31079">
        <ele>737</ele>
        <time>2026-05-14T15:05:51.999Z</time>
      </trkpt>
      <trkpt lat="44.18132" lon="5.31081">
        <ele>737.1</ele>
        <time>2026-05-14T15:05:52.999Z</time>
      </trkpt>
      <trkpt lat="44.18132" lon="5.31082">
        <ele>737.3</ele>
        <time>2026-05-14T15:05:53.999Z</time>
      </trkpt>
      <trkpt lat="44.18132" lon="5.31082">
        <ele>737.5</ele>
        <time>2026-05-14T15:05:54.999Z</time>
      </trkpt>
      <trkpt lat="44.18132" lon="5.31082">
        <ele>737.4</ele>
        <time>2026-05-14T15:05:55.999Z</time>
      </trkpt>
      <trkpt lat="44.18132" lon="5.31082">
        <ele>737.3</ele>
        <time>2026-05-14T15:05:56.999Z</time>
      </trkpt>
      <trkpt lat="44.18132" lon="5.31082">
        <ele>737.5</ele>
        <time>2026-05-14T15:05:57.999Z</time>
      </trkpt>
      <trkpt lat="44.18131" lon="5.31083">
        <ele>737.7</ele>
        <time>2026-05-14T15:05:58.999Z</time>
      </trkpt>
      <trkpt lat="44.18131" lon="5.31083">
        <ele>737.8</ele>
        <time>2026-05-14T15:05:59.999Z</time>
      </trkpt>
      <trkpt lat="44.1813" lon="5.31084">
        <ele>737.9</ele>
        <time>2026-05-14T15:06:00.999Z</time>
      </trkpt>
      <trkpt lat="44.1813" lon="5.31085">
        <ele>737.8</ele>
        <time>2026-05-14T15:06:01.999Z</time>
      </trkpt>
      <trkpt lat="44.18129" lon="5.31086">
        <ele>737.6</ele>
        <time>2026-05-14T15:06:02.999Z</time>
      </trkpt>
      <trkpt lat="44.18129" lon="5.31087">
        <ele>737.3</ele>
        <time>2026-05-14T15:06:03.999Z</time>
      </trkpt>
      <trkpt lat="44.18129" lon="5.31088">
        <ele>737</ele>
        <time>2026-05-14T15:06:04.999Z</time>
      </trkpt>
      <trkpt lat="44.18128" lon="5.31089">
        <ele>736.9</ele>
        <time>2026-05-14T15:06:05.999Z</time>
      </trkpt>
      <trkpt lat="44.18127" lon="5.3109">
        <ele>736.8</ele>
        <time>2026-05-14T15:06:06.999Z</time>
      </trkpt>
      <trkpt lat="44.18126" lon="5.31091">
        <ele>736.5</ele>
        <time>2026-05-14T15:06:07.999Z</time>
      </trkpt>
      <trkpt lat="44.18124" lon="5.31093">
        <ele>736.2</ele>
        <time>2026-05-14T15:06:08.999Z</time>
      </trkpt>
      <trkpt lat="44.18124" lon="5.31094">
        <ele>735.9</ele>
        <time>2026-05-14T15:06:09.999Z</time>
      </trkpt>
      <trkpt lat="44.18123" lon="5.31095">
        <ele>736.3</ele>
        <time>2026-05-14T15:06:10.999Z</time>
      </trkpt>
      <trkpt lat="44.18122" lon="5.31095">
        <ele>736.2</ele>
        <time>2026-05-14T15:06:11.999Z</time>
      </trkpt>
      <trkpt lat="44.18121" lon="5.31097">
        <ele>736</ele>
        <time>2026-05-14T15:06:12.999Z</time>
      </trkpt>
      <trkpt lat="44.1812" lon="5.31098">
        <ele>735.7</ele>
        <time>2026-05-14T15:06:13.999Z</time>
      </trkpt>
      <trkpt lat="44.18119" lon="5.31099">
        <ele>735.5</ele>
        <time>2026-05-14T15:06:14.999Z</time>
      </trkpt>
      <trkpt lat="44.18118" lon="5.311">
        <ele>735.6</ele>
        <time>2026-05-14T15:06:15.999Z</time>
      </trkpt>
      <trkpt lat="44.18118" lon="5.31101">
        <ele>735.3</ele>
        <time>2026-05-14T15:06:16.999Z</time>
      </trkpt>
      <trkpt lat="44.18117" lon="5.31103">
        <ele>735</ele>
        <time>2026-05-14T15:06:17.999Z</time>
      </trkpt>
      <trkpt lat="44.18117" lon="5.31105">
        <ele>734.9</ele>
        <time>2026-05-14T15:06:18.999Z</time>
      </trkpt>
      <trkpt lat="44.18116" lon="5.31106">
        <ele>734.9</ele>
        <time>2026-05-14T15:06:19.999Z</time>
      </trkpt>
      <trkpt lat="44.18116" lon="5.31108">
        <ele>735.2</ele>
        <time>2026-05-14T15:06:20.999Z</time>
      </trkpt>
      <trkpt lat="44.18115" lon="5.31109">
        <ele>735.5</ele>
        <time>2026-05-14T15:06:21.999Z</time>
      </trkpt>
      <trkpt lat="44.18115" lon="5.3111">
        <ele>735.8</ele>
        <time>2026-05-14T15:06:22.999Z</time>
      </trkpt>
      <trkpt lat="44.18115" lon="5.31111">
        <ele>735.9</ele>
        <time>2026-05-14T15:06:23.999Z</time>
      </trkpt>
      <trkpt lat="44.18114" lon="5.31112">
        <ele>736</ele>
        <time>2026-05-14T15:06:24.999Z</time>
      </trkpt>
      <trkpt lat="44.18113" lon="5.31114">
        <ele>736.1</ele>
        <time>2026-05-14T15:06:25.999Z</time>
      </trkpt>
      <trkpt lat="44.18112" lon="5.31115">
        <ele>736.4</ele>
        <time>2026-05-14T15:06:26.999Z</time>
      </trkpt>
      <trkpt lat="44.18112" lon="5.31116">
        <ele>736.2</ele>
        <time>2026-05-14T15:06:27.999Z</time>
      </trkpt>
      <trkpt lat="44.18112" lon="5.31116">
        <ele>736.2</ele>
        <time>2026-05-14T15:06:28.999Z</time>
      </trkpt>
      <trkpt lat="44.18111" lon="5.31118">
        <ele>735.7</ele>
        <time>2026-05-14T15:06:29.999Z</time>
      </trkpt>
      <trkpt lat="44.18111" lon="5.31118">
        <ele>735.3</ele>
        <time>2026-05-14T15:06:30.999Z</time>
      </trkpt>
      <trkpt lat="44.18111" lon="5.31118">
        <ele>735.2</ele>
        <time>2026-05-14T15:06:31.999Z</time>
      </trkpt>
      <trkpt lat="44.18111" lon="5.31119">
        <ele>735.1</ele>
        <time>2026-05-14T15:06:32.999Z</time>
      </trkpt>
      <trkpt lat="44.1811" lon="5.31119">
        <ele>735</ele>
        <time>2026-05-14T15:06:33.999Z</time>
      </trkpt>
      <trkpt lat="44.1811" lon="5.3112">
        <ele>735</ele>
        <time>2026-05-14T15:06:34.999Z</time>
      </trkpt>
      <trkpt lat="44.18109" lon="5.31121">
        <ele>735</ele>
        <time>2026-05-14T15:06:35.999Z</time>
      </trkpt>
      <trkpt lat="44.18109" lon="5.31122">
        <ele>734.7</ele>
        <time>2026-05-14T15:06:36.999Z</time>
      </trkpt>
      <trkpt lat="44.18108" lon="5.31124">
        <ele>734.8</ele>
        <time>2026-05-14T15:06:37.999Z</time>
      </trkpt>
      <trkpt lat="44.18108" lon="5.31125">
        <ele>734.8</ele>
        <time>2026-05-14T15:06:38.999Z</time>
      </trkpt>
      <trkpt lat="44.18108" lon="5.31126">
        <ele>734.8</ele>
        <time>2026-05-14T15:06:39.999Z</time>
      </trkpt>
      <trkpt lat="44.18107" lon="5.31126">
        <ele>734.8</ele>
        <time>2026-05-14T15:06:40.999Z</time>
      </trkpt>
      <trkpt lat="44.18106" lon="5.31127">
        <ele>735.2</ele>
        <time>2026-05-14T15:06:41.999Z</time>
      </trkpt>
      <trkpt lat="44.18106" lon="5.31127">
        <ele>735.5</ele>
        <time>2026-05-14T15:06:42.999Z</time>
      </trkpt>
      <trkpt lat="44.18106" lon="5.31128">
        <ele>735.5</ele>
        <time>2026-05-14T15:06:43.999Z</time>
      </trkpt>
      <trkpt lat="44.18106" lon="5.31129">
        <ele>735.4</ele>
        <time>2026-05-14T15:06:44.999Z</time>
      </trkpt>
      <trkpt lat="44.18105" lon="5.3113">
        <ele>735.1</ele>
        <time>2026-05-14T15:06:45.999Z</time>
      </trkpt>
      <trkpt lat="44.18105" lon="5.3113">
        <ele>734.8</ele>
        <time>2026-05-14T15:06:46.999Z</time>
      </trkpt>
      <trkpt lat="44.18105" lon="5.31131">
        <ele>734.5</ele>
        <time>2026-05-14T15:06:47.999Z</time>
      </trkpt>
      <trkpt lat="44.18104" lon="5.31131">
        <ele>734.2</ele>
        <time>2026-05-14T15:06:48.999Z</time>
      </trkpt>
      <trkpt lat="44.18104" lon="5.31132">
        <ele>734.3</ele>
        <time>2026-05-14T15:06:49.999Z</time>
      </trkpt>
      <trkpt lat="44.18102" lon="5.31134">
        <ele>734.3</ele>
        <time>2026-05-14T15:06:50.999Z</time>
      </trkpt>
      <trkpt lat="44.18102" lon="5.31135">
        <ele>734</ele>
        <time>2026-05-14T15:06:51.999Z</time>
      </trkpt>
      <trkpt lat="44.18102" lon="5.31135">
        <ele>734.2</ele>
        <time>2026-05-14T15:06:52.999Z</time>
      </trkpt>
      <trkpt lat="44.18101" lon="5.31136">
        <ele>734.1</ele>
        <time>2026-05-14T15:06:53.999Z</time>
      </trkpt>
      <trkpt lat="44.181" lon="5.31137">
        <ele>733.8</ele>
        <time>2026-05-14T15:06:54.999Z</time>
      </trkpt>
      <trkpt lat="44.18099" lon="5.31139">
        <ele>733.7</ele>
        <time>2026-05-14T15:06:55.999Z</time>
      </trkpt>
      <trkpt lat="44.18098" lon="5.3114">
        <ele>733.6</ele>
        <time>2026-05-14T15:06:56.999Z</time>
      </trkpt>
      <trkpt lat="44.18098" lon="5.31141">
        <ele>733.2</ele>
        <time>2026-05-14T15:06:57.999Z</time>
      </trkpt>
      <trkpt lat="44.18096" lon="5.31143">
        <ele>733.2</ele>
        <time>2026-05-14T15:06:58.999Z</time>
      </trkpt>
      <trkpt lat="44.18096" lon="5.31144">
        <ele>732.9</ele>
        <time>2026-05-14T15:06:59.999Z</time>
      </trkpt>
      <trkpt lat="44.18096" lon="5.31145">
        <ele>732.8</ele>
        <time>2026-05-14T15:07:00.999Z</time>
      </trkpt>
      <trkpt lat="44.18096" lon="5.31146">
        <ele>732.7</ele>
        <time>2026-05-14T15:07:01.999Z</time>
      </trkpt>
      <trkpt lat="44.18095" lon="5.31147">
        <ele>732.5</ele>
        <time>2026-05-14T15:07:02.999Z</time>
      </trkpt>
      <trkpt lat="44.18095" lon="5.31149">
        <ele>732.6</ele>
        <time>2026-05-14T15:07:03.999Z</time>
      </trkpt>
      <trkpt lat="44.18095" lon="5.31149">
        <ele>732.3</ele>
        <time>2026-05-14T15:07:04.999Z</time>
      </trkpt>
      <trkpt lat="44.18094" lon="5.31151">
        <ele>732.3</ele>
        <time>2026-05-14T15:07:05.999Z</time>
      </trkpt>
      <trkpt lat="44.18093" lon="5.31152">
        <ele>732.4</ele>
        <time>2026-05-14T15:07:06.999Z</time>
      </trkpt>
      <trkpt lat="44.18093" lon="5.31153">
        <ele>732.7</ele>
        <time>2026-05-14T15:07:07.999Z</time>
      </trkpt>
      <trkpt lat="44.18092" lon="5.31154">
        <ele>732.7</ele>
        <time>2026-05-14T15:07:08.999Z</time>
      </trkpt>
      <trkpt lat="44.18091" lon="5.31154">
        <ele>732.6</ele>
        <time>2026-05-14T15:07:09.999Z</time>
      </trkpt>
      <trkpt lat="44.1809" lon="5.31154">
        <ele>732.7</ele>
        <time>2026-05-14T15:07:10.999Z</time>
      </trkpt>
      <trkpt lat="44.18089" lon="5.31155">
        <ele>732.8</ele>
        <time>2026-05-14T15:07:11.999Z</time>
      </trkpt>
      <trkpt lat="44.18088" lon="5.31154">
        <ele>732.4</ele>
        <time>2026-05-14T15:07:12.999Z</time>
      </trkpt>
      <trkpt lat="44.18088" lon="5.31153">
        <ele>732.4</ele>
        <time>2026-05-14T15:07:13.999Z</time>
      </trkpt>
      <trkpt lat="44.18087" lon="5.31152">
        <ele>732.8</ele>
        <time>2026-05-14T15:07:14.999Z</time>
      </trkpt>
      <trkpt lat="44.18087" lon="5.31151">
        <ele>732.9</ele>
        <time>2026-05-14T15:07:15.999Z</time>
      </trkpt>
      <trkpt lat="44.18086" lon="5.31152">
        <ele>732.8</ele>
        <time>2026-05-14T15:07:16.999Z</time>
      </trkpt>
      <trkpt lat="44.18086" lon="5.31153">
        <ele>732.7</ele>
        <time>2026-05-14T15:07:17.999Z</time>
      </trkpt>
      <trkpt lat="44.18085" lon="5.31154">
        <ele>732.5</ele>
        <time>2026-05-14T15:07:18.999Z</time>
      </trkpt>
      <trkpt lat="44.18085" lon="5.31155">
        <ele>732.4</ele>
        <time>2026-05-14T15:07:19.999Z</time>
      </trkpt>
      <trkpt lat="44.18085" lon="5.31156">
        <ele>732.4</ele>
        <time>2026-05-14T15:07:20.999Z</time>
      </trkpt>
      <trkpt lat="44.18085" lon="5.31157">
        <ele>732</ele>
        <time>2026-05-14T15:07:21.999Z</time>
      </trkpt>
      <trkpt lat="44.18084" lon="5.31159">
        <ele>732.1</ele>
        <time>2026-05-14T15:07:22.999Z</time>
      </trkpt>
      <trkpt lat="44.18084" lon="5.31161">
        <ele>732</ele>
        <time>2026-05-14T15:07:23.999Z</time>
      </trkpt>
      <trkpt lat="44.18083" lon="5.31163">
        <ele>732</ele>
        <time>2026-05-14T15:07:24.999Z</time>
      </trkpt>
      <trkpt lat="44.18083" lon="5.31164">
        <ele>732</ele>
        <time>2026-05-14T15:07:25.999Z</time>
      </trkpt>
      <trkpt lat="44.18083" lon="5.31165">
        <ele>732.4</ele>
        <time>2026-05-14T15:07:26.999Z</time>
      </trkpt>
      <trkpt lat="44.18082" lon="5.31167">
        <ele>732.7</ele>
        <time>2026-05-14T15:07:27.999Z</time>
      </trkpt>
      <trkpt lat="44.18082" lon="5.31168">
        <ele>733</ele>
        <time>2026-05-14T15:07:28.999Z</time>
      </trkpt>
      <trkpt lat="44.18082" lon="5.31168">
        <ele>733.2</ele>
        <time>2026-05-14T15:07:29.999Z</time>
      </trkpt>
      <trkpt lat="44.18082" lon="5.31169">
        <ele>733.1</ele>
        <time>2026-05-14T15:07:30.999Z</time>
      </trkpt>
      <trkpt lat="44.18081" lon="5.31169">
        <ele>733.1</ele>
        <time>2026-05-14T15:07:31.999Z</time>
      </trkpt>
      <trkpt lat="44.1808" lon="5.3117">
        <ele>733.1</ele>
        <time>2026-05-14T15:07:32.999Z</time>
      </trkpt>
      <trkpt lat="44.1808" lon="5.31172">
        <ele>732.9</ele>
        <time>2026-05-14T15:07:33.999Z</time>
      </trkpt>
      <trkpt lat="44.1808" lon="5.31173">
        <ele>732.4</ele>
        <time>2026-05-14T15:07:34.999Z</time>
      </trkpt>
      <trkpt lat="44.18079" lon="5.31174">
        <ele>732.3</ele>
        <time>2026-05-14T15:07:35.999Z</time>
      </trkpt>
      <trkpt lat="44.18079" lon="5.31174">
        <ele>731.8</ele>
        <time>2026-05-14T15:07:36.999Z</time>
      </trkpt>
      <trkpt lat="44.18078" lon="5.31175">
        <ele>731.7</ele>
        <time>2026-05-14T15:07:37.999Z</time>
      </trkpt>
      <trkpt lat="44.18077" lon="5.31176">
        <ele>731.5</ele>
        <time>2026-05-14T15:07:38.999Z</time>
      </trkpt>
      <trkpt lat="44.18077" lon="5.31177">
        <ele>731.5</ele>
        <time>2026-05-14T15:07:39.999Z</time>
      </trkpt>
      <trkpt lat="44.18076" lon="5.31177">
        <ele>731.6</ele>
        <time>2026-05-14T15:07:40.999Z</time>
      </trkpt>
      <trkpt lat="44.18076" lon="5.31178">
        <ele>731.4</ele>
        <time>2026-05-14T15:07:41.999Z</time>
      </trkpt>
      <trkpt lat="44.18075" lon="5.31178">
        <ele>731.1</ele>
        <time>2026-05-14T15:07:42.999Z</time>
      </trkpt>
      <trkpt lat="44.18075" lon="5.31178">
        <ele>731</ele>
        <time>2026-05-14T15:07:43.999Z</time>
      </trkpt>
      <trkpt lat="44.18075" lon="5.31179">
        <ele>731.2</ele>
        <time>2026-05-14T15:07:44.999Z</time>
      </trkpt>
      <trkpt lat="44.18075" lon="5.31179">
        <ele>731.3</ele>
        <time>2026-05-14T15:07:45.999Z</time>
      </trkpt>
      <trkpt lat="44.18075" lon="5.31179">
        <ele>731.3</ele>
        <time>2026-05-14T15:07:46.999Z</time>
      </trkpt>
      <trkpt lat="44.18075" lon="5.31179">
        <ele>731</ele>
        <time>2026-05-14T15:07:47.999Z</time>
      </trkpt>
      <trkpt lat="44.18075" lon="5.31179">
        <ele>730.5</ele>
        <time>2026-05-14T15:07:48.999Z</time>
      </trkpt>
      <trkpt lat="44.18075" lon="5.31179">
        <ele>730.2</ele>
        <time>2026-05-14T15:07:49.999Z</time>
      </trkpt>
      <trkpt lat="44.18075" lon="5.3118">
        <ele>730.4</ele>
        <time>2026-05-14T15:07:50.999Z</time>
      </trkpt>
      <trkpt lat="44.18074" lon="5.3118">
        <ele>730.3</ele>
        <time>2026-05-14T15:07:51.999Z</time>
      </trkpt>
      <trkpt lat="44.18074" lon="5.3118">
        <ele>730.4</ele>
        <time>2026-05-14T15:07:52.999Z</time>
      </trkpt>
      <trkpt lat="44.18074" lon="5.3118">
        <ele>730</ele>
        <time>2026-05-14T15:07:53.999Z</time>
      </trkpt>
      <trkpt lat="44.18074" lon="5.3118">
        <ele>729.8</ele>
        <time>2026-05-14T15:07:54.999Z</time>
      </trkpt>
      <trkpt lat="44.18074" lon="5.3118">
        <ele>729.4</ele>
        <time>2026-05-14T15:07:55.999Z</time>
      </trkpt>
      <trkpt lat="44.18074" lon="5.3118">
        <ele>729.3</ele>
        <time>2026-05-14T15:07:56.999Z</time>
      </trkpt>
      <trkpt lat="44.18074" lon="5.31181">
        <ele>728.6</ele>
        <time>2026-05-14T15:07:57.999Z</time>
      </trkpt>
      <trkpt lat="44.18074" lon="5.31181">
        <ele>728.2</ele>
        <time>2026-05-14T15:07:58.999Z</time>
      </trkpt>
      <trkpt lat="44.18073" lon="5.31181">
        <ele>728</ele>
        <time>2026-05-14T15:07:59.999Z</time>
      </trkpt>
      <trkpt lat="44.18073" lon="5.31181">
        <ele>727.7</ele>
        <time>2026-05-14T15:08:00.999Z</time>
      </trkpt>
      <trkpt lat="44.18073" lon="5.31181">
        <ele>728</ele>
        <time>2026-05-14T15:08:01.999Z</time>
      </trkpt>
      <trkpt lat="44.18073" lon="5.31181">
        <ele>727.9</ele>
        <time>2026-05-14T15:08:02.999Z</time>
      </trkpt>
      <trkpt lat="44.18073" lon="5.31182">
        <ele>727.5</ele>
        <time>2026-05-14T15:08:03.999Z</time>
      </trkpt>
      <trkpt lat="44.18073" lon="5.31182">
        <ele>727.3</ele>
        <time>2026-05-14T15:08:04.999Z</time>
      </trkpt>
      <trkpt lat="44.18073" lon="5.31182">
        <ele>727.3</ele>
        <time>2026-05-14T15:08:05.999Z</time>
      </trkpt>
      <trkpt lat="44.18073" lon="5.31182">
        <ele>727.3</ele>
        <time>2026-05-14T15:08:06.999Z</time>
      </trkpt>
      <trkpt lat="44.18072" lon="5.31182">
        <ele>727.5</ele>
        <time>2026-05-14T15:08:07.999Z</time>
      </trkpt>
      <trkpt lat="44.18072" lon="5.31182">
        <ele>727.9</ele>
        <time>2026-05-14T15:08:08.999Z</time>
      </trkpt>
      <trkpt lat="44.18072" lon="5.31183">
        <ele>727.9</ele>
        <time>2026-05-14T15:08:09.999Z</time>
      </trkpt>
      <trkpt lat="44.18072" lon="5.31183">
        <ele>728.2</ele>
        <time>2026-05-14T15:08:10.999Z</time>
      </trkpt>
      <trkpt lat="44.18071" lon="5.31185">
        <ele>728.1</ele>
        <time>2026-05-14T15:08:11.999Z</time>
      </trkpt>
      <trkpt lat="44.1807" lon="5.31186">
        <ele>727.9</ele>
        <time>2026-05-14T15:08:12.999Z</time>
      </trkpt>
      <trkpt lat="44.18069" lon="5.31187">
        <ele>727.6</ele>
        <time>2026-05-14T15:08:13.999Z</time>
      </trkpt>
      <trkpt lat="44.18069" lon="5.31187">
        <ele>726.9</ele>
        <time>2026-05-14T15:08:14.999Z</time>
      </trkpt>
      <trkpt lat="44.18069" lon="5.31188">
        <ele>726.7</ele>
        <time>2026-05-14T15:08:15.999Z</time>
      </trkpt>
      <trkpt lat="44.18068" lon="5.31188">
        <ele>726.6</ele>
        <time>2026-05-14T15:08:16.999Z</time>
      </trkpt>
      <trkpt lat="44.18068" lon="5.31189">
        <ele>726.2</ele>
        <time>2026-05-14T15:08:17.999Z</time>
      </trkpt>
      <trkpt lat="44.18067" lon="5.31191">
        <ele>726.1</ele>
        <time>2026-05-14T15:08:18.999Z</time>
      </trkpt>
      <trkpt lat="44.18066" lon="5.31193">
        <ele>725.6</ele>
        <time>2026-05-14T15:08:19.999Z</time>
      </trkpt>
      <trkpt lat="44.18065" lon="5.31195">
        <ele>725.5</ele>
        <time>2026-05-14T15:08:20.999Z</time>
      </trkpt>
      <trkpt lat="44.18064" lon="5.31198">
        <ele>725.5</ele>
        <time>2026-05-14T15:08:21.999Z</time>
      </trkpt>
      <trkpt lat="44.18064" lon="5.31199">
        <ele>725.7</ele>
        <time>2026-05-14T15:08:22.999Z</time>
      </trkpt>
      <trkpt lat="44.18062" lon="5.31202">
        <ele>725.8</ele>
        <time>2026-05-14T15:08:23.999Z</time>
      </trkpt>
      <trkpt lat="44.18061" lon="5.31203">
        <ele>725.8</ele>
        <time>2026-05-14T15:08:24.999Z</time>
      </trkpt>
      <trkpt lat="44.1806" lon="5.31204">
        <ele>725.7</ele>
        <time>2026-05-14T15:08:25.999Z</time>
      </trkpt>
      <trkpt lat="44.18058" lon="5.31205">
        <ele>725.4</ele>
        <time>2026-05-14T15:08:26.999Z</time>
      </trkpt>
      <trkpt lat="44.18057" lon="5.31207">
        <ele>725.2</ele>
        <time>2026-05-14T15:08:27.999Z</time>
      </trkpt>
      <trkpt lat="44.18057" lon="5.3121">
        <ele>724.8</ele>
        <time>2026-05-14T15:08:28.999Z</time>
      </trkpt>
      <trkpt lat="44.18056" lon="5.31212">
        <ele>725.1</ele>
        <time>2026-05-14T15:08:29.999Z</time>
      </trkpt>
      <trkpt lat="44.18055" lon="5.31212">
        <ele>725.4</ele>
        <time>2026-05-14T15:08:30.999Z</time>
      </trkpt>
      <trkpt lat="44.18054" lon="5.31212">
        <ele>725.6</ele>
        <time>2026-05-14T15:08:31.999Z</time>
      </trkpt>
      <trkpt lat="44.18054" lon="5.31213">
        <ele>725.8</ele>
        <time>2026-05-14T15:08:32.999Z</time>
      </trkpt>
      <trkpt lat="44.18053" lon="5.31215">
        <ele>725.8</ele>
        <time>2026-05-14T15:08:33.999Z</time>
      </trkpt>
      <trkpt lat="44.18053" lon="5.31215">
        <ele>726</ele>
        <time>2026-05-14T15:08:34.999Z</time>
      </trkpt>
      <trkpt lat="44.18053" lon="5.31215">
        <ele>726.3</ele>
        <time>2026-05-14T15:08:35.999Z</time>
      </trkpt>
      <trkpt lat="44.18053" lon="5.31215">
        <ele>726.3</ele>
        <time>2026-05-14T15:08:36.999Z</time>
      </trkpt>
      <trkpt lat="44.18053" lon="5.31215">
        <ele>726.3</ele>
        <time>2026-05-14T15:08:37.999Z</time>
      </trkpt>
      <trkpt lat="44.18053" lon="5.31216">
        <ele>726.2</ele>
        <time>2026-05-14T15:08:38.999Z</time>
      </trkpt>
      <trkpt lat="44.18053" lon="5.31216">
        <ele>726.3</ele>
        <time>2026-05-14T15:08:39.999Z</time>
      </trkpt>
      <trkpt lat="44.18053" lon="5.31216">
        <ele>726.7</ele>
        <time>2026-05-14T15:08:40.999Z</time>
      </trkpt>
      <trkpt lat="44.18053" lon="5.31216">
        <ele>726.6</ele>
        <time>2026-05-14T15:08:41.999Z</time>
      </trkpt>
      <trkpt lat="44.18053" lon="5.31216">
        <ele>726.6</ele>
        <time>2026-05-14T15:08:42.999Z</time>
      </trkpt>
      <trkpt lat="44.18053" lon="5.31216">
        <ele>726.5</ele>
        <time>2026-05-14T15:08:43.999Z</time>
      </trkpt>
      <trkpt lat="44.18053" lon="5.31217">
        <ele>726.4</ele>
        <time>2026-05-14T15:08:44.999Z</time>
      </trkpt>
      <trkpt lat="44.18053" lon="5.31217">
        <ele>726.2</ele>
        <time>2026-05-14T15:08:45.999Z</time>
      </trkpt>
      <trkpt lat="44.18053" lon="5.31218">
        <ele>726.2</ele>
        <time>2026-05-14T15:08:46.999Z</time>
      </trkpt>
      <trkpt lat="44.18053" lon="5.31218">
        <ele>726.3</ele>
        <time>2026-05-14T15:08:47.999Z</time>
      </trkpt>
      <trkpt lat="44.18053" lon="5.31219">
        <ele>726.4</ele>
        <time>2026-05-14T15:08:48.999Z</time>
      </trkpt>
      <trkpt lat="44.18053" lon="5.31221">
        <ele>726.3</ele>
        <time>2026-05-14T15:08:49.999Z</time>
      </trkpt>
      <trkpt lat="44.18053" lon="5.31221">
        <ele>726</ele>
        <time>2026-05-14T15:08:50.999Z</time>
      </trkpt>
      <trkpt lat="44.18053" lon="5.31221">
        <ele>725.6</ele>
        <time>2026-05-14T15:08:51.999Z</time>
      </trkpt>
      <trkpt lat="44.18053" lon="5.31222">
        <ele>725.2</ele>
        <time>2026-05-14T15:08:52.999Z</time>
      </trkpt>
      <trkpt lat="44.18053" lon="5.31222">
        <ele>724.9</ele>
        <time>2026-05-14T15:08:53.999Z</time>
      </trkpt>
      <trkpt lat="44.18053" lon="5.31223">
        <ele>724.6</ele>
        <time>2026-05-14T15:08:54.999Z</time>
      </trkpt>
      <trkpt lat="44.18053" lon="5.31223">
        <ele>724.6</ele>
        <time>2026-05-14T15:08:55.999Z</time>
      </trkpt>
      <trkpt lat="44.18053" lon="5.31223">
        <ele>724.6</ele>
        <time>2026-05-14T15:08:56.999Z</time>
      </trkpt>
      <trkpt lat="44.18053" lon="5.31223">
        <ele>724.6</ele>
        <time>2026-05-14T15:08:57.999Z</time>
      </trkpt>
      <trkpt lat="44.18053" lon="5.31225">
        <ele>724.5</ele>
        <time>2026-05-14T15:08:58.999Z</time>
      </trkpt>
      <trkpt lat="44.18053" lon="5.31226">
        <ele>724.6</ele>
        <time>2026-05-14T15:08:59.999Z</time>
      </trkpt>
      <trkpt lat="44.18052" lon="5.31228">
        <ele>724.6</ele>
        <time>2026-05-14T15:09:00.999Z</time>
      </trkpt>
      <trkpt lat="44.18052" lon="5.31232">
        <ele>724.5</ele>
        <time>2026-05-14T15:09:01.999Z</time>
      </trkpt>
      <trkpt lat="44.18051" lon="5.31234">
        <ele>724.4</ele>
        <time>2026-05-14T15:09:02.999Z</time>
      </trkpt>
      <trkpt lat="44.1805" lon="5.31237">
        <ele>724.2</ele>
        <time>2026-05-14T15:09:03.999Z</time>
      </trkpt>
      <trkpt lat="44.1805" lon="5.3124">
        <ele>724</ele>
        <time>2026-05-14T15:09:04.999Z</time>
      </trkpt>
      <trkpt lat="44.18049" lon="5.31243">
        <ele>723.8</ele>
        <time>2026-05-14T15:09:05.999Z</time>
      </trkpt>
      <trkpt lat="44.18048" lon="5.31247">
        <ele>723.8</ele>
        <time>2026-05-14T15:09:06.999Z</time>
      </trkpt>
      <trkpt lat="44.18048" lon="5.3125">
        <ele>723.9</ele>
        <time>2026-05-14T15:09:07.999Z</time>
      </trkpt>
      <trkpt lat="44.18047" lon="5.31251">
        <ele>723.9</ele>
        <time>2026-05-14T15:09:08.999Z</time>
      </trkpt>
      <trkpt lat="44.18047" lon="5.31253">
        <ele>723.9</ele>
        <time>2026-05-14T15:09:09.999Z</time>
      </trkpt>
      <trkpt lat="44.18047" lon="5.31256">
        <ele>723.9</ele>
        <time>2026-05-14T15:09:10.999Z</time>
      </trkpt>
      <trkpt lat="44.18047" lon="5.31258">
        <ele>724</ele>
        <time>2026-05-14T15:09:11.999Z</time>
      </trkpt>
      <trkpt lat="44.18047" lon="5.31258">
        <ele>723.9</ele>
        <time>2026-05-14T15:09:12.999Z</time>
      </trkpt>
      <trkpt lat="44.18047" lon="5.31259">
        <ele>723.8</ele>
        <time>2026-05-14T15:09:13.999Z</time>
      </trkpt>
      <trkpt lat="44.18047" lon="5.3126">
        <ele>723.8</ele>
        <time>2026-05-14T15:09:14.999Z</time>
      </trkpt>
      <trkpt lat="44.18047" lon="5.31261">
        <ele>724.2</ele>
        <time>2026-05-14T15:09:15.999Z</time>
      </trkpt>
      <trkpt lat="44.18047" lon="5.31262">
        <ele>724.5</ele>
        <time>2026-05-14T15:09:16.999Z</time>
      </trkpt>
      <trkpt lat="44.18047" lon="5.31263">
        <ele>724.8</ele>
        <time>2026-05-14T15:09:17.999Z</time>
      </trkpt>
      <trkpt lat="44.18047" lon="5.31265">
        <ele>724.6</ele>
        <time>2026-05-14T15:09:18.999Z</time>
      </trkpt>
      <trkpt lat="44.18047" lon="5.31266">
        <ele>724.8</ele>
        <time>2026-05-14T15:09:19.999Z</time>
      </trkpt>
      <trkpt lat="44.18047" lon="5.31267">
        <ele>724.7</ele>
        <time>2026-05-14T15:09:20.999Z</time>
      </trkpt>
      <trkpt lat="44.18047" lon="5.31267">
        <ele>724.5</ele>
        <time>2026-05-14T15:09:21.999Z</time>
      </trkpt>
      <trkpt lat="44.18048" lon="5.31268">
        <ele>723.7</ele>
        <time>2026-05-14T15:09:22.999Z</time>
      </trkpt>
      <trkpt lat="44.18048" lon="5.31269">
        <ele>723.6</ele>
        <time>2026-05-14T15:09:23.999Z</time>
      </trkpt>
      <trkpt lat="44.18048" lon="5.31271">
        <ele>723.5</ele>
        <time>2026-05-14T15:09:24.999Z</time>
      </trkpt>
      <trkpt lat="44.18048" lon="5.31273">
        <ele>723.3</ele>
        <time>2026-05-14T15:09:25.999Z</time>
      </trkpt>
      <trkpt lat="44.18047" lon="5.31274">
        <ele>723</ele>
        <time>2026-05-14T15:09:26.999Z</time>
      </trkpt>
      <trkpt lat="44.18048" lon="5.31274">
        <ele>722.7</ele>
        <time>2026-05-14T15:09:27.999Z</time>
      </trkpt>
      <trkpt lat="44.18047" lon="5.31275">
        <ele>722.2</ele>
        <time>2026-05-14T15:09:28.999Z</time>
      </trkpt>
      <trkpt lat="44.18046" lon="5.31277">
        <ele>722</ele>
        <time>2026-05-14T15:09:29.999Z</time>
      </trkpt>
      <trkpt lat="44.18045" lon="5.31278">
        <ele>721.9</ele>
        <time>2026-05-14T15:09:30.999Z</time>
      </trkpt>
      <trkpt lat="44.18045" lon="5.31279">
        <ele>722.1</ele>
        <time>2026-05-14T15:09:31.999Z</time>
      </trkpt>
      <trkpt lat="44.18045" lon="5.31281">
        <ele>722.1</ele>
        <time>2026-05-14T15:09:32.999Z</time>
      </trkpt>
      <trkpt lat="44.18045" lon="5.31282">
        <ele>722</ele>
        <time>2026-05-14T15:09:33.999Z</time>
      </trkpt>
      <trkpt lat="44.18045" lon="5.31285">
        <ele>722.1</ele>
        <time>2026-05-14T15:09:34.999Z</time>
      </trkpt>
      <trkpt lat="44.18045" lon="5.31286">
        <ele>722.2</ele>
        <time>2026-05-14T15:09:35.999Z</time>
      </trkpt>
      <trkpt lat="44.18045" lon="5.31287">
        <ele>722.1</ele>
        <time>2026-05-14T15:09:36.999Z</time>
      </trkpt>
      <trkpt lat="44.18045" lon="5.31288">
        <ele>721.9</ele>
        <time>2026-05-14T15:09:37.999Z</time>
      </trkpt>
      <trkpt lat="44.18045" lon="5.31288">
        <ele>721.7</ele>
        <time>2026-05-14T15:09:38.999Z</time>
      </trkpt>
      <trkpt lat="44.18045" lon="5.31289">
        <ele>721.7</ele>
        <time>2026-05-14T15:09:39.999Z</time>
      </trkpt>
      <trkpt lat="44.18045" lon="5.31289">
        <ele>721.7</ele>
        <time>2026-05-14T15:09:40.999Z</time>
      </trkpt>
      <trkpt lat="44.18045" lon="5.31289">
        <ele>721.7</ele>
        <time>2026-05-14T15:09:41.999Z</time>
      </trkpt>
      <trkpt lat="44.18045" lon="5.3129">
        <ele>721.6</ele>
        <time>2026-05-14T15:09:42.999Z</time>
      </trkpt>
      <trkpt lat="44.18045" lon="5.31291">
        <ele>721.4</ele>
        <time>2026-05-14T15:09:43.999Z</time>
      </trkpt>
      <trkpt lat="44.18045" lon="5.31292">
        <ele>721</ele>
        <time>2026-05-14T15:09:44.999Z</time>
      </trkpt>
      <trkpt lat="44.18045" lon="5.31293">
        <ele>720.9</ele>
        <time>2026-05-14T15:09:45.999Z</time>
      </trkpt>
      <trkpt lat="44.18044" lon="5.31294">
        <ele>720.6</ele>
        <time>2026-05-14T15:09:46.999Z</time>
      </trkpt>
      <trkpt lat="44.18044" lon="5.31294">
        <ele>720.4</ele>
        <time>2026-05-14T15:09:47.999Z</time>
      </trkpt>
      <trkpt lat="44.18044" lon="5.31295">
        <ele>720.4</ele>
        <time>2026-05-14T15:09:48.999Z</time>
      </trkpt>
      <trkpt lat="44.18044" lon="5.31297">
        <ele>720.2</ele>
        <time>2026-05-14T15:09:49.999Z</time>
      </trkpt>
      <trkpt lat="44.18044" lon="5.31299">
        <ele>720.1</ele>
        <time>2026-05-14T15:09:50.999Z</time>
      </trkpt>
      <trkpt lat="44.18044" lon="5.31301">
        <ele>720.2</ele>
        <time>2026-05-14T15:09:51.999Z</time>
      </trkpt>
      <trkpt lat="44.18045" lon="5.31303">
        <ele>720.5</ele>
        <time>2026-05-14T15:09:52.999Z</time>
      </trkpt>
      <trkpt lat="44.18045" lon="5.31304">
        <ele>720.7</ele>
        <time>2026-05-14T15:09:53.999Z</time>
      </trkpt>
      <trkpt lat="44.18045" lon="5.31305">
        <ele>720.7</ele>
        <time>2026-05-14T15:09:54.999Z</time>
      </trkpt>
      <trkpt lat="44.18044" lon="5.31306">
        <ele>720.7</ele>
        <time>2026-05-14T15:09:55.999Z</time>
      </trkpt>
      <trkpt lat="44.18044" lon="5.31308">
        <ele>720.9</ele>
        <time>2026-05-14T15:09:56.999Z</time>
      </trkpt>
      <trkpt lat="44.18044" lon="5.31309">
        <ele>721</ele>
        <time>2026-05-14T15:09:57.999Z</time>
      </trkpt>
      <trkpt lat="44.18044" lon="5.3131">
        <ele>720.8</ele>
        <time>2026-05-14T15:09:58.999Z</time>
      </trkpt>
      <trkpt lat="44.18044" lon="5.31311">
        <ele>720.7</ele>
        <time>2026-05-14T15:09:59.999Z</time>
      </trkpt>
      <trkpt lat="44.18044" lon="5.31312">
        <ele>720.6</ele>
        <time>2026-05-14T15:10:00.999Z</time>
      </trkpt>
      <trkpt lat="44.18043" lon="5.31313">
        <ele>720.5</ele>
        <time>2026-05-14T15:10:01.999Z</time>
      </trkpt>
      <trkpt lat="44.18043" lon="5.31313">
        <ele>720.4</ele>
        <time>2026-05-14T15:10:02.999Z</time>
      </trkpt>
      <trkpt lat="44.18042" lon="5.31315">
        <ele>720.3</ele>
        <time>2026-05-14T15:10:03.999Z</time>
      </trkpt>
      <trkpt lat="44.18041" lon="5.31317">
        <ele>720.1</ele>
        <time>2026-05-14T15:10:04.999Z</time>
      </trkpt>
      <trkpt lat="44.18041" lon="5.31318">
        <ele>719.8</ele>
        <time>2026-05-14T15:10:05.999Z</time>
      </trkpt>
      <trkpt lat="44.18042" lon="5.3132">
        <ele>719.6</ele>
        <time>2026-05-14T15:10:06.999Z</time>
      </trkpt>
      <trkpt lat="44.18042" lon="5.31322">
        <ele>719.5</ele>
        <time>2026-05-14T15:10:07.999Z</time>
      </trkpt>
      <trkpt lat="44.18042" lon="5.31324">
        <ele>719.7</ele>
        <time>2026-05-14T15:10:08.999Z</time>
      </trkpt>
      <trkpt lat="44.18042" lon="5.31326">
        <ele>719.8</ele>
        <time>2026-05-14T15:10:09.999Z</time>
      </trkpt>
      <trkpt lat="44.18042" lon="5.31328">
        <ele>719.8</ele>
        <time>2026-05-14T15:10:10.999Z</time>
      </trkpt>
      <trkpt lat="44.18042" lon="5.31329">
        <ele>720</ele>
        <time>2026-05-14T15:10:11.999Z</time>
      </trkpt>
      <trkpt lat="44.18042" lon="5.31331">
        <ele>720.1</ele>
        <time>2026-05-14T15:10:12.999Z</time>
      </trkpt>
      <trkpt lat="44.18042" lon="5.31333">
        <ele>719.9</ele>
        <time>2026-05-14T15:10:13.999Z</time>
      </trkpt>
      <trkpt lat="44.18042" lon="5.31335">
        <ele>719.8</ele>
        <time>2026-05-14T15:10:14.999Z</time>
      </trkpt>
      <trkpt lat="44.18042" lon="5.31337">
        <ele>719.8</ele>
        <time>2026-05-14T15:10:15.999Z</time>
      </trkpt>
      <trkpt lat="44.18042" lon="5.31337">
        <ele>720</ele>
        <time>2026-05-14T15:10:16.999Z</time>
      </trkpt>
      <trkpt lat="44.18042" lon="5.31338">
        <ele>719.8</ele>
        <time>2026-05-14T15:10:17.999Z</time>
      </trkpt>
      <trkpt lat="44.18042" lon="5.3134">
        <ele>720</ele>
        <time>2026-05-14T15:10:18.999Z</time>
      </trkpt>
      <trkpt lat="44.18042" lon="5.3134">
        <ele>720.3</ele>
        <time>2026-05-14T15:10:19.999Z</time>
      </trkpt>
      <trkpt lat="44.18041" lon="5.31342">
        <ele>720.9</ele>
        <time>2026-05-14T15:10:20.999Z</time>
      </trkpt>
      <trkpt lat="44.18041" lon="5.31343">
        <ele>720.9</ele>
        <time>2026-05-14T15:10:21.999Z</time>
      </trkpt>
      <trkpt lat="44.18041" lon="5.31344">
        <ele>721</ele>
        <time>2026-05-14T15:10:22.999Z</time>
      </trkpt>
      <trkpt lat="44.18041" lon="5.31345">
        <ele>721.1</ele>
        <time>2026-05-14T15:10:23.999Z</time>
      </trkpt>
      <trkpt lat="44.18041" lon="5.31346">
        <ele>721</ele>
        <time>2026-05-14T15:10:24.999Z</time>
      </trkpt>
      <trkpt lat="44.18042" lon="5.31346">
        <ele>720.7</ele>
        <time>2026-05-14T15:10:25.999Z</time>
      </trkpt>
      <trkpt lat="44.18042" lon="5.31347">
        <ele>720.2</ele>
        <time>2026-05-14T15:10:26.999Z</time>
      </trkpt>
      <trkpt lat="44.18042" lon="5.31348">
        <ele>720.1</ele>
        <time>2026-05-14T15:10:27.999Z</time>
      </trkpt>
      <trkpt lat="44.18041" lon="5.3135">
        <ele>720</ele>
        <time>2026-05-14T15:10:28.999Z</time>
      </trkpt>
      <trkpt lat="44.18041" lon="5.31351">
        <ele>720</ele>
        <time>2026-05-14T15:10:29.999Z</time>
      </trkpt>
      <trkpt lat="44.18041" lon="5.31353">
        <ele>719.9</ele>
        <time>2026-05-14T15:10:30.999Z</time>
      </trkpt>
      <trkpt lat="44.18041" lon="5.31354">
        <ele>720</ele>
        <time>2026-05-14T15:10:31.999Z</time>
      </trkpt>
      <trkpt lat="44.18041" lon="5.31356">
        <ele>720.1</ele>
        <time>2026-05-14T15:10:32.999Z</time>
      </trkpt>
      <trkpt lat="44.18041" lon="5.31357">
        <ele>720.1</ele>
        <time>2026-05-14T15:10:33.999Z</time>
      </trkpt>
      <trkpt lat="44.18042" lon="5.31358">
        <ele>720</ele>
        <time>2026-05-14T15:10:34.999Z</time>
      </trkpt>
      <trkpt lat="44.18041" lon="5.3136">
        <ele>720.1</ele>
        <time>2026-05-14T15:10:35.999Z</time>
      </trkpt>
      <trkpt lat="44.18041" lon="5.31361">
        <ele>720.2</ele>
        <time>2026-05-14T15:10:36.999Z</time>
      </trkpt>
      <trkpt lat="44.18042" lon="5.31362">
        <ele>720.6</ele>
        <time>2026-05-14T15:10:37.999Z</time>
      </trkpt>
      <trkpt lat="44.18042" lon="5.31362">
        <ele>720.7</ele>
        <time>2026-05-14T15:10:38.999Z</time>
      </trkpt>
      <trkpt lat="44.18042" lon="5.31362">
        <ele>720.8</ele>
        <time>2026-05-14T15:10:39.999Z</time>
      </trkpt>
      <trkpt lat="44.18042" lon="5.31362">
        <ele>720.8</ele>
        <time>2026-05-14T15:10:40.999Z</time>
      </trkpt>
      <trkpt lat="44.18043" lon="5.31363">
        <ele>720.7</ele>
        <time>2026-05-14T15:10:41.999Z</time>
      </trkpt>
      <trkpt lat="44.18043" lon="5.31363">
        <ele>720.8</ele>
        <time>2026-05-14T15:10:42.999Z</time>
      </trkpt>
      <trkpt lat="44.18043" lon="5.31364">
        <ele>720.9</ele>
        <time>2026-05-14T15:10:43.999Z</time>
      </trkpt>
      <trkpt lat="44.18044" lon="5.31365">
        <ele>720.7</ele>
        <time>2026-05-14T15:10:44.999Z</time>
      </trkpt>
      <trkpt lat="44.18044" lon="5.31367">
        <ele>720.5</ele>
        <time>2026-05-14T15:10:45.999Z</time>
      </trkpt>
      <trkpt lat="44.18044" lon="5.31368">
        <ele>720.4</ele>
        <time>2026-05-14T15:10:46.999Z</time>
      </trkpt>
      <trkpt lat="44.18044" lon="5.31369">
        <ele>720.3</ele>
        <time>2026-05-14T15:10:47.999Z</time>
      </trkpt>
      <trkpt lat="44.18044" lon="5.3137">
        <ele>720.3</ele>
        <time>2026-05-14T15:10:48.999Z</time>
      </trkpt>
      <trkpt lat="44.18044" lon="5.31372">
        <ele>720</ele>
        <time>2026-05-14T15:10:49.999Z</time>
      </trkpt>
      <trkpt lat="44.18044" lon="5.31374">
        <ele>719.5</ele>
        <time>2026-05-14T15:10:50.999Z</time>
      </trkpt>
      <trkpt lat="44.18043" lon="5.31375">
        <ele>719.2</ele>
        <time>2026-05-14T15:10:51.999Z</time>
      </trkpt>
      <trkpt lat="44.18043" lon="5.31377">
        <ele>719</ele>
        <time>2026-05-14T15:10:52.999Z</time>
      </trkpt>
      <trkpt lat="44.18043" lon="5.31377">
        <ele>718.7</ele>
        <time>2026-05-14T15:10:53.999Z</time>
      </trkpt>
      <trkpt lat="44.18043" lon="5.31379">
        <ele>718.6</ele>
        <time>2026-05-14T15:10:54.999Z</time>
      </trkpt>
      <trkpt lat="44.18044" lon="5.3138">
        <ele>718.2</ele>
        <time>2026-05-14T15:10:55.999Z</time>
      </trkpt>
      <trkpt lat="44.18044" lon="5.31382">
        <ele>718.1</ele>
        <time>2026-05-14T15:10:56.999Z</time>
      </trkpt>
      <trkpt lat="44.18044" lon="5.31383">
        <ele>718.4</ele>
        <time>2026-05-14T15:10:57.999Z</time>
      </trkpt>
      <trkpt lat="44.18044" lon="5.31384">
        <ele>718.5</ele>
        <time>2026-05-14T15:10:58.999Z</time>
      </trkpt>
      <trkpt lat="44.18044" lon="5.31385">
        <ele>718.9</ele>
        <time>2026-05-14T15:10:59.999Z</time>
      </trkpt>
      <trkpt lat="44.18043" lon="5.31386">
        <ele>719.3</ele>
        <time>2026-05-14T15:11:00.999Z</time>
      </trkpt>
      <trkpt lat="44.18043" lon="5.31387">
        <ele>719.7</ele>
        <time>2026-05-14T15:11:01.999Z</time>
      </trkpt>
      <trkpt lat="44.18043" lon="5.31388">
        <ele>719.8</ele>
        <time>2026-05-14T15:11:02.999Z</time>
      </trkpt>
      <trkpt lat="44.18042" lon="5.31389">
        <ele>719.5</ele>
        <time>2026-05-14T15:11:03.999Z</time>
      </trkpt>
      <trkpt lat="44.18042" lon="5.31389">
        <ele>719.5</ele>
        <time>2026-05-14T15:11:04.999Z</time>
      </trkpt>
      <trkpt lat="44.18042" lon="5.31391">
        <ele>719.5</ele>
        <time>2026-05-14T15:11:05.999Z</time>
      </trkpt>
      <trkpt lat="44.18042" lon="5.31393">
        <ele>719.3</ele>
        <time>2026-05-14T15:11:06.999Z</time>
      </trkpt>
      <trkpt lat="44.18041" lon="5.31394">
        <ele>719.4</ele>
        <time>2026-05-14T15:11:07.999Z</time>
      </trkpt>
      <trkpt lat="44.18041" lon="5.31396">
        <ele>719.4</ele>
        <time>2026-05-14T15:11:08.999Z</time>
      </trkpt>
      <trkpt lat="44.18041" lon="5.31397">
        <ele>719.3</ele>
        <time>2026-05-14T15:11:09.999Z</time>
      </trkpt>
      <trkpt lat="44.1804" lon="5.31398">
        <ele>719</ele>
        <time>2026-05-14T15:11:10.999Z</time>
      </trkpt>
      <trkpt lat="44.1804" lon="5.314">
        <ele>718.9</ele>
        <time>2026-05-14T15:11:11.999Z</time>
      </trkpt>
      <trkpt lat="44.18039" lon="5.31401">
        <ele>719</ele>
        <time>2026-05-14T15:11:12.999Z</time>
      </trkpt>
      <trkpt lat="44.18039" lon="5.31401">
        <ele>719.3</ele>
        <time>2026-05-14T15:11:13.999Z</time>
      </trkpt>
      <trkpt lat="44.18038" lon="5.31401">
        <ele>719.1</ele>
        <time>2026-05-14T15:11:14.999Z</time>
      </trkpt>
      <trkpt lat="44.18038" lon="5.31402">
        <ele>718.8</ele>
        <time>2026-05-14T15:11:15.999Z</time>
      </trkpt>
      <trkpt lat="44.18037" lon="5.31402">
        <ele>719</ele>
        <time>2026-05-14T15:11:16.999Z</time>
      </trkpt>
      <trkpt lat="44.18036" lon="5.31402">
        <ele>719.2</ele>
        <time>2026-05-14T15:11:17.999Z</time>
      </trkpt>
      <trkpt lat="44.18037" lon="5.31402">
        <ele>719</ele>
        <time>2026-05-14T15:11:18.999Z</time>
      </trkpt>
      <trkpt lat="44.18037" lon="5.31403">
        <ele>718.6</ele>
        <time>2026-05-14T15:11:19.999Z</time>
      </trkpt>
      <trkpt lat="44.18036" lon="5.31404">
        <ele>718.1</ele>
        <time>2026-05-14T15:11:20.999Z</time>
      </trkpt>
      <trkpt lat="44.18036" lon="5.31404">
        <ele>718</ele>
        <time>2026-05-14T15:11:21.999Z</time>
      </trkpt>
      <trkpt lat="44.18036" lon="5.31405">
        <ele>717.8</ele>
        <time>2026-05-14T15:11:22.999Z</time>
      </trkpt>
      <trkpt lat="44.18036" lon="5.31405">
        <ele>717.4</ele>
        <time>2026-05-14T15:11:23.999Z</time>
      </trkpt>
      <trkpt lat="44.18036" lon="5.31405">
        <ele>717.1</ele>
        <time>2026-05-14T15:11:24.999Z</time>
      </trkpt>
      <trkpt lat="44.18035" lon="5.31406">
        <ele>717</ele>
        <time>2026-05-14T15:11:25.999Z</time>
      </trkpt>
      <trkpt lat="44.18035" lon="5.31407">
        <ele>716.7</ele>
        <time>2026-05-14T15:11:26.999Z</time>
      </trkpt>
      <trkpt lat="44.18035" lon="5.31408">
        <ele>716.7</ele>
        <time>2026-05-14T15:11:27.999Z</time>
      </trkpt>
      <trkpt lat="44.18034" lon="5.31409">
        <ele>716.5</ele>
        <time>2026-05-14T15:11:28.999Z</time>
      </trkpt>
      <trkpt lat="44.18034" lon="5.3141">
        <ele>716.2</ele>
        <time>2026-05-14T15:11:29.999Z</time>
      </trkpt>
      <trkpt lat="44.18034" lon="5.31411">
        <ele>715.9</ele>
        <time>2026-05-14T15:11:30.999Z</time>
      </trkpt>
      <trkpt lat="44.18034" lon="5.31414">
        <ele>715.6</ele>
        <time>2026-05-14T15:11:31.999Z</time>
      </trkpt>
      <trkpt lat="44.18034" lon="5.31414">
        <ele>715.6</ele>
        <time>2026-05-14T15:11:32.999Z</time>
      </trkpt>
      <trkpt lat="44.18034" lon="5.31415">
        <ele>715.7</ele>
        <time>2026-05-14T15:11:33.999Z</time>
      </trkpt>
      <trkpt lat="44.18034" lon="5.31416">
        <ele>715.9</ele>
        <time>2026-05-14T15:11:34.999Z</time>
      </trkpt>
      <trkpt lat="44.18033" lon="5.31417">
        <ele>716</ele>
        <time>2026-05-14T15:11:35.999Z</time>
      </trkpt>
      <trkpt lat="44.18033" lon="5.31418">
        <ele>716</ele>
        <time>2026-05-14T15:11:36.999Z</time>
      </trkpt>
      <trkpt lat="44.18033" lon="5.31419">
        <ele>716.1</ele>
        <time>2026-05-14T15:11:37.999Z</time>
      </trkpt>
      <trkpt lat="44.18032" lon="5.31419">
        <ele>716.4</ele>
        <time>2026-05-14T15:11:38.999Z</time>
      </trkpt>
      <trkpt lat="44.18032" lon="5.3142">
        <ele>716.4</ele>
        <time>2026-05-14T15:11:39.999Z</time>
      </trkpt>
      <trkpt lat="44.18032" lon="5.3142">
        <ele>716.5</ele>
        <time>2026-05-14T15:11:40.999Z</time>
      </trkpt>
      <trkpt lat="44.18032" lon="5.3142">
        <ele>716.5</ele>
        <time>2026-05-14T15:11:41.999Z</time>
      </trkpt>
      <trkpt lat="44.18032" lon="5.31421">
        <ele>716.3</ele>
        <time>2026-05-14T15:11:42.999Z</time>
      </trkpt>
      <trkpt lat="44.18032" lon="5.31421">
        <ele>716.1</ele>
        <time>2026-05-14T15:11:43.999Z</time>
      </trkpt>
      <trkpt lat="44.18032" lon="5.31422">
        <ele>716.2</ele>
        <time>2026-05-14T15:11:44.999Z</time>
      </trkpt>
      <trkpt lat="44.18032" lon="5.31422">
        <ele>715.9</ele>
        <time>2026-05-14T15:11:45.999Z</time>
      </trkpt>
      <trkpt lat="44.18032" lon="5.31422">
        <ele>715.8</ele>
        <time>2026-05-14T15:11:46.999Z</time>
      </trkpt>
      <trkpt lat="44.18032" lon="5.31422">
        <ele>715.7</ele>
        <time>2026-05-14T15:11:47.999Z</time>
      </trkpt>
      <trkpt lat="44.18032" lon="5.31422">
        <ele>715.6</ele>
        <time>2026-05-14T15:11:48.999Z</time>
      </trkpt>
      <trkpt lat="44.18032" lon="5.31423">
        <ele>715.7</ele>
        <time>2026-05-14T15:11:49.999Z</time>
      </trkpt>
      <trkpt lat="44.18032" lon="5.31423">
        <ele>715.9</ele>
        <time>2026-05-14T15:11:50.999Z</time>
      </trkpt>
      <trkpt lat="44.18031" lon="5.31423">
        <ele>716.1</ele>
        <time>2026-05-14T15:11:51.999Z</time>
      </trkpt>
      <trkpt lat="44.18032" lon="5.31424">
        <ele>716.1</ele>
        <time>2026-05-14T15:11:52.999Z</time>
      </trkpt>
      <trkpt lat="44.18032" lon="5.31424">
        <ele>716.2</ele>
        <time>2026-05-14T15:11:53.999Z</time>
      </trkpt>
      <trkpt lat="44.18032" lon="5.31424">
        <ele>716</ele>
        <time>2026-05-14T15:11:54.999Z</time>
      </trkpt>
      <trkpt lat="44.18031" lon="5.31424">
        <ele>715.9</ele>
        <time>2026-05-14T15:11:55.999Z</time>
      </trkpt>
      <trkpt lat="44.18031" lon="5.31425">
        <ele>715.8</ele>
        <time>2026-05-14T15:11:56.999Z</time>
      </trkpt>
      <trkpt lat="44.1803" lon="5.31427">
        <ele>715.5</ele>
        <time>2026-05-14T15:11:57.999Z</time>
      </trkpt>
      <trkpt lat="44.18029" lon="5.31428">
        <ele>715.2</ele>
        <time>2026-05-14T15:11:58.999Z</time>
      </trkpt>
      <trkpt lat="44.18028" lon="5.3143">
        <ele>714.9</ele>
        <time>2026-05-14T15:11:59.999Z</time>
      </trkpt>
      <trkpt lat="44.18028" lon="5.31431">
        <ele>714.6</ele>
        <time>2026-05-14T15:12:00.999Z</time>
      </trkpt>
      <trkpt lat="44.18027" lon="5.31433">
        <ele>714.1</ele>
        <time>2026-05-14T15:12:01.999Z</time>
      </trkpt>
      <trkpt lat="44.18026" lon="5.31435">
        <ele>713.8</ele>
        <time>2026-05-14T15:12:02.999Z</time>
      </trkpt>
      <trkpt lat="44.18025" lon="5.31438">
        <ele>713.5</ele>
        <time>2026-05-14T15:12:03.999Z</time>
      </trkpt>
      <trkpt lat="44.18024" lon="5.31441">
        <ele>713.4</ele>
        <time>2026-05-14T15:12:04.999Z</time>
      </trkpt>
      <trkpt lat="44.18023" lon="5.31443">
        <ele>713.2</ele>
        <time>2026-05-14T15:12:05.999Z</time>
      </trkpt>
      <trkpt lat="44.18022" lon="5.31446">
        <ele>713.2</ele>
        <time>2026-05-14T15:12:06.999Z</time>
      </trkpt>
      <trkpt lat="44.18021" lon="5.31449">
        <ele>713.4</ele>
        <time>2026-05-14T15:12:07.999Z</time>
      </trkpt>
      <trkpt lat="44.18021" lon="5.31452">
        <ele>713.3</ele>
        <time>2026-05-14T15:12:08.999Z</time>
      </trkpt>
      <trkpt lat="44.18021" lon="5.31453">
        <ele>713.3</ele>
        <time>2026-05-14T15:12:09.999Z</time>
      </trkpt>
      <trkpt lat="44.18021" lon="5.31455">
        <ele>713.5</ele>
        <time>2026-05-14T15:12:10.999Z</time>
      </trkpt>
      <trkpt lat="44.18021" lon="5.31456">
        <ele>713.5</ele>
        <time>2026-05-14T15:12:11.999Z</time>
      </trkpt>
      <trkpt lat="44.1802" lon="5.31457">
        <ele>713.4</ele>
        <time>2026-05-14T15:12:12.999Z</time>
      </trkpt>
      <trkpt lat="44.18019" lon="5.31458">
        <ele>713.2</ele>
        <time>2026-05-14T15:12:13.999Z</time>
      </trkpt>
      <trkpt lat="44.18019" lon="5.31458">
        <ele>713.1</ele>
        <time>2026-05-14T15:12:14.999Z</time>
      </trkpt>
      <trkpt lat="44.18019" lon="5.31459">
        <ele>713</ele>
        <time>2026-05-14T15:12:15.999Z</time>
      </trkpt>
      <trkpt lat="44.18019" lon="5.3146">
        <ele>713</ele>
        <time>2026-05-14T15:12:16.999Z</time>
      </trkpt>
      <trkpt lat="44.18019" lon="5.3146">
        <ele>713.1</ele>
        <time>2026-05-14T15:12:17.999Z</time>
      </trkpt>
      <trkpt lat="44.18019" lon="5.3146">
        <ele>713</ele>
        <time>2026-05-14T15:12:18.999Z</time>
      </trkpt>
      <trkpt lat="44.18019" lon="5.31462">
        <ele>712.9</ele>
        <time>2026-05-14T15:12:19.999Z</time>
      </trkpt>
      <trkpt lat="44.1802" lon="5.31462">
        <ele>712.9</ele>
        <time>2026-05-14T15:12:20.999Z</time>
      </trkpt>
      <trkpt lat="44.1802" lon="5.31462">
        <ele>712.9</ele>
        <time>2026-05-14T15:12:21.999Z</time>
      </trkpt>
      <trkpt lat="44.1802" lon="5.31462">
        <ele>713.1</ele>
        <time>2026-05-14T15:12:22.999Z</time>
      </trkpt>
      <trkpt lat="44.1802" lon="5.31463">
        <ele>713</ele>
        <time>2026-05-14T15:12:23.999Z</time>
      </trkpt>
      <trkpt lat="44.1802" lon="5.31463">
        <ele>712.9</ele>
        <time>2026-05-14T15:12:24.999Z</time>
      </trkpt>
      <trkpt lat="44.18019" lon="5.31463">
        <ele>712.9</ele>
        <time>2026-05-14T15:12:25.999Z</time>
      </trkpt>
      <trkpt lat="44.18019" lon="5.31464">
        <ele>713</ele>
        <time>2026-05-14T15:12:26.999Z</time>
      </trkpt>
      <trkpt lat="44.18019" lon="5.31464">
        <ele>712.9</ele>
        <time>2026-05-14T15:12:27.999Z</time>
      </trkpt>
      <trkpt lat="44.18019" lon="5.31464">
        <ele>713</ele>
        <time>2026-05-14T15:12:28.999Z</time>
      </trkpt>
      <trkpt lat="44.18019" lon="5.31464">
        <ele>713.2</ele>
        <time>2026-05-14T15:12:29.999Z</time>
      </trkpt>
      <trkpt lat="44.1802" lon="5.31465">
        <ele>713</ele>
        <time>2026-05-14T15:12:30.999Z</time>
      </trkpt>
      <trkpt lat="44.1802" lon="5.31465">
        <ele>713.1</ele>
        <time>2026-05-14T15:12:31.999Z</time>
      </trkpt>
      <trkpt lat="44.1802" lon="5.31466">
        <ele>713.1</ele>
        <time>2026-05-14T15:12:32.999Z</time>
      </trkpt>
      <trkpt lat="44.1802" lon="5.31467">
        <ele>714.1</ele>
        <time>2026-05-14T15:12:33.999Z</time>
      </trkpt>
      <trkpt lat="44.1802" lon="5.31467">
        <ele>714.2</ele>
        <time>2026-05-14T15:12:34.999Z</time>
      </trkpt>
      <trkpt lat="44.1802" lon="5.31468">
        <ele>713.9</ele>
        <time>2026-05-14T15:12:35.999Z</time>
      </trkpt>
      <trkpt lat="44.1802" lon="5.31468">
        <ele>713.1</ele>
        <time>2026-05-14T15:12:36.999Z</time>
      </trkpt>
      <trkpt lat="44.1802" lon="5.31468">
        <ele>712.9</ele>
        <time>2026-05-14T15:12:37.999Z</time>
      </trkpt>
      <trkpt lat="44.1802" lon="5.31469">
        <ele>712.3</ele>
        <time>2026-05-14T15:12:38.999Z</time>
      </trkpt>
      <trkpt lat="44.1802" lon="5.31469">
        <ele>711.7</ele>
        <time>2026-05-14T15:12:39.999Z</time>
      </trkpt>
      <trkpt lat="44.18019" lon="5.31474">
        <ele>711.9</ele>
        <time>2026-05-14T15:12:40.999Z</time>
      </trkpt>
      <trkpt lat="44.18019" lon="5.31477">
        <ele>711.5</ele>
        <time>2026-05-14T15:12:41.999Z</time>
      </trkpt>
      <trkpt lat="44.18019" lon="5.3148">
        <ele>711.4</ele>
        <time>2026-05-14T15:12:42.999Z</time>
      </trkpt>
      <trkpt lat="44.18018" lon="5.31482">
        <ele>711.4</ele>
        <time>2026-05-14T15:12:43.999Z</time>
      </trkpt>
      <trkpt lat="44.18018" lon="5.31485">
        <ele>711.5</ele>
        <time>2026-05-14T15:12:44.999Z</time>
      </trkpt>
      <trkpt lat="44.18017" lon="5.31487">
        <ele>711.6</ele>
        <time>2026-05-14T15:12:45.999Z</time>
      </trkpt>
      <trkpt lat="44.18016" lon="5.3149">
        <ele>711.5</ele>
        <time>2026-05-14T15:12:46.999Z</time>
      </trkpt>
      <trkpt lat="44.18015" lon="5.31492">
        <ele>711.4</ele>
        <time>2026-05-14T15:12:47.999Z</time>
      </trkpt>
      <trkpt lat="44.18014" lon="5.31493">
        <ele>711.1</ele>
        <time>2026-05-14T15:12:48.999Z</time>
      </trkpt>
      <trkpt lat="44.18014" lon="5.31495">
        <ele>711</ele>
        <time>2026-05-14T15:12:49.999Z</time>
      </trkpt>
      <trkpt lat="44.18012" lon="5.31497">
        <ele>711.2</ele>
        <time>2026-05-14T15:12:50.999Z</time>
      </trkpt>
      <trkpt lat="44.18012" lon="5.31498">
        <ele>710.9</ele>
        <time>2026-05-14T15:12:51.999Z</time>
      </trkpt>
      <trkpt lat="44.18011" lon="5.31499">
        <ele>710.9</ele>
        <time>2026-05-14T15:12:52.999Z</time>
      </trkpt>
      <trkpt lat="44.18011" lon="5.31501">
        <ele>711.1</ele>
        <time>2026-05-14T15:12:53.999Z</time>
      </trkpt>
      <trkpt lat="44.1801" lon="5.31502">
        <ele>710.8</ele>
        <time>2026-05-14T15:12:54.999Z</time>
      </trkpt>
      <trkpt lat="44.18009" lon="5.31503">
        <ele>710.4</ele>
        <time>2026-05-14T15:12:55.999Z</time>
      </trkpt>
      <trkpt lat="44.18008" lon="5.31504">
        <ele>710.4</ele>
        <time>2026-05-14T15:12:56.999Z</time>
      </trkpt>
      <trkpt lat="44.18008" lon="5.31506">
        <ele>710.2</ele>
        <time>2026-05-14T15:12:57.999Z</time>
      </trkpt>
      <trkpt lat="44.18007" lon="5.31507">
        <ele>709.9</ele>
        <time>2026-05-14T15:12:58.999Z</time>
      </trkpt>
      <trkpt lat="44.18007" lon="5.31508">
        <ele>710.3</ele>
        <time>2026-05-14T15:12:59.999Z</time>
      </trkpt>
      <trkpt lat="44.18007" lon="5.3151">
        <ele>710.3</ele>
        <time>2026-05-14T15:13:00.999Z</time>
      </trkpt>
      <trkpt lat="44.18006" lon="5.31512">
        <ele>710.3</ele>
        <time>2026-05-14T15:13:01.999Z</time>
      </trkpt>
      <trkpt lat="44.18005" lon="5.31512">
        <ele>710.7</ele>
        <time>2026-05-14T15:13:02.999Z</time>
      </trkpt>
      <trkpt lat="44.18004" lon="5.31514">
        <ele>711.3</ele>
        <time>2026-05-14T15:13:03.999Z</time>
      </trkpt>
      <trkpt lat="44.18004" lon="5.31515">
        <ele>711.8</ele>
        <time>2026-05-14T15:13:04.999Z</time>
      </trkpt>
      <trkpt lat="44.18004" lon="5.31515">
        <ele>712.5</ele>
        <time>2026-05-14T15:13:05.999Z</time>
      </trkpt>
      <trkpt lat="44.18004" lon="5.31517">
        <ele>712.6</ele>
        <time>2026-05-14T15:13:06.999Z</time>
      </trkpt>
      <trkpt lat="44.18004" lon="5.31519">
        <ele>712.3</ele>
        <time>2026-05-14T15:13:07.999Z</time>
      </trkpt>
      <trkpt lat="44.18003" lon="5.3152">
        <ele>712.6</ele>
        <time>2026-05-14T15:13:08.999Z</time>
      </trkpt>
      <trkpt lat="44.18001" lon="5.31521">
        <ele>712.8</ele>
        <time>2026-05-14T15:13:09.999Z</time>
      </trkpt>
      <trkpt lat="44.18001" lon="5.31522">
        <ele>712.6</ele>
        <time>2026-05-14T15:13:10.999Z</time>
      </trkpt>
      <trkpt lat="44.18" lon="5.31522">
        <ele>712.4</ele>
        <time>2026-05-14T15:13:11.999Z</time>
      </trkpt>
      <trkpt lat="44.17998" lon="5.31523">
        <ele>712.2</ele>
        <time>2026-05-14T15:13:12.999Z</time>
      </trkpt>
      <trkpt lat="44.17998" lon="5.31523">
        <ele>712.8</ele>
        <time>2026-05-14T15:13:13.999Z</time>
      </trkpt>
      <trkpt lat="44.17997" lon="5.31524">
        <ele>712.8</ele>
        <time>2026-05-14T15:13:14.999Z</time>
      </trkpt>
      <trkpt lat="44.17996" lon="5.31524">
        <ele>712.7</ele>
        <time>2026-05-14T15:13:15.999Z</time>
      </trkpt>
      <trkpt lat="44.17995" lon="5.31524">
        <ele>712.7</ele>
        <time>2026-05-14T15:13:16.999Z</time>
      </trkpt>
      <trkpt lat="44.17995" lon="5.31525">
        <ele>712.8</ele>
        <time>2026-05-14T15:13:17.999Z</time>
      </trkpt>
      <trkpt lat="44.17995" lon="5.31524">
        <ele>712.8</ele>
        <time>2026-05-14T15:13:18.999Z</time>
      </trkpt>
      <trkpt lat="44.17994" lon="5.31524">
        <ele>712.8</ele>
        <time>2026-05-14T15:13:19.999Z</time>
      </trkpt>
      <trkpt lat="44.17995" lon="5.31525">
        <ele>713.3</ele>
        <time>2026-05-14T15:13:20.999Z</time>
      </trkpt>
      <trkpt lat="44.17994" lon="5.31525">
        <ele>713.1</ele>
        <time>2026-05-14T15:13:21.999Z</time>
      </trkpt>
      <trkpt lat="44.17994" lon="5.31525">
        <ele>712.7</ele>
        <time>2026-05-14T15:13:22.999Z</time>
      </trkpt>
      <trkpt lat="44.17994" lon="5.31525">
        <ele>712.8</ele>
        <time>2026-05-14T15:13:23.999Z</time>
      </trkpt>
      <trkpt lat="44.17994" lon="5.31525">
        <ele>712.9</ele>
        <time>2026-05-14T15:13:24.999Z</time>
      </trkpt>
      <trkpt lat="44.17994" lon="5.31525">
        <ele>712.8</ele>
        <time>2026-05-14T15:13:25.999Z</time>
      </trkpt>
      <trkpt lat="44.17993" lon="5.31526">
        <ele>712.6</ele>
        <time>2026-05-14T15:13:26.999Z</time>
      </trkpt>
      <trkpt lat="44.17993" lon="5.31528">
        <ele>712.2</ele>
        <time>2026-05-14T15:13:27.999Z</time>
      </trkpt>
      <trkpt lat="44.17993" lon="5.3153">
        <ele>712.3</ele>
        <time>2026-05-14T15:13:28.999Z</time>
      </trkpt>
      <trkpt lat="44.17991" lon="5.31531">
        <ele>712.5</ele>
        <time>2026-05-14T15:13:29.999Z</time>
      </trkpt>
      <trkpt lat="44.17991" lon="5.31532">
        <ele>712.5</ele>
        <time>2026-05-14T15:13:30.999Z</time>
      </trkpt>
      <trkpt lat="44.1799" lon="5.31534">
        <ele>712.4</ele>
        <time>2026-05-14T15:13:31.999Z</time>
      </trkpt>
      <trkpt lat="44.17989" lon="5.31535">
        <ele>712.1</ele>
        <time>2026-05-14T15:13:32.999Z</time>
      </trkpt>
      <trkpt lat="44.17989" lon="5.31537">
        <ele>712</ele>
        <time>2026-05-14T15:13:33.999Z</time>
      </trkpt>
      <trkpt lat="44.17989" lon="5.31539">
        <ele>711.9</ele>
        <time>2026-05-14T15:13:34.999Z</time>
      </trkpt>
      <trkpt lat="44.17988" lon="5.3154">
        <ele>712.2</ele>
        <time>2026-05-14T15:13:35.999Z</time>
      </trkpt>
      <trkpt lat="44.17988" lon="5.3154">
        <ele>712.1</ele>
        <time>2026-05-14T15:13:36.999Z</time>
      </trkpt>
      <trkpt lat="44.17988" lon="5.3154">
        <ele>712.1</ele>
        <time>2026-05-14T15:13:37.999Z</time>
      </trkpt>
      <trkpt lat="44.17987" lon="5.3154">
        <ele>712.4</ele>
        <time>2026-05-14T15:13:38.999Z</time>
      </trkpt>
      <trkpt lat="44.17987" lon="5.3154">
        <ele>712.5</ele>
        <time>2026-05-14T15:13:39.999Z</time>
      </trkpt>
      <trkpt lat="44.17987" lon="5.3154">
        <ele>712.3</ele>
        <time>2026-05-14T15:13:40.999Z</time>
      </trkpt>
      <trkpt lat="44.17988" lon="5.3154">
        <ele>712.3</ele>
        <time>2026-05-14T15:13:41.999Z</time>
      </trkpt>
      <trkpt lat="44.17987" lon="5.31541">
        <ele>712.3</ele>
        <time>2026-05-14T15:13:42.999Z</time>
      </trkpt>
      <trkpt lat="44.17987" lon="5.31541">
        <ele>712.2</ele>
        <time>2026-05-14T15:13:43.999Z</time>
      </trkpt>
      <trkpt lat="44.17987" lon="5.31541">
        <ele>712.1</ele>
        <time>2026-05-14T15:13:44.999Z</time>
      </trkpt>
      <trkpt lat="44.17987" lon="5.31543">
        <ele>712.2</ele>
        <time>2026-05-14T15:13:45.999Z</time>
      </trkpt>
      <trkpt lat="44.17986" lon="5.31543">
        <ele>712.3</ele>
        <time>2026-05-14T15:13:46.999Z</time>
      </trkpt>
      <trkpt lat="44.17985" lon="5.31544">
        <ele>712.1</ele>
        <time>2026-05-14T15:13:47.999Z</time>
      </trkpt>
      <trkpt lat="44.17985" lon="5.31545">
        <ele>711.9</ele>
        <time>2026-05-14T15:13:48.999Z</time>
      </trkpt>
      <trkpt lat="44.17984" lon="5.31547">
        <ele>711.9</ele>
        <time>2026-05-14T15:13:49.999Z</time>
      </trkpt>
      <trkpt lat="44.17984" lon="5.31548">
        <ele>711.9</ele>
        <time>2026-05-14T15:13:50.999Z</time>
      </trkpt>
      <trkpt lat="44.17984" lon="5.31552">
        <ele>711.8</ele>
        <time>2026-05-14T15:13:51.999Z</time>
      </trkpt>
      <trkpt lat="44.17983" lon="5.31554">
        <ele>711.6</ele>
        <time>2026-05-14T15:13:52.999Z</time>
      </trkpt>
      <trkpt lat="44.17982" lon="5.31554">
        <ele>711.6</ele>
        <time>2026-05-14T15:13:53.999Z</time>
      </trkpt>
      <trkpt lat="44.17981" lon="5.31555">
        <ele>711.8</ele>
        <time>2026-05-14T15:13:54.999Z</time>
      </trkpt>
      <trkpt lat="44.17979" lon="5.31556">
        <ele>711.7</ele>
        <time>2026-05-14T15:13:56.999Z</time>
      </trkpt>
      <trkpt lat="44.17978" lon="5.31557">
        <ele>711.6</ele>
        <time>2026-05-14T15:13:57.999Z</time>
      </trkpt>
      <trkpt lat="44.17978" lon="5.31559">
        <ele>711.7</ele>
        <time>2026-05-14T15:13:58.999Z</time>
      </trkpt>
      <trkpt lat="44.17977" lon="5.3156">
        <ele>711.6</ele>
        <time>2026-05-14T15:13:59.999Z</time>
      </trkpt>
      <trkpt lat="44.17977" lon="5.31562">
        <ele>711.4</ele>
        <time>2026-05-14T15:14:00.999Z</time>
      </trkpt>
      <trkpt lat="44.17976" lon="5.31562">
        <ele>711</ele>
        <time>2026-05-14T15:14:01.999Z</time>
      </trkpt>
      <trkpt lat="44.17976" lon="5.31562">
        <ele>710.2</ele>
        <time>2026-05-14T15:14:02.999Z</time>
      </trkpt>
      <trkpt lat="44.17976" lon="5.31562">
        <ele>710</ele>
        <time>2026-05-14T15:14:03.999Z</time>
      </trkpt>
      <trkpt lat="44.17976" lon="5.31562">
        <ele>709.9</ele>
        <time>2026-05-14T15:14:04.999Z</time>
      </trkpt>
      <trkpt lat="44.17976" lon="5.31562">
        <ele>709.7</ele>
        <time>2026-05-14T15:14:05.999Z</time>
      </trkpt>
      <trkpt lat="44.17975" lon="5.31562">
        <ele>709.3</ele>
        <time>2026-05-14T15:14:06.999Z</time>
      </trkpt>
      <trkpt lat="44.17975" lon="5.31561">
        <ele>709.1</ele>
        <time>2026-05-14T15:14:07.999Z</time>
      </trkpt>
      <trkpt lat="44.17975" lon="5.31561">
        <ele>709</ele>
        <time>2026-05-14T15:14:08.999Z</time>
      </trkpt>
      <trkpt lat="44.17974" lon="5.31563">
        <ele>708.7</ele>
        <time>2026-05-14T15:14:09.999Z</time>
      </trkpt>
      <trkpt lat="44.17974" lon="5.31564">
        <ele>708.3</ele>
        <time>2026-05-14T15:14:10.999Z</time>
      </trkpt>
      <trkpt lat="44.17974" lon="5.31565">
        <ele>707.9</ele>
        <time>2026-05-14T15:14:11.999Z</time>
      </trkpt>
      <trkpt lat="44.17973" lon="5.31567">
        <ele>707.8</ele>
        <time>2026-05-14T15:14:12.999Z</time>
      </trkpt>
      <trkpt lat="44.17972" lon="5.31569">
        <ele>707.3</ele>
        <time>2026-05-14T15:14:13.999Z</time>
      </trkpt>
      <trkpt lat="44.17972" lon="5.3157">
        <ele>706.6</ele>
        <time>2026-05-14T15:14:14.999Z</time>
      </trkpt>
      <trkpt lat="44.17972" lon="5.31571">
        <ele>706.2</ele>
        <time>2026-05-14T15:14:15.999Z</time>
      </trkpt>
      <trkpt lat="44.17972" lon="5.31571">
        <ele>706.2</ele>
        <time>2026-05-14T15:14:16.999Z</time>
      </trkpt>
      <trkpt lat="44.17972" lon="5.31571">
        <ele>706.3</ele>
        <time>2026-05-14T15:14:17.999Z</time>
      </trkpt>
      <trkpt lat="44.17972" lon="5.31573">
        <ele>706</ele>
        <time>2026-05-14T15:14:18.999Z</time>
      </trkpt>
      <trkpt lat="44.17972" lon="5.31574">
        <ele>706</ele>
        <time>2026-05-14T15:14:20.000Z</time>
      </trkpt>
      <trkpt lat="44.17972" lon="5.31575">
        <ele>706</ele>
        <time>2026-05-14T15:14:21.000Z</time>
      </trkpt>
      <trkpt lat="44.17972" lon="5.31576">
        <ele>706.2</ele>
        <time>2026-05-14T15:14:22.000Z</time>
      </trkpt>
      <trkpt lat="44.17972" lon="5.31577">
        <ele>706.4</ele>
        <time>2026-05-14T15:14:23.000Z</time>
      </trkpt>
      <trkpt lat="44.17971" lon="5.31577">
        <ele>706.2</ele>
        <time>2026-05-14T15:14:24.000Z</time>
      </trkpt>
      <trkpt lat="44.17971" lon="5.31578">
        <ele>706.1</ele>
        <time>2026-05-14T15:14:25.000Z</time>
      </trkpt>
      <trkpt lat="44.17971" lon="5.31578">
        <ele>705.8</ele>
        <time>2026-05-14T15:14:26.000Z</time>
      </trkpt>
      <trkpt lat="44.17972" lon="5.3158">
        <ele>705.8</ele>
        <time>2026-05-14T15:14:27.000Z</time>
      </trkpt>
      <trkpt lat="44.17972" lon="5.3158">
        <ele>705.6</ele>
        <time>2026-05-14T15:14:28.000Z</time>
      </trkpt>
      <trkpt lat="44.17973" lon="5.31581">
        <ele>705.4</ele>
        <time>2026-05-14T15:14:29.000Z</time>
      </trkpt>
      <trkpt lat="44.17973" lon="5.31581">
        <ele>706.8</ele>
        <time>2026-05-14T15:14:30.000Z</time>
      </trkpt>
      <trkpt lat="44.17973" lon="5.31581">
        <ele>706.9</ele>
        <time>2026-05-14T15:14:31.000Z</time>
      </trkpt>
      <trkpt lat="44.17973" lon="5.31581">
        <ele>707</ele>
        <time>2026-05-14T15:14:32.000Z</time>
      </trkpt>
      <trkpt lat="44.17973" lon="5.31582">
        <ele>707.1</ele>
        <time>2026-05-14T15:14:33.000Z</time>
      </trkpt>
      <trkpt lat="44.17973" lon="5.31582">
        <ele>706.9</ele>
        <time>2026-05-14T15:14:34.000Z</time>
      </trkpt>
      <trkpt lat="44.17973" lon="5.31582">
        <ele>706.6</ele>
        <time>2026-05-14T15:14:35.000Z</time>
      </trkpt>
      <trkpt lat="44.17973" lon="5.31582">
        <ele>706.6</ele>
        <time>2026-05-14T15:14:36.000Z</time>
      </trkpt>
      <trkpt lat="44.17973" lon="5.31582">
        <ele>706.3</ele>
        <time>2026-05-14T15:14:37.000Z</time>
      </trkpt>
      <trkpt lat="44.17973" lon="5.31582">
        <ele>706.1</ele>
        <time>2026-05-14T15:14:38.000Z</time>
      </trkpt>
      <trkpt lat="44.17973" lon="5.31583">
        <ele>706</ele>
        <time>2026-05-14T15:14:39.000Z</time>
      </trkpt>
      <trkpt lat="44.17973" lon="5.31583">
        <ele>705.8</ele>
        <time>2026-05-14T15:14:40.000Z</time>
      </trkpt>
      <trkpt lat="44.17973" lon="5.31583">
        <ele>706</ele>
        <time>2026-05-14T15:14:41.000Z</time>
      </trkpt>
      <trkpt lat="44.17973" lon="5.31584">
        <ele>706.1</ele>
        <time>2026-05-14T15:14:42.000Z</time>
      </trkpt>
      <trkpt lat="44.17973" lon="5.31584">
        <ele>705.9</ele>
        <time>2026-05-14T15:14:43.000Z</time>
      </trkpt>
      <trkpt lat="44.17973" lon="5.31585">
        <ele>705.7</ele>
        <time>2026-05-14T15:14:44.000Z</time>
      </trkpt>
      <trkpt lat="44.17973" lon="5.31585">
        <ele>705.6</ele>
        <time>2026-05-14T15:14:45.000Z</time>
      </trkpt>
      <trkpt lat="44.17973" lon="5.31585">
        <ele>705.7</ele>
        <time>2026-05-14T15:14:46.000Z</time>
      </trkpt>
      <trkpt lat="44.17973" lon="5.31586">
        <ele>705.7</ele>
        <time>2026-05-14T15:14:47.000Z</time>
      </trkpt>
      <trkpt lat="44.17973" lon="5.31586">
        <ele>705.3</ele>
        <time>2026-05-14T15:14:48.000Z</time>
      </trkpt>
      <trkpt lat="44.17972" lon="5.31587">
        <ele>705.1</ele>
        <time>2026-05-14T15:14:49.000Z</time>
      </trkpt>
      <trkpt lat="44.17972" lon="5.31587">
        <ele>704.9</ele>
        <time>2026-05-14T15:14:50.000Z</time>
      </trkpt>
      <trkpt lat="44.17972" lon="5.31588">
        <ele>704.7</ele>
        <time>2026-05-14T15:14:51.000Z</time>
      </trkpt>
      <trkpt lat="44.17973" lon="5.31589">
        <ele>704.4</ele>
        <time>2026-05-14T15:14:52.000Z</time>
      </trkpt>
      <trkpt lat="44.17973" lon="5.31589">
        <ele>704.1</ele>
        <time>2026-05-14T15:14:53.000Z</time>
      </trkpt>
      <trkpt lat="44.17973" lon="5.31589">
        <ele>703.8</ele>
        <time>2026-05-14T15:14:54.000Z</time>
      </trkpt>
      <trkpt lat="44.17972" lon="5.3159">
        <ele>703.4</ele>
        <time>2026-05-14T15:14:55.000Z</time>
      </trkpt>
      <trkpt lat="44.17972" lon="5.31591">
        <ele>703.3</ele>
        <time>2026-05-14T15:14:56.000Z</time>
      </trkpt>
      <trkpt lat="44.17972" lon="5.31592">
        <ele>703.3</ele>
        <time>2026-05-14T15:14:57.000Z</time>
      </trkpt>
      <trkpt lat="44.17972" lon="5.31593">
        <ele>703.3</ele>
        <time>2026-05-14T15:14:58.000Z</time>
      </trkpt>
      <trkpt lat="44.17972" lon="5.31593">
        <ele>703.4</ele>
        <time>2026-05-14T15:14:59.000Z</time>
      </trkpt>
      <trkpt lat="44.17973" lon="5.31594">
        <ele>703.3</ele>
        <time>2026-05-14T15:15:00.000Z</time>
      </trkpt>
      <trkpt lat="44.17973" lon="5.31595">
        <ele>703.4</ele>
        <time>2026-05-14T15:15:01.000Z</time>
      </trkpt>
      <trkpt lat="44.17973" lon="5.31596">
        <ele>703.4</ele>
        <time>2026-05-14T15:15:02.000Z</time>
      </trkpt>
      <trkpt lat="44.17973" lon="5.31596">
        <ele>703.1</ele>
        <time>2026-05-14T15:15:03.000Z</time>
      </trkpt>
      <trkpt lat="44.17973" lon="5.31596">
        <ele>702.9</ele>
        <time>2026-05-14T15:15:04.000Z</time>
      </trkpt>
      <trkpt lat="44.17973" lon="5.31597">
        <ele>702.9</ele>
        <time>2026-05-14T15:15:05.000Z</time>
      </trkpt>
      <trkpt lat="44.17973" lon="5.31598">
        <ele>702.9</ele>
        <time>2026-05-14T15:15:06.000Z</time>
      </trkpt>
      <trkpt lat="44.17973" lon="5.31598">
        <ele>702.9</ele>
        <time>2026-05-14T15:15:07.000Z</time>
      </trkpt>
      <trkpt lat="44.17973" lon="5.31598">
        <ele>702.9</ele>
        <time>2026-05-14T15:15:08.000Z</time>
      </trkpt>
      <trkpt lat="44.17973" lon="5.31598">
        <ele>702.9</ele>
        <time>2026-05-14T15:15:09.000Z</time>
      </trkpt>
      <trkpt lat="44.17973" lon="5.31598">
        <ele>703</ele>
        <time>2026-05-14T15:15:10.000Z</time>
      </trkpt>
      <trkpt lat="44.17973" lon="5.31598">
        <ele>703</ele>
        <time>2026-05-14T15:15:11.000Z</time>
      </trkpt>
      <trkpt lat="44.17973" lon="5.31598">
        <ele>703</ele>
        <time>2026-05-14T15:15:12.000Z</time>
      </trkpt>
      <trkpt lat="44.17973" lon="5.31599">
        <ele>702.9</ele>
        <time>2026-05-14T15:15:13.000Z</time>
      </trkpt>
      <trkpt lat="44.17973" lon="5.316">
        <ele>702.7</ele>
        <time>2026-05-14T15:15:14.000Z</time>
      </trkpt>
      <trkpt lat="44.17973" lon="5.31601">
        <ele>702.6</ele>
        <time>2026-05-14T15:15:15.000Z</time>
      </trkpt>
      <trkpt lat="44.17973" lon="5.31602">
        <ele>702.4</ele>
        <time>2026-05-14T15:15:16.000Z</time>
      </trkpt>
      <trkpt lat="44.17973" lon="5.31603">
        <ele>702.3</ele>
        <time>2026-05-14T15:15:17.000Z</time>
      </trkpt>
      <trkpt lat="44.17974" lon="5.31605">
        <ele>702.2</ele>
        <time>2026-05-14T15:15:18.000Z</time>
      </trkpt>
      <trkpt lat="44.17974" lon="5.31606">
        <ele>702.2</ele>
        <time>2026-05-14T15:15:19.000Z</time>
      </trkpt>
      <trkpt lat="44.17975" lon="5.31608">
        <ele>702.2</ele>
        <time>2026-05-14T15:15:20.000Z</time>
      </trkpt>
      <trkpt lat="44.17975" lon="5.3161">
        <ele>702.3</ele>
        <time>2026-05-14T15:15:21.000Z</time>
      </trkpt>
      <trkpt lat="44.17976" lon="5.31612">
        <ele>702.3</ele>
        <time>2026-05-14T15:15:22.000Z</time>
      </trkpt>
      <trkpt lat="44.17976" lon="5.31614">
        <ele>702.2</ele>
        <time>2026-05-14T15:15:23.000Z</time>
      </trkpt>
      <trkpt lat="44.17977" lon="5.31615">
        <ele>702.2</ele>
        <time>2026-05-14T15:15:24.000Z</time>
      </trkpt>
      <trkpt lat="44.17977" lon="5.31618">
        <ele>702.3</ele>
        <time>2026-05-14T15:15:25.000Z</time>
      </trkpt>
      <trkpt lat="44.17978" lon="5.31618">
        <ele>702.4</ele>
        <time>2026-05-14T15:15:26.000Z</time>
      </trkpt>
      <trkpt lat="44.17978" lon="5.31619">
        <ele>702.1</ele>
        <time>2026-05-14T15:15:27.000Z</time>
      </trkpt>
      <trkpt lat="44.17977" lon="5.31621">
        <ele>701.9</ele>
        <time>2026-05-14T15:15:28.000Z</time>
      </trkpt>
      <trkpt lat="44.17976" lon="5.31627">
        <ele>701.6</ele>
        <time>2026-05-14T15:15:29.000Z</time>
      </trkpt>
      <trkpt lat="44.17976" lon="5.3163">
        <ele>701.4</ele>
        <time>2026-05-14T15:15:30.000Z</time>
      </trkpt>
      <trkpt lat="44.17976" lon="5.31633">
        <ele>701.3</ele>
        <time>2026-05-14T15:15:31.000Z</time>
      </trkpt>
      <trkpt lat="44.17976" lon="5.31636">
        <ele>701.4</ele>
        <time>2026-05-14T15:15:32.000Z</time>
      </trkpt>
      <trkpt lat="44.17976" lon="5.31639">
        <ele>701.5</ele>
        <time>2026-05-14T15:15:33.000Z</time>
      </trkpt>
      <trkpt lat="44.17976" lon="5.3164">
        <ele>700.6</ele>
        <time>2026-05-14T15:15:34.000Z</time>
      </trkpt>
      <trkpt lat="44.17976" lon="5.3164">
        <ele>700.7</ele>
        <time>2026-05-14T15:15:35.000Z</time>
      </trkpt>
      <trkpt lat="44.17977" lon="5.31641">
        <ele>700.9</ele>
        <time>2026-05-14T15:15:36.000Z</time>
      </trkpt>
      <trkpt lat="44.17978" lon="5.31643">
        <ele>701</ele>
        <time>2026-05-14T15:15:37.000Z</time>
      </trkpt>
      <trkpt lat="44.17979" lon="5.31645">
        <ele>701.1</ele>
        <time>2026-05-14T15:15:38.000Z</time>
      </trkpt>
      <trkpt lat="44.17979" lon="5.31647">
        <ele>701.3</ele>
        <time>2026-05-14T15:15:39.000Z</time>
      </trkpt>
      <trkpt lat="44.1798" lon="5.31649">
        <ele>701.3</ele>
        <time>2026-05-14T15:15:40.000Z</time>
      </trkpt>
      <trkpt lat="44.17981" lon="5.31652">
        <ele>701.3</ele>
        <time>2026-05-14T15:15:41.000Z</time>
      </trkpt>
      <trkpt lat="44.17982" lon="5.31655">
        <ele>701.4</ele>
        <time>2026-05-14T15:15:42.000Z</time>
      </trkpt>
      <trkpt lat="44.17982" lon="5.31657">
        <ele>701.5</ele>
        <time>2026-05-14T15:15:43.000Z</time>
      </trkpt>
      <trkpt lat="44.17983" lon="5.31658">
        <ele>701.5</ele>
        <time>2026-05-14T15:15:44.000Z</time>
      </trkpt>
      <trkpt lat="44.17983" lon="5.3166">
        <ele>701.6</ele>
        <time>2026-05-14T15:15:45.000Z</time>
      </trkpt>
      <trkpt lat="44.17983" lon="5.31661">
        <ele>701.7</ele>
        <time>2026-05-14T15:15:46.000Z</time>
      </trkpt>
      <trkpt lat="44.17983" lon="5.31662">
        <ele>701.5</ele>
        <time>2026-05-14T15:15:47.000Z</time>
      </trkpt>
      <trkpt lat="44.17983" lon="5.31662">
        <ele>701.3</ele>
        <time>2026-05-14T15:15:48.000Z</time>
      </trkpt>
      <trkpt lat="44.17984" lon="5.31662">
        <ele>701.3</ele>
        <time>2026-05-14T15:15:49.000Z</time>
      </trkpt>
      <trkpt lat="44.17984" lon="5.31662">
        <ele>701.3</ele>
        <time>2026-05-14T15:15:50.000Z</time>
      </trkpt>
      <trkpt lat="44.17984" lon="5.31662">
        <ele>701.4</ele>
        <time>2026-05-14T15:15:51.000Z</time>
      </trkpt>
      <trkpt lat="44.17984" lon="5.31662">
        <ele>701.4</ele>
        <time>2026-05-14T15:15:52.000Z</time>
      </trkpt>
      <trkpt lat="44.17983" lon="5.31662">
        <ele>701.5</ele>
        <time>2026-05-14T15:15:53.000Z</time>
      </trkpt>
      <trkpt lat="44.17984" lon="5.31663">
        <ele>701.4</ele>
        <time>2026-05-14T15:15:54.000Z</time>
      </trkpt>
      <trkpt lat="44.17983" lon="5.31663">
        <ele>701.5</ele>
        <time>2026-05-14T15:15:55.000Z</time>
      </trkpt>
      <trkpt lat="44.17984" lon="5.31663">
        <ele>701.4</ele>
        <time>2026-05-14T15:15:56.000Z</time>
      </trkpt>
      <trkpt lat="44.17984" lon="5.31663">
        <ele>701.4</ele>
        <time>2026-05-14T15:15:57.000Z</time>
      </trkpt>
      <trkpt lat="44.17984" lon="5.31663">
        <ele>701.4</ele>
        <time>2026-05-14T15:15:58.000Z</time>
      </trkpt>
      <trkpt lat="44.17984" lon="5.31663">
        <ele>701.3</ele>
        <time>2026-05-14T15:15:59.000Z</time>
      </trkpt>
      <trkpt lat="44.17984" lon="5.31663">
        <ele>701.4</ele>
        <time>2026-05-14T15:16:00.000Z</time>
      </trkpt>
      <trkpt lat="44.17984" lon="5.31663">
        <ele>701.5</ele>
        <time>2026-05-14T15:16:01.000Z</time>
      </trkpt>
      <trkpt lat="44.17984" lon="5.31663">
        <ele>701.6</ele>
        <time>2026-05-14T15:16:02.000Z</time>
      </trkpt>
      <trkpt lat="44.17984" lon="5.31663">
        <ele>701.7</ele>
        <time>2026-05-14T15:16:03.000Z</time>
      </trkpt>
      <trkpt lat="44.17984" lon="5.31663">
        <ele>701.8</ele>
        <time>2026-05-14T15:16:04.000Z</time>
      </trkpt>
      <trkpt lat="44.17984" lon="5.31663">
        <ele>701.8</ele>
        <time>2026-05-14T15:16:05.000Z</time>
      </trkpt>
      <trkpt lat="44.17984" lon="5.31663">
        <ele>701.9</ele>
        <time>2026-05-14T15:16:06.000Z</time>
      </trkpt>
      <trkpt lat="44.17984" lon="5.31664">
        <ele>702</ele>
        <time>2026-05-14T15:16:07.000Z</time>
      </trkpt>
      <trkpt lat="44.17984" lon="5.31664">
        <ele>702.1</ele>
        <time>2026-05-14T15:16:08.000Z</time>
      </trkpt>
      <trkpt lat="44.17985" lon="5.31666">
        <ele>701.8</ele>
        <time>2026-05-14T15:16:09.000Z</time>
      </trkpt>
      <trkpt lat="44.17988" lon="5.31668">
        <ele>701.4</ele>
        <time>2026-05-14T15:16:10.000Z</time>
      </trkpt>
      <trkpt lat="44.1799" lon="5.31671">
        <ele>701.2</ele>
        <time>2026-05-14T15:16:11.000Z</time>
      </trkpt>
      <trkpt lat="44.17991" lon="5.31671">
        <ele>700.9</ele>
        <time>2026-05-14T15:16:12.000Z</time>
      </trkpt>
      <trkpt lat="44.17991" lon="5.31671">
        <ele>700.8</ele>
        <time>2026-05-14T15:16:13.000Z</time>
      </trkpt>
      <trkpt lat="44.17992" lon="5.31671">
        <ele>700.8</ele>
        <time>2026-05-14T15:16:14.000Z</time>
      </trkpt>
      <trkpt lat="44.17992" lon="5.31671">
        <ele>700.8</ele>
        <time>2026-05-14T15:16:15.000Z</time>
      </trkpt>
      <trkpt lat="44.17992" lon="5.31671">
        <ele>700.6</ele>
        <time>2026-05-14T15:16:16.000Z</time>
      </trkpt>
      <trkpt lat="44.17992" lon="5.31671">
        <ele>700.4</ele>
        <time>2026-05-14T15:16:17.000Z</time>
      </trkpt>
      <trkpt lat="44.17993" lon="5.31672">
        <ele>700.4</ele>
        <time>2026-05-14T15:16:18.000Z</time>
      </trkpt>
      <trkpt lat="44.17995" lon="5.31673">
        <ele>700.4</ele>
        <time>2026-05-14T15:16:19.000Z</time>
      </trkpt>
      <trkpt lat="44.17996" lon="5.31675">
        <ele>700.5</ele>
        <time>2026-05-14T15:16:20.000Z</time>
      </trkpt>
      <trkpt lat="44.17998" lon="5.31675">
        <ele>700.3</ele>
        <time>2026-05-14T15:16:21.000Z</time>
      </trkpt>
      <trkpt lat="44.18" lon="5.31676">
        <ele>700.4</ele>
        <time>2026-05-14T15:16:22.000Z</time>
      </trkpt>
      <trkpt lat="44.18" lon="5.31676">
        <ele>700.2</ele>
        <time>2026-05-14T15:16:23.000Z</time>
      </trkpt>
      <trkpt lat="44.18" lon="5.31676">
        <ele>700.2</ele>
        <time>2026-05-14T15:16:24.000Z</time>
      </trkpt>
      <trkpt lat="44.18" lon="5.31676">
        <ele>700</ele>
        <time>2026-05-14T15:16:25.000Z</time>
      </trkpt>
      <trkpt lat="44.18" lon="5.31676">
        <ele>699.5</ele>
        <time>2026-05-14T15:16:26.000Z</time>
      </trkpt>
      <trkpt lat="44.18001" lon="5.31676">
        <ele>699.4</ele>
        <time>2026-05-14T15:16:27.000Z</time>
      </trkpt>
      <trkpt lat="44.18001" lon="5.31676">
        <ele>699.4</ele>
        <time>2026-05-14T15:16:28.000Z</time>
      </trkpt>
      <trkpt lat="44.18001" lon="5.31676">
        <ele>699.3</ele>
        <time>2026-05-14T15:16:29.000Z</time>
      </trkpt>
      <trkpt lat="44.18002" lon="5.31676">
        <ele>699.5</ele>
        <time>2026-05-14T15:16:30.000Z</time>
      </trkpt>
      <trkpt lat="44.18002" lon="5.31676">
        <ele>699.7</ele>
        <time>2026-05-14T15:16:31.000Z</time>
      </trkpt>
      <trkpt lat="44.18003" lon="5.31675">
        <ele>699.6</ele>
        <time>2026-05-14T15:16:32.000Z</time>
      </trkpt>
      <trkpt lat="44.18003" lon="5.31675">
        <ele>699.4</ele>
        <time>2026-05-14T15:16:33.000Z</time>
      </trkpt>
      <trkpt lat="44.18003" lon="5.31675">
        <ele>699.3</ele>
        <time>2026-05-14T15:16:34.000Z</time>
      </trkpt>
      <trkpt lat="44.18003" lon="5.31675">
        <ele>699.1</ele>
        <time>2026-05-14T15:16:35.000Z</time>
      </trkpt>
      <trkpt lat="44.18004" lon="5.31675">
        <ele>699.1</ele>
        <time>2026-05-14T15:16:36.000Z</time>
      </trkpt>
      <trkpt lat="44.18004" lon="5.31675">
        <ele>699.3</ele>
        <time>2026-05-14T15:16:37.000Z</time>
      </trkpt>
      <trkpt lat="44.18004" lon="5.31675">
        <ele>699.3</ele>
        <time>2026-05-14T15:16:38.000Z</time>
      </trkpt>
      <trkpt lat="44.18004" lon="5.31676">
        <ele>699.2</ele>
        <time>2026-05-14T15:16:39.000Z</time>
      </trkpt>
      <trkpt lat="44.18006" lon="5.31676">
        <ele>699.2</ele>
        <time>2026-05-14T15:16:40.000Z</time>
      </trkpt>
      <trkpt lat="44.18007" lon="5.31676">
        <ele>699.2</ele>
        <time>2026-05-14T15:16:41.000Z</time>
      </trkpt>
      <trkpt lat="44.18008" lon="5.31676">
        <ele>699.1</ele>
        <time>2026-05-14T15:16:42.000Z</time>
      </trkpt>
      <trkpt lat="44.18009" lon="5.31676">
        <ele>699.1</ele>
        <time>2026-05-14T15:16:43.000Z</time>
      </trkpt>
      <trkpt lat="44.1801" lon="5.31676">
        <ele>699</ele>
        <time>2026-05-14T15:16:44.000Z</time>
      </trkpt>
      <trkpt lat="44.18011" lon="5.31676">
        <ele>698.9</ele>
        <time>2026-05-14T15:16:45.000Z</time>
      </trkpt>
      <trkpt lat="44.18011" lon="5.31676">
        <ele>698.6</ele>
        <time>2026-05-14T15:16:46.000Z</time>
      </trkpt>
      <trkpt lat="44.18012" lon="5.31676">
        <ele>698.4</ele>
        <time>2026-05-14T15:16:47.000Z</time>
      </trkpt>
      <trkpt lat="44.18012" lon="5.31676">
        <ele>698.3</ele>
        <time>2026-05-14T15:16:48.000Z</time>
      </trkpt>
      <trkpt lat="44.18013" lon="5.31676">
        <ele>698.5</ele>
        <time>2026-05-14T15:16:49.000Z</time>
      </trkpt>
      <trkpt lat="44.18013" lon="5.31676">
        <ele>698.4</ele>
        <time>2026-05-14T15:16:50.000Z</time>
      </trkpt>
      <trkpt lat="44.18015" lon="5.31677">
        <ele>698.4</ele>
        <time>2026-05-14T15:16:51.000Z</time>
      </trkpt>
      <trkpt lat="44.18017" lon="5.31676">
        <ele>698.6</ele>
        <time>2026-05-14T15:16:52.000Z</time>
      </trkpt>
      <trkpt lat="44.18019" lon="5.31677">
        <ele>698.6</ele>
        <time>2026-05-14T15:16:53.000Z</time>
      </trkpt>
      <trkpt lat="44.1802" lon="5.31677">
        <ele>698.6</ele>
        <time>2026-05-14T15:16:54.000Z</time>
      </trkpt>
      <trkpt lat="44.18022" lon="5.31677">
        <ele>698.4</ele>
        <time>2026-05-14T15:16:55.000Z</time>
      </trkpt>
      <trkpt lat="44.18024" lon="5.31677">
        <ele>698.3</ele>
        <time>2026-05-14T15:16:56.000Z</time>
      </trkpt>
      <trkpt lat="44.18025" lon="5.31678">
        <ele>698.3</ele>
        <time>2026-05-14T15:16:57.000Z</time>
      </trkpt>
      <trkpt lat="44.18027" lon="5.31678">
        <ele>698.2</ele>
        <time>2026-05-14T15:16:58.000Z</time>
      </trkpt>
      <trkpt lat="44.1803" lon="5.31679">
        <ele>698.2</ele>
        <time>2026-05-14T15:16:59.000Z</time>
      </trkpt>
      <trkpt lat="44.18032" lon="5.31679">
        <ele>698.2</ele>
        <time>2026-05-14T15:17:00.000Z</time>
      </trkpt>
      <trkpt lat="44.18034" lon="5.31679">
        <ele>698.1</ele>
        <time>2026-05-14T15:17:01.000Z</time>
      </trkpt>
      <trkpt lat="44.18035" lon="5.31679">
        <ele>698.3</ele>
        <time>2026-05-14T15:17:02.000Z</time>
      </trkpt>
      <trkpt lat="44.18036" lon="5.31679">
        <ele>698</ele>
        <time>2026-05-14T15:17:03.000Z</time>
      </trkpt>
      <trkpt lat="44.18037" lon="5.31679">
        <ele>697.8</ele>
        <time>2026-05-14T15:17:04.000Z</time>
      </trkpt>
      <trkpt lat="44.18038" lon="5.31679">
        <ele>697.6</ele>
        <time>2026-05-14T15:17:05.000Z</time>
      </trkpt>
      <trkpt lat="44.18038" lon="5.3168">
        <ele>697.5</ele>
        <time>2026-05-14T15:17:06.000Z</time>
      </trkpt>
      <trkpt lat="44.18038" lon="5.3168">
        <ele>697.6</ele>
        <time>2026-05-14T15:17:07.000Z</time>
      </trkpt>
      <trkpt lat="44.18039" lon="5.3168">
        <ele>697.6</ele>
        <time>2026-05-14T15:17:08.000Z</time>
      </trkpt>
      <trkpt lat="44.18039" lon="5.3168">
        <ele>697.5</ele>
        <time>2026-05-14T15:17:09.000Z</time>
      </trkpt>
      <trkpt lat="44.18039" lon="5.3168">
        <ele>697.5</ele>
        <time>2026-05-14T15:17:10.000Z</time>
      </trkpt>
      <trkpt lat="44.1804" lon="5.3168">
        <ele>697.5</ele>
        <time>2026-05-14T15:17:11.000Z</time>
      </trkpt>
      <trkpt lat="44.18041" lon="5.31679">
        <ele>697.4</ele>
        <time>2026-05-14T15:17:12.000Z</time>
      </trkpt>
      <trkpt lat="44.18043" lon="5.31679">
        <ele>697.3</ele>
        <time>2026-05-14T15:17:13.000Z</time>
      </trkpt>
      <trkpt lat="44.18044" lon="5.31679">
        <ele>697.4</ele>
        <time>2026-05-14T15:17:14.000Z</time>
      </trkpt>
      <trkpt lat="44.18045" lon="5.31679">
        <ele>697.4</ele>
        <time>2026-05-14T15:17:15.000Z</time>
      </trkpt>
      <trkpt lat="44.18046" lon="5.31679">
        <ele>697.4</ele>
        <time>2026-05-14T15:17:16.000Z</time>
      </trkpt>
      <trkpt lat="44.18047" lon="5.31679">
        <ele>697.4</ele>
        <time>2026-05-14T15:17:17.000Z</time>
      </trkpt>
      <trkpt lat="44.18048" lon="5.31679">
        <ele>697.3</ele>
        <time>2026-05-14T15:17:18.000Z</time>
      </trkpt>
      <trkpt lat="44.18049" lon="5.31679">
        <ele>697.1</ele>
        <time>2026-05-14T15:17:19.000Z</time>
      </trkpt>
      <trkpt lat="44.18049" lon="5.31679">
        <ele>697.1</ele>
        <time>2026-05-14T15:17:20.000Z</time>
      </trkpt>
      <trkpt lat="44.18049" lon="5.31679">
        <ele>697.1</ele>
        <time>2026-05-14T15:17:21.000Z</time>
      </trkpt>
      <trkpt lat="44.1805" lon="5.3168">
        <ele>697.2</ele>
        <time>2026-05-14T15:17:22.000Z</time>
      </trkpt>
      <trkpt lat="44.18051" lon="5.3168">
        <ele>697.4</ele>
        <time>2026-05-14T15:17:23.000Z</time>
      </trkpt>
      <trkpt lat="44.1805" lon="5.3168">
        <ele>697.1</ele>
        <time>2026-05-14T15:17:24.000Z</time>
      </trkpt>
      <trkpt lat="44.1805" lon="5.3168">
        <ele>697</ele>
        <time>2026-05-14T15:17:25.000Z</time>
      </trkpt>
      <trkpt lat="44.18051" lon="5.31679">
        <ele>697.2</ele>
        <time>2026-05-14T15:17:26.000Z</time>
      </trkpt>
      <trkpt lat="44.18051" lon="5.31679">
        <ele>697.3</ele>
        <time>2026-05-14T15:17:27.000Z</time>
      </trkpt>
      <trkpt lat="44.18051" lon="5.31679">
        <ele>697.3</ele>
        <time>2026-05-14T15:17:28.000Z</time>
      </trkpt>
      <trkpt lat="44.18052" lon="5.31679">
        <ele>696.9</ele>
        <time>2026-05-14T15:17:29.000Z</time>
      </trkpt>
      <trkpt lat="44.18052" lon="5.31679">
        <ele>696.1</ele>
        <time>2026-05-14T15:17:30.000Z</time>
      </trkpt>
      <trkpt lat="44.18052" lon="5.31679">
        <ele>695.6</ele>
        <time>2026-05-14T15:17:31.000Z</time>
      </trkpt>
      <trkpt lat="44.18052" lon="5.31679">
        <ele>695.3</ele>
        <time>2026-05-14T15:17:32.000Z</time>
      </trkpt>
      <trkpt lat="44.18053" lon="5.31679">
        <ele>694.5</ele>
        <time>2026-05-14T15:17:33.000Z</time>
      </trkpt>
      <trkpt lat="44.18053" lon="5.31679">
        <ele>693.7</ele>
        <time>2026-05-14T15:17:34.000Z</time>
      </trkpt>
      <trkpt lat="44.18053" lon="5.31679">
        <ele>693.3</ele>
        <time>2026-05-14T15:17:35.000Z</time>
      </trkpt>
      <trkpt lat="44.18054" lon="5.3168">
        <ele>692.8</ele>
        <time>2026-05-14T15:17:36.000Z</time>
      </trkpt>
      <trkpt lat="44.18055" lon="5.3168">
        <ele>692.3</ele>
        <time>2026-05-14T15:17:37.000Z</time>
      </trkpt>
      <trkpt lat="44.18056" lon="5.31681">
        <ele>691.9</ele>
        <time>2026-05-14T15:17:38.000Z</time>
      </trkpt>
      <trkpt lat="44.18058" lon="5.31683">
        <ele>691.6</ele>
        <time>2026-05-14T15:17:39.000Z</time>
      </trkpt>
      <trkpt lat="44.1806" lon="5.31685">
        <ele>691.6</ele>
        <time>2026-05-14T15:17:40.000Z</time>
      </trkpt>
      <trkpt lat="44.1806" lon="5.31686">
        <ele>691.5</ele>
        <time>2026-05-14T15:17:41.000Z</time>
      </trkpt>
      <trkpt lat="44.18061" lon="5.31687">
        <ele>691.3</ele>
        <time>2026-05-14T15:17:42.000Z</time>
      </trkpt>
      <trkpt lat="44.18062" lon="5.31688">
        <ele>690.9</ele>
        <time>2026-05-14T15:17:43.000Z</time>
      </trkpt>
      <trkpt lat="44.18063" lon="5.31688">
        <ele>691.3</ele>
        <time>2026-05-14T15:17:44.000Z</time>
      </trkpt>
      <trkpt lat="44.18063" lon="5.31688">
        <ele>691.1</ele>
        <time>2026-05-14T15:17:45.000Z</time>
      </trkpt>
      <trkpt lat="44.18063" lon="5.31688">
        <ele>691</ele>
        <time>2026-05-14T15:17:46.000Z</time>
      </trkpt>
      <trkpt lat="44.18063" lon="5.31688">
        <ele>690.8</ele>
        <time>2026-05-14T15:17:47.000Z</time>
      </trkpt>
      <trkpt lat="44.18063" lon="5.31688">
        <ele>690.8</ele>
        <time>2026-05-14T15:17:48.000Z</time>
      </trkpt>
      <trkpt lat="44.18063" lon="5.31688">
        <ele>690.5</ele>
        <time>2026-05-14T15:17:49.000Z</time>
      </trkpt>
      <trkpt lat="44.18063" lon="5.31688">
        <ele>690.1</ele>
        <time>2026-05-14T15:17:50.000Z</time>
      </trkpt>
      <trkpt lat="44.18063" lon="5.31688">
        <ele>689.8</ele>
        <time>2026-05-14T15:17:51.000Z</time>
      </trkpt>
      <trkpt lat="44.18064" lon="5.31688">
        <ele>689.6</ele>
        <time>2026-05-14T15:17:52.000Z</time>
      </trkpt>
      <trkpt lat="44.18064" lon="5.31688">
        <ele>689.6</ele>
        <time>2026-05-14T15:17:53.000Z</time>
      </trkpt>
      <trkpt lat="44.18064" lon="5.31688">
        <ele>689.3</ele>
        <time>2026-05-14T15:17:54.000Z</time>
      </trkpt>
      <trkpt lat="44.18064" lon="5.31688">
        <ele>689</ele>
        <time>2026-05-14T15:17:55.000Z</time>
      </trkpt>
      <trkpt lat="44.18065" lon="5.31688">
        <ele>688.9</ele>
        <time>2026-05-14T15:17:56.000Z</time>
      </trkpt>
      <trkpt lat="44.18065" lon="5.31688">
        <ele>688.9</ele>
        <time>2026-05-14T15:17:57.000Z</time>
      </trkpt>
      <trkpt lat="44.18065" lon="5.31687">
        <ele>688.9</ele>
        <time>2026-05-14T15:17:58.000Z</time>
      </trkpt>
      <trkpt lat="44.18065" lon="5.31688">
        <ele>689.2</ele>
        <time>2026-05-14T15:17:59.000Z</time>
      </trkpt>
      <trkpt lat="44.18065" lon="5.31688">
        <ele>689.5</ele>
        <time>2026-05-14T15:18:00.000Z</time>
      </trkpt>
      <trkpt lat="44.18065" lon="5.31688">
        <ele>689.7</ele>
        <time>2026-05-14T15:18:01.000Z</time>
      </trkpt>
      <trkpt lat="44.18066" lon="5.31688">
        <ele>689.8</ele>
        <time>2026-05-14T15:18:02.000Z</time>
      </trkpt>
      <trkpt lat="44.18068" lon="5.31688">
        <ele>689.7</ele>
        <time>2026-05-14T15:18:03.000Z</time>
      </trkpt>
      <trkpt lat="44.18069" lon="5.31688">
        <ele>689.4</ele>
        <time>2026-05-14T15:18:04.000Z</time>
      </trkpt>
      <trkpt lat="44.1807" lon="5.31688">
        <ele>689.1</ele>
        <time>2026-05-14T15:18:05.000Z</time>
      </trkpt>
      <trkpt lat="44.1807" lon="5.31688">
        <ele>689.1</ele>
        <time>2026-05-14T15:18:06.000Z</time>
      </trkpt>
      <trkpt lat="44.1807" lon="5.31688">
        <ele>689.2</ele>
        <time>2026-05-14T15:18:07.000Z</time>
      </trkpt>
      <trkpt lat="44.18071" lon="5.31688">
        <ele>689.3</ele>
        <time>2026-05-14T15:18:08.000Z</time>
      </trkpt>
      <trkpt lat="44.18072" lon="5.31688">
        <ele>689.3</ele>
        <time>2026-05-14T15:18:09.000Z</time>
      </trkpt>
      <trkpt lat="44.18074" lon="5.31687">
        <ele>689.5</ele>
        <time>2026-05-14T15:18:10.000Z</time>
      </trkpt>
      <trkpt lat="44.18076" lon="5.31687">
        <ele>689.6</ele>
        <time>2026-05-14T15:18:11.000Z</time>
      </trkpt>
      <trkpt lat="44.18078" lon="5.31688">
        <ele>689.9</ele>
        <time>2026-05-14T15:18:12.000Z</time>
      </trkpt>
      <trkpt lat="44.18079" lon="5.31688">
        <ele>689.7</ele>
        <time>2026-05-14T15:18:13.000Z</time>
      </trkpt>
      <trkpt lat="44.18079" lon="5.31688">
        <ele>689.8</ele>
        <time>2026-05-14T15:18:14.000Z</time>
      </trkpt>
      <trkpt lat="44.1808" lon="5.31688">
        <ele>689.6</ele>
        <time>2026-05-14T15:18:15.000Z</time>
      </trkpt>
      <trkpt lat="44.1808" lon="5.31688">
        <ele>689.3</ele>
        <time>2026-05-14T15:18:16.000Z</time>
      </trkpt>
      <trkpt lat="44.1808" lon="5.31688">
        <ele>689.3</ele>
        <time>2026-05-14T15:18:17.000Z</time>
      </trkpt>
      <trkpt lat="44.1808" lon="5.31688">
        <ele>689.1</ele>
        <time>2026-05-14T15:18:18.000Z</time>
      </trkpt>
      <trkpt lat="44.1808" lon="5.31688">
        <ele>689</ele>
        <time>2026-05-14T15:18:19.000Z</time>
      </trkpt>
      <trkpt lat="44.1808" lon="5.31687">
        <ele>688.9</ele>
        <time>2026-05-14T15:18:20.000Z</time>
      </trkpt>
      <trkpt lat="44.18081" lon="5.31687">
        <ele>688.7</ele>
        <time>2026-05-14T15:18:21.000Z</time>
      </trkpt>
      <trkpt lat="44.18081" lon="5.31687">
        <ele>688.7</ele>
        <time>2026-05-14T15:18:22.000Z</time>
      </trkpt>
      <trkpt lat="44.18081" lon="5.31687">
        <ele>688.5</ele>
        <time>2026-05-14T15:18:23.000Z</time>
      </trkpt>
      <trkpt lat="44.18081" lon="5.31687">
        <ele>688.3</ele>
        <time>2026-05-14T15:18:24.000Z</time>
      </trkpt>
      <trkpt lat="44.18082" lon="5.31687">
        <ele>688.3</ele>
        <time>2026-05-14T15:18:25.000Z</time>
      </trkpt>
      <trkpt lat="44.18082" lon="5.31687">
        <ele>688.3</ele>
        <time>2026-05-14T15:18:26.000Z</time>
      </trkpt>
      <trkpt lat="44.18082" lon="5.31688">
        <ele>688.4</ele>
        <time>2026-05-14T15:18:27.000Z</time>
      </trkpt>
      <trkpt lat="44.18082" lon="5.31688">
        <ele>688.5</ele>
        <time>2026-05-14T15:18:28.000Z</time>
      </trkpt>
      <trkpt lat="44.18083" lon="5.31688">
        <ele>688.7</ele>
        <time>2026-05-14T15:18:29.000Z</time>
      </trkpt>
      <trkpt lat="44.18084" lon="5.31689">
        <ele>688.7</ele>
        <time>2026-05-14T15:18:30.000Z</time>
      </trkpt>
      <trkpt lat="44.18084" lon="5.3169">
        <ele>688.7</ele>
        <time>2026-05-14T15:18:31.000Z</time>
      </trkpt>
      <trkpt lat="44.18084" lon="5.3169">
        <ele>688.7</ele>
        <time>2026-05-14T15:18:32.000Z</time>
      </trkpt>
      <trkpt lat="44.18086" lon="5.3169">
        <ele>688.8</ele>
        <time>2026-05-14T15:18:33.000Z</time>
      </trkpt>
      <trkpt lat="44.18088" lon="5.31692">
        <ele>688.8</ele>
        <time>2026-05-14T15:18:34.000Z</time>
      </trkpt>
      <trkpt lat="44.18091" lon="5.31694">
        <ele>688.9</ele>
        <time>2026-05-14T15:18:35.000Z</time>
      </trkpt>
      <trkpt lat="44.18093" lon="5.31695">
        <ele>689.2</ele>
        <time>2026-05-14T15:18:36.000Z</time>
      </trkpt>
      <trkpt lat="44.18094" lon="5.31694">
        <ele>689.4</ele>
        <time>2026-05-14T15:18:37.000Z</time>
      </trkpt>
      <trkpt lat="44.18095" lon="5.31694">
        <ele>689.5</ele>
        <time>2026-05-14T15:18:38.000Z</time>
      </trkpt>
      <trkpt lat="44.18095" lon="5.31694">
        <ele>689.6</ele>
        <time>2026-05-14T15:18:39.000Z</time>
      </trkpt>
      <trkpt lat="44.18095" lon="5.31694">
        <ele>689.6</ele>
        <time>2026-05-14T15:18:40.000Z</time>
      </trkpt>
      <trkpt lat="44.18095" lon="5.31694">
        <ele>689.5</ele>
        <time>2026-05-14T15:18:41.000Z</time>
      </trkpt>
      <trkpt lat="44.18095" lon="5.31694">
        <ele>689.5</ele>
        <time>2026-05-14T15:18:42.000Z</time>
      </trkpt>
      <trkpt lat="44.18095" lon="5.31694">
        <ele>689.4</ele>
        <time>2026-05-14T15:18:43.000Z</time>
      </trkpt>
      <trkpt lat="44.18095" lon="5.31694">
        <ele>689.4</ele>
        <time>2026-05-14T15:18:44.000Z</time>
      </trkpt>
      <trkpt lat="44.18096" lon="5.31694">
        <ele>689.5</ele>
        <time>2026-05-14T15:18:45.000Z</time>
      </trkpt>
      <trkpt lat="44.18097" lon="5.31694">
        <ele>689.6</ele>
        <time>2026-05-14T15:18:46.000Z</time>
      </trkpt>
      <trkpt lat="44.181" lon="5.31694">
        <ele>689.7</ele>
        <time>2026-05-14T15:18:47.000Z</time>
      </trkpt>
      <trkpt lat="44.181" lon="5.31695">
        <ele>689.7</ele>
        <time>2026-05-14T15:18:48.000Z</time>
      </trkpt>
      <trkpt lat="44.181" lon="5.31695">
        <ele>689.6</ele>
        <time>2026-05-14T15:18:49.000Z</time>
      </trkpt>
      <trkpt lat="44.18101" lon="5.31695">
        <ele>689.6</ele>
        <time>2026-05-14T15:18:50.000Z</time>
      </trkpt>
      <trkpt lat="44.18102" lon="5.31695">
        <ele>689.6</ele>
        <time>2026-05-14T15:18:51.000Z</time>
      </trkpt>
      <trkpt lat="44.18103" lon="5.31695">
        <ele>689.6</ele>
        <time>2026-05-14T15:18:52.000Z</time>
      </trkpt>
      <trkpt lat="44.18104" lon="5.31695">
        <ele>689.7</ele>
        <time>2026-05-14T15:18:53.000Z</time>
      </trkpt>
      <trkpt lat="44.18105" lon="5.31695">
        <ele>689.7</ele>
        <time>2026-05-14T15:18:54.000Z</time>
      </trkpt>
      <trkpt lat="44.18106" lon="5.31696">
        <ele>689.7</ele>
        <time>2026-05-14T15:18:55.000Z</time>
      </trkpt>
      <trkpt lat="44.18108" lon="5.31697">
        <ele>689.6</ele>
        <time>2026-05-14T15:18:56.000Z</time>
      </trkpt>
      <trkpt lat="44.18111" lon="5.31698">
        <ele>689.9</ele>
        <time>2026-05-14T15:18:57.000Z</time>
      </trkpt>
      <trkpt lat="44.18111" lon="5.31698">
        <ele>689.8</ele>
        <time>2026-05-14T15:18:58.000Z</time>
      </trkpt>
      <trkpt lat="44.18112" lon="5.31699">
        <ele>689.7</ele>
        <time>2026-05-14T15:18:59.000Z</time>
      </trkpt>
      <trkpt lat="44.18113" lon="5.31699">
        <ele>689.8</ele>
        <time>2026-05-14T15:19:00.000Z</time>
      </trkpt>
      <trkpt lat="44.18115" lon="5.31699">
        <ele>689.8</ele>
        <time>2026-05-14T15:19:01.000Z</time>
      </trkpt>
      <trkpt lat="44.18117" lon="5.31698">
        <ele>690</ele>
        <time>2026-05-14T15:19:02.000Z</time>
      </trkpt>
      <trkpt lat="44.18119" lon="5.31699">
        <ele>690.1</ele>
        <time>2026-05-14T15:19:03.000Z</time>
      </trkpt>
      <trkpt lat="44.1812" lon="5.31698">
        <ele>690.2</ele>
        <time>2026-05-14T15:19:04.000Z</time>
      </trkpt>
      <trkpt lat="44.18122" lon="5.31698">
        <ele>690.2</ele>
        <time>2026-05-14T15:19:05.000Z</time>
      </trkpt>
      <trkpt lat="44.18123" lon="5.31698">
        <ele>690.1</ele>
        <time>2026-05-14T15:19:06.000Z</time>
      </trkpt>
      <trkpt lat="44.18123" lon="5.31698">
        <ele>690</ele>
        <time>2026-05-14T15:19:07.000Z</time>
      </trkpt>
      <trkpt lat="44.18125" lon="5.31698">
        <ele>689.9</ele>
        <time>2026-05-14T15:19:08.000Z</time>
      </trkpt>
      <trkpt lat="44.18126" lon="5.31698">
        <ele>689.9</ele>
        <time>2026-05-14T15:19:09.000Z</time>
      </trkpt>
      <trkpt lat="44.18128" lon="5.31699">
        <ele>690.2</ele>
        <time>2026-05-14T15:19:10.000Z</time>
      </trkpt>
      <trkpt lat="44.1813" lon="5.31699">
        <ele>689.9</ele>
        <time>2026-05-14T15:19:11.000Z</time>
      </trkpt>
      <trkpt lat="44.18131" lon="5.317">
        <ele>689.7</ele>
        <time>2026-05-14T15:19:12.000Z</time>
      </trkpt>
      <trkpt lat="44.18134" lon="5.31699">
        <ele>689.7</ele>
        <time>2026-05-14T15:19:13.000Z</time>
      </trkpt>
      <trkpt lat="44.18136" lon="5.31699">
        <ele>689.6</ele>
        <time>2026-05-14T15:19:14.000Z</time>
      </trkpt>
      <trkpt lat="44.18136" lon="5.31699">
        <ele>689.4</ele>
        <time>2026-05-14T15:19:15.000Z</time>
      </trkpt>
      <trkpt lat="44.18138" lon="5.31699">
        <ele>689.6</ele>
        <time>2026-05-14T15:19:16.000Z</time>
      </trkpt>
      <trkpt lat="44.18139" lon="5.31699">
        <ele>689.9</ele>
        <time>2026-05-14T15:19:17.000Z</time>
      </trkpt>
      <trkpt lat="44.1814" lon="5.31699">
        <ele>689.9</ele>
        <time>2026-05-14T15:19:18.000Z</time>
      </trkpt>
      <trkpt lat="44.1814" lon="5.31699">
        <ele>690</ele>
        <time>2026-05-14T15:19:19.000Z</time>
      </trkpt>
      <trkpt lat="44.1814" lon="5.31699">
        <ele>690.1</ele>
        <time>2026-05-14T15:19:20.000Z</time>
      </trkpt>
      <trkpt lat="44.1814" lon="5.31699">
        <ele>690.4</ele>
        <time>2026-05-14T15:19:21.000Z</time>
      </trkpt>
      <trkpt lat="44.1814" lon="5.31699">
        <ele>690.3</ele>
        <time>2026-05-14T15:19:22.000Z</time>
      </trkpt>
      <trkpt lat="44.18141" lon="5.31698">
        <ele>690.5</ele>
        <time>2026-05-14T15:19:23.000Z</time>
      </trkpt>
      <trkpt lat="44.18142" lon="5.31698">
        <ele>690.5</ele>
        <time>2026-05-14T15:19:24.000Z</time>
      </trkpt>
      <trkpt lat="44.18144" lon="5.31698">
        <ele>690.5</ele>
        <time>2026-05-14T15:19:25.000Z</time>
      </trkpt>
      <trkpt lat="44.18145" lon="5.31698">
        <ele>690.5</ele>
        <time>2026-05-14T15:19:26.000Z</time>
      </trkpt>
      <trkpt lat="44.18146" lon="5.31698">
        <ele>690.4</ele>
        <time>2026-05-14T15:19:27.000Z</time>
      </trkpt>
      <trkpt lat="44.18148" lon="5.31698">
        <ele>690</ele>
        <time>2026-05-14T15:19:28.000Z</time>
      </trkpt>
      <trkpt lat="44.1815" lon="5.31698">
        <ele>689.9</ele>
        <time>2026-05-14T15:19:29.000Z</time>
      </trkpt>
      <trkpt lat="44.18151" lon="5.31698">
        <ele>689.8</ele>
        <time>2026-05-14T15:19:30.000Z</time>
      </trkpt>
      <trkpt lat="44.18152" lon="5.31699">
        <ele>690</ele>
        <time>2026-05-14T15:19:31.000Z</time>
      </trkpt>
      <trkpt lat="44.18154" lon="5.31699">
        <ele>690.2</ele>
        <time>2026-05-14T15:19:32.000Z</time>
      </trkpt>
      <trkpt lat="44.18155" lon="5.317">
        <ele>690.4</ele>
        <time>2026-05-14T15:19:33.000Z</time>
      </trkpt>
      <trkpt lat="44.18157" lon="5.317">
        <ele>690.3</ele>
        <time>2026-05-14T15:19:34.000Z</time>
      </trkpt>
      <trkpt lat="44.18158" lon="5.317">
        <ele>690.2</ele>
        <time>2026-05-14T15:19:35.000Z</time>
      </trkpt>
      <trkpt lat="44.18159" lon="5.317">
        <ele>690.2</ele>
        <time>2026-05-14T15:19:36.000Z</time>
      </trkpt>
      <trkpt lat="44.1816" lon="5.317">
        <ele>690.1</ele>
        <time>2026-05-14T15:19:37.000Z</time>
      </trkpt>
      <trkpt lat="44.18161" lon="5.317">
        <ele>690.3</ele>
        <time>2026-05-14T15:19:38.000Z</time>
      </trkpt>
      <trkpt lat="44.18161" lon="5.317">
        <ele>690.3</ele>
        <time>2026-05-14T15:19:39.000Z</time>
      </trkpt>
      <trkpt lat="44.18162" lon="5.317">
        <ele>690.3</ele>
        <time>2026-05-14T15:19:40.000Z</time>
      </trkpt>
      <trkpt lat="44.18163" lon="5.317">
        <ele>690</ele>
        <time>2026-05-14T15:19:41.000Z</time>
      </trkpt>
      <trkpt lat="44.18163" lon="5.317">
        <ele>689.7</ele>
        <time>2026-05-14T15:19:42.000Z</time>
      </trkpt>
      <trkpt lat="44.18164" lon="5.31701">
        <ele>689.8</ele>
        <time>2026-05-14T15:19:43.000Z</time>
      </trkpt>
      <trkpt lat="44.18166" lon="5.31701">
        <ele>689.9</ele>
        <time>2026-05-14T15:19:44.000Z</time>
      </trkpt>
      <trkpt lat="44.18166" lon="5.31702">
        <ele>690</ele>
        <time>2026-05-14T15:19:45.000Z</time>
      </trkpt>
      <trkpt lat="44.18167" lon="5.31703">
        <ele>689.8</ele>
        <time>2026-05-14T15:19:46.000Z</time>
      </trkpt>
      <trkpt lat="44.18168" lon="5.31703">
        <ele>689.9</ele>
        <time>2026-05-14T15:19:47.000Z</time>
      </trkpt>
      <trkpt lat="44.18168" lon="5.31704">
        <ele>690.1</ele>
        <time>2026-05-14T15:19:48.000Z</time>
      </trkpt>
      <trkpt lat="44.18169" lon="5.31704">
        <ele>690</ele>
        <time>2026-05-14T15:19:49.000Z</time>
      </trkpt>
      <trkpt lat="44.18171" lon="5.31705">
        <ele>690.2</ele>
        <time>2026-05-14T15:19:50.000Z</time>
      </trkpt>
      <trkpt lat="44.18172" lon="5.31706">
        <ele>690.3</ele>
        <time>2026-05-14T15:19:51.000Z</time>
      </trkpt>
      <trkpt lat="44.18173" lon="5.31707">
        <ele>689.9</ele>
        <time>2026-05-14T15:19:52.000Z</time>
      </trkpt>
      <trkpt lat="44.18173" lon="5.31709">
        <ele>689.1</ele>
        <time>2026-05-14T15:19:54.000Z</time>
      </trkpt>
      <trkpt lat="44.18174" lon="5.3171">
        <ele>688.7</ele>
        <time>2026-05-14T15:19:55.000Z</time>
      </trkpt>
      <trkpt lat="44.18176" lon="5.31711">
        <ele>688.3</ele>
        <time>2026-05-14T15:19:56.000Z</time>
      </trkpt>
      <trkpt lat="44.18177" lon="5.31712">
        <ele>688</ele>
        <time>2026-05-14T15:19:57.000Z</time>
      </trkpt>
      <trkpt lat="44.18178" lon="5.31713">
        <ele>687.5</ele>
        <time>2026-05-14T15:19:58.000Z</time>
      </trkpt>
      <trkpt lat="44.18179" lon="5.31713">
        <ele>687.4</ele>
        <time>2026-05-14T15:19:59.000Z</time>
      </trkpt>
      <trkpt lat="44.1818" lon="5.31714">
        <ele>687.3</ele>
        <time>2026-05-14T15:20:00.000Z</time>
      </trkpt>
      <trkpt lat="44.1818" lon="5.31714">
        <ele>687.2</ele>
        <time>2026-05-14T15:20:01.000Z</time>
      </trkpt>
      <trkpt lat="44.18179" lon="5.31714">
        <ele>687.2</ele>
        <time>2026-05-14T15:20:02.000Z</time>
      </trkpt>
      <trkpt lat="44.1818" lon="5.31714">
        <ele>686.8</ele>
        <time>2026-05-14T15:20:03.000Z</time>
      </trkpt>
      <trkpt lat="44.1818" lon="5.31714">
        <ele>686.9</ele>
        <time>2026-05-14T15:20:04.000Z</time>
      </trkpt>
      <trkpt lat="44.1818" lon="5.31714">
        <ele>686.8</ele>
        <time>2026-05-14T15:20:05.000Z</time>
      </trkpt>
      <trkpt lat="44.18181" lon="5.31715">
        <ele>686.6</ele>
        <time>2026-05-14T15:20:06.000Z</time>
      </trkpt>
      <trkpt lat="44.18182" lon="5.31716">
        <ele>686.3</ele>
        <time>2026-05-14T15:20:07.000Z</time>
      </trkpt>
      <trkpt lat="44.18182" lon="5.31717">
        <ele>686.2</ele>
        <time>2026-05-14T15:20:08.000Z</time>
      </trkpt>
      <trkpt lat="44.18183" lon="5.31718">
        <ele>686.2</ele>
        <time>2026-05-14T15:20:09.000Z</time>
      </trkpt>
      <trkpt lat="44.18184" lon="5.31719">
        <ele>686.1</ele>
        <time>2026-05-14T15:20:10.000Z</time>
      </trkpt>
      <trkpt lat="44.18185" lon="5.3172">
        <ele>686.1</ele>
        <time>2026-05-14T15:20:11.000Z</time>
      </trkpt>
      <trkpt lat="44.18185" lon="5.31721">
        <ele>686.2</ele>
        <time>2026-05-14T15:20:12.000Z</time>
      </trkpt>
      <trkpt lat="44.18186" lon="5.31722">
        <ele>685.9</ele>
        <time>2026-05-14T15:20:13.000Z</time>
      </trkpt>
      <trkpt lat="44.18187" lon="5.31723">
        <ele>685.9</ele>
        <time>2026-05-14T15:20:14.000Z</time>
      </trkpt>
      <trkpt lat="44.18188" lon="5.31724">
        <ele>686</ele>
        <time>2026-05-14T15:20:15.000Z</time>
      </trkpt>
      <trkpt lat="44.18188" lon="5.31726">
        <ele>686</ele>
        <time>2026-05-14T15:20:16.000Z</time>
      </trkpt>
      <trkpt lat="44.1819" lon="5.31726">
        <ele>685.9</ele>
        <time>2026-05-14T15:20:17.000Z</time>
      </trkpt>
      <trkpt lat="44.1819" lon="5.31727">
        <ele>685.8</ele>
        <time>2026-05-14T15:20:18.000Z</time>
      </trkpt>
      <trkpt lat="44.18191" lon="5.31728">
        <ele>685.6</ele>
        <time>2026-05-14T15:20:19.000Z</time>
      </trkpt>
      <trkpt lat="44.18191" lon="5.31729">
        <ele>685.4</ele>
        <time>2026-05-14T15:20:20.000Z</time>
      </trkpt>
      <trkpt lat="44.18191" lon="5.3173">
        <ele>685.3</ele>
        <time>2026-05-14T15:20:21.000Z</time>
      </trkpt>
      <trkpt lat="44.18191" lon="5.3173">
        <ele>685.2</ele>
        <time>2026-05-14T15:20:22.000Z</time>
      </trkpt>
      <trkpt lat="44.18192" lon="5.3173">
        <ele>685</ele>
        <time>2026-05-14T15:20:23.000Z</time>
      </trkpt>
      <trkpt lat="44.18193" lon="5.31731">
        <ele>685</ele>
        <time>2026-05-14T15:20:24.000Z</time>
      </trkpt>
      <trkpt lat="44.18192" lon="5.31732">
        <ele>684.4</ele>
        <time>2026-05-14T15:20:25.000Z</time>
      </trkpt>
      <trkpt lat="44.1819" lon="5.31733">
        <ele>684</ele>
        <time>2026-05-14T15:20:26.000Z</time>
      </trkpt>
      <trkpt lat="44.1819" lon="5.31733">
        <ele>684.1</ele>
        <time>2026-05-14T15:20:27.000Z</time>
      </trkpt>
      <trkpt lat="44.1819" lon="5.31733">
        <ele>684.4</ele>
        <time>2026-05-14T15:20:28.000Z</time>
      </trkpt>
      <trkpt lat="44.1819" lon="5.31733">
        <ele>684.3</ele>
        <time>2026-05-14T15:20:29.000Z</time>
      </trkpt>
      <trkpt lat="44.1819" lon="5.31733">
        <ele>684.1</ele>
        <time>2026-05-14T15:20:30.000Z</time>
      </trkpt>
      <trkpt lat="44.18191" lon="5.31734">
        <ele>684</ele>
        <time>2026-05-14T15:20:31.000Z</time>
      </trkpt>
      <trkpt lat="44.18191" lon="5.31735">
        <ele>684</ele>
        <time>2026-05-14T15:20:32.000Z</time>
      </trkpt>
      <trkpt lat="44.18192" lon="5.31736">
        <ele>683.7</ele>
        <time>2026-05-14T15:20:33.000Z</time>
      </trkpt>
      <trkpt lat="44.18192" lon="5.31738">
        <ele>683.4</ele>
        <time>2026-05-14T15:20:34.000Z</time>
      </trkpt>
      <trkpt lat="44.18193" lon="5.31739">
        <ele>683.4</ele>
        <time>2026-05-14T15:20:35.000Z</time>
      </trkpt>
      <trkpt lat="44.18193" lon="5.31741">
        <ele>682.9</ele>
        <time>2026-05-14T15:20:36.000Z</time>
      </trkpt>
      <trkpt lat="44.18194" lon="5.31742">
        <ele>682.7</ele>
        <time>2026-05-14T15:20:37.000Z</time>
      </trkpt>
      <trkpt lat="44.18194" lon="5.31744">
        <ele>682.7</ele>
        <time>2026-05-14T15:20:38.000Z</time>
      </trkpt>
      <trkpt lat="44.18194" lon="5.31745">
        <ele>682.1</ele>
        <time>2026-05-14T15:20:39.000Z</time>
      </trkpt>
      <trkpt lat="44.18195" lon="5.31746">
        <ele>682</ele>
        <time>2026-05-14T15:20:40.000Z</time>
      </trkpt>
      <trkpt lat="44.18195" lon="5.31747">
        <ele>682.1</ele>
        <time>2026-05-14T15:20:41.000Z</time>
      </trkpt>
      <trkpt lat="44.18196" lon="5.31747">
        <ele>682.2</ele>
        <time>2026-05-14T15:20:42.000Z</time>
      </trkpt>
      <trkpt lat="44.18197" lon="5.31748">
        <ele>682.4</ele>
        <time>2026-05-14T15:20:43.000Z</time>
      </trkpt>
      <trkpt lat="44.18198" lon="5.31748">
        <ele>682.6</ele>
        <time>2026-05-14T15:20:44.000Z</time>
      </trkpt>
      <trkpt lat="44.18198" lon="5.31749">
        <ele>682.4</ele>
        <time>2026-05-14T15:20:45.000Z</time>
      </trkpt>
      <trkpt lat="44.18199" lon="5.3175">
        <ele>682.3</ele>
        <time>2026-05-14T15:20:46.000Z</time>
      </trkpt>
      <trkpt lat="44.182" lon="5.31751">
        <ele>682.1</ele>
        <time>2026-05-14T15:20:47.000Z</time>
      </trkpt>
      <trkpt lat="44.18201" lon="5.31752">
        <ele>682.2</ele>
        <time>2026-05-14T15:20:48.000Z</time>
      </trkpt>
      <trkpt lat="44.18201" lon="5.31754">
        <ele>682.3</ele>
        <time>2026-05-14T15:20:49.000Z</time>
      </trkpt>
      <trkpt lat="44.18202" lon="5.31755">
        <ele>682</ele>
        <time>2026-05-14T15:20:50.000Z</time>
      </trkpt>
      <trkpt lat="44.18202" lon="5.31755">
        <ele>682.1</ele>
        <time>2026-05-14T15:20:51.000Z</time>
      </trkpt>
      <trkpt lat="44.18203" lon="5.31756">
        <ele>682.2</ele>
        <time>2026-05-14T15:20:52.000Z</time>
      </trkpt>
      <trkpt lat="44.18203" lon="5.31757">
        <ele>682.2</ele>
        <time>2026-05-14T15:20:53.000Z</time>
      </trkpt>
      <trkpt lat="44.18203" lon="5.31757">
        <ele>682.2</ele>
        <time>2026-05-14T15:20:54.000Z</time>
      </trkpt>
      <trkpt lat="44.18203" lon="5.31757">
        <ele>682.2</ele>
        <time>2026-05-14T15:20:55.000Z</time>
      </trkpt>
      <trkpt lat="44.18203" lon="5.31757">
        <ele>682.4</ele>
        <time>2026-05-14T15:20:56.000Z</time>
      </trkpt>
      <trkpt lat="44.18204" lon="5.31758">
        <ele>682.3</ele>
        <time>2026-05-14T15:20:57.000Z</time>
      </trkpt>
      <trkpt lat="44.18204" lon="5.31759">
        <ele>682.3</ele>
        <time>2026-05-14T15:20:58.000Z</time>
      </trkpt>
      <trkpt lat="44.18204" lon="5.31761">
        <ele>682.1</ele>
        <time>2026-05-14T15:20:59.000Z</time>
      </trkpt>
      <trkpt lat="44.18204" lon="5.31762">
        <ele>682.1</ele>
        <time>2026-05-14T15:21:00.000Z</time>
      </trkpt>
      <trkpt lat="44.18205" lon="5.31764">
        <ele>682.1</ele>
        <time>2026-05-14T15:21:01.000Z</time>
      </trkpt>
      <trkpt lat="44.18205" lon="5.31766">
        <ele>682.4</ele>
        <time>2026-05-14T15:21:02.000Z</time>
      </trkpt>
      <trkpt lat="44.18206" lon="5.31768">
        <ele>682.9</ele>
        <time>2026-05-14T15:21:03.000Z</time>
      </trkpt>
      <trkpt lat="44.18207" lon="5.3177">
        <ele>684</ele>
        <time>2026-05-14T15:21:04.000Z</time>
      </trkpt>
      <trkpt lat="44.18207" lon="5.31773">
        <ele>684.4</ele>
        <time>2026-05-14T15:21:05.000Z</time>
      </trkpt>
      <trkpt lat="44.18207" lon="5.31775">
        <ele>685</ele>
        <time>2026-05-14T15:21:06.000Z</time>
      </trkpt>
      <trkpt lat="44.18207" lon="5.31776">
        <ele>684.9</ele>
        <time>2026-05-14T15:21:07.000Z</time>
      </trkpt>
      <trkpt lat="44.18206" lon="5.31777">
        <ele>683.8</ele>
        <time>2026-05-14T15:21:08.000Z</time>
      </trkpt>
      <trkpt lat="44.18204" lon="5.31777">
        <ele>683.1</ele>
        <time>2026-05-14T15:21:09.000Z</time>
      </trkpt>
      <trkpt lat="44.18204" lon="5.31778">
        <ele>683.1</ele>
        <time>2026-05-14T15:21:10.000Z</time>
      </trkpt>
      <trkpt lat="44.18205" lon="5.3178">
        <ele>682</ele>
        <time>2026-05-14T15:21:11.000Z</time>
      </trkpt>
      <trkpt lat="44.18206" lon="5.31781">
        <ele>681.6</ele>
        <time>2026-05-14T15:21:12.000Z</time>
      </trkpt>
      <trkpt lat="44.18206" lon="5.31783">
        <ele>681.3</ele>
        <time>2026-05-14T15:21:13.000Z</time>
      </trkpt>
      <trkpt lat="44.18206" lon="5.31784">
        <ele>681.5</ele>
        <time>2026-05-14T15:21:14.000Z</time>
      </trkpt>
      <trkpt lat="44.18206" lon="5.31784">
        <ele>682.5</ele>
        <time>2026-05-14T15:21:15.000Z</time>
      </trkpt>
      <trkpt lat="44.18206" lon="5.31785">
        <ele>682.7</ele>
        <time>2026-05-14T15:21:16.000Z</time>
      </trkpt>
      <trkpt lat="44.18206" lon="5.31785">
        <ele>683</ele>
        <time>2026-05-14T15:21:17.000Z</time>
      </trkpt>
      <trkpt lat="44.18206" lon="5.31786">
        <ele>683</ele>
        <time>2026-05-14T15:21:18.000Z</time>
      </trkpt>
      <trkpt lat="44.18207" lon="5.31787">
        <ele>682.9</ele>
        <time>2026-05-14T15:21:19.000Z</time>
      </trkpt>
      <trkpt lat="44.18207" lon="5.31787">
        <ele>682.8</ele>
        <time>2026-05-14T15:21:20.000Z</time>
      </trkpt>
      <trkpt lat="44.18207" lon="5.31788">
        <ele>682.6</ele>
        <time>2026-05-14T15:21:21.000Z</time>
      </trkpt>
      <trkpt lat="44.18207" lon="5.31789">
        <ele>682.7</ele>
        <time>2026-05-14T15:21:22.000Z</time>
      </trkpt>
      <trkpt lat="44.18207" lon="5.3179">
        <ele>682.6</ele>
        <time>2026-05-14T15:21:23.000Z</time>
      </trkpt>
      <trkpt lat="44.18208" lon="5.31791">
        <ele>682.5</ele>
        <time>2026-05-14T15:21:24.000Z</time>
      </trkpt>
      <trkpt lat="44.18209" lon="5.31792">
        <ele>682.5</ele>
        <time>2026-05-14T15:21:25.000Z</time>
      </trkpt>
      <trkpt lat="44.18209" lon="5.31793">
        <ele>682.7</ele>
        <time>2026-05-14T15:21:26.000Z</time>
      </trkpt>
      <trkpt lat="44.1821" lon="5.31795">
        <ele>682.5</ele>
        <time>2026-05-14T15:21:27.000Z</time>
      </trkpt>
      <trkpt lat="44.18209" lon="5.31796">
        <ele>682.2</ele>
        <time>2026-05-14T15:21:28.000Z</time>
      </trkpt>
      <trkpt lat="44.18208" lon="5.31797">
        <ele>681.9</ele>
        <time>2026-05-14T15:21:29.000Z</time>
      </trkpt>
      <trkpt lat="44.18208" lon="5.31798">
        <ele>681.5</ele>
        <time>2026-05-14T15:21:30.000Z</time>
      </trkpt>
      <trkpt lat="44.18208" lon="5.318">
        <ele>681.1</ele>
        <time>2026-05-14T15:21:31.000Z</time>
      </trkpt>
      <trkpt lat="44.18207" lon="5.31802">
        <ele>680.6</ele>
        <time>2026-05-14T15:21:32.000Z</time>
      </trkpt>
      <trkpt lat="44.18207" lon="5.31802">
        <ele>680.4</ele>
        <time>2026-05-14T15:21:33.000Z</time>
      </trkpt>
      <trkpt lat="44.18206" lon="5.31802">
        <ele>680.3</ele>
        <time>2026-05-14T15:21:34.000Z</time>
      </trkpt>
      <trkpt lat="44.18206" lon="5.31803">
        <ele>679.9</ele>
        <time>2026-05-14T15:21:35.000Z</time>
      </trkpt>
      <trkpt lat="44.18206" lon="5.31805">
        <ele>679.8</ele>
        <time>2026-05-14T15:21:36.000Z</time>
      </trkpt>
      <trkpt lat="44.18205" lon="5.31805">
        <ele>679.8</ele>
        <time>2026-05-14T15:21:37.000Z</time>
      </trkpt>
      <trkpt lat="44.18204" lon="5.31806">
        <ele>679.6</ele>
        <time>2026-05-14T15:21:38.000Z</time>
      </trkpt>
      <trkpt lat="44.18204" lon="5.31807">
        <ele>680.2</ele>
        <time>2026-05-14T15:21:39.000Z</time>
      </trkpt>
      <trkpt lat="44.18204" lon="5.31807">
        <ele>680.6</ele>
        <time>2026-05-14T15:21:40.000Z</time>
      </trkpt>
      <trkpt lat="44.18204" lon="5.31807">
        <ele>681</ele>
        <time>2026-05-14T15:21:41.000Z</time>
      </trkpt>
      <trkpt lat="44.18204" lon="5.31807">
        <ele>681.1</ele>
        <time>2026-05-14T15:21:42.000Z</time>
      </trkpt>
      <trkpt lat="44.18204" lon="5.31807">
        <ele>680.8</ele>
        <time>2026-05-14T15:21:43.000Z</time>
      </trkpt>
      <trkpt lat="44.18204" lon="5.31807">
        <ele>680.5</ele>
        <time>2026-05-14T15:21:44.000Z</time>
      </trkpt>
      <trkpt lat="44.18203" lon="5.31808">
        <ele>680.2</ele>
        <time>2026-05-14T15:21:45.000Z</time>
      </trkpt>
      <trkpt lat="44.18203" lon="5.31808">
        <ele>679.8</ele>
        <time>2026-05-14T15:21:46.000Z</time>
      </trkpt>
      <trkpt lat="44.18202" lon="5.31808">
        <ele>679.4</ele>
        <time>2026-05-14T15:21:47.000Z</time>
      </trkpt>
      <trkpt lat="44.18202" lon="5.31809">
        <ele>679.3</ele>
        <time>2026-05-14T15:21:48.000Z</time>
      </trkpt>
      <trkpt lat="44.18202" lon="5.31809">
        <ele>679.1</ele>
        <time>2026-05-14T15:21:49.000Z</time>
      </trkpt>
      <trkpt lat="44.18201" lon="5.31811">
        <ele>678.9</ele>
        <time>2026-05-14T15:21:50.000Z</time>
      </trkpt>
      <trkpt lat="44.182" lon="5.31813">
        <ele>678.9</ele>
        <time>2026-05-14T15:21:51.000Z</time>
      </trkpt>
      <trkpt lat="44.18199" lon="5.31815">
        <ele>678.9</ele>
        <time>2026-05-14T15:21:52.000Z</time>
      </trkpt>
      <trkpt lat="44.18198" lon="5.31817">
        <ele>678.9</ele>
        <time>2026-05-14T15:21:53.000Z</time>
      </trkpt>
      <trkpt lat="44.18197" lon="5.31819">
        <ele>678.7</ele>
        <time>2026-05-14T15:21:54.000Z</time>
      </trkpt>
      <trkpt lat="44.18197" lon="5.3182">
        <ele>678.6</ele>
        <time>2026-05-14T15:21:55.000Z</time>
      </trkpt>
      <trkpt lat="44.18196" lon="5.31822">
        <ele>678.4</ele>
        <time>2026-05-14T15:21:56.000Z</time>
      </trkpt>
      <trkpt lat="44.18195" lon="5.31824">
        <ele>678.4</ele>
        <time>2026-05-14T15:21:57.000Z</time>
      </trkpt>
      <trkpt lat="44.18194" lon="5.31826">
        <ele>678.6</ele>
        <time>2026-05-14T15:21:58.000Z</time>
      </trkpt>
      <trkpt lat="44.18193" lon="5.31827">
        <ele>678.6</ele>
        <time>2026-05-14T15:21:59.000Z</time>
      </trkpt>
      <trkpt lat="44.18193" lon="5.31827">
        <ele>678.5</ele>
        <time>2026-05-14T15:22:00.000Z</time>
      </trkpt>
      <trkpt lat="44.18193" lon="5.31827">
        <ele>678.8</ele>
        <time>2026-05-14T15:22:01.000Z</time>
      </trkpt>
      <trkpt lat="44.18193" lon="5.31828">
        <ele>678.8</ele>
        <time>2026-05-14T15:22:02.000Z</time>
      </trkpt>
      <trkpt lat="44.18192" lon="5.31828">
        <ele>678.8</ele>
        <time>2026-05-14T15:22:03.000Z</time>
      </trkpt>
      <trkpt lat="44.18192" lon="5.31828">
        <ele>678.8</ele>
        <time>2026-05-14T15:22:04.000Z</time>
      </trkpt>
      <trkpt lat="44.18192" lon="5.31828">
        <ele>678.9</ele>
        <time>2026-05-14T15:22:05.000Z</time>
      </trkpt>
      <trkpt lat="44.18191" lon="5.31828">
        <ele>678.9</ele>
        <time>2026-05-14T15:22:06.000Z</time>
      </trkpt>
      <trkpt lat="44.18191" lon="5.31829">
        <ele>678.8</ele>
        <time>2026-05-14T15:22:07.000Z</time>
      </trkpt>
      <trkpt lat="44.1819" lon="5.3183">
        <ele>678.8</ele>
        <time>2026-05-14T15:22:08.000Z</time>
      </trkpt>
      <trkpt lat="44.1819" lon="5.31831">
        <ele>678.6</ele>
        <time>2026-05-14T15:22:09.000Z</time>
      </trkpt>
      <trkpt lat="44.18189" lon="5.31832">
        <ele>678.5</ele>
        <time>2026-05-14T15:22:10.000Z</time>
      </trkpt>
      <trkpt lat="44.18189" lon="5.31833">
        <ele>678.5</ele>
        <time>2026-05-14T15:22:11.000Z</time>
      </trkpt>
      <trkpt lat="44.18188" lon="5.31834">
        <ele>678.3</ele>
        <time>2026-05-14T15:22:12.000Z</time>
      </trkpt>
      <trkpt lat="44.18188" lon="5.31835">
        <ele>678.3</ele>
        <time>2026-05-14T15:22:13.000Z</time>
      </trkpt>
      <trkpt lat="44.18187" lon="5.31836">
        <ele>678.5</ele>
        <time>2026-05-14T15:22:14.000Z</time>
      </trkpt>
      <trkpt lat="44.18187" lon="5.31837">
        <ele>678.5</ele>
        <time>2026-05-14T15:22:15.000Z</time>
      </trkpt>
      <trkpt lat="44.18186" lon="5.31837">
        <ele>678.4</ele>
        <time>2026-05-14T15:22:16.000Z</time>
      </trkpt>
      <trkpt lat="44.18186" lon="5.31839">
        <ele>678.6</ele>
        <time>2026-05-14T15:22:17.000Z</time>
      </trkpt>
      <trkpt lat="44.18186" lon="5.3184">
        <ele>678.7</ele>
        <time>2026-05-14T15:22:18.000Z</time>
      </trkpt>
      <trkpt lat="44.18185" lon="5.31841">
        <ele>678.8</ele>
        <time>2026-05-14T15:22:19.000Z</time>
      </trkpt>
      <trkpt lat="44.18185" lon="5.31843">
        <ele>678.8</ele>
        <time>2026-05-14T15:22:20.000Z</time>
      </trkpt>
      <trkpt lat="44.18185" lon="5.31844">
        <ele>678.7</ele>
        <time>2026-05-14T15:22:21.000Z</time>
      </trkpt>
      <trkpt lat="44.18185" lon="5.31845">
        <ele>678.8</ele>
        <time>2026-05-14T15:22:22.000Z</time>
      </trkpt>
      <trkpt lat="44.18185" lon="5.31846">
        <ele>678.6</ele>
        <time>2026-05-14T15:22:23.000Z</time>
      </trkpt>
      <trkpt lat="44.18185" lon="5.31846">
        <ele>678.5</ele>
        <time>2026-05-14T15:22:24.000Z</time>
      </trkpt>
      <trkpt lat="44.18185" lon="5.31847">
        <ele>678.1</ele>
        <time>2026-05-14T15:22:25.000Z</time>
      </trkpt>
      <trkpt lat="44.18185" lon="5.31849">
        <ele>678.2</ele>
        <time>2026-05-14T15:22:26.000Z</time>
      </trkpt>
      <trkpt lat="44.18185" lon="5.31849">
        <ele>678.2</ele>
        <time>2026-05-14T15:22:27.000Z</time>
      </trkpt>
      <trkpt lat="44.18185" lon="5.3185">
        <ele>678.3</ele>
        <time>2026-05-14T15:22:28.000Z</time>
      </trkpt>
      <trkpt lat="44.18184" lon="5.31852">
        <ele>678.1</ele>
        <time>2026-05-14T15:22:29.000Z</time>
      </trkpt>
      <trkpt lat="44.18185" lon="5.31854">
        <ele>678.2</ele>
        <time>2026-05-14T15:22:30.000Z</time>
      </trkpt>
      <trkpt lat="44.18185" lon="5.31856">
        <ele>678.1</ele>
        <time>2026-05-14T15:22:31.000Z</time>
      </trkpt>
      <trkpt lat="44.18185" lon="5.31857">
        <ele>678</ele>
        <time>2026-05-14T15:22:32.000Z</time>
      </trkpt>
      <trkpt lat="44.18185" lon="5.31859">
        <ele>677.6</ele>
        <time>2026-05-14T15:22:33.000Z</time>
      </trkpt>
      <trkpt lat="44.18184" lon="5.3186">
        <ele>677.4</ele>
        <time>2026-05-14T15:22:34.000Z</time>
      </trkpt>
      <trkpt lat="44.18184" lon="5.31861">
        <ele>677.2</ele>
        <time>2026-05-14T15:22:35.000Z</time>
      </trkpt>
      <trkpt lat="44.18184" lon="5.31862">
        <ele>677.1</ele>
        <time>2026-05-14T15:22:36.000Z</time>
      </trkpt>
      <trkpt lat="44.18184" lon="5.31864">
        <ele>677</ele>
        <time>2026-05-14T15:22:37.000Z</time>
      </trkpt>
      <trkpt lat="44.18183" lon="5.31865">
        <ele>677.2</ele>
        <time>2026-05-14T15:22:38.000Z</time>
      </trkpt>
      <trkpt lat="44.18183" lon="5.31867">
        <ele>677.4</ele>
        <time>2026-05-14T15:22:39.000Z</time>
      </trkpt>
      <trkpt lat="44.18182" lon="5.31868">
        <ele>677.4</ele>
        <time>2026-05-14T15:22:40.000Z</time>
      </trkpt>
      <trkpt lat="44.18182" lon="5.31869">
        <ele>677.3</ele>
        <time>2026-05-14T15:22:41.000Z</time>
      </trkpt>
      <trkpt lat="44.18183" lon="5.3187">
        <ele>677.2</ele>
        <time>2026-05-14T15:22:42.000Z</time>
      </trkpt>
      <trkpt lat="44.18183" lon="5.31871">
        <ele>677.2</ele>
        <time>2026-05-14T15:22:43.000Z</time>
      </trkpt>
      <trkpt lat="44.18183" lon="5.31872">
        <ele>676.9</ele>
        <time>2026-05-14T15:22:44.000Z</time>
      </trkpt>
      <trkpt lat="44.18183" lon="5.31874">
        <ele>676.9</ele>
        <time>2026-05-14T15:22:45.000Z</time>
      </trkpt>
      <trkpt lat="44.18183" lon="5.31876">
        <ele>676.4</ele>
        <time>2026-05-14T15:22:46.000Z</time>
      </trkpt>
      <trkpt lat="44.18182" lon="5.31877">
        <ele>676.3</ele>
        <time>2026-05-14T15:22:47.000Z</time>
      </trkpt>
      <trkpt lat="44.18181" lon="5.31878">
        <ele>676.4</ele>
        <time>2026-05-14T15:22:48.000Z</time>
      </trkpt>
      <trkpt lat="44.1818" lon="5.3188">
        <ele>676.7</ele>
        <time>2026-05-14T15:22:49.000Z</time>
      </trkpt>
      <trkpt lat="44.1818" lon="5.31881">
        <ele>677.1</ele>
        <time>2026-05-14T15:22:50.000Z</time>
      </trkpt>
      <trkpt lat="44.1818" lon="5.31882">
        <ele>677.1</ele>
        <time>2026-05-14T15:22:51.000Z</time>
      </trkpt>
      <trkpt lat="44.18179" lon="5.31884">
        <ele>677.2</ele>
        <time>2026-05-14T15:22:52.000Z</time>
      </trkpt>
      <trkpt lat="44.18179" lon="5.31884">
        <ele>676.7</ele>
        <time>2026-05-14T15:22:53.000Z</time>
      </trkpt>
      <trkpt lat="44.18178" lon="5.31885">
        <ele>676.2</ele>
        <time>2026-05-14T15:22:54.000Z</time>
      </trkpt>
      <trkpt lat="44.18177" lon="5.31886">
        <ele>676.3</ele>
        <time>2026-05-14T15:22:55.000Z</time>
      </trkpt>
      <trkpt lat="44.18176" lon="5.31886">
        <ele>676.4</ele>
        <time>2026-05-14T15:22:56.000Z</time>
      </trkpt>
      <trkpt lat="44.18176" lon="5.31886">
        <ele>676.1</ele>
        <time>2026-05-14T15:22:57.000Z</time>
      </trkpt>
      <trkpt lat="44.18175" lon="5.31887">
        <ele>676.2</ele>
        <time>2026-05-14T15:22:58.000Z</time>
      </trkpt>
      <trkpt lat="44.18174" lon="5.31889">
        <ele>676.3</ele>
        <time>2026-05-14T15:22:59.000Z</time>
      </trkpt>
      <trkpt lat="44.18174" lon="5.3189">
        <ele>676.5</ele>
        <time>2026-05-14T15:23:00.000Z</time>
      </trkpt>
      <trkpt lat="44.18173" lon="5.31891">
        <ele>677</ele>
        <time>2026-05-14T15:23:01.000Z</time>
      </trkpt>
      <trkpt lat="44.18173" lon="5.31892">
        <ele>677</ele>
        <time>2026-05-14T15:23:02.000Z</time>
      </trkpt>
      <trkpt lat="44.18172" lon="5.31892">
        <ele>676.8</ele>
        <time>2026-05-14T15:23:03.000Z</time>
      </trkpt>
      <trkpt lat="44.18171" lon="5.31892">
        <ele>676.6</ele>
        <time>2026-05-14T15:23:04.000Z</time>
      </trkpt>
      <trkpt lat="44.1817" lon="5.31894">
        <ele>676.5</ele>
        <time>2026-05-14T15:23:05.000Z</time>
      </trkpt>
      <trkpt lat="44.18168" lon="5.31895">
        <ele>676.1</ele>
        <time>2026-05-14T15:23:06.000Z</time>
      </trkpt>
      <trkpt lat="44.18167" lon="5.31896">
        <ele>675.9</ele>
        <time>2026-05-14T15:23:07.000Z</time>
      </trkpt>
      <trkpt lat="44.18166" lon="5.31897">
        <ele>675.4</ele>
        <time>2026-05-14T15:23:08.000Z</time>
      </trkpt>
      <trkpt lat="44.18165" lon="5.31897">
        <ele>675.5</ele>
        <time>2026-05-14T15:23:09.000Z</time>
      </trkpt>
      <trkpt lat="44.18165" lon="5.31898">
        <ele>676.2</ele>
        <time>2026-05-14T15:23:10.000Z</time>
      </trkpt>
      <trkpt lat="44.18164" lon="5.31899">
        <ele>676.6</ele>
        <time>2026-05-14T15:23:11.000Z</time>
      </trkpt>
      <trkpt lat="44.18164" lon="5.319">
        <ele>676.8</ele>
        <time>2026-05-14T15:23:12.000Z</time>
      </trkpt>
      <trkpt lat="44.18163" lon="5.31901">
        <ele>676.4</ele>
        <time>2026-05-14T15:23:13.000Z</time>
      </trkpt>
      <trkpt lat="44.18162" lon="5.31903">
        <ele>676.2</ele>
        <time>2026-05-14T15:23:14.000Z</time>
      </trkpt>
      <trkpt lat="44.18162" lon="5.31904">
        <ele>676</ele>
        <time>2026-05-14T15:23:15.000Z</time>
      </trkpt>
      <trkpt lat="44.18161" lon="5.31905">
        <ele>676.1</ele>
        <time>2026-05-14T15:23:16.000Z</time>
      </trkpt>
      <trkpt lat="44.18161" lon="5.31905">
        <ele>676.1</ele>
        <time>2026-05-14T15:23:17.000Z</time>
      </trkpt>
      <trkpt lat="44.18161" lon="5.31905">
        <ele>675.8</ele>
        <time>2026-05-14T15:23:18.000Z</time>
      </trkpt>
      <trkpt lat="44.18161" lon="5.31905">
        <ele>675.6</ele>
        <time>2026-05-14T15:23:19.000Z</time>
      </trkpt>
      <trkpt lat="44.18161" lon="5.31905">
        <ele>675.8</ele>
        <time>2026-05-14T15:23:20.000Z</time>
      </trkpt>
      <trkpt lat="44.1816" lon="5.31907">
        <ele>675.9</ele>
        <time>2026-05-14T15:23:21.000Z</time>
      </trkpt>
      <trkpt lat="44.1816" lon="5.31908">
        <ele>675.9</ele>
        <time>2026-05-14T15:23:22.000Z</time>
      </trkpt>
      <trkpt lat="44.18159" lon="5.31909">
        <ele>675.9</ele>
        <time>2026-05-14T15:23:23.000Z</time>
      </trkpt>
      <trkpt lat="44.1816" lon="5.3191">
        <ele>675.5</ele>
        <time>2026-05-14T15:23:24.000Z</time>
      </trkpt>
      <trkpt lat="44.1816" lon="5.31912">
        <ele>675.3</ele>
        <time>2026-05-14T15:23:25.000Z</time>
      </trkpt>
      <trkpt lat="44.18159" lon="5.31913">
        <ele>675.1</ele>
        <time>2026-05-14T15:23:26.000Z</time>
      </trkpt>
      <trkpt lat="44.1816" lon="5.31913">
        <ele>674.1</ele>
        <time>2026-05-14T15:23:27.000Z</time>
      </trkpt>
      <trkpt lat="44.1816" lon="5.31913">
        <ele>674</ele>
        <time>2026-05-14T15:23:28.000Z</time>
      </trkpt>
      <trkpt lat="44.1816" lon="5.31914">
        <ele>673.5</ele>
        <time>2026-05-14T15:23:29.000Z</time>
      </trkpt>
      <trkpt lat="44.18161" lon="5.31915">
        <ele>673.5</ele>
        <time>2026-05-14T15:23:30.000Z</time>
      </trkpt>
      <trkpt lat="44.18161" lon="5.31916">
        <ele>673.3</ele>
        <time>2026-05-14T15:23:31.000Z</time>
      </trkpt>
      <trkpt lat="44.18162" lon="5.31917">
        <ele>673.3</ele>
        <time>2026-05-14T15:23:32.000Z</time>
      </trkpt>
      <trkpt lat="44.18163" lon="5.31918">
        <ele>673.3</ele>
        <time>2026-05-14T15:23:33.000Z</time>
      </trkpt>
      <trkpt lat="44.18164" lon="5.31919">
        <ele>673</ele>
        <time>2026-05-14T15:23:34.000Z</time>
      </trkpt>
      <trkpt lat="44.18164" lon="5.31921">
        <ele>673</ele>
        <time>2026-05-14T15:23:35.000Z</time>
      </trkpt>
      <trkpt lat="44.18165" lon="5.31923">
        <ele>672.9</ele>
        <time>2026-05-14T15:23:36.000Z</time>
      </trkpt>
      <trkpt lat="44.18165" lon="5.31925">
        <ele>672.4</ele>
        <time>2026-05-14T15:23:37.000Z</time>
      </trkpt>
      <trkpt lat="44.18165" lon="5.31926">
        <ele>672.5</ele>
        <time>2026-05-14T15:23:38.000Z</time>
      </trkpt>
      <trkpt lat="44.18165" lon="5.31926">
        <ele>672.3</ele>
        <time>2026-05-14T15:23:39.000Z</time>
      </trkpt>
      <trkpt lat="44.18166" lon="5.31927">
        <ele>671.8</ele>
        <time>2026-05-14T15:23:40.000Z</time>
      </trkpt>
      <trkpt lat="44.18167" lon="5.31928">
        <ele>672</ele>
        <time>2026-05-14T15:23:41.000Z</time>
      </trkpt>
      <trkpt lat="44.18168" lon="5.31929">
        <ele>671.9</ele>
        <time>2026-05-14T15:23:42.000Z</time>
      </trkpt>
      <trkpt lat="44.18168" lon="5.3193">
        <ele>672</ele>
        <time>2026-05-14T15:23:43.000Z</time>
      </trkpt>
      <trkpt lat="44.18169" lon="5.3193">
        <ele>672</ele>
        <time>2026-05-14T15:23:44.000Z</time>
      </trkpt>
      <trkpt lat="44.1817" lon="5.31931">
        <ele>671.9</ele>
        <time>2026-05-14T15:23:45.000Z</time>
      </trkpt>
      <trkpt lat="44.18171" lon="5.31932">
        <ele>672.1</ele>
        <time>2026-05-14T15:23:46.000Z</time>
      </trkpt>
      <trkpt lat="44.18172" lon="5.31932">
        <ele>672.2</ele>
        <time>2026-05-14T15:23:47.000Z</time>
      </trkpt>
      <trkpt lat="44.18173" lon="5.31933">
        <ele>672.2</ele>
        <time>2026-05-14T15:23:48.000Z</time>
      </trkpt>
      <trkpt lat="44.18175" lon="5.31934">
        <ele>672.1</ele>
        <time>2026-05-14T15:23:49.000Z</time>
      </trkpt>
      <trkpt lat="44.18176" lon="5.31935">
        <ele>672.1</ele>
        <time>2026-05-14T15:23:50.000Z</time>
      </trkpt>
      <trkpt lat="44.18177" lon="5.31936">
        <ele>672.2</ele>
        <time>2026-05-14T15:23:51.000Z</time>
      </trkpt>
      <trkpt lat="44.18178" lon="5.31937">
        <ele>672.3</ele>
        <time>2026-05-14T15:23:52.000Z</time>
      </trkpt>
      <trkpt lat="44.18179" lon="5.31937">
        <ele>672.1</ele>
        <time>2026-05-14T15:23:53.000Z</time>
      </trkpt>
      <trkpt lat="44.1818" lon="5.31938">
        <ele>671.6</ele>
        <time>2026-05-14T15:23:54.000Z</time>
      </trkpt>
      <trkpt lat="44.18181" lon="5.3194">
        <ele>671.6</ele>
        <time>2026-05-14T15:23:55.000Z</time>
      </trkpt>
      <trkpt lat="44.18181" lon="5.31943">
        <ele>672.2</ele>
        <time>2026-05-14T15:23:56.000Z</time>
      </trkpt>
      <trkpt lat="44.18183" lon="5.31942">
        <ele>672.7</ele>
        <time>2026-05-14T15:23:57.000Z</time>
      </trkpt>
      <trkpt lat="44.18184" lon="5.31944">
        <ele>673.4</ele>
        <time>2026-05-14T15:23:58.000Z</time>
      </trkpt>
      <trkpt lat="44.18184" lon="5.31945">
        <ele>674.1</ele>
        <time>2026-05-14T15:23:59.000Z</time>
      </trkpt>
      <trkpt lat="44.18184" lon="5.31945">
        <ele>674.2</ele>
        <time>2026-05-14T15:24:00.000Z</time>
      </trkpt>
      <trkpt lat="44.18183" lon="5.31945">
        <ele>674.6</ele>
        <time>2026-05-14T15:24:01.000Z</time>
      </trkpt>
      <trkpt lat="44.18183" lon="5.31946">
        <ele>674.9</ele>
        <time>2026-05-14T15:24:02.000Z</time>
      </trkpt>
      <trkpt lat="44.18184" lon="5.31948">
        <ele>674.7</ele>
        <time>2026-05-14T15:24:03.000Z</time>
      </trkpt>
      <trkpt lat="44.18184" lon="5.31949">
        <ele>674.2</ele>
        <time>2026-05-14T15:24:04.000Z</time>
      </trkpt>
      <trkpt lat="44.18184" lon="5.31949">
        <ele>674.9</ele>
        <time>2026-05-14T15:24:05.000Z</time>
      </trkpt>
      <trkpt lat="44.18184" lon="5.31951">
        <ele>675.3</ele>
        <time>2026-05-14T15:24:06.000Z</time>
      </trkpt>
      <trkpt lat="44.18184" lon="5.31953">
        <ele>675.5</ele>
        <time>2026-05-14T15:24:07.000Z</time>
      </trkpt>
      <trkpt lat="44.18184" lon="5.31954">
        <ele>675.5</ele>
        <time>2026-05-14T15:24:08.000Z</time>
      </trkpt>
      <trkpt lat="44.18183" lon="5.31955">
        <ele>675.9</ele>
        <time>2026-05-14T15:24:09.000Z</time>
      </trkpt>
      <trkpt lat="44.18183" lon="5.31956">
        <ele>676.2</ele>
        <time>2026-05-14T15:24:10.000Z</time>
      </trkpt>
      <trkpt lat="44.18183" lon="5.31958">
        <ele>676.1</ele>
        <time>2026-05-14T15:24:11.000Z</time>
      </trkpt>
      <trkpt lat="44.18183" lon="5.31959">
        <ele>676.1</ele>
        <time>2026-05-14T15:24:12.000Z</time>
      </trkpt>
      <trkpt lat="44.18183" lon="5.31961">
        <ele>675.9</ele>
        <time>2026-05-14T15:24:13.000Z</time>
      </trkpt>
      <trkpt lat="44.18183" lon="5.31962">
        <ele>675.8</ele>
        <time>2026-05-14T15:24:14.000Z</time>
      </trkpt>
      <trkpt lat="44.18183" lon="5.31963">
        <ele>675.1</ele>
        <time>2026-05-14T15:24:15.000Z</time>
      </trkpt>
      <trkpt lat="44.18183" lon="5.31964">
        <ele>674.8</ele>
        <time>2026-05-14T15:24:16.000Z</time>
      </trkpt>
      <trkpt lat="44.18184" lon="5.31965">
        <ele>674.6</ele>
        <time>2026-05-14T15:24:17.000Z</time>
      </trkpt>
      <trkpt lat="44.18184" lon="5.31966">
        <ele>674.3</ele>
        <time>2026-05-14T15:24:18.000Z</time>
      </trkpt>
      <trkpt lat="44.18185" lon="5.31967">
        <ele>673.6</ele>
        <time>2026-05-14T15:24:19.000Z</time>
      </trkpt>
      <trkpt lat="44.18186" lon="5.31967">
        <ele>672.9</ele>
        <time>2026-05-14T15:24:20.000Z</time>
      </trkpt>
      <trkpt lat="44.18187" lon="5.31968">
        <ele>671.5</ele>
        <time>2026-05-14T15:24:21.000Z</time>
      </trkpt>
      <trkpt lat="44.18188" lon="5.31969">
        <ele>670.6</ele>
        <time>2026-05-14T15:24:22.000Z</time>
      </trkpt>
      <trkpt lat="44.18189" lon="5.31969">
        <ele>669.6</ele>
        <time>2026-05-14T15:24:23.000Z</time>
      </trkpt>
      <trkpt lat="44.1819" lon="5.31968">
        <ele>669.6</ele>
        <time>2026-05-14T15:24:24.000Z</time>
      </trkpt>
      <trkpt lat="44.18191" lon="5.31967">
        <ele>669.2</ele>
        <time>2026-05-14T15:24:25.000Z</time>
      </trkpt>
      <trkpt lat="44.18192" lon="5.31966">
        <ele>668.3</ele>
        <time>2026-05-14T15:24:26.000Z</time>
      </trkpt>
      <trkpt lat="44.18194" lon="5.31965">
        <ele>668.4</ele>
        <time>2026-05-14T15:24:27.000Z</time>
      </trkpt>
      <trkpt lat="44.18195" lon="5.31965">
        <ele>668.2</ele>
        <time>2026-05-14T15:24:28.000Z</time>
      </trkpt>
      <trkpt lat="44.18195" lon="5.31964">
        <ele>667.1</ele>
        <time>2026-05-14T15:24:29.000Z</time>
      </trkpt>
      <trkpt lat="44.18195" lon="5.31964">
        <ele>666.4</ele>
        <time>2026-05-14T15:24:30.000Z</time>
      </trkpt>
      <trkpt lat="44.18196" lon="5.31964">
        <ele>665.8</ele>
        <time>2026-05-14T15:24:31.000Z</time>
      </trkpt>
      <trkpt lat="44.18196" lon="5.31963">
        <ele>665.1</ele>
        <time>2026-05-14T15:24:32.000Z</time>
      </trkpt>
      <trkpt lat="44.18197" lon="5.31962">
        <ele>664.9</ele>
        <time>2026-05-14T15:24:33.000Z</time>
      </trkpt>
      <trkpt lat="44.18198" lon="5.31961">
        <ele>665.4</ele>
        <time>2026-05-14T15:24:34.000Z</time>
      </trkpt>
      <trkpt lat="44.18199" lon="5.31959">
        <ele>665.8</ele>
        <time>2026-05-14T15:24:35.000Z</time>
      </trkpt>
      <trkpt lat="44.18199" lon="5.31957">
        <ele>666.3</ele>
        <time>2026-05-14T15:24:36.000Z</time>
      </trkpt>
      <trkpt lat="44.182" lon="5.31956">
        <ele>666.6</ele>
        <time>2026-05-14T15:24:37.000Z</time>
      </trkpt>
      <trkpt lat="44.182" lon="5.31955">
        <ele>666.8</ele>
        <time>2026-05-14T15:24:38.000Z</time>
      </trkpt>
      <trkpt lat="44.18201" lon="5.31953">
        <ele>667.3</ele>
        <time>2026-05-14T15:24:39.000Z</time>
      </trkpt>
      <trkpt lat="44.18202" lon="5.31952">
        <ele>667.7</ele>
        <time>2026-05-14T15:24:40.000Z</time>
      </trkpt>
      <trkpt lat="44.18203" lon="5.31952">
        <ele>668</ele>
        <time>2026-05-14T15:24:41.000Z</time>
      </trkpt>
      <trkpt lat="44.18203" lon="5.3195">
        <ele>668.1</ele>
        <time>2026-05-14T15:24:42.000Z</time>
      </trkpt>
      <trkpt lat="44.18204" lon="5.31949">
        <ele>668.7</ele>
        <time>2026-05-14T15:24:43.000Z</time>
      </trkpt>
      <trkpt lat="44.18205" lon="5.31948">
        <ele>669</ele>
        <time>2026-05-14T15:24:44.000Z</time>
      </trkpt>
      <trkpt lat="44.18205" lon="5.31947">
        <ele>669</ele>
        <time>2026-05-14T15:24:45.000Z</time>
      </trkpt>
      <trkpt lat="44.18206" lon="5.31945">
        <ele>668.8</ele>
        <time>2026-05-14T15:24:46.000Z</time>
      </trkpt>
      <trkpt lat="44.18207" lon="5.31945">
        <ele>669</ele>
        <time>2026-05-14T15:24:47.000Z</time>
      </trkpt>
      <trkpt lat="44.18208" lon="5.31944">
        <ele>668.8</ele>
        <time>2026-05-14T15:24:48.000Z</time>
      </trkpt>
      <trkpt lat="44.18208" lon="5.31944">
        <ele>668.2</ele>
        <time>2026-05-14T15:24:49.000Z</time>
      </trkpt>
      <trkpt lat="44.18209" lon="5.31943">
        <ele>668.3</ele>
        <time>2026-05-14T15:24:50.000Z</time>
      </trkpt>
      <trkpt lat="44.18209" lon="5.31942">
        <ele>668.2</ele>
        <time>2026-05-14T15:24:51.000Z</time>
      </trkpt>
      <trkpt lat="44.18209" lon="5.31941">
        <ele>668.3</ele>
        <time>2026-05-14T15:24:52.000Z</time>
      </trkpt>
      <trkpt lat="44.1821" lon="5.31941">
        <ele>668.2</ele>
        <time>2026-05-14T15:24:53.000Z</time>
      </trkpt>
      <trkpt lat="44.1821" lon="5.3194">
        <ele>668.5</ele>
        <time>2026-05-14T15:24:54.000Z</time>
      </trkpt>
      <trkpt lat="44.18211" lon="5.3194">
        <ele>668.5</ele>
        <time>2026-05-14T15:24:55.000Z</time>
      </trkpt>
      <trkpt lat="44.18212" lon="5.31939">
        <ele>668.8</ele>
        <time>2026-05-14T15:24:56.000Z</time>
      </trkpt>
      <trkpt lat="44.18213" lon="5.31938">
        <ele>668.1</ele>
        <time>2026-05-14T15:24:57.000Z</time>
      </trkpt>
      <trkpt lat="44.18213" lon="5.31937">
        <ele>667</ele>
        <time>2026-05-14T15:24:58.000Z</time>
      </trkpt>
      <trkpt lat="44.18213" lon="5.31936">
        <ele>666.5</ele>
        <time>2026-05-14T15:24:59.000Z</time>
      </trkpt>
      <trkpt lat="44.18214" lon="5.31936">
        <ele>666.2</ele>
        <time>2026-05-14T15:25:00.000Z</time>
      </trkpt>
      <trkpt lat="44.18214" lon="5.31935">
        <ele>666.1</ele>
        <time>2026-05-14T15:25:01.000Z</time>
      </trkpt>
      <trkpt lat="44.18215" lon="5.31935">
        <ele>666</ele>
        <time>2026-05-14T15:25:02.000Z</time>
      </trkpt>
      <trkpt lat="44.18216" lon="5.31934">
        <ele>666</ele>
        <time>2026-05-14T15:25:03.000Z</time>
      </trkpt>
      <trkpt lat="44.18217" lon="5.31934">
        <ele>666</ele>
        <time>2026-05-14T15:25:04.000Z</time>
      </trkpt>
      <trkpt lat="44.18218" lon="5.31933">
        <ele>665.7</ele>
        <time>2026-05-14T15:25:05.000Z</time>
      </trkpt>
      <trkpt lat="44.18218" lon="5.31932">
        <ele>665.4</ele>
        <time>2026-05-14T15:25:06.000Z</time>
      </trkpt>
      <trkpt lat="44.18219" lon="5.3193">
        <ele>665</ele>
        <time>2026-05-14T15:25:07.000Z</time>
      </trkpt>
      <trkpt lat="44.1822" lon="5.31928">
        <ele>665.6</ele>
        <time>2026-05-14T15:25:08.000Z</time>
      </trkpt>
      <trkpt lat="44.1822" lon="5.31927">
        <ele>665.7</ele>
        <time>2026-05-14T15:25:09.000Z</time>
      </trkpt>
      <trkpt lat="44.1822" lon="5.31926">
        <ele>665.9</ele>
        <time>2026-05-14T15:25:10.000Z</time>
      </trkpt>
      <trkpt lat="44.18221" lon="5.31925">
        <ele>665.5</ele>
        <time>2026-05-14T15:25:11.000Z</time>
      </trkpt>
      <trkpt lat="44.18221" lon="5.31925">
        <ele>665.2</ele>
        <time>2026-05-14T15:25:12.000Z</time>
      </trkpt>
      <trkpt lat="44.18221" lon="5.31924">
        <ele>664.5</ele>
        <time>2026-05-14T15:25:13.000Z</time>
      </trkpt>
      <trkpt lat="44.18222" lon="5.31924">
        <ele>663.7</ele>
        <time>2026-05-14T15:25:14.000Z</time>
      </trkpt>
      <trkpt lat="44.18223" lon="5.31923">
        <ele>663.6</ele>
        <time>2026-05-14T15:25:15.000Z</time>
      </trkpt>
      <trkpt lat="44.18225" lon="5.31922">
        <ele>663.5</ele>
        <time>2026-05-14T15:25:16.000Z</time>
      </trkpt>
      <trkpt lat="44.18225" lon="5.31921">
        <ele>663.2</ele>
        <time>2026-05-14T15:25:17.000Z</time>
      </trkpt>
      <trkpt lat="44.18226" lon="5.3192">
        <ele>662.6</ele>
        <time>2026-05-14T15:25:18.000Z</time>
      </trkpt>
      <trkpt lat="44.18227" lon="5.3192">
        <ele>662.2</ele>
        <time>2026-05-14T15:25:19.000Z</time>
      </trkpt>
      <trkpt lat="44.18228" lon="5.31919">
        <ele>662.2</ele>
        <time>2026-05-14T15:25:20.000Z</time>
      </trkpt>
      <trkpt lat="44.18228" lon="5.31918">
        <ele>662.1</ele>
        <time>2026-05-14T15:25:21.000Z</time>
      </trkpt>
      <trkpt lat="44.18229" lon="5.31917">
        <ele>662</ele>
        <time>2026-05-14T15:25:22.000Z</time>
      </trkpt>
      <trkpt lat="44.18229" lon="5.31917">
        <ele>661.3</ele>
        <time>2026-05-14T15:25:23.000Z</time>
      </trkpt>
      <trkpt lat="44.18229" lon="5.31916">
        <ele>661.5</ele>
        <time>2026-05-14T15:25:24.000Z</time>
      </trkpt>
      <trkpt lat="44.1823" lon="5.31915">
        <ele>661.8</ele>
        <time>2026-05-14T15:25:25.000Z</time>
      </trkpt>
      <trkpt lat="44.1823" lon="5.31914">
        <ele>661.9</ele>
        <time>2026-05-14T15:25:26.000Z</time>
      </trkpt>
      <trkpt lat="44.18231" lon="5.31915">
        <ele>661.5</ele>
        <time>2026-05-14T15:25:27.000Z</time>
      </trkpt>
      <trkpt lat="44.18232" lon="5.31914">
        <ele>661.9</ele>
        <time>2026-05-14T15:25:28.000Z</time>
      </trkpt>
      <trkpt lat="44.18232" lon="5.31912">
        <ele>662.5</ele>
        <time>2026-05-14T15:25:29.000Z</time>
      </trkpt>
      <trkpt lat="44.18232" lon="5.3191">
        <ele>662.5</ele>
        <time>2026-05-14T15:25:30.000Z</time>
      </trkpt>
      <trkpt lat="44.18233" lon="5.31908">
        <ele>662.7</ele>
        <time>2026-05-14T15:25:31.000Z</time>
      </trkpt>
      <trkpt lat="44.18233" lon="5.31907">
        <ele>662.8</ele>
        <time>2026-05-14T15:25:32.000Z</time>
      </trkpt>
      <trkpt lat="44.18234" lon="5.31905">
        <ele>662.8</ele>
        <time>2026-05-14T15:25:33.000Z</time>
      </trkpt>
      <trkpt lat="44.18235" lon="5.31904">
        <ele>662.9</ele>
        <time>2026-05-14T15:25:34.000Z</time>
      </trkpt>
      <trkpt lat="44.18236" lon="5.31903">
        <ele>663.1</ele>
        <time>2026-05-14T15:25:35.000Z</time>
      </trkpt>
      <trkpt lat="44.18236" lon="5.31901">
        <ele>663.3</ele>
        <time>2026-05-14T15:25:36.000Z</time>
      </trkpt>
      <trkpt lat="44.18237" lon="5.319">
        <ele>663.4</ele>
        <time>2026-05-14T15:25:37.000Z</time>
      </trkpt>
      <trkpt lat="44.18237" lon="5.31899">
        <ele>663.6</ele>
        <time>2026-05-14T15:25:38.000Z</time>
      </trkpt>
      <trkpt lat="44.18238" lon="5.31898">
        <ele>663.8</ele>
        <time>2026-05-14T15:25:39.000Z</time>
      </trkpt>
      <trkpt lat="44.18238" lon="5.31897">
        <ele>664</ele>
        <time>2026-05-14T15:25:40.000Z</time>
      </trkpt>
      <trkpt lat="44.18239" lon="5.31896">
        <ele>664.3</ele>
        <time>2026-05-14T15:25:41.000Z</time>
      </trkpt>
      <trkpt lat="44.18239" lon="5.31895">
        <ele>664.3</ele>
        <time>2026-05-14T15:25:42.000Z</time>
      </trkpt>
      <trkpt lat="44.1824" lon="5.31896">
        <ele>664.3</ele>
        <time>2026-05-14T15:25:43.000Z</time>
      </trkpt>
      <trkpt lat="44.18241" lon="5.31895">
        <ele>664.6</ele>
        <time>2026-05-14T15:25:44.000Z</time>
      </trkpt>
      <trkpt lat="44.18242" lon="5.31894">
        <ele>664.1</ele>
        <time>2026-05-14T15:25:45.000Z</time>
      </trkpt>
      <trkpt lat="44.18243" lon="5.31893">
        <ele>664</ele>
        <time>2026-05-14T15:25:46.000Z</time>
      </trkpt>
      <trkpt lat="44.18244" lon="5.31893">
        <ele>664.2</ele>
        <time>2026-05-14T15:25:47.000Z</time>
      </trkpt>
      <trkpt lat="44.18245" lon="5.31893">
        <ele>664</ele>
        <time>2026-05-14T15:25:48.000Z</time>
      </trkpt>
      <trkpt lat="44.18246" lon="5.31892">
        <ele>663.9</ele>
        <time>2026-05-14T15:25:49.000Z</time>
      </trkpt>
      <trkpt lat="44.18246" lon="5.31891">
        <ele>663.9</ele>
        <time>2026-05-14T15:25:50.000Z</time>
      </trkpt>
      <trkpt lat="44.18247" lon="5.3189">
        <ele>663.9</ele>
        <time>2026-05-14T15:25:51.000Z</time>
      </trkpt>
      <trkpt lat="44.18247" lon="5.31889">
        <ele>663.7</ele>
        <time>2026-05-14T15:25:52.000Z</time>
      </trkpt>
      <trkpt lat="44.18248" lon="5.31888">
        <ele>663.6</ele>
        <time>2026-05-14T15:25:53.000Z</time>
      </trkpt>
      <trkpt lat="44.18249" lon="5.31887">
        <ele>663.1</ele>
        <time>2026-05-14T15:25:54.000Z</time>
      </trkpt>
      <trkpt lat="44.1825" lon="5.31886">
        <ele>663</ele>
        <time>2026-05-14T15:25:55.000Z</time>
      </trkpt>
      <trkpt lat="44.1825" lon="5.31885">
        <ele>663</ele>
        <time>2026-05-14T15:25:56.000Z</time>
      </trkpt>
      <trkpt lat="44.18251" lon="5.31884">
        <ele>662.9</ele>
        <time>2026-05-14T15:25:57.000Z</time>
      </trkpt>
      <trkpt lat="44.18252" lon="5.31884">
        <ele>663</ele>
        <time>2026-05-14T15:25:58.000Z</time>
      </trkpt>
      <trkpt lat="44.18253" lon="5.31884">
        <ele>663</ele>
        <time>2026-05-14T15:25:59.000Z</time>
      </trkpt>
      <trkpt lat="44.18254" lon="5.31884">
        <ele>663</ele>
        <time>2026-05-14T15:26:00.000Z</time>
      </trkpt>
      <trkpt lat="44.18254" lon="5.31882">
        <ele>662.8</ele>
        <time>2026-05-14T15:26:01.000Z</time>
      </trkpt>
      <trkpt lat="44.18255" lon="5.31882">
        <ele>662.5</ele>
        <time>2026-05-14T15:26:02.000Z</time>
      </trkpt>
      <trkpt lat="44.18255" lon="5.31881">
        <ele>662.3</ele>
        <time>2026-05-14T15:26:03.000Z</time>
      </trkpt>
      <trkpt lat="44.18256" lon="5.31882">
        <ele>661.9</ele>
        <time>2026-05-14T15:26:04.000Z</time>
      </trkpt>
      <trkpt lat="44.18256" lon="5.31882">
        <ele>662.1</ele>
        <time>2026-05-14T15:26:05.000Z</time>
      </trkpt>
      <trkpt lat="44.18257" lon="5.31881">
        <ele>662.1</ele>
        <time>2026-05-14T15:26:06.000Z</time>
      </trkpt>
      <trkpt lat="44.18258" lon="5.3188">
        <ele>662</ele>
        <time>2026-05-14T15:26:07.000Z</time>
      </trkpt>
      <trkpt lat="44.18258" lon="5.3188">
        <ele>661.4</ele>
        <time>2026-05-14T15:26:08.000Z</time>
      </trkpt>
      <trkpt lat="44.18259" lon="5.3188">
        <ele>661.4</ele>
        <time>2026-05-14T15:26:09.000Z</time>
      </trkpt>
      <trkpt lat="44.18259" lon="5.31879">
        <ele>661.7</ele>
        <time>2026-05-14T15:26:10.000Z</time>
      </trkpt>
      <trkpt lat="44.1826" lon="5.31879">
        <ele>661.9</ele>
        <time>2026-05-14T15:26:11.000Z</time>
      </trkpt>
      <trkpt lat="44.18261" lon="5.31879">
        <ele>662.3</ele>
        <time>2026-05-14T15:26:12.000Z</time>
      </trkpt>
      <trkpt lat="44.18262" lon="5.31878">
        <ele>662.3</ele>
        <time>2026-05-14T15:26:13.000Z</time>
      </trkpt>
      <trkpt lat="44.18262" lon="5.31877">
        <ele>662.2</ele>
        <time>2026-05-14T15:26:14.000Z</time>
      </trkpt>
      <trkpt lat="44.18263" lon="5.31877">
        <ele>661.3</ele>
        <time>2026-05-14T15:26:15.000Z</time>
      </trkpt>
      <trkpt lat="44.18263" lon="5.31877">
        <ele>661</ele>
        <time>2026-05-14T15:26:16.000Z</time>
      </trkpt>
      <trkpt lat="44.18264" lon="5.31877">
        <ele>661.2</ele>
        <time>2026-05-14T15:26:17.000Z</time>
      </trkpt>
      <trkpt lat="44.18264" lon="5.31876">
        <ele>661.1</ele>
        <time>2026-05-14T15:26:18.000Z</time>
      </trkpt>
      <trkpt lat="44.18265" lon="5.31875">
        <ele>661.2</ele>
        <time>2026-05-14T15:26:19.000Z</time>
      </trkpt>
      <trkpt lat="44.18266" lon="5.31875">
        <ele>661.2</ele>
        <time>2026-05-14T15:26:20.000Z</time>
      </trkpt>
      <trkpt lat="44.18267" lon="5.31874">
        <ele>661.3</ele>
        <time>2026-05-14T15:26:21.000Z</time>
      </trkpt>
      <trkpt lat="44.18267" lon="5.31872">
        <ele>661.2</ele>
        <time>2026-05-14T15:26:22.000Z</time>
      </trkpt>
      <trkpt lat="44.18268" lon="5.31871">
        <ele>661</ele>
        <time>2026-05-14T15:26:23.000Z</time>
      </trkpt>
      <trkpt lat="44.1827" lon="5.31871">
        <ele>660.6</ele>
        <time>2026-05-14T15:26:24.000Z</time>
      </trkpt>
      <trkpt lat="44.18271" lon="5.3187">
        <ele>660.7</ele>
        <time>2026-05-14T15:26:25.000Z</time>
      </trkpt>
      <trkpt lat="44.18272" lon="5.31868">
        <ele>660.9</ele>
        <time>2026-05-14T15:26:26.000Z</time>
      </trkpt>
      <trkpt lat="44.18273" lon="5.31867">
        <ele>660.9</ele>
        <time>2026-05-14T15:26:27.000Z</time>
      </trkpt>
      <trkpt lat="44.18274" lon="5.31867">
        <ele>661.1</ele>
        <time>2026-05-14T15:26:28.000Z</time>
      </trkpt>
      <trkpt lat="44.18276" lon="5.31866">
        <ele>661.4</ele>
        <time>2026-05-14T15:26:29.000Z</time>
      </trkpt>
      <trkpt lat="44.18277" lon="5.31865">
        <ele>661.4</ele>
        <time>2026-05-14T15:26:30.000Z</time>
      </trkpt>
      <trkpt lat="44.18278" lon="5.31865">
        <ele>661.5</ele>
        <time>2026-05-14T15:26:31.000Z</time>
      </trkpt>
      <trkpt lat="44.1828" lon="5.31864">
        <ele>661.4</ele>
        <time>2026-05-14T15:26:32.000Z</time>
      </trkpt>
      <trkpt lat="44.1828" lon="5.31863">
        <ele>661.4</ele>
        <time>2026-05-14T15:26:33.000Z</time>
      </trkpt>
      <trkpt lat="44.1828" lon="5.31862">
        <ele>661.9</ele>
        <time>2026-05-14T15:26:34.000Z</time>
      </trkpt>
      <trkpt lat="44.18281" lon="5.31861">
        <ele>662</ele>
        <time>2026-05-14T15:26:35.000Z</time>
      </trkpt>
      <trkpt lat="44.18283" lon="5.3186">
        <ele>661.8</ele>
        <time>2026-05-14T15:26:36.000Z</time>
      </trkpt>
      <trkpt lat="44.18284" lon="5.3186">
        <ele>662.2</ele>
        <time>2026-05-14T15:26:37.000Z</time>
      </trkpt>
      <trkpt lat="44.18286" lon="5.3186">
        <ele>662.5</ele>
        <time>2026-05-14T15:26:38.000Z</time>
      </trkpt>
      <trkpt lat="44.18287" lon="5.31859">
        <ele>662.2</ele>
        <time>2026-05-14T15:26:39.000Z</time>
      </trkpt>
      <trkpt lat="44.18286" lon="5.31859">
        <ele>661.5</ele>
        <time>2026-05-14T15:26:40.000Z</time>
      </trkpt>
      <trkpt lat="44.18286" lon="5.31858">
        <ele>661.6</ele>
        <time>2026-05-14T15:26:41.000Z</time>
      </trkpt>
      <trkpt lat="44.18287" lon="5.31859">
        <ele>661.7</ele>
        <time>2026-05-14T15:26:42.000Z</time>
      </trkpt>
      <trkpt lat="44.18288" lon="5.3186">
        <ele>661.4</ele>
        <time>2026-05-14T15:26:43.000Z</time>
      </trkpt>
      <trkpt lat="44.18289" lon="5.3186">
        <ele>661</ele>
        <time>2026-05-14T15:26:44.000Z</time>
      </trkpt>
      <trkpt lat="44.1829" lon="5.3186">
        <ele>660.6</ele>
        <time>2026-05-14T15:26:45.000Z</time>
      </trkpt>
      <trkpt lat="44.18291" lon="5.31861">
        <ele>660.4</ele>
        <time>2026-05-14T15:26:46.000Z</time>
      </trkpt>
      <trkpt lat="44.18292" lon="5.31861">
        <ele>660.9</ele>
        <time>2026-05-14T15:26:47.000Z</time>
      </trkpt>
      <trkpt lat="44.18293" lon="5.31861">
        <ele>661</ele>
        <time>2026-05-14T15:26:48.000Z</time>
      </trkpt>
      <trkpt lat="44.18294" lon="5.31861">
        <ele>660.7</ele>
        <time>2026-05-14T15:26:49.000Z</time>
      </trkpt>
      <trkpt lat="44.18295" lon="5.3186">
        <ele>660.5</ele>
        <time>2026-05-14T15:26:50.000Z</time>
      </trkpt>
      <trkpt lat="44.18296" lon="5.31859">
        <ele>660.3</ele>
        <time>2026-05-14T15:26:51.000Z</time>
      </trkpt>
      <trkpt lat="44.18297" lon="5.31858">
        <ele>659.7</ele>
        <time>2026-05-14T15:26:52.000Z</time>
      </trkpt>
      <trkpt lat="44.18297" lon="5.31858">
        <ele>658.9</ele>
        <time>2026-05-14T15:26:53.000Z</time>
      </trkpt>
      <trkpt lat="44.18297" lon="5.31859">
        <ele>658.3</ele>
        <time>2026-05-14T15:26:54.000Z</time>
      </trkpt>
      <trkpt lat="44.18298" lon="5.31859">
        <ele>657.7</ele>
        <time>2026-05-14T15:26:55.000Z</time>
      </trkpt>
      <trkpt lat="44.18299" lon="5.31859">
        <ele>657.2</ele>
        <time>2026-05-14T15:26:56.000Z</time>
      </trkpt>
      <trkpt lat="44.183" lon="5.31858">
        <ele>656.7</ele>
        <time>2026-05-14T15:26:57.000Z</time>
      </trkpt>
      <trkpt lat="44.18301" lon="5.31858">
        <ele>656</ele>
        <time>2026-05-14T15:26:58.000Z</time>
      </trkpt>
      <trkpt lat="44.18301" lon="5.31858">
        <ele>655.5</ele>
        <time>2026-05-14T15:26:59.000Z</time>
      </trkpt>
      <trkpt lat="44.18302" lon="5.31858">
        <ele>655.3</ele>
        <time>2026-05-14T15:27:00.000Z</time>
      </trkpt>
      <trkpt lat="44.18304" lon="5.31858">
        <ele>655.3</ele>
        <time>2026-05-14T15:27:01.000Z</time>
      </trkpt>
      <trkpt lat="44.18305" lon="5.31859">
        <ele>655.2</ele>
        <time>2026-05-14T15:27:02.000Z</time>
      </trkpt>
      <trkpt lat="44.18306" lon="5.31859">
        <ele>655.1</ele>
        <time>2026-05-14T15:27:03.000Z</time>
      </trkpt>
      <trkpt lat="44.18307" lon="5.31859">
        <ele>655.3</ele>
        <time>2026-05-14T15:27:04.000Z</time>
      </trkpt>
      <trkpt lat="44.18307" lon="5.31858">
        <ele>655.3</ele>
        <time>2026-05-14T15:27:05.000Z</time>
      </trkpt>
      <trkpt lat="44.18308" lon="5.31857">
        <ele>655.4</ele>
        <time>2026-05-14T15:27:06.000Z</time>
      </trkpt>
      <trkpt lat="44.18309" lon="5.31857">
        <ele>655.6</ele>
        <time>2026-05-14T15:27:07.000Z</time>
      </trkpt>
      <trkpt lat="44.18311" lon="5.31856">
        <ele>656.1</ele>
        <time>2026-05-14T15:27:08.000Z</time>
      </trkpt>
      <trkpt lat="44.18311" lon="5.31855">
        <ele>656.7</ele>
        <time>2026-05-14T15:27:09.000Z</time>
      </trkpt>
      <trkpt lat="44.18312" lon="5.31855">
        <ele>656.7</ele>
        <time>2026-05-14T15:27:10.000Z</time>
      </trkpt>
      <trkpt lat="44.18313" lon="5.31854">
        <ele>657.3</ele>
        <time>2026-05-14T15:27:11.000Z</time>
      </trkpt>
      <trkpt lat="44.18315" lon="5.31854">
        <ele>657.4</ele>
        <time>2026-05-14T15:27:12.000Z</time>
      </trkpt>
      <trkpt lat="44.18315" lon="5.31853">
        <ele>657.6</ele>
        <time>2026-05-14T15:27:13.000Z</time>
      </trkpt>
      <trkpt lat="44.18317" lon="5.31853">
        <ele>657.4</ele>
        <time>2026-05-14T15:27:14.000Z</time>
      </trkpt>
      <trkpt lat="44.18318" lon="5.31851">
        <ele>656.9</ele>
        <time>2026-05-14T15:27:15.000Z</time>
      </trkpt>
      <trkpt lat="44.1832" lon="5.31851">
        <ele>656.9</ele>
        <time>2026-05-14T15:27:16.000Z</time>
      </trkpt>
      <trkpt lat="44.18321" lon="5.3185">
        <ele>657</ele>
        <time>2026-05-14T15:27:17.000Z</time>
      </trkpt>
      <trkpt lat="44.18321" lon="5.3185">
        <ele>656.4</ele>
        <time>2026-05-14T15:27:18.000Z</time>
      </trkpt>
      <trkpt lat="44.18322" lon="5.31851">
        <ele>656.5</ele>
        <time>2026-05-14T15:27:19.000Z</time>
      </trkpt>
      <trkpt lat="44.18323" lon="5.31851">
        <ele>656.6</ele>
        <time>2026-05-14T15:27:20.000Z</time>
      </trkpt>
      <trkpt lat="44.18324" lon="5.31851">
        <ele>656.3</ele>
        <time>2026-05-14T15:27:21.000Z</time>
      </trkpt>
      <trkpt lat="44.18325" lon="5.31851">
        <ele>656.1</ele>
        <time>2026-05-14T15:27:22.000Z</time>
      </trkpt>
      <trkpt lat="44.18326" lon="5.3185">
        <ele>656.3</ele>
        <time>2026-05-14T15:27:23.000Z</time>
      </trkpt>
      <trkpt lat="44.18327" lon="5.3185">
        <ele>656.3</ele>
        <time>2026-05-14T15:27:24.000Z</time>
      </trkpt>
      <trkpt lat="44.18328" lon="5.31849">
        <ele>656.5</ele>
        <time>2026-05-14T15:27:25.000Z</time>
      </trkpt>
      <trkpt lat="44.18329" lon="5.31849">
        <ele>656.7</ele>
        <time>2026-05-14T15:27:26.000Z</time>
      </trkpt>
      <trkpt lat="44.1833" lon="5.31848">
        <ele>656.6</ele>
        <time>2026-05-14T15:27:27.000Z</time>
      </trkpt>
      <trkpt lat="44.18331" lon="5.31849">
        <ele>656.3</ele>
        <time>2026-05-14T15:27:28.000Z</time>
      </trkpt>
      <trkpt lat="44.18333" lon="5.31849">
        <ele>656.2</ele>
        <time>2026-05-14T15:27:30.000Z</time>
      </trkpt>
      <trkpt lat="44.18334" lon="5.31849">
        <ele>656.2</ele>
        <time>2026-05-14T15:27:31.000Z</time>
      </trkpt>
      <trkpt lat="44.18336" lon="5.31849">
        <ele>656.3</ele>
        <time>2026-05-14T15:27:32.000Z</time>
      </trkpt>
      <trkpt lat="44.18337" lon="5.31849">
        <ele>656.5</ele>
        <time>2026-05-14T15:27:33.000Z</time>
      </trkpt>
      <trkpt lat="44.18339" lon="5.31849">
        <ele>656.2</ele>
        <time>2026-05-14T15:27:34.000Z</time>
      </trkpt>
      <trkpt lat="44.18341" lon="5.31849">
        <ele>655.9</ele>
        <time>2026-05-14T15:27:35.000Z</time>
      </trkpt>
      <trkpt lat="44.18342" lon="5.3185">
        <ele>655.7</ele>
        <time>2026-05-14T15:27:36.000Z</time>
      </trkpt>
      <trkpt lat="44.18343" lon="5.31849">
        <ele>655</ele>
        <time>2026-05-14T15:27:37.000Z</time>
      </trkpt>
      <trkpt lat="44.18344" lon="5.31849">
        <ele>654.5</ele>
        <time>2026-05-14T15:27:38.000Z</time>
      </trkpt>
      <trkpt lat="44.18345" lon="5.3185">
        <ele>654.1</ele>
        <time>2026-05-14T15:27:39.000Z</time>
      </trkpt>
      <trkpt lat="44.18345" lon="5.31851">
        <ele>653.9</ele>
        <time>2026-05-14T15:27:40.000Z</time>
      </trkpt>
      <trkpt lat="44.18345" lon="5.31851">
        <ele>653.9</ele>
        <time>2026-05-14T15:27:41.000Z</time>
      </trkpt>
      <trkpt lat="44.18346" lon="5.31852">
        <ele>653.8</ele>
        <time>2026-05-14T15:27:42.000Z</time>
      </trkpt>
      <trkpt lat="44.18346" lon="5.31852">
        <ele>653.5</ele>
        <time>2026-05-14T15:27:43.000Z</time>
      </trkpt>
      <trkpt lat="44.18346" lon="5.31852">
        <ele>653</ele>
        <time>2026-05-14T15:27:44.000Z</time>
      </trkpt>
      <trkpt lat="44.18347" lon="5.31853">
        <ele>652.6</ele>
        <time>2026-05-14T15:27:45.000Z</time>
      </trkpt>
      <trkpt lat="44.18348" lon="5.31854">
        <ele>652.4</ele>
        <time>2026-05-14T15:27:46.000Z</time>
      </trkpt>
      <trkpt lat="44.1835" lon="5.31856">
        <ele>652.4</ele>
        <time>2026-05-14T15:27:47.000Z</time>
      </trkpt>
      <trkpt lat="44.18351" lon="5.31856">
        <ele>652.5</ele>
        <time>2026-05-14T15:27:48.000Z</time>
      </trkpt>
      <trkpt lat="44.18352" lon="5.31856">
        <ele>653.1</ele>
        <time>2026-05-14T15:27:49.000Z</time>
      </trkpt>
      <trkpt lat="44.18353" lon="5.31856">
        <ele>653.2</ele>
        <time>2026-05-14T15:27:50.000Z</time>
      </trkpt>
      <trkpt lat="44.18354" lon="5.31856">
        <ele>653.3</ele>
        <time>2026-05-14T15:27:51.000Z</time>
      </trkpt>
      <trkpt lat="44.18355" lon="5.31857">
        <ele>653.4</ele>
        <time>2026-05-14T15:27:52.000Z</time>
      </trkpt>
      <trkpt lat="44.18356" lon="5.31858">
        <ele>652.9</ele>
        <time>2026-05-14T15:27:53.000Z</time>
      </trkpt>
      <trkpt lat="44.18356" lon="5.31859">
        <ele>652.7</ele>
        <time>2026-05-14T15:27:54.000Z</time>
      </trkpt>
      <trkpt lat="44.18357" lon="5.3186">
        <ele>652.4</ele>
        <time>2026-05-14T15:27:55.000Z</time>
      </trkpt>
      <trkpt lat="44.18358" lon="5.31861">
        <ele>652</ele>
        <time>2026-05-14T15:27:56.000Z</time>
      </trkpt>
      <trkpt lat="44.18359" lon="5.31862">
        <ele>651.9</ele>
        <time>2026-05-14T15:27:57.000Z</time>
      </trkpt>
      <trkpt lat="44.18359" lon="5.31863">
        <ele>651.8</ele>
        <time>2026-05-14T15:27:58.000Z</time>
      </trkpt>
      <trkpt lat="44.1836" lon="5.31864">
        <ele>651.5</ele>
        <time>2026-05-14T15:27:59.000Z</time>
      </trkpt>
      <trkpt lat="44.18361" lon="5.31865">
        <ele>651.4</ele>
        <time>2026-05-14T15:28:00.000Z</time>
      </trkpt>
      <trkpt lat="44.18362" lon="5.31867">
        <ele>651.2</ele>
        <time>2026-05-14T15:28:01.000Z</time>
      </trkpt>
      <trkpt lat="44.18363" lon="5.31869">
        <ele>651.3</ele>
        <time>2026-05-14T15:28:02.000Z</time>
      </trkpt>
      <trkpt lat="44.18363" lon="5.31869">
        <ele>651.1</ele>
        <time>2026-05-14T15:28:03.000Z</time>
      </trkpt>
      <trkpt lat="44.18365" lon="5.3187">
        <ele>650.8</ele>
        <time>2026-05-14T15:28:04.000Z</time>
      </trkpt>
      <trkpt lat="44.18365" lon="5.31871">
        <ele>650.2</ele>
        <time>2026-05-14T15:28:05.000Z</time>
      </trkpt>
      <trkpt lat="44.18365" lon="5.31872">
        <ele>650.2</ele>
        <time>2026-05-14T15:28:06.000Z</time>
      </trkpt>
      <trkpt lat="44.18365" lon="5.31874">
        <ele>650.2</ele>
        <time>2026-05-14T15:28:07.000Z</time>
      </trkpt>
      <trkpt lat="44.18365" lon="5.31875">
        <ele>650</ele>
        <time>2026-05-14T15:28:08.000Z</time>
      </trkpt>
      <trkpt lat="44.18365" lon="5.31876">
        <ele>650.2</ele>
        <time>2026-05-14T15:28:09.000Z</time>
      </trkpt>
      <trkpt lat="44.18365" lon="5.31876">
        <ele>650.1</ele>
        <time>2026-05-14T15:28:10.000Z</time>
      </trkpt>
      <trkpt lat="44.18365" lon="5.31877">
        <ele>650.3</ele>
        <time>2026-05-14T15:28:11.000Z</time>
      </trkpt>
      <trkpt lat="44.18366" lon="5.31878">
        <ele>650.4</ele>
        <time>2026-05-14T15:28:12.000Z</time>
      </trkpt>
      <trkpt lat="44.18366" lon="5.31879">
        <ele>650.5</ele>
        <time>2026-05-14T15:28:13.000Z</time>
      </trkpt>
      <trkpt lat="44.18367" lon="5.3188">
        <ele>650.4</ele>
        <time>2026-05-14T15:28:14.000Z</time>
      </trkpt>
      <trkpt lat="44.18368" lon="5.31881">
        <ele>650.7</ele>
        <time>2026-05-14T15:28:15.000Z</time>
      </trkpt>
      <trkpt lat="44.18369" lon="5.31881">
        <ele>651</ele>
        <time>2026-05-14T15:28:16.000Z</time>
      </trkpt>
      <trkpt lat="44.18369" lon="5.31882">
        <ele>651.4</ele>
        <time>2026-05-14T15:28:17.000Z</time>
      </trkpt>
      <trkpt lat="44.1837" lon="5.31884">
        <ele>651.1</ele>
        <time>2026-05-14T15:28:18.000Z</time>
      </trkpt>
      <trkpt lat="44.1837" lon="5.31886">
        <ele>651</ele>
        <time>2026-05-14T15:28:19.000Z</time>
      </trkpt>
      <trkpt lat="44.1837" lon="5.31888">
        <ele>651</ele>
        <time>2026-05-14T15:28:20.000Z</time>
      </trkpt>
      <trkpt lat="44.18371" lon="5.31888">
        <ele>650.8</ele>
        <time>2026-05-14T15:28:21.000Z</time>
      </trkpt>
      <trkpt lat="44.18371" lon="5.31888">
        <ele>650.6</ele>
        <time>2026-05-14T15:28:22.000Z</time>
      </trkpt>
      <trkpt lat="44.18372" lon="5.31889">
        <ele>650.8</ele>
        <time>2026-05-14T15:28:23.000Z</time>
      </trkpt>
      <trkpt lat="44.18373" lon="5.3189">
        <ele>651.2</ele>
        <time>2026-05-14T15:28:24.000Z</time>
      </trkpt>
      <trkpt lat="44.18374" lon="5.31891">
        <ele>650.6</ele>
        <time>2026-05-14T15:28:25.000Z</time>
      </trkpt>
      <trkpt lat="44.18374" lon="5.31892">
        <ele>650.6</ele>
        <time>2026-05-14T15:28:26.000Z</time>
      </trkpt>
      <trkpt lat="44.18374" lon="5.31893">
        <ele>650.6</ele>
        <time>2026-05-14T15:28:27.000Z</time>
      </trkpt>
      <trkpt lat="44.18374" lon="5.31895">
        <ele>650.9</ele>
        <time>2026-05-14T15:28:28.000Z</time>
      </trkpt>
      <trkpt lat="44.18375" lon="5.31897">
        <ele>651.5</ele>
        <time>2026-05-14T15:28:29.000Z</time>
      </trkpt>
      <trkpt lat="44.18376" lon="5.319">
        <ele>652</ele>
        <time>2026-05-14T15:28:30.000Z</time>
      </trkpt>
      <trkpt lat="44.18376" lon="5.31902">
        <ele>652.5</ele>
        <time>2026-05-14T15:28:31.000Z</time>
      </trkpt>
      <trkpt lat="44.18376" lon="5.31903">
        <ele>652.9</ele>
        <time>2026-05-14T15:28:32.000Z</time>
      </trkpt>
      <trkpt lat="44.18376" lon="5.31904">
        <ele>653.4</ele>
        <time>2026-05-14T15:28:33.000Z</time>
      </trkpt>
      <trkpt lat="44.18376" lon="5.31905">
        <ele>653.3</ele>
        <time>2026-05-14T15:28:34.000Z</time>
      </trkpt>
      <trkpt lat="44.18377" lon="5.31906">
        <ele>653</ele>
        <time>2026-05-14T15:28:35.000Z</time>
      </trkpt>
      <trkpt lat="44.18377" lon="5.31907">
        <ele>653.2</ele>
        <time>2026-05-14T15:28:36.000Z</time>
      </trkpt>
      <trkpt lat="44.18377" lon="5.31909">
        <ele>653.2</ele>
        <time>2026-05-14T15:28:37.000Z</time>
      </trkpt>
      <trkpt lat="44.18377" lon="5.3191">
        <ele>652.8</ele>
        <time>2026-05-14T15:28:38.000Z</time>
      </trkpt>
      <trkpt lat="44.18377" lon="5.3191">
        <ele>652.3</ele>
        <time>2026-05-14T15:28:39.000Z</time>
      </trkpt>
      <trkpt lat="44.18377" lon="5.31911">
        <ele>652.1</ele>
        <time>2026-05-14T15:28:40.000Z</time>
      </trkpt>
      <trkpt lat="44.18377" lon="5.31913">
        <ele>651.9</ele>
        <time>2026-05-14T15:28:41.000Z</time>
      </trkpt>
      <trkpt lat="44.18378" lon="5.31914">
        <ele>651.9</ele>
        <time>2026-05-14T15:28:42.000Z</time>
      </trkpt>
      <trkpt lat="44.18379" lon="5.31914">
        <ele>652</ele>
        <time>2026-05-14T15:28:43.000Z</time>
      </trkpt>
      <trkpt lat="44.18379" lon="5.31915">
        <ele>651.9</ele>
        <time>2026-05-14T15:28:44.000Z</time>
      </trkpt>
      <trkpt lat="44.18381" lon="5.31916">
        <ele>651.7</ele>
        <time>2026-05-14T15:28:45.000Z</time>
      </trkpt>
      <trkpt lat="44.18382" lon="5.31918">
        <ele>651.6</ele>
        <time>2026-05-14T15:28:46.000Z</time>
      </trkpt>
      <trkpt lat="44.18383" lon="5.31919">
        <ele>651.4</ele>
        <time>2026-05-14T15:28:47.000Z</time>
      </trkpt>
      <trkpt lat="44.18384" lon="5.3192">
        <ele>651.2</ele>
        <time>2026-05-14T15:28:48.000Z</time>
      </trkpt>
      <trkpt lat="44.18386" lon="5.3192">
        <ele>651.1</ele>
        <time>2026-05-14T15:28:49.000Z</time>
      </trkpt>
      <trkpt lat="44.18387" lon="5.31922">
        <ele>651</ele>
        <time>2026-05-14T15:28:50.000Z</time>
      </trkpt>
      <trkpt lat="44.18388" lon="5.31924">
        <ele>650.8</ele>
        <time>2026-05-14T15:28:51.000Z</time>
      </trkpt>
      <trkpt lat="44.18388" lon="5.31926">
        <ele>650.8</ele>
        <time>2026-05-14T15:28:52.000Z</time>
      </trkpt>
      <trkpt lat="44.18388" lon="5.31926">
        <ele>651</ele>
        <time>2026-05-14T15:28:53.000Z</time>
      </trkpt>
      <trkpt lat="44.18388" lon="5.31927">
        <ele>651.1</ele>
        <time>2026-05-14T15:28:54.000Z</time>
      </trkpt>
      <trkpt lat="44.18388" lon="5.31928">
        <ele>651.3</ele>
        <time>2026-05-14T15:28:55.000Z</time>
      </trkpt>
      <trkpt lat="44.18388" lon="5.31929">
        <ele>651.8</ele>
        <time>2026-05-14T15:28:56.000Z</time>
      </trkpt>
      <trkpt lat="44.18388" lon="5.31931">
        <ele>651.4</ele>
        <time>2026-05-14T15:28:57.000Z</time>
      </trkpt>
      <trkpt lat="44.18388" lon="5.31932">
        <ele>650.8</ele>
        <time>2026-05-14T15:28:58.000Z</time>
      </trkpt>
      <trkpt lat="44.18388" lon="5.31933">
        <ele>650.8</ele>
        <time>2026-05-14T15:28:59.000Z</time>
      </trkpt>
      <trkpt lat="44.18389" lon="5.31934">
        <ele>650.6</ele>
        <time>2026-05-14T15:29:00.000Z</time>
      </trkpt>
      <trkpt lat="44.18389" lon="5.31935">
        <ele>650.2</ele>
        <time>2026-05-14T15:29:01.000Z</time>
      </trkpt>
      <trkpt lat="44.1839" lon="5.31937">
        <ele>650.3</ele>
        <time>2026-05-14T15:29:02.000Z</time>
      </trkpt>
      <trkpt lat="44.18391" lon="5.31938">
        <ele>650</ele>
        <time>2026-05-14T15:29:03.000Z</time>
      </trkpt>
      <trkpt lat="44.18391" lon="5.31939">
        <ele>649.7</ele>
        <time>2026-05-14T15:29:04.000Z</time>
      </trkpt>
      <trkpt lat="44.18391" lon="5.3194">
        <ele>649.3</ele>
        <time>2026-05-14T15:29:05.000Z</time>
      </trkpt>
      <trkpt lat="44.18392" lon="5.31941">
        <ele>648.8</ele>
        <time>2026-05-14T15:29:06.000Z</time>
      </trkpt>
      <trkpt lat="44.18392" lon="5.31943">
        <ele>648.4</ele>
        <time>2026-05-14T15:29:07.000Z</time>
      </trkpt>
      <trkpt lat="44.18392" lon="5.31944">
        <ele>648.2</ele>
        <time>2026-05-14T15:29:08.000Z</time>
      </trkpt>
      <trkpt lat="44.18393" lon="5.31945">
        <ele>648.1</ele>
        <time>2026-05-14T15:29:09.000Z</time>
      </trkpt>
      <trkpt lat="44.18394" lon="5.31946">
        <ele>648.1</ele>
        <time>2026-05-14T15:29:10.000Z</time>
      </trkpt>
      <trkpt lat="44.18395" lon="5.31947">
        <ele>648.7</ele>
        <time>2026-05-14T15:29:11.000Z</time>
      </trkpt>
      <trkpt lat="44.18395" lon="5.31949">
        <ele>648.9</ele>
        <time>2026-05-14T15:29:12.000Z</time>
      </trkpt>
      <trkpt lat="44.18396" lon="5.31951">
        <ele>649.2</ele>
        <time>2026-05-14T15:29:13.000Z</time>
      </trkpt>
      <trkpt lat="44.18396" lon="5.31952">
        <ele>649.5</ele>
        <time>2026-05-14T15:29:14.000Z</time>
      </trkpt>
      <trkpt lat="44.18396" lon="5.31953">
        <ele>649.5</ele>
        <time>2026-05-14T15:29:15.000Z</time>
      </trkpt>
      <trkpt lat="44.18396" lon="5.31954">
        <ele>649.8</ele>
        <time>2026-05-14T15:29:16.000Z</time>
      </trkpt>
      <trkpt lat="44.18396" lon="5.31955">
        <ele>650.2</ele>
        <time>2026-05-14T15:29:17.000Z</time>
      </trkpt>
      <trkpt lat="44.18396" lon="5.31956">
        <ele>650.3</ele>
        <time>2026-05-14T15:29:18.000Z</time>
      </trkpt>
      <trkpt lat="44.18396" lon="5.31958">
        <ele>650.5</ele>
        <time>2026-05-14T15:29:19.000Z</time>
      </trkpt>
      <trkpt lat="44.18396" lon="5.3196">
        <ele>650.8</ele>
        <time>2026-05-14T15:29:20.000Z</time>
      </trkpt>
      <trkpt lat="44.18396" lon="5.31962">
        <ele>651</ele>
        <time>2026-05-14T15:29:21.000Z</time>
      </trkpt>
      <trkpt lat="44.18396" lon="5.31963">
        <ele>651.1</ele>
        <time>2026-05-14T15:29:22.000Z</time>
      </trkpt>
      <trkpt lat="44.18396" lon="5.31964">
        <ele>651.7</ele>
        <time>2026-05-14T15:29:23.000Z</time>
      </trkpt>
      <trkpt lat="44.18396" lon="5.31965">
        <ele>651.9</ele>
        <time>2026-05-14T15:29:24.000Z</time>
      </trkpt>
      <trkpt lat="44.18396" lon="5.31966">
        <ele>652.2</ele>
        <time>2026-05-14T15:29:25.000Z</time>
      </trkpt>
      <trkpt lat="44.18396" lon="5.31968">
        <ele>652.1</ele>
        <time>2026-05-14T15:29:26.000Z</time>
      </trkpt>
      <trkpt lat="44.18397" lon="5.31969">
        <ele>652.5</ele>
        <time>2026-05-14T15:29:27.000Z</time>
      </trkpt>
      <trkpt lat="44.18397" lon="5.31971">
        <ele>652.5</ele>
        <time>2026-05-14T15:29:28.000Z</time>
      </trkpt>
      <trkpt lat="44.18397" lon="5.31973">
        <ele>652.2</ele>
        <time>2026-05-14T15:29:29.000Z</time>
      </trkpt>
      <trkpt lat="44.18397" lon="5.31975">
        <ele>651.9</ele>
        <time>2026-05-14T15:29:30.000Z</time>
      </trkpt>
      <trkpt lat="44.18397" lon="5.31976">
        <ele>651.6</ele>
        <time>2026-05-14T15:29:31.000Z</time>
      </trkpt>
      <trkpt lat="44.18397" lon="5.31976">
        <ele>651.5</ele>
        <time>2026-05-14T15:29:32.000Z</time>
      </trkpt>
      <trkpt lat="44.18397" lon="5.31978">
        <ele>651.6</ele>
        <time>2026-05-14T15:29:33.000Z</time>
      </trkpt>
      <trkpt lat="44.18398" lon="5.31979">
        <ele>651.8</ele>
        <time>2026-05-14T15:29:34.000Z</time>
      </trkpt>
      <trkpt lat="44.18398" lon="5.3198">
        <ele>651.8</ele>
        <time>2026-05-14T15:29:35.000Z</time>
      </trkpt>
      <trkpt lat="44.18398" lon="5.31983">
        <ele>652.2</ele>
        <time>2026-05-14T15:29:36.000Z</time>
      </trkpt>
      <trkpt lat="44.18399" lon="5.31985">
        <ele>652.3</ele>
        <time>2026-05-14T15:29:37.000Z</time>
      </trkpt>
      <trkpt lat="44.18399" lon="5.31988">
        <ele>652.3</ele>
        <time>2026-05-14T15:29:38.000Z</time>
      </trkpt>
      <trkpt lat="44.18399" lon="5.3199">
        <ele>652.1</ele>
        <time>2026-05-14T15:29:39.000Z</time>
      </trkpt>
      <trkpt lat="44.184" lon="5.31992">
        <ele>651.9</ele>
        <time>2026-05-14T15:29:40.000Z</time>
      </trkpt>
      <trkpt lat="44.184" lon="5.31994">
        <ele>652.4</ele>
        <time>2026-05-14T15:29:41.000Z</time>
      </trkpt>
      <trkpt lat="44.184" lon="5.31996">
        <ele>652.3</ele>
        <time>2026-05-14T15:29:42.000Z</time>
      </trkpt>
      <trkpt lat="44.18401" lon="5.31997">
        <ele>652</ele>
        <time>2026-05-14T15:29:43.000Z</time>
      </trkpt>
      <trkpt lat="44.18401" lon="5.31998">
        <ele>652.1</ele>
        <time>2026-05-14T15:29:44.000Z</time>
      </trkpt>
      <trkpt lat="44.18401" lon="5.31998">
        <ele>652</ele>
        <time>2026-05-14T15:29:45.000Z</time>
      </trkpt>
      <trkpt lat="44.18401" lon="5.32">
        <ele>651.8</ele>
        <time>2026-05-14T15:29:46.000Z</time>
      </trkpt>
      <trkpt lat="44.18402" lon="5.32002">
        <ele>651.1</ele>
        <time>2026-05-14T15:29:47.000Z</time>
      </trkpt>
      <trkpt lat="44.18402" lon="5.32004">
        <ele>650.9</ele>
        <time>2026-05-14T15:29:48.000Z</time>
      </trkpt>
      <trkpt lat="44.18403" lon="5.32003">
        <ele>650.8</ele>
        <time>2026-05-14T15:29:49.000Z</time>
      </trkpt>
      <trkpt lat="44.18404" lon="5.32003">
        <ele>650.9</ele>
        <time>2026-05-14T15:29:50.000Z</time>
      </trkpt>
      <trkpt lat="44.18404" lon="5.32004">
        <ele>650.3</ele>
        <time>2026-05-14T15:29:51.000Z</time>
      </trkpt>
      <trkpt lat="44.18403" lon="5.32005">
        <ele>649.5</ele>
        <time>2026-05-14T15:29:52.000Z</time>
      </trkpt>
      <trkpt lat="44.18403" lon="5.32006">
        <ele>649.8</ele>
        <time>2026-05-14T15:29:53.000Z</time>
      </trkpt>
      <trkpt lat="44.18403" lon="5.32007">
        <ele>650.3</ele>
        <time>2026-05-14T15:29:54.000Z</time>
      </trkpt>
      <trkpt lat="44.18403" lon="5.32008">
        <ele>650.4</ele>
        <time>2026-05-14T15:29:55.000Z</time>
      </trkpt>
      <trkpt lat="44.18403" lon="5.32008">
        <ele>650.1</ele>
        <time>2026-05-14T15:29:56.000Z</time>
      </trkpt>
      <trkpt lat="44.18404" lon="5.3201">
        <ele>649.2</ele>
        <time>2026-05-14T15:29:57.000Z</time>
      </trkpt>
      <trkpt lat="44.18404" lon="5.32012">
        <ele>648.1</ele>
        <time>2026-05-14T15:29:58.000Z</time>
      </trkpt>
      <trkpt lat="44.18405" lon="5.32014">
        <ele>647.5</ele>
        <time>2026-05-14T15:29:59.000Z</time>
      </trkpt>
      <trkpt lat="44.18405" lon="5.32015">
        <ele>647.9</ele>
        <time>2026-05-14T15:30:00.000Z</time>
      </trkpt>
      <trkpt lat="44.18406" lon="5.32017">
        <ele>648.2</ele>
        <time>2026-05-14T15:30:01.000Z</time>
      </trkpt>
      <trkpt lat="44.18408" lon="5.32019">
        <ele>649.1</ele>
        <time>2026-05-14T15:30:02.000Z</time>
      </trkpt>
      <trkpt lat="44.18408" lon="5.32021">
        <ele>649.2</ele>
        <time>2026-05-14T15:30:03.000Z</time>
      </trkpt>
      <trkpt lat="44.1841" lon="5.32022">
        <ele>649.3</ele>
        <time>2026-05-14T15:30:04.000Z</time>
      </trkpt>
      <trkpt lat="44.1841" lon="5.32024">
        <ele>649.4</ele>
        <time>2026-05-14T15:30:05.000Z</time>
      </trkpt>
      <trkpt lat="44.1841" lon="5.32025">
        <ele>649.4</ele>
        <time>2026-05-14T15:30:06.000Z</time>
      </trkpt>
      <trkpt lat="44.18411" lon="5.32026">
        <ele>649.3</ele>
        <time>2026-05-14T15:30:07.000Z</time>
      </trkpt>
      <trkpt lat="44.18411" lon="5.32026">
        <ele>648.9</ele>
        <time>2026-05-14T15:30:08.000Z</time>
      </trkpt>
      <trkpt lat="44.18411" lon="5.32027">
        <ele>648.8</ele>
        <time>2026-05-14T15:30:09.000Z</time>
      </trkpt>
      <trkpt lat="44.18412" lon="5.32029">
        <ele>648.5</ele>
        <time>2026-05-14T15:30:10.000Z</time>
      </trkpt>
      <trkpt lat="44.18412" lon="5.32031">
        <ele>648.4</ele>
        <time>2026-05-14T15:30:11.000Z</time>
      </trkpt>
      <trkpt lat="44.18412" lon="5.32032">
        <ele>648.3</ele>
        <time>2026-05-14T15:30:12.000Z</time>
      </trkpt>
      <trkpt lat="44.18411" lon="5.32033">
        <ele>648.2</ele>
        <time>2026-05-14T15:30:13.000Z</time>
      </trkpt>
      <trkpt lat="44.18411" lon="5.32034">
        <ele>648</ele>
        <time>2026-05-14T15:30:14.000Z</time>
      </trkpt>
      <trkpt lat="44.18412" lon="5.32035">
        <ele>647.7</ele>
        <time>2026-05-14T15:30:15.000Z</time>
      </trkpt>
      <trkpt lat="44.18412" lon="5.32037">
        <ele>647.7</ele>
        <time>2026-05-14T15:30:16.000Z</time>
      </trkpt>
      <trkpt lat="44.18412" lon="5.32039">
        <ele>647.8</ele>
        <time>2026-05-14T15:30:17.000Z</time>
      </trkpt>
      <trkpt lat="44.18413" lon="5.3204">
        <ele>647.9</ele>
        <time>2026-05-14T15:30:18.000Z</time>
      </trkpt>
      <trkpt lat="44.18413" lon="5.32041">
        <ele>648.1</ele>
        <time>2026-05-14T15:30:19.000Z</time>
      </trkpt>
      <trkpt lat="44.18414" lon="5.32043">
        <ele>648.1</ele>
        <time>2026-05-14T15:30:20.000Z</time>
      </trkpt>
      <trkpt lat="44.18415" lon="5.32045">
        <ele>648.2</ele>
        <time>2026-05-14T15:30:21.000Z</time>
      </trkpt>
      <trkpt lat="44.18415" lon="5.32046">
        <ele>648.5</ele>
        <time>2026-05-14T15:30:22.000Z</time>
      </trkpt>
      <trkpt lat="44.18415" lon="5.32048">
        <ele>648.8</ele>
        <time>2026-05-14T15:30:23.000Z</time>
      </trkpt>
      <trkpt lat="44.18415" lon="5.32049">
        <ele>649.2</ele>
        <time>2026-05-14T15:30:24.000Z</time>
      </trkpt>
      <trkpt lat="44.18415" lon="5.3205">
        <ele>649.6</ele>
        <time>2026-05-14T15:30:25.000Z</time>
      </trkpt>
      <trkpt lat="44.18416" lon="5.32052">
        <ele>649.8</ele>
        <time>2026-05-14T15:30:26.000Z</time>
      </trkpt>
      <trkpt lat="44.18416" lon="5.32054">
        <ele>650.2</ele>
        <time>2026-05-14T15:30:27.000Z</time>
      </trkpt>
      <trkpt lat="44.18417" lon="5.32055">
        <ele>650.4</ele>
        <time>2026-05-14T15:30:28.000Z</time>
      </trkpt>
      <trkpt lat="44.18418" lon="5.32057">
        <ele>650.7</ele>
        <time>2026-05-14T15:30:29.000Z</time>
      </trkpt>
      <trkpt lat="44.18419" lon="5.32058">
        <ele>650.8</ele>
        <time>2026-05-14T15:30:30.000Z</time>
      </trkpt>
      <trkpt lat="44.1842" lon="5.32058">
        <ele>650.7</ele>
        <time>2026-05-14T15:30:31.000Z</time>
      </trkpt>
      <trkpt lat="44.18421" lon="5.3206">
        <ele>650.5</ele>
        <time>2026-05-14T15:30:32.000Z</time>
      </trkpt>
      <trkpt lat="44.18422" lon="5.32062">
        <ele>650.5</ele>
        <time>2026-05-14T15:30:33.000Z</time>
      </trkpt>
      <trkpt lat="44.18423" lon="5.32062">
        <ele>650.2</ele>
        <time>2026-05-14T15:30:34.000Z</time>
      </trkpt>
      <trkpt lat="44.18423" lon="5.32063">
        <ele>650.1</ele>
        <time>2026-05-14T15:30:35.000Z</time>
      </trkpt>
      <trkpt lat="44.18423" lon="5.32064">
        <ele>650.1</ele>
        <time>2026-05-14T15:30:36.000Z</time>
      </trkpt>
      <trkpt lat="44.18423" lon="5.32065">
        <ele>650.1</ele>
        <time>2026-05-14T15:30:37.000Z</time>
      </trkpt>
      <trkpt lat="44.18423" lon="5.32066">
        <ele>650.1</ele>
        <time>2026-05-14T15:30:38.000Z</time>
      </trkpt>
      <trkpt lat="44.18422" lon="5.32068">
        <ele>649.7</ele>
        <time>2026-05-14T15:30:39.000Z</time>
      </trkpt>
      <trkpt lat="44.18422" lon="5.32068">
        <ele>649.7</ele>
        <time>2026-05-14T15:30:40.000Z</time>
      </trkpt>
      <trkpt lat="44.18421" lon="5.32069">
        <ele>649.4</ele>
        <time>2026-05-14T15:30:41.000Z</time>
      </trkpt>
      <trkpt lat="44.18421" lon="5.3207">
        <ele>649.1</ele>
        <time>2026-05-14T15:30:42.000Z</time>
      </trkpt>
      <trkpt lat="44.1842" lon="5.32072">
        <ele>648.8</ele>
        <time>2026-05-14T15:30:43.000Z</time>
      </trkpt>
      <trkpt lat="44.1842" lon="5.32073">
        <ele>648.8</ele>
        <time>2026-05-14T15:30:44.000Z</time>
      </trkpt>
      <trkpt lat="44.1842" lon="5.32074">
        <ele>649.1</ele>
        <time>2026-05-14T15:30:45.000Z</time>
      </trkpt>
      <trkpt lat="44.18421" lon="5.32075">
        <ele>649.2</ele>
        <time>2026-05-14T15:30:46.000Z</time>
      </trkpt>
      <trkpt lat="44.18422" lon="5.32077">
        <ele>649.5</ele>
        <time>2026-05-14T15:30:47.000Z</time>
      </trkpt>
      <trkpt lat="44.18422" lon="5.32078">
        <ele>649.4</ele>
        <time>2026-05-14T15:30:48.000Z</time>
      </trkpt>
      <trkpt lat="44.18423" lon="5.3208">
        <ele>649</ele>
        <time>2026-05-14T15:30:49.000Z</time>
      </trkpt>
      <trkpt lat="44.18424" lon="5.32081">
        <ele>648.8</ele>
        <time>2026-05-14T15:30:50.000Z</time>
      </trkpt>
      <trkpt lat="44.18424" lon="5.32083">
        <ele>648.6</ele>
        <time>2026-05-14T15:30:51.000Z</time>
      </trkpt>
      <trkpt lat="44.18424" lon="5.32084">
        <ele>648.1</ele>
        <time>2026-05-14T15:30:52.000Z</time>
      </trkpt>
      <trkpt lat="44.18423" lon="5.32086">
        <ele>648.2</ele>
        <time>2026-05-14T15:30:53.000Z</time>
      </trkpt>
      <trkpt lat="44.18423" lon="5.32088">
        <ele>648.3</ele>
        <time>2026-05-14T15:30:54.000Z</time>
      </trkpt>
      <trkpt lat="44.18423" lon="5.32089">
        <ele>648.5</ele>
        <time>2026-05-14T15:30:55.000Z</time>
      </trkpt>
      <trkpt lat="44.18423" lon="5.32091">
        <ele>648.2</ele>
        <time>2026-05-14T15:30:56.000Z</time>
      </trkpt>
      <trkpt lat="44.18424" lon="5.32093">
        <ele>648.5</ele>
        <time>2026-05-14T15:30:57.000Z</time>
      </trkpt>
      <trkpt lat="44.18424" lon="5.32095">
        <ele>648.6</ele>
        <time>2026-05-14T15:30:58.000Z</time>
      </trkpt>
      <trkpt lat="44.18424" lon="5.32097">
        <ele>648.7</ele>
        <time>2026-05-14T15:30:59.000Z</time>
      </trkpt>
      <trkpt lat="44.18425" lon="5.32101">
        <ele>648.4</ele>
        <time>2026-05-14T15:31:00.999Z</time>
      </trkpt>
      <trkpt lat="44.18425" lon="5.32102">
        <ele>647.9</ele>
        <time>2026-05-14T15:31:01.999Z</time>
      </trkpt>
      <trkpt lat="44.18425" lon="5.32104">
        <ele>647.5</ele>
        <time>2026-05-14T15:31:02.999Z</time>
      </trkpt>
      <trkpt lat="44.18424" lon="5.32105">
        <ele>647.5</ele>
        <time>2026-05-14T15:31:03.999Z</time>
      </trkpt>
      <trkpt lat="44.18425" lon="5.32106">
        <ele>647.9</ele>
        <time>2026-05-14T15:31:04.999Z</time>
      </trkpt>
      <trkpt lat="44.18425" lon="5.32108">
        <ele>648.2</ele>
        <time>2026-05-14T15:31:05.999Z</time>
      </trkpt>
      <trkpt lat="44.18424" lon="5.3211">
        <ele>648.1</ele>
        <time>2026-05-14T15:31:06.999Z</time>
      </trkpt>
      <trkpt lat="44.18424" lon="5.32111">
        <ele>648.1</ele>
        <time>2026-05-14T15:31:07.999Z</time>
      </trkpt>
      <trkpt lat="44.18425" lon="5.32112">
        <ele>647.9</ele>
        <time>2026-05-14T15:31:08.999Z</time>
      </trkpt>
      <trkpt lat="44.18425" lon="5.32112">
        <ele>648.1</ele>
        <time>2026-05-14T15:31:09.999Z</time>
      </trkpt>
      <trkpt lat="44.18425" lon="5.32114">
        <ele>648.1</ele>
        <time>2026-05-14T15:31:10.999Z</time>
      </trkpt>
      <trkpt lat="44.18425" lon="5.32115">
        <ele>648.6</ele>
        <time>2026-05-14T15:31:11.999Z</time>
      </trkpt>
      <trkpt lat="44.18425" lon="5.32116">
        <ele>649</ele>
        <time>2026-05-14T15:31:12.999Z</time>
      </trkpt>
      <trkpt lat="44.18424" lon="5.32117">
        <ele>649.4</ele>
        <time>2026-05-14T15:31:13.999Z</time>
      </trkpt>
      <trkpt lat="44.18425" lon="5.32119">
        <ele>649.6</ele>
        <time>2026-05-14T15:31:14.999Z</time>
      </trkpt>
      <trkpt lat="44.18426" lon="5.3212">
        <ele>649.6</ele>
        <time>2026-05-14T15:31:15.999Z</time>
      </trkpt>
      <trkpt lat="44.18426" lon="5.32122">
        <ele>649.7</ele>
        <time>2026-05-14T15:31:16.999Z</time>
      </trkpt>
      <trkpt lat="44.18426" lon="5.32123">
        <ele>649.6</ele>
        <time>2026-05-14T15:31:17.999Z</time>
      </trkpt>
      <trkpt lat="44.18427" lon="5.32125">
        <ele>649.8</ele>
        <time>2026-05-14T15:31:18.999Z</time>
      </trkpt>
      <trkpt lat="44.18427" lon="5.32128">
        <ele>650</ele>
        <time>2026-05-14T15:31:19.999Z</time>
      </trkpt>
      <trkpt lat="44.18427" lon="5.3213">
        <ele>650</ele>
        <time>2026-05-14T15:31:20.999Z</time>
      </trkpt>
      <trkpt lat="44.18427" lon="5.32131">
        <ele>650.3</ele>
        <time>2026-05-14T15:31:21.999Z</time>
      </trkpt>
      <trkpt lat="44.18428" lon="5.32133">
        <ele>650.1</ele>
        <time>2026-05-14T15:31:22.999Z</time>
      </trkpt>
      <trkpt lat="44.18428" lon="5.32134">
        <ele>649.7</ele>
        <time>2026-05-14T15:31:23.999Z</time>
      </trkpt>
      <trkpt lat="44.18427" lon="5.32136">
        <ele>649.6</ele>
        <time>2026-05-14T15:31:24.999Z</time>
      </trkpt>
      <trkpt lat="44.18428" lon="5.32137">
        <ele>649.4</ele>
        <time>2026-05-14T15:31:25.999Z</time>
      </trkpt>
      <trkpt lat="44.18428" lon="5.32138">
        <ele>649.3</ele>
        <time>2026-05-14T15:31:26.999Z</time>
      </trkpt>
      <trkpt lat="44.18429" lon="5.32139">
        <ele>649.1</ele>
        <time>2026-05-14T15:31:27.999Z</time>
      </trkpt>
      <trkpt lat="44.18429" lon="5.3214">
        <ele>648.7</ele>
        <time>2026-05-14T15:31:28.999Z</time>
      </trkpt>
      <trkpt lat="44.18429" lon="5.32142">
        <ele>647.9</ele>
        <time>2026-05-14T15:31:29.999Z</time>
      </trkpt>
      <trkpt lat="44.1843" lon="5.32144">
        <ele>647.4</ele>
        <time>2026-05-14T15:31:30.999Z</time>
      </trkpt>
      <trkpt lat="44.1843" lon="5.32147">
        <ele>647.6</ele>
        <time>2026-05-14T15:31:31.999Z</time>
      </trkpt>
      <trkpt lat="44.18429" lon="5.32148">
        <ele>647.2</ele>
        <time>2026-05-14T15:31:32.999Z</time>
      </trkpt>
      <trkpt lat="44.18429" lon="5.32149">
        <ele>647.2</ele>
        <time>2026-05-14T15:31:33.999Z</time>
      </trkpt>
      <trkpt lat="44.18429" lon="5.3215">
        <ele>647.2</ele>
        <time>2026-05-14T15:31:34.999Z</time>
      </trkpt>
      <trkpt lat="44.18429" lon="5.32152">
        <ele>647.2</ele>
        <time>2026-05-14T15:31:35.999Z</time>
      </trkpt>
      <trkpt lat="44.1843" lon="5.32153">
        <ele>646.4</ele>
        <time>2026-05-14T15:31:36.999Z</time>
      </trkpt>
      <trkpt lat="44.1843" lon="5.32153">
        <ele>646.4</ele>
        <time>2026-05-14T15:31:37.999Z</time>
      </trkpt>
      <trkpt lat="44.1843" lon="5.32155">
        <ele>646</ele>
        <time>2026-05-14T15:31:38.999Z</time>
      </trkpt>
      <trkpt lat="44.1843" lon="5.32156">
        <ele>645.9</ele>
        <time>2026-05-14T15:31:39.999Z</time>
      </trkpt>
      <trkpt lat="44.1843" lon="5.32157">
        <ele>646.1</ele>
        <time>2026-05-14T15:31:40.999Z</time>
      </trkpt>
      <trkpt lat="44.1843" lon="5.32157">
        <ele>646.3</ele>
        <time>2026-05-14T15:31:41.999Z</time>
      </trkpt>
      <trkpt lat="44.1843" lon="5.32158">
        <ele>645.6</ele>
        <time>2026-05-14T15:31:42.999Z</time>
      </trkpt>
      <trkpt lat="44.1843" lon="5.32158">
        <ele>645.4</ele>
        <time>2026-05-14T15:31:43.999Z</time>
      </trkpt>
      <trkpt lat="44.18431" lon="5.32159">
        <ele>645.1</ele>
        <time>2026-05-14T15:31:44.999Z</time>
      </trkpt>
      <trkpt lat="44.18431" lon="5.32159">
        <ele>645.2</ele>
        <time>2026-05-14T15:31:45.999Z</time>
      </trkpt>
      <trkpt lat="44.18431" lon="5.32161">
        <ele>645.5</ele>
        <time>2026-05-14T15:31:46.999Z</time>
      </trkpt>
      <trkpt lat="44.18432" lon="5.32163">
        <ele>645.5</ele>
        <time>2026-05-14T15:31:47.999Z</time>
      </trkpt>
      <trkpt lat="44.18432" lon="5.32166">
        <ele>645.6</ele>
        <time>2026-05-14T15:31:48.999Z</time>
      </trkpt>
      <trkpt lat="44.18433" lon="5.32168">
        <ele>645.4</ele>
        <time>2026-05-14T15:31:49.999Z</time>
      </trkpt>
      <trkpt lat="44.18433" lon="5.32169">
        <ele>645.3</ele>
        <time>2026-05-14T15:31:50.999Z</time>
      </trkpt>
      <trkpt lat="44.18433" lon="5.3217">
        <ele>645.5</ele>
        <time>2026-05-14T15:31:51.999Z</time>
      </trkpt>
      <trkpt lat="44.18433" lon="5.3217">
        <ele>645.7</ele>
        <time>2026-05-14T15:31:52.999Z</time>
      </trkpt>
      <trkpt lat="44.18433" lon="5.3217">
        <ele>645.9</ele>
        <time>2026-05-14T15:31:53.999Z</time>
      </trkpt>
      <trkpt lat="44.18433" lon="5.3217">
        <ele>645.8</ele>
        <time>2026-05-14T15:31:54.999Z</time>
      </trkpt>
      <trkpt lat="44.18433" lon="5.3217">
        <ele>646.3</ele>
        <time>2026-05-14T15:31:55.999Z</time>
      </trkpt>
      <trkpt lat="44.18433" lon="5.3217">
        <ele>646.7</ele>
        <time>2026-05-14T15:31:56.999Z</time>
      </trkpt>
      <trkpt lat="44.18432" lon="5.3217">
        <ele>647</ele>
        <time>2026-05-14T15:31:57.999Z</time>
      </trkpt>
      <trkpt lat="44.18432" lon="5.32169">
        <ele>647.1</ele>
        <time>2026-05-14T15:31:58.999Z</time>
      </trkpt>
      <trkpt lat="44.18432" lon="5.32169">
        <ele>647.2</ele>
        <time>2026-05-14T15:31:59.999Z</time>
      </trkpt>
      <trkpt lat="44.18432" lon="5.32169">
        <ele>647.2</ele>
        <time>2026-05-14T15:32:00.999Z</time>
      </trkpt>
      <trkpt lat="44.18432" lon="5.32169">
        <ele>647.3</ele>
        <time>2026-05-14T15:32:01.999Z</time>
      </trkpt>
      <trkpt lat="44.18432" lon="5.32169">
        <ele>647.2</ele>
        <time>2026-05-14T15:32:02.999Z</time>
      </trkpt>
      <trkpt lat="44.18432" lon="5.32169">
        <ele>647.1</ele>
        <time>2026-05-14T15:32:03.999Z</time>
      </trkpt>
      <trkpt lat="44.18431" lon="5.32169">
        <ele>647</ele>
        <time>2026-05-14T15:32:04.999Z</time>
      </trkpt>
      <trkpt lat="44.18431" lon="5.32169">
        <ele>647</ele>
        <time>2026-05-14T15:32:05.999Z</time>
      </trkpt>
      <trkpt lat="44.18431" lon="5.32169">
        <ele>647</ele>
        <time>2026-05-14T15:32:06.999Z</time>
      </trkpt>
      <trkpt lat="44.18431" lon="5.3217">
        <ele>647</ele>
        <time>2026-05-14T15:32:07.999Z</time>
      </trkpt>
      <trkpt lat="44.1843" lon="5.32169">
        <ele>646.8</ele>
        <time>2026-05-14T15:32:08.999Z</time>
      </trkpt>
      <trkpt lat="44.1843" lon="5.32169">
        <ele>647.1</ele>
        <time>2026-05-14T15:32:09.999Z</time>
      </trkpt>
      <trkpt lat="44.1843" lon="5.32169">
        <ele>647.6</ele>
        <time>2026-05-14T15:32:10.999Z</time>
      </trkpt>
      <trkpt lat="44.1843" lon="5.32169">
        <ele>648.2</ele>
        <time>2026-05-14T15:32:11.999Z</time>
      </trkpt>
      <trkpt lat="44.1843" lon="5.32169">
        <ele>648.7</ele>
        <time>2026-05-14T15:32:12.999Z</time>
      </trkpt>
      <trkpt lat="44.1843" lon="5.32169">
        <ele>648.8</ele>
        <time>2026-05-14T15:32:13.999Z</time>
      </trkpt>
      <trkpt lat="44.1843" lon="5.32169">
        <ele>649.2</ele>
        <time>2026-05-14T15:32:14.999Z</time>
      </trkpt>
      <trkpt lat="44.18431" lon="5.3217">
        <ele>649.3</ele>
        <time>2026-05-14T15:32:15.999Z</time>
      </trkpt>
      <trkpt lat="44.18431" lon="5.3217">
        <ele>649.6</ele>
        <time>2026-05-14T15:32:16.999Z</time>
      </trkpt>
      <trkpt lat="44.18431" lon="5.3217">
        <ele>649.9</ele>
        <time>2026-05-14T15:32:17.999Z</time>
      </trkpt>
      <trkpt lat="44.18431" lon="5.3217">
        <ele>649.9</ele>
        <time>2026-05-14T15:32:18.999Z</time>
      </trkpt>
      <trkpt lat="44.18431" lon="5.3217">
        <ele>649.5</ele>
        <time>2026-05-14T15:32:19.999Z</time>
      </trkpt>
      <trkpt lat="44.18431" lon="5.3217">
        <ele>649.2</ele>
        <time>2026-05-14T15:32:20.999Z</time>
      </trkpt>
      <trkpt lat="44.18431" lon="5.32171">
        <ele>649.2</ele>
        <time>2026-05-14T15:32:22.999Z</time>
      </trkpt>
      <trkpt lat="44.18431" lon="5.32171">
        <ele>649.4</ele>
        <time>2026-05-14T15:32:23.999Z</time>
      </trkpt>
      <trkpt lat="44.18431" lon="5.32172">
        <ele>649.2</ele>
        <time>2026-05-14T15:32:24.999Z</time>
      </trkpt>
      <trkpt lat="44.18431" lon="5.32172">
        <ele>649</ele>
        <time>2026-05-14T15:32:25.999Z</time>
      </trkpt>
      <trkpt lat="44.18431" lon="5.32172">
        <ele>648.6</ele>
        <time>2026-05-14T15:32:26.999Z</time>
      </trkpt>
      <trkpt lat="44.18431" lon="5.32173">
        <ele>647.8</ele>
        <time>2026-05-14T15:32:27.999Z</time>
      </trkpt>
      <trkpt lat="44.18432" lon="5.32177">
        <ele>647</ele>
        <time>2026-05-14T15:32:28.999Z</time>
      </trkpt>
      <trkpt lat="44.18431" lon="5.32181">
        <ele>646.4</ele>
        <time>2026-05-14T15:32:29.999Z</time>
      </trkpt>
      <trkpt lat="44.18431" lon="5.32186">
        <ele>645.5</ele>
        <time>2026-05-14T15:32:30.999Z</time>
      </trkpt>
      <trkpt lat="44.18431" lon="5.32186">
        <ele>645.1</ele>
        <time>2026-05-14T15:32:31.999Z</time>
      </trkpt>
      <trkpt lat="44.18431" lon="5.32187">
        <ele>644.9</ele>
        <time>2026-05-14T15:32:32.999Z</time>
      </trkpt>
      <trkpt lat="44.18431" lon="5.32187">
        <ele>644.9</ele>
        <time>2026-05-14T15:32:33.999Z</time>
      </trkpt>
      <trkpt lat="44.18431" lon="5.32188">
        <ele>644.8</ele>
        <time>2026-05-14T15:32:34.999Z</time>
      </trkpt>
      <trkpt lat="44.18432" lon="5.32188">
        <ele>644.9</ele>
        <time>2026-05-14T15:32:35.999Z</time>
      </trkpt>
      <trkpt lat="44.18432" lon="5.32189">
        <ele>645.1</ele>
        <time>2026-05-14T15:32:36.999Z</time>
      </trkpt>
      <trkpt lat="44.18432" lon="5.3219">
        <ele>645.3</ele>
        <time>2026-05-14T15:32:37.999Z</time>
      </trkpt>
      <trkpt lat="44.18432" lon="5.3219">
        <ele>645.1</ele>
        <time>2026-05-14T15:32:38.999Z</time>
      </trkpt>
      <trkpt lat="44.18432" lon="5.32191">
        <ele>645.1</ele>
        <time>2026-05-14T15:32:39.999Z</time>
      </trkpt>
      <trkpt lat="44.18432" lon="5.32191">
        <ele>645</ele>
        <time>2026-05-14T15:32:40.999Z</time>
      </trkpt>
      <trkpt lat="44.18433" lon="5.32192">
        <ele>644.8</ele>
        <time>2026-05-14T15:32:41.999Z</time>
      </trkpt>
      <trkpt lat="44.18433" lon="5.32192">
        <ele>644.6</ele>
        <time>2026-05-14T15:32:42.999Z</time>
      </trkpt>
      <trkpt lat="44.18433" lon="5.32193">
        <ele>644.8</ele>
        <time>2026-05-14T15:32:43.999Z</time>
      </trkpt>
      <trkpt lat="44.18433" lon="5.32194">
        <ele>645.2</ele>
        <time>2026-05-14T15:32:44.999Z</time>
      </trkpt>
      <trkpt lat="44.18433" lon="5.32194">
        <ele>645.2</ele>
        <time>2026-05-14T15:32:45.999Z</time>
      </trkpt>
      <trkpt lat="44.18434" lon="5.32195">
        <ele>645.2</ele>
        <time>2026-05-14T15:32:46.999Z</time>
      </trkpt>
      <trkpt lat="44.18435" lon="5.32197">
        <ele>645.2</ele>
        <time>2026-05-14T15:32:47.999Z</time>
      </trkpt>
      <trkpt lat="44.18435" lon="5.322">
        <ele>645.3</ele>
        <time>2026-05-14T15:32:48.999Z</time>
      </trkpt>
      <trkpt lat="44.18436" lon="5.32201">
        <ele>645.3</ele>
        <time>2026-05-14T15:32:49.999Z</time>
      </trkpt>
      <trkpt lat="44.18436" lon="5.32203">
        <ele>645.3</ele>
        <time>2026-05-14T15:32:50.999Z</time>
      </trkpt>
      <trkpt lat="44.18436" lon="5.32205">
        <ele>645.4</ele>
        <time>2026-05-14T15:32:51.999Z</time>
      </trkpt>
      <trkpt lat="44.18436" lon="5.32207">
        <ele>645.4</ele>
        <time>2026-05-14T15:32:52.999Z</time>
      </trkpt>
      <trkpt lat="44.18436" lon="5.32209">
        <ele>645.4</ele>
        <time>2026-05-14T15:32:53.999Z</time>
      </trkpt>
      <trkpt lat="44.18436" lon="5.32212">
        <ele>645.1</ele>
        <time>2026-05-14T15:32:54.999Z</time>
      </trkpt>
      <trkpt lat="44.18436" lon="5.32215">
        <ele>644.8</ele>
        <time>2026-05-14T15:32:55.999Z</time>
      </trkpt>
      <trkpt lat="44.18436" lon="5.32217">
        <ele>644.7</ele>
        <time>2026-05-14T15:32:56.999Z</time>
      </trkpt>
      <trkpt lat="44.18436" lon="5.32218">
        <ele>644.5</ele>
        <time>2026-05-14T15:32:57.999Z</time>
      </trkpt>
      <trkpt lat="44.18436" lon="5.3222">
        <ele>644.4</ele>
        <time>2026-05-14T15:32:58.999Z</time>
      </trkpt>
      <trkpt lat="44.18436" lon="5.32222">
        <ele>644.2</ele>
        <time>2026-05-14T15:32:59.999Z</time>
      </trkpt>
      <trkpt lat="44.18436" lon="5.32223">
        <ele>644</ele>
        <time>2026-05-14T15:33:00.999Z</time>
      </trkpt>
      <trkpt lat="44.18435" lon="5.32224">
        <ele>644.1</ele>
        <time>2026-05-14T15:33:01.999Z</time>
      </trkpt>
      <trkpt lat="44.18435" lon="5.32226">
        <ele>643.8</ele>
        <time>2026-05-14T15:33:02.999Z</time>
      </trkpt>
      <trkpt lat="44.18435" lon="5.32227">
        <ele>643.8</ele>
        <time>2026-05-14T15:33:03.999Z</time>
      </trkpt>
      <trkpt lat="44.18435" lon="5.32228">
        <ele>643.7</ele>
        <time>2026-05-14T15:33:04.999Z</time>
      </trkpt>
      <trkpt lat="44.18435" lon="5.32231">
        <ele>643.4</ele>
        <time>2026-05-14T15:33:05.999Z</time>
      </trkpt>
      <trkpt lat="44.18435" lon="5.32232">
        <ele>643.4</ele>
        <time>2026-05-14T15:33:06.999Z</time>
      </trkpt>
      <trkpt lat="44.18435" lon="5.32234">
        <ele>643.2</ele>
        <time>2026-05-14T15:33:07.999Z</time>
      </trkpt>
      <trkpt lat="44.18435" lon="5.32234">
        <ele>643.2</ele>
        <time>2026-05-14T15:33:08.999Z</time>
      </trkpt>
      <trkpt lat="44.18435" lon="5.32235">
        <ele>642.8</ele>
        <time>2026-05-14T15:33:09.999Z</time>
      </trkpt>
      <trkpt lat="44.18435" lon="5.32237">
        <ele>642.5</ele>
        <time>2026-05-14T15:33:10.999Z</time>
      </trkpt>
      <trkpt lat="44.18434" lon="5.32239">
        <ele>642.4</ele>
        <time>2026-05-14T15:33:11.999Z</time>
      </trkpt>
      <trkpt lat="44.18434" lon="5.3224">
        <ele>642.7</ele>
        <time>2026-05-14T15:33:12.999Z</time>
      </trkpt>
      <trkpt lat="44.18434" lon="5.32242">
        <ele>642.8</ele>
        <time>2026-05-14T15:33:13.999Z</time>
      </trkpt>
      <trkpt lat="44.18434" lon="5.32243">
        <ele>642.8</ele>
        <time>2026-05-14T15:33:14.999Z</time>
      </trkpt>
      <trkpt lat="44.18434" lon="5.32244">
        <ele>642.6</ele>
        <time>2026-05-14T15:33:15.999Z</time>
      </trkpt>
      <trkpt lat="44.18434" lon="5.32245">
        <ele>642.9</ele>
        <time>2026-05-14T15:33:16.999Z</time>
      </trkpt>
      <trkpt lat="44.18434" lon="5.32246">
        <ele>643.1</ele>
        <time>2026-05-14T15:33:17.999Z</time>
      </trkpt>
      <trkpt lat="44.18434" lon="5.32247">
        <ele>643.3</ele>
        <time>2026-05-14T15:33:18.999Z</time>
      </trkpt>
      <trkpt lat="44.18434" lon="5.32247">
        <ele>643.3</ele>
        <time>2026-05-14T15:33:19.999Z</time>
      </trkpt>
      <trkpt lat="44.18434" lon="5.32247">
        <ele>643.2</ele>
        <time>2026-05-14T15:33:20.999Z</time>
      </trkpt>
      <trkpt lat="44.18434" lon="5.32248">
        <ele>643.1</ele>
        <time>2026-05-14T15:33:21.999Z</time>
      </trkpt>
      <trkpt lat="44.18434" lon="5.3225">
        <ele>642.8</ele>
        <time>2026-05-14T15:33:22.999Z</time>
      </trkpt>
      <trkpt lat="44.18434" lon="5.32251">
        <ele>642.8</ele>
        <time>2026-05-14T15:33:23.999Z</time>
      </trkpt>
      <trkpt lat="44.18434" lon="5.32252">
        <ele>643.1</ele>
        <time>2026-05-14T15:33:24.999Z</time>
      </trkpt>
      <trkpt lat="44.18434" lon="5.32252">
        <ele>643</ele>
        <time>2026-05-14T15:33:25.999Z</time>
      </trkpt>
      <trkpt lat="44.18434" lon="5.32254">
        <ele>643.3</ele>
        <time>2026-05-14T15:33:26.999Z</time>
      </trkpt>
      <trkpt lat="44.18435" lon="5.32256">
        <ele>643.3</ele>
        <time>2026-05-14T15:33:27.999Z</time>
      </trkpt>
      <trkpt lat="44.18435" lon="5.32259">
        <ele>642.9</ele>
        <time>2026-05-14T15:33:28.999Z</time>
      </trkpt>
      <trkpt lat="44.18435" lon="5.32261">
        <ele>642.6</ele>
        <time>2026-05-14T15:33:29.999Z</time>
      </trkpt>
      <trkpt lat="44.18434" lon="5.32264">
        <ele>642.5</ele>
        <time>2026-05-14T15:33:30.999Z</time>
      </trkpt>
      <trkpt lat="44.18434" lon="5.32265">
        <ele>643</ele>
        <time>2026-05-14T15:33:31.999Z</time>
      </trkpt>
      <trkpt lat="44.18434" lon="5.32268">
        <ele>643.2</ele>
        <time>2026-05-14T15:33:32.999Z</time>
      </trkpt>
      <trkpt lat="44.18434" lon="5.3227">
        <ele>643.4</ele>
        <time>2026-05-14T15:33:33.999Z</time>
      </trkpt>
      <trkpt lat="44.18434" lon="5.32271">
        <ele>643.7</ele>
        <time>2026-05-14T15:33:34.999Z</time>
      </trkpt>
      <trkpt lat="44.18434" lon="5.32272">
        <ele>644</ele>
        <time>2026-05-14T15:33:35.999Z</time>
      </trkpt>
      <trkpt lat="44.18434" lon="5.32274">
        <ele>644</ele>
        <time>2026-05-14T15:33:36.999Z</time>
      </trkpt>
      <trkpt lat="44.18434" lon="5.32275">
        <ele>644.1</ele>
        <time>2026-05-14T15:33:37.999Z</time>
      </trkpt>
      <trkpt lat="44.18434" lon="5.32276">
        <ele>644.6</ele>
        <time>2026-05-14T15:33:38.999Z</time>
      </trkpt>
      <trkpt lat="44.18434" lon="5.32276">
        <ele>644.7</ele>
        <time>2026-05-14T15:33:39.999Z</time>
      </trkpt>
      <trkpt lat="44.18434" lon="5.32278">
        <ele>644.7</ele>
        <time>2026-05-14T15:33:40.999Z</time>
      </trkpt>
      <trkpt lat="44.18434" lon="5.32279">
        <ele>644.6</ele>
        <time>2026-05-14T15:33:41.999Z</time>
      </trkpt>
      <trkpt lat="44.18433" lon="5.32281">
        <ele>644.3</ele>
        <time>2026-05-14T15:33:42.999Z</time>
      </trkpt>
      <trkpt lat="44.18433" lon="5.32283">
        <ele>644.1</ele>
        <time>2026-05-14T15:33:43.999Z</time>
      </trkpt>
      <trkpt lat="44.18432" lon="5.32286">
        <ele>644.2</ele>
        <time>2026-05-14T15:33:44.999Z</time>
      </trkpt>
      <trkpt lat="44.18432" lon="5.32288">
        <ele>644.1</ele>
        <time>2026-05-14T15:33:45.999Z</time>
      </trkpt>
      <trkpt lat="44.18432" lon="5.3229">
        <ele>643.8</ele>
        <time>2026-05-14T15:33:46.999Z</time>
      </trkpt>
      <trkpt lat="44.18432" lon="5.32292">
        <ele>643.8</ele>
        <time>2026-05-14T15:33:47.999Z</time>
      </trkpt>
      <trkpt lat="44.18431" lon="5.32294">
        <ele>644</ele>
        <time>2026-05-14T15:33:48.999Z</time>
      </trkpt>
      <trkpt lat="44.1843" lon="5.32296">
        <ele>644.2</ele>
        <time>2026-05-14T15:33:49.999Z</time>
      </trkpt>
      <trkpt lat="44.1843" lon="5.32298">
        <ele>644.4</ele>
        <time>2026-05-14T15:33:50.999Z</time>
      </trkpt>
      <trkpt lat="44.18429" lon="5.323">
        <ele>644.5</ele>
        <time>2026-05-14T15:33:51.999Z</time>
      </trkpt>
      <trkpt lat="44.18428" lon="5.32301">
        <ele>644.2</ele>
        <time>2026-05-14T15:33:52.999Z</time>
      </trkpt>
      <trkpt lat="44.18427" lon="5.32302">
        <ele>643.9</ele>
        <time>2026-05-14T15:33:53.999Z</time>
      </trkpt>
      <trkpt lat="44.18427" lon="5.32302">
        <ele>644.2</ele>
        <time>2026-05-14T15:33:54.999Z</time>
      </trkpt>
      <trkpt lat="44.18426" lon="5.32303">
        <ele>644.7</ele>
        <time>2026-05-14T15:33:55.999Z</time>
      </trkpt>
      <trkpt lat="44.18426" lon="5.32304">
        <ele>644.7</ele>
        <time>2026-05-14T15:33:56.999Z</time>
      </trkpt>
      <trkpt lat="44.18425" lon="5.32305">
        <ele>644.5</ele>
        <time>2026-05-14T15:33:57.999Z</time>
      </trkpt>
      <trkpt lat="44.18424" lon="5.32307">
        <ele>644.1</ele>
        <time>2026-05-14T15:33:58.999Z</time>
      </trkpt>
      <trkpt lat="44.18423" lon="5.32308">
        <ele>643.6</ele>
        <time>2026-05-14T15:33:59.999Z</time>
      </trkpt>
      <trkpt lat="44.18422" lon="5.3231">
        <ele>643.4</ele>
        <time>2026-05-14T15:34:00.999Z</time>
      </trkpt>
      <trkpt lat="44.18421" lon="5.32311">
        <ele>643.4</ele>
        <time>2026-05-14T15:34:01.999Z</time>
      </trkpt>
      <trkpt lat="44.18421" lon="5.32311">
        <ele>643.6</ele>
        <time>2026-05-14T15:34:02.999Z</time>
      </trkpt>
      <trkpt lat="44.1842" lon="5.32312">
        <ele>643.9</ele>
        <time>2026-05-14T15:34:03.999Z</time>
      </trkpt>
      <trkpt lat="44.1842" lon="5.32313">
        <ele>644.2</ele>
        <time>2026-05-14T15:34:04.999Z</time>
      </trkpt>
      <trkpt lat="44.1842" lon="5.32314">
        <ele>644.5</ele>
        <time>2026-05-14T15:34:05.999Z</time>
      </trkpt>
      <trkpt lat="44.1842" lon="5.32316">
        <ele>644.7</ele>
        <time>2026-05-14T15:34:06.999Z</time>
      </trkpt>
      <trkpt lat="44.18419" lon="5.32317">
        <ele>644.5</ele>
        <time>2026-05-14T15:34:07.999Z</time>
      </trkpt>
      <trkpt lat="44.18419" lon="5.32319">
        <ele>644.3</ele>
        <time>2026-05-14T15:34:08.999Z</time>
      </trkpt>
      <trkpt lat="44.18418" lon="5.3232">
        <ele>644.1</ele>
        <time>2026-05-14T15:34:09.999Z</time>
      </trkpt>
      <trkpt lat="44.18418" lon="5.32322">
        <ele>644</ele>
        <time>2026-05-14T15:34:10.999Z</time>
      </trkpt>
      <trkpt lat="44.18417" lon="5.32324">
        <ele>643.7</ele>
        <time>2026-05-14T15:34:11.999Z</time>
      </trkpt>
      <trkpt lat="44.18417" lon="5.32326">
        <ele>643.3</ele>
        <time>2026-05-14T15:34:12.999Z</time>
      </trkpt>
      <trkpt lat="44.18416" lon="5.32327">
        <ele>643</ele>
        <time>2026-05-14T15:34:13.999Z</time>
      </trkpt>
      <trkpt lat="44.18416" lon="5.32329">
        <ele>642.6</ele>
        <time>2026-05-14T15:34:14.999Z</time>
      </trkpt>
      <trkpt lat="44.18416" lon="5.3233">
        <ele>642.5</ele>
        <time>2026-05-14T15:34:15.999Z</time>
      </trkpt>
      <trkpt lat="44.18416" lon="5.32331">
        <ele>642.1</ele>
        <time>2026-05-14T15:34:16.999Z</time>
      </trkpt>
      <trkpt lat="44.18416" lon="5.32332">
        <ele>642.1</ele>
        <time>2026-05-14T15:34:17.999Z</time>
      </trkpt>
      <trkpt lat="44.18416" lon="5.32332">
        <ele>642.2</ele>
        <time>2026-05-14T15:34:18.999Z</time>
      </trkpt>
      <trkpt lat="44.18416" lon="5.32333">
        <ele>642.2</ele>
        <time>2026-05-14T15:34:19.999Z</time>
      </trkpt>
      <trkpt lat="44.18417" lon="5.32334">
        <ele>642.2</ele>
        <time>2026-05-14T15:34:20.999Z</time>
      </trkpt>
      <trkpt lat="44.18417" lon="5.32335">
        <ele>642</ele>
        <time>2026-05-14T15:34:21.999Z</time>
      </trkpt>
      <trkpt lat="44.18418" lon="5.32336">
        <ele>642.3</ele>
        <time>2026-05-14T15:34:22.999Z</time>
      </trkpt>
      <trkpt lat="44.18418" lon="5.32337">
        <ele>642.4</ele>
        <time>2026-05-14T15:34:23.999Z</time>
      </trkpt>
      <trkpt lat="44.18419" lon="5.32339">
        <ele>642.1</ele>
        <time>2026-05-14T15:34:24.999Z</time>
      </trkpt>
      <trkpt lat="44.18419" lon="5.32338">
        <ele>642.3</ele>
        <time>2026-05-14T15:34:25.999Z</time>
      </trkpt>
      <trkpt lat="44.18419" lon="5.32338">
        <ele>642.5</ele>
        <time>2026-05-14T15:34:26.999Z</time>
      </trkpt>
      <trkpt lat="44.18419" lon="5.32338">
        <ele>642.6</ele>
        <time>2026-05-14T15:34:27.999Z</time>
      </trkpt>
      <trkpt lat="44.18419" lon="5.32338">
        <ele>642.6</ele>
        <time>2026-05-14T15:34:28.999Z</time>
      </trkpt>
      <trkpt lat="44.18419" lon="5.32339">
        <ele>642.5</ele>
        <time>2026-05-14T15:34:29.999Z</time>
      </trkpt>
      <trkpt lat="44.18419" lon="5.32339">
        <ele>642.3</ele>
        <time>2026-05-14T15:34:30.999Z</time>
      </trkpt>
      <trkpt lat="44.18419" lon="5.3234">
        <ele>642.6</ele>
        <time>2026-05-14T15:34:31.999Z</time>
      </trkpt>
      <trkpt lat="44.18419" lon="5.32339">
        <ele>642.8</ele>
        <time>2026-05-14T15:34:32.999Z</time>
      </trkpt>
      <trkpt lat="44.18419" lon="5.32339">
        <ele>642.8</ele>
        <time>2026-05-14T15:34:33.999Z</time>
      </trkpt>
      <trkpt lat="44.18419" lon="5.32339">
        <ele>642.4</ele>
        <time>2026-05-14T15:34:34.999Z</time>
      </trkpt>
      <trkpt lat="44.18419" lon="5.32339">
        <ele>642.3</ele>
        <time>2026-05-14T15:34:35.999Z</time>
      </trkpt>
      <trkpt lat="44.18419" lon="5.3234">
        <ele>642.1</ele>
        <time>2026-05-14T15:34:36.999Z</time>
      </trkpt>
      <trkpt lat="44.18419" lon="5.3234">
        <ele>641.9</ele>
        <time>2026-05-14T15:34:37.999Z</time>
      </trkpt>
      <trkpt lat="44.18419" lon="5.32341">
        <ele>641.6</ele>
        <time>2026-05-14T15:34:38.999Z</time>
      </trkpt>
      <trkpt lat="44.1842" lon="5.32341">
        <ele>641.5</ele>
        <time>2026-05-14T15:34:39.999Z</time>
      </trkpt>
      <trkpt lat="44.1842" lon="5.32341">
        <ele>641.8</ele>
        <time>2026-05-14T15:34:40.999Z</time>
      </trkpt>
      <trkpt lat="44.18421" lon="5.32341">
        <ele>641.8</ele>
        <time>2026-05-14T15:34:41.999Z</time>
      </trkpt>
      <trkpt lat="44.18421" lon="5.32341">
        <ele>641.8</ele>
        <time>2026-05-14T15:34:42.999Z</time>
      </trkpt>
      <trkpt lat="44.18422" lon="5.32342">
        <ele>641.7</ele>
        <time>2026-05-14T15:34:43.999Z</time>
      </trkpt>
      <trkpt lat="44.18422" lon="5.32342">
        <ele>641.7</ele>
        <time>2026-05-14T15:34:44.999Z</time>
      </trkpt>
      <trkpt lat="44.18423" lon="5.32342">
        <ele>641.8</ele>
        <time>2026-05-14T15:34:45.999Z</time>
      </trkpt>
      <trkpt lat="44.18424" lon="5.32344">
        <ele>641.7</ele>
        <time>2026-05-14T15:34:46.999Z</time>
      </trkpt>
      <trkpt lat="44.18425" lon="5.32345">
        <ele>641.6</ele>
        <time>2026-05-14T15:34:47.999Z</time>
      </trkpt>
      <trkpt lat="44.18426" lon="5.32346">
        <ele>641.5</ele>
        <time>2026-05-14T15:34:48.999Z</time>
      </trkpt>
      <trkpt lat="44.18426" lon="5.32347">
        <ele>641.4</ele>
        <time>2026-05-14T15:34:49.999Z</time>
      </trkpt>
      <trkpt lat="44.18427" lon="5.32348">
        <ele>641.4</ele>
        <time>2026-05-14T15:34:50.999Z</time>
      </trkpt>
      <trkpt lat="44.18428" lon="5.32348">
        <ele>641.6</ele>
        <time>2026-05-14T15:34:51.999Z</time>
      </trkpt>
      <trkpt lat="44.18428" lon="5.32349">
        <ele>641.5</ele>
        <time>2026-05-14T15:34:52.999Z</time>
      </trkpt>
      <trkpt lat="44.18428" lon="5.3235">
        <ele>641.2</ele>
        <time>2026-05-14T15:34:53.999Z</time>
      </trkpt>
      <trkpt lat="44.18428" lon="5.3235">
        <ele>641</ele>
        <time>2026-05-14T15:34:54.999Z</time>
      </trkpt>
      <trkpt lat="44.18429" lon="5.32351">
        <ele>640.9</ele>
        <time>2026-05-14T15:34:55.999Z</time>
      </trkpt>
      <trkpt lat="44.1843" lon="5.32352">
        <ele>640.8</ele>
        <time>2026-05-14T15:34:56.999Z</time>
      </trkpt>
      <trkpt lat="44.1843" lon="5.32353">
        <ele>640.6</ele>
        <time>2026-05-14T15:34:57.999Z</time>
      </trkpt>
      <trkpt lat="44.1843" lon="5.32353">
        <ele>640.5</ele>
        <time>2026-05-14T15:34:58.999Z</time>
      </trkpt>
      <trkpt lat="44.1843" lon="5.32353">
        <ele>640.4</ele>
        <time>2026-05-14T15:34:59.999Z</time>
      </trkpt>
      <trkpt lat="44.1843" lon="5.32353">
        <ele>640</ele>
        <time>2026-05-14T15:35:00.999Z</time>
      </trkpt>
      <trkpt lat="44.1843" lon="5.32354">
        <ele>639.8</ele>
        <time>2026-05-14T15:35:01.999Z</time>
      </trkpt>
      <trkpt lat="44.18431" lon="5.32354">
        <ele>639.6</ele>
        <time>2026-05-14T15:35:02.999Z</time>
      </trkpt>
      <trkpt lat="44.18433" lon="5.32355">
        <ele>639.4</ele>
        <time>2026-05-14T15:35:03.999Z</time>
      </trkpt>
      <trkpt lat="44.18435" lon="5.32357">
        <ele>639.5</ele>
        <time>2026-05-14T15:35:04.999Z</time>
      </trkpt>
      <trkpt lat="44.18436" lon="5.32357">
        <ele>639.4</ele>
        <time>2026-05-14T15:35:05.999Z</time>
      </trkpt>
      <trkpt lat="44.18437" lon="5.32357">
        <ele>639</ele>
        <time>2026-05-14T15:35:06.999Z</time>
      </trkpt>
      <trkpt lat="44.18439" lon="5.32357">
        <ele>638.8</ele>
        <time>2026-05-14T15:35:07.999Z</time>
      </trkpt>
      <trkpt lat="44.18439" lon="5.32358">
        <ele>638.6</ele>
        <time>2026-05-14T15:35:08.999Z</time>
      </trkpt>
      <trkpt lat="44.1844" lon="5.32358">
        <ele>638.3</ele>
        <time>2026-05-14T15:35:09.999Z</time>
      </trkpt>
      <trkpt lat="44.1844" lon="5.32358">
        <ele>638.2</ele>
        <time>2026-05-14T15:35:10.999Z</time>
      </trkpt>
      <trkpt lat="44.18441" lon="5.32359">
        <ele>637.8</ele>
        <time>2026-05-14T15:35:11.999Z</time>
      </trkpt>
      <trkpt lat="44.18442" lon="5.32361">
        <ele>637.8</ele>
        <time>2026-05-14T15:35:12.999Z</time>
      </trkpt>
      <trkpt lat="44.18444" lon="5.32365">
        <ele>637.2</ele>
        <time>2026-05-14T15:35:14.999Z</time>
      </trkpt>
      <trkpt lat="44.18445" lon="5.32366">
        <ele>636.9</ele>
        <time>2026-05-14T15:35:15.999Z</time>
      </trkpt>
      <trkpt lat="44.18446" lon="5.32368">
        <ele>637</ele>
        <time>2026-05-14T15:35:16.999Z</time>
      </trkpt>
      <trkpt lat="44.18447" lon="5.3237">
        <ele>637.1</ele>
        <time>2026-05-14T15:35:17.999Z</time>
      </trkpt>
      <trkpt lat="44.18447" lon="5.32372">
        <ele>637.3</ele>
        <time>2026-05-14T15:35:18.999Z</time>
      </trkpt>
      <trkpt lat="44.18447" lon="5.32374">
        <ele>637.5</ele>
        <time>2026-05-14T15:35:19.999Z</time>
      </trkpt>
      <trkpt lat="44.18447" lon="5.32375">
        <ele>637.3</ele>
        <time>2026-05-14T15:35:20.999Z</time>
      </trkpt>
      <trkpt lat="44.18448" lon="5.32376">
        <ele>637.1</ele>
        <time>2026-05-14T15:35:21.999Z</time>
      </trkpt>
      <trkpt lat="44.18448" lon="5.32378">
        <ele>636.8</ele>
        <time>2026-05-14T15:35:22.999Z</time>
      </trkpt>
      <trkpt lat="44.18448" lon="5.32379">
        <ele>636.8</ele>
        <time>2026-05-14T15:35:23.999Z</time>
      </trkpt>
      <trkpt lat="44.18448" lon="5.3238">
        <ele>636.7</ele>
        <time>2026-05-14T15:35:24.999Z</time>
      </trkpt>
      <trkpt lat="44.18449" lon="5.32382">
        <ele>636.6</ele>
        <time>2026-05-14T15:35:25.999Z</time>
      </trkpt>
      <trkpt lat="44.18449" lon="5.32384">
        <ele>636.1</ele>
        <time>2026-05-14T15:35:26.999Z</time>
      </trkpt>
      <trkpt lat="44.18449" lon="5.32386">
        <ele>636</ele>
        <time>2026-05-14T15:35:27.999Z</time>
      </trkpt>
      <trkpt lat="44.18449" lon="5.32388">
        <ele>635.7</ele>
        <time>2026-05-14T15:35:28.999Z</time>
      </trkpt>
      <trkpt lat="44.18449" lon="5.3239">
        <ele>635.3</ele>
        <time>2026-05-14T15:35:29.999Z</time>
      </trkpt>
      <trkpt lat="44.18449" lon="5.32392">
        <ele>635.3</ele>
        <time>2026-05-14T15:35:30.999Z</time>
      </trkpt>
      <trkpt lat="44.1845" lon="5.32393">
        <ele>635.3</ele>
        <time>2026-05-14T15:35:31.999Z</time>
      </trkpt>
      <trkpt lat="44.1845" lon="5.32395">
        <ele>635</ele>
        <time>2026-05-14T15:35:32.999Z</time>
      </trkpt>
      <trkpt lat="44.1845" lon="5.32395">
        <ele>635</ele>
        <time>2026-05-14T15:35:33.999Z</time>
      </trkpt>
      <trkpt lat="44.18451" lon="5.32397">
        <ele>634.9</ele>
        <time>2026-05-14T15:35:34.999Z</time>
      </trkpt>
      <trkpt lat="44.18451" lon="5.32399">
        <ele>634.8</ele>
        <time>2026-05-14T15:35:35.999Z</time>
      </trkpt>
      <trkpt lat="44.18452" lon="5.324">
        <ele>634.7</ele>
        <time>2026-05-14T15:35:36.999Z</time>
      </trkpt>
      <trkpt lat="44.18453" lon="5.32401">
        <ele>634</ele>
        <time>2026-05-14T15:35:37.999Z</time>
      </trkpt>
      <trkpt lat="44.18453" lon="5.32401">
        <ele>633.3</ele>
        <time>2026-05-14T15:35:38.999Z</time>
      </trkpt>
      <trkpt lat="44.18454" lon="5.32402">
        <ele>633.1</ele>
        <time>2026-05-14T15:35:39.999Z</time>
      </trkpt>
      <trkpt lat="44.18455" lon="5.32403">
        <ele>633</ele>
        <time>2026-05-14T15:35:40.999Z</time>
      </trkpt>
      <trkpt lat="44.18455" lon="5.32403">
        <ele>633</ele>
        <time>2026-05-14T15:35:41.999Z</time>
      </trkpt>
      <trkpt lat="44.18455" lon="5.32404">
        <ele>632.6</ele>
        <time>2026-05-14T15:35:42.999Z</time>
      </trkpt>
      <trkpt lat="44.18456" lon="5.32405">
        <ele>632.2</ele>
        <time>2026-05-14T15:35:43.999Z</time>
      </trkpt>
      <trkpt lat="44.18456" lon="5.32406">
        <ele>632</ele>
        <time>2026-05-14T15:35:44.999Z</time>
      </trkpt>
      <trkpt lat="44.18456" lon="5.32407">
        <ele>631.5</ele>
        <time>2026-05-14T15:35:45.999Z</time>
      </trkpt>
      <trkpt lat="44.18457" lon="5.32409">
        <ele>631.1</ele>
        <time>2026-05-14T15:35:46.999Z</time>
      </trkpt>
      <trkpt lat="44.18458" lon="5.3241">
        <ele>631.2</ele>
        <time>2026-05-14T15:35:47.999Z</time>
      </trkpt>
      <trkpt lat="44.18458" lon="5.3241">
        <ele>631.4</ele>
        <time>2026-05-14T15:35:48.999Z</time>
      </trkpt>
      <trkpt lat="44.18459" lon="5.32411">
        <ele>631.5</ele>
        <time>2026-05-14T15:35:49.999Z</time>
      </trkpt>
      <trkpt lat="44.1846" lon="5.32411">
        <ele>631.8</ele>
        <time>2026-05-14T15:35:50.999Z</time>
      </trkpt>
      <trkpt lat="44.1846" lon="5.32411">
        <ele>631.8</ele>
        <time>2026-05-14T15:35:51.999Z</time>
      </trkpt>
      <trkpt lat="44.18461" lon="5.32412">
        <ele>631.9</ele>
        <time>2026-05-14T15:35:52.999Z</time>
      </trkpt>
      <trkpt lat="44.18461" lon="5.32413">
        <ele>631.9</ele>
        <time>2026-05-14T15:35:53.999Z</time>
      </trkpt>
      <trkpt lat="44.18462" lon="5.32414">
        <ele>632</ele>
        <time>2026-05-14T15:35:54.999Z</time>
      </trkpt>
      <trkpt lat="44.18463" lon="5.32415">
        <ele>632.2</ele>
        <time>2026-05-14T15:35:55.999Z</time>
      </trkpt>
      <trkpt lat="44.18464" lon="5.32415">
        <ele>632.6</ele>
        <time>2026-05-14T15:35:56.999Z</time>
      </trkpt>
      <trkpt lat="44.18464" lon="5.32415">
        <ele>633.2</ele>
        <time>2026-05-14T15:35:57.999Z</time>
      </trkpt>
      <trkpt lat="44.18464" lon="5.32416">
        <ele>633.2</ele>
        <time>2026-05-14T15:35:58.999Z</time>
      </trkpt>
      <trkpt lat="44.18464" lon="5.32416">
        <ele>633.2</ele>
        <time>2026-05-14T15:35:59.999Z</time>
      </trkpt>
      <trkpt lat="44.18465" lon="5.32416">
        <ele>633.2</ele>
        <time>2026-05-14T15:36:00.999Z</time>
      </trkpt>
      <trkpt lat="44.18465" lon="5.32416">
        <ele>633.4</ele>
        <time>2026-05-14T15:36:01.999Z</time>
      </trkpt>
      <trkpt lat="44.18465" lon="5.32416">
        <ele>633.4</ele>
        <time>2026-05-14T15:36:02.999Z</time>
      </trkpt>
      <trkpt lat="44.18465" lon="5.32417">
        <ele>633.3</ele>
        <time>2026-05-14T15:36:03.999Z</time>
      </trkpt>
      <trkpt lat="44.18466" lon="5.32418">
        <ele>633.2</ele>
        <time>2026-05-14T15:36:04.999Z</time>
      </trkpt>
      <trkpt lat="44.18467" lon="5.3242">
        <ele>633.4</ele>
        <time>2026-05-14T15:36:05.999Z</time>
      </trkpt>
      <trkpt lat="44.18468" lon="5.32422">
        <ele>633.3</ele>
        <time>2026-05-14T15:36:06.999Z</time>
      </trkpt>
      <trkpt lat="44.18468" lon="5.32422">
        <ele>633.3</ele>
        <time>2026-05-14T15:36:07.999Z</time>
      </trkpt>
      <trkpt lat="44.18469" lon="5.32422">
        <ele>633.4</ele>
        <time>2026-05-14T15:36:08.999Z</time>
      </trkpt>
      <trkpt lat="44.18469" lon="5.32423">
        <ele>633.5</ele>
        <time>2026-05-14T15:36:09.999Z</time>
      </trkpt>
      <trkpt lat="44.18471" lon="5.32424">
        <ele>633.8</ele>
        <time>2026-05-14T15:36:11.999Z</time>
      </trkpt>
      <trkpt lat="44.18472" lon="5.32424">
        <ele>633.9</ele>
        <time>2026-05-14T15:36:12.999Z</time>
      </trkpt>
      <trkpt lat="44.18472" lon="5.32424">
        <ele>634</ele>
        <time>2026-05-14T15:36:13.999Z</time>
      </trkpt>
      <trkpt lat="44.18473" lon="5.32424">
        <ele>634.3</ele>
        <time>2026-05-14T15:36:14.999Z</time>
      </trkpt>
      <trkpt lat="44.18474" lon="5.32424">
        <ele>634.7</ele>
        <time>2026-05-14T15:36:15.999Z</time>
      </trkpt>
      <trkpt lat="44.18474" lon="5.32423">
        <ele>635.2</ele>
        <time>2026-05-14T15:36:16.999Z</time>
      </trkpt>
      <trkpt lat="44.18476" lon="5.32424">
        <ele>635.3</ele>
        <time>2026-05-14T15:36:17.999Z</time>
      </trkpt>
      <trkpt lat="44.18478" lon="5.32425">
        <ele>635.5</ele>
        <time>2026-05-14T15:36:18.999Z</time>
      </trkpt>
      <trkpt lat="44.18479" lon="5.32426">
        <ele>635.7</ele>
        <time>2026-05-14T15:36:19.999Z</time>
      </trkpt>
      <trkpt lat="44.18481" lon="5.32427">
        <ele>635.7</ele>
        <time>2026-05-14T15:36:20.999Z</time>
      </trkpt>
      <trkpt lat="44.18482" lon="5.32427">
        <ele>635.8</ele>
        <time>2026-05-14T15:36:21.999Z</time>
      </trkpt>
      <trkpt lat="44.18482" lon="5.32428">
        <ele>636.2</ele>
        <time>2026-05-14T15:36:22.999Z</time>
      </trkpt>
      <trkpt lat="44.18483" lon="5.32427">
        <ele>636.5</ele>
        <time>2026-05-14T15:36:23.999Z</time>
      </trkpt>
      <trkpt lat="44.18484" lon="5.32426">
        <ele>636.2</ele>
        <time>2026-05-14T15:36:24.999Z</time>
      </trkpt>
      <trkpt lat="44.18485" lon="5.32425">
        <ele>636</ele>
        <time>2026-05-14T15:36:25.999Z</time>
      </trkpt>
      <trkpt lat="44.18486" lon="5.32425">
        <ele>635.7</ele>
        <time>2026-05-14T15:36:26.999Z</time>
      </trkpt>
      <trkpt lat="44.18488" lon="5.32425">
        <ele>635.9</ele>
        <time>2026-05-14T15:36:27.999Z</time>
      </trkpt>
      <trkpt lat="44.18488" lon="5.32425">
        <ele>636.8</ele>
        <time>2026-05-14T15:36:28.999Z</time>
      </trkpt>
      <trkpt lat="44.18488" lon="5.32425">
        <ele>636.8</ele>
        <time>2026-05-14T15:36:29.999Z</time>
      </trkpt>
      <trkpt lat="44.18489" lon="5.32426">
        <ele>637</ele>
        <time>2026-05-14T15:36:30.999Z</time>
      </trkpt>
      <trkpt lat="44.1849" lon="5.32427">
        <ele>636.8</ele>
        <time>2026-05-14T15:36:31.999Z</time>
      </trkpt>
      <trkpt lat="44.1849" lon="5.32428">
        <ele>637.1</ele>
        <time>2026-05-14T15:36:32.999Z</time>
      </trkpt>
      <trkpt lat="44.1849" lon="5.32428">
        <ele>637.2</ele>
        <time>2026-05-14T15:36:33.999Z</time>
      </trkpt>
      <trkpt lat="44.1849" lon="5.32428">
        <ele>637.4</ele>
        <time>2026-05-14T15:36:34.999Z</time>
      </trkpt>
      <trkpt lat="44.18489" lon="5.32429">
        <ele>637.5</ele>
        <time>2026-05-14T15:36:35.999Z</time>
      </trkpt>
      <trkpt lat="44.18489" lon="5.32429">
        <ele>636.7</ele>
        <time>2026-05-14T15:36:36.999Z</time>
      </trkpt>
      <trkpt lat="44.18489" lon="5.32429">
        <ele>636.8</ele>
        <time>2026-05-14T15:36:37.999Z</time>
      </trkpt>
      <trkpt lat="44.18489" lon="5.32429">
        <ele>637.6</ele>
        <time>2026-05-14T15:36:38.999Z</time>
      </trkpt>
      <trkpt lat="44.1849" lon="5.32429">
        <ele>638.3</ele>
        <time>2026-05-14T15:36:39.999Z</time>
      </trkpt>
      <trkpt lat="44.1849" lon="5.32429">
        <ele>638.8</ele>
        <time>2026-05-14T15:36:40.999Z</time>
      </trkpt>
      <trkpt lat="44.1849" lon="5.3243">
        <ele>639.1</ele>
        <time>2026-05-14T15:36:41.999Z</time>
      </trkpt>
      <trkpt lat="44.18491" lon="5.32429">
        <ele>639</ele>
        <time>2026-05-14T15:36:42.999Z</time>
      </trkpt>
      <trkpt lat="44.18491" lon="5.32429">
        <ele>638.9</ele>
        <time>2026-05-14T15:36:43.999Z</time>
      </trkpt>
      <trkpt lat="44.18491" lon="5.32429">
        <ele>639.1</ele>
        <time>2026-05-14T15:36:44.999Z</time>
      </trkpt>
      <trkpt lat="44.18491" lon="5.32429">
        <ele>639.4</ele>
        <time>2026-05-14T15:36:45.999Z</time>
      </trkpt>
      <trkpt lat="44.18492" lon="5.32429">
        <ele>639.5</ele>
        <time>2026-05-14T15:36:46.999Z</time>
      </trkpt>
      <trkpt lat="44.18491" lon="5.32429">
        <ele>639.6</ele>
        <time>2026-05-14T15:36:47.999Z</time>
      </trkpt>
      <trkpt lat="44.18491" lon="5.32429">
        <ele>639.4</ele>
        <time>2026-05-14T15:36:48.999Z</time>
      </trkpt>
      <trkpt lat="44.18491" lon="5.32429">
        <ele>639.4</ele>
        <time>2026-05-14T15:36:49.999Z</time>
      </trkpt>
      <trkpt lat="44.18491" lon="5.32428">
        <ele>638.8</ele>
        <time>2026-05-14T15:36:50.999Z</time>
      </trkpt>
      <trkpt lat="44.18491" lon="5.32428">
        <ele>638.7</ele>
        <time>2026-05-14T15:36:51.999Z</time>
      </trkpt>
      <trkpt lat="44.18491" lon="5.32428">
        <ele>639</ele>
        <time>2026-05-14T15:36:52.999Z</time>
      </trkpt>
      <trkpt lat="44.18491" lon="5.32428">
        <ele>639.2</ele>
        <time>2026-05-14T15:36:53.999Z</time>
      </trkpt>
      <trkpt lat="44.18491" lon="5.32427">
        <ele>639.4</ele>
        <time>2026-05-14T15:36:54.999Z</time>
      </trkpt>
      <trkpt lat="44.18492" lon="5.32426">
        <ele>639.3</ele>
        <time>2026-05-14T15:36:55.999Z</time>
      </trkpt>
      <trkpt lat="44.18492" lon="5.32426">
        <ele>639</ele>
        <time>2026-05-14T15:36:56.999Z</time>
      </trkpt>
      <trkpt lat="44.18492" lon="5.32426">
        <ele>638.9</ele>
        <time>2026-05-14T15:36:57.999Z</time>
      </trkpt>
      <trkpt lat="44.18492" lon="5.32426">
        <ele>638.9</ele>
        <time>2026-05-14T15:36:58.999Z</time>
      </trkpt>
      <trkpt lat="44.18492" lon="5.32426">
        <ele>638.9</ele>
        <time>2026-05-14T15:36:59.999Z</time>
      </trkpt>
      <trkpt lat="44.18492" lon="5.32426">
        <ele>639</ele>
        <time>2026-05-14T15:37:00.999Z</time>
      </trkpt>
      <trkpt lat="44.18492" lon="5.32426">
        <ele>639</ele>
        <time>2026-05-14T15:37:01.999Z</time>
      </trkpt>
      <trkpt lat="44.18492" lon="5.32426">
        <ele>639.2</ele>
        <time>2026-05-14T15:37:02.999Z</time>
      </trkpt>
      <trkpt lat="44.18492" lon="5.32426">
        <ele>639.6</ele>
        <time>2026-05-14T15:37:03.999Z</time>
      </trkpt>
      <trkpt lat="44.18492" lon="5.32426">
        <ele>639.5</ele>
        <time>2026-05-14T15:37:04.999Z</time>
      </trkpt>
      <trkpt lat="44.18492" lon="5.32426">
        <ele>639.6</ele>
        <time>2026-05-14T15:37:05.999Z</time>
      </trkpt>
      <trkpt lat="44.18492" lon="5.32426">
        <ele>639.6</ele>
        <time>2026-05-14T15:37:06.999Z</time>
      </trkpt>
      <trkpt lat="44.18491" lon="5.32426">
        <ele>639.6</ele>
        <time>2026-05-14T15:37:07.999Z</time>
      </trkpt>
      <trkpt lat="44.18492" lon="5.32426">
        <ele>639.6</ele>
        <time>2026-05-14T15:37:08.999Z</time>
      </trkpt>
      <trkpt lat="44.18492" lon="5.32426">
        <ele>639.7</ele>
        <time>2026-05-14T15:37:09.999Z</time>
      </trkpt>
      <trkpt lat="44.18492" lon="5.32425">
        <ele>639.6</ele>
        <time>2026-05-14T15:37:10.999Z</time>
      </trkpt>
      <trkpt lat="44.18492" lon="5.32425">
        <ele>639.4</ele>
        <time>2026-05-14T15:37:11.999Z</time>
      </trkpt>
      <trkpt lat="44.18492" lon="5.32425">
        <ele>639.8</ele>
        <time>2026-05-14T15:37:12.999Z</time>
      </trkpt>
      <trkpt lat="44.18492" lon="5.32425">
        <ele>640</ele>
        <time>2026-05-14T15:37:13.999Z</time>
      </trkpt>
      <trkpt lat="44.18492" lon="5.32425">
        <ele>640.1</ele>
        <time>2026-05-14T15:37:14.999Z</time>
      </trkpt>
      <trkpt lat="44.18492" lon="5.32425">
        <ele>640</ele>
        <time>2026-05-14T15:37:15.999Z</time>
      </trkpt>
      <trkpt lat="44.18492" lon="5.32425">
        <ele>639.9</ele>
        <time>2026-05-14T15:37:16.999Z</time>
      </trkpt>
      <trkpt lat="44.18492" lon="5.32425">
        <ele>640</ele>
        <time>2026-05-14T15:37:17.999Z</time>
      </trkpt>
      <trkpt lat="44.18492" lon="5.32425">
        <ele>640.2</ele>
        <time>2026-05-14T15:37:18.999Z</time>
      </trkpt>
      <trkpt lat="44.18492" lon="5.32425">
        <ele>640.3</ele>
        <time>2026-05-14T15:37:19.999Z</time>
      </trkpt>
      <trkpt lat="44.18492" lon="5.32425">
        <ele>640.3</ele>
        <time>2026-05-14T15:37:20.999Z</time>
      </trkpt>
      <trkpt lat="44.18492" lon="5.32425">
        <ele>640.2</ele>
        <time>2026-05-14T15:37:21.999Z</time>
      </trkpt>
      <trkpt lat="44.18493" lon="5.32426">
        <ele>639.6</ele>
        <time>2026-05-14T15:37:22.999Z</time>
      </trkpt>
      <trkpt lat="44.18493" lon="5.32426">
        <ele>639</ele>
        <time>2026-05-14T15:37:23.999Z</time>
      </trkpt>
      <trkpt lat="44.18493" lon="5.32426">
        <ele>638.8</ele>
        <time>2026-05-14T15:37:24.999Z</time>
      </trkpt>
      <trkpt lat="44.18493" lon="5.32426">
        <ele>638.7</ele>
        <time>2026-05-14T15:37:25.999Z</time>
      </trkpt>
      <trkpt lat="44.18493" lon="5.32427">
        <ele>638.4</ele>
        <time>2026-05-14T15:37:26.999Z</time>
      </trkpt>
      <trkpt lat="44.18494" lon="5.32426">
        <ele>638.5</ele>
        <time>2026-05-14T15:37:27.999Z</time>
      </trkpt>
      <trkpt lat="44.18495" lon="5.32426">
        <ele>638.5</ele>
        <time>2026-05-14T15:37:28.999Z</time>
      </trkpt>
      <trkpt lat="44.18496" lon="5.32425">
        <ele>638.5</ele>
        <time>2026-05-14T15:37:29.999Z</time>
      </trkpt>
      <trkpt lat="44.18497" lon="5.32425">
        <ele>638.5</ele>
        <time>2026-05-14T15:37:30.999Z</time>
      </trkpt>
      <trkpt lat="44.18499" lon="5.32425">
        <ele>638.3</ele>
        <time>2026-05-14T15:37:31.999Z</time>
      </trkpt>
      <trkpt lat="44.185" lon="5.32425">
        <ele>638.3</ele>
        <time>2026-05-14T15:37:32.999Z</time>
      </trkpt>
      <trkpt lat="44.185" lon="5.32423">
        <ele>638.5</ele>
        <time>2026-05-14T15:37:33.999Z</time>
      </trkpt>
      <trkpt lat="44.18501" lon="5.32422">
        <ele>638.7</ele>
        <time>2026-05-14T15:37:34.999Z</time>
      </trkpt>
      <trkpt lat="44.18503" lon="5.32422">
        <ele>638.9</ele>
        <time>2026-05-14T15:37:35.999Z</time>
      </trkpt>
      <trkpt lat="44.18504" lon="5.32423">
        <ele>639.4</ele>
        <time>2026-05-14T15:37:36.999Z</time>
      </trkpt>
      <trkpt lat="44.18505" lon="5.32423">
        <ele>639.8</ele>
        <time>2026-05-14T15:37:37.999Z</time>
      </trkpt>
      <trkpt lat="44.18506" lon="5.32423">
        <ele>640.2</ele>
        <time>2026-05-14T15:37:38.999Z</time>
      </trkpt>
      <trkpt lat="44.18508" lon="5.32422">
        <ele>640.4</ele>
        <time>2026-05-14T15:37:39.999Z</time>
      </trkpt>
      <trkpt lat="44.18509" lon="5.32421">
        <ele>640.6</ele>
        <time>2026-05-14T15:37:40.999Z</time>
      </trkpt>
      <trkpt lat="44.18509" lon="5.32421">
        <ele>640.7</ele>
        <time>2026-05-14T15:37:41.999Z</time>
      </trkpt>
      <trkpt lat="44.1851" lon="5.32421">
        <ele>640.9</ele>
        <time>2026-05-14T15:37:42.999Z</time>
      </trkpt>
      <trkpt lat="44.18511" lon="5.32421">
        <ele>641.1</ele>
        <time>2026-05-14T15:37:43.999Z</time>
      </trkpt>
      <trkpt lat="44.18513" lon="5.3242">
        <ele>641.7</ele>
        <time>2026-05-14T15:37:44.999Z</time>
      </trkpt>
      <trkpt lat="44.18514" lon="5.3242">
        <ele>642</ele>
        <time>2026-05-14T15:37:45.999Z</time>
      </trkpt>
      <trkpt lat="44.18516" lon="5.3242">
        <ele>642.3</ele>
        <time>2026-05-14T15:37:46.999Z</time>
      </trkpt>
      <trkpt lat="44.18517" lon="5.3242">
        <ele>642.5</ele>
        <time>2026-05-14T15:37:47.999Z</time>
      </trkpt>
      <trkpt lat="44.18518" lon="5.32419">
        <ele>642.7</ele>
        <time>2026-05-14T15:37:48.999Z</time>
      </trkpt>
      <trkpt lat="44.18519" lon="5.32418">
        <ele>643.1</ele>
        <time>2026-05-14T15:37:49.999Z</time>
      </trkpt>
      <trkpt lat="44.1852" lon="5.32417">
        <ele>643.2</ele>
        <time>2026-05-14T15:37:50.999Z</time>
      </trkpt>
      <trkpt lat="44.18522" lon="5.32416">
        <ele>643.4</ele>
        <time>2026-05-14T15:37:51.999Z</time>
      </trkpt>
      <trkpt lat="44.18522" lon="5.32415">
        <ele>643.4</ele>
        <time>2026-05-14T15:37:52.999Z</time>
      </trkpt>
      <trkpt lat="44.18523" lon="5.32415">
        <ele>643.4</ele>
        <time>2026-05-14T15:37:53.999Z</time>
      </trkpt>
      <trkpt lat="44.18525" lon="5.32415">
        <ele>643.6</ele>
        <time>2026-05-14T15:37:54.999Z</time>
      </trkpt>
      <trkpt lat="44.18525" lon="5.32415">
        <ele>643.7</ele>
        <time>2026-05-14T15:37:55.999Z</time>
      </trkpt>
      <trkpt lat="44.18525" lon="5.32415">
        <ele>643.8</ele>
        <time>2026-05-14T15:37:56.999Z</time>
      </trkpt>
      <trkpt lat="44.18525" lon="5.32415">
        <ele>643.9</ele>
        <time>2026-05-14T15:37:57.999Z</time>
      </trkpt>
      <trkpt lat="44.18525" lon="5.32414">
        <ele>644.3</ele>
        <time>2026-05-14T15:37:58.999Z</time>
      </trkpt>
      <trkpt lat="44.18526" lon="5.32413">
        <ele>644.4</ele>
        <time>2026-05-14T15:37:59.999Z</time>
      </trkpt>
      <trkpt lat="44.18526" lon="5.32413">
        <ele>644.4</ele>
        <time>2026-05-14T15:38:00.999Z</time>
      </trkpt>
      <trkpt lat="44.18526" lon="5.32413">
        <ele>644.6</ele>
        <time>2026-05-14T15:38:01.999Z</time>
      </trkpt>
      <trkpt lat="44.18526" lon="5.32412">
        <ele>644.8</ele>
        <time>2026-05-14T15:38:02.999Z</time>
      </trkpt>
      <trkpt lat="44.18527" lon="5.32413">
        <ele>644.6</ele>
        <time>2026-05-14T15:38:03.999Z</time>
      </trkpt>
      <trkpt lat="44.18527" lon="5.32413">
        <ele>644.6</ele>
        <time>2026-05-14T15:38:04.999Z</time>
      </trkpt>
      <trkpt lat="44.18527" lon="5.32413">
        <ele>644.8</ele>
        <time>2026-05-14T15:38:05.999Z</time>
      </trkpt>
      <trkpt lat="44.18527" lon="5.32413">
        <ele>644.3</ele>
        <time>2026-05-14T15:38:06.999Z</time>
      </trkpt>
      <trkpt lat="44.18527" lon="5.32412">
        <ele>644.4</ele>
        <time>2026-05-14T15:38:07.999Z</time>
      </trkpt>
      <trkpt lat="44.18528" lon="5.32412">
        <ele>644.2</ele>
        <time>2026-05-14T15:38:08.999Z</time>
      </trkpt>
      <trkpt lat="44.18529" lon="5.32412">
        <ele>644.1</ele>
        <time>2026-05-14T15:38:09.999Z</time>
      </trkpt>
      <trkpt lat="44.18529" lon="5.32412">
        <ele>644.1</ele>
        <time>2026-05-14T15:38:10.999Z</time>
      </trkpt>
      <trkpt lat="44.1853" lon="5.32412">
        <ele>644.3</ele>
        <time>2026-05-14T15:38:11.999Z</time>
      </trkpt>
      <trkpt lat="44.1853" lon="5.32412">
        <ele>644.2</ele>
        <time>2026-05-14T15:38:12.999Z</time>
      </trkpt>
      <trkpt lat="44.18531" lon="5.32413">
        <ele>644</ele>
        <time>2026-05-14T15:38:13.999Z</time>
      </trkpt>
      <trkpt lat="44.18531" lon="5.32414">
        <ele>643.7</ele>
        <time>2026-05-14T15:38:14.999Z</time>
      </trkpt>
      <trkpt lat="44.18532" lon="5.32415">
        <ele>643.7</ele>
        <time>2026-05-14T15:38:15.999Z</time>
      </trkpt>
      <trkpt lat="44.18532" lon="5.32415">
        <ele>643.6</ele>
        <time>2026-05-14T15:38:16.999Z</time>
      </trkpt>
      <trkpt lat="44.18532" lon="5.32415">
        <ele>643.4</ele>
        <time>2026-05-14T15:38:17.999Z</time>
      </trkpt>
      <trkpt lat="44.18532" lon="5.32415">
        <ele>643.2</ele>
        <time>2026-05-14T15:38:18.999Z</time>
      </trkpt>
      <trkpt lat="44.18532" lon="5.32415">
        <ele>643.4</ele>
        <time>2026-05-14T15:38:19.999Z</time>
      </trkpt>
      <trkpt lat="44.18532" lon="5.32415">
        <ele>643.6</ele>
        <time>2026-05-14T15:38:20.999Z</time>
      </trkpt>
      <trkpt lat="44.18532" lon="5.32415">
        <ele>643.6</ele>
        <time>2026-05-14T15:38:21.999Z</time>
      </trkpt>
      <trkpt lat="44.18533" lon="5.32416">
        <ele>643.7</ele>
        <time>2026-05-14T15:38:22.999Z</time>
      </trkpt>
      <trkpt lat="44.18534" lon="5.32417">
        <ele>643.9</ele>
        <time>2026-05-14T15:38:23.999Z</time>
      </trkpt>
      <trkpt lat="44.18534" lon="5.32418">
        <ele>643.8</ele>
        <time>2026-05-14T15:38:24.999Z</time>
      </trkpt>
      <trkpt lat="44.18535" lon="5.3242">
        <ele>643.7</ele>
        <time>2026-05-14T15:38:25.999Z</time>
      </trkpt>
      <trkpt lat="44.18534" lon="5.32421">
        <ele>643.6</ele>
        <time>2026-05-14T15:38:26.999Z</time>
      </trkpt>
      <trkpt lat="44.18535" lon="5.32423">
        <ele>643.4</ele>
        <time>2026-05-14T15:38:27.999Z</time>
      </trkpt>
      <trkpt lat="44.18536" lon="5.32425">
        <ele>643.2</ele>
        <time>2026-05-14T15:38:28.999Z</time>
      </trkpt>
      <trkpt lat="44.18536" lon="5.32426">
        <ele>643.2</ele>
        <time>2026-05-14T15:38:29.999Z</time>
      </trkpt>
      <trkpt lat="44.18536" lon="5.32427">
        <ele>643.3</ele>
        <time>2026-05-14T15:38:30.999Z</time>
      </trkpt>
      <trkpt lat="44.18536" lon="5.32428">
        <ele>643.3</ele>
        <time>2026-05-14T15:38:31.999Z</time>
      </trkpt>
      <trkpt lat="44.18536" lon="5.32428">
        <ele>643.5</ele>
        <time>2026-05-14T15:38:32.999Z</time>
      </trkpt>
      <trkpt lat="44.18536" lon="5.32428">
        <ele>643.6</ele>
        <time>2026-05-14T15:38:33.999Z</time>
      </trkpt>
      <trkpt lat="44.18536" lon="5.32428">
        <ele>643.7</ele>
        <time>2026-05-14T15:38:34.999Z</time>
      </trkpt>
      <trkpt lat="44.18536" lon="5.32428">
        <ele>643.9</ele>
        <time>2026-05-14T15:38:35.999Z</time>
      </trkpt>
      <trkpt lat="44.18536" lon="5.32428">
        <ele>644.1</ele>
        <time>2026-05-14T15:38:36.999Z</time>
      </trkpt>
      <trkpt lat="44.18536" lon="5.32428">
        <ele>644.3</ele>
        <time>2026-05-14T15:38:37.999Z</time>
      </trkpt>
      <trkpt lat="44.18536" lon="5.32429">
        <ele>644.4</ele>
        <time>2026-05-14T15:38:38.999Z</time>
      </trkpt>
      <trkpt lat="44.18536" lon="5.32429">
        <ele>644.6</ele>
        <time>2026-05-14T15:38:39.999Z</time>
      </trkpt>
      <trkpt lat="44.18536" lon="5.32429">
        <ele>644.6</ele>
        <time>2026-05-14T15:38:40.999Z</time>
      </trkpt>
      <trkpt lat="44.18536" lon="5.32429">
        <ele>644.7</ele>
        <time>2026-05-14T15:38:41.999Z</time>
      </trkpt>
      <trkpt lat="44.18536" lon="5.32429">
        <ele>644.5</ele>
        <time>2026-05-14T15:38:42.999Z</time>
      </trkpt>
      <trkpt lat="44.18536" lon="5.32429">
        <ele>644.5</ele>
        <time>2026-05-14T15:38:43.999Z</time>
      </trkpt>
      <trkpt lat="44.18536" lon="5.32429">
        <ele>644.4</ele>
        <time>2026-05-14T15:38:44.999Z</time>
      </trkpt>
      <trkpt lat="44.18536" lon="5.32429">
        <ele>644.4</ele>
        <time>2026-05-14T15:38:45.999Z</time>
      </trkpt>
      <trkpt lat="44.18535" lon="5.32429">
        <ele>644.3</ele>
        <time>2026-05-14T15:38:46.999Z</time>
      </trkpt>
      <trkpt lat="44.18534" lon="5.32429">
        <ele>644.2</ele>
        <time>2026-05-14T15:38:47.999Z</time>
      </trkpt>
      <trkpt lat="44.18534" lon="5.32429">
        <ele>644.2</ele>
        <time>2026-05-14T15:38:48.999Z</time>
      </trkpt>
      <trkpt lat="44.18534" lon="5.32429">
        <ele>644.1</ele>
        <time>2026-05-14T15:38:49.999Z</time>
      </trkpt>
      <trkpt lat="44.18535" lon="5.32429">
        <ele>644</ele>
        <time>2026-05-14T15:38:50.999Z</time>
      </trkpt>
      <trkpt lat="44.18535" lon="5.32429">
        <ele>644</ele>
        <time>2026-05-14T15:38:51.999Z</time>
      </trkpt>
      <trkpt lat="44.18535" lon="5.32429">
        <ele>643.9</ele>
        <time>2026-05-14T15:38:52.999Z</time>
      </trkpt>
      <trkpt lat="44.18535" lon="5.32429">
        <ele>643.9</ele>
        <time>2026-05-14T15:38:53.999Z</time>
      </trkpt>
      <trkpt lat="44.18535" lon="5.32429">
        <ele>643.9</ele>
        <time>2026-05-14T15:38:54.999Z</time>
      </trkpt>
      <trkpt lat="44.18535" lon="5.32429">
        <ele>643.7</ele>
        <time>2026-05-14T15:38:55.999Z</time>
      </trkpt>
      <trkpt lat="44.18535" lon="5.32429">
        <ele>643.8</ele>
        <time>2026-05-14T15:38:56.999Z</time>
      </trkpt>
      <trkpt lat="44.18535" lon="5.32429">
        <ele>643.7</ele>
        <time>2026-05-14T15:38:57.999Z</time>
      </trkpt>
      <trkpt lat="44.18535" lon="5.32429">
        <ele>643.7</ele>
        <time>2026-05-14T15:38:58.999Z</time>
      </trkpt>
      <trkpt lat="44.18535" lon="5.32429">
        <ele>643.6</ele>
        <time>2026-05-14T15:39:00.999Z</time>
      </trkpt>
      <trkpt lat="44.18535" lon="5.32429">
        <ele>643.7</ele>
        <time>2026-05-14T15:39:01.999Z</time>
      </trkpt>
      <trkpt lat="44.18535" lon="5.32429">
        <ele>643.8</ele>
        <time>2026-05-14T15:39:02.999Z</time>
      </trkpt>
      <trkpt lat="44.18535" lon="5.32429">
        <ele>643.5</ele>
        <time>2026-05-14T15:39:03.999Z</time>
      </trkpt>
      <trkpt lat="44.18535" lon="5.32429">
        <ele>643.5</ele>
        <time>2026-05-14T15:39:04.999Z</time>
      </trkpt>
      <trkpt lat="44.18535" lon="5.32429">
        <ele>643.8</ele>
        <time>2026-05-14T15:39:05.999Z</time>
      </trkpt>
      <trkpt lat="44.18535" lon="5.32429">
        <ele>644.4</ele>
        <time>2026-05-14T15:39:06.999Z</time>
      </trkpt>
      <trkpt lat="44.18535" lon="5.32429">
        <ele>644.7</ele>
        <time>2026-05-14T15:39:07.999Z</time>
      </trkpt>
      <trkpt lat="44.18535" lon="5.32429">
        <ele>644.8</ele>
        <time>2026-05-14T15:39:08.999Z</time>
      </trkpt>
      <trkpt lat="44.18535" lon="5.32429">
        <ele>644.8</ele>
        <time>2026-05-14T15:39:09.999Z</time>
      </trkpt>
      <trkpt lat="44.18535" lon="5.32429">
        <ele>645</ele>
        <time>2026-05-14T15:39:10.999Z</time>
      </trkpt>
      <trkpt lat="44.18535" lon="5.32429">
        <ele>644.8</ele>
        <time>2026-05-14T15:39:11.999Z</time>
      </trkpt>
      <trkpt lat="44.18535" lon="5.32429">
        <ele>644.7</ele>
        <time>2026-05-14T15:39:12.999Z</time>
      </trkpt>
      <trkpt lat="44.18535" lon="5.32429">
        <ele>644.7</ele>
        <time>2026-05-14T15:39:13.999Z</time>
      </trkpt>
      <trkpt lat="44.18535" lon="5.32429">
        <ele>644.8</ele>
        <time>2026-05-14T15:39:14.999Z</time>
      </trkpt>
      <trkpt lat="44.18535" lon="5.32429">
        <ele>645</ele>
        <time>2026-05-14T15:39:15.999Z</time>
      </trkpt>
      <trkpt lat="44.18535" lon="5.32429">
        <ele>645.2</ele>
        <time>2026-05-14T15:39:16.999Z</time>
      </trkpt>
      <trkpt lat="44.18535" lon="5.32429">
        <ele>645.2</ele>
        <time>2026-05-14T15:39:17.999Z</time>
      </trkpt>
      <trkpt lat="44.18535" lon="5.32429">
        <ele>645.4</ele>
        <time>2026-05-14T15:39:18.999Z</time>
      </trkpt>
      <trkpt lat="44.18535" lon="5.32429">
        <ele>644.9</ele>
        <time>2026-05-14T15:39:19.999Z</time>
      </trkpt>
      <trkpt lat="44.18535" lon="5.32429">
        <ele>644.5</ele>
        <time>2026-05-14T15:39:20.999Z</time>
      </trkpt>
      <trkpt lat="44.18535" lon="5.32429">
        <ele>644</ele>
        <time>2026-05-14T15:39:21.999Z</time>
      </trkpt>
      <trkpt lat="44.18535" lon="5.32429">
        <ele>643.7</ele>
        <time>2026-05-14T15:39:22.999Z</time>
      </trkpt>
      <trkpt lat="44.18535" lon="5.32429">
        <ele>643.3</ele>
        <time>2026-05-14T15:39:23.999Z</time>
      </trkpt>
      <trkpt lat="44.18535" lon="5.32429">
        <ele>643</ele>
        <time>2026-05-14T15:39:24.999Z</time>
      </trkpt>
      <trkpt lat="44.18535" lon="5.32429">
        <ele>642.4</ele>
        <time>2026-05-14T15:39:25.999Z</time>
      </trkpt>
      <trkpt lat="44.18535" lon="5.3243">
        <ele>642.2</ele>
        <time>2026-05-14T15:39:26.999Z</time>
      </trkpt>
      <trkpt lat="44.18535" lon="5.32429">
        <ele>642.3</ele>
        <time>2026-05-14T15:39:27.999Z</time>
      </trkpt>
      <trkpt lat="44.18535" lon="5.32429">
        <ele>642.4</ele>
        <time>2026-05-14T15:39:28.999Z</time>
      </trkpt>
      <trkpt lat="44.18535" lon="5.32429">
        <ele>642.6</ele>
        <time>2026-05-14T15:39:29.999Z</time>
      </trkpt>
      <trkpt lat="44.18535" lon="5.32429">
        <ele>642.7</ele>
        <time>2026-05-14T15:39:30.999Z</time>
      </trkpt>
      <trkpt lat="44.18535" lon="5.32429">
        <ele>643.1</ele>
        <time>2026-05-14T15:39:31.999Z</time>
      </trkpt>
      <trkpt lat="44.18535" lon="5.32429">
        <ele>643.3</ele>
        <time>2026-05-14T15:39:32.999Z</time>
      </trkpt>
      <trkpt lat="44.18535" lon="5.32429">
        <ele>643.2</ele>
        <time>2026-05-14T15:39:33.999Z</time>
      </trkpt>
      <trkpt lat="44.18535" lon="5.32429">
        <ele>643.2</ele>
        <time>2026-05-14T15:39:34.999Z</time>
      </trkpt>
      <trkpt lat="44.18535" lon="5.32429">
        <ele>643.1</ele>
        <time>2026-05-14T15:39:35.999Z</time>
      </trkpt>
      <trkpt lat="44.18535" lon="5.32429">
        <ele>643.2</ele>
        <time>2026-05-14T15:39:36.999Z</time>
      </trkpt>
      <trkpt lat="44.18535" lon="5.32429">
        <ele>643.2</ele>
        <time>2026-05-14T15:39:37.999Z</time>
      </trkpt>
      <trkpt lat="44.18535" lon="5.32429">
        <ele>643.1</ele>
        <time>2026-05-14T15:39:38.999Z</time>
      </trkpt>
      <trkpt lat="44.18535" lon="5.32429">
        <ele>643.1</ele>
        <time>2026-05-14T15:39:39.999Z</time>
      </trkpt>
      <trkpt lat="44.18535" lon="5.32429">
        <ele>643</ele>
        <time>2026-05-14T15:39:41.999Z</time>
      </trkpt>
      <trkpt lat="44.18534" lon="5.32429">
        <ele>643.1</ele>
        <time>2026-05-14T15:39:42.999Z</time>
      </trkpt>
      <trkpt lat="44.18534" lon="5.32429">
        <ele>643.1</ele>
        <time>2026-05-14T15:39:43.999Z</time>
      </trkpt>
      <trkpt lat="44.18534" lon="5.32429">
        <ele>643.2</ele>
        <time>2026-05-14T15:39:44.999Z</time>
      </trkpt>
      <trkpt lat="44.18534" lon="5.32429">
        <ele>643.3</ele>
        <time>2026-05-14T15:39:45.999Z</time>
      </trkpt>
      <trkpt lat="44.18534" lon="5.32429">
        <ele>643.4</ele>
        <time>2026-05-14T15:39:46.999Z</time>
      </trkpt>
      <trkpt lat="44.18534" lon="5.32429">
        <ele>643.3</ele>
        <time>2026-05-14T15:39:47.999Z</time>
      </trkpt>
      <trkpt lat="44.18534" lon="5.32429">
        <ele>643.5</ele>
        <time>2026-05-14T15:39:48.999Z</time>
      </trkpt>
      <trkpt lat="44.18534" lon="5.32429">
        <ele>643.3</ele>
        <time>2026-05-14T15:39:49.999Z</time>
      </trkpt>
      <trkpt lat="44.18534" lon="5.32429">
        <ele>643.4</ele>
        <time>2026-05-14T15:39:50.999Z</time>
      </trkpt>
      <trkpt lat="44.18534" lon="5.32429">
        <ele>643.6</ele>
        <time>2026-05-14T15:39:51.999Z</time>
      </trkpt>
      <trkpt lat="44.18534" lon="5.32429">
        <ele>643.8</ele>
        <time>2026-05-14T15:39:52.999Z</time>
      </trkpt>
      <trkpt lat="44.18533" lon="5.32428">
        <ele>643.8</ele>
        <time>2026-05-14T15:39:54.999Z</time>
      </trkpt>
      <trkpt lat="44.18533" lon="5.32428">
        <ele>643.7</ele>
        <time>2026-05-14T15:39:55.999Z</time>
      </trkpt>
      <trkpt lat="44.18533" lon="5.32428">
        <ele>643.5</ele>
        <time>2026-05-14T15:39:56.999Z</time>
      </trkpt>
      <trkpt lat="44.18533" lon="5.32428">
        <ele>643.4</ele>
        <time>2026-05-14T15:39:57.999Z</time>
      </trkpt>
      <trkpt lat="44.18533" lon="5.32428">
        <ele>643.2</ele>
        <time>2026-05-14T15:39:58.999Z</time>
      </trkpt>
      <trkpt lat="44.18534" lon="5.32428">
        <ele>642.8</ele>
        <time>2026-05-14T15:39:59.999Z</time>
      </trkpt>
      <trkpt lat="44.18534" lon="5.32428">
        <ele>642.5</ele>
        <time>2026-05-14T15:40:00.999Z</time>
      </trkpt>
      <trkpt lat="44.18534" lon="5.32428">
        <ele>642.6</ele>
        <time>2026-05-14T15:40:01.999Z</time>
      </trkpt>
      <trkpt lat="44.18534" lon="5.32428">
        <ele>642.7</ele>
        <time>2026-05-14T15:40:02.999Z</time>
      </trkpt>
      <trkpt lat="44.18534" lon="5.32428">
        <ele>643</ele>
        <time>2026-05-14T15:40:03.999Z</time>
      </trkpt>
      <trkpt lat="44.18534" lon="5.32428">
        <ele>643.2</ele>
        <time>2026-05-14T15:40:04.999Z</time>
      </trkpt>
      <trkpt lat="44.18534" lon="5.32428">
        <ele>643.1</ele>
        <time>2026-05-14T15:40:05.999Z</time>
      </trkpt>
      <trkpt lat="44.18534" lon="5.32428">
        <ele>643.2</ele>
        <time>2026-05-14T15:40:06.999Z</time>
      </trkpt>
      <trkpt lat="44.18534" lon="5.32428">
        <ele>643.2</ele>
        <time>2026-05-14T15:40:07.999Z</time>
      </trkpt>
      <trkpt lat="44.18534" lon="5.32428">
        <ele>642.7</ele>
        <time>2026-05-14T15:40:08.999Z</time>
      </trkpt>
      <trkpt lat="44.18534" lon="5.32428">
        <ele>642.6</ele>
        <time>2026-05-14T15:40:09.999Z</time>
      </trkpt>
      <trkpt lat="44.18534" lon="5.32428">
        <ele>642.6</ele>
        <time>2026-05-14T15:40:10.999Z</time>
      </trkpt>
      <trkpt lat="44.18534" lon="5.32428">
        <ele>642.3</ele>
        <time>2026-05-14T15:40:11.999Z</time>
      </trkpt>
      <trkpt lat="44.18534" lon="5.32428">
        <ele>642</ele>
        <time>2026-05-14T15:40:12.999Z</time>
      </trkpt>
      <trkpt lat="44.18534" lon="5.32428">
        <ele>641.8</ele>
        <time>2026-05-14T15:40:13.999Z</time>
      </trkpt>
      <trkpt lat="44.18534" lon="5.32428">
        <ele>641.4</ele>
        <time>2026-05-14T15:40:14.999Z</time>
      </trkpt>
      <trkpt lat="44.18534" lon="5.32428">
        <ele>640.9</ele>
        <time>2026-05-14T15:40:15.999Z</time>
      </trkpt>
      <trkpt lat="44.18534" lon="5.32428">
        <ele>640.7</ele>
        <time>2026-05-14T15:40:16.999Z</time>
      </trkpt>
      <trkpt lat="44.18533" lon="5.3243">
        <ele>640.5</ele>
        <time>2026-05-14T15:40:17.999Z</time>
      </trkpt>
      <trkpt lat="44.18534" lon="5.3243">
        <ele>640.9</ele>
        <time>2026-05-14T15:40:18.999Z</time>
      </trkpt>
      <trkpt lat="44.18534" lon="5.32432">
        <ele>640.8</ele>
        <time>2026-05-14T15:40:19.999Z</time>
      </trkpt>
      <trkpt lat="44.18534" lon="5.32432">
        <ele>641</ele>
        <time>2026-05-14T15:40:20.999Z</time>
      </trkpt>
      <trkpt lat="44.18534" lon="5.32432">
        <ele>640.8</ele>
        <time>2026-05-14T15:40:21.999Z</time>
      </trkpt>
      <trkpt lat="44.18534" lon="5.32432">
        <ele>641</ele>
        <time>2026-05-14T15:40:22.999Z</time>
      </trkpt>
      <trkpt lat="44.18534" lon="5.32432">
        <ele>640.8</ele>
        <time>2026-05-14T15:40:23.999Z</time>
      </trkpt>
      <trkpt lat="44.18534" lon="5.32432">
        <ele>640.7</ele>
        <time>2026-05-14T15:40:24.999Z</time>
      </trkpt>
      <trkpt lat="44.18534" lon="5.32432">
        <ele>640.6</ele>
        <time>2026-05-14T15:40:25.999Z</time>
      </trkpt>
      <trkpt lat="44.18534" lon="5.32432">
        <ele>640.4</ele>
        <time>2026-05-14T15:40:26.999Z</time>
      </trkpt>
      <trkpt lat="44.18534" lon="5.32432">
        <ele>640.2</ele>
        <time>2026-05-14T15:40:27.999Z</time>
      </trkpt>
      <trkpt lat="44.18534" lon="5.32432">
        <ele>640.6</ele>
        <time>2026-05-14T15:40:29.999Z</time>
      </trkpt>
      <trkpt lat="44.18534" lon="5.32432">
        <ele>640.9</ele>
        <time>2026-05-14T15:40:30.999Z</time>
      </trkpt>
      <trkpt lat="44.18534" lon="5.32432">
        <ele>641.2</ele>
        <time>2026-05-14T15:40:31.999Z</time>
      </trkpt>
      <trkpt lat="44.18534" lon="5.32432">
        <ele>641.2</ele>
        <time>2026-05-14T15:40:32.999Z</time>
      </trkpt>
      <trkpt lat="44.18534" lon="5.32432">
        <ele>641.3</ele>
        <time>2026-05-14T15:40:33.999Z</time>
      </trkpt>
      <trkpt lat="44.18534" lon="5.32432">
        <ele>641.2</ele>
        <time>2026-05-14T15:40:34.999Z</time>
      </trkpt>
      <trkpt lat="44.18534" lon="5.32432">
        <ele>640.9</ele>
        <time>2026-05-14T15:40:35.999Z</time>
      </trkpt>
      <trkpt lat="44.18534" lon="5.32432">
        <ele>641</ele>
        <time>2026-05-14T15:40:36.999Z</time>
      </trkpt>
      <trkpt lat="44.18534" lon="5.32432">
        <ele>641.1</ele>
        <time>2026-05-14T15:40:37.999Z</time>
      </trkpt>
      <trkpt lat="44.18534" lon="5.32432">
        <ele>641</ele>
        <time>2026-05-14T15:40:38.999Z</time>
      </trkpt>
      <trkpt lat="44.18534" lon="5.32432">
        <ele>641</ele>
        <time>2026-05-14T15:40:39.999Z</time>
      </trkpt>
      <trkpt lat="44.18534" lon="5.32432">
        <ele>641.3</ele>
        <time>2026-05-14T15:40:40.999Z</time>
      </trkpt>
      <trkpt lat="44.18534" lon="5.32432">
        <ele>641.6</ele>
        <time>2026-05-14T15:40:41.999Z</time>
      </trkpt>
      <trkpt lat="44.18534" lon="5.32432">
        <ele>641.8</ele>
        <time>2026-05-14T15:40:42.999Z</time>
      </trkpt>
      <trkpt lat="44.18534" lon="5.32432">
        <ele>642</ele>
        <time>2026-05-14T15:40:43.999Z</time>
      </trkpt>
      <trkpt lat="44.18534" lon="5.32432">
        <ele>642</ele>
        <time>2026-05-14T15:40:44.999Z</time>
      </trkpt>
      <trkpt lat="44.18534" lon="5.32432">
        <ele>641.9</ele>
        <time>2026-05-14T15:40:45.999Z</time>
      </trkpt>
      <trkpt lat="44.18534" lon="5.32432">
        <ele>641.8</ele>
        <time>2026-05-14T15:40:46.999Z</time>
      </trkpt>
      <trkpt lat="44.18534" lon="5.32432">
        <ele>642.1</ele>
        <time>2026-05-14T15:40:47.999Z</time>
      </trkpt>
      <trkpt lat="44.18534" lon="5.32432">
        <ele>642.2</ele>
        <time>2026-05-14T15:40:48.999Z</time>
      </trkpt>
      <trkpt lat="44.18534" lon="5.32432">
        <ele>642.2</ele>
        <time>2026-05-14T15:40:49.999Z</time>
      </trkpt>
      <trkpt lat="44.18534" lon="5.32432">
        <ele>642.3</ele>
        <time>2026-05-14T15:40:50.999Z</time>
      </trkpt>
      <trkpt lat="44.18534" lon="5.32432">
        <ele>642.5</ele>
        <time>2026-05-14T15:40:51.999Z</time>
      </trkpt>
      <trkpt lat="44.18534" lon="5.32432">
        <ele>642.5</ele>
        <time>2026-05-14T15:40:52.999Z</time>
      </trkpt>
      <trkpt lat="44.18534" lon="5.32432">
        <ele>642.4</ele>
        <time>2026-05-14T15:40:53.999Z</time>
      </trkpt>
      <trkpt lat="44.18534" lon="5.32432">
        <ele>642.4</ele>
        <time>2026-05-14T15:40:54.999Z</time>
      </trkpt>
      <trkpt lat="44.18534" lon="5.32432">
        <ele>642.6</ele>
        <time>2026-05-14T15:40:55.999Z</time>
      </trkpt>
      <trkpt lat="44.18534" lon="5.32432">
        <ele>642.8</ele>
        <time>2026-05-14T15:40:56.999Z</time>
      </trkpt>
      <trkpt lat="44.18534" lon="5.32432">
        <ele>642.7</ele>
        <time>2026-05-14T15:40:57.999Z</time>
      </trkpt>
      <trkpt lat="44.18533" lon="5.32431">
        <ele>642.8</ele>
        <time>2026-05-14T15:40:58.999Z</time>
      </trkpt>
      <trkpt lat="44.18533" lon="5.32431">
        <ele>642.7</ele>
        <time>2026-05-14T15:40:59.999Z</time>
      </trkpt>
      <trkpt lat="44.18533" lon="5.3243">
        <ele>642.9</ele>
        <time>2026-05-14T15:41:00.999Z</time>
      </trkpt>
      <trkpt lat="44.18532" lon="5.3243">
        <ele>643.2</ele>
        <time>2026-05-14T15:41:01.999Z</time>
      </trkpt>
      <trkpt lat="44.18532" lon="5.3243">
        <ele>643.4</ele>
        <time>2026-05-14T15:41:02.999Z</time>
      </trkpt>
      <trkpt lat="44.18532" lon="5.3243">
        <ele>643.5</ele>
        <time>2026-05-14T15:41:03.999Z</time>
      </trkpt>
      <trkpt lat="44.18532" lon="5.3243">
        <ele>643.4</ele>
        <time>2026-05-14T15:41:04.999Z</time>
      </trkpt>
      <trkpt lat="44.18532" lon="5.3243">
        <ele>643.3</ele>
        <time>2026-05-14T15:41:05.999Z</time>
      </trkpt>
      <trkpt lat="44.18532" lon="5.3243">
        <ele>643.2</ele>
        <time>2026-05-14T15:41:06.999Z</time>
      </trkpt>
      <trkpt lat="44.18533" lon="5.3243">
        <ele>643</ele>
        <time>2026-05-14T15:41:07.999Z</time>
      </trkpt>
      <trkpt lat="44.18533" lon="5.3243">
        <ele>643.1</ele>
        <time>2026-05-14T15:41:08.999Z</time>
      </trkpt>
      <trkpt lat="44.18533" lon="5.3243">
        <ele>643.3</ele>
        <time>2026-05-14T15:41:09.999Z</time>
      </trkpt>
      <trkpt lat="44.18533" lon="5.3243">
        <ele>643.3</ele>
        <time>2026-05-14T15:41:10.999Z</time>
      </trkpt>
      <trkpt lat="44.18533" lon="5.3243">
        <ele>643.4</ele>
        <time>2026-05-14T15:41:11.999Z</time>
      </trkpt>
      <trkpt lat="44.18533" lon="5.3243">
        <ele>643</ele>
        <time>2026-05-14T15:41:12.999Z</time>
      </trkpt>
      <trkpt lat="44.18533" lon="5.3243">
        <ele>642.9</ele>
        <time>2026-05-14T15:41:13.999Z</time>
      </trkpt>
      <trkpt lat="44.18533" lon="5.3243">
        <ele>642.7</ele>
        <time>2026-05-14T15:41:14.999Z</time>
      </trkpt>
      <trkpt lat="44.18533" lon="5.3243">
        <ele>642.5</ele>
        <time>2026-05-14T15:41:15.999Z</time>
      </trkpt>
      <trkpt lat="44.18533" lon="5.3243">
        <ele>642.8</ele>
        <time>2026-05-14T15:41:16.999Z</time>
      </trkpt>
      <trkpt lat="44.18533" lon="5.3243">
        <ele>642.8</ele>
        <time>2026-05-14T15:41:17.999Z</time>
      </trkpt>
      <trkpt lat="44.18533" lon="5.3243">
        <ele>643</ele>
        <time>2026-05-14T15:41:18.999Z</time>
      </trkpt>
      <trkpt lat="44.18533" lon="5.3243">
        <ele>643</ele>
        <time>2026-05-14T15:41:19.999Z</time>
      </trkpt>
    </trkseg>
  </trk>
</gpx>